<?xml version="1.0" encoding="UTF-8"?>
<gpx version="1.1" creator="https://www.youtrack.es" xsi:schemaLocation="http://www.topografix.com/GPX/1/1 http://www.topografix.com/GPX/1/1/gpx.xsd http://www.garmin.com/xmlschemas/GpxExtensions/v3 http://www.garmin.com/xmlschemas/GpxExtensionsv3.xsd http://www.garmin.com/xmlschemas/TrackPointExtension/v1 http://www.garmin.com/xmlschemas/TrackPointExtensionv1.xsd" xmlns:gpxtpx="http://www.garmin.com/xmlschemas/TrackPointExtension/v1" xmlns:gpxx="http://www.garmin.com/xmlschemas/GpxExtensions/v3" xmlns:xsi="http://www.w3.org/2001/XMLSchema-instance">
  <metadata>
    <link href="https://www.youtrack.es">
      <text>YouTrack.es</text>
    </link>
    <time>2026-05-08T18:55:53Z</time>
  </metadata>
  <trk>
    <src>https://www.youtrack.es</src>
    <link href="https://www.youtrack.es/ruta/846-transpyr">
      <text>YouTrack.es</text>
    </link>
    <trkseg>
      <trkpt lat="42.265029" lon="3.171943">
        <ele>2.0</ele>
        <time>2018-06-10T06:00:00Z</time>
      </trkpt>
      <trkpt lat="42.264993" lon="3.171991">
        <ele>2.0</ele>
        <time>2018-06-10T06:00:01Z</time>
      </trkpt>
      <trkpt lat="42.264971" lon="3.172007">
        <ele>2.0</ele>
        <time>2018-06-10T06:00:02Z</time>
      </trkpt>
      <trkpt lat="42.264948" lon="3.172009">
        <ele>2.0</ele>
        <time>2018-06-10T06:00:02Z</time>
      </trkpt>
      <trkpt lat="42.264869" lon="3.171924">
        <ele>2.0</ele>
        <time>2018-06-10T06:00:05Z</time>
      </trkpt>
      <trkpt lat="42.264831" lon="3.171902">
        <ele>2.0</ele>
        <time>2018-06-10T06:00:06Z</time>
      </trkpt>
      <trkpt lat="42.264780" lon="3.171892">
        <ele>2.0</ele>
        <time>2018-06-10T06:00:07Z</time>
      </trkpt>
      <trkpt lat="42.264732" lon="3.171902">
        <ele>2.0</ele>
        <time>2018-06-10T06:00:09Z</time>
      </trkpt>
      <trkpt lat="42.264689" lon="3.171929">
        <ele>2.0</ele>
        <time>2018-06-10T06:00:10Z</time>
      </trkpt>
      <trkpt lat="42.264632" lon="3.171979">
        <ele>2.0</ele>
        <time>2018-06-10T06:00:12Z</time>
      </trkpt>
      <trkpt lat="42.264553" lon="3.172065">
        <ele>1.7</ele>
        <time>2018-06-10T06:00:14Z</time>
      </trkpt>
      <trkpt lat="42.264493" lon="3.172167">
        <ele>1.0</ele>
        <time>2018-06-10T06:00:17Z</time>
      </trkpt>
      <trkpt lat="42.264434" lon="3.172397">
        <ele>1.0</ele>
        <time>2018-06-10T06:00:22Z</time>
      </trkpt>
      <trkpt lat="42.264370" lon="3.172784">
        <ele>1.0</ele>
        <time>2018-06-10T06:00:30Z</time>
      </trkpt>
      <trkpt lat="42.264251" lon="3.173261">
        <ele>2.0</ele>
        <time>2018-06-10T06:00:39Z</time>
      </trkpt>
      <trkpt lat="42.264215" lon="3.173325">
        <ele>2.0</ele>
        <time>2018-06-10T06:00:41Z</time>
      </trkpt>
      <trkpt lat="42.264160" lon="3.173417">
        <ele>2.0</ele>
        <time>2018-06-10T06:00:43Z</time>
      </trkpt>
      <trkpt lat="42.263993" lon="3.173636">
        <ele>1.0</ele>
        <time>2018-06-10T06:00:50Z</time>
      </trkpt>
      <trkpt lat="42.263882" lon="3.173728">
        <ele>1.0</ele>
        <time>2018-06-10T06:00:53Z</time>
      </trkpt>
      <trkpt lat="42.262421" lon="3.174629">
        <ele>1.0</ele>
        <time>2018-06-10T06:01:36Z</time>
      </trkpt>
      <trkpt lat="42.261778" lon="3.175004">
        <ele>1.0</ele>
        <time>2018-06-10T06:01:54Z</time>
      </trkpt>
      <trkpt lat="42.261448" lon="3.175235">
        <ele>1.0</ele>
        <time>2018-06-10T06:02:04Z</time>
      </trkpt>
      <trkpt lat="42.261325" lon="3.175358">
        <ele>1.0</ele>
        <time>2018-06-10T06:02:08Z</time>
      </trkpt>
      <trkpt lat="42.261230" lon="3.175503">
        <ele>1.0</ele>
        <time>2018-06-10T06:02:12Z</time>
      </trkpt>
      <trkpt lat="42.261119" lon="3.175696">
        <ele>0.8</ele>
        <time>2018-06-10T06:02:17Z</time>
      </trkpt>
      <trkpt lat="42.261039" lon="3.175884">
        <ele>1.0</ele>
        <time>2018-06-10T06:02:21Z</time>
      </trkpt>
      <trkpt lat="42.260504" lon="3.177330">
        <ele>1.0</ele>
        <time>2018-06-10T06:02:53Z</time>
      </trkpt>
      <trkpt lat="42.260322" lon="3.177807">
        <ele>1.0</ele>
        <time>2018-06-10T06:03:04Z</time>
      </trkpt>
      <trkpt lat="42.260099" lon="3.178164">
        <ele>0.2</ele>
        <time>2018-06-10T06:03:13Z</time>
      </trkpt>
      <trkpt lat="42.260095" lon="3.178169">
        <ele>0.1</ele>
        <time>2018-06-10T06:03:13Z</time>
      </trkpt>
      <trkpt lat="42.259974" lon="3.178046">
        <ele>0</ele>
        <time>2018-06-10T06:03:17Z</time>
      </trkpt>
      <trkpt lat="42.259690" lon="3.178534">
        <ele>1.0</ele>
        <time>2018-06-10T06:03:29Z</time>
      </trkpt>
      <trkpt lat="42.259952" lon="3.178878">
        <ele>1.0</ele>
        <time>2018-06-10T06:03:39Z</time>
      </trkpt>
      <trkpt lat="42.259962" lon="3.178896">
        <ele>1.0</ele>
        <time>2018-06-10T06:03:39Z</time>
      </trkpt>
      <trkpt lat="42.259958" lon="3.178926">
        <ele>1.0</ele>
        <time>2018-06-10T06:03:40Z</time>
      </trkpt>
      <trkpt lat="42.259944" lon="3.178950">
        <ele>1.0</ele>
        <time>2018-06-10T06:03:41Z</time>
      </trkpt>
      <trkpt lat="42.259710" lon="3.179221">
        <ele>1.0</ele>
        <time>2018-06-10T06:03:49Z</time>
      </trkpt>
      <trkpt lat="42.258906" lon="3.180307">
        <ele>2.0</ele>
        <time>2018-06-10T06:04:19Z</time>
      </trkpt>
      <trkpt lat="42.258873" lon="3.180326">
        <ele>2.0</ele>
        <time>2018-06-10T06:04:20Z</time>
      </trkpt>
      <trkpt lat="42.258841" lon="3.180331">
        <ele>2.0</ele>
        <time>2018-06-10T06:04:21Z</time>
      </trkpt>
      <trkpt lat="42.258527" lon="3.180401">
        <ele>1.0</ele>
        <time>2018-06-10T06:04:29Z</time>
      </trkpt>
      <trkpt lat="42.258442" lon="3.180481">
        <ele>1.0</ele>
        <time>2018-06-10T06:04:32Z</time>
      </trkpt>
      <trkpt lat="42.258051" lon="3.180924">
        <ele>0.1</ele>
        <time>2018-06-10T06:04:46Z</time>
      </trkpt>
      <trkpt lat="42.258041" lon="3.181058">
        <ele>1.0</ele>
        <time>2018-06-10T06:04:48Z</time>
      </trkpt>
      <trkpt lat="42.258042" lon="3.181235">
        <ele>1.0</ele>
        <time>2018-06-10T06:04:52Z</time>
      </trkpt>
      <trkpt lat="42.258062" lon="3.181318">
        <ele>1.1</ele>
        <time>2018-06-10T06:04:54Z</time>
      </trkpt>
      <trkpt lat="42.258112" lon="3.181365">
        <ele>1.9</ele>
        <time>2018-06-10T06:04:55Z</time>
      </trkpt>
      <trkpt lat="42.258147" lon="3.181407">
        <ele>2.0</ele>
        <time>2018-06-10T06:04:57Z</time>
      </trkpt>
      <trkpt lat="42.258181" lon="3.181574">
        <ele>2.0</ele>
        <time>2018-06-10T06:05:00Z</time>
      </trkpt>
      <trkpt lat="42.258365" lon="3.182512">
        <ele>3.0</ele>
        <time>2018-06-10T06:05:19Z</time>
      </trkpt>
      <trkpt lat="42.258510" lon="3.183225">
        <ele>3.0</ele>
        <time>2018-06-10T06:05:34Z</time>
      </trkpt>
      <trkpt lat="42.258570" lon="3.183639">
        <ele>3.6</ele>
        <time>2018-06-10T06:05:42Z</time>
      </trkpt>
      <trkpt lat="42.258589" lon="3.183806">
        <ele>4.0</ele>
        <time>2018-06-10T06:05:45Z</time>
      </trkpt>
      <trkpt lat="42.258592" lon="3.183988">
        <ele>4.0</ele>
        <time>2018-06-10T06:05:49Z</time>
      </trkpt>
      <trkpt lat="42.258607" lon="3.184159">
        <ele>4.8</ele>
        <time>2018-06-10T06:05:52Z</time>
      </trkpt>
      <trkpt lat="42.258645" lon="3.184350">
        <ele>4.9</ele>
        <time>2018-06-10T06:05:56Z</time>
      </trkpt>
      <trkpt lat="42.258694" lon="3.184562">
        <ele>4.9</ele>
        <time>2018-06-10T06:06:00Z</time>
      </trkpt>
      <trkpt lat="42.258785" lon="3.184801">
        <ele>5.3</ele>
        <time>2018-06-10T06:06:06Z</time>
      </trkpt>
      <trkpt lat="42.258827" lon="3.184920">
        <ele>5.8</ele>
        <time>2018-06-10T06:06:08Z</time>
      </trkpt>
      <trkpt lat="42.258869" lon="3.185004">
        <ele>5.7</ele>
        <time>2018-06-10T06:06:10Z</time>
      </trkpt>
      <trkpt lat="42.258911" lon="3.185044">
        <ele>4.5</ele>
        <time>2018-06-10T06:06:12Z</time>
      </trkpt>
      <trkpt lat="42.258953" lon="3.185057">
        <ele>5.0</ele>
        <time>2018-06-10T06:06:13Z</time>
      </trkpt>
      <trkpt lat="42.259014" lon="3.185056">
        <ele>6.1</ele>
        <time>2018-06-10T06:06:15Z</time>
      </trkpt>
      <trkpt lat="42.259177" lon="3.185048">
        <ele>7.0</ele>
        <time>2018-06-10T06:06:19Z</time>
      </trkpt>
      <trkpt lat="42.259262" lon="3.185037">
        <ele>7.0</ele>
        <time>2018-06-10T06:06:21Z</time>
      </trkpt>
      <trkpt lat="42.259362" lon="3.185013">
        <ele>8.0</ele>
        <time>2018-06-10T06:06:24Z</time>
      </trkpt>
      <trkpt lat="42.260080" lon="3.184766">
        <ele>12.0</ele>
        <time>2018-06-10T06:06:44Z</time>
      </trkpt>
      <trkpt lat="42.260340" lon="3.184638">
        <ele>13.7</ele>
        <time>2018-06-10T06:06:51Z</time>
      </trkpt>
      <trkpt lat="42.260664" lon="3.184463">
        <ele>15.0</ele>
        <time>2018-06-10T06:07:00Z</time>
      </trkpt>
      <trkpt lat="42.260968" lon="3.184292">
        <ele>16.7</ele>
        <time>2018-06-10T06:07:09Z</time>
      </trkpt>
      <trkpt lat="42.261297" lon="3.184111">
        <ele>18.0</ele>
        <time>2018-06-10T06:07:19Z</time>
      </trkpt>
      <trkpt lat="42.261699" lon="3.183875">
        <ele>19.0</ele>
        <time>2018-06-10T06:07:30Z</time>
      </trkpt>
      <trkpt lat="42.262009" lon="3.183699">
        <ele>19.0</ele>
        <time>2018-06-10T06:07:39Z</time>
      </trkpt>
      <trkpt lat="42.262259" lon="3.183539">
        <ele>19.7</ele>
        <time>2018-06-10T06:07:47Z</time>
      </trkpt>
      <trkpt lat="42.262352" lon="3.183468">
        <ele>20.0</ele>
        <time>2018-06-10T06:07:49Z</time>
      </trkpt>
      <trkpt lat="42.262467" lon="3.183363">
        <ele>19.6</ele>
        <time>2018-06-10T06:07:53Z</time>
      </trkpt>
      <trkpt lat="42.262602" lon="3.183190">
        <ele>19.0</ele>
        <time>2018-06-10T06:07:58Z</time>
      </trkpt>
      <trkpt lat="42.262783" lon="3.182940">
        <ele>18.6</ele>
        <time>2018-06-10T06:08:05Z</time>
      </trkpt>
      <trkpt lat="42.262976" lon="3.182665">
        <ele>18.0</ele>
        <time>2018-06-10T06:08:12Z</time>
      </trkpt>
      <trkpt lat="42.263138" lon="3.182392">
        <ele>16.7</ele>
        <time>2018-06-10T06:08:19Z</time>
      </trkpt>
      <trkpt lat="42.263348" lon="3.181999">
        <ele>15.0</ele>
        <time>2018-06-10T06:08:29Z</time>
      </trkpt>
      <trkpt lat="42.263478" lon="3.181679">
        <ele>15.0</ele>
        <time>2018-06-10T06:08:36Z</time>
      </trkpt>
      <trkpt lat="42.263710" lon="3.181032">
        <ele>13.0</ele>
        <time>2018-06-10T06:08:50Z</time>
      </trkpt>
      <trkpt lat="42.263808" lon="3.180790">
        <ele>12.0</ele>
        <time>2018-06-10T06:08:56Z</time>
      </trkpt>
      <trkpt lat="42.263895" lon="3.180649">
        <ele>11.5</ele>
        <time>2018-06-10T06:08:59Z</time>
      </trkpt>
      <trkpt lat="42.264089" lon="3.180454">
        <ele>8.6</ele>
        <time>2018-06-10T06:09:06Z</time>
      </trkpt>
      <trkpt lat="42.264146" lon="3.180403">
        <ele>8.0</ele>
        <time>2018-06-10T06:09:08Z</time>
      </trkpt>
      <trkpt lat="42.264234" lon="3.180351">
        <ele>8.0</ele>
        <time>2018-06-10T06:09:10Z</time>
      </trkpt>
      <trkpt lat="42.264286" lon="3.180354">
        <ele>8.0</ele>
        <time>2018-06-10T06:09:11Z</time>
      </trkpt>
      <trkpt lat="42.264387" lon="3.180321">
        <ele>8.0</ele>
        <time>2018-06-10T06:09:14Z</time>
      </trkpt>
      <trkpt lat="42.264445" lon="3.180254">
        <ele>8.0</ele>
        <time>2018-06-10T06:09:16Z</time>
      </trkpt>
      <trkpt lat="42.264487" lon="3.180151">
        <ele>8.0</ele>
        <time>2018-06-10T06:09:19Z</time>
      </trkpt>
      <trkpt lat="42.264502" lon="3.180074">
        <ele>8.0</ele>
        <time>2018-06-10T06:09:20Z</time>
      </trkpt>
      <trkpt lat="42.264525" lon="3.180007">
        <ele>8.0</ele>
        <time>2018-06-10T06:09:22Z</time>
      </trkpt>
      <trkpt lat="42.264637" lon="3.179889">
        <ele>8.8</ele>
        <time>2018-06-10T06:09:25Z</time>
      </trkpt>
      <trkpt lat="42.264770" lon="3.179747">
        <ele>9.0</ele>
        <time>2018-06-10T06:09:30Z</time>
      </trkpt>
      <trkpt lat="42.264903" lon="3.179584">
        <ele>10.0</ele>
        <time>2018-06-10T06:09:35Z</time>
      </trkpt>
      <trkpt lat="42.265131" lon="3.179279">
        <ele>10.0</ele>
        <time>2018-06-10T06:09:43Z</time>
      </trkpt>
      <trkpt lat="42.265996" lon="3.178115">
        <ele>13.0</ele>
        <time>2018-06-10T06:10:16Z</time>
      </trkpt>
      <trkpt lat="42.266379" lon="3.177588">
        <ele>13.0</ele>
        <time>2018-06-10T06:10:30Z</time>
      </trkpt>
      <trkpt lat="42.266500" lon="3.177433">
        <ele>12.0</ele>
        <time>2018-06-10T06:10:35Z</time>
      </trkpt>
      <trkpt lat="42.266553" lon="3.177413">
        <ele>12.0</ele>
        <time>2018-06-10T06:10:36Z</time>
      </trkpt>
      <trkpt lat="42.266614" lon="3.177434">
        <ele>12.0</ele>
        <time>2018-06-10T06:10:38Z</time>
      </trkpt>
      <trkpt lat="42.266701" lon="3.177388">
        <ele>12.0</ele>
        <time>2018-06-10T06:10:40Z</time>
      </trkpt>
      <trkpt lat="42.266755" lon="3.177291">
        <ele>12.0</ele>
        <time>2018-06-10T06:10:43Z</time>
      </trkpt>
      <trkpt lat="42.266766" lon="3.177179">
        <ele>12.0</ele>
        <time>2018-06-10T06:10:45Z</time>
      </trkpt>
      <trkpt lat="42.266794" lon="3.177056">
        <ele>12.0</ele>
        <time>2018-06-10T06:10:48Z</time>
      </trkpt>
      <trkpt lat="42.266844" lon="3.176963">
        <ele>12.0</ele>
        <time>2018-06-10T06:10:50Z</time>
      </trkpt>
      <trkpt lat="42.266977" lon="3.176779">
        <ele>11.8</ele>
        <time>2018-06-10T06:10:55Z</time>
      </trkpt>
      <trkpt lat="42.267568" lon="3.175951">
        <ele>10.0</ele>
        <time>2018-06-10T06:11:18Z</time>
      </trkpt>
      <trkpt lat="42.267994" lon="3.175405">
        <ele>9.0</ele>
        <time>2018-06-10T06:11:33Z</time>
      </trkpt>
      <trkpt lat="42.268078" lon="3.175341">
        <ele>9.0</ele>
        <time>2018-06-10T06:11:36Z</time>
      </trkpt>
      <trkpt lat="42.268116" lon="3.175326">
        <ele>9.0</ele>
        <time>2018-06-10T06:11:37Z</time>
      </trkpt>
      <trkpt lat="42.268192" lon="3.175315">
        <ele>9.0</ele>
        <time>2018-06-10T06:11:39Z</time>
      </trkpt>
      <trkpt lat="42.268250" lon="3.175294">
        <ele>9.0</ele>
        <time>2018-06-10T06:11:40Z</time>
      </trkpt>
      <trkpt lat="42.268295" lon="3.175222">
        <ele>9.0</ele>
        <time>2018-06-10T06:11:42Z</time>
      </trkpt>
      <trkpt lat="42.268323" lon="3.175108">
        <ele>9.0</ele>
        <time>2018-06-10T06:11:45Z</time>
      </trkpt>
      <trkpt lat="42.268327" lon="3.174969">
        <ele>8.9</ele>
        <time>2018-06-10T06:11:47Z</time>
      </trkpt>
      <trkpt lat="42.268350" lon="3.174845">
        <ele>8.0</ele>
        <time>2018-06-10T06:11:50Z</time>
      </trkpt>
      <trkpt lat="42.268485" lon="3.174540">
        <ele>8.0</ele>
        <time>2018-06-10T06:11:57Z</time>
      </trkpt>
      <trkpt lat="42.268813" lon="3.173617">
        <ele>8.0</ele>
        <time>2018-06-10T06:12:17Z</time>
      </trkpt>
      <trkpt lat="42.268984" lon="3.173150">
        <ele>7.0</ele>
        <time>2018-06-10T06:12:27Z</time>
      </trkpt>
      <trkpt lat="42.269077" lon="3.172849">
        <ele>4.8</ele>
        <time>2018-06-10T06:12:34Z</time>
      </trkpt>
      <trkpt lat="42.269104" lon="3.172750">
        <ele>6.9</ele>
        <time>2018-06-10T06:12:36Z</time>
      </trkpt>
      <trkpt lat="42.269139" lon="3.172631">
        <ele>7.2</ele>
        <time>2018-06-10T06:12:38Z</time>
      </trkpt>
      <trkpt lat="42.269174" lon="3.172554">
        <ele>7.0</ele>
        <time>2018-06-10T06:12:40Z</time>
      </trkpt>
      <trkpt lat="42.269239" lon="3.172523">
        <ele>7.0</ele>
        <time>2018-06-10T06:12:42Z</time>
      </trkpt>
      <trkpt lat="42.269301" lon="3.172523">
        <ele>7.0</ele>
        <time>2018-06-10T06:12:44Z</time>
      </trkpt>
      <trkpt lat="42.269362" lon="3.172539">
        <ele>6.3</ele>
        <time>2018-06-10T06:12:45Z</time>
      </trkpt>
      <trkpt lat="42.269430" lon="3.172608">
        <ele>6.0</ele>
        <time>2018-06-10T06:12:48Z</time>
      </trkpt>
      <trkpt lat="42.269490" lon="3.172752">
        <ele>6.0</ele>
        <time>2018-06-10T06:12:51Z</time>
      </trkpt>
      <trkpt lat="42.269526" lon="3.172808">
        <ele>6.4</ele>
        <time>2018-06-10T06:12:52Z</time>
      </trkpt>
      <trkpt lat="42.269578" lon="3.172820">
        <ele>7.0</ele>
        <time>2018-06-10T06:12:54Z</time>
      </trkpt>
      <trkpt lat="42.269650" lon="3.172793">
        <ele>7.0</ele>
        <time>2018-06-10T06:12:56Z</time>
      </trkpt>
      <trkpt lat="42.269737" lon="3.172744">
        <ele>7.0</ele>
        <time>2018-06-10T06:12:58Z</time>
      </trkpt>
      <trkpt lat="42.269875" lon="3.172612">
        <ele>7.0</ele>
        <time>2018-06-10T06:13:03Z</time>
      </trkpt>
      <trkpt lat="42.269969" lon="3.172485">
        <ele>7.0</ele>
        <time>2018-06-10T06:13:06Z</time>
      </trkpt>
      <trkpt lat="42.270091" lon="3.172272">
        <ele>7.0</ele>
        <time>2018-06-10T06:13:12Z</time>
      </trkpt>
      <trkpt lat="42.270234" lon="3.172001">
        <ele>6.0</ele>
        <time>2018-06-10T06:13:18Z</time>
      </trkpt>
      <trkpt lat="42.270748" lon="3.171096">
        <ele>7.6</ele>
        <time>2018-06-10T06:13:41Z</time>
      </trkpt>
      <trkpt lat="42.271036" lon="3.170621">
        <ele>7.0</ele>
        <time>2018-06-10T06:13:53Z</time>
      </trkpt>
      <trkpt lat="42.271087" lon="3.170580">
        <ele>7.3</ele>
        <time>2018-06-10T06:13:54Z</time>
      </trkpt>
      <trkpt lat="42.271152" lon="3.170561">
        <ele>7.7</ele>
        <time>2018-06-10T06:13:56Z</time>
      </trkpt>
      <trkpt lat="42.271266" lon="3.170541">
        <ele>7.0</ele>
        <time>2018-06-10T06:13:59Z</time>
      </trkpt>
      <trkpt lat="42.271415" lon="3.170500">
        <ele>7.0</ele>
        <time>2018-06-10T06:14:03Z</time>
      </trkpt>
      <trkpt lat="42.271569" lon="3.170417">
        <ele>7.0</ele>
        <time>2018-06-10T06:14:08Z</time>
      </trkpt>
      <trkpt lat="42.271689" lon="3.170323">
        <ele>7.1</ele>
        <time>2018-06-10T06:14:11Z</time>
      </trkpt>
      <trkpt lat="42.271767" lon="3.170267">
        <ele>7.2</ele>
        <time>2018-06-10T06:14:14Z</time>
      </trkpt>
      <trkpt lat="42.271859" lon="3.170165">
        <ele>7.5</ele>
        <time>2018-06-10T06:14:17Z</time>
      </trkpt>
      <trkpt lat="42.271997" lon="3.170008">
        <ele>7.9</ele>
        <time>2018-06-10T06:14:22Z</time>
      </trkpt>
      <trkpt lat="42.272206" lon="3.169790">
        <ele>5.3</ele>
        <time>2018-06-10T06:14:29Z</time>
      </trkpt>
      <trkpt lat="42.272343" lon="3.169687">
        <ele>6.4</ele>
        <time>2018-06-10T06:14:33Z</time>
      </trkpt>
      <trkpt lat="42.272447" lon="3.169602">
        <ele>8.6</ele>
        <time>2018-06-10T06:14:36Z</time>
      </trkpt>
      <trkpt lat="42.272663" lon="3.169360">
        <ele>9.0</ele>
        <time>2018-06-10T06:14:44Z</time>
      </trkpt>
      <trkpt lat="42.272770" lon="3.169228">
        <ele>10.0</ele>
        <time>2018-06-10T06:14:47Z</time>
      </trkpt>
      <trkpt lat="42.272841" lon="3.169125">
        <ele>10.1</ele>
        <time>2018-06-10T06:14:50Z</time>
      </trkpt>
      <trkpt lat="42.272903" lon="3.168998">
        <ele>10.8</ele>
        <time>2018-06-10T06:14:53Z</time>
      </trkpt>
      <trkpt lat="42.272988" lon="3.168834">
        <ele>11.9</ele>
        <time>2018-06-10T06:14:57Z</time>
      </trkpt>
      <trkpt lat="42.273354" lon="3.168221">
        <ele>12.9</ele>
        <time>2018-06-10T06:15:13Z</time>
      </trkpt>
      <trkpt lat="42.273389" lon="3.168125">
        <ele>13.0</ele>
        <time>2018-06-10T06:15:15Z</time>
      </trkpt>
      <trkpt lat="42.273403" lon="3.168049">
        <ele>13.0</ele>
        <time>2018-06-10T06:15:16Z</time>
      </trkpt>
      <trkpt lat="42.273399" lon="3.167974">
        <ele>13.0</ele>
        <time>2018-06-10T06:15:18Z</time>
      </trkpt>
      <trkpt lat="42.273277" lon="3.166951">
        <ele>13.0</ele>
        <time>2018-06-10T06:15:38Z</time>
      </trkpt>
      <trkpt lat="42.273293" lon="3.166897">
        <ele>13.0</ele>
        <time>2018-06-10T06:15:39Z</time>
      </trkpt>
      <trkpt lat="42.273330" lon="3.166848">
        <ele>13.0</ele>
        <time>2018-06-10T06:15:41Z</time>
      </trkpt>
      <trkpt lat="42.273396" lon="3.166824">
        <ele>13.0</ele>
        <time>2018-06-10T06:15:43Z</time>
      </trkpt>
      <trkpt lat="42.273868" lon="3.166685">
        <ele>14.0</ele>
        <time>2018-06-10T06:15:55Z</time>
      </trkpt>
      <trkpt lat="42.273917" lon="3.166658">
        <ele>13.6</ele>
        <time>2018-06-10T06:15:57Z</time>
      </trkpt>
      <trkpt lat="42.273959" lon="3.166614">
        <ele>13.5</ele>
        <time>2018-06-10T06:15:58Z</time>
      </trkpt>
      <trkpt lat="42.273993" lon="3.166553">
        <ele>13.0</ele>
        <time>2018-06-10T06:16:00Z</time>
      </trkpt>
      <trkpt lat="42.274023" lon="3.166474">
        <ele>13.0</ele>
        <time>2018-06-10T06:16:01Z</time>
      </trkpt>
      <trkpt lat="42.274057" lon="3.166347">
        <ele>13.0</ele>
        <time>2018-06-10T06:16:04Z</time>
      </trkpt>
      <trkpt lat="42.274104" lon="3.166064">
        <ele>12.3</ele>
        <time>2018-06-10T06:16:10Z</time>
      </trkpt>
      <trkpt lat="42.274145" lon="3.165878">
        <ele>12.3</ele>
        <time>2018-06-10T06:16:14Z</time>
      </trkpt>
      <trkpt lat="42.274205" lon="3.165664">
        <ele>11.0</ele>
        <time>2018-06-10T06:16:18Z</time>
      </trkpt>
      <trkpt lat="42.274247" lon="3.165583">
        <ele>10.8</ele>
        <time>2018-06-10T06:16:20Z</time>
      </trkpt>
      <trkpt lat="42.274328" lon="3.165468">
        <ele>10.9</ele>
        <time>2018-06-10T06:16:23Z</time>
      </trkpt>
      <trkpt lat="42.274369" lon="3.165433">
        <ele>9.5</ele>
        <time>2018-06-10T06:16:25Z</time>
      </trkpt>
      <trkpt lat="42.274425" lon="3.165360">
        <ele>8.9</ele>
        <time>2018-06-10T06:16:27Z</time>
      </trkpt>
      <trkpt lat="42.274598" lon="3.165119">
        <ele>10.8</ele>
        <time>2018-06-10T06:16:33Z</time>
      </trkpt>
      <trkpt lat="42.274815" lon="3.164842">
        <ele>12.0</ele>
        <time>2018-06-10T06:16:41Z</time>
      </trkpt>
      <trkpt lat="42.274923" lon="3.164731">
        <ele>12.0</ele>
        <time>2018-06-10T06:16:45Z</time>
      </trkpt>
      <trkpt lat="42.274999" lon="3.164618">
        <ele>12.0</ele>
        <time>2018-06-10T06:16:48Z</time>
      </trkpt>
      <trkpt lat="42.275048" lon="3.164511">
        <ele>12.0</ele>
        <time>2018-06-10T06:16:50Z</time>
      </trkpt>
      <trkpt lat="42.275071" lon="3.164425">
        <ele>12.2</ele>
        <time>2018-06-10T06:16:52Z</time>
      </trkpt>
      <trkpt lat="42.275082" lon="3.164292">
        <ele>13.0</ele>
        <time>2018-06-10T06:16:55Z</time>
      </trkpt>
      <trkpt lat="42.275083" lon="3.164088">
        <ele>13.1</ele>
        <time>2018-06-10T06:16:59Z</time>
      </trkpt>
      <trkpt lat="42.275098" lon="3.163864">
        <ele>13.7</ele>
        <time>2018-06-10T06:17:03Z</time>
      </trkpt>
      <trkpt lat="42.275144" lon="3.163670">
        <ele>13.8</ele>
        <time>2018-06-10T06:17:07Z</time>
      </trkpt>
      <trkpt lat="42.275228" lon="3.163371">
        <ele>14.0</ele>
        <time>2018-06-10T06:17:14Z</time>
      </trkpt>
      <trkpt lat="42.275307" lon="3.163123">
        <ele>14.0</ele>
        <time>2018-06-10T06:17:19Z</time>
      </trkpt>
      <trkpt lat="42.275421" lon="3.162875">
        <ele>15.0</ele>
        <time>2018-06-10T06:17:25Z</time>
      </trkpt>
      <trkpt lat="42.275537" lon="3.162701">
        <ele>15.0</ele>
        <time>2018-06-10T06:17:29Z</time>
      </trkpt>
      <trkpt lat="42.275697" lon="3.162463">
        <ele>15.7</ele>
        <time>2018-06-10T06:17:36Z</time>
      </trkpt>
      <trkpt lat="42.275813" lon="3.162329">
        <ele>15.0</ele>
        <time>2018-06-10T06:17:40Z</time>
      </trkpt>
      <trkpt lat="42.276069" lon="3.162126">
        <ele>14.7</ele>
        <time>2018-06-10T06:17:48Z</time>
      </trkpt>
      <trkpt lat="42.276386" lon="3.161869">
        <ele>14.5</ele>
        <time>2018-06-10T06:17:57Z</time>
      </trkpt>
      <trkpt lat="42.276470" lon="3.161820">
        <ele>14.9</ele>
        <time>2018-06-10T06:18:00Z</time>
      </trkpt>
      <trkpt lat="42.276659" lon="3.161752">
        <ele>15.8</ele>
        <time>2018-06-10T06:18:05Z</time>
      </trkpt>
      <trkpt lat="42.277169" lon="3.161592">
        <ele>16.7</ele>
        <time>2018-06-10T06:18:19Z</time>
      </trkpt>
      <trkpt lat="42.277555" lon="3.161470">
        <ele>18.0</ele>
        <time>2018-06-10T06:18:30Z</time>
      </trkpt>
      <trkpt lat="42.277668" lon="3.161422">
        <ele>18.7</ele>
        <time>2018-06-10T06:18:33Z</time>
      </trkpt>
      <trkpt lat="42.277758" lon="3.161380">
        <ele>19.9</ele>
        <time>2018-06-10T06:18:35Z</time>
      </trkpt>
      <trkpt lat="42.277862" lon="3.161334">
        <ele>20.0</ele>
        <time>2018-06-10T06:18:38Z</time>
      </trkpt>
      <trkpt lat="42.277931" lon="3.161295">
        <ele>20.0</ele>
        <time>2018-06-10T06:18:40Z</time>
      </trkpt>
      <trkpt lat="42.278049" lon="3.161210">
        <ele>19.9</ele>
        <time>2018-06-10T06:18:44Z</time>
      </trkpt>
      <trkpt lat="42.278220" lon="3.161080">
        <ele>19.6</ele>
        <time>2018-06-10T06:18:49Z</time>
      </trkpt>
      <trkpt lat="42.278360" lon="3.160947">
        <ele>19.8</ele>
        <time>2018-06-10T06:18:53Z</time>
      </trkpt>
      <trkpt lat="42.278622" lon="3.160724">
        <ele>20.5</ele>
        <time>2018-06-10T06:19:02Z</time>
      </trkpt>
      <trkpt lat="42.278950" lon="3.160505">
        <ele>20.0</ele>
        <time>2018-06-10T06:19:11Z</time>
      </trkpt>
      <trkpt lat="42.279118" lon="3.160386">
        <ele>19.1</ele>
        <time>2018-06-10T06:19:17Z</time>
      </trkpt>
      <trkpt lat="42.279213" lon="3.160287">
        <ele>19.0</ele>
        <time>2018-06-10T06:19:20Z</time>
      </trkpt>
      <trkpt lat="42.280223" lon="3.159041">
        <ele>18.6</ele>
        <time>2018-06-10T06:19:56Z</time>
      </trkpt>
      <trkpt lat="42.280356" lon="3.158843">
        <ele>18.8</ele>
        <time>2018-06-10T06:20:01Z</time>
      </trkpt>
      <trkpt lat="42.280592" lon="3.158448">
        <ele>19.0</ele>
        <time>2018-06-10T06:20:11Z</time>
      </trkpt>
      <trkpt lat="42.280668" lon="3.158243">
        <ele>19.3</ele>
        <time>2018-06-10T06:20:16Z</time>
      </trkpt>
      <trkpt lat="42.280715" lon="3.158109">
        <ele>19.8</ele>
        <time>2018-06-10T06:20:19Z</time>
      </trkpt>
      <trkpt lat="42.280740" lon="3.157996">
        <ele>20.0</ele>
        <time>2018-06-10T06:20:21Z</time>
      </trkpt>
      <trkpt lat="42.280738" lon="3.157865">
        <ele>20.0</ele>
        <time>2018-06-10T06:20:24Z</time>
      </trkpt>
      <trkpt lat="42.280731" lon="3.157707">
        <ele>19.2</ele>
        <time>2018-06-10T06:20:27Z</time>
      </trkpt>
      <trkpt lat="42.280728" lon="3.157561">
        <ele>19.0</ele>
        <time>2018-06-10T06:20:30Z</time>
      </trkpt>
      <trkpt lat="42.280753" lon="3.157427">
        <ele>19.0</ele>
        <time>2018-06-10T06:20:32Z</time>
      </trkpt>
      <trkpt lat="42.280801" lon="3.157264">
        <ele>18.5</ele>
        <time>2018-06-10T06:20:36Z</time>
      </trkpt>
      <trkpt lat="42.280826" lon="3.157121">
        <ele>19.0</ele>
        <time>2018-06-10T06:20:39Z</time>
      </trkpt>
      <trkpt lat="42.280835" lon="3.157021">
        <ele>20.0</ele>
        <time>2018-06-10T06:20:41Z</time>
      </trkpt>
      <trkpt lat="42.280856" lon="3.156919">
        <ele>19.3</ele>
        <time>2018-06-10T06:20:43Z</time>
      </trkpt>
      <trkpt lat="42.280920" lon="3.156692">
        <ele>19.1</ele>
        <time>2018-06-10T06:20:48Z</time>
      </trkpt>
      <trkpt lat="42.281004" lon="3.156400">
        <ele>20.0</ele>
        <time>2018-06-10T06:20:54Z</time>
      </trkpt>
      <trkpt lat="42.281065" lon="3.156185">
        <ele>20.0</ele>
        <time>2018-06-10T06:20:58Z</time>
      </trkpt>
      <trkpt lat="42.281152" lon="3.155973">
        <ele>20.9</ele>
        <time>2018-06-10T06:21:03Z</time>
      </trkpt>
      <trkpt lat="42.281224" lon="3.155841">
        <ele>21.6</ele>
        <time>2018-06-10T06:21:06Z</time>
      </trkpt>
      <trkpt lat="42.281403" lon="3.155580">
        <ele>21.7</ele>
        <time>2018-06-10T06:21:13Z</time>
      </trkpt>
      <trkpt lat="42.281537" lon="3.155388">
        <ele>22.3</ele>
        <time>2018-06-10T06:21:19Z</time>
      </trkpt>
      <trkpt lat="42.281584" lon="3.155304">
        <ele>22.5</ele>
        <time>2018-06-10T06:21:21Z</time>
      </trkpt>
      <trkpt lat="42.281634" lon="3.155157">
        <ele>22.6</ele>
        <time>2018-06-10T06:21:24Z</time>
      </trkpt>
      <trkpt lat="42.281678" lon="3.155004">
        <ele>23.4</ele>
        <time>2018-06-10T06:21:27Z</time>
      </trkpt>
      <trkpt lat="42.281730" lon="3.154808">
        <ele>23.3</ele>
        <time>2018-06-10T06:21:31Z</time>
      </trkpt>
      <trkpt lat="42.281769" lon="3.154648">
        <ele>23.4</ele>
        <time>2018-06-10T06:21:34Z</time>
      </trkpt>
      <trkpt lat="42.281815" lon="3.154429">
        <ele>24.2</ele>
        <time>2018-06-10T06:21:39Z</time>
      </trkpt>
      <trkpt lat="42.281846" lon="3.154225">
        <ele>24.0</ele>
        <time>2018-06-10T06:21:43Z</time>
      </trkpt>
      <trkpt lat="42.281876" lon="3.153939">
        <ele>24.0</ele>
        <time>2018-06-10T06:21:49Z</time>
      </trkpt>
      <trkpt lat="42.281928" lon="3.153415">
        <ele>23.0</ele>
        <time>2018-06-10T06:21:59Z</time>
      </trkpt>
      <trkpt lat="42.281920" lon="3.153240">
        <ele>22.1</ele>
        <time>2018-06-10T06:22:03Z</time>
      </trkpt>
      <trkpt lat="42.281892" lon="3.152890">
        <ele>21.0</ele>
        <time>2018-06-10T06:22:10Z</time>
      </trkpt>
      <trkpt lat="42.281852" lon="3.152627">
        <ele>21.0</ele>
        <time>2018-06-10T06:22:15Z</time>
      </trkpt>
      <trkpt lat="42.281814" lon="3.152396">
        <ele>21.0</ele>
        <time>2018-06-10T06:22:20Z</time>
      </trkpt>
      <trkpt lat="42.281793" lon="3.152192">
        <ele>20.0</ele>
        <time>2018-06-10T06:22:24Z</time>
      </trkpt>
      <trkpt lat="42.281798" lon="3.152099">
        <ele>20.0</ele>
        <time>2018-06-10T06:22:25Z</time>
      </trkpt>
      <trkpt lat="42.281793" lon="3.152029">
        <ele>20.0</ele>
        <time>2018-06-10T06:22:27Z</time>
      </trkpt>
      <trkpt lat="42.281777" lon="3.151870">
        <ele>20.0</ele>
        <time>2018-06-10T06:22:30Z</time>
      </trkpt>
      <trkpt lat="42.281760" lon="3.151711">
        <ele>20.0</ele>
        <time>2018-06-10T06:22:33Z</time>
      </trkpt>
      <trkpt lat="42.281752" lon="3.151570">
        <ele>20.0</ele>
        <time>2018-06-10T06:22:36Z</time>
      </trkpt>
      <trkpt lat="42.281749" lon="3.151382">
        <ele>20.0</ele>
        <time>2018-06-10T06:22:40Z</time>
      </trkpt>
      <trkpt lat="42.281720" lon="3.151032">
        <ele>19.0</ele>
        <time>2018-06-10T06:22:47Z</time>
      </trkpt>
      <trkpt lat="42.281700" lon="3.150741">
        <ele>18.0</ele>
        <time>2018-06-10T06:22:52Z</time>
      </trkpt>
      <trkpt lat="42.281671" lon="3.149846">
        <ele>18.0</ele>
        <time>2018-06-10T06:23:10Z</time>
      </trkpt>
      <trkpt lat="42.281666" lon="3.149697">
        <ele>18.0</ele>
        <time>2018-06-10T06:23:13Z</time>
      </trkpt>
      <trkpt lat="42.281669" lon="3.149562">
        <ele>18.0</ele>
        <time>2018-06-10T06:23:16Z</time>
      </trkpt>
      <trkpt lat="42.281697" lon="3.149322">
        <ele>18.0</ele>
        <time>2018-06-10T06:23:20Z</time>
      </trkpt>
      <trkpt lat="42.281756" lon="3.148849">
        <ele>17.8</ele>
        <time>2018-06-10T06:23:30Z</time>
      </trkpt>
      <trkpt lat="42.281961" lon="3.147511">
        <ele>18.0</ele>
        <time>2018-06-10T06:23:57Z</time>
      </trkpt>
      <trkpt lat="42.281972" lon="3.147382">
        <ele>18.0</ele>
        <time>2018-06-10T06:23:59Z</time>
      </trkpt>
      <trkpt lat="42.281983" lon="3.147281">
        <ele>18.0</ele>
        <time>2018-06-10T06:24:01Z</time>
      </trkpt>
      <trkpt lat="42.282015" lon="3.147073">
        <ele>18.0</ele>
        <time>2018-06-10T06:24:05Z</time>
      </trkpt>
      <trkpt lat="42.282111" lon="3.146563">
        <ele>18.2</ele>
        <time>2018-06-10T06:24:16Z</time>
      </trkpt>
      <trkpt lat="42.282191" lon="3.146080">
        <ele>18.3</ele>
        <time>2018-06-10T06:24:26Z</time>
      </trkpt>
      <trkpt lat="42.282194" lon="3.146003">
        <ele>18.1</ele>
        <time>2018-06-10T06:24:27Z</time>
      </trkpt>
      <trkpt lat="42.282205" lon="3.145882">
        <ele>18.0</ele>
        <time>2018-06-10T06:24:29Z</time>
      </trkpt>
      <trkpt lat="42.282246" lon="3.145633">
        <ele>18.5</ele>
        <time>2018-06-10T06:24:34Z</time>
      </trkpt>
      <trkpt lat="42.282291" lon="3.145355">
        <ele>17.0</ele>
        <time>2018-06-10T06:24:40Z</time>
      </trkpt>
      <trkpt lat="42.282312" lon="3.145154">
        <ele>17.2</ele>
        <time>2018-06-10T06:24:44Z</time>
      </trkpt>
      <trkpt lat="42.282687" lon="3.141887">
        <ele>13.0</ele>
        <time>2018-06-10T06:25:49Z</time>
      </trkpt>
      <trkpt lat="42.282741" lon="3.141523">
        <ele>13.0</ele>
        <time>2018-06-10T06:25:57Z</time>
      </trkpt>
      <trkpt lat="42.282954" lon="3.141643">
        <ele>13.9</ele>
        <time>2018-06-10T06:26:03Z</time>
      </trkpt>
      <trkpt lat="42.282995" lon="3.141658">
        <ele>14.0</ele>
        <time>2018-06-10T06:26:04Z</time>
      </trkpt>
      <trkpt lat="42.283046" lon="3.141650">
        <ele>14.0</ele>
        <time>2018-06-10T06:26:05Z</time>
      </trkpt>
      <trkpt lat="42.283082" lon="3.141612">
        <ele>14.1</ele>
        <time>2018-06-10T06:26:06Z</time>
      </trkpt>
      <trkpt lat="42.283133" lon="3.141532">
        <ele>14.4</ele>
        <time>2018-06-10T06:26:08Z</time>
      </trkpt>
      <trkpt lat="42.283184" lon="3.141451">
        <ele>14.7</ele>
        <time>2018-06-10T06:26:11Z</time>
      </trkpt>
      <trkpt lat="42.283330" lon="3.141228">
        <ele>15.0</ele>
        <time>2018-06-10T06:26:16Z</time>
      </trkpt>
      <trkpt lat="42.283429" lon="3.141065">
        <ele>15.8</ele>
        <time>2018-06-10T06:26:21Z</time>
      </trkpt>
      <trkpt lat="42.283481" lon="3.140964">
        <ele>15.4</ele>
        <time>2018-06-10T06:26:23Z</time>
      </trkpt>
      <trkpt lat="42.283515" lon="3.140892">
        <ele>15.0</ele>
        <time>2018-06-10T06:26:25Z</time>
      </trkpt>
      <trkpt lat="42.283555" lon="3.140840">
        <ele>15.0</ele>
        <time>2018-06-10T06:26:26Z</time>
      </trkpt>
      <trkpt lat="42.283592" lon="3.140826">
        <ele>15.0</ele>
        <time>2018-06-10T06:26:27Z</time>
      </trkpt>
      <trkpt lat="42.283635" lon="3.140857">
        <ele>15.0</ele>
        <time>2018-06-10T06:26:28Z</time>
      </trkpt>
      <trkpt lat="42.283713" lon="3.140956">
        <ele>15.0</ele>
        <time>2018-06-10T06:26:31Z</time>
      </trkpt>
      <trkpt lat="42.283846" lon="3.141077">
        <ele>15.0</ele>
        <time>2018-06-10T06:26:36Z</time>
      </trkpt>
      <trkpt lat="42.283999" lon="3.141226">
        <ele>16.0</ele>
        <time>2018-06-10T06:26:41Z</time>
      </trkpt>
      <trkpt lat="42.284149" lon="3.141396">
        <ele>16.0</ele>
        <time>2018-06-10T06:26:46Z</time>
      </trkpt>
      <trkpt lat="42.284283" lon="3.141555">
        <ele>15.0</ele>
        <time>2018-06-10T06:26:51Z</time>
      </trkpt>
      <trkpt lat="42.284520" lon="3.141792">
        <ele>15.0</ele>
        <time>2018-06-10T06:26:58Z</time>
      </trkpt>
      <trkpt lat="42.284597" lon="3.141852">
        <ele>15.0</ele>
        <time>2018-06-10T06:27:01Z</time>
      </trkpt>
      <trkpt lat="42.284635" lon="3.141863">
        <ele>15.0</ele>
        <time>2018-06-10T06:27:02Z</time>
      </trkpt>
      <trkpt lat="42.284674" lon="3.141845">
        <ele>15.0</ele>
        <time>2018-06-10T06:27:03Z</time>
      </trkpt>
      <trkpt lat="42.284712" lon="3.141786">
        <ele>15.0</ele>
        <time>2018-06-10T06:27:04Z</time>
      </trkpt>
      <trkpt lat="42.284751" lon="3.141696">
        <ele>15.0</ele>
        <time>2018-06-10T06:27:07Z</time>
      </trkpt>
      <trkpt lat="42.284826" lon="3.141507">
        <ele>15.0</ele>
        <time>2018-06-10T06:27:11Z</time>
      </trkpt>
      <trkpt lat="42.284884" lon="3.141384">
        <ele>15.0</ele>
        <time>2018-06-10T06:27:14Z</time>
      </trkpt>
      <trkpt lat="42.284920" lon="3.141344">
        <ele>15.0</ele>
        <time>2018-06-10T06:27:15Z</time>
      </trkpt>
      <trkpt lat="42.284970" lon="3.141336">
        <ele>14.8</ele>
        <time>2018-06-10T06:27:16Z</time>
      </trkpt>
      <trkpt lat="42.285032" lon="3.141361">
        <ele>14.0</ele>
        <time>2018-06-10T06:27:18Z</time>
      </trkpt>
      <trkpt lat="42.285157" lon="3.141424">
        <ele>14.0</ele>
        <time>2018-06-10T06:27:21Z</time>
      </trkpt>
      <trkpt lat="42.285870" lon="3.141820">
        <ele>14.0</ele>
        <time>2018-06-10T06:27:42Z</time>
      </trkpt>
      <trkpt lat="42.285939" lon="3.141847">
        <ele>14.0</ele>
        <time>2018-06-10T06:27:44Z</time>
      </trkpt>
      <trkpt lat="42.286003" lon="3.141857">
        <ele>14.0</ele>
        <time>2018-06-10T06:27:46Z</time>
      </trkpt>
      <trkpt lat="42.286111" lon="3.141836">
        <ele>14.0</ele>
        <time>2018-06-10T06:27:49Z</time>
      </trkpt>
      <trkpt lat="42.286316" lon="3.141765">
        <ele>14.0</ele>
        <time>2018-06-10T06:27:54Z</time>
      </trkpt>
      <trkpt lat="42.286702" lon="3.141624">
        <ele>14.0</ele>
        <time>2018-06-10T06:28:05Z</time>
      </trkpt>
      <trkpt lat="42.287045" lon="3.141487">
        <ele>14.0</ele>
        <time>2018-06-10T06:28:14Z</time>
      </trkpt>
      <trkpt lat="42.287178" lon="3.141444">
        <ele>14.0</ele>
        <time>2018-06-10T06:28:18Z</time>
      </trkpt>
      <trkpt lat="42.287429" lon="3.141370">
        <ele>14.0</ele>
        <time>2018-06-10T06:28:25Z</time>
      </trkpt>
      <trkpt lat="42.287580" lon="3.141310">
        <ele>14.0</ele>
        <time>2018-06-10T06:28:29Z</time>
      </trkpt>
      <trkpt lat="42.287655" lon="3.141246">
        <ele>14.0</ele>
        <time>2018-06-10T06:28:31Z</time>
      </trkpt>
      <trkpt lat="42.287724" lon="3.141160">
        <ele>14.0</ele>
        <time>2018-06-10T06:28:34Z</time>
      </trkpt>
      <trkpt lat="42.287900" lon="3.140895">
        <ele>14.0</ele>
        <time>2018-06-10T06:28:41Z</time>
      </trkpt>
      <trkpt lat="42.288110" lon="3.140592">
        <ele>14.0</ele>
        <time>2018-06-10T06:28:49Z</time>
      </trkpt>
      <trkpt lat="42.288230" lon="3.140397">
        <ele>14.0</ele>
        <time>2018-06-10T06:28:54Z</time>
      </trkpt>
      <trkpt lat="42.288286" lon="3.140285">
        <ele>14.0</ele>
        <time>2018-06-10T06:28:57Z</time>
      </trkpt>
      <trkpt lat="42.288345" lon="3.140154">
        <ele>14.0</ele>
        <time>2018-06-10T06:29:00Z</time>
      </trkpt>
      <trkpt lat="42.288435" lon="3.139957">
        <ele>14.2</ele>
        <time>2018-06-10T06:29:04Z</time>
      </trkpt>
      <trkpt lat="42.288708" lon="3.139373">
        <ele>14.3</ele>
        <time>2018-06-10T06:29:18Z</time>
      </trkpt>
      <trkpt lat="42.288890" lon="3.139017">
        <ele>14.3</ele>
        <time>2018-06-10T06:29:26Z</time>
      </trkpt>
      <trkpt lat="42.289048" lon="3.138690">
        <ele>14.8</ele>
        <time>2018-06-10T06:29:34Z</time>
      </trkpt>
      <trkpt lat="42.289124" lon="3.138524">
        <ele>15.0</ele>
        <time>2018-06-10T06:29:38Z</time>
      </trkpt>
      <trkpt lat="42.289149" lon="3.138435">
        <ele>15.0</ele>
        <time>2018-06-10T06:29:40Z</time>
      </trkpt>
      <trkpt lat="42.289150" lon="3.138367">
        <ele>15.0</ele>
        <time>2018-06-10T06:29:41Z</time>
      </trkpt>
      <trkpt lat="42.289116" lon="3.138303">
        <ele>15.0</ele>
        <time>2018-06-10T06:29:43Z</time>
      </trkpt>
      <trkpt lat="42.289044" lon="3.138234">
        <ele>16.0</ele>
        <time>2018-06-10T06:29:45Z</time>
      </trkpt>
      <trkpt lat="42.288979" lon="3.138162">
        <ele>16.0</ele>
        <time>2018-06-10T06:29:47Z</time>
      </trkpt>
      <trkpt lat="42.288969" lon="3.138128">
        <ele>16.0</ele>
        <time>2018-06-10T06:29:48Z</time>
      </trkpt>
      <trkpt lat="42.288987" lon="3.138101">
        <ele>16.0</ele>
        <time>2018-06-10T06:29:49Z</time>
      </trkpt>
      <trkpt lat="42.289024" lon="3.138070">
        <ele>15.4</ele>
        <time>2018-06-10T06:29:50Z</time>
      </trkpt>
      <trkpt lat="42.289482" lon="3.137923">
        <ele>17.0</ele>
        <time>2018-06-10T06:30:02Z</time>
      </trkpt>
      <trkpt lat="42.289633" lon="3.137884">
        <ele>16.9</ele>
        <time>2018-06-10T06:30:07Z</time>
      </trkpt>
      <trkpt lat="42.289842" lon="3.137852">
        <ele>17.0</ele>
        <time>2018-06-10T06:30:12Z</time>
      </trkpt>
      <trkpt lat="42.290453" lon="3.137764">
        <ele>17.0</ele>
        <time>2018-06-10T06:30:28Z</time>
      </trkpt>
      <trkpt lat="42.290755" lon="3.137734">
        <ele>17.0</ele>
        <time>2018-06-10T06:30:37Z</time>
      </trkpt>
      <trkpt lat="42.290879" lon="3.137728">
        <ele>17.2</ele>
        <time>2018-06-10T06:30:40Z</time>
      </trkpt>
      <trkpt lat="42.291265" lon="3.137738">
        <ele>19.0</ele>
        <time>2018-06-10T06:30:50Z</time>
      </trkpt>
      <trkpt lat="42.291641" lon="3.137759">
        <ele>19.2</ele>
        <time>2018-06-10T06:31:00Z</time>
      </trkpt>
      <trkpt lat="42.291911" lon="3.137774">
        <ele>20.0</ele>
        <time>2018-06-10T06:31:07Z</time>
      </trkpt>
      <trkpt lat="42.292016" lon="3.137788">
        <ele>20.0</ele>
        <time>2018-06-10T06:31:10Z</time>
      </trkpt>
      <trkpt lat="42.292133" lon="3.137822">
        <ele>20.2</ele>
        <time>2018-06-10T06:31:13Z</time>
      </trkpt>
      <trkpt lat="42.292288" lon="3.137870">
        <ele>20.7</ele>
        <time>2018-06-10T06:31:18Z</time>
      </trkpt>
      <trkpt lat="42.292667" lon="3.137985">
        <ele>22.0</ele>
        <time>2018-06-10T06:31:28Z</time>
      </trkpt>
      <trkpt lat="42.292889" lon="3.138059">
        <ele>22.8</ele>
        <time>2018-06-10T06:31:34Z</time>
      </trkpt>
      <trkpt lat="42.293016" lon="3.138100">
        <ele>23.0</ele>
        <time>2018-06-10T06:31:37Z</time>
      </trkpt>
      <trkpt lat="42.293043" lon="3.138103">
        <ele>23.0</ele>
        <time>2018-06-10T06:31:38Z</time>
      </trkpt>
      <trkpt lat="42.293068" lon="3.138083">
        <ele>23.0</ele>
        <time>2018-06-10T06:31:39Z</time>
      </trkpt>
      <trkpt lat="42.293087" lon="3.138047">
        <ele>23.0</ele>
        <time>2018-06-10T06:31:40Z</time>
      </trkpt>
      <trkpt lat="42.293187" lon="3.137645">
        <ele>23.7</ele>
        <time>2018-06-10T06:31:48Z</time>
      </trkpt>
      <trkpt lat="42.293237" lon="3.137444">
        <ele>24.0</ele>
        <time>2018-06-10T06:31:52Z</time>
      </trkpt>
      <trkpt lat="42.293271" lon="3.137191">
        <ele>24.0</ele>
        <time>2018-06-10T06:31:57Z</time>
      </trkpt>
      <trkpt lat="42.293312" lon="3.136912">
        <ele>24.0</ele>
        <time>2018-06-10T06:32:03Z</time>
      </trkpt>
      <trkpt lat="42.293324" lon="3.136835">
        <ele>24.0</ele>
        <time>2018-06-10T06:32:05Z</time>
      </trkpt>
      <trkpt lat="42.293347" lon="3.136672">
        <ele>24.0</ele>
        <time>2018-06-10T06:32:08Z</time>
      </trkpt>
      <trkpt lat="42.293393" lon="3.136448">
        <ele>24.0</ele>
        <time>2018-06-10T06:32:12Z</time>
      </trkpt>
      <trkpt lat="42.293462" lon="3.136172">
        <ele>24.0</ele>
        <time>2018-06-10T06:32:18Z</time>
      </trkpt>
      <trkpt lat="42.293535" lon="3.135841">
        <ele>23.0</ele>
        <time>2018-06-10T06:32:25Z</time>
      </trkpt>
      <trkpt lat="42.293706" lon="3.135188">
        <ele>22.0</ele>
        <time>2018-06-10T06:32:39Z</time>
      </trkpt>
      <trkpt lat="42.293810" lon="3.134761">
        <ele>21.4</ele>
        <time>2018-06-10T06:32:47Z</time>
      </trkpt>
      <trkpt lat="42.293897" lon="3.134432">
        <ele>22.0</ele>
        <time>2018-06-10T06:32:54Z</time>
      </trkpt>
      <trkpt lat="42.293938" lon="3.134266">
        <ele>22.0</ele>
        <time>2018-06-10T06:32:58Z</time>
      </trkpt>
      <trkpt lat="42.293980" lon="3.134089">
        <ele>22.0</ele>
        <time>2018-06-10T06:33:01Z</time>
      </trkpt>
      <trkpt lat="42.294050" lon="3.133913">
        <ele>22.0</ele>
        <time>2018-06-10T06:33:05Z</time>
      </trkpt>
      <trkpt lat="42.294124" lon="3.133697">
        <ele>22.0</ele>
        <time>2018-06-10T06:33:10Z</time>
      </trkpt>
      <trkpt lat="42.294143" lon="3.133622">
        <ele>22.2</ele>
        <time>2018-06-10T06:33:12Z</time>
      </trkpt>
      <trkpt lat="42.294153" lon="3.133555">
        <ele>22.0</ele>
        <time>2018-06-10T06:33:13Z</time>
      </trkpt>
      <trkpt lat="42.294154" lon="3.133463">
        <ele>22.0</ele>
        <time>2018-06-10T06:33:15Z</time>
      </trkpt>
      <trkpt lat="42.294141" lon="3.133314">
        <ele>21.2</ele>
        <time>2018-06-10T06:33:18Z</time>
      </trkpt>
      <trkpt lat="42.294135" lon="3.133119">
        <ele>21.4</ele>
        <time>2018-06-10T06:33:22Z</time>
      </trkpt>
      <trkpt lat="42.294136" lon="3.132907">
        <ele>21.0</ele>
        <time>2018-06-10T06:33:26Z</time>
      </trkpt>
      <trkpt lat="42.294156" lon="3.132351">
        <ele>20.0</ele>
        <time>2018-06-10T06:33:37Z</time>
      </trkpt>
      <trkpt lat="42.294182" lon="3.131482">
        <ele>19.0</ele>
        <time>2018-06-10T06:33:54Z</time>
      </trkpt>
      <trkpt lat="42.294227" lon="3.130339">
        <ele>18.0</ele>
        <time>2018-06-10T06:34:16Z</time>
      </trkpt>
      <trkpt lat="42.294234" lon="3.130147">
        <ele>18.0</ele>
        <time>2018-06-10T06:34:20Z</time>
      </trkpt>
      <trkpt lat="42.294254" lon="3.130030">
        <ele>18.2</ele>
        <time>2018-06-10T06:34:23Z</time>
      </trkpt>
      <trkpt lat="42.294310" lon="3.129755">
        <ele>18.0</ele>
        <time>2018-06-10T06:34:28Z</time>
      </trkpt>
      <trkpt lat="42.294338" lon="3.129592">
        <ele>18.0</ele>
        <time>2018-06-10T06:34:31Z</time>
      </trkpt>
      <trkpt lat="42.294434" lon="3.129049">
        <ele>18.2</ele>
        <time>2018-06-10T06:34:42Z</time>
      </trkpt>
      <trkpt lat="42.294518" lon="3.128562">
        <ele>18.0</ele>
        <time>2018-06-10T06:34:52Z</time>
      </trkpt>
      <trkpt lat="42.294645" lon="3.127785">
        <ele>17.0</ele>
        <time>2018-06-10T06:35:08Z</time>
      </trkpt>
      <trkpt lat="42.294672" lon="3.127585">
        <ele>17.0</ele>
        <time>2018-06-10T06:35:12Z</time>
      </trkpt>
      <trkpt lat="42.294679" lon="3.127462">
        <ele>17.2</ele>
        <time>2018-06-10T06:35:14Z</time>
      </trkpt>
      <trkpt lat="42.294720" lon="3.126995">
        <ele>16.5</ele>
        <time>2018-06-10T06:35:24Z</time>
      </trkpt>
      <trkpt lat="42.294777" lon="3.126400">
        <ele>16.3</ele>
        <time>2018-06-10T06:35:35Z</time>
      </trkpt>
      <trkpt lat="42.294808" lon="3.126010">
        <ele>16.3</ele>
        <time>2018-06-10T06:35:43Z</time>
      </trkpt>
      <trkpt lat="42.294852" lon="3.125514">
        <ele>15.6</ele>
        <time>2018-06-10T06:35:53Z</time>
      </trkpt>
      <trkpt lat="42.294870" lon="3.125328">
        <ele>15.3</ele>
        <time>2018-06-10T06:35:57Z</time>
      </trkpt>
      <trkpt lat="42.294894" lon="3.125156">
        <ele>14.3</ele>
        <time>2018-06-10T06:36:00Z</time>
      </trkpt>
      <trkpt lat="42.294894" lon="3.125066">
        <ele>14.3</ele>
        <time>2018-06-10T06:36:02Z</time>
      </trkpt>
      <trkpt lat="42.294880" lon="3.124973">
        <ele>14.6</ele>
        <time>2018-06-10T06:36:04Z</time>
      </trkpt>
      <trkpt lat="42.294857" lon="3.124897">
        <ele>14.4</ele>
        <time>2018-06-10T06:36:05Z</time>
      </trkpt>
      <trkpt lat="42.294846" lon="3.124862">
        <ele>14.3</ele>
        <time>2018-06-10T06:36:06Z</time>
      </trkpt>
      <trkpt lat="42.294846" lon="3.124824">
        <ele>14.4</ele>
        <time>2018-06-10T06:36:07Z</time>
      </trkpt>
      <trkpt lat="42.294870" lon="3.124770">
        <ele>15.0</ele>
        <time>2018-06-10T06:36:08Z</time>
      </trkpt>
      <trkpt lat="42.294974" lon="3.124621">
        <ele>16.0</ele>
        <time>2018-06-10T06:36:12Z</time>
      </trkpt>
      <trkpt lat="42.295092" lon="3.124469">
        <ele>16.0</ele>
        <time>2018-06-10T06:36:17Z</time>
      </trkpt>
      <trkpt lat="42.295402" lon="3.124055">
        <ele>16.1</ele>
        <time>2018-06-10T06:36:28Z</time>
      </trkpt>
      <trkpt lat="42.295562" lon="3.123831">
        <ele>17.0</ele>
        <time>2018-06-10T06:36:34Z</time>
      </trkpt>
      <trkpt lat="42.295891" lon="3.123360">
        <ele>17.0</ele>
        <time>2018-06-10T06:36:47Z</time>
      </trkpt>
      <trkpt lat="42.296029" lon="3.123159">
        <ele>17.0</ele>
        <time>2018-06-10T06:36:52Z</time>
      </trkpt>
      <trkpt lat="42.296178" lon="3.122963">
        <ele>17.0</ele>
        <time>2018-06-10T06:36:58Z</time>
      </trkpt>
      <trkpt lat="42.296239" lon="3.122892">
        <ele>17.0</ele>
        <time>2018-06-10T06:37:00Z</time>
      </trkpt>
      <trkpt lat="42.296336" lon="3.122795">
        <ele>17.0</ele>
        <time>2018-06-10T06:37:03Z</time>
      </trkpt>
      <trkpt lat="42.296425" lon="3.122695">
        <ele>17.0</ele>
        <time>2018-06-10T06:37:06Z</time>
      </trkpt>
      <trkpt lat="42.296547" lon="3.122554">
        <ele>17.0</ele>
        <time>2018-06-10T06:37:11Z</time>
      </trkpt>
      <trkpt lat="42.296608" lon="3.122465">
        <ele>17.0</ele>
        <time>2018-06-10T06:37:13Z</time>
      </trkpt>
      <trkpt lat="42.296667" lon="3.122386">
        <ele>17.7</ele>
        <time>2018-06-10T06:37:15Z</time>
      </trkpt>
      <trkpt lat="42.296767" lon="3.122281">
        <ele>18.0</ele>
        <time>2018-06-10T06:37:19Z</time>
      </trkpt>
      <trkpt lat="42.297470" lon="3.121535">
        <ele>17.0</ele>
        <time>2018-06-10T06:37:42Z</time>
      </trkpt>
      <trkpt lat="42.298002" lon="3.120957">
        <ele>16.0</ele>
        <time>2018-06-10T06:38:01Z</time>
      </trkpt>
      <trkpt lat="42.298205" lon="3.120739">
        <ele>16.7</ele>
        <time>2018-06-10T06:38:07Z</time>
      </trkpt>
      <trkpt lat="42.299463" lon="3.119348">
        <ele>17.0</ele>
        <time>2018-06-10T06:38:51Z</time>
      </trkpt>
      <trkpt lat="42.299859" lon="3.118916">
        <ele>17.0</ele>
        <time>2018-06-10T06:39:04Z</time>
      </trkpt>
      <trkpt lat="42.299951" lon="3.118814">
        <ele>17.0</ele>
        <time>2018-06-10T06:39:07Z</time>
      </trkpt>
      <trkpt lat="42.300028" lon="3.118717">
        <ele>18.0</ele>
        <time>2018-06-10T06:39:10Z</time>
      </trkpt>
      <trkpt lat="42.300068" lon="3.118661">
        <ele>18.0</ele>
        <time>2018-06-10T06:39:12Z</time>
      </trkpt>
      <trkpt lat="42.300090" lon="3.118613">
        <ele>17.7</ele>
        <time>2018-06-10T06:39:13Z</time>
      </trkpt>
      <trkpt lat="42.300117" lon="3.118540">
        <ele>18.0</ele>
        <time>2018-06-10T06:39:14Z</time>
      </trkpt>
      <trkpt lat="42.300107" lon="3.118397">
        <ele>17.9</ele>
        <time>2018-06-10T06:39:17Z</time>
      </trkpt>
      <trkpt lat="42.300079" lon="3.118216">
        <ele>17.7</ele>
        <time>2018-06-10T06:39:21Z</time>
      </trkpt>
      <trkpt lat="42.300057" lon="3.118073">
        <ele>17.0</ele>
        <time>2018-06-10T06:39:24Z</time>
      </trkpt>
      <trkpt lat="42.300013" lon="3.117930">
        <ele>17.0</ele>
        <time>2018-06-10T06:39:27Z</time>
      </trkpt>
      <trkpt lat="42.299908" lon="3.117715">
        <ele>17.7</ele>
        <time>2018-06-10T06:39:32Z</time>
      </trkpt>
      <trkpt lat="42.299676" lon="3.117341">
        <ele>17.0</ele>
        <time>2018-06-10T06:39:42Z</time>
      </trkpt>
      <trkpt lat="42.299517" lon="3.117050">
        <ele>16.3</ele>
        <time>2018-06-10T06:39:49Z</time>
      </trkpt>
      <trkpt lat="42.299218" lon="3.116458">
        <ele>15.0</ele>
        <time>2018-06-10T06:40:03Z</time>
      </trkpt>
      <trkpt lat="42.298891" lon="3.115847">
        <ele>13.0</ele>
        <time>2018-06-10T06:40:18Z</time>
      </trkpt>
      <trkpt lat="42.298654" lon="3.115403">
        <ele>12.8</ele>
        <time>2018-06-10T06:40:28Z</time>
      </trkpt>
      <trkpt lat="42.298499" lon="3.115077">
        <ele>12.0</ele>
        <time>2018-06-10T06:40:36Z</time>
      </trkpt>
      <trkpt lat="42.298361" lon="3.114772">
        <ele>11.0</ele>
        <time>2018-06-10T06:40:43Z</time>
      </trkpt>
      <trkpt lat="42.298173" lon="3.114411">
        <ele>10.0</ele>
        <time>2018-06-10T06:40:52Z</time>
      </trkpt>
      <trkpt lat="42.297980" lon="3.114062">
        <ele>10.0</ele>
        <time>2018-06-10T06:41:00Z</time>
      </trkpt>
      <trkpt lat="42.297894" lon="3.113917">
        <ele>10.6</ele>
        <time>2018-06-10T06:41:04Z</time>
      </trkpt>
      <trkpt lat="42.297806" lon="3.113828">
        <ele>10.3</ele>
        <time>2018-06-10T06:41:07Z</time>
      </trkpt>
      <trkpt lat="42.297706" lon="3.113727">
        <ele>10.0</ele>
        <time>2018-06-10T06:41:10Z</time>
      </trkpt>
      <trkpt lat="42.297600" lon="3.113548">
        <ele>10.0</ele>
        <time>2018-06-10T06:41:15Z</time>
      </trkpt>
      <trkpt lat="42.297523" lon="3.113385">
        <ele>10.0</ele>
        <time>2018-06-10T06:41:19Z</time>
      </trkpt>
      <trkpt lat="42.297441" lon="3.113200">
        <ele>9.9</ele>
        <time>2018-06-10T06:41:23Z</time>
      </trkpt>
      <trkpt lat="42.297407" lon="3.113096">
        <ele>9.8</ele>
        <time>2018-06-10T06:41:25Z</time>
      </trkpt>
      <trkpt lat="42.297361" lon="3.112998">
        <ele>9.0</ele>
        <time>2018-06-10T06:41:27Z</time>
      </trkpt>
      <trkpt lat="42.297247" lon="3.112793">
        <ele>9.0</ele>
        <time>2018-06-10T06:41:32Z</time>
      </trkpt>
      <trkpt lat="42.297116" lon="3.112512">
        <ele>8.0</ele>
        <time>2018-06-10T06:41:39Z</time>
      </trkpt>
      <trkpt lat="42.297050" lon="3.112402">
        <ele>8.0</ele>
        <time>2018-06-10T06:41:42Z</time>
      </trkpt>
      <trkpt lat="42.296987" lon="3.112358">
        <ele>8.0</ele>
        <time>2018-06-10T06:41:44Z</time>
      </trkpt>
      <trkpt lat="42.296937" lon="3.112334">
        <ele>8.0</ele>
        <time>2018-06-10T06:41:45Z</time>
      </trkpt>
      <trkpt lat="42.296894" lon="3.112290">
        <ele>8.0</ele>
        <time>2018-06-10T06:41:47Z</time>
      </trkpt>
      <trkpt lat="42.296874" lon="3.112224">
        <ele>8.0</ele>
        <time>2018-06-10T06:41:48Z</time>
      </trkpt>
      <trkpt lat="42.296867" lon="3.112047">
        <ele>8.0</ele>
        <time>2018-06-10T06:41:51Z</time>
      </trkpt>
      <trkpt lat="42.296851" lon="3.111898">
        <ele>8.0</ele>
        <time>2018-06-10T06:41:54Z</time>
      </trkpt>
      <trkpt lat="42.296823" lon="3.111817">
        <ele>8.0</ele>
        <time>2018-06-10T06:41:56Z</time>
      </trkpt>
      <trkpt lat="42.296766" lon="3.111689">
        <ele>8.0</ele>
        <time>2018-06-10T06:41:59Z</time>
      </trkpt>
      <trkpt lat="42.296632" lon="3.111447">
        <ele>8.0</ele>
        <time>2018-06-10T06:42:05Z</time>
      </trkpt>
      <trkpt lat="42.296522" lon="3.111243">
        <ele>8.0</ele>
        <time>2018-06-10T06:42:10Z</time>
      </trkpt>
      <trkpt lat="42.296498" lon="3.111180">
        <ele>8.0</ele>
        <time>2018-06-10T06:42:11Z</time>
      </trkpt>
      <trkpt lat="42.296491" lon="3.111112">
        <ele>7.4</ele>
        <time>2018-06-10T06:42:13Z</time>
      </trkpt>
      <trkpt lat="42.296503" lon="3.111048">
        <ele>7.0</ele>
        <time>2018-06-10T06:42:14Z</time>
      </trkpt>
      <trkpt lat="42.296552" lon="3.110915">
        <ele>7.0</ele>
        <time>2018-06-10T06:42:17Z</time>
      </trkpt>
      <trkpt lat="42.296608" lon="3.110736">
        <ele>7.0</ele>
        <time>2018-06-10T06:42:21Z</time>
      </trkpt>
      <trkpt lat="42.296726" lon="3.110330">
        <ele>6.4</ele>
        <time>2018-06-10T06:42:29Z</time>
      </trkpt>
      <trkpt lat="42.297516" lon="3.107693">
        <ele>5.0</ele>
        <time>2018-06-10T06:43:25Z</time>
      </trkpt>
      <trkpt lat="42.297554" lon="3.107543">
        <ele>5.0</ele>
        <time>2018-06-10T06:43:29Z</time>
      </trkpt>
      <trkpt lat="42.297631" lon="3.107157">
        <ele>5.0</ele>
        <time>2018-06-10T06:43:36Z</time>
      </trkpt>
      <trkpt lat="42.297905" lon="3.105476">
        <ele>5.0</ele>
        <time>2018-06-10T06:44:10Z</time>
      </trkpt>
      <trkpt lat="42.297990" lon="3.104832">
        <ele>5.0</ele>
        <time>2018-06-10T06:44:23Z</time>
      </trkpt>
      <trkpt lat="42.298032" lon="3.104285">
        <ele>5.0</ele>
        <time>2018-06-10T06:44:34Z</time>
      </trkpt>
      <trkpt lat="42.298119" lon="3.102952">
        <ele>5.3</ele>
        <time>2018-06-10T06:45:00Z</time>
      </trkpt>
      <trkpt lat="42.298128" lon="3.102838">
        <ele>5.6</ele>
        <time>2018-06-10T06:45:03Z</time>
      </trkpt>
      <trkpt lat="42.298129" lon="3.102740">
        <ele>5.9</ele>
        <time>2018-06-10T06:45:05Z</time>
      </trkpt>
      <trkpt lat="42.298091" lon="3.102599">
        <ele>6.0</ele>
        <time>2018-06-10T06:45:07Z</time>
      </trkpt>
      <trkpt lat="42.297919" lon="3.102129">
        <ele>6.0</ele>
        <time>2018-06-10T06:45:18Z</time>
      </trkpt>
      <trkpt lat="42.297775" lon="3.101723">
        <ele>6.0</ele>
        <time>2018-06-10T06:45:27Z</time>
      </trkpt>
      <trkpt lat="42.297772" lon="3.101648">
        <ele>6.0</ele>
        <time>2018-06-10T06:45:28Z</time>
      </trkpt>
      <trkpt lat="42.297796" lon="3.101605">
        <ele>6.0</ele>
        <time>2018-06-10T06:45:29Z</time>
      </trkpt>
      <trkpt lat="42.297838" lon="3.101579">
        <ele>5.9</ele>
        <time>2018-06-10T06:45:30Z</time>
      </trkpt>
      <trkpt lat="42.298642" lon="3.101425">
        <ele>5.9</ele>
        <time>2018-06-10T06:45:52Z</time>
      </trkpt>
      <trkpt lat="42.299501" lon="3.101281">
        <ele>6.3</ele>
        <time>2018-06-10T06:46:15Z</time>
      </trkpt>
      <trkpt lat="42.299605" lon="3.101251">
        <ele>6.5</ele>
        <time>2018-06-10T06:46:18Z</time>
      </trkpt>
      <trkpt lat="42.299737" lon="3.101194">
        <ele>6.5</ele>
        <time>2018-06-10T06:46:22Z</time>
      </trkpt>
      <trkpt lat="42.299894" lon="3.101092">
        <ele>7.0</ele>
        <time>2018-06-10T06:46:26Z</time>
      </trkpt>
      <trkpt lat="42.300774" lon="3.100453">
        <ele>7.0</ele>
        <time>2018-06-10T06:46:53Z</time>
      </trkpt>
      <trkpt lat="42.300853" lon="3.100376">
        <ele>7.0</ele>
        <time>2018-06-10T06:46:55Z</time>
      </trkpt>
      <trkpt lat="42.300911" lon="3.100275">
        <ele>7.0</ele>
        <time>2018-06-10T06:46:58Z</time>
      </trkpt>
      <trkpt lat="42.300988" lon="3.100116">
        <ele>8.0</ele>
        <time>2018-06-10T06:47:02Z</time>
      </trkpt>
      <trkpt lat="42.301145" lon="3.099788">
        <ele>8.0</ele>
        <time>2018-06-10T06:47:09Z</time>
      </trkpt>
      <trkpt lat="42.301194" lon="3.099687">
        <ele>8.0</ele>
        <time>2018-06-10T06:47:12Z</time>
      </trkpt>
      <trkpt lat="42.301223" lon="3.099605">
        <ele>8.0</ele>
        <time>2018-06-10T06:47:14Z</time>
      </trkpt>
      <trkpt lat="42.301243" lon="3.099519">
        <ele>8.3</ele>
        <time>2018-06-10T06:47:15Z</time>
      </trkpt>
      <trkpt lat="42.301240" lon="3.099437">
        <ele>8.9</ele>
        <time>2018-06-10T06:47:17Z</time>
      </trkpt>
      <trkpt lat="42.301226" lon="3.099332">
        <ele>9.0</ele>
        <time>2018-06-10T06:47:19Z</time>
      </trkpt>
      <trkpt lat="42.301226" lon="3.099251">
        <ele>9.8</ele>
        <time>2018-06-10T06:47:21Z</time>
      </trkpt>
      <trkpt lat="42.301249" lon="3.099189">
        <ele>10.0</ele>
        <time>2018-06-10T06:47:22Z</time>
      </trkpt>
      <trkpt lat="42.301294" lon="3.099151">
        <ele>10.0</ele>
        <time>2018-06-10T06:47:23Z</time>
      </trkpt>
      <trkpt lat="42.301389" lon="3.099078">
        <ele>10.0</ele>
        <time>2018-06-10T06:47:26Z</time>
      </trkpt>
      <trkpt lat="42.301483" lon="3.098989">
        <ele>10.0</ele>
        <time>2018-06-10T06:47:29Z</time>
      </trkpt>
      <trkpt lat="42.301570" lon="3.098885">
        <ele>10.0</ele>
        <time>2018-06-10T06:47:32Z</time>
      </trkpt>
      <trkpt lat="42.301622" lon="3.098808">
        <ele>10.0</ele>
        <time>2018-06-10T06:47:35Z</time>
      </trkpt>
      <trkpt lat="42.301708" lon="3.098720">
        <ele>10.0</ele>
        <time>2018-06-10T06:47:37Z</time>
      </trkpt>
      <trkpt lat="42.301798" lon="3.098647">
        <ele>10.0</ele>
        <time>2018-06-10T06:47:40Z</time>
      </trkpt>
      <trkpt lat="42.301881" lon="3.098597">
        <ele>10.0</ele>
        <time>2018-06-10T06:47:43Z</time>
      </trkpt>
      <trkpt lat="42.301972" lon="3.098529">
        <ele>10.0</ele>
        <time>2018-06-10T06:47:45Z</time>
      </trkpt>
      <trkpt lat="42.302055" lon="3.098445">
        <ele>10.0</ele>
        <time>2018-06-10T06:47:48Z</time>
      </trkpt>
      <trkpt lat="42.302155" lon="3.098354">
        <ele>10.0</ele>
        <time>2018-06-10T06:47:51Z</time>
      </trkpt>
      <trkpt lat="42.302289" lon="3.098151">
        <ele>10.0</ele>
        <time>2018-06-10T06:47:57Z</time>
      </trkpt>
      <trkpt lat="42.302334" lon="3.098062">
        <ele>10.0</ele>
        <time>2018-06-10T06:47:59Z</time>
      </trkpt>
      <trkpt lat="42.302454" lon="3.097828">
        <ele>10.0</ele>
        <time>2018-06-10T06:48:04Z</time>
      </trkpt>
      <trkpt lat="42.302573" lon="3.097676">
        <ele>10.0</ele>
        <time>2018-06-10T06:48:09Z</time>
      </trkpt>
      <trkpt lat="42.302713" lon="3.097455">
        <ele>9.0</ele>
        <time>2018-06-10T06:48:15Z</time>
      </trkpt>
      <trkpt lat="42.302837" lon="3.097234">
        <ele>8.9</ele>
        <time>2018-06-10T06:48:20Z</time>
      </trkpt>
      <trkpt lat="42.302880" lon="3.097123">
        <ele>8.9</ele>
        <time>2018-06-10T06:48:22Z</time>
      </trkpt>
      <trkpt lat="42.302953" lon="3.096992">
        <ele>8.4</ele>
        <time>2018-06-10T06:48:26Z</time>
      </trkpt>
      <trkpt lat="42.303023" lon="3.096876">
        <ele>8.0</ele>
        <time>2018-06-10T06:48:29Z</time>
      </trkpt>
      <trkpt lat="42.303118" lon="3.096750">
        <ele>8.0</ele>
        <time>2018-06-10T06:48:32Z</time>
      </trkpt>
      <trkpt lat="42.303123" lon="3.096743">
        <ele>8.0</ele>
        <time>2018-06-10T06:48:32Z</time>
      </trkpt>
      <trkpt lat="42.303204" lon="3.096617">
        <ele>7.9</ele>
        <time>2018-06-10T06:48:36Z</time>
      </trkpt>
      <trkpt lat="42.303261" lon="3.096546">
        <ele>7.5</ele>
        <time>2018-06-10T06:48:38Z</time>
      </trkpt>
      <trkpt lat="42.303322" lon="3.096510">
        <ele>7.0</ele>
        <time>2018-06-10T06:48:39Z</time>
      </trkpt>
      <trkpt lat="42.303374" lon="3.096498">
        <ele>7.0</ele>
        <time>2018-06-10T06:48:41Z</time>
      </trkpt>
      <trkpt lat="42.303425" lon="3.096506">
        <ele>7.0</ele>
        <time>2018-06-10T06:48:42Z</time>
      </trkpt>
      <trkpt lat="42.303555" lon="3.096577">
        <ele>7.0</ele>
        <time>2018-06-10T06:48:46Z</time>
      </trkpt>
      <trkpt lat="42.303705" lon="3.096647">
        <ele>7.0</ele>
        <time>2018-06-10T06:48:50Z</time>
      </trkpt>
      <trkpt lat="42.303923" lon="3.096746">
        <ele>7.0</ele>
        <time>2018-06-10T06:48:56Z</time>
      </trkpt>
      <trkpt lat="42.304006" lon="3.096769">
        <ele>7.0</ele>
        <time>2018-06-10T06:48:59Z</time>
      </trkpt>
      <trkpt lat="42.304061" lon="3.096762">
        <ele>7.0</ele>
        <time>2018-06-10T06:49:00Z</time>
      </trkpt>
      <trkpt lat="42.304093" lon="3.096750">
        <ele>7.0</ele>
        <time>2018-06-10T06:49:01Z</time>
      </trkpt>
      <trkpt lat="42.304230" lon="3.096708">
        <ele>7.0</ele>
        <time>2018-06-10T06:49:05Z</time>
      </trkpt>
      <trkpt lat="42.304357" lon="3.096649">
        <ele>7.0</ele>
        <time>2018-06-10T06:49:08Z</time>
      </trkpt>
      <trkpt lat="42.304534" lon="3.096550">
        <ele>7.0</ele>
        <time>2018-06-10T06:49:13Z</time>
      </trkpt>
      <trkpt lat="42.304826" lon="3.096391">
        <ele>7.0</ele>
        <time>2018-06-10T06:49:22Z</time>
      </trkpt>
      <trkpt lat="42.305395" lon="3.096027">
        <ele>7.0</ele>
        <time>2018-06-10T06:49:38Z</time>
      </trkpt>
      <trkpt lat="42.306258" lon="3.095500">
        <ele>7.0</ele>
        <time>2018-06-10T06:50:04Z</time>
      </trkpt>
      <trkpt lat="42.306310" lon="3.095504">
        <ele>7.0</ele>
        <time>2018-06-10T06:50:05Z</time>
      </trkpt>
      <trkpt lat="42.306385" lon="3.095551">
        <ele>7.0</ele>
        <time>2018-06-10T06:50:07Z</time>
      </trkpt>
      <trkpt lat="42.306697" lon="3.095775">
        <ele>7.0</ele>
        <time>2018-06-10T06:50:17Z</time>
      </trkpt>
      <trkpt lat="42.307358" lon="3.096289">
        <ele>8.0</ele>
        <time>2018-06-10T06:50:37Z</time>
      </trkpt>
      <trkpt lat="42.307467" lon="3.096339">
        <ele>8.0</ele>
        <time>2018-06-10T06:50:40Z</time>
      </trkpt>
      <trkpt lat="42.307541" lon="3.096363">
        <ele>8.0</ele>
        <time>2018-06-10T06:50:42Z</time>
      </trkpt>
      <trkpt lat="42.307656" lon="3.096453">
        <ele>8.0</ele>
        <time>2018-06-10T06:50:46Z</time>
      </trkpt>
      <trkpt lat="42.308333" lon="3.097138">
        <ele>9.0</ele>
        <time>2018-06-10T06:51:08Z</time>
      </trkpt>
      <trkpt lat="42.308464" lon="3.097266">
        <ele>9.0</ele>
        <time>2018-06-10T06:51:12Z</time>
      </trkpt>
      <trkpt lat="42.308521" lon="3.097298">
        <ele>9.0</ele>
        <time>2018-06-10T06:51:14Z</time>
      </trkpt>
      <trkpt lat="42.308573" lon="3.097329">
        <ele>9.0</ele>
        <time>2018-06-10T06:51:16Z</time>
      </trkpt>
      <trkpt lat="42.308662" lon="3.097360">
        <ele>9.0</ele>
        <time>2018-06-10T06:51:18Z</time>
      </trkpt>
      <trkpt lat="42.308818" lon="3.097334">
        <ele>9.0</ele>
        <time>2018-06-10T06:51:22Z</time>
      </trkpt>
      <trkpt lat="42.309009" lon="3.097253">
        <ele>9.0</ele>
        <time>2018-06-10T06:51:28Z</time>
      </trkpt>
      <trkpt lat="42.310236" lon="3.096639">
        <ele>10.0</ele>
        <time>2018-06-10T06:52:02Z</time>
      </trkpt>
      <trkpt lat="42.310313" lon="3.096594">
        <ele>10.0</ele>
        <time>2018-06-10T06:52:05Z</time>
      </trkpt>
      <trkpt lat="42.310359" lon="3.096562">
        <ele>10.0</ele>
        <time>2018-06-10T06:52:06Z</time>
      </trkpt>
      <trkpt lat="42.310366" lon="3.096537">
        <ele>10.0</ele>
        <time>2018-06-10T06:52:06Z</time>
      </trkpt>
      <trkpt lat="42.310361" lon="3.096499">
        <ele>10.4</ele>
        <time>2018-06-10T06:52:07Z</time>
      </trkpt>
      <trkpt lat="42.310343" lon="3.096437">
        <ele>10.9</ele>
        <time>2018-06-10T06:52:09Z</time>
      </trkpt>
      <trkpt lat="42.309232" lon="3.093666">
        <ele>9.0</ele>
        <time>2018-06-10T06:53:11Z</time>
      </trkpt>
      <trkpt lat="42.308998" lon="3.093128">
        <ele>9.0</ele>
        <time>2018-06-10T06:53:23Z</time>
      </trkpt>
      <trkpt lat="42.308914" lon="3.092965">
        <ele>9.0</ele>
        <time>2018-06-10T06:53:27Z</time>
      </trkpt>
      <trkpt lat="42.308833" lon="3.092833">
        <ele>9.0</ele>
        <time>2018-06-10T06:53:30Z</time>
      </trkpt>
      <trkpt lat="42.308577" lon="3.092529">
        <ele>9.0</ele>
        <time>2018-06-10T06:53:39Z</time>
      </trkpt>
      <trkpt lat="42.308162" lon="3.092014">
        <ele>8.9</ele>
        <time>2018-06-10T06:53:54Z</time>
      </trkpt>
      <trkpt lat="42.308052" lon="3.091854">
        <ele>9.0</ele>
        <time>2018-06-10T06:53:59Z</time>
      </trkpt>
      <trkpt lat="42.307959" lon="3.091674">
        <ele>9.0</ele>
        <time>2018-06-10T06:54:03Z</time>
      </trkpt>
      <trkpt lat="42.307869" lon="3.091467">
        <ele>9.0</ele>
        <time>2018-06-10T06:54:08Z</time>
      </trkpt>
      <trkpt lat="42.307749" lon="3.091004">
        <ele>9.0</ele>
        <time>2018-06-10T06:54:17Z</time>
      </trkpt>
      <trkpt lat="42.307414" lon="3.089580">
        <ele>8.7</ele>
        <time>2018-06-10T06:54:47Z</time>
      </trkpt>
      <trkpt lat="42.306982" lon="3.087699">
        <ele>8.9</ele>
        <time>2018-06-10T06:55:25Z</time>
      </trkpt>
      <trkpt lat="42.306878" lon="3.087141">
        <ele>8.8</ele>
        <time>2018-06-10T06:55:37Z</time>
      </trkpt>
      <trkpt lat="42.306792" lon="3.086702">
        <ele>9.0</ele>
        <time>2018-06-10T06:55:46Z</time>
      </trkpt>
      <trkpt lat="42.306745" lon="3.086493">
        <ele>9.7</ele>
        <time>2018-06-10T06:55:50Z</time>
      </trkpt>
      <trkpt lat="42.306592" lon="3.085954">
        <ele>10.0</ele>
        <time>2018-06-10T06:56:01Z</time>
      </trkpt>
      <trkpt lat="42.306424" lon="3.085310">
        <ele>10.9</ele>
        <time>2018-06-10T06:56:15Z</time>
      </trkpt>
      <trkpt lat="42.306363" lon="3.084896">
        <ele>11.0</ele>
        <time>2018-06-10T06:56:23Z</time>
      </trkpt>
      <trkpt lat="42.306343" lon="3.084440">
        <ele>10.7</ele>
        <time>2018-06-10T06:56:32Z</time>
      </trkpt>
      <trkpt lat="42.306322" lon="3.084205">
        <ele>10.2</ele>
        <time>2018-06-10T06:56:37Z</time>
      </trkpt>
      <trkpt lat="42.306302" lon="3.084072">
        <ele>10.0</ele>
        <time>2018-06-10T06:56:39Z</time>
      </trkpt>
      <trkpt lat="42.306270" lon="3.083932">
        <ele>10.0</ele>
        <time>2018-06-10T06:56:42Z</time>
      </trkpt>
      <trkpt lat="42.306214" lon="3.083698">
        <ele>10.0</ele>
        <time>2018-06-10T06:56:47Z</time>
      </trkpt>
      <trkpt lat="42.305967" lon="3.082810">
        <ele>10.0</ele>
        <time>2018-06-10T06:57:06Z</time>
      </trkpt>
      <trkpt lat="42.305952" lon="3.082689">
        <ele>10.0</ele>
        <time>2018-06-10T06:57:08Z</time>
      </trkpt>
      <trkpt lat="42.305958" lon="3.082595">
        <ele>10.0</ele>
        <time>2018-06-10T06:57:10Z</time>
      </trkpt>
      <trkpt lat="42.305985" lon="3.082449">
        <ele>10.0</ele>
        <time>2018-06-10T06:57:13Z</time>
      </trkpt>
      <trkpt lat="42.306016" lon="3.082324">
        <ele>10.4</ele>
        <time>2018-06-10T06:57:16Z</time>
      </trkpt>
      <trkpt lat="42.306026" lon="3.082220">
        <ele>10.6</ele>
        <time>2018-06-10T06:57:18Z</time>
      </trkpt>
      <trkpt lat="42.306018" lon="3.082104">
        <ele>11.0</ele>
        <time>2018-06-10T06:57:20Z</time>
      </trkpt>
      <trkpt lat="42.305985" lon="3.081938">
        <ele>10.7</ele>
        <time>2018-06-10T06:57:23Z</time>
      </trkpt>
      <trkpt lat="42.305954" lon="3.081807">
        <ele>11.0</ele>
        <time>2018-06-10T06:57:26Z</time>
      </trkpt>
      <trkpt lat="42.305882" lon="3.081652">
        <ele>10.0</ele>
        <time>2018-06-10T06:57:30Z</time>
      </trkpt>
      <trkpt lat="42.305815" lon="3.081561">
        <ele>10.0</ele>
        <time>2018-06-10T06:57:32Z</time>
      </trkpt>
      <trkpt lat="42.305695" lon="3.081457">
        <ele>8.2</ele>
        <time>2018-06-10T06:57:36Z</time>
      </trkpt>
      <trkpt lat="42.305524" lon="3.081318">
        <ele>10.0</ele>
        <time>2018-06-10T06:57:41Z</time>
      </trkpt>
      <trkpt lat="42.304955" lon="3.080887">
        <ele>10.0</ele>
        <time>2018-06-10T06:57:59Z</time>
      </trkpt>
      <trkpt lat="42.304243" lon="3.080379">
        <ele>10.0</ele>
        <time>2018-06-10T06:58:20Z</time>
      </trkpt>
      <trkpt lat="42.304224" lon="3.080337">
        <ele>10.0</ele>
        <time>2018-06-10T06:58:21Z</time>
      </trkpt>
      <trkpt lat="42.304223" lon="3.080288">
        <ele>10.0</ele>
        <time>2018-06-10T06:58:22Z</time>
      </trkpt>
      <trkpt lat="42.304242" lon="3.080236">
        <ele>10.0</ele>
        <time>2018-06-10T06:58:23Z</time>
      </trkpt>
      <trkpt lat="42.306629" lon="3.077794">
        <ele>11.0</ele>
        <time>2018-06-10T06:59:43Z</time>
      </trkpt>
      <trkpt lat="42.306721" lon="3.077679">
        <ele>11.0</ele>
        <time>2018-06-10T06:59:46Z</time>
      </trkpt>
      <trkpt lat="42.306767" lon="3.077593">
        <ele>11.0</ele>
        <time>2018-06-10T06:59:48Z</time>
      </trkpt>
      <trkpt lat="42.306837" lon="3.077430">
        <ele>11.0</ele>
        <time>2018-06-10T06:59:52Z</time>
      </trkpt>
      <trkpt lat="42.307336" lon="3.076092">
        <ele>11.0</ele>
        <time>2018-06-10T07:00:22Z</time>
      </trkpt>
      <trkpt lat="42.308220" lon="3.073638">
        <ele>13.0</ele>
        <time>2018-06-10T07:01:15Z</time>
      </trkpt>
      <trkpt lat="42.308390" lon="3.073103">
        <ele>13.1</ele>
        <time>2018-06-10T07:01:27Z</time>
      </trkpt>
      <trkpt lat="42.308470" lon="3.072777">
        <ele>14.3</ele>
        <time>2018-06-10T07:01:33Z</time>
      </trkpt>
      <trkpt lat="42.308515" lon="3.072500">
        <ele>14.5</ele>
        <time>2018-06-10T07:01:39Z</time>
      </trkpt>
      <trkpt lat="42.308564" lon="3.072170">
        <ele>14.2</ele>
        <time>2018-06-10T07:01:46Z</time>
      </trkpt>
      <trkpt lat="42.308639" lon="3.071834">
        <ele>15.5</ele>
        <time>2018-06-10T07:01:53Z</time>
      </trkpt>
      <trkpt lat="42.308732" lon="3.071552">
        <ele>16.3</ele>
        <time>2018-06-10T07:01:59Z</time>
      </trkpt>
      <trkpt lat="42.308805" lon="3.071358">
        <ele>17.0</ele>
        <time>2018-06-10T07:02:03Z</time>
      </trkpt>
      <trkpt lat="42.308947" lon="3.071047">
        <ele>18.0</ele>
        <time>2018-06-10T07:02:10Z</time>
      </trkpt>
      <trkpt lat="42.309170" lon="3.070592">
        <ele>20.0</ele>
        <time>2018-06-10T07:02:21Z</time>
      </trkpt>
      <trkpt lat="42.309397" lon="3.070196">
        <ele>22.0</ele>
        <time>2018-06-10T07:02:31Z</time>
      </trkpt>
      <trkpt lat="42.309642" lon="3.069785">
        <ele>23.7</ele>
        <time>2018-06-10T07:02:41Z</time>
      </trkpt>
      <trkpt lat="42.309705" lon="3.069655">
        <ele>24.0</ele>
        <time>2018-06-10T07:02:44Z</time>
      </trkpt>
      <trkpt lat="42.309835" lon="3.069337">
        <ele>25.1</ele>
        <time>2018-06-10T07:02:51Z</time>
      </trkpt>
      <trkpt lat="42.309922" lon="3.069073">
        <ele>26.0</ele>
        <time>2018-06-10T07:02:57Z</time>
      </trkpt>
      <trkpt lat="42.310015" lon="3.068766">
        <ele>27.0</ele>
        <time>2018-06-10T07:03:04Z</time>
      </trkpt>
      <trkpt lat="42.310087" lon="3.068581">
        <ele>28.6</ele>
        <time>2018-06-10T07:03:08Z</time>
      </trkpt>
      <trkpt lat="42.310187" lon="3.068383">
        <ele>29.0</ele>
        <time>2018-06-10T07:03:12Z</time>
      </trkpt>
      <trkpt lat="42.310240" lon="3.068267">
        <ele>29.0</ele>
        <time>2018-06-10T07:03:15Z</time>
      </trkpt>
      <trkpt lat="42.310269" lon="3.068178">
        <ele>30.0</ele>
        <time>2018-06-10T07:03:17Z</time>
      </trkpt>
      <trkpt lat="42.310284" lon="3.068084">
        <ele>30.0</ele>
        <time>2018-06-10T07:03:19Z</time>
      </trkpt>
      <trkpt lat="42.310292" lon="3.067896">
        <ele>30.0</ele>
        <time>2018-06-10T07:03:23Z</time>
      </trkpt>
      <trkpt lat="42.310294" lon="3.067708">
        <ele>31.0</ele>
        <time>2018-06-10T07:03:26Z</time>
      </trkpt>
      <trkpt lat="42.310312" lon="3.067580">
        <ele>30.9</ele>
        <time>2018-06-10T07:03:29Z</time>
      </trkpt>
      <trkpt lat="42.310336" lon="3.067487">
        <ele>30.0</ele>
        <time>2018-06-10T07:03:31Z</time>
      </trkpt>
      <trkpt lat="42.310373" lon="3.067405">
        <ele>30.0</ele>
        <time>2018-06-10T07:03:33Z</time>
      </trkpt>
      <trkpt lat="42.310374" lon="3.067403">
        <ele>30.0</ele>
        <time>2018-06-10T07:03:33Z</time>
      </trkpt>
      <trkpt lat="42.310409" lon="3.067332">
        <ele>30.0</ele>
        <time>2018-06-10T07:03:35Z</time>
      </trkpt>
      <trkpt lat="42.310434" lon="3.067266">
        <ele>30.0</ele>
        <time>2018-06-10T07:03:36Z</time>
      </trkpt>
      <trkpt lat="42.310451" lon="3.067164">
        <ele>30.0</ele>
        <time>2018-06-10T07:03:38Z</time>
      </trkpt>
      <trkpt lat="42.310485" lon="3.067020">
        <ele>30.0</ele>
        <time>2018-06-10T07:03:41Z</time>
      </trkpt>
      <trkpt lat="42.310529" lon="3.066914">
        <ele>29.9</ele>
        <time>2018-06-10T07:03:43Z</time>
      </trkpt>
      <trkpt lat="42.310593" lon="3.066748">
        <ele>29.2</ele>
        <time>2018-06-10T07:03:47Z</time>
      </trkpt>
      <trkpt lat="42.310666" lon="3.066611">
        <ele>29.0</ele>
        <time>2018-06-10T07:03:50Z</time>
      </trkpt>
      <trkpt lat="42.310757" lon="3.066419">
        <ele>29.0</ele>
        <time>2018-06-10T07:03:55Z</time>
      </trkpt>
      <trkpt lat="42.310896" lon="3.066078">
        <ele>29.0</ele>
        <time>2018-06-10T07:04:03Z</time>
      </trkpt>
      <trkpt lat="42.311003" lon="3.065820">
        <ele>28.8</ele>
        <time>2018-06-10T07:04:08Z</time>
      </trkpt>
      <trkpt lat="42.311092" lon="3.065618">
        <ele>27.4</ele>
        <time>2018-06-10T07:04:13Z</time>
      </trkpt>
      <trkpt lat="42.311127" lon="3.065531">
        <ele>28.1</ele>
        <time>2018-06-10T07:04:15Z</time>
      </trkpt>
      <trkpt lat="42.311150" lon="3.065425">
        <ele>28.2</ele>
        <time>2018-06-10T07:04:17Z</time>
      </trkpt>
      <trkpt lat="42.311157" lon="3.065331">
        <ele>28.3</ele>
        <time>2018-06-10T07:04:19Z</time>
      </trkpt>
      <trkpt lat="42.311149" lon="3.065214">
        <ele>28.1</ele>
        <time>2018-06-10T07:04:21Z</time>
      </trkpt>
      <trkpt lat="42.311142" lon="3.065129">
        <ele>28.0</ele>
        <time>2018-06-10T07:04:23Z</time>
      </trkpt>
      <trkpt lat="42.311133" lon="3.065031">
        <ele>28.0</ele>
        <time>2018-06-10T07:04:25Z</time>
      </trkpt>
      <trkpt lat="42.311115" lon="3.064852">
        <ele>28.6</ele>
        <time>2018-06-10T07:04:29Z</time>
      </trkpt>
      <trkpt lat="42.311077" lon="3.064607">
        <ele>28.5</ele>
        <time>2018-06-10T07:04:33Z</time>
      </trkpt>
      <trkpt lat="42.311016" lon="3.064360">
        <ele>29.0</ele>
        <time>2018-06-10T07:04:39Z</time>
      </trkpt>
      <trkpt lat="42.310934" lon="3.064092">
        <ele>29.3</ele>
        <time>2018-06-10T07:04:44Z</time>
      </trkpt>
      <trkpt lat="42.310642" lon="3.063198">
        <ele>29.4</ele>
        <time>2018-06-10T07:05:04Z</time>
      </trkpt>
      <trkpt lat="42.310578" lon="3.063012">
        <ele>29.8</ele>
        <time>2018-06-10T07:05:08Z</time>
      </trkpt>
      <trkpt lat="42.310493" lon="3.062827">
        <ele>29.7</ele>
        <time>2018-06-10T07:05:12Z</time>
      </trkpt>
      <trkpt lat="42.310409" lon="3.062669">
        <ele>29.3</ele>
        <time>2018-06-10T07:05:16Z</time>
      </trkpt>
      <trkpt lat="42.310253" lon="3.062413">
        <ele>30.1</ele>
        <time>2018-06-10T07:05:22Z</time>
      </trkpt>
      <trkpt lat="42.310133" lon="3.062210">
        <ele>30.2</ele>
        <time>2018-06-10T07:05:27Z</time>
      </trkpt>
      <trkpt lat="42.310025" lon="3.062020">
        <ele>30.1</ele>
        <time>2018-06-10T07:05:32Z</time>
      </trkpt>
      <trkpt lat="42.309925" lon="3.061875">
        <ele>30.2</ele>
        <time>2018-06-10T07:05:36Z</time>
      </trkpt>
      <trkpt lat="42.309833" lon="3.061729">
        <ele>30.1</ele>
        <time>2018-06-10T07:05:40Z</time>
      </trkpt>
      <trkpt lat="42.309725" lon="3.061561">
        <ele>31.0</ele>
        <time>2018-06-10T07:05:44Z</time>
      </trkpt>
      <trkpt lat="42.309568" lon="3.061261">
        <ele>31.8</ele>
        <time>2018-06-10T07:05:51Z</time>
      </trkpt>
      <trkpt lat="42.309162" lon="3.060474">
        <ele>34.2</ele>
        <time>2018-06-10T07:06:10Z</time>
      </trkpt>
      <trkpt lat="42.309044" lon="3.060185">
        <ele>35.3</ele>
        <time>2018-06-10T07:06:17Z</time>
      </trkpt>
      <trkpt lat="42.308997" lon="3.060045">
        <ele>34.3</ele>
        <time>2018-06-10T07:06:20Z</time>
      </trkpt>
      <trkpt lat="42.308968" lon="3.059902">
        <ele>34.0</ele>
        <time>2018-06-10T07:06:23Z</time>
      </trkpt>
      <trkpt lat="42.308937" lon="3.059714">
        <ele>34.0</ele>
        <time>2018-06-10T07:06:27Z</time>
      </trkpt>
      <trkpt lat="42.308901" lon="3.059522">
        <ele>34.0</ele>
        <time>2018-06-10T07:06:30Z</time>
      </trkpt>
      <trkpt lat="42.308864" lon="3.059333">
        <ele>34.0</ele>
        <time>2018-06-10T07:06:34Z</time>
      </trkpt>
      <trkpt lat="42.308807" lon="3.059119">
        <ele>34.0</ele>
        <time>2018-06-10T07:06:39Z</time>
      </trkpt>
      <trkpt lat="42.308607" lon="3.058559">
        <ele>34.8</ele>
        <time>2018-06-10T07:06:51Z</time>
      </trkpt>
      <trkpt lat="42.308546" lon="3.058360">
        <ele>35.0</ele>
        <time>2018-06-10T07:06:55Z</time>
      </trkpt>
      <trkpt lat="42.308497" lon="3.058166">
        <ele>35.2</ele>
        <time>2018-06-10T07:06:59Z</time>
      </trkpt>
      <trkpt lat="42.308456" lon="3.057988">
        <ele>35.3</ele>
        <time>2018-06-10T07:07:03Z</time>
      </trkpt>
      <trkpt lat="42.308418" lon="3.057739">
        <ele>36.0</ele>
        <time>2018-06-10T07:07:08Z</time>
      </trkpt>
      <trkpt lat="42.308386" lon="3.057492">
        <ele>36.5</ele>
        <time>2018-06-10T07:07:13Z</time>
      </trkpt>
      <trkpt lat="42.308347" lon="3.057260">
        <ele>37.3</ele>
        <time>2018-06-10T07:07:18Z</time>
      </trkpt>
      <trkpt lat="42.308270" lon="3.056968">
        <ele>39.0</ele>
        <time>2018-06-10T07:07:24Z</time>
      </trkpt>
      <trkpt lat="42.308155" lon="3.056547">
        <ele>40.0</ele>
        <time>2018-06-10T07:07:33Z</time>
      </trkpt>
      <trkpt lat="42.308086" lon="3.056255">
        <ele>41.0</ele>
        <time>2018-06-10T07:07:39Z</time>
      </trkpt>
      <trkpt lat="42.308023" lon="3.056032">
        <ele>41.0</ele>
        <time>2018-06-10T07:07:43Z</time>
      </trkpt>
      <trkpt lat="42.307957" lon="3.055859">
        <ele>41.0</ele>
        <time>2018-06-10T07:07:47Z</time>
      </trkpt>
      <trkpt lat="42.307872" lon="3.055639">
        <ele>42.0</ele>
        <time>2018-06-10T07:07:52Z</time>
      </trkpt>
      <trkpt lat="42.307778" lon="3.055456">
        <ele>42.0</ele>
        <time>2018-06-10T07:07:56Z</time>
      </trkpt>
      <trkpt lat="42.307687" lon="3.055258">
        <ele>42.0</ele>
        <time>2018-06-10T07:08:01Z</time>
      </trkpt>
      <trkpt lat="42.307514" lon="3.054906">
        <ele>42.0</ele>
        <time>2018-06-10T07:08:09Z</time>
      </trkpt>
      <trkpt lat="42.307230" lon="3.054305">
        <ele>43.0</ele>
        <time>2018-06-10T07:08:23Z</time>
      </trkpt>
      <trkpt lat="42.307131" lon="3.054138">
        <ele>44.0</ele>
        <time>2018-06-10T07:08:28Z</time>
      </trkpt>
      <trkpt lat="42.307079" lon="3.054039">
        <ele>44.7</ele>
        <time>2018-06-10T07:08:30Z</time>
      </trkpt>
      <trkpt lat="42.307072" lon="3.053992">
        <ele>45.0</ele>
        <time>2018-06-10T07:08:31Z</time>
      </trkpt>
      <trkpt lat="42.307074" lon="3.053950">
        <ele>43.9</ele>
        <time>2018-06-10T07:08:32Z</time>
      </trkpt>
      <trkpt lat="42.307105" lon="3.053915">
        <ele>41.8</ele>
        <time>2018-06-10T07:08:33Z</time>
      </trkpt>
      <trkpt lat="42.307458" lon="3.053582">
        <ele>44.8</ele>
        <time>2018-06-10T07:08:44Z</time>
      </trkpt>
      <trkpt lat="42.307485" lon="3.053537">
        <ele>45.8</ele>
        <time>2018-06-10T07:08:46Z</time>
      </trkpt>
      <trkpt lat="42.307502" lon="3.053491">
        <ele>46.3</ele>
        <time>2018-06-10T07:08:47Z</time>
      </trkpt>
      <trkpt lat="42.307497" lon="3.053424">
        <ele>46.9</ele>
        <time>2018-06-10T07:08:48Z</time>
      </trkpt>
      <trkpt lat="42.307483" lon="3.053388">
        <ele>46.6</ele>
        <time>2018-06-10T07:08:49Z</time>
      </trkpt>
      <trkpt lat="42.307447" lon="3.053344">
        <ele>46.0</ele>
        <time>2018-06-10T07:08:50Z</time>
      </trkpt>
      <trkpt lat="42.307391" lon="3.053299">
        <ele>46.0</ele>
        <time>2018-06-10T07:08:52Z</time>
      </trkpt>
      <trkpt lat="42.307308" lon="3.053196">
        <ele>45.0</ele>
        <time>2018-06-10T07:08:55Z</time>
      </trkpt>
      <trkpt lat="42.307237" lon="3.053079">
        <ele>44.0</ele>
        <time>2018-06-10T07:08:58Z</time>
      </trkpt>
      <trkpt lat="42.307187" lon="3.052996">
        <ele>43.0</ele>
        <time>2018-06-10T07:09:00Z</time>
      </trkpt>
      <trkpt lat="42.306743" lon="3.052118">
        <ele>39.1</ele>
        <time>2018-06-10T07:09:21Z</time>
      </trkpt>
      <trkpt lat="42.306705" lon="3.052025">
        <ele>39.0</ele>
        <time>2018-06-10T07:09:23Z</time>
      </trkpt>
      <trkpt lat="42.306680" lon="3.051931">
        <ele>39.0</ele>
        <time>2018-06-10T07:09:25Z</time>
      </trkpt>
      <trkpt lat="42.306663" lon="3.051864">
        <ele>39.0</ele>
        <time>2018-06-10T07:09:26Z</time>
      </trkpt>
      <trkpt lat="42.306631" lon="3.051750">
        <ele>39.0</ele>
        <time>2018-06-10T07:09:29Z</time>
      </trkpt>
      <trkpt lat="42.306546" lon="3.051446">
        <ele>38.2</ele>
        <time>2018-06-10T07:09:35Z</time>
      </trkpt>
      <trkpt lat="42.306486" lon="3.051209">
        <ele>38.0</ele>
        <time>2018-06-10T07:09:40Z</time>
      </trkpt>
      <trkpt lat="42.306468" lon="3.051083">
        <ele>38.0</ele>
        <time>2018-06-10T07:09:43Z</time>
      </trkpt>
      <trkpt lat="42.306460" lon="3.050932">
        <ele>36.8</ele>
        <time>2018-06-10T07:09:46Z</time>
      </trkpt>
      <trkpt lat="42.306465" lon="3.050714">
        <ele>35.1</ele>
        <time>2018-06-10T07:09:50Z</time>
      </trkpt>
      <trkpt lat="42.306467" lon="3.050454">
        <ele>34.0</ele>
        <time>2018-06-10T07:09:55Z</time>
      </trkpt>
      <trkpt lat="42.306453" lon="3.050312">
        <ele>34.1</ele>
        <time>2018-06-10T07:09:58Z</time>
      </trkpt>
      <trkpt lat="42.306411" lon="3.050156">
        <ele>33.4</ele>
        <time>2018-06-10T07:10:01Z</time>
      </trkpt>
      <trkpt lat="42.306367" lon="3.050058">
        <ele>33.2</ele>
        <time>2018-06-10T07:10:03Z</time>
      </trkpt>
      <trkpt lat="42.306279" lon="3.049766">
        <ele>32.3</ele>
        <time>2018-06-10T07:10:10Z</time>
      </trkpt>
      <trkpt lat="42.306220" lon="3.049464">
        <ele>31.5</ele>
        <time>2018-06-10T07:10:16Z</time>
      </trkpt>
      <trkpt lat="42.306191" lon="3.049232">
        <ele>32.7</ele>
        <time>2018-06-10T07:10:20Z</time>
      </trkpt>
      <trkpt lat="42.306191" lon="3.049002">
        <ele>34.3</ele>
        <time>2018-06-10T07:10:25Z</time>
      </trkpt>
      <trkpt lat="42.306210" lon="3.048789">
        <ele>34.0</ele>
        <time>2018-06-10T07:10:29Z</time>
      </trkpt>
      <trkpt lat="42.306210" lon="3.048677">
        <ele>34.0</ele>
        <time>2018-06-10T07:10:31Z</time>
      </trkpt>
      <trkpt lat="42.306200" lon="3.048549">
        <ele>34.0</ele>
        <time>2018-06-10T07:10:34Z</time>
      </trkpt>
      <trkpt lat="42.306174" lon="3.048384">
        <ele>34.2</ele>
        <time>2018-06-10T07:10:37Z</time>
      </trkpt>
      <trkpt lat="42.306123" lon="3.048141">
        <ele>35.0</ele>
        <time>2018-06-10T07:10:42Z</time>
      </trkpt>
      <trkpt lat="42.306056" lon="3.047835">
        <ele>35.1</ele>
        <time>2018-06-10T07:10:48Z</time>
      </trkpt>
      <trkpt lat="42.305986" lon="3.047569">
        <ele>36.3</ele>
        <time>2018-06-10T07:10:54Z</time>
      </trkpt>
      <trkpt lat="42.305916" lon="3.047322">
        <ele>37.4</ele>
        <time>2018-06-10T07:10:59Z</time>
      </trkpt>
      <trkpt lat="42.305885" lon="3.047136">
        <ele>37.1</ele>
        <time>2018-06-10T07:11:03Z</time>
      </trkpt>
      <trkpt lat="42.305851" lon="3.046856">
        <ele>37.6</ele>
        <time>2018-06-10T07:11:09Z</time>
      </trkpt>
      <trkpt lat="42.305835" lon="3.046642">
        <ele>38.9</ele>
        <time>2018-06-10T07:11:13Z</time>
      </trkpt>
      <trkpt lat="42.305821" lon="3.046534">
        <ele>39.2</ele>
        <time>2018-06-10T07:11:15Z</time>
      </trkpt>
      <trkpt lat="42.305788" lon="3.046338">
        <ele>40.8</ele>
        <time>2018-06-10T07:11:19Z</time>
      </trkpt>
      <trkpt lat="42.305751" lon="3.046168">
        <ele>42.0</ele>
        <time>2018-06-10T07:11:22Z</time>
      </trkpt>
      <trkpt lat="42.305732" lon="3.046047">
        <ele>41.4</ele>
        <time>2018-06-10T07:11:25Z</time>
      </trkpt>
      <trkpt lat="42.305721" lon="3.045934">
        <ele>41.0</ele>
        <time>2018-06-10T07:11:27Z</time>
      </trkpt>
      <trkpt lat="42.305711" lon="3.045769">
        <ele>41.0</ele>
        <time>2018-06-10T07:11:30Z</time>
      </trkpt>
      <trkpt lat="42.305716" lon="3.045561">
        <ele>41.0</ele>
        <time>2018-06-10T07:11:34Z</time>
      </trkpt>
      <trkpt lat="42.305782" lon="3.044363">
        <ele>41.0</ele>
        <time>2018-06-10T07:11:58Z</time>
      </trkpt>
      <trkpt lat="42.305806" lon="3.044161">
        <ele>41.0</ele>
        <time>2018-06-10T07:12:02Z</time>
      </trkpt>
      <trkpt lat="42.305854" lon="3.043939">
        <ele>41.0</ele>
        <time>2018-06-10T07:12:07Z</time>
      </trkpt>
      <trkpt lat="42.305910" lon="3.043732">
        <ele>41.5</ele>
        <time>2018-06-10T07:12:11Z</time>
      </trkpt>
      <trkpt lat="42.305975" lon="3.043515">
        <ele>41.0</ele>
        <time>2018-06-10T07:12:16Z</time>
      </trkpt>
      <trkpt lat="42.306065" lon="3.043266">
        <ele>41.2</ele>
        <time>2018-06-10T07:12:21Z</time>
      </trkpt>
      <trkpt lat="42.306356" lon="3.042430">
        <ele>41.0</ele>
        <time>2018-06-10T07:12:39Z</time>
      </trkpt>
      <trkpt lat="42.306497" lon="3.041957">
        <ele>41.0</ele>
        <time>2018-06-10T07:12:49Z</time>
      </trkpt>
      <trkpt lat="42.306561" lon="3.041715">
        <ele>41.0</ele>
        <time>2018-06-10T07:12:54Z</time>
      </trkpt>
      <trkpt lat="42.306595" lon="3.041505">
        <ele>41.0</ele>
        <time>2018-06-10T07:12:59Z</time>
      </trkpt>
      <trkpt lat="42.306620" lon="3.041273">
        <ele>41.0</ele>
        <time>2018-06-10T07:13:03Z</time>
      </trkpt>
      <trkpt lat="42.306649" lon="3.040938">
        <ele>41.0</ele>
        <time>2018-06-10T07:13:10Z</time>
      </trkpt>
      <trkpt lat="42.306655" lon="3.040771">
        <ele>41.0</ele>
        <time>2018-06-10T07:13:13Z</time>
      </trkpt>
      <trkpt lat="42.306669" lon="3.040529">
        <ele>42.0</ele>
        <time>2018-06-10T07:13:18Z</time>
      </trkpt>
      <trkpt lat="42.306691" lon="3.040340">
        <ele>42.0</ele>
        <time>2018-06-10T07:13:22Z</time>
      </trkpt>
      <trkpt lat="42.306838" lon="3.039206">
        <ele>42.0</ele>
        <time>2018-06-10T07:13:44Z</time>
      </trkpt>
      <trkpt lat="42.306860" lon="3.038780">
        <ele>42.5</ele>
        <time>2018-06-10T07:13:53Z</time>
      </trkpt>
      <trkpt lat="42.306852" lon="3.038300">
        <ele>42.0</ele>
        <time>2018-06-10T07:14:02Z</time>
      </trkpt>
      <trkpt lat="42.306799" lon="3.036933">
        <ele>39.8</ele>
        <time>2018-06-10T07:14:29Z</time>
      </trkpt>
      <trkpt lat="42.306764" lon="3.036556">
        <ele>38.3</ele>
        <time>2018-06-10T07:14:37Z</time>
      </trkpt>
      <trkpt lat="42.306687" lon="3.036024">
        <ele>36.0</ele>
        <time>2018-06-10T07:14:47Z</time>
      </trkpt>
      <trkpt lat="42.306568" lon="3.035333">
        <ele>33.4</ele>
        <time>2018-06-10T07:15:01Z</time>
      </trkpt>
      <trkpt lat="42.306545" lon="3.035030">
        <ele>33.0</ele>
        <time>2018-06-10T07:15:07Z</time>
      </trkpt>
      <trkpt lat="42.306560" lon="3.034676">
        <ele>33.0</ele>
        <time>2018-06-10T07:15:14Z</time>
      </trkpt>
      <trkpt lat="42.306601" lon="3.034169">
        <ele>33.0</ele>
        <time>2018-06-10T07:15:24Z</time>
      </trkpt>
      <trkpt lat="42.306666" lon="3.033044">
        <ele>31.0</ele>
        <time>2018-06-10T07:15:47Z</time>
      </trkpt>
      <trkpt lat="42.306701" lon="3.032704">
        <ele>30.9</ele>
        <time>2018-06-10T07:15:53Z</time>
      </trkpt>
      <trkpt lat="42.306793" lon="3.032188">
        <ele>30.0</ele>
        <time>2018-06-10T07:16:04Z</time>
      </trkpt>
      <trkpt lat="42.306859" lon="3.031815">
        <ele>31.4</ele>
        <time>2018-06-10T07:16:11Z</time>
      </trkpt>
      <trkpt lat="42.306883" lon="3.031478">
        <ele>32.9</ele>
        <time>2018-06-10T07:16:18Z</time>
      </trkpt>
      <trkpt lat="42.306879" lon="3.031199">
        <ele>33.0</ele>
        <time>2018-06-10T07:16:23Z</time>
      </trkpt>
      <trkpt lat="42.306879" lon="3.030993">
        <ele>34.0</ele>
        <time>2018-06-10T07:16:28Z</time>
      </trkpt>
      <trkpt lat="42.306868" lon="3.030485">
        <ele>34.5</ele>
        <time>2018-06-10T07:16:38Z</time>
      </trkpt>
      <trkpt lat="42.306837" lon="3.030151">
        <ele>35.0</ele>
        <time>2018-06-10T07:16:44Z</time>
      </trkpt>
      <trkpt lat="42.306793" lon="3.029835">
        <ele>35.0</ele>
        <time>2018-06-10T07:16:50Z</time>
      </trkpt>
      <trkpt lat="42.306725" lon="3.029426">
        <ele>35.4</ele>
        <time>2018-06-10T07:16:59Z</time>
      </trkpt>
      <trkpt lat="42.306662" lon="3.028950">
        <ele>35.0</ele>
        <time>2018-06-10T07:17:08Z</time>
      </trkpt>
      <trkpt lat="42.306652" lon="3.028728">
        <ele>36.0</ele>
        <time>2018-06-10T07:17:13Z</time>
      </trkpt>
      <trkpt lat="42.306664" lon="3.028537">
        <ele>35.0</ele>
        <time>2018-06-10T07:17:16Z</time>
      </trkpt>
      <trkpt lat="42.306688" lon="3.028232">
        <ele>35.1</ele>
        <time>2018-06-10T07:17:22Z</time>
      </trkpt>
      <trkpt lat="42.306737" lon="3.027722">
        <ele>35.0</ele>
        <time>2018-06-10T07:17:33Z</time>
      </trkpt>
      <trkpt lat="42.306921" lon="3.026429">
        <ele>33.0</ele>
        <time>2018-06-10T07:17:58Z</time>
      </trkpt>
      <trkpt lat="42.307003" lon="3.025875">
        <ele>32.7</ele>
        <time>2018-06-10T07:18:10Z</time>
      </trkpt>
      <trkpt lat="42.307044" lon="3.025440">
        <ele>32.0</ele>
        <time>2018-06-10T07:18:18Z</time>
      </trkpt>
      <trkpt lat="42.307048" lon="3.025283">
        <ele>32.0</ele>
        <time>2018-06-10T07:18:21Z</time>
      </trkpt>
      <trkpt lat="42.307038" lon="3.025122">
        <ele>32.4</ele>
        <time>2018-06-10T07:18:25Z</time>
      </trkpt>
      <trkpt lat="42.307019" lon="3.024868">
        <ele>33.0</ele>
        <time>2018-06-10T07:18:30Z</time>
      </trkpt>
      <trkpt lat="42.306910" lon="3.023857">
        <ele>33.7</ele>
        <time>2018-06-10T07:18:50Z</time>
      </trkpt>
      <trkpt lat="42.306766" lon="3.022689">
        <ele>29.0</ele>
        <time>2018-06-10T07:19:13Z</time>
      </trkpt>
      <trkpt lat="42.306755" lon="3.022410">
        <ele>28.0</ele>
        <time>2018-06-10T07:19:18Z</time>
      </trkpt>
      <trkpt lat="42.306749" lon="3.021784">
        <ele>27.0</ele>
        <time>2018-06-10T07:19:31Z</time>
      </trkpt>
      <trkpt lat="42.306737" lon="3.021153">
        <ele>24.4</ele>
        <time>2018-06-10T07:19:43Z</time>
      </trkpt>
      <trkpt lat="42.306743" lon="3.019893">
        <ele>23.0</ele>
        <time>2018-06-10T07:20:08Z</time>
      </trkpt>
      <trkpt lat="42.306733" lon="3.019671">
        <ele>23.0</ele>
        <time>2018-06-10T07:20:12Z</time>
      </trkpt>
      <trkpt lat="42.306714" lon="3.019471">
        <ele>23.3</ele>
        <time>2018-06-10T07:20:16Z</time>
      </trkpt>
      <trkpt lat="42.306679" lon="3.019262">
        <ele>23.5</ele>
        <time>2018-06-10T07:20:21Z</time>
      </trkpt>
      <trkpt lat="42.306617" lon="3.018957">
        <ele>24.0</ele>
        <time>2018-06-10T07:20:27Z</time>
      </trkpt>
      <trkpt lat="42.306298" lon="3.017691">
        <ele>23.0</ele>
        <time>2018-06-10T07:20:53Z</time>
      </trkpt>
      <trkpt lat="42.306281" lon="3.017575">
        <ele>23.0</ele>
        <time>2018-06-10T07:20:56Z</time>
      </trkpt>
      <trkpt lat="42.306276" lon="3.017447">
        <ele>23.0</ele>
        <time>2018-06-10T07:20:58Z</time>
      </trkpt>
      <trkpt lat="42.306287" lon="3.017155">
        <ele>23.0</ele>
        <time>2018-06-10T07:21:04Z</time>
      </trkpt>
      <trkpt lat="42.306337" lon="3.016176">
        <ele>23.5</ele>
        <time>2018-06-10T07:21:23Z</time>
      </trkpt>
      <trkpt lat="42.306348" lon="3.016090">
        <ele>23.9</ele>
        <time>2018-06-10T07:21:25Z</time>
      </trkpt>
      <trkpt lat="42.306372" lon="3.015986">
        <ele>23.7</ele>
        <time>2018-06-10T07:21:27Z</time>
      </trkpt>
      <trkpt lat="42.306435" lon="3.015830">
        <ele>25.1</ele>
        <time>2018-06-10T07:21:30Z</time>
      </trkpt>
      <trkpt lat="42.306568" lon="3.015524">
        <ele>25.0</ele>
        <time>2018-06-10T07:21:37Z</time>
      </trkpt>
      <trkpt lat="42.306588" lon="3.015467">
        <ele>25.0</ele>
        <time>2018-06-10T07:21:39Z</time>
      </trkpt>
      <trkpt lat="42.306602" lon="3.015353">
        <ele>25.0</ele>
        <time>2018-06-10T07:21:41Z</time>
      </trkpt>
      <trkpt lat="42.306675" lon="3.014693">
        <ele>26.9</ele>
        <time>2018-06-10T07:21:54Z</time>
      </trkpt>
      <trkpt lat="42.306695" lon="3.014639">
        <ele>27.0</ele>
        <time>2018-06-10T07:21:55Z</time>
      </trkpt>
      <trkpt lat="42.306723" lon="3.014603">
        <ele>27.0</ele>
        <time>2018-06-10T07:21:56Z</time>
      </trkpt>
      <trkpt lat="42.306751" lon="3.014566">
        <ele>27.0</ele>
        <time>2018-06-10T07:21:57Z</time>
      </trkpt>
      <trkpt lat="42.306770" lon="3.014517">
        <ele>27.0</ele>
        <time>2018-06-10T07:21:58Z</time>
      </trkpt>
      <trkpt lat="42.306771" lon="3.014458">
        <ele>27.0</ele>
        <time>2018-06-10T07:22:00Z</time>
      </trkpt>
      <trkpt lat="42.306761" lon="3.014380">
        <ele>27.0</ele>
        <time>2018-06-10T07:22:01Z</time>
      </trkpt>
      <trkpt lat="42.306762" lon="3.014306">
        <ele>27.0</ele>
        <time>2018-06-10T07:22:03Z</time>
      </trkpt>
      <trkpt lat="42.306776" lon="3.014226">
        <ele>27.0</ele>
        <time>2018-06-10T07:22:04Z</time>
      </trkpt>
      <trkpt lat="42.306798" lon="3.014133">
        <ele>27.0</ele>
        <time>2018-06-10T07:22:06Z</time>
      </trkpt>
      <trkpt lat="42.306792" lon="3.014059">
        <ele>27.3</ele>
        <time>2018-06-10T07:22:08Z</time>
      </trkpt>
      <trkpt lat="42.306779" lon="3.013997">
        <ele>28.0</ele>
        <time>2018-06-10T07:22:09Z</time>
      </trkpt>
      <trkpt lat="42.306748" lon="3.013945">
        <ele>28.0</ele>
        <time>2018-06-10T07:22:10Z</time>
      </trkpt>
      <trkpt lat="42.306694" lon="3.013915">
        <ele>28.0</ele>
        <time>2018-06-10T07:22:12Z</time>
      </trkpt>
      <trkpt lat="42.306670" lon="3.013888">
        <ele>28.0</ele>
        <time>2018-06-10T07:22:13Z</time>
      </trkpt>
      <trkpt lat="42.306633" lon="3.013807">
        <ele>27.8</ele>
        <time>2018-06-10T07:22:15Z</time>
      </trkpt>
      <trkpt lat="42.306570" lon="3.013612">
        <ele>27.4</ele>
        <time>2018-06-10T07:22:19Z</time>
      </trkpt>
      <trkpt lat="42.305655" lon="3.010742">
        <ele>19.0</ele>
        <time>2018-06-10T07:23:20Z</time>
      </trkpt>
      <trkpt lat="42.305624" lon="3.010615">
        <ele>19.0</ele>
        <time>2018-06-10T07:23:23Z</time>
      </trkpt>
      <trkpt lat="42.305626" lon="3.010528">
        <ele>19.0</ele>
        <time>2018-06-10T07:23:25Z</time>
      </trkpt>
      <trkpt lat="42.305643" lon="3.010406">
        <ele>18.8</ele>
        <time>2018-06-10T07:23:27Z</time>
      </trkpt>
      <trkpt lat="42.305680" lon="3.010286">
        <ele>18.3</ele>
        <time>2018-06-10T07:23:30Z</time>
      </trkpt>
      <trkpt lat="42.305736" lon="3.010156">
        <ele>18.7</ele>
        <time>2018-06-10T07:23:33Z</time>
      </trkpt>
      <trkpt lat="42.306245" lon="3.009228">
        <ele>19.1</ele>
        <time>2018-06-10T07:23:55Z</time>
      </trkpt>
      <trkpt lat="42.306277" lon="3.009152">
        <ele>20.0</ele>
        <time>2018-06-10T07:23:57Z</time>
      </trkpt>
      <trkpt lat="42.306287" lon="3.009071">
        <ele>20.0</ele>
        <time>2018-06-10T07:23:59Z</time>
      </trkpt>
      <trkpt lat="42.306284" lon="3.008993">
        <ele>20.0</ele>
        <time>2018-06-10T07:24:00Z</time>
      </trkpt>
      <trkpt lat="42.306287" lon="3.008923">
        <ele>20.0</ele>
        <time>2018-06-10T07:24:02Z</time>
      </trkpt>
      <trkpt lat="42.306315" lon="3.008839">
        <ele>20.0</ele>
        <time>2018-06-10T07:24:03Z</time>
      </trkpt>
      <trkpt lat="42.306342" lon="3.008803">
        <ele>20.0</ele>
        <time>2018-06-10T07:24:04Z</time>
      </trkpt>
      <trkpt lat="42.306363" lon="3.008722">
        <ele>20.0</ele>
        <time>2018-06-10T07:24:06Z</time>
      </trkpt>
      <trkpt lat="42.306357" lon="3.008646">
        <ele>20.0</ele>
        <time>2018-06-10T07:24:08Z</time>
      </trkpt>
      <trkpt lat="42.306327" lon="3.008580">
        <ele>20.0</ele>
        <time>2018-06-10T07:24:09Z</time>
      </trkpt>
      <trkpt lat="42.306277" lon="3.008536">
        <ele>20.0</ele>
        <time>2018-06-10T07:24:11Z</time>
      </trkpt>
      <trkpt lat="42.306225" lon="3.008528">
        <ele>20.0</ele>
        <time>2018-06-10T07:24:12Z</time>
      </trkpt>
      <trkpt lat="42.306168" lon="3.008506">
        <ele>20.0</ele>
        <time>2018-06-10T07:24:14Z</time>
      </trkpt>
      <trkpt lat="42.306128" lon="3.008485">
        <ele>19.9</ele>
        <time>2018-06-10T07:24:15Z</time>
      </trkpt>
      <trkpt lat="42.306068" lon="3.008420">
        <ele>19.8</ele>
        <time>2018-06-10T07:24:17Z</time>
      </trkpt>
      <trkpt lat="42.306023" lon="3.008361">
        <ele>19.8</ele>
        <time>2018-06-10T07:24:19Z</time>
      </trkpt>
      <trkpt lat="42.305936" lon="3.008253">
        <ele>20.0</ele>
        <time>2018-06-10T07:24:22Z</time>
      </trkpt>
      <trkpt lat="42.305736" lon="3.008064">
        <ele>20.0</ele>
        <time>2018-06-10T07:24:28Z</time>
      </trkpt>
      <trkpt lat="42.305382" lon="3.007710">
        <ele>15.1</ele>
        <time>2018-06-10T07:24:40Z</time>
      </trkpt>
      <trkpt lat="42.304865" lon="3.007194">
        <ele>20.8</ele>
        <time>2018-06-10T07:24:57Z</time>
      </trkpt>
      <trkpt lat="42.304836" lon="3.007143">
        <ele>21.0</ele>
        <time>2018-06-10T07:24:58Z</time>
      </trkpt>
      <trkpt lat="42.304825" lon="3.007070">
        <ele>20.7</ele>
        <time>2018-06-10T07:25:00Z</time>
      </trkpt>
      <trkpt lat="42.304841" lon="3.007000">
        <ele>20.3</ele>
        <time>2018-06-10T07:25:01Z</time>
      </trkpt>
      <trkpt lat="42.304877" lon="3.006943">
        <ele>19.7</ele>
        <time>2018-06-10T07:25:03Z</time>
      </trkpt>
      <trkpt lat="42.304905" lon="3.006884">
        <ele>19.5</ele>
        <time>2018-06-10T07:25:04Z</time>
      </trkpt>
      <trkpt lat="42.304979" lon="3.006649">
        <ele>19.0</ele>
        <time>2018-06-10T07:25:09Z</time>
      </trkpt>
      <trkpt lat="42.305482" lon="3.004893">
        <ele>19.9</ele>
        <time>2018-06-10T07:25:46Z</time>
      </trkpt>
      <trkpt lat="42.305526" lon="3.004757">
        <ele>19.9</ele>
        <time>2018-06-10T07:25:49Z</time>
      </trkpt>
      <trkpt lat="42.305573" lon="3.004656">
        <ele>19.7</ele>
        <time>2018-06-10T07:25:52Z</time>
      </trkpt>
      <trkpt lat="42.305644" lon="3.004524">
        <ele>19.1</ele>
        <time>2018-06-10T07:25:55Z</time>
      </trkpt>
      <trkpt lat="42.306191" lon="3.003654">
        <ele>20.0</ele>
        <time>2018-06-10T07:26:17Z</time>
      </trkpt>
      <trkpt lat="42.306238" lon="3.003576">
        <ele>20.0</ele>
        <time>2018-06-10T07:26:19Z</time>
      </trkpt>
      <trkpt lat="42.306272" lon="3.003491">
        <ele>20.0</ele>
        <time>2018-06-10T07:26:21Z</time>
      </trkpt>
      <trkpt lat="42.306290" lon="3.003406">
        <ele>20.0</ele>
        <time>2018-06-10T07:26:23Z</time>
      </trkpt>
      <trkpt lat="42.306304" lon="3.003282">
        <ele>20.0</ele>
        <time>2018-06-10T07:26:25Z</time>
      </trkpt>
      <trkpt lat="42.306318" lon="3.003147">
        <ele>20.0</ele>
        <time>2018-06-10T07:26:28Z</time>
      </trkpt>
      <trkpt lat="42.306342" lon="3.002503">
        <ele>20.0</ele>
        <time>2018-06-10T07:26:41Z</time>
      </trkpt>
      <trkpt lat="42.306347" lon="3.002233">
        <ele>20.0</ele>
        <time>2018-06-10T07:26:46Z</time>
      </trkpt>
      <trkpt lat="42.306340" lon="3.002020">
        <ele>19.9</ele>
        <time>2018-06-10T07:26:50Z</time>
      </trkpt>
      <trkpt lat="42.306318" lon="3.001758">
        <ele>19.5</ele>
        <time>2018-06-10T07:26:55Z</time>
      </trkpt>
      <trkpt lat="42.306189" lon="3.000687">
        <ele>19.9</ele>
        <time>2018-06-10T07:27:17Z</time>
      </trkpt>
      <trkpt lat="42.306176" lon="3.000458">
        <ele>20.0</ele>
        <time>2018-06-10T07:27:21Z</time>
      </trkpt>
      <trkpt lat="42.306181" lon="3.000347">
        <ele>20.0</ele>
        <time>2018-06-10T07:27:23Z</time>
      </trkpt>
      <trkpt lat="42.306194" lon="3.000260">
        <ele>20.0</ele>
        <time>2018-06-10T07:27:25Z</time>
      </trkpt>
      <trkpt lat="42.306218" lon="3.000143">
        <ele>20.0</ele>
        <time>2018-06-10T07:27:28Z</time>
      </trkpt>
      <trkpt lat="42.306286" lon="2.999907">
        <ele>20.0</ele>
        <time>2018-06-10T07:27:33Z</time>
      </trkpt>
      <trkpt lat="42.306377" lon="2.999647">
        <ele>20.0</ele>
        <time>2018-06-10T07:27:38Z</time>
      </trkpt>
      <trkpt lat="42.306651" lon="2.998981">
        <ele>20.0</ele>
        <time>2018-06-10T07:27:53Z</time>
      </trkpt>
      <trkpt lat="42.306866" lon="2.998501">
        <ele>19.9</ele>
        <time>2018-06-10T07:28:04Z</time>
      </trkpt>
      <trkpt lat="42.307054" lon="2.998098">
        <ele>19.8</ele>
        <time>2018-06-10T07:28:14Z</time>
      </trkpt>
      <trkpt lat="42.307108" lon="2.997995">
        <ele>20.0</ele>
        <time>2018-06-10T07:28:16Z</time>
      </trkpt>
      <trkpt lat="42.307158" lon="2.997863">
        <ele>20.0</ele>
        <time>2018-06-10T07:28:19Z</time>
      </trkpt>
      <trkpt lat="42.307186" lon="2.997759">
        <ele>20.0</ele>
        <time>2018-06-10T07:28:21Z</time>
      </trkpt>
      <trkpt lat="42.307204" lon="2.997661">
        <ele>20.0</ele>
        <time>2018-06-10T07:28:23Z</time>
      </trkpt>
      <trkpt lat="42.307223" lon="2.997523">
        <ele>20.0</ele>
        <time>2018-06-10T07:28:26Z</time>
      </trkpt>
      <trkpt lat="42.307244" lon="2.997384">
        <ele>20.0</ele>
        <time>2018-06-10T07:28:29Z</time>
      </trkpt>
      <trkpt lat="42.307289" lon="2.997108">
        <ele>20.0</ele>
        <time>2018-06-10T07:28:34Z</time>
      </trkpt>
      <trkpt lat="42.307348" lon="2.996801">
        <ele>19.9</ele>
        <time>2018-06-10T07:28:41Z</time>
      </trkpt>
      <trkpt lat="42.307370" lon="2.996610">
        <ele>20.0</ele>
        <time>2018-06-10T07:28:44Z</time>
      </trkpt>
      <trkpt lat="42.307372" lon="2.996449">
        <ele>20.0</ele>
        <time>2018-06-10T07:28:48Z</time>
      </trkpt>
      <trkpt lat="42.307361" lon="2.996249">
        <ele>20.0</ele>
        <time>2018-06-10T07:28:52Z</time>
      </trkpt>
      <trkpt lat="42.307342" lon="2.996120">
        <ele>20.0</ele>
        <time>2018-06-10T07:28:54Z</time>
      </trkpt>
      <trkpt lat="42.307316" lon="2.996044">
        <ele>19.1</ele>
        <time>2018-06-10T07:28:56Z</time>
      </trkpt>
      <trkpt lat="42.307269" lon="2.995979">
        <ele>19.3</ele>
        <time>2018-06-10T07:28:58Z</time>
      </trkpt>
      <trkpt lat="42.307218" lon="2.995941">
        <ele>19.9</ele>
        <time>2018-06-10T07:28:59Z</time>
      </trkpt>
      <trkpt lat="42.307134" lon="2.995919">
        <ele>19.7</ele>
        <time>2018-06-10T07:29:01Z</time>
      </trkpt>
      <trkpt lat="42.306993" lon="2.995932">
        <ele>20.0</ele>
        <time>2018-06-10T07:29:05Z</time>
      </trkpt>
      <trkpt lat="42.306936" lon="2.995932">
        <ele>19.2</ele>
        <time>2018-06-10T07:29:07Z</time>
      </trkpt>
      <trkpt lat="42.306854" lon="2.995899">
        <ele>19.2</ele>
        <time>2018-06-10T07:29:09Z</time>
      </trkpt>
      <trkpt lat="42.306795" lon="2.995829">
        <ele>19.0</ele>
        <time>2018-06-10T07:29:11Z</time>
      </trkpt>
      <trkpt lat="42.306766" lon="2.995717">
        <ele>19.2</ele>
        <time>2018-06-10T07:29:13Z</time>
      </trkpt>
      <trkpt lat="42.306746" lon="2.995562">
        <ele>20.0</ele>
        <time>2018-06-10T07:29:16Z</time>
      </trkpt>
      <trkpt lat="42.306725" lon="2.995305">
        <ele>19.5</ele>
        <time>2018-06-10T07:29:22Z</time>
      </trkpt>
      <trkpt lat="42.306631" lon="2.993980">
        <ele>19.4</ele>
        <time>2018-06-10T07:29:48Z</time>
      </trkpt>
      <trkpt lat="42.306604" lon="2.993362">
        <ele>19.8</ele>
        <time>2018-06-10T07:30:00Z</time>
      </trkpt>
      <trkpt lat="42.306563" lon="2.991895">
        <ele>19.1</ele>
        <time>2018-06-10T07:30:29Z</time>
      </trkpt>
      <trkpt lat="42.306508" lon="2.990580">
        <ele>20.0</ele>
        <time>2018-06-10T07:30:55Z</time>
      </trkpt>
      <trkpt lat="42.306455" lon="2.989944">
        <ele>20.0</ele>
        <time>2018-06-10T07:31:07Z</time>
      </trkpt>
      <trkpt lat="42.306326" lon="2.988565">
        <ele>20.0</ele>
        <time>2018-06-10T07:31:35Z</time>
      </trkpt>
      <trkpt lat="42.306206" lon="2.987453">
        <ele>20.0</ele>
        <time>2018-06-10T07:31:57Z</time>
      </trkpt>
      <trkpt lat="42.306160" lon="2.986866">
        <ele>20.0</ele>
        <time>2018-06-10T07:32:08Z</time>
      </trkpt>
      <trkpt lat="42.306152" lon="2.986443">
        <ele>20.0</ele>
        <time>2018-06-10T07:32:17Z</time>
      </trkpt>
      <trkpt lat="42.306166" lon="2.985523">
        <ele>20.0</ele>
        <time>2018-06-10T07:32:35Z</time>
      </trkpt>
      <trkpt lat="42.306150" lon="2.984632">
        <ele>20.7</ele>
        <time>2018-06-10T07:32:52Z</time>
      </trkpt>
      <trkpt lat="42.306145" lon="2.984308">
        <ele>20.6</ele>
        <time>2018-06-10T07:32:59Z</time>
      </trkpt>
      <trkpt lat="42.306166" lon="2.983988">
        <ele>21.0</ele>
        <time>2018-06-10T07:33:05Z</time>
      </trkpt>
      <trkpt lat="42.306226" lon="2.983697">
        <ele>21.0</ele>
        <time>2018-06-10T07:33:11Z</time>
      </trkpt>
      <trkpt lat="42.306291" lon="2.983402">
        <ele>21.0</ele>
        <time>2018-06-10T07:33:17Z</time>
      </trkpt>
      <trkpt lat="42.306325" lon="2.983122">
        <ele>21.6</ele>
        <time>2018-06-10T07:33:23Z</time>
      </trkpt>
      <trkpt lat="42.306331" lon="2.982852">
        <ele>21.9</ele>
        <time>2018-06-10T07:33:28Z</time>
      </trkpt>
      <trkpt lat="42.306321" lon="2.982602">
        <ele>21.5</ele>
        <time>2018-06-10T07:33:33Z</time>
      </trkpt>
      <trkpt lat="42.306304" lon="2.982331">
        <ele>22.0</ele>
        <time>2018-06-10T07:33:38Z</time>
      </trkpt>
      <trkpt lat="42.306245" lon="2.981882">
        <ele>21.9</ele>
        <time>2018-06-10T07:33:47Z</time>
      </trkpt>
      <trkpt lat="42.306203" lon="2.981557">
        <ele>21.9</ele>
        <time>2018-06-10T07:33:54Z</time>
      </trkpt>
      <trkpt lat="42.306157" lon="2.981234">
        <ele>21.9</ele>
        <time>2018-06-10T07:34:00Z</time>
      </trkpt>
      <trkpt lat="42.306113" lon="2.980874">
        <ele>21.9</ele>
        <time>2018-06-10T07:34:07Z</time>
      </trkpt>
      <trkpt lat="42.306088" lon="2.980642">
        <ele>22.4</ele>
        <time>2018-06-10T07:34:12Z</time>
      </trkpt>
      <trkpt lat="42.306066" lon="2.980597">
        <ele>21.9</ele>
        <time>2018-06-10T07:34:13Z</time>
      </trkpt>
      <trkpt lat="42.306039" lon="2.980586">
        <ele>21.3</ele>
        <time>2018-06-10T07:34:14Z</time>
      </trkpt>
      <trkpt lat="42.306000" lon="2.980596">
        <ele>21.2</ele>
        <time>2018-06-10T07:34:15Z</time>
      </trkpt>
      <trkpt lat="42.305891" lon="2.980669">
        <ele>21.4</ele>
        <time>2018-06-10T07:34:18Z</time>
      </trkpt>
      <trkpt lat="42.305844" lon="2.980699">
        <ele>21.2</ele>
        <time>2018-06-10T07:34:20Z</time>
      </trkpt>
      <trkpt lat="42.305759" lon="2.980739">
        <ele>21.5</ele>
        <time>2018-06-10T07:34:22Z</time>
      </trkpt>
      <trkpt lat="42.305661" lon="2.980778">
        <ele>21.1</ele>
        <time>2018-06-10T07:34:25Z</time>
      </trkpt>
      <trkpt lat="42.305582" lon="2.980823">
        <ele>21.2</ele>
        <time>2018-06-10T07:34:27Z</time>
      </trkpt>
      <trkpt lat="42.305511" lon="2.980878">
        <ele>21.5</ele>
        <time>2018-06-10T07:34:29Z</time>
      </trkpt>
      <trkpt lat="42.305442" lon="2.980958">
        <ele>21.1</ele>
        <time>2018-06-10T07:34:32Z</time>
      </trkpt>
      <trkpt lat="42.305301" lon="2.981132">
        <ele>21.9</ele>
        <time>2018-06-10T07:34:37Z</time>
      </trkpt>
      <trkpt lat="42.305139" lon="2.981358">
        <ele>21.2</ele>
        <time>2018-06-10T07:34:43Z</time>
      </trkpt>
      <trkpt lat="42.305022" lon="2.981554">
        <ele>21.7</ele>
        <time>2018-06-10T07:34:48Z</time>
      </trkpt>
      <trkpt lat="42.304935" lon="2.981726">
        <ele>21.6</ele>
        <time>2018-06-10T07:34:52Z</time>
      </trkpt>
      <trkpt lat="42.304876" lon="2.981807">
        <ele>21.5</ele>
        <time>2018-06-10T07:34:54Z</time>
      </trkpt>
      <trkpt lat="42.304756" lon="2.981925">
        <ele>21.0</ele>
        <time>2018-06-10T07:34:58Z</time>
      </trkpt>
      <trkpt lat="42.304651" lon="2.982026">
        <ele>21.3</ele>
        <time>2018-06-10T07:35:02Z</time>
      </trkpt>
      <trkpt lat="42.304460" lon="2.982195">
        <ele>21.5</ele>
        <time>2018-06-10T07:35:08Z</time>
      </trkpt>
      <trkpt lat="42.304353" lon="2.982246">
        <ele>21.3</ele>
        <time>2018-06-10T07:35:11Z</time>
      </trkpt>
      <trkpt lat="42.304240" lon="2.982289">
        <ele>21.4</ele>
        <time>2018-06-10T07:35:14Z</time>
      </trkpt>
      <trkpt lat="42.303937" lon="2.982383">
        <ele>21.6</ele>
        <time>2018-06-10T07:35:22Z</time>
      </trkpt>
      <trkpt lat="42.303680" lon="2.982444">
        <ele>21.6</ele>
        <time>2018-06-10T07:35:29Z</time>
      </trkpt>
      <trkpt lat="42.303602" lon="2.982444">
        <ele>21.6</ele>
        <time>2018-06-10T07:35:31Z</time>
      </trkpt>
      <trkpt lat="42.303523" lon="2.982432">
        <ele>21.8</ele>
        <time>2018-06-10T07:35:33Z</time>
      </trkpt>
      <trkpt lat="42.303477" lon="2.982404">
        <ele>21.9</ele>
        <time>2018-06-10T07:35:35Z</time>
      </trkpt>
      <trkpt lat="42.303318" lon="2.982267">
        <ele>22.0</ele>
        <time>2018-06-10T07:35:40Z</time>
      </trkpt>
      <trkpt lat="42.302881" lon="2.981892">
        <ele>22.0</ele>
        <time>2018-06-10T07:35:53Z</time>
      </trkpt>
      <trkpt lat="42.302714" lon="2.981760">
        <ele>22.0</ele>
        <time>2018-06-10T07:35:58Z</time>
      </trkpt>
      <trkpt lat="42.302643" lon="2.981724">
        <ele>22.0</ele>
        <time>2018-06-10T07:36:01Z</time>
      </trkpt>
      <trkpt lat="42.302589" lon="2.981708">
        <ele>22.0</ele>
        <time>2018-06-10T07:36:02Z</time>
      </trkpt>
      <trkpt lat="42.302533" lon="2.981710">
        <ele>22.0</ele>
        <time>2018-06-10T07:36:03Z</time>
      </trkpt>
      <trkpt lat="42.302468" lon="2.981749">
        <ele>23.0</ele>
        <time>2018-06-10T07:36:05Z</time>
      </trkpt>
      <trkpt lat="42.302396" lon="2.981834">
        <ele>23.0</ele>
        <time>2018-06-10T07:36:08Z</time>
      </trkpt>
      <trkpt lat="42.302179" lon="2.982156">
        <ele>23.0</ele>
        <time>2018-06-10T07:36:16Z</time>
      </trkpt>
      <trkpt lat="42.302035" lon="2.982361">
        <ele>23.0</ele>
        <time>2018-06-10T07:36:22Z</time>
      </trkpt>
      <trkpt lat="42.301936" lon="2.982487">
        <ele>22.0</ele>
        <time>2018-06-10T07:36:26Z</time>
      </trkpt>
      <trkpt lat="42.301837" lon="2.982592">
        <ele>22.0</ele>
        <time>2018-06-10T07:36:29Z</time>
      </trkpt>
      <trkpt lat="42.301756" lon="2.982637">
        <ele>22.0</ele>
        <time>2018-06-10T07:36:31Z</time>
      </trkpt>
      <trkpt lat="42.301654" lon="2.982658">
        <ele>22.0</ele>
        <time>2018-06-10T07:36:34Z</time>
      </trkpt>
      <trkpt lat="42.300797" lon="2.982650">
        <ele>24.0</ele>
        <time>2018-06-10T07:36:57Z</time>
      </trkpt>
      <trkpt lat="42.299899" lon="2.982621">
        <ele>23.0</ele>
        <time>2018-06-10T07:37:21Z</time>
      </trkpt>
      <trkpt lat="42.299724" lon="2.982597">
        <ele>23.0</ele>
        <time>2018-06-10T07:37:26Z</time>
      </trkpt>
      <trkpt lat="42.299642" lon="2.982516">
        <ele>23.0</ele>
        <time>2018-06-10T07:37:28Z</time>
      </trkpt>
      <trkpt lat="42.299569" lon="2.982346">
        <ele>23.0</ele>
        <time>2018-06-10T07:37:32Z</time>
      </trkpt>
      <trkpt lat="42.299541" lon="2.982154">
        <ele>24.0</ele>
        <time>2018-06-10T07:37:36Z</time>
      </trkpt>
      <trkpt lat="42.299551" lon="2.981828">
        <ele>24.0</ele>
        <time>2018-06-10T07:37:42Z</time>
      </trkpt>
      <trkpt lat="42.299575" lon="2.981153">
        <ele>23.0</ele>
        <time>2018-06-10T07:37:56Z</time>
      </trkpt>
      <trkpt lat="42.299637" lon="2.978794">
        <ele>25.0</ele>
        <time>2018-06-10T07:38:42Z</time>
      </trkpt>
      <trkpt lat="42.299652" lon="2.978432">
        <ele>25.0</ele>
        <time>2018-06-10T07:38:49Z</time>
      </trkpt>
      <trkpt lat="42.299639" lon="2.978413">
        <ele>25.0</ele>
        <time>2018-06-10T07:38:50Z</time>
      </trkpt>
      <trkpt lat="42.299620" lon="2.978408">
        <ele>25.0</ele>
        <time>2018-06-10T07:38:50Z</time>
      </trkpt>
      <trkpt lat="42.299471" lon="2.978475">
        <ele>25.0</ele>
        <time>2018-06-10T07:38:54Z</time>
      </trkpt>
      <trkpt lat="42.299451" lon="2.978461">
        <ele>25.0</ele>
        <time>2018-06-10T07:38:55Z</time>
      </trkpt>
      <trkpt lat="42.299444" lon="2.978432">
        <ele>24.8</ele>
        <time>2018-06-10T07:38:56Z</time>
      </trkpt>
      <trkpt lat="42.299543" lon="2.977735">
        <ele>24.1</ele>
        <time>2018-06-10T07:39:10Z</time>
      </trkpt>
      <trkpt lat="42.299597" lon="2.977638">
        <ele>26.7</ele>
        <time>2018-06-10T07:39:12Z</time>
      </trkpt>
      <trkpt lat="42.299656" lon="2.977577">
        <ele>26.8</ele>
        <time>2018-06-10T07:39:14Z</time>
      </trkpt>
      <trkpt lat="42.299665" lon="2.977446">
        <ele>27.9</ele>
        <time>2018-06-10T07:39:17Z</time>
      </trkpt>
      <trkpt lat="42.299706" lon="2.977235">
        <ele>26.0</ele>
        <time>2018-06-10T07:39:21Z</time>
      </trkpt>
      <trkpt lat="42.299771" lon="2.976921">
        <ele>26.0</ele>
        <time>2018-06-10T07:39:27Z</time>
      </trkpt>
      <trkpt lat="42.299842" lon="2.976610">
        <ele>26.0</ele>
        <time>2018-06-10T07:39:34Z</time>
      </trkpt>
      <trkpt lat="42.299891" lon="2.976312">
        <ele>25.9</ele>
        <time>2018-06-10T07:39:40Z</time>
      </trkpt>
      <trkpt lat="42.299949" lon="2.976118">
        <ele>25.0</ele>
        <time>2018-06-10T07:39:44Z</time>
      </trkpt>
      <trkpt lat="42.300020" lon="2.975963">
        <ele>25.0</ele>
        <time>2018-06-10T07:39:48Z</time>
      </trkpt>
      <trkpt lat="42.300108" lon="2.975791">
        <ele>25.0</ele>
        <time>2018-06-10T07:39:52Z</time>
      </trkpt>
      <trkpt lat="42.300171" lon="2.975626">
        <ele>25.0</ele>
        <time>2018-06-10T07:39:55Z</time>
      </trkpt>
      <trkpt lat="42.300237" lon="2.975406">
        <ele>25.5</ele>
        <time>2018-06-10T07:40:00Z</time>
      </trkpt>
      <trkpt lat="42.300295" lon="2.975235">
        <ele>25.0</ele>
        <time>2018-06-10T07:40:04Z</time>
      </trkpt>
      <trkpt lat="42.300387" lon="2.975020">
        <ele>25.0</ele>
        <time>2018-06-10T07:40:09Z</time>
      </trkpt>
      <trkpt lat="42.300503" lon="2.974705">
        <ele>25.0</ele>
        <time>2018-06-10T07:40:16Z</time>
      </trkpt>
      <trkpt lat="42.300601" lon="2.974499">
        <ele>25.0</ele>
        <time>2018-06-10T07:40:20Z</time>
      </trkpt>
      <trkpt lat="42.300743" lon="2.974259">
        <ele>24.9</ele>
        <time>2018-06-10T07:40:26Z</time>
      </trkpt>
      <trkpt lat="42.300834" lon="2.974137">
        <ele>24.9</ele>
        <time>2018-06-10T07:40:30Z</time>
      </trkpt>
      <trkpt lat="42.300971" lon="2.974000">
        <ele>25.0</ele>
        <time>2018-06-10T07:40:34Z</time>
      </trkpt>
      <trkpt lat="42.301105" lon="2.973797">
        <ele>25.8</ele>
        <time>2018-06-10T07:40:40Z</time>
      </trkpt>
      <trkpt lat="42.301241" lon="2.973592">
        <ele>25.7</ele>
        <time>2018-06-10T07:40:45Z</time>
      </trkpt>
      <trkpt lat="42.301404" lon="2.973385">
        <ele>25.5</ele>
        <time>2018-06-10T07:40:51Z</time>
      </trkpt>
      <trkpt lat="42.301524" lon="2.973218">
        <ele>25.5</ele>
        <time>2018-06-10T07:40:56Z</time>
      </trkpt>
      <trkpt lat="42.301656" lon="2.973072">
        <ele>26.1</ele>
        <time>2018-06-10T07:41:00Z</time>
      </trkpt>
      <trkpt lat="42.301704" lon="2.973020">
        <ele>26.3</ele>
        <time>2018-06-10T07:41:02Z</time>
      </trkpt>
      <trkpt lat="42.301788" lon="2.972921">
        <ele>26.5</ele>
        <time>2018-06-10T07:41:05Z</time>
      </trkpt>
      <trkpt lat="42.301853" lon="2.972838">
        <ele>26.5</ele>
        <time>2018-06-10T07:41:07Z</time>
      </trkpt>
      <trkpt lat="42.302110" lon="2.972504">
        <ele>26.8</ele>
        <time>2018-06-10T07:41:17Z</time>
      </trkpt>
      <trkpt lat="42.302281" lon="2.972265">
        <ele>26.9</ele>
        <time>2018-06-10T07:41:23Z</time>
      </trkpt>
      <trkpt lat="42.302411" lon="2.972054">
        <ele>27.1</ele>
        <time>2018-06-10T07:41:29Z</time>
      </trkpt>
      <trkpt lat="42.302575" lon="2.971753">
        <ele>26.8</ele>
        <time>2018-06-10T07:41:36Z</time>
      </trkpt>
      <trkpt lat="42.302751" lon="2.971408">
        <ele>27.1</ele>
        <time>2018-06-10T07:41:44Z</time>
      </trkpt>
      <trkpt lat="42.302878" lon="2.971110">
        <ele>27.1</ele>
        <time>2018-06-10T07:41:51Z</time>
      </trkpt>
      <trkpt lat="42.302971" lon="2.970861">
        <ele>27.2</ele>
        <time>2018-06-10T07:41:57Z</time>
      </trkpt>
      <trkpt lat="42.303040" lon="2.970596">
        <ele>26.7</ele>
        <time>2018-06-10T07:42:02Z</time>
      </trkpt>
      <trkpt lat="42.303098" lon="2.970264">
        <ele>27.0</ele>
        <time>2018-06-10T07:42:09Z</time>
      </trkpt>
      <trkpt lat="42.303120" lon="2.969950">
        <ele>27.2</ele>
        <time>2018-06-10T07:42:15Z</time>
      </trkpt>
      <trkpt lat="42.303125" lon="2.969560">
        <ele>27.6</ele>
        <time>2018-06-10T07:42:23Z</time>
      </trkpt>
      <trkpt lat="42.303110" lon="2.969326">
        <ele>28.8</ele>
        <time>2018-06-10T07:42:27Z</time>
      </trkpt>
      <trkpt lat="42.303069" lon="2.969086">
        <ele>28.8</ele>
        <time>2018-06-10T07:42:32Z</time>
      </trkpt>
      <trkpt lat="42.302952" lon="2.968614">
        <ele>28.0</ele>
        <time>2018-06-10T07:42:42Z</time>
      </trkpt>
      <trkpt lat="42.302881" lon="2.968352">
        <ele>28.0</ele>
        <time>2018-06-10T07:42:47Z</time>
      </trkpt>
      <trkpt lat="42.302766" lon="2.968101">
        <ele>28.0</ele>
        <time>2018-06-10T07:42:53Z</time>
      </trkpt>
      <trkpt lat="42.302670" lon="2.967924">
        <ele>27.9</ele>
        <time>2018-06-10T07:42:58Z</time>
      </trkpt>
      <trkpt lat="42.302418" lon="2.967594">
        <ele>27.0</ele>
        <time>2018-06-10T07:43:07Z</time>
      </trkpt>
      <trkpt lat="42.302154" lon="2.967272">
        <ele>27.0</ele>
        <time>2018-06-10T07:43:16Z</time>
      </trkpt>
      <trkpt lat="42.301797" lon="2.966778">
        <ele>28.0</ele>
        <time>2018-06-10T07:43:30Z</time>
      </trkpt>
      <trkpt lat="42.301541" lon="2.966433">
        <ele>28.0</ele>
        <time>2018-06-10T07:43:40Z</time>
      </trkpt>
      <trkpt lat="42.301340" lon="2.966139">
        <ele>28.0</ele>
        <time>2018-06-10T07:43:47Z</time>
      </trkpt>
      <trkpt lat="42.301149" lon="2.965822">
        <ele>28.0</ele>
        <time>2018-06-10T07:43:56Z</time>
      </trkpt>
      <trkpt lat="42.301045" lon="2.965616">
        <ele>28.0</ele>
        <time>2018-06-10T07:44:00Z</time>
      </trkpt>
      <trkpt lat="42.300869" lon="2.965201">
        <ele>28.0</ele>
        <time>2018-06-10T07:44:10Z</time>
      </trkpt>
      <trkpt lat="42.300768" lon="2.964914">
        <ele>29.0</ele>
        <time>2018-06-10T07:44:16Z</time>
      </trkpt>
      <trkpt lat="42.300690" lon="2.964597">
        <ele>29.0</ele>
        <time>2018-06-10T07:44:23Z</time>
      </trkpt>
      <trkpt lat="42.300658" lon="2.964351">
        <ele>28.9</ele>
        <time>2018-06-10T07:44:28Z</time>
      </trkpt>
      <trkpt lat="42.300662" lon="2.964184">
        <ele>29.0</ele>
        <time>2018-06-10T07:44:31Z</time>
      </trkpt>
      <trkpt lat="42.300705" lon="2.963970">
        <ele>28.9</ele>
        <time>2018-06-10T07:44:35Z</time>
      </trkpt>
      <trkpt lat="42.300779" lon="2.963790">
        <ele>28.6</ele>
        <time>2018-06-10T07:44:39Z</time>
      </trkpt>
      <trkpt lat="42.300902" lon="2.963585">
        <ele>28.2</ele>
        <time>2018-06-10T07:44:44Z</time>
      </trkpt>
      <trkpt lat="42.301150" lon="2.963238">
        <ele>28.0</ele>
        <time>2018-06-10T07:44:54Z</time>
      </trkpt>
      <trkpt lat="42.301563" lon="2.962723">
        <ele>29.0</ele>
        <time>2018-06-10T07:45:09Z</time>
      </trkpt>
      <trkpt lat="42.301713" lon="2.962415">
        <ele>28.6</ele>
        <time>2018-06-10T07:45:16Z</time>
      </trkpt>
      <trkpt lat="42.302084" lon="2.961716">
        <ele>29.6</ele>
        <time>2018-06-10T07:45:33Z</time>
      </trkpt>
      <trkpt lat="42.302174" lon="2.961516">
        <ele>29.8</ele>
        <time>2018-06-10T07:45:38Z</time>
      </trkpt>
      <trkpt lat="42.302218" lon="2.961416">
        <ele>29.6</ele>
        <time>2018-06-10T07:45:40Z</time>
      </trkpt>
      <trkpt lat="42.302297" lon="2.961321">
        <ele>30.0</ele>
        <time>2018-06-10T07:45:43Z</time>
      </trkpt>
      <trkpt lat="42.302413" lon="2.961248">
        <ele>30.0</ele>
        <time>2018-06-10T07:45:46Z</time>
      </trkpt>
      <trkpt lat="42.302504" lon="2.961191">
        <ele>29.1</ele>
        <time>2018-06-10T07:45:49Z</time>
      </trkpt>
      <trkpt lat="42.302602" lon="2.961070">
        <ele>28.7</ele>
        <time>2018-06-10T07:45:52Z</time>
      </trkpt>
      <trkpt lat="42.302710" lon="2.960897">
        <ele>28.0</ele>
        <time>2018-06-10T07:45:57Z</time>
      </trkpt>
      <trkpt lat="42.302849" lon="2.960639">
        <ele>28.0</ele>
        <time>2018-06-10T07:46:03Z</time>
      </trkpt>
      <trkpt lat="42.302907" lon="2.960498">
        <ele>28.0</ele>
        <time>2018-06-10T07:46:06Z</time>
      </trkpt>
      <trkpt lat="42.302939" lon="2.960396">
        <ele>28.0</ele>
        <time>2018-06-10T07:46:09Z</time>
      </trkpt>
      <trkpt lat="42.302954" lon="2.960284">
        <ele>28.0</ele>
        <time>2018-06-10T07:46:11Z</time>
      </trkpt>
      <trkpt lat="42.302961" lon="2.960046">
        <ele>28.0</ele>
        <time>2018-06-10T07:46:16Z</time>
      </trkpt>
      <trkpt lat="42.303010" lon="2.958413">
        <ele>29.8</ele>
        <time>2018-06-10T07:46:48Z</time>
      </trkpt>
      <trkpt lat="42.303040" lon="2.957801">
        <ele>30.0</ele>
        <time>2018-06-10T07:47:00Z</time>
      </trkpt>
      <trkpt lat="42.303049" lon="2.957610">
        <ele>30.0</ele>
        <time>2018-06-10T07:47:04Z</time>
      </trkpt>
      <trkpt lat="42.303047" lon="2.957548">
        <ele>30.0</ele>
        <time>2018-06-10T07:47:05Z</time>
      </trkpt>
      <trkpt lat="42.303035" lon="2.957504">
        <ele>30.0</ele>
        <time>2018-06-10T07:47:06Z</time>
      </trkpt>
      <trkpt lat="42.302991" lon="2.957464">
        <ele>30.0</ele>
        <time>2018-06-10T07:47:07Z</time>
      </trkpt>
      <trkpt lat="42.302869" lon="2.957344">
        <ele>31.0</ele>
        <time>2018-06-10T07:47:11Z</time>
      </trkpt>
      <trkpt lat="42.302818" lon="2.957289">
        <ele>30.0</ele>
        <time>2018-06-10T07:47:13Z</time>
      </trkpt>
      <trkpt lat="42.302788" lon="2.957206">
        <ele>29.2</ele>
        <time>2018-06-10T07:47:15Z</time>
      </trkpt>
      <trkpt lat="42.302776" lon="2.957130">
        <ele>29.0</ele>
        <time>2018-06-10T07:47:16Z</time>
      </trkpt>
      <trkpt lat="42.302784" lon="2.956972">
        <ele>29.1</ele>
        <time>2018-06-10T07:47:19Z</time>
      </trkpt>
      <trkpt lat="42.302841" lon="2.956540">
        <ele>29.4</ele>
        <time>2018-06-10T07:47:28Z</time>
      </trkpt>
      <trkpt lat="42.302872" lon="2.956315">
        <ele>30.0</ele>
        <time>2018-06-10T07:47:32Z</time>
      </trkpt>
      <trkpt lat="42.302917" lon="2.956013">
        <ele>30.0</ele>
        <time>2018-06-10T07:47:39Z</time>
      </trkpt>
      <trkpt lat="42.302937" lon="2.955861">
        <ele>30.6</ele>
        <time>2018-06-10T07:47:42Z</time>
      </trkpt>
      <trkpt lat="42.302948" lon="2.955652">
        <ele>30.0</ele>
        <time>2018-06-10T07:47:46Z</time>
      </trkpt>
      <trkpt lat="42.302960" lon="2.955494">
        <ele>30.2</ele>
        <time>2018-06-10T07:47:49Z</time>
      </trkpt>
      <trkpt lat="42.302998" lon="2.955229">
        <ele>30.0</ele>
        <time>2018-06-10T07:47:54Z</time>
      </trkpt>
      <trkpt lat="42.303043" lon="2.954913">
        <ele>30.9</ele>
        <time>2018-06-10T07:48:00Z</time>
      </trkpt>
      <trkpt lat="42.303055" lon="2.954760">
        <ele>31.2</ele>
        <time>2018-06-10T07:48:04Z</time>
      </trkpt>
      <trkpt lat="42.303085" lon="2.954577">
        <ele>30.9</ele>
        <time>2018-06-10T07:48:07Z</time>
      </trkpt>
      <trkpt lat="42.303100" lon="2.954475">
        <ele>31.0</ele>
        <time>2018-06-10T07:48:09Z</time>
      </trkpt>
      <trkpt lat="42.303101" lon="2.954342">
        <ele>31.0</ele>
        <time>2018-06-10T07:48:12Z</time>
      </trkpt>
      <trkpt lat="42.303093" lon="2.954142">
        <ele>30.1</ele>
        <time>2018-06-10T07:48:16Z</time>
      </trkpt>
      <trkpt lat="42.303056" lon="2.953799">
        <ele>30.0</ele>
        <time>2018-06-10T07:48:23Z</time>
      </trkpt>
      <trkpt lat="42.302942" lon="2.952982">
        <ele>29.7</ele>
        <time>2018-06-10T07:48:39Z</time>
      </trkpt>
      <trkpt lat="42.302890" lon="2.952614">
        <ele>29.0</ele>
        <time>2018-06-10T07:48:46Z</time>
      </trkpt>
      <trkpt lat="42.302896" lon="2.952556">
        <ele>29.0</ele>
        <time>2018-06-10T07:48:48Z</time>
      </trkpt>
      <trkpt lat="42.302925" lon="2.952469">
        <ele>29.4</ele>
        <time>2018-06-10T07:48:49Z</time>
      </trkpt>
      <trkpt lat="42.303007" lon="2.952318">
        <ele>30.0</ele>
        <time>2018-06-10T07:48:53Z</time>
      </trkpt>
      <trkpt lat="42.303277" lon="2.951836">
        <ele>31.2</ele>
        <time>2018-06-10T07:49:05Z</time>
      </trkpt>
      <trkpt lat="42.303570" lon="2.951332">
        <ele>32.6</ele>
        <time>2018-06-10T07:49:18Z</time>
      </trkpt>
      <trkpt lat="42.303749" lon="2.950997">
        <ele>32.8</ele>
        <time>2018-06-10T07:49:26Z</time>
      </trkpt>
      <trkpt lat="42.303910" lon="2.950728">
        <ele>32.8</ele>
        <time>2018-06-10T07:49:33Z</time>
      </trkpt>
      <trkpt lat="42.303959" lon="2.950679">
        <ele>32.3</ele>
        <time>2018-06-10T07:49:34Z</time>
      </trkpt>
      <trkpt lat="42.304039" lon="2.950647">
        <ele>32.4</ele>
        <time>2018-06-10T07:49:36Z</time>
      </trkpt>
      <trkpt lat="42.304127" lon="2.950649">
        <ele>32.5</ele>
        <time>2018-06-10T07:49:39Z</time>
      </trkpt>
      <trkpt lat="42.304765" lon="2.950834">
        <ele>32.0</ele>
        <time>2018-06-10T07:49:56Z</time>
      </trkpt>
      <trkpt lat="42.304849" lon="2.950841">
        <ele>32.0</ele>
        <time>2018-06-10T07:49:58Z</time>
      </trkpt>
      <trkpt lat="42.304968" lon="2.950835">
        <ele>32.0</ele>
        <time>2018-06-10T07:50:02Z</time>
      </trkpt>
      <trkpt lat="42.305834" lon="2.950635">
        <ele>33.0</ele>
        <time>2018-06-10T07:50:25Z</time>
      </trkpt>
      <trkpt lat="42.305875" lon="2.950613">
        <ele>32.2</ele>
        <time>2018-06-10T07:50:26Z</time>
      </trkpt>
      <trkpt lat="42.305910" lon="2.950578">
        <ele>33.3</ele>
        <time>2018-06-10T07:50:27Z</time>
      </trkpt>
      <trkpt lat="42.305931" lon="2.950521">
        <ele>34.0</ele>
        <time>2018-06-10T07:50:29Z</time>
      </trkpt>
      <trkpt lat="42.305935" lon="2.950431">
        <ele>34.0</ele>
        <time>2018-06-10T07:50:30Z</time>
      </trkpt>
      <trkpt lat="42.305913" lon="2.949652">
        <ele>33.7</ele>
        <time>2018-06-10T07:50:46Z</time>
      </trkpt>
      <trkpt lat="42.305920" lon="2.949543">
        <ele>33.7</ele>
        <time>2018-06-10T07:50:48Z</time>
      </trkpt>
      <trkpt lat="42.305935" lon="2.949406">
        <ele>33.2</ele>
        <time>2018-06-10T07:50:51Z</time>
      </trkpt>
      <trkpt lat="42.305956" lon="2.949286">
        <ele>33.3</ele>
        <time>2018-06-10T07:50:53Z</time>
      </trkpt>
      <trkpt lat="42.306038" lon="2.948837">
        <ele>33.3</ele>
        <time>2018-06-10T07:51:02Z</time>
      </trkpt>
      <trkpt lat="42.306103" lon="2.948416">
        <ele>33.9</ele>
        <time>2018-06-10T07:51:11Z</time>
      </trkpt>
      <trkpt lat="42.306115" lon="2.948313">
        <ele>34.2</ele>
        <time>2018-06-10T07:51:13Z</time>
      </trkpt>
      <trkpt lat="42.306117" lon="2.948088">
        <ele>34.2</ele>
        <time>2018-06-10T07:51:17Z</time>
      </trkpt>
      <trkpt lat="42.306086" lon="2.947744">
        <ele>34.6</ele>
        <time>2018-06-10T07:51:24Z</time>
      </trkpt>
      <trkpt lat="42.306045" lon="2.947279">
        <ele>35.0</ele>
        <time>2018-06-10T07:51:33Z</time>
      </trkpt>
      <trkpt lat="42.305993" lon="2.946783">
        <ele>35.5</ele>
        <time>2018-06-10T07:51:43Z</time>
      </trkpt>
      <trkpt lat="42.305979" lon="2.946643">
        <ele>36.0</ele>
        <time>2018-06-10T07:51:46Z</time>
      </trkpt>
      <trkpt lat="42.305949" lon="2.946528">
        <ele>35.8</ele>
        <time>2018-06-10T07:51:48Z</time>
      </trkpt>
      <trkpt lat="42.305920" lon="2.946442">
        <ele>35.7</ele>
        <time>2018-06-10T07:51:50Z</time>
      </trkpt>
      <trkpt lat="42.305883" lon="2.946373">
        <ele>35.0</ele>
        <time>2018-06-10T07:51:52Z</time>
      </trkpt>
      <trkpt lat="42.305820" lon="2.946325">
        <ele>35.0</ele>
        <time>2018-06-10T07:51:54Z</time>
      </trkpt>
      <trkpt lat="42.305748" lon="2.946298">
        <ele>35.0</ele>
        <time>2018-06-10T07:51:56Z</time>
      </trkpt>
      <trkpt lat="42.305518" lon="2.946263">
        <ele>34.0</ele>
        <time>2018-06-10T07:52:02Z</time>
      </trkpt>
      <trkpt lat="42.304858" lon="2.946129">
        <ele>34.0</ele>
        <time>2018-06-10T07:52:20Z</time>
      </trkpt>
      <trkpt lat="42.304589" lon="2.946037">
        <ele>34.5</ele>
        <time>2018-06-10T07:52:27Z</time>
      </trkpt>
      <trkpt lat="42.304474" lon="2.945973">
        <ele>34.4</ele>
        <time>2018-06-10T07:52:30Z</time>
      </trkpt>
      <trkpt lat="42.304394" lon="2.945900">
        <ele>34.0</ele>
        <time>2018-06-10T07:52:33Z</time>
      </trkpt>
      <trkpt lat="42.304337" lon="2.945788">
        <ele>34.0</ele>
        <time>2018-06-10T07:52:35Z</time>
      </trkpt>
      <trkpt lat="42.304298" lon="2.945701">
        <ele>33.0</ele>
        <time>2018-06-10T07:52:37Z</time>
      </trkpt>
      <trkpt lat="42.304282" lon="2.945638">
        <ele>33.0</ele>
        <time>2018-06-10T07:52:39Z</time>
      </trkpt>
      <trkpt lat="42.304279" lon="2.945579">
        <ele>33.0</ele>
        <time>2018-06-10T07:52:40Z</time>
      </trkpt>
      <trkpt lat="42.304289" lon="2.945465">
        <ele>33.0</ele>
        <time>2018-06-10T07:52:42Z</time>
      </trkpt>
      <trkpt lat="42.304319" lon="2.945381">
        <ele>33.0</ele>
        <time>2018-06-10T07:52:44Z</time>
      </trkpt>
      <trkpt lat="42.304368" lon="2.945308">
        <ele>33.0</ele>
        <time>2018-06-10T07:52:46Z</time>
      </trkpt>
      <trkpt lat="42.304492" lon="2.945245">
        <ele>33.6</ele>
        <time>2018-06-10T07:52:50Z</time>
      </trkpt>
      <trkpt lat="42.304614" lon="2.945208">
        <ele>33.8</ele>
        <time>2018-06-10T07:52:53Z</time>
      </trkpt>
      <trkpt lat="42.304736" lon="2.945205">
        <ele>33.7</ele>
        <time>2018-06-10T07:52:56Z</time>
      </trkpt>
      <trkpt lat="42.305423" lon="2.945293">
        <ele>35.0</ele>
        <time>2018-06-10T07:53:14Z</time>
      </trkpt>
      <trkpt lat="42.305585" lon="2.945301">
        <ele>35.0</ele>
        <time>2018-06-10T07:53:19Z</time>
      </trkpt>
      <trkpt lat="42.305722" lon="2.945276">
        <ele>34.5</ele>
        <time>2018-06-10T07:53:22Z</time>
      </trkpt>
      <trkpt lat="42.305869" lon="2.945271">
        <ele>35.0</ele>
        <time>2018-06-10T07:53:26Z</time>
      </trkpt>
      <trkpt lat="42.305874" lon="2.945271">
        <ele>35.0</ele>
        <time>2018-06-10T07:53:27Z</time>
      </trkpt>
      <trkpt lat="42.306010" lon="2.945293">
        <ele>35.0</ele>
        <time>2018-06-10T07:53:30Z</time>
      </trkpt>
      <trkpt lat="42.306171" lon="2.945305">
        <ele>35.0</ele>
        <time>2018-06-10T07:53:34Z</time>
      </trkpt>
      <trkpt lat="42.306392" lon="2.945318">
        <ele>35.0</ele>
        <time>2018-06-10T07:53:40Z</time>
      </trkpt>
      <trkpt lat="42.306825" lon="2.945323">
        <ele>34.7</ele>
        <time>2018-06-10T07:53:52Z</time>
      </trkpt>
      <trkpt lat="42.307037" lon="2.945307">
        <ele>34.8</ele>
        <time>2018-06-10T07:53:58Z</time>
      </trkpt>
      <trkpt lat="42.307265" lon="2.945272">
        <ele>35.0</ele>
        <time>2018-06-10T07:54:04Z</time>
      </trkpt>
      <trkpt lat="42.307424" lon="2.945256">
        <ele>35.0</ele>
        <time>2018-06-10T07:54:08Z</time>
      </trkpt>
      <trkpt lat="42.307561" lon="2.945264">
        <ele>35.8</ele>
        <time>2018-06-10T07:54:12Z</time>
      </trkpt>
      <trkpt lat="42.307734" lon="2.945291">
        <ele>35.2</ele>
        <time>2018-06-10T07:54:16Z</time>
      </trkpt>
      <trkpt lat="42.308037" lon="2.945318">
        <ele>35.3</ele>
        <time>2018-06-10T07:54:24Z</time>
      </trkpt>
      <trkpt lat="42.308194" lon="2.945323">
        <ele>35.7</ele>
        <time>2018-06-10T07:54:28Z</time>
      </trkpt>
      <trkpt lat="42.308318" lon="2.945315">
        <ele>35.6</ele>
        <time>2018-06-10T07:54:32Z</time>
      </trkpt>
      <trkpt lat="42.308461" lon="2.945284">
        <ele>35.1</ele>
        <time>2018-06-10T07:54:36Z</time>
      </trkpt>
      <trkpt lat="42.308619" lon="2.945201">
        <ele>35.6</ele>
        <time>2018-06-10T07:54:40Z</time>
      </trkpt>
      <trkpt lat="42.308821" lon="2.945047">
        <ele>35.5</ele>
        <time>2018-06-10T07:54:46Z</time>
      </trkpt>
      <trkpt lat="42.308957" lon="2.944922">
        <ele>35.4</ele>
        <time>2018-06-10T07:54:51Z</time>
      </trkpt>
      <trkpt lat="42.309123" lon="2.944760">
        <ele>35.5</ele>
        <time>2018-06-10T07:54:56Z</time>
      </trkpt>
      <trkpt lat="42.309324" lon="2.944628">
        <ele>36.0</ele>
        <time>2018-06-10T07:55:02Z</time>
      </trkpt>
      <trkpt lat="42.309485" lon="2.944528">
        <ele>35.3</ele>
        <time>2018-06-10T07:55:07Z</time>
      </trkpt>
      <trkpt lat="42.309632" lon="2.944416">
        <ele>35.2</ele>
        <time>2018-06-10T07:55:11Z</time>
      </trkpt>
      <trkpt lat="42.309856" lon="2.944218">
        <ele>35.9</ele>
        <time>2018-06-10T07:55:18Z</time>
      </trkpt>
      <trkpt lat="42.309962" lon="2.944098">
        <ele>36.3</ele>
        <time>2018-06-10T07:55:22Z</time>
      </trkpt>
      <trkpt lat="42.310084" lon="2.943915">
        <ele>36.7</ele>
        <time>2018-06-10T07:55:27Z</time>
      </trkpt>
      <trkpt lat="42.310174" lon="2.943765">
        <ele>37.0</ele>
        <time>2018-06-10T07:55:31Z</time>
      </trkpt>
      <trkpt lat="42.310323" lon="2.943474">
        <ele>37.0</ele>
        <time>2018-06-10T07:55:38Z</time>
      </trkpt>
      <trkpt lat="42.310412" lon="2.943298">
        <ele>37.0</ele>
        <time>2018-06-10T07:55:42Z</time>
      </trkpt>
      <trkpt lat="42.310496" lon="2.943100">
        <ele>37.5</ele>
        <time>2018-06-10T07:55:46Z</time>
      </trkpt>
      <trkpt lat="42.310582" lon="2.942784">
        <ele>37.5</ele>
        <time>2018-06-10T07:55:53Z</time>
      </trkpt>
      <trkpt lat="42.310660" lon="2.942333">
        <ele>38.0</ele>
        <time>2018-06-10T07:56:02Z</time>
      </trkpt>
      <trkpt lat="42.310769" lon="2.941621">
        <ele>38.0</ele>
        <time>2018-06-10T07:56:16Z</time>
      </trkpt>
      <trkpt lat="42.310790" lon="2.941398">
        <ele>38.0</ele>
        <time>2018-06-10T07:56:21Z</time>
      </trkpt>
      <trkpt lat="42.310819" lon="2.941039">
        <ele>37.5</ele>
        <time>2018-06-10T07:56:28Z</time>
      </trkpt>
      <trkpt lat="42.310830" lon="2.940860">
        <ele>38.0</ele>
        <time>2018-06-10T07:56:31Z</time>
      </trkpt>
      <trkpt lat="42.310837" lon="2.940773">
        <ele>37.1</ele>
        <time>2018-06-10T07:56:33Z</time>
      </trkpt>
      <trkpt lat="42.310854" lon="2.940718">
        <ele>37.5</ele>
        <time>2018-06-10T07:56:34Z</time>
      </trkpt>
      <trkpt lat="42.310886" lon="2.940689">
        <ele>37.8</ele>
        <time>2018-06-10T07:56:35Z</time>
      </trkpt>
      <trkpt lat="42.310938" lon="2.940678">
        <ele>37.0</ele>
        <time>2018-06-10T07:56:37Z</time>
      </trkpt>
      <trkpt lat="42.311432" lon="2.940723">
        <ele>38.0</ele>
        <time>2018-06-10T07:56:50Z</time>
      </trkpt>
      <trkpt lat="42.312036" lon="2.940780">
        <ele>38.0</ele>
        <time>2018-06-10T07:57:06Z</time>
      </trkpt>
      <trkpt lat="42.312322" lon="2.940816">
        <ele>37.9</ele>
        <time>2018-06-10T07:57:14Z</time>
      </trkpt>
      <trkpt lat="42.312411" lon="2.940809">
        <ele>37.6</ele>
        <time>2018-06-10T07:57:16Z</time>
      </trkpt>
      <trkpt lat="42.312482" lon="2.940784">
        <ele>38.0</ele>
        <time>2018-06-10T07:57:18Z</time>
      </trkpt>
      <trkpt lat="42.312586" lon="2.940712">
        <ele>38.0</ele>
        <time>2018-06-10T07:57:21Z</time>
      </trkpt>
      <trkpt lat="42.312708" lon="2.940625">
        <ele>37.7</ele>
        <time>2018-06-10T07:57:25Z</time>
      </trkpt>
      <trkpt lat="42.312812" lon="2.940573">
        <ele>37.0</ele>
        <time>2018-06-10T07:57:28Z</time>
      </trkpt>
      <trkpt lat="42.313110" lon="2.940464">
        <ele>35.9</ele>
        <time>2018-06-10T07:57:36Z</time>
      </trkpt>
      <trkpt lat="42.313413" lon="2.940352">
        <ele>36.7</ele>
        <time>2018-06-10T07:57:44Z</time>
      </trkpt>
      <trkpt lat="42.313687" lon="2.940269">
        <ele>36.7</ele>
        <time>2018-06-10T07:57:52Z</time>
      </trkpt>
      <trkpt lat="42.313774" lon="2.940222">
        <ele>37.1</ele>
        <time>2018-06-10T07:57:54Z</time>
      </trkpt>
      <trkpt lat="42.313806" lon="2.940125">
        <ele>36.2</ele>
        <time>2018-06-10T07:57:57Z</time>
      </trkpt>
      <trkpt lat="42.313835" lon="2.939987">
        <ele>35.6</ele>
        <time>2018-06-10T07:57:59Z</time>
      </trkpt>
      <trkpt lat="42.313899" lon="2.939858">
        <ele>35.1</ele>
        <time>2018-06-10T07:58:02Z</time>
      </trkpt>
      <trkpt lat="42.314017" lon="2.939745">
        <ele>35.7</ele>
        <time>2018-06-10T07:58:06Z</time>
      </trkpt>
      <trkpt lat="42.314105" lon="2.939637">
        <ele>35.1</ele>
        <time>2018-06-10T07:58:09Z</time>
      </trkpt>
      <trkpt lat="42.314210" lon="2.939509">
        <ele>35.1</ele>
        <time>2018-06-10T07:58:13Z</time>
      </trkpt>
      <trkpt lat="42.314282" lon="2.939381">
        <ele>35.0</ele>
        <time>2018-06-10T07:58:16Z</time>
      </trkpt>
      <trkpt lat="42.314337" lon="2.939149">
        <ele>35.8</ele>
        <time>2018-06-10T07:58:21Z</time>
      </trkpt>
      <trkpt lat="42.314397" lon="2.938904">
        <ele>36.0</ele>
        <time>2018-06-10T07:58:26Z</time>
      </trkpt>
      <trkpt lat="42.314422" lon="2.938724">
        <ele>35.8</ele>
        <time>2018-06-10T07:58:30Z</time>
      </trkpt>
      <trkpt lat="42.314431" lon="2.938502">
        <ele>36.0</ele>
        <time>2018-06-10T07:58:34Z</time>
      </trkpt>
      <trkpt lat="42.314439" lon="2.938332">
        <ele>36.2</ele>
        <time>2018-06-10T07:58:38Z</time>
      </trkpt>
      <trkpt lat="42.314467" lon="2.938104">
        <ele>36.5</ele>
        <time>2018-06-10T07:58:42Z</time>
      </trkpt>
      <trkpt lat="42.314501" lon="2.937905">
        <ele>36.3</ele>
        <time>2018-06-10T07:58:46Z</time>
      </trkpt>
      <trkpt lat="42.314529" lon="2.937714">
        <ele>36.2</ele>
        <time>2018-06-10T07:58:50Z</time>
      </trkpt>
      <trkpt lat="42.314547" lon="2.937521">
        <ele>36.1</ele>
        <time>2018-06-10T07:58:54Z</time>
      </trkpt>
      <trkpt lat="42.314548" lon="2.937353">
        <ele>36.6</ele>
        <time>2018-06-10T07:58:57Z</time>
      </trkpt>
      <trkpt lat="42.314540" lon="2.937165">
        <ele>36.8</ele>
        <time>2018-06-10T07:59:01Z</time>
      </trkpt>
      <trkpt lat="42.314519" lon="2.936971">
        <ele>37.7</ele>
        <time>2018-06-10T07:59:05Z</time>
      </trkpt>
      <trkpt lat="42.314482" lon="2.936708">
        <ele>37.1</ele>
        <time>2018-06-10T07:59:10Z</time>
      </trkpt>
      <trkpt lat="42.314455" lon="2.936484">
        <ele>36.5</ele>
        <time>2018-06-10T07:59:14Z</time>
      </trkpt>
      <trkpt lat="42.314400" lon="2.936097">
        <ele>36.5</ele>
        <time>2018-06-10T07:59:22Z</time>
      </trkpt>
      <trkpt lat="42.314348" lon="2.935654">
        <ele>36.2</ele>
        <time>2018-06-10T07:59:31Z</time>
      </trkpt>
      <trkpt lat="42.314315" lon="2.935339">
        <ele>37.0</ele>
        <time>2018-06-10T07:59:37Z</time>
      </trkpt>
      <trkpt lat="42.314248" lon="2.934534">
        <ele>37.0</ele>
        <time>2018-06-10T07:59:53Z</time>
      </trkpt>
      <trkpt lat="42.314192" lon="2.933952">
        <ele>36.5</ele>
        <time>2018-06-10T08:00:05Z</time>
      </trkpt>
      <trkpt lat="42.314171" lon="2.933286">
        <ele>37.3</ele>
        <time>2018-06-10T08:00:18Z</time>
      </trkpt>
      <trkpt lat="42.314136" lon="2.932860">
        <ele>38.3</ele>
        <time>2018-06-10T08:00:26Z</time>
      </trkpt>
      <trkpt lat="42.314123" lon="2.932492">
        <ele>39.2</ele>
        <time>2018-06-10T08:00:34Z</time>
      </trkpt>
      <trkpt lat="42.314114" lon="2.932263">
        <ele>39.0</ele>
        <time>2018-06-10T08:00:38Z</time>
      </trkpt>
      <trkpt lat="42.314109" lon="2.932094">
        <ele>37.9</ele>
        <time>2018-06-10T08:00:41Z</time>
      </trkpt>
      <trkpt lat="42.314101" lon="2.931973">
        <ele>37.8</ele>
        <time>2018-06-10T08:00:44Z</time>
      </trkpt>
      <trkpt lat="42.314091" lon="2.931878">
        <ele>38.0</ele>
        <time>2018-06-10T08:00:46Z</time>
      </trkpt>
      <trkpt lat="42.314054" lon="2.931671">
        <ele>38.1</ele>
        <time>2018-06-10T08:00:50Z</time>
      </trkpt>
      <trkpt lat="42.314004" lon="2.931487">
        <ele>38.6</ele>
        <time>2018-06-10T08:00:54Z</time>
      </trkpt>
      <trkpt lat="42.313984" lon="2.931312">
        <ele>39.0</ele>
        <time>2018-06-10T08:00:57Z</time>
      </trkpt>
      <trkpt lat="42.313959" lon="2.931104">
        <ele>38.6</ele>
        <time>2018-06-10T08:01:01Z</time>
      </trkpt>
      <trkpt lat="42.313922" lon="2.930936">
        <ele>39.0</ele>
        <time>2018-06-10T08:01:05Z</time>
      </trkpt>
      <trkpt lat="42.313906" lon="2.930866">
        <ele>39.0</ele>
        <time>2018-06-10T08:01:06Z</time>
      </trkpt>
      <trkpt lat="42.313901" lon="2.930830">
        <ele>39.0</ele>
        <time>2018-06-10T08:01:07Z</time>
      </trkpt>
      <trkpt lat="42.313926" lon="2.930800">
        <ele>39.0</ele>
        <time>2018-06-10T08:01:08Z</time>
      </trkpt>
      <trkpt lat="42.314069" lon="2.930731">
        <ele>40.1</ele>
        <time>2018-06-10T08:01:12Z</time>
      </trkpt>
      <trkpt lat="42.314321" lon="2.930591">
        <ele>45.6</ele>
        <time>2018-06-10T08:01:19Z</time>
      </trkpt>
      <trkpt lat="42.314352" lon="2.930591">
        <ele>46.0</ele>
        <time>2018-06-10T08:01:20Z</time>
      </trkpt>
      <trkpt lat="42.314376" lon="2.930635">
        <ele>46.0</ele>
        <time>2018-06-10T08:01:21Z</time>
      </trkpt>
      <trkpt lat="42.314414" lon="2.930730">
        <ele>46.0</ele>
        <time>2018-06-10T08:01:23Z</time>
      </trkpt>
      <trkpt lat="42.314430" lon="2.930792">
        <ele>46.0</ele>
        <time>2018-06-10T08:01:25Z</time>
      </trkpt>
      <trkpt lat="42.314448" lon="2.930807">
        <ele>46.0</ele>
        <time>2018-06-10T08:01:25Z</time>
      </trkpt>
      <trkpt lat="42.314476" lon="2.930805">
        <ele>46.0</ele>
        <time>2018-06-10T08:01:26Z</time>
      </trkpt>
      <trkpt lat="42.314557" lon="2.930769">
        <ele>47.0</ele>
        <time>2018-06-10T08:01:28Z</time>
      </trkpt>
      <trkpt lat="42.314601" lon="2.930741">
        <ele>47.0</ele>
        <time>2018-06-10T08:01:30Z</time>
      </trkpt>
      <trkpt lat="42.314616" lon="2.930720">
        <ele>47.2</ele>
        <time>2018-06-10T08:01:30Z</time>
      </trkpt>
      <trkpt lat="42.314616" lon="2.930684">
        <ele>47.5</ele>
        <time>2018-06-10T08:01:31Z</time>
      </trkpt>
      <trkpt lat="42.314577" lon="2.930591">
        <ele>47.3</ele>
        <time>2018-06-10T08:01:33Z</time>
      </trkpt>
      <trkpt lat="42.314415" lon="2.930169">
        <ele>47.7</ele>
        <time>2018-06-10T08:01:42Z</time>
      </trkpt>
      <trkpt lat="42.314338" lon="2.929929">
        <ele>46.0</ele>
        <time>2018-06-10T08:01:47Z</time>
      </trkpt>
      <trkpt lat="42.314285" lon="2.929766">
        <ele>44.9</ele>
        <time>2018-06-10T08:01:51Z</time>
      </trkpt>
      <trkpt lat="42.314250" lon="2.929665">
        <ele>44.3</ele>
        <time>2018-06-10T08:01:53Z</time>
      </trkpt>
      <trkpt lat="42.314181" lon="2.929529">
        <ele>44.3</ele>
        <time>2018-06-10T08:01:56Z</time>
      </trkpt>
      <trkpt lat="42.314043" lon="2.929273">
        <ele>43.5</ele>
        <time>2018-06-10T08:02:03Z</time>
      </trkpt>
      <trkpt lat="42.313981" lon="2.929146">
        <ele>43.1</ele>
        <time>2018-06-10T08:02:06Z</time>
      </trkpt>
      <trkpt lat="42.313939" lon="2.929054">
        <ele>43.0</ele>
        <time>2018-06-10T08:02:08Z</time>
      </trkpt>
      <trkpt lat="42.313904" lon="2.929005">
        <ele>43.0</ele>
        <time>2018-06-10T08:02:09Z</time>
      </trkpt>
      <trkpt lat="42.313869" lon="2.928984">
        <ele>43.0</ele>
        <time>2018-06-10T08:02:10Z</time>
      </trkpt>
      <trkpt lat="42.313814" lon="2.928968">
        <ele>43.0</ele>
        <time>2018-06-10T08:02:12Z</time>
      </trkpt>
      <trkpt lat="42.313725" lon="2.928969">
        <ele>36.7</ele>
        <time>2018-06-10T08:02:14Z</time>
      </trkpt>
      <trkpt lat="42.313561" lon="2.928960">
        <ele>37.8</ele>
        <time>2018-06-10T08:02:19Z</time>
      </trkpt>
      <trkpt lat="42.313379" lon="2.928954">
        <ele>43.2</ele>
        <time>2018-06-10T08:02:24Z</time>
      </trkpt>
      <trkpt lat="42.313360" lon="2.928937">
        <ele>43.6</ele>
        <time>2018-06-10T08:02:24Z</time>
      </trkpt>
      <trkpt lat="42.313331" lon="2.928877">
        <ele>44.2</ele>
        <time>2018-06-10T08:02:26Z</time>
      </trkpt>
      <trkpt lat="42.313300" lon="2.928693">
        <ele>46.0</ele>
        <time>2018-06-10T08:02:30Z</time>
      </trkpt>
      <trkpt lat="42.313268" lon="2.928490">
        <ele>46.7</ele>
        <time>2018-06-10T08:02:34Z</time>
      </trkpt>
      <trkpt lat="42.313264" lon="2.928389">
        <ele>47.3</ele>
        <time>2018-06-10T08:02:36Z</time>
      </trkpt>
      <trkpt lat="42.313278" lon="2.928212">
        <ele>48.1</ele>
        <time>2018-06-10T08:02:39Z</time>
      </trkpt>
      <trkpt lat="42.313297" lon="2.928093">
        <ele>48.2</ele>
        <time>2018-06-10T08:02:42Z</time>
      </trkpt>
      <trkpt lat="42.313401" lon="2.927633">
        <ele>48.7</ele>
        <time>2018-06-10T08:02:51Z</time>
      </trkpt>
      <trkpt lat="42.313474" lon="2.927312">
        <ele>49.1</ele>
        <time>2018-06-10T08:02:58Z</time>
      </trkpt>
      <trkpt lat="42.313624" lon="2.926650">
        <ele>49.7</ele>
        <time>2018-06-10T08:03:11Z</time>
      </trkpt>
      <trkpt lat="42.313674" lon="2.926389">
        <ele>49.7</ele>
        <time>2018-06-10T08:03:17Z</time>
      </trkpt>
      <trkpt lat="42.313702" lon="2.926196">
        <ele>49.5</ele>
        <time>2018-06-10T08:03:20Z</time>
      </trkpt>
      <trkpt lat="42.313727" lon="2.925904">
        <ele>49.5</ele>
        <time>2018-06-10T08:03:26Z</time>
      </trkpt>
      <trkpt lat="42.313708" lon="2.925676">
        <ele>50.8</ele>
        <time>2018-06-10T08:03:31Z</time>
      </trkpt>
      <trkpt lat="42.313689" lon="2.925543">
        <ele>50.9</ele>
        <time>2018-06-10T08:03:33Z</time>
      </trkpt>
      <trkpt lat="42.313639" lon="2.925347">
        <ele>50.9</ele>
        <time>2018-06-10T08:03:38Z</time>
      </trkpt>
      <trkpt lat="42.313609" lon="2.925166">
        <ele>49.8</ele>
        <time>2018-06-10T08:03:41Z</time>
      </trkpt>
      <trkpt lat="42.313573" lon="2.924916">
        <ele>48.9</ele>
        <time>2018-06-10T08:03:46Z</time>
      </trkpt>
      <trkpt lat="42.313549" lon="2.924648">
        <ele>48.9</ele>
        <time>2018-06-10T08:03:51Z</time>
      </trkpt>
      <trkpt lat="42.313527" lon="2.924471">
        <ele>48.8</ele>
        <time>2018-06-10T08:03:55Z</time>
      </trkpt>
      <trkpt lat="42.313498" lon="2.924299">
        <ele>48.8</ele>
        <time>2018-06-10T08:03:58Z</time>
      </trkpt>
      <trkpt lat="42.313437" lon="2.924044">
        <ele>48.9</ele>
        <time>2018-06-10T08:04:04Z</time>
      </trkpt>
      <trkpt lat="42.313392" lon="2.923887">
        <ele>48.7</ele>
        <time>2018-06-10T08:04:07Z</time>
      </trkpt>
      <trkpt lat="42.313375" lon="2.923753">
        <ele>48.8</ele>
        <time>2018-06-10T08:04:10Z</time>
      </trkpt>
      <trkpt lat="42.313386" lon="2.923635">
        <ele>49.7</ele>
        <time>2018-06-10T08:04:12Z</time>
      </trkpt>
      <trkpt lat="42.313430" lon="2.923457">
        <ele>49.7</ele>
        <time>2018-06-10T08:04:16Z</time>
      </trkpt>
      <trkpt lat="42.313479" lon="2.923244">
        <ele>49.0</ele>
        <time>2018-06-10T08:04:20Z</time>
      </trkpt>
      <trkpt lat="42.313528" lon="2.922978">
        <ele>47.9</ele>
        <time>2018-06-10T08:04:26Z</time>
      </trkpt>
      <trkpt lat="42.313556" lon="2.922792">
        <ele>48.0</ele>
        <time>2018-06-10T08:04:29Z</time>
      </trkpt>
      <trkpt lat="42.313665" lon="2.922183">
        <ele>49.0</ele>
        <time>2018-06-10T08:04:42Z</time>
      </trkpt>
      <trkpt lat="42.313907" lon="2.921034">
        <ele>48.0</ele>
        <time>2018-06-10T08:05:05Z</time>
      </trkpt>
      <trkpt lat="42.313967" lon="2.920882">
        <ele>48.0</ele>
        <time>2018-06-10T08:05:09Z</time>
      </trkpt>
      <trkpt lat="42.314078" lon="2.920621">
        <ele>49.0</ele>
        <time>2018-06-10T08:05:15Z</time>
      </trkpt>
      <trkpt lat="42.314618" lon="2.919464">
        <ele>49.3</ele>
        <time>2018-06-10T08:05:41Z</time>
      </trkpt>
      <trkpt lat="42.314680" lon="2.919332">
        <ele>49.1</ele>
        <time>2018-06-10T08:05:45Z</time>
      </trkpt>
      <trkpt lat="42.314702" lon="2.919216">
        <ele>49.0</ele>
        <time>2018-06-10T08:05:47Z</time>
      </trkpt>
      <trkpt lat="42.314693" lon="2.919111">
        <ele>49.0</ele>
        <time>2018-06-10T08:05:49Z</time>
      </trkpt>
      <trkpt lat="42.314701" lon="2.919001">
        <ele>49.0</ele>
        <time>2018-06-10T08:05:51Z</time>
      </trkpt>
      <trkpt lat="42.314733" lon="2.918879">
        <ele>49.0</ele>
        <time>2018-06-10T08:05:54Z</time>
      </trkpt>
      <trkpt lat="42.314832" lon="2.918565">
        <ele>49.0</ele>
        <time>2018-06-10T08:06:00Z</time>
      </trkpt>
      <trkpt lat="42.315142" lon="2.917557">
        <ele>48.7</ele>
        <time>2018-06-10T08:06:22Z</time>
      </trkpt>
      <trkpt lat="42.315262" lon="2.917242">
        <ele>48.3</ele>
        <time>2018-06-10T08:06:29Z</time>
      </trkpt>
      <trkpt lat="42.315323" lon="2.917065">
        <ele>47.9</ele>
        <time>2018-06-10T08:06:33Z</time>
      </trkpt>
      <trkpt lat="42.315393" lon="2.916738">
        <ele>48.1</ele>
        <time>2018-06-10T08:06:39Z</time>
      </trkpt>
      <trkpt lat="42.315470" lon="2.916367">
        <ele>48.6</ele>
        <time>2018-06-10T08:06:47Z</time>
      </trkpt>
      <trkpt lat="42.315515" lon="2.916054">
        <ele>49.0</ele>
        <time>2018-06-10T08:06:53Z</time>
      </trkpt>
      <trkpt lat="42.315528" lon="2.915955">
        <ele>48.5</ele>
        <time>2018-06-10T08:06:55Z</time>
      </trkpt>
      <trkpt lat="42.315561" lon="2.915769">
        <ele>49.6</ele>
        <time>2018-06-10T08:06:59Z</time>
      </trkpt>
      <trkpt lat="42.315570" lon="2.915472">
        <ele>49.1</ele>
        <time>2018-06-10T08:07:05Z</time>
      </trkpt>
      <trkpt lat="42.315624" lon="2.915320">
        <ele>49.8</ele>
        <time>2018-06-10T08:07:08Z</time>
      </trkpt>
      <trkpt lat="42.315736" lon="2.915047">
        <ele>50.7</ele>
        <time>2018-06-10T08:07:14Z</time>
      </trkpt>
      <trkpt lat="42.315781" lon="2.914950">
        <ele>50.4</ele>
        <time>2018-06-10T08:07:17Z</time>
      </trkpt>
      <trkpt lat="42.315804" lon="2.914853">
        <ele>50.5</ele>
        <time>2018-06-10T08:07:19Z</time>
      </trkpt>
      <trkpt lat="42.315974" lon="2.914124">
        <ele>50.0</ele>
        <time>2018-06-10T08:07:34Z</time>
      </trkpt>
      <trkpt lat="42.315992" lon="2.913991">
        <ele>50.0</ele>
        <time>2018-06-10T08:07:36Z</time>
      </trkpt>
      <trkpt lat="42.316023" lon="2.913530">
        <ele>50.4</ele>
        <time>2018-06-10T08:07:45Z</time>
      </trkpt>
      <trkpt lat="42.316046" lon="2.913348">
        <ele>51.0</ele>
        <time>2018-06-10T08:07:49Z</time>
      </trkpt>
      <trkpt lat="42.316086" lon="2.913178">
        <ele>51.8</ele>
        <time>2018-06-10T08:07:53Z</time>
      </trkpt>
      <trkpt lat="42.316194" lon="2.912941">
        <ele>50.5</ele>
        <time>2018-06-10T08:07:58Z</time>
      </trkpt>
      <trkpt lat="42.316279" lon="2.912680">
        <ele>49.3</ele>
        <time>2018-06-10T08:08:04Z</time>
      </trkpt>
      <trkpt lat="42.316405" lon="2.912510">
        <ele>49.9</ele>
        <time>2018-06-10T08:08:08Z</time>
      </trkpt>
      <trkpt lat="42.316545" lon="2.912352">
        <ele>49.9</ele>
        <time>2018-06-10T08:08:13Z</time>
      </trkpt>
      <trkpt lat="42.316599" lon="2.912328">
        <ele>49.5</ele>
        <time>2018-06-10T08:08:15Z</time>
      </trkpt>
      <trkpt lat="42.316725" lon="2.912230">
        <ele>48.7</ele>
        <time>2018-06-10T08:08:19Z</time>
      </trkpt>
      <trkpt lat="42.316783" lon="2.912157">
        <ele>48.3</ele>
        <time>2018-06-10T08:08:21Z</time>
      </trkpt>
      <trkpt lat="42.316829" lon="2.912067">
        <ele>48.4</ele>
        <time>2018-06-10T08:08:23Z</time>
      </trkpt>
      <trkpt lat="42.316849" lon="2.911970">
        <ele>48.8</ele>
        <time>2018-06-10T08:08:25Z</time>
      </trkpt>
      <trkpt lat="42.316860" lon="2.911892">
        <ele>48.7</ele>
        <time>2018-06-10T08:08:26Z</time>
      </trkpt>
      <trkpt lat="42.316874" lon="2.911814">
        <ele>49.0</ele>
        <time>2018-06-10T08:08:28Z</time>
      </trkpt>
      <trkpt lat="42.316900" lon="2.911718">
        <ele>49.0</ele>
        <time>2018-06-10T08:08:30Z</time>
      </trkpt>
      <trkpt lat="42.316927" lon="2.911653">
        <ele>49.2</ele>
        <time>2018-06-10T08:08:32Z</time>
      </trkpt>
      <trkpt lat="42.316988" lon="2.911520">
        <ele>49.2</ele>
        <time>2018-06-10T08:08:35Z</time>
      </trkpt>
      <trkpt lat="42.317021" lon="2.911469">
        <ele>49.1</ele>
        <time>2018-06-10T08:08:36Z</time>
      </trkpt>
      <trkpt lat="42.317050" lon="2.911409">
        <ele>48.5</ele>
        <time>2018-06-10T08:08:37Z</time>
      </trkpt>
      <trkpt lat="42.317052" lon="2.911366">
        <ele>48.4</ele>
        <time>2018-06-10T08:08:38Z</time>
      </trkpt>
      <trkpt lat="42.317043" lon="2.911284">
        <ele>48.6</ele>
        <time>2018-06-10T08:08:40Z</time>
      </trkpt>
      <trkpt lat="42.317013" lon="2.911072">
        <ele>48.4</ele>
        <time>2018-06-10T08:08:44Z</time>
      </trkpt>
      <trkpt lat="42.316988" lon="2.910947">
        <ele>48.3</ele>
        <time>2018-06-10T08:08:47Z</time>
      </trkpt>
      <trkpt lat="42.316961" lon="2.910877">
        <ele>48.9</ele>
        <time>2018-06-10T08:08:48Z</time>
      </trkpt>
      <trkpt lat="42.316970" lon="2.910823">
        <ele>48.3</ele>
        <time>2018-06-10T08:08:49Z</time>
      </trkpt>
      <trkpt lat="42.316998" lon="2.910763">
        <ele>48.8</ele>
        <time>2018-06-10T08:08:51Z</time>
      </trkpt>
      <trkpt lat="42.317023" lon="2.910746">
        <ele>49.0</ele>
        <time>2018-06-10T08:08:51Z</time>
      </trkpt>
      <trkpt lat="42.317040" lon="2.910712">
        <ele>49.6</ele>
        <time>2018-06-10T08:08:52Z</time>
      </trkpt>
      <trkpt lat="42.317046" lon="2.910674">
        <ele>50.1</ele>
        <time>2018-06-10T08:08:53Z</time>
      </trkpt>
      <trkpt lat="42.317047" lon="2.910634">
        <ele>50.4</ele>
        <time>2018-06-10T08:08:54Z</time>
      </trkpt>
      <trkpt lat="42.317032" lon="2.910572">
        <ele>50.2</ele>
        <time>2018-06-10T08:08:55Z</time>
      </trkpt>
      <trkpt lat="42.316998" lon="2.910507">
        <ele>50.4</ele>
        <time>2018-06-10T08:08:57Z</time>
      </trkpt>
      <trkpt lat="42.316963" lon="2.910469">
        <ele>50.6</ele>
        <time>2018-06-10T08:08:58Z</time>
      </trkpt>
      <trkpt lat="42.316907" lon="2.910407">
        <ele>51.0</ele>
        <time>2018-06-10T08:09:00Z</time>
      </trkpt>
      <trkpt lat="42.316841" lon="2.910320">
        <ele>51.0</ele>
        <time>2018-06-10T08:09:02Z</time>
      </trkpt>
      <trkpt lat="42.316787" lon="2.910235">
        <ele>51.4</ele>
        <time>2018-06-10T08:09:04Z</time>
      </trkpt>
      <trkpt lat="42.316742" lon="2.910161">
        <ele>52.0</ele>
        <time>2018-06-10T08:09:06Z</time>
      </trkpt>
      <trkpt lat="42.316711" lon="2.910098">
        <ele>52.0</ele>
        <time>2018-06-10T08:09:08Z</time>
      </trkpt>
      <trkpt lat="42.316633" lon="2.909946">
        <ele>53.2</ele>
        <time>2018-06-10T08:09:11Z</time>
      </trkpt>
      <trkpt lat="42.316567" lon="2.909873">
        <ele>53.4</ele>
        <time>2018-06-10T08:09:14Z</time>
      </trkpt>
      <trkpt lat="42.316485" lon="2.909815">
        <ele>54.0</ele>
        <time>2018-06-10T08:09:16Z</time>
      </trkpt>
      <trkpt lat="42.316404" lon="2.909745">
        <ele>54.5</ele>
        <time>2018-06-10T08:09:19Z</time>
      </trkpt>
      <trkpt lat="42.316309" lon="2.909657">
        <ele>55.0</ele>
        <time>2018-06-10T08:09:22Z</time>
      </trkpt>
      <trkpt lat="42.316252" lon="2.909594">
        <ele>56.0</ele>
        <time>2018-06-10T08:09:24Z</time>
      </trkpt>
      <trkpt lat="42.316190" lon="2.909484">
        <ele>56.9</ele>
        <time>2018-06-10T08:09:27Z</time>
      </trkpt>
      <trkpt lat="42.316096" lon="2.909286">
        <ele>57.6</ele>
        <time>2018-06-10T08:09:31Z</time>
      </trkpt>
      <trkpt lat="42.316005" lon="2.909099">
        <ele>58.2</ele>
        <time>2018-06-10T08:09:36Z</time>
      </trkpt>
      <trkpt lat="42.315958" lon="2.909028">
        <ele>59.3</ele>
        <time>2018-06-10T08:09:37Z</time>
      </trkpt>
      <trkpt lat="42.315895" lon="2.908968">
        <ele>59.7</ele>
        <time>2018-06-10T08:09:40Z</time>
      </trkpt>
      <trkpt lat="42.315815" lon="2.908926">
        <ele>61.0</ele>
        <time>2018-06-10T08:09:42Z</time>
      </trkpt>
      <trkpt lat="42.315698" lon="2.908908">
        <ele>61.6</ele>
        <time>2018-06-10T08:09:45Z</time>
      </trkpt>
      <trkpt lat="42.315572" lon="2.908911">
        <ele>62.3</ele>
        <time>2018-06-10T08:09:48Z</time>
      </trkpt>
      <trkpt lat="42.315433" lon="2.908905">
        <ele>63.0</ele>
        <time>2018-06-10T08:09:52Z</time>
      </trkpt>
      <trkpt lat="42.315368" lon="2.908883">
        <ele>63.0</ele>
        <time>2018-06-10T08:09:54Z</time>
      </trkpt>
      <trkpt lat="42.315321" lon="2.908858">
        <ele>63.8</ele>
        <time>2018-06-10T08:09:55Z</time>
      </trkpt>
      <trkpt lat="42.315299" lon="2.908836">
        <ele>64.0</ele>
        <time>2018-06-10T08:09:56Z</time>
      </trkpt>
      <trkpt lat="42.315283" lon="2.908800">
        <ele>64.0</ele>
        <time>2018-06-10T08:09:57Z</time>
      </trkpt>
      <trkpt lat="42.315268" lon="2.908733">
        <ele>64.0</ele>
        <time>2018-06-10T08:09:58Z</time>
      </trkpt>
      <trkpt lat="42.315260" lon="2.908624">
        <ele>64.2</ele>
        <time>2018-06-10T08:10:00Z</time>
      </trkpt>
      <trkpt lat="42.315263" lon="2.908465">
        <ele>65.0</ele>
        <time>2018-06-10T08:10:03Z</time>
      </trkpt>
      <trkpt lat="42.315279" lon="2.908287">
        <ele>65.0</ele>
        <time>2018-06-10T08:10:07Z</time>
      </trkpt>
      <trkpt lat="42.315306" lon="2.908086">
        <ele>66.0</ele>
        <time>2018-06-10T08:10:11Z</time>
      </trkpt>
      <trkpt lat="42.315326" lon="2.907906">
        <ele>67.0</ele>
        <time>2018-06-10T08:10:15Z</time>
      </trkpt>
      <trkpt lat="42.315327" lon="2.907799">
        <ele>67.6</ele>
        <time>2018-06-10T08:10:17Z</time>
      </trkpt>
      <trkpt lat="42.315306" lon="2.907703">
        <ele>68.0</ele>
        <time>2018-06-10T08:10:19Z</time>
      </trkpt>
      <trkpt lat="42.315279" lon="2.907646">
        <ele>68.1</ele>
        <time>2018-06-10T08:10:20Z</time>
      </trkpt>
      <trkpt lat="42.315244" lon="2.907607">
        <ele>68.8</ele>
        <time>2018-06-10T08:10:21Z</time>
      </trkpt>
      <trkpt lat="42.315215" lon="2.907583">
        <ele>69.0</ele>
        <time>2018-06-10T08:10:22Z</time>
      </trkpt>
      <trkpt lat="42.315118" lon="2.907546">
        <ele>69.0</ele>
        <time>2018-06-10T08:10:25Z</time>
      </trkpt>
      <trkpt lat="42.314926" lon="2.907500">
        <ele>70.0</ele>
        <time>2018-06-10T08:10:30Z</time>
      </trkpt>
      <trkpt lat="42.314580" lon="2.907401">
        <ele>70.0</ele>
        <time>2018-06-10T08:10:39Z</time>
      </trkpt>
      <trkpt lat="42.314410" lon="2.907346">
        <ele>70.1</ele>
        <time>2018-06-10T08:10:44Z</time>
      </trkpt>
      <trkpt lat="42.314259" lon="2.907297">
        <ele>70.5</ele>
        <time>2018-06-10T08:10:48Z</time>
      </trkpt>
      <trkpt lat="42.314071" lon="2.907226">
        <ele>70.1</ele>
        <time>2018-06-10T08:10:53Z</time>
      </trkpt>
      <trkpt lat="42.313869" lon="2.907165">
        <ele>72.0</ele>
        <time>2018-06-10T08:10:59Z</time>
      </trkpt>
      <trkpt lat="42.313783" lon="2.907135">
        <ele>71.2</ele>
        <time>2018-06-10T08:11:01Z</time>
      </trkpt>
      <trkpt lat="42.313632" lon="2.907076">
        <ele>71.1</ele>
        <time>2018-06-10T08:11:05Z</time>
      </trkpt>
      <trkpt lat="42.313410" lon="2.906958">
        <ele>71.9</ele>
        <time>2018-06-10T08:11:12Z</time>
      </trkpt>
      <trkpt lat="42.313146" lon="2.906780">
        <ele>72.4</ele>
        <time>2018-06-10T08:11:20Z</time>
      </trkpt>
      <trkpt lat="42.313044" lon="2.906695">
        <ele>72.6</ele>
        <time>2018-06-10T08:11:23Z</time>
      </trkpt>
      <trkpt lat="42.312979" lon="2.906614">
        <ele>73.2</ele>
        <time>2018-06-10T08:11:25Z</time>
      </trkpt>
      <trkpt lat="42.312914" lon="2.906504">
        <ele>73.8</ele>
        <time>2018-06-10T08:11:28Z</time>
      </trkpt>
      <trkpt lat="42.312841" lon="2.906397">
        <ele>74.9</ele>
        <time>2018-06-10T08:11:31Z</time>
      </trkpt>
      <trkpt lat="42.312765" lon="2.906311">
        <ele>75.3</ele>
        <time>2018-06-10T08:11:34Z</time>
      </trkpt>
      <trkpt lat="42.312666" lon="2.906220">
        <ele>77.1</ele>
        <time>2018-06-10T08:11:37Z</time>
      </trkpt>
      <trkpt lat="42.312579" lon="2.906144">
        <ele>77.9</ele>
        <time>2018-06-10T08:11:39Z</time>
      </trkpt>
      <trkpt lat="42.312507" lon="2.906077">
        <ele>77.7</ele>
        <time>2018-06-10T08:11:42Z</time>
      </trkpt>
      <trkpt lat="42.312411" lon="2.905953">
        <ele>78.5</ele>
        <time>2018-06-10T08:11:45Z</time>
      </trkpt>
      <trkpt lat="42.312335" lon="2.905833">
        <ele>79.1</ele>
        <time>2018-06-10T08:11:48Z</time>
      </trkpt>
      <trkpt lat="42.312267" lon="2.905737">
        <ele>79.4</ele>
        <time>2018-06-10T08:11:51Z</time>
      </trkpt>
      <trkpt lat="42.312183" lon="2.905636">
        <ele>79.2</ele>
        <time>2018-06-10T08:11:54Z</time>
      </trkpt>
      <trkpt lat="42.312109" lon="2.905571">
        <ele>78.7</ele>
        <time>2018-06-10T08:11:56Z</time>
      </trkpt>
      <trkpt lat="42.311969" lon="2.905461">
        <ele>77.2</ele>
        <time>2018-06-10T08:12:01Z</time>
      </trkpt>
      <trkpt lat="42.311867" lon="2.905385">
        <ele>76.5</ele>
        <time>2018-06-10T08:12:04Z</time>
      </trkpt>
      <trkpt lat="42.311793" lon="2.905337">
        <ele>76.0</ele>
        <time>2018-06-10T08:12:06Z</time>
      </trkpt>
      <trkpt lat="42.311645" lon="2.905274">
        <ele>75.3</ele>
        <time>2018-06-10T08:12:10Z</time>
      </trkpt>
      <trkpt lat="42.311480" lon="2.905225">
        <ele>74.9</ele>
        <time>2018-06-10T08:12:15Z</time>
      </trkpt>
      <trkpt lat="42.311221" lon="2.905137">
        <ele>76.9</ele>
        <time>2018-06-10T08:12:22Z</time>
      </trkpt>
      <trkpt lat="42.311044" lon="2.905082">
        <ele>77.9</ele>
        <time>2018-06-10T08:12:27Z</time>
      </trkpt>
      <trkpt lat="42.310859" lon="2.905046">
        <ele>79.8</ele>
        <time>2018-06-10T08:12:32Z</time>
      </trkpt>
      <trkpt lat="42.310817" lon="2.905045">
        <ele>80.0</ele>
        <time>2018-06-10T08:12:33Z</time>
      </trkpt>
      <trkpt lat="42.310768" lon="2.905055">
        <ele>79.9</ele>
        <time>2018-06-10T08:12:34Z</time>
      </trkpt>
      <trkpt lat="42.310722" lon="2.905081">
        <ele>79.5</ele>
        <time>2018-06-10T08:12:35Z</time>
      </trkpt>
      <trkpt lat="42.310641" lon="2.905147">
        <ele>79.4</ele>
        <time>2018-06-10T08:12:38Z</time>
      </trkpt>
      <trkpt lat="42.310589" lon="2.905222">
        <ele>79.2</ele>
        <time>2018-06-10T08:12:40Z</time>
      </trkpt>
      <trkpt lat="42.310550" lon="2.905317">
        <ele>77.8</ele>
        <time>2018-06-10T08:12:42Z</time>
      </trkpt>
      <trkpt lat="42.310561" lon="2.905415">
        <ele>75.9</ele>
        <time>2018-06-10T08:12:44Z</time>
      </trkpt>
      <trkpt lat="42.310591" lon="2.905478">
        <ele>74.0</ele>
        <time>2018-06-10T08:12:46Z</time>
      </trkpt>
      <trkpt lat="42.310609" lon="2.905540">
        <ele>75.4</ele>
        <time>2018-06-10T08:12:47Z</time>
      </trkpt>
      <trkpt lat="42.310611" lon="2.905567">
        <ele>75.8</ele>
        <time>2018-06-10T08:12:48Z</time>
      </trkpt>
      <trkpt lat="42.310598" lon="2.905599">
        <ele>76.6</ele>
        <time>2018-06-10T08:12:48Z</time>
      </trkpt>
      <trkpt lat="42.310567" lon="2.905631">
        <ele>76.8</ele>
        <time>2018-06-10T08:12:49Z</time>
      </trkpt>
      <trkpt lat="42.310523" lon="2.905654">
        <ele>76.1</ele>
        <time>2018-06-10T08:12:51Z</time>
      </trkpt>
      <trkpt lat="42.310460" lon="2.905655">
        <ele>76.0</ele>
        <time>2018-06-10T08:12:52Z</time>
      </trkpt>
      <trkpt lat="42.310407" lon="2.905657">
        <ele>76.0</ele>
        <time>2018-06-10T08:12:54Z</time>
      </trkpt>
      <trkpt lat="42.310264" lon="2.905680">
        <ele>76.0</ele>
        <time>2018-06-10T08:12:58Z</time>
      </trkpt>
      <trkpt lat="42.310196" lon="2.905695">
        <ele>76.6</ele>
        <time>2018-06-10T08:12:59Z</time>
      </trkpt>
      <trkpt lat="42.310106" lon="2.905737">
        <ele>77.0</ele>
        <time>2018-06-10T08:13:02Z</time>
      </trkpt>
      <trkpt lat="42.310021" lon="2.905789">
        <ele>77.1</ele>
        <time>2018-06-10T08:13:04Z</time>
      </trkpt>
      <trkpt lat="42.309918" lon="2.905881">
        <ele>78.0</ele>
        <time>2018-06-10T08:13:08Z</time>
      </trkpt>
      <trkpt lat="42.309846" lon="2.905966">
        <ele>79.0</ele>
        <time>2018-06-10T08:13:10Z</time>
      </trkpt>
      <trkpt lat="42.309795" lon="2.906024">
        <ele>79.0</ele>
        <time>2018-06-10T08:13:12Z</time>
      </trkpt>
      <trkpt lat="42.309734" lon="2.906108">
        <ele>80.0</ele>
        <time>2018-06-10T08:13:14Z</time>
      </trkpt>
      <trkpt lat="42.309683" lon="2.906192">
        <ele>80.0</ele>
        <time>2018-06-10T08:13:16Z</time>
      </trkpt>
      <trkpt lat="42.309669" lon="2.906243">
        <ele>80.4</ele>
        <time>2018-06-10T08:13:18Z</time>
      </trkpt>
      <trkpt lat="42.309657" lon="2.906309">
        <ele>81.1</ele>
        <time>2018-06-10T08:13:19Z</time>
      </trkpt>
      <trkpt lat="42.309647" lon="2.906371">
        <ele>81.9</ele>
        <time>2018-06-10T08:13:20Z</time>
      </trkpt>
      <trkpt lat="42.309613" lon="2.906418">
        <ele>82.0</ele>
        <time>2018-06-10T08:13:21Z</time>
      </trkpt>
      <trkpt lat="42.309564" lon="2.906477">
        <ele>81.8</ele>
        <time>2018-06-10T08:13:23Z</time>
      </trkpt>
      <trkpt lat="42.309502" lon="2.906556">
        <ele>81.8</ele>
        <time>2018-06-10T08:13:25Z</time>
      </trkpt>
      <trkpt lat="42.309453" lon="2.906603">
        <ele>82.0</ele>
        <time>2018-06-10T08:13:27Z</time>
      </trkpt>
      <trkpt lat="42.309400" lon="2.906660">
        <ele>82.2</ele>
        <time>2018-06-10T08:13:29Z</time>
      </trkpt>
      <trkpt lat="42.309366" lon="2.906743">
        <ele>83.6</ele>
        <time>2018-06-10T08:13:31Z</time>
      </trkpt>
      <trkpt lat="42.309355" lon="2.906820">
        <ele>84.8</ele>
        <time>2018-06-10T08:13:32Z</time>
      </trkpt>
      <trkpt lat="42.309357" lon="2.906913">
        <ele>86.4</ele>
        <time>2018-06-10T08:13:34Z</time>
      </trkpt>
      <trkpt lat="42.309360" lon="2.907001">
        <ele>87.7</ele>
        <time>2018-06-10T08:13:36Z</time>
      </trkpt>
      <trkpt lat="42.309349" lon="2.907066">
        <ele>87.7</ele>
        <time>2018-06-10T08:13:37Z</time>
      </trkpt>
      <trkpt lat="42.309318" lon="2.907120">
        <ele>88.0</ele>
        <time>2018-06-10T08:13:39Z</time>
      </trkpt>
      <trkpt lat="42.309272" lon="2.907160">
        <ele>88.3</ele>
        <time>2018-06-10T08:13:40Z</time>
      </trkpt>
      <trkpt lat="42.309208" lon="2.907186">
        <ele>87.7</ele>
        <time>2018-06-10T08:13:42Z</time>
      </trkpt>
      <trkpt lat="42.309154" lon="2.907211">
        <ele>87.7</ele>
        <time>2018-06-10T08:13:43Z</time>
      </trkpt>
      <trkpt lat="42.309089" lon="2.907248">
        <ele>88.0</ele>
        <time>2018-06-10T08:13:45Z</time>
      </trkpt>
      <trkpt lat="42.309045" lon="2.907263">
        <ele>87.3</ele>
        <time>2018-06-10T08:13:46Z</time>
      </trkpt>
      <trkpt lat="42.308972" lon="2.907284">
        <ele>86.9</ele>
        <time>2018-06-10T08:13:48Z</time>
      </trkpt>
      <trkpt lat="42.308925" lon="2.907287">
        <ele>86.8</ele>
        <time>2018-06-10T08:13:50Z</time>
      </trkpt>
      <trkpt lat="42.308882" lon="2.907293">
        <ele>87.0</ele>
        <time>2018-06-10T08:13:51Z</time>
      </trkpt>
      <trkpt lat="42.308838" lon="2.907315">
        <ele>87.3</ele>
        <time>2018-06-10T08:13:52Z</time>
      </trkpt>
      <trkpt lat="42.308715" lon="2.907373">
        <ele>87.3</ele>
        <time>2018-06-10T08:13:56Z</time>
      </trkpt>
      <trkpt lat="42.308642" lon="2.907411">
        <ele>88.0</ele>
        <time>2018-06-10T08:13:58Z</time>
      </trkpt>
      <trkpt lat="42.308591" lon="2.907455">
        <ele>88.7</ele>
        <time>2018-06-10T08:13:59Z</time>
      </trkpt>
      <trkpt lat="42.308514" lon="2.907533">
        <ele>89.8</ele>
        <time>2018-06-10T08:14:02Z</time>
      </trkpt>
      <trkpt lat="42.308436" lon="2.907604">
        <ele>90.0</ele>
        <time>2018-06-10T08:14:04Z</time>
      </trkpt>
      <trkpt lat="42.308358" lon="2.907659">
        <ele>90.5</ele>
        <time>2018-06-10T08:14:07Z</time>
      </trkpt>
      <trkpt lat="42.308310" lon="2.907707">
        <ele>91.1</ele>
        <time>2018-06-10T08:14:08Z</time>
      </trkpt>
      <trkpt lat="42.308281" lon="2.907743">
        <ele>91.8</ele>
        <time>2018-06-10T08:14:09Z</time>
      </trkpt>
      <trkpt lat="42.308224" lon="2.907778">
        <ele>92.3</ele>
        <time>2018-06-10T08:14:11Z</time>
      </trkpt>
      <trkpt lat="42.308140" lon="2.907804">
        <ele>92.5</ele>
        <time>2018-06-10T08:14:13Z</time>
      </trkpt>
      <trkpt lat="42.308109" lon="2.907813">
        <ele>92.5</ele>
        <time>2018-06-10T08:14:14Z</time>
      </trkpt>
      <trkpt lat="42.307988" lon="2.907860">
        <ele>93.4</ele>
        <time>2018-06-10T08:14:18Z</time>
      </trkpt>
      <trkpt lat="42.307957" lon="2.907863">
        <ele>93.8</ele>
        <time>2018-06-10T08:14:18Z</time>
      </trkpt>
      <trkpt lat="42.307933" lon="2.907868">
        <ele>94.3</ele>
        <time>2018-06-10T08:14:19Z</time>
      </trkpt>
      <trkpt lat="42.307902" lon="2.907886">
        <ele>94.6</ele>
        <time>2018-06-10T08:14:20Z</time>
      </trkpt>
      <trkpt lat="42.307870" lon="2.907901">
        <ele>94.9</ele>
        <time>2018-06-10T08:14:21Z</time>
      </trkpt>
      <trkpt lat="42.307835" lon="2.907907">
        <ele>95.0</ele>
        <time>2018-06-10T08:14:22Z</time>
      </trkpt>
      <trkpt lat="42.307803" lon="2.907892">
        <ele>94.5</ele>
        <time>2018-06-10T08:14:23Z</time>
      </trkpt>
      <trkpt lat="42.307763" lon="2.907899">
        <ele>94.8</ele>
        <time>2018-06-10T08:14:24Z</time>
      </trkpt>
      <trkpt lat="42.307726" lon="2.907927">
        <ele>95.6</ele>
        <time>2018-06-10T08:14:25Z</time>
      </trkpt>
      <trkpt lat="42.307681" lon="2.907952">
        <ele>96.5</ele>
        <time>2018-06-10T08:14:26Z</time>
      </trkpt>
      <trkpt lat="42.307635" lon="2.907948">
        <ele>96.3</ele>
        <time>2018-06-10T08:14:27Z</time>
      </trkpt>
      <trkpt lat="42.307583" lon="2.907976">
        <ele>97.2</ele>
        <time>2018-06-10T08:14:29Z</time>
      </trkpt>
      <trkpt lat="42.307539" lon="2.907991">
        <ele>97.7</ele>
        <time>2018-06-10T08:14:30Z</time>
      </trkpt>
      <trkpt lat="42.307447" lon="2.907987">
        <ele>98.3</ele>
        <time>2018-06-10T08:14:33Z</time>
      </trkpt>
      <trkpt lat="42.307375" lon="2.907978">
        <ele>99.0</ele>
        <time>2018-06-10T08:14:35Z</time>
      </trkpt>
      <trkpt lat="42.307335" lon="2.907975">
        <ele>99.1</ele>
        <time>2018-06-10T08:14:36Z</time>
      </trkpt>
      <trkpt lat="42.307282" lon="2.907968">
        <ele>99.3</ele>
        <time>2018-06-10T08:14:37Z</time>
      </trkpt>
      <trkpt lat="42.307139" lon="2.907925">
        <ele>100.3</ele>
        <time>2018-06-10T08:14:41Z</time>
      </trkpt>
      <trkpt lat="42.307053" lon="2.907910">
        <ele>100.0</ele>
        <time>2018-06-10T08:14:43Z</time>
      </trkpt>
      <trkpt lat="42.306994" lon="2.907894">
        <ele>100.2</ele>
        <time>2018-06-10T08:14:45Z</time>
      </trkpt>
      <trkpt lat="42.306939" lon="2.907869">
        <ele>101.6</ele>
        <time>2018-06-10T08:14:46Z</time>
      </trkpt>
      <trkpt lat="42.306882" lon="2.907853">
        <ele>102.0</ele>
        <time>2018-06-10T08:14:48Z</time>
      </trkpt>
      <trkpt lat="42.306831" lon="2.907847">
        <ele>102.4</ele>
        <time>2018-06-10T08:14:49Z</time>
      </trkpt>
      <trkpt lat="42.306783" lon="2.907856">
        <ele>103.0</ele>
        <time>2018-06-10T08:14:51Z</time>
      </trkpt>
      <trkpt lat="42.306751" lon="2.907870">
        <ele>103.5</ele>
        <time>2018-06-10T08:14:52Z</time>
      </trkpt>
      <trkpt lat="42.306707" lon="2.907903">
        <ele>105.0</ele>
        <time>2018-06-10T08:14:53Z</time>
      </trkpt>
      <trkpt lat="42.306674" lon="2.907916">
        <ele>105.8</ele>
        <time>2018-06-10T08:14:54Z</time>
      </trkpt>
      <trkpt lat="42.306641" lon="2.907915">
        <ele>106.0</ele>
        <time>2018-06-10T08:14:55Z</time>
      </trkpt>
      <trkpt lat="42.306624" lon="2.907904">
        <ele>106.0</ele>
        <time>2018-06-10T08:14:55Z</time>
      </trkpt>
      <trkpt lat="42.306587" lon="2.907873">
        <ele>106.3</ele>
        <time>2018-06-10T08:14:56Z</time>
      </trkpt>
      <trkpt lat="42.306546" lon="2.907837">
        <ele>106.7</ele>
        <time>2018-06-10T08:14:58Z</time>
      </trkpt>
      <trkpt lat="42.306432" lon="2.907754">
        <ele>108.1</ele>
        <time>2018-06-10T08:15:01Z</time>
      </trkpt>
      <trkpt lat="42.306382" lon="2.907710">
        <ele>108.3</ele>
        <time>2018-06-10T08:15:03Z</time>
      </trkpt>
      <trkpt lat="42.306353" lon="2.907683">
        <ele>108.9</ele>
        <time>2018-06-10T08:15:04Z</time>
      </trkpt>
      <trkpt lat="42.306289" lon="2.907644">
        <ele>109.4</ele>
        <time>2018-06-10T08:15:06Z</time>
      </trkpt>
      <trkpt lat="42.306189" lon="2.907573">
        <ele>110.3</ele>
        <time>2018-06-10T08:15:09Z</time>
      </trkpt>
      <trkpt lat="42.306058" lon="2.907479">
        <ele>112.5</ele>
        <time>2018-06-10T08:15:13Z</time>
      </trkpt>
      <trkpt lat="42.305991" lon="2.907437">
        <ele>114.0</ele>
        <time>2018-06-10T08:15:15Z</time>
      </trkpt>
      <trkpt lat="42.305894" lon="2.907377">
        <ele>114.1</ele>
        <time>2018-06-10T08:15:17Z</time>
      </trkpt>
      <trkpt lat="42.305856" lon="2.907352">
        <ele>114.8</ele>
        <time>2018-06-10T08:15:19Z</time>
      </trkpt>
      <trkpt lat="42.305826" lon="2.907324">
        <ele>115.4</ele>
        <time>2018-06-10T08:15:20Z</time>
      </trkpt>
      <trkpt lat="42.305797" lon="2.907292">
        <ele>115.7</ele>
        <time>2018-06-10T08:15:21Z</time>
      </trkpt>
      <trkpt lat="42.305765" lon="2.907264">
        <ele>115.3</ele>
        <time>2018-06-10T08:15:22Z</time>
      </trkpt>
      <trkpt lat="42.305745" lon="2.907255">
        <ele>115.6</ele>
        <time>2018-06-10T08:15:22Z</time>
      </trkpt>
      <trkpt lat="42.305713" lon="2.907253">
        <ele>116.2</ele>
        <time>2018-06-10T08:15:23Z</time>
      </trkpt>
      <trkpt lat="42.305684" lon="2.907261">
        <ele>116.3</ele>
        <time>2018-06-10T08:15:24Z</time>
      </trkpt>
      <trkpt lat="42.305660" lon="2.907264">
        <ele>116.5</ele>
        <time>2018-06-10T08:15:24Z</time>
      </trkpt>
      <trkpt lat="42.305627" lon="2.907253">
        <ele>116.4</ele>
        <time>2018-06-10T08:15:25Z</time>
      </trkpt>
      <trkpt lat="42.305598" lon="2.907237">
        <ele>116.8</ele>
        <time>2018-06-10T08:15:26Z</time>
      </trkpt>
      <trkpt lat="42.305549" lon="2.907225">
        <ele>118.1</ele>
        <time>2018-06-10T08:15:28Z</time>
      </trkpt>
      <trkpt lat="42.305526" lon="2.907222">
        <ele>118.7</ele>
        <time>2018-06-10T08:15:28Z</time>
      </trkpt>
      <trkpt lat="42.305481" lon="2.907231">
        <ele>119.2</ele>
        <time>2018-06-10T08:15:29Z</time>
      </trkpt>
      <trkpt lat="42.305438" lon="2.907236">
        <ele>119.4</ele>
        <time>2018-06-10T08:15:31Z</time>
      </trkpt>
      <trkpt lat="42.305388" lon="2.907236">
        <ele>120.5</ele>
        <time>2018-06-10T08:15:32Z</time>
      </trkpt>
      <trkpt lat="42.305372" lon="2.907230">
        <ele>121.0</ele>
        <time>2018-06-10T08:15:32Z</time>
      </trkpt>
      <trkpt lat="42.305338" lon="2.907208">
        <ele>122.3</ele>
        <time>2018-06-10T08:15:33Z</time>
      </trkpt>
      <trkpt lat="42.305309" lon="2.907174">
        <ele>123.3</ele>
        <time>2018-06-10T08:15:34Z</time>
      </trkpt>
      <trkpt lat="42.305282" lon="2.907147">
        <ele>124.3</ele>
        <time>2018-06-10T08:15:35Z</time>
      </trkpt>
      <trkpt lat="42.305251" lon="2.907102">
        <ele>125.0</ele>
        <time>2018-06-10T08:15:37Z</time>
      </trkpt>
      <trkpt lat="42.305239" lon="2.907092">
        <ele>125.0</ele>
        <time>2018-06-10T08:15:37Z</time>
      </trkpt>
      <trkpt lat="42.305219" lon="2.907090">
        <ele>125.1</ele>
        <time>2018-06-10T08:15:37Z</time>
      </trkpt>
      <trkpt lat="42.305199" lon="2.907095">
        <ele>125.3</ele>
        <time>2018-06-10T08:15:38Z</time>
      </trkpt>
      <trkpt lat="42.305172" lon="2.907101">
        <ele>125.6</ele>
        <time>2018-06-10T08:15:39Z</time>
      </trkpt>
      <trkpt lat="42.305136" lon="2.907120">
        <ele>126.1</ele>
        <time>2018-06-10T08:15:40Z</time>
      </trkpt>
      <trkpt lat="42.305100" lon="2.907143">
        <ele>126.9</ele>
        <time>2018-06-10T08:15:41Z</time>
      </trkpt>
      <trkpt lat="42.305058" lon="2.907193">
        <ele>126.6</ele>
        <time>2018-06-10T08:15:42Z</time>
      </trkpt>
      <trkpt lat="42.305037" lon="2.907230">
        <ele>126.5</ele>
        <time>2018-06-10T08:15:43Z</time>
      </trkpt>
      <trkpt lat="42.305007" lon="2.907271">
        <ele>127.3</ele>
        <time>2018-06-10T08:15:44Z</time>
      </trkpt>
      <trkpt lat="42.304973" lon="2.907304">
        <ele>127.6</ele>
        <time>2018-06-10T08:15:46Z</time>
      </trkpt>
      <trkpt lat="42.304922" lon="2.907350">
        <ele>128.0</ele>
        <time>2018-06-10T08:15:47Z</time>
      </trkpt>
      <trkpt lat="42.304846" lon="2.907393">
        <ele>129.2</ele>
        <time>2018-06-10T08:15:49Z</time>
      </trkpt>
      <trkpt lat="42.304794" lon="2.907416">
        <ele>129.6</ele>
        <time>2018-06-10T08:15:51Z</time>
      </trkpt>
      <trkpt lat="42.304716" lon="2.907434">
        <ele>130.7</ele>
        <time>2018-06-10T08:15:53Z</time>
      </trkpt>
      <trkpt lat="42.304625" lon="2.907442">
        <ele>133.3</ele>
        <time>2018-06-10T08:15:55Z</time>
      </trkpt>
      <trkpt lat="42.304575" lon="2.907447">
        <ele>134.0</ele>
        <time>2018-06-10T08:15:57Z</time>
      </trkpt>
      <trkpt lat="42.304538" lon="2.907456">
        <ele>134.2</ele>
        <time>2018-06-10T08:15:58Z</time>
      </trkpt>
      <trkpt lat="42.304494" lon="2.907471">
        <ele>135.0</ele>
        <time>2018-06-10T08:15:59Z</time>
      </trkpt>
      <trkpt lat="42.304411" lon="2.907514">
        <ele>135.6</ele>
        <time>2018-06-10T08:16:01Z</time>
      </trkpt>
      <trkpt lat="42.304289" lon="2.907598">
        <ele>136.0</ele>
        <time>2018-06-10T08:16:05Z</time>
      </trkpt>
      <trkpt lat="42.304196" lon="2.907654">
        <ele>136.1</ele>
        <time>2018-06-10T08:16:08Z</time>
      </trkpt>
      <trkpt lat="42.304089" lon="2.907701">
        <ele>135.5</ele>
        <time>2018-06-10T08:16:11Z</time>
      </trkpt>
      <trkpt lat="42.303954" lon="2.907739">
        <ele>135.2</ele>
        <time>2018-06-10T08:16:14Z</time>
      </trkpt>
      <trkpt lat="42.303841" lon="2.907776">
        <ele>137.8</ele>
        <time>2018-06-10T08:16:18Z</time>
      </trkpt>
      <trkpt lat="42.303526" lon="2.907883">
        <ele>136.4</ele>
        <time>2018-06-10T08:16:26Z</time>
      </trkpt>
      <trkpt lat="42.303406" lon="2.907935">
        <ele>136.2</ele>
        <time>2018-06-10T08:16:30Z</time>
      </trkpt>
      <trkpt lat="42.303362" lon="2.907955">
        <ele>136.3</ele>
        <time>2018-06-10T08:16:31Z</time>
      </trkpt>
      <trkpt lat="42.303289" lon="2.907976">
        <ele>136.9</ele>
        <time>2018-06-10T08:16:33Z</time>
      </trkpt>
      <trkpt lat="42.303224" lon="2.907983">
        <ele>136.5</ele>
        <time>2018-06-10T08:16:35Z</time>
      </trkpt>
      <trkpt lat="42.303121" lon="2.907990">
        <ele>136.4</ele>
        <time>2018-06-10T08:16:37Z</time>
      </trkpt>
      <trkpt lat="42.303010" lon="2.908015">
        <ele>135.9</ele>
        <time>2018-06-10T08:16:40Z</time>
      </trkpt>
      <trkpt lat="42.302883" lon="2.908032">
        <ele>135.1</ele>
        <time>2018-06-10T08:16:44Z</time>
      </trkpt>
      <trkpt lat="42.302735" lon="2.908033">
        <ele>136.0</ele>
        <time>2018-06-10T08:16:48Z</time>
      </trkpt>
      <trkpt lat="42.302660" lon="2.908028">
        <ele>136.1</ele>
        <time>2018-06-10T08:16:50Z</time>
      </trkpt>
      <trkpt lat="42.302593" lon="2.908011">
        <ele>136.4</ele>
        <time>2018-06-10T08:16:51Z</time>
      </trkpt>
      <trkpt lat="42.302551" lon="2.907977">
        <ele>137.0</ele>
        <time>2018-06-10T08:16:53Z</time>
      </trkpt>
      <trkpt lat="42.302520" lon="2.907940">
        <ele>137.0</ele>
        <time>2018-06-10T08:16:54Z</time>
      </trkpt>
      <trkpt lat="42.302493" lon="2.907875">
        <ele>138.3</ele>
        <time>2018-06-10T08:16:55Z</time>
      </trkpt>
      <trkpt lat="42.302459" lon="2.907776">
        <ele>139.4</ele>
        <time>2018-06-10T08:16:58Z</time>
      </trkpt>
      <trkpt lat="42.302427" lon="2.907721">
        <ele>140.0</ele>
        <time>2018-06-10T08:16:59Z</time>
      </trkpt>
      <trkpt lat="42.302380" lon="2.907683">
        <ele>140.9</ele>
        <time>2018-06-10T08:17:00Z</time>
      </trkpt>
      <trkpt lat="42.302331" lon="2.907636">
        <ele>141.7</ele>
        <time>2018-06-10T08:17:02Z</time>
      </trkpt>
      <trkpt lat="42.302287" lon="2.907590">
        <ele>142.6</ele>
        <time>2018-06-10T08:17:04Z</time>
      </trkpt>
      <trkpt lat="42.302249" lon="2.907560">
        <ele>143.9</ele>
        <time>2018-06-10T08:17:05Z</time>
      </trkpt>
      <trkpt lat="42.302203" lon="2.907535">
        <ele>144.3</ele>
        <time>2018-06-10T08:17:06Z</time>
      </trkpt>
      <trkpt lat="42.302159" lon="2.907519">
        <ele>144.5</ele>
        <time>2018-06-10T08:17:07Z</time>
      </trkpt>
      <trkpt lat="42.301998" lon="2.907465">
        <ele>145.8</ele>
        <time>2018-06-10T08:17:12Z</time>
      </trkpt>
      <trkpt lat="42.301963" lon="2.907439">
        <ele>146.0</ele>
        <time>2018-06-10T08:17:13Z</time>
      </trkpt>
      <trkpt lat="42.301858" lon="2.907357">
        <ele>146.4</ele>
        <time>2018-06-10T08:17:16Z</time>
      </trkpt>
      <trkpt lat="42.301797" lon="2.907296">
        <ele>146.2</ele>
        <time>2018-06-10T08:17:18Z</time>
      </trkpt>
      <trkpt lat="42.301760" lon="2.907263">
        <ele>146.8</ele>
        <time>2018-06-10T08:17:19Z</time>
      </trkpt>
      <trkpt lat="42.301697" lon="2.907190">
        <ele>147.0</ele>
        <time>2018-06-10T08:17:21Z</time>
      </trkpt>
      <trkpt lat="42.301649" lon="2.907126">
        <ele>147.0</ele>
        <time>2018-06-10T08:17:23Z</time>
      </trkpt>
      <trkpt lat="42.301616" lon="2.907086">
        <ele>147.0</ele>
        <time>2018-06-10T08:17:24Z</time>
      </trkpt>
      <trkpt lat="42.301594" lon="2.907066">
        <ele>147.0</ele>
        <time>2018-06-10T08:17:25Z</time>
      </trkpt>
      <trkpt lat="42.301565" lon="2.907048">
        <ele>147.3</ele>
        <time>2018-06-10T08:17:26Z</time>
      </trkpt>
      <trkpt lat="42.301513" lon="2.907030">
        <ele>147.6</ele>
        <time>2018-06-10T08:17:27Z</time>
      </trkpt>
      <trkpt lat="42.301406" lon="2.907002">
        <ele>148.3</ele>
        <time>2018-06-10T08:17:30Z</time>
      </trkpt>
      <trkpt lat="42.301298" lon="2.906977">
        <ele>148.7</ele>
        <time>2018-06-10T08:17:33Z</time>
      </trkpt>
      <trkpt lat="42.301243" lon="2.906969">
        <ele>149.9</ele>
        <time>2018-06-10T08:17:35Z</time>
      </trkpt>
      <trkpt lat="42.301207" lon="2.906977">
        <ele>150.2</ele>
        <time>2018-06-10T08:17:36Z</time>
      </trkpt>
      <trkpt lat="42.301172" lon="2.906993">
        <ele>150.5</ele>
        <time>2018-06-10T08:17:37Z</time>
      </trkpt>
      <trkpt lat="42.301133" lon="2.907021">
        <ele>150.6</ele>
        <time>2018-06-10T08:17:38Z</time>
      </trkpt>
      <trkpt lat="42.301100" lon="2.907062">
        <ele>150.1</ele>
        <time>2018-06-10T08:17:39Z</time>
      </trkpt>
      <trkpt lat="42.301047" lon="2.907168">
        <ele>149.3</ele>
        <time>2018-06-10T08:17:42Z</time>
      </trkpt>
      <trkpt lat="42.300993" lon="2.907307">
        <ele>149.0</ele>
        <time>2018-06-10T08:17:45Z</time>
      </trkpt>
      <trkpt lat="42.300946" lon="2.907396">
        <ele>147.6</ele>
        <time>2018-06-10T08:17:47Z</time>
      </trkpt>
      <trkpt lat="42.300904" lon="2.907447">
        <ele>146.8</ele>
        <time>2018-06-10T08:17:48Z</time>
      </trkpt>
      <trkpt lat="42.300871" lon="2.907466">
        <ele>146.1</ele>
        <time>2018-06-10T08:17:49Z</time>
      </trkpt>
      <trkpt lat="42.300777" lon="2.907489">
        <ele>145.2</ele>
        <time>2018-06-10T08:17:52Z</time>
      </trkpt>
      <trkpt lat="42.300633" lon="2.907512">
        <ele>143.4</ele>
        <time>2018-06-10T08:17:56Z</time>
      </trkpt>
      <trkpt lat="42.300548" lon="2.907510">
        <ele>142.6</ele>
        <time>2018-06-10T08:17:58Z</time>
      </trkpt>
      <trkpt lat="42.300488" lon="2.907491">
        <ele>141.9</ele>
        <time>2018-06-10T08:18:00Z</time>
      </trkpt>
      <trkpt lat="42.300426" lon="2.907495">
        <ele>140.9</ele>
        <time>2018-06-10T08:18:01Z</time>
      </trkpt>
      <trkpt lat="42.300215" lon="2.907538">
        <ele>139.6</ele>
        <time>2018-06-10T08:18:07Z</time>
      </trkpt>
      <trkpt lat="42.300180" lon="2.907547">
        <ele>139.3</ele>
        <time>2018-06-10T08:18:08Z</time>
      </trkpt>
      <trkpt lat="42.300163" lon="2.907569">
        <ele>138.5</ele>
        <time>2018-06-10T08:18:09Z</time>
      </trkpt>
      <trkpt lat="42.300148" lon="2.907606">
        <ele>137.3</ele>
        <time>2018-06-10T08:18:10Z</time>
      </trkpt>
      <trkpt lat="42.300132" lon="2.907635">
        <ele>137.0</ele>
        <time>2018-06-10T08:18:10Z</time>
      </trkpt>
      <trkpt lat="42.300117" lon="2.907652">
        <ele>137.0</ele>
        <time>2018-06-10T08:18:11Z</time>
      </trkpt>
      <trkpt lat="42.300100" lon="2.907656">
        <ele>137.0</ele>
        <time>2018-06-10T08:18:11Z</time>
      </trkpt>
      <trkpt lat="42.300075" lon="2.907659">
        <ele>137.3</ele>
        <time>2018-06-10T08:18:12Z</time>
      </trkpt>
      <trkpt lat="42.300051" lon="2.907653">
        <ele>137.5</ele>
        <time>2018-06-10T08:18:13Z</time>
      </trkpt>
      <trkpt lat="42.300024" lon="2.907652">
        <ele>138.1</ele>
        <time>2018-06-10T08:18:13Z</time>
      </trkpt>
      <trkpt lat="42.299989" lon="2.907653">
        <ele>138.9</ele>
        <time>2018-06-10T08:18:14Z</time>
      </trkpt>
      <trkpt lat="42.299923" lon="2.907666">
        <ele>139.8</ele>
        <time>2018-06-10T08:18:16Z</time>
      </trkpt>
      <trkpt lat="42.299795" lon="2.907715">
        <ele>140.8</ele>
        <time>2018-06-10T08:18:20Z</time>
      </trkpt>
      <trkpt lat="42.299642" lon="2.907757">
        <ele>143.3</ele>
        <time>2018-06-10T08:18:24Z</time>
      </trkpt>
      <trkpt lat="42.299550" lon="2.907809">
        <ele>144.2</ele>
        <time>2018-06-10T08:18:26Z</time>
      </trkpt>
      <trkpt lat="42.299393" lon="2.907916">
        <ele>145.9</ele>
        <time>2018-06-10T08:18:31Z</time>
      </trkpt>
      <trkpt lat="42.299302" lon="2.907972">
        <ele>146.9</ele>
        <time>2018-06-10T08:18:34Z</time>
      </trkpt>
      <trkpt lat="42.299191" lon="2.908055">
        <ele>148.2</ele>
        <time>2018-06-10T08:18:37Z</time>
      </trkpt>
      <trkpt lat="42.299121" lon="2.908126">
        <ele>148.7</ele>
        <time>2018-06-10T08:18:39Z</time>
      </trkpt>
      <trkpt lat="42.299060" lon="2.908175">
        <ele>149.2</ele>
        <time>2018-06-10T08:18:41Z</time>
      </trkpt>
      <trkpt lat="42.298990" lon="2.908209">
        <ele>149.8</ele>
        <time>2018-06-10T08:18:43Z</time>
      </trkpt>
      <trkpt lat="42.298726" lon="2.908337">
        <ele>151.9</ele>
        <time>2018-06-10T08:18:51Z</time>
      </trkpt>
      <trkpt lat="42.298509" lon="2.908460">
        <ele>155.0</ele>
        <time>2018-06-10T08:18:57Z</time>
      </trkpt>
      <trkpt lat="42.298461" lon="2.908494">
        <ele>156.2</ele>
        <time>2018-06-10T08:18:59Z</time>
      </trkpt>
      <trkpt lat="42.298430" lon="2.908532">
        <ele>156.9</ele>
        <time>2018-06-10T08:19:00Z</time>
      </trkpt>
      <trkpt lat="42.298395" lon="2.908615">
        <ele>157.8</ele>
        <time>2018-06-10T08:19:02Z</time>
      </trkpt>
      <trkpt lat="42.298320" lon="2.908811">
        <ele>158.9</ele>
        <time>2018-06-10T08:19:06Z</time>
      </trkpt>
      <trkpt lat="42.298250" lon="2.908952">
        <ele>159.1</ele>
        <time>2018-06-10T08:19:09Z</time>
      </trkpt>
      <trkpt lat="42.298202" lon="2.909009">
        <ele>159.0</ele>
        <time>2018-06-10T08:19:11Z</time>
      </trkpt>
      <trkpt lat="42.298159" lon="2.909042">
        <ele>159.5</ele>
        <time>2018-06-10T08:19:12Z</time>
      </trkpt>
      <trkpt lat="42.298022" lon="2.909151">
        <ele>162.0</ele>
        <time>2018-06-10T08:19:17Z</time>
      </trkpt>
      <trkpt lat="42.297932" lon="2.909246">
        <ele>163.8</ele>
        <time>2018-06-10T08:19:20Z</time>
      </trkpt>
      <trkpt lat="42.297885" lon="2.909343">
        <ele>164.6</ele>
        <time>2018-06-10T08:19:22Z</time>
      </trkpt>
      <trkpt lat="42.297858" lon="2.909381">
        <ele>165.3</ele>
        <time>2018-06-10T08:19:23Z</time>
      </trkpt>
      <trkpt lat="42.297831" lon="2.909420">
        <ele>166.0</ele>
        <time>2018-06-10T08:19:24Z</time>
      </trkpt>
      <trkpt lat="42.297809" lon="2.909424">
        <ele>166.0</ele>
        <time>2018-06-10T08:19:25Z</time>
      </trkpt>
      <trkpt lat="42.297798" lon="2.909411">
        <ele>166.0</ele>
        <time>2018-06-10T08:19:25Z</time>
      </trkpt>
      <trkpt lat="42.297791" lon="2.909341">
        <ele>166.0</ele>
        <time>2018-06-10T08:19:26Z</time>
      </trkpt>
      <trkpt lat="42.297783" lon="2.909254">
        <ele>166.0</ele>
        <time>2018-06-10T08:19:28Z</time>
      </trkpt>
      <trkpt lat="42.297765" lon="2.909163">
        <ele>167.1</ele>
        <time>2018-06-10T08:19:30Z</time>
      </trkpt>
      <trkpt lat="42.297752" lon="2.909102">
        <ele>167.4</ele>
        <time>2018-06-10T08:19:31Z</time>
      </trkpt>
      <trkpt lat="42.297731" lon="2.909058">
        <ele>166.9</ele>
        <time>2018-06-10T08:19:32Z</time>
      </trkpt>
      <trkpt lat="42.297701" lon="2.909040">
        <ele>166.9</ele>
        <time>2018-06-10T08:19:33Z</time>
      </trkpt>
      <trkpt lat="42.297633" lon="2.909024">
        <ele>167.7</ele>
        <time>2018-06-10T08:19:35Z</time>
      </trkpt>
      <trkpt lat="42.297538" lon="2.909011">
        <ele>167.9</ele>
        <time>2018-06-10T08:19:38Z</time>
      </trkpt>
      <trkpt lat="42.297234" lon="2.908964">
        <ele>169.6</ele>
        <time>2018-06-10T08:19:46Z</time>
      </trkpt>
      <trkpt lat="42.297134" lon="2.908964">
        <ele>170.1</ele>
        <time>2018-06-10T08:19:48Z</time>
      </trkpt>
      <trkpt lat="42.297026" lon="2.908991">
        <ele>171.6</ele>
        <time>2018-06-10T08:19:51Z</time>
      </trkpt>
      <trkpt lat="42.296849" lon="2.909027">
        <ele>173.0</ele>
        <time>2018-06-10T08:19:56Z</time>
      </trkpt>
      <trkpt lat="42.296688" lon="2.909063">
        <ele>174.0</ele>
        <time>2018-06-10T08:20:01Z</time>
      </trkpt>
      <trkpt lat="42.296443" lon="2.909083">
        <ele>175.0</ele>
        <time>2018-06-10T08:20:07Z</time>
      </trkpt>
      <trkpt lat="42.296117" lon="2.909095">
        <ele>177.0</ele>
        <time>2018-06-10T08:20:16Z</time>
      </trkpt>
      <trkpt lat="42.295892" lon="2.909103">
        <ele>177.6</ele>
        <time>2018-06-10T08:20:22Z</time>
      </trkpt>
      <trkpt lat="42.295809" lon="2.909069">
        <ele>177.2</ele>
        <time>2018-06-10T08:20:24Z</time>
      </trkpt>
      <trkpt lat="42.295718" lon="2.909008">
        <ele>178.1</ele>
        <time>2018-06-10T08:20:27Z</time>
      </trkpt>
      <trkpt lat="42.295662" lon="2.908939">
        <ele>179.0</ele>
        <time>2018-06-10T08:20:29Z</time>
      </trkpt>
      <trkpt lat="42.295633" lon="2.908853">
        <ele>179.7</ele>
        <time>2018-06-10T08:20:31Z</time>
      </trkpt>
      <trkpt lat="42.295623" lon="2.908744">
        <ele>180.0</ele>
        <time>2018-06-10T08:20:33Z</time>
      </trkpt>
      <trkpt lat="42.295612" lon="2.908664">
        <ele>180.0</ele>
        <time>2018-06-10T08:20:34Z</time>
      </trkpt>
      <trkpt lat="42.295593" lon="2.908532">
        <ele>181.0</ele>
        <time>2018-06-10T08:20:37Z</time>
      </trkpt>
      <trkpt lat="42.295576" lon="2.908318">
        <ele>182.0</ele>
        <time>2018-06-10T08:20:41Z</time>
      </trkpt>
      <trkpt lat="42.295572" lon="2.908115">
        <ele>182.9</ele>
        <time>2018-06-10T08:20:45Z</time>
      </trkpt>
      <trkpt lat="42.295541" lon="2.907820">
        <ele>184.8</ele>
        <time>2018-06-10T08:20:51Z</time>
      </trkpt>
      <trkpt lat="42.295493" lon="2.907470">
        <ele>187.0</ele>
        <time>2018-06-10T08:20:58Z</time>
      </trkpt>
      <trkpt lat="42.295455" lon="2.907160">
        <ele>188.0</ele>
        <time>2018-06-10T08:21:04Z</time>
      </trkpt>
      <trkpt lat="42.295441" lon="2.907009">
        <ele>188.3</ele>
        <time>2018-06-10T08:21:07Z</time>
      </trkpt>
      <trkpt lat="42.295427" lon="2.906903">
        <ele>188.1</ele>
        <time>2018-06-10T08:21:10Z</time>
      </trkpt>
      <trkpt lat="42.295407" lon="2.906871">
        <ele>188.4</ele>
        <time>2018-06-10T08:21:10Z</time>
      </trkpt>
      <trkpt lat="42.295374" lon="2.906855">
        <ele>189.2</ele>
        <time>2018-06-10T08:21:11Z</time>
      </trkpt>
      <trkpt lat="42.295328" lon="2.906832">
        <ele>189.8</ele>
        <time>2018-06-10T08:21:13Z</time>
      </trkpt>
      <trkpt lat="42.295280" lon="2.906812">
        <ele>190.0</ele>
        <time>2018-06-10T08:21:14Z</time>
      </trkpt>
      <trkpt lat="42.295238" lon="2.906769">
        <ele>190.0</ele>
        <time>2018-06-10T08:21:15Z</time>
      </trkpt>
      <trkpt lat="42.295169" lon="2.906691">
        <ele>190.0</ele>
        <time>2018-06-10T08:21:18Z</time>
      </trkpt>
      <trkpt lat="42.295096" lon="2.906618">
        <ele>190.0</ele>
        <time>2018-06-10T08:21:20Z</time>
      </trkpt>
      <trkpt lat="42.294997" lon="2.906563">
        <ele>191.0</ele>
        <time>2018-06-10T08:21:23Z</time>
      </trkpt>
      <trkpt lat="42.294925" lon="2.906479">
        <ele>191.0</ele>
        <time>2018-06-10T08:21:26Z</time>
      </trkpt>
      <trkpt lat="42.294801" lon="2.906307">
        <ele>190.0</ele>
        <time>2018-06-10T08:21:30Z</time>
      </trkpt>
      <trkpt lat="42.294741" lon="2.906230">
        <ele>190.0</ele>
        <time>2018-06-10T08:21:33Z</time>
      </trkpt>
      <trkpt lat="42.294706" lon="2.906205">
        <ele>189.3</ele>
        <time>2018-06-10T08:21:34Z</time>
      </trkpt>
      <trkpt lat="42.294640" lon="2.906196">
        <ele>188.5</ele>
        <time>2018-06-10T08:21:35Z</time>
      </trkpt>
      <trkpt lat="42.294553" lon="2.906207">
        <ele>188.0</ele>
        <time>2018-06-10T08:21:38Z</time>
      </trkpt>
      <trkpt lat="42.294330" lon="2.906285">
        <ele>188.0</ele>
        <time>2018-06-10T08:21:44Z</time>
      </trkpt>
      <trkpt lat="42.294158" lon="2.906327">
        <ele>188.0</ele>
        <time>2018-06-10T08:21:48Z</time>
      </trkpt>
      <trkpt lat="42.294123" lon="2.906318">
        <ele>187.5</ele>
        <time>2018-06-10T08:21:49Z</time>
      </trkpt>
      <trkpt lat="42.294099" lon="2.906267">
        <ele>187.0</ele>
        <time>2018-06-10T08:21:51Z</time>
      </trkpt>
      <trkpt lat="42.294060" lon="2.906130">
        <ele>187.2</ele>
        <time>2018-06-10T08:21:54Z</time>
      </trkpt>
      <trkpt lat="42.294011" lon="2.905923">
        <ele>187.0</ele>
        <time>2018-06-10T08:21:58Z</time>
      </trkpt>
      <trkpt lat="42.293991" lon="2.905809">
        <ele>187.0</ele>
        <time>2018-06-10T08:22:00Z</time>
      </trkpt>
      <trkpt lat="42.293961" lon="2.905524">
        <ele>186.9</ele>
        <time>2018-06-10T08:22:06Z</time>
      </trkpt>
      <trkpt lat="42.293957" lon="2.905326">
        <ele>186.8</ele>
        <time>2018-06-10T08:22:10Z</time>
      </trkpt>
      <trkpt lat="42.293944" lon="2.905180">
        <ele>186.5</ele>
        <time>2018-06-10T08:22:13Z</time>
      </trkpt>
      <trkpt lat="42.293897" lon="2.904997">
        <ele>186.5</ele>
        <time>2018-06-10T08:22:16Z</time>
      </trkpt>
      <trkpt lat="42.293834" lon="2.904806">
        <ele>186.5</ele>
        <time>2018-06-10T08:22:21Z</time>
      </trkpt>
      <trkpt lat="42.293784" lon="2.904670">
        <ele>187.0</ele>
        <time>2018-06-10T08:22:24Z</time>
      </trkpt>
      <trkpt lat="42.293702" lon="2.904523">
        <ele>187.3</ele>
        <time>2018-06-10T08:22:27Z</time>
      </trkpt>
      <trkpt lat="42.293609" lon="2.904376">
        <ele>187.1</ele>
        <time>2018-06-10T08:22:31Z</time>
      </trkpt>
      <trkpt lat="42.293546" lon="2.904264">
        <ele>187.0</ele>
        <time>2018-06-10T08:22:34Z</time>
      </trkpt>
      <trkpt lat="42.293535" lon="2.904225">
        <ele>187.0</ele>
        <time>2018-06-10T08:22:35Z</time>
      </trkpt>
      <trkpt lat="42.293550" lon="2.904187">
        <ele>186.9</ele>
        <time>2018-06-10T08:22:35Z</time>
      </trkpt>
      <trkpt lat="42.293570" lon="2.904156">
        <ele>186.9</ele>
        <time>2018-06-10T08:22:36Z</time>
      </trkpt>
      <trkpt lat="42.293626" lon="2.904118">
        <ele>187.0</ele>
        <time>2018-06-10T08:22:38Z</time>
      </trkpt>
      <trkpt lat="42.293718" lon="2.904073">
        <ele>186.4</ele>
        <time>2018-06-10T08:22:40Z</time>
      </trkpt>
      <trkpt lat="42.293751" lon="2.904044">
        <ele>186.3</ele>
        <time>2018-06-10T08:22:42Z</time>
      </trkpt>
      <trkpt lat="42.293779" lon="2.903994">
        <ele>186.1</ele>
        <time>2018-06-10T08:22:43Z</time>
      </trkpt>
      <trkpt lat="42.293792" lon="2.903928">
        <ele>186.2</ele>
        <time>2018-06-10T08:22:44Z</time>
      </trkpt>
      <trkpt lat="42.293792" lon="2.903829">
        <ele>186.2</ele>
        <time>2018-06-10T08:22:46Z</time>
      </trkpt>
      <trkpt lat="42.293763" lon="2.903501">
        <ele>184.5</ele>
        <time>2018-06-10T08:22:53Z</time>
      </trkpt>
      <trkpt lat="42.293744" lon="2.903192">
        <ele>183.1</ele>
        <time>2018-06-10T08:22:59Z</time>
      </trkpt>
      <trkpt lat="42.293698" lon="2.902782">
        <ele>184.0</ele>
        <time>2018-06-10T08:23:07Z</time>
      </trkpt>
      <trkpt lat="42.293607" lon="2.902033">
        <ele>184.0</ele>
        <time>2018-06-10T08:23:22Z</time>
      </trkpt>
      <trkpt lat="42.293581" lon="2.901661">
        <ele>181.9</ele>
        <time>2018-06-10T08:23:29Z</time>
      </trkpt>
      <trkpt lat="42.293561" lon="2.901440">
        <ele>181.1</ele>
        <time>2018-06-10T08:23:34Z</time>
      </trkpt>
      <trkpt lat="42.293543" lon="2.901320">
        <ele>180.7</ele>
        <time>2018-06-10T08:23:36Z</time>
      </trkpt>
      <trkpt lat="42.293510" lon="2.901188">
        <ele>181.0</ele>
        <time>2018-06-10T08:23:39Z</time>
      </trkpt>
      <trkpt lat="42.293454" lon="2.901052">
        <ele>181.0</ele>
        <time>2018-06-10T08:23:42Z</time>
      </trkpt>
      <trkpt lat="42.293336" lon="2.900777">
        <ele>182.0</ele>
        <time>2018-06-10T08:23:48Z</time>
      </trkpt>
      <trkpt lat="42.293291" lon="2.900645">
        <ele>183.1</ele>
        <time>2018-06-10T08:23:51Z</time>
      </trkpt>
      <trkpt lat="42.293247" lon="2.900493">
        <ele>184.3</ele>
        <time>2018-06-10T08:23:54Z</time>
      </trkpt>
      <trkpt lat="42.293200" lon="2.900241">
        <ele>186.2</ele>
        <time>2018-06-10T08:23:59Z</time>
      </trkpt>
      <trkpt lat="42.293130" lon="2.899939">
        <ele>188.4</ele>
        <time>2018-06-10T08:24:06Z</time>
      </trkpt>
      <trkpt lat="42.293071" lon="2.899622">
        <ele>189.0</ele>
        <time>2018-06-10T08:24:12Z</time>
      </trkpt>
      <trkpt lat="42.293006" lon="2.899359">
        <ele>189.0</ele>
        <time>2018-06-10T08:24:17Z</time>
      </trkpt>
      <trkpt lat="42.292928" lon="2.899072">
        <ele>188.0</ele>
        <time>2018-06-10T08:24:23Z</time>
      </trkpt>
      <trkpt lat="42.292849" lon="2.898777">
        <ele>186.4</ele>
        <time>2018-06-10T08:24:30Z</time>
      </trkpt>
      <trkpt lat="42.292816" lon="2.898620">
        <ele>186.0</ele>
        <time>2018-06-10T08:24:33Z</time>
      </trkpt>
      <trkpt lat="42.292791" lon="2.898444">
        <ele>186.1</ele>
        <time>2018-06-10T08:24:36Z</time>
      </trkpt>
      <trkpt lat="42.292780" lon="2.898341">
        <ele>186.0</ele>
        <time>2018-06-10T08:24:38Z</time>
      </trkpt>
      <trkpt lat="42.292749" lon="2.898246">
        <ele>186.1</ele>
        <time>2018-06-10T08:24:40Z</time>
      </trkpt>
      <trkpt lat="42.292687" lon="2.898139">
        <ele>186.3</ele>
        <time>2018-06-10T08:24:43Z</time>
      </trkpt>
      <trkpt lat="42.292625" lon="2.898056">
        <ele>186.3</ele>
        <time>2018-06-10T08:24:45Z</time>
      </trkpt>
      <trkpt lat="42.292566" lon="2.897947">
        <ele>187.0</ele>
        <time>2018-06-10T08:24:48Z</time>
      </trkpt>
      <trkpt lat="42.292549" lon="2.897906">
        <ele>187.3</ele>
        <time>2018-06-10T08:24:49Z</time>
      </trkpt>
      <trkpt lat="42.292470" lon="2.897706">
        <ele>188.6</ele>
        <time>2018-06-10T08:24:54Z</time>
      </trkpt>
      <trkpt lat="42.292376" lon="2.897459">
        <ele>190.7</ele>
        <time>2018-06-10T08:24:59Z</time>
      </trkpt>
      <trkpt lat="42.292266" lon="2.897124">
        <ele>192.2</ele>
        <time>2018-06-10T08:25:06Z</time>
      </trkpt>
      <trkpt lat="42.292197" lon="2.896903">
        <ele>193.8</ele>
        <time>2018-06-10T08:25:11Z</time>
      </trkpt>
      <trkpt lat="42.292120" lon="2.896610">
        <ele>195.0</ele>
        <time>2018-06-10T08:25:17Z</time>
      </trkpt>
      <trkpt lat="42.292028" lon="2.896219">
        <ele>196.0</ele>
        <time>2018-06-10T08:25:25Z</time>
      </trkpt>
      <trkpt lat="42.291968" lon="2.896033">
        <ele>196.1</ele>
        <time>2018-06-10T08:25:29Z</time>
      </trkpt>
      <trkpt lat="42.291940" lon="2.895984">
        <ele>196.2</ele>
        <time>2018-06-10T08:25:30Z</time>
      </trkpt>
      <trkpt lat="42.291858" lon="2.895926">
        <ele>196.4</ele>
        <time>2018-06-10T08:25:33Z</time>
      </trkpt>
      <trkpt lat="42.291782" lon="2.895884">
        <ele>196.4</ele>
        <time>2018-06-10T08:25:35Z</time>
      </trkpt>
      <trkpt lat="42.291738" lon="2.895836">
        <ele>196.4</ele>
        <time>2018-06-10T08:25:37Z</time>
      </trkpt>
      <trkpt lat="42.291687" lon="2.895743">
        <ele>196.6</ele>
        <time>2018-06-10T08:25:39Z</time>
      </trkpt>
      <trkpt lat="42.291671" lon="2.895711">
        <ele>196.2</ele>
        <time>2018-06-10T08:25:40Z</time>
      </trkpt>
      <trkpt lat="42.291655" lon="2.895659">
        <ele>196.0</ele>
        <time>2018-06-10T08:25:41Z</time>
      </trkpt>
      <trkpt lat="42.291633" lon="2.895520">
        <ele>196.0</ele>
        <time>2018-06-10T08:25:44Z</time>
      </trkpt>
      <trkpt lat="42.291545" lon="2.895193">
        <ele>195.0</ele>
        <time>2018-06-10T08:25:50Z</time>
      </trkpt>
      <trkpt lat="42.291487" lon="2.894947">
        <ele>194.2</ele>
        <time>2018-06-10T08:25:55Z</time>
      </trkpt>
      <trkpt lat="42.291416" lon="2.894694">
        <ele>193.0</ele>
        <time>2018-06-10T08:26:01Z</time>
      </trkpt>
      <trkpt lat="42.291323" lon="2.894365">
        <ele>191.6</ele>
        <time>2018-06-10T08:26:08Z</time>
      </trkpt>
      <trkpt lat="42.291234" lon="2.893789">
        <ele>190.3</ele>
        <time>2018-06-10T08:26:19Z</time>
      </trkpt>
      <trkpt lat="42.291197" lon="2.893626">
        <ele>189.0</ele>
        <time>2018-06-10T08:26:23Z</time>
      </trkpt>
      <trkpt lat="42.291139" lon="2.893502">
        <ele>189.0</ele>
        <time>2018-06-10T08:26:26Z</time>
      </trkpt>
      <trkpt lat="42.291078" lon="2.893385">
        <ele>188.0</ele>
        <time>2018-06-10T08:26:28Z</time>
      </trkpt>
      <trkpt lat="42.291032" lon="2.893312">
        <ele>188.0</ele>
        <time>2018-06-10T08:26:30Z</time>
      </trkpt>
      <trkpt lat="42.290969" lon="2.893238">
        <ele>187.7</ele>
        <time>2018-06-10T08:26:33Z</time>
      </trkpt>
      <trkpt lat="42.290936" lon="2.893198">
        <ele>187.0</ele>
        <time>2018-06-10T08:26:34Z</time>
      </trkpt>
      <trkpt lat="42.290899" lon="2.893167">
        <ele>187.1</ele>
        <time>2018-06-10T08:26:35Z</time>
      </trkpt>
      <trkpt lat="42.290853" lon="2.893135">
        <ele>187.0</ele>
        <time>2018-06-10T08:26:36Z</time>
      </trkpt>
      <trkpt lat="42.290822" lon="2.893124">
        <ele>187.0</ele>
        <time>2018-06-10T08:26:37Z</time>
      </trkpt>
      <trkpt lat="42.290799" lon="2.893104">
        <ele>187.0</ele>
        <time>2018-06-10T08:26:38Z</time>
      </trkpt>
      <trkpt lat="42.290778" lon="2.893072">
        <ele>187.0</ele>
        <time>2018-06-10T08:26:39Z</time>
      </trkpt>
      <trkpt lat="42.290744" lon="2.893015">
        <ele>186.7</ele>
        <time>2018-06-10T08:26:40Z</time>
      </trkpt>
      <trkpt lat="42.290700" lon="2.892977">
        <ele>186.0</ele>
        <time>2018-06-10T08:26:42Z</time>
      </trkpt>
      <trkpt lat="42.290656" lon="2.892939">
        <ele>185.9</ele>
        <time>2018-06-10T08:26:43Z</time>
      </trkpt>
      <trkpt lat="42.290630" lon="2.892899">
        <ele>185.3</ele>
        <time>2018-06-10T08:26:44Z</time>
      </trkpt>
      <trkpt lat="42.290594" lon="2.892823">
        <ele>185.0</ele>
        <time>2018-06-10T08:26:46Z</time>
      </trkpt>
      <trkpt lat="42.290566" lon="2.892736">
        <ele>184.3</ele>
        <time>2018-06-10T08:26:48Z</time>
      </trkpt>
      <trkpt lat="42.290544" lon="2.892646">
        <ele>184.0</ele>
        <time>2018-06-10T08:26:49Z</time>
      </trkpt>
      <trkpt lat="42.290542" lon="2.892566">
        <ele>184.0</ele>
        <time>2018-06-10T08:26:51Z</time>
      </trkpt>
      <trkpt lat="42.290548" lon="2.892463">
        <ele>184.0</ele>
        <time>2018-06-10T08:26:53Z</time>
      </trkpt>
      <trkpt lat="42.290552" lon="2.892196">
        <ele>184.0</ele>
        <time>2018-06-10T08:26:58Z</time>
      </trkpt>
      <trkpt lat="42.290543" lon="2.892021">
        <ele>184.0</ele>
        <time>2018-06-10T08:27:02Z</time>
      </trkpt>
      <trkpt lat="42.290526" lon="2.891872">
        <ele>183.2</ele>
        <time>2018-06-10T08:27:05Z</time>
      </trkpt>
      <trkpt lat="42.290492" lon="2.891799">
        <ele>183.0</ele>
        <time>2018-06-10T08:27:06Z</time>
      </trkpt>
      <trkpt lat="42.290452" lon="2.891742">
        <ele>183.0</ele>
        <time>2018-06-10T08:27:08Z</time>
      </trkpt>
      <trkpt lat="42.290421" lon="2.891689">
        <ele>182.6</ele>
        <time>2018-06-10T08:27:09Z</time>
      </trkpt>
      <trkpt lat="42.290392" lon="2.891582">
        <ele>182.0</ele>
        <time>2018-06-10T08:27:12Z</time>
      </trkpt>
      <trkpt lat="42.290360" lon="2.891464">
        <ele>181.0</ele>
        <time>2018-06-10T08:27:14Z</time>
      </trkpt>
      <trkpt lat="42.290320" lon="2.891360">
        <ele>180.0</ele>
        <time>2018-06-10T08:27:16Z</time>
      </trkpt>
      <trkpt lat="42.290273" lon="2.891281">
        <ele>180.0</ele>
        <time>2018-06-10T08:27:18Z</time>
      </trkpt>
      <trkpt lat="42.290195" lon="2.891182">
        <ele>179.1</ele>
        <time>2018-06-10T08:27:21Z</time>
      </trkpt>
      <trkpt lat="42.290153" lon="2.891140">
        <ele>179.0</ele>
        <time>2018-06-10T08:27:23Z</time>
      </trkpt>
      <trkpt lat="42.290094" lon="2.891083">
        <ele>179.0</ele>
        <time>2018-06-10T08:27:25Z</time>
      </trkpt>
      <trkpt lat="42.290053" lon="2.891029">
        <ele>178.6</ele>
        <time>2018-06-10T08:27:26Z</time>
      </trkpt>
      <trkpt lat="42.290032" lon="2.890943">
        <ele>178.0</ele>
        <time>2018-06-10T08:27:28Z</time>
      </trkpt>
      <trkpt lat="42.290024" lon="2.890814">
        <ele>178.0</ele>
        <time>2018-06-10T08:27:30Z</time>
      </trkpt>
      <trkpt lat="42.290010" lon="2.890695">
        <ele>177.4</ele>
        <time>2018-06-10T08:27:33Z</time>
      </trkpt>
      <trkpt lat="42.289992" lon="2.890602">
        <ele>177.0</ele>
        <time>2018-06-10T08:27:35Z</time>
      </trkpt>
      <trkpt lat="42.289953" lon="2.890479">
        <ele>177.0</ele>
        <time>2018-06-10T08:27:37Z</time>
      </trkpt>
      <trkpt lat="42.289880" lon="2.890353">
        <ele>176.1</ele>
        <time>2018-06-10T08:27:41Z</time>
      </trkpt>
      <trkpt lat="42.289784" lon="2.890192">
        <ele>176.0</ele>
        <time>2018-06-10T08:27:45Z</time>
      </trkpt>
      <trkpt lat="42.289745" lon="2.890034">
        <ele>175.9</ele>
        <time>2018-06-10T08:27:48Z</time>
      </trkpt>
      <trkpt lat="42.289708" lon="2.889860">
        <ele>175.0</ele>
        <time>2018-06-10T08:27:51Z</time>
      </trkpt>
      <trkpt lat="42.289686" lon="2.889763">
        <ele>174.4</ele>
        <time>2018-06-10T08:27:53Z</time>
      </trkpt>
      <trkpt lat="42.289686" lon="2.889716">
        <ele>174.0</ele>
        <time>2018-06-10T08:27:54Z</time>
      </trkpt>
      <trkpt lat="42.289700" lon="2.889647">
        <ele>173.5</ele>
        <time>2018-06-10T08:27:56Z</time>
      </trkpt>
      <trkpt lat="42.289698" lon="2.889539">
        <ele>173.0</ele>
        <time>2018-06-10T08:27:58Z</time>
      </trkpt>
      <trkpt lat="42.289670" lon="2.889384">
        <ele>172.0</ele>
        <time>2018-06-10T08:28:01Z</time>
      </trkpt>
      <trkpt lat="42.289664" lon="2.889227">
        <ele>172.1</ele>
        <time>2018-06-10T08:28:04Z</time>
      </trkpt>
      <trkpt lat="42.289658" lon="2.889151">
        <ele>172.8</ele>
        <time>2018-06-10T08:28:06Z</time>
      </trkpt>
      <trkpt lat="42.289686" lon="2.889068">
        <ele>173.7</ele>
        <time>2018-06-10T08:28:07Z</time>
      </trkpt>
      <trkpt lat="42.289720" lon="2.889026">
        <ele>173.7</ele>
        <time>2018-06-10T08:28:09Z</time>
      </trkpt>
      <trkpt lat="42.289775" lon="2.889024">
        <ele>173.0</ele>
        <time>2018-06-10T08:28:10Z</time>
      </trkpt>
      <trkpt lat="42.289864" lon="2.889001">
        <ele>172.8</ele>
        <time>2018-06-10T08:28:13Z</time>
      </trkpt>
      <trkpt lat="42.289983" lon="2.888929">
        <ele>172.0</ele>
        <time>2018-06-10T08:28:16Z</time>
      </trkpt>
      <trkpt lat="42.290138" lon="2.888791">
        <ele>170.7</ele>
        <time>2018-06-10T08:28:21Z</time>
      </trkpt>
      <trkpt lat="42.290155" lon="2.888759">
        <ele>170.2</ele>
        <time>2018-06-10T08:28:22Z</time>
      </trkpt>
      <trkpt lat="42.290165" lon="2.888703">
        <ele>170.0</ele>
        <time>2018-06-10T08:28:23Z</time>
      </trkpt>
      <trkpt lat="42.290162" lon="2.888618">
        <ele>170.0</ele>
        <time>2018-06-10T08:28:25Z</time>
      </trkpt>
      <trkpt lat="42.290140" lon="2.888481">
        <ele>169.7</ele>
        <time>2018-06-10T08:28:27Z</time>
      </trkpt>
      <trkpt lat="42.290117" lon="2.888384">
        <ele>169.7</ele>
        <time>2018-06-10T08:28:29Z</time>
      </trkpt>
      <trkpt lat="42.290103" lon="2.888271">
        <ele>169.3</ele>
        <time>2018-06-10T08:28:32Z</time>
      </trkpt>
      <trkpt lat="42.290108" lon="2.888179">
        <ele>169.0</ele>
        <time>2018-06-10T08:28:33Z</time>
      </trkpt>
      <trkpt lat="42.290104" lon="2.888058">
        <ele>168.6</ele>
        <time>2018-06-10T08:28:36Z</time>
      </trkpt>
      <trkpt lat="42.290087" lon="2.887936">
        <ele>168.8</ele>
        <time>2018-06-10T08:28:38Z</time>
      </trkpt>
      <trkpt lat="42.290071" lon="2.887819">
        <ele>168.4</ele>
        <time>2018-06-10T08:28:41Z</time>
      </trkpt>
      <trkpt lat="42.290057" lon="2.887730">
        <ele>168.4</ele>
        <time>2018-06-10T08:28:42Z</time>
      </trkpt>
      <trkpt lat="42.290016" lon="2.887616">
        <ele>167.3</ele>
        <time>2018-06-10T08:28:45Z</time>
      </trkpt>
      <trkpt lat="42.289937" lon="2.887464">
        <ele>165.6</ele>
        <time>2018-06-10T08:28:49Z</time>
      </trkpt>
      <trkpt lat="42.289866" lon="2.887354">
        <ele>164.7</ele>
        <time>2018-06-10T08:28:52Z</time>
      </trkpt>
      <trkpt lat="42.289774" lon="2.887247">
        <ele>163.6</ele>
        <time>2018-06-10T08:28:55Z</time>
      </trkpt>
      <trkpt lat="42.289706" lon="2.887167">
        <ele>163.7</ele>
        <time>2018-06-10T08:28:57Z</time>
      </trkpt>
      <trkpt lat="42.289632" lon="2.887081">
        <ele>163.9</ele>
        <time>2018-06-10T08:29:00Z</time>
      </trkpt>
      <trkpt lat="42.289596" lon="2.887045">
        <ele>163.9</ele>
        <time>2018-06-10T08:29:01Z</time>
      </trkpt>
      <trkpt lat="42.289584" lon="2.886982">
        <ele>163.9</ele>
        <time>2018-06-10T08:29:02Z</time>
      </trkpt>
      <trkpt lat="42.289585" lon="2.886881">
        <ele>164.8</ele>
        <time>2018-06-10T08:29:04Z</time>
      </trkpt>
      <trkpt lat="42.289623" lon="2.886710">
        <ele>165.0</ele>
        <time>2018-06-10T08:29:08Z</time>
      </trkpt>
      <trkpt lat="42.289669" lon="2.886580">
        <ele>165.0</ele>
        <time>2018-06-10T08:29:11Z</time>
      </trkpt>
      <trkpt lat="42.289769" lon="2.886435">
        <ele>163.3</ele>
        <time>2018-06-10T08:29:14Z</time>
      </trkpt>
      <trkpt lat="42.289892" lon="2.886225">
        <ele>163.0</ele>
        <time>2018-06-10T08:29:20Z</time>
      </trkpt>
      <trkpt lat="42.289959" lon="2.886127">
        <ele>161.6</ele>
        <time>2018-06-10T08:29:22Z</time>
      </trkpt>
      <trkpt lat="42.290031" lon="2.886040">
        <ele>160.0</ele>
        <time>2018-06-10T08:29:25Z</time>
      </trkpt>
      <trkpt lat="42.290065" lon="2.886004">
        <ele>160.0</ele>
        <time>2018-06-10T08:29:26Z</time>
      </trkpt>
      <trkpt lat="42.290092" lon="2.885981">
        <ele>160.0</ele>
        <time>2018-06-10T08:29:27Z</time>
      </trkpt>
      <trkpt lat="42.290114" lon="2.885951">
        <ele>160.0</ele>
        <time>2018-06-10T08:29:28Z</time>
      </trkpt>
      <trkpt lat="42.290123" lon="2.885907">
        <ele>160.0</ele>
        <time>2018-06-10T08:29:29Z</time>
      </trkpt>
      <trkpt lat="42.290108" lon="2.885834">
        <ele>160.0</ele>
        <time>2018-06-10T08:29:30Z</time>
      </trkpt>
      <trkpt lat="42.290087" lon="2.885754">
        <ele>159.3</ele>
        <time>2018-06-10T08:29:32Z</time>
      </trkpt>
      <trkpt lat="42.290055" lon="2.885677">
        <ele>159.0</ele>
        <time>2018-06-10T08:29:34Z</time>
      </trkpt>
      <trkpt lat="42.290014" lon="2.885624">
        <ele>159.0</ele>
        <time>2018-06-10T08:29:35Z</time>
      </trkpt>
      <trkpt lat="42.289923" lon="2.885430">
        <ele>159.0</ele>
        <time>2018-06-10T08:29:40Z</time>
      </trkpt>
      <trkpt lat="42.289869" lon="2.885338">
        <ele>159.6</ele>
        <time>2018-06-10T08:29:42Z</time>
      </trkpt>
      <trkpt lat="42.289800" lon="2.885263">
        <ele>159.8</ele>
        <time>2018-06-10T08:29:44Z</time>
      </trkpt>
      <trkpt lat="42.289762" lon="2.885204">
        <ele>161.5</ele>
        <time>2018-06-10T08:29:46Z</time>
      </trkpt>
      <trkpt lat="42.289678" lon="2.885153">
        <ele>162.6</ele>
        <time>2018-06-10T08:29:48Z</time>
      </trkpt>
      <trkpt lat="42.289583" lon="2.885134">
        <ele>162.9</ele>
        <time>2018-06-10T08:29:51Z</time>
      </trkpt>
      <trkpt lat="42.289514" lon="2.885114">
        <ele>164.5</ele>
        <time>2018-06-10T08:29:53Z</time>
      </trkpt>
      <trkpt lat="42.289462" lon="2.885099">
        <ele>164.7</ele>
        <time>2018-06-10T08:29:54Z</time>
      </trkpt>
      <trkpt lat="42.289386" lon="2.885056">
        <ele>163.8</ele>
        <time>2018-06-10T08:29:57Z</time>
      </trkpt>
      <trkpt lat="42.289311" lon="2.885011">
        <ele>163.1</ele>
        <time>2018-06-10T08:29:59Z</time>
      </trkpt>
      <trkpt lat="42.289237" lon="2.884903">
        <ele>162.4</ele>
        <time>2018-06-10T08:30:02Z</time>
      </trkpt>
      <trkpt lat="42.289209" lon="2.884814">
        <ele>161.6</ele>
        <time>2018-06-10T08:30:04Z</time>
      </trkpt>
      <trkpt lat="42.289185" lon="2.884741">
        <ele>160.2</ele>
        <time>2018-06-10T08:30:05Z</time>
      </trkpt>
      <trkpt lat="42.289122" lon="2.884620">
        <ele>158.6</ele>
        <time>2018-06-10T08:30:08Z</time>
      </trkpt>
      <trkpt lat="42.289060" lon="2.884468">
        <ele>157.5</ele>
        <time>2018-06-10T08:30:11Z</time>
      </trkpt>
      <trkpt lat="42.289012" lon="2.884377">
        <ele>156.4</ele>
        <time>2018-06-10T08:30:14Z</time>
      </trkpt>
      <trkpt lat="42.288906" lon="2.884214">
        <ele>156.0</ele>
        <time>2018-06-10T08:30:18Z</time>
      </trkpt>
      <trkpt lat="42.288803" lon="2.884037">
        <ele>156.0</ele>
        <time>2018-06-10T08:30:22Z</time>
      </trkpt>
      <trkpt lat="42.288760" lon="2.883905">
        <ele>157.0</ele>
        <time>2018-06-10T08:30:25Z</time>
      </trkpt>
      <trkpt lat="42.288733" lon="2.883774">
        <ele>157.1</ele>
        <time>2018-06-10T08:30:28Z</time>
      </trkpt>
      <trkpt lat="42.288735" lon="2.883677">
        <ele>157.3</ele>
        <time>2018-06-10T08:30:30Z</time>
      </trkpt>
      <trkpt lat="42.288727" lon="2.883529">
        <ele>158.1</ele>
        <time>2018-06-10T08:30:33Z</time>
      </trkpt>
      <trkpt lat="42.288697" lon="2.883373">
        <ele>159.0</ele>
        <time>2018-06-10T08:30:36Z</time>
      </trkpt>
      <trkpt lat="42.288644" lon="2.883181">
        <ele>160.0</ele>
        <time>2018-06-10T08:30:40Z</time>
      </trkpt>
      <trkpt lat="42.288580" lon="2.882946">
        <ele>162.0</ele>
        <time>2018-06-10T08:30:45Z</time>
      </trkpt>
      <trkpt lat="42.288540" lon="2.882757">
        <ele>162.2</ele>
        <time>2018-06-10T08:30:49Z</time>
      </trkpt>
      <trkpt lat="42.288530" lon="2.882692">
        <ele>162.8</ele>
        <time>2018-06-10T08:30:50Z</time>
      </trkpt>
      <trkpt lat="42.288481" lon="2.882545">
        <ele>162.9</ele>
        <time>2018-06-10T08:30:53Z</time>
      </trkpt>
      <trkpt lat="42.288415" lon="2.882415">
        <ele>162.8</ele>
        <time>2018-06-10T08:30:56Z</time>
      </trkpt>
      <trkpt lat="42.288353" lon="2.882342">
        <ele>162.0</ele>
        <time>2018-06-10T08:30:59Z</time>
      </trkpt>
      <trkpt lat="42.288269" lon="2.882298">
        <ele>161.0</ele>
        <time>2018-06-10T08:31:01Z</time>
      </trkpt>
      <trkpt lat="42.288160" lon="2.882262">
        <ele>161.0</ele>
        <time>2018-06-10T08:31:04Z</time>
      </trkpt>
      <trkpt lat="42.288118" lon="2.882243">
        <ele>161.0</ele>
        <time>2018-06-10T08:31:05Z</time>
      </trkpt>
      <trkpt lat="42.288107" lon="2.882189">
        <ele>160.5</ele>
        <time>2018-06-10T08:31:06Z</time>
      </trkpt>
      <trkpt lat="42.288100" lon="2.882127">
        <ele>160.0</ele>
        <time>2018-06-10T08:31:08Z</time>
      </trkpt>
      <trkpt lat="42.288114" lon="2.882061">
        <ele>159.6</ele>
        <time>2018-06-10T08:31:09Z</time>
      </trkpt>
      <trkpt lat="42.288130" lon="2.882005">
        <ele>158.5</ele>
        <time>2018-06-10T08:31:10Z</time>
      </trkpt>
      <trkpt lat="42.288137" lon="2.881942">
        <ele>157.4</ele>
        <time>2018-06-10T08:31:11Z</time>
      </trkpt>
      <trkpt lat="42.288134" lon="2.881874">
        <ele>156.3</ele>
        <time>2018-06-10T08:31:13Z</time>
      </trkpt>
      <trkpt lat="42.288133" lon="2.881754">
        <ele>156.0</ele>
        <time>2018-06-10T08:31:15Z</time>
      </trkpt>
      <trkpt lat="42.288150" lon="2.881645">
        <ele>155.0</ele>
        <time>2018-06-10T08:31:17Z</time>
      </trkpt>
      <trkpt lat="42.288180" lon="2.881549">
        <ele>154.9</ele>
        <time>2018-06-10T08:31:19Z</time>
      </trkpt>
      <trkpt lat="42.288218" lon="2.881459">
        <ele>153.4</ele>
        <time>2018-06-10T08:31:21Z</time>
      </trkpt>
      <trkpt lat="42.288218" lon="2.881384">
        <ele>153.0</ele>
        <time>2018-06-10T08:31:23Z</time>
      </trkpt>
      <trkpt lat="42.288187" lon="2.881315">
        <ele>153.0</ele>
        <time>2018-06-10T08:31:25Z</time>
      </trkpt>
      <trkpt lat="42.288119" lon="2.881240">
        <ele>152.0</ele>
        <time>2018-06-10T08:31:27Z</time>
      </trkpt>
      <trkpt lat="42.288051" lon="2.881181">
        <ele>151.8</ele>
        <time>2018-06-10T08:31:29Z</time>
      </trkpt>
      <trkpt lat="42.287984" lon="2.881120">
        <ele>150.8</ele>
        <time>2018-06-10T08:31:31Z</time>
      </trkpt>
      <trkpt lat="42.287930" lon="2.881069">
        <ele>150.0</ele>
        <time>2018-06-10T08:31:33Z</time>
      </trkpt>
      <trkpt lat="42.287889" lon="2.881022">
        <ele>150.0</ele>
        <time>2018-06-10T08:31:34Z</time>
      </trkpt>
      <trkpt lat="42.287870" lon="2.880965">
        <ele>150.0</ele>
        <time>2018-06-10T08:31:36Z</time>
      </trkpt>
      <trkpt lat="42.287888" lon="2.880917">
        <ele>150.0</ele>
        <time>2018-06-10T08:31:37Z</time>
      </trkpt>
      <trkpt lat="42.287914" lon="2.880853">
        <ele>150.6</ele>
        <time>2018-06-10T08:31:38Z</time>
      </trkpt>
      <trkpt lat="42.287961" lon="2.880785">
        <ele>151.1</ele>
        <time>2018-06-10T08:31:40Z</time>
      </trkpt>
      <trkpt lat="42.287979" lon="2.880749">
        <ele>151.7</ele>
        <time>2018-06-10T08:31:41Z</time>
      </trkpt>
      <trkpt lat="42.287994" lon="2.880697">
        <ele>152.1</ele>
        <time>2018-06-10T08:31:42Z</time>
      </trkpt>
      <trkpt lat="42.287987" lon="2.880642">
        <ele>153.0</ele>
        <time>2018-06-10T08:31:43Z</time>
      </trkpt>
      <trkpt lat="42.287963" lon="2.880567">
        <ele>153.1</ele>
        <time>2018-06-10T08:31:45Z</time>
      </trkpt>
      <trkpt lat="42.287916" lon="2.880326">
        <ele>154.2</ele>
        <time>2018-06-10T08:31:50Z</time>
      </trkpt>
      <trkpt lat="42.287875" lon="2.880248">
        <ele>153.8</ele>
        <time>2018-06-10T08:31:51Z</time>
      </trkpt>
      <trkpt lat="42.287856" lon="2.880167">
        <ele>153.9</ele>
        <time>2018-06-10T08:31:53Z</time>
      </trkpt>
      <trkpt lat="42.287797" lon="2.879986">
        <ele>154.5</ele>
        <time>2018-06-10T08:31:57Z</time>
      </trkpt>
      <trkpt lat="42.287764" lon="2.879921">
        <ele>154.0</ele>
        <time>2018-06-10T08:31:59Z</time>
      </trkpt>
      <trkpt lat="42.287740" lon="2.879857">
        <ele>154.3</ele>
        <time>2018-06-10T08:32:00Z</time>
      </trkpt>
      <trkpt lat="42.287738" lon="2.879783">
        <ele>155.1</ele>
        <time>2018-06-10T08:32:01Z</time>
      </trkpt>
      <trkpt lat="42.287756" lon="2.879736">
        <ele>155.6</ele>
        <time>2018-06-10T08:32:03Z</time>
      </trkpt>
      <trkpt lat="42.287759" lon="2.879698">
        <ele>156.3</ele>
        <time>2018-06-10T08:32:03Z</time>
      </trkpt>
      <trkpt lat="42.287745" lon="2.879657">
        <ele>156.7</ele>
        <time>2018-06-10T08:32:04Z</time>
      </trkpt>
      <trkpt lat="42.287710" lon="2.879618">
        <ele>156.6</ele>
        <time>2018-06-10T08:32:05Z</time>
      </trkpt>
      <trkpt lat="42.287671" lon="2.879595">
        <ele>156.2</ele>
        <time>2018-06-10T08:32:07Z</time>
      </trkpt>
      <trkpt lat="42.287626" lon="2.879560">
        <ele>156.0</ele>
        <time>2018-06-10T08:32:08Z</time>
      </trkpt>
      <trkpt lat="42.287575" lon="2.879496">
        <ele>156.0</ele>
        <time>2018-06-10T08:32:10Z</time>
      </trkpt>
      <trkpt lat="42.287479" lon="2.879335">
        <ele>156.3</ele>
        <time>2018-06-10T08:32:14Z</time>
      </trkpt>
      <trkpt lat="42.287224" lon="2.878870">
        <ele>155.6</ele>
        <time>2018-06-10T08:32:25Z</time>
      </trkpt>
      <trkpt lat="42.287184" lon="2.878693">
        <ele>153.8</ele>
        <time>2018-06-10T08:32:29Z</time>
      </trkpt>
      <trkpt lat="42.287156" lon="2.878509">
        <ele>154.9</ele>
        <time>2018-06-10T08:32:33Z</time>
      </trkpt>
      <trkpt lat="42.287146" lon="2.878418">
        <ele>156.0</ele>
        <time>2018-06-10T08:32:34Z</time>
      </trkpt>
      <trkpt lat="42.287154" lon="2.878341">
        <ele>156.0</ele>
        <time>2018-06-10T08:32:36Z</time>
      </trkpt>
      <trkpt lat="42.287180" lon="2.878199">
        <ele>155.0</ele>
        <time>2018-06-10T08:32:39Z</time>
      </trkpt>
      <trkpt lat="42.287206" lon="2.878067">
        <ele>155.0</ele>
        <time>2018-06-10T08:32:42Z</time>
      </trkpt>
      <trkpt lat="42.287239" lon="2.877967">
        <ele>155.0</ele>
        <time>2018-06-10T08:32:44Z</time>
      </trkpt>
      <trkpt lat="42.287282" lon="2.877883">
        <ele>155.0</ele>
        <time>2018-06-10T08:32:46Z</time>
      </trkpt>
      <trkpt lat="42.287301" lon="2.877823">
        <ele>155.0</ele>
        <time>2018-06-10T08:32:47Z</time>
      </trkpt>
      <trkpt lat="42.287292" lon="2.877756">
        <ele>155.7</ele>
        <time>2018-06-10T08:32:48Z</time>
      </trkpt>
      <trkpt lat="42.287275" lon="2.877698">
        <ele>156.0</ele>
        <time>2018-06-10T08:32:50Z</time>
      </trkpt>
      <trkpt lat="42.287237" lon="2.877657">
        <ele>156.3</ele>
        <time>2018-06-10T08:32:51Z</time>
      </trkpt>
      <trkpt lat="42.287175" lon="2.877634">
        <ele>156.7</ele>
        <time>2018-06-10T08:32:53Z</time>
      </trkpt>
      <trkpt lat="42.287114" lon="2.877626">
        <ele>156.9</ele>
        <time>2018-06-10T08:32:54Z</time>
      </trkpt>
      <trkpt lat="42.287053" lon="2.877630">
        <ele>157.7</ele>
        <time>2018-06-10T08:32:56Z</time>
      </trkpt>
      <trkpt lat="42.286987" lon="2.877600">
        <ele>158.0</ele>
        <time>2018-06-10T08:32:58Z</time>
      </trkpt>
      <trkpt lat="42.286964" lon="2.877581">
        <ele>158.0</ele>
        <time>2018-06-10T08:32:58Z</time>
      </trkpt>
      <trkpt lat="42.286911" lon="2.877493">
        <ele>159.0</ele>
        <time>2018-06-10T08:33:01Z</time>
      </trkpt>
      <trkpt lat="42.286789" lon="2.877317">
        <ele>159.9</ele>
        <time>2018-06-10T08:33:05Z</time>
      </trkpt>
      <trkpt lat="42.286754" lon="2.877250">
        <ele>160.0</ele>
        <time>2018-06-10T08:33:07Z</time>
      </trkpt>
      <trkpt lat="42.286740" lon="2.877141">
        <ele>160.0</ele>
        <time>2018-06-10T08:33:09Z</time>
      </trkpt>
      <trkpt lat="42.286747" lon="2.877070">
        <ele>160.0</ele>
        <time>2018-06-10T08:33:11Z</time>
      </trkpt>
      <trkpt lat="42.286776" lon="2.877027">
        <ele>160.7</ele>
        <time>2018-06-10T08:33:12Z</time>
      </trkpt>
      <trkpt lat="42.287137" lon="2.877293">
        <ele>159.3</ele>
        <time>2018-06-10T08:33:23Z</time>
      </trkpt>
      <trkpt lat="42.287461" lon="2.877486">
        <ele>157.1</ele>
        <time>2018-06-10T08:33:32Z</time>
      </trkpt>
      <trkpt lat="42.287569" lon="2.877535">
        <ele>158.2</ele>
        <time>2018-06-10T08:33:35Z</time>
      </trkpt>
      <trkpt lat="42.287713" lon="2.877486">
        <ele>157.3</ele>
        <time>2018-06-10T08:33:39Z</time>
      </trkpt>
      <trkpt lat="42.287965" lon="2.877316">
        <ele>158.5</ele>
        <time>2018-06-10T08:33:47Z</time>
      </trkpt>
      <trkpt lat="42.288216" lon="2.877180">
        <ele>159.3</ele>
        <time>2018-06-10T08:33:54Z</time>
      </trkpt>
      <trkpt lat="42.288311" lon="2.877080">
        <ele>160.5</ele>
        <time>2018-06-10T08:33:57Z</time>
      </trkpt>
      <trkpt lat="42.288654" lon="2.876827">
        <ele>161.2</ele>
        <time>2018-06-10T08:34:07Z</time>
      </trkpt>
      <trkpt lat="42.288822" lon="2.876711">
        <ele>161.4</ele>
        <time>2018-06-10T08:34:13Z</time>
      </trkpt>
      <trkpt lat="42.288933" lon="2.876605">
        <ele>161.7</ele>
        <time>2018-06-10T08:34:16Z</time>
      </trkpt>
      <trkpt lat="42.289223" lon="2.876386">
        <ele>162.2</ele>
        <time>2018-06-10T08:34:25Z</time>
      </trkpt>
      <trkpt lat="42.289558" lon="2.876137">
        <ele>163.1</ele>
        <time>2018-06-10T08:34:35Z</time>
      </trkpt>
      <trkpt lat="42.289765" lon="2.875940">
        <ele>163.8</ele>
        <time>2018-06-10T08:34:42Z</time>
      </trkpt>
      <trkpt lat="42.289990" lon="2.875773">
        <ele>164.2</ele>
        <time>2018-06-10T08:34:49Z</time>
      </trkpt>
      <trkpt lat="42.290153" lon="2.875618">
        <ele>164.0</ele>
        <time>2018-06-10T08:34:54Z</time>
      </trkpt>
      <trkpt lat="42.290246" lon="2.875516">
        <ele>164.0</ele>
        <time>2018-06-10T08:34:57Z</time>
      </trkpt>
      <trkpt lat="42.290394" lon="2.875386">
        <ele>163.6</ele>
        <time>2018-06-10T08:35:02Z</time>
      </trkpt>
      <trkpt lat="42.290590" lon="2.875206">
        <ele>163.6</ele>
        <time>2018-06-10T08:35:08Z</time>
      </trkpt>
      <trkpt lat="42.290646" lon="2.875188">
        <ele>163.9</ele>
        <time>2018-06-10T08:35:10Z</time>
      </trkpt>
      <trkpt lat="42.290692" lon="2.875173">
        <ele>164.0</ele>
        <time>2018-06-10T08:35:11Z</time>
      </trkpt>
      <trkpt lat="42.290824" lon="2.875078">
        <ele>162.8</ele>
        <time>2018-06-10T08:35:15Z</time>
      </trkpt>
      <trkpt lat="42.290898" lon="2.874991">
        <ele>163.0</ele>
        <time>2018-06-10T08:35:18Z</time>
      </trkpt>
      <trkpt lat="42.290935" lon="2.874929">
        <ele>162.3</ele>
        <time>2018-06-10T08:35:19Z</time>
      </trkpt>
      <trkpt lat="42.290942" lon="2.874869">
        <ele>162.5</ele>
        <time>2018-06-10T08:35:20Z</time>
      </trkpt>
      <trkpt lat="42.290928" lon="2.874662">
        <ele>163.8</ele>
        <time>2018-06-10T08:35:24Z</time>
      </trkpt>
      <trkpt lat="42.290901" lon="2.874487">
        <ele>164.4</ele>
        <time>2018-06-10T08:35:28Z</time>
      </trkpt>
      <trkpt lat="42.290869" lon="2.874332">
        <ele>165.0</ele>
        <time>2018-06-10T08:35:31Z</time>
      </trkpt>
      <trkpt lat="42.290822" lon="2.874156">
        <ele>166.0</ele>
        <time>2018-06-10T08:35:35Z</time>
      </trkpt>
      <trkpt lat="42.290768" lon="2.873996">
        <ele>166.0</ele>
        <time>2018-06-10T08:35:38Z</time>
      </trkpt>
      <trkpt lat="42.290713" lon="2.873800">
        <ele>166.5</ele>
        <time>2018-06-10T08:35:42Z</time>
      </trkpt>
      <trkpt lat="42.290696" lon="2.873577">
        <ele>167.0</ele>
        <time>2018-06-10T08:35:47Z</time>
      </trkpt>
      <trkpt lat="42.290691" lon="2.873318">
        <ele>168.0</ele>
        <time>2018-06-10T08:35:52Z</time>
      </trkpt>
      <trkpt lat="42.290682" lon="2.872967">
        <ele>169.0</ele>
        <time>2018-06-10T08:35:59Z</time>
      </trkpt>
      <trkpt lat="42.290658" lon="2.872209">
        <ele>171.0</ele>
        <time>2018-06-10T08:36:14Z</time>
      </trkpt>
      <trkpt lat="42.290654" lon="2.871934">
        <ele>171.0</ele>
        <time>2018-06-10T08:36:19Z</time>
      </trkpt>
      <trkpt lat="42.290631" lon="2.871849">
        <ele>171.3</ele>
        <time>2018-06-10T08:36:21Z</time>
      </trkpt>
      <trkpt lat="42.290593" lon="2.871768">
        <ele>172.0</ele>
        <time>2018-06-10T08:36:23Z</time>
      </trkpt>
      <trkpt lat="42.290519" lon="2.871693">
        <ele>172.4</ele>
        <time>2018-06-10T08:36:25Z</time>
      </trkpt>
      <trkpt lat="42.290427" lon="2.871637">
        <ele>172.6</ele>
        <time>2018-06-10T08:36:28Z</time>
      </trkpt>
      <trkpt lat="42.290360" lon="2.871608">
        <ele>172.4</ele>
        <time>2018-06-10T08:36:30Z</time>
      </trkpt>
      <trkpt lat="42.290285" lon="2.871607">
        <ele>173.0</ele>
        <time>2018-06-10T08:36:32Z</time>
      </trkpt>
      <trkpt lat="42.290234" lon="2.871615">
        <ele>173.3</ele>
        <time>2018-06-10T08:36:33Z</time>
      </trkpt>
      <trkpt lat="42.290050" lon="2.871664">
        <ele>175.2</ele>
        <time>2018-06-10T08:36:38Z</time>
      </trkpt>
      <trkpt lat="42.289945" lon="2.871669">
        <ele>176.0</ele>
        <time>2018-06-10T08:36:41Z</time>
      </trkpt>
      <trkpt lat="42.289906" lon="2.871661">
        <ele>176.5</ele>
        <time>2018-06-10T08:36:42Z</time>
      </trkpt>
      <trkpt lat="42.289874" lon="2.871624">
        <ele>177.1</ele>
        <time>2018-06-10T08:36:43Z</time>
      </trkpt>
      <trkpt lat="42.289826" lon="2.871575">
        <ele>178.1</ele>
        <time>2018-06-10T08:36:45Z</time>
      </trkpt>
      <trkpt lat="42.289797" lon="2.871565">
        <ele>178.5</ele>
        <time>2018-06-10T08:36:46Z</time>
      </trkpt>
      <trkpt lat="42.289747" lon="2.871566">
        <ele>178.6</ele>
        <time>2018-06-10T08:36:47Z</time>
      </trkpt>
      <trkpt lat="42.289698" lon="2.871566">
        <ele>179.6</ele>
        <time>2018-06-10T08:36:48Z</time>
      </trkpt>
      <trkpt lat="42.289552" lon="2.871557">
        <ele>181.1</ele>
        <time>2018-06-10T08:36:52Z</time>
      </trkpt>
      <trkpt lat="42.289495" lon="2.871541">
        <ele>182.1</ele>
        <time>2018-06-10T08:36:54Z</time>
      </trkpt>
      <trkpt lat="42.289458" lon="2.871531">
        <ele>182.5</ele>
        <time>2018-06-10T08:36:55Z</time>
      </trkpt>
      <trkpt lat="42.289443" lon="2.871506">
        <ele>182.9</ele>
        <time>2018-06-10T08:36:56Z</time>
      </trkpt>
      <trkpt lat="42.289439" lon="2.871470">
        <ele>183.2</ele>
        <time>2018-06-10T08:36:56Z</time>
      </trkpt>
      <trkpt lat="42.289446" lon="2.871390">
        <ele>183.8</ele>
        <time>2018-06-10T08:36:58Z</time>
      </trkpt>
      <trkpt lat="42.289480" lon="2.871250">
        <ele>184.7</ele>
        <time>2018-06-10T08:37:01Z</time>
      </trkpt>
      <trkpt lat="42.289531" lon="2.871148">
        <ele>185.0</ele>
        <time>2018-06-10T08:37:03Z</time>
      </trkpt>
      <trkpt lat="42.289554" lon="2.871069">
        <ele>185.0</ele>
        <time>2018-06-10T08:37:05Z</time>
      </trkpt>
      <trkpt lat="42.289545" lon="2.870977">
        <ele>185.4</ele>
        <time>2018-06-10T08:37:07Z</time>
      </trkpt>
      <trkpt lat="42.289528" lon="2.870908">
        <ele>186.0</ele>
        <time>2018-06-10T08:37:08Z</time>
      </trkpt>
      <trkpt lat="42.289500" lon="2.870886">
        <ele>186.0</ele>
        <time>2018-06-10T08:37:09Z</time>
      </trkpt>
      <trkpt lat="42.289463" lon="2.870880">
        <ele>186.2</ele>
        <time>2018-06-10T08:37:10Z</time>
      </trkpt>
      <trkpt lat="42.289386" lon="2.870903">
        <ele>187.5</ele>
        <time>2018-06-10T08:37:12Z</time>
      </trkpt>
      <trkpt lat="42.289265" lon="2.870925">
        <ele>189.6</ele>
        <time>2018-06-10T08:37:15Z</time>
      </trkpt>
      <trkpt lat="42.289208" lon="2.870913">
        <ele>190.4</ele>
        <time>2018-06-10T08:37:17Z</time>
      </trkpt>
      <trkpt lat="42.289155" lon="2.870916">
        <ele>191.0</ele>
        <time>2018-06-10T08:37:18Z</time>
      </trkpt>
      <trkpt lat="42.289086" lon="2.870913">
        <ele>191.8</ele>
        <time>2018-06-10T08:37:20Z</time>
      </trkpt>
      <trkpt lat="42.289019" lon="2.870898">
        <ele>192.8</ele>
        <time>2018-06-10T08:37:22Z</time>
      </trkpt>
      <trkpt lat="42.288987" lon="2.870849">
        <ele>193.8</ele>
        <time>2018-06-10T08:37:23Z</time>
      </trkpt>
      <trkpt lat="42.288928" lon="2.870754">
        <ele>195.0</ele>
        <time>2018-06-10T08:37:26Z</time>
      </trkpt>
      <trkpt lat="42.288835" lon="2.870470">
        <ele>197.1</ele>
        <time>2018-06-10T08:37:32Z</time>
      </trkpt>
      <trkpt lat="42.288689" lon="2.869971">
        <ele>197.4</ele>
        <time>2018-06-10T08:37:43Z</time>
      </trkpt>
      <trkpt lat="42.288632" lon="2.869808">
        <ele>197.8</ele>
        <time>2018-06-10T08:37:46Z</time>
      </trkpt>
      <trkpt lat="42.288608" lon="2.869743">
        <ele>198.2</ele>
        <time>2018-06-10T08:37:47Z</time>
      </trkpt>
      <trkpt lat="42.288600" lon="2.869687">
        <ele>198.8</ele>
        <time>2018-06-10T08:37:49Z</time>
      </trkpt>
      <trkpt lat="42.288596" lon="2.869615">
        <ele>199.0</ele>
        <time>2018-06-10T08:37:50Z</time>
      </trkpt>
      <trkpt lat="42.288601" lon="2.869530">
        <ele>199.5</ele>
        <time>2018-06-10T08:37:52Z</time>
      </trkpt>
      <trkpt lat="42.288624" lon="2.869440">
        <ele>200.0</ele>
        <time>2018-06-10T08:37:54Z</time>
      </trkpt>
      <trkpt lat="42.288684" lon="2.869284">
        <ele>199.8</ele>
        <time>2018-06-10T08:37:57Z</time>
      </trkpt>
      <trkpt lat="42.288731" lon="2.869175">
        <ele>199.0</ele>
        <time>2018-06-10T08:38:00Z</time>
      </trkpt>
      <trkpt lat="42.288781" lon="2.869010">
        <ele>199.0</ele>
        <time>2018-06-10T08:38:03Z</time>
      </trkpt>
      <trkpt lat="42.288811" lon="2.868882">
        <ele>198.0</ele>
        <time>2018-06-10T08:38:06Z</time>
      </trkpt>
      <trkpt lat="42.288830" lon="2.868795">
        <ele>198.0</ele>
        <time>2018-06-10T08:38:08Z</time>
      </trkpt>
      <trkpt lat="42.288842" lon="2.868694">
        <ele>198.0</ele>
        <time>2018-06-10T08:38:10Z</time>
      </trkpt>
      <trkpt lat="42.288833" lon="2.868638">
        <ele>197.1</ele>
        <time>2018-06-10T08:38:11Z</time>
      </trkpt>
      <trkpt lat="42.288786" lon="2.868546">
        <ele>197.0</ele>
        <time>2018-06-10T08:38:13Z</time>
      </trkpt>
      <trkpt lat="42.288681" lon="2.868328">
        <ele>196.5</ele>
        <time>2018-06-10T08:38:18Z</time>
      </trkpt>
      <trkpt lat="42.288633" lon="2.868233">
        <ele>196.0</ele>
        <time>2018-06-10T08:38:20Z</time>
      </trkpt>
      <trkpt lat="42.288428" lon="2.867903">
        <ele>195.0</ele>
        <time>2018-06-10T08:38:29Z</time>
      </trkpt>
      <trkpt lat="42.288420" lon="2.867886">
        <ele>194.9</ele>
        <time>2018-06-10T08:38:29Z</time>
      </trkpt>
      <trkpt lat="42.288288" lon="2.867736">
        <ele>194.0</ele>
        <time>2018-06-10T08:38:34Z</time>
      </trkpt>
      <trkpt lat="42.288159" lon="2.867629">
        <ele>193.0</ele>
        <time>2018-06-10T08:38:38Z</time>
      </trkpt>
      <trkpt lat="42.288080" lon="2.867585">
        <ele>193.0</ele>
        <time>2018-06-10T08:38:40Z</time>
      </trkpt>
      <trkpt lat="42.287980" lon="2.867556">
        <ele>192.2</ele>
        <time>2018-06-10T08:38:43Z</time>
      </trkpt>
      <trkpt lat="42.287765" lon="2.867495">
        <ele>192.0</ele>
        <time>2018-06-10T08:38:49Z</time>
      </trkpt>
      <trkpt lat="42.287651" lon="2.867472">
        <ele>191.0</ele>
        <time>2018-06-10T08:38:52Z</time>
      </trkpt>
      <trkpt lat="42.287561" lon="2.867473">
        <ele>190.6</ele>
        <time>2018-06-10T08:38:54Z</time>
      </trkpt>
      <trkpt lat="42.287422" lon="2.867549">
        <ele>190.0</ele>
        <time>2018-06-10T08:38:58Z</time>
      </trkpt>
      <trkpt lat="42.287179" lon="2.867729">
        <ele>189.0</ele>
        <time>2018-06-10T08:39:05Z</time>
      </trkpt>
      <trkpt lat="42.287012" lon="2.867822">
        <ele>190.0</ele>
        <time>2018-06-10T08:39:10Z</time>
      </trkpt>
      <trkpt lat="42.286869" lon="2.867862">
        <ele>190.0</ele>
        <time>2018-06-10T08:39:14Z</time>
      </trkpt>
      <trkpt lat="42.286628" lon="2.867881">
        <ele>190.0</ele>
        <time>2018-06-10T08:39:21Z</time>
      </trkpt>
      <trkpt lat="42.286560" lon="2.867910">
        <ele>190.0</ele>
        <time>2018-06-10T08:39:23Z</time>
      </trkpt>
      <trkpt lat="42.286525" lon="2.867952">
        <ele>189.3</ele>
        <time>2018-06-10T08:39:24Z</time>
      </trkpt>
      <trkpt lat="42.286511" lon="2.867987">
        <ele>188.8</ele>
        <time>2018-06-10T08:39:25Z</time>
      </trkpt>
      <trkpt lat="42.286501" lon="2.868010">
        <ele>188.4</ele>
        <time>2018-06-10T08:39:25Z</time>
      </trkpt>
      <trkpt lat="42.286482" lon="2.868031">
        <ele>188.0</ele>
        <time>2018-06-10T08:39:26Z</time>
      </trkpt>
      <trkpt lat="42.286463" lon="2.868043">
        <ele>187.8</ele>
        <time>2018-06-10T08:39:26Z</time>
      </trkpt>
      <trkpt lat="42.286445" lon="2.868028">
        <ele>188.1</ele>
        <time>2018-06-10T08:39:27Z</time>
      </trkpt>
      <trkpt lat="42.286417" lon="2.868000">
        <ele>188.6</ele>
        <time>2018-06-10T08:39:28Z</time>
      </trkpt>
      <trkpt lat="42.286373" lon="2.867962">
        <ele>189.0</ele>
        <time>2018-06-10T08:39:29Z</time>
      </trkpt>
      <trkpt lat="42.286292" lon="2.867922">
        <ele>189.0</ele>
        <time>2018-06-10T08:39:31Z</time>
      </trkpt>
      <trkpt lat="42.286209" lon="2.867923">
        <ele>188.8</ele>
        <time>2018-06-10T08:39:34Z</time>
      </trkpt>
      <trkpt lat="42.286005" lon="2.867930">
        <ele>187.0</ele>
        <time>2018-06-10T08:39:39Z</time>
      </trkpt>
      <trkpt lat="42.285710" lon="2.867968">
        <ele>185.0</ele>
        <time>2018-06-10T08:39:47Z</time>
      </trkpt>
      <trkpt lat="42.285613" lon="2.868006">
        <ele>184.5</ele>
        <time>2018-06-10T08:39:50Z</time>
      </trkpt>
      <trkpt lat="42.285454" lon="2.868119">
        <ele>182.9</ele>
        <time>2018-06-10T08:39:55Z</time>
      </trkpt>
      <trkpt lat="42.285389" lon="2.868172">
        <ele>182.0</ele>
        <time>2018-06-10T08:39:57Z</time>
      </trkpt>
      <trkpt lat="42.285328" lon="2.868228">
        <ele>182.0</ele>
        <time>2018-06-10T08:39:59Z</time>
      </trkpt>
      <trkpt lat="42.285292" lon="2.868242">
        <ele>181.2</ele>
        <time>2018-06-10T08:40:00Z</time>
      </trkpt>
      <trkpt lat="42.285238" lon="2.868234">
        <ele>181.0</ele>
        <time>2018-06-10T08:40:01Z</time>
      </trkpt>
      <trkpt lat="42.285191" lon="2.868189">
        <ele>180.0</ele>
        <time>2018-06-10T08:40:03Z</time>
      </trkpt>
      <trkpt lat="42.285154" lon="2.868130">
        <ele>180.0</ele>
        <time>2018-06-10T08:40:04Z</time>
      </trkpt>
      <trkpt lat="42.284962" lon="2.867943">
        <ele>176.9</ele>
        <time>2018-06-10T08:40:10Z</time>
      </trkpt>
      <trkpt lat="42.284893" lon="2.867857">
        <ele>175.4</ele>
        <time>2018-06-10T08:40:13Z</time>
      </trkpt>
      <trkpt lat="42.284821" lon="2.867736">
        <ele>173.8</ele>
        <time>2018-06-10T08:40:16Z</time>
      </trkpt>
      <trkpt lat="42.284721" lon="2.867454">
        <ele>171.7</ele>
        <time>2018-06-10T08:40:22Z</time>
      </trkpt>
      <trkpt lat="42.284669" lon="2.867309">
        <ele>170.4</ele>
        <time>2018-06-10T08:40:25Z</time>
      </trkpt>
      <trkpt lat="42.284653" lon="2.867217">
        <ele>169.0</ele>
        <time>2018-06-10T08:40:27Z</time>
      </trkpt>
      <trkpt lat="42.284635" lon="2.867078">
        <ele>168.1</ele>
        <time>2018-06-10T08:40:30Z</time>
      </trkpt>
      <trkpt lat="42.284612" lon="2.866749">
        <ele>166.2</ele>
        <time>2018-06-10T08:40:37Z</time>
      </trkpt>
      <trkpt lat="42.284586" lon="2.866526">
        <ele>164.7</ele>
        <time>2018-06-10T08:40:41Z</time>
      </trkpt>
      <trkpt lat="42.284546" lon="2.866409">
        <ele>163.7</ele>
        <time>2018-06-10T08:40:44Z</time>
      </trkpt>
      <trkpt lat="42.284498" lon="2.866330">
        <ele>162.6</ele>
        <time>2018-06-10T08:40:46Z</time>
      </trkpt>
      <trkpt lat="42.284450" lon="2.866287">
        <ele>161.6</ele>
        <time>2018-06-10T08:40:47Z</time>
      </trkpt>
      <trkpt lat="42.284385" lon="2.866289">
        <ele>160.3</ele>
        <time>2018-06-10T08:40:49Z</time>
      </trkpt>
      <trkpt lat="42.284305" lon="2.866332">
        <ele>159.3</ele>
        <time>2018-06-10T08:40:51Z</time>
      </trkpt>
      <trkpt lat="42.284220" lon="2.866414">
        <ele>158.6</ele>
        <time>2018-06-10T08:40:54Z</time>
      </trkpt>
      <trkpt lat="42.284213" lon="2.866427">
        <ele>158.6</ele>
        <time>2018-06-10T08:40:54Z</time>
      </trkpt>
      <trkpt lat="42.284174" lon="2.866496">
        <ele>158.4</ele>
        <time>2018-06-10T08:40:56Z</time>
      </trkpt>
      <trkpt lat="42.284085" lon="2.866528">
        <ele>157.5</ele>
        <time>2018-06-10T08:40:59Z</time>
      </trkpt>
      <trkpt lat="42.284014" lon="2.866526">
        <ele>156.1</ele>
        <time>2018-06-10T08:41:00Z</time>
      </trkpt>
      <trkpt lat="42.283927" lon="2.866543">
        <ele>155.0</ele>
        <time>2018-06-10T08:41:03Z</time>
      </trkpt>
      <trkpt lat="42.283847" lon="2.866572">
        <ele>154.0</ele>
        <time>2018-06-10T08:41:05Z</time>
      </trkpt>
      <trkpt lat="42.283799" lon="2.866604">
        <ele>153.7</ele>
        <time>2018-06-10T08:41:06Z</time>
      </trkpt>
      <trkpt lat="42.283770" lon="2.866611">
        <ele>153.3</ele>
        <time>2018-06-10T08:41:07Z</time>
      </trkpt>
      <trkpt lat="42.283729" lon="2.866598">
        <ele>153.0</ele>
        <time>2018-06-10T08:41:08Z</time>
      </trkpt>
      <trkpt lat="42.283678" lon="2.866550">
        <ele>152.7</ele>
        <time>2018-06-10T08:41:10Z</time>
      </trkpt>
      <trkpt lat="42.283636" lon="2.866449">
        <ele>152.5</ele>
        <time>2018-06-10T08:41:12Z</time>
      </trkpt>
      <trkpt lat="42.283641" lon="2.866358">
        <ele>152.6</ele>
        <time>2018-06-10T08:41:14Z</time>
      </trkpt>
      <trkpt lat="42.283658" lon="2.866299">
        <ele>153.0</ele>
        <time>2018-06-10T08:41:15Z</time>
      </trkpt>
      <trkpt lat="42.283709" lon="2.866185">
        <ele>153.0</ele>
        <time>2018-06-10T08:41:18Z</time>
      </trkpt>
      <trkpt lat="42.283748" lon="2.866081">
        <ele>153.0</ele>
        <time>2018-06-10T08:41:20Z</time>
      </trkpt>
      <trkpt lat="42.283832" lon="2.865920">
        <ele>152.9</ele>
        <time>2018-06-10T08:41:24Z</time>
      </trkpt>
      <trkpt lat="42.283872" lon="2.865876">
        <ele>152.8</ele>
        <time>2018-06-10T08:41:25Z</time>
      </trkpt>
      <trkpt lat="42.284158" lon="2.865671">
        <ele>152.9</ele>
        <time>2018-06-10T08:41:34Z</time>
      </trkpt>
      <trkpt lat="42.284658" lon="2.865083">
        <ele>153.3</ele>
        <time>2018-06-10T08:41:52Z</time>
      </trkpt>
      <trkpt lat="42.285114" lon="2.864540">
        <ele>156.4</ele>
        <time>2018-06-10T08:42:08Z</time>
      </trkpt>
      <trkpt lat="42.285252" lon="2.864420">
        <ele>156.0</ele>
        <time>2018-06-10T08:42:12Z</time>
      </trkpt>
      <trkpt lat="42.285292" lon="2.864368">
        <ele>156.0</ele>
        <time>2018-06-10T08:42:14Z</time>
      </trkpt>
      <trkpt lat="42.285301" lon="2.864283">
        <ele>156.4</ele>
        <time>2018-06-10T08:42:15Z</time>
      </trkpt>
      <trkpt lat="42.285288" lon="2.864236">
        <ele>156.9</ele>
        <time>2018-06-10T08:42:16Z</time>
      </trkpt>
      <trkpt lat="42.285266" lon="2.864213">
        <ele>157.3</ele>
        <time>2018-06-10T08:42:17Z</time>
      </trkpt>
      <trkpt lat="42.285235" lon="2.864206">
        <ele>158.1</ele>
        <time>2018-06-10T08:42:18Z</time>
      </trkpt>
      <trkpt lat="42.285083" lon="2.864294">
        <ele>159.7</ele>
        <time>2018-06-10T08:42:22Z</time>
      </trkpt>
      <trkpt lat="42.284946" lon="2.864328">
        <ele>161.5</ele>
        <time>2018-06-10T08:42:26Z</time>
      </trkpt>
      <trkpt lat="42.284861" lon="2.864353">
        <ele>162.7</ele>
        <time>2018-06-10T08:42:29Z</time>
      </trkpt>
      <trkpt lat="42.284727" lon="2.864370">
        <ele>163.9</ele>
        <time>2018-06-10T08:42:32Z</time>
      </trkpt>
      <trkpt lat="42.284533" lon="2.864347">
        <ele>165.9</ele>
        <time>2018-06-10T08:42:37Z</time>
      </trkpt>
      <trkpt lat="42.284403" lon="2.864333">
        <ele>167.5</ele>
        <time>2018-06-10T08:42:41Z</time>
      </trkpt>
      <trkpt lat="42.284194" lon="2.864352">
        <ele>168.0</ele>
        <time>2018-06-10T08:42:46Z</time>
      </trkpt>
      <trkpt lat="42.284028" lon="2.864353">
        <ele>168.0</ele>
        <time>2018-06-10T08:42:51Z</time>
      </trkpt>
      <trkpt lat="42.283884" lon="2.864322">
        <ele>168.3</ele>
        <time>2018-06-10T08:42:55Z</time>
      </trkpt>
      <trkpt lat="42.283749" lon="2.864255">
        <ele>168.4</ele>
        <time>2018-06-10T08:42:59Z</time>
      </trkpt>
      <trkpt lat="42.283293" lon="2.863912">
        <ele>172.1</ele>
        <time>2018-06-10T08:43:12Z</time>
      </trkpt>
      <trkpt lat="42.283060" lon="2.863876">
        <ele>173.8</ele>
        <time>2018-06-10T08:43:19Z</time>
      </trkpt>
      <trkpt lat="42.282879" lon="2.863865">
        <ele>175.1</ele>
        <time>2018-06-10T08:43:24Z</time>
      </trkpt>
      <trkpt lat="42.282645" lon="2.863938">
        <ele>175.3</ele>
        <time>2018-06-10T08:43:30Z</time>
      </trkpt>
      <trkpt lat="42.282285" lon="2.863963">
        <ele>175.3</ele>
        <time>2018-06-10T08:43:40Z</time>
      </trkpt>
      <trkpt lat="42.281979" lon="2.864061">
        <ele>174.7</ele>
        <time>2018-06-10T08:43:48Z</time>
      </trkpt>
      <trkpt lat="42.281727" lon="2.864062">
        <ele>175.7</ele>
        <time>2018-06-10T08:43:55Z</time>
      </trkpt>
      <trkpt lat="42.281583" lon="2.864183">
        <ele>175.7</ele>
        <time>2018-06-10T08:43:59Z</time>
      </trkpt>
      <trkpt lat="42.281457" lon="2.864450">
        <ele>175.2</ele>
        <time>2018-06-10T08:44:05Z</time>
      </trkpt>
      <trkpt lat="42.281394" lon="2.864545">
        <ele>176.0</ele>
        <time>2018-06-10T08:44:08Z</time>
      </trkpt>
      <trkpt lat="42.281357" lon="2.864525">
        <ele>177.0</ele>
        <time>2018-06-10T08:44:09Z</time>
      </trkpt>
      <trkpt lat="42.281329" lon="2.864434">
        <ele>177.7</ele>
        <time>2018-06-10T08:44:11Z</time>
      </trkpt>
      <trkpt lat="42.281340" lon="2.864355">
        <ele>177.9</ele>
        <time>2018-06-10T08:44:13Z</time>
      </trkpt>
      <trkpt lat="42.281327" lon="2.864199">
        <ele>179.1</ele>
        <time>2018-06-10T08:44:16Z</time>
      </trkpt>
      <trkpt lat="42.281316" lon="2.864022">
        <ele>180.0</ele>
        <time>2018-06-10T08:44:19Z</time>
      </trkpt>
      <trkpt lat="42.281320" lon="2.863862">
        <ele>180.0</ele>
        <time>2018-06-10T08:44:22Z</time>
      </trkpt>
      <trkpt lat="42.281247" lon="2.863643">
        <ele>182.8</ele>
        <time>2018-06-10T08:44:27Z</time>
      </trkpt>
      <trkpt lat="42.281139" lon="2.863480">
        <ele>184.2</ele>
        <time>2018-06-10T08:44:31Z</time>
      </trkpt>
      <trkpt lat="42.281076" lon="2.863347">
        <ele>185.1</ele>
        <time>2018-06-10T08:44:34Z</time>
      </trkpt>
      <trkpt lat="42.281044" lon="2.863019">
        <ele>188.9</ele>
        <time>2018-06-10T08:44:41Z</time>
      </trkpt>
      <trkpt lat="42.281053" lon="2.862934">
        <ele>190.0</ele>
        <time>2018-06-10T08:44:43Z</time>
      </trkpt>
      <trkpt lat="42.281053" lon="2.862855">
        <ele>190.0</ele>
        <time>2018-06-10T08:44:44Z</time>
      </trkpt>
      <trkpt lat="42.281012" lon="2.862698">
        <ele>191.2</ele>
        <time>2018-06-10T08:44:48Z</time>
      </trkpt>
      <trkpt lat="42.280922" lon="2.862474">
        <ele>192.0</ele>
        <time>2018-06-10T08:44:53Z</time>
      </trkpt>
      <trkpt lat="42.280845" lon="2.862310">
        <ele>192.6</ele>
        <time>2018-06-10T08:44:56Z</time>
      </trkpt>
      <trkpt lat="42.280795" lon="2.862231">
        <ele>192.9</ele>
        <time>2018-06-10T08:44:59Z</time>
      </trkpt>
      <trkpt lat="42.280764" lon="2.862159">
        <ele>193.0</ele>
        <time>2018-06-10T08:45:00Z</time>
      </trkpt>
      <trkpt lat="42.280754" lon="2.862086">
        <ele>193.0</ele>
        <time>2018-06-10T08:45:02Z</time>
      </trkpt>
      <trkpt lat="42.280745" lon="2.862025">
        <ele>193.1</ele>
        <time>2018-06-10T08:45:03Z</time>
      </trkpt>
      <trkpt lat="42.280772" lon="2.861934">
        <ele>194.0</ele>
        <time>2018-06-10T08:45:05Z</time>
      </trkpt>
      <trkpt lat="42.280799" lon="2.861868">
        <ele>194.0</ele>
        <time>2018-06-10T08:45:06Z</time>
      </trkpt>
      <trkpt lat="42.280934" lon="2.861734">
        <ele>195.6</ele>
        <time>2018-06-10T08:45:11Z</time>
      </trkpt>
      <trkpt lat="42.281083" lon="2.861576">
        <ele>197.9</ele>
        <time>2018-06-10T08:45:16Z</time>
      </trkpt>
      <trkpt lat="42.281199" lon="2.861424">
        <ele>199.6</ele>
        <time>2018-06-10T08:45:20Z</time>
      </trkpt>
      <trkpt lat="42.281222" lon="2.861357">
        <ele>200.0</ele>
        <time>2018-06-10T08:45:22Z</time>
      </trkpt>
      <trkpt lat="42.281217" lon="2.861266">
        <ele>200.0</ele>
        <time>2018-06-10T08:45:23Z</time>
      </trkpt>
      <trkpt lat="42.281168" lon="2.861169">
        <ele>200.0</ele>
        <time>2018-06-10T08:45:26Z</time>
      </trkpt>
      <trkpt lat="42.281082" lon="2.861079">
        <ele>199.8</ele>
        <time>2018-06-10T08:45:29Z</time>
      </trkpt>
      <trkpt lat="42.280902" lon="2.860909">
        <ele>198.0</ele>
        <time>2018-06-10T08:45:34Z</time>
      </trkpt>
      <trkpt lat="42.280757" lon="2.860764">
        <ele>198.0</ele>
        <time>2018-06-10T08:45:39Z</time>
      </trkpt>
      <trkpt lat="42.280617" lon="2.860534">
        <ele>197.0</ele>
        <time>2018-06-10T08:45:45Z</time>
      </trkpt>
      <trkpt lat="42.280505" lon="2.860261">
        <ele>195.1</ele>
        <time>2018-06-10T08:45:51Z</time>
      </trkpt>
      <trkpt lat="42.280405" lon="2.860043">
        <ele>192.0</ele>
        <time>2018-06-10T08:45:56Z</time>
      </trkpt>
      <trkpt lat="42.280329" lon="2.859977">
        <ele>190.2</ele>
        <time>2018-06-10T08:45:59Z</time>
      </trkpt>
      <trkpt lat="42.280257" lon="2.859989">
        <ele>189.6</ele>
        <time>2018-06-10T08:46:01Z</time>
      </trkpt>
      <trkpt lat="42.280166" lon="2.859977">
        <ele>187.6</ele>
        <time>2018-06-10T08:46:03Z</time>
      </trkpt>
      <trkpt lat="42.280094" lon="2.859929">
        <ele>186.1</ele>
        <time>2018-06-10T08:46:05Z</time>
      </trkpt>
      <trkpt lat="42.280071" lon="2.859835">
        <ele>185.3</ele>
        <time>2018-06-10T08:46:07Z</time>
      </trkpt>
      <trkpt lat="42.279984" lon="2.859498">
        <ele>182.6</ele>
        <time>2018-06-10T08:46:14Z</time>
      </trkpt>
      <trkpt lat="42.279942" lon="2.859361">
        <ele>181.5</ele>
        <time>2018-06-10T08:46:17Z</time>
      </trkpt>
      <trkpt lat="42.279877" lon="2.859096">
        <ele>179.0</ele>
        <time>2018-06-10T08:46:23Z</time>
      </trkpt>
      <trkpt lat="42.279736" lon="2.858821">
        <ele>175.1</ele>
        <time>2018-06-10T08:46:30Z</time>
      </trkpt>
      <trkpt lat="42.279739" lon="2.858714">
        <ele>175.0</ele>
        <time>2018-06-10T08:46:32Z</time>
      </trkpt>
      <trkpt lat="42.279785" lon="2.858641">
        <ele>174.9</ele>
        <time>2018-06-10T08:46:34Z</time>
      </trkpt>
      <trkpt lat="42.280055" lon="2.858331">
        <ele>176.0</ele>
        <time>2018-06-10T08:46:43Z</time>
      </trkpt>
      <trkpt lat="42.280090" lon="2.858284">
        <ele>176.0</ele>
        <time>2018-06-10T08:46:44Z</time>
      </trkpt>
      <trkpt lat="42.280095" lon="2.858231">
        <ele>176.0</ele>
        <time>2018-06-10T08:46:45Z</time>
      </trkpt>
      <trkpt lat="42.280095" lon="2.858175">
        <ele>176.8</ele>
        <time>2018-06-10T08:46:46Z</time>
      </trkpt>
      <trkpt lat="42.280077" lon="2.858128">
        <ele>177.0</ele>
        <time>2018-06-10T08:46:48Z</time>
      </trkpt>
      <trkpt lat="42.280035" lon="2.858078">
        <ele>177.4</ele>
        <time>2018-06-10T08:46:49Z</time>
      </trkpt>
      <trkpt lat="42.279942" lon="2.857989">
        <ele>178.0</ele>
        <time>2018-06-10T08:46:52Z</time>
      </trkpt>
      <trkpt lat="42.279868" lon="2.857911">
        <ele>179.2</ele>
        <time>2018-06-10T08:46:55Z</time>
      </trkpt>
      <trkpt lat="42.279800" lon="2.857880">
        <ele>178.8</ele>
        <time>2018-06-10T08:46:56Z</time>
      </trkpt>
      <trkpt lat="42.279697" lon="2.857841">
        <ele>178.5</ele>
        <time>2018-06-10T08:46:59Z</time>
      </trkpt>
      <trkpt lat="42.279610" lon="2.857797">
        <ele>178.3</ele>
        <time>2018-06-10T08:47:02Z</time>
      </trkpt>
      <trkpt lat="42.279552" lon="2.857754">
        <ele>178.0</ele>
        <time>2018-06-10T08:47:04Z</time>
      </trkpt>
      <trkpt lat="42.279503" lon="2.857688">
        <ele>178.8</ele>
        <time>2018-06-10T08:47:05Z</time>
      </trkpt>
      <trkpt lat="42.279464" lon="2.857624">
        <ele>179.0</ele>
        <time>2018-06-10T08:47:07Z</time>
      </trkpt>
      <trkpt lat="42.279413" lon="2.857559">
        <ele>179.0</ele>
        <time>2018-06-10T08:47:09Z</time>
      </trkpt>
      <trkpt lat="42.279353" lon="2.857489">
        <ele>179.1</ele>
        <time>2018-06-10T08:47:11Z</time>
      </trkpt>
      <trkpt lat="42.279294" lon="2.857466">
        <ele>179.2</ele>
        <time>2018-06-10T08:47:13Z</time>
      </trkpt>
      <trkpt lat="42.279240" lon="2.857460">
        <ele>179.0</ele>
        <time>2018-06-10T08:47:14Z</time>
      </trkpt>
      <trkpt lat="42.279168" lon="2.857478">
        <ele>178.7</ele>
        <time>2018-06-10T08:47:16Z</time>
      </trkpt>
      <trkpt lat="42.279101" lon="2.857498">
        <ele>178.0</ele>
        <time>2018-06-10T08:47:18Z</time>
      </trkpt>
      <trkpt lat="42.278806" lon="2.857593">
        <ele>177.0</ele>
        <time>2018-06-10T08:47:26Z</time>
      </trkpt>
      <trkpt lat="42.278642" lon="2.857630">
        <ele>176.8</ele>
        <time>2018-06-10T08:47:30Z</time>
      </trkpt>
      <trkpt lat="42.278496" lon="2.857671">
        <ele>176.0</ele>
        <time>2018-06-10T08:47:34Z</time>
      </trkpt>
      <trkpt lat="42.278434" lon="2.857680">
        <ele>176.0</ele>
        <time>2018-06-10T08:47:36Z</time>
      </trkpt>
      <trkpt lat="42.278359" lon="2.857681">
        <ele>175.5</ele>
        <time>2018-06-10T08:47:38Z</time>
      </trkpt>
      <trkpt lat="42.278230" lon="2.857676">
        <ele>174.9</ele>
        <time>2018-06-10T08:47:41Z</time>
      </trkpt>
      <trkpt lat="42.278124" lon="2.857662">
        <ele>173.8</ele>
        <time>2018-06-10T08:47:44Z</time>
      </trkpt>
      <trkpt lat="42.277941" lon="2.857601">
        <ele>172.7</ele>
        <time>2018-06-10T08:47:49Z</time>
      </trkpt>
      <trkpt lat="42.277761" lon="2.857527">
        <ele>171.0</ele>
        <time>2018-06-10T08:47:54Z</time>
      </trkpt>
      <trkpt lat="42.277722" lon="2.857515">
        <ele>171.0</ele>
        <time>2018-06-10T08:47:55Z</time>
      </trkpt>
      <trkpt lat="42.277480" lon="2.857423">
        <ele>168.7</ele>
        <time>2018-06-10T08:48:02Z</time>
      </trkpt>
      <trkpt lat="42.277227" lon="2.857333">
        <ele>166.5</ele>
        <time>2018-06-10T08:48:09Z</time>
      </trkpt>
      <trkpt lat="42.276872" lon="2.857255">
        <ele>163.5</ele>
        <time>2018-06-10T08:48:19Z</time>
      </trkpt>
      <trkpt lat="42.276700" lon="2.857209">
        <ele>161.7</ele>
        <time>2018-06-10T08:48:23Z</time>
      </trkpt>
      <trkpt lat="42.276544" lon="2.857151">
        <ele>160.0</ele>
        <time>2018-06-10T08:48:28Z</time>
      </trkpt>
      <trkpt lat="42.276393" lon="2.857099">
        <ele>158.9</ele>
        <time>2018-06-10T08:48:32Z</time>
      </trkpt>
      <trkpt lat="42.276057" lon="2.857007">
        <ele>155.9</ele>
        <time>2018-06-10T08:48:41Z</time>
      </trkpt>
      <trkpt lat="42.275874" lon="2.856934">
        <ele>155.6</ele>
        <time>2018-06-10T08:48:46Z</time>
      </trkpt>
      <trkpt lat="42.275662" lon="2.856851">
        <ele>155.0</ele>
        <time>2018-06-10T08:48:52Z</time>
      </trkpt>
      <trkpt lat="42.275463" lon="2.856790">
        <ele>155.0</ele>
        <time>2018-06-10T08:48:57Z</time>
      </trkpt>
      <trkpt lat="42.275191" lon="2.856718">
        <ele>155.0</ele>
        <time>2018-06-10T08:49:05Z</time>
      </trkpt>
      <trkpt lat="42.275017" lon="2.856655">
        <ele>155.0</ele>
        <time>2018-06-10T08:49:10Z</time>
      </trkpt>
      <trkpt lat="42.274742" lon="2.856545">
        <ele>156.0</ele>
        <time>2018-06-10T08:49:17Z</time>
      </trkpt>
      <trkpt lat="42.274534" lon="2.856493">
        <ele>156.0</ele>
        <time>2018-06-10T08:49:23Z</time>
      </trkpt>
      <trkpt lat="42.274271" lon="2.856408">
        <ele>156.0</ele>
        <time>2018-06-10T08:49:30Z</time>
      </trkpt>
      <trkpt lat="42.274043" lon="2.856334">
        <ele>155.0</ele>
        <time>2018-06-10T08:49:36Z</time>
      </trkpt>
      <trkpt lat="42.273899" lon="2.856249">
        <ele>154.0</ele>
        <time>2018-06-10T08:49:40Z</time>
      </trkpt>
      <trkpt lat="42.273809" lon="2.856229">
        <ele>153.6</ele>
        <time>2018-06-10T08:49:43Z</time>
      </trkpt>
      <trkpt lat="42.273735" lon="2.856263">
        <ele>152.9</ele>
        <time>2018-06-10T08:49:45Z</time>
      </trkpt>
      <trkpt lat="42.273695" lon="2.856305">
        <ele>152.0</ele>
        <time>2018-06-10T08:49:46Z</time>
      </trkpt>
      <trkpt lat="42.273608" lon="2.856395">
        <ele>150.1</ele>
        <time>2018-06-10T08:49:49Z</time>
      </trkpt>
      <trkpt lat="42.273489" lon="2.856521">
        <ele>148.4</ele>
        <time>2018-06-10T08:49:53Z</time>
      </trkpt>
      <trkpt lat="42.273404" lon="2.856607">
        <ele>146.5</ele>
        <time>2018-06-10T08:49:56Z</time>
      </trkpt>
      <trkpt lat="42.273321" lon="2.856703">
        <ele>145.5</ele>
        <time>2018-06-10T08:49:59Z</time>
      </trkpt>
      <trkpt lat="42.273291" lon="2.856740">
        <ele>145.0</ele>
        <time>2018-06-10T08:50:00Z</time>
      </trkpt>
      <trkpt lat="42.273278" lon="2.856780">
        <ele>144.7</ele>
        <time>2018-06-10T08:50:01Z</time>
      </trkpt>
      <trkpt lat="42.273285" lon="2.856830">
        <ele>144.9</ele>
        <time>2018-06-10T08:50:02Z</time>
      </trkpt>
      <trkpt lat="42.273308" lon="2.856867">
        <ele>144.9</ele>
        <time>2018-06-10T08:50:03Z</time>
      </trkpt>
      <trkpt lat="42.273345" lon="2.856894">
        <ele>144.2</ele>
        <time>2018-06-10T08:50:04Z</time>
      </trkpt>
      <trkpt lat="42.273382" lon="2.856904">
        <ele>144.0</ele>
        <time>2018-06-10T08:50:05Z</time>
      </trkpt>
      <trkpt lat="42.273445" lon="2.856904">
        <ele>144.0</ele>
        <time>2018-06-10T08:50:07Z</time>
      </trkpt>
      <trkpt lat="42.273485" lon="2.856914">
        <ele>143.8</ele>
        <time>2018-06-10T08:50:08Z</time>
      </trkpt>
      <trkpt lat="42.273510" lon="2.856938">
        <ele>143.4</ele>
        <time>2018-06-10T08:50:09Z</time>
      </trkpt>
      <trkpt lat="42.273504" lon="2.856969">
        <ele>142.9</ele>
        <time>2018-06-10T08:50:09Z</time>
      </trkpt>
      <trkpt lat="42.273490" lon="2.856989">
        <ele>142.6</ele>
        <time>2018-06-10T08:50:10Z</time>
      </trkpt>
      <trkpt lat="42.273446" lon="2.857004">
        <ele>142.4</ele>
        <time>2018-06-10T08:50:11Z</time>
      </trkpt>
      <trkpt lat="42.273387" lon="2.857008">
        <ele>142.5</ele>
        <time>2018-06-10T08:50:13Z</time>
      </trkpt>
      <trkpt lat="42.273249" lon="2.856990">
        <ele>140.9</ele>
        <time>2018-06-10T08:50:16Z</time>
      </trkpt>
      <trkpt lat="42.273147" lon="2.856941">
        <ele>137.5</ele>
        <time>2018-06-10T08:50:19Z</time>
      </trkpt>
      <trkpt lat="42.273069" lon="2.856890">
        <ele>135.4</ele>
        <time>2018-06-10T08:50:22Z</time>
      </trkpt>
      <trkpt lat="42.272994" lon="2.856799">
        <ele>133.9</ele>
        <time>2018-06-10T08:50:25Z</time>
      </trkpt>
      <trkpt lat="42.272932" lon="2.856673">
        <ele>132.0</ele>
        <time>2018-06-10T08:50:28Z</time>
      </trkpt>
      <trkpt lat="42.272918" lon="2.856582">
        <ele>130.9</ele>
        <time>2018-06-10T08:50:29Z</time>
      </trkpt>
      <trkpt lat="42.272918" lon="2.856529">
        <ele>130.7</ele>
        <time>2018-06-10T08:50:30Z</time>
      </trkpt>
      <trkpt lat="42.272926" lon="2.856470">
        <ele>131.1</ele>
        <time>2018-06-10T08:50:32Z</time>
      </trkpt>
      <trkpt lat="42.272923" lon="2.856435">
        <ele>131.5</ele>
        <time>2018-06-10T08:50:32Z</time>
      </trkpt>
      <trkpt lat="42.272902" lon="2.856420">
        <ele>130.8</ele>
        <time>2018-06-10T08:50:33Z</time>
      </trkpt>
      <trkpt lat="42.272886" lon="2.856419">
        <ele>130.1</ele>
        <time>2018-06-10T08:50:33Z</time>
      </trkpt>
      <trkpt lat="42.272865" lon="2.856401">
        <ele>129.9</ele>
        <time>2018-06-10T08:50:34Z</time>
      </trkpt>
      <trkpt lat="42.272791" lon="2.856309">
        <ele>128.7</ele>
        <time>2018-06-10T08:50:37Z</time>
      </trkpt>
      <trkpt lat="42.272586" lon="2.856035">
        <ele>124.9</ele>
        <time>2018-06-10T08:50:45Z</time>
      </trkpt>
      <trkpt lat="42.272497" lon="2.855914">
        <ele>122.9</ele>
        <time>2018-06-10T08:50:48Z</time>
      </trkpt>
      <trkpt lat="42.272414" lon="2.855811">
        <ele>121.2</ele>
        <time>2018-06-10T08:50:51Z</time>
      </trkpt>
      <trkpt lat="42.272312" lon="2.855720">
        <ele>119.3</ele>
        <time>2018-06-10T08:50:54Z</time>
      </trkpt>
      <trkpt lat="42.272246" lon="2.855682">
        <ele>118.6</ele>
        <time>2018-06-10T08:50:56Z</time>
      </trkpt>
      <trkpt lat="42.272133" lon="2.855686">
        <ele>117.6</ele>
        <time>2018-06-10T08:50:59Z</time>
      </trkpt>
      <trkpt lat="42.272076" lon="2.855684">
        <ele>116.4</ele>
        <time>2018-06-10T08:51:01Z</time>
      </trkpt>
      <trkpt lat="42.272003" lon="2.855645">
        <ele>114.9</ele>
        <time>2018-06-10T08:51:03Z</time>
      </trkpt>
      <trkpt lat="42.271917" lon="2.855562">
        <ele>113.6</ele>
        <time>2018-06-10T08:51:06Z</time>
      </trkpt>
      <trkpt lat="42.271848" lon="2.855483">
        <ele>113.0</ele>
        <time>2018-06-10T08:51:08Z</time>
      </trkpt>
      <trkpt lat="42.271791" lon="2.855383">
        <ele>112.6</ele>
        <time>2018-06-10T08:51:11Z</time>
      </trkpt>
      <trkpt lat="42.271764" lon="2.855346">
        <ele>112.0</ele>
        <time>2018-06-10T08:51:12Z</time>
      </trkpt>
      <trkpt lat="42.271756" lon="2.855305">
        <ele>111.5</ele>
        <time>2018-06-10T08:51:12Z</time>
      </trkpt>
      <trkpt lat="42.271761" lon="2.855249">
        <ele>111.0</ele>
        <time>2018-06-10T08:51:14Z</time>
      </trkpt>
      <trkpt lat="42.271798" lon="2.855144">
        <ele>109.9</ele>
        <time>2018-06-10T08:51:16Z</time>
      </trkpt>
      <trkpt lat="42.271810" lon="2.855038">
        <ele>109.0</ele>
        <time>2018-06-10T08:51:18Z</time>
      </trkpt>
      <trkpt lat="42.271819" lon="2.854966">
        <ele>109.0</ele>
        <time>2018-06-10T08:51:19Z</time>
      </trkpt>
      <trkpt lat="42.271822" lon="2.854906">
        <ele>108.4</ele>
        <time>2018-06-10T08:51:21Z</time>
      </trkpt>
      <trkpt lat="42.271795" lon="2.854807">
        <ele>108.0</ele>
        <time>2018-06-10T08:51:23Z</time>
      </trkpt>
      <trkpt lat="42.271747" lon="2.854669">
        <ele>107.0</ele>
        <time>2018-06-10T08:51:26Z</time>
      </trkpt>
      <trkpt lat="42.271717" lon="2.854566">
        <ele>106.5</ele>
        <time>2018-06-10T08:51:28Z</time>
      </trkpt>
      <trkpt lat="42.271675" lon="2.854380">
        <ele>104.4</ele>
        <time>2018-06-10T08:51:32Z</time>
      </trkpt>
      <trkpt lat="42.271642" lon="2.854158">
        <ele>103.9</ele>
        <time>2018-06-10T08:51:36Z</time>
      </trkpt>
      <trkpt lat="42.271642" lon="2.854004">
        <ele>103.0</ele>
        <time>2018-06-10T08:51:39Z</time>
      </trkpt>
      <trkpt lat="42.271654" lon="2.853916">
        <ele>103.3</ele>
        <time>2018-06-10T08:51:41Z</time>
      </trkpt>
      <trkpt lat="42.271686" lon="2.853843">
        <ele>104.6</ele>
        <time>2018-06-10T08:51:43Z</time>
      </trkpt>
      <trkpt lat="42.271784" lon="2.853745">
        <ele>105.2</ele>
        <time>2018-06-10T08:51:46Z</time>
      </trkpt>
      <trkpt lat="42.271859" lon="2.853679">
        <ele>106.2</ele>
        <time>2018-06-10T08:51:48Z</time>
      </trkpt>
      <trkpt lat="42.271919" lon="2.853629">
        <ele>106.4</ele>
        <time>2018-06-10T08:51:50Z</time>
      </trkpt>
      <trkpt lat="42.271980" lon="2.853548">
        <ele>107.4</ele>
        <time>2018-06-10T08:51:52Z</time>
      </trkpt>
      <trkpt lat="42.272048" lon="2.853403">
        <ele>108.4</ele>
        <time>2018-06-10T08:51:56Z</time>
      </trkpt>
      <trkpt lat="42.272149" lon="2.853183">
        <ele>110.8</ele>
        <time>2018-06-10T08:52:01Z</time>
      </trkpt>
      <trkpt lat="42.272189" lon="2.853072">
        <ele>111.9</ele>
        <time>2018-06-10T08:52:03Z</time>
      </trkpt>
      <trkpt lat="42.272218" lon="2.852997">
        <ele>113.7</ele>
        <time>2018-06-10T08:52:05Z</time>
      </trkpt>
      <trkpt lat="42.272281" lon="2.852904">
        <ele>115.3</ele>
        <time>2018-06-10T08:52:08Z</time>
      </trkpt>
      <trkpt lat="42.272314" lon="2.852868">
        <ele>115.4</ele>
        <time>2018-06-10T08:52:09Z</time>
      </trkpt>
      <trkpt lat="42.272353" lon="2.852823">
        <ele>115.8</ele>
        <time>2018-06-10T08:52:10Z</time>
      </trkpt>
      <trkpt lat="42.272378" lon="2.852790">
        <ele>115.9</ele>
        <time>2018-06-10T08:52:11Z</time>
      </trkpt>
      <trkpt lat="42.272381" lon="2.852754">
        <ele>117.0</ele>
        <time>2018-06-10T08:52:12Z</time>
      </trkpt>
      <trkpt lat="42.272357" lon="2.852740">
        <ele>117.9</ele>
        <time>2018-06-10T08:52:13Z</time>
      </trkpt>
      <trkpt lat="42.272333" lon="2.852750">
        <ele>117.9</ele>
        <time>2018-06-10T08:52:13Z</time>
      </trkpt>
      <trkpt lat="42.272297" lon="2.852772">
        <ele>118.3</ele>
        <time>2018-06-10T08:52:14Z</time>
      </trkpt>
      <trkpt lat="42.272207" lon="2.852836">
        <ele>118.4</ele>
        <time>2018-06-10T08:52:17Z</time>
      </trkpt>
      <trkpt lat="42.272167" lon="2.852865">
        <ele>119.1</ele>
        <time>2018-06-10T08:52:18Z</time>
      </trkpt>
      <trkpt lat="42.272137" lon="2.852886">
        <ele>119.8</ele>
        <time>2018-06-10T08:52:19Z</time>
      </trkpt>
      <trkpt lat="42.272090" lon="2.852904">
        <ele>121.2</ele>
        <time>2018-06-10T08:52:21Z</time>
      </trkpt>
      <trkpt lat="42.272014" lon="2.852930">
        <ele>122.0</ele>
        <time>2018-06-10T08:52:23Z</time>
      </trkpt>
      <trkpt lat="42.271966" lon="2.852926">
        <ele>122.1</ele>
        <time>2018-06-10T08:52:24Z</time>
      </trkpt>
      <trkpt lat="42.271886" lon="2.852889">
        <ele>122.0</ele>
        <time>2018-06-10T08:52:26Z</time>
      </trkpt>
      <trkpt lat="42.271816" lon="2.852825">
        <ele>122.7</ele>
        <time>2018-06-10T08:52:28Z</time>
      </trkpt>
      <trkpt lat="42.271753" lon="2.852761">
        <ele>122.5</ele>
        <time>2018-06-10T08:52:31Z</time>
      </trkpt>
      <trkpt lat="42.271650" lon="2.852616">
        <ele>125.3</ele>
        <time>2018-06-10T08:52:35Z</time>
      </trkpt>
      <trkpt lat="42.271595" lon="2.852549">
        <ele>125.2</ele>
        <time>2018-06-10T08:52:36Z</time>
      </trkpt>
      <trkpt lat="42.271471" lon="2.852380">
        <ele>125.1</ele>
        <time>2018-06-10T08:52:41Z</time>
      </trkpt>
      <trkpt lat="42.271390" lon="2.852225">
        <ele>124.5</ele>
        <time>2018-06-10T08:52:45Z</time>
      </trkpt>
      <trkpt lat="42.271341" lon="2.852075">
        <ele>125.6</ele>
        <time>2018-06-10T08:52:48Z</time>
      </trkpt>
      <trkpt lat="42.271296" lon="2.851959">
        <ele>125.5</ele>
        <time>2018-06-10T08:52:51Z</time>
      </trkpt>
      <trkpt lat="42.271195" lon="2.851723">
        <ele>125.9</ele>
        <time>2018-06-10T08:52:56Z</time>
      </trkpt>
      <trkpt lat="42.271043" lon="2.851391">
        <ele>126.5</ele>
        <time>2018-06-10T08:53:04Z</time>
      </trkpt>
      <trkpt lat="42.270891" lon="2.851077">
        <ele>126.3</ele>
        <time>2018-06-10T08:53:11Z</time>
      </trkpt>
      <trkpt lat="42.270838" lon="2.850935">
        <ele>127.1</ele>
        <time>2018-06-10T08:53:14Z</time>
      </trkpt>
      <trkpt lat="42.270761" lon="2.850775">
        <ele>126.4</ele>
        <time>2018-06-10T08:53:18Z</time>
      </trkpt>
      <trkpt lat="42.270598" lon="2.850470">
        <ele>127.6</ele>
        <time>2018-06-10T08:53:25Z</time>
      </trkpt>
      <trkpt lat="42.270406" lon="2.850097">
        <ele>127.5</ele>
        <time>2018-06-10T08:53:34Z</time>
      </trkpt>
      <trkpt lat="42.270275" lon="2.849835">
        <ele>128.2</ele>
        <time>2018-06-10T08:53:41Z</time>
      </trkpt>
      <trkpt lat="42.270210" lon="2.849699">
        <ele>128.0</ele>
        <time>2018-06-10T08:53:44Z</time>
      </trkpt>
      <trkpt lat="42.270092" lon="2.849476">
        <ele>129.1</ele>
        <time>2018-06-10T08:53:49Z</time>
      </trkpt>
      <trkpt lat="42.270022" lon="2.849363">
        <ele>129.3</ele>
        <time>2018-06-10T08:53:52Z</time>
      </trkpt>
      <trkpt lat="42.270019" lon="2.849338">
        <ele>129.5</ele>
        <time>2018-06-10T08:53:53Z</time>
      </trkpt>
      <trkpt lat="42.270033" lon="2.849308">
        <ele>129.9</ele>
        <time>2018-06-10T08:53:53Z</time>
      </trkpt>
      <trkpt lat="42.270628" lon="2.848803">
        <ele>132.7</ele>
        <time>2018-06-10T08:54:12Z</time>
      </trkpt>
      <trkpt lat="42.270667" lon="2.848736">
        <ele>133.0</ele>
        <time>2018-06-10T08:54:14Z</time>
      </trkpt>
      <trkpt lat="42.270662" lon="2.848694">
        <ele>133.0</ele>
        <time>2018-06-10T08:54:15Z</time>
      </trkpt>
      <trkpt lat="42.270640" lon="2.848670">
        <ele>133.0</ele>
        <time>2018-06-10T08:54:15Z</time>
      </trkpt>
      <trkpt lat="42.270405" lon="2.848635">
        <ele>134.0</ele>
        <time>2018-06-10T08:54:22Z</time>
      </trkpt>
      <trkpt lat="42.270291" lon="2.848585">
        <ele>134.5</ele>
        <time>2018-06-10T08:54:25Z</time>
      </trkpt>
      <trkpt lat="42.270204" lon="2.848537">
        <ele>134.2</ele>
        <time>2018-06-10T08:54:27Z</time>
      </trkpt>
      <trkpt lat="42.270072" lon="2.848478">
        <ele>136.0</ele>
        <time>2018-06-10T08:54:31Z</time>
      </trkpt>
      <trkpt lat="42.269891" lon="2.848417">
        <ele>136.9</ele>
        <time>2018-06-10T08:54:36Z</time>
      </trkpt>
      <trkpt lat="42.269702" lon="2.848384">
        <ele>136.5</ele>
        <time>2018-06-10T08:54:41Z</time>
      </trkpt>
      <trkpt lat="42.269578" lon="2.848357">
        <ele>136.1</ele>
        <time>2018-06-10T08:54:44Z</time>
      </trkpt>
      <trkpt lat="42.269446" lon="2.848322">
        <ele>135.6</ele>
        <time>2018-06-10T08:54:48Z</time>
      </trkpt>
      <trkpt lat="42.269374" lon="2.848291">
        <ele>134.4</ele>
        <time>2018-06-10T08:54:50Z</time>
      </trkpt>
      <trkpt lat="42.269329" lon="2.848236">
        <ele>134.4</ele>
        <time>2018-06-10T08:54:52Z</time>
      </trkpt>
      <trkpt lat="42.269257" lon="2.848103">
        <ele>135.0</ele>
        <time>2018-06-10T08:54:55Z</time>
      </trkpt>
      <trkpt lat="42.269194" lon="2.847970">
        <ele>135.0</ele>
        <time>2018-06-10T08:54:58Z</time>
      </trkpt>
      <trkpt lat="42.268945" lon="2.847376">
        <ele>133.0</ele>
        <time>2018-06-10T08:55:12Z</time>
      </trkpt>
      <trkpt lat="42.268837" lon="2.847206">
        <ele>133.0</ele>
        <time>2018-06-10T08:55:16Z</time>
      </trkpt>
      <trkpt lat="42.268675" lon="2.846982">
        <ele>132.8</ele>
        <time>2018-06-10T08:55:22Z</time>
      </trkpt>
      <trkpt lat="42.268442" lon="2.846520">
        <ele>132.0</ele>
        <time>2018-06-10T08:55:33Z</time>
      </trkpt>
      <trkpt lat="42.268354" lon="2.846317">
        <ele>132.0</ele>
        <time>2018-06-10T08:55:38Z</time>
      </trkpt>
      <trkpt lat="42.268292" lon="2.846121">
        <ele>132.0</ele>
        <time>2018-06-10T08:55:42Z</time>
      </trkpt>
      <trkpt lat="42.268229" lon="2.845838">
        <ele>132.0</ele>
        <time>2018-06-10T08:55:48Z</time>
      </trkpt>
      <trkpt lat="42.268092" lon="2.845073">
        <ele>131.0</ele>
        <time>2018-06-10T08:56:03Z</time>
      </trkpt>
      <trkpt lat="42.268065" lon="2.844900">
        <ele>131.0</ele>
        <time>2018-06-10T08:56:07Z</time>
      </trkpt>
      <trkpt lat="42.268057" lon="2.844769">
        <ele>130.1</ele>
        <time>2018-06-10T08:56:09Z</time>
      </trkpt>
      <trkpt lat="42.268067" lon="2.844530">
        <ele>130.0</ele>
        <time>2018-06-10T08:56:14Z</time>
      </trkpt>
      <trkpt lat="42.268072" lon="2.844311">
        <ele>130.0</ele>
        <time>2018-06-10T08:56:18Z</time>
      </trkpt>
      <trkpt lat="42.268053" lon="2.843803">
        <ele>129.1</ele>
        <time>2018-06-10T08:56:28Z</time>
      </trkpt>
      <trkpt lat="42.268026" lon="2.843611">
        <ele>129.2</ele>
        <time>2018-06-10T08:56:32Z</time>
      </trkpt>
      <trkpt lat="42.268010" lon="2.843507">
        <ele>129.2</ele>
        <time>2018-06-10T08:56:34Z</time>
      </trkpt>
      <trkpt lat="42.267985" lon="2.843454">
        <ele>129.0</ele>
        <time>2018-06-10T08:56:36Z</time>
      </trkpt>
      <trkpt lat="42.267947" lon="2.843421">
        <ele>128.6</ele>
        <time>2018-06-10T08:56:37Z</time>
      </trkpt>
      <trkpt lat="42.267876" lon="2.843356">
        <ele>129.6</ele>
        <time>2018-06-10T08:56:39Z</time>
      </trkpt>
      <trkpt lat="42.267700" lon="2.843211">
        <ele>131.1</ele>
        <time>2018-06-10T08:56:45Z</time>
      </trkpt>
      <trkpt lat="42.267562" lon="2.843108">
        <ele>132.1</ele>
        <time>2018-06-10T08:56:49Z</time>
      </trkpt>
      <trkpt lat="42.267498" lon="2.843043">
        <ele>132.9</ele>
        <time>2018-06-10T08:56:51Z</time>
      </trkpt>
      <trkpt lat="42.267363" lon="2.843024">
        <ele>134.2</ele>
        <time>2018-06-10T08:56:55Z</time>
      </trkpt>
      <trkpt lat="42.267223" lon="2.843050">
        <ele>136.3</ele>
        <time>2018-06-10T08:56:58Z</time>
      </trkpt>
      <trkpt lat="42.267077" lon="2.843120">
        <ele>138.0</ele>
        <time>2018-06-10T08:57:02Z</time>
      </trkpt>
      <trkpt lat="42.266862" lon="2.843303">
        <ele>140.4</ele>
        <time>2018-06-10T08:57:09Z</time>
      </trkpt>
      <trkpt lat="42.266553" lon="2.843560">
        <ele>142.6</ele>
        <time>2018-06-10T08:57:19Z</time>
      </trkpt>
      <trkpt lat="42.266496" lon="2.843591">
        <ele>142.9</ele>
        <time>2018-06-10T08:57:21Z</time>
      </trkpt>
      <trkpt lat="42.266432" lon="2.843608">
        <ele>143.5</ele>
        <time>2018-06-10T08:57:22Z</time>
      </trkpt>
      <trkpt lat="42.266128" lon="2.843640">
        <ele>146.7</ele>
        <time>2018-06-10T08:57:30Z</time>
      </trkpt>
      <trkpt lat="42.266005" lon="2.843667">
        <ele>147.2</ele>
        <time>2018-06-10T08:57:34Z</time>
      </trkpt>
      <trkpt lat="42.265797" lon="2.843785">
        <ele>146.7</ele>
        <time>2018-06-10T08:57:40Z</time>
      </trkpt>
      <trkpt lat="42.265700" lon="2.843825">
        <ele>146.2</ele>
        <time>2018-06-10T08:57:42Z</time>
      </trkpt>
      <trkpt lat="42.265608" lon="2.843850">
        <ele>146.6</ele>
        <time>2018-06-10T08:57:45Z</time>
      </trkpt>
      <trkpt lat="42.265487" lon="2.843819">
        <ele>146.3</ele>
        <time>2018-06-10T08:57:48Z</time>
      </trkpt>
      <trkpt lat="42.264850" lon="2.843589">
        <ele>149.9</ele>
        <time>2018-06-10T08:58:06Z</time>
      </trkpt>
      <trkpt lat="42.264703" lon="2.843517">
        <ele>150.1</ele>
        <time>2018-06-10T08:58:10Z</time>
      </trkpt>
      <trkpt lat="42.264567" lon="2.843444">
        <ele>150.8</ele>
        <time>2018-06-10T08:58:14Z</time>
      </trkpt>
      <trkpt lat="42.264393" lon="2.843281">
        <ele>152.0</ele>
        <time>2018-06-10T08:58:20Z</time>
      </trkpt>
      <trkpt lat="42.264333" lon="2.843227">
        <ele>152.0</ele>
        <time>2018-06-10T08:58:21Z</time>
      </trkpt>
      <trkpt lat="42.264263" lon="2.843197">
        <ele>152.4</ele>
        <time>2018-06-10T08:58:23Z</time>
      </trkpt>
      <trkpt lat="42.263909" lon="2.843077">
        <ele>153.4</ele>
        <time>2018-06-10T08:58:33Z</time>
      </trkpt>
      <trkpt lat="42.263870" lon="2.843020">
        <ele>154.0</ele>
        <time>2018-06-10T08:58:35Z</time>
      </trkpt>
      <trkpt lat="42.263846" lon="2.842967">
        <ele>154.2</ele>
        <time>2018-06-10T08:58:36Z</time>
      </trkpt>
      <trkpt lat="42.263840" lon="2.842897">
        <ele>155.2</ele>
        <time>2018-06-10T08:58:37Z</time>
      </trkpt>
      <trkpt lat="42.263845" lon="2.842820">
        <ele>155.9</ele>
        <time>2018-06-10T08:58:39Z</time>
      </trkpt>
      <trkpt lat="42.263890" lon="2.842725">
        <ele>157.1</ele>
        <time>2018-06-10T08:58:41Z</time>
      </trkpt>
      <trkpt lat="42.263945" lon="2.842669">
        <ele>157.2</ele>
        <time>2018-06-10T08:58:43Z</time>
      </trkpt>
      <trkpt lat="42.264298" lon="2.842380">
        <ele>160.0</ele>
        <time>2018-06-10T08:58:54Z</time>
      </trkpt>
      <trkpt lat="42.264422" lon="2.842181">
        <ele>162.1</ele>
        <time>2018-06-10T08:58:59Z</time>
      </trkpt>
      <trkpt lat="42.264528" lon="2.841940">
        <ele>163.0</ele>
        <time>2018-06-10T08:59:05Z</time>
      </trkpt>
      <trkpt lat="42.264560" lon="2.841575">
        <ele>162.0</ele>
        <time>2018-06-10T08:59:12Z</time>
      </trkpt>
      <trkpt lat="42.264536" lon="2.841275">
        <ele>161.8</ele>
        <time>2018-06-10T08:59:18Z</time>
      </trkpt>
      <trkpt lat="42.264491" lon="2.841073">
        <ele>161.5</ele>
        <time>2018-06-10T08:59:22Z</time>
      </trkpt>
      <trkpt lat="42.264418" lon="2.840826">
        <ele>161.0</ele>
        <time>2018-06-10T08:59:27Z</time>
      </trkpt>
      <trkpt lat="42.264323" lon="2.840585">
        <ele>161.8</ele>
        <time>2018-06-10T08:59:33Z</time>
      </trkpt>
      <trkpt lat="42.264290" lon="2.840481">
        <ele>163.0</ele>
        <time>2018-06-10T08:59:35Z</time>
      </trkpt>
      <trkpt lat="42.264301" lon="2.840402">
        <ele>163.5</ele>
        <time>2018-06-10T08:59:36Z</time>
      </trkpt>
      <trkpt lat="42.264330" lon="2.840299">
        <ele>164.2</ele>
        <time>2018-06-10T08:59:39Z</time>
      </trkpt>
      <trkpt lat="42.264563" lon="2.839764">
        <ele>168.7</ele>
        <time>2018-06-10T08:59:51Z</time>
      </trkpt>
      <trkpt lat="42.264821" lon="2.839056">
        <ele>169.6</ele>
        <time>2018-06-10T09:00:06Z</time>
      </trkpt>
      <trkpt lat="42.264901" lon="2.838872">
        <ele>169.4</ele>
        <time>2018-06-10T09:00:11Z</time>
      </trkpt>
      <trkpt lat="42.265044" lon="2.837670">
        <ele>170.0</ele>
        <time>2018-06-10T09:00:35Z</time>
      </trkpt>
      <trkpt lat="42.265063" lon="2.837599">
        <ele>170.0</ele>
        <time>2018-06-10T09:00:36Z</time>
      </trkpt>
      <trkpt lat="42.265159" lon="2.837412">
        <ele>171.8</ele>
        <time>2018-06-10T09:00:41Z</time>
      </trkpt>
      <trkpt lat="42.265219" lon="2.837327">
        <ele>172.1</ele>
        <time>2018-06-10T09:00:43Z</time>
      </trkpt>
      <trkpt lat="42.265481" lon="2.836983">
        <ele>174.9</ele>
        <time>2018-06-10T09:00:53Z</time>
      </trkpt>
      <trkpt lat="42.265625" lon="2.836494">
        <ele>177.6</ele>
        <time>2018-06-10T09:01:03Z</time>
      </trkpt>
      <trkpt lat="42.265616" lon="2.836415">
        <ele>178.2</ele>
        <time>2018-06-10T09:01:05Z</time>
      </trkpt>
      <trkpt lat="42.265590" lon="2.836339">
        <ele>179.2</ele>
        <time>2018-06-10T09:01:06Z</time>
      </trkpt>
      <trkpt lat="42.265548" lon="2.836307">
        <ele>180.0</ele>
        <time>2018-06-10T09:01:08Z</time>
      </trkpt>
      <trkpt lat="42.265497" lon="2.836307">
        <ele>180.5</ele>
        <time>2018-06-10T09:01:09Z</time>
      </trkpt>
      <trkpt lat="42.265379" lon="2.836307">
        <ele>181.1</ele>
        <time>2018-06-10T09:01:12Z</time>
      </trkpt>
      <trkpt lat="42.265220" lon="2.836274">
        <ele>182.0</ele>
        <time>2018-06-10T09:01:16Z</time>
      </trkpt>
      <trkpt lat="42.265124" lon="2.836200">
        <ele>182.8</ele>
        <time>2018-06-10T09:01:19Z</time>
      </trkpt>
      <trkpt lat="42.265095" lon="2.836148">
        <ele>183.0</ele>
        <time>2018-06-10T09:01:21Z</time>
      </trkpt>
      <trkpt lat="42.265084" lon="2.836071">
        <ele>183.0</ele>
        <time>2018-06-10T09:01:22Z</time>
      </trkpt>
      <trkpt lat="42.265079" lon="2.836012">
        <ele>183.9</ele>
        <time>2018-06-10T09:01:23Z</time>
      </trkpt>
      <trkpt lat="42.265100" lon="2.835953">
        <ele>184.0</ele>
        <time>2018-06-10T09:01:25Z</time>
      </trkpt>
      <trkpt lat="42.265149" lon="2.835926">
        <ele>184.0</ele>
        <time>2018-06-10T09:01:26Z</time>
      </trkpt>
      <trkpt lat="42.265354" lon="2.835921">
        <ele>185.2</ele>
        <time>2018-06-10T09:01:31Z</time>
      </trkpt>
      <trkpt lat="42.265411" lon="2.835907">
        <ele>185.8</ele>
        <time>2018-06-10T09:01:33Z</time>
      </trkpt>
      <trkpt lat="42.265453" lon="2.835875">
        <ele>186.0</ele>
        <time>2018-06-10T09:01:34Z</time>
      </trkpt>
      <trkpt lat="42.265489" lon="2.835814">
        <ele>185.7</ele>
        <time>2018-06-10T09:01:36Z</time>
      </trkpt>
      <trkpt lat="42.265576" lon="2.835267">
        <ele>186.7</ele>
        <time>2018-06-10T09:01:47Z</time>
      </trkpt>
      <trkpt lat="42.265561" lon="2.834902">
        <ele>188.0</ele>
        <time>2018-06-10T09:01:54Z</time>
      </trkpt>
      <trkpt lat="42.265552" lon="2.834831">
        <ele>188.0</ele>
        <time>2018-06-10T09:01:55Z</time>
      </trkpt>
      <trkpt lat="42.265560" lon="2.834762">
        <ele>188.0</ele>
        <time>2018-06-10T09:01:57Z</time>
      </trkpt>
      <trkpt lat="42.265592" lon="2.834657">
        <ele>188.0</ele>
        <time>2018-06-10T09:01:59Z</time>
      </trkpt>
      <trkpt lat="42.265639" lon="2.834534">
        <ele>189.0</ele>
        <time>2018-06-10T09:02:02Z</time>
      </trkpt>
      <trkpt lat="42.265719" lon="2.834419">
        <ele>189.6</ele>
        <time>2018-06-10T09:02:05Z</time>
      </trkpt>
      <trkpt lat="42.265973" lon="2.834215">
        <ele>191.5</ele>
        <time>2018-06-10T09:02:13Z</time>
      </trkpt>
      <trkpt lat="42.265983" lon="2.834177">
        <ele>192.0</ele>
        <time>2018-06-10T09:02:14Z</time>
      </trkpt>
      <trkpt lat="42.265971" lon="2.834123">
        <ele>192.0</ele>
        <time>2018-06-10T09:02:15Z</time>
      </trkpt>
      <trkpt lat="42.265908" lon="2.833925">
        <ele>193.3</ele>
        <time>2018-06-10T09:02:19Z</time>
      </trkpt>
      <trkpt lat="42.265862" lon="2.833820">
        <ele>194.0</ele>
        <time>2018-06-10T09:02:21Z</time>
      </trkpt>
      <trkpt lat="42.265808" lon="2.833776">
        <ele>194.4</ele>
        <time>2018-06-10T09:02:23Z</time>
      </trkpt>
      <trkpt lat="42.265589" lon="2.833740">
        <ele>194.4</ele>
        <time>2018-06-10T09:02:29Z</time>
      </trkpt>
      <trkpt lat="42.265339" lon="2.833651">
        <ele>194.9</ele>
        <time>2018-06-10T09:02:36Z</time>
      </trkpt>
      <trkpt lat="42.265250" lon="2.833626">
        <ele>195.0</ele>
        <time>2018-06-10T09:02:38Z</time>
      </trkpt>
      <trkpt lat="42.265192" lon="2.833592">
        <ele>195.0</ele>
        <time>2018-06-10T09:02:40Z</time>
      </trkpt>
      <trkpt lat="42.265157" lon="2.833501">
        <ele>195.1</ele>
        <time>2018-06-10T09:02:42Z</time>
      </trkpt>
      <trkpt lat="42.265140" lon="2.833398">
        <ele>196.0</ele>
        <time>2018-06-10T09:02:44Z</time>
      </trkpt>
      <trkpt lat="42.265142" lon="2.832995">
        <ele>197.0</ele>
        <time>2018-06-10T09:02:52Z</time>
      </trkpt>
      <trkpt lat="42.265158" lon="2.832633">
        <ele>197.1</ele>
        <time>2018-06-10T09:02:59Z</time>
      </trkpt>
      <trkpt lat="42.265147" lon="2.832444">
        <ele>196.2</ele>
        <time>2018-06-10T09:03:03Z</time>
      </trkpt>
      <trkpt lat="42.265111" lon="2.832272">
        <ele>196.7</ele>
        <time>2018-06-10T09:03:06Z</time>
      </trkpt>
      <trkpt lat="42.265061" lon="2.832206">
        <ele>197.7</ele>
        <time>2018-06-10T09:03:08Z</time>
      </trkpt>
      <trkpt lat="42.264976" lon="2.832178">
        <ele>196.3</ele>
        <time>2018-06-10T09:03:11Z</time>
      </trkpt>
      <trkpt lat="42.264860" lon="2.832138">
        <ele>195.4</ele>
        <time>2018-06-10T09:03:14Z</time>
      </trkpt>
      <trkpt lat="42.264731" lon="2.832112">
        <ele>194.8</ele>
        <time>2018-06-10T09:03:17Z</time>
      </trkpt>
      <trkpt lat="42.264536" lon="2.832087">
        <ele>193.0</ele>
        <time>2018-06-10T09:03:23Z</time>
      </trkpt>
      <trkpt lat="42.264419" lon="2.832044">
        <ele>192.3</ele>
        <time>2018-06-10T09:03:26Z</time>
      </trkpt>
      <trkpt lat="42.264302" lon="2.832045">
        <ele>192.0</ele>
        <time>2018-06-10T09:03:29Z</time>
      </trkpt>
      <trkpt lat="42.264183" lon="2.832076">
        <ele>191.0</ele>
        <time>2018-06-10T09:03:32Z</time>
      </trkpt>
      <trkpt lat="42.264103" lon="2.832108">
        <ele>191.0</ele>
        <time>2018-06-10T09:03:34Z</time>
      </trkpt>
      <trkpt lat="42.263984" lon="2.832231">
        <ele>191.0</ele>
        <time>2018-06-10T09:03:38Z</time>
      </trkpt>
      <trkpt lat="42.263914" lon="2.832305">
        <ele>191.9</ele>
        <time>2018-06-10T09:03:41Z</time>
      </trkpt>
      <trkpt lat="42.263867" lon="2.832337">
        <ele>192.0</ele>
        <time>2018-06-10T09:03:42Z</time>
      </trkpt>
      <trkpt lat="42.263811" lon="2.832340">
        <ele>192.4</ele>
        <time>2018-06-10T09:03:44Z</time>
      </trkpt>
      <trkpt lat="42.263737" lon="2.832326">
        <ele>193.0</ele>
        <time>2018-06-10T09:03:46Z</time>
      </trkpt>
      <trkpt lat="42.263697" lon="2.832317">
        <ele>193.0</ele>
        <time>2018-06-10T09:03:47Z</time>
      </trkpt>
      <trkpt lat="42.263639" lon="2.832298">
        <ele>192.8</ele>
        <time>2018-06-10T09:03:48Z</time>
      </trkpt>
      <trkpt lat="42.263531" lon="2.832271">
        <ele>192.3</ele>
        <time>2018-06-10T09:03:51Z</time>
      </trkpt>
      <trkpt lat="42.263478" lon="2.832252">
        <ele>192.0</ele>
        <time>2018-06-10T09:03:53Z</time>
      </trkpt>
      <trkpt lat="42.263431" lon="2.832223">
        <ele>190.8</ele>
        <time>2018-06-10T09:03:54Z</time>
      </trkpt>
      <trkpt lat="42.263406" lon="2.832221">
        <ele>190.2</ele>
        <time>2018-06-10T09:03:55Z</time>
      </trkpt>
      <trkpt lat="42.263339" lon="2.832248">
        <ele>189.6</ele>
        <time>2018-06-10T09:03:57Z</time>
      </trkpt>
      <trkpt lat="42.263234" lon="2.832300">
        <ele>189.6</ele>
        <time>2018-06-10T09:04:00Z</time>
      </trkpt>
      <trkpt lat="42.263087" lon="2.832344">
        <ele>188.1</ele>
        <time>2018-06-10T09:04:04Z</time>
      </trkpt>
      <trkpt lat="42.262818" lon="2.832392">
        <ele>185.3</ele>
        <time>2018-06-10T09:04:11Z</time>
      </trkpt>
      <trkpt lat="42.262591" lon="2.832390">
        <ele>181.3</ele>
        <time>2018-06-10T09:04:17Z</time>
      </trkpt>
      <trkpt lat="42.262366" lon="2.832411">
        <ele>176.7</ele>
        <time>2018-06-10T09:04:23Z</time>
      </trkpt>
      <trkpt lat="42.262189" lon="2.832430">
        <ele>174.1</ele>
        <time>2018-06-10T09:04:28Z</time>
      </trkpt>
      <trkpt lat="42.262064" lon="2.832466">
        <ele>172.9</ele>
        <time>2018-06-10T09:04:31Z</time>
      </trkpt>
      <trkpt lat="42.261942" lon="2.832533">
        <ele>171.3</ele>
        <time>2018-06-10T09:04:35Z</time>
      </trkpt>
      <trkpt lat="42.261682" lon="2.832694">
        <ele>168.1</ele>
        <time>2018-06-10T09:04:42Z</time>
      </trkpt>
      <trkpt lat="42.261477" lon="2.832810">
        <ele>166.0</ele>
        <time>2018-06-10T09:04:48Z</time>
      </trkpt>
      <trkpt lat="42.261431" lon="2.832826">
        <ele>165.6</ele>
        <time>2018-06-10T09:04:50Z</time>
      </trkpt>
      <trkpt lat="42.261387" lon="2.832825">
        <ele>164.7</ele>
        <time>2018-06-10T09:04:51Z</time>
      </trkpt>
      <trkpt lat="42.261307" lon="2.832769">
        <ele>162.0</ele>
        <time>2018-06-10T09:04:53Z</time>
      </trkpt>
      <trkpt lat="42.261242" lon="2.832683">
        <ele>160.2</ele>
        <time>2018-06-10T09:04:56Z</time>
      </trkpt>
      <trkpt lat="42.261172" lon="2.832552">
        <ele>158.5</ele>
        <time>2018-06-10T09:04:59Z</time>
      </trkpt>
      <trkpt lat="42.261100" lon="2.832462">
        <ele>157.4</ele>
        <time>2018-06-10T09:05:02Z</time>
      </trkpt>
      <trkpt lat="42.261042" lon="2.832367">
        <ele>155.6</ele>
        <time>2018-06-10T09:05:04Z</time>
      </trkpt>
      <trkpt lat="42.261019" lon="2.832242">
        <ele>153.8</ele>
        <time>2018-06-10T09:05:07Z</time>
      </trkpt>
      <trkpt lat="42.261019" lon="2.832063">
        <ele>151.8</ele>
        <time>2018-06-10T09:05:10Z</time>
      </trkpt>
      <trkpt lat="42.261010" lon="2.831906">
        <ele>150.0</ele>
        <time>2018-06-10T09:05:13Z</time>
      </trkpt>
      <trkpt lat="42.260995" lon="2.831841">
        <ele>148.8</ele>
        <time>2018-06-10T09:05:15Z</time>
      </trkpt>
      <trkpt lat="42.260958" lon="2.831835">
        <ele>147.9</ele>
        <time>2018-06-10T09:05:16Z</time>
      </trkpt>
      <trkpt lat="42.260801" lon="2.832070">
        <ele>146.3</ele>
        <time>2018-06-10T09:05:22Z</time>
      </trkpt>
      <trkpt lat="42.260767" lon="2.832158">
        <ele>145.6</ele>
        <time>2018-06-10T09:05:24Z</time>
      </trkpt>
      <trkpt lat="42.260726" lon="2.832217">
        <ele>145.0</ele>
        <time>2018-06-10T09:05:26Z</time>
      </trkpt>
      <trkpt lat="42.260689" lon="2.832297">
        <ele>144.9</ele>
        <time>2018-06-10T09:05:27Z</time>
      </trkpt>
      <trkpt lat="42.260642" lon="2.832348">
        <ele>144.4</ele>
        <time>2018-06-10T09:05:29Z</time>
      </trkpt>
      <trkpt lat="42.260594" lon="2.832394">
        <ele>144.0</ele>
        <time>2018-06-10T09:05:31Z</time>
      </trkpt>
      <trkpt lat="42.260553" lon="2.832458">
        <ele>143.9</ele>
        <time>2018-06-10T09:05:32Z</time>
      </trkpt>
      <trkpt lat="42.260473" lon="2.832514">
        <ele>143.1</ele>
        <time>2018-06-10T09:05:35Z</time>
      </trkpt>
      <trkpt lat="42.260257" lon="2.832601">
        <ele>141.8</ele>
        <time>2018-06-10T09:05:41Z</time>
      </trkpt>
      <trkpt lat="42.260208" lon="2.832601">
        <ele>142.3</ele>
        <time>2018-06-10T09:05:42Z</time>
      </trkpt>
      <trkpt lat="42.260129" lon="2.832562">
        <ele>143.0</ele>
        <time>2018-06-10T09:05:44Z</time>
      </trkpt>
      <trkpt lat="42.260075" lon="2.832547">
        <ele>143.3</ele>
        <time>2018-06-10T09:05:46Z</time>
      </trkpt>
      <trkpt lat="42.260029" lon="2.832554">
        <ele>143.9</ele>
        <time>2018-06-10T09:05:47Z</time>
      </trkpt>
      <trkpt lat="42.259965" lon="2.832576">
        <ele>145.0</ele>
        <time>2018-06-10T09:05:49Z</time>
      </trkpt>
      <trkpt lat="42.259876" lon="2.832623">
        <ele>146.2</ele>
        <time>2018-06-10T09:05:51Z</time>
      </trkpt>
      <trkpt lat="42.259811" lon="2.832633">
        <ele>147.5</ele>
        <time>2018-06-10T09:05:53Z</time>
      </trkpt>
      <trkpt lat="42.259764" lon="2.832658">
        <ele>147.5</ele>
        <time>2018-06-10T09:05:54Z</time>
      </trkpt>
      <trkpt lat="42.259679" lon="2.832660">
        <ele>149.0</ele>
        <time>2018-06-10T09:05:57Z</time>
      </trkpt>
      <trkpt lat="42.259647" lon="2.832642">
        <ele>149.6</ele>
        <time>2018-06-10T09:05:58Z</time>
      </trkpt>
      <trkpt lat="42.259588" lon="2.832541">
        <ele>150.2</ele>
        <time>2018-06-10T09:06:00Z</time>
      </trkpt>
      <trkpt lat="42.259521" lon="2.832451">
        <ele>151.9</ele>
        <time>2018-06-10T09:06:03Z</time>
      </trkpt>
      <trkpt lat="42.259462" lon="2.832328">
        <ele>152.9</ele>
        <time>2018-06-10T09:06:06Z</time>
      </trkpt>
      <trkpt lat="42.259397" lon="2.832177">
        <ele>154.4</ele>
        <time>2018-06-10T09:06:09Z</time>
      </trkpt>
      <trkpt lat="42.259369" lon="2.832077">
        <ele>156.1</ele>
        <time>2018-06-10T09:06:11Z</time>
      </trkpt>
      <trkpt lat="42.259339" lon="2.831984">
        <ele>157.6</ele>
        <time>2018-06-10T09:06:13Z</time>
      </trkpt>
      <trkpt lat="42.259306" lon="2.831930">
        <ele>158.5</ele>
        <time>2018-06-10T09:06:15Z</time>
      </trkpt>
      <trkpt lat="42.259243" lon="2.831885">
        <ele>159.4</ele>
        <time>2018-06-10T09:06:16Z</time>
      </trkpt>
      <trkpt lat="42.259069" lon="2.831809">
        <ele>162.5</ele>
        <time>2018-06-10T09:06:21Z</time>
      </trkpt>
      <trkpt lat="42.258635" lon="2.831745">
        <ele>164.6</ele>
        <time>2018-06-10T09:06:33Z</time>
      </trkpt>
      <trkpt lat="42.258543" lon="2.831729">
        <ele>164.9</ele>
        <time>2018-06-10T09:06:36Z</time>
      </trkpt>
      <trkpt lat="42.258266" lon="2.831652">
        <ele>166.0</ele>
        <time>2018-06-10T09:06:43Z</time>
      </trkpt>
      <trkpt lat="42.257976" lon="2.831604">
        <ele>165.9</ele>
        <time>2018-06-10T09:06:51Z</time>
      </trkpt>
      <trkpt lat="42.257927" lon="2.831589">
        <ele>166.4</ele>
        <time>2018-06-10T09:06:52Z</time>
      </trkpt>
      <trkpt lat="42.257859" lon="2.831565">
        <ele>166.6</ele>
        <time>2018-06-10T09:06:54Z</time>
      </trkpt>
      <trkpt lat="42.257808" lon="2.831523">
        <ele>166.3</ele>
        <time>2018-06-10T09:06:56Z</time>
      </trkpt>
      <trkpt lat="42.257750" lon="2.831412">
        <ele>168.0</ele>
        <time>2018-06-10T09:06:58Z</time>
      </trkpt>
      <trkpt lat="42.257632" lon="2.831126">
        <ele>170.8</ele>
        <time>2018-06-10T09:07:05Z</time>
      </trkpt>
      <trkpt lat="42.257605" lon="2.831042">
        <ele>171.0</ele>
        <time>2018-06-10T09:07:07Z</time>
      </trkpt>
      <trkpt lat="42.257605" lon="2.830976">
        <ele>171.0</ele>
        <time>2018-06-10T09:07:08Z</time>
      </trkpt>
      <trkpt lat="42.257600" lon="2.830921">
        <ele>171.0</ele>
        <time>2018-06-10T09:07:09Z</time>
      </trkpt>
      <trkpt lat="42.257573" lon="2.830896">
        <ele>170.8</ele>
        <time>2018-06-10T09:07:10Z</time>
      </trkpt>
      <trkpt lat="42.257557" lon="2.830888">
        <ele>170.5</ele>
        <time>2018-06-10T09:07:10Z</time>
      </trkpt>
      <trkpt lat="42.257437" lon="2.830929">
        <ele>169.6</ele>
        <time>2018-06-10T09:07:14Z</time>
      </trkpt>
      <trkpt lat="42.257051" lon="2.831204">
        <ele>167.1</ele>
        <time>2018-06-10T09:07:25Z</time>
      </trkpt>
      <trkpt lat="42.256869" lon="2.831354">
        <ele>166.1</ele>
        <time>2018-06-10T09:07:31Z</time>
      </trkpt>
      <trkpt lat="42.256638" lon="2.831489">
        <ele>164.9</ele>
        <time>2018-06-10T09:07:38Z</time>
      </trkpt>
      <trkpt lat="42.256466" lon="2.831603">
        <ele>163.0</ele>
        <time>2018-06-10T09:07:43Z</time>
      </trkpt>
      <trkpt lat="42.255079" lon="2.832422">
        <ele>157.3</ele>
        <time>2018-06-10T09:08:23Z</time>
      </trkpt>
      <trkpt lat="42.255044" lon="2.832402">
        <ele>157.0</ele>
        <time>2018-06-10T09:08:24Z</time>
      </trkpt>
      <trkpt lat="42.254667" lon="2.831566">
        <ele>154.1</ele>
        <time>2018-06-10T09:08:43Z</time>
      </trkpt>
      <trkpt lat="42.254488" lon="2.831082">
        <ele>152.0</ele>
        <time>2018-06-10T09:08:54Z</time>
      </trkpt>
      <trkpt lat="42.254400" lon="2.830748">
        <ele>150.8</ele>
        <time>2018-06-10T09:09:01Z</time>
      </trkpt>
      <trkpt lat="42.254312" lon="2.830325">
        <ele>147.5</ele>
        <time>2018-06-10T09:09:10Z</time>
      </trkpt>
      <trkpt lat="42.254330" lon="2.830210">
        <ele>146.2</ele>
        <time>2018-06-10T09:09:12Z</time>
      </trkpt>
      <trkpt lat="42.254366" lon="2.830133">
        <ele>145.6</ele>
        <time>2018-06-10T09:09:14Z</time>
      </trkpt>
      <trkpt lat="42.254414" lon="2.830081">
        <ele>144.8</ele>
        <time>2018-06-10T09:09:16Z</time>
      </trkpt>
      <trkpt lat="42.254524" lon="2.830056">
        <ele>143.3</ele>
        <time>2018-06-10T09:09:19Z</time>
      </trkpt>
      <trkpt lat="42.254712" lon="2.830013">
        <ele>139.3</ele>
        <time>2018-06-10T09:09:24Z</time>
      </trkpt>
      <trkpt lat="42.254786" lon="2.829987">
        <ele>138.5</ele>
        <time>2018-06-10T09:09:26Z</time>
      </trkpt>
      <trkpt lat="42.254842" lon="2.829955">
        <ele>138.6</ele>
        <time>2018-06-10T09:09:27Z</time>
      </trkpt>
      <trkpt lat="42.254865" lon="2.829914">
        <ele>138.0</ele>
        <time>2018-06-10T09:09:28Z</time>
      </trkpt>
      <trkpt lat="42.254854" lon="2.829872">
        <ele>138.0</ele>
        <time>2018-06-10T09:09:29Z</time>
      </trkpt>
      <trkpt lat="42.254830" lon="2.829864">
        <ele>138.0</ele>
        <time>2018-06-10T09:09:30Z</time>
      </trkpt>
      <trkpt lat="42.254755" lon="2.829886">
        <ele>137.4</ele>
        <time>2018-06-10T09:09:32Z</time>
      </trkpt>
      <trkpt lat="42.254673" lon="2.829905">
        <ele>136.9</ele>
        <time>2018-06-10T09:09:34Z</time>
      </trkpt>
      <trkpt lat="42.254638" lon="2.829901">
        <ele>136.8</ele>
        <time>2018-06-10T09:09:35Z</time>
      </trkpt>
      <trkpt lat="42.254584" lon="2.829864">
        <ele>136.3</ele>
        <time>2018-06-10T09:09:37Z</time>
      </trkpt>
      <trkpt lat="42.254454" lon="2.829700">
        <ele>134.3</ele>
        <time>2018-06-10T09:09:41Z</time>
      </trkpt>
      <trkpt lat="42.254381" lon="2.829578">
        <ele>133.5</ele>
        <time>2018-06-10T09:09:45Z</time>
      </trkpt>
      <trkpt lat="42.254317" lon="2.829512">
        <ele>133.8</ele>
        <time>2018-06-10T09:09:47Z</time>
      </trkpt>
      <trkpt lat="42.254229" lon="2.829420">
        <ele>134.1</ele>
        <time>2018-06-10T09:09:50Z</time>
      </trkpt>
      <trkpt lat="42.254132" lon="2.829291">
        <ele>135.4</ele>
        <time>2018-06-10T09:09:53Z</time>
      </trkpt>
      <trkpt lat="42.254070" lon="2.829218">
        <ele>135.5</ele>
        <time>2018-06-10T09:09:56Z</time>
      </trkpt>
      <trkpt lat="42.253949" lon="2.829099">
        <ele>136.1</ele>
        <time>2018-06-10T09:09:59Z</time>
      </trkpt>
      <trkpt lat="42.253869" lon="2.828956">
        <ele>137.3</ele>
        <time>2018-06-10T09:10:03Z</time>
      </trkpt>
      <trkpt lat="42.253801" lon="2.828817">
        <ele>138.2</ele>
        <time>2018-06-10T09:10:06Z</time>
      </trkpt>
      <trkpt lat="42.253776" lon="2.828711">
        <ele>139.3</ele>
        <time>2018-06-10T09:10:09Z</time>
      </trkpt>
      <trkpt lat="42.253770" lon="2.828584">
        <ele>140.3</ele>
        <time>2018-06-10T09:10:11Z</time>
      </trkpt>
      <trkpt lat="42.253781" lon="2.828471">
        <ele>141.1</ele>
        <time>2018-06-10T09:10:13Z</time>
      </trkpt>
      <trkpt lat="42.253784" lon="2.828386">
        <ele>141.9</ele>
        <time>2018-06-10T09:10:15Z</time>
      </trkpt>
      <trkpt lat="42.253779" lon="2.828308">
        <ele>142.9</ele>
        <time>2018-06-10T09:10:17Z</time>
      </trkpt>
      <trkpt lat="42.253744" lon="2.828249">
        <ele>142.9</ele>
        <time>2018-06-10T09:10:18Z</time>
      </trkpt>
      <trkpt lat="42.253686" lon="2.828187">
        <ele>143.3</ele>
        <time>2018-06-10T09:10:20Z</time>
      </trkpt>
      <trkpt lat="42.253558" lon="2.828098">
        <ele>143.0</ele>
        <time>2018-06-10T09:10:24Z</time>
      </trkpt>
      <trkpt lat="42.253464" lon="2.828011">
        <ele>142.8</ele>
        <time>2018-06-10T09:10:27Z</time>
      </trkpt>
      <trkpt lat="42.253412" lon="2.827913">
        <ele>142.0</ele>
        <time>2018-06-10T09:10:29Z</time>
      </trkpt>
      <trkpt lat="42.253376" lon="2.827829">
        <ele>141.6</ele>
        <time>2018-06-10T09:10:31Z</time>
      </trkpt>
      <trkpt lat="42.253272" lon="2.827673">
        <ele>139.3</ele>
        <time>2018-06-10T09:10:35Z</time>
      </trkpt>
      <trkpt lat="42.253205" lon="2.827551">
        <ele>137.0</ele>
        <time>2018-06-10T09:10:38Z</time>
      </trkpt>
      <trkpt lat="42.253153" lon="2.827404">
        <ele>135.7</ele>
        <time>2018-06-10T09:10:42Z</time>
      </trkpt>
      <trkpt lat="42.253116" lon="2.827290">
        <ele>135.3</ele>
        <time>2018-06-10T09:10:44Z</time>
      </trkpt>
      <trkpt lat="42.253046" lon="2.827168">
        <ele>135.9</ele>
        <time>2018-06-10T09:10:47Z</time>
      </trkpt>
      <trkpt lat="42.252965" lon="2.827103">
        <ele>135.7</ele>
        <time>2018-06-10T09:10:50Z</time>
      </trkpt>
      <trkpt lat="42.252860" lon="2.827017">
        <ele>134.8</ele>
        <time>2018-06-10T09:10:53Z</time>
      </trkpt>
      <trkpt lat="42.252702" lon="2.826870">
        <ele>133.0</ele>
        <time>2018-06-10T09:10:58Z</time>
      </trkpt>
      <trkpt lat="42.252495" lon="2.826672">
        <ele>132.0</ele>
        <time>2018-06-10T09:11:05Z</time>
      </trkpt>
      <trkpt lat="42.252322" lon="2.826559">
        <ele>130.3</ele>
        <time>2018-06-10T09:11:10Z</time>
      </trkpt>
      <trkpt lat="42.251987" lon="2.826365">
        <ele>128.6</ele>
        <time>2018-06-10T09:11:20Z</time>
      </trkpt>
      <trkpt lat="42.251531" lon="2.826035">
        <ele>124.6</ele>
        <time>2018-06-10T09:11:33Z</time>
      </trkpt>
      <trkpt lat="42.251368" lon="2.825924">
        <ele>122.0</ele>
        <time>2018-06-10T09:11:38Z</time>
      </trkpt>
      <trkpt lat="42.251216" lon="2.825831">
        <ele>121.4</ele>
        <time>2018-06-10T09:11:43Z</time>
      </trkpt>
      <trkpt lat="42.251130" lon="2.825764">
        <ele>120.0</ele>
        <time>2018-06-10T09:11:45Z</time>
      </trkpt>
      <trkpt lat="42.251046" lon="2.825675">
        <ele>120.0</ele>
        <time>2018-06-10T09:11:48Z</time>
      </trkpt>
      <trkpt lat="42.250964" lon="2.825553">
        <ele>119.8</ele>
        <time>2018-06-10T09:11:52Z</time>
      </trkpt>
      <trkpt lat="42.250911" lon="2.825464">
        <ele>121.0</ele>
        <time>2018-06-10T09:11:54Z</time>
      </trkpt>
      <trkpt lat="42.250858" lon="2.825359">
        <ele>121.9</ele>
        <time>2018-06-10T09:11:56Z</time>
      </trkpt>
      <trkpt lat="42.250811" lon="2.825275">
        <ele>121.7</ele>
        <time>2018-06-10T09:11:58Z</time>
      </trkpt>
      <trkpt lat="42.250771" lon="2.825203">
        <ele>121.0</ele>
        <time>2018-06-10T09:12:00Z</time>
      </trkpt>
      <trkpt lat="42.250742" lon="2.825127">
        <ele>121.0</ele>
        <time>2018-06-10T09:12:02Z</time>
      </trkpt>
      <trkpt lat="42.250727" lon="2.825042">
        <ele>121.0</ele>
        <time>2018-06-10T09:12:04Z</time>
      </trkpt>
      <trkpt lat="42.250723" lon="2.824962">
        <ele>121.0</ele>
        <time>2018-06-10T09:12:05Z</time>
      </trkpt>
      <trkpt lat="42.250707" lon="2.824902">
        <ele>121.0</ele>
        <time>2018-06-10T09:12:06Z</time>
      </trkpt>
      <trkpt lat="42.250679" lon="2.824847">
        <ele>121.0</ele>
        <time>2018-06-10T09:12:08Z</time>
      </trkpt>
      <trkpt lat="42.250658" lon="2.824731">
        <ele>121.4</ele>
        <time>2018-06-10T09:12:10Z</time>
      </trkpt>
      <trkpt lat="42.250678" lon="2.824611">
        <ele>123.3</ele>
        <time>2018-06-10T09:12:13Z</time>
      </trkpt>
      <trkpt lat="42.250716" lon="2.824532">
        <ele>122.6</ele>
        <time>2018-06-10T09:12:14Z</time>
      </trkpt>
      <trkpt lat="42.250719" lon="2.824419">
        <ele>122.9</ele>
        <time>2018-06-10T09:12:17Z</time>
      </trkpt>
      <trkpt lat="42.250686" lon="2.824321">
        <ele>123.0</ele>
        <time>2018-06-10T09:12:19Z</time>
      </trkpt>
      <trkpt lat="42.250661" lon="2.824273">
        <ele>123.6</ele>
        <time>2018-06-10T09:12:20Z</time>
      </trkpt>
      <trkpt lat="42.250637" lon="2.824252">
        <ele>124.1</ele>
        <time>2018-06-10T09:12:21Z</time>
      </trkpt>
      <trkpt lat="42.250586" lon="2.824176">
        <ele>125.8</ele>
        <time>2018-06-10T09:12:23Z</time>
      </trkpt>
      <trkpt lat="42.250548" lon="2.824009">
        <ele>128.0</ele>
        <time>2018-06-10T09:12:26Z</time>
      </trkpt>
      <trkpt lat="42.250527" lon="2.823878">
        <ele>130.6</ele>
        <time>2018-06-10T09:12:29Z</time>
      </trkpt>
      <trkpt lat="42.250507" lon="2.823733">
        <ele>133.1</ele>
        <time>2018-06-10T09:12:32Z</time>
      </trkpt>
      <trkpt lat="42.250466" lon="2.823447">
        <ele>137.1</ele>
        <time>2018-06-10T09:12:38Z</time>
      </trkpt>
      <trkpt lat="42.250435" lon="2.823276">
        <ele>139.3</ele>
        <time>2018-06-10T09:12:41Z</time>
      </trkpt>
      <trkpt lat="42.250364" lon="2.823026">
        <ele>141.6</ele>
        <time>2018-06-10T09:12:47Z</time>
      </trkpt>
      <trkpt lat="42.250187" lon="2.822503">
        <ele>145.4</ele>
        <time>2018-06-10T09:12:58Z</time>
      </trkpt>
      <trkpt lat="42.250080" lon="2.822137">
        <ele>147.4</ele>
        <time>2018-06-10T09:13:06Z</time>
      </trkpt>
      <trkpt lat="42.250014" lon="2.821978">
        <ele>148.6</ele>
        <time>2018-06-10T09:13:09Z</time>
      </trkpt>
      <trkpt lat="42.249879" lon="2.821711">
        <ele>150.1</ele>
        <time>2018-06-10T09:13:16Z</time>
      </trkpt>
      <trkpt lat="42.249728" lon="2.821410">
        <ele>151.6</ele>
        <time>2018-06-10T09:13:23Z</time>
      </trkpt>
      <trkpt lat="42.249623" lon="2.821209">
        <ele>153.8</ele>
        <time>2018-06-10T09:13:28Z</time>
      </trkpt>
      <trkpt lat="42.249276" lon="2.820603">
        <ele>159.9</ele>
        <time>2018-06-10T09:13:43Z</time>
      </trkpt>
      <trkpt lat="42.249197" lon="2.820450">
        <ele>162.0</ele>
        <time>2018-06-10T09:13:47Z</time>
      </trkpt>
      <trkpt lat="42.249175" lon="2.820321">
        <ele>164.3</ele>
        <time>2018-06-10T09:13:49Z</time>
      </trkpt>
      <trkpt lat="42.249283" lon="2.819974">
        <ele>165.2</ele>
        <time>2018-06-10T09:13:57Z</time>
      </trkpt>
      <trkpt lat="42.249312" lon="2.819755">
        <ele>164.4</ele>
        <time>2018-06-10T09:14:01Z</time>
      </trkpt>
      <trkpt lat="42.249280" lon="2.819532">
        <ele>164.0</ele>
        <time>2018-06-10T09:14:06Z</time>
      </trkpt>
      <trkpt lat="42.249253" lon="2.819457">
        <ele>164.0</ele>
        <time>2018-06-10T09:14:07Z</time>
      </trkpt>
      <trkpt lat="42.249204" lon="2.819393">
        <ele>163.2</ele>
        <time>2018-06-10T09:14:09Z</time>
      </trkpt>
      <trkpt lat="42.249132" lon="2.819347">
        <ele>163.6</ele>
        <time>2018-06-10T09:14:11Z</time>
      </trkpt>
      <trkpt lat="42.249073" lon="2.819305">
        <ele>163.9</ele>
        <time>2018-06-10T09:14:13Z</time>
      </trkpt>
      <trkpt lat="42.249017" lon="2.819192">
        <ele>164.0</ele>
        <time>2018-06-10T09:14:16Z</time>
      </trkpt>
      <trkpt lat="42.248974" lon="2.819075">
        <ele>164.8</ele>
        <time>2018-06-10T09:14:18Z</time>
      </trkpt>
      <trkpt lat="42.248955" lon="2.818836">
        <ele>166.2</ele>
        <time>2018-06-10T09:14:23Z</time>
      </trkpt>
      <trkpt lat="42.248917" lon="2.818754">
        <ele>166.0</ele>
        <time>2018-06-10T09:14:25Z</time>
      </trkpt>
      <trkpt lat="42.248879" lon="2.818716">
        <ele>166.0</ele>
        <time>2018-06-10T09:14:26Z</time>
      </trkpt>
      <trkpt lat="42.248602" lon="2.818642">
        <ele>169.4</ele>
        <time>2018-06-10T09:14:34Z</time>
      </trkpt>
      <trkpt lat="42.247963" lon="2.818460">
        <ele>177.3</ele>
        <time>2018-06-10T09:14:51Z</time>
      </trkpt>
      <trkpt lat="42.247837" lon="2.818390">
        <ele>178.4</ele>
        <time>2018-06-10T09:14:55Z</time>
      </trkpt>
      <trkpt lat="42.247804" lon="2.818350">
        <ele>179.0</ele>
        <time>2018-06-10T09:14:56Z</time>
      </trkpt>
      <trkpt lat="42.247780" lon="2.818288">
        <ele>179.7</ele>
        <time>2018-06-10T09:14:57Z</time>
      </trkpt>
      <trkpt lat="42.247784" lon="2.818206">
        <ele>180.3</ele>
        <time>2018-06-10T09:14:59Z</time>
      </trkpt>
      <trkpt lat="42.247833" lon="2.817993">
        <ele>182.2</ele>
        <time>2018-06-10T09:15:03Z</time>
      </trkpt>
      <trkpt lat="42.247859" lon="2.817838">
        <ele>184.1</ele>
        <time>2018-06-10T09:15:07Z</time>
      </trkpt>
      <trkpt lat="42.247983" lon="2.817351">
        <ele>187.4</ele>
        <time>2018-06-10T09:15:17Z</time>
      </trkpt>
      <trkpt lat="42.248038" lon="2.816984">
        <ele>192.3</ele>
        <time>2018-06-10T09:15:24Z</time>
      </trkpt>
      <trkpt lat="42.248057" lon="2.816848">
        <ele>193.2</ele>
        <time>2018-06-10T09:15:27Z</time>
      </trkpt>
      <trkpt lat="42.248047" lon="2.816508">
        <ele>196.6</ele>
        <time>2018-06-10T09:15:34Z</time>
      </trkpt>
      <trkpt lat="42.247999" lon="2.816238">
        <ele>198.4</ele>
        <time>2018-06-10T09:15:39Z</time>
      </trkpt>
      <trkpt lat="42.247961" lon="2.816111">
        <ele>200.2</ele>
        <time>2018-06-10T09:15:42Z</time>
      </trkpt>
      <trkpt lat="42.247930" lon="2.815972">
        <ele>201.9</ele>
        <time>2018-06-10T09:15:45Z</time>
      </trkpt>
      <trkpt lat="42.247903" lon="2.815893">
        <ele>202.5</ele>
        <time>2018-06-10T09:15:46Z</time>
      </trkpt>
      <trkpt lat="42.247907" lon="2.815753">
        <ele>202.4</ele>
        <time>2018-06-10T09:15:49Z</time>
      </trkpt>
      <trkpt lat="42.247918" lon="2.815622">
        <ele>203.1</ele>
        <time>2018-06-10T09:15:52Z</time>
      </trkpt>
      <trkpt lat="42.247918" lon="2.815534">
        <ele>203.1</ele>
        <time>2018-06-10T09:15:54Z</time>
      </trkpt>
      <trkpt lat="42.247915" lon="2.815441">
        <ele>203.2</ele>
        <time>2018-06-10T09:15:55Z</time>
      </trkpt>
      <trkpt lat="42.247874" lon="2.815329">
        <ele>203.2</ele>
        <time>2018-06-10T09:15:58Z</time>
      </trkpt>
      <trkpt lat="42.247849" lon="2.815225">
        <ele>203.2</ele>
        <time>2018-06-10T09:16:00Z</time>
      </trkpt>
      <trkpt lat="42.247818" lon="2.815124">
        <ele>203.5</ele>
        <time>2018-06-10T09:16:02Z</time>
      </trkpt>
      <trkpt lat="42.247802" lon="2.814937">
        <ele>202.3</ele>
        <time>2018-06-10T09:16:06Z</time>
      </trkpt>
      <trkpt lat="42.247832" lon="2.814740">
        <ele>201.0</ele>
        <time>2018-06-10T09:16:10Z</time>
      </trkpt>
      <trkpt lat="42.247846" lon="2.814642">
        <ele>200.2</ele>
        <time>2018-06-10T09:16:12Z</time>
      </trkpt>
      <trkpt lat="42.247989" lon="2.814333">
        <ele>198.0</ele>
        <time>2018-06-10T09:16:19Z</time>
      </trkpt>
      <trkpt lat="42.247991" lon="2.814275">
        <ele>198.0</ele>
        <time>2018-06-10T09:16:20Z</time>
      </trkpt>
      <trkpt lat="42.247974" lon="2.814220">
        <ele>198.0</ele>
        <time>2018-06-10T09:16:21Z</time>
      </trkpt>
      <trkpt lat="42.247860" lon="2.814106">
        <ele>197.0</ele>
        <time>2018-06-10T09:16:25Z</time>
      </trkpt>
      <trkpt lat="42.247629" lon="2.813896">
        <ele>196.3</ele>
        <time>2018-06-10T09:16:33Z</time>
      </trkpt>
      <trkpt lat="42.247453" lon="2.813720">
        <ele>197.2</ele>
        <time>2018-06-10T09:16:38Z</time>
      </trkpt>
      <trkpt lat="42.247086" lon="2.813404">
        <ele>200.0</ele>
        <time>2018-06-10T09:16:50Z</time>
      </trkpt>
      <trkpt lat="42.246949" lon="2.813368">
        <ele>201.2</ele>
        <time>2018-06-10T09:16:54Z</time>
      </trkpt>
      <trkpt lat="42.246757" lon="2.813307">
        <ele>201.4</ele>
        <time>2018-06-10T09:16:59Z</time>
      </trkpt>
      <trkpt lat="42.246203" lon="2.813080">
        <ele>206.2</ele>
        <time>2018-06-10T09:17:14Z</time>
      </trkpt>
      <trkpt lat="42.246106" lon="2.813063">
        <ele>207.4</ele>
        <time>2018-06-10T09:17:17Z</time>
      </trkpt>
      <trkpt lat="42.245989" lon="2.813072">
        <ele>208.1</ele>
        <time>2018-06-10T09:17:20Z</time>
      </trkpt>
      <trkpt lat="42.245861" lon="2.813093">
        <ele>208.0</ele>
        <time>2018-06-10T09:17:24Z</time>
      </trkpt>
      <trkpt lat="42.245787" lon="2.813071">
        <ele>208.4</ele>
        <time>2018-06-10T09:17:26Z</time>
      </trkpt>
      <trkpt lat="42.245683" lon="2.813015">
        <ele>209.5</ele>
        <time>2018-06-10T09:17:29Z</time>
      </trkpt>
      <trkpt lat="42.245565" lon="2.812899">
        <ele>211.0</ele>
        <time>2018-06-10T09:17:33Z</time>
      </trkpt>
      <trkpt lat="42.245415" lon="2.812753">
        <ele>212.5</ele>
        <time>2018-06-10T09:17:37Z</time>
      </trkpt>
      <trkpt lat="42.245296" lon="2.812671">
        <ele>213.9</ele>
        <time>2018-06-10T09:17:41Z</time>
      </trkpt>
      <trkpt lat="42.245139" lon="2.812571">
        <ele>214.0</ele>
        <time>2018-06-10T09:17:46Z</time>
      </trkpt>
      <trkpt lat="42.245081" lon="2.812521">
        <ele>214.0</ele>
        <time>2018-06-10T09:17:47Z</time>
      </trkpt>
      <trkpt lat="42.244986" lon="2.812484">
        <ele>214.0</ele>
        <time>2018-06-10T09:17:50Z</time>
      </trkpt>
      <trkpt lat="42.244139" lon="2.812207">
        <ele>208.0</ele>
        <time>2018-06-10T09:18:13Z</time>
      </trkpt>
      <trkpt lat="42.244059" lon="2.812181">
        <ele>207.3</ele>
        <time>2018-06-10T09:18:16Z</time>
      </trkpt>
      <trkpt lat="42.243997" lon="2.812137">
        <ele>206.0</ele>
        <time>2018-06-10T09:18:17Z</time>
      </trkpt>
      <trkpt lat="42.243945" lon="2.812084">
        <ele>205.8</ele>
        <time>2018-06-10T09:18:19Z</time>
      </trkpt>
      <trkpt lat="42.243907" lon="2.812040">
        <ele>205.0</ele>
        <time>2018-06-10T09:18:20Z</time>
      </trkpt>
      <trkpt lat="42.243830" lon="2.811942">
        <ele>204.0</ele>
        <time>2018-06-10T09:18:23Z</time>
      </trkpt>
      <trkpt lat="42.243711" lon="2.811791">
        <ele>203.3</ele>
        <time>2018-06-10T09:18:28Z</time>
      </trkpt>
      <trkpt lat="42.243576" lon="2.811678">
        <ele>202.2</ele>
        <time>2018-06-10T09:18:32Z</time>
      </trkpt>
      <trkpt lat="42.243327" lon="2.811402">
        <ele>200.1</ele>
        <time>2018-06-10T09:18:40Z</time>
      </trkpt>
      <trkpt lat="42.243199" lon="2.811177">
        <ele>198.7</ele>
        <time>2018-06-10T09:18:46Z</time>
      </trkpt>
      <trkpt lat="42.243032" lon="2.810725">
        <ele>197.1</ele>
        <time>2018-06-10T09:18:56Z</time>
      </trkpt>
      <trkpt lat="42.242771" lon="2.810147">
        <ele>193.8</ele>
        <time>2018-06-10T09:19:09Z</time>
      </trkpt>
      <trkpt lat="42.242670" lon="2.810037">
        <ele>192.2</ele>
        <time>2018-06-10T09:19:13Z</time>
      </trkpt>
      <trkpt lat="42.242552" lon="2.809929">
        <ele>191.0</ele>
        <time>2018-06-10T09:19:17Z</time>
      </trkpt>
      <trkpt lat="42.242303" lon="2.809783">
        <ele>189.4</ele>
        <time>2018-06-10T09:19:24Z</time>
      </trkpt>
      <trkpt lat="42.242185" lon="2.809701">
        <ele>188.0</ele>
        <time>2018-06-10T09:19:27Z</time>
      </trkpt>
      <trkpt lat="42.241995" lon="2.809654">
        <ele>187.0</ele>
        <time>2018-06-10T09:19:33Z</time>
      </trkpt>
      <trkpt lat="42.241697" lon="2.809483">
        <ele>185.0</ele>
        <time>2018-06-10T09:19:41Z</time>
      </trkpt>
      <trkpt lat="42.241362" lon="2.809213">
        <ele>183.0</ele>
        <time>2018-06-10T09:19:52Z</time>
      </trkpt>
      <trkpt lat="42.240806" lon="2.808822">
        <ele>180.2</ele>
        <time>2018-06-10T09:20:08Z</time>
      </trkpt>
      <trkpt lat="42.240661" lon="2.808730">
        <ele>180.0</ele>
        <time>2018-06-10T09:20:13Z</time>
      </trkpt>
      <trkpt lat="42.240457" lon="2.808669">
        <ele>179.0</ele>
        <time>2018-06-10T09:20:18Z</time>
      </trkpt>
      <trkpt lat="42.240389" lon="2.808691">
        <ele>178.0</ele>
        <time>2018-06-10T09:20:20Z</time>
      </trkpt>
      <trkpt lat="42.240315" lon="2.808745">
        <ele>177.3</ele>
        <time>2018-06-10T09:20:22Z</time>
      </trkpt>
      <trkpt lat="42.240198" lon="2.808912">
        <ele>176.0</ele>
        <time>2018-06-10T09:20:27Z</time>
      </trkpt>
      <trkpt lat="42.240153" lon="2.809001">
        <ele>175.0</ele>
        <time>2018-06-10T09:20:29Z</time>
      </trkpt>
      <trkpt lat="42.240085" lon="2.809077">
        <ele>174.4</ele>
        <time>2018-06-10T09:20:31Z</time>
      </trkpt>
      <trkpt lat="42.240013" lon="2.809071">
        <ele>173.1</ele>
        <time>2018-06-10T09:20:33Z</time>
      </trkpt>
      <trkpt lat="42.239897" lon="2.809025">
        <ele>172.6</ele>
        <time>2018-06-10T09:20:36Z</time>
      </trkpt>
      <trkpt lat="42.239649" lon="2.809001">
        <ele>171.1</ele>
        <time>2018-06-10T09:20:43Z</time>
      </trkpt>
      <trkpt lat="42.239457" lon="2.808957">
        <ele>169.8</ele>
        <time>2018-06-10T09:20:48Z</time>
      </trkpt>
      <trkpt lat="42.239371" lon="2.808978">
        <ele>167.3</ele>
        <time>2018-06-10T09:20:51Z</time>
      </trkpt>
      <trkpt lat="42.239256" lon="2.808983">
        <ele>167.0</ele>
        <time>2018-06-10T09:20:54Z</time>
      </trkpt>
      <trkpt lat="42.239179" lon="2.808936">
        <ele>166.2</ele>
        <time>2018-06-10T09:20:56Z</time>
      </trkpt>
      <trkpt lat="42.239096" lon="2.808843">
        <ele>166.8</ele>
        <time>2018-06-10T09:20:59Z</time>
      </trkpt>
      <trkpt lat="42.239044" lon="2.808791">
        <ele>168.2</ele>
        <time>2018-06-10T09:21:01Z</time>
      </trkpt>
      <trkpt lat="42.238996" lon="2.808750">
        <ele>168.9</ele>
        <time>2018-06-10T09:21:02Z</time>
      </trkpt>
      <trkpt lat="42.238915" lon="2.808694">
        <ele>170.7</ele>
        <time>2018-06-10T09:21:05Z</time>
      </trkpt>
      <trkpt lat="42.238794" lon="2.808622">
        <ele>172.5</ele>
        <time>2018-06-10T09:21:08Z</time>
      </trkpt>
      <trkpt lat="42.238695" lon="2.808577">
        <ele>173.9</ele>
        <time>2018-06-10T09:21:11Z</time>
      </trkpt>
      <trkpt lat="42.238625" lon="2.808497">
        <ele>176.1</ele>
        <time>2018-06-10T09:21:13Z</time>
      </trkpt>
      <trkpt lat="42.238563" lon="2.808373">
        <ele>177.5</ele>
        <time>2018-06-10T09:21:16Z</time>
      </trkpt>
      <trkpt lat="42.238429" lon="2.807755">
        <ele>180.4</ele>
        <time>2018-06-10T09:21:29Z</time>
      </trkpt>
      <trkpt lat="42.238386" lon="2.807592">
        <ele>181.0</ele>
        <time>2018-06-10T09:21:33Z</time>
      </trkpt>
      <trkpt lat="42.238357" lon="2.807463">
        <ele>181.9</ele>
        <time>2018-06-10T09:21:35Z</time>
      </trkpt>
      <trkpt lat="42.238306" lon="2.807374">
        <ele>182.0</ele>
        <time>2018-06-10T09:21:37Z</time>
      </trkpt>
      <trkpt lat="42.238237" lon="2.807301">
        <ele>182.0</ele>
        <time>2018-06-10T09:21:40Z</time>
      </trkpt>
      <trkpt lat="42.238183" lon="2.807349">
        <ele>182.1</ele>
        <time>2018-06-10T09:21:42Z</time>
      </trkpt>
      <trkpt lat="42.238039" lon="2.807602">
        <ele>183.1</ele>
        <time>2018-06-10T09:21:48Z</time>
      </trkpt>
      <trkpt lat="42.237948" lon="2.807671">
        <ele>184.0</ele>
        <time>2018-06-10T09:21:51Z</time>
      </trkpt>
      <trkpt lat="42.237797" lon="2.807726">
        <ele>184.8</ele>
        <time>2018-06-10T09:21:55Z</time>
      </trkpt>
      <trkpt lat="42.237626" lon="2.807751">
        <ele>186.2</ele>
        <time>2018-06-10T09:21:59Z</time>
      </trkpt>
      <trkpt lat="42.237472" lon="2.807727">
        <ele>187.7</ele>
        <time>2018-06-10T09:22:03Z</time>
      </trkpt>
      <trkpt lat="42.236968" lon="2.807632">
        <ele>192.4</ele>
        <time>2018-06-10T09:22:17Z</time>
      </trkpt>
      <trkpt lat="42.236616" lon="2.807584">
        <ele>194.1</ele>
        <time>2018-06-10T09:22:27Z</time>
      </trkpt>
      <trkpt lat="42.236247" lon="2.807585">
        <ele>195.5</ele>
        <time>2018-06-10T09:22:36Z</time>
      </trkpt>
      <trkpt lat="42.236022" lon="2.807538">
        <ele>197.1</ele>
        <time>2018-06-10T09:22:42Z</time>
      </trkpt>
      <trkpt lat="42.235886" lon="2.807429">
        <ele>198.7</ele>
        <time>2018-06-10T09:22:47Z</time>
      </trkpt>
      <trkpt lat="42.235787" lon="2.807272">
        <ele>200.8</ele>
        <time>2018-06-10T09:22:51Z</time>
      </trkpt>
      <trkpt lat="42.235743" lon="2.807223">
        <ele>201.4</ele>
        <time>2018-06-10T09:22:52Z</time>
      </trkpt>
      <trkpt lat="42.235705" lon="2.807199">
        <ele>201.6</ele>
        <time>2018-06-10T09:22:53Z</time>
      </trkpt>
      <trkpt lat="42.235607" lon="2.807191">
        <ele>201.8</ele>
        <time>2018-06-10T09:22:56Z</time>
      </trkpt>
      <trkpt lat="42.235506" lon="2.807207">
        <ele>202.3</ele>
        <time>2018-06-10T09:22:59Z</time>
      </trkpt>
      <trkpt lat="42.235409" lon="2.807249">
        <ele>201.8</ele>
        <time>2018-06-10T09:23:01Z</time>
      </trkpt>
      <trkpt lat="42.235359" lon="2.807331">
        <ele>201.7</ele>
        <time>2018-06-10T09:23:03Z</time>
      </trkpt>
      <trkpt lat="42.235184" lon="2.807758">
        <ele>203.1</ele>
        <time>2018-06-10T09:23:13Z</time>
      </trkpt>
      <trkpt lat="42.234987" lon="2.808038">
        <ele>204.0</ele>
        <time>2018-06-10T09:23:21Z</time>
      </trkpt>
      <trkpt lat="42.234867" lon="2.808157">
        <ele>204.7</ele>
        <time>2018-06-10T09:23:25Z</time>
      </trkpt>
      <trkpt lat="42.234807" lon="2.808196">
        <ele>205.3</ele>
        <time>2018-06-10T09:23:26Z</time>
      </trkpt>
      <trkpt lat="42.234600" lon="2.808330">
        <ele>207.0</ele>
        <time>2018-06-10T09:23:33Z</time>
      </trkpt>
      <trkpt lat="42.234338" lon="2.808367">
        <ele>209.0</ele>
        <time>2018-06-10T09:23:40Z</time>
      </trkpt>
      <trkpt lat="42.233960" lon="2.808344">
        <ele>213.0</ele>
        <time>2018-06-10T09:23:50Z</time>
      </trkpt>
      <trkpt lat="42.233753" lon="2.808187">
        <ele>215.4</ele>
        <time>2018-06-10T09:23:56Z</time>
      </trkpt>
      <trkpt lat="42.233464" lon="2.808079">
        <ele>217.9</ele>
        <time>2018-06-10T09:24:04Z</time>
      </trkpt>
      <trkpt lat="42.233464" lon="2.807994">
        <ele>218.0</ele>
        <time>2018-06-10T09:24:06Z</time>
      </trkpt>
      <trkpt lat="42.233499" lon="2.807654">
        <ele>220.3</ele>
        <time>2018-06-10T09:24:13Z</time>
      </trkpt>
      <trkpt lat="42.233499" lon="2.807254">
        <ele>222.0</ele>
        <time>2018-06-10T09:24:20Z</time>
      </trkpt>
      <trkpt lat="42.233429" lon="2.806529">
        <ele>222.6</ele>
        <time>2018-06-10T09:24:35Z</time>
      </trkpt>
      <trkpt lat="42.233395" lon="2.806378">
        <ele>223.0</ele>
        <time>2018-06-10T09:24:38Z</time>
      </trkpt>
      <trkpt lat="42.233345" lon="2.806330">
        <ele>223.0</ele>
        <time>2018-06-10T09:24:40Z</time>
      </trkpt>
      <trkpt lat="42.233274" lon="2.806169">
        <ele>224.8</ele>
        <time>2018-06-10T09:24:43Z</time>
      </trkpt>
      <trkpt lat="42.233214" lon="2.805976">
        <ele>225.0</ele>
        <time>2018-06-10T09:24:47Z</time>
      </trkpt>
      <trkpt lat="42.233122" lon="2.805907">
        <ele>225.0</ele>
        <time>2018-06-10T09:24:50Z</time>
      </trkpt>
      <trkpt lat="42.232692" lon="2.805905">
        <ele>222.1</ele>
        <time>2018-06-10T09:25:02Z</time>
      </trkpt>
      <trkpt lat="42.231801" lon="2.806010">
        <ele>219.5</ele>
        <time>2018-06-10T09:25:26Z</time>
      </trkpt>
      <trkpt lat="42.231343" lon="2.806089">
        <ele>218.0</ele>
        <time>2018-06-10T09:25:38Z</time>
      </trkpt>
      <trkpt lat="42.231186" lon="2.806299">
        <ele>217.0</ele>
        <time>2018-06-10T09:25:44Z</time>
      </trkpt>
      <trkpt lat="42.230677" lon="2.806625">
        <ele>209.1</ele>
        <time>2018-06-10T09:25:59Z</time>
      </trkpt>
      <trkpt lat="42.229790" lon="2.806338">
        <ele>200.0</ele>
        <time>2018-06-10T09:26:23Z</time>
      </trkpt>
      <trkpt lat="42.229514" lon="2.806164">
        <ele>197.0</ele>
        <time>2018-06-10T09:26:31Z</time>
      </trkpt>
      <trkpt lat="42.229083" lon="2.805620">
        <ele>190.0</ele>
        <time>2018-06-10T09:26:47Z</time>
      </trkpt>
      <trkpt lat="42.228673" lon="2.804966">
        <ele>182.1</ele>
        <time>2018-06-10T09:27:04Z</time>
      </trkpt>
      <trkpt lat="42.228204" lon="2.804895">
        <ele>179.0</ele>
        <time>2018-06-10T09:27:17Z</time>
      </trkpt>
      <trkpt lat="42.227224" lon="2.803320">
        <ele>168.0</ele>
        <time>2018-06-10T09:27:57Z</time>
      </trkpt>
      <trkpt lat="42.226494" lon="2.802076">
        <ele>165.4</ele>
        <time>2018-06-10T09:28:29Z</time>
      </trkpt>
      <trkpt lat="42.226565" lon="2.801784">
        <ele>166.1</ele>
        <time>2018-06-10T09:28:35Z</time>
      </trkpt>
      <trkpt lat="42.227209" lon="2.800302">
        <ele>168.0</ele>
        <time>2018-06-10T09:29:09Z</time>
      </trkpt>
      <trkpt lat="42.227400" lon="2.799816">
        <ele>165.4</ele>
        <time>2018-06-10T09:29:19Z</time>
      </trkpt>
      <trkpt lat="42.227533" lon="2.799258">
        <ele>165.0</ele>
        <time>2018-06-10T09:29:31Z</time>
      </trkpt>
      <trkpt lat="42.227812" lon="2.798537">
        <ele>165.0</ele>
        <time>2018-06-10T09:29:47Z</time>
      </trkpt>
      <trkpt lat="42.228334" lon="2.798090">
        <ele>165.4</ele>
        <time>2018-06-10T09:30:03Z</time>
      </trkpt>
      <trkpt lat="42.228530" lon="2.797660">
        <ele>164.5</ele>
        <time>2018-06-10T09:30:13Z</time>
      </trkpt>
      <trkpt lat="42.228537" lon="2.797371">
        <ele>163.8</ele>
        <time>2018-06-10T09:30:19Z</time>
      </trkpt>
      <trkpt lat="42.228547" lon="2.797185">
        <ele>161.7</ele>
        <time>2018-06-10T09:30:23Z</time>
      </trkpt>
      <trkpt lat="42.228648" lon="2.796690">
        <ele>157.0</ele>
        <time>2018-06-10T09:30:33Z</time>
      </trkpt>
      <trkpt lat="42.228692" lon="2.796517">
        <ele>157.7</ele>
        <time>2018-06-10T09:30:37Z</time>
      </trkpt>
      <trkpt lat="42.228587" lon="2.796386">
        <ele>158.0</ele>
        <time>2018-06-10T09:30:40Z</time>
      </trkpt>
      <trkpt lat="42.228042" lon="2.795861">
        <ele>163.4</ele>
        <time>2018-06-10T09:30:58Z</time>
      </trkpt>
      <trkpt lat="42.227909" lon="2.795539">
        <ele>161.0</ele>
        <time>2018-06-10T09:31:06Z</time>
      </trkpt>
      <trkpt lat="42.227927" lon="2.795186">
        <ele>162.2</ele>
        <time>2018-06-10T09:31:13Z</time>
      </trkpt>
      <trkpt lat="42.227971" lon="2.794835">
        <ele>165.7</ele>
        <time>2018-06-10T09:31:20Z</time>
      </trkpt>
      <trkpt lat="42.228455" lon="2.794461">
        <ele>169.3</ele>
        <time>2018-06-10T09:31:34Z</time>
      </trkpt>
      <trkpt lat="42.228485" lon="2.794154">
        <ele>169.1</ele>
        <time>2018-06-10T09:31:41Z</time>
      </trkpt>
      <trkpt lat="42.228661" lon="2.793435">
        <ele>170.1</ele>
        <time>2018-06-10T09:31:55Z</time>
      </trkpt>
      <trkpt lat="42.229007" lon="2.793061">
        <ele>173.8</ele>
        <time>2018-06-10T09:32:07Z</time>
      </trkpt>
      <trkpt lat="42.229561" lon="2.792780">
        <ele>180.1</ele>
        <time>2018-06-10T09:32:23Z</time>
      </trkpt>
      <trkpt lat="42.230260" lon="2.792132">
        <ele>186.4</ele>
        <time>2018-06-10T09:32:46Z</time>
      </trkpt>
      <trkpt lat="42.230536" lon="2.791756">
        <ele>190.6</ele>
        <time>2018-06-10T09:32:56Z</time>
      </trkpt>
      <trkpt lat="42.231080" lon="2.790258">
        <ele>197.0</ele>
        <time>2018-06-10T09:33:29Z</time>
      </trkpt>
      <trkpt lat="42.231078" lon="2.789975">
        <ele>198.9</ele>
        <time>2018-06-10T09:33:35Z</time>
      </trkpt>
      <trkpt lat="42.231287" lon="2.789511">
        <ele>201.5</ele>
        <time>2018-06-10T09:33:45Z</time>
      </trkpt>
      <trkpt lat="42.231920" lon="2.789100">
        <ele>208.8</ele>
        <time>2018-06-10T09:34:04Z</time>
      </trkpt>
      <trkpt lat="42.232155" lon="2.788701">
        <ele>211.8</ele>
        <time>2018-06-10T09:34:14Z</time>
      </trkpt>
      <trkpt lat="42.232332" lon="2.788503">
        <ele>213.8</ele>
        <time>2018-06-10T09:34:20Z</time>
      </trkpt>
      <trkpt lat="42.232603" lon="2.788369">
        <ele>215.9</ele>
        <time>2018-06-10T09:34:28Z</time>
      </trkpt>
      <trkpt lat="42.232701" lon="2.787528">
        <ele>222.0</ele>
        <time>2018-06-10T09:34:45Z</time>
      </trkpt>
      <trkpt lat="42.232741" lon="2.787139">
        <ele>224.1</ele>
        <time>2018-06-10T09:34:53Z</time>
      </trkpt>
      <trkpt lat="42.232999" lon="2.786696">
        <ele>227.6</ele>
        <time>2018-06-10T09:35:04Z</time>
      </trkpt>
      <trkpt lat="42.233727" lon="2.786165">
        <ele>237.7</ele>
        <time>2018-06-10T09:35:26Z</time>
      </trkpt>
      <trkpt lat="42.233834" lon="2.785715">
        <ele>242.1</ele>
        <time>2018-06-10T09:35:35Z</time>
      </trkpt>
      <trkpt lat="42.233981" lon="2.785307">
        <ele>242.0</ele>
        <time>2018-06-10T09:35:44Z</time>
      </trkpt>
      <trkpt lat="42.234025" lon="2.785039">
        <ele>241.8</ele>
        <time>2018-06-10T09:35:50Z</time>
      </trkpt>
      <trkpt lat="42.233979" lon="2.784188">
        <ele>243.5</ele>
        <time>2018-06-10T09:36:07Z</time>
      </trkpt>
      <trkpt lat="42.234009" lon="2.783998">
        <ele>243.2</ele>
        <time>2018-06-10T09:36:10Z</time>
      </trkpt>
      <trkpt lat="42.234077" lon="2.783909">
        <ele>244.7</ele>
        <time>2018-06-10T09:36:13Z</time>
      </trkpt>
      <trkpt lat="42.234716" lon="2.783558">
        <ele>254.8</ele>
        <time>2018-06-10T09:36:31Z</time>
      </trkpt>
      <trkpt lat="42.234878" lon="2.783440">
        <ele>257.8</ele>
        <time>2018-06-10T09:36:36Z</time>
      </trkpt>
      <trkpt lat="42.235164" lon="2.782879">
        <ele>266.0</ele>
        <time>2018-06-10T09:36:50Z</time>
      </trkpt>
      <trkpt lat="42.235262" lon="2.782449">
        <ele>272.0</ele>
        <time>2018-06-10T09:36:59Z</time>
      </trkpt>
      <trkpt lat="42.235302" lon="2.782070">
        <ele>275.0</ele>
        <time>2018-06-10T09:37:07Z</time>
      </trkpt>
      <trkpt lat="42.235459" lon="2.781832">
        <ele>277.4</ele>
        <time>2018-06-10T09:37:13Z</time>
      </trkpt>
      <trkpt lat="42.235765" lon="2.781606">
        <ele>281.3</ele>
        <time>2018-06-10T09:37:22Z</time>
      </trkpt>
      <trkpt lat="42.235983" lon="2.781348">
        <ele>283.0</ele>
        <time>2018-06-10T09:37:30Z</time>
      </trkpt>
      <trkpt lat="42.236138" lon="2.781155">
        <ele>283.4</ele>
        <time>2018-06-10T09:37:36Z</time>
      </trkpt>
      <trkpt lat="42.236228" lon="2.780903">
        <ele>283.6</ele>
        <time>2018-06-10T09:37:41Z</time>
      </trkpt>
      <trkpt lat="42.236248" lon="2.780363">
        <ele>285.0</ele>
        <time>2018-06-10T09:37:52Z</time>
      </trkpt>
      <trkpt lat="42.236171" lon="2.779983">
        <ele>286.8</ele>
        <time>2018-06-10T09:37:59Z</time>
      </trkpt>
      <trkpt lat="42.236336" lon="2.779325">
        <ele>289.1</ele>
        <time>2018-06-10T09:38:13Z</time>
      </trkpt>
      <trkpt lat="42.236469" lon="2.779011">
        <ele>291.0</ele>
        <time>2018-06-10T09:38:20Z</time>
      </trkpt>
      <trkpt lat="42.236670" lon="2.778306">
        <ele>293.2</ele>
        <time>2018-06-10T09:38:35Z</time>
      </trkpt>
      <trkpt lat="42.236877" lon="2.777839">
        <ele>294.9</ele>
        <time>2018-06-10T09:38:46Z</time>
      </trkpt>
      <trkpt lat="42.237176" lon="2.777385">
        <ele>296.0</ele>
        <time>2018-06-10T09:38:58Z</time>
      </trkpt>
      <trkpt lat="42.237403" lon="2.775921">
        <ele>300.0</ele>
        <time>2018-06-10T09:39:27Z</time>
      </trkpt>
      <trkpt lat="42.237546" lon="2.775290">
        <ele>299.9</ele>
        <time>2018-06-10T09:39:40Z</time>
      </trkpt>
      <trkpt lat="42.237632" lon="2.774573">
        <ele>297.9</ele>
        <time>2018-06-10T09:39:55Z</time>
      </trkpt>
      <trkpt lat="42.237637" lon="2.773897">
        <ele>294.7</ele>
        <time>2018-06-10T09:40:08Z</time>
      </trkpt>
      <trkpt lat="42.237767" lon="2.772708">
        <ele>292.0</ele>
        <time>2018-06-10T09:40:32Z</time>
      </trkpt>
      <trkpt lat="42.237971" lon="2.770936">
        <ele>309.2</ele>
        <time>2018-06-10T09:41:07Z</time>
      </trkpt>
      <trkpt lat="42.238177" lon="2.769817">
        <ele>320.0</ele>
        <time>2018-06-10T09:41:30Z</time>
      </trkpt>
      <trkpt lat="42.238369" lon="2.768753">
        <ele>327.0</ele>
        <time>2018-06-10T09:41:52Z</time>
      </trkpt>
      <trkpt lat="42.238408" lon="2.768103">
        <ele>327.0</ele>
        <time>2018-06-10T09:42:05Z</time>
      </trkpt>
      <trkpt lat="42.238473" lon="2.767782">
        <ele>325.0</ele>
        <time>2018-06-10T09:42:11Z</time>
      </trkpt>
      <trkpt lat="42.238446" lon="2.767350">
        <ele>324.5</ele>
        <time>2018-06-10T09:42:20Z</time>
      </trkpt>
      <trkpt lat="42.238532" lon="2.766891">
        <ele>326.3</ele>
        <time>2018-06-10T09:42:29Z</time>
      </trkpt>
      <trkpt lat="42.238592" lon="2.766672">
        <ele>328.0</ele>
        <time>2018-06-10T09:42:34Z</time>
      </trkpt>
      <trkpt lat="42.238596" lon="2.766439">
        <ele>330.1</ele>
        <time>2018-06-10T09:42:38Z</time>
      </trkpt>
      <trkpt lat="42.238727" lon="2.766189">
        <ele>332.4</ele>
        <time>2018-06-10T09:42:44Z</time>
      </trkpt>
      <trkpt lat="42.238829" lon="2.765825">
        <ele>335.0</ele>
        <time>2018-06-10T09:42:52Z</time>
      </trkpt>
      <trkpt lat="42.238999" lon="2.765339">
        <ele>339.2</ele>
        <time>2018-06-10T09:43:03Z</time>
      </trkpt>
      <trkpt lat="42.239275" lon="2.764685">
        <ele>343.0</ele>
        <time>2018-06-10T09:43:18Z</time>
      </trkpt>
      <trkpt lat="42.239343" lon="2.764218">
        <ele>344.9</ele>
        <time>2018-06-10T09:43:27Z</time>
      </trkpt>
      <trkpt lat="42.239759" lon="2.764217">
        <ele>345.5</ele>
        <time>2018-06-10T09:43:38Z</time>
      </trkpt>
      <trkpt lat="42.240105" lon="2.764122">
        <ele>346.7</ele>
        <time>2018-06-10T09:43:48Z</time>
      </trkpt>
      <trkpt lat="42.240426" lon="2.763729">
        <ele>348.3</ele>
        <time>2018-06-10T09:43:59Z</time>
      </trkpt>
      <trkpt lat="42.240935" lon="2.763280">
        <ele>348.0</ele>
        <time>2018-06-10T09:44:15Z</time>
      </trkpt>
      <trkpt lat="42.241073" lon="2.763093">
        <ele>348.0</ele>
        <time>2018-06-10T09:44:20Z</time>
      </trkpt>
      <trkpt lat="42.241234" lon="2.762991">
        <ele>348.0</ele>
        <time>2018-06-10T09:44:25Z</time>
      </trkpt>
      <trkpt lat="42.241420" lon="2.762873">
        <ele>347.8</ele>
        <time>2018-06-10T09:44:31Z</time>
      </trkpt>
      <trkpt lat="42.241634" lon="2.762766">
        <ele>348.5</ele>
        <time>2018-06-10T09:44:37Z</time>
      </trkpt>
      <trkpt lat="42.241835" lon="2.762717">
        <ele>347.7</ele>
        <time>2018-06-10T09:44:42Z</time>
      </trkpt>
      <trkpt lat="42.242043" lon="2.762810">
        <ele>349.0</ele>
        <time>2018-06-10T09:44:48Z</time>
      </trkpt>
      <trkpt lat="42.242917" lon="2.762819">
        <ele>356.0</ele>
        <time>2018-06-10T09:45:11Z</time>
      </trkpt>
      <trkpt lat="42.242982" lon="2.762712">
        <ele>357.7</ele>
        <time>2018-06-10T09:45:14Z</time>
      </trkpt>
      <trkpt lat="42.243035" lon="2.762623">
        <ele>359.5</ele>
        <time>2018-06-10T09:45:16Z</time>
      </trkpt>
      <trkpt lat="42.243108" lon="2.762506">
        <ele>360.8</ele>
        <time>2018-06-10T09:45:19Z</time>
      </trkpt>
      <trkpt lat="42.243154" lon="2.762447">
        <ele>361.2</ele>
        <time>2018-06-10T09:45:21Z</time>
      </trkpt>
      <trkpt lat="42.243200" lon="2.762394">
        <ele>362.2</ele>
        <time>2018-06-10T09:45:23Z</time>
      </trkpt>
      <trkpt lat="42.243245" lon="2.762330">
        <ele>363.2</ele>
        <time>2018-06-10T09:45:24Z</time>
      </trkpt>
      <trkpt lat="42.243300" lon="2.762231">
        <ele>364.0</ele>
        <time>2018-06-10T09:45:27Z</time>
      </trkpt>
      <trkpt lat="42.243350" lon="2.762138">
        <ele>364.6</ele>
        <time>2018-06-10T09:45:29Z</time>
      </trkpt>
      <trkpt lat="42.243434" lon="2.761997">
        <ele>365.1</ele>
        <time>2018-06-10T09:45:33Z</time>
      </trkpt>
      <trkpt lat="42.243503" lon="2.761878">
        <ele>366.0</ele>
        <time>2018-06-10T09:45:36Z</time>
      </trkpt>
      <trkpt lat="42.243538" lon="2.761845">
        <ele>366.3</ele>
        <time>2018-06-10T09:45:37Z</time>
      </trkpt>
      <trkpt lat="42.243604" lon="2.761800">
        <ele>366.9</ele>
        <time>2018-06-10T09:45:39Z</time>
      </trkpt>
      <trkpt lat="42.243700" lon="2.761747">
        <ele>368.2</ele>
        <time>2018-06-10T09:45:42Z</time>
      </trkpt>
      <trkpt lat="42.243772" lon="2.761696">
        <ele>368.9</ele>
        <time>2018-06-10T09:45:44Z</time>
      </trkpt>
      <trkpt lat="42.243831" lon="2.761640">
        <ele>369.3</ele>
        <time>2018-06-10T09:45:46Z</time>
      </trkpt>
      <trkpt lat="42.243872" lon="2.761592">
        <ele>369.4</ele>
        <time>2018-06-10T09:45:47Z</time>
      </trkpt>
      <trkpt lat="42.243935" lon="2.761480">
        <ele>369.8</ele>
        <time>2018-06-10T09:45:50Z</time>
      </trkpt>
      <trkpt lat="42.243990" lon="2.761369">
        <ele>369.4</ele>
        <time>2018-06-10T09:45:53Z</time>
      </trkpt>
      <trkpt lat="42.244035" lon="2.761278">
        <ele>369.9</ele>
        <time>2018-06-10T09:45:55Z</time>
      </trkpt>
      <trkpt lat="42.244110" lon="2.761142">
        <ele>369.4</ele>
        <time>2018-06-10T09:45:58Z</time>
      </trkpt>
      <trkpt lat="42.244150" lon="2.761080">
        <ele>369.3</ele>
        <time>2018-06-10T09:46:00Z</time>
      </trkpt>
      <trkpt lat="42.244186" lon="2.761049">
        <ele>370.1</ele>
        <time>2018-06-10T09:46:01Z</time>
      </trkpt>
      <trkpt lat="42.244242" lon="2.760992">
        <ele>369.7</ele>
        <time>2018-06-10T09:46:03Z</time>
      </trkpt>
      <trkpt lat="42.244327" lon="2.760934">
        <ele>369.4</ele>
        <time>2018-06-10T09:46:05Z</time>
      </trkpt>
      <trkpt lat="42.244387" lon="2.760898">
        <ele>369.0</ele>
        <time>2018-06-10T09:46:07Z</time>
      </trkpt>
      <trkpt lat="42.244457" lon="2.760843">
        <ele>368.9</ele>
        <time>2018-06-10T09:46:09Z</time>
      </trkpt>
      <trkpt lat="42.244460" lon="2.760841">
        <ele>368.9</ele>
        <time>2018-06-10T09:46:09Z</time>
      </trkpt>
      <trkpt lat="42.244499" lon="2.760796">
        <ele>369.0</ele>
        <time>2018-06-10T09:46:11Z</time>
      </trkpt>
      <trkpt lat="42.244521" lon="2.760756">
        <ele>368.5</ele>
        <time>2018-06-10T09:46:12Z</time>
      </trkpt>
      <trkpt lat="42.244540" lon="2.760699">
        <ele>368.0</ele>
        <time>2018-06-10T09:46:13Z</time>
      </trkpt>
      <trkpt lat="42.244563" lon="2.760625">
        <ele>368.6</ele>
        <time>2018-06-10T09:46:14Z</time>
      </trkpt>
      <trkpt lat="42.244626" lon="2.760474">
        <ele>369.0</ele>
        <time>2018-06-10T09:46:18Z</time>
      </trkpt>
      <trkpt lat="42.244656" lon="2.760421">
        <ele>369.0</ele>
        <time>2018-06-10T09:46:19Z</time>
      </trkpt>
      <trkpt lat="42.244687" lon="2.760363">
        <ele>369.0</ele>
        <time>2018-06-10T09:46:21Z</time>
      </trkpt>
      <trkpt lat="42.244708" lon="2.760314">
        <ele>369.7</ele>
        <time>2018-06-10T09:46:22Z</time>
      </trkpt>
      <trkpt lat="42.244726" lon="2.760262">
        <ele>370.0</ele>
        <time>2018-06-10T09:46:23Z</time>
      </trkpt>
      <trkpt lat="42.244737" lon="2.760182">
        <ele>370.0</ele>
        <time>2018-06-10T09:46:24Z</time>
      </trkpt>
      <trkpt lat="42.244741" lon="2.760094">
        <ele>370.3</ele>
        <time>2018-06-10T09:46:26Z</time>
      </trkpt>
      <trkpt lat="42.244740" lon="2.759979">
        <ele>371.2</ele>
        <time>2018-06-10T09:46:28Z</time>
      </trkpt>
      <trkpt lat="42.244751" lon="2.759877">
        <ele>371.8</ele>
        <time>2018-06-10T09:46:30Z</time>
      </trkpt>
      <trkpt lat="42.244769" lon="2.759781">
        <ele>372.7</ele>
        <time>2018-06-10T09:46:32Z</time>
      </trkpt>
      <trkpt lat="42.244782" lon="2.759688">
        <ele>373.1</ele>
        <time>2018-06-10T09:46:34Z</time>
      </trkpt>
      <trkpt lat="42.244793" lon="2.759617">
        <ele>373.8</ele>
        <time>2018-06-10T09:46:36Z</time>
      </trkpt>
      <trkpt lat="42.244795" lon="2.759551">
        <ele>373.9</ele>
        <time>2018-06-10T09:46:37Z</time>
      </trkpt>
      <trkpt lat="42.244787" lon="2.759465">
        <ele>374.0</ele>
        <time>2018-06-10T09:46:39Z</time>
      </trkpt>
      <trkpt lat="42.244780" lon="2.759421">
        <ele>374.0</ele>
        <time>2018-06-10T09:46:40Z</time>
      </trkpt>
      <trkpt lat="42.244763" lon="2.759382">
        <ele>374.0</ele>
        <time>2018-06-10T09:46:41Z</time>
      </trkpt>
      <trkpt lat="42.244739" lon="2.759356">
        <ele>374.0</ele>
        <time>2018-06-10T09:46:41Z</time>
      </trkpt>
      <trkpt lat="42.244714" lon="2.759326">
        <ele>374.1</ele>
        <time>2018-06-10T09:46:42Z</time>
      </trkpt>
      <trkpt lat="42.244684" lon="2.759273">
        <ele>375.0</ele>
        <time>2018-06-10T09:46:44Z</time>
      </trkpt>
      <trkpt lat="42.244656" lon="2.759205">
        <ele>375.0</ele>
        <time>2018-06-10T09:46:45Z</time>
      </trkpt>
      <trkpt lat="42.244650" lon="2.759159">
        <ele>375.0</ele>
        <time>2018-06-10T09:46:46Z</time>
      </trkpt>
      <trkpt lat="42.244641" lon="2.759058">
        <ele>375.0</ele>
        <time>2018-06-10T09:46:48Z</time>
      </trkpt>
      <trkpt lat="42.244632" lon="2.758902">
        <ele>375.0</ele>
        <time>2018-06-10T09:46:51Z</time>
      </trkpt>
      <trkpt lat="42.244623" lon="2.758765">
        <ele>376.0</ele>
        <time>2018-06-10T09:46:54Z</time>
      </trkpt>
      <trkpt lat="42.244607" lon="2.758688">
        <ele>376.6</ele>
        <time>2018-06-10T09:46:55Z</time>
      </trkpt>
      <trkpt lat="42.244576" lon="2.758555">
        <ele>377.8</ele>
        <time>2018-06-10T09:46:58Z</time>
      </trkpt>
      <trkpt lat="42.244558" lon="2.758442">
        <ele>378.9</ele>
        <time>2018-06-10T09:47:00Z</time>
      </trkpt>
      <trkpt lat="42.244554" lon="2.758308">
        <ele>380.5</ele>
        <time>2018-06-10T09:47:03Z</time>
      </trkpt>
      <trkpt lat="42.244565" lon="2.758089">
        <ele>381.9</ele>
        <time>2018-06-10T09:47:07Z</time>
      </trkpt>
      <trkpt lat="42.244626" lon="2.757674">
        <ele>384.0</ele>
        <time>2018-06-10T09:47:16Z</time>
      </trkpt>
      <trkpt lat="42.244707" lon="2.757257">
        <ele>385.9</ele>
        <time>2018-06-10T09:47:24Z</time>
      </trkpt>
      <trkpt lat="42.244762" lon="2.757054">
        <ele>386.7</ele>
        <time>2018-06-10T09:47:29Z</time>
      </trkpt>
      <trkpt lat="42.244789" lon="2.756960">
        <ele>387.0</ele>
        <time>2018-06-10T09:47:31Z</time>
      </trkpt>
      <trkpt lat="42.244810" lon="2.756899">
        <ele>387.4</ele>
        <time>2018-06-10T09:47:32Z</time>
      </trkpt>
      <trkpt lat="42.244835" lon="2.756852">
        <ele>388.0</ele>
        <time>2018-06-10T09:47:33Z</time>
      </trkpt>
      <trkpt lat="42.244873" lon="2.756797">
        <ele>388.0</ele>
        <time>2018-06-10T09:47:35Z</time>
      </trkpt>
      <trkpt lat="42.244916" lon="2.756709">
        <ele>389.3</ele>
        <time>2018-06-10T09:47:37Z</time>
      </trkpt>
      <trkpt lat="42.244941" lon="2.756620">
        <ele>390.7</ele>
        <time>2018-06-10T09:47:39Z</time>
      </trkpt>
      <trkpt lat="42.244974" lon="2.756442">
        <ele>392.6</ele>
        <time>2018-06-10T09:47:42Z</time>
      </trkpt>
      <trkpt lat="42.244987" lon="2.756331">
        <ele>393.0</ele>
        <time>2018-06-10T09:47:44Z</time>
      </trkpt>
      <trkpt lat="42.244997" lon="2.756193">
        <ele>394.8</ele>
        <time>2018-06-10T09:47:47Z</time>
      </trkpt>
      <trkpt lat="42.245001" lon="2.756001">
        <ele>396.0</ele>
        <time>2018-06-10T09:47:51Z</time>
      </trkpt>
      <trkpt lat="42.245011" lon="2.755886">
        <ele>397.0</ele>
        <time>2018-06-10T09:47:53Z</time>
      </trkpt>
      <trkpt lat="42.245035" lon="2.755784">
        <ele>397.7</ele>
        <time>2018-06-10T09:47:55Z</time>
      </trkpt>
      <trkpt lat="42.245081" lon="2.755691">
        <ele>398.1</ele>
        <time>2018-06-10T09:47:58Z</time>
      </trkpt>
      <trkpt lat="42.245146" lon="2.755584">
        <ele>399.0</ele>
        <time>2018-06-10T09:48:00Z</time>
      </trkpt>
      <trkpt lat="42.245146" lon="2.755515">
        <ele>399.2</ele>
        <time>2018-06-10T09:48:02Z</time>
      </trkpt>
      <trkpt lat="42.245137" lon="2.755459">
        <ele>399.9</ele>
        <time>2018-06-10T09:48:03Z</time>
      </trkpt>
      <trkpt lat="42.245072" lon="2.755390">
        <ele>401.0</ele>
        <time>2018-06-10T09:48:05Z</time>
      </trkpt>
      <trkpt lat="42.244967" lon="2.755322">
        <ele>402.1</ele>
        <time>2018-06-10T09:48:08Z</time>
      </trkpt>
      <trkpt lat="42.244842" lon="2.755284">
        <ele>403.0</ele>
        <time>2018-06-10T09:48:12Z</time>
      </trkpt>
      <trkpt lat="42.244753" lon="2.755250">
        <ele>403.4</ele>
        <time>2018-06-10T09:48:14Z</time>
      </trkpt>
      <trkpt lat="42.244689" lon="2.755209">
        <ele>403.7</ele>
        <time>2018-06-10T09:48:16Z</time>
      </trkpt>
      <trkpt lat="42.244625" lon="2.755118">
        <ele>404.1</ele>
        <time>2018-06-10T09:48:18Z</time>
      </trkpt>
      <trkpt lat="42.244583" lon="2.754974">
        <ele>405.0</ele>
        <time>2018-06-10T09:48:21Z</time>
      </trkpt>
      <trkpt lat="42.244574" lon="2.754866">
        <ele>406.1</ele>
        <time>2018-06-10T09:48:24Z</time>
      </trkpt>
      <trkpt lat="42.244594" lon="2.754667">
        <ele>407.6</ele>
        <time>2018-06-10T09:48:28Z</time>
      </trkpt>
      <trkpt lat="42.244595" lon="2.754552">
        <ele>408.0</ele>
        <time>2018-06-10T09:48:30Z</time>
      </trkpt>
      <trkpt lat="42.244567" lon="2.754456">
        <ele>408.5</ele>
        <time>2018-06-10T09:48:32Z</time>
      </trkpt>
      <trkpt lat="42.244532" lon="2.754387">
        <ele>409.6</ele>
        <time>2018-06-10T09:48:34Z</time>
      </trkpt>
      <trkpt lat="42.244460" lon="2.754357">
        <ele>409.2</ele>
        <time>2018-06-10T09:48:36Z</time>
      </trkpt>
      <trkpt lat="42.244380" lon="2.754331">
        <ele>410.1</ele>
        <time>2018-06-10T09:48:38Z</time>
      </trkpt>
      <trkpt lat="42.244246" lon="2.754351">
        <ele>409.7</ele>
        <time>2018-06-10T09:48:41Z</time>
      </trkpt>
      <trkpt lat="42.244116" lon="2.754397">
        <ele>410.0</ele>
        <time>2018-06-10T09:48:45Z</time>
      </trkpt>
      <trkpt lat="42.244020" lon="2.754468">
        <ele>410.8</ele>
        <time>2018-06-10T09:48:48Z</time>
      </trkpt>
      <trkpt lat="42.243937" lon="2.754567">
        <ele>410.7</ele>
        <time>2018-06-10T09:48:51Z</time>
      </trkpt>
      <trkpt lat="42.243518" lon="2.754991">
        <ele>407.7</ele>
        <time>2018-06-10T09:49:05Z</time>
      </trkpt>
      <trkpt lat="42.243364" lon="2.755108">
        <ele>405.8</ele>
        <time>2018-06-10T09:49:09Z</time>
      </trkpt>
      <trkpt lat="42.243275" lon="2.755138">
        <ele>405.1</ele>
        <time>2018-06-10T09:49:12Z</time>
      </trkpt>
      <trkpt lat="42.243150" lon="2.755097">
        <ele>404.0</ele>
        <time>2018-06-10T09:49:15Z</time>
      </trkpt>
      <trkpt lat="42.243061" lon="2.755035">
        <ele>402.5</ele>
        <time>2018-06-10T09:49:18Z</time>
      </trkpt>
      <trkpt lat="42.242976" lon="2.754951">
        <ele>401.6</ele>
        <time>2018-06-10T09:49:21Z</time>
      </trkpt>
      <trkpt lat="42.242896" lon="2.754780">
        <ele>399.9</ele>
        <time>2018-06-10T09:49:25Z</time>
      </trkpt>
      <trkpt lat="42.242836" lon="2.754612">
        <ele>398.5</ele>
        <time>2018-06-10T09:49:29Z</time>
      </trkpt>
      <trkpt lat="42.242792" lon="2.754427">
        <ele>398.0</ele>
        <time>2018-06-10T09:49:32Z</time>
      </trkpt>
      <trkpt lat="42.242731" lon="2.754274">
        <ele>397.8</ele>
        <time>2018-06-10T09:49:36Z</time>
      </trkpt>
      <trkpt lat="42.242663" lon="2.754179">
        <ele>397.9</ele>
        <time>2018-06-10T09:49:38Z</time>
      </trkpt>
      <trkpt lat="42.242595" lon="2.754135">
        <ele>397.2</ele>
        <time>2018-06-10T09:49:40Z</time>
      </trkpt>
      <trkpt lat="42.242503" lon="2.754112">
        <ele>396.0</ele>
        <time>2018-06-10T09:49:43Z</time>
      </trkpt>
      <trkpt lat="42.242424" lon="2.754117">
        <ele>395.0</ele>
        <time>2018-06-10T09:49:45Z</time>
      </trkpt>
      <trkpt lat="42.242380" lon="2.754101">
        <ele>394.4</ele>
        <time>2018-06-10T09:49:46Z</time>
      </trkpt>
      <trkpt lat="42.242341" lon="2.754063">
        <ele>394.0</ele>
        <time>2018-06-10T09:49:48Z</time>
      </trkpt>
      <trkpt lat="42.242258" lon="2.753957">
        <ele>392.7</ele>
        <time>2018-06-10T09:49:51Z</time>
      </trkpt>
      <trkpt lat="42.242217" lon="2.753866">
        <ele>392.0</ele>
        <time>2018-06-10T09:49:53Z</time>
      </trkpt>
      <trkpt lat="42.242199" lon="2.753810">
        <ele>391.7</ele>
        <time>2018-06-10T09:49:54Z</time>
      </trkpt>
      <trkpt lat="42.242213" lon="2.753741">
        <ele>390.6</ele>
        <time>2018-06-10T09:49:55Z</time>
      </trkpt>
      <trkpt lat="42.242254" lon="2.753687">
        <ele>390.2</ele>
        <time>2018-06-10T09:49:57Z</time>
      </trkpt>
      <trkpt lat="42.242395" lon="2.753600">
        <ele>387.3</ele>
        <time>2018-06-10T09:50:01Z</time>
      </trkpt>
      <trkpt lat="42.242438" lon="2.753555">
        <ele>386.5</ele>
        <time>2018-06-10T09:50:03Z</time>
      </trkpt>
      <trkpt lat="42.242457" lon="2.753478">
        <ele>385.4</ele>
        <time>2018-06-10T09:50:04Z</time>
      </trkpt>
      <trkpt lat="42.242466" lon="2.753396">
        <ele>384.9</ele>
        <time>2018-06-10T09:50:06Z</time>
      </trkpt>
      <trkpt lat="42.242476" lon="2.753327">
        <ele>383.8</ele>
        <time>2018-06-10T09:50:07Z</time>
      </trkpt>
      <trkpt lat="42.242504" lon="2.753262">
        <ele>383.5</ele>
        <time>2018-06-10T09:50:09Z</time>
      </trkpt>
      <trkpt lat="42.243082" lon="2.752434">
        <ele>375.1</ele>
        <time>2018-06-10T09:50:31Z</time>
      </trkpt>
      <trkpt lat="42.243454" lon="2.752041">
        <ele>372.0</ele>
        <time>2018-06-10T09:50:44Z</time>
      </trkpt>
      <trkpt lat="42.243583" lon="2.751918">
        <ele>370.9</ele>
        <time>2018-06-10T09:50:48Z</time>
      </trkpt>
      <trkpt lat="42.243610" lon="2.751858">
        <ele>370.5</ele>
        <time>2018-06-10T09:50:49Z</time>
      </trkpt>
      <trkpt lat="42.243615" lon="2.751768">
        <ele>370.0</ele>
        <time>2018-06-10T09:50:51Z</time>
      </trkpt>
      <trkpt lat="42.243593" lon="2.751703">
        <ele>370.0</ele>
        <time>2018-06-10T09:50:53Z</time>
      </trkpt>
      <trkpt lat="42.243398" lon="2.751448">
        <ele>367.9</ele>
        <time>2018-06-10T09:51:00Z</time>
      </trkpt>
      <trkpt lat="42.243336" lon="2.751395">
        <ele>366.9</ele>
        <time>2018-06-10T09:51:02Z</time>
      </trkpt>
      <trkpt lat="42.243241" lon="2.751324">
        <ele>367.4</ele>
        <time>2018-06-10T09:51:05Z</time>
      </trkpt>
      <trkpt lat="42.243079" lon="2.751273">
        <ele>366.3</ele>
        <time>2018-06-10T09:51:09Z</time>
      </trkpt>
      <trkpt lat="42.242705" lon="2.751194">
        <ele>364.1</ele>
        <time>2018-06-10T09:51:19Z</time>
      </trkpt>
      <trkpt lat="42.242634" lon="2.751160">
        <ele>363.2</ele>
        <time>2018-06-10T09:51:21Z</time>
      </trkpt>
      <trkpt lat="42.242532" lon="2.751070">
        <ele>361.9</ele>
        <time>2018-06-10T09:51:24Z</time>
      </trkpt>
      <trkpt lat="42.242461" lon="2.750968">
        <ele>361.5</ele>
        <time>2018-06-10T09:51:27Z</time>
      </trkpt>
      <trkpt lat="42.242389" lon="2.750843">
        <ele>360.0</ele>
        <time>2018-06-10T09:51:30Z</time>
      </trkpt>
      <trkpt lat="42.242369" lon="2.750702">
        <ele>358.7</ele>
        <time>2018-06-10T09:51:33Z</time>
      </trkpt>
      <trkpt lat="42.242367" lon="2.750562">
        <ele>356.5</ele>
        <time>2018-06-10T09:51:36Z</time>
      </trkpt>
      <trkpt lat="42.242433" lon="2.750401">
        <ele>355.2</ele>
        <time>2018-06-10T09:51:40Z</time>
      </trkpt>
      <trkpt lat="42.242549" lon="2.750248">
        <ele>353.4</ele>
        <time>2018-06-10T09:51:44Z</time>
      </trkpt>
      <trkpt lat="42.242655" lon="2.750155">
        <ele>352.6</ele>
        <time>2018-06-10T09:51:47Z</time>
      </trkpt>
      <trkpt lat="42.242802" lon="2.749985">
        <ele>352.7</ele>
        <time>2018-06-10T09:51:53Z</time>
      </trkpt>
      <trkpt lat="42.242850" lon="2.749892">
        <ele>353.2</ele>
        <time>2018-06-10T09:51:55Z</time>
      </trkpt>
      <trkpt lat="42.242888" lon="2.749815">
        <ele>353.4</ele>
        <time>2018-06-10T09:51:57Z</time>
      </trkpt>
      <trkpt lat="42.242943" lon="2.749762">
        <ele>352.1</ele>
        <time>2018-06-10T09:51:58Z</time>
      </trkpt>
      <trkpt lat="42.243014" lon="2.749743">
        <ele>352.8</ele>
        <time>2018-06-10T09:52:00Z</time>
      </trkpt>
      <trkpt lat="42.243190" lon="2.749713">
        <ele>355.8</ele>
        <time>2018-06-10T09:52:05Z</time>
      </trkpt>
      <trkpt lat="42.243332" lon="2.749660">
        <ele>357.4</ele>
        <time>2018-06-10T09:52:09Z</time>
      </trkpt>
      <trkpt lat="42.243408" lon="2.749592">
        <ele>358.3</ele>
        <time>2018-06-10T09:52:11Z</time>
      </trkpt>
      <trkpt lat="42.243451" lon="2.749526">
        <ele>359.0</ele>
        <time>2018-06-10T09:52:13Z</time>
      </trkpt>
      <trkpt lat="42.243474" lon="2.749410">
        <ele>358.1</ele>
        <time>2018-06-10T09:52:16Z</time>
      </trkpt>
      <trkpt lat="42.243501" lon="2.749294">
        <ele>358.4</ele>
        <time>2018-06-10T09:52:18Z</time>
      </trkpt>
      <trkpt lat="42.243540" lon="2.749159">
        <ele>357.0</ele>
        <time>2018-06-10T09:52:21Z</time>
      </trkpt>
      <trkpt lat="42.243603" lon="2.749062">
        <ele>356.2</ele>
        <time>2018-06-10T09:52:23Z</time>
      </trkpt>
      <trkpt lat="42.243667" lon="2.748961">
        <ele>354.7</ele>
        <time>2018-06-10T09:52:26Z</time>
      </trkpt>
      <trkpt lat="42.243830" lon="2.748728">
        <ele>350.9</ele>
        <time>2018-06-10T09:52:32Z</time>
      </trkpt>
      <trkpt lat="42.243874" lon="2.748624">
        <ele>350.1</ele>
        <time>2018-06-10T09:52:35Z</time>
      </trkpt>
      <trkpt lat="42.243915" lon="2.748542">
        <ele>349.7</ele>
        <time>2018-06-10T09:52:37Z</time>
      </trkpt>
      <trkpt lat="42.243910" lon="2.748470">
        <ele>348.5</ele>
        <time>2018-06-10T09:52:38Z</time>
      </trkpt>
      <trkpt lat="42.243884" lon="2.748411">
        <ele>348.7</ele>
        <time>2018-06-10T09:52:40Z</time>
      </trkpt>
      <trkpt lat="42.243833" lon="2.748370">
        <ele>350.8</ele>
        <time>2018-06-10T09:52:41Z</time>
      </trkpt>
      <trkpt lat="42.243732" lon="2.748349">
        <ele>349.9</ele>
        <time>2018-06-10T09:52:44Z</time>
      </trkpt>
      <trkpt lat="42.243658" lon="2.748321">
        <ele>350.6</ele>
        <time>2018-06-10T09:52:46Z</time>
      </trkpt>
      <trkpt lat="42.243571" lon="2.748293">
        <ele>350.5</ele>
        <time>2018-06-10T09:52:48Z</time>
      </trkpt>
      <trkpt lat="42.243442" lon="2.748227">
        <ele>350.7</ele>
        <time>2018-06-10T09:52:52Z</time>
      </trkpt>
      <trkpt lat="42.243327" lon="2.748166">
        <ele>350.7</ele>
        <time>2018-06-10T09:52:55Z</time>
      </trkpt>
      <trkpt lat="42.243214" lon="2.748112">
        <ele>350.7</ele>
        <time>2018-06-10T09:52:59Z</time>
      </trkpt>
      <trkpt lat="42.243102" lon="2.748073">
        <ele>350.6</ele>
        <time>2018-06-10T09:53:02Z</time>
      </trkpt>
      <trkpt lat="42.243003" lon="2.748032">
        <ele>350.9</ele>
        <time>2018-06-10T09:53:04Z</time>
      </trkpt>
      <trkpt lat="42.242874" lon="2.747947">
        <ele>350.7</ele>
        <time>2018-06-10T09:53:08Z</time>
      </trkpt>
      <trkpt lat="42.242806" lon="2.747867">
        <ele>350.8</ele>
        <time>2018-06-10T09:53:11Z</time>
      </trkpt>
      <trkpt lat="42.242721" lon="2.747734">
        <ele>351.0</ele>
        <time>2018-06-10T09:53:14Z</time>
      </trkpt>
      <trkpt lat="42.242651" lon="2.747618">
        <ele>351.7</ele>
        <time>2018-06-10T09:53:17Z</time>
      </trkpt>
      <trkpt lat="42.242535" lon="2.747463">
        <ele>353.4</ele>
        <time>2018-06-10T09:53:21Z</time>
      </trkpt>
      <trkpt lat="42.242452" lon="2.747348">
        <ele>354.5</ele>
        <time>2018-06-10T09:53:25Z</time>
      </trkpt>
      <trkpt lat="42.242384" lon="2.747224">
        <ele>353.8</ele>
        <time>2018-06-10T09:53:28Z</time>
      </trkpt>
      <trkpt lat="42.242337" lon="2.747116">
        <ele>353.5</ele>
        <time>2018-06-10T09:53:30Z</time>
      </trkpt>
      <trkpt lat="42.242286" lon="2.746957">
        <ele>352.8</ele>
        <time>2018-06-10T09:53:33Z</time>
      </trkpt>
      <trkpt lat="42.242263" lon="2.746795">
        <ele>353.0</ele>
        <time>2018-06-10T09:53:37Z</time>
      </trkpt>
      <trkpt lat="42.242291" lon="2.746593">
        <ele>353.7</ele>
        <time>2018-06-10T09:53:41Z</time>
      </trkpt>
      <trkpt lat="42.242325" lon="2.746346">
        <ele>353.6</ele>
        <time>2018-06-10T09:53:46Z</time>
      </trkpt>
      <trkpt lat="42.242333" lon="2.746158">
        <ele>353.8</ele>
        <time>2018-06-10T09:53:49Z</time>
      </trkpt>
      <trkpt lat="42.242316" lon="2.746055">
        <ele>354.3</ele>
        <time>2018-06-10T09:53:52Z</time>
      </trkpt>
      <trkpt lat="42.242305" lon="2.745999">
        <ele>353.5</ele>
        <time>2018-06-10T09:53:53Z</time>
      </trkpt>
      <trkpt lat="42.242268" lon="2.745892">
        <ele>353.7</ele>
        <time>2018-06-10T09:53:55Z</time>
      </trkpt>
      <trkpt lat="42.242230" lon="2.745785">
        <ele>353.9</ele>
        <time>2018-06-10T09:53:57Z</time>
      </trkpt>
      <trkpt lat="42.242143" lon="2.745569">
        <ele>351.7</ele>
        <time>2018-06-10T09:54:02Z</time>
      </trkpt>
      <trkpt lat="42.242088" lon="2.745248">
        <ele>349.8</ele>
        <time>2018-06-10T09:54:09Z</time>
      </trkpt>
      <trkpt lat="42.242033" lon="2.744885">
        <ele>347.3</ele>
        <time>2018-06-10T09:54:16Z</time>
      </trkpt>
      <trkpt lat="42.242010" lon="2.744479">
        <ele>344.4</ele>
        <time>2018-06-10T09:54:24Z</time>
      </trkpt>
      <trkpt lat="42.241996" lon="2.744370">
        <ele>343.8</ele>
        <time>2018-06-10T09:54:26Z</time>
      </trkpt>
      <trkpt lat="42.241901" lon="2.744109">
        <ele>341.6</ele>
        <time>2018-06-10T09:54:32Z</time>
      </trkpt>
      <trkpt lat="42.241693" lon="2.743625">
        <ele>335.7</ele>
        <time>2018-06-10T09:54:43Z</time>
      </trkpt>
      <trkpt lat="42.241634" lon="2.743559">
        <ele>335.2</ele>
        <time>2018-06-10T09:54:45Z</time>
      </trkpt>
      <trkpt lat="42.241594" lon="2.743541">
        <ele>334.5</ele>
        <time>2018-06-10T09:54:46Z</time>
      </trkpt>
      <trkpt lat="42.241535" lon="2.743620">
        <ele>334.0</ele>
        <time>2018-06-10T09:54:49Z</time>
      </trkpt>
      <trkpt lat="42.241490" lon="2.743681">
        <ele>334.0</ele>
        <time>2018-06-10T09:54:50Z</time>
      </trkpt>
      <trkpt lat="42.241441" lon="2.743657">
        <ele>333.1</ele>
        <time>2018-06-10T09:54:52Z</time>
      </trkpt>
      <trkpt lat="42.241120" lon="2.742816">
        <ele>329.0</ele>
        <time>2018-06-10T09:55:10Z</time>
      </trkpt>
      <trkpt lat="42.241116" lon="2.742703">
        <ele>328.4</ele>
        <time>2018-06-10T09:55:13Z</time>
      </trkpt>
      <trkpt lat="42.241132" lon="2.742603">
        <ele>328.0</ele>
        <time>2018-06-10T09:55:15Z</time>
      </trkpt>
      <trkpt lat="42.241177" lon="2.742549">
        <ele>327.7</ele>
        <time>2018-06-10T09:55:16Z</time>
      </trkpt>
      <trkpt lat="42.241366" lon="2.742518">
        <ele>328.2</ele>
        <time>2018-06-10T09:55:21Z</time>
      </trkpt>
      <trkpt lat="42.241438" lon="2.742481">
        <ele>327.8</ele>
        <time>2018-06-10T09:55:23Z</time>
      </trkpt>
      <trkpt lat="42.241519" lon="2.742414">
        <ele>327.6</ele>
        <time>2018-06-10T09:55:26Z</time>
      </trkpt>
      <trkpt lat="42.241595" lon="2.742347">
        <ele>327.1</ele>
        <time>2018-06-10T09:55:28Z</time>
      </trkpt>
      <trkpt lat="42.241622" lon="2.742238">
        <ele>329.5</ele>
        <time>2018-06-10T09:55:31Z</time>
      </trkpt>
      <trkpt lat="42.241586" lon="2.742135">
        <ele>330.7</ele>
        <time>2018-06-10T09:55:33Z</time>
      </trkpt>
      <trkpt lat="42.241342" lon="2.741784">
        <ele>326.8</ele>
        <time>2018-06-10T09:55:42Z</time>
      </trkpt>
      <trkpt lat="42.241288" lon="2.741609">
        <ele>325.6</ele>
        <time>2018-06-10T09:55:46Z</time>
      </trkpt>
      <trkpt lat="42.241191" lon="2.740755">
        <ele>321.7</ele>
        <time>2018-06-10T09:56:03Z</time>
      </trkpt>
      <trkpt lat="42.241137" lon="2.740591">
        <ele>322.0</ele>
        <time>2018-06-10T09:56:07Z</time>
      </trkpt>
      <trkpt lat="42.240870" lon="2.739956">
        <ele>322.0</ele>
        <time>2018-06-10T09:56:21Z</time>
      </trkpt>
      <trkpt lat="42.240458" lon="2.739261">
        <ele>320.0</ele>
        <time>2018-06-10T09:56:39Z</time>
      </trkpt>
      <trkpt lat="42.240039" lon="2.738893">
        <ele>321.0</ele>
        <time>2018-06-10T09:56:52Z</time>
      </trkpt>
      <trkpt lat="42.239728" lon="2.738682">
        <ele>322.0</ele>
        <time>2018-06-10T09:57:01Z</time>
      </trkpt>
      <trkpt lat="42.239502" lon="2.738423">
        <ele>323.1</ele>
        <time>2018-06-10T09:57:09Z</time>
      </trkpt>
      <trkpt lat="42.239375" lon="2.738187">
        <ele>324.0</ele>
        <time>2018-06-10T09:57:15Z</time>
      </trkpt>
      <trkpt lat="42.239194" lon="2.737654">
        <ele>323.9</ele>
        <time>2018-06-10T09:57:26Z</time>
      </trkpt>
      <trkpt lat="42.239230" lon="2.737551">
        <ele>323.1</ele>
        <time>2018-06-10T09:57:29Z</time>
      </trkpt>
      <trkpt lat="42.239517" lon="2.737180">
        <ele>317.8</ele>
        <time>2018-06-10T09:57:39Z</time>
      </trkpt>
      <trkpt lat="42.239508" lon="2.737107">
        <ele>318.1</ele>
        <time>2018-06-10T09:57:41Z</time>
      </trkpt>
      <trkpt lat="42.239476" lon="2.737059">
        <ele>319.7</ele>
        <time>2018-06-10T09:57:42Z</time>
      </trkpt>
      <trkpt lat="42.239427" lon="2.737047">
        <ele>319.9</ele>
        <time>2018-06-10T09:57:43Z</time>
      </trkpt>
      <trkpt lat="42.238760" lon="2.737123">
        <ele>321.7</ele>
        <time>2018-06-10T09:58:01Z</time>
      </trkpt>
      <trkpt lat="42.238549" lon="2.737148">
        <ele>320.1</ele>
        <time>2018-06-10T09:58:07Z</time>
      </trkpt>
      <trkpt lat="42.238463" lon="2.737118">
        <ele>320.0</ele>
        <time>2018-06-10T09:58:09Z</time>
      </trkpt>
      <trkpt lat="42.238414" lon="2.737063">
        <ele>320.1</ele>
        <time>2018-06-10T09:58:11Z</time>
      </trkpt>
      <trkpt lat="42.238346" lon="2.736979">
        <ele>319.2</ele>
        <time>2018-06-10T09:58:13Z</time>
      </trkpt>
      <trkpt lat="42.238318" lon="2.736706">
        <ele>319.1</ele>
        <time>2018-06-10T09:58:19Z</time>
      </trkpt>
      <trkpt lat="42.238309" lon="2.736422">
        <ele>318.0</ele>
        <time>2018-06-10T09:58:24Z</time>
      </trkpt>
      <trkpt lat="42.238443" lon="2.736021">
        <ele>317.0</ele>
        <time>2018-06-10T09:58:33Z</time>
      </trkpt>
      <trkpt lat="42.238537" lon="2.735760">
        <ele>319.0</ele>
        <time>2018-06-10T09:58:39Z</time>
      </trkpt>
      <trkpt lat="42.238631" lon="2.735657">
        <ele>320.0</ele>
        <time>2018-06-10T09:58:42Z</time>
      </trkpt>
      <trkpt lat="42.238802" lon="2.735583">
        <ele>322.4</ele>
        <time>2018-06-10T09:58:47Z</time>
      </trkpt>
      <trkpt lat="42.238915" lon="2.735595">
        <ele>323.9</ele>
        <time>2018-06-10T09:58:50Z</time>
      </trkpt>
      <trkpt lat="42.239077" lon="2.735612">
        <ele>326.0</ele>
        <time>2018-06-10T09:58:54Z</time>
      </trkpt>
      <trkpt lat="42.239329" lon="2.735648">
        <ele>328.9</ele>
        <time>2018-06-10T09:59:01Z</time>
      </trkpt>
      <trkpt lat="42.239419" lon="2.735617">
        <ele>329.0</ele>
        <time>2018-06-10T09:59:04Z</time>
      </trkpt>
      <trkpt lat="42.239495" lon="2.735550">
        <ele>329.3</ele>
        <time>2018-06-10T09:59:06Z</time>
      </trkpt>
      <trkpt lat="42.239594" lon="2.735441">
        <ele>330.2</ele>
        <time>2018-06-10T09:59:09Z</time>
      </trkpt>
      <trkpt lat="42.239612" lon="2.735228">
        <ele>330.1</ele>
        <time>2018-06-10T09:59:14Z</time>
      </trkpt>
      <trkpt lat="42.239571" lon="2.734998">
        <ele>332.0</ele>
        <time>2018-06-10T09:59:18Z</time>
      </trkpt>
      <trkpt lat="42.239390" lon="2.734611">
        <ele>335.0</ele>
        <time>2018-06-10T09:59:27Z</time>
      </trkpt>
      <trkpt lat="42.239380" lon="2.734490">
        <ele>335.3</ele>
        <time>2018-06-10T09:59:30Z</time>
      </trkpt>
      <trkpt lat="42.239268" lon="2.732721">
        <ele>347.3</ele>
        <time>2018-06-10T10:00:05Z</time>
      </trkpt>
      <trkpt lat="42.239158" lon="2.731765">
        <ele>349.0</ele>
        <time>2018-06-10T10:00:24Z</time>
      </trkpt>
      <trkpt lat="42.239125" lon="2.731243">
        <ele>350.6</ele>
        <time>2018-06-10T10:00:34Z</time>
      </trkpt>
      <trkpt lat="42.239070" lon="2.730855">
        <ele>352.1</ele>
        <time>2018-06-10T10:00:42Z</time>
      </trkpt>
      <trkpt lat="42.239065" lon="2.730437">
        <ele>352.8</ele>
        <time>2018-06-10T10:00:50Z</time>
      </trkpt>
      <trkpt lat="42.239229" lon="2.729655">
        <ele>349.0</ele>
        <time>2018-06-10T10:01:06Z</time>
      </trkpt>
      <trkpt lat="42.239269" lon="2.729309">
        <ele>348.0</ele>
        <time>2018-06-10T10:01:13Z</time>
      </trkpt>
      <trkpt lat="42.239306" lon="2.728048">
        <ele>360.8</ele>
        <time>2018-06-10T10:01:38Z</time>
      </trkpt>
      <trkpt lat="42.239296" lon="2.727780">
        <ele>362.3</ele>
        <time>2018-06-10T10:01:44Z</time>
      </trkpt>
      <trkpt lat="42.239283" lon="2.727576">
        <ele>364.4</ele>
        <time>2018-06-10T10:01:48Z</time>
      </trkpt>
      <trkpt lat="42.239266" lon="2.727462">
        <ele>364.9</ele>
        <time>2018-06-10T10:01:50Z</time>
      </trkpt>
      <trkpt lat="42.239194" lon="2.727198">
        <ele>366.6</ele>
        <time>2018-06-10T10:01:56Z</time>
      </trkpt>
      <trkpt lat="42.239043" lon="2.726822">
        <ele>367.6</ele>
        <time>2018-06-10T10:02:04Z</time>
      </trkpt>
      <trkpt lat="42.238799" lon="2.726311">
        <ele>366.9</ele>
        <time>2018-06-10T10:02:16Z</time>
      </trkpt>
      <trkpt lat="42.238657" lon="2.726058">
        <ele>365.8</ele>
        <time>2018-06-10T10:02:22Z</time>
      </trkpt>
      <trkpt lat="42.238567" lon="2.725913">
        <ele>364.4</ele>
        <time>2018-06-10T10:02:26Z</time>
      </trkpt>
      <trkpt lat="42.238494" lon="2.725768">
        <ele>362.7</ele>
        <time>2018-06-10T10:02:29Z</time>
      </trkpt>
      <trkpt lat="42.238454" lon="2.725641">
        <ele>362.2</ele>
        <time>2018-06-10T10:02:32Z</time>
      </trkpt>
      <trkpt lat="42.238424" lon="2.725524">
        <ele>362.0</ele>
        <time>2018-06-10T10:02:35Z</time>
      </trkpt>
      <trkpt lat="42.238337" lon="2.725043">
        <ele>362.2</ele>
        <time>2018-06-10T10:02:44Z</time>
      </trkpt>
      <trkpt lat="42.238219" lon="2.724508">
        <ele>363.6</ele>
        <time>2018-06-10T10:02:55Z</time>
      </trkpt>
      <trkpt lat="42.238175" lon="2.724323">
        <ele>364.0</ele>
        <time>2018-06-10T10:02:59Z</time>
      </trkpt>
      <trkpt lat="42.238155" lon="2.724187">
        <ele>364.0</ele>
        <time>2018-06-10T10:03:02Z</time>
      </trkpt>
      <trkpt lat="42.238132" lon="2.723942">
        <ele>364.0</ele>
        <time>2018-06-10T10:03:07Z</time>
      </trkpt>
      <trkpt lat="42.238087" lon="2.722832">
        <ele>359.2</ele>
        <time>2018-06-10T10:03:29Z</time>
      </trkpt>
      <trkpt lat="42.238096" lon="2.722688">
        <ele>359.6</ele>
        <time>2018-06-10T10:03:32Z</time>
      </trkpt>
      <trkpt lat="42.238119" lon="2.722585">
        <ele>358.5</ele>
        <time>2018-06-10T10:03:34Z</time>
      </trkpt>
      <trkpt lat="42.238212" lon="2.722200">
        <ele>358.0</ele>
        <time>2018-06-10T10:03:42Z</time>
      </trkpt>
      <trkpt lat="42.238257" lon="2.721935">
        <ele>357.7</ele>
        <time>2018-06-10T10:03:47Z</time>
      </trkpt>
      <trkpt lat="42.238334" lon="2.721689">
        <ele>356.6</ele>
        <time>2018-06-10T10:03:52Z</time>
      </trkpt>
      <trkpt lat="42.238452" lon="2.721494">
        <ele>356.9</ele>
        <time>2018-06-10T10:03:57Z</time>
      </trkpt>
      <trkpt lat="42.238520" lon="2.721366">
        <ele>357.0</ele>
        <time>2018-06-10T10:04:00Z</time>
      </trkpt>
      <trkpt lat="42.238570" lon="2.721219">
        <ele>357.0</ele>
        <time>2018-06-10T10:04:04Z</time>
      </trkpt>
      <trkpt lat="42.238582" lon="2.721106">
        <ele>357.8</ele>
        <time>2018-06-10T10:04:06Z</time>
      </trkpt>
      <trkpt lat="42.238613" lon="2.720905">
        <ele>358.0</ele>
        <time>2018-06-10T10:04:10Z</time>
      </trkpt>
      <trkpt lat="42.238636" lon="2.720758">
        <ele>358.0</ele>
        <time>2018-06-10T10:04:13Z</time>
      </trkpt>
      <trkpt lat="42.238629" lon="2.720613">
        <ele>359.0</ele>
        <time>2018-06-10T10:04:16Z</time>
      </trkpt>
      <trkpt lat="42.238623" lon="2.720484">
        <ele>359.0</ele>
        <time>2018-06-10T10:04:18Z</time>
      </trkpt>
      <trkpt lat="42.238643" lon="2.720351">
        <ele>359.7</ele>
        <time>2018-06-10T10:04:21Z</time>
      </trkpt>
      <trkpt lat="42.238634" lon="2.720271">
        <ele>360.0</ele>
        <time>2018-06-10T10:04:22Z</time>
      </trkpt>
      <trkpt lat="42.238619" lon="2.720208">
        <ele>360.0</ele>
        <time>2018-06-10T10:04:24Z</time>
      </trkpt>
      <trkpt lat="42.238570" lon="2.720116">
        <ele>360.0</ele>
        <time>2018-06-10T10:04:26Z</time>
      </trkpt>
      <trkpt lat="42.238514" lon="2.720021">
        <ele>360.0</ele>
        <time>2018-06-10T10:04:28Z</time>
      </trkpt>
      <trkpt lat="42.238491" lon="2.719957">
        <ele>360.0</ele>
        <time>2018-06-10T10:04:30Z</time>
      </trkpt>
      <trkpt lat="42.238482" lon="2.719854">
        <ele>360.0</ele>
        <time>2018-06-10T10:04:32Z</time>
      </trkpt>
      <trkpt lat="42.238494" lon="2.719759">
        <ele>359.9</ele>
        <time>2018-06-10T10:04:34Z</time>
      </trkpt>
      <trkpt lat="42.238541" lon="2.719598">
        <ele>360.0</ele>
        <time>2018-06-10T10:04:37Z</time>
      </trkpt>
      <trkpt lat="42.238582" lon="2.719465">
        <ele>359.9</ele>
        <time>2018-06-10T10:04:40Z</time>
      </trkpt>
      <trkpt lat="42.238630" lon="2.719213">
        <ele>359.0</ele>
        <time>2018-06-10T10:04:45Z</time>
      </trkpt>
      <trkpt lat="42.238699" lon="2.718757">
        <ele>358.0</ele>
        <time>2018-06-10T10:04:54Z</time>
      </trkpt>
      <trkpt lat="42.238737" lon="2.718515">
        <ele>357.1</ele>
        <time>2018-06-10T10:04:59Z</time>
      </trkpt>
      <trkpt lat="42.238770" lon="2.718403">
        <ele>357.0</ele>
        <time>2018-06-10T10:05:02Z</time>
      </trkpt>
      <trkpt lat="42.238823" lon="2.718303">
        <ele>356.7</ele>
        <time>2018-06-10T10:05:04Z</time>
      </trkpt>
      <trkpt lat="42.238912" lon="2.718187">
        <ele>356.8</ele>
        <time>2018-06-10T10:05:07Z</time>
      </trkpt>
      <trkpt lat="42.238962" lon="2.718095">
        <ele>357.0</ele>
        <time>2018-06-10T10:05:10Z</time>
      </trkpt>
      <trkpt lat="42.239080" lon="2.717789">
        <ele>357.0</ele>
        <time>2018-06-10T10:05:16Z</time>
      </trkpt>
      <trkpt lat="42.239224" lon="2.717478">
        <ele>357.0</ele>
        <time>2018-06-10T10:05:24Z</time>
      </trkpt>
      <trkpt lat="42.239242" lon="2.717378">
        <ele>357.0</ele>
        <time>2018-06-10T10:05:26Z</time>
      </trkpt>
      <trkpt lat="42.239236" lon="2.717263">
        <ele>357.3</ele>
        <time>2018-06-10T10:05:28Z</time>
      </trkpt>
      <trkpt lat="42.239204" lon="2.717103">
        <ele>357.1</ele>
        <time>2018-06-10T10:05:31Z</time>
      </trkpt>
      <trkpt lat="42.239088" lon="2.716712">
        <ele>357.4</ele>
        <time>2018-06-10T10:05:39Z</time>
      </trkpt>
      <trkpt lat="42.239062" lon="2.716597">
        <ele>357.4</ele>
        <time>2018-06-10T10:05:42Z</time>
      </trkpt>
      <trkpt lat="42.239041" lon="2.716447">
        <ele>357.2</ele>
        <time>2018-06-10T10:05:45Z</time>
      </trkpt>
      <trkpt lat="42.239047" lon="2.716290">
        <ele>358.0</ele>
        <time>2018-06-10T10:05:48Z</time>
      </trkpt>
      <trkpt lat="42.239074" lon="2.716142">
        <ele>358.0</ele>
        <time>2018-06-10T10:05:51Z</time>
      </trkpt>
      <trkpt lat="42.239187" lon="2.715644">
        <ele>360.0</ele>
        <time>2018-06-10T10:06:01Z</time>
      </trkpt>
      <trkpt lat="42.239217" lon="2.715560">
        <ele>360.0</ele>
        <time>2018-06-10T10:06:03Z</time>
      </trkpt>
      <trkpt lat="42.239255" lon="2.715476">
        <ele>361.0</ele>
        <time>2018-06-10T10:06:05Z</time>
      </trkpt>
      <trkpt lat="42.239425" lon="2.715236">
        <ele>361.8</ele>
        <time>2018-06-10T10:06:12Z</time>
      </trkpt>
      <trkpt lat="42.239706" lon="2.714861">
        <ele>364.0</ele>
        <time>2018-06-10T10:06:22Z</time>
      </trkpt>
      <trkpt lat="42.239783" lon="2.714724">
        <ele>364.0</ele>
        <time>2018-06-10T10:06:25Z</time>
      </trkpt>
      <trkpt lat="42.239850" lon="2.714604">
        <ele>363.6</ele>
        <time>2018-06-10T10:06:28Z</time>
      </trkpt>
      <trkpt lat="42.239985" lon="2.714427">
        <ele>361.7</ele>
        <time>2018-06-10T10:06:33Z</time>
      </trkpt>
      <trkpt lat="42.240135" lon="2.714268">
        <ele>360.3</ele>
        <time>2018-06-10T10:06:39Z</time>
      </trkpt>
      <trkpt lat="42.240181" lon="2.714209">
        <ele>360.7</ele>
        <time>2018-06-10T10:06:40Z</time>
      </trkpt>
      <trkpt lat="42.240199" lon="2.714143">
        <ele>361.0</ele>
        <time>2018-06-10T10:06:42Z</time>
      </trkpt>
      <trkpt lat="42.240204" lon="2.714081">
        <ele>360.4</ele>
        <time>2018-06-10T10:06:43Z</time>
      </trkpt>
      <trkpt lat="42.240191" lon="2.713992">
        <ele>361.4</ele>
        <time>2018-06-10T10:06:45Z</time>
      </trkpt>
      <trkpt lat="42.240055" lon="2.713623">
        <ele>362.0</ele>
        <time>2018-06-10T10:06:53Z</time>
      </trkpt>
      <trkpt lat="42.239992" lon="2.713416">
        <ele>364.0</ele>
        <time>2018-06-10T10:06:57Z</time>
      </trkpt>
      <trkpt lat="42.239945" lon="2.713296">
        <ele>364.5</ele>
        <time>2018-06-10T10:07:00Z</time>
      </trkpt>
      <trkpt lat="42.239892" lon="2.713197">
        <ele>365.8</ele>
        <time>2018-06-10T10:07:02Z</time>
      </trkpt>
      <trkpt lat="42.239834" lon="2.713138">
        <ele>366.6</ele>
        <time>2018-06-10T10:07:04Z</time>
      </trkpt>
      <trkpt lat="42.239754" lon="2.713106">
        <ele>366.0</ele>
        <time>2018-06-10T10:07:06Z</time>
      </trkpt>
      <trkpt lat="42.239671" lon="2.713071">
        <ele>365.3</ele>
        <time>2018-06-10T10:07:09Z</time>
      </trkpt>
      <trkpt lat="42.239587" lon="2.713032">
        <ele>364.2</ele>
        <time>2018-06-10T10:07:11Z</time>
      </trkpt>
      <trkpt lat="42.239518" lon="2.712982">
        <ele>363.2</ele>
        <time>2018-06-10T10:07:13Z</time>
      </trkpt>
      <trkpt lat="42.239413" lon="2.712893">
        <ele>362.1</ele>
        <time>2018-06-10T10:07:17Z</time>
      </trkpt>
      <trkpt lat="42.239342" lon="2.712829">
        <ele>360.1</ele>
        <time>2018-06-10T10:07:19Z</time>
      </trkpt>
      <trkpt lat="42.239230" lon="2.712764">
        <ele>358.2</ele>
        <time>2018-06-10T10:07:22Z</time>
      </trkpt>
      <trkpt lat="42.239058" lon="2.712732">
        <ele>356.4</ele>
        <time>2018-06-10T10:07:27Z</time>
      </trkpt>
      <trkpt lat="42.238883" lon="2.712737">
        <ele>355.8</ele>
        <time>2018-06-10T10:07:31Z</time>
      </trkpt>
      <trkpt lat="42.238840" lon="2.712717">
        <ele>355.4</ele>
        <time>2018-06-10T10:07:33Z</time>
      </trkpt>
      <trkpt lat="42.238792" lon="2.712669">
        <ele>354.6</ele>
        <time>2018-06-10T10:07:34Z</time>
      </trkpt>
      <trkpt lat="42.238776" lon="2.712600">
        <ele>353.8</ele>
        <time>2018-06-10T10:07:36Z</time>
      </trkpt>
      <trkpt lat="42.238799" lon="2.712535">
        <ele>352.8</ele>
        <time>2018-06-10T10:07:37Z</time>
      </trkpt>
      <trkpt lat="42.238845" lon="2.712516">
        <ele>352.2</ele>
        <time>2018-06-10T10:07:38Z</time>
      </trkpt>
      <trkpt lat="42.239057" lon="2.712511">
        <ele>351.1</ele>
        <time>2018-06-10T10:07:44Z</time>
      </trkpt>
      <trkpt lat="42.239494" lon="2.712462">
        <ele>349.5</ele>
        <time>2018-06-10T10:07:56Z</time>
      </trkpt>
      <trkpt lat="42.239593" lon="2.712437">
        <ele>349.3</ele>
        <time>2018-06-10T10:07:58Z</time>
      </trkpt>
      <trkpt lat="42.239661" lon="2.712395">
        <ele>347.9</ele>
        <time>2018-06-10T10:08:00Z</time>
      </trkpt>
      <trkpt lat="42.239705" lon="2.712313">
        <ele>349.0</ele>
        <time>2018-06-10T10:08:03Z</time>
      </trkpt>
      <trkpt lat="42.239707" lon="2.712241">
        <ele>349.7</ele>
        <time>2018-06-10T10:08:04Z</time>
      </trkpt>
      <trkpt lat="42.239683" lon="2.712182">
        <ele>351.4</ele>
        <time>2018-06-10T10:08:05Z</time>
      </trkpt>
      <trkpt lat="42.239638" lon="2.712158">
        <ele>351.9</ele>
        <time>2018-06-10T10:08:07Z</time>
      </trkpt>
      <trkpt lat="42.239515" lon="2.712121">
        <ele>352.5</ele>
        <time>2018-06-10T10:08:10Z</time>
      </trkpt>
      <trkpt lat="42.239436" lon="2.712099">
        <ele>352.7</ele>
        <time>2018-06-10T10:08:12Z</time>
      </trkpt>
      <trkpt lat="42.239326" lon="2.712044">
        <ele>353.2</ele>
        <time>2018-06-10T10:08:15Z</time>
      </trkpt>
      <trkpt lat="42.239278" lon="2.712009">
        <ele>353.6</ele>
        <time>2018-06-10T10:08:17Z</time>
      </trkpt>
      <trkpt lat="42.239176" lon="2.711900">
        <ele>353.5</ele>
        <time>2018-06-10T10:08:20Z</time>
      </trkpt>
      <trkpt lat="42.239092" lon="2.711759">
        <ele>353.0</ele>
        <time>2018-06-10T10:08:24Z</time>
      </trkpt>
      <trkpt lat="42.238993" lon="2.711625">
        <ele>351.7</ele>
        <time>2018-06-10T10:08:27Z</time>
      </trkpt>
      <trkpt lat="42.238786" lon="2.711425">
        <ele>347.8</ele>
        <time>2018-06-10T10:08:34Z</time>
      </trkpt>
      <trkpt lat="42.238638" lon="2.711303">
        <ele>346.5</ele>
        <time>2018-06-10T10:08:39Z</time>
      </trkpt>
      <trkpt lat="42.238550" lon="2.711264">
        <ele>345.3</ele>
        <time>2018-06-10T10:08:41Z</time>
      </trkpt>
      <trkpt lat="42.238418" lon="2.711184">
        <ele>343.6</ele>
        <time>2018-06-10T10:08:45Z</time>
      </trkpt>
      <trkpt lat="42.238273" lon="2.711070">
        <ele>342.4</ele>
        <time>2018-06-10T10:08:50Z</time>
      </trkpt>
      <trkpt lat="42.238156" lon="2.710922">
        <ele>341.1</ele>
        <time>2018-06-10T10:08:54Z</time>
      </trkpt>
      <trkpt lat="42.238080" lon="2.710899">
        <ele>340.1</ele>
        <time>2018-06-10T10:08:56Z</time>
      </trkpt>
      <trkpt lat="42.237962" lon="2.710881">
        <ele>338.1</ele>
        <time>2018-06-10T10:08:59Z</time>
      </trkpt>
      <trkpt lat="42.237791" lon="2.710803">
        <ele>335.4</ele>
        <time>2018-06-10T10:09:04Z</time>
      </trkpt>
      <trkpt lat="42.237502" lon="2.710550">
        <ele>335.0</ele>
        <time>2018-06-10T10:09:13Z</time>
      </trkpt>
      <trkpt lat="42.237298" lon="2.710299">
        <ele>334.0</ele>
        <time>2018-06-10T10:09:21Z</time>
      </trkpt>
      <trkpt lat="42.237268" lon="2.710245">
        <ele>334.1</ele>
        <time>2018-06-10T10:09:22Z</time>
      </trkpt>
      <trkpt lat="42.237222" lon="2.710168">
        <ele>334.9</ele>
        <time>2018-06-10T10:09:24Z</time>
      </trkpt>
      <trkpt lat="42.237191" lon="2.710145">
        <ele>335.2</ele>
        <time>2018-06-10T10:09:25Z</time>
      </trkpt>
      <trkpt lat="42.237090" lon="2.710136">
        <ele>334.4</ele>
        <time>2018-06-10T10:09:28Z</time>
      </trkpt>
      <trkpt lat="42.237016" lon="2.710122">
        <ele>334.5</ele>
        <time>2018-06-10T10:09:30Z</time>
      </trkpt>
      <trkpt lat="42.237008" lon="2.710095">
        <ele>335.0</ele>
        <time>2018-06-10T10:09:30Z</time>
      </trkpt>
      <trkpt lat="42.237022" lon="2.710082">
        <ele>335.2</ele>
        <time>2018-06-10T10:09:31Z</time>
      </trkpt>
      <trkpt lat="42.237060" lon="2.710055">
        <ele>335.6</ele>
        <time>2018-06-10T10:09:32Z</time>
      </trkpt>
      <trkpt lat="42.237118" lon="2.710036">
        <ele>336.8</ele>
        <time>2018-06-10T10:09:33Z</time>
      </trkpt>
      <trkpt lat="42.237208" lon="2.710018">
        <ele>338.0</ele>
        <time>2018-06-10T10:09:36Z</time>
      </trkpt>
      <trkpt lat="42.237231" lon="2.710009">
        <ele>338.1</ele>
        <time>2018-06-10T10:09:36Z</time>
      </trkpt>
      <trkpt lat="42.237240" lon="2.709987">
        <ele>338.4</ele>
        <time>2018-06-10T10:09:37Z</time>
      </trkpt>
      <trkpt lat="42.237231" lon="2.709951">
        <ele>338.7</ele>
        <time>2018-06-10T10:09:38Z</time>
      </trkpt>
      <trkpt lat="42.237181" lon="2.709860">
        <ele>339.2</ele>
        <time>2018-06-10T10:09:40Z</time>
      </trkpt>
      <trkpt lat="42.237158" lon="2.709788">
        <ele>339.0</ele>
        <time>2018-06-10T10:09:42Z</time>
      </trkpt>
      <trkpt lat="42.237158" lon="2.709618">
        <ele>340.0</ele>
        <time>2018-06-10T10:09:45Z</time>
      </trkpt>
      <trkpt lat="42.237140" lon="2.709558">
        <ele>340.0</ele>
        <time>2018-06-10T10:09:46Z</time>
      </trkpt>
      <trkpt lat="42.237117" lon="2.709509">
        <ele>339.9</ele>
        <time>2018-06-10T10:09:47Z</time>
      </trkpt>
      <trkpt lat="42.237068" lon="2.709485">
        <ele>339.0</ele>
        <time>2018-06-10T10:09:49Z</time>
      </trkpt>
      <trkpt lat="42.237031" lon="2.709449">
        <ele>339.0</ele>
        <time>2018-06-10T10:09:50Z</time>
      </trkpt>
      <trkpt lat="42.237010" lon="2.709422">
        <ele>339.0</ele>
        <time>2018-06-10T10:09:51Z</time>
      </trkpt>
      <trkpt lat="42.237004" lon="2.709376">
        <ele>339.0</ele>
        <time>2018-06-10T10:09:52Z</time>
      </trkpt>
      <trkpt lat="42.237014" lon="2.708994">
        <ele>336.9</ele>
        <time>2018-06-10T10:09:59Z</time>
      </trkpt>
      <trkpt lat="42.237026" lon="2.708869">
        <ele>336.0</ele>
        <time>2018-06-10T10:10:02Z</time>
      </trkpt>
      <trkpt lat="42.237046" lon="2.708829">
        <ele>336.0</ele>
        <time>2018-06-10T10:10:03Z</time>
      </trkpt>
      <trkpt lat="42.237075" lon="2.708796">
        <ele>335.6</ele>
        <time>2018-06-10T10:10:04Z</time>
      </trkpt>
      <trkpt lat="42.237144" lon="2.708761">
        <ele>335.0</ele>
        <time>2018-06-10T10:10:06Z</time>
      </trkpt>
      <trkpt lat="42.237214" lon="2.708767">
        <ele>333.1</ele>
        <time>2018-06-10T10:10:08Z</time>
      </trkpt>
      <trkpt lat="42.237316" lon="2.708793">
        <ele>332.5</ele>
        <time>2018-06-10T10:10:10Z</time>
      </trkpt>
      <trkpt lat="42.237468" lon="2.708843">
        <ele>332.5</ele>
        <time>2018-06-10T10:10:14Z</time>
      </trkpt>
      <trkpt lat="42.237586" lon="2.708838">
        <ele>332.0</ele>
        <time>2018-06-10T10:10:18Z</time>
      </trkpt>
      <trkpt lat="42.237706" lon="2.708815">
        <ele>331.1</ele>
        <time>2018-06-10T10:10:21Z</time>
      </trkpt>
      <trkpt lat="42.237814" lon="2.708767">
        <ele>330.5</ele>
        <time>2018-06-10T10:10:24Z</time>
      </trkpt>
      <trkpt lat="42.237955" lon="2.708684">
        <ele>328.5</ele>
        <time>2018-06-10T10:10:28Z</time>
      </trkpt>
      <trkpt lat="42.238020" lon="2.708598">
        <ele>328.0</ele>
        <time>2018-06-10T10:10:30Z</time>
      </trkpt>
      <trkpt lat="42.238051" lon="2.708489">
        <ele>327.0</ele>
        <time>2018-06-10T10:10:33Z</time>
      </trkpt>
      <trkpt lat="42.238077" lon="2.708433">
        <ele>327.1</ele>
        <time>2018-06-10T10:10:34Z</time>
      </trkpt>
      <trkpt lat="42.238123" lon="2.708380">
        <ele>328.0</ele>
        <time>2018-06-10T10:10:36Z</time>
      </trkpt>
      <trkpt lat="42.238179" lon="2.708322">
        <ele>328.0</ele>
        <time>2018-06-10T10:10:38Z</time>
      </trkpt>
      <trkpt lat="42.238323" lon="2.708116">
        <ele>328.2</ele>
        <time>2018-06-10T10:10:43Z</time>
      </trkpt>
      <trkpt lat="42.238390" lon="2.708070">
        <ele>328.7</ele>
        <time>2018-06-10T10:10:45Z</time>
      </trkpt>
      <trkpt lat="42.238438" lon="2.708058">
        <ele>328.7</ele>
        <time>2018-06-10T10:10:46Z</time>
      </trkpt>
      <trkpt lat="42.238505" lon="2.708067">
        <ele>329.3</ele>
        <time>2018-06-10T10:10:48Z</time>
      </trkpt>
      <trkpt lat="42.238578" lon="2.708109">
        <ele>329.4</ele>
        <time>2018-06-10T10:10:50Z</time>
      </trkpt>
      <trkpt lat="42.238671" lon="2.708150">
        <ele>330.0</ele>
        <time>2018-06-10T10:10:53Z</time>
      </trkpt>
      <trkpt lat="42.238788" lon="2.708157">
        <ele>331.2</ele>
        <time>2018-06-10T10:10:56Z</time>
      </trkpt>
      <trkpt lat="42.238982" lon="2.708128">
        <ele>333.2</ele>
        <time>2018-06-10T10:11:01Z</time>
      </trkpt>
      <trkpt lat="42.239192" lon="2.708117">
        <ele>335.1</ele>
        <time>2018-06-10T10:11:07Z</time>
      </trkpt>
      <trkpt lat="42.239283" lon="2.708118">
        <ele>336.1</ele>
        <time>2018-06-10T10:11:09Z</time>
      </trkpt>
      <trkpt lat="42.239318" lon="2.708096">
        <ele>336.1</ele>
        <time>2018-06-10T10:11:10Z</time>
      </trkpt>
      <trkpt lat="42.239339" lon="2.708036">
        <ele>337.1</ele>
        <time>2018-06-10T10:11:12Z</time>
      </trkpt>
      <trkpt lat="42.239347" lon="2.707959">
        <ele>339.5</ele>
        <time>2018-06-10T10:11:13Z</time>
      </trkpt>
      <trkpt lat="42.239324" lon="2.707746">
        <ele>341.6</ele>
        <time>2018-06-10T10:11:18Z</time>
      </trkpt>
      <trkpt lat="42.239315" lon="2.707642">
        <ele>341.8</ele>
        <time>2018-06-10T10:11:20Z</time>
      </trkpt>
      <trkpt lat="42.239316" lon="2.707384">
        <ele>341.9</ele>
        <time>2018-06-10T10:11:25Z</time>
      </trkpt>
      <trkpt lat="42.239313" lon="2.707087">
        <ele>342.8</ele>
        <time>2018-06-10T10:11:31Z</time>
      </trkpt>
      <trkpt lat="42.239284" lon="2.706348">
        <ele>344.2</ele>
        <time>2018-06-10T10:11:45Z</time>
      </trkpt>
      <trkpt lat="42.239307" lon="2.706163">
        <ele>344.5</ele>
        <time>2018-06-10T10:11:49Z</time>
      </trkpt>
      <trkpt lat="42.239396" lon="2.705972">
        <ele>344.4</ele>
        <time>2018-06-10T10:11:53Z</time>
      </trkpt>
      <trkpt lat="42.239458" lon="2.705918">
        <ele>343.9</ele>
        <time>2018-06-10T10:11:55Z</time>
      </trkpt>
      <trkpt lat="42.239533" lon="2.705887">
        <ele>343.8</ele>
        <time>2018-06-10T10:11:57Z</time>
      </trkpt>
      <trkpt lat="42.239623" lon="2.705862">
        <ele>345.0</ele>
        <time>2018-06-10T10:12:00Z</time>
      </trkpt>
      <trkpt lat="42.239645" lon="2.705789">
        <ele>345.6</ele>
        <time>2018-06-10T10:12:01Z</time>
      </trkpt>
      <trkpt lat="42.239634" lon="2.705722">
        <ele>346.0</ele>
        <time>2018-06-10T10:12:03Z</time>
      </trkpt>
      <trkpt lat="42.239585" lon="2.705666">
        <ele>346.8</ele>
        <time>2018-06-10T10:12:04Z</time>
      </trkpt>
      <trkpt lat="42.239518" lon="2.705616">
        <ele>347.0</ele>
        <time>2018-06-10T10:12:06Z</time>
      </trkpt>
      <trkpt lat="42.239410" lon="2.705548">
        <ele>347.0</ele>
        <time>2018-06-10T10:12:10Z</time>
      </trkpt>
      <trkpt lat="42.239376" lon="2.705471">
        <ele>347.0</ele>
        <time>2018-06-10T10:12:11Z</time>
      </trkpt>
      <trkpt lat="42.239330" lon="2.705288">
        <ele>346.1</ele>
        <time>2018-06-10T10:12:15Z</time>
      </trkpt>
      <trkpt lat="42.239311" lon="2.705101">
        <ele>344.5</ele>
        <time>2018-06-10T10:12:19Z</time>
      </trkpt>
      <trkpt lat="42.239496" lon="2.704529">
        <ele>341.3</ele>
        <time>2018-06-10T10:12:31Z</time>
      </trkpt>
      <trkpt lat="42.239542" lon="2.704411">
        <ele>341.1</ele>
        <time>2018-06-10T10:12:34Z</time>
      </trkpt>
      <trkpt lat="42.239542" lon="2.704348">
        <ele>341.7</ele>
        <time>2018-06-10T10:12:35Z</time>
      </trkpt>
      <trkpt lat="42.239506" lon="2.704292">
        <ele>343.0</ele>
        <time>2018-06-10T10:12:37Z</time>
      </trkpt>
      <trkpt lat="42.239454" lon="2.704298">
        <ele>342.9</ele>
        <time>2018-06-10T10:12:38Z</time>
      </trkpt>
      <trkpt lat="42.239333" lon="2.704346">
        <ele>343.4</ele>
        <time>2018-06-10T10:12:41Z</time>
      </trkpt>
      <trkpt lat="42.239267" lon="2.704352">
        <ele>343.6</ele>
        <time>2018-06-10T10:12:43Z</time>
      </trkpt>
      <trkpt lat="42.239168" lon="2.704331">
        <ele>343.0</ele>
        <time>2018-06-10T10:12:46Z</time>
      </trkpt>
      <trkpt lat="42.239090" lon="2.704289">
        <ele>343.6</ele>
        <time>2018-06-10T10:12:48Z</time>
      </trkpt>
      <trkpt lat="42.239043" lon="2.704240">
        <ele>343.4</ele>
        <time>2018-06-10T10:12:50Z</time>
      </trkpt>
      <trkpt lat="42.239038" lon="2.704166">
        <ele>344.6</ele>
        <time>2018-06-10T10:12:51Z</time>
      </trkpt>
      <trkpt lat="42.239049" lon="2.704107">
        <ele>345.6</ele>
        <time>2018-06-10T10:12:52Z</time>
      </trkpt>
      <trkpt lat="42.239091" lon="2.704075">
        <ele>346.2</ele>
        <time>2018-06-10T10:12:54Z</time>
      </trkpt>
      <trkpt lat="42.239236" lon="2.704053">
        <ele>347.1</ele>
        <time>2018-06-10T10:12:58Z</time>
      </trkpt>
      <trkpt lat="42.239299" lon="2.704017">
        <ele>348.1</ele>
        <time>2018-06-10T10:12:59Z</time>
      </trkpt>
      <trkpt lat="42.239333" lon="2.703992">
        <ele>348.7</ele>
        <time>2018-06-10T10:13:00Z</time>
      </trkpt>
      <trkpt lat="42.239422" lon="2.703883">
        <ele>350.1</ele>
        <time>2018-06-10T10:13:04Z</time>
      </trkpt>
      <trkpt lat="42.239493" lon="2.703697">
        <ele>352.4</ele>
        <time>2018-06-10T10:13:08Z</time>
      </trkpt>
      <trkpt lat="42.239518" lon="2.703556">
        <ele>353.0</ele>
        <time>2018-06-10T10:13:11Z</time>
      </trkpt>
      <trkpt lat="42.239559" lon="2.703405">
        <ele>353.9</ele>
        <time>2018-06-10T10:13:14Z</time>
      </trkpt>
      <trkpt lat="42.239640" lon="2.703198">
        <ele>355.0</ele>
        <time>2018-06-10T10:13:18Z</time>
      </trkpt>
      <trkpt lat="42.239740" lon="2.702934">
        <ele>357.0</ele>
        <time>2018-06-10T10:13:24Z</time>
      </trkpt>
      <trkpt lat="42.239809" lon="2.702619">
        <ele>359.1</ele>
        <time>2018-06-10T10:13:31Z</time>
      </trkpt>
      <trkpt lat="42.239813" lon="2.702371">
        <ele>359.6</ele>
        <time>2018-06-10T10:13:36Z</time>
      </trkpt>
      <trkpt lat="42.239783" lon="2.702233">
        <ele>361.0</ele>
        <time>2018-06-10T10:13:39Z</time>
      </trkpt>
      <trkpt lat="42.239717" lon="2.702097">
        <ele>361.8</ele>
        <time>2018-06-10T10:13:42Z</time>
      </trkpt>
      <trkpt lat="42.239677" lon="2.702008">
        <ele>362.4</ele>
        <time>2018-06-10T10:13:44Z</time>
      </trkpt>
      <trkpt lat="42.239615" lon="2.701740">
        <ele>363.9</ele>
        <time>2018-06-10T10:13:49Z</time>
      </trkpt>
      <trkpt lat="42.239559" lon="2.701473">
        <ele>366.0</ele>
        <time>2018-06-10T10:13:55Z</time>
      </trkpt>
      <trkpt lat="42.239534" lon="2.701217">
        <ele>366.0</ele>
        <time>2018-06-10T10:14:00Z</time>
      </trkpt>
      <trkpt lat="42.239538" lon="2.700800">
        <ele>367.1</ele>
        <time>2018-06-10T10:14:08Z</time>
      </trkpt>
      <trkpt lat="42.239518" lon="2.700565">
        <ele>368.4</ele>
        <time>2018-06-10T10:14:13Z</time>
      </trkpt>
      <trkpt lat="42.239498" lon="2.700397">
        <ele>368.3</ele>
        <time>2018-06-10T10:14:16Z</time>
      </trkpt>
      <trkpt lat="42.239415" lon="2.699607">
        <ele>367.9</ele>
        <time>2018-06-10T10:14:32Z</time>
      </trkpt>
      <trkpt lat="42.239328" lon="2.699262">
        <ele>367.2</ele>
        <time>2018-06-10T10:14:39Z</time>
      </trkpt>
      <trkpt lat="42.239265" lon="2.699181">
        <ele>368.0</ele>
        <time>2018-06-10T10:14:41Z</time>
      </trkpt>
      <trkpt lat="42.239217" lon="2.699138">
        <ele>368.0</ele>
        <time>2018-06-10T10:14:43Z</time>
      </trkpt>
      <trkpt lat="42.239114" lon="2.699160">
        <ele>367.7</ele>
        <time>2018-06-10T10:14:46Z</time>
      </trkpt>
      <trkpt lat="42.238661" lon="2.699423">
        <ele>368.2</ele>
        <time>2018-06-10T10:14:59Z</time>
      </trkpt>
      <trkpt lat="42.238371" lon="2.699670">
        <ele>372.4</ele>
        <time>2018-06-10T10:15:08Z</time>
      </trkpt>
      <trkpt lat="42.238200" lon="2.699900">
        <ele>373.6</ele>
        <time>2018-06-10T10:15:14Z</time>
      </trkpt>
      <trkpt lat="42.238129" lon="2.699916">
        <ele>374.9</ele>
        <time>2018-06-10T10:15:16Z</time>
      </trkpt>
      <trkpt lat="42.237878" lon="2.699841">
        <ele>376.0</ele>
        <time>2018-06-10T10:15:23Z</time>
      </trkpt>
      <trkpt lat="42.237781" lon="2.699867">
        <ele>375.6</ele>
        <time>2018-06-10T10:15:26Z</time>
      </trkpt>
      <trkpt lat="42.237691" lon="2.699964">
        <ele>374.9</ele>
        <time>2018-06-10T10:15:29Z</time>
      </trkpt>
      <trkpt lat="42.237688" lon="2.700142">
        <ele>375.2</ele>
        <time>2018-06-10T10:15:32Z</time>
      </trkpt>
      <trkpt lat="42.237521" lon="2.700351">
        <ele>376.9</ele>
        <time>2018-06-10T10:15:39Z</time>
      </trkpt>
      <trkpt lat="42.237319" lon="2.700549">
        <ele>378.1</ele>
        <time>2018-06-10T10:15:45Z</time>
      </trkpt>
      <trkpt lat="42.237075" lon="2.700750">
        <ele>378.3</ele>
        <time>2018-06-10T10:15:53Z</time>
      </trkpt>
      <trkpt lat="42.237001" lon="2.700893">
        <ele>377.2</ele>
        <time>2018-06-10T10:15:56Z</time>
      </trkpt>
      <trkpt lat="42.236793" lon="2.701108">
        <ele>377.6</ele>
        <time>2018-06-10T10:16:03Z</time>
      </trkpt>
      <trkpt lat="42.236672" lon="2.701172">
        <ele>378.4</ele>
        <time>2018-06-10T10:16:07Z</time>
      </trkpt>
      <trkpt lat="42.236461" lon="2.701193">
        <ele>378.9</ele>
        <time>2018-06-10T10:16:12Z</time>
      </trkpt>
      <trkpt lat="42.236318" lon="2.701236">
        <ele>377.6</ele>
        <time>2018-06-10T10:16:16Z</time>
      </trkpt>
      <trkpt lat="42.235965" lon="2.701378">
        <ele>375.0</ele>
        <time>2018-06-10T10:16:26Z</time>
      </trkpt>
      <trkpt lat="42.235675" lon="2.701365">
        <ele>376.4</ele>
        <time>2018-06-10T10:16:34Z</time>
      </trkpt>
      <trkpt lat="42.235371" lon="2.701502">
        <ele>374.3</ele>
        <time>2018-06-10T10:16:42Z</time>
      </trkpt>
      <trkpt lat="42.235297" lon="2.701531">
        <ele>374.4</ele>
        <time>2018-06-10T10:16:44Z</time>
      </trkpt>
      <trkpt lat="42.235222" lon="2.701515">
        <ele>374.7</ele>
        <time>2018-06-10T10:16:46Z</time>
      </trkpt>
      <trkpt lat="42.235155" lon="2.701431">
        <ele>374.8</ele>
        <time>2018-06-10T10:16:49Z</time>
      </trkpt>
      <trkpt lat="42.235081" lon="2.700631">
        <ele>371.1</ele>
        <time>2018-06-10T10:17:05Z</time>
      </trkpt>
      <trkpt lat="42.234956" lon="2.700421">
        <ele>368.4</ele>
        <time>2018-06-10T10:17:10Z</time>
      </trkpt>
      <trkpt lat="42.234845" lon="2.700075">
        <ele>363.0</ele>
        <time>2018-06-10T10:17:18Z</time>
      </trkpt>
      <trkpt lat="42.234392" lon="2.699063">
        <ele>349.5</ele>
        <time>2018-06-10T10:17:41Z</time>
      </trkpt>
      <trkpt lat="42.234261" lon="2.698913">
        <ele>347.3</ele>
        <time>2018-06-10T10:17:46Z</time>
      </trkpt>
      <trkpt lat="42.234126" lon="2.698806">
        <ele>346.0</ele>
        <time>2018-06-10T10:17:50Z</time>
      </trkpt>
      <trkpt lat="42.233891" lon="2.698755">
        <ele>344.4</ele>
        <time>2018-06-10T10:17:56Z</time>
      </trkpt>
      <trkpt lat="42.233752" lon="2.698610">
        <ele>345.0</ele>
        <time>2018-06-10T10:18:01Z</time>
      </trkpt>
      <trkpt lat="42.233618" lon="2.698344">
        <ele>345.0</ele>
        <time>2018-06-10T10:18:07Z</time>
      </trkpt>
      <trkpt lat="42.233526" lon="2.698251">
        <ele>346.0</ele>
        <time>2018-06-10T10:18:10Z</time>
      </trkpt>
      <trkpt lat="42.233482" lon="2.698181">
        <ele>346.0</ele>
        <time>2018-06-10T10:18:12Z</time>
      </trkpt>
      <trkpt lat="42.233467" lon="2.698028">
        <ele>346.3</ele>
        <time>2018-06-10T10:18:15Z</time>
      </trkpt>
      <trkpt lat="42.233452" lon="2.697633">
        <ele>345.8</ele>
        <time>2018-06-10T10:18:23Z</time>
      </trkpt>
      <trkpt lat="42.232799" lon="2.696012">
        <ele>338.5</ele>
        <time>2018-06-10T10:18:59Z</time>
      </trkpt>
      <trkpt lat="42.232629" lon="2.695845">
        <ele>337.5</ele>
        <time>2018-06-10T10:19:05Z</time>
      </trkpt>
      <trkpt lat="42.232454" lon="2.695646">
        <ele>337.2</ele>
        <time>2018-06-10T10:19:11Z</time>
      </trkpt>
      <trkpt lat="42.232402" lon="2.695512">
        <ele>335.0</ele>
        <time>2018-06-10T10:19:14Z</time>
      </trkpt>
      <trkpt lat="42.232310" lon="2.695215">
        <ele>335.0</ele>
        <time>2018-06-10T10:19:20Z</time>
      </trkpt>
      <trkpt lat="42.232328" lon="2.694948">
        <ele>334.2</ele>
        <time>2018-06-10T10:19:26Z</time>
      </trkpt>
      <trkpt lat="42.232470" lon="2.694414">
        <ele>329.4</ele>
        <time>2018-06-10T10:19:37Z</time>
      </trkpt>
      <trkpt lat="42.232792" lon="2.693249">
        <ele>319.2</ele>
        <time>2018-06-10T10:20:02Z</time>
      </trkpt>
      <trkpt lat="42.232773" lon="2.692959">
        <ele>318.6</ele>
        <time>2018-06-10T10:20:07Z</time>
      </trkpt>
      <trkpt lat="42.232682" lon="2.692717">
        <ele>321.8</ele>
        <time>2018-06-10T10:20:13Z</time>
      </trkpt>
      <trkpt lat="42.232554" lon="2.691942">
        <ele>321.8</ele>
        <time>2018-06-10T10:20:28Z</time>
      </trkpt>
      <trkpt lat="42.232372" lon="2.691361">
        <ele>321.1</ele>
        <time>2018-06-10T10:20:41Z</time>
      </trkpt>
      <trkpt lat="42.232083" lon="2.691071">
        <ele>319.5</ele>
        <time>2018-06-10T10:20:50Z</time>
      </trkpt>
      <trkpt lat="42.231342" lon="2.690009">
        <ele>318.3</ele>
        <time>2018-06-10T10:21:19Z</time>
      </trkpt>
      <trkpt lat="42.230980" lon="2.689429">
        <ele>315.4</ele>
        <time>2018-06-10T10:21:34Z</time>
      </trkpt>
      <trkpt lat="42.230799" lon="2.689163">
        <ele>312.6</ele>
        <time>2018-06-10T10:21:41Z</time>
      </trkpt>
      <trkpt lat="42.230600" lon="2.688728">
        <ele>308.1</ele>
        <time>2018-06-10T10:21:51Z</time>
      </trkpt>
      <trkpt lat="42.230220" lon="2.688293">
        <ele>305.4</ele>
        <time>2018-06-10T10:22:05Z</time>
      </trkpt>
      <trkpt lat="42.230003" lon="2.687882">
        <ele>299.9</ele>
        <time>2018-06-10T10:22:15Z</time>
      </trkpt>
      <trkpt lat="42.229841" lon="2.687907">
        <ele>299.0</ele>
        <time>2018-06-10T10:22:19Z</time>
      </trkpt>
      <trkpt lat="42.229534" lon="2.687788">
        <ele>293.0</ele>
        <time>2018-06-10T10:22:28Z</time>
      </trkpt>
      <trkpt lat="42.229263" lon="2.687401">
        <ele>287.2</ele>
        <time>2018-06-10T10:22:38Z</time>
      </trkpt>
      <trkpt lat="42.229190" lon="2.687135">
        <ele>282.4</ele>
        <time>2018-06-10T10:22:44Z</time>
      </trkpt>
      <trkpt lat="42.229046" lon="2.687015">
        <ele>280.0</ele>
        <time>2018-06-10T10:22:49Z</time>
      </trkpt>
      <trkpt lat="42.228955" lon="2.686821">
        <ele>279.5</ele>
        <time>2018-06-10T10:22:53Z</time>
      </trkpt>
      <trkpt lat="42.228936" lon="2.686226">
        <ele>272.1</ele>
        <time>2018-06-10T10:23:05Z</time>
      </trkpt>
      <trkpt lat="42.228920" lon="2.686108">
        <ele>269.9</ele>
        <time>2018-06-10T10:23:07Z</time>
      </trkpt>
      <trkpt lat="42.228881" lon="2.686070">
        <ele>270.5</ele>
        <time>2018-06-10T10:23:09Z</time>
      </trkpt>
      <trkpt lat="42.228449" lon="2.685951">
        <ele>277.8</ele>
        <time>2018-06-10T10:23:21Z</time>
      </trkpt>
      <trkpt lat="42.228250" lon="2.685661">
        <ele>279.4</ele>
        <time>2018-06-10T10:23:28Z</time>
      </trkpt>
      <trkpt lat="42.228105" lon="2.685565">
        <ele>279.6</ele>
        <time>2018-06-10T10:23:33Z</time>
      </trkpt>
      <trkpt lat="42.227403" lon="2.685520">
        <ele>290.9</ele>
        <time>2018-06-10T10:23:52Z</time>
      </trkpt>
      <trkpt lat="42.227258" lon="2.685230">
        <ele>288.0</ele>
        <time>2018-06-10T10:23:58Z</time>
      </trkpt>
      <trkpt lat="42.226897" lon="2.684965">
        <ele>296.6</ele>
        <time>2018-06-10T10:24:10Z</time>
      </trkpt>
      <trkpt lat="42.226607" lon="2.684555">
        <ele>295.1</ele>
        <time>2018-06-10T10:24:21Z</time>
      </trkpt>
      <trkpt lat="42.226288" lon="2.684477">
        <ele>297.5</ele>
        <time>2018-06-10T10:24:29Z</time>
      </trkpt>
      <trkpt lat="42.225966" lon="2.684118">
        <ele>296.0</ele>
        <time>2018-06-10T10:24:41Z</time>
      </trkpt>
      <trkpt lat="42.225875" lon="2.684113">
        <ele>295.7</ele>
        <time>2018-06-10T10:24:43Z</time>
      </trkpt>
      <trkpt lat="42.225688" lon="2.684177">
        <ele>293.4</ele>
        <time>2018-06-10T10:24:48Z</time>
      </trkpt>
      <trkpt lat="42.225569" lon="2.684209">
        <ele>291.1</ele>
        <time>2018-06-10T10:24:51Z</time>
      </trkpt>
      <trkpt lat="42.225418" lon="2.684209">
        <ele>288.7</ele>
        <time>2018-06-10T10:24:55Z</time>
      </trkpt>
      <trkpt lat="42.224958" lon="2.684375">
        <ele>280.6</ele>
        <time>2018-06-10T10:25:08Z</time>
      </trkpt>
      <trkpt lat="42.224489" lon="2.684424">
        <ele>275.4</ele>
        <time>2018-06-10T10:25:21Z</time>
      </trkpt>
      <trkpt lat="42.224167" lon="2.684494">
        <ele>274.5</ele>
        <time>2018-06-10T10:25:30Z</time>
      </trkpt>
      <trkpt lat="42.224091" lon="2.684492">
        <ele>273.5</ele>
        <time>2018-06-10T10:25:32Z</time>
      </trkpt>
      <trkpt lat="42.223776" lon="2.684597">
        <ele>271.2</ele>
        <time>2018-06-10T10:25:40Z</time>
      </trkpt>
      <trkpt lat="42.223614" lon="2.684622">
        <ele>270.6</ele>
        <time>2018-06-10T10:25:45Z</time>
      </trkpt>
      <trkpt lat="42.223384" lon="2.684556">
        <ele>268.1</ele>
        <time>2018-06-10T10:25:51Z</time>
      </trkpt>
      <trkpt lat="42.223074" lon="2.684521">
        <ele>268.5</ele>
        <time>2018-06-10T10:25:59Z</time>
      </trkpt>
      <trkpt lat="42.222751" lon="2.684523">
        <ele>265.8</ele>
        <time>2018-06-10T10:26:08Z</time>
      </trkpt>
      <trkpt lat="42.222727" lon="2.684496">
        <ele>264.8</ele>
        <time>2018-06-10T10:26:09Z</time>
      </trkpt>
      <trkpt lat="42.222734" lon="2.684453">
        <ele>263.7</ele>
        <time>2018-06-10T10:26:10Z</time>
      </trkpt>
      <trkpt lat="42.222819" lon="2.684421">
        <ele>263.3</ele>
        <time>2018-06-10T10:26:12Z</time>
      </trkpt>
      <trkpt lat="42.223148" lon="2.684329">
        <ele>262.7</ele>
        <time>2018-06-10T10:26:21Z</time>
      </trkpt>
      <trkpt lat="42.223371" lon="2.684325">
        <ele>262.6</ele>
        <time>2018-06-10T10:26:27Z</time>
      </trkpt>
      <trkpt lat="42.223550" lon="2.684303">
        <ele>263.3</ele>
        <time>2018-06-10T10:26:32Z</time>
      </trkpt>
      <trkpt lat="42.223697" lon="2.684244">
        <ele>264.0</ele>
        <time>2018-06-10T10:26:36Z</time>
      </trkpt>
      <trkpt lat="42.223771" lon="2.684173">
        <ele>264.0</ele>
        <time>2018-06-10T10:26:38Z</time>
      </trkpt>
      <trkpt lat="42.223941" lon="2.684054">
        <ele>264.0</ele>
        <time>2018-06-10T10:26:43Z</time>
      </trkpt>
      <trkpt lat="42.224028" lon="2.683968">
        <ele>264.0</ele>
        <time>2018-06-10T10:26:46Z</time>
      </trkpt>
      <trkpt lat="42.224068" lon="2.683834">
        <ele>263.8</ele>
        <time>2018-06-10T10:26:49Z</time>
      </trkpt>
      <trkpt lat="42.224056" lon="2.683700">
        <ele>264.2</ele>
        <time>2018-06-10T10:26:52Z</time>
      </trkpt>
      <trkpt lat="42.224020" lon="2.683582">
        <ele>264.8</ele>
        <time>2018-06-10T10:26:54Z</time>
      </trkpt>
      <trkpt lat="42.223941" lon="2.683469">
        <ele>265.0</ele>
        <time>2018-06-10T10:26:57Z</time>
      </trkpt>
      <trkpt lat="42.223866" lon="2.683405">
        <ele>265.1</ele>
        <time>2018-06-10T10:26:59Z</time>
      </trkpt>
      <trkpt lat="42.223670" lon="2.683329">
        <ele>264.8</ele>
        <time>2018-06-10T10:27:05Z</time>
      </trkpt>
      <trkpt lat="42.223253" lon="2.683238">
        <ele>263.9</ele>
        <time>2018-06-10T10:27:16Z</time>
      </trkpt>
      <trkpt lat="42.223051" lon="2.683201">
        <ele>263.9</ele>
        <time>2018-06-10T10:27:22Z</time>
      </trkpt>
      <trkpt lat="42.222641" lon="2.683217">
        <ele>262.7</ele>
        <time>2018-06-10T10:27:33Z</time>
      </trkpt>
      <trkpt lat="42.222452" lon="2.683147">
        <ele>262.8</ele>
        <time>2018-06-10T10:27:38Z</time>
      </trkpt>
      <trkpt lat="42.222217" lon="2.683147">
        <ele>261.9</ele>
        <time>2018-06-10T10:27:44Z</time>
      </trkpt>
      <trkpt lat="42.221987" lon="2.683206">
        <ele>260.9</ele>
        <time>2018-06-10T10:27:50Z</time>
      </trkpt>
      <trkpt lat="42.221704" lon="2.683198">
        <ele>261.1</ele>
        <time>2018-06-10T10:27:58Z</time>
      </trkpt>
      <trkpt lat="42.221416" lon="2.683054">
        <ele>263.5</ele>
        <time>2018-06-10T10:28:06Z</time>
      </trkpt>
      <trkpt lat="42.221271" lon="2.682885">
        <ele>264.3</ele>
        <time>2018-06-10T10:28:11Z</time>
      </trkpt>
      <trkpt lat="42.221037" lon="2.682789">
        <ele>263.9</ele>
        <time>2018-06-10T10:28:18Z</time>
      </trkpt>
      <trkpt lat="42.220694" lon="2.682815">
        <ele>263.5</ele>
        <time>2018-06-10T10:28:27Z</time>
      </trkpt>
      <trkpt lat="42.220605" lon="2.682702">
        <ele>264.0</ele>
        <time>2018-06-10T10:28:30Z</time>
      </trkpt>
      <trkpt lat="42.220605" lon="2.682536">
        <ele>265.0</ele>
        <time>2018-06-10T10:28:33Z</time>
      </trkpt>
      <trkpt lat="42.220661" lon="2.682407">
        <ele>265.0</ele>
        <time>2018-06-10T10:28:36Z</time>
      </trkpt>
      <trkpt lat="42.220788" lon="2.682289">
        <ele>266.0</ele>
        <time>2018-06-10T10:28:40Z</time>
      </trkpt>
      <trkpt lat="42.220994" lon="2.682262">
        <ele>267.0</ele>
        <time>2018-06-10T10:28:46Z</time>
      </trkpt>
      <trkpt lat="42.221022" lon="2.682257">
        <ele>267.0</ele>
        <time>2018-06-10T10:28:47Z</time>
      </trkpt>
      <trkpt lat="42.221053" lon="2.682207">
        <ele>267.0</ele>
        <time>2018-06-10T10:28:48Z</time>
      </trkpt>
      <trkpt lat="42.220994" lon="2.681994">
        <ele>267.0</ele>
        <time>2018-06-10T10:28:52Z</time>
      </trkpt>
      <trkpt lat="42.220961" lon="2.681699">
        <ele>267.0</ele>
        <time>2018-06-10T10:28:58Z</time>
      </trkpt>
      <trkpt lat="42.221050" lon="2.681020">
        <ele>268.1</ele>
        <time>2018-06-10T10:29:12Z</time>
      </trkpt>
      <trkpt lat="42.221010" lon="2.680846">
        <ele>268.0</ele>
        <time>2018-06-10T10:29:15Z</time>
      </trkpt>
      <trkpt lat="42.220760" lon="2.680537">
        <ele>267.0</ele>
        <time>2018-06-10T10:29:24Z</time>
      </trkpt>
      <trkpt lat="42.220813" lon="2.680028">
        <ele>266.8</ele>
        <time>2018-06-10T10:29:35Z</time>
      </trkpt>
      <trkpt lat="42.220991" lon="2.679421">
        <ele>267.0</ele>
        <time>2018-06-10T10:29:47Z</time>
      </trkpt>
      <trkpt lat="42.220990" lon="2.679106">
        <ele>267.4</ele>
        <time>2018-06-10T10:29:54Z</time>
      </trkpt>
      <trkpt lat="42.220773" lon="2.678768">
        <ele>265.0</ele>
        <time>2018-06-10T10:30:02Z</time>
      </trkpt>
      <trkpt lat="42.220825" lon="2.678113">
        <ele>264.0</ele>
        <time>2018-06-10T10:30:15Z</time>
      </trkpt>
      <trkpt lat="42.220752" lon="2.677605">
        <ele>261.2</ele>
        <time>2018-06-10T10:30:26Z</time>
      </trkpt>
      <trkpt lat="42.220762" lon="2.676975">
        <ele>260.6</ele>
        <time>2018-06-10T10:30:38Z</time>
      </trkpt>
      <trkpt lat="42.220737" lon="2.676924">
        <ele>260.1</ele>
        <time>2018-06-10T10:30:39Z</time>
      </trkpt>
      <trkpt lat="42.220018" lon="2.676308">
        <ele>256.0</ele>
        <time>2018-06-10T10:31:02Z</time>
      </trkpt>
      <trkpt lat="42.219829" lon="2.676106">
        <ele>256.0</ele>
        <time>2018-06-10T10:31:08Z</time>
      </trkpt>
      <trkpt lat="42.219793" lon="2.676034">
        <ele>255.2</ele>
        <time>2018-06-10T10:31:10Z</time>
      </trkpt>
      <trkpt lat="42.219789" lon="2.675913">
        <ele>255.6</ele>
        <time>2018-06-10T10:31:13Z</time>
      </trkpt>
      <trkpt lat="42.219813" lon="2.675307">
        <ele>254.8</ele>
        <time>2018-06-10T10:31:24Z</time>
      </trkpt>
      <trkpt lat="42.219837" lon="2.675028">
        <ele>254.0</ele>
        <time>2018-06-10T10:31:30Z</time>
      </trkpt>
      <trkpt lat="42.219928" lon="2.674588">
        <ele>254.0</ele>
        <time>2018-06-10T10:31:39Z</time>
      </trkpt>
      <trkpt lat="42.220004" lon="2.674100">
        <ele>251.0</ele>
        <time>2018-06-10T10:31:49Z</time>
      </trkpt>
      <trkpt lat="42.220005" lon="2.673995">
        <ele>251.0</ele>
        <time>2018-06-10T10:31:51Z</time>
      </trkpt>
      <trkpt lat="42.220003" lon="2.673852">
        <ele>250.0</ele>
        <time>2018-06-10T10:31:54Z</time>
      </trkpt>
      <trkpt lat="42.219988" lon="2.673773">
        <ele>250.0</ele>
        <time>2018-06-10T10:31:55Z</time>
      </trkpt>
      <trkpt lat="42.219932" lon="2.673650">
        <ele>249.0</ele>
        <time>2018-06-10T10:31:58Z</time>
      </trkpt>
      <trkpt lat="42.219797" lon="2.673488">
        <ele>248.0</ele>
        <time>2018-06-10T10:32:03Z</time>
      </trkpt>
      <trkpt lat="42.219505" lon="2.673110">
        <ele>246.2</ele>
        <time>2018-06-10T10:32:14Z</time>
      </trkpt>
      <trkpt lat="42.219334" lon="2.673008">
        <ele>245.0</ele>
        <time>2018-06-10T10:32:19Z</time>
      </trkpt>
      <trkpt lat="42.219120" lon="2.672976">
        <ele>244.4</ele>
        <time>2018-06-10T10:32:25Z</time>
      </trkpt>
      <trkpt lat="42.218881" lon="2.672992">
        <ele>244.0</ele>
        <time>2018-06-10T10:32:31Z</time>
      </trkpt>
      <trkpt lat="42.218650" lon="2.673051">
        <ele>243.0</ele>
        <time>2018-06-10T10:32:37Z</time>
      </trkpt>
      <trkpt lat="42.218503" lon="2.673131">
        <ele>242.0</ele>
        <time>2018-06-10T10:32:41Z</time>
      </trkpt>
      <trkpt lat="42.218403" lon="2.673175">
        <ele>241.9</ele>
        <time>2018-06-10T10:32:44Z</time>
      </trkpt>
      <trkpt lat="42.218291" lon="2.673198">
        <ele>241.0</ele>
        <time>2018-06-10T10:32:47Z</time>
      </trkpt>
      <trkpt lat="42.218233" lon="2.673197">
        <ele>241.0</ele>
        <time>2018-06-10T10:32:49Z</time>
      </trkpt>
      <trkpt lat="42.218153" lon="2.673153">
        <ele>240.9</ele>
        <time>2018-06-10T10:32:51Z</time>
      </trkpt>
      <trkpt lat="42.217816" lon="2.672834">
        <ele>239.0</ele>
        <time>2018-06-10T10:33:02Z</time>
      </trkpt>
      <trkpt lat="42.216977" lon="2.671918">
        <ele>236.9</ele>
        <time>2018-06-10T10:33:31Z</time>
      </trkpt>
      <trkpt lat="42.215948" lon="2.670837">
        <ele>233.0</ele>
        <time>2018-06-10T10:34:05Z</time>
      </trkpt>
      <trkpt lat="42.214663" lon="2.669541">
        <ele>226.7</ele>
        <time>2018-06-10T10:34:48Z</time>
      </trkpt>
      <trkpt lat="42.214520" lon="2.669449">
        <ele>226.0</ele>
        <time>2018-06-10T10:34:52Z</time>
      </trkpt>
      <trkpt lat="42.214385" lon="2.669382">
        <ele>225.8</ele>
        <time>2018-06-10T10:34:56Z</time>
      </trkpt>
      <trkpt lat="42.214125" lon="2.669324">
        <ele>224.6</ele>
        <time>2018-06-10T10:35:03Z</time>
      </trkpt>
      <trkpt lat="42.213925" lon="2.669320">
        <ele>223.2</ele>
        <time>2018-06-10T10:35:09Z</time>
      </trkpt>
      <trkpt lat="42.213467" lon="2.669257">
        <ele>222.9</ele>
        <time>2018-06-10T10:35:21Z</time>
      </trkpt>
      <trkpt lat="42.213339" lon="2.669232">
        <ele>221.5</ele>
        <time>2018-06-10T10:35:24Z</time>
      </trkpt>
      <trkpt lat="42.213222" lon="2.669176">
        <ele>220.7</ele>
        <time>2018-06-10T10:35:28Z</time>
      </trkpt>
      <trkpt lat="42.213166" lon="2.669115">
        <ele>219.4</ele>
        <time>2018-06-10T10:35:30Z</time>
      </trkpt>
      <trkpt lat="42.213057" lon="2.668954">
        <ele>217.0</ele>
        <time>2018-06-10T10:35:34Z</time>
      </trkpt>
      <trkpt lat="42.212919" lon="2.668684">
        <ele>215.0</ele>
        <time>2018-06-10T10:35:40Z</time>
      </trkpt>
      <trkpt lat="42.212852" lon="2.668644">
        <ele>213.5</ele>
        <time>2018-06-10T10:35:42Z</time>
      </trkpt>
      <trkpt lat="42.212776" lon="2.668635">
        <ele>212.6</ele>
        <time>2018-06-10T10:35:44Z</time>
      </trkpt>
      <trkpt lat="42.212549" lon="2.668725">
        <ele>207.0</ele>
        <time>2018-06-10T10:35:51Z</time>
      </trkpt>
      <trkpt lat="42.212241" lon="2.668900">
        <ele>203.0</ele>
        <time>2018-06-10T10:36:00Z</time>
      </trkpt>
      <trkpt lat="42.212150" lon="2.668922">
        <ele>202.9</ele>
        <time>2018-06-10T10:36:02Z</time>
      </trkpt>
      <trkpt lat="42.211954" lon="2.668936">
        <ele>199.8</ele>
        <time>2018-06-10T10:36:08Z</time>
      </trkpt>
      <trkpt lat="42.211762" lon="2.668886">
        <ele>197.2</ele>
        <time>2018-06-10T10:36:13Z</time>
      </trkpt>
      <trkpt lat="42.211655" lon="2.668813">
        <ele>195.9</ele>
        <time>2018-06-10T10:36:16Z</time>
      </trkpt>
      <trkpt lat="42.211597" lon="2.668762">
        <ele>195.0</ele>
        <time>2018-06-10T10:36:18Z</time>
      </trkpt>
      <trkpt lat="42.211560" lon="2.668703">
        <ele>195.0</ele>
        <time>2018-06-10T10:36:19Z</time>
      </trkpt>
      <trkpt lat="42.211557" lon="2.668625">
        <ele>195.0</ele>
        <time>2018-06-10T10:36:21Z</time>
      </trkpt>
      <trkpt lat="42.211601" lon="2.668424">
        <ele>195.6</ele>
        <time>2018-06-10T10:36:25Z</time>
      </trkpt>
      <trkpt lat="42.211648" lon="2.668139">
        <ele>196.7</ele>
        <time>2018-06-10T10:36:31Z</time>
      </trkpt>
      <trkpt lat="42.211675" lon="2.667850">
        <ele>197.0</ele>
        <time>2018-06-10T10:36:37Z</time>
      </trkpt>
      <trkpt lat="42.211691" lon="2.667406">
        <ele>198.0</ele>
        <time>2018-06-10T10:36:45Z</time>
      </trkpt>
      <trkpt lat="42.211728" lon="2.667006">
        <ele>196.8</ele>
        <time>2018-06-10T10:36:53Z</time>
      </trkpt>
      <trkpt lat="42.211801" lon="2.666636">
        <ele>194.3</ele>
        <time>2018-06-10T10:37:01Z</time>
      </trkpt>
      <trkpt lat="42.211909" lon="2.666279">
        <ele>197.8</ele>
        <time>2018-06-10T10:37:08Z</time>
      </trkpt>
      <trkpt lat="42.212147" lon="2.665692">
        <ele>198.0</ele>
        <time>2018-06-10T10:37:22Z</time>
      </trkpt>
      <trkpt lat="42.212479" lon="2.664983">
        <ele>197.3</ele>
        <time>2018-06-10T10:37:38Z</time>
      </trkpt>
      <trkpt lat="42.212652" lon="2.664702">
        <ele>196.7</ele>
        <time>2018-06-10T10:37:45Z</time>
      </trkpt>
      <trkpt lat="42.212790" lon="2.664534">
        <ele>195.0</ele>
        <time>2018-06-10T10:37:50Z</time>
      </trkpt>
      <trkpt lat="42.213080" lon="2.664236">
        <ele>193.0</ele>
        <time>2018-06-10T10:38:00Z</time>
      </trkpt>
      <trkpt lat="42.213379" lon="2.664009">
        <ele>191.4</ele>
        <time>2018-06-10T10:38:09Z</time>
      </trkpt>
      <trkpt lat="42.214303" lon="2.663523">
        <ele>189.5</ele>
        <time>2018-06-10T10:38:36Z</time>
      </trkpt>
      <trkpt lat="42.214670" lon="2.663319">
        <ele>187.0</ele>
        <time>2018-06-10T10:38:46Z</time>
      </trkpt>
      <trkpt lat="42.214817" lon="2.663191">
        <ele>186.0</ele>
        <time>2018-06-10T10:38:51Z</time>
      </trkpt>
      <trkpt lat="42.214897" lon="2.663092">
        <ele>186.0</ele>
        <time>2018-06-10T10:38:54Z</time>
      </trkpt>
      <trkpt lat="42.214958" lon="2.662936">
        <ele>185.5</ele>
        <time>2018-06-10T10:38:57Z</time>
      </trkpt>
      <trkpt lat="42.215037" lon="2.662607">
        <ele>184.6</ele>
        <time>2018-06-10T10:39:04Z</time>
      </trkpt>
      <trkpt lat="42.215235" lon="2.661732">
        <ele>186.0</ele>
        <time>2018-06-10T10:39:22Z</time>
      </trkpt>
      <trkpt lat="42.215239" lon="2.661574">
        <ele>187.0</ele>
        <time>2018-06-10T10:39:25Z</time>
      </trkpt>
      <trkpt lat="42.215230" lon="2.661389">
        <ele>188.0</ele>
        <time>2018-06-10T10:39:29Z</time>
      </trkpt>
      <trkpt lat="42.215247" lon="2.661250">
        <ele>189.1</ele>
        <time>2018-06-10T10:39:32Z</time>
      </trkpt>
      <trkpt lat="42.215273" lon="2.661178">
        <ele>189.9</ele>
        <time>2018-06-10T10:39:33Z</time>
      </trkpt>
      <trkpt lat="42.215305" lon="2.661088">
        <ele>191.0</ele>
        <time>2018-06-10T10:39:35Z</time>
      </trkpt>
      <trkpt lat="42.215299" lon="2.660958">
        <ele>190.0</ele>
        <time>2018-06-10T10:39:38Z</time>
      </trkpt>
      <trkpt lat="42.215269" lon="2.660888">
        <ele>190.0</ele>
        <time>2018-06-10T10:39:39Z</time>
      </trkpt>
      <trkpt lat="42.215156" lon="2.660710">
        <ele>190.0</ele>
        <time>2018-06-10T10:39:44Z</time>
      </trkpt>
      <trkpt lat="42.215075" lon="2.660577">
        <ele>190.0</ele>
        <time>2018-06-10T10:39:47Z</time>
      </trkpt>
      <trkpt lat="42.214994" lon="2.660408">
        <ele>189.6</ele>
        <time>2018-06-10T10:39:51Z</time>
      </trkpt>
      <trkpt lat="42.214928" lon="2.660181">
        <ele>189.0</ele>
        <time>2018-06-10T10:39:56Z</time>
      </trkpt>
      <trkpt lat="42.214892" lon="2.659941">
        <ele>188.4</ele>
        <time>2018-06-10T10:40:01Z</time>
      </trkpt>
      <trkpt lat="42.214914" lon="2.659711">
        <ele>189.3</ele>
        <time>2018-06-10T10:40:06Z</time>
      </trkpt>
      <trkpt lat="42.214955" lon="2.659603">
        <ele>190.0</ele>
        <time>2018-06-10T10:40:08Z</time>
      </trkpt>
      <trkpt lat="42.215056" lon="2.659517">
        <ele>191.0</ele>
        <time>2018-06-10T10:40:11Z</time>
      </trkpt>
      <trkpt lat="42.215168" lon="2.659473">
        <ele>193.5</ele>
        <time>2018-06-10T10:40:14Z</time>
      </trkpt>
      <trkpt lat="42.215259" lon="2.659475">
        <ele>195.7</ele>
        <time>2018-06-10T10:40:17Z</time>
      </trkpt>
      <trkpt lat="42.215359" lon="2.659536">
        <ele>197.4</ele>
        <time>2018-06-10T10:40:20Z</time>
      </trkpt>
      <trkpt lat="42.215510" lon="2.659631">
        <ele>200.1</ele>
        <time>2018-06-10T10:40:24Z</time>
      </trkpt>
      <trkpt lat="42.215901" lon="2.659817">
        <ele>203.8</ele>
        <time>2018-06-10T10:40:35Z</time>
      </trkpt>
      <trkpt lat="42.216096" lon="2.659884">
        <ele>206.0</ele>
        <time>2018-06-10T10:40:41Z</time>
      </trkpt>
      <trkpt lat="42.216168" lon="2.659894">
        <ele>206.5</ele>
        <time>2018-06-10T10:40:43Z</time>
      </trkpt>
      <trkpt lat="42.216248" lon="2.659878">
        <ele>208.0</ele>
        <time>2018-06-10T10:40:45Z</time>
      </trkpt>
      <trkpt lat="42.216340" lon="2.659822">
        <ele>208.9</ele>
        <time>2018-06-10T10:40:47Z</time>
      </trkpt>
      <trkpt lat="42.216403" lon="2.659741">
        <ele>209.8</ele>
        <time>2018-06-10T10:40:50Z</time>
      </trkpt>
      <trkpt lat="42.216468" lon="2.659600">
        <ele>210.7</ele>
        <time>2018-06-10T10:40:53Z</time>
      </trkpt>
      <trkpt lat="42.216530" lon="2.659471">
        <ele>211.4</ele>
        <time>2018-06-10T10:40:56Z</time>
      </trkpt>
      <trkpt lat="42.216572" lon="2.659403">
        <ele>212.3</ele>
        <time>2018-06-10T10:40:58Z</time>
      </trkpt>
      <trkpt lat="42.216688" lon="2.659323">
        <ele>213.0</ele>
        <time>2018-06-10T10:41:01Z</time>
      </trkpt>
      <trkpt lat="42.216895" lon="2.659185">
        <ele>215.8</ele>
        <time>2018-06-10T10:41:08Z</time>
      </trkpt>
      <trkpt lat="42.217092" lon="2.659130">
        <ele>218.8</ele>
        <time>2018-06-10T10:41:13Z</time>
      </trkpt>
      <trkpt lat="42.217301" lon="2.659098">
        <ele>221.0</ele>
        <time>2018-06-10T10:41:19Z</time>
      </trkpt>
      <trkpt lat="42.217482" lon="2.659104">
        <ele>222.8</ele>
        <time>2018-06-10T10:41:23Z</time>
      </trkpt>
      <trkpt lat="42.217690" lon="2.659138">
        <ele>224.0</ele>
        <time>2018-06-10T10:41:29Z</time>
      </trkpt>
      <trkpt lat="42.218080" lon="2.659147">
        <ele>226.7</ele>
        <time>2018-06-10T10:41:39Z</time>
      </trkpt>
      <trkpt lat="42.218338" lon="2.659170">
        <ele>229.0</ele>
        <time>2018-06-10T10:41:46Z</time>
      </trkpt>
      <trkpt lat="42.218558" lon="2.659199">
        <ele>230.5</ele>
        <time>2018-06-10T10:41:52Z</time>
      </trkpt>
      <trkpt lat="42.218703" lon="2.659229">
        <ele>231.0</ele>
        <time>2018-06-10T10:41:56Z</time>
      </trkpt>
      <trkpt lat="42.218827" lon="2.659260">
        <ele>231.0</ele>
        <time>2018-06-10T10:41:59Z</time>
      </trkpt>
      <trkpt lat="42.218931" lon="2.659267">
        <ele>231.0</ele>
        <time>2018-06-10T10:42:02Z</time>
      </trkpt>
      <trkpt lat="42.219050" lon="2.659247">
        <ele>231.9</ele>
        <time>2018-06-10T10:42:05Z</time>
      </trkpt>
      <trkpt lat="42.219208" lon="2.659224">
        <ele>233.0</ele>
        <time>2018-06-10T10:42:10Z</time>
      </trkpt>
      <trkpt lat="42.219317" lon="2.659209">
        <ele>234.0</ele>
        <time>2018-06-10T10:42:13Z</time>
      </trkpt>
      <trkpt lat="42.219700" lon="2.659094">
        <ele>238.0</ele>
        <time>2018-06-10T10:42:23Z</time>
      </trkpt>
      <trkpt lat="42.219931" lon="2.658991">
        <ele>240.0</ele>
        <time>2018-06-10T10:42:30Z</time>
      </trkpt>
      <trkpt lat="42.220528" lon="2.658641">
        <ele>245.0</ele>
        <time>2018-06-10T10:42:47Z</time>
      </trkpt>
      <trkpt lat="42.220837" lon="2.658441">
        <ele>246.0</ele>
        <time>2018-06-10T10:42:56Z</time>
      </trkpt>
      <trkpt lat="42.221121" lon="2.658240">
        <ele>246.0</ele>
        <time>2018-06-10T10:43:05Z</time>
      </trkpt>
      <trkpt lat="42.221443" lon="2.657944">
        <ele>247.0</ele>
        <time>2018-06-10T10:43:15Z</time>
      </trkpt>
      <trkpt lat="42.221828" lon="2.657643">
        <ele>248.0</ele>
        <time>2018-06-10T10:43:27Z</time>
      </trkpt>
      <trkpt lat="42.222157" lon="2.657319">
        <ele>250.2</ele>
        <time>2018-06-10T10:43:38Z</time>
      </trkpt>
      <trkpt lat="42.222457" lon="2.657003">
        <ele>251.0</ele>
        <time>2018-06-10T10:43:48Z</time>
      </trkpt>
      <trkpt lat="42.222622" lon="2.656819">
        <ele>252.0</ele>
        <time>2018-06-10T10:43:53Z</time>
      </trkpt>
      <trkpt lat="42.222832" lon="2.656582">
        <ele>254.0</ele>
        <time>2018-06-10T10:44:01Z</time>
      </trkpt>
      <trkpt lat="42.223065" lon="2.656312">
        <ele>254.0</ele>
        <time>2018-06-10T10:44:09Z</time>
      </trkpt>
      <trkpt lat="42.223168" lon="2.656244">
        <ele>255.0</ele>
        <time>2018-06-10T10:44:12Z</time>
      </trkpt>
      <trkpt lat="42.223320" lon="2.656205">
        <ele>256.0</ele>
        <time>2018-06-10T10:44:16Z</time>
      </trkpt>
      <trkpt lat="42.223567" lon="2.656188">
        <ele>257.4</ele>
        <time>2018-06-10T10:44:23Z</time>
      </trkpt>
      <trkpt lat="42.225018" lon="2.656056">
        <ele>263.2</ele>
        <time>2018-06-10T10:45:01Z</time>
      </trkpt>
      <trkpt lat="42.225617" lon="2.655983">
        <ele>266.0</ele>
        <time>2018-06-10T10:45:17Z</time>
      </trkpt>
      <trkpt lat="42.226309" lon="2.655930">
        <ele>269.8</ele>
        <time>2018-06-10T10:45:36Z</time>
      </trkpt>
      <trkpt lat="42.229769" lon="2.656599">
        <ele>270.0</ele>
        <time>2018-06-10T10:47:09Z</time>
      </trkpt>
      <trkpt lat="42.229939" lon="2.656574">
        <ele>269.0</ele>
        <time>2018-06-10T10:47:14Z</time>
      </trkpt>
      <trkpt lat="42.230074" lon="2.656504">
        <ele>268.3</ele>
        <time>2018-06-10T10:47:17Z</time>
      </trkpt>
      <trkpt lat="42.230162" lon="2.656385">
        <ele>268.3</ele>
        <time>2018-06-10T10:47:21Z</time>
      </trkpt>
      <trkpt lat="42.230348" lon="2.656119">
        <ele>267.2</ele>
        <time>2018-06-10T10:47:28Z</time>
      </trkpt>
      <trkpt lat="42.230469" lon="2.655884">
        <ele>266.1</ele>
        <time>2018-06-10T10:47:34Z</time>
      </trkpt>
      <trkpt lat="42.230538" lon="2.655720">
        <ele>265.0</ele>
        <time>2018-06-10T10:47:37Z</time>
      </trkpt>
      <trkpt lat="42.230607" lon="2.655599">
        <ele>265.3</ele>
        <time>2018-06-10T10:47:40Z</time>
      </trkpt>
      <trkpt lat="42.230838" lon="2.655324">
        <ele>265.2</ele>
        <time>2018-06-10T10:47:48Z</time>
      </trkpt>
      <trkpt lat="42.230941" lon="2.655217">
        <ele>265.9</ele>
        <time>2018-06-10T10:47:52Z</time>
      </trkpt>
      <trkpt lat="42.231058" lon="2.655126">
        <ele>266.0</ele>
        <time>2018-06-10T10:47:56Z</time>
      </trkpt>
      <trkpt lat="42.231155" lon="2.655055">
        <ele>266.0</ele>
        <time>2018-06-10T10:47:58Z</time>
      </trkpt>
      <trkpt lat="42.231239" lon="2.654973">
        <ele>265.6</ele>
        <time>2018-06-10T10:48:01Z</time>
      </trkpt>
      <trkpt lat="42.231316" lon="2.654837">
        <ele>265.0</ele>
        <time>2018-06-10T10:48:05Z</time>
      </trkpt>
      <trkpt lat="42.231389" lon="2.654635">
        <ele>265.1</ele>
        <time>2018-06-10T10:48:09Z</time>
      </trkpt>
      <trkpt lat="42.231454" lon="2.654455">
        <ele>265.2</ele>
        <time>2018-06-10T10:48:13Z</time>
      </trkpt>
      <trkpt lat="42.231503" lon="2.654280">
        <ele>265.0</ele>
        <time>2018-06-10T10:48:17Z</time>
      </trkpt>
      <trkpt lat="42.231612" lon="2.654028">
        <ele>265.0</ele>
        <time>2018-06-10T10:48:22Z</time>
      </trkpt>
      <trkpt lat="42.232063" lon="2.653223">
        <ele>266.0</ele>
        <time>2018-06-10T10:48:42Z</time>
      </trkpt>
      <trkpt lat="42.232147" lon="2.652996">
        <ele>266.0</ele>
        <time>2018-06-10T10:48:47Z</time>
      </trkpt>
      <trkpt lat="42.232188" lon="2.652871">
        <ele>267.0</ele>
        <time>2018-06-10T10:48:50Z</time>
      </trkpt>
      <trkpt lat="42.232248" lon="2.652538">
        <ele>267.0</ele>
        <time>2018-06-10T10:48:57Z</time>
      </trkpt>
      <trkpt lat="42.232278" lon="2.652398">
        <ele>267.0</ele>
        <time>2018-06-10T10:49:00Z</time>
      </trkpt>
      <trkpt lat="42.232354" lon="2.652161">
        <ele>268.0</ele>
        <time>2018-06-10T10:49:05Z</time>
      </trkpt>
      <trkpt lat="42.232360" lon="2.651747">
        <ele>268.0</ele>
        <time>2018-06-10T10:49:13Z</time>
      </trkpt>
      <trkpt lat="42.232368" lon="2.651437">
        <ele>268.0</ele>
        <time>2018-06-10T10:49:19Z</time>
      </trkpt>
      <trkpt lat="42.232384" lon="2.651295">
        <ele>268.7</ele>
        <time>2018-06-10T10:49:22Z</time>
      </trkpt>
      <trkpt lat="42.232485" lon="2.651005">
        <ele>268.2</ele>
        <time>2018-06-10T10:49:28Z</time>
      </trkpt>
      <trkpt lat="42.232547" lon="2.650850">
        <ele>268.0</ele>
        <time>2018-06-10T10:49:32Z</time>
      </trkpt>
      <trkpt lat="42.232580" lon="2.650663">
        <ele>268.3</ele>
        <time>2018-06-10T10:49:35Z</time>
      </trkpt>
      <trkpt lat="42.232593" lon="2.650361">
        <ele>269.9</ele>
        <time>2018-06-10T10:49:41Z</time>
      </trkpt>
      <trkpt lat="42.232590" lon="2.649918">
        <ele>272.4</ele>
        <time>2018-06-10T10:49:50Z</time>
      </trkpt>
      <trkpt lat="42.232606" lon="2.649572">
        <ele>274.0</ele>
        <time>2018-06-10T10:49:57Z</time>
      </trkpt>
      <trkpt lat="42.232633" lon="2.649364">
        <ele>274.0</ele>
        <time>2018-06-10T10:50:01Z</time>
      </trkpt>
      <trkpt lat="42.232792" lon="2.649055">
        <ele>273.7</ele>
        <time>2018-06-10T10:50:09Z</time>
      </trkpt>
      <trkpt lat="42.233033" lon="2.648587">
        <ele>273.0</ele>
        <time>2018-06-10T10:50:20Z</time>
      </trkpt>
      <trkpt lat="42.233116" lon="2.648514">
        <ele>273.4</ele>
        <time>2018-06-10T10:50:22Z</time>
      </trkpt>
      <trkpt lat="42.233207" lon="2.648504">
        <ele>274.0</ele>
        <time>2018-06-10T10:50:25Z</time>
      </trkpt>
      <trkpt lat="42.233448" lon="2.648579">
        <ele>274.0</ele>
        <time>2018-06-10T10:50:31Z</time>
      </trkpt>
      <trkpt lat="42.233609" lon="2.648571">
        <ele>275.0</ele>
        <time>2018-06-10T10:50:36Z</time>
      </trkpt>
      <trkpt lat="42.233676" lon="2.648535">
        <ele>275.0</ele>
        <time>2018-06-10T10:50:38Z</time>
      </trkpt>
      <trkpt lat="42.233724" lon="2.648439">
        <ele>275.0</ele>
        <time>2018-06-10T10:50:40Z</time>
      </trkpt>
      <trkpt lat="42.233989" lon="2.647571">
        <ele>279.3</ele>
        <time>2018-06-10T10:50:58Z</time>
      </trkpt>
      <trkpt lat="42.234091" lon="2.647273">
        <ele>280.0</ele>
        <time>2018-06-10T10:51:05Z</time>
      </trkpt>
      <trkpt lat="42.234280" lon="2.646918">
        <ele>281.0</ele>
        <time>2018-06-10T10:51:14Z</time>
      </trkpt>
      <trkpt lat="42.234390" lon="2.646772">
        <ele>280.9</ele>
        <time>2018-06-10T10:51:18Z</time>
      </trkpt>
      <trkpt lat="42.234506" lon="2.646532">
        <ele>282.2</ele>
        <time>2018-06-10T10:51:23Z</time>
      </trkpt>
      <trkpt lat="42.234560" lon="2.646390">
        <ele>282.5</ele>
        <time>2018-06-10T10:51:26Z</time>
      </trkpt>
      <trkpt lat="42.234622" lon="2.646192">
        <ele>282.4</ele>
        <time>2018-06-10T10:51:31Z</time>
      </trkpt>
      <trkpt lat="42.234665" lon="2.646011">
        <ele>282.4</ele>
        <time>2018-06-10T10:51:34Z</time>
      </trkpt>
      <trkpt lat="42.234739" lon="2.645841">
        <ele>282.4</ele>
        <time>2018-06-10T10:51:38Z</time>
      </trkpt>
      <trkpt lat="42.234825" lon="2.645663">
        <ele>281.5</ele>
        <time>2018-06-10T10:51:43Z</time>
      </trkpt>
      <trkpt lat="42.234922" lon="2.645405">
        <ele>281.9</ele>
        <time>2018-06-10T10:51:48Z</time>
      </trkpt>
      <trkpt lat="42.234993" lon="2.645255">
        <ele>280.5</ele>
        <time>2018-06-10T10:51:52Z</time>
      </trkpt>
      <trkpt lat="42.235021" lon="2.645144">
        <ele>280.6</ele>
        <time>2018-06-10T10:51:54Z</time>
      </trkpt>
      <trkpt lat="42.235025" lon="2.644965">
        <ele>280.5</ele>
        <time>2018-06-10T10:51:58Z</time>
      </trkpt>
      <trkpt lat="42.235008" lon="2.644573">
        <ele>280.4</ele>
        <time>2018-06-10T10:52:05Z</time>
      </trkpt>
      <trkpt lat="42.234967" lon="2.644151">
        <ele>282.0</ele>
        <time>2018-06-10T10:52:14Z</time>
      </trkpt>
      <trkpt lat="42.234963" lon="2.644036">
        <ele>282.8</ele>
        <time>2018-06-10T10:52:16Z</time>
      </trkpt>
      <trkpt lat="42.234990" lon="2.643920">
        <ele>283.3</ele>
        <time>2018-06-10T10:52:18Z</time>
      </trkpt>
      <trkpt lat="42.235049" lon="2.643783">
        <ele>282.4</ele>
        <time>2018-06-10T10:52:22Z</time>
      </trkpt>
      <trkpt lat="42.235119" lon="2.643703">
        <ele>282.3</ele>
        <time>2018-06-10T10:52:24Z</time>
      </trkpt>
      <trkpt lat="42.235226" lon="2.643645">
        <ele>281.7</ele>
        <time>2018-06-10T10:52:27Z</time>
      </trkpt>
      <trkpt lat="42.235300" lon="2.643585">
        <ele>280.2</ele>
        <time>2018-06-10T10:52:29Z</time>
      </trkpt>
      <trkpt lat="42.235396" lon="2.643498">
        <ele>279.3</ele>
        <time>2018-06-10T10:52:32Z</time>
      </trkpt>
      <trkpt lat="42.235511" lon="2.643433">
        <ele>278.0</ele>
        <time>2018-06-10T10:52:36Z</time>
      </trkpt>
      <trkpt lat="42.235635" lon="2.643395">
        <ele>276.7</ele>
        <time>2018-06-10T10:52:39Z</time>
      </trkpt>
      <trkpt lat="42.235704" lon="2.643372">
        <ele>275.4</ele>
        <time>2018-06-10T10:52:41Z</time>
      </trkpt>
      <trkpt lat="42.235729" lon="2.643350">
        <ele>275.1</ele>
        <time>2018-06-10T10:52:42Z</time>
      </trkpt>
      <trkpt lat="42.235734" lon="2.643295">
        <ele>274.9</ele>
        <time>2018-06-10T10:52:43Z</time>
      </trkpt>
      <trkpt lat="42.235708" lon="2.643185">
        <ele>273.8</ele>
        <time>2018-06-10T10:52:45Z</time>
      </trkpt>
      <trkpt lat="42.235684" lon="2.643109">
        <ele>273.3</ele>
        <time>2018-06-10T10:52:47Z</time>
      </trkpt>
      <trkpt lat="42.235645" lon="2.642966">
        <ele>272.1</ele>
        <time>2018-06-10T10:52:50Z</time>
      </trkpt>
      <trkpt lat="42.235640" lon="2.642799">
        <ele>270.8</ele>
        <time>2018-06-10T10:52:53Z</time>
      </trkpt>
      <trkpt lat="42.235628" lon="2.642226">
        <ele>266.9</ele>
        <time>2018-06-10T10:53:05Z</time>
      </trkpt>
      <trkpt lat="42.235609" lon="2.642069">
        <ele>266.0</ele>
        <time>2018-06-10T10:53:08Z</time>
      </trkpt>
      <trkpt lat="42.235544" lon="2.641714">
        <ele>263.2</ele>
        <time>2018-06-10T10:53:15Z</time>
      </trkpt>
      <trkpt lat="42.235429" lon="2.641186">
        <ele>260.0</ele>
        <time>2018-06-10T10:53:26Z</time>
      </trkpt>
      <trkpt lat="42.235303" lon="2.640642">
        <ele>258.2</ele>
        <time>2018-06-10T10:53:37Z</time>
      </trkpt>
      <trkpt lat="42.235099" lon="2.639973">
        <ele>256.0</ele>
        <time>2018-06-10T10:53:51Z</time>
      </trkpt>
      <trkpt lat="42.234599" lon="2.638110">
        <ele>256.1</ele>
        <time>2018-06-10T10:54:30Z</time>
      </trkpt>
      <trkpt lat="42.234472" lon="2.637654">
        <ele>259.9</ele>
        <time>2018-06-10T10:54:40Z</time>
      </trkpt>
      <trkpt lat="42.234436" lon="2.637578">
        <ele>259.8</ele>
        <time>2018-06-10T10:54:42Z</time>
      </trkpt>
      <trkpt lat="42.234421" lon="2.637534">
        <ele>260.2</ele>
        <time>2018-06-10T10:54:43Z</time>
      </trkpt>
      <trkpt lat="42.234433" lon="2.637496">
        <ele>261.1</ele>
        <time>2018-06-10T10:54:44Z</time>
      </trkpt>
      <trkpt lat="42.234549" lon="2.637448">
        <ele>262.0</ele>
        <time>2018-06-10T10:54:47Z</time>
      </trkpt>
      <trkpt lat="42.234618" lon="2.637436">
        <ele>262.9</ele>
        <time>2018-06-10T10:54:49Z</time>
      </trkpt>
      <trkpt lat="42.234676" lon="2.637443">
        <ele>263.0</ele>
        <time>2018-06-10T10:54:50Z</time>
      </trkpt>
      <trkpt lat="42.234786" lon="2.637471">
        <ele>263.4</ele>
        <time>2018-06-10T10:54:53Z</time>
      </trkpt>
      <trkpt lat="42.234827" lon="2.637445">
        <ele>264.0</ele>
        <time>2018-06-10T10:54:54Z</time>
      </trkpt>
      <trkpt lat="42.234886" lon="2.637329">
        <ele>265.9</ele>
        <time>2018-06-10T10:54:57Z</time>
      </trkpt>
      <trkpt lat="42.234989" lon="2.637026">
        <ele>267.0</ele>
        <time>2018-06-10T10:55:04Z</time>
      </trkpt>
      <trkpt lat="42.235057" lon="2.636952">
        <ele>268.0</ele>
        <time>2018-06-10T10:55:06Z</time>
      </trkpt>
      <trkpt lat="42.235252" lon="2.636889">
        <ele>269.0</ele>
        <time>2018-06-10T10:55:12Z</time>
      </trkpt>
      <trkpt lat="42.235323" lon="2.636824">
        <ele>269.0</ele>
        <time>2018-06-10T10:55:14Z</time>
      </trkpt>
      <trkpt lat="42.235409" lon="2.636636">
        <ele>269.6</ele>
        <time>2018-06-10T10:55:18Z</time>
      </trkpt>
      <trkpt lat="42.235546" lon="2.636211">
        <ele>271.6</ele>
        <time>2018-06-10T10:55:27Z</time>
      </trkpt>
      <trkpt lat="42.235631" lon="2.635955">
        <ele>272.7</ele>
        <time>2018-06-10T10:55:33Z</time>
      </trkpt>
      <trkpt lat="42.235802" lon="2.635291">
        <ele>275.0</ele>
        <time>2018-06-10T10:55:47Z</time>
      </trkpt>
      <trkpt lat="42.235828" lon="2.635259">
        <ele>275.0</ele>
        <time>2018-06-10T10:55:48Z</time>
      </trkpt>
      <trkpt lat="42.235827" lon="2.635212">
        <ele>275.0</ele>
        <time>2018-06-10T10:55:49Z</time>
      </trkpt>
      <trkpt lat="42.235793" lon="2.635172">
        <ele>275.0</ele>
        <time>2018-06-10T10:55:50Z</time>
      </trkpt>
      <trkpt lat="42.235693" lon="2.635042">
        <ele>275.0</ele>
        <time>2018-06-10T10:55:53Z</time>
      </trkpt>
      <trkpt lat="42.235610" lon="2.634888">
        <ele>275.0</ele>
        <time>2018-06-10T10:55:57Z</time>
      </trkpt>
      <trkpt lat="42.235524" lon="2.634741">
        <ele>275.0</ele>
        <time>2018-06-10T10:56:01Z</time>
      </trkpt>
      <trkpt lat="42.235365" lon="2.634531">
        <ele>276.0</ele>
        <time>2018-06-10T10:56:07Z</time>
      </trkpt>
      <trkpt lat="42.235235" lon="2.634393">
        <ele>277.1</ele>
        <time>2018-06-10T10:56:11Z</time>
      </trkpt>
      <trkpt lat="42.235157" lon="2.634310">
        <ele>277.8</ele>
        <time>2018-06-10T10:56:14Z</time>
      </trkpt>
      <trkpt lat="42.235087" lon="2.634266">
        <ele>278.9</ele>
        <time>2018-06-10T10:56:16Z</time>
      </trkpt>
      <trkpt lat="42.235056" lon="2.634222">
        <ele>279.8</ele>
        <time>2018-06-10T10:56:17Z</time>
      </trkpt>
      <trkpt lat="42.235047" lon="2.634178">
        <ele>279.6</ele>
        <time>2018-06-10T10:56:18Z</time>
      </trkpt>
      <trkpt lat="42.235062" lon="2.634133">
        <ele>280.4</ele>
        <time>2018-06-10T10:56:19Z</time>
      </trkpt>
      <trkpt lat="42.235147" lon="2.634020">
        <ele>280.6</ele>
        <time>2018-06-10T10:56:22Z</time>
      </trkpt>
      <trkpt lat="42.235272" lon="2.633905">
        <ele>280.0</ele>
        <time>2018-06-10T10:56:26Z</time>
      </trkpt>
      <trkpt lat="42.235378" lon="2.633861">
        <ele>280.3</ele>
        <time>2018-06-10T10:56:29Z</time>
      </trkpt>
      <trkpt lat="42.235475" lon="2.633841">
        <ele>280.4</ele>
        <time>2018-06-10T10:56:32Z</time>
      </trkpt>
      <trkpt lat="42.235642" lon="2.633850">
        <ele>279.6</ele>
        <time>2018-06-10T10:56:36Z</time>
      </trkpt>
      <trkpt lat="42.236246" lon="2.633993">
        <ele>279.1</ele>
        <time>2018-06-10T10:56:53Z</time>
      </trkpt>
      <trkpt lat="42.236379" lon="2.633979">
        <ele>280.0</ele>
        <time>2018-06-10T10:56:56Z</time>
      </trkpt>
      <trkpt lat="42.236496" lon="2.633926">
        <ele>281.0</ele>
        <time>2018-06-10T10:56:59Z</time>
      </trkpt>
      <trkpt lat="42.236609" lon="2.633816">
        <ele>281.0</ele>
        <time>2018-06-10T10:57:03Z</time>
      </trkpt>
      <trkpt lat="42.236687" lon="2.633672">
        <ele>282.0</ele>
        <time>2018-06-10T10:57:07Z</time>
      </trkpt>
      <trkpt lat="42.236734" lon="2.633507">
        <ele>282.0</ele>
        <time>2018-06-10T10:57:10Z</time>
      </trkpt>
      <trkpt lat="42.236796" lon="2.633110">
        <ele>283.0</ele>
        <time>2018-06-10T10:57:18Z</time>
      </trkpt>
      <trkpt lat="42.236816" lon="2.632809">
        <ele>284.0</ele>
        <time>2018-06-10T10:57:24Z</time>
      </trkpt>
      <trkpt lat="42.236799" lon="2.632496">
        <ele>284.0</ele>
        <time>2018-06-10T10:57:30Z</time>
      </trkpt>
      <trkpt lat="42.236679" lon="2.631185">
        <ele>286.9</ele>
        <time>2018-06-10T10:57:56Z</time>
      </trkpt>
      <trkpt lat="42.236618" lon="2.630164">
        <ele>290.0</ele>
        <time>2018-06-10T10:58:17Z</time>
      </trkpt>
      <trkpt lat="42.236605" lon="2.629767">
        <ele>291.0</ele>
        <time>2018-06-10T10:58:24Z</time>
      </trkpt>
      <trkpt lat="42.236630" lon="2.629493">
        <ele>291.0</ele>
        <time>2018-06-10T10:58:30Z</time>
      </trkpt>
      <trkpt lat="42.236720" lon="2.628979">
        <ele>289.5</ele>
        <time>2018-06-10T10:58:40Z</time>
      </trkpt>
      <trkpt lat="42.236718" lon="2.628814">
        <ele>289.0</ele>
        <time>2018-06-10T10:58:44Z</time>
      </trkpt>
      <trkpt lat="42.236668" lon="2.628595">
        <ele>288.0</ele>
        <time>2018-06-10T10:58:48Z</time>
      </trkpt>
      <trkpt lat="42.236612" lon="2.628473">
        <ele>287.0</ele>
        <time>2018-06-10T10:58:51Z</time>
      </trkpt>
      <trkpt lat="42.236533" lon="2.628322">
        <ele>285.9</ele>
        <time>2018-06-10T10:58:55Z</time>
      </trkpt>
      <trkpt lat="42.235850" lon="2.627384">
        <ele>279.0</ele>
        <time>2018-06-10T10:59:21Z</time>
      </trkpt>
      <trkpt lat="42.235664" lon="2.627124">
        <ele>277.3</ele>
        <time>2018-06-10T10:59:28Z</time>
      </trkpt>
      <trkpt lat="42.235572" lon="2.626942">
        <ele>276.3</ele>
        <time>2018-06-10T10:59:32Z</time>
      </trkpt>
      <trkpt lat="42.235524" lon="2.626795">
        <ele>275.2</ele>
        <time>2018-06-10T10:59:35Z</time>
      </trkpt>
      <trkpt lat="42.235524" lon="2.626741">
        <ele>275.0</ele>
        <time>2018-06-10T10:59:36Z</time>
      </trkpt>
      <trkpt lat="42.235524" lon="2.626674">
        <ele>274.9</ele>
        <time>2018-06-10T10:59:38Z</time>
      </trkpt>
      <trkpt lat="42.235540" lon="2.626616">
        <ele>275.2</ele>
        <time>2018-06-10T10:59:39Z</time>
      </trkpt>
      <trkpt lat="42.235582" lon="2.626546">
        <ele>276.0</ele>
        <time>2018-06-10T10:59:41Z</time>
      </trkpt>
      <trkpt lat="42.235708" lon="2.626370">
        <ele>276.2</ele>
        <time>2018-06-10T10:59:45Z</time>
      </trkpt>
      <trkpt lat="42.235828" lon="2.626199">
        <ele>276.4</ele>
        <time>2018-06-10T10:59:50Z</time>
      </trkpt>
      <trkpt lat="42.235915" lon="2.626113">
        <ele>276.0</ele>
        <time>2018-06-10T10:59:53Z</time>
      </trkpt>
      <trkpt lat="42.235970" lon="2.626065">
        <ele>276.2</ele>
        <time>2018-06-10T10:59:55Z</time>
      </trkpt>
      <trkpt lat="42.236041" lon="2.626032">
        <ele>275.7</ele>
        <time>2018-06-10T10:59:57Z</time>
      </trkpt>
      <trkpt lat="42.236134" lon="2.626017">
        <ele>275.5</ele>
        <time>2018-06-10T10:59:59Z</time>
      </trkpt>
      <trkpt lat="42.237082" lon="2.626058">
        <ele>278.1</ele>
        <time>2018-06-10T11:00:24Z</time>
      </trkpt>
      <trkpt lat="42.237191" lon="2.626034">
        <ele>278.8</ele>
        <time>2018-06-10T11:00:27Z</time>
      </trkpt>
      <trkpt lat="42.237256" lon="2.625978">
        <ele>279.3</ele>
        <time>2018-06-10T11:00:29Z</time>
      </trkpt>
      <trkpt lat="42.237310" lon="2.625890">
        <ele>279.8</ele>
        <time>2018-06-10T11:00:32Z</time>
      </trkpt>
      <trkpt lat="42.237321" lon="2.625757">
        <ele>279.0</ele>
        <time>2018-06-10T11:00:34Z</time>
      </trkpt>
      <trkpt lat="42.237292" lon="2.625640">
        <ele>277.7</ele>
        <time>2018-06-10T11:00:37Z</time>
      </trkpt>
      <trkpt lat="42.237220" lon="2.625410">
        <ele>282.4</ele>
        <time>2018-06-10T11:00:42Z</time>
      </trkpt>
      <trkpt lat="42.237208" lon="2.625314">
        <ele>283.0</ele>
        <time>2018-06-10T11:00:44Z</time>
      </trkpt>
      <trkpt lat="42.237215" lon="2.625176">
        <ele>284.0</ele>
        <time>2018-06-10T11:00:46Z</time>
      </trkpt>
      <trkpt lat="42.237268" lon="2.625080">
        <ele>284.3</ele>
        <time>2018-06-10T11:00:49Z</time>
      </trkpt>
      <trkpt lat="42.237462" lon="2.624899">
        <ele>285.8</ele>
        <time>2018-06-10T11:00:55Z</time>
      </trkpt>
      <trkpt lat="42.237670" lon="2.624739">
        <ele>286.8</ele>
        <time>2018-06-10T11:01:01Z</time>
      </trkpt>
      <trkpt lat="42.237713" lon="2.624670">
        <ele>287.0</ele>
        <time>2018-06-10T11:01:03Z</time>
      </trkpt>
      <trkpt lat="42.237780" lon="2.624433">
        <ele>287.0</ele>
        <time>2018-06-10T11:01:08Z</time>
      </trkpt>
      <trkpt lat="42.238039" lon="2.623922">
        <ele>288.8</ele>
        <time>2018-06-10T11:01:20Z</time>
      </trkpt>
      <trkpt lat="42.238152" lon="2.623597">
        <ele>289.2</ele>
        <time>2018-06-10T11:01:28Z</time>
      </trkpt>
      <trkpt lat="42.238386" lon="2.622994">
        <ele>290.7</ele>
        <time>2018-06-10T11:01:41Z</time>
      </trkpt>
      <trkpt lat="42.238687" lon="2.622398">
        <ele>289.0</ele>
        <time>2018-06-10T11:01:55Z</time>
      </trkpt>
      <trkpt lat="42.238812" lon="2.622234">
        <ele>289.0</ele>
        <time>2018-06-10T11:02:00Z</time>
      </trkpt>
      <trkpt lat="42.239152" lon="2.621693">
        <ele>287.0</ele>
        <time>2018-06-10T11:02:14Z</time>
      </trkpt>
      <trkpt lat="42.239261" lon="2.621475">
        <ele>288.0</ele>
        <time>2018-06-10T11:02:19Z</time>
      </trkpt>
      <trkpt lat="42.239391" lon="2.621078">
        <ele>287.0</ele>
        <time>2018-06-10T11:02:28Z</time>
      </trkpt>
      <trkpt lat="42.239591" lon="2.620586">
        <ele>284.7</ele>
        <time>2018-06-10T11:02:39Z</time>
      </trkpt>
      <trkpt lat="42.239701" lon="2.620399">
        <ele>284.2</ele>
        <time>2018-06-10T11:02:43Z</time>
      </trkpt>
      <trkpt lat="42.239807" lon="2.620305">
        <ele>284.3</ele>
        <time>2018-06-10T11:02:47Z</time>
      </trkpt>
      <trkpt lat="42.239994" lon="2.620240">
        <ele>283.5</ele>
        <time>2018-06-10T11:02:52Z</time>
      </trkpt>
      <trkpt lat="42.240048" lon="2.620243">
        <ele>283.6</ele>
        <time>2018-06-10T11:02:53Z</time>
      </trkpt>
      <trkpt lat="42.240126" lon="2.620166">
        <ele>283.7</ele>
        <time>2018-06-10T11:02:56Z</time>
      </trkpt>
      <trkpt lat="42.240168" lon="2.620064">
        <ele>284.2</ele>
        <time>2018-06-10T11:02:58Z</time>
      </trkpt>
      <trkpt lat="42.240210" lon="2.619928">
        <ele>284.8</ele>
        <time>2018-06-10T11:03:01Z</time>
      </trkpt>
      <trkpt lat="42.240210" lon="2.619662">
        <ele>285.0</ele>
        <time>2018-06-10T11:03:06Z</time>
      </trkpt>
      <trkpt lat="42.240182" lon="2.619504">
        <ele>284.7</ele>
        <time>2018-06-10T11:03:10Z</time>
      </trkpt>
      <trkpt lat="42.240128" lon="2.619371">
        <ele>284.5</ele>
        <time>2018-06-10T11:03:12Z</time>
      </trkpt>
      <trkpt lat="42.240078" lon="2.619250">
        <ele>284.8</ele>
        <time>2018-06-10T11:03:15Z</time>
      </trkpt>
      <trkpt lat="42.239924" lon="2.619124">
        <ele>283.0</ele>
        <time>2018-06-10T11:03:20Z</time>
      </trkpt>
      <trkpt lat="42.239771" lon="2.619070">
        <ele>281.5</ele>
        <time>2018-06-10T11:03:24Z</time>
      </trkpt>
      <trkpt lat="42.239626" lon="2.618992">
        <ele>280.6</ele>
        <time>2018-06-10T11:03:28Z</time>
      </trkpt>
      <trkpt lat="42.239527" lon="2.618896">
        <ele>280.0</ele>
        <time>2018-06-10T11:03:32Z</time>
      </trkpt>
      <trkpt lat="42.239477" lon="2.618793">
        <ele>279.3</ele>
        <time>2018-06-10T11:03:34Z</time>
      </trkpt>
      <trkpt lat="42.239459" lon="2.618648">
        <ele>278.8</ele>
        <time>2018-06-10T11:03:37Z</time>
      </trkpt>
      <trkpt lat="42.239462" lon="2.618454">
        <ele>278.8</ele>
        <time>2018-06-10T11:03:41Z</time>
      </trkpt>
      <trkpt lat="42.239466" lon="2.618291">
        <ele>277.3</ele>
        <time>2018-06-10T11:03:44Z</time>
      </trkpt>
      <trkpt lat="42.239488" lon="2.618115">
        <ele>277.0</ele>
        <time>2018-06-10T11:03:48Z</time>
      </trkpt>
      <trkpt lat="42.239524" lon="2.617896">
        <ele>276.3</ele>
        <time>2018-06-10T11:03:52Z</time>
      </trkpt>
      <trkpt lat="42.239550" lon="2.617593">
        <ele>274.7</ele>
        <time>2018-06-10T11:03:58Z</time>
      </trkpt>
      <trkpt lat="42.239648" lon="2.617411">
        <ele>273.6</ele>
        <time>2018-06-10T11:04:02Z</time>
      </trkpt>
      <trkpt lat="42.239753" lon="2.617253">
        <ele>270.9</ele>
        <time>2018-06-10T11:04:07Z</time>
      </trkpt>
      <trkpt lat="42.239904" lon="2.617098">
        <ele>269.1</ele>
        <time>2018-06-10T11:04:12Z</time>
      </trkpt>
      <trkpt lat="42.240047" lon="2.617017">
        <ele>268.3</ele>
        <time>2018-06-10T11:04:16Z</time>
      </trkpt>
      <trkpt lat="42.240219" lon="2.616983">
        <ele>268.6</ele>
        <time>2018-06-10T11:04:21Z</time>
      </trkpt>
      <trkpt lat="42.240342" lon="2.616950">
        <ele>267.3</ele>
        <time>2018-06-10T11:04:24Z</time>
      </trkpt>
      <trkpt lat="42.240413" lon="2.616932">
        <ele>266.0</ele>
        <time>2018-06-10T11:04:26Z</time>
      </trkpt>
      <trkpt lat="42.240553" lon="2.616871">
        <ele>265.2</ele>
        <time>2018-06-10T11:04:30Z</time>
      </trkpt>
      <trkpt lat="42.240625" lon="2.616723">
        <ele>265.8</ele>
        <time>2018-06-10T11:04:33Z</time>
      </trkpt>
      <trkpt lat="42.240642" lon="2.616483">
        <ele>265.1</ele>
        <time>2018-06-10T11:04:38Z</time>
      </trkpt>
      <trkpt lat="42.240682" lon="2.616277">
        <ele>265.3</ele>
        <time>2018-06-10T11:04:42Z</time>
      </trkpt>
      <trkpt lat="42.240875" lon="2.615826">
        <ele>264.2</ele>
        <time>2018-06-10T11:04:52Z</time>
      </trkpt>
      <trkpt lat="42.240932" lon="2.615696">
        <ele>264.7</ele>
        <time>2018-06-10T11:04:55Z</time>
      </trkpt>
      <trkpt lat="42.240897" lon="2.615498">
        <ele>262.0</ele>
        <time>2018-06-10T11:04:59Z</time>
      </trkpt>
      <trkpt lat="42.240903" lon="2.615197">
        <ele>259.5</ele>
        <time>2018-06-10T11:05:05Z</time>
      </trkpt>
      <trkpt lat="42.241059" lon="2.614502">
        <ele>255.6</ele>
        <time>2018-06-10T11:05:20Z</time>
      </trkpt>
      <trkpt lat="42.241231" lon="2.614097">
        <ele>254.1</ele>
        <time>2018-06-10T11:05:29Z</time>
      </trkpt>
      <trkpt lat="42.241392" lon="2.613962">
        <ele>253.1</ele>
        <time>2018-06-10T11:05:34Z</time>
      </trkpt>
      <trkpt lat="42.241513" lon="2.613832">
        <ele>251.0</ele>
        <time>2018-06-10T11:05:38Z</time>
      </trkpt>
      <trkpt lat="42.241605" lon="2.613705">
        <ele>247.2</ele>
        <time>2018-06-10T11:05:42Z</time>
      </trkpt>
      <trkpt lat="42.241699" lon="2.613595">
        <ele>241.2</ele>
        <time>2018-06-10T11:05:45Z</time>
      </trkpt>
      <trkpt lat="42.241825" lon="2.613421">
        <ele>234.7</ele>
        <time>2018-06-10T11:05:50Z</time>
      </trkpt>
      <trkpt lat="42.241862" lon="2.613299">
        <ele>233.1</ele>
        <time>2018-06-10T11:05:53Z</time>
      </trkpt>
      <trkpt lat="42.241785" lon="2.612950">
        <ele>238.1</ele>
        <time>2018-06-10T11:06:00Z</time>
      </trkpt>
      <trkpt lat="42.241715" lon="2.612608">
        <ele>243.8</ele>
        <time>2018-06-10T11:06:07Z</time>
      </trkpt>
      <trkpt lat="42.241493" lon="2.612336">
        <ele>247.2</ele>
        <time>2018-06-10T11:06:16Z</time>
      </trkpt>
      <trkpt lat="42.241348" lon="2.611783">
        <ele>248.0</ele>
        <time>2018-06-10T11:06:27Z</time>
      </trkpt>
      <trkpt lat="42.241408" lon="2.610933">
        <ele>245.1</ele>
        <time>2018-06-10T11:06:44Z</time>
      </trkpt>
      <trkpt lat="42.241567" lon="2.610320">
        <ele>242.0</ele>
        <time>2018-06-10T11:06:57Z</time>
      </trkpt>
      <trkpt lat="42.241650" lon="2.610175">
        <ele>240.4</ele>
        <time>2018-06-10T11:07:00Z</time>
      </trkpt>
      <trkpt lat="42.241753" lon="2.609857">
        <ele>238.8</ele>
        <time>2018-06-10T11:07:07Z</time>
      </trkpt>
      <trkpt lat="42.241803" lon="2.609745">
        <ele>238.6</ele>
        <time>2018-06-10T11:07:10Z</time>
      </trkpt>
      <trkpt lat="42.242014" lon="2.609524">
        <ele>241.0</ele>
        <time>2018-06-10T11:07:17Z</time>
      </trkpt>
      <trkpt lat="42.242238" lon="2.609343">
        <ele>240.1</ele>
        <time>2018-06-10T11:07:24Z</time>
      </trkpt>
      <trkpt lat="42.242487" lon="2.609202">
        <ele>241.8</ele>
        <time>2018-06-10T11:07:31Z</time>
      </trkpt>
      <trkpt lat="42.243144" lon="2.608880">
        <ele>246.0</ele>
        <time>2018-06-10T11:07:50Z</time>
      </trkpt>
      <trkpt lat="42.243245" lon="2.608844">
        <ele>246.3</ele>
        <time>2018-06-10T11:07:52Z</time>
      </trkpt>
      <trkpt lat="42.243388" lon="2.608851">
        <ele>246.9</ele>
        <time>2018-06-10T11:07:56Z</time>
      </trkpt>
      <trkpt lat="42.243616" lon="2.608765">
        <ele>247.5</ele>
        <time>2018-06-10T11:08:03Z</time>
      </trkpt>
      <trkpt lat="42.243922" lon="2.608554">
        <ele>246.1</ele>
        <time>2018-06-10T11:08:12Z</time>
      </trkpt>
      <trkpt lat="42.244229" lon="2.608449">
        <ele>244.3</ele>
        <time>2018-06-10T11:08:20Z</time>
      </trkpt>
      <trkpt lat="42.244843" lon="2.608024">
        <ele>246.0</ele>
        <time>2018-06-10T11:08:39Z</time>
      </trkpt>
      <trkpt lat="42.245244" lon="2.607743">
        <ele>244.9</ele>
        <time>2018-06-10T11:08:51Z</time>
      </trkpt>
      <trkpt lat="42.245335" lon="2.607478">
        <ele>246.1</ele>
        <time>2018-06-10T11:08:56Z</time>
      </trkpt>
      <trkpt lat="42.245412" lon="2.607337">
        <ele>246.1</ele>
        <time>2018-06-10T11:09:00Z</time>
      </trkpt>
      <trkpt lat="42.245457" lon="2.607217">
        <ele>246.0</ele>
        <time>2018-06-10T11:09:02Z</time>
      </trkpt>
      <trkpt lat="42.245625" lon="2.607105">
        <ele>246.2</ele>
        <time>2018-06-10T11:09:07Z</time>
      </trkpt>
      <trkpt lat="42.245820" lon="2.606943">
        <ele>246.9</ele>
        <time>2018-06-10T11:09:14Z</time>
      </trkpt>
      <trkpt lat="42.245873" lon="2.606711">
        <ele>246.0</ele>
        <time>2018-06-10T11:09:18Z</time>
      </trkpt>
      <trkpt lat="42.246192" lon="2.605917">
        <ele>244.3</ele>
        <time>2018-06-10T11:09:36Z</time>
      </trkpt>
      <trkpt lat="42.246238" lon="2.605710">
        <ele>244.3</ele>
        <time>2018-06-10T11:09:40Z</time>
      </trkpt>
      <trkpt lat="42.246393" lon="2.605268">
        <ele>242.1</ele>
        <time>2018-06-10T11:09:50Z</time>
      </trkpt>
      <trkpt lat="42.246615" lon="2.604990">
        <ele>242.0</ele>
        <time>2018-06-10T11:09:58Z</time>
      </trkpt>
      <trkpt lat="42.246928" lon="2.604525">
        <ele>242.0</ele>
        <time>2018-06-10T11:10:10Z</time>
      </trkpt>
      <trkpt lat="42.246980" lon="2.604404">
        <ele>239.0</ele>
        <time>2018-06-10T11:10:13Z</time>
      </trkpt>
      <trkpt lat="42.247088" lon="2.604280">
        <ele>235.1</ele>
        <time>2018-06-10T11:10:17Z</time>
      </trkpt>
      <trkpt lat="42.247160" lon="2.604270">
        <ele>236.4</ele>
        <time>2018-06-10T11:10:19Z</time>
      </trkpt>
      <trkpt lat="42.247228" lon="2.604277">
        <ele>236.0</ele>
        <time>2018-06-10T11:10:21Z</time>
      </trkpt>
      <trkpt lat="42.247288" lon="2.604337">
        <ele>235.1</ele>
        <time>2018-06-10T11:10:23Z</time>
      </trkpt>
      <trkpt lat="42.247318" lon="2.604422">
        <ele>235.2</ele>
        <time>2018-06-10T11:10:25Z</time>
      </trkpt>
      <trkpt lat="42.247341" lon="2.604526">
        <ele>236.1</ele>
        <time>2018-06-10T11:10:27Z</time>
      </trkpt>
      <trkpt lat="42.247341" lon="2.604526">
        <ele>236.1</ele>
        <time>2018-06-10T11:10:27Z</time>
      </trkpt>
      <trkpt lat="42.247345" lon="2.604567">
        <ele>236.0</ele>
        <time>2018-06-10T11:10:28Z</time>
      </trkpt>
      <trkpt lat="42.247356" lon="2.604496">
        <ele>234.8</ele>
        <time>2018-06-10T11:10:29Z</time>
      </trkpt>
      <trkpt lat="42.247353" lon="2.604219">
        <ele>231.2</ele>
        <time>2018-06-10T11:10:35Z</time>
      </trkpt>
      <trkpt lat="42.247349" lon="2.604190">
        <ele>231.0</ele>
        <time>2018-06-10T11:10:35Z</time>
      </trkpt>
      <trkpt lat="42.247348" lon="2.604126">
        <ele>229.9</ele>
        <time>2018-06-10T11:10:37Z</time>
      </trkpt>
      <trkpt lat="42.247312" lon="2.604100">
        <ele>230.6</ele>
        <time>2018-06-10T11:10:38Z</time>
      </trkpt>
      <trkpt lat="42.247305" lon="2.604052">
        <ele>229.3</ele>
        <time>2018-06-10T11:10:39Z</time>
      </trkpt>
      <trkpt lat="42.247314" lon="2.603950">
        <ele>211.3</ele>
        <time>2018-06-10T11:10:43Z</time>
      </trkpt>
      <trkpt lat="42.247335" lon="2.603879">
        <ele>207.4</ele>
        <time>2018-06-10T11:10:45Z</time>
      </trkpt>
      <trkpt lat="42.247349" lon="2.603834">
        <ele>208.5</ele>
        <time>2018-06-10T11:10:46Z</time>
      </trkpt>
      <trkpt lat="42.247446" lon="2.603616">
        <ele>224.2</ele>
        <time>2018-06-10T11:10:53Z</time>
      </trkpt>
      <trkpt lat="42.247478" lon="2.603454">
        <ele>227.3</ele>
        <time>2018-06-10T11:10:56Z</time>
      </trkpt>
      <trkpt lat="42.247475" lon="2.603378">
        <ele>226.9</ele>
        <time>2018-06-10T11:10:57Z</time>
      </trkpt>
      <trkpt lat="42.247461" lon="2.603316">
        <ele>227.6</ele>
        <time>2018-06-10T11:10:59Z</time>
      </trkpt>
      <trkpt lat="42.247424" lon="2.603219">
        <ele>227.3</ele>
        <time>2018-06-10T11:11:01Z</time>
      </trkpt>
      <trkpt lat="42.247407" lon="2.603136">
        <ele>227.4</ele>
        <time>2018-06-10T11:11:03Z</time>
      </trkpt>
      <trkpt lat="42.247390" lon="2.603016">
        <ele>228.0</ele>
        <time>2018-06-10T11:11:05Z</time>
      </trkpt>
      <trkpt lat="42.247368" lon="2.602965">
        <ele>227.1</ele>
        <time>2018-06-10T11:11:06Z</time>
      </trkpt>
      <trkpt lat="42.247263" lon="2.602862">
        <ele>226.4</ele>
        <time>2018-06-10T11:11:10Z</time>
      </trkpt>
      <trkpt lat="42.247196" lon="2.602785">
        <ele>226.0</ele>
        <time>2018-06-10T11:11:12Z</time>
      </trkpt>
      <trkpt lat="42.247005" lon="2.602617">
        <ele>225.1</ele>
        <time>2018-06-10T11:11:18Z</time>
      </trkpt>
      <trkpt lat="42.246738" lon="2.602280">
        <ele>222.0</ele>
        <time>2018-06-10T11:11:28Z</time>
      </trkpt>
      <trkpt lat="42.246657" lon="2.602178">
        <ele>220.3</ele>
        <time>2018-06-10T11:11:31Z</time>
      </trkpt>
      <trkpt lat="42.246504" lon="2.602072">
        <ele>220.5</ele>
        <time>2018-06-10T11:11:35Z</time>
      </trkpt>
      <trkpt lat="42.246297" lon="2.601983">
        <ele>219.0</ele>
        <time>2018-06-10T11:11:41Z</time>
      </trkpt>
      <trkpt lat="42.245902" lon="2.601816">
        <ele>217.0</ele>
        <time>2018-06-10T11:11:52Z</time>
      </trkpt>
      <trkpt lat="42.245278" lon="2.601315">
        <ele>216.5</ele>
        <time>2018-06-10T11:12:11Z</time>
      </trkpt>
      <trkpt lat="42.243307" lon="2.599612">
        <ele>215.0</ele>
        <time>2018-06-10T11:13:14Z</time>
      </trkpt>
      <trkpt lat="42.242954" lon="2.599187">
        <ele>215.5</ele>
        <time>2018-06-10T11:13:26Z</time>
      </trkpt>
      <trkpt lat="42.242159" lon="2.597988">
        <ele>217.7</ele>
        <time>2018-06-10T11:13:58Z</time>
      </trkpt>
      <trkpt lat="42.241847" lon="2.597570">
        <ele>218.2</ele>
        <time>2018-06-10T11:14:10Z</time>
      </trkpt>
      <trkpt lat="42.241659" lon="2.597553">
        <ele>222.2</ele>
        <time>2018-06-10T11:14:15Z</time>
      </trkpt>
      <trkpt lat="42.241292" lon="2.597884">
        <ele>222.1</ele>
        <time>2018-06-10T11:14:27Z</time>
      </trkpt>
      <trkpt lat="42.241156" lon="2.598451">
        <ele>223.0</ele>
        <time>2018-06-10T11:14:38Z</time>
      </trkpt>
      <trkpt lat="42.240764" lon="2.599003">
        <ele>226.3</ele>
        <time>2018-06-10T11:14:53Z</time>
      </trkpt>
      <trkpt lat="42.240551" lon="2.599187">
        <ele>228.5</ele>
        <time>2018-06-10T11:15:00Z</time>
      </trkpt>
      <trkpt lat="42.240349" lon="2.599297">
        <ele>229.0</ele>
        <time>2018-06-10T11:15:06Z</time>
      </trkpt>
      <trkpt lat="42.239840" lon="2.599373">
        <ele>232.2</ele>
        <time>2018-06-10T11:15:20Z</time>
      </trkpt>
      <trkpt lat="42.239619" lon="2.599369">
        <ele>234.0</ele>
        <time>2018-06-10T11:15:26Z</time>
      </trkpt>
      <trkpt lat="42.239502" lon="2.599219">
        <ele>235.5</ele>
        <time>2018-06-10T11:15:30Z</time>
      </trkpt>
      <trkpt lat="42.239522" lon="2.598992">
        <ele>236.0</ele>
        <time>2018-06-10T11:15:34Z</time>
      </trkpt>
      <trkpt lat="42.239857" lon="2.598445">
        <ele>239.1</ele>
        <time>2018-06-10T11:15:48Z</time>
      </trkpt>
      <trkpt lat="42.239962" lon="2.598177">
        <ele>241.3</ele>
        <time>2018-06-10T11:15:54Z</time>
      </trkpt>
      <trkpt lat="42.239940" lon="2.597990">
        <ele>242.6</ele>
        <time>2018-06-10T11:15:58Z</time>
      </trkpt>
      <trkpt lat="42.239794" lon="2.597909">
        <ele>245.2</ele>
        <time>2018-06-10T11:16:02Z</time>
      </trkpt>
      <trkpt lat="42.238946" lon="2.598195">
        <ele>250.7</ele>
        <time>2018-06-10T11:16:26Z</time>
      </trkpt>
      <trkpt lat="42.238391" lon="2.598425">
        <ele>254.0</ele>
        <time>2018-06-10T11:16:41Z</time>
      </trkpt>
      <trkpt lat="42.237976" lon="2.598678">
        <ele>258.4</ele>
        <time>2018-06-10T11:16:53Z</time>
      </trkpt>
      <trkpt lat="42.237693" lon="2.598844">
        <ele>260.7</ele>
        <time>2018-06-10T11:17:01Z</time>
      </trkpt>
      <trkpt lat="42.237498" lon="2.598789">
        <ele>262.2</ele>
        <time>2018-06-10T11:17:07Z</time>
      </trkpt>
      <trkpt lat="42.237381" lon="2.598612">
        <ele>263.9</ele>
        <time>2018-06-10T11:17:12Z</time>
      </trkpt>
      <trkpt lat="42.237422" lon="2.598218">
        <ele>264.1</ele>
        <time>2018-06-10T11:17:19Z</time>
      </trkpt>
      <trkpt lat="42.237708" lon="2.596657">
        <ele>268.6</ele>
        <time>2018-06-10T11:17:51Z</time>
      </trkpt>
      <trkpt lat="42.237708" lon="2.596533">
        <ele>268.0</ele>
        <time>2018-06-10T11:17:53Z</time>
      </trkpt>
      <trkpt lat="42.237688" lon="2.596396">
        <ele>268.0</ele>
        <time>2018-06-10T11:17:56Z</time>
      </trkpt>
      <trkpt lat="42.237633" lon="2.596268">
        <ele>267.4</ele>
        <time>2018-06-10T11:17:59Z</time>
      </trkpt>
      <trkpt lat="42.237561" lon="2.596160">
        <ele>267.7</ele>
        <time>2018-06-10T11:18:02Z</time>
      </trkpt>
      <trkpt lat="42.237466" lon="2.596081">
        <ele>269.0</ele>
        <time>2018-06-10T11:18:05Z</time>
      </trkpt>
      <trkpt lat="42.237356" lon="2.596040">
        <ele>269.0</ele>
        <time>2018-06-10T11:18:08Z</time>
      </trkpt>
      <trkpt lat="42.237261" lon="2.596034">
        <ele>270.6</ele>
        <time>2018-06-10T11:18:11Z</time>
      </trkpt>
      <trkpt lat="42.237255" lon="2.595997">
        <ele>271.7</ele>
        <time>2018-06-10T11:18:11Z</time>
      </trkpt>
      <trkpt lat="42.237275" lon="2.595965">
        <ele>272.0</ele>
        <time>2018-06-10T11:18:12Z</time>
      </trkpt>
      <trkpt lat="42.237338" lon="2.595956">
        <ele>270.3</ele>
        <time>2018-06-10T11:18:14Z</time>
      </trkpt>
      <trkpt lat="42.237695" lon="2.595978">
        <ele>265.4</ele>
        <time>2018-06-10T11:18:24Z</time>
      </trkpt>
      <trkpt lat="42.237946" lon="2.596067">
        <ele>269.9</ele>
        <time>2018-06-10T11:18:31Z</time>
      </trkpt>
      <trkpt lat="42.238083" lon="2.596285">
        <ele>272.9</ele>
        <time>2018-06-10T11:18:36Z</time>
      </trkpt>
      <trkpt lat="42.238247" lon="2.596641">
        <ele>275.2</ele>
        <time>2018-06-10T11:18:45Z</time>
      </trkpt>
      <trkpt lat="42.238418" lon="2.596901">
        <ele>273.0</ele>
        <time>2018-06-10T11:18:51Z</time>
      </trkpt>
      <trkpt lat="42.238555" lon="2.596969">
        <ele>272.5</ele>
        <time>2018-06-10T11:18:55Z</time>
      </trkpt>
      <trkpt lat="42.239577" lon="2.596240">
        <ele>284.6</ele>
        <time>2018-06-10T11:19:26Z</time>
      </trkpt>
      <trkpt lat="42.240165" lon="2.595682">
        <ele>292.7</ele>
        <time>2018-06-10T11:19:45Z</time>
      </trkpt>
      <trkpt lat="42.241369" lon="2.593513">
        <ele>308.2</ele>
        <time>2018-06-10T11:20:39Z</time>
      </trkpt>
      <trkpt lat="42.241416" lon="2.593343">
        <ele>308.0</ele>
        <time>2018-06-10T11:20:43Z</time>
      </trkpt>
      <trkpt lat="42.241572" lon="2.593158">
        <ele>309.3</ele>
        <time>2018-06-10T11:20:48Z</time>
      </trkpt>
      <trkpt lat="42.241727" lon="2.593107">
        <ele>311.0</ele>
        <time>2018-06-10T11:20:52Z</time>
      </trkpt>
      <trkpt lat="42.241994" lon="2.593165">
        <ele>313.1</ele>
        <time>2018-06-10T11:21:00Z</time>
      </trkpt>
      <trkpt lat="42.242342" lon="2.592995">
        <ele>318.0</ele>
        <time>2018-06-10T11:21:09Z</time>
      </trkpt>
      <trkpt lat="42.242660" lon="2.592785">
        <ele>319.4</ele>
        <time>2018-06-10T11:21:19Z</time>
      </trkpt>
      <trkpt lat="42.242892" lon="2.592198">
        <ele>322.8</ele>
        <time>2018-06-10T11:21:32Z</time>
      </trkpt>
      <trkpt lat="42.242997" lon="2.591754">
        <ele>324.1</ele>
        <time>2018-06-10T11:21:41Z</time>
      </trkpt>
      <trkpt lat="42.243051" lon="2.591182">
        <ele>324.7</ele>
        <time>2018-06-10T11:21:53Z</time>
      </trkpt>
      <trkpt lat="42.242984" lon="2.590817">
        <ele>326.9</ele>
        <time>2018-06-10T11:22:00Z</time>
      </trkpt>
      <trkpt lat="42.242936" lon="2.590485">
        <ele>327.7</ele>
        <time>2018-06-10T11:22:07Z</time>
      </trkpt>
      <trkpt lat="42.242816" lon="2.590015">
        <ele>325.5</ele>
        <time>2018-06-10T11:22:16Z</time>
      </trkpt>
      <trkpt lat="42.242832" lon="2.589409">
        <ele>324.2</ele>
        <time>2018-06-10T11:22:28Z</time>
      </trkpt>
      <trkpt lat="42.243083" lon="2.589140">
        <ele>323.2</ele>
        <time>2018-06-10T11:22:37Z</time>
      </trkpt>
      <trkpt lat="42.243168" lon="2.588834">
        <ele>321.0</ele>
        <time>2018-06-10T11:22:43Z</time>
      </trkpt>
      <trkpt lat="42.243298" lon="2.587414">
        <ele>319.5</ele>
        <time>2018-06-10T11:23:12Z</time>
      </trkpt>
      <trkpt lat="42.243126" lon="2.586970">
        <ele>324.7</ele>
        <time>2018-06-10T11:23:22Z</time>
      </trkpt>
      <trkpt lat="42.243238" lon="2.586666">
        <ele>326.9</ele>
        <time>2018-06-10T11:23:28Z</time>
      </trkpt>
      <trkpt lat="42.243518" lon="2.586453">
        <ele>326.8</ele>
        <time>2018-06-10T11:23:37Z</time>
      </trkpt>
      <trkpt lat="42.243660" lon="2.586313">
        <ele>326.4</ele>
        <time>2018-06-10T11:23:42Z</time>
      </trkpt>
      <trkpt lat="42.243697" lon="2.586030">
        <ele>325.6</ele>
        <time>2018-06-10T11:23:47Z</time>
      </trkpt>
      <trkpt lat="42.243677" lon="2.585755">
        <ele>324.0</ele>
        <time>2018-06-10T11:23:53Z</time>
      </trkpt>
      <trkpt lat="42.243544" lon="2.584830">
        <ele>323.5</ele>
        <time>2018-06-10T11:24:11Z</time>
      </trkpt>
      <trkpt lat="42.243505" lon="2.584428">
        <ele>320.7</ele>
        <time>2018-06-10T11:24:19Z</time>
      </trkpt>
      <trkpt lat="42.243065" lon="2.582997">
        <ele>327.6</ele>
        <time>2018-06-10T11:24:50Z</time>
      </trkpt>
      <trkpt lat="42.242939" lon="2.582863">
        <ele>329.0</ele>
        <time>2018-06-10T11:24:54Z</time>
      </trkpt>
      <trkpt lat="42.242628" lon="2.582732">
        <ele>328.6</ele>
        <time>2018-06-10T11:25:03Z</time>
      </trkpt>
      <trkpt lat="42.242431" lon="2.582762">
        <ele>335.1</ele>
        <time>2018-06-10T11:25:08Z</time>
      </trkpt>
      <trkpt lat="42.242307" lon="2.581917">
        <ele>341.2</ele>
        <time>2018-06-10T11:25:25Z</time>
      </trkpt>
      <trkpt lat="42.242249" lon="2.581713">
        <ele>340.4</ele>
        <time>2018-06-10T11:25:30Z</time>
      </trkpt>
      <trkpt lat="42.242068" lon="2.581522">
        <ele>341.2</ele>
        <time>2018-06-10T11:25:36Z</time>
      </trkpt>
      <trkpt lat="42.241197" lon="2.580862">
        <ele>336.7</ele>
        <time>2018-06-10T11:26:02Z</time>
      </trkpt>
      <trkpt lat="42.241058" lon="2.580753">
        <ele>334.8</ele>
        <time>2018-06-10T11:26:07Z</time>
      </trkpt>
      <trkpt lat="42.240933" lon="2.580507">
        <ele>334.0</ele>
        <time>2018-06-10T11:26:12Z</time>
      </trkpt>
      <trkpt lat="42.240970" lon="2.580398">
        <ele>334.5</ele>
        <time>2018-06-10T11:26:15Z</time>
      </trkpt>
      <trkpt lat="42.241117" lon="2.580361">
        <ele>334.2</ele>
        <time>2018-06-10T11:26:19Z</time>
      </trkpt>
      <trkpt lat="42.241403" lon="2.580056">
        <ele>332.7</ele>
        <time>2018-06-10T11:26:29Z</time>
      </trkpt>
      <trkpt lat="42.241907" lon="2.579745">
        <ele>330.5</ele>
        <time>2018-06-10T11:26:43Z</time>
      </trkpt>
      <trkpt lat="42.242065" lon="2.579725">
        <ele>329.1</ele>
        <time>2018-06-10T11:26:48Z</time>
      </trkpt>
      <trkpt lat="42.242238" lon="2.579615">
        <ele>326.8</ele>
        <time>2018-06-10T11:26:53Z</time>
      </trkpt>
      <trkpt lat="42.242498" lon="2.579278">
        <ele>324.9</ele>
        <time>2018-06-10T11:27:02Z</time>
      </trkpt>
      <trkpt lat="42.242729" lon="2.578882">
        <ele>325.4</ele>
        <time>2018-06-10T11:27:12Z</time>
      </trkpt>
      <trkpt lat="42.242787" lon="2.578709">
        <ele>326.5</ele>
        <time>2018-06-10T11:27:16Z</time>
      </trkpt>
      <trkpt lat="42.242853" lon="2.578580">
        <ele>327.0</ele>
        <time>2018-06-10T11:27:19Z</time>
      </trkpt>
      <trkpt lat="42.242908" lon="2.578369">
        <ele>328.1</ele>
        <time>2018-06-10T11:27:23Z</time>
      </trkpt>
      <trkpt lat="42.242996" lon="2.578160">
        <ele>328.3</ele>
        <time>2018-06-10T11:27:28Z</time>
      </trkpt>
      <trkpt lat="42.243055" lon="2.578038">
        <ele>327.9</ele>
        <time>2018-06-10T11:27:31Z</time>
      </trkpt>
      <trkpt lat="42.243076" lon="2.577922">
        <ele>328.1</ele>
        <time>2018-06-10T11:27:33Z</time>
      </trkpt>
      <trkpt lat="42.243089" lon="2.577833">
        <ele>328.4</ele>
        <time>2018-06-10T11:27:35Z</time>
      </trkpt>
      <trkpt lat="42.243094" lon="2.577751">
        <ele>329.2</ele>
        <time>2018-06-10T11:27:37Z</time>
      </trkpt>
      <trkpt lat="42.243089" lon="2.577610">
        <ele>329.2</ele>
        <time>2018-06-10T11:27:40Z</time>
      </trkpt>
      <trkpt lat="42.243100" lon="2.577439">
        <ele>328.1</ele>
        <time>2018-06-10T11:27:43Z</time>
      </trkpt>
      <trkpt lat="42.243076" lon="2.577260">
        <ele>327.4</ele>
        <time>2018-06-10T11:27:47Z</time>
      </trkpt>
      <trkpt lat="42.243013" lon="2.577079">
        <ele>326.7</ele>
        <time>2018-06-10T11:27:51Z</time>
      </trkpt>
      <trkpt lat="42.242828" lon="2.576673">
        <ele>326.2</ele>
        <time>2018-06-10T11:28:00Z</time>
      </trkpt>
      <trkpt lat="42.242715" lon="2.576400">
        <ele>326.6</ele>
        <time>2018-06-10T11:28:06Z</time>
      </trkpt>
      <trkpt lat="42.242660" lon="2.576240">
        <ele>326.6</ele>
        <time>2018-06-10T11:28:10Z</time>
      </trkpt>
      <trkpt lat="42.242652" lon="2.576084">
        <ele>327.9</ele>
        <time>2018-06-10T11:28:13Z</time>
      </trkpt>
      <trkpt lat="42.242682" lon="2.575939">
        <ele>328.7</ele>
        <time>2018-06-10T11:28:16Z</time>
      </trkpt>
      <trkpt lat="42.242877" lon="2.575480">
        <ele>327.7</ele>
        <time>2018-06-10T11:28:26Z</time>
      </trkpt>
      <trkpt lat="42.242999" lon="2.575222">
        <ele>326.4</ele>
        <time>2018-06-10T11:28:32Z</time>
      </trkpt>
      <trkpt lat="42.243089" lon="2.575057">
        <ele>325.1</ele>
        <time>2018-06-10T11:28:36Z</time>
      </trkpt>
      <trkpt lat="42.243117" lon="2.574968">
        <ele>324.9</ele>
        <time>2018-06-10T11:28:38Z</time>
      </trkpt>
      <trkpt lat="42.243120" lon="2.574899">
        <ele>324.4</ele>
        <time>2018-06-10T11:28:39Z</time>
      </trkpt>
      <trkpt lat="42.243063" lon="2.574815">
        <ele>322.4</ele>
        <time>2018-06-10T11:28:42Z</time>
      </trkpt>
      <trkpt lat="42.242970" lon="2.574763">
        <ele>321.4</ele>
        <time>2018-06-10T11:28:44Z</time>
      </trkpt>
      <trkpt lat="42.242751" lon="2.574661">
        <ele>319.9</ele>
        <time>2018-06-10T11:28:51Z</time>
      </trkpt>
      <trkpt lat="42.242633" lon="2.574600">
        <ele>319.0</ele>
        <time>2018-06-10T11:28:54Z</time>
      </trkpt>
      <trkpt lat="42.242563" lon="2.574536">
        <ele>318.6</ele>
        <time>2018-06-10T11:28:56Z</time>
      </trkpt>
      <trkpt lat="42.242531" lon="2.574479">
        <ele>318.7</ele>
        <time>2018-06-10T11:28:58Z</time>
      </trkpt>
      <trkpt lat="42.242512" lon="2.574437">
        <ele>319.0</ele>
        <time>2018-06-10T11:28:59Z</time>
      </trkpt>
      <trkpt lat="42.242521" lon="2.574365">
        <ele>321.1</ele>
        <time>2018-06-10T11:29:00Z</time>
      </trkpt>
      <trkpt lat="42.242571" lon="2.574300">
        <ele>321.9</ele>
        <time>2018-06-10T11:29:02Z</time>
      </trkpt>
      <trkpt lat="42.242631" lon="2.574212">
        <ele>322.0</ele>
        <time>2018-06-10T11:29:04Z</time>
      </trkpt>
      <trkpt lat="42.242667" lon="2.574069">
        <ele>323.0</ele>
        <time>2018-06-10T11:29:07Z</time>
      </trkpt>
      <trkpt lat="42.242667" lon="2.573960">
        <ele>323.0</ele>
        <time>2018-06-10T11:29:09Z</time>
      </trkpt>
      <trkpt lat="42.242638" lon="2.573795">
        <ele>322.5</ele>
        <time>2018-06-10T11:29:13Z</time>
      </trkpt>
      <trkpt lat="42.242596" lon="2.573704">
        <ele>322.9</ele>
        <time>2018-06-10T11:29:15Z</time>
      </trkpt>
      <trkpt lat="42.242526" lon="2.573544">
        <ele>323.6</ele>
        <time>2018-06-10T11:29:19Z</time>
      </trkpt>
      <trkpt lat="42.242457" lon="2.573463">
        <ele>324.1</ele>
        <time>2018-06-10T11:29:21Z</time>
      </trkpt>
      <trkpt lat="42.242398" lon="2.573386">
        <ele>325.0</ele>
        <time>2018-06-10T11:29:23Z</time>
      </trkpt>
      <trkpt lat="42.242370" lon="2.573278">
        <ele>325.0</ele>
        <time>2018-06-10T11:29:25Z</time>
      </trkpt>
      <trkpt lat="42.242354" lon="2.573141">
        <ele>325.3</ele>
        <time>2018-06-10T11:29:28Z</time>
      </trkpt>
      <trkpt lat="42.242363" lon="2.573044">
        <ele>325.1</ele>
        <time>2018-06-10T11:29:30Z</time>
      </trkpt>
      <trkpt lat="42.242368" lon="2.572830">
        <ele>325.0</ele>
        <time>2018-06-10T11:29:34Z</time>
      </trkpt>
      <trkpt lat="42.242354" lon="2.572759">
        <ele>325.1</ele>
        <time>2018-06-10T11:29:36Z</time>
      </trkpt>
      <trkpt lat="42.242311" lon="2.572587">
        <ele>325.3</ele>
        <time>2018-06-10T11:29:39Z</time>
      </trkpt>
      <trkpt lat="42.242278" lon="2.572434">
        <ele>325.0</ele>
        <time>2018-06-10T11:29:43Z</time>
      </trkpt>
      <trkpt lat="42.242185" lon="2.572211">
        <ele>327.0</ele>
        <time>2018-06-10T11:29:48Z</time>
      </trkpt>
      <trkpt lat="42.242110" lon="2.572027">
        <ele>328.5</ele>
        <time>2018-06-10T11:29:52Z</time>
      </trkpt>
      <trkpt lat="42.241942" lon="2.571298">
        <ele>335.1</ele>
        <time>2018-06-10T11:30:07Z</time>
      </trkpt>
      <trkpt lat="42.241846" lon="2.571155">
        <ele>336.9</ele>
        <time>2018-06-10T11:30:11Z</time>
      </trkpt>
      <trkpt lat="42.241600" lon="2.571118">
        <ele>340.1</ele>
        <time>2018-06-10T11:30:17Z</time>
      </trkpt>
      <trkpt lat="42.241473" lon="2.570922">
        <ele>340.6</ele>
        <time>2018-06-10T11:30:22Z</time>
      </trkpt>
      <trkpt lat="42.241356" lon="2.570816">
        <ele>341.7</ele>
        <time>2018-06-10T11:30:26Z</time>
      </trkpt>
      <trkpt lat="42.241267" lon="2.570676">
        <ele>342.2</ele>
        <time>2018-06-10T11:30:30Z</time>
      </trkpt>
      <trkpt lat="42.241127" lon="2.570592">
        <ele>343.6</ele>
        <time>2018-06-10T11:30:34Z</time>
      </trkpt>
      <trkpt lat="42.240964" lon="2.570557">
        <ele>347.0</ele>
        <time>2018-06-10T11:30:38Z</time>
      </trkpt>
      <trkpt lat="42.240923" lon="2.570509">
        <ele>347.0</ele>
        <time>2018-06-10T11:30:40Z</time>
      </trkpt>
      <trkpt lat="42.240942" lon="2.570454">
        <ele>347.9</ele>
        <time>2018-06-10T11:30:41Z</time>
      </trkpt>
      <trkpt lat="42.240982" lon="2.570399">
        <ele>347.9</ele>
        <time>2018-06-10T11:30:43Z</time>
      </trkpt>
      <trkpt lat="42.241116" lon="2.570143">
        <ele>350.0</ele>
        <time>2018-06-10T11:30:49Z</time>
      </trkpt>
      <trkpt lat="42.241173" lon="2.569926">
        <ele>351.2</ele>
        <time>2018-06-10T11:30:53Z</time>
      </trkpt>
      <trkpt lat="42.241209" lon="2.569743">
        <ele>351.5</ele>
        <time>2018-06-10T11:30:57Z</time>
      </trkpt>
      <trkpt lat="42.241222" lon="2.569524">
        <ele>351.2</ele>
        <time>2018-06-10T11:31:01Z</time>
      </trkpt>
      <trkpt lat="42.241229" lon="2.569015">
        <ele>350.4</ele>
        <time>2018-06-10T11:31:11Z</time>
      </trkpt>
      <trkpt lat="42.241271" lon="2.568336">
        <ele>348.0</ele>
        <time>2018-06-10T11:31:25Z</time>
      </trkpt>
      <trkpt lat="42.241297" lon="2.568075">
        <ele>347.4</ele>
        <time>2018-06-10T11:31:30Z</time>
      </trkpt>
      <trkpt lat="42.241354" lon="2.567681">
        <ele>346.7</ele>
        <time>2018-06-10T11:31:38Z</time>
      </trkpt>
      <trkpt lat="42.241406" lon="2.567391">
        <ele>346.9</ele>
        <time>2018-06-10T11:31:44Z</time>
      </trkpt>
      <trkpt lat="42.241430" lon="2.567169">
        <ele>345.9</ele>
        <time>2018-06-10T11:31:48Z</time>
      </trkpt>
      <trkpt lat="42.241438" lon="2.566919">
        <ele>344.0</ele>
        <time>2018-06-10T11:31:53Z</time>
      </trkpt>
      <trkpt lat="42.241341" lon="2.566469">
        <ele>341.7</ele>
        <time>2018-06-10T11:32:02Z</time>
      </trkpt>
      <trkpt lat="42.241290" lon="2.566263">
        <ele>340.0</ele>
        <time>2018-06-10T11:32:07Z</time>
      </trkpt>
      <trkpt lat="42.241299" lon="2.566009">
        <ele>338.8</ele>
        <time>2018-06-10T11:32:12Z</time>
      </trkpt>
      <trkpt lat="42.241316" lon="2.565808">
        <ele>337.7</ele>
        <time>2018-06-10T11:32:16Z</time>
      </trkpt>
      <trkpt lat="42.241351" lon="2.565535">
        <ele>336.0</ele>
        <time>2018-06-10T11:32:21Z</time>
      </trkpt>
      <trkpt lat="42.241386" lon="2.565456">
        <ele>336.0</ele>
        <time>2018-06-10T11:32:23Z</time>
      </trkpt>
      <trkpt lat="42.241569" lon="2.565134">
        <ele>334.1</ele>
        <time>2018-06-10T11:32:31Z</time>
      </trkpt>
      <trkpt lat="42.241659" lon="2.564921">
        <ele>333.1</ele>
        <time>2018-06-10T11:32:36Z</time>
      </trkpt>
      <trkpt lat="42.241690" lon="2.564721">
        <ele>332.2</ele>
        <time>2018-06-10T11:32:40Z</time>
      </trkpt>
      <trkpt lat="42.241689" lon="2.564545">
        <ele>331.4</ele>
        <time>2018-06-10T11:32:43Z</time>
      </trkpt>
      <trkpt lat="42.241678" lon="2.564380">
        <ele>330.6</ele>
        <time>2018-06-10T11:32:47Z</time>
      </trkpt>
      <trkpt lat="42.241571" lon="2.564128">
        <ele>330.0</ele>
        <time>2018-06-10T11:32:52Z</time>
      </trkpt>
      <trkpt lat="42.241344" lon="2.563754">
        <ele>328.0</ele>
        <time>2018-06-10T11:33:02Z</time>
      </trkpt>
      <trkpt lat="42.241303" lon="2.563633">
        <ele>326.6</ele>
        <time>2018-06-10T11:33:05Z</time>
      </trkpt>
      <trkpt lat="42.241298" lon="2.563548">
        <ele>325.2</ele>
        <time>2018-06-10T11:33:06Z</time>
      </trkpt>
      <trkpt lat="42.241298" lon="2.563481">
        <ele>325.0</ele>
        <time>2018-06-10T11:33:08Z</time>
      </trkpt>
      <trkpt lat="42.241257" lon="2.562891">
        <ele>320.1</ele>
        <time>2018-06-10T11:33:19Z</time>
      </trkpt>
      <trkpt lat="42.241150" lon="2.562567">
        <ele>316.8</ele>
        <time>2018-06-10T11:33:26Z</time>
      </trkpt>
      <trkpt lat="42.241036" lon="2.562364">
        <ele>314.4</ele>
        <time>2018-06-10T11:33:31Z</time>
      </trkpt>
      <trkpt lat="42.240728" lon="2.561784">
        <ele>306.0</ele>
        <time>2018-06-10T11:33:46Z</time>
      </trkpt>
      <trkpt lat="42.240745" lon="2.561687">
        <ele>304.4</ele>
        <time>2018-06-10T11:33:48Z</time>
      </trkpt>
      <trkpt lat="42.240817" lon="2.561565">
        <ele>302.1</ele>
        <time>2018-06-10T11:33:51Z</time>
      </trkpt>
      <trkpt lat="42.240871" lon="2.561468">
        <ele>301.6</ele>
        <time>2018-06-10T11:33:53Z</time>
      </trkpt>
      <trkpt lat="42.240835" lon="2.561309">
        <ele>306.3</ele>
        <time>2018-06-10T11:33:57Z</time>
      </trkpt>
      <trkpt lat="42.240329" lon="2.561229">
        <ele>298.9</ele>
        <time>2018-06-10T11:34:10Z</time>
      </trkpt>
      <trkpt lat="42.240280" lon="2.561126">
        <ele>299.5</ele>
        <time>2018-06-10T11:34:13Z</time>
      </trkpt>
      <trkpt lat="42.240003" lon="2.560674">
        <ele>298.6</ele>
        <time>2018-06-10T11:34:24Z</time>
      </trkpt>
      <trkpt lat="42.239858" lon="2.560311">
        <ele>296.9</ele>
        <time>2018-06-10T11:34:32Z</time>
      </trkpt>
      <trkpt lat="42.239728" lon="2.559488">
        <ele>295.9</ele>
        <time>2018-06-10T11:34:49Z</time>
      </trkpt>
      <trkpt lat="42.239440" lon="2.558894">
        <ele>293.4</ele>
        <time>2018-06-10T11:35:03Z</time>
      </trkpt>
      <trkpt lat="42.239383" lon="2.558715">
        <ele>293.0</ele>
        <time>2018-06-10T11:35:07Z</time>
      </trkpt>
      <trkpt lat="42.239256" lon="2.558497">
        <ele>289.3</ele>
        <time>2018-06-10T11:35:12Z</time>
      </trkpt>
      <trkpt lat="42.238814" lon="2.558246">
        <ele>286.4</ele>
        <time>2018-06-10T11:35:25Z</time>
      </trkpt>
      <trkpt lat="42.238551" lon="2.557896">
        <ele>283.1</ele>
        <time>2018-06-10T11:35:35Z</time>
      </trkpt>
      <trkpt lat="42.238528" lon="2.557802">
        <ele>282.1</ele>
        <time>2018-06-10T11:35:37Z</time>
      </trkpt>
      <trkpt lat="42.238535" lon="2.557689">
        <ele>281.0</ele>
        <time>2018-06-10T11:35:39Z</time>
      </trkpt>
      <trkpt lat="42.238591" lon="2.557612">
        <ele>280.6</ele>
        <time>2018-06-10T11:35:41Z</time>
      </trkpt>
      <trkpt lat="42.238658" lon="2.557556">
        <ele>280.0</ele>
        <time>2018-06-10T11:35:43Z</time>
      </trkpt>
      <trkpt lat="42.238752" lon="2.557520">
        <ele>279.0</ele>
        <time>2018-06-10T11:35:46Z</time>
      </trkpt>
      <trkpt lat="42.238838" lon="2.557531">
        <ele>278.5</ele>
        <time>2018-06-10T11:35:48Z</time>
      </trkpt>
      <trkpt lat="42.239020" lon="2.557592">
        <ele>280.0</ele>
        <time>2018-06-10T11:35:53Z</time>
      </trkpt>
      <trkpt lat="42.239127" lon="2.557771">
        <ele>280.6</ele>
        <time>2018-06-10T11:35:58Z</time>
      </trkpt>
      <trkpt lat="42.239278" lon="2.557891">
        <ele>280.8</ele>
        <time>2018-06-10T11:36:03Z</time>
      </trkpt>
      <trkpt lat="42.239576" lon="2.558054">
        <ele>281.5</ele>
        <time>2018-06-10T11:36:11Z</time>
      </trkpt>
      <trkpt lat="42.239705" lon="2.558106">
        <ele>282.2</ele>
        <time>2018-06-10T11:36:15Z</time>
      </trkpt>
      <trkpt lat="42.239867" lon="2.558081">
        <ele>283.5</ele>
        <time>2018-06-10T11:36:19Z</time>
      </trkpt>
      <trkpt lat="42.239945" lon="2.558017">
        <ele>283.9</ele>
        <time>2018-06-10T11:36:22Z</time>
      </trkpt>
      <trkpt lat="42.240011" lon="2.557896">
        <ele>284.0</ele>
        <time>2018-06-10T11:36:24Z</time>
      </trkpt>
      <trkpt lat="42.240013" lon="2.557816">
        <ele>284.0</ele>
        <time>2018-06-10T11:36:26Z</time>
      </trkpt>
      <trkpt lat="42.239955" lon="2.557596">
        <ele>285.2</ele>
        <time>2018-06-10T11:36:31Z</time>
      </trkpt>
      <trkpt lat="42.239811" lon="2.557166">
        <ele>288.5</ele>
        <time>2018-06-10T11:36:40Z</time>
      </trkpt>
      <trkpt lat="42.239793" lon="2.557094">
        <ele>289.4</ele>
        <time>2018-06-10T11:36:42Z</time>
      </trkpt>
      <trkpt lat="42.239783" lon="2.557023">
        <ele>290.6</ele>
        <time>2018-06-10T11:36:43Z</time>
      </trkpt>
      <trkpt lat="42.239833" lon="2.556751">
        <ele>293.2</ele>
        <time>2018-06-10T11:36:49Z</time>
      </trkpt>
      <trkpt lat="42.239837" lon="2.556574">
        <ele>295.2</ele>
        <time>2018-06-10T11:36:52Z</time>
      </trkpt>
      <trkpt lat="42.239811" lon="2.556423">
        <ele>298.1</ele>
        <time>2018-06-10T11:36:55Z</time>
      </trkpt>
      <trkpt lat="42.239770" lon="2.556336">
        <ele>299.7</ele>
        <time>2018-06-10T11:36:57Z</time>
      </trkpt>
      <trkpt lat="42.239680" lon="2.556220">
        <ele>300.6</ele>
        <time>2018-06-10T11:37:01Z</time>
      </trkpt>
      <trkpt lat="42.239529" lon="2.556153">
        <ele>301.4</ele>
        <time>2018-06-10T11:37:05Z</time>
      </trkpt>
      <trkpt lat="42.239400" lon="2.556123">
        <ele>302.1</ele>
        <time>2018-06-10T11:37:08Z</time>
      </trkpt>
      <trkpt lat="42.239265" lon="2.556146">
        <ele>301.8</ele>
        <time>2018-06-10T11:37:12Z</time>
      </trkpt>
      <trkpt lat="42.239170" lon="2.556177">
        <ele>301.4</ele>
        <time>2018-06-10T11:37:15Z</time>
      </trkpt>
      <trkpt lat="42.239080" lon="2.556263">
        <ele>300.3</ele>
        <time>2018-06-10T11:37:17Z</time>
      </trkpt>
      <trkpt lat="42.238991" lon="2.556313">
        <ele>300.0</ele>
        <time>2018-06-10T11:37:20Z</time>
      </trkpt>
      <trkpt lat="42.238909" lon="2.556295">
        <ele>300.8</ele>
        <time>2018-06-10T11:37:22Z</time>
      </trkpt>
      <trkpt lat="42.238852" lon="2.556249">
        <ele>301.0</ele>
        <time>2018-06-10T11:37:24Z</time>
      </trkpt>
      <trkpt lat="42.238848" lon="2.556136">
        <ele>301.1</ele>
        <time>2018-06-10T11:37:26Z</time>
      </trkpt>
      <trkpt lat="42.238828" lon="2.556104">
        <ele>301.0</ele>
        <time>2018-06-10T11:37:27Z</time>
      </trkpt>
      <trkpt lat="42.238804" lon="2.556083">
        <ele>301.1</ele>
        <time>2018-06-10T11:37:28Z</time>
      </trkpt>
      <trkpt lat="42.238688" lon="2.556053">
        <ele>300.0</ele>
        <time>2018-06-10T11:37:31Z</time>
      </trkpt>
      <trkpt lat="42.238393" lon="2.555820">
        <ele>299.7</ele>
        <time>2018-06-10T11:37:40Z</time>
      </trkpt>
      <trkpt lat="42.237902" lon="2.555362">
        <ele>297.6</ele>
        <time>2018-06-10T11:37:56Z</time>
      </trkpt>
      <trkpt lat="42.237839" lon="2.555233">
        <ele>297.3</ele>
        <time>2018-06-10T11:37:59Z</time>
      </trkpt>
      <trkpt lat="42.237700" lon="2.554645">
        <ele>295.0</ele>
        <time>2018-06-10T11:38:11Z</time>
      </trkpt>
      <trkpt lat="42.237611" lon="2.554390">
        <ele>295.9</ele>
        <time>2018-06-10T11:38:17Z</time>
      </trkpt>
      <trkpt lat="42.237561" lon="2.554305">
        <ele>297.1</ele>
        <time>2018-06-10T11:38:19Z</time>
      </trkpt>
      <trkpt lat="42.237490" lon="2.554235">
        <ele>296.3</ele>
        <time>2018-06-10T11:38:21Z</time>
      </trkpt>
      <trkpt lat="42.237219" lon="2.553991">
        <ele>293.9</ele>
        <time>2018-06-10T11:38:30Z</time>
      </trkpt>
      <trkpt lat="42.237137" lon="2.553905">
        <ele>290.7</ele>
        <time>2018-06-10T11:38:33Z</time>
      </trkpt>
      <trkpt lat="42.236343" lon="2.552827">
        <ele>287.1</ele>
        <time>2018-06-10T11:39:03Z</time>
      </trkpt>
      <trkpt lat="42.236225" lon="2.552652">
        <ele>284.6</ele>
        <time>2018-06-10T11:39:08Z</time>
      </trkpt>
      <trkpt lat="42.236156" lon="2.552532">
        <ele>281.8</ele>
        <time>2018-06-10T11:39:11Z</time>
      </trkpt>
      <trkpt lat="42.236095" lon="2.552400">
        <ele>279.8</ele>
        <time>2018-06-10T11:39:14Z</time>
      </trkpt>
      <trkpt lat="42.236010" lon="2.552277">
        <ele>277.5</ele>
        <time>2018-06-10T11:39:17Z</time>
      </trkpt>
      <trkpt lat="42.235936" lon="2.552188">
        <ele>275.8</ele>
        <time>2018-06-10T11:39:20Z</time>
      </trkpt>
      <trkpt lat="42.235900" lon="2.552132">
        <ele>277.6</ele>
        <time>2018-06-10T11:39:21Z</time>
      </trkpt>
      <trkpt lat="42.235859" lon="2.552017">
        <ele>278.7</ele>
        <time>2018-06-10T11:39:24Z</time>
      </trkpt>
      <trkpt lat="42.235823" lon="2.551966">
        <ele>278.7</ele>
        <time>2018-06-10T11:39:25Z</time>
      </trkpt>
      <trkpt lat="42.235755" lon="2.551952">
        <ele>278.0</ele>
        <time>2018-06-10T11:39:27Z</time>
      </trkpt>
      <trkpt lat="42.235624" lon="2.551952">
        <ele>278.0</ele>
        <time>2018-06-10T11:39:30Z</time>
      </trkpt>
      <trkpt lat="42.235522" lon="2.551930">
        <ele>278.1</ele>
        <time>2018-06-10T11:39:33Z</time>
      </trkpt>
      <trkpt lat="42.235436" lon="2.551877">
        <ele>278.1</ele>
        <time>2018-06-10T11:39:36Z</time>
      </trkpt>
      <trkpt lat="42.235147" lon="2.551594">
        <ele>278.0</ele>
        <time>2018-06-10T11:39:45Z</time>
      </trkpt>
      <trkpt lat="42.234975" lon="2.551407">
        <ele>279.0</ele>
        <time>2018-06-10T11:39:51Z</time>
      </trkpt>
      <trkpt lat="42.234930" lon="2.551317">
        <ele>278.6</ele>
        <time>2018-06-10T11:39:53Z</time>
      </trkpt>
      <trkpt lat="42.234898" lon="2.551147">
        <ele>277.9</ele>
        <time>2018-06-10T11:39:57Z</time>
      </trkpt>
      <trkpt lat="42.234883" lon="2.550996">
        <ele>277.6</ele>
        <time>2018-06-10T11:40:00Z</time>
      </trkpt>
      <trkpt lat="42.234852" lon="2.550899">
        <ele>275.7</ele>
        <time>2018-06-10T11:40:02Z</time>
      </trkpt>
      <trkpt lat="42.234806" lon="2.550851">
        <ele>275.0</ele>
        <time>2018-06-10T11:40:03Z</time>
      </trkpt>
      <trkpt lat="42.234667" lon="2.550846">
        <ele>274.0</ele>
        <time>2018-06-10T11:40:07Z</time>
      </trkpt>
      <trkpt lat="42.234437" lon="2.550841">
        <ele>271.5</ele>
        <time>2018-06-10T11:40:13Z</time>
      </trkpt>
      <trkpt lat="42.234284" lon="2.550850">
        <ele>270.0</ele>
        <time>2018-06-10T11:40:17Z</time>
      </trkpt>
      <trkpt lat="42.234009" lon="2.550881">
        <ele>269.0</ele>
        <time>2018-06-10T11:40:25Z</time>
      </trkpt>
      <trkpt lat="42.233903" lon="2.550882">
        <ele>269.0</ele>
        <time>2018-06-10T11:40:28Z</time>
      </trkpt>
      <trkpt lat="42.233685" lon="2.550847">
        <ele>268.0</ele>
        <time>2018-06-10T11:40:33Z</time>
      </trkpt>
      <trkpt lat="42.233585" lon="2.550804">
        <ele>268.0</ele>
        <time>2018-06-10T11:40:36Z</time>
      </trkpt>
      <trkpt lat="42.233474" lon="2.550726">
        <ele>265.9</ele>
        <time>2018-06-10T11:40:40Z</time>
      </trkpt>
      <trkpt lat="42.233399" lon="2.550641">
        <ele>265.9</ele>
        <time>2018-06-10T11:40:42Z</time>
      </trkpt>
      <trkpt lat="42.233373" lon="2.550587">
        <ele>267.6</ele>
        <time>2018-06-10T11:40:43Z</time>
      </trkpt>
      <trkpt lat="42.233365" lon="2.550523">
        <ele>268.0</ele>
        <time>2018-06-10T11:40:45Z</time>
      </trkpt>
      <trkpt lat="42.233431" lon="2.550241">
        <ele>269.0</ele>
        <time>2018-06-10T11:40:51Z</time>
      </trkpt>
      <trkpt lat="42.233450" lon="2.550136">
        <ele>269.0</ele>
        <time>2018-06-10T11:40:53Z</time>
      </trkpt>
      <trkpt lat="42.233444" lon="2.550008">
        <ele>269.5</ele>
        <time>2018-06-10T11:40:55Z</time>
      </trkpt>
      <trkpt lat="42.233383" lon="2.549844">
        <ele>273.5</ele>
        <time>2018-06-10T11:40:59Z</time>
      </trkpt>
      <trkpt lat="42.233246" lon="2.549637">
        <ele>274.4</ele>
        <time>2018-06-10T11:41:04Z</time>
      </trkpt>
      <trkpt lat="42.233075" lon="2.549383">
        <ele>275.3</ele>
        <time>2018-06-10T11:41:11Z</time>
      </trkpt>
      <trkpt lat="42.232948" lon="2.549240">
        <ele>275.4</ele>
        <time>2018-06-10T11:41:16Z</time>
      </trkpt>
      <trkpt lat="42.232768" lon="2.549096">
        <ele>275.5</ele>
        <time>2018-06-10T11:41:21Z</time>
      </trkpt>
      <trkpt lat="42.232452" lon="2.548947">
        <ele>273.8</ele>
        <time>2018-06-10T11:41:30Z</time>
      </trkpt>
      <trkpt lat="42.232294" lon="2.548863">
        <ele>273.1</ele>
        <time>2018-06-10T11:41:35Z</time>
      </trkpt>
      <trkpt lat="42.232038" lon="2.548592">
        <ele>273.0</ele>
        <time>2018-06-10T11:41:43Z</time>
      </trkpt>
      <trkpt lat="42.231833" lon="2.548364">
        <ele>273.7</ele>
        <time>2018-06-10T11:41:50Z</time>
      </trkpt>
      <trkpt lat="42.231639" lon="2.548232">
        <ele>272.7</ele>
        <time>2018-06-10T11:41:56Z</time>
      </trkpt>
      <trkpt lat="42.231551" lon="2.548216">
        <ele>272.9</ele>
        <time>2018-06-10T11:41:59Z</time>
      </trkpt>
      <trkpt lat="42.231486" lon="2.548233">
        <ele>272.0</ele>
        <time>2018-06-10T11:42:00Z</time>
      </trkpt>
      <trkpt lat="42.231277" lon="2.548304">
        <ele>270.1</ele>
        <time>2018-06-10T11:42:06Z</time>
      </trkpt>
      <trkpt lat="42.231024" lon="2.548358">
        <ele>267.7</ele>
        <time>2018-06-10T11:42:13Z</time>
      </trkpt>
      <trkpt lat="42.230885" lon="2.548339">
        <ele>267.0</ele>
        <time>2018-06-10T11:42:17Z</time>
      </trkpt>
      <trkpt lat="42.230746" lon="2.548310">
        <ele>265.0</ele>
        <time>2018-06-10T11:42:20Z</time>
      </trkpt>
      <trkpt lat="42.230517" lon="2.548137">
        <ele>268.2</ele>
        <time>2018-06-10T11:42:27Z</time>
      </trkpt>
      <trkpt lat="42.230313" lon="2.547841">
        <ele>269.0</ele>
        <time>2018-06-10T11:42:35Z</time>
      </trkpt>
      <trkpt lat="42.230221" lon="2.547752">
        <ele>268.4</ele>
        <time>2018-06-10T11:42:38Z</time>
      </trkpt>
      <trkpt lat="42.229757" lon="2.547167">
        <ele>265.0</ele>
        <time>2018-06-10T11:42:55Z</time>
      </trkpt>
      <trkpt lat="42.229599" lon="2.547077">
        <ele>264.0</ele>
        <time>2018-06-10T11:43:00Z</time>
      </trkpt>
      <trkpt lat="42.229538" lon="2.547033">
        <ele>264.0</ele>
        <time>2018-06-10T11:43:02Z</time>
      </trkpt>
      <trkpt lat="42.229474" lon="2.546977">
        <ele>263.4</ele>
        <time>2018-06-10T11:43:04Z</time>
      </trkpt>
      <trkpt lat="42.229445" lon="2.546931">
        <ele>263.5</ele>
        <time>2018-06-10T11:43:05Z</time>
      </trkpt>
      <trkpt lat="42.229342" lon="2.546735">
        <ele>263.0</ele>
        <time>2018-06-10T11:43:10Z</time>
      </trkpt>
      <trkpt lat="42.229207" lon="2.546502">
        <ele>261.0</ele>
        <time>2018-06-10T11:43:16Z</time>
      </trkpt>
      <trkpt lat="42.229205" lon="2.546446">
        <ele>260.6</ele>
        <time>2018-06-10T11:43:17Z</time>
      </trkpt>
      <trkpt lat="42.229225" lon="2.546400">
        <ele>259.9</ele>
        <time>2018-06-10T11:43:18Z</time>
      </trkpt>
      <trkpt lat="42.229267" lon="2.546341">
        <ele>259.8</ele>
        <time>2018-06-10T11:43:19Z</time>
      </trkpt>
      <trkpt lat="42.229336" lon="2.546312">
        <ele>259.4</ele>
        <time>2018-06-10T11:43:21Z</time>
      </trkpt>
      <trkpt lat="42.229475" lon="2.546264">
        <ele>259.6</ele>
        <time>2018-06-10T11:43:25Z</time>
      </trkpt>
      <trkpt lat="42.229759" lon="2.546140">
        <ele>260.2</ele>
        <time>2018-06-10T11:43:33Z</time>
      </trkpt>
      <trkpt lat="42.229847" lon="2.546100">
        <ele>260.2</ele>
        <time>2018-06-10T11:43:35Z</time>
      </trkpt>
      <trkpt lat="42.230107" lon="2.545907">
        <ele>260.8</ele>
        <time>2018-06-10T11:43:43Z</time>
      </trkpt>
      <trkpt lat="42.230246" lon="2.545743">
        <ele>261.4</ele>
        <time>2018-06-10T11:43:48Z</time>
      </trkpt>
      <trkpt lat="42.230351" lon="2.545552">
        <ele>262.4</ele>
        <time>2018-06-10T11:43:53Z</time>
      </trkpt>
      <trkpt lat="42.230433" lon="2.545303">
        <ele>263.2</ele>
        <time>2018-06-10T11:43:58Z</time>
      </trkpt>
      <trkpt lat="42.230521" lon="2.544987">
        <ele>264.0</ele>
        <time>2018-06-10T11:44:05Z</time>
      </trkpt>
      <trkpt lat="42.230577" lon="2.544672">
        <ele>263.6</ele>
        <time>2018-06-10T11:44:11Z</time>
      </trkpt>
      <trkpt lat="42.230592" lon="2.543576">
        <ele>262.0</ele>
        <time>2018-06-10T11:44:33Z</time>
      </trkpt>
      <trkpt lat="42.230845" lon="2.542339">
        <ele>265.0</ele>
        <time>2018-06-10T11:44:58Z</time>
      </trkpt>
      <trkpt lat="42.231119" lon="2.541592">
        <ele>266.0</ele>
        <time>2018-06-10T11:45:15Z</time>
      </trkpt>
      <trkpt lat="42.231670" lon="2.540749">
        <ele>267.0</ele>
        <time>2018-06-10T11:45:37Z</time>
      </trkpt>
      <trkpt lat="42.231807" lon="2.540375">
        <ele>267.0</ele>
        <time>2018-06-10T11:45:45Z</time>
      </trkpt>
      <trkpt lat="42.232290" lon="2.539905">
        <ele>268.0</ele>
        <time>2018-06-10T11:46:01Z</time>
      </trkpt>
      <trkpt lat="42.232413" lon="2.539649">
        <ele>266.4</ele>
        <time>2018-06-10T11:46:07Z</time>
      </trkpt>
      <trkpt lat="42.232560" lon="2.539418">
        <ele>267.9</ele>
        <time>2018-06-10T11:46:13Z</time>
      </trkpt>
      <trkpt lat="42.232703" lon="2.539157">
        <ele>267.8</ele>
        <time>2018-06-10T11:46:19Z</time>
      </trkpt>
      <trkpt lat="42.232770" lon="2.538690">
        <ele>267.0</ele>
        <time>2018-06-10T11:46:29Z</time>
      </trkpt>
      <trkpt lat="42.232810" lon="2.538576">
        <ele>269.0</ele>
        <time>2018-06-10T11:46:31Z</time>
      </trkpt>
      <trkpt lat="42.232810" lon="2.538415">
        <ele>268.6</ele>
        <time>2018-06-10T11:46:34Z</time>
      </trkpt>
      <trkpt lat="42.232768" lon="2.538317">
        <ele>269.0</ele>
        <time>2018-06-10T11:46:37Z</time>
      </trkpt>
      <trkpt lat="42.232212" lon="2.537762">
        <ele>271.7</ele>
        <time>2018-06-10T11:46:55Z</time>
      </trkpt>
      <trkpt lat="42.232022" lon="2.537509">
        <ele>272.0</ele>
        <time>2018-06-10T11:47:02Z</time>
      </trkpt>
      <trkpt lat="42.231933" lon="2.537298">
        <ele>272.0</ele>
        <time>2018-06-10T11:47:07Z</time>
      </trkpt>
      <trkpt lat="42.231549" lon="2.536301">
        <ele>273.0</ele>
        <time>2018-06-10T11:47:29Z</time>
      </trkpt>
      <trkpt lat="42.231548" lon="2.536155">
        <ele>273.0</ele>
        <time>2018-06-10T11:47:32Z</time>
      </trkpt>
      <trkpt lat="42.231529" lon="2.535719">
        <ele>274.0</ele>
        <time>2018-06-10T11:47:41Z</time>
      </trkpt>
      <trkpt lat="42.231546" lon="2.535550">
        <ele>274.0</ele>
        <time>2018-06-10T11:47:44Z</time>
      </trkpt>
      <trkpt lat="42.231707" lon="2.535257">
        <ele>275.0</ele>
        <time>2018-06-10T11:47:51Z</time>
      </trkpt>
      <trkpt lat="42.231853" lon="2.534688">
        <ele>277.0</ele>
        <time>2018-06-10T11:48:03Z</time>
      </trkpt>
      <trkpt lat="42.231938" lon="2.534504">
        <ele>278.6</ele>
        <time>2018-06-10T11:48:07Z</time>
      </trkpt>
      <trkpt lat="42.232060" lon="2.534314">
        <ele>278.8</ele>
        <time>2018-06-10T11:48:12Z</time>
      </trkpt>
      <trkpt lat="42.232335" lon="2.534032">
        <ele>281.0</ele>
        <time>2018-06-10T11:48:22Z</time>
      </trkpt>
      <trkpt lat="42.232422" lon="2.533919">
        <ele>281.6</ele>
        <time>2018-06-10T11:48:25Z</time>
      </trkpt>
      <trkpt lat="42.232314" lon="2.533896">
        <ele>280.1</ele>
        <time>2018-06-10T11:48:28Z</time>
      </trkpt>
      <trkpt lat="42.232313" lon="2.533775">
        <ele>279.1</ele>
        <time>2018-06-10T11:48:30Z</time>
      </trkpt>
      <trkpt lat="42.232334" lon="2.533659">
        <ele>277.9</ele>
        <time>2018-06-10T11:48:32Z</time>
      </trkpt>
      <trkpt lat="42.232456" lon="2.533483">
        <ele>276.0</ele>
        <time>2018-06-10T11:48:37Z</time>
      </trkpt>
      <trkpt lat="42.232708" lon="2.533311">
        <ele>277.0</ele>
        <time>2018-06-10T11:48:45Z</time>
      </trkpt>
      <trkpt lat="42.232869" lon="2.533140">
        <ele>278.0</ele>
        <time>2018-06-10T11:48:50Z</time>
      </trkpt>
      <trkpt lat="42.232885" lon="2.533003">
        <ele>278.9</ele>
        <time>2018-06-10T11:48:53Z</time>
      </trkpt>
      <trkpt lat="42.232760" lon="2.532826">
        <ele>280.0</ele>
        <time>2018-06-10T11:48:58Z</time>
      </trkpt>
      <trkpt lat="42.232741" lon="2.532656">
        <ele>280.5</ele>
        <time>2018-06-10T11:49:01Z</time>
      </trkpt>
      <trkpt lat="42.232745" lon="2.532538">
        <ele>279.5</ele>
        <time>2018-06-10T11:49:04Z</time>
      </trkpt>
      <trkpt lat="42.232674" lon="2.532165">
        <ele>281.5</ele>
        <time>2018-06-10T11:49:11Z</time>
      </trkpt>
      <trkpt lat="42.232630" lon="2.531954">
        <ele>282.0</ele>
        <time>2018-06-10T11:49:15Z</time>
      </trkpt>
      <trkpt lat="42.232630" lon="2.531833">
        <ele>282.1</ele>
        <time>2018-06-10T11:49:18Z</time>
      </trkpt>
      <trkpt lat="42.232683" lon="2.531590">
        <ele>283.5</ele>
        <time>2018-06-10T11:49:23Z</time>
      </trkpt>
      <trkpt lat="42.232646" lon="2.531469">
        <ele>284.1</ele>
        <time>2018-06-10T11:49:25Z</time>
      </trkpt>
      <trkpt lat="42.232283" lon="2.530721">
        <ele>285.3</ele>
        <time>2018-06-10T11:49:43Z</time>
      </trkpt>
      <trkpt lat="42.232264" lon="2.530527">
        <ele>286.5</ele>
        <time>2018-06-10T11:49:47Z</time>
      </trkpt>
      <trkpt lat="42.232250" lon="2.530024">
        <ele>289.1</ele>
        <time>2018-06-10T11:49:57Z</time>
      </trkpt>
      <trkpt lat="42.232178" lon="2.529279">
        <ele>289.9</ele>
        <time>2018-06-10T11:50:12Z</time>
      </trkpt>
      <trkpt lat="42.232114" lon="2.528977">
        <ele>290.7</ele>
        <time>2018-06-10T11:50:18Z</time>
      </trkpt>
      <trkpt lat="42.232077" lon="2.528832">
        <ele>292.0</ele>
        <time>2018-06-10T11:50:21Z</time>
      </trkpt>
      <trkpt lat="42.231986" lon="2.528663">
        <ele>292.8</ele>
        <time>2018-06-10T11:50:25Z</time>
      </trkpt>
      <trkpt lat="42.231859" lon="2.528494">
        <ele>294.7</ele>
        <time>2018-06-10T11:50:30Z</time>
      </trkpt>
      <trkpt lat="42.231688" lon="2.528257">
        <ele>295.2</ele>
        <time>2018-06-10T11:50:36Z</time>
      </trkpt>
      <trkpt lat="42.231409" lon="2.527700">
        <ele>295.9</ele>
        <time>2018-06-10T11:50:50Z</time>
      </trkpt>
      <trkpt lat="42.231261" lon="2.527408">
        <ele>297.4</ele>
        <time>2018-06-10T11:50:57Z</time>
      </trkpt>
      <trkpt lat="42.231097" lon="2.526997">
        <ele>296.8</ele>
        <time>2018-06-10T11:51:06Z</time>
      </trkpt>
      <trkpt lat="42.231058" lon="2.526491">
        <ele>303.0</ele>
        <time>2018-06-10T11:51:16Z</time>
      </trkpt>
      <trkpt lat="42.231094" lon="2.526415">
        <ele>304.8</ele>
        <time>2018-06-10T11:51:18Z</time>
      </trkpt>
      <trkpt lat="42.231166" lon="2.526390">
        <ele>306.7</ele>
        <time>2018-06-10T11:51:20Z</time>
      </trkpt>
      <trkpt lat="42.231293" lon="2.526535">
        <ele>309.2</ele>
        <time>2018-06-10T11:51:24Z</time>
      </trkpt>
      <trkpt lat="42.231383" lon="2.526559">
        <ele>311.4</ele>
        <time>2018-06-10T11:51:27Z</time>
      </trkpt>
      <trkpt lat="42.231418" lon="2.526364">
        <ele>314.0</ele>
        <time>2018-06-10T11:51:31Z</time>
      </trkpt>
      <trkpt lat="42.231524" lon="2.525733">
        <ele>325.0</ele>
        <time>2018-06-10T11:51:44Z</time>
      </trkpt>
      <trkpt lat="42.231596" lon="2.525660">
        <ele>326.2</ele>
        <time>2018-06-10T11:51:46Z</time>
      </trkpt>
      <trkpt lat="42.231595" lon="2.525563">
        <ele>327.0</ele>
        <time>2018-06-10T11:51:48Z</time>
      </trkpt>
      <trkpt lat="42.231505" lon="2.525515">
        <ele>327.6</ele>
        <time>2018-06-10T11:51:51Z</time>
      </trkpt>
      <trkpt lat="42.231378" lon="2.525419">
        <ele>330.1</ele>
        <time>2018-06-10T11:51:55Z</time>
      </trkpt>
      <trkpt lat="42.231378" lon="2.525274">
        <ele>332.6</ele>
        <time>2018-06-10T11:51:57Z</time>
      </trkpt>
      <trkpt lat="42.231557" lon="2.525151">
        <ele>336.0</ele>
        <time>2018-06-10T11:52:03Z</time>
      </trkpt>
      <trkpt lat="42.231611" lon="2.525054">
        <ele>337.3</ele>
        <time>2018-06-10T11:52:05Z</time>
      </trkpt>
      <trkpt lat="42.231593" lon="2.524957">
        <ele>339.6</ele>
        <time>2018-06-10T11:52:07Z</time>
      </trkpt>
      <trkpt lat="42.231465" lon="2.524716">
        <ele>344.8</ele>
        <time>2018-06-10T11:52:13Z</time>
      </trkpt>
      <trkpt lat="42.231429" lon="2.524522">
        <ele>348.3</ele>
        <time>2018-06-10T11:52:17Z</time>
      </trkpt>
      <trkpt lat="42.231481" lon="2.524134">
        <ele>353.9</ele>
        <time>2018-06-10T11:52:25Z</time>
      </trkpt>
      <trkpt lat="42.231463" lon="2.523878">
        <ele>358.5</ele>
        <time>2018-06-10T11:52:30Z</time>
      </trkpt>
      <trkpt lat="42.231112" lon="2.522948">
        <ele>360.0</ele>
        <time>2018-06-10T11:52:51Z</time>
      </trkpt>
      <trkpt lat="42.231004" lon="2.522794">
        <ele>362.0</ele>
        <time>2018-06-10T11:52:55Z</time>
      </trkpt>
      <trkpt lat="42.230830" lon="2.522687">
        <ele>362.5</ele>
        <time>2018-06-10T11:53:00Z</time>
      </trkpt>
      <trkpt lat="42.230786" lon="2.522569">
        <ele>363.1</ele>
        <time>2018-06-10T11:53:03Z</time>
      </trkpt>
      <trkpt lat="42.230694" lon="2.522392">
        <ele>364.2</ele>
        <time>2018-06-10T11:53:07Z</time>
      </trkpt>
      <trkpt lat="42.230699" lon="2.522129">
        <ele>366.2</ele>
        <time>2018-06-10T11:53:12Z</time>
      </trkpt>
      <trkpt lat="42.230738" lon="2.521909">
        <ele>369.0</ele>
        <time>2018-06-10T11:53:17Z</time>
      </trkpt>
      <trkpt lat="42.230830" lon="2.521738">
        <ele>370.3</ele>
        <time>2018-06-10T11:53:21Z</time>
      </trkpt>
      <trkpt lat="42.230878" lon="2.521716">
        <ele>371.6</ele>
        <time>2018-06-10T11:53:22Z</time>
      </trkpt>
      <trkpt lat="42.230905" lon="2.521732">
        <ele>372.8</ele>
        <time>2018-06-10T11:53:23Z</time>
      </trkpt>
      <trkpt lat="42.230977" lon="2.522006">
        <ele>373.5</ele>
        <time>2018-06-10T11:53:29Z</time>
      </trkpt>
      <trkpt lat="42.231092" lon="2.522199">
        <ele>374.0</ele>
        <time>2018-06-10T11:53:34Z</time>
      </trkpt>
      <trkpt lat="42.231219" lon="2.522295">
        <ele>376.0</ele>
        <time>2018-06-10T11:53:38Z</time>
      </trkpt>
      <trkpt lat="42.231291" lon="2.522322">
        <ele>377.7</ele>
        <time>2018-06-10T11:53:40Z</time>
      </trkpt>
      <trkpt lat="42.231338" lon="2.522263">
        <ele>379.5</ele>
        <time>2018-06-10T11:53:42Z</time>
      </trkpt>
      <trkpt lat="42.231331" lon="2.521668">
        <ele>386.8</ele>
        <time>2018-06-10T11:53:53Z</time>
      </trkpt>
      <trkpt lat="42.231382" lon="2.521566">
        <ele>388.5</ele>
        <time>2018-06-10T11:53:56Z</time>
      </trkpt>
      <trkpt lat="42.231434" lon="2.521492">
        <ele>389.7</ele>
        <time>2018-06-10T11:53:58Z</time>
      </trkpt>
      <trkpt lat="42.231501" lon="2.521491">
        <ele>391.2</ele>
        <time>2018-06-10T11:54:00Z</time>
      </trkpt>
      <trkpt lat="42.231672" lon="2.521716">
        <ele>395.0</ele>
        <time>2018-06-10T11:54:06Z</time>
      </trkpt>
      <trkpt lat="42.231851" lon="2.521785">
        <ele>399.0</ele>
        <time>2018-06-10T11:54:11Z</time>
      </trkpt>
      <trkpt lat="42.232009" lon="2.521916">
        <ele>401.4</ele>
        <time>2018-06-10T11:54:16Z</time>
      </trkpt>
      <trkpt lat="42.232121" lon="2.521920">
        <ele>403.8</ele>
        <time>2018-06-10T11:54:19Z</time>
      </trkpt>
      <trkpt lat="42.232301" lon="2.521995">
        <ele>405.5</ele>
        <time>2018-06-10T11:54:24Z</time>
      </trkpt>
      <trkpt lat="42.232319" lon="2.521922">
        <ele>406.8</ele>
        <time>2018-06-10T11:54:26Z</time>
      </trkpt>
      <trkpt lat="42.232264" lon="2.521704">
        <ele>410.4</ele>
        <time>2018-06-10T11:54:30Z</time>
      </trkpt>
      <trkpt lat="42.232245" lon="2.521486">
        <ele>415.0</ele>
        <time>2018-06-10T11:54:35Z</time>
      </trkpt>
      <trkpt lat="42.232262" lon="2.521365">
        <ele>418.1</ele>
        <time>2018-06-10T11:54:37Z</time>
      </trkpt>
      <trkpt lat="42.232370" lon="2.521291">
        <ele>420.7</ele>
        <time>2018-06-10T11:54:41Z</time>
      </trkpt>
      <trkpt lat="42.232531" lon="2.520951">
        <ele>426.1</ele>
        <time>2018-06-10T11:54:49Z</time>
      </trkpt>
      <trkpt lat="42.232602" lon="2.520732">
        <ele>429.3</ele>
        <time>2018-06-10T11:54:54Z</time>
      </trkpt>
      <trkpt lat="42.232637" lon="2.520514">
        <ele>433.0</ele>
        <time>2018-06-10T11:54:58Z</time>
      </trkpt>
      <trkpt lat="42.232654" lon="2.520368">
        <ele>434.9</ele>
        <time>2018-06-10T11:55:01Z</time>
      </trkpt>
      <trkpt lat="42.232708" lon="2.520222">
        <ele>437.1</ele>
        <time>2018-06-10T11:55:04Z</time>
      </trkpt>
      <trkpt lat="42.232916" lon="2.519940">
        <ele>441.5</ele>
        <time>2018-06-10T11:55:12Z</time>
      </trkpt>
      <trkpt lat="42.233048" lon="2.519856">
        <ele>441.3</ele>
        <time>2018-06-10T11:55:16Z</time>
      </trkpt>
      <trkpt lat="42.233209" lon="2.519467">
        <ele>445.2</ele>
        <time>2018-06-10T11:55:25Z</time>
      </trkpt>
      <trkpt lat="42.233386" lon="2.518836">
        <ele>454.6</ele>
        <time>2018-06-10T11:55:38Z</time>
      </trkpt>
      <trkpt lat="42.233493" lon="2.518447">
        <ele>459.0</ele>
        <time>2018-06-10T11:55:47Z</time>
      </trkpt>
      <trkpt lat="42.233587" lon="2.518268">
        <ele>462.7</ele>
        <time>2018-06-10T11:55:51Z</time>
      </trkpt>
      <trkpt lat="42.233870" lon="2.518105">
        <ele>466.2</ele>
        <time>2018-06-10T11:55:59Z</time>
      </trkpt>
      <trkpt lat="42.234138" lon="2.517763">
        <ele>471.2</ele>
        <time>2018-06-10T11:56:09Z</time>
      </trkpt>
      <trkpt lat="42.234318" lon="2.517520">
        <ele>475.4</ele>
        <time>2018-06-10T11:56:16Z</time>
      </trkpt>
      <trkpt lat="42.234621" lon="2.517235">
        <ele>479.1</ele>
        <time>2018-06-10T11:56:26Z</time>
      </trkpt>
      <trkpt lat="42.234760" lon="2.517141">
        <ele>481.4</ele>
        <time>2018-06-10T11:56:30Z</time>
      </trkpt>
      <trkpt lat="42.234897" lon="2.516953">
        <ele>482.9</ele>
        <time>2018-06-10T11:56:35Z</time>
      </trkpt>
      <trkpt lat="42.234963" lon="2.516860">
        <ele>483.5</ele>
        <time>2018-06-10T11:56:38Z</time>
      </trkpt>
      <trkpt lat="42.234999" lon="2.516787">
        <ele>483.1</ele>
        <time>2018-06-10T11:56:39Z</time>
      </trkpt>
      <trkpt lat="42.234980" lon="2.516618">
        <ele>484.0</ele>
        <time>2018-06-10T11:56:43Z</time>
      </trkpt>
      <trkpt lat="42.234895" lon="2.516487">
        <ele>485.0</ele>
        <time>2018-06-10T11:56:46Z</time>
      </trkpt>
      <trkpt lat="42.234617" lon="2.516210">
        <ele>488.2</ele>
        <time>2018-06-10T11:56:56Z</time>
      </trkpt>
      <trkpt lat="42.234528" lon="2.516064">
        <ele>490.2</ele>
        <time>2018-06-10T11:56:59Z</time>
      </trkpt>
      <trkpt lat="42.234526" lon="2.515749">
        <ele>492.1</ele>
        <time>2018-06-10T11:57:05Z</time>
      </trkpt>
      <trkpt lat="42.234507" lon="2.515531">
        <ele>494.5</ele>
        <time>2018-06-10T11:57:10Z</time>
      </trkpt>
      <trkpt lat="42.234613" lon="2.515021">
        <ele>500.4</ele>
        <time>2018-06-10T11:57:20Z</time>
      </trkpt>
      <trkpt lat="42.234613" lon="2.514875">
        <ele>501.9</ele>
        <time>2018-06-10T11:57:23Z</time>
      </trkpt>
      <trkpt lat="42.234576" lon="2.514706">
        <ele>502.9</ele>
        <time>2018-06-10T11:57:27Z</time>
      </trkpt>
      <trkpt lat="42.234195" lon="2.514054">
        <ele>505.2</ele>
        <time>2018-06-10T11:57:43Z</time>
      </trkpt>
      <trkpt lat="42.234104" lon="2.513789">
        <ele>504.4</ele>
        <time>2018-06-10T11:57:49Z</time>
      </trkpt>
      <trkpt lat="42.233869" lon="2.513645">
        <ele>505.9</ele>
        <time>2018-06-10T11:57:56Z</time>
      </trkpt>
      <trkpt lat="42.233652" lon="2.513453">
        <ele>507.6</ele>
        <time>2018-06-10T11:58:03Z</time>
      </trkpt>
      <trkpt lat="42.233582" lon="2.513388">
        <ele>507.4</ele>
        <time>2018-06-10T11:58:05Z</time>
      </trkpt>
      <trkpt lat="42.233546" lon="2.513337">
        <ele>506.7</ele>
        <time>2018-06-10T11:58:06Z</time>
      </trkpt>
      <trkpt lat="42.233507" lon="2.513260">
        <ele>506.7</ele>
        <time>2018-06-10T11:58:08Z</time>
      </trkpt>
      <trkpt lat="42.233217" lon="2.512864">
        <ele>513.4</ele>
        <time>2018-06-10T11:58:19Z</time>
      </trkpt>
      <trkpt lat="42.233078" lon="2.512772">
        <ele>519.0</ele>
        <time>2018-06-10T11:58:24Z</time>
      </trkpt>
      <trkpt lat="42.232800" lon="2.512401">
        <ele>526.1</ele>
        <time>2018-06-10T11:58:34Z</time>
      </trkpt>
      <trkpt lat="42.232708" lon="2.512423">
        <ele>527.7</ele>
        <time>2018-06-10T11:58:37Z</time>
      </trkpt>
      <trkpt lat="42.232607" lon="2.512482">
        <ele>529.4</ele>
        <time>2018-06-10T11:58:40Z</time>
      </trkpt>
      <trkpt lat="42.232525" lon="2.512543">
        <ele>531.8</ele>
        <time>2018-06-10T11:58:42Z</time>
      </trkpt>
      <trkpt lat="42.232450" lon="2.512616">
        <ele>532.7</ele>
        <time>2018-06-10T11:58:45Z</time>
      </trkpt>
      <trkpt lat="42.232414" lon="2.512634">
        <ele>533.6</ele>
        <time>2018-06-10T11:58:46Z</time>
      </trkpt>
      <trkpt lat="42.232368" lon="2.512640">
        <ele>534.0</ele>
        <time>2018-06-10T11:58:47Z</time>
      </trkpt>
      <trkpt lat="42.232331" lon="2.512618">
        <ele>534.7</ele>
        <time>2018-06-10T11:58:48Z</time>
      </trkpt>
      <trkpt lat="42.232287" lon="2.512546">
        <ele>536.8</ele>
        <time>2018-06-10T11:58:50Z</time>
      </trkpt>
      <trkpt lat="42.232176" lon="2.512280">
        <ele>541.0</ele>
        <time>2018-06-10T11:58:56Z</time>
      </trkpt>
      <trkpt lat="42.232124" lon="2.512200">
        <ele>543.6</ele>
        <time>2018-06-10T11:58:58Z</time>
      </trkpt>
      <trkpt lat="42.232061" lon="2.512173">
        <ele>543.5</ele>
        <time>2018-06-10T11:59:00Z</time>
      </trkpt>
      <trkpt lat="42.231868" lon="2.512119">
        <ele>545.2</ele>
        <time>2018-06-10T11:59:05Z</time>
      </trkpt>
      <trkpt lat="42.231747" lon="2.512103">
        <ele>547.3</ele>
        <time>2018-06-10T11:59:09Z</time>
      </trkpt>
      <trkpt lat="42.231645" lon="2.512093">
        <ele>548.4</ele>
        <time>2018-06-10T11:59:11Z</time>
      </trkpt>
      <trkpt lat="42.231550" lon="2.512133">
        <ele>548.2</ele>
        <time>2018-06-10T11:59:14Z</time>
      </trkpt>
      <trkpt lat="42.231391" lon="2.512278">
        <ele>548.4</ele>
        <time>2018-06-10T11:59:19Z</time>
      </trkpt>
      <trkpt lat="42.231319" lon="2.512342">
        <ele>549.1</ele>
        <time>2018-06-10T11:59:21Z</time>
      </trkpt>
      <trkpt lat="42.231244" lon="2.512423">
        <ele>548.9</ele>
        <time>2018-06-10T11:59:24Z</time>
      </trkpt>
      <trkpt lat="42.231121" lon="2.512514">
        <ele>549.2</ele>
        <time>2018-06-10T11:59:28Z</time>
      </trkpt>
      <trkpt lat="42.231068" lon="2.512508">
        <ele>549.3</ele>
        <time>2018-06-10T11:59:29Z</time>
      </trkpt>
      <trkpt lat="42.231036" lon="2.512455">
        <ele>550.0</ele>
        <time>2018-06-10T11:59:30Z</time>
      </trkpt>
      <trkpt lat="42.231017" lon="2.512358">
        <ele>550.2</ele>
        <time>2018-06-10T11:59:32Z</time>
      </trkpt>
      <trkpt lat="42.231018" lon="2.512313">
        <ele>550.3</ele>
        <time>2018-06-10T11:59:33Z</time>
      </trkpt>
      <trkpt lat="42.231075" lon="2.512195">
        <ele>551.3</ele>
        <time>2018-06-10T11:59:36Z</time>
      </trkpt>
      <trkpt lat="42.231153" lon="2.512017">
        <ele>552.3</ele>
        <time>2018-06-10T11:59:40Z</time>
      </trkpt>
      <trkpt lat="42.231270" lon="2.511838">
        <ele>554.9</ele>
        <time>2018-06-10T11:59:45Z</time>
      </trkpt>
      <trkpt lat="42.231407" lon="2.511671">
        <ele>557.9</ele>
        <time>2018-06-10T11:59:50Z</time>
      </trkpt>
      <trkpt lat="42.231562" lon="2.511556">
        <ele>560.4</ele>
        <time>2018-06-10T11:59:55Z</time>
      </trkpt>
      <trkpt lat="42.231672" lon="2.511476">
        <ele>563.2</ele>
        <time>2018-06-10T11:59:58Z</time>
      </trkpt>
      <trkpt lat="42.231722" lon="2.511395">
        <ele>564.6</ele>
        <time>2018-06-10T12:00:00Z</time>
      </trkpt>
      <trkpt lat="42.231748" lon="2.511242">
        <ele>566.1</ele>
        <time>2018-06-10T12:00:03Z</time>
      </trkpt>
      <trkpt lat="42.231788" lon="2.510896">
        <ele>570.8</ele>
        <time>2018-06-10T12:00:10Z</time>
      </trkpt>
      <trkpt lat="42.231792" lon="2.510778">
        <ele>571.9</ele>
        <time>2018-06-10T12:00:13Z</time>
      </trkpt>
      <trkpt lat="42.231774" lon="2.510647">
        <ele>573.0</ele>
        <time>2018-06-10T12:00:15Z</time>
      </trkpt>
      <trkpt lat="42.231776" lon="2.510574">
        <ele>574.2</ele>
        <time>2018-06-10T12:00:17Z</time>
      </trkpt>
      <trkpt lat="42.231804" lon="2.510526">
        <ele>575.0</ele>
        <time>2018-06-10T12:00:18Z</time>
      </trkpt>
      <trkpt lat="42.231865" lon="2.510435">
        <ele>576.4</ele>
        <time>2018-06-10T12:00:20Z</time>
      </trkpt>
      <trkpt lat="42.231945" lon="2.510330">
        <ele>577.9</ele>
        <time>2018-06-10T12:00:23Z</time>
      </trkpt>
      <trkpt lat="42.231945" lon="2.510266">
        <ele>578.2</ele>
        <time>2018-06-10T12:00:25Z</time>
      </trkpt>
      <trkpt lat="42.231923" lon="2.510226">
        <ele>579.3</ele>
        <time>2018-06-10T12:00:26Z</time>
      </trkpt>
      <trkpt lat="42.231891" lon="2.510199">
        <ele>580.3</ele>
        <time>2018-06-10T12:00:27Z</time>
      </trkpt>
      <trkpt lat="42.231835" lon="2.510207">
        <ele>580.2</ele>
        <time>2018-06-10T12:00:28Z</time>
      </trkpt>
      <trkpt lat="42.231802" lon="2.510177">
        <ele>580.7</ele>
        <time>2018-06-10T12:00:29Z</time>
      </trkpt>
      <trkpt lat="42.231788" lon="2.510132">
        <ele>581.4</ele>
        <time>2018-06-10T12:00:30Z</time>
      </trkpt>
      <trkpt lat="42.231788" lon="2.509992">
        <ele>584.1</ele>
        <time>2018-06-10T12:00:33Z</time>
      </trkpt>
      <trkpt lat="42.231805" lon="2.509791">
        <ele>588.1</ele>
        <time>2018-06-10T12:00:37Z</time>
      </trkpt>
      <trkpt lat="42.231911" lon="2.509587">
        <ele>592.4</ele>
        <time>2018-06-10T12:00:42Z</time>
      </trkpt>
      <trkpt lat="42.232014" lon="2.509499">
        <ele>592.4</ele>
        <time>2018-06-10T12:00:45Z</time>
      </trkpt>
      <trkpt lat="42.232074" lon="2.509426">
        <ele>592.1</ele>
        <time>2018-06-10T12:00:47Z</time>
      </trkpt>
      <trkpt lat="42.232119" lon="2.509338">
        <ele>593.0</ele>
        <time>2018-06-10T12:00:50Z</time>
      </trkpt>
      <trkpt lat="42.232125" lon="2.509262">
        <ele>595.2</ele>
        <time>2018-06-10T12:00:51Z</time>
      </trkpt>
      <trkpt lat="42.232318" lon="2.509100">
        <ele>595.9</ele>
        <time>2018-06-10T12:00:57Z</time>
      </trkpt>
      <trkpt lat="42.232421" lon="2.509009">
        <ele>596.9</ele>
        <time>2018-06-10T12:01:01Z</time>
      </trkpt>
      <trkpt lat="42.232514" lon="2.508947">
        <ele>597.9</ele>
        <time>2018-06-10T12:01:03Z</time>
      </trkpt>
      <trkpt lat="42.232914" lon="2.508802">
        <ele>598.2</ele>
        <time>2018-06-10T12:01:14Z</time>
      </trkpt>
      <trkpt lat="42.232969" lon="2.508767">
        <ele>598.5</ele>
        <time>2018-06-10T12:01:16Z</time>
      </trkpt>
      <trkpt lat="42.233041" lon="2.508712">
        <ele>599.2</ele>
        <time>2018-06-10T12:01:18Z</time>
      </trkpt>
      <trkpt lat="42.233246" lon="2.508512">
        <ele>599.8</ele>
        <time>2018-06-10T12:01:25Z</time>
      </trkpt>
      <trkpt lat="42.233396" lon="2.508340">
        <ele>599.3</ele>
        <time>2018-06-10T12:01:30Z</time>
      </trkpt>
      <trkpt lat="42.233652" lon="2.507898">
        <ele>598.9</ele>
        <time>2018-06-10T12:01:41Z</time>
      </trkpt>
      <trkpt lat="42.233664" lon="2.507821">
        <ele>599.5</ele>
        <time>2018-06-10T12:01:43Z</time>
      </trkpt>
      <trkpt lat="42.233665" lon="2.507566">
        <ele>598.9</ele>
        <time>2018-06-10T12:01:48Z</time>
      </trkpt>
      <trkpt lat="42.233668" lon="2.507372">
        <ele>598.0</ele>
        <time>2018-06-10T12:01:52Z</time>
      </trkpt>
      <trkpt lat="42.233664" lon="2.507241">
        <ele>599.8</ele>
        <time>2018-06-10T12:01:54Z</time>
      </trkpt>
      <trkpt lat="42.233664" lon="2.507155">
        <ele>601.4</ele>
        <time>2018-06-10T12:01:56Z</time>
      </trkpt>
      <trkpt lat="42.233686" lon="2.507072">
        <ele>602.3</ele>
        <time>2018-06-10T12:01:58Z</time>
      </trkpt>
      <trkpt lat="42.233744" lon="2.506965">
        <ele>602.4</ele>
        <time>2018-06-10T12:02:00Z</time>
      </trkpt>
      <trkpt lat="42.233815" lon="2.506764">
        <ele>603.9</ele>
        <time>2018-06-10T12:02:05Z</time>
      </trkpt>
      <trkpt lat="42.233915" lon="2.506555">
        <ele>603.8</ele>
        <time>2018-06-10T12:02:10Z</time>
      </trkpt>
      <trkpt lat="42.233921" lon="2.506490">
        <ele>603.7</ele>
        <time>2018-06-10T12:02:11Z</time>
      </trkpt>
      <trkpt lat="42.233916" lon="2.506402">
        <ele>604.3</ele>
        <time>2018-06-10T12:02:13Z</time>
      </trkpt>
      <trkpt lat="42.233923" lon="2.506151">
        <ele>606.1</ele>
        <time>2018-06-10T12:02:18Z</time>
      </trkpt>
      <trkpt lat="42.233987" lon="2.505920">
        <ele>607.6</ele>
        <time>2018-06-10T12:02:22Z</time>
      </trkpt>
      <trkpt lat="42.234047" lon="2.505765">
        <ele>609.0</ele>
        <time>2018-06-10T12:02:26Z</time>
      </trkpt>
      <trkpt lat="42.234008" lon="2.505612">
        <ele>610.6</ele>
        <time>2018-06-10T12:02:29Z</time>
      </trkpt>
      <trkpt lat="42.233931" lon="2.505304">
        <ele>610.0</ele>
        <time>2018-06-10T12:02:36Z</time>
      </trkpt>
      <trkpt lat="42.233991" lon="2.504385">
        <ele>613.7</ele>
        <time>2018-06-10T12:02:54Z</time>
      </trkpt>
      <trkpt lat="42.233988" lon="2.503561">
        <ele>614.8</ele>
        <time>2018-06-10T12:03:10Z</time>
      </trkpt>
      <trkpt lat="42.233937" lon="2.503175">
        <ele>617.0</ele>
        <time>2018-06-10T12:03:18Z</time>
      </trkpt>
      <trkpt lat="42.233936" lon="2.502736">
        <ele>618.0</ele>
        <time>2018-06-10T12:03:26Z</time>
      </trkpt>
      <trkpt lat="42.234019" lon="2.502445">
        <ele>617.2</ele>
        <time>2018-06-10T12:03:33Z</time>
      </trkpt>
      <trkpt lat="42.234450" lon="2.501863">
        <ele>616.0</ele>
        <time>2018-06-10T12:03:49Z</time>
      </trkpt>
      <trkpt lat="42.234562" lon="2.501503">
        <ele>617.9</ele>
        <time>2018-06-10T12:03:56Z</time>
      </trkpt>
      <trkpt lat="42.234769" lon="2.501122">
        <ele>618.1</ele>
        <time>2018-06-10T12:04:06Z</time>
      </trkpt>
      <trkpt lat="42.235013" lon="2.500811">
        <ele>622.5</ele>
        <time>2018-06-10T12:04:15Z</time>
      </trkpt>
      <trkpt lat="42.235180" lon="2.500730">
        <ele>622.2</ele>
        <time>2018-06-10T12:04:20Z</time>
      </trkpt>
      <trkpt lat="42.235504" lon="2.500204">
        <ele>622.7</ele>
        <time>2018-06-10T12:04:33Z</time>
      </trkpt>
      <trkpt lat="42.235771" lon="2.499474">
        <ele>631.7</ele>
        <time>2018-06-10T12:04:49Z</time>
      </trkpt>
      <trkpt lat="42.236200" lon="2.498695">
        <ele>635.9</ele>
        <time>2018-06-10T12:05:08Z</time>
      </trkpt>
      <trkpt lat="42.236401" lon="2.498454">
        <ele>637.3</ele>
        <time>2018-06-10T12:05:16Z</time>
      </trkpt>
      <trkpt lat="42.236556" lon="2.498358">
        <ele>636.4</ele>
        <time>2018-06-10T12:05:20Z</time>
      </trkpt>
      <trkpt lat="42.236782" lon="2.498283">
        <ele>639.3</ele>
        <time>2018-06-10T12:05:26Z</time>
      </trkpt>
      <trkpt lat="42.236989" lon="2.498251">
        <ele>639.8</ele>
        <time>2018-06-10T12:05:32Z</time>
      </trkpt>
      <trkpt lat="42.237315" lon="2.498250">
        <ele>638.8</ele>
        <time>2018-06-10T12:05:41Z</time>
      </trkpt>
      <trkpt lat="42.237589" lon="2.498143">
        <ele>641.3</ele>
        <time>2018-06-10T12:05:48Z</time>
      </trkpt>
      <trkpt lat="42.237791" lon="2.498009">
        <ele>641.4</ele>
        <time>2018-06-10T12:05:54Z</time>
      </trkpt>
      <trkpt lat="42.238256" lon="2.497698">
        <ele>645.2</ele>
        <time>2018-06-10T12:06:08Z</time>
      </trkpt>
      <trkpt lat="42.238451" lon="2.497457">
        <ele>646.9</ele>
        <time>2018-06-10T12:06:15Z</time>
      </trkpt>
      <trkpt lat="42.238528" lon="2.497218">
        <ele>650.0</ele>
        <time>2018-06-10T12:06:20Z</time>
      </trkpt>
      <trkpt lat="42.238606" lon="2.496834">
        <ele>652.7</ele>
        <time>2018-06-10T12:06:28Z</time>
      </trkpt>
      <trkpt lat="42.238488" lon="2.495965">
        <ele>654.4</ele>
        <time>2018-06-10T12:06:45Z</time>
      </trkpt>
      <trkpt lat="42.238382" lon="2.495042">
        <ele>656.5</ele>
        <time>2018-06-10T12:07:04Z</time>
      </trkpt>
      <trkpt lat="42.238483" lon="2.494753">
        <ele>653.0</ele>
        <time>2018-06-10T12:07:10Z</time>
      </trkpt>
      <trkpt lat="42.238595" lon="2.494410">
        <ele>651.4</ele>
        <time>2018-06-10T12:07:18Z</time>
      </trkpt>
      <trkpt lat="42.238989" lon="2.493728">
        <ele>651.2</ele>
        <time>2018-06-10T12:07:35Z</time>
      </trkpt>
      <trkpt lat="42.239078" lon="2.493534">
        <ele>654.2</ele>
        <time>2018-06-10T12:07:39Z</time>
      </trkpt>
      <trkpt lat="42.239689" lon="2.493238">
        <ele>663.7</ele>
        <time>2018-06-10T12:07:57Z</time>
      </trkpt>
      <trkpt lat="42.240069" lon="2.493155">
        <ele>664.0</ele>
        <time>2018-06-10T12:08:07Z</time>
      </trkpt>
      <trkpt lat="42.240151" lon="2.493106">
        <ele>663.7</ele>
        <time>2018-06-10T12:08:09Z</time>
      </trkpt>
      <trkpt lat="42.240210" lon="2.492991">
        <ele>664.9</ele>
        <time>2018-06-10T12:08:12Z</time>
      </trkpt>
      <trkpt lat="42.240226" lon="2.492603">
        <ele>668.5</ele>
        <time>2018-06-10T12:08:20Z</time>
      </trkpt>
      <trkpt lat="42.240081" lon="2.492192">
        <ele>670.4</ele>
        <time>2018-06-10T12:08:29Z</time>
      </trkpt>
      <trkpt lat="42.239856" lon="2.491851">
        <ele>669.4</ele>
        <time>2018-06-10T12:08:38Z</time>
      </trkpt>
      <trkpt lat="42.239501" lon="2.491518">
        <ele>674.1</ele>
        <time>2018-06-10T12:08:49Z</time>
      </trkpt>
      <trkpt lat="42.239337" lon="2.491035">
        <ele>670.3</ele>
        <time>2018-06-10T12:09:00Z</time>
      </trkpt>
      <trkpt lat="42.239100" lon="2.490528">
        <ele>670.1</ele>
        <time>2018-06-10T12:09:12Z</time>
      </trkpt>
      <trkpt lat="42.238879" lon="2.490274">
        <ele>674.0</ele>
        <time>2018-06-10T12:09:19Z</time>
      </trkpt>
      <trkpt lat="42.238756" lon="2.490094">
        <ele>677.7</ele>
        <time>2018-06-10T12:09:24Z</time>
      </trkpt>
      <trkpt lat="42.238597" lon="2.489251">
        <ele>675.4</ele>
        <time>2018-06-10T12:09:41Z</time>
      </trkpt>
      <trkpt lat="42.238731" lon="2.488131">
        <ele>676.8</ele>
        <time>2018-06-10T12:10:04Z</time>
      </trkpt>
      <trkpt lat="42.238940" lon="2.487817">
        <ele>676.2</ele>
        <time>2018-06-10T12:10:12Z</time>
      </trkpt>
      <trkpt lat="42.239281" lon="2.487194">
        <ele>679.7</ele>
        <time>2018-06-10T12:10:27Z</time>
      </trkpt>
      <trkpt lat="42.239616" lon="2.486903">
        <ele>679.0</ele>
        <time>2018-06-10T12:10:38Z</time>
      </trkpt>
      <trkpt lat="42.239840" lon="2.486777">
        <ele>677.2</ele>
        <time>2018-06-10T12:10:45Z</time>
      </trkpt>
      <trkpt lat="42.240094" lon="2.486572">
        <ele>679.0</ele>
        <time>2018-06-10T12:10:52Z</time>
      </trkpt>
      <trkpt lat="42.240513" lon="2.486345">
        <ele>678.0</ele>
        <time>2018-06-10T12:11:04Z</time>
      </trkpt>
      <trkpt lat="42.240763" lon="2.486116">
        <ele>679.4</ele>
        <time>2018-06-10T12:11:12Z</time>
      </trkpt>
      <trkpt lat="42.240966" lon="2.485992">
        <ele>678.1</ele>
        <time>2018-06-10T12:11:18Z</time>
      </trkpt>
      <trkpt lat="42.241329" lon="2.485777">
        <ele>676.5</ele>
        <time>2018-06-10T12:11:29Z</time>
      </trkpt>
      <trkpt lat="42.241491" lon="2.485591">
        <ele>677.6</ele>
        <time>2018-06-10T12:11:35Z</time>
      </trkpt>
      <trkpt lat="42.241544" lon="2.485314">
        <ele>676.9</ele>
        <time>2018-06-10T12:11:40Z</time>
      </trkpt>
      <trkpt lat="42.241586" lon="2.484835">
        <ele>674.3</ele>
        <time>2018-06-10T12:11:50Z</time>
      </trkpt>
      <trkpt lat="42.241603" lon="2.484296">
        <ele>674.8</ele>
        <time>2018-06-10T12:12:00Z</time>
      </trkpt>
      <trkpt lat="42.241495" lon="2.483460">
        <ele>679.2</ele>
        <time>2018-06-10T12:12:17Z</time>
      </trkpt>
      <trkpt lat="42.241497" lon="2.483000">
        <ele>676.4</ele>
        <time>2018-06-10T12:12:26Z</time>
      </trkpt>
      <trkpt lat="42.241548" lon="2.482887">
        <ele>674.0</ele>
        <time>2018-06-10T12:12:29Z</time>
      </trkpt>
      <trkpt lat="42.241783" lon="2.482525">
        <ele>672.0</ele>
        <time>2018-06-10T12:12:38Z</time>
      </trkpt>
      <trkpt lat="42.242306" lon="2.481948">
        <ele>672.3</ele>
        <time>2018-06-10T12:12:56Z</time>
      </trkpt>
      <trkpt lat="42.242388" lon="2.481835">
        <ele>671.5</ele>
        <time>2018-06-10T12:13:00Z</time>
      </trkpt>
      <trkpt lat="42.242442" lon="2.481701">
        <ele>671.3</ele>
        <time>2018-06-10T12:13:03Z</time>
      </trkpt>
      <trkpt lat="42.242520" lon="2.481179">
        <ele>670.5</ele>
        <time>2018-06-10T12:13:13Z</time>
      </trkpt>
      <trkpt lat="42.242578" lon="2.480955">
        <ele>670.4</ele>
        <time>2018-06-10T12:13:18Z</time>
      </trkpt>
      <trkpt lat="42.242647" lon="2.480826">
        <ele>671.0</ele>
        <time>2018-06-10T12:13:21Z</time>
      </trkpt>
      <trkpt lat="42.243232" lon="2.480283">
        <ele>668.9</ele>
        <time>2018-06-10T12:13:40Z</time>
      </trkpt>
      <trkpt lat="42.243309" lon="2.480172">
        <ele>664.7</ele>
        <time>2018-06-10T12:13:43Z</time>
      </trkpt>
      <trkpt lat="42.243370" lon="2.480031">
        <ele>661.5</ele>
        <time>2018-06-10T12:13:46Z</time>
      </trkpt>
      <trkpt lat="42.243414" lon="2.479542">
        <ele>656.4</ele>
        <time>2018-06-10T12:13:56Z</time>
      </trkpt>
      <trkpt lat="42.243439" lon="2.479310">
        <ele>653.0</ele>
        <time>2018-06-10T12:14:01Z</time>
      </trkpt>
      <trkpt lat="42.243421" lon="2.479195">
        <ele>652.1</ele>
        <time>2018-06-10T12:14:03Z</time>
      </trkpt>
      <trkpt lat="42.243366" lon="2.478990">
        <ele>652.2</ele>
        <time>2018-06-10T12:14:07Z</time>
      </trkpt>
      <trkpt lat="42.243356" lon="2.478850">
        <ele>653.0</ele>
        <time>2018-06-10T12:14:10Z</time>
      </trkpt>
      <trkpt lat="42.243383" lon="2.478729">
        <ele>653.7</ele>
        <time>2018-06-10T12:14:13Z</time>
      </trkpt>
      <trkpt lat="42.243476" lon="2.478528">
        <ele>651.7</ele>
        <time>2018-06-10T12:14:17Z</time>
      </trkpt>
      <trkpt lat="42.243659" lon="2.478090">
        <ele>647.5</ele>
        <time>2018-06-10T12:14:27Z</time>
      </trkpt>
      <trkpt lat="42.244011" lon="2.477342">
        <ele>649.7</ele>
        <time>2018-06-10T12:14:45Z</time>
      </trkpt>
      <trkpt lat="42.244275" lon="2.477013">
        <ele>649.7</ele>
        <time>2018-06-10T12:14:54Z</time>
      </trkpt>
      <trkpt lat="42.244612" lon="2.476707">
        <ele>649.9</ele>
        <time>2018-06-10T12:15:05Z</time>
      </trkpt>
      <trkpt lat="42.244944" lon="2.476462">
        <ele>649.2</ele>
        <time>2018-06-10T12:15:15Z</time>
      </trkpt>
      <trkpt lat="42.245180" lon="2.476289">
        <ele>648.0</ele>
        <time>2018-06-10T12:15:22Z</time>
      </trkpt>
      <trkpt lat="42.245289" lon="2.476180">
        <ele>646.5</ele>
        <time>2018-06-10T12:15:26Z</time>
      </trkpt>
      <trkpt lat="42.245347" lon="2.476071">
        <ele>644.2</ele>
        <time>2018-06-10T12:15:29Z</time>
      </trkpt>
      <trkpt lat="42.245400" lon="2.475816">
        <ele>643.3</ele>
        <time>2018-06-10T12:15:34Z</time>
      </trkpt>
      <trkpt lat="42.245363" lon="2.475470">
        <ele>643.8</ele>
        <time>2018-06-10T12:15:41Z</time>
      </trkpt>
      <trkpt lat="42.245323" lon="2.475023">
        <ele>645.1</ele>
        <time>2018-06-10T12:15:50Z</time>
      </trkpt>
      <trkpt lat="42.245346" lon="2.474774">
        <ele>646.8</ele>
        <time>2018-06-10T12:15:55Z</time>
      </trkpt>
      <trkpt lat="42.245377" lon="2.474640">
        <ele>647.5</ele>
        <time>2018-06-10T12:15:57Z</time>
      </trkpt>
      <trkpt lat="42.245461" lon="2.474427">
        <ele>648.7</ele>
        <time>2018-06-10T12:16:02Z</time>
      </trkpt>
      <trkpt lat="42.245592" lon="2.474269">
        <ele>651.8</ele>
        <time>2018-06-10T12:16:07Z</time>
      </trkpt>
      <trkpt lat="42.245699" lon="2.474256">
        <ele>651.4</ele>
        <time>2018-06-10T12:16:10Z</time>
      </trkpt>
      <trkpt lat="42.246351" lon="2.474020">
        <ele>653.0</ele>
        <time>2018-06-10T12:16:28Z</time>
      </trkpt>
      <trkpt lat="42.246473" lon="2.474001">
        <ele>656.1</ele>
        <time>2018-06-10T12:16:31Z</time>
      </trkpt>
      <trkpt lat="42.246675" lon="2.473975">
        <ele>651.5</ele>
        <time>2018-06-10T12:16:37Z</time>
      </trkpt>
      <trkpt lat="42.246909" lon="2.473773">
        <ele>651.7</ele>
        <time>2018-06-10T12:16:44Z</time>
      </trkpt>
      <trkpt lat="42.246962" lon="2.473675">
        <ele>651.7</ele>
        <time>2018-06-10T12:16:46Z</time>
      </trkpt>
      <trkpt lat="42.247037" lon="2.473402">
        <ele>654.4</ele>
        <time>2018-06-10T12:16:52Z</time>
      </trkpt>
      <trkpt lat="42.247063" lon="2.473190">
        <ele>659.1</ele>
        <time>2018-06-10T12:16:56Z</time>
      </trkpt>
      <trkpt lat="42.247112" lon="2.473008">
        <ele>661.4</ele>
        <time>2018-06-10T12:17:00Z</time>
      </trkpt>
      <trkpt lat="42.247290" lon="2.472582">
        <ele>666.5</ele>
        <time>2018-06-10T12:17:10Z</time>
      </trkpt>
      <trkpt lat="42.247549" lon="2.472083">
        <ele>674.3</ele>
        <time>2018-06-10T12:17:22Z</time>
      </trkpt>
      <trkpt lat="42.247724" lon="2.471948">
        <ele>675.0</ele>
        <time>2018-06-10T12:17:28Z</time>
      </trkpt>
      <trkpt lat="42.247805" lon="2.471856">
        <ele>673.8</ele>
        <time>2018-06-10T12:17:30Z</time>
      </trkpt>
      <trkpt lat="42.247884" lon="2.471522">
        <ele>676.7</ele>
        <time>2018-06-10T12:17:37Z</time>
      </trkpt>
      <trkpt lat="42.247990" lon="2.470940">
        <ele>682.5</ele>
        <time>2018-06-10T12:17:49Z</time>
      </trkpt>
      <trkpt lat="42.248012" lon="2.470830">
        <ele>681.3</ele>
        <time>2018-06-10T12:17:51Z</time>
      </trkpt>
      <trkpt lat="42.247980" lon="2.470740">
        <ele>680.6</ele>
        <time>2018-06-10T12:17:53Z</time>
      </trkpt>
      <trkpt lat="42.247889" lon="2.470668">
        <ele>681.9</ele>
        <time>2018-06-10T12:17:56Z</time>
      </trkpt>
      <trkpt lat="42.247754" lon="2.470596">
        <ele>682.5</ele>
        <time>2018-06-10T12:18:00Z</time>
      </trkpt>
      <trkpt lat="42.247680" lon="2.470493">
        <ele>682.4</ele>
        <time>2018-06-10T12:18:03Z</time>
      </trkpt>
      <trkpt lat="42.247657" lon="2.470341">
        <ele>681.2</ele>
        <time>2018-06-10T12:18:06Z</time>
      </trkpt>
      <trkpt lat="42.247678" lon="2.469730">
        <ele>685.1</ele>
        <time>2018-06-10T12:18:18Z</time>
      </trkpt>
      <trkpt lat="42.247789" lon="2.469034">
        <ele>684.0</ele>
        <time>2018-06-10T12:18:32Z</time>
      </trkpt>
      <trkpt lat="42.247853" lon="2.468832">
        <ele>684.9</ele>
        <time>2018-06-10T12:18:37Z</time>
      </trkpt>
      <trkpt lat="42.247952" lon="2.468710">
        <ele>684.1</ele>
        <time>2018-06-10T12:18:40Z</time>
      </trkpt>
      <trkpt lat="42.248256" lon="2.468210">
        <ele>685.0</ele>
        <time>2018-06-10T12:18:53Z</time>
      </trkpt>
      <trkpt lat="42.248351" lon="2.468118">
        <ele>687.0</ele>
        <time>2018-06-10T12:18:56Z</time>
      </trkpt>
      <trkpt lat="42.248467" lon="2.468087">
        <ele>686.0</ele>
        <time>2018-06-10T12:18:59Z</time>
      </trkpt>
      <trkpt lat="42.248621" lon="2.468037">
        <ele>684.2</ele>
        <time>2018-06-10T12:19:03Z</time>
      </trkpt>
      <trkpt lat="42.248773" lon="2.467885">
        <ele>683.0</ele>
        <time>2018-06-10T12:19:08Z</time>
      </trkpt>
      <trkpt lat="42.248857" lon="2.467708">
        <ele>682.0</ele>
        <time>2018-06-10T12:19:13Z</time>
      </trkpt>
      <trkpt lat="42.248891" lon="2.467533">
        <ele>681.4</ele>
        <time>2018-06-10T12:19:16Z</time>
      </trkpt>
      <trkpt lat="42.248928" lon="2.467356">
        <ele>681.0</ele>
        <time>2018-06-10T12:19:20Z</time>
      </trkpt>
      <trkpt lat="42.248922" lon="2.467162">
        <ele>680.6</ele>
        <time>2018-06-10T12:19:24Z</time>
      </trkpt>
      <trkpt lat="42.248834" lon="2.466895">
        <ele>682.6</ele>
        <time>2018-06-10T12:19:29Z</time>
      </trkpt>
      <trkpt lat="42.248821" lon="2.466678">
        <ele>682.8</ele>
        <time>2018-06-10T12:19:34Z</time>
      </trkpt>
      <trkpt lat="42.248868" lon="2.466482">
        <ele>681.9</ele>
        <time>2018-06-10T12:19:38Z</time>
      </trkpt>
      <trkpt lat="42.248795" lon="2.466119">
        <ele>682.0</ele>
        <time>2018-06-10T12:19:45Z</time>
      </trkpt>
      <trkpt lat="42.248794" lon="2.465925">
        <ele>682.0</ele>
        <time>2018-06-10T12:19:49Z</time>
      </trkpt>
      <trkpt lat="42.248865" lon="2.465731">
        <ele>682.6</ele>
        <time>2018-06-10T12:19:53Z</time>
      </trkpt>
      <trkpt lat="42.249062" lon="2.465559">
        <ele>682.0</ele>
        <time>2018-06-10T12:19:59Z</time>
      </trkpt>
      <trkpt lat="42.249152" lon="2.465413">
        <ele>682.0</ele>
        <time>2018-06-10T12:20:03Z</time>
      </trkpt>
      <trkpt lat="42.249187" lon="2.465292">
        <ele>681.6</ele>
        <time>2018-06-10T12:20:06Z</time>
      </trkpt>
      <trkpt lat="42.249150" lon="2.465050">
        <ele>681.4</ele>
        <time>2018-06-10T12:20:11Z</time>
      </trkpt>
      <trkpt lat="42.249040" lon="2.464711">
        <ele>685.3</ele>
        <time>2018-06-10T12:20:18Z</time>
      </trkpt>
      <trkpt lat="42.249003" lon="2.464517">
        <ele>687.5</ele>
        <time>2018-06-10T12:20:22Z</time>
      </trkpt>
      <trkpt lat="42.249038" lon="2.464250">
        <ele>689.0</ele>
        <time>2018-06-10T12:20:27Z</time>
      </trkpt>
      <trkpt lat="42.249217" lon="2.463982">
        <ele>688.5</ele>
        <time>2018-06-10T12:20:34Z</time>
      </trkpt>
      <trkpt lat="42.249325" lon="2.463860">
        <ele>691.8</ele>
        <time>2018-06-10T12:20:38Z</time>
      </trkpt>
      <trkpt lat="42.249793" lon="2.463832">
        <ele>693.0</ele>
        <time>2018-06-10T12:20:51Z</time>
      </trkpt>
      <trkpt lat="42.249913" lon="2.463794">
        <ele>690.6</ele>
        <time>2018-06-10T12:20:54Z</time>
      </trkpt>
      <trkpt lat="42.249936" lon="2.463637">
        <ele>689.3</ele>
        <time>2018-06-10T12:20:57Z</time>
      </trkpt>
      <trkpt lat="42.249916" lon="2.463200">
        <ele>689.1</ele>
        <time>2018-06-10T12:21:06Z</time>
      </trkpt>
      <trkpt lat="42.249895" lon="2.462522">
        <ele>687.1</ele>
        <time>2018-06-10T12:21:19Z</time>
      </trkpt>
      <trkpt lat="42.249894" lon="2.462328">
        <ele>688.4</ele>
        <time>2018-06-10T12:21:23Z</time>
      </trkpt>
      <trkpt lat="42.250019" lon="2.462181">
        <ele>689.3</ele>
        <time>2018-06-10T12:21:27Z</time>
      </trkpt>
      <trkpt lat="42.250217" lon="2.462155">
        <ele>688.0</ele>
        <time>2018-06-10T12:21:33Z</time>
      </trkpt>
      <trkpt lat="42.250361" lon="2.462106">
        <ele>686.6</ele>
        <time>2018-06-10T12:21:37Z</time>
      </trkpt>
      <trkpt lat="42.250469" lon="2.462008">
        <ele>685.8</ele>
        <time>2018-06-10T12:21:40Z</time>
      </trkpt>
      <trkpt lat="42.250648" lon="2.461764">
        <ele>684.6</ele>
        <time>2018-06-10T12:21:47Z</time>
      </trkpt>
      <trkpt lat="42.250790" lon="2.461496">
        <ele>685.6</ele>
        <time>2018-06-10T12:21:53Z</time>
      </trkpt>
      <trkpt lat="42.250898" lon="2.461374">
        <ele>684.6</ele>
        <time>2018-06-10T12:21:57Z</time>
      </trkpt>
      <trkpt lat="42.250983" lon="2.461276">
        <ele>685.3</ele>
        <time>2018-06-10T12:22:00Z</time>
      </trkpt>
      <trkpt lat="42.251067" lon="2.461231">
        <ele>685.1</ele>
        <time>2018-06-10T12:22:03Z</time>
      </trkpt>
      <trkpt lat="42.251144" lon="2.461239">
        <ele>685.2</ele>
        <time>2018-06-10T12:22:05Z</time>
      </trkpt>
      <trkpt lat="42.251229" lon="2.461278">
        <ele>685.3</ele>
        <time>2018-06-10T12:22:07Z</time>
      </trkpt>
      <trkpt lat="42.251297" lon="2.461335">
        <ele>685.4</ele>
        <time>2018-06-10T12:22:09Z</time>
      </trkpt>
      <trkpt lat="42.251358" lon="2.461424">
        <ele>685.8</ele>
        <time>2018-06-10T12:22:12Z</time>
      </trkpt>
      <trkpt lat="42.251412" lon="2.461553">
        <ele>685.2</ele>
        <time>2018-06-10T12:22:15Z</time>
      </trkpt>
      <trkpt lat="42.251529" lon="2.461772">
        <ele>680.6</ele>
        <time>2018-06-10T12:22:20Z</time>
      </trkpt>
      <trkpt lat="42.251595" lon="2.461856">
        <ele>679.1</ele>
        <time>2018-06-10T12:22:22Z</time>
      </trkpt>
      <trkpt lat="42.251652" lon="2.461861">
        <ele>678.1</ele>
        <time>2018-06-10T12:22:24Z</time>
      </trkpt>
      <trkpt lat="42.251696" lon="2.461848">
        <ele>677.5</ele>
        <time>2018-06-10T12:22:25Z</time>
      </trkpt>
      <trkpt lat="42.251741" lon="2.461789">
        <ele>677.5</ele>
        <time>2018-06-10T12:22:27Z</time>
      </trkpt>
      <trkpt lat="42.251902" lon="2.461558">
        <ele>677.2</ele>
        <time>2018-06-10T12:22:33Z</time>
      </trkpt>
      <trkpt lat="42.251920" lon="2.461518">
        <ele>677.4</ele>
        <time>2018-06-10T12:22:34Z</time>
      </trkpt>
      <trkpt lat="42.251916" lon="2.461477">
        <ele>677.2</ele>
        <time>2018-06-10T12:22:35Z</time>
      </trkpt>
      <trkpt lat="42.251888" lon="2.461467">
        <ele>677.4</ele>
        <time>2018-06-10T12:22:36Z</time>
      </trkpt>
      <trkpt lat="42.251796" lon="2.461366">
        <ele>678.8</ele>
        <time>2018-06-10T12:22:39Z</time>
      </trkpt>
      <trkpt lat="42.251697" lon="2.461250">
        <ele>680.7</ele>
        <time>2018-06-10T12:22:42Z</time>
      </trkpt>
      <trkpt lat="42.251643" lon="2.461080">
        <ele>681.1</ele>
        <time>2018-06-10T12:22:46Z</time>
      </trkpt>
      <trkpt lat="42.251588" lon="2.460911">
        <ele>682.6</ele>
        <time>2018-06-10T12:22:50Z</time>
      </trkpt>
      <trkpt lat="42.251568" lon="2.460548">
        <ele>683.4</ele>
        <time>2018-06-10T12:22:57Z</time>
      </trkpt>
      <trkpt lat="42.251603" lon="2.460256">
        <ele>684.0</ele>
        <time>2018-06-10T12:23:03Z</time>
      </trkpt>
      <trkpt lat="42.251690" lon="2.459746">
        <ele>688.0</ele>
        <time>2018-06-10T12:23:13Z</time>
      </trkpt>
      <trkpt lat="42.251694" lon="2.459582">
        <ele>688.6</ele>
        <time>2018-06-10T12:23:16Z</time>
      </trkpt>
      <trkpt lat="42.251669" lon="2.459467">
        <ele>689.0</ele>
        <time>2018-06-10T12:23:19Z</time>
      </trkpt>
      <trkpt lat="42.251446" lon="2.459167">
        <ele>689.0</ele>
        <time>2018-06-10T12:23:27Z</time>
      </trkpt>
      <trkpt lat="42.251037" lon="2.458758">
        <ele>691.7</ele>
        <time>2018-06-10T12:23:40Z</time>
      </trkpt>
      <trkpt lat="42.251000" lon="2.458613">
        <ele>693.2</ele>
        <time>2018-06-10T12:23:43Z</time>
      </trkpt>
      <trkpt lat="42.250946" lon="2.458523">
        <ele>694.7</ele>
        <time>2018-06-10T12:23:46Z</time>
      </trkpt>
      <trkpt lat="42.250764" lon="2.458227">
        <ele>701.6</ele>
        <time>2018-06-10T12:23:54Z</time>
      </trkpt>
      <trkpt lat="42.250781" lon="2.457960">
        <ele>702.6</ele>
        <time>2018-06-10T12:23:59Z</time>
      </trkpt>
      <trkpt lat="42.250779" lon="2.457451">
        <ele>709.5</ele>
        <time>2018-06-10T12:24:09Z</time>
      </trkpt>
      <trkpt lat="42.250886" lon="2.457208">
        <ele>712.2</ele>
        <time>2018-06-10T12:24:15Z</time>
      </trkpt>
      <trkpt lat="42.250896" lon="2.457135">
        <ele>713.7</ele>
        <time>2018-06-10T12:24:16Z</time>
      </trkpt>
      <trkpt lat="42.250892" lon="2.457092">
        <ele>715.2</ele>
        <time>2018-06-10T12:24:17Z</time>
      </trkpt>
      <trkpt lat="42.250867" lon="2.457052">
        <ele>717.2</ele>
        <time>2018-06-10T12:24:18Z</time>
      </trkpt>
      <trkpt lat="42.250819" lon="2.457053">
        <ele>718.1</ele>
        <time>2018-06-10T12:24:19Z</time>
      </trkpt>
      <trkpt lat="42.250351" lon="2.457665">
        <ele>721.0</ele>
        <time>2018-06-10T12:24:37Z</time>
      </trkpt>
      <trkpt lat="42.250136" lon="2.457794">
        <ele>727.2</ele>
        <time>2018-06-10T12:24:43Z</time>
      </trkpt>
      <trkpt lat="42.250104" lon="2.457787">
        <ele>728.1</ele>
        <time>2018-06-10T12:24:44Z</time>
      </trkpt>
      <trkpt lat="42.250091" lon="2.457744">
        <ele>729.6</ele>
        <time>2018-06-10T12:24:45Z</time>
      </trkpt>
      <trkpt lat="42.250097" lon="2.457708">
        <ele>730.6</ele>
        <time>2018-06-10T12:24:46Z</time>
      </trkpt>
      <trkpt lat="42.250256" lon="2.457455">
        <ele>731.3</ele>
        <time>2018-06-10T12:24:52Z</time>
      </trkpt>
      <trkpt lat="42.250359" lon="2.457246">
        <ele>734.2</ele>
        <time>2018-06-10T12:24:57Z</time>
      </trkpt>
      <trkpt lat="42.250629" lon="2.456581">
        <ele>744.8</ele>
        <time>2018-06-10T12:25:13Z</time>
      </trkpt>
      <trkpt lat="42.250648" lon="2.456482">
        <ele>744.4</ele>
        <time>2018-06-10T12:25:15Z</time>
      </trkpt>
      <trkpt lat="42.250629" lon="2.456410">
        <ele>745.2</ele>
        <time>2018-06-10T12:25:16Z</time>
      </trkpt>
      <trkpt lat="42.250571" lon="2.456328">
        <ele>746.9</ele>
        <time>2018-06-10T12:25:18Z</time>
      </trkpt>
      <trkpt lat="42.250486" lon="2.456324">
        <ele>748.8</ele>
        <time>2018-06-10T12:25:21Z</time>
      </trkpt>
      <trkpt lat="42.249842" lon="2.456806">
        <ele>761.1</ele>
        <time>2018-06-10T12:25:41Z</time>
      </trkpt>
      <trkpt lat="42.249803" lon="2.456800">
        <ele>762.0</ele>
        <time>2018-06-10T12:25:42Z</time>
      </trkpt>
      <trkpt lat="42.249771" lon="2.456764">
        <ele>762.9</ele>
        <time>2018-06-10T12:25:43Z</time>
      </trkpt>
      <trkpt lat="42.249763" lon="2.456699">
        <ele>763.7</ele>
        <time>2018-06-10T12:25:44Z</time>
      </trkpt>
      <trkpt lat="42.249962" lon="2.456463">
        <ele>765.0</ele>
        <time>2018-06-10T12:25:51Z</time>
      </trkpt>
      <trkpt lat="42.249989" lon="2.456413">
        <ele>764.7</ele>
        <time>2018-06-10T12:25:52Z</time>
      </trkpt>
      <trkpt lat="42.250009" lon="2.456309">
        <ele>764.2</ele>
        <time>2018-06-10T12:25:54Z</time>
      </trkpt>
      <trkpt lat="42.249946" lon="2.456054">
        <ele>766.7</ele>
        <time>2018-06-10T12:26:00Z</time>
      </trkpt>
      <trkpt lat="42.249747" lon="2.455444">
        <ele>777.4</ele>
        <time>2018-06-10T12:26:13Z</time>
      </trkpt>
      <trkpt lat="42.249662" lon="2.454657">
        <ele>784.5</ele>
        <time>2018-06-10T12:26:29Z</time>
      </trkpt>
      <trkpt lat="42.249644" lon="2.454124">
        <ele>792.4</ele>
        <time>2018-06-10T12:26:40Z</time>
      </trkpt>
      <trkpt lat="42.249726" lon="2.453538">
        <ele>789.7</ele>
        <time>2018-06-10T12:26:51Z</time>
      </trkpt>
      <trkpt lat="42.249723" lon="2.452978">
        <ele>797.0</ele>
        <time>2018-06-10T12:27:03Z</time>
      </trkpt>
      <trkpt lat="42.249819" lon="2.452837">
        <ele>799.1</ele>
        <time>2018-06-10T12:27:06Z</time>
      </trkpt>
      <trkpt lat="42.250179" lon="2.452581">
        <ele>804.2</ele>
        <time>2018-06-10T12:27:17Z</time>
      </trkpt>
      <trkpt lat="42.250240" lon="2.452515">
        <ele>804.0</ele>
        <time>2018-06-10T12:27:19Z</time>
      </trkpt>
      <trkpt lat="42.250412" lon="2.452040">
        <ele>804.9</ele>
        <time>2018-06-10T12:27:30Z</time>
      </trkpt>
      <trkpt lat="42.250340" lon="2.451481">
        <ele>812.2</ele>
        <time>2018-06-10T12:27:41Z</time>
      </trkpt>
      <trkpt lat="42.250375" lon="2.451410">
        <ele>811.7</ele>
        <time>2018-06-10T12:27:43Z</time>
      </trkpt>
      <trkpt lat="42.251058" lon="2.451034">
        <ele>804.0</ele>
        <time>2018-06-10T12:28:02Z</time>
      </trkpt>
      <trkpt lat="42.251272" lon="2.450916">
        <ele>800.1</ele>
        <time>2018-06-10T12:28:09Z</time>
      </trkpt>
      <trkpt lat="42.251368" lon="2.450831">
        <ele>799.9</ele>
        <time>2018-06-10T12:28:12Z</time>
      </trkpt>
      <trkpt lat="42.251614" lon="2.450712">
        <ele>791.1</ele>
        <time>2018-06-10T12:28:19Z</time>
      </trkpt>
      <trkpt lat="42.251963" lon="2.450509">
        <ele>784.9</ele>
        <time>2018-06-10T12:28:29Z</time>
      </trkpt>
      <trkpt lat="42.252273" lon="2.450316">
        <ele>787.3</ele>
        <time>2018-06-10T12:28:38Z</time>
      </trkpt>
      <trkpt lat="42.252472" lon="2.450358">
        <ele>786.8</ele>
        <time>2018-06-10T12:28:44Z</time>
      </trkpt>
      <trkpt lat="42.252558" lon="2.450325">
        <ele>786.1</ele>
        <time>2018-06-10T12:28:46Z</time>
      </trkpt>
      <trkpt lat="42.252620" lon="2.450248">
        <ele>784.0</ele>
        <time>2018-06-10T12:28:48Z</time>
      </trkpt>
      <trkpt lat="42.252781" lon="2.449414">
        <ele>785.7</ele>
        <time>2018-06-10T12:29:05Z</time>
      </trkpt>
      <trkpt lat="42.252891" lon="2.449034">
        <ele>788.8</ele>
        <time>2018-06-10T12:29:13Z</time>
      </trkpt>
      <trkpt lat="42.253166" lon="2.448565">
        <ele>784.3</ele>
        <time>2018-06-10T12:29:25Z</time>
      </trkpt>
      <trkpt lat="42.253234" lon="2.448191">
        <ele>787.9</ele>
        <time>2018-06-10T12:29:33Z</time>
      </trkpt>
      <trkpt lat="42.253577" lon="2.447629">
        <ele>786.4</ele>
        <time>2018-06-10T12:29:47Z</time>
      </trkpt>
      <trkpt lat="42.253623" lon="2.447580">
        <ele>785.1</ele>
        <time>2018-06-10T12:29:49Z</time>
      </trkpt>
      <trkpt lat="42.253704" lon="2.447530">
        <ele>783.4</ele>
        <time>2018-06-10T12:29:51Z</time>
      </trkpt>
      <trkpt lat="42.253765" lon="2.447517">
        <ele>782.4</ele>
        <time>2018-06-10T12:29:53Z</time>
      </trkpt>
      <trkpt lat="42.253890" lon="2.447541">
        <ele>780.8</ele>
        <time>2018-06-10T12:29:56Z</time>
      </trkpt>
      <trkpt lat="42.253936" lon="2.447546">
        <ele>780.9</ele>
        <time>2018-06-10T12:29:57Z</time>
      </trkpt>
      <trkpt lat="42.253965" lon="2.447515">
        <ele>780.1</ele>
        <time>2018-06-10T12:29:58Z</time>
      </trkpt>
      <trkpt lat="42.253989" lon="2.446839">
        <ele>769.2</ele>
        <time>2018-06-10T12:30:12Z</time>
      </trkpt>
      <trkpt lat="42.253918" lon="2.446320">
        <ele>766.0</ele>
        <time>2018-06-10T12:30:23Z</time>
      </trkpt>
      <trkpt lat="42.254068" lon="2.445659">
        <ele>757.9</ele>
        <time>2018-06-10T12:30:36Z</time>
      </trkpt>
      <trkpt lat="42.254147" lon="2.445284">
        <ele>753.6</ele>
        <time>2018-06-10T12:30:44Z</time>
      </trkpt>
      <trkpt lat="42.254379" lon="2.444757">
        <ele>749.0</ele>
        <time>2018-06-10T12:30:56Z</time>
      </trkpt>
      <trkpt lat="42.254366" lon="2.444671">
        <ele>747.9</ele>
        <time>2018-06-10T12:30:58Z</time>
      </trkpt>
      <trkpt lat="42.254044" lon="2.443894">
        <ele>741.3</ele>
        <time>2018-06-10T12:31:16Z</time>
      </trkpt>
      <trkpt lat="42.254043" lon="2.443521">
        <ele>745.7</ele>
        <time>2018-06-10T12:31:23Z</time>
      </trkpt>
      <trkpt lat="42.254108" lon="2.443331">
        <ele>749.2</ele>
        <time>2018-06-10T12:31:27Z</time>
      </trkpt>
      <trkpt lat="42.254251" lon="2.443159">
        <ele>751.7</ele>
        <time>2018-06-10T12:31:32Z</time>
      </trkpt>
      <trkpt lat="42.254410" lon="2.443095">
        <ele>754.2</ele>
        <time>2018-06-10T12:31:37Z</time>
      </trkpt>
      <trkpt lat="42.254574" lon="2.443182">
        <ele>756.4</ele>
        <time>2018-06-10T12:31:41Z</time>
      </trkpt>
      <trkpt lat="42.254646" lon="2.443155">
        <ele>756.9</ele>
        <time>2018-06-10T12:31:43Z</time>
      </trkpt>
      <trkpt lat="42.254695" lon="2.443112">
        <ele>755.1</ele>
        <time>2018-06-10T12:31:45Z</time>
      </trkpt>
      <trkpt lat="42.254759" lon="2.442966">
        <ele>757.1</ele>
        <time>2018-06-10T12:31:48Z</time>
      </trkpt>
      <trkpt lat="42.255085" lon="2.442548">
        <ele>756.4</ele>
        <time>2018-06-10T12:32:00Z</time>
      </trkpt>
      <trkpt lat="42.255188" lon="2.442323">
        <ele>758.9</ele>
        <time>2018-06-10T12:32:06Z</time>
      </trkpt>
      <trkpt lat="42.255355" lon="2.442119">
        <ele>759.7</ele>
        <time>2018-06-10T12:32:12Z</time>
      </trkpt>
      <trkpt lat="42.255577" lon="2.441936">
        <ele>760.5</ele>
        <time>2018-06-10T12:32:19Z</time>
      </trkpt>
      <trkpt lat="42.255657" lon="2.441893">
        <ele>761.1</ele>
        <time>2018-06-10T12:32:21Z</time>
      </trkpt>
      <trkpt lat="42.255905" lon="2.441826">
        <ele>760.0</ele>
        <time>2018-06-10T12:32:28Z</time>
      </trkpt>
      <trkpt lat="42.256038" lon="2.441702">
        <ele>760.2</ele>
        <time>2018-06-10T12:32:32Z</time>
      </trkpt>
      <trkpt lat="42.256157" lon="2.441539">
        <ele>761.7</ele>
        <time>2018-06-10T12:32:36Z</time>
      </trkpt>
      <trkpt lat="42.256371" lon="2.440863">
        <ele>753.4</ele>
        <time>2018-06-10T12:32:51Z</time>
      </trkpt>
      <trkpt lat="42.256419" lon="2.440756">
        <ele>751.5</ele>
        <time>2018-06-10T12:32:54Z</time>
      </trkpt>
      <trkpt lat="42.256313" lon="2.440330">
        <ele>749.4</ele>
        <time>2018-06-10T12:33:02Z</time>
      </trkpt>
      <trkpt lat="42.256340" lon="2.440005">
        <ele>745.1</ele>
        <time>2018-06-10T12:33:09Z</time>
      </trkpt>
      <trkpt lat="42.256347" lon="2.439844">
        <ele>743.9</ele>
        <time>2018-06-10T12:33:12Z</time>
      </trkpt>
      <trkpt lat="42.256157" lon="2.439458">
        <ele>740.3</ele>
        <time>2018-06-10T12:33:21Z</time>
      </trkpt>
      <trkpt lat="42.255935" lon="2.439479">
        <ele>741.3</ele>
        <time>2018-06-10T12:33:27Z</time>
      </trkpt>
      <trkpt lat="42.255824" lon="2.439402">
        <ele>735.6</ele>
        <time>2018-06-10T12:33:31Z</time>
      </trkpt>
      <trkpt lat="42.255712" lon="2.439286">
        <ele>733.6</ele>
        <time>2018-06-10T12:33:35Z</time>
      </trkpt>
      <trkpt lat="42.255704" lon="2.438986">
        <ele>727.2</ele>
        <time>2018-06-10T12:33:41Z</time>
      </trkpt>
      <trkpt lat="42.255770" lon="2.438580">
        <ele>729.8</ele>
        <time>2018-06-10T12:33:49Z</time>
      </trkpt>
      <trkpt lat="42.255825" lon="2.438407">
        <ele>731.0</ele>
        <time>2018-06-10T12:33:53Z</time>
      </trkpt>
      <trkpt lat="42.255919" lon="2.438176">
        <ele>730.8</ele>
        <time>2018-06-10T12:33:58Z</time>
      </trkpt>
      <trkpt lat="42.255958" lon="2.437957">
        <ele>732.6</ele>
        <time>2018-06-10T12:34:02Z</time>
      </trkpt>
      <trkpt lat="42.256002" lon="2.437708">
        <ele>735.0</ele>
        <time>2018-06-10T12:34:07Z</time>
      </trkpt>
      <trkpt lat="42.256050" lon="2.437480">
        <ele>737.2</ele>
        <time>2018-06-10T12:34:12Z</time>
      </trkpt>
      <trkpt lat="42.256111" lon="2.437358">
        <ele>739.6</ele>
        <time>2018-06-10T12:34:15Z</time>
      </trkpt>
      <trkpt lat="42.256170" lon="2.437290">
        <ele>740.5</ele>
        <time>2018-06-10T12:34:17Z</time>
      </trkpt>
      <trkpt lat="42.256340" lon="2.437150">
        <ele>741.7</ele>
        <time>2018-06-10T12:34:22Z</time>
      </trkpt>
      <trkpt lat="42.256480" lon="2.437030">
        <ele>740.9</ele>
        <time>2018-06-10T12:34:27Z</time>
      </trkpt>
      <trkpt lat="42.256537" lon="2.436973">
        <ele>739.7</ele>
        <time>2018-06-10T12:34:29Z</time>
      </trkpt>
      <trkpt lat="42.256560" lon="2.436870">
        <ele>738.4</ele>
        <time>2018-06-10T12:34:31Z</time>
      </trkpt>
      <trkpt lat="42.256568" lon="2.436663">
        <ele>738.2</ele>
        <time>2018-06-10T12:34:35Z</time>
      </trkpt>
      <trkpt lat="42.256560" lon="2.436430">
        <ele>738.8</ele>
        <time>2018-06-10T12:34:40Z</time>
      </trkpt>
      <trkpt lat="42.256570" lon="2.436160">
        <ele>739.3</ele>
        <time>2018-06-10T12:34:45Z</time>
      </trkpt>
      <trkpt lat="42.256570" lon="2.436020">
        <ele>739.5</ele>
        <time>2018-06-10T12:34:48Z</time>
      </trkpt>
      <trkpt lat="42.256580" lon="2.435900">
        <ele>739.5</ele>
        <time>2018-06-10T12:34:50Z</time>
      </trkpt>
      <trkpt lat="42.256596" lon="2.435768">
        <ele>740.0</ele>
        <time>2018-06-10T12:34:53Z</time>
      </trkpt>
      <trkpt lat="42.256646" lon="2.435645">
        <ele>742.5</ele>
        <time>2018-06-10T12:34:55Z</time>
      </trkpt>
      <trkpt lat="42.256769" lon="2.435534">
        <ele>746.5</ele>
        <time>2018-06-10T12:35:00Z</time>
      </trkpt>
      <trkpt lat="42.256940" lon="2.435472">
        <ele>747.7</ele>
        <time>2018-06-10T12:35:04Z</time>
      </trkpt>
      <trkpt lat="42.257102" lon="2.435458">
        <ele>748.7</ele>
        <time>2018-06-10T12:35:09Z</time>
      </trkpt>
      <trkpt lat="42.257156" lon="2.435433">
        <ele>747.3</ele>
        <time>2018-06-10T12:35:10Z</time>
      </trkpt>
      <trkpt lat="42.257191" lon="2.435391">
        <ele>747.9</ele>
        <time>2018-06-10T12:35:11Z</time>
      </trkpt>
      <trkpt lat="42.257290" lon="2.435230">
        <ele>747.8</ele>
        <time>2018-06-10T12:35:16Z</time>
      </trkpt>
      <trkpt lat="42.257370" lon="2.435050">
        <ele>748.4</ele>
        <time>2018-06-10T12:35:20Z</time>
      </trkpt>
      <trkpt lat="42.257369" lon="2.434971">
        <ele>749.7</ele>
        <time>2018-06-10T12:35:21Z</time>
      </trkpt>
      <trkpt lat="42.257351" lon="2.434892">
        <ele>750.0</ele>
        <time>2018-06-10T12:35:23Z</time>
      </trkpt>
      <trkpt lat="42.257283" lon="2.434814">
        <ele>750.0</ele>
        <time>2018-06-10T12:35:25Z</time>
      </trkpt>
      <trkpt lat="42.257206" lon="2.434748">
        <ele>750.0</ele>
        <time>2018-06-10T12:35:28Z</time>
      </trkpt>
      <trkpt lat="42.257184" lon="2.434700">
        <ele>750.0</ele>
        <time>2018-06-10T12:35:29Z</time>
      </trkpt>
      <trkpt lat="42.257170" lon="2.434621">
        <ele>750.0</ele>
        <time>2018-06-10T12:35:30Z</time>
      </trkpt>
      <trkpt lat="42.257183" lon="2.434536">
        <ele>749.2</ele>
        <time>2018-06-10T12:35:32Z</time>
      </trkpt>
      <trkpt lat="42.257186" lon="2.434391">
        <ele>748.3</ele>
        <time>2018-06-10T12:35:35Z</time>
      </trkpt>
      <trkpt lat="42.257113" lon="2.434095">
        <ele>748.7</ele>
        <time>2018-06-10T12:35:41Z</time>
      </trkpt>
      <trkpt lat="42.257022" lon="2.433835">
        <ele>748.7</ele>
        <time>2018-06-10T12:35:47Z</time>
      </trkpt>
      <trkpt lat="42.256950" lon="2.433660">
        <ele>748.8</ele>
        <time>2018-06-10T12:35:51Z</time>
      </trkpt>
      <trkpt lat="42.256917" lon="2.433581">
        <ele>749.1</ele>
        <time>2018-06-10T12:35:53Z</time>
      </trkpt>
      <trkpt lat="42.256870" lon="2.433540">
        <ele>750.7</ele>
        <time>2018-06-10T12:35:54Z</time>
      </trkpt>
      <trkpt lat="42.256730" lon="2.433500">
        <ele>755.7</ele>
        <time>2018-06-10T12:35:58Z</time>
      </trkpt>
      <trkpt lat="42.256610" lon="2.433491">
        <ele>756.0</ele>
        <time>2018-06-10T12:36:01Z</time>
      </trkpt>
      <trkpt lat="42.256520" lon="2.433410">
        <ele>756.0</ele>
        <time>2018-06-10T12:36:04Z</time>
      </trkpt>
      <trkpt lat="42.256430" lon="2.433260">
        <ele>757.3</ele>
        <time>2018-06-10T12:36:08Z</time>
      </trkpt>
      <trkpt lat="42.256360" lon="2.433090">
        <ele>758.8</ele>
        <time>2018-06-10T12:36:12Z</time>
      </trkpt>
      <trkpt lat="42.256300" lon="2.432850">
        <ele>760.3</ele>
        <time>2018-06-10T12:36:17Z</time>
      </trkpt>
      <trkpt lat="42.256300" lon="2.432720">
        <ele>761.2</ele>
        <time>2018-06-10T12:36:19Z</time>
      </trkpt>
      <trkpt lat="42.256320" lon="2.432500">
        <ele>762.0</ele>
        <time>2018-06-10T12:36:24Z</time>
      </trkpt>
      <trkpt lat="42.256366" lon="2.432380">
        <ele>762.0</ele>
        <time>2018-06-10T12:36:26Z</time>
      </trkpt>
      <trkpt lat="42.256429" lon="2.432288">
        <ele>762.3</ele>
        <time>2018-06-10T12:36:29Z</time>
      </trkpt>
      <trkpt lat="42.256505" lon="2.432215">
        <ele>762.0</ele>
        <time>2018-06-10T12:36:31Z</time>
      </trkpt>
      <trkpt lat="42.256581" lon="2.432172">
        <ele>762.7</ele>
        <time>2018-06-10T12:36:34Z</time>
      </trkpt>
      <trkpt lat="42.256740" lon="2.432080">
        <ele>763.9</ele>
        <time>2018-06-10T12:36:38Z</time>
      </trkpt>
      <trkpt lat="42.256810" lon="2.431982">
        <ele>765.2</ele>
        <time>2018-06-10T12:36:41Z</time>
      </trkpt>
      <trkpt lat="42.256840" lon="2.431900">
        <ele>765.9</ele>
        <time>2018-06-10T12:36:43Z</time>
      </trkpt>
      <trkpt lat="42.256881" lon="2.431763">
        <ele>766.2</ele>
        <time>2018-06-10T12:36:46Z</time>
      </trkpt>
      <trkpt lat="42.256894" lon="2.431606">
        <ele>766.9</ele>
        <time>2018-06-10T12:36:49Z</time>
      </trkpt>
      <trkpt lat="42.256890" lon="2.431440">
        <ele>767.9</ele>
        <time>2018-06-10T12:36:52Z</time>
      </trkpt>
      <trkpt lat="42.256840" lon="2.431210">
        <ele>769.0</ele>
        <time>2018-06-10T12:36:57Z</time>
      </trkpt>
      <trkpt lat="42.256760" lon="2.431050">
        <ele>770.0</ele>
        <time>2018-06-10T12:37:01Z</time>
      </trkpt>
      <trkpt lat="42.256650" lon="2.430840">
        <ele>773.0</ele>
        <time>2018-06-10T12:37:06Z</time>
      </trkpt>
      <trkpt lat="42.256620" lon="2.430730">
        <ele>772.8</ele>
        <time>2018-06-10T12:37:08Z</time>
      </trkpt>
      <trkpt lat="42.256580" lon="2.430500">
        <ele>773.3</ele>
        <time>2018-06-10T12:37:13Z</time>
      </trkpt>
      <trkpt lat="42.256550" lon="2.430270">
        <ele>773.6</ele>
        <time>2018-06-10T12:37:17Z</time>
      </trkpt>
      <trkpt lat="42.256590" lon="2.430070">
        <ele>775.4</ele>
        <time>2018-06-10T12:37:21Z</time>
      </trkpt>
      <trkpt lat="42.256691" lon="2.429897">
        <ele>775.1</ele>
        <time>2018-06-10T12:37:26Z</time>
      </trkpt>
      <trkpt lat="42.256790" lon="2.429721">
        <ele>774.6</ele>
        <time>2018-06-10T12:37:30Z</time>
      </trkpt>
      <trkpt lat="42.256856" lon="2.429453">
        <ele>777.0</ele>
        <time>2018-06-10T12:37:36Z</time>
      </trkpt>
      <trkpt lat="42.256945" lon="2.429222">
        <ele>780.0</ele>
        <time>2018-06-10T12:37:41Z</time>
      </trkpt>
      <trkpt lat="42.257060" lon="2.429000">
        <ele>780.6</ele>
        <time>2018-06-10T12:37:46Z</time>
      </trkpt>
      <trkpt lat="42.257087" lon="2.428936">
        <ele>781.3</ele>
        <time>2018-06-10T12:37:48Z</time>
      </trkpt>
      <trkpt lat="42.257141" lon="2.428881">
        <ele>781.6</ele>
        <time>2018-06-10T12:37:49Z</time>
      </trkpt>
      <trkpt lat="42.257200" lon="2.428856">
        <ele>782.0</ele>
        <time>2018-06-10T12:37:51Z</time>
      </trkpt>
      <trkpt lat="42.257312" lon="2.428849">
        <ele>782.0</ele>
        <time>2018-06-10T12:37:54Z</time>
      </trkpt>
      <trkpt lat="42.257393" lon="2.428818">
        <ele>781.8</ele>
        <time>2018-06-10T12:37:56Z</time>
      </trkpt>
      <trkpt lat="42.257429" lon="2.428739">
        <ele>782.0</ele>
        <time>2018-06-10T12:37:58Z</time>
      </trkpt>
      <trkpt lat="42.257455" lon="2.428654">
        <ele>782.0</ele>
        <time>2018-06-10T12:38:00Z</time>
      </trkpt>
      <trkpt lat="42.257472" lon="2.428484">
        <ele>784.0</ele>
        <time>2018-06-10T12:38:03Z</time>
      </trkpt>
      <trkpt lat="42.257494" lon="2.428338">
        <ele>784.9</ele>
        <time>2018-06-10T12:38:06Z</time>
      </trkpt>
      <trkpt lat="42.257516" lon="2.428138">
        <ele>785.0</ele>
        <time>2018-06-10T12:38:10Z</time>
      </trkpt>
      <trkpt lat="42.257492" lon="2.427963">
        <ele>785.0</ele>
        <time>2018-06-10T12:38:14Z</time>
      </trkpt>
      <trkpt lat="42.257433" lon="2.427842">
        <ele>785.0</ele>
        <time>2018-06-10T12:38:17Z</time>
      </trkpt>
      <trkpt lat="42.257261" lon="2.427377">
        <ele>785.1</ele>
        <time>2018-06-10T12:38:27Z</time>
      </trkpt>
      <trkpt lat="42.257134" lon="2.427209">
        <ele>784.7</ele>
        <time>2018-06-10T12:38:32Z</time>
      </trkpt>
      <trkpt lat="42.256900" lon="2.426950">
        <ele>785.7</ele>
        <time>2018-06-10T12:38:40Z</time>
      </trkpt>
      <trkpt lat="42.256840" lon="2.426850">
        <ele>785.2</ele>
        <time>2018-06-10T12:38:42Z</time>
      </trkpt>
      <trkpt lat="42.256680" lon="2.426690">
        <ele>788.7</ele>
        <time>2018-06-10T12:38:48Z</time>
      </trkpt>
      <trkpt lat="42.256610" lon="2.426620">
        <ele>789.9</ele>
        <time>2018-06-10T12:38:50Z</time>
      </trkpt>
      <trkpt lat="42.256470" lon="2.426480">
        <ele>792.3</ele>
        <time>2018-06-10T12:38:55Z</time>
      </trkpt>
      <trkpt lat="42.256355" lon="2.426294">
        <ele>791.7</ele>
        <time>2018-06-10T12:38:59Z</time>
      </trkpt>
      <trkpt lat="42.256318" lon="2.426076">
        <ele>792.0</ele>
        <time>2018-06-10T12:39:04Z</time>
      </trkpt>
      <trkpt lat="42.256320" lon="2.425845">
        <ele>791.8</ele>
        <time>2018-06-10T12:39:08Z</time>
      </trkpt>
      <trkpt lat="42.256306" lon="2.425700">
        <ele>792.7</ele>
        <time>2018-06-10T12:39:11Z</time>
      </trkpt>
      <trkpt lat="42.256333" lon="2.425397">
        <ele>787.7</ele>
        <time>2018-06-10T12:39:17Z</time>
      </trkpt>
      <trkpt lat="42.256349" lon="2.425155">
        <ele>787.4</ele>
        <time>2018-06-10T12:39:22Z</time>
      </trkpt>
      <trkpt lat="42.256312" lon="2.424913">
        <ele>787.0</ele>
        <time>2018-06-10T12:39:27Z</time>
      </trkpt>
      <trkpt lat="42.256287" lon="2.424633">
        <ele>787.0</ele>
        <time>2018-06-10T12:39:32Z</time>
      </trkpt>
      <trkpt lat="42.256327" lon="2.424463">
        <ele>786.6</ele>
        <time>2018-06-10T12:39:36Z</time>
      </trkpt>
      <trkpt lat="42.256348" lon="2.424330">
        <ele>786.1</ele>
        <time>2018-06-10T12:39:39Z</time>
      </trkpt>
      <trkpt lat="42.256379" lon="2.424172">
        <ele>786.4</ele>
        <time>2018-06-10T12:39:42Z</time>
      </trkpt>
      <trkpt lat="42.256442" lon="2.424062">
        <ele>786.0</ele>
        <time>2018-06-10T12:39:45Z</time>
      </trkpt>
      <trkpt lat="42.256540" lon="2.423837">
        <ele>785.8</ele>
        <time>2018-06-10T12:39:50Z</time>
      </trkpt>
      <trkpt lat="42.256629" lon="2.423642">
        <ele>785.8</ele>
        <time>2018-06-10T12:39:54Z</time>
      </trkpt>
      <trkpt lat="42.256664" lon="2.423521">
        <ele>786.0</ele>
        <time>2018-06-10T12:39:57Z</time>
      </trkpt>
      <trkpt lat="42.256699" lon="2.423357">
        <ele>784.5</ele>
        <time>2018-06-10T12:40:00Z</time>
      </trkpt>
      <trkpt lat="42.256716" lon="2.423199">
        <ele>783.8</ele>
        <time>2018-06-10T12:40:03Z</time>
      </trkpt>
      <trkpt lat="42.256734" lon="2.423017">
        <ele>783.4</ele>
        <time>2018-06-10T12:40:07Z</time>
      </trkpt>
      <trkpt lat="42.256830" lon="2.422549">
        <ele>781.2</ele>
        <time>2018-06-10T12:40:17Z</time>
      </trkpt>
      <trkpt lat="42.256857" lon="2.422410">
        <ele>780.6</ele>
        <time>2018-06-10T12:40:19Z</time>
      </trkpt>
      <trkpt lat="42.256941" lon="2.422049">
        <ele>778.7</ele>
        <time>2018-06-10T12:40:27Z</time>
      </trkpt>
      <trkpt lat="42.257005" lon="2.421896">
        <ele>778.9</ele>
        <time>2018-06-10T12:40:30Z</time>
      </trkpt>
      <trkpt lat="42.257104" lon="2.421727">
        <ele>777.7</ele>
        <time>2018-06-10T12:40:35Z</time>
      </trkpt>
      <trkpt lat="42.257293" lon="2.421330">
        <ele>775.8</ele>
        <time>2018-06-10T12:40:44Z</time>
      </trkpt>
      <trkpt lat="42.257452" lon="2.421070">
        <ele>774.3</ele>
        <time>2018-06-10T12:40:51Z</time>
      </trkpt>
      <trkpt lat="42.257583" lon="2.420922">
        <ele>773.2</ele>
        <time>2018-06-10T12:40:55Z</time>
      </trkpt>
      <trkpt lat="42.257704" lon="2.420759">
        <ele>771.6</ele>
        <time>2018-06-10T12:41:00Z</time>
      </trkpt>
      <trkpt lat="42.257740" lon="2.420635">
        <ele>770.6</ele>
        <time>2018-06-10T12:41:02Z</time>
      </trkpt>
      <trkpt lat="42.257767" lon="2.420458">
        <ele>769.5</ele>
        <time>2018-06-10T12:41:06Z</time>
      </trkpt>
      <trkpt lat="42.257775" lon="2.420260">
        <ele>766.7</ele>
        <time>2018-06-10T12:41:10Z</time>
      </trkpt>
      <trkpt lat="42.257759" lon="2.420019">
        <ele>767.9</ele>
        <time>2018-06-10T12:41:15Z</time>
      </trkpt>
      <trkpt lat="42.257740" lon="2.419880">
        <ele>767.7</ele>
        <time>2018-06-10T12:41:17Z</time>
      </trkpt>
      <trkpt lat="42.257720" lon="2.419680">
        <ele>768.2</ele>
        <time>2018-06-10T12:41:21Z</time>
      </trkpt>
      <trkpt lat="42.257720" lon="2.419480">
        <ele>769.7</ele>
        <time>2018-06-10T12:41:25Z</time>
      </trkpt>
      <trkpt lat="42.257770" lon="2.419300">
        <ele>771.0</ele>
        <time>2018-06-10T12:41:29Z</time>
      </trkpt>
      <trkpt lat="42.257821" lon="2.419091">
        <ele>770.8</ele>
        <time>2018-06-10T12:41:33Z</time>
      </trkpt>
      <trkpt lat="42.257856" lon="2.418830">
        <ele>770.0</ele>
        <time>2018-06-10T12:41:39Z</time>
      </trkpt>
      <trkpt lat="42.257855" lon="2.418660">
        <ele>770.0</ele>
        <time>2018-06-10T12:41:42Z</time>
      </trkpt>
      <trkpt lat="42.257877" lon="2.418478">
        <ele>769.5</ele>
        <time>2018-06-10T12:41:46Z</time>
      </trkpt>
      <trkpt lat="42.257907" lon="2.418229">
        <ele>768.8</ele>
        <time>2018-06-10T12:41:51Z</time>
      </trkpt>
      <trkpt lat="42.257925" lon="2.418084">
        <ele>769.2</ele>
        <time>2018-06-10T12:41:54Z</time>
      </trkpt>
      <trkpt lat="42.257951" lon="2.417950">
        <ele>769.5</ele>
        <time>2018-06-10T12:41:56Z</time>
      </trkpt>
      <trkpt lat="42.258062" lon="2.417369">
        <ele>771.8</ele>
        <time>2018-06-10T12:42:08Z</time>
      </trkpt>
      <trkpt lat="42.258101" lon="2.417221">
        <ele>772.1</ele>
        <time>2018-06-10T12:42:11Z</time>
      </trkpt>
      <trkpt lat="42.258236" lon="2.417039">
        <ele>771.2</ele>
        <time>2018-06-10T12:42:16Z</time>
      </trkpt>
      <trkpt lat="42.258289" lon="2.416893">
        <ele>770.2</ele>
        <time>2018-06-10T12:42:20Z</time>
      </trkpt>
      <trkpt lat="42.258324" lon="2.416699">
        <ele>768.8</ele>
        <time>2018-06-10T12:42:23Z</time>
      </trkpt>
      <trkpt lat="42.258323" lon="2.416505">
        <ele>768.6</ele>
        <time>2018-06-10T12:42:27Z</time>
      </trkpt>
      <trkpt lat="42.258310" lon="2.416290">
        <ele>767.3</ele>
        <time>2018-06-10T12:42:32Z</time>
      </trkpt>
      <trkpt lat="42.258300" lon="2.416120">
        <ele>765.9</ele>
        <time>2018-06-10T12:42:35Z</time>
      </trkpt>
      <trkpt lat="42.258290" lon="2.415920">
        <ele>763.9</ele>
        <time>2018-06-10T12:42:39Z</time>
      </trkpt>
      <trkpt lat="42.258260" lon="2.415750">
        <ele>763.4</ele>
        <time>2018-06-10T12:42:42Z</time>
      </trkpt>
      <trkpt lat="42.258230" lon="2.415621">
        <ele>762.7</ele>
        <time>2018-06-10T12:42:45Z</time>
      </trkpt>
      <trkpt lat="42.258180" lon="2.415440">
        <ele>764.0</ele>
        <time>2018-06-10T12:42:49Z</time>
      </trkpt>
      <trkpt lat="42.258172" lon="2.415378">
        <ele>765.0</ele>
        <time>2018-06-10T12:42:50Z</time>
      </trkpt>
      <trkpt lat="42.258190" lon="2.415323">
        <ele>766.3</ele>
        <time>2018-06-10T12:42:51Z</time>
      </trkpt>
      <trkpt lat="42.258240" lon="2.415300">
        <ele>766.0</ele>
        <time>2018-06-10T12:42:53Z</time>
      </trkpt>
      <trkpt lat="42.258410" lon="2.415200">
        <ele>767.1</ele>
        <time>2018-06-10T12:42:58Z</time>
      </trkpt>
      <trkpt lat="42.258531" lon="2.415102">
        <ele>766.1</ele>
        <time>2018-06-10T12:43:01Z</time>
      </trkpt>
      <trkpt lat="42.258656" lon="2.414931">
        <ele>767.4</ele>
        <time>2018-06-10T12:43:06Z</time>
      </trkpt>
      <trkpt lat="42.258772" lon="2.414803">
        <ele>766.7</ele>
        <time>2018-06-10T12:43:10Z</time>
      </trkpt>
      <trkpt lat="42.258850" lon="2.414670">
        <ele>766.9</ele>
        <time>2018-06-10T12:43:14Z</time>
      </trkpt>
      <trkpt lat="42.258915" lon="2.414492">
        <ele>768.0</ele>
        <time>2018-06-10T12:43:17Z</time>
      </trkpt>
      <trkpt lat="42.258936" lon="2.414322">
        <ele>768.3</ele>
        <time>2018-06-10T12:43:21Z</time>
      </trkpt>
      <trkpt lat="42.258913" lon="2.414110">
        <ele>768.0</ele>
        <time>2018-06-10T12:43:25Z</time>
      </trkpt>
      <trkpt lat="42.258854" lon="2.413971">
        <ele>767.9</ele>
        <time>2018-06-10T12:43:28Z</time>
      </trkpt>
      <trkpt lat="42.258772" lon="2.413881">
        <ele>768.5</ele>
        <time>2018-06-10T12:43:31Z</time>
      </trkpt>
      <trkpt lat="42.258630" lon="2.413770">
        <ele>771.3</ele>
        <time>2018-06-10T12:43:35Z</time>
      </trkpt>
      <trkpt lat="42.258550" lon="2.413560">
        <ele>772.9</ele>
        <time>2018-06-10T12:43:40Z</time>
      </trkpt>
      <trkpt lat="42.258541" lon="2.413340">
        <ele>772.2</ele>
        <time>2018-06-10T12:43:44Z</time>
      </trkpt>
      <trkpt lat="42.258541" lon="2.413040">
        <ele>773.1</ele>
        <time>2018-06-10T12:43:50Z</time>
      </trkpt>
      <trkpt lat="42.258530" lon="2.412900">
        <ele>773.4</ele>
        <time>2018-06-10T12:43:53Z</time>
      </trkpt>
      <trkpt lat="42.258520" lon="2.412780">
        <ele>774.6</ele>
        <time>2018-06-10T12:43:56Z</time>
      </trkpt>
      <trkpt lat="42.258500" lon="2.412650">
        <ele>775.0</ele>
        <time>2018-06-10T12:43:58Z</time>
      </trkpt>
      <trkpt lat="42.258430" lon="2.412490">
        <ele>775.6</ele>
        <time>2018-06-10T12:44:02Z</time>
      </trkpt>
      <trkpt lat="42.258390" lon="2.412360">
        <ele>776.0</ele>
        <time>2018-06-10T12:44:05Z</time>
      </trkpt>
      <trkpt lat="42.258350" lon="2.412230">
        <ele>776.3</ele>
        <time>2018-06-10T12:44:07Z</time>
      </trkpt>
      <trkpt lat="42.258300" lon="2.412080">
        <ele>777.4</ele>
        <time>2018-06-10T12:44:11Z</time>
      </trkpt>
      <trkpt lat="42.258260" lon="2.411930">
        <ele>778.0</ele>
        <time>2018-06-10T12:44:14Z</time>
      </trkpt>
      <trkpt lat="42.258230" lon="2.411790">
        <ele>777.9</ele>
        <time>2018-06-10T12:44:17Z</time>
      </trkpt>
      <trkpt lat="42.258200" lon="2.411640">
        <ele>779.0</ele>
        <time>2018-06-10T12:44:20Z</time>
      </trkpt>
      <trkpt lat="42.258200" lon="2.411470">
        <ele>779.6</ele>
        <time>2018-06-10T12:44:23Z</time>
      </trkpt>
      <trkpt lat="42.258200" lon="2.411330">
        <ele>780.5</ele>
        <time>2018-06-10T12:44:26Z</time>
      </trkpt>
      <trkpt lat="42.258220" lon="2.411190">
        <ele>780.3</ele>
        <time>2018-06-10T12:44:29Z</time>
      </trkpt>
      <trkpt lat="42.258300" lon="2.410990">
        <ele>781.2</ele>
        <time>2018-06-10T12:44:33Z</time>
      </trkpt>
      <trkpt lat="42.258390" lon="2.410890">
        <ele>781.5</ele>
        <time>2018-06-10T12:44:36Z</time>
      </trkpt>
      <trkpt lat="42.258490" lon="2.410800">
        <ele>781.7</ele>
        <time>2018-06-10T12:44:39Z</time>
      </trkpt>
      <trkpt lat="42.258570" lon="2.410690">
        <ele>781.6</ele>
        <time>2018-06-10T12:44:42Z</time>
      </trkpt>
      <trkpt lat="42.258607" lon="2.410603">
        <ele>780.5</ele>
        <time>2018-06-10T12:44:44Z</time>
      </trkpt>
      <trkpt lat="42.258611" lon="2.410524">
        <ele>779.8</ele>
        <time>2018-06-10T12:44:46Z</time>
      </trkpt>
      <trkpt lat="42.258588" lon="2.410391">
        <ele>780.8</ele>
        <time>2018-06-10T12:44:49Z</time>
      </trkpt>
      <trkpt lat="42.258560" lon="2.410252">
        <ele>781.4</ele>
        <time>2018-06-10T12:44:52Z</time>
      </trkpt>
      <trkpt lat="42.258559" lon="2.410185">
        <ele>781.4</ele>
        <time>2018-06-10T12:44:53Z</time>
      </trkpt>
      <trkpt lat="42.258573" lon="2.410125">
        <ele>781.2</ele>
        <time>2018-06-10T12:44:54Z</time>
      </trkpt>
      <trkpt lat="42.258581" lon="2.410040">
        <ele>780.9</ele>
        <time>2018-06-10T12:44:56Z</time>
      </trkpt>
      <trkpt lat="42.258560" lon="2.409970">
        <ele>781.1</ele>
        <time>2018-06-10T12:44:57Z</time>
      </trkpt>
      <trkpt lat="42.258500" lon="2.409820">
        <ele>779.9</ele>
        <time>2018-06-10T12:45:01Z</time>
      </trkpt>
      <trkpt lat="42.258430" lon="2.409640">
        <ele>780.3</ele>
        <time>2018-06-10T12:45:05Z</time>
      </trkpt>
      <trkpt lat="42.258360" lon="2.409440">
        <ele>779.7</ele>
        <time>2018-06-10T12:45:09Z</time>
      </trkpt>
      <trkpt lat="42.258339" lon="2.409351">
        <ele>780.1</ele>
        <time>2018-06-10T12:45:11Z</time>
      </trkpt>
      <trkpt lat="42.258340" lon="2.409280">
        <ele>781.0</ele>
        <time>2018-06-10T12:45:12Z</time>
      </trkpt>
      <trkpt lat="42.258353" lon="2.409224">
        <ele>782.2</ele>
        <time>2018-06-10T12:45:13Z</time>
      </trkpt>
      <trkpt lat="42.258388" lon="2.409181">
        <ele>781.9</ele>
        <time>2018-06-10T12:45:15Z</time>
      </trkpt>
      <trkpt lat="42.258429" lon="2.409144">
        <ele>782.2</ele>
        <time>2018-06-10T12:45:16Z</time>
      </trkpt>
      <trkpt lat="42.258500" lon="2.409065">
        <ele>782.4</ele>
        <time>2018-06-10T12:45:19Z</time>
      </trkpt>
      <trkpt lat="42.258607" lon="2.408894">
        <ele>782.3</ele>
        <time>2018-06-10T12:45:23Z</time>
      </trkpt>
      <trkpt lat="42.258693" lon="2.408778">
        <ele>781.3</ele>
        <time>2018-06-10T12:45:26Z</time>
      </trkpt>
      <trkpt lat="42.258759" lon="2.408626">
        <ele>781.3</ele>
        <time>2018-06-10T12:45:30Z</time>
      </trkpt>
      <trkpt lat="42.258812" lon="2.408455">
        <ele>780.6</ele>
        <time>2018-06-10T12:45:33Z</time>
      </trkpt>
      <trkpt lat="42.258810" lon="2.408190">
        <ele>780.6</ele>
        <time>2018-06-10T12:45:39Z</time>
      </trkpt>
      <trkpt lat="42.258830" lon="2.407970">
        <ele>779.6</ele>
        <time>2018-06-10T12:45:43Z</time>
      </trkpt>
      <trkpt lat="42.258840" lon="2.407810">
        <ele>779.9</ele>
        <time>2018-06-10T12:45:46Z</time>
      </trkpt>
      <trkpt lat="42.258850" lon="2.407660">
        <ele>780.4</ele>
        <time>2018-06-10T12:45:49Z</time>
      </trkpt>
      <trkpt lat="42.258850" lon="2.407460">
        <ele>780.3</ele>
        <time>2018-06-10T12:45:53Z</time>
      </trkpt>
      <trkpt lat="42.258828" lon="2.407249">
        <ele>780.0</ele>
        <time>2018-06-10T12:45:57Z</time>
      </trkpt>
      <trkpt lat="42.258787" lon="2.407116">
        <ele>780.7</ele>
        <time>2018-06-10T12:46:00Z</time>
      </trkpt>
      <trkpt lat="42.258768" lon="2.407025">
        <ele>780.5</ele>
        <time>2018-06-10T12:46:02Z</time>
      </trkpt>
      <trkpt lat="42.258732" lon="2.406977">
        <ele>780.8</ele>
        <time>2018-06-10T12:46:03Z</time>
      </trkpt>
      <trkpt lat="42.258660" lon="2.406950">
        <ele>782.7</ele>
        <time>2018-06-10T12:46:05Z</time>
      </trkpt>
      <trkpt lat="42.258560" lon="2.406890">
        <ele>782.9</ele>
        <time>2018-06-10T12:46:08Z</time>
      </trkpt>
      <trkpt lat="42.258458" lon="2.406803">
        <ele>782.7</ele>
        <time>2018-06-10T12:46:11Z</time>
      </trkpt>
      <trkpt lat="42.258340" lon="2.406690">
        <ele>784.4</ele>
        <time>2018-06-10T12:46:15Z</time>
      </trkpt>
      <trkpt lat="42.258240" lon="2.406570">
        <ele>784.6</ele>
        <time>2018-06-10T12:46:19Z</time>
      </trkpt>
      <trkpt lat="42.258203" lon="2.406461">
        <ele>784.6</ele>
        <time>2018-06-10T12:46:21Z</time>
      </trkpt>
      <trkpt lat="42.258180" lon="2.406376">
        <ele>784.0</ele>
        <time>2018-06-10T12:46:23Z</time>
      </trkpt>
      <trkpt lat="42.258120" lon="2.406219">
        <ele>784.3</ele>
        <time>2018-06-10T12:46:26Z</time>
      </trkpt>
      <trkpt lat="42.258065" lon="2.406062">
        <ele>784.1</ele>
        <time>2018-06-10T12:46:30Z</time>
      </trkpt>
      <trkpt lat="42.258030" lon="2.405910">
        <ele>784.7</ele>
        <time>2018-06-10T12:46:33Z</time>
      </trkpt>
      <trkpt lat="42.258030" lon="2.405720">
        <ele>784.7</ele>
        <time>2018-06-10T12:46:37Z</time>
      </trkpt>
      <trkpt lat="42.258020" lon="2.405561">
        <ele>784.9</ele>
        <time>2018-06-10T12:46:40Z</time>
      </trkpt>
      <trkpt lat="42.258030" lon="2.405359">
        <ele>784.9</ele>
        <time>2018-06-10T12:46:44Z</time>
      </trkpt>
      <trkpt lat="42.258050" lon="2.405190">
        <ele>786.4</ele>
        <time>2018-06-10T12:46:47Z</time>
      </trkpt>
      <trkpt lat="42.258083" lon="2.405110">
        <ele>787.3</ele>
        <time>2018-06-10T12:46:49Z</time>
      </trkpt>
      <trkpt lat="42.258130" lon="2.405060">
        <ele>788.0</ele>
        <time>2018-06-10T12:46:51Z</time>
      </trkpt>
      <trkpt lat="42.258260" lon="2.404900">
        <ele>790.0</ele>
        <time>2018-06-10T12:46:55Z</time>
      </trkpt>
      <trkpt lat="42.258334" lon="2.404835">
        <ele>789.8</ele>
        <time>2018-06-10T12:46:58Z</time>
      </trkpt>
      <trkpt lat="42.258360" lon="2.404762">
        <ele>790.0</ele>
        <time>2018-06-10T12:46:59Z</time>
      </trkpt>
      <trkpt lat="42.258350" lon="2.404580">
        <ele>791.1</ele>
        <time>2018-06-10T12:47:03Z</time>
      </trkpt>
      <trkpt lat="42.258360" lon="2.404400">
        <ele>790.2</ele>
        <time>2018-06-10T12:47:06Z</time>
      </trkpt>
      <trkpt lat="42.258360" lon="2.404270">
        <ele>789.6</ele>
        <time>2018-06-10T12:47:09Z</time>
      </trkpt>
      <trkpt lat="42.258370" lon="2.404090">
        <ele>790.8</ele>
        <time>2018-06-10T12:47:13Z</time>
      </trkpt>
      <trkpt lat="42.258370" lon="2.403910">
        <ele>791.8</ele>
        <time>2018-06-10T12:47:16Z</time>
      </trkpt>
      <trkpt lat="42.258360" lon="2.403720">
        <ele>792.1</ele>
        <time>2018-06-10T12:47:20Z</time>
      </trkpt>
      <trkpt lat="42.258390" lon="2.403580">
        <ele>791.2</ele>
        <time>2018-06-10T12:47:23Z</time>
      </trkpt>
      <trkpt lat="42.258410" lon="2.403400">
        <ele>793.4</ele>
        <time>2018-06-10T12:47:26Z</time>
      </trkpt>
      <trkpt lat="42.258470" lon="2.403240">
        <ele>793.8</ele>
        <time>2018-06-10T12:47:30Z</time>
      </trkpt>
      <trkpt lat="42.258500" lon="2.403100">
        <ele>795.6</ele>
        <time>2018-06-10T12:47:33Z</time>
      </trkpt>
      <trkpt lat="42.258550" lon="2.402910">
        <ele>795.3</ele>
        <time>2018-06-10T12:47:37Z</time>
      </trkpt>
      <trkpt lat="42.258541" lon="2.402750">
        <ele>795.5</ele>
        <time>2018-06-10T12:47:40Z</time>
      </trkpt>
      <trkpt lat="42.258510" lon="2.402610">
        <ele>796.3</ele>
        <time>2018-06-10T12:47:43Z</time>
      </trkpt>
      <trkpt lat="42.258490" lon="2.402450">
        <ele>798.4</ele>
        <time>2018-06-10T12:47:46Z</time>
      </trkpt>
      <trkpt lat="42.258520" lon="2.402220">
        <ele>799.4</ele>
        <time>2018-06-10T12:47:51Z</time>
      </trkpt>
      <trkpt lat="42.258570" lon="2.402070">
        <ele>800.2</ele>
        <time>2018-06-10T12:47:54Z</time>
      </trkpt>
      <trkpt lat="42.258680" lon="2.401900">
        <ele>799.8</ele>
        <time>2018-06-10T12:47:58Z</time>
      </trkpt>
      <trkpt lat="42.258750" lon="2.401760">
        <ele>799.0</ele>
        <time>2018-06-10T12:48:02Z</time>
      </trkpt>
      <trkpt lat="42.258830" lon="2.401620">
        <ele>797.4</ele>
        <time>2018-06-10T12:48:05Z</time>
      </trkpt>
      <trkpt lat="42.258910" lon="2.401460">
        <ele>797.8</ele>
        <time>2018-06-10T12:48:09Z</time>
      </trkpt>
      <trkpt lat="42.258960" lon="2.401310">
        <ele>798.6</ele>
        <time>2018-06-10T12:48:12Z</time>
      </trkpt>
      <trkpt lat="42.258980" lon="2.401140">
        <ele>799.1</ele>
        <time>2018-06-10T12:48:16Z</time>
      </trkpt>
      <trkpt lat="42.258940" lon="2.400810">
        <ele>797.5</ele>
        <time>2018-06-10T12:48:22Z</time>
      </trkpt>
      <trkpt lat="42.258870" lon="2.400630">
        <ele>797.7</ele>
        <time>2018-06-10T12:48:26Z</time>
      </trkpt>
      <trkpt lat="42.258750" lon="2.400480">
        <ele>799.3</ele>
        <time>2018-06-10T12:48:31Z</time>
      </trkpt>
      <trkpt lat="42.258650" lon="2.400380">
        <ele>801.6</ele>
        <time>2018-06-10T12:48:34Z</time>
      </trkpt>
      <trkpt lat="42.258541" lon="2.400280">
        <ele>804.2</ele>
        <time>2018-06-10T12:48:38Z</time>
      </trkpt>
      <trkpt lat="42.258400" lon="2.400200">
        <ele>809.6</ele>
        <time>2018-06-10T12:48:42Z</time>
      </trkpt>
      <trkpt lat="42.258290" lon="2.400110">
        <ele>810.0</ele>
        <time>2018-06-10T12:48:45Z</time>
      </trkpt>
      <trkpt lat="42.258180" lon="2.399991">
        <ele>810.7</ele>
        <time>2018-06-10T12:48:49Z</time>
      </trkpt>
      <trkpt lat="42.258080" lon="2.399860">
        <ele>811.5</ele>
        <time>2018-06-10T12:48:53Z</time>
      </trkpt>
      <trkpt lat="42.258010" lon="2.399710">
        <ele>811.6</ele>
        <time>2018-06-10T12:48:56Z</time>
      </trkpt>
      <trkpt lat="42.257930" lon="2.399530">
        <ele>812.3</ele>
        <time>2018-06-10T12:49:00Z</time>
      </trkpt>
      <trkpt lat="42.257860" lon="2.399330">
        <ele>812.7</ele>
        <time>2018-06-10T12:49:05Z</time>
      </trkpt>
      <trkpt lat="42.257890" lon="2.399140">
        <ele>811.1</ele>
        <time>2018-06-10T12:49:09Z</time>
      </trkpt>
      <trkpt lat="42.257900" lon="2.398950">
        <ele>812.1</ele>
        <time>2018-06-10T12:49:12Z</time>
      </trkpt>
      <trkpt lat="42.258001" lon="2.398730">
        <ele>811.4</ele>
        <time>2018-06-10T12:49:17Z</time>
      </trkpt>
      <trkpt lat="42.258170" lon="2.398550">
        <ele>809.3</ele>
        <time>2018-06-10T12:49:23Z</time>
      </trkpt>
      <trkpt lat="42.258240" lon="2.398360">
        <ele>810.1</ele>
        <time>2018-06-10T12:49:27Z</time>
      </trkpt>
      <trkpt lat="42.258320" lon="2.398180">
        <ele>810.3</ele>
        <time>2018-06-10T12:49:32Z</time>
      </trkpt>
      <trkpt lat="42.258370" lon="2.398040">
        <ele>810.4</ele>
        <time>2018-06-10T12:49:35Z</time>
      </trkpt>
      <trkpt lat="42.258400" lon="2.397900">
        <ele>810.6</ele>
        <time>2018-06-10T12:49:37Z</time>
      </trkpt>
      <trkpt lat="42.258390" lon="2.397740">
        <ele>812.3</ele>
        <time>2018-06-10T12:49:41Z</time>
      </trkpt>
      <trkpt lat="42.258360" lon="2.397590">
        <ele>813.4</ele>
        <time>2018-06-10T12:49:44Z</time>
      </trkpt>
      <trkpt lat="42.258330" lon="2.397430">
        <ele>814.3</ele>
        <time>2018-06-10T12:49:47Z</time>
      </trkpt>
      <trkpt lat="42.258300" lon="2.397280">
        <ele>815.6</ele>
        <time>2018-06-10T12:49:50Z</time>
      </trkpt>
      <trkpt lat="42.258266" lon="2.397125">
        <ele>818.9</ele>
        <time>2018-06-10T12:49:53Z</time>
      </trkpt>
      <trkpt lat="42.258275" lon="2.396967">
        <ele>818.7</ele>
        <time>2018-06-10T12:49:56Z</time>
      </trkpt>
      <trkpt lat="42.258320" lon="2.396790">
        <ele>818.2</ele>
        <time>2018-06-10T12:50:00Z</time>
      </trkpt>
      <trkpt lat="42.258376" lon="2.396602">
        <ele>817.8</ele>
        <time>2018-06-10T12:50:04Z</time>
      </trkpt>
      <trkpt lat="42.258450" lon="2.396430">
        <ele>817.0</ele>
        <time>2018-06-10T12:50:08Z</time>
      </trkpt>
      <trkpt lat="42.258590" lon="2.396270">
        <ele>818.3</ele>
        <time>2018-06-10T12:50:13Z</time>
      </trkpt>
      <trkpt lat="42.258740" lon="2.396170">
        <ele>819.7</ele>
        <time>2018-06-10T12:50:17Z</time>
      </trkpt>
      <trkpt lat="42.258830" lon="2.396100">
        <ele>819.8</ele>
        <time>2018-06-10T12:50:20Z</time>
      </trkpt>
      <trkpt lat="42.258920" lon="2.395970">
        <ele>818.7</ele>
        <time>2018-06-10T12:50:24Z</time>
      </trkpt>
      <trkpt lat="42.258940" lon="2.395810">
        <ele>818.6</ele>
        <time>2018-06-10T12:50:27Z</time>
      </trkpt>
      <trkpt lat="42.258940" lon="2.395650">
        <ele>819.1</ele>
        <time>2018-06-10T12:50:30Z</time>
      </trkpt>
      <trkpt lat="42.258960" lon="2.395510">
        <ele>819.4</ele>
        <time>2018-06-10T12:50:33Z</time>
      </trkpt>
      <trkpt lat="42.258980" lon="2.395310">
        <ele>821.2</ele>
        <time>2018-06-10T12:50:37Z</time>
      </trkpt>
      <trkpt lat="42.259000" lon="2.395120">
        <ele>822.0</ele>
        <time>2018-06-10T12:50:41Z</time>
      </trkpt>
      <trkpt lat="42.259010" lon="2.394940">
        <ele>822.9</ele>
        <time>2018-06-10T12:50:44Z</time>
      </trkpt>
      <trkpt lat="42.259010" lon="2.394770">
        <ele>821.9</ele>
        <time>2018-06-10T12:50:48Z</time>
      </trkpt>
      <trkpt lat="42.258980" lon="2.394621">
        <ele>823.9</ele>
        <time>2018-06-10T12:50:51Z</time>
      </trkpt>
      <trkpt lat="42.258930" lon="2.394480">
        <ele>826.3</ele>
        <time>2018-06-10T12:50:54Z</time>
      </trkpt>
      <trkpt lat="42.258870" lon="2.394340">
        <ele>829.4</ele>
        <time>2018-06-10T12:50:57Z</time>
      </trkpt>
      <trkpt lat="42.258830" lon="2.394200">
        <ele>831.2</ele>
        <time>2018-06-10T12:51:00Z</time>
      </trkpt>
      <trkpt lat="42.258840" lon="2.394030">
        <ele>830.3</ele>
        <time>2018-06-10T12:51:03Z</time>
      </trkpt>
      <trkpt lat="42.258950" lon="2.393990">
        <ele>827.8</ele>
        <time>2018-06-10T12:51:06Z</time>
      </trkpt>
      <trkpt lat="42.259060" lon="2.393880">
        <ele>827.3</ele>
        <time>2018-06-10T12:51:10Z</time>
      </trkpt>
      <trkpt lat="42.259160" lon="2.393730">
        <ele>828.3</ele>
        <time>2018-06-10T12:51:14Z</time>
      </trkpt>
      <trkpt lat="42.259230" lon="2.393601">
        <ele>829.9</ele>
        <time>2018-06-10T12:51:17Z</time>
      </trkpt>
      <trkpt lat="42.259320" lon="2.393470">
        <ele>830.0</ele>
        <time>2018-06-10T12:51:21Z</time>
      </trkpt>
      <trkpt lat="42.259410" lon="2.393390">
        <ele>829.3</ele>
        <time>2018-06-10T12:51:24Z</time>
      </trkpt>
      <trkpt lat="42.259460" lon="2.393280">
        <ele>829.0</ele>
        <time>2018-06-10T12:51:26Z</time>
      </trkpt>
      <trkpt lat="42.259480" lon="2.393080">
        <ele>830.0</ele>
        <time>2018-06-10T12:51:30Z</time>
      </trkpt>
      <trkpt lat="42.259550" lon="2.392930">
        <ele>828.4</ele>
        <time>2018-06-10T12:51:34Z</time>
      </trkpt>
      <trkpt lat="42.259550" lon="2.392760">
        <ele>828.4</ele>
        <time>2018-06-10T12:51:37Z</time>
      </trkpt>
      <trkpt lat="42.259520" lon="2.392590">
        <ele>829.1</ele>
        <time>2018-06-10T12:51:41Z</time>
      </trkpt>
      <trkpt lat="42.259500" lon="2.392420">
        <ele>830.0</ele>
        <time>2018-06-10T12:51:44Z</time>
      </trkpt>
      <trkpt lat="42.259420" lon="2.392280">
        <ele>833.5</ele>
        <time>2018-06-10T12:51:48Z</time>
      </trkpt>
      <trkpt lat="42.259370" lon="2.392110">
        <ele>835.1</ele>
        <time>2018-06-10T12:51:51Z</time>
      </trkpt>
      <trkpt lat="42.259350" lon="2.391960">
        <ele>835.2</ele>
        <time>2018-06-10T12:51:54Z</time>
      </trkpt>
      <trkpt lat="42.259300" lon="2.391800">
        <ele>835.8</ele>
        <time>2018-06-10T12:51:58Z</time>
      </trkpt>
      <trkpt lat="42.259240" lon="2.391640">
        <ele>836.1</ele>
        <time>2018-06-10T12:52:01Z</time>
      </trkpt>
      <trkpt lat="42.259150" lon="2.391520">
        <ele>835.4</ele>
        <time>2018-06-10T12:52:04Z</time>
      </trkpt>
      <trkpt lat="42.259090" lon="2.391400">
        <ele>831.4</ele>
        <time>2018-06-10T12:52:07Z</time>
      </trkpt>
      <trkpt lat="42.258980" lon="2.391240">
        <ele>828.4</ele>
        <time>2018-06-10T12:52:12Z</time>
      </trkpt>
      <trkpt lat="42.258870" lon="2.391120">
        <ele>828.2</ele>
        <time>2018-06-10T12:52:16Z</time>
      </trkpt>
      <trkpt lat="42.258760" lon="2.391030">
        <ele>830.0</ele>
        <time>2018-06-10T12:52:19Z</time>
      </trkpt>
      <trkpt lat="42.258660" lon="2.390950">
        <ele>832.8</ele>
        <time>2018-06-10T12:52:22Z</time>
      </trkpt>
      <trkpt lat="42.258570" lon="2.390850">
        <ele>835.6</ele>
        <time>2018-06-10T12:52:25Z</time>
      </trkpt>
      <trkpt lat="42.258510" lon="2.390730">
        <ele>836.8</ele>
        <time>2018-06-10T12:52:28Z</time>
      </trkpt>
      <trkpt lat="42.258441" lon="2.390629">
        <ele>838.2</ele>
        <time>2018-06-10T12:52:31Z</time>
      </trkpt>
      <trkpt lat="42.258403" lon="2.390568">
        <ele>838.8</ele>
        <time>2018-06-10T12:52:33Z</time>
      </trkpt>
      <trkpt lat="42.258390" lon="2.390500">
        <ele>837.8</ele>
        <time>2018-06-10T12:52:34Z</time>
      </trkpt>
      <trkpt lat="42.258407" lon="2.390435">
        <ele>837.1</ele>
        <time>2018-06-10T12:52:35Z</time>
      </trkpt>
      <trkpt lat="42.258443" lon="2.390362">
        <ele>837.5</ele>
        <time>2018-06-10T12:52:37Z</time>
      </trkpt>
      <trkpt lat="42.258480" lon="2.390320">
        <ele>837.8</ele>
        <time>2018-06-10T12:52:38Z</time>
      </trkpt>
      <trkpt lat="42.258610" lon="2.390240">
        <ele>836.6</ele>
        <time>2018-06-10T12:52:42Z</time>
      </trkpt>
      <trkpt lat="42.258790" lon="2.390150">
        <ele>833.7</ele>
        <time>2018-06-10T12:52:47Z</time>
      </trkpt>
      <trkpt lat="42.258900" lon="2.390090">
        <ele>833.0</ele>
        <time>2018-06-10T12:52:50Z</time>
      </trkpt>
      <trkpt lat="42.259000" lon="2.390030">
        <ele>832.7</ele>
        <time>2018-06-10T12:52:53Z</time>
      </trkpt>
      <trkpt lat="42.259080" lon="2.389980">
        <ele>832.6</ele>
        <time>2018-06-10T12:52:56Z</time>
      </trkpt>
      <trkpt lat="42.259210" lon="2.389876">
        <ele>834.0</ele>
        <time>2018-06-10T12:53:00Z</time>
      </trkpt>
      <trkpt lat="42.259340" lon="2.389784">
        <ele>835.2</ele>
        <time>2018-06-10T12:53:04Z</time>
      </trkpt>
      <trkpt lat="42.259435" lon="2.389728">
        <ele>835.6</ele>
        <time>2018-06-10T12:53:06Z</time>
      </trkpt>
      <trkpt lat="42.259551" lon="2.389654">
        <ele>836.6</ele>
        <time>2018-06-10T12:53:10Z</time>
      </trkpt>
      <trkpt lat="42.259614" lon="2.389642">
        <ele>837.3</ele>
        <time>2018-06-10T12:53:12Z</time>
      </trkpt>
      <trkpt lat="42.259686" lon="2.389641">
        <ele>837.5</ele>
        <time>2018-06-10T12:53:13Z</time>
      </trkpt>
      <trkpt lat="42.259803" lon="2.389628">
        <ele>838.0</ele>
        <time>2018-06-10T12:53:17Z</time>
      </trkpt>
      <trkpt lat="42.259920" lon="2.389626">
        <ele>837.7</ele>
        <time>2018-06-10T12:53:20Z</time>
      </trkpt>
      <trkpt lat="42.260046" lon="2.389619">
        <ele>837.8</ele>
        <time>2018-06-10T12:53:23Z</time>
      </trkpt>
      <trkpt lat="42.260177" lon="2.389600">
        <ele>837.2</ele>
        <time>2018-06-10T12:53:27Z</time>
      </trkpt>
      <trkpt lat="42.260280" lon="2.389540">
        <ele>837.1</ele>
        <time>2018-06-10T12:53:30Z</time>
      </trkpt>
      <trkpt lat="42.260380" lon="2.389460">
        <ele>836.6</ele>
        <time>2018-06-10T12:53:33Z</time>
      </trkpt>
      <trkpt lat="42.260460" lon="2.389340">
        <ele>836.9</ele>
        <time>2018-06-10T12:53:36Z</time>
      </trkpt>
      <trkpt lat="42.260651" lon="2.389007">
        <ele>837.4</ele>
        <time>2018-06-10T12:53:44Z</time>
      </trkpt>
      <trkpt lat="42.260723" lon="2.388885">
        <ele>837.6</ele>
        <time>2018-06-10T12:53:47Z</time>
      </trkpt>
      <trkpt lat="42.260776" lon="2.388770">
        <ele>838.6</ele>
        <time>2018-06-10T12:53:50Z</time>
      </trkpt>
      <trkpt lat="42.260816" lon="2.388648">
        <ele>839.6</ele>
        <time>2018-06-10T12:53:53Z</time>
      </trkpt>
      <trkpt lat="42.260833" lon="2.388557">
        <ele>839.9</ele>
        <time>2018-06-10T12:53:54Z</time>
      </trkpt>
      <trkpt lat="42.260816" lon="2.388436">
        <ele>841.0</ele>
        <time>2018-06-10T12:53:57Z</time>
      </trkpt>
      <trkpt lat="42.260840" lon="2.388342">
        <ele>841.1</ele>
        <time>2018-06-10T12:53:59Z</time>
      </trkpt>
      <trkpt lat="42.260893" lon="2.388218">
        <ele>839.1</ele>
        <time>2018-06-10T12:54:02Z</time>
      </trkpt>
      <trkpt lat="42.260967" lon="2.387937">
        <ele>835.8</ele>
        <time>2018-06-10T12:54:08Z</time>
      </trkpt>
      <trkpt lat="42.260987" lon="2.387765">
        <ele>835.1</ele>
        <time>2018-06-10T12:54:11Z</time>
      </trkpt>
      <trkpt lat="42.261004" lon="2.387550">
        <ele>834.6</ele>
        <time>2018-06-10T12:54:15Z</time>
      </trkpt>
      <trkpt lat="42.260986" lon="2.387304">
        <ele>834.0</ele>
        <time>2018-06-10T12:54:20Z</time>
      </trkpt>
      <trkpt lat="42.260925" lon="2.387037">
        <ele>833.9</ele>
        <time>2018-06-10T12:54:26Z</time>
      </trkpt>
      <trkpt lat="42.260866" lon="2.386796">
        <ele>832.9</ele>
        <time>2018-06-10T12:54:31Z</time>
      </trkpt>
      <trkpt lat="42.260846" lon="2.386505">
        <ele>830.9</ele>
        <time>2018-06-10T12:54:36Z</time>
      </trkpt>
      <trkpt lat="42.260746" lon="2.386288">
        <ele>831.4</ele>
        <time>2018-06-10T12:54:41Z</time>
      </trkpt>
      <trkpt lat="42.260610" lon="2.386022">
        <ele>831.0</ele>
        <time>2018-06-10T12:54:48Z</time>
      </trkpt>
      <trkpt lat="42.260347" lon="2.385722">
        <ele>831.8</ele>
        <time>2018-06-10T12:54:57Z</time>
      </trkpt>
      <trkpt lat="42.260166" lon="2.385542">
        <ele>832.7</ele>
        <time>2018-06-10T12:55:03Z</time>
      </trkpt>
      <trkpt lat="42.260084" lon="2.385421">
        <ele>832.4</ele>
        <time>2018-06-10T12:55:06Z</time>
      </trkpt>
      <trkpt lat="42.260038" lon="2.385325">
        <ele>833.6</ele>
        <time>2018-06-10T12:55:08Z</time>
      </trkpt>
      <trkpt lat="42.260118" lon="2.385118">
        <ele>833.8</ele>
        <time>2018-06-10T12:55:13Z</time>
      </trkpt>
      <trkpt lat="42.260145" lon="2.384984">
        <ele>832.6</ele>
        <time>2018-06-10T12:55:16Z</time>
      </trkpt>
      <trkpt lat="42.260043" lon="2.384524">
        <ele>832.6</ele>
        <time>2018-06-10T12:55:25Z</time>
      </trkpt>
      <trkpt lat="42.259879" lon="2.384187">
        <ele>833.6</ele>
        <time>2018-06-10T12:55:33Z</time>
      </trkpt>
      <trkpt lat="42.259803" lon="2.383969">
        <ele>834.8</ele>
        <time>2018-06-10T12:55:38Z</time>
      </trkpt>
      <trkpt lat="42.259904" lon="2.383859">
        <ele>835.9</ele>
        <time>2018-06-10T12:55:41Z</time>
      </trkpt>
      <trkpt lat="42.260049" lon="2.383870">
        <ele>837.6</ele>
        <time>2018-06-10T12:55:45Z</time>
      </trkpt>
      <trkpt lat="42.260238" lon="2.383916">
        <ele>841.0</ele>
        <time>2018-06-10T12:55:51Z</time>
      </trkpt>
      <trkpt lat="42.260375" lon="2.384014">
        <ele>837.8</ele>
        <time>2018-06-10T12:55:55Z</time>
      </trkpt>
      <trkpt lat="42.260743" lon="2.384118">
        <ele>836.0</ele>
        <time>2018-06-10T12:56:05Z</time>
      </trkpt>
      <trkpt lat="42.260834" lon="2.384153">
        <ele>836.9</ele>
        <time>2018-06-10T12:56:07Z</time>
      </trkpt>
      <trkpt lat="42.261055" lon="2.384350">
        <ele>835.7</ele>
        <time>2018-06-10T12:56:14Z</time>
      </trkpt>
      <trkpt lat="42.261276" lon="2.384343">
        <ele>836.9</ele>
        <time>2018-06-10T12:56:20Z</time>
      </trkpt>
      <trkpt lat="42.261627" lon="2.384254">
        <ele>839.6</ele>
        <time>2018-06-10T12:56:30Z</time>
      </trkpt>
      <trkpt lat="42.261775" lon="2.384343">
        <ele>844.2</ele>
        <time>2018-06-10T12:56:34Z</time>
      </trkpt>
      <trkpt lat="42.261867" lon="2.384584">
        <ele>841.7</ele>
        <time>2018-06-10T12:56:40Z</time>
      </trkpt>
      <trkpt lat="42.261944" lon="2.384676">
        <ele>840.8</ele>
        <time>2018-06-10T12:56:42Z</time>
      </trkpt>
      <trkpt lat="42.262012" lon="2.384704">
        <ele>840.6</ele>
        <time>2018-06-10T12:56:44Z</time>
      </trkpt>
      <trkpt lat="42.262171" lon="2.384715">
        <ele>839.5</ele>
        <time>2018-06-10T12:56:48Z</time>
      </trkpt>
      <trkpt lat="42.262513" lon="2.384661">
        <ele>837.5</ele>
        <time>2018-06-10T12:56:58Z</time>
      </trkpt>
      <trkpt lat="42.262583" lon="2.384512">
        <ele>837.5</ele>
        <time>2018-06-10T12:57:01Z</time>
      </trkpt>
      <trkpt lat="42.262586" lon="2.384359">
        <ele>839.0</ele>
        <time>2018-06-10T12:57:04Z</time>
      </trkpt>
      <trkpt lat="42.262510" lon="2.384096">
        <ele>839.6</ele>
        <time>2018-06-10T12:57:10Z</time>
      </trkpt>
      <trkpt lat="42.262240" lon="2.383432">
        <ele>837.6</ele>
        <time>2018-06-10T12:57:25Z</time>
      </trkpt>
      <trkpt lat="42.262238" lon="2.383247">
        <ele>839.5</ele>
        <time>2018-06-10T12:57:28Z</time>
      </trkpt>
      <trkpt lat="42.262312" lon="2.382661">
        <ele>845.1</ele>
        <time>2018-06-10T12:57:40Z</time>
      </trkpt>
      <trkpt lat="42.262311" lon="2.382514">
        <ele>843.4</ele>
        <time>2018-06-10T12:57:43Z</time>
      </trkpt>
      <trkpt lat="42.262256" lon="2.382393">
        <ele>842.8</ele>
        <time>2018-06-10T12:57:46Z</time>
      </trkpt>
      <trkpt lat="42.262075" lon="2.382213">
        <ele>844.9</ele>
        <time>2018-06-10T12:57:52Z</time>
      </trkpt>
      <trkpt lat="42.261876" lon="2.382045">
        <ele>846.0</ele>
        <time>2018-06-10T12:57:58Z</time>
      </trkpt>
      <trkpt lat="42.261695" lon="2.381926">
        <ele>846.3</ele>
        <time>2018-06-10T12:58:03Z</time>
      </trkpt>
      <trkpt lat="42.261510" lon="2.381872">
        <ele>846.5</ele>
        <time>2018-06-10T12:58:08Z</time>
      </trkpt>
      <trkpt lat="42.261254" lon="2.381942">
        <ele>848.7</ele>
        <time>2018-06-10T12:58:15Z</time>
      </trkpt>
      <trkpt lat="42.261127" lon="2.381798">
        <ele>849.5</ele>
        <time>2018-06-10T12:58:20Z</time>
      </trkpt>
      <trkpt lat="42.261063" lon="2.381605">
        <ele>852.0</ele>
        <time>2018-06-10T12:58:24Z</time>
      </trkpt>
      <trkpt lat="42.260990" lon="2.381315">
        <ele>855.8</ele>
        <time>2018-06-10T12:58:30Z</time>
      </trkpt>
      <trkpt lat="42.260970" lon="2.381048">
        <ele>858.5</ele>
        <time>2018-06-10T12:58:35Z</time>
      </trkpt>
      <trkpt lat="42.261036" lon="2.380882">
        <ele>862.3</ele>
        <time>2018-06-10T12:58:39Z</time>
      </trkpt>
      <trkpt lat="42.261342" lon="2.380807">
        <ele>859.1</ele>
        <time>2018-06-10T12:58:48Z</time>
      </trkpt>
      <trkpt lat="42.261446" lon="2.380704">
        <ele>860.2</ele>
        <time>2018-06-10T12:58:51Z</time>
      </trkpt>
      <trkpt lat="42.261521" lon="2.380538">
        <ele>863.1</ele>
        <time>2018-06-10T12:58:55Z</time>
      </trkpt>
      <trkpt lat="42.261559" lon="2.380060">
        <ele>869.3</ele>
        <time>2018-06-10T12:59:05Z</time>
      </trkpt>
      <trkpt lat="42.261576" lon="2.379793">
        <ele>865.7</ele>
        <time>2018-06-10T12:59:10Z</time>
      </trkpt>
      <trkpt lat="42.261624" lon="2.379616">
        <ele>863.5</ele>
        <time>2018-06-10T12:59:14Z</time>
      </trkpt>
      <trkpt lat="42.261768" lon="2.379590">
        <ele>864.3</ele>
        <time>2018-06-10T12:59:18Z</time>
      </trkpt>
      <trkpt lat="42.261935" lon="2.379620">
        <ele>867.2</ele>
        <time>2018-06-10T12:59:22Z</time>
      </trkpt>
      <trkpt lat="42.262098" lon="2.379776">
        <ele>868.8</ele>
        <time>2018-06-10T12:59:27Z</time>
      </trkpt>
      <trkpt lat="42.262279" lon="2.379968">
        <ele>871.7</ele>
        <time>2018-06-10T12:59:34Z</time>
      </trkpt>
      <trkpt lat="42.262442" lon="2.380076">
        <ele>874.9</ele>
        <time>2018-06-10T12:59:38Z</time>
      </trkpt>
      <trkpt lat="42.262649" lon="2.380062">
        <ele>873.2</ele>
        <time>2018-06-10T12:59:44Z</time>
      </trkpt>
      <trkpt lat="42.262793" lon="2.379988">
        <ele>871.6</ele>
        <time>2018-06-10T12:59:48Z</time>
      </trkpt>
      <trkpt lat="42.263310" lon="2.379300">
        <ele>886.8</ele>
        <time>2018-06-10T13:00:08Z</time>
      </trkpt>
      <trkpt lat="42.263370" lon="2.379200">
        <ele>886.1</ele>
        <time>2018-06-10T13:00:10Z</time>
      </trkpt>
      <trkpt lat="42.263417" lon="2.379064">
        <ele>885.6</ele>
        <time>2018-06-10T13:00:13Z</time>
      </trkpt>
      <trkpt lat="42.263460" lon="2.378900">
        <ele>884.9</ele>
        <time>2018-06-10T13:00:17Z</time>
      </trkpt>
      <trkpt lat="42.263520" lon="2.378720">
        <ele>884.8</ele>
        <time>2018-06-10T13:00:21Z</time>
      </trkpt>
      <trkpt lat="42.263616" lon="2.378432">
        <ele>886.4</ele>
        <time>2018-06-10T13:00:27Z</time>
      </trkpt>
      <trkpt lat="42.263669" lon="2.378237">
        <ele>885.6</ele>
        <time>2018-06-10T13:00:31Z</time>
      </trkpt>
      <trkpt lat="42.263726" lon="2.377964">
        <ele>886.2</ele>
        <time>2018-06-10T13:00:36Z</time>
      </trkpt>
      <trkpt lat="42.263774" lon="2.377751">
        <ele>887.6</ele>
        <time>2018-06-10T13:00:41Z</time>
      </trkpt>
      <trkpt lat="42.263805" lon="2.377575">
        <ele>888.0</ele>
        <time>2018-06-10T13:00:44Z</time>
      </trkpt>
      <trkpt lat="42.263840" lon="2.377423">
        <ele>888.0</ele>
        <time>2018-06-10T13:00:48Z</time>
      </trkpt>
      <trkpt lat="42.263862" lon="2.377290">
        <ele>889.8</ele>
        <time>2018-06-10T13:00:50Z</time>
      </trkpt>
      <trkpt lat="42.263884" lon="2.377162">
        <ele>890.1</ele>
        <time>2018-06-10T13:00:53Z</time>
      </trkpt>
      <trkpt lat="42.263883" lon="2.377059">
        <ele>889.7</ele>
        <time>2018-06-10T13:00:55Z</time>
      </trkpt>
      <trkpt lat="42.263860" lon="2.376932">
        <ele>889.8</ele>
        <time>2018-06-10T13:00:57Z</time>
      </trkpt>
      <trkpt lat="42.263820" lon="2.376800">
        <ele>889.7</ele>
        <time>2018-06-10T13:01:00Z</time>
      </trkpt>
      <trkpt lat="42.263189" lon="2.375180">
        <ele>891.0</ele>
        <time>2018-06-10T13:01:36Z</time>
      </trkpt>
      <trkpt lat="42.263197" lon="2.375105">
        <ele>891.7</ele>
        <time>2018-06-10T13:01:38Z</time>
      </trkpt>
      <trkpt lat="42.263213" lon="2.375062">
        <ele>892.0</ele>
        <time>2018-06-10T13:01:39Z</time>
      </trkpt>
      <trkpt lat="42.263379" lon="2.374909">
        <ele>893.0</ele>
        <time>2018-06-10T13:01:44Z</time>
      </trkpt>
      <trkpt lat="42.263487" lon="2.374437">
        <ele>896.9</ele>
        <time>2018-06-10T13:01:54Z</time>
      </trkpt>
      <trkpt lat="42.263503" lon="2.374322">
        <ele>896.8</ele>
        <time>2018-06-10T13:01:56Z</time>
      </trkpt>
      <trkpt lat="42.263546" lon="2.374221">
        <ele>897.4</ele>
        <time>2018-06-10T13:01:59Z</time>
      </trkpt>
      <trkpt lat="42.263738" lon="2.374046">
        <ele>899.8</ele>
        <time>2018-06-10T13:02:05Z</time>
      </trkpt>
      <trkpt lat="42.263939" lon="2.373914">
        <ele>901.8</ele>
        <time>2018-06-10T13:02:11Z</time>
      </trkpt>
      <trkpt lat="42.264055" lon="2.373871">
        <ele>902.1</ele>
        <time>2018-06-10T13:02:14Z</time>
      </trkpt>
      <trkpt lat="42.264348" lon="2.373823">
        <ele>904.1</ele>
        <time>2018-06-10T13:02:22Z</time>
      </trkpt>
      <trkpt lat="42.264361" lon="2.373761">
        <ele>903.8</ele>
        <time>2018-06-10T13:02:23Z</time>
      </trkpt>
      <trkpt lat="42.264196" lon="2.373367">
        <ele>899.8</ele>
        <time>2018-06-10T13:02:32Z</time>
      </trkpt>
      <trkpt lat="42.263237" lon="2.370894">
        <ele>888.0</ele>
        <time>2018-06-10T13:03:27Z</time>
      </trkpt>
      <trkpt lat="42.263200" lon="2.370780">
        <ele>887.0</ele>
        <time>2018-06-10T13:03:30Z</time>
      </trkpt>
      <trkpt lat="42.263310" lon="2.370690">
        <ele>887.0</ele>
        <time>2018-06-10T13:03:33Z</time>
      </trkpt>
      <trkpt lat="42.263586" lon="2.370509">
        <ele>886.0</ele>
        <time>2018-06-10T13:03:41Z</time>
      </trkpt>
      <trkpt lat="42.264045" lon="2.370317">
        <ele>885.0</ele>
        <time>2018-06-10T13:03:54Z</time>
      </trkpt>
      <trkpt lat="42.264408" lon="2.370162">
        <ele>884.0</ele>
        <time>2018-06-10T13:04:04Z</time>
      </trkpt>
      <trkpt lat="42.264673" lon="2.370038">
        <ele>884.0</ele>
        <time>2018-06-10T13:04:12Z</time>
      </trkpt>
      <trkpt lat="42.264966" lon="2.369938">
        <ele>882.6</ele>
        <time>2018-06-10T13:04:20Z</time>
      </trkpt>
      <trkpt lat="42.265141" lon="2.369918">
        <ele>882.0</ele>
        <time>2018-06-10T13:04:24Z</time>
      </trkpt>
      <trkpt lat="42.265290" lon="2.369892">
        <ele>881.9</ele>
        <time>2018-06-10T13:04:28Z</time>
      </trkpt>
      <trkpt lat="42.265361" lon="2.369861">
        <ele>882.0</ele>
        <time>2018-06-10T13:04:30Z</time>
      </trkpt>
      <trkpt lat="42.265483" lon="2.369806">
        <ele>881.2</ele>
        <time>2018-06-10T13:04:34Z</time>
      </trkpt>
      <trkpt lat="42.265690" lon="2.369620">
        <ele>881.1</ele>
        <time>2018-06-10T13:04:40Z</time>
      </trkpt>
      <trkpt lat="42.265752" lon="2.369560">
        <ele>880.5</ele>
        <time>2018-06-10T13:04:42Z</time>
      </trkpt>
      <trkpt lat="42.265830" lon="2.369500">
        <ele>880.3</ele>
        <time>2018-06-10T13:04:45Z</time>
      </trkpt>
      <trkpt lat="42.265882" lon="2.369481">
        <ele>880.0</ele>
        <time>2018-06-10T13:04:46Z</time>
      </trkpt>
      <trkpt lat="42.265972" lon="2.369467">
        <ele>879.7</ele>
        <time>2018-06-10T13:04:49Z</time>
      </trkpt>
      <trkpt lat="42.266102" lon="2.369460">
        <ele>879.6</ele>
        <time>2018-06-10T13:04:52Z</time>
      </trkpt>
      <trkpt lat="42.266377" lon="2.369536">
        <ele>878.9</ele>
        <time>2018-06-10T13:04:59Z</time>
      </trkpt>
      <trkpt lat="42.266617" lon="2.369625">
        <ele>876.3</ele>
        <time>2018-06-10T13:05:06Z</time>
      </trkpt>
      <trkpt lat="42.266743" lon="2.369660">
        <ele>877.0</ele>
        <time>2018-06-10T13:05:10Z</time>
      </trkpt>
      <trkpt lat="42.266901" lon="2.369676">
        <ele>876.7</ele>
        <time>2018-06-10T13:05:14Z</time>
      </trkpt>
      <trkpt lat="42.267045" lon="2.369675">
        <ele>875.7</ele>
        <time>2018-06-10T13:05:18Z</time>
      </trkpt>
      <trkpt lat="42.267180" lon="2.369698">
        <ele>876.5</ele>
        <time>2018-06-10T13:05:21Z</time>
      </trkpt>
      <trkpt lat="42.267284" lon="2.369733">
        <ele>876.3</ele>
        <time>2018-06-10T13:05:24Z</time>
      </trkpt>
      <trkpt lat="42.267333" lon="2.369763">
        <ele>876.8</ele>
        <time>2018-06-10T13:05:26Z</time>
      </trkpt>
      <trkpt lat="42.267370" lon="2.369811">
        <ele>877.0</ele>
        <time>2018-06-10T13:05:27Z</time>
      </trkpt>
      <trkpt lat="42.267442" lon="2.369835">
        <ele>878.0</ele>
        <time>2018-06-10T13:05:29Z</time>
      </trkpt>
      <trkpt lat="42.267554" lon="2.369839">
        <ele>879.2</ele>
        <time>2018-06-10T13:05:32Z</time>
      </trkpt>
      <trkpt lat="42.267608" lon="2.369839">
        <ele>880.0</ele>
        <time>2018-06-10T13:05:33Z</time>
      </trkpt>
      <trkpt lat="42.267748" lon="2.369845">
        <ele>880.3</ele>
        <time>2018-06-10T13:05:37Z</time>
      </trkpt>
      <trkpt lat="42.267879" lon="2.369830">
        <ele>879.4</ele>
        <time>2018-06-10T13:05:41Z</time>
      </trkpt>
      <trkpt lat="42.267987" lon="2.369835">
        <ele>880.3</ele>
        <time>2018-06-10T13:05:43Z</time>
      </trkpt>
      <trkpt lat="42.268090" lon="2.369850">
        <ele>880.8</ele>
        <time>2018-06-10T13:05:46Z</time>
      </trkpt>
      <trkpt lat="42.268230" lon="2.369840">
        <ele>881.5</ele>
        <time>2018-06-10T13:05:50Z</time>
      </trkpt>
      <trkpt lat="42.268365" lon="2.369862">
        <ele>882.6</ele>
        <time>2018-06-10T13:05:54Z</time>
      </trkpt>
      <trkpt lat="42.268505" lon="2.369878">
        <ele>883.8</ele>
        <time>2018-06-10T13:05:57Z</time>
      </trkpt>
      <trkpt lat="42.268640" lon="2.369901">
        <ele>885.1</ele>
        <time>2018-06-10T13:06:01Z</time>
      </trkpt>
      <trkpt lat="42.268757" lon="2.369943">
        <ele>886.0</ele>
        <time>2018-06-10T13:06:04Z</time>
      </trkpt>
      <trkpt lat="42.268857" lon="2.369972">
        <ele>886.5</ele>
        <time>2018-06-10T13:06:07Z</time>
      </trkpt>
      <trkpt lat="42.269046" lon="2.369964">
        <ele>886.5</ele>
        <time>2018-06-10T13:06:12Z</time>
      </trkpt>
      <trkpt lat="42.269353" lon="2.370057">
        <ele>890.0</ele>
        <time>2018-06-10T13:06:20Z</time>
      </trkpt>
      <trkpt lat="42.269732" lon="2.370102">
        <ele>889.5</ele>
        <time>2018-06-10T13:06:31Z</time>
      </trkpt>
      <trkpt lat="42.270741" lon="2.370286">
        <ele>887.0</ele>
        <time>2018-06-10T13:06:58Z</time>
      </trkpt>
      <trkpt lat="42.271086" lon="2.370244">
        <ele>889.1</ele>
        <time>2018-06-10T13:07:07Z</time>
      </trkpt>
      <trkpt lat="42.271191" lon="2.370160">
        <ele>887.0</ele>
        <time>2018-06-10T13:07:10Z</time>
      </trkpt>
      <trkpt lat="42.271479" lon="2.370182">
        <ele>889.4</ele>
        <time>2018-06-10T13:07:18Z</time>
      </trkpt>
      <trkpt lat="42.271767" lon="2.370082">
        <ele>888.7</ele>
        <time>2018-06-10T13:07:26Z</time>
      </trkpt>
      <trkpt lat="42.271911" lon="2.370056">
        <ele>887.0</ele>
        <time>2018-06-10T13:07:30Z</time>
      </trkpt>
      <trkpt lat="42.271965" lon="2.370032">
        <ele>886.1</ele>
        <time>2018-06-10T13:07:31Z</time>
      </trkpt>
      <trkpt lat="42.271928" lon="2.369983">
        <ele>883.7</ele>
        <time>2018-06-10T13:07:33Z</time>
      </trkpt>
      <trkpt lat="42.271802" lon="2.369936">
        <ele>884.3</ele>
        <time>2018-06-10T13:07:36Z</time>
      </trkpt>
      <trkpt lat="42.271838" lon="2.369887">
        <ele>881.0</ele>
        <time>2018-06-10T13:07:38Z</time>
      </trkpt>
      <trkpt lat="42.272016" lon="2.369871">
        <ele>877.7</ele>
        <time>2018-06-10T13:07:43Z</time>
      </trkpt>
      <trkpt lat="42.272056" lon="2.369846">
        <ele>876.9</ele>
        <time>2018-06-10T13:07:44Z</time>
      </trkpt>
      <trkpt lat="42.272126" lon="2.369860">
        <ele>876.2</ele>
        <time>2018-06-10T13:07:46Z</time>
      </trkpt>
      <trkpt lat="42.272324" lon="2.369931">
        <ele>878.4</ele>
        <time>2018-06-10T13:07:51Z</time>
      </trkpt>
      <trkpt lat="42.272684" lon="2.369879">
        <ele>878.6</ele>
        <time>2018-06-10T13:08:01Z</time>
      </trkpt>
      <trkpt lat="42.272925" lon="2.369819">
        <ele>879.0</ele>
        <time>2018-06-10T13:08:07Z</time>
      </trkpt>
      <trkpt lat="42.273047" lon="2.369764">
        <ele>884.6</ele>
        <time>2018-06-10T13:08:11Z</time>
      </trkpt>
      <trkpt lat="42.273105" lon="2.369721">
        <ele>883.6</ele>
        <time>2018-06-10T13:08:13Z</time>
      </trkpt>
      <trkpt lat="42.273132" lon="2.369708">
        <ele>883.7</ele>
        <time>2018-06-10T13:08:13Z</time>
      </trkpt>
      <trkpt lat="42.273188" lon="2.369704">
        <ele>883.5</ele>
        <time>2018-06-10T13:08:15Z</time>
      </trkpt>
      <trkpt lat="42.273658" lon="2.369966">
        <ele>875.5</ele>
        <time>2018-06-10T13:08:29Z</time>
      </trkpt>
      <trkpt lat="42.274146" lon="2.370325">
        <ele>883.5</ele>
        <time>2018-06-10T13:08:44Z</time>
      </trkpt>
      <trkpt lat="42.274526" lon="2.370685">
        <ele>888.8</ele>
        <time>2018-06-10T13:08:56Z</time>
      </trkpt>
      <trkpt lat="42.274745" lon="2.371144">
        <ele>896.5</ele>
        <time>2018-06-10T13:09:07Z</time>
      </trkpt>
      <trkpt lat="42.275724" lon="2.372347">
        <ele>892.7</ele>
        <time>2018-06-10T13:09:42Z</time>
      </trkpt>
      <trkpt lat="42.275979" lon="2.372781">
        <ele>892.9</ele>
        <time>2018-06-10T13:09:53Z</time>
      </trkpt>
      <trkpt lat="42.276089" lon="2.373192">
        <ele>896.3</ele>
        <time>2018-06-10T13:10:02Z</time>
      </trkpt>
      <trkpt lat="42.276066" lon="2.373548">
        <ele>896.3</ele>
        <time>2018-06-10T13:10:09Z</time>
      </trkpt>
      <trkpt lat="42.276045" lon="2.373778">
        <ele>895.3</ele>
        <time>2018-06-10T13:10:13Z</time>
      </trkpt>
      <trkpt lat="42.276037" lon="2.373894">
        <ele>896.1</ele>
        <time>2018-06-10T13:10:16Z</time>
      </trkpt>
      <trkpt lat="42.276091" lon="2.373984">
        <ele>895.9</ele>
        <time>2018-06-10T13:10:18Z</time>
      </trkpt>
      <trkpt lat="42.276166" lon="2.374064">
        <ele>896.6</ele>
        <time>2018-06-10T13:10:20Z</time>
      </trkpt>
      <trkpt lat="42.276365" lon="2.374232">
        <ele>898.8</ele>
        <time>2018-06-10T13:10:27Z</time>
      </trkpt>
      <trkpt lat="42.276471" lon="2.374181">
        <ele>898.1</ele>
        <time>2018-06-10T13:10:30Z</time>
      </trkpt>
      <trkpt lat="42.276565" lon="2.374143">
        <ele>897.6</ele>
        <time>2018-06-10T13:10:32Z</time>
      </trkpt>
      <trkpt lat="42.276687" lon="2.374142">
        <ele>897.4</ele>
        <time>2018-06-10T13:10:36Z</time>
      </trkpt>
      <trkpt lat="42.276759" lon="2.374147">
        <ele>896.0</ele>
        <time>2018-06-10T13:10:37Z</time>
      </trkpt>
      <trkpt lat="42.276817" lon="2.374183">
        <ele>894.9</ele>
        <time>2018-06-10T13:10:39Z</time>
      </trkpt>
      <trkpt lat="42.276863" lon="2.374268">
        <ele>893.9</ele>
        <time>2018-06-10T13:10:41Z</time>
      </trkpt>
      <trkpt lat="42.276927" lon="2.374431">
        <ele>891.0</ele>
        <time>2018-06-10T13:10:45Z</time>
      </trkpt>
      <trkpt lat="42.276981" lon="2.374527">
        <ele>893.8</ele>
        <time>2018-06-10T13:10:47Z</time>
      </trkpt>
      <trkpt lat="42.277044" lon="2.374533">
        <ele>894.6</ele>
        <time>2018-06-10T13:10:49Z</time>
      </trkpt>
      <trkpt lat="42.277107" lon="2.374459">
        <ele>896.6</ele>
        <time>2018-06-10T13:10:51Z</time>
      </trkpt>
      <trkpt lat="42.277161" lon="2.374356">
        <ele>900.4</ele>
        <time>2018-06-10T13:10:54Z</time>
      </trkpt>
      <trkpt lat="42.277177" lon="2.374131">
        <ele>902.1</ele>
        <time>2018-06-10T13:10:59Z</time>
      </trkpt>
      <trkpt lat="42.277191" lon="2.373860">
        <ele>902.4</ele>
        <time>2018-06-10T13:11:04Z</time>
      </trkpt>
      <trkpt lat="42.277210" lon="2.373597">
        <ele>900.8</ele>
        <time>2018-06-10T13:11:09Z</time>
      </trkpt>
      <trkpt lat="42.277285" lon="2.373287">
        <ele>897.8</ele>
        <time>2018-06-10T13:11:16Z</time>
      </trkpt>
      <trkpt lat="42.277331" lon="2.373190">
        <ele>895.6</ele>
        <time>2018-06-10T13:11:18Z</time>
      </trkpt>
      <trkpt lat="42.277375" lon="2.373135">
        <ele>894.1</ele>
        <time>2018-06-10T13:11:19Z</time>
      </trkpt>
      <trkpt lat="42.277478" lon="2.373055">
        <ele>892.1</ele>
        <time>2018-06-10T13:11:23Z</time>
      </trkpt>
      <trkpt lat="42.277583" lon="2.372983">
        <ele>892.0</ele>
        <time>2018-06-10T13:11:26Z</time>
      </trkpt>
      <trkpt lat="42.277644" lon="2.372956">
        <ele>892.2</ele>
        <time>2018-06-10T13:11:28Z</time>
      </trkpt>
      <trkpt lat="42.277745" lon="2.372957">
        <ele>891.2</ele>
        <time>2018-06-10T13:11:30Z</time>
      </trkpt>
      <trkpt lat="42.278106" lon="2.373123">
        <ele>891.0</ele>
        <time>2018-06-10T13:11:40Z</time>
      </trkpt>
      <trkpt lat="42.278593" lon="2.373191">
        <ele>891.4</ele>
        <time>2018-06-10T13:11:53Z</time>
      </trkpt>
      <trkpt lat="42.279187" lon="2.373210">
        <ele>894.6</ele>
        <time>2018-06-10T13:12:09Z</time>
      </trkpt>
      <trkpt lat="42.279306" lon="2.373103">
        <ele>894.8</ele>
        <time>2018-06-10T13:12:13Z</time>
      </trkpt>
      <trkpt lat="42.279384" lon="2.373038">
        <ele>894.7</ele>
        <time>2018-06-10T13:12:15Z</time>
      </trkpt>
      <trkpt lat="42.279805" lon="2.372977">
        <ele>896.9</ele>
        <time>2018-06-10T13:12:27Z</time>
      </trkpt>
      <trkpt lat="42.280068" lon="2.372958">
        <ele>900.4</ele>
        <time>2018-06-10T13:12:34Z</time>
      </trkpt>
      <trkpt lat="42.280395" lon="2.372899">
        <ele>903.6</ele>
        <time>2018-06-10T13:12:43Z</time>
      </trkpt>
      <trkpt lat="42.280683" lon="2.372890">
        <ele>905.6</ele>
        <time>2018-06-10T13:12:50Z</time>
      </trkpt>
      <trkpt lat="42.280987" lon="2.372902">
        <ele>907.7</ele>
        <time>2018-06-10T13:12:58Z</time>
      </trkpt>
      <trkpt lat="42.281888" lon="2.373013">
        <ele>908.8</ele>
        <time>2018-06-10T13:13:23Z</time>
      </trkpt>
      <trkpt lat="42.282206" lon="2.373038">
        <ele>906.3</ele>
        <time>2018-06-10T13:13:31Z</time>
      </trkpt>
      <trkpt lat="42.282440" lon="2.373097">
        <ele>905.3</ele>
        <time>2018-06-10T13:13:37Z</time>
      </trkpt>
      <trkpt lat="42.282657" lon="2.373197">
        <ele>906.0</ele>
        <time>2018-06-10T13:13:43Z</time>
      </trkpt>
      <trkpt lat="42.282874" lon="2.373365">
        <ele>906.0</ele>
        <time>2018-06-10T13:13:50Z</time>
      </trkpt>
      <trkpt lat="42.283010" lon="2.373461">
        <ele>906.1</ele>
        <time>2018-06-10T13:13:54Z</time>
      </trkpt>
      <trkpt lat="42.283164" lon="2.373587">
        <ele>906.4</ele>
        <time>2018-06-10T13:13:59Z</time>
      </trkpt>
      <trkpt lat="42.283345" lon="2.373834">
        <ele>907.3</ele>
        <time>2018-06-10T13:14:06Z</time>
      </trkpt>
      <trkpt lat="42.283478" lon="2.373996">
        <ele>907.3</ele>
        <time>2018-06-10T13:14:11Z</time>
      </trkpt>
      <trkpt lat="42.283613" lon="2.374201">
        <ele>908.0</ele>
        <time>2018-06-10T13:14:16Z</time>
      </trkpt>
      <trkpt lat="42.283769" lon="2.374523">
        <ele>907.4</ele>
        <time>2018-06-10T13:14:24Z</time>
      </trkpt>
      <trkpt lat="42.283785" lon="2.374556">
        <ele>907.6</ele>
        <time>2018-06-10T13:14:24Z</time>
      </trkpt>
      <trkpt lat="42.283826" lon="2.374581">
        <ele>907.2</ele>
        <time>2018-06-10T13:14:26Z</time>
      </trkpt>
      <trkpt lat="42.283863" lon="2.374662">
        <ele>907.3</ele>
        <time>2018-06-10T13:14:27Z</time>
      </trkpt>
      <trkpt lat="42.283894" lon="2.374775">
        <ele>906.4</ele>
        <time>2018-06-10T13:14:30Z</time>
      </trkpt>
      <trkpt lat="42.283901" lon="2.374863">
        <ele>906.5</ele>
        <time>2018-06-10T13:14:32Z</time>
      </trkpt>
      <trkpt lat="42.283951" lon="2.374997">
        <ele>905.8</ele>
        <time>2018-06-10T13:14:35Z</time>
      </trkpt>
      <trkpt lat="42.284005" lon="2.375017">
        <ele>905.4</ele>
        <time>2018-06-10T13:14:36Z</time>
      </trkpt>
      <trkpt lat="42.284071" lon="2.374994">
        <ele>907.2</ele>
        <time>2018-06-10T13:14:38Z</time>
      </trkpt>
      <trkpt lat="42.284105" lon="2.374951">
        <ele>908.0</ele>
        <time>2018-06-10T13:14:39Z</time>
      </trkpt>
      <trkpt lat="42.284220" lon="2.374651">
        <ele>909.8</ele>
        <time>2018-06-10T13:14:46Z</time>
      </trkpt>
      <trkpt lat="42.284270" lon="2.374298">
        <ele>912.6</ele>
        <time>2018-06-10T13:14:53Z</time>
      </trkpt>
      <trkpt lat="42.284247" lon="2.373957">
        <ele>910.5</ele>
        <time>2018-06-10T13:15:00Z</time>
      </trkpt>
      <trkpt lat="42.284277" lon="2.373611">
        <ele>910.0</ele>
        <time>2018-06-10T13:15:07Z</time>
      </trkpt>
      <trkpt lat="42.284351" lon="2.373299">
        <ele>909.6</ele>
        <time>2018-06-10T13:15:13Z</time>
      </trkpt>
      <trkpt lat="42.284398" lon="2.373051">
        <ele>908.0</ele>
        <time>2018-06-10T13:15:18Z</time>
      </trkpt>
      <trkpt lat="42.284502" lon="2.372772">
        <ele>905.3</ele>
        <time>2018-06-10T13:15:24Z</time>
      </trkpt>
      <trkpt lat="42.284574" lon="2.372633">
        <ele>904.0</ele>
        <time>2018-06-10T13:15:28Z</time>
      </trkpt>
      <trkpt lat="42.284747" lon="2.372474">
        <ele>902.4</ele>
        <time>2018-06-10T13:15:33Z</time>
      </trkpt>
      <trkpt lat="42.284926" lon="2.372348">
        <ele>900.4</ele>
        <time>2018-06-10T13:15:39Z</time>
      </trkpt>
      <trkpt lat="42.285264" lon="2.372046">
        <ele>897.4</ele>
        <time>2018-06-10T13:15:49Z</time>
      </trkpt>
      <trkpt lat="42.285433" lon="2.371862">
        <ele>896.0</ele>
        <time>2018-06-10T13:15:55Z</time>
      </trkpt>
      <trkpt lat="42.285677" lon="2.371615">
        <ele>892.4</ele>
        <time>2018-06-10T13:16:03Z</time>
      </trkpt>
      <trkpt lat="42.285862" lon="2.371413">
        <ele>891.0</ele>
        <time>2018-06-10T13:16:10Z</time>
      </trkpt>
      <trkpt lat="42.286025" lon="2.371134">
        <ele>891.7</ele>
        <time>2018-06-10T13:16:17Z</time>
      </trkpt>
      <trkpt lat="42.286057" lon="2.370990">
        <ele>892.8</ele>
        <time>2018-06-10T13:16:20Z</time>
      </trkpt>
      <trkpt lat="42.286066" lon="2.370758">
        <ele>893.0</ele>
        <time>2018-06-10T13:16:24Z</time>
      </trkpt>
      <trkpt lat="42.286086" lon="2.370591">
        <ele>893.0</ele>
        <time>2018-06-10T13:16:28Z</time>
      </trkpt>
      <trkpt lat="42.286141" lon="2.370482">
        <ele>893.6</ele>
        <time>2018-06-10T13:16:30Z</time>
      </trkpt>
      <trkpt lat="42.286248" lon="2.370363">
        <ele>894.1</ele>
        <time>2018-06-10T13:16:34Z</time>
      </trkpt>
      <trkpt lat="42.286319" lon="2.370278">
        <ele>894.9</ele>
        <time>2018-06-10T13:16:36Z</time>
      </trkpt>
      <trkpt lat="42.286497" lon="2.370082">
        <ele>895.8</ele>
        <time>2018-06-10T13:16:42Z</time>
      </trkpt>
      <trkpt lat="42.286569" lon="2.369972">
        <ele>895.2</ele>
        <time>2018-06-10T13:16:45Z</time>
      </trkpt>
      <trkpt lat="42.286680" lon="2.369748">
        <ele>894.6</ele>
        <time>2018-06-10T13:16:51Z</time>
      </trkpt>
      <trkpt lat="42.286828" lon="2.369407">
        <ele>894.1</ele>
        <time>2018-06-10T13:16:58Z</time>
      </trkpt>
      <trkpt lat="42.286910" lon="2.369096">
        <ele>891.2</ele>
        <time>2018-06-10T13:17:05Z</time>
      </trkpt>
      <trkpt lat="42.286945" lon="2.369009">
        <ele>889.7</ele>
        <time>2018-06-10T13:17:07Z</time>
      </trkpt>
      <trkpt lat="42.287002" lon="2.368933">
        <ele>887.3</ele>
        <time>2018-06-10T13:17:09Z</time>
      </trkpt>
      <trkpt lat="42.287116" lon="2.368903">
        <ele>885.4</ele>
        <time>2018-06-10T13:17:12Z</time>
      </trkpt>
      <trkpt lat="42.287179" lon="2.368825">
        <ele>884.4</ele>
        <time>2018-06-10T13:17:15Z</time>
      </trkpt>
      <trkpt lat="42.287205" lon="2.368696">
        <ele>886.4</ele>
        <time>2018-06-10T13:17:17Z</time>
      </trkpt>
      <trkpt lat="42.287196" lon="2.368614">
        <ele>886.8</ele>
        <time>2018-06-10T13:17:19Z</time>
      </trkpt>
      <trkpt lat="42.287119" lon="2.368514">
        <ele>886.7</ele>
        <time>2018-06-10T13:17:22Z</time>
      </trkpt>
      <trkpt lat="42.287068" lon="2.368472">
        <ele>886.6</ele>
        <time>2018-06-10T13:17:23Z</time>
      </trkpt>
      <trkpt lat="42.287033" lon="2.368373">
        <ele>886.5</ele>
        <time>2018-06-10T13:17:26Z</time>
      </trkpt>
      <trkpt lat="42.287049" lon="2.368249">
        <ele>884.7</ele>
        <time>2018-06-10T13:17:28Z</time>
      </trkpt>
      <trkpt lat="42.287096" lon="2.368175">
        <ele>885.7</ele>
        <time>2018-06-10T13:17:30Z</time>
      </trkpt>
      <trkpt lat="42.287179" lon="2.368033">
        <ele>888.2</ele>
        <time>2018-06-10T13:17:34Z</time>
      </trkpt>
      <trkpt lat="42.287230" lon="2.367905">
        <ele>890.3</ele>
        <time>2018-06-10T13:17:36Z</time>
      </trkpt>
      <trkpt lat="42.287247" lon="2.367782">
        <ele>889.6</ele>
        <time>2018-06-10T13:17:39Z</time>
      </trkpt>
      <trkpt lat="42.287268" lon="2.367654">
        <ele>890.1</ele>
        <time>2018-06-10T13:17:42Z</time>
      </trkpt>
      <trkpt lat="42.287327" lon="2.367513">
        <ele>890.0</ele>
        <time>2018-06-10T13:17:45Z</time>
      </trkpt>
      <trkpt lat="42.287787" lon="2.366600">
        <ele>892.0</ele>
        <time>2018-06-10T13:18:06Z</time>
      </trkpt>
      <trkpt lat="42.288287" lon="2.365656">
        <ele>895.6</ele>
        <time>2018-06-10T13:18:29Z</time>
      </trkpt>
      <trkpt lat="42.288739" lon="2.364803">
        <ele>897.1</ele>
        <time>2018-06-10T13:18:50Z</time>
      </trkpt>
      <trkpt lat="42.289149" lon="2.364184">
        <ele>898.0</ele>
        <time>2018-06-10T13:19:06Z</time>
      </trkpt>
      <trkpt lat="42.289409" lon="2.363884">
        <ele>897.1</ele>
        <time>2018-06-10T13:19:15Z</time>
      </trkpt>
      <trkpt lat="42.289586" lon="2.363695">
        <ele>897.1</ele>
        <time>2018-06-10T13:19:21Z</time>
      </trkpt>
      <trkpt lat="42.290269" lon="2.363228">
        <ele>897.9</ele>
        <time>2018-06-10T13:19:42Z</time>
      </trkpt>
      <trkpt lat="42.290719" lon="2.362961">
        <ele>897.5</ele>
        <time>2018-06-10T13:19:55Z</time>
      </trkpt>
      <trkpt lat="42.290917" lon="2.362885">
        <ele>897.3</ele>
        <time>2018-06-10T13:20:00Z</time>
      </trkpt>
      <trkpt lat="42.291039" lon="2.362839">
        <ele>897.8</ele>
        <time>2018-06-10T13:20:04Z</time>
      </trkpt>
      <trkpt lat="42.291191" lon="2.362718">
        <ele>897.6</ele>
        <time>2018-06-10T13:20:08Z</time>
      </trkpt>
      <trkpt lat="42.291397" lon="2.362580">
        <ele>897.8</ele>
        <time>2018-06-10T13:20:15Z</time>
      </trkpt>
      <trkpt lat="42.291522" lon="2.362508">
        <ele>898.2</ele>
        <time>2018-06-10T13:20:18Z</time>
      </trkpt>
      <trkpt lat="42.291782" lon="2.362378">
        <ele>897.3</ele>
        <time>2018-06-10T13:20:26Z</time>
      </trkpt>
      <trkpt lat="42.292155" lon="2.362283">
        <ele>900.1</ele>
        <time>2018-06-10T13:20:36Z</time>
      </trkpt>
      <trkpt lat="42.292287" lon="2.362270">
        <ele>900.5</ele>
        <time>2018-06-10T13:20:39Z</time>
      </trkpt>
      <trkpt lat="42.292484" lon="2.362252">
        <ele>901.8</ele>
        <time>2018-06-10T13:20:45Z</time>
      </trkpt>
      <trkpt lat="42.292622" lon="2.362173">
        <ele>902.2</ele>
        <time>2018-06-10T13:20:48Z</time>
      </trkpt>
      <trkpt lat="42.292861" lon="2.362041">
        <ele>902.9</ele>
        <time>2018-06-10T13:20:55Z</time>
      </trkpt>
      <trkpt lat="42.292959" lon="2.362006">
        <ele>903.4</ele>
        <time>2018-06-10T13:20:58Z</time>
      </trkpt>
      <trkpt lat="42.293093" lon="2.361915">
        <ele>903.8</ele>
        <time>2018-06-10T13:21:02Z</time>
      </trkpt>
      <trkpt lat="42.293242" lon="2.361789">
        <ele>903.6</ele>
        <time>2018-06-10T13:21:07Z</time>
      </trkpt>
      <trkpt lat="42.293516" lon="2.361554">
        <ele>904.2</ele>
        <time>2018-06-10T13:21:15Z</time>
      </trkpt>
      <trkpt lat="42.294157" lon="2.360949">
        <ele>904.9</ele>
        <time>2018-06-10T13:21:36Z</time>
      </trkpt>
      <trkpt lat="42.294243" lon="2.360859">
        <ele>904.4</ele>
        <time>2018-06-10T13:21:39Z</time>
      </trkpt>
      <trkpt lat="42.294377" lon="2.360858">
        <ele>903.5</ele>
        <time>2018-06-10T13:21:43Z</time>
      </trkpt>
      <trkpt lat="42.294431" lon="2.360852">
        <ele>905.0</ele>
        <time>2018-06-10T13:21:44Z</time>
      </trkpt>
      <trkpt lat="42.294460" lon="2.360818">
        <ele>905.5</ele>
        <time>2018-06-10T13:21:45Z</time>
      </trkpt>
      <trkpt lat="42.294505" lon="2.360678">
        <ele>905.7</ele>
        <time>2018-06-10T13:21:48Z</time>
      </trkpt>
      <trkpt lat="42.294580" lon="2.360559">
        <ele>905.0</ele>
        <time>2018-06-10T13:21:51Z</time>
      </trkpt>
      <trkpt lat="42.294703" lon="2.360478">
        <ele>905.4</ele>
        <time>2018-06-10T13:21:55Z</time>
      </trkpt>
      <trkpt lat="42.294915" lon="2.360346">
        <ele>906.0</ele>
        <time>2018-06-10T13:22:01Z</time>
      </trkpt>
      <trkpt lat="42.295073" lon="2.360282">
        <ele>906.5</ele>
        <time>2018-06-10T13:22:06Z</time>
      </trkpt>
      <trkpt lat="42.295409" lon="2.360214">
        <ele>907.8</ele>
        <time>2018-06-10T13:22:15Z</time>
      </trkpt>
      <trkpt lat="42.295641" lon="2.360180">
        <ele>908.5</ele>
        <time>2018-06-10T13:22:21Z</time>
      </trkpt>
      <trkpt lat="42.295863" lon="2.360168">
        <ele>908.3</ele>
        <time>2018-06-10T13:22:27Z</time>
      </trkpt>
      <trkpt lat="42.296487" lon="2.360180">
        <ele>909.3</ele>
        <time>2018-06-10T13:22:43Z</time>
      </trkpt>
      <trkpt lat="42.297254" lon="2.360167">
        <ele>907.1</ele>
        <time>2018-06-10T13:23:04Z</time>
      </trkpt>
      <trkpt lat="42.297599" lon="2.360122">
        <ele>905.9</ele>
        <time>2018-06-10T13:23:13Z</time>
      </trkpt>
      <trkpt lat="42.298034" lon="2.360019">
        <ele>908.5</ele>
        <time>2018-06-10T13:23:25Z</time>
      </trkpt>
      <trkpt lat="42.298119" lon="2.360040">
        <ele>907.2</ele>
        <time>2018-06-10T13:23:27Z</time>
      </trkpt>
      <trkpt lat="42.298193" lon="2.360065">
        <ele>907.1</ele>
        <time>2018-06-10T13:23:29Z</time>
      </trkpt>
      <trkpt lat="42.298264" lon="2.360089">
        <ele>909.0</ele>
        <time>2018-06-10T13:23:31Z</time>
      </trkpt>
      <trkpt lat="42.298320" lon="2.360016">
        <ele>909.1</ele>
        <time>2018-06-10T13:23:33Z</time>
      </trkpt>
      <trkpt lat="42.298352" lon="2.359925">
        <ele>908.0</ele>
        <time>2018-06-10T13:23:35Z</time>
      </trkpt>
      <trkpt lat="42.299093" lon="2.359418">
        <ele>911.4</ele>
        <time>2018-06-10T13:23:57Z</time>
      </trkpt>
      <trkpt lat="42.299230" lon="2.359359">
        <ele>912.0</ele>
        <time>2018-06-10T13:24:01Z</time>
      </trkpt>
      <trkpt lat="42.299552" lon="2.359092">
        <ele>914.0</ele>
        <time>2018-06-10T13:24:11Z</time>
      </trkpt>
      <trkpt lat="42.299787" lon="2.358871">
        <ele>914.7</ele>
        <time>2018-06-10T13:24:19Z</time>
      </trkpt>
      <trkpt lat="42.300216" lon="2.358531">
        <ele>916.0</ele>
        <time>2018-06-10T13:24:32Z</time>
      </trkpt>
      <trkpt lat="42.300521" lon="2.358237">
        <ele>919.3</ele>
        <time>2018-06-10T13:24:42Z</time>
      </trkpt>
      <trkpt lat="42.300732" lon="2.358063">
        <ele>918.8</ele>
        <time>2018-06-10T13:24:49Z</time>
      </trkpt>
      <trkpt lat="42.300916" lon="2.357932">
        <ele>919.6</ele>
        <time>2018-06-10T13:24:54Z</time>
      </trkpt>
      <trkpt lat="42.301064" lon="2.357879">
        <ele>921.3</ele>
        <time>2018-06-10T13:24:58Z</time>
      </trkpt>
      <trkpt lat="42.301222" lon="2.357882">
        <ele>922.6</ele>
        <time>2018-06-10T13:25:02Z</time>
      </trkpt>
      <trkpt lat="42.301421" lon="2.358011">
        <ele>923.9</ele>
        <time>2018-06-10T13:25:08Z</time>
      </trkpt>
      <trkpt lat="42.301577" lon="2.358179">
        <ele>924.0</ele>
        <time>2018-06-10T13:25:14Z</time>
      </trkpt>
      <trkpt lat="42.301872" lon="2.358594">
        <ele>924.0</ele>
        <time>2018-06-10T13:25:25Z</time>
      </trkpt>
      <trkpt lat="42.302069" lon="2.358877">
        <ele>925.0</ele>
        <time>2018-06-10T13:25:33Z</time>
      </trkpt>
      <trkpt lat="42.302810" lon="2.359076">
        <ele>926.0</ele>
        <time>2018-06-10T13:25:53Z</time>
      </trkpt>
      <trkpt lat="42.304369" lon="2.359500">
        <ele>927.0</ele>
        <time>2018-06-10T13:26:35Z</time>
      </trkpt>
      <trkpt lat="42.304535" lon="2.359471">
        <ele>926.3</ele>
        <time>2018-06-10T13:26:40Z</time>
      </trkpt>
      <trkpt lat="42.304646" lon="2.359410">
        <ele>926.0</ele>
        <time>2018-06-10T13:26:43Z</time>
      </trkpt>
      <trkpt lat="42.304757" lon="2.359421">
        <ele>926.5</ele>
        <time>2018-06-10T13:26:46Z</time>
      </trkpt>
      <trkpt lat="42.304981" lon="2.359532">
        <ele>925.7</ele>
        <time>2018-06-10T13:26:52Z</time>
      </trkpt>
      <trkpt lat="42.305311" lon="2.359783">
        <ele>925.8</ele>
        <time>2018-06-10T13:27:02Z</time>
      </trkpt>
      <trkpt lat="42.305619" lon="2.360080">
        <ele>926.7</ele>
        <time>2018-06-10T13:27:12Z</time>
      </trkpt>
      <trkpt lat="42.305729" lon="2.360381">
        <ele>926.0</ele>
        <time>2018-06-10T13:27:19Z</time>
      </trkpt>
      <trkpt lat="42.305780" lon="2.360686">
        <ele>926.0</ele>
        <time>2018-06-10T13:27:25Z</time>
      </trkpt>
      <trkpt lat="42.305857" lon="2.360998">
        <ele>926.0</ele>
        <time>2018-06-10T13:27:31Z</time>
      </trkpt>
      <trkpt lat="42.305961" lon="2.361323">
        <ele>927.0</ele>
        <time>2018-06-10T13:27:38Z</time>
      </trkpt>
      <trkpt lat="42.306316" lon="2.361912">
        <ele>928.1</ele>
        <time>2018-06-10T13:27:53Z</time>
      </trkpt>
      <trkpt lat="42.306594" lon="2.362732">
        <ele>931.5</ele>
        <time>2018-06-10T13:28:11Z</time>
      </trkpt>
      <trkpt lat="42.306713" lon="2.362985">
        <ele>932.5</ele>
        <time>2018-06-10T13:28:17Z</time>
      </trkpt>
      <trkpt lat="42.306868" lon="2.363264">
        <ele>932.3</ele>
        <time>2018-06-10T13:28:24Z</time>
      </trkpt>
      <trkpt lat="42.307055" lon="2.363474">
        <ele>932.0</ele>
        <time>2018-06-10T13:28:30Z</time>
      </trkpt>
      <trkpt lat="42.307187" lon="2.363567">
        <ele>932.0</ele>
        <time>2018-06-10T13:28:34Z</time>
      </trkpt>
      <trkpt lat="42.307264" lon="2.363645">
        <ele>933.0</ele>
        <time>2018-06-10T13:28:37Z</time>
      </trkpt>
      <trkpt lat="42.307358" lon="2.363734">
        <ele>932.0</ele>
        <time>2018-06-10T13:28:40Z</time>
      </trkpt>
      <trkpt lat="42.307762" lon="2.364208">
        <ele>934.6</ele>
        <time>2018-06-10T13:28:54Z</time>
      </trkpt>
      <trkpt lat="42.307914" lon="2.364397">
        <ele>935.0</ele>
        <time>2018-06-10T13:29:00Z</time>
      </trkpt>
      <trkpt lat="42.307954" lon="2.364446">
        <ele>935.0</ele>
        <time>2018-06-10T13:29:01Z</time>
      </trkpt>
      <trkpt lat="42.308009" lon="2.364511">
        <ele>935.0</ele>
        <time>2018-06-10T13:29:03Z</time>
      </trkpt>
      <trkpt lat="42.308078" lon="2.364544">
        <ele>935.5</ele>
        <time>2018-06-10T13:29:05Z</time>
      </trkpt>
      <trkpt lat="42.308209" lon="2.364565">
        <ele>935.9</ele>
        <time>2018-06-10T13:29:09Z</time>
      </trkpt>
      <trkpt lat="42.308667" lon="2.364650">
        <ele>935.0</ele>
        <time>2018-06-10T13:29:21Z</time>
      </trkpt>
      <trkpt lat="42.308694" lon="2.364662">
        <ele>935.0</ele>
        <time>2018-06-10T13:29:22Z</time>
      </trkpt>
      <trkpt lat="42.308709" lon="2.364691">
        <ele>935.0</ele>
        <time>2018-06-10T13:29:22Z</time>
      </trkpt>
      <trkpt lat="42.308726" lon="2.364737">
        <ele>935.0</ele>
        <time>2018-06-10T13:29:23Z</time>
      </trkpt>
      <trkpt lat="42.308750" lon="2.364781">
        <ele>935.0</ele>
        <time>2018-06-10T13:29:24Z</time>
      </trkpt>
      <trkpt lat="42.308790" lon="2.364842">
        <ele>935.0</ele>
        <time>2018-06-10T13:29:26Z</time>
      </trkpt>
      <trkpt lat="42.308833" lon="2.364886">
        <ele>935.0</ele>
        <time>2018-06-10T13:29:27Z</time>
      </trkpt>
      <trkpt lat="42.308883" lon="2.364918">
        <ele>935.0</ele>
        <time>2018-06-10T13:29:29Z</time>
      </trkpt>
      <trkpt lat="42.308946" lon="2.364931">
        <ele>935.0</ele>
        <time>2018-06-10T13:29:31Z</time>
      </trkpt>
      <trkpt lat="42.308992" lon="2.364920">
        <ele>935.1</ele>
        <time>2018-06-10T13:29:32Z</time>
      </trkpt>
      <trkpt lat="42.309053" lon="2.364881">
        <ele>936.0</ele>
        <time>2018-06-10T13:29:34Z</time>
      </trkpt>
      <trkpt lat="42.309090" lon="2.364847">
        <ele>936.5</ele>
        <time>2018-06-10T13:29:35Z</time>
      </trkpt>
      <trkpt lat="42.309166" lon="2.364778">
        <ele>939.9</ele>
        <time>2018-06-10T13:29:37Z</time>
      </trkpt>
      <trkpt lat="42.309289" lon="2.364660">
        <ele>936.6</ele>
        <time>2018-06-10T13:29:41Z</time>
      </trkpt>
      <trkpt lat="42.309312" lon="2.364644">
        <ele>936.4</ele>
        <time>2018-06-10T13:29:42Z</time>
      </trkpt>
      <trkpt lat="42.309342" lon="2.364640">
        <ele>936.1</ele>
        <time>2018-06-10T13:29:43Z</time>
      </trkpt>
      <trkpt lat="42.309374" lon="2.364653">
        <ele>936.0</ele>
        <time>2018-06-10T13:29:44Z</time>
      </trkpt>
      <trkpt lat="42.309406" lon="2.364690">
        <ele>936.0</ele>
        <time>2018-06-10T13:29:45Z</time>
      </trkpt>
      <trkpt lat="42.309447" lon="2.364745">
        <ele>937.0</ele>
        <time>2018-06-10T13:29:47Z</time>
      </trkpt>
      <trkpt lat="42.309506" lon="2.364817">
        <ele>937.0</ele>
        <time>2018-06-10T13:29:49Z</time>
      </trkpt>
      <trkpt lat="42.309567" lon="2.364883">
        <ele>937.0</ele>
        <time>2018-06-10T13:29:51Z</time>
      </trkpt>
      <trkpt lat="42.309752" lon="2.365036">
        <ele>938.0</ele>
        <time>2018-06-10T13:29:57Z</time>
      </trkpt>
      <trkpt lat="42.309979" lon="2.365191">
        <ele>938.0</ele>
        <time>2018-06-10T13:30:03Z</time>
      </trkpt>
      <trkpt lat="42.310253" lon="2.365297">
        <ele>938.0</ele>
        <time>2018-06-10T13:30:11Z</time>
      </trkpt>
      <trkpt lat="42.310296" lon="2.365314">
        <ele>938.0</ele>
        <time>2018-06-10T13:30:12Z</time>
      </trkpt>
      <trkpt lat="42.310342" lon="2.365352">
        <ele>938.0</ele>
        <time>2018-06-10T13:30:14Z</time>
      </trkpt>
      <trkpt lat="42.310349" lon="2.365426">
        <ele>938.0</ele>
        <time>2018-06-10T13:30:15Z</time>
      </trkpt>
      <trkpt lat="42.310367" lon="2.365659">
        <ele>939.0</ele>
        <time>2018-06-10T13:30:20Z</time>
      </trkpt>
      <trkpt lat="42.310376" lon="2.365788">
        <ele>939.0</ele>
        <time>2018-06-10T13:30:22Z</time>
      </trkpt>
      <trkpt lat="42.310414" lon="2.365904">
        <ele>940.0</ele>
        <time>2018-06-10T13:30:25Z</time>
      </trkpt>
      <trkpt lat="42.310488" lon="2.366039">
        <ele>940.6</ele>
        <time>2018-06-10T13:30:28Z</time>
      </trkpt>
      <trkpt lat="42.310509" lon="2.366073">
        <ele>941.0</ele>
        <time>2018-06-10T13:30:29Z</time>
      </trkpt>
      <trkpt lat="42.310551" lon="2.366158">
        <ele>941.5</ele>
        <time>2018-06-10T13:30:31Z</time>
      </trkpt>
      <trkpt lat="42.310603" lon="2.366251">
        <ele>942.1</ele>
        <time>2018-06-10T13:30:33Z</time>
      </trkpt>
      <trkpt lat="42.310646" lon="2.366307">
        <ele>943.0</ele>
        <time>2018-06-10T13:30:35Z</time>
      </trkpt>
      <trkpt lat="42.310699" lon="2.366345">
        <ele>943.4</ele>
        <time>2018-06-10T13:30:36Z</time>
      </trkpt>
      <trkpt lat="42.310743" lon="2.366345">
        <ele>943.6</ele>
        <time>2018-06-10T13:30:38Z</time>
      </trkpt>
      <trkpt lat="42.310804" lon="2.366321">
        <ele>943.3</ele>
        <time>2018-06-10T13:30:39Z</time>
      </trkpt>
      <trkpt lat="42.310871" lon="2.366284">
        <ele>943.7</ele>
        <time>2018-06-10T13:30:41Z</time>
      </trkpt>
      <trkpt lat="42.311016" lon="2.366179">
        <ele>943.9</ele>
        <time>2018-06-10T13:30:46Z</time>
      </trkpt>
      <trkpt lat="42.311192" lon="2.366016">
        <ele>943.7</ele>
        <time>2018-06-10T13:30:51Z</time>
      </trkpt>
      <trkpt lat="42.311256" lon="2.365970">
        <ele>943.6</ele>
        <time>2018-06-10T13:30:53Z</time>
      </trkpt>
      <trkpt lat="42.311539" lon="2.365792">
        <ele>944.2</ele>
        <time>2018-06-10T13:31:01Z</time>
      </trkpt>
      <trkpt lat="42.311600" lon="2.365765">
        <ele>944.8</ele>
        <time>2018-06-10T13:31:03Z</time>
      </trkpt>
      <trkpt lat="42.311653" lon="2.365754">
        <ele>945.0</ele>
        <time>2018-06-10T13:31:05Z</time>
      </trkpt>
      <trkpt lat="42.311703" lon="2.365748">
        <ele>945.0</ele>
        <time>2018-06-10T13:31:06Z</time>
      </trkpt>
      <trkpt lat="42.311749" lon="2.365725">
        <ele>945.6</ele>
        <time>2018-06-10T13:31:07Z</time>
      </trkpt>
      <trkpt lat="42.311787" lon="2.365687">
        <ele>945.8</ele>
        <time>2018-06-10T13:31:08Z</time>
      </trkpt>
      <trkpt lat="42.311821" lon="2.365646">
        <ele>945.3</ele>
        <time>2018-06-10T13:31:10Z</time>
      </trkpt>
      <trkpt lat="42.311852" lon="2.365612">
        <ele>945.2</ele>
        <time>2018-06-10T13:31:11Z</time>
      </trkpt>
      <trkpt lat="42.311886" lon="2.365586">
        <ele>945.4</ele>
        <time>2018-06-10T13:31:12Z</time>
      </trkpt>
      <trkpt lat="42.311913" lon="2.365565">
        <ele>945.6</ele>
        <time>2018-06-10T13:31:13Z</time>
      </trkpt>
      <trkpt lat="42.311935" lon="2.365537">
        <ele>945.8</ele>
        <time>2018-06-10T13:31:13Z</time>
      </trkpt>
      <trkpt lat="42.311951" lon="2.365504">
        <ele>946.0</ele>
        <time>2018-06-10T13:31:14Z</time>
      </trkpt>
      <trkpt lat="42.311962" lon="2.365475">
        <ele>945.7</ele>
        <time>2018-06-10T13:31:15Z</time>
      </trkpt>
      <trkpt lat="42.311985" lon="2.365431">
        <ele>944.8</ele>
        <time>2018-06-10T13:31:16Z</time>
      </trkpt>
      <trkpt lat="42.311997" lon="2.365414">
        <ele>944.5</ele>
        <time>2018-06-10T13:31:16Z</time>
      </trkpt>
      <trkpt lat="42.312021" lon="2.365400">
        <ele>944.3</ele>
        <time>2018-06-10T13:31:17Z</time>
      </trkpt>
      <trkpt lat="42.312157" lon="2.365366">
        <ele>943.9</ele>
        <time>2018-06-10T13:31:21Z</time>
      </trkpt>
      <trkpt lat="42.312274" lon="2.365317">
        <ele>943.9</ele>
        <time>2018-06-10T13:31:24Z</time>
      </trkpt>
      <trkpt lat="42.312415" lon="2.365249">
        <ele>943.8</ele>
        <time>2018-06-10T13:31:28Z</time>
      </trkpt>
      <trkpt lat="42.312547" lon="2.365210">
        <ele>944.0</ele>
        <time>2018-06-10T13:31:32Z</time>
      </trkpt>
      <trkpt lat="42.312659" lon="2.365193">
        <ele>944.0</ele>
        <time>2018-06-10T13:31:35Z</time>
      </trkpt>
      <trkpt lat="42.312793" lon="2.365180">
        <ele>947.2</ele>
        <time>2018-06-10T13:31:38Z</time>
      </trkpt>
      <trkpt lat="42.312830" lon="2.365178">
        <ele>947.2</ele>
        <time>2018-06-10T13:31:39Z</time>
      </trkpt>
      <trkpt lat="42.312841" lon="2.365173">
        <ele>947.0</ele>
        <time>2018-06-10T13:31:40Z</time>
      </trkpt>
      <trkpt lat="42.312851" lon="2.365166">
        <ele>946.9</ele>
        <time>2018-06-10T13:31:40Z</time>
      </trkpt>
      <trkpt lat="42.312849" lon="2.365144">
        <ele>947.3</ele>
        <time>2018-06-10T13:31:40Z</time>
      </trkpt>
      <trkpt lat="42.312845" lon="2.365121">
        <ele>947.5</ele>
        <time>2018-06-10T13:31:41Z</time>
      </trkpt>
      <trkpt lat="42.312840" lon="2.365024">
        <ele>944.3</ele>
        <time>2018-06-10T13:31:43Z</time>
      </trkpt>
      <trkpt lat="42.312851" lon="2.364900">
        <ele>938.4</ele>
        <time>2018-06-10T13:31:46Z</time>
      </trkpt>
      <trkpt lat="42.312858" lon="2.364284">
        <ele>943.8</ele>
        <time>2018-06-10T13:31:58Z</time>
      </trkpt>
      <trkpt lat="42.312833" lon="2.364246">
        <ele>943.7</ele>
        <time>2018-06-10T13:31:59Z</time>
      </trkpt>
      <trkpt lat="42.312796" lon="2.364246">
        <ele>944.5</ele>
        <time>2018-06-10T13:32:00Z</time>
      </trkpt>
      <trkpt lat="42.312680" lon="2.364270">
        <ele>944.8</ele>
        <time>2018-06-10T13:32:03Z</time>
      </trkpt>
      <trkpt lat="42.312172" lon="2.364324">
        <ele>942.7</ele>
        <time>2018-06-10T13:32:17Z</time>
      </trkpt>
      <trkpt lat="42.312159" lon="2.364341">
        <ele>942.2</ele>
        <time>2018-06-10T13:32:17Z</time>
      </trkpt>
      <trkpt lat="42.312171" lon="2.364363">
        <ele>941.7</ele>
        <time>2018-06-10T13:32:18Z</time>
      </trkpt>
      <trkpt lat="42.312205" lon="2.364381">
        <ele>941.5</ele>
        <time>2018-06-10T13:32:19Z</time>
      </trkpt>
      <trkpt lat="42.312254" lon="2.364397">
        <ele>941.2</ele>
        <time>2018-06-10T13:32:20Z</time>
      </trkpt>
      <trkpt lat="42.312120" lon="2.364355">
        <ele>946.5</ele>
        <time>2018-06-11T06:00:00Z</time>
      </trkpt>
      <trkpt lat="42.312290" lon="2.364322">
        <ele>946.2</ele>
        <time>2018-06-11T06:00:04Z</time>
      </trkpt>
      <trkpt lat="42.312548" lon="2.364295">
        <ele>944.7</ele>
        <time>2018-06-11T06:00:11Z</time>
      </trkpt>
      <trkpt lat="42.312715" lon="2.364269">
        <ele>943.0</ele>
        <time>2018-06-11T06:00:15Z</time>
      </trkpt>
      <trkpt lat="42.312810" lon="2.364231">
        <ele>941.6</ele>
        <time>2018-06-11T06:00:18Z</time>
      </trkpt>
      <trkpt lat="42.312842" lon="2.364177">
        <ele>941.4</ele>
        <time>2018-06-11T06:00:19Z</time>
      </trkpt>
      <trkpt lat="42.312873" lon="2.364070">
        <ele>941.6</ele>
        <time>2018-06-11T06:00:22Z</time>
      </trkpt>
      <trkpt lat="42.312941" lon="2.363738">
        <ele>942.8</ele>
        <time>2018-06-11T06:00:28Z</time>
      </trkpt>
      <trkpt lat="42.313211" lon="2.363024">
        <ele>944.9</ele>
        <time>2018-06-11T06:00:44Z</time>
      </trkpt>
      <trkpt lat="42.313425" lon="2.362488">
        <ele>941.7</ele>
        <time>2018-06-11T06:00:56Z</time>
      </trkpt>
      <trkpt lat="42.313492" lon="2.362389">
        <ele>940.8</ele>
        <time>2018-06-11T06:00:59Z</time>
      </trkpt>
      <trkpt lat="42.313575" lon="2.362346">
        <ele>940.5</ele>
        <time>2018-06-11T06:01:01Z</time>
      </trkpt>
      <trkpt lat="42.313607" lon="2.362276">
        <ele>941.1</ele>
        <time>2018-06-11T06:01:03Z</time>
      </trkpt>
      <trkpt lat="42.313615" lon="2.362190">
        <ele>942.1</ele>
        <time>2018-06-11T06:01:04Z</time>
      </trkpt>
      <trkpt lat="42.313603" lon="2.362035">
        <ele>944.1</ele>
        <time>2018-06-11T06:01:07Z</time>
      </trkpt>
      <trkpt lat="42.313687" lon="2.361678">
        <ele>945.4</ele>
        <time>2018-06-11T06:01:15Z</time>
      </trkpt>
      <trkpt lat="42.313806" lon="2.361087">
        <ele>946.4</ele>
        <time>2018-06-11T06:01:27Z</time>
      </trkpt>
      <trkpt lat="42.313872" lon="2.360668">
        <ele>946.7</ele>
        <time>2018-06-11T06:01:35Z</time>
      </trkpt>
      <trkpt lat="42.313943" lon="2.360126">
        <ele>946.9</ele>
        <time>2018-06-11T06:01:46Z</time>
      </trkpt>
      <trkpt lat="42.313991" lon="2.359529">
        <ele>947.8</ele>
        <time>2018-06-11T06:01:58Z</time>
      </trkpt>
      <trkpt lat="42.313731" lon="2.359230">
        <ele>953.7</ele>
        <time>2018-06-11T06:02:07Z</time>
      </trkpt>
      <trkpt lat="42.313606" lon="2.358780">
        <ele>961.6</ele>
        <time>2018-06-11T06:02:16Z</time>
      </trkpt>
      <trkpt lat="42.313604" lon="2.358604">
        <ele>962.8</ele>
        <time>2018-06-11T06:02:20Z</time>
      </trkpt>
      <trkpt lat="42.313635" lon="2.358300">
        <ele>963.2</ele>
        <time>2018-06-11T06:02:26Z</time>
      </trkpt>
      <trkpt lat="42.313706" lon="2.357958">
        <ele>963.0</ele>
        <time>2018-06-11T06:02:33Z</time>
      </trkpt>
      <trkpt lat="42.313765" lon="2.357666">
        <ele>962.5</ele>
        <time>2018-06-11T06:02:39Z</time>
      </trkpt>
      <trkpt lat="42.313799" lon="2.357461">
        <ele>961.7</ele>
        <time>2018-06-11T06:02:43Z</time>
      </trkpt>
      <trkpt lat="42.313893" lon="2.357353">
        <ele>959.4</ele>
        <time>2018-06-11T06:02:46Z</time>
      </trkpt>
      <trkpt lat="42.313968" lon="2.357224">
        <ele>958.3</ele>
        <time>2018-06-11T06:02:49Z</time>
      </trkpt>
      <trkpt lat="42.314037" lon="2.356790">
        <ele>959.0</ele>
        <time>2018-06-11T06:02:58Z</time>
      </trkpt>
      <trkpt lat="42.314198" lon="2.356092">
        <ele>961.3</ele>
        <time>2018-06-11T06:03:12Z</time>
      </trkpt>
      <trkpt lat="42.314499" lon="2.355119">
        <ele>960.6</ele>
        <time>2018-06-11T06:03:33Z</time>
      </trkpt>
      <trkpt lat="42.314551" lon="2.354827">
        <ele>960.2</ele>
        <time>2018-06-11T06:03:39Z</time>
      </trkpt>
      <trkpt lat="42.314566" lon="2.354619">
        <ele>960.0</ele>
        <time>2018-06-11T06:03:43Z</time>
      </trkpt>
      <trkpt lat="42.314544" lon="2.354334">
        <ele>960.9</ele>
        <time>2018-06-11T06:03:49Z</time>
      </trkpt>
      <trkpt lat="42.314396" lon="2.353971">
        <ele>962.7</ele>
        <time>2018-06-11T06:03:57Z</time>
      </trkpt>
      <trkpt lat="42.314329" lon="2.353761">
        <ele>966.4</ele>
        <time>2018-06-11T06:04:01Z</time>
      </trkpt>
      <trkpt lat="42.314302" lon="2.353625">
        <ele>968.4</ele>
        <time>2018-06-11T06:04:04Z</time>
      </trkpt>
      <trkpt lat="42.314327" lon="2.353349">
        <ele>970.1</ele>
        <time>2018-06-11T06:04:10Z</time>
      </trkpt>
      <trkpt lat="42.314414" lon="2.352935">
        <ele>972.1</ele>
        <time>2018-06-11T06:04:18Z</time>
      </trkpt>
      <trkpt lat="42.314539" lon="2.352643">
        <ele>973.5</ele>
        <time>2018-06-11T06:04:25Z</time>
      </trkpt>
      <trkpt lat="42.314614" lon="2.352621">
        <ele>972.7</ele>
        <time>2018-06-11T06:04:27Z</time>
      </trkpt>
      <trkpt lat="42.314696" lon="2.352706">
        <ele>971.1</ele>
        <time>2018-06-11T06:04:30Z</time>
      </trkpt>
      <trkpt lat="42.314827" lon="2.352783">
        <ele>968.4</ele>
        <time>2018-06-11T06:04:33Z</time>
      </trkpt>
      <trkpt lat="42.314872" lon="2.352779">
        <ele>967.9</ele>
        <time>2018-06-11T06:04:35Z</time>
      </trkpt>
      <trkpt lat="42.314902" lon="2.352734">
        <ele>968.5</ele>
        <time>2018-06-11T06:04:36Z</time>
      </trkpt>
      <trkpt lat="42.314914" lon="2.352610">
        <ele>970.1</ele>
        <time>2018-06-11T06:04:38Z</time>
      </trkpt>
      <trkpt lat="42.314923" lon="2.352197">
        <ele>974.1</ele>
        <time>2018-06-11T06:04:46Z</time>
      </trkpt>
      <trkpt lat="42.315016" lon="2.351677">
        <ele>977.1</ele>
        <time>2018-06-11T06:04:57Z</time>
      </trkpt>
      <trkpt lat="42.315070" lon="2.351259">
        <ele>980.2</ele>
        <time>2018-06-11T06:05:05Z</time>
      </trkpt>
      <trkpt lat="42.315106" lon="2.350863">
        <ele>983.7</ele>
        <time>2018-06-11T06:05:13Z</time>
      </trkpt>
      <trkpt lat="42.315083" lon="2.350624">
        <ele>985.8</ele>
        <time>2018-06-11T06:05:18Z</time>
      </trkpt>
      <trkpt lat="42.315025" lon="2.350309">
        <ele>988.5</ele>
        <time>2018-06-11T06:05:24Z</time>
      </trkpt>
      <trkpt lat="42.314938" lon="2.349976">
        <ele>990.1</ele>
        <time>2018-06-11T06:05:31Z</time>
      </trkpt>
      <trkpt lat="42.314823" lon="2.349780">
        <ele>989.6</ele>
        <time>2018-06-11T06:05:36Z</time>
      </trkpt>
      <trkpt lat="42.314694" lon="2.349296">
        <ele>991.3</ele>
        <time>2018-06-11T06:05:46Z</time>
      </trkpt>
      <trkpt lat="42.314693" lon="2.349127">
        <ele>993.3</ele>
        <time>2018-06-11T06:05:49Z</time>
      </trkpt>
      <trkpt lat="42.314728" lon="2.348956">
        <ele>995.2</ele>
        <time>2018-06-11T06:05:53Z</time>
      </trkpt>
      <trkpt lat="42.314827" lon="2.348834">
        <ele>996.4</ele>
        <time>2018-06-11T06:05:57Z</time>
      </trkpt>
      <trkpt lat="42.314912" lon="2.348659">
        <ele>997.8</ele>
        <time>2018-06-11T06:06:01Z</time>
      </trkpt>
      <trkpt lat="42.314986" lon="2.348383">
        <ele>999.1</ele>
        <time>2018-06-11T06:06:06Z</time>
      </trkpt>
      <trkpt lat="42.315017" lon="2.348075">
        <ele>1000.4</ele>
        <time>2018-06-11T06:06:12Z</time>
      </trkpt>
      <trkpt lat="42.315015" lon="2.347760">
        <ele>1003.7</ele>
        <time>2018-06-11T06:06:19Z</time>
      </trkpt>
      <trkpt lat="42.315193" lon="2.347394">
        <ele>1007.0</ele>
        <time>2018-06-11T06:06:27Z</time>
      </trkpt>
      <trkpt lat="42.315241" lon="2.347264">
        <ele>1007.7</ele>
        <time>2018-06-11T06:06:30Z</time>
      </trkpt>
      <trkpt lat="42.315176" lon="2.346889">
        <ele>1010.3</ele>
        <time>2018-06-11T06:06:38Z</time>
      </trkpt>
      <trkpt lat="42.314972" lon="2.346401">
        <ele>1013.7</ele>
        <time>2018-06-11T06:06:49Z</time>
      </trkpt>
      <trkpt lat="42.314848" lon="2.346249">
        <ele>1016.4</ele>
        <time>2018-06-11T06:06:53Z</time>
      </trkpt>
      <trkpt lat="42.314531" lon="2.345907">
        <ele>1026.0</ele>
        <time>2018-06-11T06:07:04Z</time>
      </trkpt>
      <trkpt lat="42.314206" lon="2.345639">
        <ele>1027.3</ele>
        <time>2018-06-11T06:07:14Z</time>
      </trkpt>
      <trkpt lat="42.314141" lon="2.345492">
        <ele>1027.5</ele>
        <time>2018-06-11T06:07:18Z</time>
      </trkpt>
      <trkpt lat="42.314119" lon="2.345366">
        <ele>1027.8</ele>
        <time>2018-06-11T06:07:20Z</time>
      </trkpt>
      <trkpt lat="42.314118" lon="2.345221">
        <ele>1027.3</ele>
        <time>2018-06-11T06:07:23Z</time>
      </trkpt>
      <trkpt lat="42.314207" lon="2.344929">
        <ele>1027.5</ele>
        <time>2018-06-11T06:07:29Z</time>
      </trkpt>
      <trkpt lat="42.314326" lon="2.344750">
        <ele>1028.2</ele>
        <time>2018-06-11T06:07:34Z</time>
      </trkpt>
      <trkpt lat="42.314425" lon="2.344664">
        <ele>1029.0</ele>
        <time>2018-06-11T06:07:37Z</time>
      </trkpt>
      <trkpt lat="42.315063" lon="2.344390">
        <ele>1024.6</ele>
        <time>2018-06-11T06:07:55Z</time>
      </trkpt>
      <trkpt lat="42.315457" lon="2.344144">
        <ele>1019.2</ele>
        <time>2018-06-11T06:08:06Z</time>
      </trkpt>
      <trkpt lat="42.315601" lon="2.343996">
        <ele>1019.0</ele>
        <time>2018-06-11T06:08:11Z</time>
      </trkpt>
      <trkpt lat="42.315707" lon="2.343777">
        <ele>1019.7</ele>
        <time>2018-06-11T06:08:16Z</time>
      </trkpt>
      <trkpt lat="42.315742" lon="2.343534">
        <ele>1020.9</ele>
        <time>2018-06-11T06:08:21Z</time>
      </trkpt>
      <trkpt lat="42.315850" lon="2.343460">
        <ele>1020.0</ele>
        <time>2018-06-11T06:08:24Z</time>
      </trkpt>
      <trkpt lat="42.316022" lon="2.343424">
        <ele>1019.0</ele>
        <time>2018-06-11T06:08:29Z</time>
      </trkpt>
      <trkpt lat="42.316096" lon="2.343384">
        <ele>1019.8</ele>
        <time>2018-06-11T06:08:31Z</time>
      </trkpt>
      <trkpt lat="42.316139" lon="2.343281">
        <ele>1021.2</ele>
        <time>2018-06-11T06:08:33Z</time>
      </trkpt>
      <trkpt lat="42.316229" lon="2.343048">
        <ele>1023.8</ele>
        <time>2018-06-11T06:08:39Z</time>
      </trkpt>
      <trkpt lat="42.316359" lon="2.342771">
        <ele>1025.7</ele>
        <time>2018-06-11T06:08:45Z</time>
      </trkpt>
      <trkpt lat="42.316475" lon="2.342651">
        <ele>1025.6</ele>
        <time>2018-06-11T06:08:49Z</time>
      </trkpt>
      <trkpt lat="42.316601" lon="2.342457">
        <ele>1026.7</ele>
        <time>2018-06-11T06:08:54Z</time>
      </trkpt>
      <trkpt lat="42.316823" lon="2.342054">
        <ele>1031.1</ele>
        <time>2018-06-11T06:09:04Z</time>
      </trkpt>
      <trkpt lat="42.316989" lon="2.341901">
        <ele>1034.8</ele>
        <time>2018-06-11T06:09:09Z</time>
      </trkpt>
      <trkpt lat="42.317178" lon="2.341879">
        <ele>1030.8</ele>
        <time>2018-06-11T06:09:14Z</time>
      </trkpt>
      <trkpt lat="42.317345" lon="2.341915">
        <ele>1023.7</ele>
        <time>2018-06-11T06:09:19Z</time>
      </trkpt>
      <trkpt lat="42.317498" lon="2.342035">
        <ele>1013.7</ele>
        <time>2018-06-11T06:09:24Z</time>
      </trkpt>
      <trkpt lat="42.317661" lon="2.342070">
        <ele>1006.9</ele>
        <time>2018-06-11T06:09:29Z</time>
      </trkpt>
      <trkpt lat="42.317877" lon="2.342013">
        <ele>1003.7</ele>
        <time>2018-06-11T06:09:35Z</time>
      </trkpt>
      <trkpt lat="42.318299" lon="2.341905">
        <ele>1000.1</ele>
        <time>2018-06-11T06:09:46Z</time>
      </trkpt>
      <trkpt lat="42.318443" lon="2.341904">
        <ele>996.3</ele>
        <time>2018-06-11T06:09:50Z</time>
      </trkpt>
      <trkpt lat="42.318722" lon="2.341913">
        <ele>989.7</ele>
        <time>2018-06-11T06:09:58Z</time>
      </trkpt>
      <trkpt lat="42.319001" lon="2.341874">
        <ele>983.6</ele>
        <time>2018-06-11T06:10:05Z</time>
      </trkpt>
      <trkpt lat="42.319159" lon="2.341793">
        <ele>980.3</ele>
        <time>2018-06-11T06:10:10Z</time>
      </trkpt>
      <trkpt lat="42.319360" lon="2.341646">
        <ele>976.3</ele>
        <time>2018-06-11T06:10:16Z</time>
      </trkpt>
      <trkpt lat="42.319444" lon="2.341529">
        <ele>976.0</ele>
        <time>2018-06-11T06:10:19Z</time>
      </trkpt>
      <trkpt lat="42.319472" lon="2.341475">
        <ele>976.1</ele>
        <time>2018-06-11T06:10:21Z</time>
      </trkpt>
      <trkpt lat="42.319449" lon="2.341408">
        <ele>976.8</ele>
        <time>2018-06-11T06:10:22Z</time>
      </trkpt>
      <trkpt lat="42.319373" lon="2.341307">
        <ele>978.5</ele>
        <time>2018-06-11T06:10:25Z</time>
      </trkpt>
      <trkpt lat="42.319344" lon="2.341192">
        <ele>979.7</ele>
        <time>2018-06-11T06:10:27Z</time>
      </trkpt>
      <trkpt lat="42.319372" lon="2.341089">
        <ele>979.9</ele>
        <time>2018-06-11T06:10:29Z</time>
      </trkpt>
      <trkpt lat="42.319544" lon="2.340655">
        <ele>981.9</ele>
        <time>2018-06-11T06:10:39Z</time>
      </trkpt>
      <trkpt lat="42.319730" lon="2.340210">
        <ele>981.7</ele>
        <time>2018-06-11T06:10:49Z</time>
      </trkpt>
      <trkpt lat="42.319913" lon="2.339874">
        <ele>980.8</ele>
        <time>2018-06-11T06:10:57Z</time>
      </trkpt>
      <trkpt lat="42.320086" lon="2.339436">
        <ele>982.6</ele>
        <time>2018-06-11T06:11:07Z</time>
      </trkpt>
      <trkpt lat="42.320148" lon="2.339209">
        <ele>984.1</ele>
        <time>2018-06-11T06:11:12Z</time>
      </trkpt>
      <trkpt lat="42.320232" lon="2.338891">
        <ele>987.3</ele>
        <time>2018-06-11T06:11:18Z</time>
      </trkpt>
      <trkpt lat="42.320335" lon="2.338603">
        <ele>989.4</ele>
        <time>2018-06-11T06:11:25Z</time>
      </trkpt>
      <trkpt lat="42.320463" lon="2.338382">
        <ele>989.7</ele>
        <time>2018-06-11T06:11:30Z</time>
      </trkpt>
      <trkpt lat="42.320694" lon="2.337888">
        <ele>989.1</ele>
        <time>2018-06-11T06:11:42Z</time>
      </trkpt>
      <trkpt lat="42.320869" lon="2.337437">
        <ele>990.0</ele>
        <time>2018-06-11T06:11:52Z</time>
      </trkpt>
      <trkpt lat="42.320860" lon="2.335757">
        <ele>1002.0</ele>
        <time>2018-06-11T06:12:25Z</time>
      </trkpt>
      <trkpt lat="42.320905" lon="2.335525">
        <ele>1002.5</ele>
        <time>2018-06-11T06:12:29Z</time>
      </trkpt>
      <trkpt lat="42.321011" lon="2.335154">
        <ele>999.4</ele>
        <time>2018-06-11T06:12:37Z</time>
      </trkpt>
      <trkpt lat="42.321083" lon="2.335020">
        <ele>998.9</ele>
        <time>2018-06-11T06:12:40Z</time>
      </trkpt>
      <trkpt lat="42.321244" lon="2.334830">
        <ele>997.4</ele>
        <time>2018-06-11T06:12:46Z</time>
      </trkpt>
      <trkpt lat="42.322166" lon="2.334156">
        <ele>1015.3</ele>
        <time>2018-06-11T06:13:14Z</time>
      </trkpt>
      <trkpt lat="42.322400" lon="2.333871">
        <ele>1022.6</ele>
        <time>2018-06-11T06:13:23Z</time>
      </trkpt>
      <trkpt lat="42.322596" lon="2.333566">
        <ele>1025.1</ele>
        <time>2018-06-11T06:13:30Z</time>
      </trkpt>
      <trkpt lat="42.322596" lon="2.333523">
        <ele>1025.8</ele>
        <time>2018-06-11T06:13:31Z</time>
      </trkpt>
      <trkpt lat="42.322564" lon="2.333530">
        <ele>1026.3</ele>
        <time>2018-06-11T06:13:32Z</time>
      </trkpt>
      <trkpt lat="42.322484" lon="2.333634">
        <ele>1026.6</ele>
        <time>2018-06-11T06:13:35Z</time>
      </trkpt>
      <trkpt lat="42.322443" lon="2.333640">
        <ele>1027.5</ele>
        <time>2018-06-11T06:13:36Z</time>
      </trkpt>
      <trkpt lat="42.322425" lon="2.333610">
        <ele>1028.1</ele>
        <time>2018-06-11T06:13:37Z</time>
      </trkpt>
      <trkpt lat="42.322445" lon="2.333532">
        <ele>1028.3</ele>
        <time>2018-06-11T06:13:39Z</time>
      </trkpt>
      <trkpt lat="42.322572" lon="2.333372">
        <ele>1027.9</ele>
        <time>2018-06-11T06:13:43Z</time>
      </trkpt>
      <trkpt lat="42.322590" lon="2.333299">
        <ele>1028.4</ele>
        <time>2018-06-11T06:13:45Z</time>
      </trkpt>
      <trkpt lat="42.322577" lon="2.333218">
        <ele>1029.2</ele>
        <time>2018-06-11T06:13:46Z</time>
      </trkpt>
      <trkpt lat="42.322533" lon="2.332729">
        <ele>1028.9</ele>
        <time>2018-06-11T06:13:56Z</time>
      </trkpt>
      <trkpt lat="42.322548" lon="2.332408">
        <ele>1029.3</ele>
        <time>2018-06-11T06:14:02Z</time>
      </trkpt>
      <trkpt lat="42.322575" lon="2.332117">
        <ele>1029.9</ele>
        <time>2018-06-11T06:14:08Z</time>
      </trkpt>
      <trkpt lat="42.322567" lon="2.331986">
        <ele>1030.0</ele>
        <time>2018-06-11T06:14:11Z</time>
      </trkpt>
      <trkpt lat="42.322577" lon="2.331892">
        <ele>1030.0</ele>
        <time>2018-06-11T06:14:13Z</time>
      </trkpt>
      <trkpt lat="42.322650" lon="2.331680">
        <ele>1030.9</ele>
        <time>2018-06-11T06:14:17Z</time>
      </trkpt>
      <trkpt lat="42.322741" lon="2.331416">
        <ele>1033.0</ele>
        <time>2018-06-11T06:14:23Z</time>
      </trkpt>
      <trkpt lat="42.322751" lon="2.331219">
        <ele>1035.4</ele>
        <time>2018-06-11T06:14:27Z</time>
      </trkpt>
      <trkpt lat="42.322729" lon="2.331096">
        <ele>1036.9</ele>
        <time>2018-06-11T06:14:29Z</time>
      </trkpt>
      <trkpt lat="42.322691" lon="2.330999">
        <ele>1037.9</ele>
        <time>2018-06-11T06:14:31Z</time>
      </trkpt>
      <trkpt lat="42.322571" lon="2.330656">
        <ele>1042.4</ele>
        <time>2018-06-11T06:14:39Z</time>
      </trkpt>
      <trkpt lat="42.322540" lon="2.330327">
        <ele>1045.4</ele>
        <time>2018-06-11T06:14:45Z</time>
      </trkpt>
      <trkpt lat="42.322508" lon="2.329981">
        <ele>1047.3</ele>
        <time>2018-06-11T06:14:52Z</time>
      </trkpt>
      <trkpt lat="42.322502" lon="2.329726">
        <ele>1048.8</ele>
        <time>2018-06-11T06:14:57Z</time>
      </trkpt>
      <trkpt lat="42.322646" lon="2.328988">
        <ele>1053.2</ele>
        <time>2018-06-11T06:15:12Z</time>
      </trkpt>
      <trkpt lat="42.322819" lon="2.328355">
        <ele>1057.2</ele>
        <time>2018-06-11T06:15:25Z</time>
      </trkpt>
      <trkpt lat="42.322849" lon="2.328130">
        <ele>1058.2</ele>
        <time>2018-06-11T06:15:30Z</time>
      </trkpt>
      <trkpt lat="42.322839" lon="2.327627">
        <ele>1064.3</ele>
        <time>2018-06-11T06:15:40Z</time>
      </trkpt>
      <trkpt lat="42.322789" lon="2.326731">
        <ele>1072.8</ele>
        <time>2018-06-11T06:15:58Z</time>
      </trkpt>
      <trkpt lat="42.322689" lon="2.326215">
        <ele>1076.6</ele>
        <time>2018-06-11T06:16:08Z</time>
      </trkpt>
      <trkpt lat="42.322646" lon="2.325827">
        <ele>1080.6</ele>
        <time>2018-06-11T06:16:16Z</time>
      </trkpt>
      <trkpt lat="42.322584" lon="2.325078">
        <ele>1090.1</ele>
        <time>2018-06-11T06:16:31Z</time>
      </trkpt>
      <trkpt lat="42.322548" lon="2.324825">
        <ele>1092.1</ele>
        <time>2018-06-11T06:16:36Z</time>
      </trkpt>
      <trkpt lat="42.322451" lon="2.324559">
        <ele>1094.4</ele>
        <time>2018-06-11T06:16:42Z</time>
      </trkpt>
      <trkpt lat="42.322237" lon="2.324065">
        <ele>1098.6</ele>
        <time>2018-06-11T06:16:53Z</time>
      </trkpt>
      <trkpt lat="42.322062" lon="2.323491">
        <ele>1102.1</ele>
        <time>2018-06-11T06:17:05Z</time>
      </trkpt>
      <trkpt lat="42.321964" lon="2.323081">
        <ele>1106.0</ele>
        <time>2018-06-11T06:17:14Z</time>
      </trkpt>
      <trkpt lat="42.321845" lon="2.322627">
        <ele>1113.5</ele>
        <time>2018-06-11T06:17:23Z</time>
      </trkpt>
      <trkpt lat="42.321765" lon="2.322380">
        <ele>1117.6</ele>
        <time>2018-06-11T06:17:29Z</time>
      </trkpt>
      <trkpt lat="42.321559" lon="2.321842">
        <ele>1121.8</ele>
        <time>2018-06-11T06:17:40Z</time>
      </trkpt>
      <trkpt lat="42.321051" lon="2.321098">
        <ele>1128.1</ele>
        <time>2018-06-11T06:18:00Z</time>
      </trkpt>
      <trkpt lat="42.320536" lon="2.320166">
        <ele>1129.2</ele>
        <time>2018-06-11T06:18:23Z</time>
      </trkpt>
      <trkpt lat="42.320371" lon="2.319707">
        <ele>1133.7</ele>
        <time>2018-06-11T06:18:33Z</time>
      </trkpt>
      <trkpt lat="42.320269" lon="2.319547">
        <ele>1136.9</ele>
        <time>2018-06-11T06:18:37Z</time>
      </trkpt>
      <trkpt lat="42.319940" lon="2.319104">
        <ele>1149.3</ele>
        <time>2018-06-11T06:18:50Z</time>
      </trkpt>
      <trkpt lat="42.319473" lon="2.318667">
        <ele>1156.7</ele>
        <time>2018-06-11T06:19:05Z</time>
      </trkpt>
      <trkpt lat="42.319310" lon="2.318454">
        <ele>1156.6</ele>
        <time>2018-06-11T06:19:11Z</time>
      </trkpt>
      <trkpt lat="42.319132" lon="2.317985">
        <ele>1162.4</ele>
        <time>2018-06-11T06:19:22Z</time>
      </trkpt>
      <trkpt lat="42.318777" lon="2.317376">
        <ele>1162.0</ele>
        <time>2018-06-11T06:19:37Z</time>
      </trkpt>
      <trkpt lat="42.318647" lon="2.317086">
        <ele>1158.9</ele>
        <time>2018-06-11T06:19:43Z</time>
      </trkpt>
      <trkpt lat="42.318543" lon="2.316499">
        <ele>1164.8</ele>
        <time>2018-06-11T06:19:55Z</time>
      </trkpt>
      <trkpt lat="42.318409" lon="2.316013">
        <ele>1165.3</ele>
        <time>2018-06-11T06:20:05Z</time>
      </trkpt>
      <trkpt lat="42.318402" lon="2.315958">
        <ele>1165.5</ele>
        <time>2018-06-11T06:20:07Z</time>
      </trkpt>
      <trkpt lat="42.318417" lon="2.315935">
        <ele>1166.2</ele>
        <time>2018-06-11T06:20:07Z</time>
      </trkpt>
      <trkpt lat="42.318444" lon="2.315911">
        <ele>1167.2</ele>
        <time>2018-06-11T06:20:08Z</time>
      </trkpt>
      <trkpt lat="42.318476" lon="2.315917">
        <ele>1168.3</ele>
        <time>2018-06-11T06:20:09Z</time>
      </trkpt>
      <trkpt lat="42.318756" lon="2.316102">
        <ele>1174.3</ele>
        <time>2018-06-11T06:20:17Z</time>
      </trkpt>
      <trkpt lat="42.318920" lon="2.316225">
        <ele>1179.9</ele>
        <time>2018-06-11T06:20:22Z</time>
      </trkpt>
      <trkpt lat="42.319104" lon="2.316399">
        <ele>1184.0</ele>
        <time>2018-06-11T06:20:29Z</time>
      </trkpt>
      <trkpt lat="42.319146" lon="2.316425">
        <ele>1185.0</ele>
        <time>2018-06-11T06:20:30Z</time>
      </trkpt>
      <trkpt lat="42.319178" lon="2.316381">
        <ele>1186.8</ele>
        <time>2018-06-11T06:20:31Z</time>
      </trkpt>
      <trkpt lat="42.319178" lon="2.316322">
        <ele>1187.7</ele>
        <time>2018-06-11T06:20:32Z</time>
      </trkpt>
      <trkpt lat="42.319135" lon="2.316152">
        <ele>1187.9</ele>
        <time>2018-06-11T06:20:36Z</time>
      </trkpt>
      <trkpt lat="42.319015" lon="2.315771">
        <ele>1185.5</ele>
        <time>2018-06-11T06:20:44Z</time>
      </trkpt>
      <trkpt lat="42.318988" lon="2.315662">
        <ele>1184.4</ele>
        <time>2018-06-11T06:20:46Z</time>
      </trkpt>
      <trkpt lat="42.319001" lon="2.315583">
        <ele>1185.0</ele>
        <time>2018-06-11T06:20:48Z</time>
      </trkpt>
      <trkpt lat="42.319045" lon="2.315516">
        <ele>1186.7</ele>
        <time>2018-06-11T06:20:50Z</time>
      </trkpt>
      <trkpt lat="42.319104" lon="2.315497">
        <ele>1189.1</ele>
        <time>2018-06-11T06:20:51Z</time>
      </trkpt>
      <trkpt lat="42.319144" lon="2.315539">
        <ele>1190.7</ele>
        <time>2018-06-11T06:20:53Z</time>
      </trkpt>
      <trkpt lat="42.319194" lon="2.315612">
        <ele>1192.3</ele>
        <time>2018-06-11T06:20:55Z</time>
      </trkpt>
      <trkpt lat="42.319544" lon="2.316355">
        <ele>1195.9</ele>
        <time>2018-06-11T06:21:12Z</time>
      </trkpt>
      <trkpt lat="42.319703" lon="2.316569">
        <ele>1197.4</ele>
        <time>2018-06-11T06:21:18Z</time>
      </trkpt>
      <trkpt lat="42.320372" lon="2.317227">
        <ele>1205.7</ele>
        <time>2018-06-11T06:21:40Z</time>
      </trkpt>
      <trkpt lat="42.320754" lon="2.317524">
        <ele>1208.4</ele>
        <time>2018-06-11T06:21:51Z</time>
      </trkpt>
      <trkpt lat="42.321369" lon="2.317821">
        <ele>1211.3</ele>
        <time>2018-06-11T06:22:09Z</time>
      </trkpt>
      <trkpt lat="42.321603" lon="2.317897">
        <ele>1213.2</ele>
        <time>2018-06-11T06:22:15Z</time>
      </trkpt>
      <trkpt lat="42.321887" lon="2.317864">
        <ele>1215.3</ele>
        <time>2018-06-11T06:22:23Z</time>
      </trkpt>
      <trkpt lat="42.321925" lon="2.317814">
        <ele>1215.7</ele>
        <time>2018-06-11T06:22:24Z</time>
      </trkpt>
      <trkpt lat="42.321943" lon="2.317720">
        <ele>1216.8</ele>
        <time>2018-06-11T06:22:26Z</time>
      </trkpt>
      <trkpt lat="42.321948" lon="2.317536">
        <ele>1218.7</ele>
        <time>2018-06-11T06:22:30Z</time>
      </trkpt>
      <trkpt lat="42.321859" lon="2.317169">
        <ele>1222.1</ele>
        <time>2018-06-11T06:22:37Z</time>
      </trkpt>
      <trkpt lat="42.321718" lon="2.316797">
        <ele>1228.2</ele>
        <time>2018-06-11T06:22:46Z</time>
      </trkpt>
      <trkpt lat="42.321504" lon="2.316527">
        <ele>1235.9</ele>
        <time>2018-06-11T06:22:54Z</time>
      </trkpt>
      <trkpt lat="42.321282" lon="2.316237">
        <ele>1242.2</ele>
        <time>2018-06-11T06:23:02Z</time>
      </trkpt>
      <trkpt lat="42.321159" lon="2.315963">
        <ele>1242.8</ele>
        <time>2018-06-11T06:23:08Z</time>
      </trkpt>
      <trkpt lat="42.321064" lon="2.315647">
        <ele>1245.0</ele>
        <time>2018-06-11T06:23:15Z</time>
      </trkpt>
      <trkpt lat="42.320987" lon="2.315274">
        <ele>1248.4</ele>
        <time>2018-06-11T06:23:22Z</time>
      </trkpt>
      <trkpt lat="42.320977" lon="2.315125">
        <ele>1250.3</ele>
        <time>2018-06-11T06:23:25Z</time>
      </trkpt>
      <trkpt lat="42.321007" lon="2.315063">
        <ele>1251.7</ele>
        <time>2018-06-11T06:23:27Z</time>
      </trkpt>
      <trkpt lat="42.321085" lon="2.315124">
        <ele>1252.2</ele>
        <time>2018-06-11T06:23:29Z</time>
      </trkpt>
      <trkpt lat="42.321168" lon="2.315354">
        <ele>1251.0</ele>
        <time>2018-06-11T06:23:34Z</time>
      </trkpt>
      <trkpt lat="42.321219" lon="2.315389">
        <ele>1251.7</ele>
        <time>2018-06-11T06:23:36Z</time>
      </trkpt>
      <trkpt lat="42.321294" lon="2.315401">
        <ele>1253.0</ele>
        <time>2018-06-11T06:23:38Z</time>
      </trkpt>
      <trkpt lat="42.321345" lon="2.315400">
        <ele>1253.9</ele>
        <time>2018-06-11T06:23:39Z</time>
      </trkpt>
      <trkpt lat="42.321417" lon="2.315351">
        <ele>1255.9</ele>
        <time>2018-06-11T06:23:41Z</time>
      </trkpt>
      <trkpt lat="42.321501" lon="2.315212">
        <ele>1259.4</ele>
        <time>2018-06-11T06:23:45Z</time>
      </trkpt>
      <trkpt lat="42.321550" lon="2.314966">
        <ele>1262.2</ele>
        <time>2018-06-11T06:23:50Z</time>
      </trkpt>
      <trkpt lat="42.321627" lon="2.314778">
        <ele>1264.0</ele>
        <time>2018-06-11T06:23:54Z</time>
      </trkpt>
      <trkpt lat="42.321766" lon="2.314518">
        <ele>1267.5</ele>
        <time>2018-06-11T06:24:01Z</time>
      </trkpt>
      <trkpt lat="42.321825" lon="2.314266">
        <ele>1271.0</ele>
        <time>2018-06-11T06:24:06Z</time>
      </trkpt>
      <trkpt lat="42.321851" lon="2.314054">
        <ele>1272.5</ele>
        <time>2018-06-11T06:24:10Z</time>
      </trkpt>
      <trkpt lat="42.321839" lon="2.313902">
        <ele>1273.7</ele>
        <time>2018-06-11T06:24:13Z</time>
      </trkpt>
      <trkpt lat="42.321831" lon="2.313799">
        <ele>1274.5</ele>
        <time>2018-06-11T06:24:15Z</time>
      </trkpt>
      <trkpt lat="42.321767" lon="2.313672">
        <ele>1276.5</ele>
        <time>2018-06-11T06:24:18Z</time>
      </trkpt>
      <trkpt lat="42.321676" lon="2.313540">
        <ele>1279.2</ele>
        <time>2018-06-11T06:24:22Z</time>
      </trkpt>
      <trkpt lat="42.321520" lon="2.313496">
        <ele>1281.9</ele>
        <time>2018-06-11T06:24:26Z</time>
      </trkpt>
      <trkpt lat="42.321485" lon="2.313453">
        <ele>1282.6</ele>
        <time>2018-06-11T06:24:27Z</time>
      </trkpt>
      <trkpt lat="42.321473" lon="2.313356">
        <ele>1284.0</ele>
        <time>2018-06-11T06:24:29Z</time>
      </trkpt>
      <trkpt lat="42.321532" lon="2.313195">
        <ele>1285.9</ele>
        <time>2018-06-11T06:24:33Z</time>
      </trkpt>
      <trkpt lat="42.321671" lon="2.312697">
        <ele>1287.8</ele>
        <time>2018-06-11T06:24:43Z</time>
      </trkpt>
      <trkpt lat="42.321666" lon="2.312582">
        <ele>1289.4</ele>
        <time>2018-06-11T06:24:46Z</time>
      </trkpt>
      <trkpt lat="42.321623" lon="2.312504">
        <ele>1291.1</ele>
        <time>2018-06-11T06:24:47Z</time>
      </trkpt>
      <trkpt lat="42.321415" lon="2.312506">
        <ele>1292.9</ele>
        <time>2018-06-11T06:24:53Z</time>
      </trkpt>
      <trkpt lat="42.321370" lon="2.312482">
        <ele>1293.6</ele>
        <time>2018-06-11T06:24:54Z</time>
      </trkpt>
      <trkpt lat="42.321362" lon="2.312423">
        <ele>1294.4</ele>
        <time>2018-06-11T06:24:55Z</time>
      </trkpt>
      <trkpt lat="42.321393" lon="2.312310">
        <ele>1295.4</ele>
        <time>2018-06-11T06:24:58Z</time>
      </trkpt>
      <trkpt lat="42.321481" lon="2.311945">
        <ele>1298.7</ele>
        <time>2018-06-11T06:25:05Z</time>
      </trkpt>
      <trkpt lat="42.321458" lon="2.311836">
        <ele>1299.3</ele>
        <time>2018-06-11T06:25:08Z</time>
      </trkpt>
      <trkpt lat="42.321340" lon="2.311480">
        <ele>1300.7</ele>
        <time>2018-06-11T06:25:15Z</time>
      </trkpt>
      <trkpt lat="42.321325" lon="2.311400">
        <ele>1301.9</ele>
        <time>2018-06-11T06:25:17Z</time>
      </trkpt>
      <trkpt lat="42.321339" lon="2.311294">
        <ele>1303.4</ele>
        <time>2018-06-11T06:25:19Z</time>
      </trkpt>
      <trkpt lat="42.321596" lon="2.310642">
        <ele>1307.8</ele>
        <time>2018-06-11T06:25:34Z</time>
      </trkpt>
      <trkpt lat="42.321675" lon="2.310443">
        <ele>1309.8</ele>
        <time>2018-06-11T06:25:38Z</time>
      </trkpt>
      <trkpt lat="42.321703" lon="2.310261">
        <ele>1311.5</ele>
        <time>2018-06-11T06:25:42Z</time>
      </trkpt>
      <trkpt lat="42.321653" lon="2.309746">
        <ele>1316.5</ele>
        <time>2018-06-11T06:25:52Z</time>
      </trkpt>
      <trkpt lat="42.321570" lon="2.309377">
        <ele>1320.2</ele>
        <time>2018-06-11T06:26:00Z</time>
      </trkpt>
      <trkpt lat="42.321423" lon="2.309009">
        <ele>1327.8</ele>
        <time>2018-06-11T06:26:08Z</time>
      </trkpt>
      <trkpt lat="42.321394" lon="2.308959">
        <ele>1329.2</ele>
        <time>2018-06-11T06:26:09Z</time>
      </trkpt>
      <trkpt lat="42.321351" lon="2.308943">
        <ele>1330.1</ele>
        <time>2018-06-11T06:26:10Z</time>
      </trkpt>
      <trkpt lat="42.321315" lon="2.308955">
        <ele>1330.4</ele>
        <time>2018-06-11T06:26:11Z</time>
      </trkpt>
      <trkpt lat="42.321256" lon="2.309054">
        <ele>1329.6</ele>
        <time>2018-06-11T06:26:14Z</time>
      </trkpt>
      <trkpt lat="42.321119" lon="2.309242">
        <ele>1327.2</ele>
        <time>2018-06-11T06:26:19Z</time>
      </trkpt>
      <trkpt lat="42.321025" lon="2.309353">
        <ele>1326.0</ele>
        <time>2018-06-11T06:26:22Z</time>
      </trkpt>
      <trkpt lat="42.320912" lon="2.309431">
        <ele>1325.9</ele>
        <time>2018-06-11T06:26:26Z</time>
      </trkpt>
      <trkpt lat="42.320826" lon="2.309440">
        <ele>1326.3</ele>
        <time>2018-06-11T06:26:28Z</time>
      </trkpt>
      <trkpt lat="42.320772" lon="2.309352">
        <ele>1327.2</ele>
        <time>2018-06-11T06:26:30Z</time>
      </trkpt>
      <trkpt lat="42.320755" lon="2.309263">
        <ele>1327.9</ele>
        <time>2018-06-11T06:26:32Z</time>
      </trkpt>
      <trkpt lat="42.320774" lon="2.309159">
        <ele>1328.6</ele>
        <time>2018-06-11T06:26:34Z</time>
      </trkpt>
      <trkpt lat="42.320847" lon="2.309073">
        <ele>1329.0</ele>
        <time>2018-06-11T06:26:37Z</time>
      </trkpt>
      <trkpt lat="42.320926" lon="2.308948">
        <ele>1330.6</ele>
        <time>2018-06-11T06:26:40Z</time>
      </trkpt>
      <trkpt lat="42.320936" lon="2.308916">
        <ele>1331.1</ele>
        <time>2018-06-11T06:26:41Z</time>
      </trkpt>
      <trkpt lat="42.320944" lon="2.308879">
        <ele>1331.7</ele>
        <time>2018-06-11T06:26:41Z</time>
      </trkpt>
      <trkpt lat="42.320948" lon="2.308859">
        <ele>1332.1</ele>
        <time>2018-06-11T06:26:42Z</time>
      </trkpt>
      <trkpt lat="42.320952" lon="2.308832">
        <ele>1332.6</ele>
        <time>2018-06-11T06:26:42Z</time>
      </trkpt>
      <trkpt lat="42.320953" lon="2.308802">
        <ele>1333.1</ele>
        <time>2018-06-11T06:26:43Z</time>
      </trkpt>
      <trkpt lat="42.320956" lon="2.308758">
        <ele>1333.9</ele>
        <time>2018-06-11T06:26:44Z</time>
      </trkpt>
      <trkpt lat="42.320954" lon="2.308725">
        <ele>1334.6</ele>
        <time>2018-06-11T06:26:45Z</time>
      </trkpt>
      <trkpt lat="42.320950" lon="2.308686">
        <ele>1335.4</ele>
        <time>2018-06-11T06:26:45Z</time>
      </trkpt>
      <trkpt lat="42.320940" lon="2.308637">
        <ele>1336.4</ele>
        <time>2018-06-11T06:26:46Z</time>
      </trkpt>
      <trkpt lat="42.320934" lon="2.308611">
        <ele>1337.0</ele>
        <time>2018-06-11T06:26:47Z</time>
      </trkpt>
      <trkpt lat="42.320923" lon="2.308581">
        <ele>1337.7</ele>
        <time>2018-06-11T06:26:48Z</time>
      </trkpt>
      <trkpt lat="42.320894" lon="2.308525">
        <ele>1338.9</ele>
        <time>2018-06-11T06:26:49Z</time>
      </trkpt>
      <trkpt lat="42.320863" lon="2.308473">
        <ele>1340.0</ele>
        <time>2018-06-11T06:26:50Z</time>
      </trkpt>
      <trkpt lat="42.320809" lon="2.308383">
        <ele>1341.4</ele>
        <time>2018-06-11T06:26:53Z</time>
      </trkpt>
      <trkpt lat="42.320721" lon="2.308251">
        <ele>1343.3</ele>
        <time>2018-06-11T06:26:56Z</time>
      </trkpt>
      <trkpt lat="42.320651" lon="2.308124">
        <ele>1343.2</ele>
        <time>2018-06-11T06:26:59Z</time>
      </trkpt>
      <trkpt lat="42.320611" lon="2.308039">
        <ele>1342.9</ele>
        <time>2018-06-11T06:27:01Z</time>
      </trkpt>
      <trkpt lat="42.320551" lon="2.307905">
        <ele>1343.1</ele>
        <time>2018-06-11T06:27:04Z</time>
      </trkpt>
      <trkpt lat="42.320458" lon="2.307696">
        <ele>1344.0</ele>
        <time>2018-06-11T06:27:09Z</time>
      </trkpt>
      <trkpt lat="42.320422" lon="2.307608">
        <ele>1344.4</ele>
        <time>2018-06-11T06:27:11Z</time>
      </trkpt>
      <trkpt lat="42.320369" lon="2.307425">
        <ele>1345.8</ele>
        <time>2018-06-11T06:27:15Z</time>
      </trkpt>
      <trkpt lat="42.320344" lon="2.307336">
        <ele>1346.4</ele>
        <time>2018-06-11T06:27:17Z</time>
      </trkpt>
      <trkpt lat="42.320331" lon="2.307261">
        <ele>1346.7</ele>
        <time>2018-06-11T06:27:18Z</time>
      </trkpt>
      <trkpt lat="42.320311" lon="2.307084">
        <ele>1347.5</ele>
        <time>2018-06-11T06:27:22Z</time>
      </trkpt>
      <trkpt lat="42.320307" lon="2.307049">
        <ele>1347.6</ele>
        <time>2018-06-11T06:27:22Z</time>
      </trkpt>
      <trkpt lat="42.320298" lon="2.307002">
        <ele>1347.6</ele>
        <time>2018-06-11T06:27:23Z</time>
      </trkpt>
      <trkpt lat="42.320289" lon="2.306961">
        <ele>1347.7</ele>
        <time>2018-06-11T06:27:24Z</time>
      </trkpt>
      <trkpt lat="42.320217" lon="2.306663">
        <ele>1347.7</ele>
        <time>2018-06-11T06:27:30Z</time>
      </trkpt>
      <trkpt lat="42.320174" lon="2.306512">
        <ele>1348.0</ele>
        <time>2018-06-11T06:27:34Z</time>
      </trkpt>
      <trkpt lat="42.320138" lon="2.306380">
        <ele>1349.1</ele>
        <time>2018-06-11T06:27:36Z</time>
      </trkpt>
      <trkpt lat="42.320132" lon="2.306355">
        <ele>1349.4</ele>
        <time>2018-06-11T06:27:37Z</time>
      </trkpt>
      <trkpt lat="42.320122" lon="2.306320">
        <ele>1349.8</ele>
        <time>2018-06-11T06:27:38Z</time>
      </trkpt>
      <trkpt lat="42.320111" lon="2.306289">
        <ele>1350.2</ele>
        <time>2018-06-11T06:27:38Z</time>
      </trkpt>
      <trkpt lat="42.320103" lon="2.306272">
        <ele>1350.4</ele>
        <time>2018-06-11T06:27:39Z</time>
      </trkpt>
      <trkpt lat="42.320086" lon="2.306235">
        <ele>1351.0</ele>
        <time>2018-06-11T06:27:40Z</time>
      </trkpt>
      <trkpt lat="42.320072" lon="2.306208">
        <ele>1351.6</ele>
        <time>2018-06-11T06:27:40Z</time>
      </trkpt>
      <trkpt lat="42.320038" lon="2.306151">
        <ele>1352.8</ele>
        <time>2018-06-11T06:27:42Z</time>
      </trkpt>
      <trkpt lat="42.319836" lon="2.305857">
        <ele>1356.7</ele>
        <time>2018-06-11T06:27:50Z</time>
      </trkpt>
      <trkpt lat="42.319786" lon="2.305789">
        <ele>1356.6</ele>
        <time>2018-06-11T06:27:51Z</time>
      </trkpt>
      <trkpt lat="42.319741" lon="2.305728">
        <ele>1356.8</ele>
        <time>2018-06-11T06:27:53Z</time>
      </trkpt>
      <trkpt lat="42.319707" lon="2.305683">
        <ele>1357.0</ele>
        <time>2018-06-11T06:27:54Z</time>
      </trkpt>
      <trkpt lat="42.319603" lon="2.305557">
        <ele>1357.8</ele>
        <time>2018-06-11T06:27:58Z</time>
      </trkpt>
      <trkpt lat="42.319581" lon="2.305527">
        <ele>1358.0</ele>
        <time>2018-06-11T06:27:59Z</time>
      </trkpt>
      <trkpt lat="42.319555" lon="2.305492">
        <ele>1358.4</ele>
        <time>2018-06-11T06:28:00Z</time>
      </trkpt>
      <trkpt lat="42.319477" lon="2.305360">
        <ele>1360.3</ele>
        <time>2018-06-11T06:28:03Z</time>
      </trkpt>
      <trkpt lat="42.319405" lon="2.305233">
        <ele>1361.8</ele>
        <time>2018-06-11T06:28:06Z</time>
      </trkpt>
      <trkpt lat="42.319329" lon="2.305113">
        <ele>1362.7</ele>
        <time>2018-06-11T06:28:09Z</time>
      </trkpt>
      <trkpt lat="42.319292" lon="2.305051">
        <ele>1363.0</ele>
        <time>2018-06-11T06:28:11Z</time>
      </trkpt>
      <trkpt lat="42.319264" lon="2.305008">
        <ele>1363.1</ele>
        <time>2018-06-11T06:28:12Z</time>
      </trkpt>
      <trkpt lat="42.319253" lon="2.304990">
        <ele>1363.1</ele>
        <time>2018-06-11T06:28:13Z</time>
      </trkpt>
      <trkpt lat="42.319245" lon="2.304972">
        <ele>1363.2</ele>
        <time>2018-06-11T06:28:13Z</time>
      </trkpt>
      <trkpt lat="42.319239" lon="2.304949">
        <ele>1363.5</ele>
        <time>2018-06-11T06:28:14Z</time>
      </trkpt>
      <trkpt lat="42.319233" lon="2.304923">
        <ele>1363.8</ele>
        <time>2018-06-11T06:28:14Z</time>
      </trkpt>
      <trkpt lat="42.319229" lon="2.304901">
        <ele>1364.0</ele>
        <time>2018-06-11T06:28:15Z</time>
      </trkpt>
      <trkpt lat="42.319223" lon="2.304872">
        <ele>1364.4</ele>
        <time>2018-06-11T06:28:15Z</time>
      </trkpt>
      <trkpt lat="42.319212" lon="2.304839">
        <ele>1364.7</ele>
        <time>2018-06-11T06:28:16Z</time>
      </trkpt>
      <trkpt lat="42.319185" lon="2.304769">
        <ele>1365.6</ele>
        <time>2018-06-11T06:28:17Z</time>
      </trkpt>
      <trkpt lat="42.319173" lon="2.304746">
        <ele>1365.9</ele>
        <time>2018-06-11T06:28:18Z</time>
      </trkpt>
      <trkpt lat="42.319130" lon="2.304686">
        <ele>1366.4</ele>
        <time>2018-06-11T06:28:20Z</time>
      </trkpt>
      <trkpt lat="42.319084" lon="2.304609">
        <ele>1367.3</ele>
        <time>2018-06-11T06:28:22Z</time>
      </trkpt>
      <trkpt lat="42.319037" lon="2.304521">
        <ele>1368.5</ele>
        <time>2018-06-11T06:28:24Z</time>
      </trkpt>
      <trkpt lat="42.318995" lon="2.304429">
        <ele>1369.9</ele>
        <time>2018-06-11T06:28:26Z</time>
      </trkpt>
      <trkpt lat="42.318919" lon="2.304263">
        <ele>1372.4</ele>
        <time>2018-06-11T06:28:30Z</time>
      </trkpt>
      <trkpt lat="42.318842" lon="2.304086">
        <ele>1374.4</ele>
        <time>2018-06-11T06:28:34Z</time>
      </trkpt>
      <trkpt lat="42.318806" lon="2.303999">
        <ele>1375.7</ele>
        <time>2018-06-11T06:28:36Z</time>
      </trkpt>
      <trkpt lat="42.318776" lon="2.303905">
        <ele>1377.3</ele>
        <time>2018-06-11T06:28:38Z</time>
      </trkpt>
      <trkpt lat="42.318751" lon="2.303823">
        <ele>1378.7</ele>
        <time>2018-06-11T06:28:40Z</time>
      </trkpt>
      <trkpt lat="42.318733" lon="2.303764">
        <ele>1379.6</ele>
        <time>2018-06-11T06:28:41Z</time>
      </trkpt>
      <trkpt lat="42.318717" lon="2.303690">
        <ele>1380.7</ele>
        <time>2018-06-11T06:28:42Z</time>
      </trkpt>
      <trkpt lat="42.318699" lon="2.303591">
        <ele>1382.1</ele>
        <time>2018-06-11T06:28:44Z</time>
      </trkpt>
      <trkpt lat="42.318688" lon="2.303535">
        <ele>1383.0</ele>
        <time>2018-06-11T06:28:45Z</time>
      </trkpt>
      <trkpt lat="42.318664" lon="2.303421">
        <ele>1385.1</ele>
        <time>2018-06-11T06:28:48Z</time>
      </trkpt>
      <trkpt lat="42.318635" lon="2.303319">
        <ele>1387.1</ele>
        <time>2018-06-11T06:28:50Z</time>
      </trkpt>
      <trkpt lat="42.318594" lon="2.303191">
        <ele>1389.5</ele>
        <time>2018-06-11T06:28:53Z</time>
      </trkpt>
      <trkpt lat="42.318560" lon="2.303097">
        <ele>1390.8</ele>
        <time>2018-06-11T06:28:55Z</time>
      </trkpt>
      <trkpt lat="42.318538" lon="2.303043">
        <ele>1391.6</ele>
        <time>2018-06-11T06:28:56Z</time>
      </trkpt>
      <trkpt lat="42.318511" lon="2.302974">
        <ele>1392.4</ele>
        <time>2018-06-11T06:28:58Z</time>
      </trkpt>
      <trkpt lat="42.318493" lon="2.302939">
        <ele>1392.8</ele>
        <time>2018-06-11T06:28:59Z</time>
      </trkpt>
      <trkpt lat="42.318471" lon="2.302899">
        <ele>1393.2</ele>
        <time>2018-06-11T06:28:59Z</time>
      </trkpt>
      <trkpt lat="42.318444" lon="2.302852">
        <ele>1393.4</ele>
        <time>2018-06-11T06:29:01Z</time>
      </trkpt>
      <trkpt lat="42.318421" lon="2.302807">
        <ele>1393.7</ele>
        <time>2018-06-11T06:29:02Z</time>
      </trkpt>
      <trkpt lat="42.318403" lon="2.302770">
        <ele>1393.9</ele>
        <time>2018-06-11T06:29:03Z</time>
      </trkpt>
      <trkpt lat="42.318380" lon="2.302719">
        <ele>1394.2</ele>
        <time>2018-06-11T06:29:04Z</time>
      </trkpt>
      <trkpt lat="42.318360" lon="2.302663">
        <ele>1394.6</ele>
        <time>2018-06-11T06:29:05Z</time>
      </trkpt>
      <trkpt lat="42.318329" lon="2.302574">
        <ele>1395.4</ele>
        <time>2018-06-11T06:29:07Z</time>
      </trkpt>
      <trkpt lat="42.318295" lon="2.302479">
        <ele>1396.1</ele>
        <time>2018-06-11T06:29:09Z</time>
      </trkpt>
      <trkpt lat="42.318247" lon="2.302358">
        <ele>1397.0</ele>
        <time>2018-06-11T06:29:12Z</time>
      </trkpt>
      <trkpt lat="42.318179" lon="2.302199">
        <ele>1399.3</ele>
        <time>2018-06-11T06:29:15Z</time>
      </trkpt>
      <trkpt lat="42.318157" lon="2.302145">
        <ele>1400.2</ele>
        <time>2018-06-11T06:29:17Z</time>
      </trkpt>
      <trkpt lat="42.318129" lon="2.302066">
        <ele>1401.7</ele>
        <time>2018-06-11T06:29:18Z</time>
      </trkpt>
      <trkpt lat="42.318108" lon="2.302017">
        <ele>1402.5</ele>
        <time>2018-06-11T06:29:19Z</time>
      </trkpt>
      <trkpt lat="42.318089" lon="2.301978">
        <ele>1403.2</ele>
        <time>2018-06-11T06:29:20Z</time>
      </trkpt>
      <trkpt lat="42.318069" lon="2.301941">
        <ele>1403.9</ele>
        <time>2018-06-11T06:29:21Z</time>
      </trkpt>
      <trkpt lat="42.318027" lon="2.301884">
        <ele>1405.1</ele>
        <time>2018-06-11T06:29:23Z</time>
      </trkpt>
      <trkpt lat="42.317970" lon="2.301786">
        <ele>1407.2</ele>
        <time>2018-06-11T06:29:25Z</time>
      </trkpt>
      <trkpt lat="42.317934" lon="2.301735">
        <ele>1407.8</ele>
        <time>2018-06-11T06:29:27Z</time>
      </trkpt>
      <trkpt lat="42.317884" lon="2.301636">
        <ele>1408.4</ele>
        <time>2018-06-11T06:29:29Z</time>
      </trkpt>
      <trkpt lat="42.317844" lon="2.301547">
        <ele>1409.0</ele>
        <time>2018-06-11T06:29:31Z</time>
      </trkpt>
      <trkpt lat="42.317808" lon="2.301431">
        <ele>1409.9</ele>
        <time>2018-06-11T06:29:34Z</time>
      </trkpt>
      <trkpt lat="42.317776" lon="2.301276">
        <ele>1411.2</ele>
        <time>2018-06-11T06:29:37Z</time>
      </trkpt>
      <trkpt lat="42.317757" lon="2.301152">
        <ele>1413.0</ele>
        <time>2018-06-11T06:29:39Z</time>
      </trkpt>
      <trkpt lat="42.317749" lon="2.301110">
        <ele>1413.6</ele>
        <time>2018-06-11T06:29:40Z</time>
      </trkpt>
      <trkpt lat="42.317680" lon="2.300893">
        <ele>1416.2</ele>
        <time>2018-06-11T06:29:45Z</time>
      </trkpt>
      <trkpt lat="42.317632" lon="2.300710">
        <ele>1418.7</ele>
        <time>2018-06-11T06:29:49Z</time>
      </trkpt>
      <trkpt lat="42.317622" lon="2.300652">
        <ele>1420.0</ele>
        <time>2018-06-11T06:29:50Z</time>
      </trkpt>
      <trkpt lat="42.317590" lon="2.300551">
        <ele>1422.4</ele>
        <time>2018-06-11T06:29:52Z</time>
      </trkpt>
      <trkpt lat="42.317542" lon="2.300377">
        <ele>1426.7</ele>
        <time>2018-06-11T06:29:56Z</time>
      </trkpt>
      <trkpt lat="42.317497" lon="2.300180">
        <ele>1431.4</ele>
        <time>2018-06-11T06:30:00Z</time>
      </trkpt>
      <trkpt lat="42.317473" lon="2.300058">
        <ele>1433.8</ele>
        <time>2018-06-11T06:30:03Z</time>
      </trkpt>
      <trkpt lat="42.317454" lon="2.299995">
        <ele>1434.8</ele>
        <time>2018-06-11T06:30:04Z</time>
      </trkpt>
      <trkpt lat="42.317431" lon="2.299946">
        <ele>1435.4</ele>
        <time>2018-06-11T06:30:05Z</time>
      </trkpt>
      <trkpt lat="42.317411" lon="2.299900">
        <ele>1436.0</ele>
        <time>2018-06-11T06:30:06Z</time>
      </trkpt>
      <trkpt lat="42.317395" lon="2.299849">
        <ele>1436.8</ele>
        <time>2018-06-11T06:30:07Z</time>
      </trkpt>
      <trkpt lat="42.317385" lon="2.299814">
        <ele>1437.7</ele>
        <time>2018-06-11T06:30:08Z</time>
      </trkpt>
      <trkpt lat="42.317379" lon="2.299784">
        <ele>1438.5</ele>
        <time>2018-06-11T06:30:09Z</time>
      </trkpt>
      <trkpt lat="42.317379" lon="2.299747">
        <ele>1439.6</ele>
        <time>2018-06-11T06:30:09Z</time>
      </trkpt>
      <trkpt lat="42.317381" lon="2.299701">
        <ele>1440.9</ele>
        <time>2018-06-11T06:30:10Z</time>
      </trkpt>
      <trkpt lat="42.317387" lon="2.299650">
        <ele>1442.5</ele>
        <time>2018-06-11T06:30:11Z</time>
      </trkpt>
      <trkpt lat="42.317395" lon="2.299601">
        <ele>1444.0</ele>
        <time>2018-06-11T06:30:13Z</time>
      </trkpt>
      <trkpt lat="42.317401" lon="2.299561">
        <ele>1445.4</ele>
        <time>2018-06-11T06:30:13Z</time>
      </trkpt>
      <trkpt lat="42.317409" lon="2.299533">
        <ele>1446.4</ele>
        <time>2018-06-11T06:30:14Z</time>
      </trkpt>
      <trkpt lat="42.317409" lon="2.299502">
        <ele>1447.5</ele>
        <time>2018-06-11T06:30:15Z</time>
      </trkpt>
      <trkpt lat="42.317404" lon="2.299479">
        <ele>1448.2</ele>
        <time>2018-06-11T06:30:15Z</time>
      </trkpt>
      <trkpt lat="42.317393" lon="2.299449">
        <ele>1449.0</ele>
        <time>2018-06-11T06:30:16Z</time>
      </trkpt>
      <trkpt lat="42.317377" lon="2.299421">
        <ele>1449.6</ele>
        <time>2018-06-11T06:30:17Z</time>
      </trkpt>
      <trkpt lat="42.317359" lon="2.299403">
        <ele>1449.8</ele>
        <time>2018-06-11T06:30:17Z</time>
      </trkpt>
      <trkpt lat="42.317283" lon="2.299345">
        <ele>1450.8</ele>
        <time>2018-06-11T06:30:19Z</time>
      </trkpt>
      <trkpt lat="42.317179" lon="2.299280">
        <ele>1452.1</ele>
        <time>2018-06-11T06:30:23Z</time>
      </trkpt>
      <trkpt lat="42.317133" lon="2.299261">
        <ele>1452.5</ele>
        <time>2018-06-11T06:30:24Z</time>
      </trkpt>
      <trkpt lat="42.317094" lon="2.299248">
        <ele>1452.6</ele>
        <time>2018-06-11T06:30:25Z</time>
      </trkpt>
      <trkpt lat="42.317057" lon="2.299250">
        <ele>1452.0</ele>
        <time>2018-06-11T06:30:26Z</time>
      </trkpt>
      <trkpt lat="42.317016" lon="2.299243">
        <ele>1451.6</ele>
        <time>2018-06-11T06:30:27Z</time>
      </trkpt>
      <trkpt lat="42.316979" lon="2.299237">
        <ele>1451.3</ele>
        <time>2018-06-11T06:30:28Z</time>
      </trkpt>
      <trkpt lat="42.316917" lon="2.299216">
        <ele>1451.1</ele>
        <time>2018-06-11T06:30:30Z</time>
      </trkpt>
      <trkpt lat="42.316773" lon="2.299146">
        <ele>1450.8</ele>
        <time>2018-06-11T06:30:34Z</time>
      </trkpt>
      <trkpt lat="42.316729" lon="2.299120">
        <ele>1450.3</ele>
        <time>2018-06-11T06:30:35Z</time>
      </trkpt>
      <trkpt lat="42.316696" lon="2.299095">
        <ele>1450.1</ele>
        <time>2018-06-11T06:30:36Z</time>
      </trkpt>
      <trkpt lat="42.316669" lon="2.299069">
        <ele>1450.2</ele>
        <time>2018-06-11T06:30:37Z</time>
      </trkpt>
      <trkpt lat="42.316633" lon="2.299032">
        <ele>1450.3</ele>
        <time>2018-06-11T06:30:38Z</time>
      </trkpt>
      <trkpt lat="42.316611" lon="2.298994">
        <ele>1450.7</ele>
        <time>2018-06-11T06:30:39Z</time>
      </trkpt>
      <trkpt lat="42.316595" lon="2.298963">
        <ele>1451.0</ele>
        <time>2018-06-11T06:30:40Z</time>
      </trkpt>
      <trkpt lat="42.316565" lon="2.298897">
        <ele>1451.8</ele>
        <time>2018-06-11T06:30:41Z</time>
      </trkpt>
      <trkpt lat="42.316539" lon="2.298817">
        <ele>1452.8</ele>
        <time>2018-06-11T06:30:43Z</time>
      </trkpt>
      <trkpt lat="42.316526" lon="2.298752">
        <ele>1453.9</ele>
        <time>2018-06-11T06:30:44Z</time>
      </trkpt>
      <trkpt lat="42.316524" lon="2.298717">
        <ele>1454.8</ele>
        <time>2018-06-11T06:30:45Z</time>
      </trkpt>
      <trkpt lat="42.316522" lon="2.298644">
        <ele>1456.8</ele>
        <time>2018-06-11T06:30:47Z</time>
      </trkpt>
      <trkpt lat="42.316522" lon="2.298605">
        <ele>1457.9</ele>
        <time>2018-06-11T06:30:47Z</time>
      </trkpt>
      <trkpt lat="42.316519" lon="2.298565">
        <ele>1458.9</ele>
        <time>2018-06-11T06:30:48Z</time>
      </trkpt>
      <trkpt lat="42.316511" lon="2.298523">
        <ele>1459.7</ele>
        <time>2018-06-11T06:30:49Z</time>
      </trkpt>
      <trkpt lat="42.316491" lon="2.298458">
        <ele>1460.5</ele>
        <time>2018-06-11T06:30:50Z</time>
      </trkpt>
      <trkpt lat="42.316466" lon="2.298384">
        <ele>1461.0</ele>
        <time>2018-06-11T06:30:52Z</time>
      </trkpt>
      <trkpt lat="42.316429" lon="2.298300">
        <ele>1460.9</ele>
        <time>2018-06-11T06:30:54Z</time>
      </trkpt>
      <trkpt lat="42.316403" lon="2.298225">
        <ele>1461.1</ele>
        <time>2018-06-11T06:30:56Z</time>
      </trkpt>
      <trkpt lat="42.316378" lon="2.298159">
        <ele>1461.1</ele>
        <time>2018-06-11T06:30:57Z</time>
      </trkpt>
      <trkpt lat="42.316356" lon="2.298054">
        <ele>1462.2</ele>
        <time>2018-06-11T06:30:59Z</time>
      </trkpt>
      <trkpt lat="42.316338" lon="2.297960">
        <ele>1463.1</ele>
        <time>2018-06-11T06:31:01Z</time>
      </trkpt>
      <trkpt lat="42.316319" lon="2.297827">
        <ele>1465.4</ele>
        <time>2018-06-11T06:31:04Z</time>
      </trkpt>
      <trkpt lat="42.316305" lon="2.297745">
        <ele>1466.9</ele>
        <time>2018-06-11T06:31:06Z</time>
      </trkpt>
      <trkpt lat="42.316282" lon="2.297640">
        <ele>1468.6</ele>
        <time>2018-06-11T06:31:08Z</time>
      </trkpt>
      <trkpt lat="42.316229" lon="2.297416">
        <ele>1473.4</ele>
        <time>2018-06-11T06:31:12Z</time>
      </trkpt>
      <trkpt lat="42.316184" lon="2.297229">
        <ele>1476.5</ele>
        <time>2018-06-11T06:31:16Z</time>
      </trkpt>
      <trkpt lat="42.316142" lon="2.297019">
        <ele>1478.8</ele>
        <time>2018-06-11T06:31:21Z</time>
      </trkpt>
      <trkpt lat="42.316041" lon="2.296524">
        <ele>1480.6</ele>
        <time>2018-06-11T06:31:31Z</time>
      </trkpt>
      <trkpt lat="42.315986" lon="2.296328">
        <ele>1480.5</ele>
        <time>2018-06-11T06:31:35Z</time>
      </trkpt>
      <trkpt lat="42.315970" lon="2.296260">
        <ele>1480.7</ele>
        <time>2018-06-11T06:31:36Z</time>
      </trkpt>
      <trkpt lat="42.315959" lon="2.296178">
        <ele>1481.6</ele>
        <time>2018-06-11T06:31:38Z</time>
      </trkpt>
      <trkpt lat="42.315955" lon="2.296123">
        <ele>1482.2</ele>
        <time>2018-06-11T06:31:39Z</time>
      </trkpt>
      <trkpt lat="42.315928" lon="2.295718">
        <ele>1487.8</ele>
        <time>2018-06-11T06:31:47Z</time>
      </trkpt>
      <trkpt lat="42.315918" lon="2.295662">
        <ele>1488.5</ele>
        <time>2018-06-11T06:31:48Z</time>
      </trkpt>
      <trkpt lat="42.315904" lon="2.295614">
        <ele>1488.8</ele>
        <time>2018-06-11T06:31:49Z</time>
      </trkpt>
      <trkpt lat="42.315893" lon="2.295579">
        <ele>1489.1</ele>
        <time>2018-06-11T06:31:50Z</time>
      </trkpt>
      <trkpt lat="42.315822" lon="2.295439">
        <ele>1489.2</ele>
        <time>2018-06-11T06:31:53Z</time>
      </trkpt>
      <trkpt lat="42.315787" lon="2.295360">
        <ele>1489.8</ele>
        <time>2018-06-11T06:31:55Z</time>
      </trkpt>
      <trkpt lat="42.315726" lon="2.295198">
        <ele>1491.1</ele>
        <time>2018-06-11T06:31:59Z</time>
      </trkpt>
      <trkpt lat="42.315606" lon="2.294907">
        <ele>1494.5</ele>
        <time>2018-06-11T06:32:05Z</time>
      </trkpt>
      <trkpt lat="42.315528" lon="2.294723">
        <ele>1497.4</ele>
        <time>2018-06-11T06:32:09Z</time>
      </trkpt>
      <trkpt lat="42.315492" lon="2.294645">
        <ele>1498.4</ele>
        <time>2018-06-11T06:32:11Z</time>
      </trkpt>
      <trkpt lat="42.315463" lon="2.294595">
        <ele>1498.7</ele>
        <time>2018-06-11T06:32:12Z</time>
      </trkpt>
      <trkpt lat="42.315414" lon="2.294514">
        <ele>1498.9</ele>
        <time>2018-06-11T06:32:15Z</time>
      </trkpt>
      <trkpt lat="42.315395" lon="2.294479">
        <ele>1498.8</ele>
        <time>2018-06-11T06:32:15Z</time>
      </trkpt>
      <trkpt lat="42.315372" lon="2.294430">
        <ele>1499.0</ele>
        <time>2018-06-11T06:32:17Z</time>
      </trkpt>
      <trkpt lat="42.315347" lon="2.294373">
        <ele>1499.4</ele>
        <time>2018-06-11T06:32:18Z</time>
      </trkpt>
      <trkpt lat="42.315327" lon="2.294324">
        <ele>1499.9</ele>
        <time>2018-06-11T06:32:19Z</time>
      </trkpt>
      <trkpt lat="42.315306" lon="2.294265">
        <ele>1500.3</ele>
        <time>2018-06-11T06:32:20Z</time>
      </trkpt>
      <trkpt lat="42.315291" lon="2.294208">
        <ele>1500.7</ele>
        <time>2018-06-11T06:32:21Z</time>
      </trkpt>
      <trkpt lat="42.315283" lon="2.294162">
        <ele>1501.4</ele>
        <time>2018-06-11T06:32:22Z</time>
      </trkpt>
      <trkpt lat="42.315278" lon="2.294101">
        <ele>1502.4</ele>
        <time>2018-06-11T06:32:24Z</time>
      </trkpt>
      <trkpt lat="42.315273" lon="2.294044">
        <ele>1503.5</ele>
        <time>2018-06-11T06:32:25Z</time>
      </trkpt>
      <trkpt lat="42.315270" lon="2.293987">
        <ele>1504.2</ele>
        <time>2018-06-11T06:32:26Z</time>
      </trkpt>
      <trkpt lat="42.315264" lon="2.293937">
        <ele>1504.6</ele>
        <time>2018-06-11T06:32:27Z</time>
      </trkpt>
      <trkpt lat="42.315253" lon="2.293881">
        <ele>1504.9</ele>
        <time>2018-06-11T06:32:28Z</time>
      </trkpt>
      <trkpt lat="42.315233" lon="2.293814">
        <ele>1505.1</ele>
        <time>2018-06-11T06:32:29Z</time>
      </trkpt>
      <trkpt lat="42.315215" lon="2.293761">
        <ele>1505.3</ele>
        <time>2018-06-11T06:32:31Z</time>
      </trkpt>
      <trkpt lat="42.315158" lon="2.293631">
        <ele>1505.8</ele>
        <time>2018-06-11T06:32:33Z</time>
      </trkpt>
      <trkpt lat="42.315074" lon="2.293471">
        <ele>1505.0</ele>
        <time>2018-06-11T06:32:37Z</time>
      </trkpt>
      <trkpt lat="42.315018" lon="2.293389">
        <ele>1503.4</ele>
        <time>2018-06-11T06:32:40Z</time>
      </trkpt>
      <trkpt lat="42.314969" lon="2.293321">
        <ele>1502.2</ele>
        <time>2018-06-11T06:32:41Z</time>
      </trkpt>
      <trkpt lat="42.314933" lon="2.293267">
        <ele>1501.5</ele>
        <time>2018-06-11T06:32:43Z</time>
      </trkpt>
      <trkpt lat="42.314912" lon="2.293229">
        <ele>1501.3</ele>
        <time>2018-06-11T06:32:44Z</time>
      </trkpt>
      <trkpt lat="42.314901" lon="2.293189">
        <ele>1501.5</ele>
        <time>2018-06-11T06:32:45Z</time>
      </trkpt>
      <trkpt lat="42.314891" lon="2.293138">
        <ele>1501.4</ele>
        <time>2018-06-11T06:32:46Z</time>
      </trkpt>
      <trkpt lat="42.314884" lon="2.293087">
        <ele>1501.3</ele>
        <time>2018-06-11T06:32:47Z</time>
      </trkpt>
      <trkpt lat="42.314881" lon="2.293042">
        <ele>1501.4</ele>
        <time>2018-06-11T06:32:48Z</time>
      </trkpt>
      <trkpt lat="42.314879" lon="2.292994">
        <ele>1501.5</ele>
        <time>2018-06-11T06:32:49Z</time>
      </trkpt>
      <trkpt lat="42.314878" lon="2.292932">
        <ele>1501.7</ele>
        <time>2018-06-11T06:32:50Z</time>
      </trkpt>
      <trkpt lat="42.314880" lon="2.292774">
        <ele>1502.0</ele>
        <time>2018-06-11T06:32:53Z</time>
      </trkpt>
      <trkpt lat="42.314882" lon="2.292527">
        <ele>1504.1</ele>
        <time>2018-06-11T06:32:58Z</time>
      </trkpt>
      <trkpt lat="42.314875" lon="2.292450">
        <ele>1505.2</ele>
        <time>2018-06-11T06:32:59Z</time>
      </trkpt>
      <trkpt lat="42.314858" lon="2.292304">
        <ele>1507.0</ele>
        <time>2018-06-11T06:33:02Z</time>
      </trkpt>
      <trkpt lat="42.314846" lon="2.292180">
        <ele>1509.0</ele>
        <time>2018-06-11T06:33:05Z</time>
      </trkpt>
      <trkpt lat="42.314830" lon="2.292065">
        <ele>1510.6</ele>
        <time>2018-06-11T06:33:07Z</time>
      </trkpt>
      <trkpt lat="42.314816" lon="2.292002">
        <ele>1511.1</ele>
        <time>2018-06-11T06:33:08Z</time>
      </trkpt>
      <trkpt lat="42.314800" lon="2.291965">
        <ele>1511.0</ele>
        <time>2018-06-11T06:33:09Z</time>
      </trkpt>
      <trkpt lat="42.314778" lon="2.291914">
        <ele>1511.0</ele>
        <time>2018-06-11T06:33:10Z</time>
      </trkpt>
      <trkpt lat="42.314752" lon="2.291868">
        <ele>1510.6</ele>
        <time>2018-06-11T06:33:11Z</time>
      </trkpt>
      <trkpt lat="42.314733" lon="2.291820">
        <ele>1510.7</ele>
        <time>2018-06-11T06:33:12Z</time>
      </trkpt>
      <trkpt lat="42.314716" lon="2.291769">
        <ele>1510.7</ele>
        <time>2018-06-11T06:33:14Z</time>
      </trkpt>
      <trkpt lat="42.314703" lon="2.291712">
        <ele>1511.0</ele>
        <time>2018-06-11T06:33:15Z</time>
      </trkpt>
      <trkpt lat="42.314698" lon="2.291643">
        <ele>1511.9</ele>
        <time>2018-06-11T06:33:16Z</time>
      </trkpt>
      <trkpt lat="42.314696" lon="2.291520">
        <ele>1513.7</ele>
        <time>2018-06-11T06:33:19Z</time>
      </trkpt>
      <trkpt lat="42.314688" lon="2.291155">
        <ele>1515.5</ele>
        <time>2018-06-11T06:33:26Z</time>
      </trkpt>
      <trkpt lat="42.314686" lon="2.290928">
        <ele>1516.2</ele>
        <time>2018-06-11T06:33:30Z</time>
      </trkpt>
      <trkpt lat="42.314689" lon="2.290835">
        <ele>1517.2</ele>
        <time>2018-06-11T06:33:32Z</time>
      </trkpt>
      <trkpt lat="42.314691" lon="2.290732">
        <ele>1518.3</ele>
        <time>2018-06-11T06:33:34Z</time>
      </trkpt>
      <trkpt lat="42.314692" lon="2.290613">
        <ele>1519.1</ele>
        <time>2018-06-11T06:33:36Z</time>
      </trkpt>
      <trkpt lat="42.314688" lon="2.290484">
        <ele>1519.7</ele>
        <time>2018-06-11T06:33:39Z</time>
      </trkpt>
      <trkpt lat="42.314678" lon="2.290290">
        <ele>1520.5</ele>
        <time>2018-06-11T06:33:43Z</time>
      </trkpt>
      <trkpt lat="42.314662" lon="2.290149">
        <ele>1520.8</ele>
        <time>2018-06-11T06:33:46Z</time>
      </trkpt>
      <trkpt lat="42.314639" lon="2.289989">
        <ele>1521.1</ele>
        <time>2018-06-11T06:33:49Z</time>
      </trkpt>
      <trkpt lat="42.314578" lon="2.289633">
        <ele>1522.3</ele>
        <time>2018-06-11T06:33:56Z</time>
      </trkpt>
      <trkpt lat="42.314544" lon="2.289490">
        <ele>1523.9</ele>
        <time>2018-06-11T06:33:59Z</time>
      </trkpt>
      <trkpt lat="42.314529" lon="2.289416">
        <ele>1524.9</ele>
        <time>2018-06-11T06:34:00Z</time>
      </trkpt>
      <trkpt lat="42.314511" lon="2.289309">
        <ele>1526.6</ele>
        <time>2018-06-11T06:34:03Z</time>
      </trkpt>
      <trkpt lat="42.314504" lon="2.289239">
        <ele>1527.4</ele>
        <time>2018-06-11T06:34:04Z</time>
      </trkpt>
      <trkpt lat="42.314504" lon="2.289099">
        <ele>1529.4</ele>
        <time>2018-06-11T06:34:07Z</time>
      </trkpt>
      <trkpt lat="42.314507" lon="2.289039">
        <ele>1530.4</ele>
        <time>2018-06-11T06:34:08Z</time>
      </trkpt>
      <trkpt lat="42.314510" lon="2.288910">
        <ele>1532.5</ele>
        <time>2018-06-11T06:34:10Z</time>
      </trkpt>
      <trkpt lat="42.314512" lon="2.288839">
        <ele>1533.6</ele>
        <time>2018-06-11T06:34:12Z</time>
      </trkpt>
      <trkpt lat="42.314506" lon="2.288784">
        <ele>1534.3</ele>
        <time>2018-06-11T06:34:13Z</time>
      </trkpt>
      <trkpt lat="42.314495" lon="2.288743">
        <ele>1534.6</ele>
        <time>2018-06-11T06:34:14Z</time>
      </trkpt>
      <trkpt lat="42.314479" lon="2.288712">
        <ele>1534.7</ele>
        <time>2018-06-11T06:34:15Z</time>
      </trkpt>
      <trkpt lat="42.314455" lon="2.288675">
        <ele>1534.8</ele>
        <time>2018-06-11T06:34:16Z</time>
      </trkpt>
      <trkpt lat="42.314431" lon="2.288649">
        <ele>1534.7</ele>
        <time>2018-06-11T06:34:16Z</time>
      </trkpt>
      <trkpt lat="42.314407" lon="2.288625">
        <ele>1534.5</ele>
        <time>2018-06-11T06:34:17Z</time>
      </trkpt>
      <trkpt lat="42.314387" lon="2.288602">
        <ele>1534.4</ele>
        <time>2018-06-11T06:34:18Z</time>
      </trkpt>
      <trkpt lat="42.314369" lon="2.288578">
        <ele>1534.4</ele>
        <time>2018-06-11T06:34:19Z</time>
      </trkpt>
      <trkpt lat="42.314353" lon="2.288540">
        <ele>1534.8</ele>
        <time>2018-06-11T06:34:19Z</time>
      </trkpt>
      <trkpt lat="42.314345" lon="2.288494">
        <ele>1535.6</ele>
        <time>2018-06-11T06:34:20Z</time>
      </trkpt>
      <trkpt lat="42.314341" lon="2.288451">
        <ele>1536.3</ele>
        <time>2018-06-11T06:34:21Z</time>
      </trkpt>
      <trkpt lat="42.314340" lon="2.288397">
        <ele>1537.2</ele>
        <time>2018-06-11T06:34:22Z</time>
      </trkpt>
      <trkpt lat="42.314341" lon="2.288359">
        <ele>1537.8</ele>
        <time>2018-06-11T06:34:23Z</time>
      </trkpt>
      <trkpt lat="42.314347" lon="2.288303">
        <ele>1538.9</ele>
        <time>2018-06-11T06:34:24Z</time>
      </trkpt>
      <trkpt lat="42.314358" lon="2.288243">
        <ele>1540.1</ele>
        <time>2018-06-11T06:34:25Z</time>
      </trkpt>
      <trkpt lat="42.314366" lon="2.288210">
        <ele>1540.8</ele>
        <time>2018-06-11T06:34:26Z</time>
      </trkpt>
      <trkpt lat="42.314371" lon="2.288179">
        <ele>1541.3</ele>
        <time>2018-06-11T06:34:27Z</time>
      </trkpt>
      <trkpt lat="42.314369" lon="2.288153">
        <ele>1541.5</ele>
        <time>2018-06-11T06:34:27Z</time>
      </trkpt>
      <trkpt lat="42.314365" lon="2.288128">
        <ele>1541.6</ele>
        <time>2018-06-11T06:34:28Z</time>
      </trkpt>
      <trkpt lat="42.314349" lon="2.288102">
        <ele>1541.5</ele>
        <time>2018-06-11T06:34:28Z</time>
      </trkpt>
      <trkpt lat="42.314334" lon="2.288087">
        <ele>1541.3</ele>
        <time>2018-06-11T06:34:29Z</time>
      </trkpt>
      <trkpt lat="42.314302" lon="2.288073">
        <ele>1540.8</ele>
        <time>2018-06-11T06:34:30Z</time>
      </trkpt>
      <trkpt lat="42.314265" lon="2.288065">
        <ele>1539.8</ele>
        <time>2018-06-11T06:34:31Z</time>
      </trkpt>
      <trkpt lat="42.314248" lon="2.288058">
        <ele>1539.3</ele>
        <time>2018-06-11T06:34:31Z</time>
      </trkpt>
      <trkpt lat="42.314228" lon="2.288051">
        <ele>1538.8</ele>
        <time>2018-06-11T06:34:32Z</time>
      </trkpt>
      <trkpt lat="42.314208" lon="2.288033">
        <ele>1538.4</ele>
        <time>2018-06-11T06:34:33Z</time>
      </trkpt>
      <trkpt lat="42.314187" lon="2.287997">
        <ele>1538.2</ele>
        <time>2018-06-11T06:34:33Z</time>
      </trkpt>
      <trkpt lat="42.314157" lon="2.287930">
        <ele>1538.1</ele>
        <time>2018-06-11T06:34:35Z</time>
      </trkpt>
      <trkpt lat="42.314138" lon="2.287872">
        <ele>1538.2</ele>
        <time>2018-06-11T06:34:36Z</time>
      </trkpt>
      <trkpt lat="42.314129" lon="2.287827">
        <ele>1538.4</ele>
        <time>2018-06-11T06:34:37Z</time>
      </trkpt>
      <trkpt lat="42.314127" lon="2.287781">
        <ele>1538.8</ele>
        <time>2018-06-11T06:34:38Z</time>
      </trkpt>
      <trkpt lat="42.314129" lon="2.287708">
        <ele>1539.5</ele>
        <time>2018-06-11T06:34:39Z</time>
      </trkpt>
      <trkpt lat="42.314139" lon="2.287625">
        <ele>1540.3</ele>
        <time>2018-06-11T06:34:41Z</time>
      </trkpt>
      <trkpt lat="42.314153" lon="2.287534">
        <ele>1541.1</ele>
        <time>2018-06-11T06:34:43Z</time>
      </trkpt>
      <trkpt lat="42.314164" lon="2.287469">
        <ele>1541.7</ele>
        <time>2018-06-11T06:34:44Z</time>
      </trkpt>
      <trkpt lat="42.314169" lon="2.287423">
        <ele>1542.1</ele>
        <time>2018-06-11T06:34:45Z</time>
      </trkpt>
      <trkpt lat="42.314169" lon="2.287373">
        <ele>1542.4</ele>
        <time>2018-06-11T06:34:46Z</time>
      </trkpt>
      <trkpt lat="42.314157" lon="2.287323">
        <ele>1543.0</ele>
        <time>2018-06-11T06:34:47Z</time>
      </trkpt>
      <trkpt lat="42.314137" lon="2.287285">
        <ele>1543.3</ele>
        <time>2018-06-11T06:34:48Z</time>
      </trkpt>
      <trkpt lat="42.314120" lon="2.287260">
        <ele>1543.6</ele>
        <time>2018-06-11T06:34:49Z</time>
      </trkpt>
      <trkpt lat="42.314090" lon="2.287233">
        <ele>1543.8</ele>
        <time>2018-06-11T06:34:50Z</time>
      </trkpt>
      <trkpt lat="42.314062" lon="2.287219">
        <ele>1543.8</ele>
        <time>2018-06-11T06:34:51Z</time>
      </trkpt>
      <trkpt lat="42.314026" lon="2.287214">
        <ele>1543.7</ele>
        <time>2018-06-11T06:34:51Z</time>
      </trkpt>
      <trkpt lat="42.313977" lon="2.287211">
        <ele>1543.6</ele>
        <time>2018-06-11T06:34:53Z</time>
      </trkpt>
      <trkpt lat="42.313929" lon="2.287207">
        <ele>1543.6</ele>
        <time>2018-06-11T06:34:54Z</time>
      </trkpt>
      <trkpt lat="42.313874" lon="2.287199">
        <ele>1543.6</ele>
        <time>2018-06-11T06:34:56Z</time>
      </trkpt>
      <trkpt lat="42.313839" lon="2.287180">
        <ele>1543.8</ele>
        <time>2018-06-11T06:34:57Z</time>
      </trkpt>
      <trkpt lat="42.313800" lon="2.287143">
        <ele>1544.3</ele>
        <time>2018-06-11T06:34:58Z</time>
      </trkpt>
      <trkpt lat="42.313774" lon="2.287109">
        <ele>1544.7</ele>
        <time>2018-06-11T06:34:59Z</time>
      </trkpt>
      <trkpt lat="42.313727" lon="2.287042">
        <ele>1544.5</ele>
        <time>2018-06-11T06:35:01Z</time>
      </trkpt>
      <trkpt lat="42.313664" lon="2.286937">
        <ele>1542.7</ele>
        <time>2018-06-11T06:35:03Z</time>
      </trkpt>
      <trkpt lat="42.313590" lon="2.286807">
        <ele>1540.5</ele>
        <time>2018-06-11T06:35:07Z</time>
      </trkpt>
      <trkpt lat="42.313541" lon="2.286703">
        <ele>1539.3</ele>
        <time>2018-06-11T06:35:09Z</time>
      </trkpt>
      <trkpt lat="42.313494" lon="2.286594">
        <ele>1538.2</ele>
        <time>2018-06-11T06:35:11Z</time>
      </trkpt>
      <trkpt lat="42.313472" lon="2.286508">
        <ele>1538.0</ele>
        <time>2018-06-11T06:35:13Z</time>
      </trkpt>
      <trkpt lat="42.313455" lon="2.286439">
        <ele>1537.5</ele>
        <time>2018-06-11T06:35:15Z</time>
      </trkpt>
      <trkpt lat="42.313446" lon="2.286370">
        <ele>1537.2</ele>
        <time>2018-06-11T06:35:16Z</time>
      </trkpt>
      <trkpt lat="42.313439" lon="2.286287">
        <ele>1537.0</ele>
        <time>2018-06-11T06:35:18Z</time>
      </trkpt>
      <trkpt lat="42.313429" lon="2.286135">
        <ele>1537.6</ele>
        <time>2018-06-11T06:35:21Z</time>
      </trkpt>
      <trkpt lat="42.313420" lon="2.286028">
        <ele>1538.3</ele>
        <time>2018-06-11T06:35:23Z</time>
      </trkpt>
      <trkpt lat="42.313421" lon="2.285952">
        <ele>1539.0</ele>
        <time>2018-06-11T06:35:24Z</time>
      </trkpt>
      <trkpt lat="42.313432" lon="2.285823">
        <ele>1541.1</ele>
        <time>2018-06-11T06:35:27Z</time>
      </trkpt>
      <trkpt lat="42.313449" lon="2.285623">
        <ele>1544.3</ele>
        <time>2018-06-11T06:35:31Z</time>
      </trkpt>
      <trkpt lat="42.313456" lon="2.285572">
        <ele>1545.0</ele>
        <time>2018-06-11T06:35:32Z</time>
      </trkpt>
      <trkpt lat="42.313463" lon="2.285512">
        <ele>1545.8</ele>
        <time>2018-06-11T06:35:33Z</time>
      </trkpt>
      <trkpt lat="42.313463" lon="2.285469">
        <ele>1546.3</ele>
        <time>2018-06-11T06:35:34Z</time>
      </trkpt>
      <trkpt lat="42.313458" lon="2.285417">
        <ele>1546.8</ele>
        <time>2018-06-11T06:35:35Z</time>
      </trkpt>
      <trkpt lat="42.313446" lon="2.285392">
        <ele>1547.2</ele>
        <time>2018-06-11T06:35:36Z</time>
      </trkpt>
      <trkpt lat="42.313432" lon="2.285375">
        <ele>1547.4</ele>
        <time>2018-06-11T06:35:36Z</time>
      </trkpt>
      <trkpt lat="42.313415" lon="2.285366">
        <ele>1547.4</ele>
        <time>2018-06-11T06:35:37Z</time>
      </trkpt>
      <trkpt lat="42.313387" lon="2.285366">
        <ele>1547.1</ele>
        <time>2018-06-11T06:35:37Z</time>
      </trkpt>
      <trkpt lat="42.313320" lon="2.285381">
        <ele>1545.8</ele>
        <time>2018-06-11T06:35:39Z</time>
      </trkpt>
      <trkpt lat="42.313278" lon="2.285387">
        <ele>1545.1</ele>
        <time>2018-06-11T06:35:40Z</time>
      </trkpt>
      <trkpt lat="42.313247" lon="2.285389">
        <ele>1544.6</ele>
        <time>2018-06-11T06:35:41Z</time>
      </trkpt>
      <trkpt lat="42.313208" lon="2.285393">
        <ele>1544.0</ele>
        <time>2018-06-11T06:35:42Z</time>
      </trkpt>
      <trkpt lat="42.313160" lon="2.285394">
        <ele>1543.3</ele>
        <time>2018-06-11T06:35:43Z</time>
      </trkpt>
      <trkpt lat="42.313077" lon="2.285386">
        <ele>1542.5</ele>
        <time>2018-06-11T06:35:46Z</time>
      </trkpt>
      <trkpt lat="42.312983" lon="2.285371">
        <ele>1541.7</ele>
        <time>2018-06-11T06:35:48Z</time>
      </trkpt>
      <trkpt lat="42.312922" lon="2.285350">
        <ele>1541.3</ele>
        <time>2018-06-11T06:35:50Z</time>
      </trkpt>
      <trkpt lat="42.312848" lon="2.285306">
        <ele>1540.7</ele>
        <time>2018-06-11T06:35:52Z</time>
      </trkpt>
      <trkpt lat="42.312784" lon="2.285256">
        <ele>1540.2</ele>
        <time>2018-06-11T06:35:54Z</time>
      </trkpt>
      <trkpt lat="42.312721" lon="2.285184">
        <ele>1540.1</ele>
        <time>2018-06-11T06:35:56Z</time>
      </trkpt>
      <trkpt lat="42.312674" lon="2.285107">
        <ele>1540.2</ele>
        <time>2018-06-11T06:35:58Z</time>
      </trkpt>
      <trkpt lat="42.312632" lon="2.285015">
        <ele>1540.1</ele>
        <time>2018-06-11T06:36:00Z</time>
      </trkpt>
      <trkpt lat="42.312593" lon="2.284933">
        <ele>1539.6</ele>
        <time>2018-06-11T06:36:02Z</time>
      </trkpt>
      <trkpt lat="42.312555" lon="2.284834">
        <ele>1539.3</ele>
        <time>2018-06-11T06:36:04Z</time>
      </trkpt>
      <trkpt lat="42.312523" lon="2.284763">
        <ele>1539.2</ele>
        <time>2018-06-11T06:36:06Z</time>
      </trkpt>
      <trkpt lat="42.312509" lon="2.284701">
        <ele>1539.6</ele>
        <time>2018-06-11T06:36:07Z</time>
      </trkpt>
      <trkpt lat="42.312504" lon="2.284650">
        <ele>1540.2</ele>
        <time>2018-06-11T06:36:08Z</time>
      </trkpt>
      <trkpt lat="42.312499" lon="2.284594">
        <ele>1540.8</ele>
        <time>2018-06-11T06:36:09Z</time>
      </trkpt>
      <trkpt lat="42.312503" lon="2.284536">
        <ele>1541.6</ele>
        <time>2018-06-11T06:36:10Z</time>
      </trkpt>
      <trkpt lat="42.312512" lon="2.284448">
        <ele>1542.7</ele>
        <time>2018-06-11T06:36:12Z</time>
      </trkpt>
      <trkpt lat="42.312528" lon="2.284386">
        <ele>1543.7</ele>
        <time>2018-06-11T06:36:14Z</time>
      </trkpt>
      <trkpt lat="42.312560" lon="2.284292">
        <ele>1545.2</ele>
        <time>2018-06-11T06:36:16Z</time>
      </trkpt>
      <trkpt lat="42.312598" lon="2.284196">
        <ele>1548.1</ele>
        <time>2018-06-11T06:36:18Z</time>
      </trkpt>
      <trkpt lat="42.312610" lon="2.284156">
        <ele>1549.3</ele>
        <time>2018-06-11T06:36:19Z</time>
      </trkpt>
      <trkpt lat="42.312617" lon="2.284110">
        <ele>1550.5</ele>
        <time>2018-06-11T06:36:20Z</time>
      </trkpt>
      <trkpt lat="42.312617" lon="2.284055">
        <ele>1551.9</ele>
        <time>2018-06-11T06:36:21Z</time>
      </trkpt>
      <trkpt lat="42.312610" lon="2.284019">
        <ele>1552.6</ele>
        <time>2018-06-11T06:36:22Z</time>
      </trkpt>
      <trkpt lat="42.312596" lon="2.283981">
        <ele>1553.1</ele>
        <time>2018-06-11T06:36:22Z</time>
      </trkpt>
      <trkpt lat="42.312579" lon="2.283958">
        <ele>1553.1</ele>
        <time>2018-06-11T06:36:23Z</time>
      </trkpt>
      <trkpt lat="42.312545" lon="2.283928">
        <ele>1552.9</ele>
        <time>2018-06-11T06:36:24Z</time>
      </trkpt>
      <trkpt lat="42.312485" lon="2.283883">
        <ele>1552.2</ele>
        <time>2018-06-11T06:36:26Z</time>
      </trkpt>
      <trkpt lat="42.312421" lon="2.283845">
        <ele>1551.2</ele>
        <time>2018-06-11T06:36:28Z</time>
      </trkpt>
      <trkpt lat="42.312383" lon="2.283821">
        <ele>1550.6</ele>
        <time>2018-06-11T06:36:29Z</time>
      </trkpt>
      <trkpt lat="42.312329" lon="2.283762">
        <ele>1549.9</ele>
        <time>2018-06-11T06:36:31Z</time>
      </trkpt>
      <trkpt lat="42.312253" lon="2.283647">
        <ele>1549.1</ele>
        <time>2018-06-11T06:36:34Z</time>
      </trkpt>
      <trkpt lat="42.312145" lon="2.283506">
        <ele>1548.6</ele>
        <time>2018-06-11T06:36:38Z</time>
      </trkpt>
      <trkpt lat="42.312083" lon="2.283422">
        <ele>1547.8</ele>
        <time>2018-06-11T06:36:40Z</time>
      </trkpt>
      <trkpt lat="42.311994" lon="2.283293">
        <ele>1544.9</ele>
        <time>2018-06-11T06:36:44Z</time>
      </trkpt>
      <trkpt lat="42.311935" lon="2.283194">
        <ele>1543.3</ele>
        <time>2018-06-11T06:36:46Z</time>
      </trkpt>
      <trkpt lat="42.311891" lon="2.283099">
        <ele>1542.2</ele>
        <time>2018-06-11T06:36:48Z</time>
      </trkpt>
      <trkpt lat="42.311853" lon="2.283024">
        <ele>1541.2</ele>
        <time>2018-06-11T06:36:50Z</time>
      </trkpt>
      <trkpt lat="42.311818" lon="2.282947">
        <ele>1540.3</ele>
        <time>2018-06-11T06:36:52Z</time>
      </trkpt>
      <trkpt lat="42.311791" lon="2.282847">
        <ele>1539.4</ele>
        <time>2018-06-11T06:36:54Z</time>
      </trkpt>
      <trkpt lat="42.311776" lon="2.282764">
        <ele>1538.8</ele>
        <time>2018-06-11T06:36:56Z</time>
      </trkpt>
      <trkpt lat="42.311764" lon="2.282671">
        <ele>1538.4</ele>
        <time>2018-06-11T06:36:58Z</time>
      </trkpt>
      <trkpt lat="42.311759" lon="2.282567">
        <ele>1538.8</ele>
        <time>2018-06-11T06:37:00Z</time>
      </trkpt>
      <trkpt lat="42.311754" lon="2.282422">
        <ele>1539.7</ele>
        <time>2018-06-11T06:37:02Z</time>
      </trkpt>
      <trkpt lat="42.311755" lon="2.282357">
        <ele>1540.2</ele>
        <time>2018-06-11T06:37:04Z</time>
      </trkpt>
      <trkpt lat="42.311760" lon="2.282297">
        <ele>1541.0</ele>
        <time>2018-06-11T06:37:05Z</time>
      </trkpt>
      <trkpt lat="42.311770" lon="2.282229">
        <ele>1542.0</ele>
        <time>2018-06-11T06:37:06Z</time>
      </trkpt>
      <trkpt lat="42.311804" lon="2.282081">
        <ele>1544.0</ele>
        <time>2018-06-11T06:37:09Z</time>
      </trkpt>
      <trkpt lat="42.311852" lon="2.281922">
        <ele>1547.2</ele>
        <time>2018-06-11T06:37:13Z</time>
      </trkpt>
      <trkpt lat="42.311869" lon="2.281873">
        <ele>1548.0</ele>
        <time>2018-06-11T06:37:14Z</time>
      </trkpt>
      <trkpt lat="42.311870" lon="2.281845">
        <ele>1548.4</ele>
        <time>2018-06-11T06:37:14Z</time>
      </trkpt>
      <trkpt lat="42.311865" lon="2.281818">
        <ele>1548.8</ele>
        <time>2018-06-11T06:37:15Z</time>
      </trkpt>
      <trkpt lat="42.311851" lon="2.281794">
        <ele>1549.1</ele>
        <time>2018-06-11T06:37:16Z</time>
      </trkpt>
      <trkpt lat="42.311832" lon="2.281767">
        <ele>1549.4</ele>
        <time>2018-06-11T06:37:16Z</time>
      </trkpt>
      <trkpt lat="42.311805" lon="2.281756">
        <ele>1549.5</ele>
        <time>2018-06-11T06:37:17Z</time>
      </trkpt>
      <trkpt lat="42.311785" lon="2.281752">
        <ele>1549.5</ele>
        <time>2018-06-11T06:37:18Z</time>
      </trkpt>
      <trkpt lat="42.311760" lon="2.281757">
        <ele>1549.4</ele>
        <time>2018-06-11T06:37:18Z</time>
      </trkpt>
      <trkpt lat="42.311736" lon="2.281760">
        <ele>1549.2</ele>
        <time>2018-06-11T06:37:19Z</time>
      </trkpt>
      <trkpt lat="42.311709" lon="2.281756">
        <ele>1549.2</ele>
        <time>2018-06-11T06:37:20Z</time>
      </trkpt>
      <trkpt lat="42.311668" lon="2.281749">
        <ele>1549.1</ele>
        <time>2018-06-11T06:37:21Z</time>
      </trkpt>
      <trkpt lat="42.311630" lon="2.281730">
        <ele>1549.2</ele>
        <time>2018-06-11T06:37:22Z</time>
      </trkpt>
      <trkpt lat="42.311593" lon="2.281703">
        <ele>1549.3</ele>
        <time>2018-06-11T06:37:23Z</time>
      </trkpt>
      <trkpt lat="42.311564" lon="2.281677">
        <ele>1549.5</ele>
        <time>2018-06-11T06:37:24Z</time>
      </trkpt>
      <trkpt lat="42.311517" lon="2.281628">
        <ele>1549.5</ele>
        <time>2018-06-11T06:37:25Z</time>
      </trkpt>
      <trkpt lat="42.311473" lon="2.281558">
        <ele>1548.7</ele>
        <time>2018-06-11T06:37:27Z</time>
      </trkpt>
      <trkpt lat="42.311454" lon="2.281507">
        <ele>1548.7</ele>
        <time>2018-06-11T06:37:28Z</time>
      </trkpt>
      <trkpt lat="42.311426" lon="2.281440">
        <ele>1548.6</ele>
        <time>2018-06-11T06:37:30Z</time>
      </trkpt>
      <trkpt lat="42.311406" lon="2.281377">
        <ele>1548.6</ele>
        <time>2018-06-11T06:37:31Z</time>
      </trkpt>
      <trkpt lat="42.311401" lon="2.281340">
        <ele>1548.9</ele>
        <time>2018-06-11T06:37:32Z</time>
      </trkpt>
      <trkpt lat="42.311398" lon="2.281281">
        <ele>1549.6</ele>
        <time>2018-06-11T06:37:33Z</time>
      </trkpt>
      <trkpt lat="42.311403" lon="2.281233">
        <ele>1550.3</ele>
        <time>2018-06-11T06:37:34Z</time>
      </trkpt>
      <trkpt lat="42.311414" lon="2.281169">
        <ele>1551.4</ele>
        <time>2018-06-11T06:37:35Z</time>
      </trkpt>
      <trkpt lat="42.311431" lon="2.281107">
        <ele>1552.8</ele>
        <time>2018-06-11T06:37:37Z</time>
      </trkpt>
      <trkpt lat="42.311475" lon="2.280954">
        <ele>1556.8</ele>
        <time>2018-06-11T06:37:40Z</time>
      </trkpt>
      <trkpt lat="42.311494" lon="2.280869">
        <ele>1559.6</ele>
        <time>2018-06-11T06:37:42Z</time>
      </trkpt>
      <trkpt lat="42.311514" lon="2.280743">
        <ele>1563.3</ele>
        <time>2018-06-11T06:37:45Z</time>
      </trkpt>
      <trkpt lat="42.311566" lon="2.280465">
        <ele>1573.0</ele>
        <time>2018-06-11T06:37:51Z</time>
      </trkpt>
      <trkpt lat="42.311587" lon="2.280358">
        <ele>1576.2</ele>
        <time>2018-06-11T06:37:53Z</time>
      </trkpt>
      <trkpt lat="42.311594" lon="2.280294">
        <ele>1577.7</ele>
        <time>2018-06-11T06:37:54Z</time>
      </trkpt>
      <trkpt lat="42.311595" lon="2.280170">
        <ele>1580.5</ele>
        <time>2018-06-11T06:37:57Z</time>
      </trkpt>
      <trkpt lat="42.311592" lon="2.280121">
        <ele>1581.4</ele>
        <time>2018-06-11T06:37:58Z</time>
      </trkpt>
      <trkpt lat="42.311587" lon="2.280081">
        <ele>1581.8</ele>
        <time>2018-06-11T06:37:59Z</time>
      </trkpt>
      <trkpt lat="42.311575" lon="2.280027">
        <ele>1582.3</ele>
        <time>2018-06-11T06:38:00Z</time>
      </trkpt>
      <trkpt lat="42.311553" lon="2.279969">
        <ele>1582.5</ele>
        <time>2018-06-11T06:38:01Z</time>
      </trkpt>
      <trkpt lat="42.311524" lon="2.279923">
        <ele>1582.3</ele>
        <time>2018-06-11T06:38:02Z</time>
      </trkpt>
      <trkpt lat="42.311496" lon="2.279891">
        <ele>1581.9</ele>
        <time>2018-06-11T06:38:03Z</time>
      </trkpt>
      <trkpt lat="42.311448" lon="2.279851">
        <ele>1581.4</ele>
        <time>2018-06-11T06:38:05Z</time>
      </trkpt>
      <trkpt lat="42.311385" lon="2.279811">
        <ele>1580.7</ele>
        <time>2018-06-11T06:38:06Z</time>
      </trkpt>
      <trkpt lat="42.311314" lon="2.279762">
        <ele>1580.1</ele>
        <time>2018-06-11T06:38:09Z</time>
      </trkpt>
      <trkpt lat="42.311256" lon="2.279715">
        <ele>1579.8</ele>
        <time>2018-06-11T06:38:10Z</time>
      </trkpt>
      <trkpt lat="42.311207" lon="2.279654">
        <ele>1579.6</ele>
        <time>2018-06-11T06:38:12Z</time>
      </trkpt>
      <trkpt lat="42.311181" lon="2.279595">
        <ele>1580.1</ele>
        <time>2018-06-11T06:38:13Z</time>
      </trkpt>
      <trkpt lat="42.311159" lon="2.279530">
        <ele>1580.7</ele>
        <time>2018-06-11T06:38:15Z</time>
      </trkpt>
      <trkpt lat="42.311140" lon="2.279476">
        <ele>1581.2</ele>
        <time>2018-06-11T06:38:16Z</time>
      </trkpt>
      <trkpt lat="42.311124" lon="2.279442">
        <ele>1581.4</ele>
        <time>2018-06-11T06:38:17Z</time>
      </trkpt>
      <trkpt lat="42.311093" lon="2.279392">
        <ele>1581.5</ele>
        <time>2018-06-11T06:38:18Z</time>
      </trkpt>
      <trkpt lat="42.311042" lon="2.279328">
        <ele>1581.4</ele>
        <time>2018-06-11T06:38:20Z</time>
      </trkpt>
      <trkpt lat="42.310895" lon="2.279156">
        <ele>1580.5</ele>
        <time>2018-06-11T06:38:25Z</time>
      </trkpt>
      <trkpt lat="42.310743" lon="2.278981">
        <ele>1580.1</ele>
        <time>2018-06-11T06:38:30Z</time>
      </trkpt>
      <trkpt lat="42.310685" lon="2.278912">
        <ele>1579.6</ele>
        <time>2018-06-11T06:38:32Z</time>
      </trkpt>
      <trkpt lat="42.310655" lon="2.278852">
        <ele>1579.4</ele>
        <time>2018-06-11T06:38:34Z</time>
      </trkpt>
      <trkpt lat="42.310636" lon="2.278806">
        <ele>1579.4</ele>
        <time>2018-06-11T06:38:35Z</time>
      </trkpt>
      <trkpt lat="42.310625" lon="2.278756">
        <ele>1579.7</ele>
        <time>2018-06-11T06:38:36Z</time>
      </trkpt>
      <trkpt lat="42.310619" lon="2.278720">
        <ele>1580.0</ele>
        <time>2018-06-11T06:38:37Z</time>
      </trkpt>
      <trkpt lat="42.310618" lon="2.278646">
        <ele>1581.0</ele>
        <time>2018-06-11T06:38:38Z</time>
      </trkpt>
      <trkpt lat="42.310617" lon="2.278596">
        <ele>1581.6</ele>
        <time>2018-06-11T06:38:39Z</time>
      </trkpt>
      <trkpt lat="42.310622" lon="2.278563">
        <ele>1582.1</ele>
        <time>2018-06-11T06:38:40Z</time>
      </trkpt>
      <trkpt lat="42.310623" lon="2.278531">
        <ele>1582.5</ele>
        <time>2018-06-11T06:38:40Z</time>
      </trkpt>
      <trkpt lat="42.310616" lon="2.278494">
        <ele>1582.9</ele>
        <time>2018-06-11T06:38:41Z</time>
      </trkpt>
      <trkpt lat="42.310603" lon="2.278462">
        <ele>1583.2</ele>
        <time>2018-06-11T06:38:42Z</time>
      </trkpt>
      <trkpt lat="42.310588" lon="2.278446">
        <ele>1583.2</ele>
        <time>2018-06-11T06:38:42Z</time>
      </trkpt>
      <trkpt lat="42.310564" lon="2.278443">
        <ele>1583.0</ele>
        <time>2018-06-11T06:38:43Z</time>
      </trkpt>
      <trkpt lat="42.310541" lon="2.278444">
        <ele>1582.8</ele>
        <time>2018-06-11T06:38:44Z</time>
      </trkpt>
      <trkpt lat="42.310517" lon="2.278453">
        <ele>1582.4</ele>
        <time>2018-06-11T06:38:44Z</time>
      </trkpt>
      <trkpt lat="42.310492" lon="2.278465">
        <ele>1581.9</ele>
        <time>2018-06-11T06:38:45Z</time>
      </trkpt>
      <trkpt lat="42.310469" lon="2.278473">
        <ele>1581.6</ele>
        <time>2018-06-11T06:38:46Z</time>
      </trkpt>
      <trkpt lat="42.310440" lon="2.278473">
        <ele>1581.2</ele>
        <time>2018-06-11T06:38:46Z</time>
      </trkpt>
      <trkpt lat="42.310414" lon="2.278467">
        <ele>1581.1</ele>
        <time>2018-06-11T06:38:47Z</time>
      </trkpt>
      <trkpt lat="42.310375" lon="2.278453">
        <ele>1580.8</ele>
        <time>2018-06-11T06:38:48Z</time>
      </trkpt>
      <trkpt lat="42.310334" lon="2.278430">
        <ele>1580.7</ele>
        <time>2018-06-11T06:38:49Z</time>
      </trkpt>
      <trkpt lat="42.310276" lon="2.278377">
        <ele>1580.7</ele>
        <time>2018-06-11T06:38:51Z</time>
      </trkpt>
      <trkpt lat="42.310115" lon="2.278211">
        <ele>1580.4</ele>
        <time>2018-06-11T06:38:57Z</time>
      </trkpt>
      <trkpt lat="42.310030" lon="2.278137">
        <ele>1579.1</ele>
        <time>2018-06-11T06:38:59Z</time>
      </trkpt>
      <trkpt lat="42.309974" lon="2.278095">
        <ele>1577.9</ele>
        <time>2018-06-11T06:39:01Z</time>
      </trkpt>
      <trkpt lat="42.309938" lon="2.278067">
        <ele>1577.0</ele>
        <time>2018-06-11T06:39:02Z</time>
      </trkpt>
      <trkpt lat="42.309896" lon="2.278043">
        <ele>1575.8</ele>
        <time>2018-06-11T06:39:03Z</time>
      </trkpt>
      <trkpt lat="42.309859" lon="2.278026">
        <ele>1574.7</ele>
        <time>2018-06-11T06:39:04Z</time>
      </trkpt>
      <trkpt lat="42.309824" lon="2.278009">
        <ele>1573.0</ele>
        <time>2018-06-11T06:39:06Z</time>
      </trkpt>
      <trkpt lat="42.309799" lon="2.277993">
        <ele>1571.8</ele>
        <time>2018-06-11T06:39:06Z</time>
      </trkpt>
      <trkpt lat="42.309773" lon="2.277973">
        <ele>1570.4</ele>
        <time>2018-06-11T06:39:07Z</time>
      </trkpt>
      <trkpt lat="42.309737" lon="2.277929">
        <ele>1568.3</ele>
        <time>2018-06-11T06:39:09Z</time>
      </trkpt>
      <trkpt lat="42.309709" lon="2.277886">
        <ele>1566.7</ele>
        <time>2018-06-11T06:39:10Z</time>
      </trkpt>
      <trkpt lat="42.309684" lon="2.277838">
        <ele>1565.3</ele>
        <time>2018-06-11T06:39:11Z</time>
      </trkpt>
      <trkpt lat="42.309664" lon="2.277791">
        <ele>1564.0</ele>
        <time>2018-06-11T06:39:12Z</time>
      </trkpt>
      <trkpt lat="42.309645" lon="2.277729">
        <ele>1562.7</ele>
        <time>2018-06-11T06:39:13Z</time>
      </trkpt>
      <trkpt lat="42.309612" lon="2.277607">
        <ele>1560.5</ele>
        <time>2018-06-11T06:39:16Z</time>
      </trkpt>
      <trkpt lat="42.309602" lon="2.277538">
        <ele>1559.9</ele>
        <time>2018-06-11T06:39:17Z</time>
      </trkpt>
      <trkpt lat="42.309593" lon="2.277481">
        <ele>1559.5</ele>
        <time>2018-06-11T06:39:19Z</time>
      </trkpt>
      <trkpt lat="42.309588" lon="2.277416">
        <ele>1559.2</ele>
        <time>2018-06-11T06:39:20Z</time>
      </trkpt>
      <trkpt lat="42.309584" lon="2.277343">
        <ele>1558.9</ele>
        <time>2018-06-11T06:39:21Z</time>
      </trkpt>
      <trkpt lat="42.309585" lon="2.277266">
        <ele>1558.4</ele>
        <time>2018-06-11T06:39:23Z</time>
      </trkpt>
      <trkpt lat="42.309588" lon="2.277202">
        <ele>1558.1</ele>
        <time>2018-06-11T06:39:24Z</time>
      </trkpt>
      <trkpt lat="42.309594" lon="2.277162">
        <ele>1558.1</ele>
        <time>2018-06-11T06:39:25Z</time>
      </trkpt>
      <trkpt lat="42.309614" lon="2.277058">
        <ele>1558.2</ele>
        <time>2018-06-11T06:39:27Z</time>
      </trkpt>
      <trkpt lat="42.309627" lon="2.276979">
        <ele>1558.0</ele>
        <time>2018-06-11T06:39:28Z</time>
      </trkpt>
      <trkpt lat="42.309630" lon="2.276927">
        <ele>1557.7</ele>
        <time>2018-06-11T06:39:30Z</time>
      </trkpt>
      <trkpt lat="42.309626" lon="2.276805">
        <ele>1556.4</ele>
        <time>2018-06-11T06:39:32Z</time>
      </trkpt>
      <trkpt lat="42.309623" lon="2.276750">
        <ele>1556.8</ele>
        <time>2018-06-11T06:39:33Z</time>
      </trkpt>
      <trkpt lat="42.309618" lon="2.276703">
        <ele>1557.0</ele>
        <time>2018-06-11T06:39:34Z</time>
      </trkpt>
      <trkpt lat="42.309620" lon="2.276637">
        <ele>1557.6</ele>
        <time>2018-06-11T06:39:35Z</time>
      </trkpt>
      <trkpt lat="42.309629" lon="2.276582">
        <ele>1558.3</ele>
        <time>2018-06-11T06:39:36Z</time>
      </trkpt>
      <trkpt lat="42.309643" lon="2.276512">
        <ele>1559.9</ele>
        <time>2018-06-11T06:39:38Z</time>
      </trkpt>
      <trkpt lat="42.309659" lon="2.276462">
        <ele>1562.2</ele>
        <time>2018-06-11T06:39:39Z</time>
      </trkpt>
      <trkpt lat="42.309678" lon="2.276419">
        <ele>1564.3</ele>
        <time>2018-06-11T06:39:40Z</time>
      </trkpt>
      <trkpt lat="42.309755" lon="2.276249">
        <ele>1571.1</ele>
        <time>2018-06-11T06:39:44Z</time>
      </trkpt>
      <trkpt lat="42.309844" lon="2.276047">
        <ele>1578.0</ele>
        <time>2018-06-11T06:39:49Z</time>
      </trkpt>
      <trkpt lat="42.309864" lon="2.275994">
        <ele>1579.5</ele>
        <time>2018-06-11T06:39:50Z</time>
      </trkpt>
      <trkpt lat="42.309873" lon="2.275940">
        <ele>1582.0</ele>
        <time>2018-06-11T06:39:52Z</time>
      </trkpt>
      <trkpt lat="42.309879" lon="2.275863">
        <ele>1586.1</ele>
        <time>2018-06-11T06:39:53Z</time>
      </trkpt>
      <trkpt lat="42.309888" lon="2.275795">
        <ele>1589.9</ele>
        <time>2018-06-11T06:39:55Z</time>
      </trkpt>
      <trkpt lat="42.309890" lon="2.275744">
        <ele>1592.6</ele>
        <time>2018-06-11T06:39:56Z</time>
      </trkpt>
      <trkpt lat="42.309885" lon="2.275694">
        <ele>1595.0</ele>
        <time>2018-06-11T06:39:57Z</time>
      </trkpt>
      <trkpt lat="42.309877" lon="2.275666">
        <ele>1596.2</ele>
        <time>2018-06-11T06:39:58Z</time>
      </trkpt>
      <trkpt lat="42.309848" lon="2.275646">
        <ele>1596.7</ele>
        <time>2018-06-11T06:39:59Z</time>
      </trkpt>
      <trkpt lat="42.309817" lon="2.275648">
        <ele>1596.8</ele>
        <time>2018-06-11T06:40:00Z</time>
      </trkpt>
      <trkpt lat="42.309767" lon="2.275680">
        <ele>1595.5</ele>
        <time>2018-06-11T06:40:01Z</time>
      </trkpt>
      <trkpt lat="42.309730" lon="2.275713">
        <ele>1594.0</ele>
        <time>2018-06-11T06:40:03Z</time>
      </trkpt>
      <trkpt lat="42.309658" lon="2.275784">
        <ele>1590.5</ele>
        <time>2018-06-11T06:40:05Z</time>
      </trkpt>
      <trkpt lat="42.309582" lon="2.275842">
        <ele>1587.5</ele>
        <time>2018-06-11T06:40:07Z</time>
      </trkpt>
      <trkpt lat="42.309489" lon="2.275924">
        <ele>1582.0</ele>
        <time>2018-06-11T06:40:11Z</time>
      </trkpt>
      <trkpt lat="42.309418" lon="2.275979">
        <ele>1578.5</ele>
        <time>2018-06-11T06:40:13Z</time>
      </trkpt>
      <trkpt lat="42.309325" lon="2.276026">
        <ele>1575.6</ele>
        <time>2018-06-11T06:40:16Z</time>
      </trkpt>
      <trkpt lat="42.309231" lon="2.276058">
        <ele>1575.6</ele>
        <time>2018-06-11T06:40:18Z</time>
      </trkpt>
      <trkpt lat="42.309156" lon="2.276075">
        <ele>1576.4</ele>
        <time>2018-06-11T06:40:20Z</time>
      </trkpt>
      <trkpt lat="42.309095" lon="2.276090">
        <ele>1577.0</ele>
        <time>2018-06-11T06:40:22Z</time>
      </trkpt>
      <trkpt lat="42.309032" lon="2.276103">
        <ele>1577.8</ele>
        <time>2018-06-11T06:40:24Z</time>
      </trkpt>
      <trkpt lat="42.308946" lon="2.276123">
        <ele>1578.2</ele>
        <time>2018-06-11T06:40:26Z</time>
      </trkpt>
      <trkpt lat="42.308887" lon="2.276128">
        <ele>1578.8</ele>
        <time>2018-06-11T06:40:28Z</time>
      </trkpt>
      <trkpt lat="42.308856" lon="2.276128">
        <ele>1579.3</ele>
        <time>2018-06-11T06:40:28Z</time>
      </trkpt>
      <trkpt lat="42.308803" lon="2.276116">
        <ele>1580.5</ele>
        <time>2018-06-11T06:40:30Z</time>
      </trkpt>
      <trkpt lat="42.308765" lon="2.276105">
        <ele>1581.5</ele>
        <time>2018-06-11T06:40:31Z</time>
      </trkpt>
      <trkpt lat="42.308731" lon="2.276091">
        <ele>1581.7</ele>
        <time>2018-06-11T06:40:32Z</time>
      </trkpt>
      <trkpt lat="42.308684" lon="2.276065">
        <ele>1581.3</ele>
        <time>2018-06-11T06:40:33Z</time>
      </trkpt>
      <trkpt lat="42.308629" lon="2.276030">
        <ele>1580.9</ele>
        <time>2018-06-11T06:40:35Z</time>
      </trkpt>
      <trkpt lat="42.308585" lon="2.275994">
        <ele>1580.8</ele>
        <time>2018-06-11T06:40:36Z</time>
      </trkpt>
      <trkpt lat="42.308424" lon="2.275853">
        <ele>1580.8</ele>
        <time>2018-06-11T06:40:41Z</time>
      </trkpt>
      <trkpt lat="42.308257" lon="2.275691">
        <ele>1580.6</ele>
        <time>2018-06-11T06:40:47Z</time>
      </trkpt>
      <trkpt lat="42.308220" lon="2.275653">
        <ele>1580.5</ele>
        <time>2018-06-11T06:40:48Z</time>
      </trkpt>
      <trkpt lat="42.308142" lon="2.275563">
        <ele>1579.7</ele>
        <time>2018-06-11T06:40:51Z</time>
      </trkpt>
      <trkpt lat="42.308058" lon="2.275452">
        <ele>1578.1</ele>
        <time>2018-06-11T06:40:54Z</time>
      </trkpt>
      <trkpt lat="42.307914" lon="2.275255">
        <ele>1572.2</ele>
        <time>2018-06-11T06:40:59Z</time>
      </trkpt>
      <trkpt lat="42.307850" lon="2.275156">
        <ele>1569.5</ele>
        <time>2018-06-11T06:41:02Z</time>
      </trkpt>
      <trkpt lat="42.307804" lon="2.275080">
        <ele>1567.7</ele>
        <time>2018-06-11T06:41:04Z</time>
      </trkpt>
      <trkpt lat="42.307767" lon="2.275016">
        <ele>1566.3</ele>
        <time>2018-06-11T06:41:06Z</time>
      </trkpt>
      <trkpt lat="42.307738" lon="2.274945">
        <ele>1565.5</ele>
        <time>2018-06-11T06:41:07Z</time>
      </trkpt>
      <trkpt lat="42.307720" lon="2.274895">
        <ele>1565.0</ele>
        <time>2018-06-11T06:41:08Z</time>
      </trkpt>
      <trkpt lat="42.307696" lon="2.274811">
        <ele>1564.5</ele>
        <time>2018-06-11T06:41:10Z</time>
      </trkpt>
      <trkpt lat="42.307681" lon="2.274736">
        <ele>1564.2</ele>
        <time>2018-06-11T06:41:12Z</time>
      </trkpt>
      <trkpt lat="42.307667" lon="2.274616">
        <ele>1564.6</ele>
        <time>2018-06-11T06:41:14Z</time>
      </trkpt>
      <trkpt lat="42.307663" lon="2.274513">
        <ele>1564.7</ele>
        <time>2018-06-11T06:41:16Z</time>
      </trkpt>
      <trkpt lat="42.307665" lon="2.274406">
        <ele>1564.8</ele>
        <time>2018-06-11T06:41:18Z</time>
      </trkpt>
      <trkpt lat="42.307667" lon="2.274269">
        <ele>1564.8</ele>
        <time>2018-06-11T06:41:21Z</time>
      </trkpt>
      <trkpt lat="42.307664" lon="2.274123">
        <ele>1563.5</ele>
        <time>2018-06-11T06:41:24Z</time>
      </trkpt>
      <trkpt lat="42.307662" lon="2.274075">
        <ele>1563.0</ele>
        <time>2018-06-11T06:41:25Z</time>
      </trkpt>
      <trkpt lat="42.307645" lon="2.273956">
        <ele>1562.3</ele>
        <time>2018-06-11T06:41:27Z</time>
      </trkpt>
      <trkpt lat="42.307630" lon="2.273862">
        <ele>1562.3</ele>
        <time>2018-06-11T06:41:29Z</time>
      </trkpt>
      <trkpt lat="42.307621" lon="2.273713">
        <ele>1563.6</ele>
        <time>2018-06-11T06:41:32Z</time>
      </trkpt>
      <trkpt lat="42.307615" lon="2.273557">
        <ele>1565.2</ele>
        <time>2018-06-11T06:41:35Z</time>
      </trkpt>
      <trkpt lat="42.307606" lon="2.273449">
        <ele>1566.5</ele>
        <time>2018-06-11T06:41:37Z</time>
      </trkpt>
      <trkpt lat="42.307593" lon="2.273348">
        <ele>1568.5</ele>
        <time>2018-06-11T06:41:39Z</time>
      </trkpt>
      <trkpt lat="42.307588" lon="2.273295">
        <ele>1569.6</ele>
        <time>2018-06-11T06:41:40Z</time>
      </trkpt>
      <trkpt lat="42.307569" lon="2.273223">
        <ele>1570.6</ele>
        <time>2018-06-11T06:41:42Z</time>
      </trkpt>
      <trkpt lat="42.307540" lon="2.273146">
        <ele>1570.7</ele>
        <time>2018-06-11T06:41:43Z</time>
      </trkpt>
      <trkpt lat="42.307476" lon="2.273035">
        <ele>1569.2</ele>
        <time>2018-06-11T06:41:46Z</time>
      </trkpt>
      <trkpt lat="42.307372" lon="2.272826">
        <ele>1565.2</ele>
        <time>2018-06-11T06:41:51Z</time>
      </trkpt>
      <trkpt lat="42.307216" lon="2.272487">
        <ele>1555.9</ele>
        <time>2018-06-11T06:41:59Z</time>
      </trkpt>
      <trkpt lat="42.307169" lon="2.272379">
        <ele>1552.5</ele>
        <time>2018-06-11T06:42:02Z</time>
      </trkpt>
      <trkpt lat="42.307139" lon="2.272310">
        <ele>1550.1</ele>
        <time>2018-06-11T06:42:04Z</time>
      </trkpt>
      <trkpt lat="42.307121" lon="2.272257">
        <ele>1548.6</ele>
        <time>2018-06-11T06:42:05Z</time>
      </trkpt>
      <trkpt lat="42.307113" lon="2.272194">
        <ele>1547.5</ele>
        <time>2018-06-11T06:42:06Z</time>
      </trkpt>
      <trkpt lat="42.307109" lon="2.272122">
        <ele>1546.5</ele>
        <time>2018-06-11T06:42:07Z</time>
      </trkpt>
      <trkpt lat="42.307114" lon="2.272013">
        <ele>1545.5</ele>
        <time>2018-06-11T06:42:10Z</time>
      </trkpt>
      <trkpt lat="42.307131" lon="2.271923">
        <ele>1545.1</ele>
        <time>2018-06-11T06:42:11Z</time>
      </trkpt>
      <trkpt lat="42.307155" lon="2.271826">
        <ele>1544.5</ele>
        <time>2018-06-11T06:42:13Z</time>
      </trkpt>
      <trkpt lat="42.307230" lon="2.271643">
        <ele>1543.5</ele>
        <time>2018-06-11T06:42:18Z</time>
      </trkpt>
      <trkpt lat="42.307361" lon="2.271406">
        <ele>1542.1</ele>
        <time>2018-06-11T06:42:23Z</time>
      </trkpt>
      <trkpt lat="42.307403" lon="2.271292">
        <ele>1543.8</ele>
        <time>2018-06-11T06:42:26Z</time>
      </trkpt>
      <trkpt lat="42.307460" lon="2.271166">
        <ele>1546.6</ele>
        <time>2018-06-11T06:42:29Z</time>
      </trkpt>
      <trkpt lat="42.307536" lon="2.271038">
        <ele>1549.9</ele>
        <time>2018-06-11T06:42:32Z</time>
      </trkpt>
      <trkpt lat="42.307621" lon="2.270899">
        <ele>1553.3</ele>
        <time>2018-06-11T06:42:36Z</time>
      </trkpt>
      <trkpt lat="42.307691" lon="2.270814">
        <ele>1554.4</ele>
        <time>2018-06-11T06:42:38Z</time>
      </trkpt>
      <trkpt lat="42.307779" lon="2.270730">
        <ele>1555.8</ele>
        <time>2018-06-11T06:42:41Z</time>
      </trkpt>
      <trkpt lat="42.307817" lon="2.270687">
        <ele>1556.8</ele>
        <time>2018-06-11T06:42:42Z</time>
      </trkpt>
      <trkpt lat="42.307835" lon="2.270644">
        <ele>1558.2</ele>
        <time>2018-06-11T06:42:43Z</time>
      </trkpt>
      <trkpt lat="42.307847" lon="2.270610">
        <ele>1559.3</ele>
        <time>2018-06-11T06:42:44Z</time>
      </trkpt>
      <trkpt lat="42.307846" lon="2.270583">
        <ele>1560.0</ele>
        <time>2018-06-11T06:42:45Z</time>
      </trkpt>
      <trkpt lat="42.307838" lon="2.270551">
        <ele>1560.8</ele>
        <time>2018-06-11T06:42:45Z</time>
      </trkpt>
      <trkpt lat="42.307821" lon="2.270528">
        <ele>1561.2</ele>
        <time>2018-06-11T06:42:46Z</time>
      </trkpt>
      <trkpt lat="42.307793" lon="2.270515">
        <ele>1561.3</ele>
        <time>2018-06-11T06:42:47Z</time>
      </trkpt>
      <trkpt lat="42.307763" lon="2.270504">
        <ele>1561.4</ele>
        <time>2018-06-11T06:42:48Z</time>
      </trkpt>
      <trkpt lat="42.307717" lon="2.270490">
        <ele>1561.4</ele>
        <time>2018-06-11T06:42:49Z</time>
      </trkpt>
      <trkpt lat="42.307656" lon="2.270474">
        <ele>1561.3</ele>
        <time>2018-06-11T06:42:51Z</time>
      </trkpt>
      <trkpt lat="42.307526" lon="2.270457">
        <ele>1558.9</ele>
        <time>2018-06-11T06:42:54Z</time>
      </trkpt>
      <trkpt lat="42.307454" lon="2.270459">
        <ele>1557.0</ele>
        <time>2018-06-11T06:42:56Z</time>
      </trkpt>
      <trkpt lat="42.307305" lon="2.270466">
        <ele>1554.3</ele>
        <time>2018-06-11T06:43:00Z</time>
      </trkpt>
      <trkpt lat="42.306867" lon="2.270529">
        <ele>1550.3</ele>
        <time>2018-06-11T06:43:12Z</time>
      </trkpt>
      <trkpt lat="42.306798" lon="2.270548">
        <ele>1549.8</ele>
        <time>2018-06-11T06:43:14Z</time>
      </trkpt>
      <trkpt lat="42.306750" lon="2.270561">
        <ele>1550.4</ele>
        <time>2018-06-11T06:43:15Z</time>
      </trkpt>
      <trkpt lat="42.306718" lon="2.270578">
        <ele>1550.7</ele>
        <time>2018-06-11T06:43:16Z</time>
      </trkpt>
      <trkpt lat="42.306690" lon="2.270590">
        <ele>1551.1</ele>
        <time>2018-06-11T06:43:17Z</time>
      </trkpt>
      <trkpt lat="42.306668" lon="2.270596">
        <ele>1551.4</ele>
        <time>2018-06-11T06:43:17Z</time>
      </trkpt>
      <trkpt lat="42.306635" lon="2.270589">
        <ele>1552.1</ele>
        <time>2018-06-11T06:43:18Z</time>
      </trkpt>
      <trkpt lat="42.306610" lon="2.270571">
        <ele>1552.8</ele>
        <time>2018-06-11T06:43:19Z</time>
      </trkpt>
      <trkpt lat="42.306565" lon="2.270511">
        <ele>1554.4</ele>
        <time>2018-06-11T06:43:21Z</time>
      </trkpt>
      <trkpt lat="42.306533" lon="2.270459">
        <ele>1555.5</ele>
        <time>2018-06-11T06:43:22Z</time>
      </trkpt>
      <trkpt lat="42.306412" lon="2.270257">
        <ele>1556.5</ele>
        <time>2018-06-11T06:43:27Z</time>
      </trkpt>
      <trkpt lat="42.306355" lon="2.270174">
        <ele>1556.4</ele>
        <time>2018-06-11T06:43:29Z</time>
      </trkpt>
      <trkpt lat="42.306274" lon="2.270025">
        <ele>1556.7</ele>
        <time>2018-06-11T06:43:33Z</time>
      </trkpt>
      <trkpt lat="42.306182" lon="2.269843">
        <ele>1557.5</ele>
        <time>2018-06-11T06:43:37Z</time>
      </trkpt>
      <trkpt lat="42.306151" lon="2.269771">
        <ele>1557.5</ele>
        <time>2018-06-11T06:43:39Z</time>
      </trkpt>
      <trkpt lat="42.306121" lon="2.269710">
        <ele>1557.4</ele>
        <time>2018-06-11T06:43:40Z</time>
      </trkpt>
      <trkpt lat="42.306079" lon="2.269662">
        <ele>1556.9</ele>
        <time>2018-06-11T06:43:42Z</time>
      </trkpt>
      <trkpt lat="42.306051" lon="2.269631">
        <ele>1556.5</ele>
        <time>2018-06-11T06:43:43Z</time>
      </trkpt>
      <trkpt lat="42.306013" lon="2.269591">
        <ele>1556.0</ele>
        <time>2018-06-11T06:43:44Z</time>
      </trkpt>
      <trkpt lat="42.305988" lon="2.269560">
        <ele>1555.6</ele>
        <time>2018-06-11T06:43:45Z</time>
      </trkpt>
      <trkpt lat="42.305953" lon="2.269505">
        <ele>1555.9</ele>
        <time>2018-06-11T06:43:46Z</time>
      </trkpt>
      <trkpt lat="42.305928" lon="2.269454">
        <ele>1556.7</ele>
        <time>2018-06-11T06:43:48Z</time>
      </trkpt>
      <trkpt lat="42.305891" lon="2.269341">
        <ele>1558.2</ele>
        <time>2018-06-11T06:43:50Z</time>
      </trkpt>
      <trkpt lat="42.305855" lon="2.269225">
        <ele>1560.0</ele>
        <time>2018-06-11T06:43:53Z</time>
      </trkpt>
      <trkpt lat="42.305834" lon="2.269130">
        <ele>1561.4</ele>
        <time>2018-06-11T06:43:54Z</time>
      </trkpt>
      <trkpt lat="42.305819" lon="2.269056">
        <ele>1562.5</ele>
        <time>2018-06-11T06:43:56Z</time>
      </trkpt>
      <trkpt lat="42.305809" lon="2.269019">
        <ele>1563.1</ele>
        <time>2018-06-11T06:43:57Z</time>
      </trkpt>
      <trkpt lat="42.305784" lon="2.268992">
        <ele>1564.0</ele>
        <time>2018-06-11T06:43:58Z</time>
      </trkpt>
      <trkpt lat="42.305761" lon="2.268976">
        <ele>1564.8</ele>
        <time>2018-06-11T06:43:58Z</time>
      </trkpt>
      <trkpt lat="42.305733" lon="2.268980">
        <ele>1565.3</ele>
        <time>2018-06-11T06:43:59Z</time>
      </trkpt>
      <trkpt lat="42.305703" lon="2.269000">
        <ele>1565.4</ele>
        <time>2018-06-11T06:44:00Z</time>
      </trkpt>
      <trkpt lat="42.305676" lon="2.269014">
        <ele>1565.6</ele>
        <time>2018-06-11T06:44:01Z</time>
      </trkpt>
      <trkpt lat="42.305647" lon="2.269039">
        <ele>1565.7</ele>
        <time>2018-06-11T06:44:02Z</time>
      </trkpt>
      <trkpt lat="42.305613" lon="2.269050">
        <ele>1566.3</ele>
        <time>2018-06-11T06:44:03Z</time>
      </trkpt>
      <trkpt lat="42.305582" lon="2.269055">
        <ele>1566.8</ele>
        <time>2018-06-11T06:44:03Z</time>
      </trkpt>
      <trkpt lat="42.305564" lon="2.269053">
        <ele>1567.1</ele>
        <time>2018-06-11T06:44:04Z</time>
      </trkpt>
      <trkpt lat="42.305530" lon="2.269047">
        <ele>1567.8</ele>
        <time>2018-06-11T06:44:05Z</time>
      </trkpt>
      <trkpt lat="42.305511" lon="2.269054">
        <ele>1568.1</ele>
        <time>2018-06-11T06:44:05Z</time>
      </trkpt>
      <trkpt lat="42.305492" lon="2.269071">
        <ele>1568.3</ele>
        <time>2018-06-11T06:44:06Z</time>
      </trkpt>
      <trkpt lat="42.305482" lon="2.269098">
        <ele>1568.3</ele>
        <time>2018-06-11T06:44:07Z</time>
      </trkpt>
      <trkpt lat="42.305476" lon="2.269148">
        <ele>1568.0</ele>
        <time>2018-06-11T06:44:08Z</time>
      </trkpt>
      <trkpt lat="42.305478" lon="2.269224">
        <ele>1567.3</ele>
        <time>2018-06-11T06:44:09Z</time>
      </trkpt>
      <trkpt lat="42.305480" lon="2.269324">
        <ele>1566.5</ele>
        <time>2018-06-11T06:44:11Z</time>
      </trkpt>
      <trkpt lat="42.305482" lon="2.269425">
        <ele>1566.1</ele>
        <time>2018-06-11T06:44:13Z</time>
      </trkpt>
      <trkpt lat="42.305484" lon="2.269530">
        <ele>1565.5</ele>
        <time>2018-06-11T06:44:15Z</time>
      </trkpt>
      <trkpt lat="42.305484" lon="2.269699">
        <ele>1564.4</ele>
        <time>2018-06-11T06:44:18Z</time>
      </trkpt>
      <trkpt lat="42.305481" lon="2.269742">
        <ele>1564.1</ele>
        <time>2018-06-11T06:44:19Z</time>
      </trkpt>
      <trkpt lat="42.305475" lon="2.269774">
        <ele>1564.0</ele>
        <time>2018-06-11T06:44:20Z</time>
      </trkpt>
      <trkpt lat="42.305456" lon="2.269801">
        <ele>1564.3</ele>
        <time>2018-06-11T06:44:21Z</time>
      </trkpt>
      <trkpt lat="42.305437" lon="2.269811">
        <ele>1564.8</ele>
        <time>2018-06-11T06:44:21Z</time>
      </trkpt>
      <trkpt lat="42.305415" lon="2.269803">
        <ele>1565.5</ele>
        <time>2018-06-11T06:44:22Z</time>
      </trkpt>
      <trkpt lat="42.305405" lon="2.269767">
        <ele>1566.0</ele>
        <time>2018-06-11T06:44:23Z</time>
      </trkpt>
      <trkpt lat="42.305391" lon="2.269722">
        <ele>1566.7</ele>
        <time>2018-06-11T06:44:24Z</time>
      </trkpt>
      <trkpt lat="42.305370" lon="2.269651">
        <ele>1567.6</ele>
        <time>2018-06-11T06:44:25Z</time>
      </trkpt>
      <trkpt lat="42.305335" lon="2.269515">
        <ele>1569.1</ele>
        <time>2018-06-11T06:44:28Z</time>
      </trkpt>
      <trkpt lat="42.305279" lon="2.269342">
        <ele>1571.3</ele>
        <time>2018-06-11T06:44:32Z</time>
      </trkpt>
      <trkpt lat="42.305238" lon="2.269255">
        <ele>1572.7</ele>
        <time>2018-06-11T06:44:34Z</time>
      </trkpt>
      <trkpt lat="42.305208" lon="2.269199">
        <ele>1573.7</ele>
        <time>2018-06-11T06:44:35Z</time>
      </trkpt>
      <trkpt lat="42.305158" lon="2.269131">
        <ele>1575.2</ele>
        <time>2018-06-11T06:44:37Z</time>
      </trkpt>
      <trkpt lat="42.305115" lon="2.269076">
        <ele>1576.1</ele>
        <time>2018-06-11T06:44:39Z</time>
      </trkpt>
      <trkpt lat="42.305038" lon="2.269012">
        <ele>1577.1</ele>
        <time>2018-06-11T06:44:41Z</time>
      </trkpt>
      <trkpt lat="42.304956" lon="2.268945">
        <ele>1577.8</ele>
        <time>2018-06-11T06:44:44Z</time>
      </trkpt>
      <trkpt lat="42.304858" lon="2.268873">
        <ele>1577.9</ele>
        <time>2018-06-11T06:44:46Z</time>
      </trkpt>
      <trkpt lat="42.304498" lon="2.268616">
        <ele>1582.0</ele>
        <time>2018-06-11T06:44:57Z</time>
      </trkpt>
      <trkpt lat="42.304465" lon="2.268592">
        <ele>1582.6</ele>
        <time>2018-06-11T06:44:58Z</time>
      </trkpt>
      <trkpt lat="42.304405" lon="2.268573">
        <ele>1583.4</ele>
        <time>2018-06-11T06:45:00Z</time>
      </trkpt>
      <trkpt lat="42.304188" lon="2.268550">
        <ele>1586.3</ele>
        <time>2018-06-11T06:45:06Z</time>
      </trkpt>
      <trkpt lat="42.304060" lon="2.268532">
        <ele>1588.1</ele>
        <time>2018-06-11T06:45:09Z</time>
      </trkpt>
      <trkpt lat="42.303906" lon="2.268510">
        <ele>1591.3</ele>
        <time>2018-06-11T06:45:13Z</time>
      </trkpt>
      <trkpt lat="42.303835" lon="2.268505">
        <ele>1592.8</ele>
        <time>2018-06-11T06:45:15Z</time>
      </trkpt>
      <trkpt lat="42.303778" lon="2.268510">
        <ele>1594.0</ele>
        <time>2018-06-11T06:45:17Z</time>
      </trkpt>
      <trkpt lat="42.303695" lon="2.268522">
        <ele>1594.6</ele>
        <time>2018-06-11T06:45:19Z</time>
      </trkpt>
      <trkpt lat="42.303619" lon="2.268552">
        <ele>1594.5</ele>
        <time>2018-06-11T06:45:21Z</time>
      </trkpt>
      <trkpt lat="42.303522" lon="2.268578">
        <ele>1594.4</ele>
        <time>2018-06-11T06:45:24Z</time>
      </trkpt>
      <trkpt lat="42.303439" lon="2.268606">
        <ele>1594.1</ele>
        <time>2018-06-11T06:45:26Z</time>
      </trkpt>
      <trkpt lat="42.303362" lon="2.268615">
        <ele>1593.9</ele>
        <time>2018-06-11T06:45:28Z</time>
      </trkpt>
      <trkpt lat="42.303277" lon="2.268632">
        <ele>1593.7</ele>
        <time>2018-06-11T06:45:30Z</time>
      </trkpt>
      <trkpt lat="42.303224" lon="2.268636">
        <ele>1593.6</ele>
        <time>2018-06-11T06:45:32Z</time>
      </trkpt>
      <trkpt lat="42.303136" lon="2.268630">
        <ele>1595.3</ele>
        <time>2018-06-11T06:45:34Z</time>
      </trkpt>
      <trkpt lat="42.303041" lon="2.268630">
        <ele>1597.9</ele>
        <time>2018-06-11T06:45:37Z</time>
      </trkpt>
      <trkpt lat="42.302906" lon="2.268628">
        <ele>1601.3</ele>
        <time>2018-06-11T06:45:40Z</time>
      </trkpt>
      <trkpt lat="42.302791" lon="2.268632">
        <ele>1601.2</ele>
        <time>2018-06-11T06:45:43Z</time>
      </trkpt>
      <trkpt lat="42.302721" lon="2.268638">
        <ele>1601.1</ele>
        <time>2018-06-11T06:45:45Z</time>
      </trkpt>
      <trkpt lat="42.302649" lon="2.268646">
        <ele>1601.0</ele>
        <time>2018-06-11T06:45:47Z</time>
      </trkpt>
      <trkpt lat="42.302544" lon="2.268662">
        <ele>1599.0</ele>
        <time>2018-06-11T06:45:50Z</time>
      </trkpt>
      <trkpt lat="42.302487" lon="2.268681">
        <ele>1597.9</ele>
        <time>2018-06-11T06:45:52Z</time>
      </trkpt>
      <trkpt lat="42.302439" lon="2.268691">
        <ele>1596.9</ele>
        <time>2018-06-11T06:45:53Z</time>
      </trkpt>
      <trkpt lat="42.302396" lon="2.268699">
        <ele>1596.1</ele>
        <time>2018-06-11T06:45:54Z</time>
      </trkpt>
      <trkpt lat="42.302349" lon="2.268708">
        <ele>1595.3</ele>
        <time>2018-06-11T06:45:55Z</time>
      </trkpt>
      <trkpt lat="42.302323" lon="2.268708">
        <ele>1594.8</ele>
        <time>2018-06-11T06:45:56Z</time>
      </trkpt>
      <trkpt lat="42.302300" lon="2.268693">
        <ele>1594.1</ele>
        <time>2018-06-11T06:45:57Z</time>
      </trkpt>
      <trkpt lat="42.302277" lon="2.268667">
        <ele>1593.3</ele>
        <time>2018-06-11T06:45:58Z</time>
      </trkpt>
      <trkpt lat="42.302255" lon="2.268636">
        <ele>1592.4</ele>
        <time>2018-06-11T06:45:58Z</time>
      </trkpt>
      <trkpt lat="42.302243" lon="2.268600">
        <ele>1591.6</ele>
        <time>2018-06-11T06:45:59Z</time>
      </trkpt>
      <trkpt lat="42.302237" lon="2.268569">
        <ele>1590.9</ele>
        <time>2018-06-11T06:46:00Z</time>
      </trkpt>
      <trkpt lat="42.302240" lon="2.268528">
        <ele>1590.4</ele>
        <time>2018-06-11T06:46:01Z</time>
      </trkpt>
      <trkpt lat="42.302249" lon="2.268467">
        <ele>1589.7</ele>
        <time>2018-06-11T06:46:02Z</time>
      </trkpt>
      <trkpt lat="42.302273" lon="2.268381">
        <ele>1588.6</ele>
        <time>2018-06-11T06:46:04Z</time>
      </trkpt>
      <trkpt lat="42.302328" lon="2.268239">
        <ele>1587.1</ele>
        <time>2018-06-11T06:46:07Z</time>
      </trkpt>
      <trkpt lat="42.302382" lon="2.268082">
        <ele>1586.6</ele>
        <time>2018-06-11T06:46:10Z</time>
      </trkpt>
      <trkpt lat="42.302440" lon="2.267840">
        <ele>1587.8</ele>
        <time>2018-06-11T06:46:15Z</time>
      </trkpt>
      <trkpt lat="42.302479" lon="2.267615">
        <ele>1589.0</ele>
        <time>2018-06-11T06:46:20Z</time>
      </trkpt>
      <trkpt lat="42.302496" lon="2.267522">
        <ele>1589.2</ele>
        <time>2018-06-11T06:46:22Z</time>
      </trkpt>
      <trkpt lat="42.302530" lon="2.267385">
        <ele>1590.4</ele>
        <time>2018-06-11T06:46:24Z</time>
      </trkpt>
      <trkpt lat="42.302559" lon="2.267271">
        <ele>1590.2</ele>
        <time>2018-06-11T06:46:27Z</time>
      </trkpt>
      <trkpt lat="42.302578" lon="2.267232">
        <ele>1590.7</ele>
        <time>2018-06-11T06:46:28Z</time>
      </trkpt>
      <trkpt lat="42.302624" lon="2.267140">
        <ele>1592.1</ele>
        <time>2018-06-11T06:46:30Z</time>
      </trkpt>
      <trkpt lat="42.302648" lon="2.267076">
        <ele>1592.0</ele>
        <time>2018-06-11T06:46:31Z</time>
      </trkpt>
      <trkpt lat="42.302661" lon="2.267031">
        <ele>1591.0</ele>
        <time>2018-06-11T06:46:32Z</time>
      </trkpt>
      <trkpt lat="42.302668" lon="2.266968">
        <ele>1589.3</ele>
        <time>2018-06-11T06:46:34Z</time>
      </trkpt>
      <trkpt lat="42.302660" lon="2.266899">
        <ele>1586.9</ele>
        <time>2018-06-11T06:46:35Z</time>
      </trkpt>
      <trkpt lat="42.302663" lon="2.266824">
        <ele>1584.7</ele>
        <time>2018-06-11T06:46:37Z</time>
      </trkpt>
      <trkpt lat="42.302672" lon="2.266776">
        <ele>1583.6</ele>
        <time>2018-06-11T06:46:38Z</time>
      </trkpt>
      <trkpt lat="42.302696" lon="2.266694">
        <ele>1582.2</ele>
        <time>2018-06-11T06:46:39Z</time>
      </trkpt>
      <trkpt lat="42.302718" lon="2.266656">
        <ele>1582.0</ele>
        <time>2018-06-11T06:46:40Z</time>
      </trkpt>
      <trkpt lat="42.302815" lon="2.266506">
        <ele>1582.2</ele>
        <time>2018-06-11T06:46:44Z</time>
      </trkpt>
      <trkpt lat="42.302942" lon="2.266352">
        <ele>1584.1</ele>
        <time>2018-06-11T06:46:49Z</time>
      </trkpt>
      <trkpt lat="42.303083" lon="2.266202">
        <ele>1582.7</ele>
        <time>2018-06-11T06:46:54Z</time>
      </trkpt>
      <trkpt lat="42.303164" lon="2.266144">
        <ele>1582.7</ele>
        <time>2018-06-11T06:46:56Z</time>
      </trkpt>
      <trkpt lat="42.303268" lon="2.266076">
        <ele>1583.9</ele>
        <time>2018-06-11T06:46:59Z</time>
      </trkpt>
      <trkpt lat="42.303337" lon="2.266006">
        <ele>1584.8</ele>
        <time>2018-06-11T06:47:01Z</time>
      </trkpt>
      <trkpt lat="42.303412" lon="2.265921">
        <ele>1586.3</ele>
        <time>2018-06-11T06:47:04Z</time>
      </trkpt>
      <trkpt lat="42.303473" lon="2.265862">
        <ele>1587.8</ele>
        <time>2018-06-11T06:47:06Z</time>
      </trkpt>
      <trkpt lat="42.303558" lon="2.265813">
        <ele>1589.8</ele>
        <time>2018-06-11T06:47:09Z</time>
      </trkpt>
      <trkpt lat="42.303663" lon="2.265776">
        <ele>1592.3</ele>
        <time>2018-06-11T06:47:11Z</time>
      </trkpt>
      <trkpt lat="42.303711" lon="2.265764">
        <ele>1593.4</ele>
        <time>2018-06-11T06:47:13Z</time>
      </trkpt>
      <trkpt lat="42.303739" lon="2.265741">
        <ele>1593.7</ele>
        <time>2018-06-11T06:47:14Z</time>
      </trkpt>
      <trkpt lat="42.303754" lon="2.265710">
        <ele>1593.5</ele>
        <time>2018-06-11T06:47:14Z</time>
      </trkpt>
      <trkpt lat="42.303764" lon="2.265668">
        <ele>1593.2</ele>
        <time>2018-06-11T06:47:15Z</time>
      </trkpt>
      <trkpt lat="42.303764" lon="2.265611">
        <ele>1592.8</ele>
        <time>2018-06-11T06:47:16Z</time>
      </trkpt>
      <trkpt lat="42.303761" lon="2.265553">
        <ele>1592.2</ele>
        <time>2018-06-11T06:47:18Z</time>
      </trkpt>
      <trkpt lat="42.303749" lon="2.265494">
        <ele>1591.5</ele>
        <time>2018-06-11T06:47:19Z</time>
      </trkpt>
      <trkpt lat="42.303739" lon="2.265422">
        <ele>1590.7</ele>
        <time>2018-06-11T06:47:20Z</time>
      </trkpt>
      <trkpt lat="42.303728" lon="2.265343">
        <ele>1589.1</ele>
        <time>2018-06-11T06:47:22Z</time>
      </trkpt>
      <trkpt lat="42.303723" lon="2.265262">
        <ele>1587.5</ele>
        <time>2018-06-11T06:47:23Z</time>
      </trkpt>
      <trkpt lat="42.303721" lon="2.265189">
        <ele>1586.3</ele>
        <time>2018-06-11T06:47:25Z</time>
      </trkpt>
      <trkpt lat="42.303725" lon="2.265118">
        <ele>1585.2</ele>
        <time>2018-06-11T06:47:26Z</time>
      </trkpt>
      <trkpt lat="42.303733" lon="2.265060">
        <ele>1584.5</ele>
        <time>2018-06-11T06:47:27Z</time>
      </trkpt>
      <trkpt lat="42.303743" lon="2.265018">
        <ele>1584.1</ele>
        <time>2018-06-11T06:47:28Z</time>
      </trkpt>
      <trkpt lat="42.303758" lon="2.264975">
        <ele>1583.8</ele>
        <time>2018-06-11T06:47:29Z</time>
      </trkpt>
      <trkpt lat="42.303779" lon="2.264936">
        <ele>1583.7</ele>
        <time>2018-06-11T06:47:30Z</time>
      </trkpt>
      <trkpt lat="42.303837" lon="2.264874">
        <ele>1584.0</ele>
        <time>2018-06-11T06:47:32Z</time>
      </trkpt>
      <trkpt lat="42.303901" lon="2.264829">
        <ele>1584.9</ele>
        <time>2018-06-11T06:47:34Z</time>
      </trkpt>
      <trkpt lat="42.303980" lon="2.264777">
        <ele>1586.2</ele>
        <time>2018-06-11T06:47:36Z</time>
      </trkpt>
      <trkpt lat="42.304027" lon="2.264731">
        <ele>1587.1</ele>
        <time>2018-06-11T06:47:38Z</time>
      </trkpt>
      <trkpt lat="42.304065" lon="2.264658">
        <ele>1587.9</ele>
        <time>2018-06-11T06:47:40Z</time>
      </trkpt>
      <trkpt lat="42.304103" lon="2.264599">
        <ele>1589.1</ele>
        <time>2018-06-11T06:47:41Z</time>
      </trkpt>
      <trkpt lat="42.304138" lon="2.264552">
        <ele>1590.4</ele>
        <time>2018-06-11T06:47:43Z</time>
      </trkpt>
      <trkpt lat="42.304216" lon="2.264516">
        <ele>1593.5</ele>
        <time>2018-06-11T06:47:45Z</time>
      </trkpt>
      <trkpt lat="42.304254" lon="2.264489">
        <ele>1595.0</ele>
        <time>2018-06-11T06:47:46Z</time>
      </trkpt>
      <trkpt lat="42.304275" lon="2.264453">
        <ele>1595.8</ele>
        <time>2018-06-11T06:47:47Z</time>
      </trkpt>
      <trkpt lat="42.304284" lon="2.264407">
        <ele>1596.1</ele>
        <time>2018-06-11T06:47:48Z</time>
      </trkpt>
      <trkpt lat="42.304278" lon="2.264348">
        <ele>1595.9</ele>
        <time>2018-06-11T06:47:49Z</time>
      </trkpt>
      <trkpt lat="42.304253" lon="2.264264">
        <ele>1595.1</ele>
        <time>2018-06-11T06:47:51Z</time>
      </trkpt>
      <trkpt lat="42.304188" lon="2.264104">
        <ele>1593.4</ele>
        <time>2018-06-11T06:47:55Z</time>
      </trkpt>
      <trkpt lat="42.304139" lon="2.263981">
        <ele>1592.6</ele>
        <time>2018-06-11T06:47:57Z</time>
      </trkpt>
      <trkpt lat="42.304113" lon="2.263927">
        <ele>1592.3</ele>
        <time>2018-06-11T06:47:59Z</time>
      </trkpt>
      <trkpt lat="42.304078" lon="2.263882">
        <ele>1591.7</ele>
        <time>2018-06-11T06:48:00Z</time>
      </trkpt>
      <trkpt lat="42.304025" lon="2.263834">
        <ele>1590.7</ele>
        <time>2018-06-11T06:48:02Z</time>
      </trkpt>
      <trkpt lat="42.303979" lon="2.263791">
        <ele>1589.5</ele>
        <time>2018-06-11T06:48:03Z</time>
      </trkpt>
      <trkpt lat="42.303953" lon="2.263761">
        <ele>1588.9</ele>
        <time>2018-06-11T06:48:04Z</time>
      </trkpt>
      <trkpt lat="42.303885" lon="2.263653">
        <ele>1586.0</ele>
        <time>2018-06-11T06:48:07Z</time>
      </trkpt>
      <trkpt lat="42.303809" lon="2.263521">
        <ele>1582.5</ele>
        <time>2018-06-11T06:48:10Z</time>
      </trkpt>
      <trkpt lat="42.303765" lon="2.263423">
        <ele>1580.1</ele>
        <time>2018-06-11T06:48:13Z</time>
      </trkpt>
      <trkpt lat="42.303750" lon="2.263381">
        <ele>1579.0</ele>
        <time>2018-06-11T06:48:13Z</time>
      </trkpt>
      <trkpt lat="42.303736" lon="2.263344">
        <ele>1577.9</ele>
        <time>2018-06-11T06:48:14Z</time>
      </trkpt>
      <trkpt lat="42.303728" lon="2.263290">
        <ele>1576.9</ele>
        <time>2018-06-11T06:48:15Z</time>
      </trkpt>
      <trkpt lat="42.303727" lon="2.263234">
        <ele>1576.3</ele>
        <time>2018-06-11T06:48:17Z</time>
      </trkpt>
      <trkpt lat="42.303733" lon="2.263159">
        <ele>1575.7</ele>
        <time>2018-06-11T06:48:18Z</time>
      </trkpt>
      <trkpt lat="42.303750" lon="2.263070">
        <ele>1575.2</ele>
        <time>2018-06-11T06:48:20Z</time>
      </trkpt>
      <trkpt lat="42.303778" lon="2.263015">
        <ele>1575.3</ele>
        <time>2018-06-11T06:48:21Z</time>
      </trkpt>
      <trkpt lat="42.303869" lon="2.262898">
        <ele>1576.1</ele>
        <time>2018-06-11T06:48:24Z</time>
      </trkpt>
      <trkpt lat="42.303945" lon="2.262836">
        <ele>1577.4</ele>
        <time>2018-06-11T06:48:27Z</time>
      </trkpt>
      <trkpt lat="42.303998" lon="2.262800">
        <ele>1578.7</ele>
        <time>2018-06-11T06:48:28Z</time>
      </trkpt>
      <trkpt lat="42.304028" lon="2.262788">
        <ele>1579.6</ele>
        <time>2018-06-11T06:48:29Z</time>
      </trkpt>
      <trkpt lat="42.304067" lon="2.262777">
        <ele>1580.9</ele>
        <time>2018-06-11T06:48:30Z</time>
      </trkpt>
      <trkpt lat="42.304151" lon="2.262779">
        <ele>1584.0</ele>
        <time>2018-06-11T06:48:33Z</time>
      </trkpt>
      <trkpt lat="42.304187" lon="2.262776">
        <ele>1585.2</ele>
        <time>2018-06-11T06:48:34Z</time>
      </trkpt>
      <trkpt lat="42.304221" lon="2.262756">
        <ele>1586.1</ele>
        <time>2018-06-11T06:48:35Z</time>
      </trkpt>
      <trkpt lat="42.304249" lon="2.262718">
        <ele>1586.5</ele>
        <time>2018-06-11T06:48:36Z</time>
      </trkpt>
      <trkpt lat="42.304263" lon="2.262673">
        <ele>1586.2</ele>
        <time>2018-06-11T06:48:37Z</time>
      </trkpt>
      <trkpt lat="42.304277" lon="2.262605">
        <ele>1585.6</ele>
        <time>2018-06-11T06:48:38Z</time>
      </trkpt>
      <trkpt lat="42.304292" lon="2.262539">
        <ele>1585.1</ele>
        <time>2018-06-11T06:48:40Z</time>
      </trkpt>
      <trkpt lat="42.304314" lon="2.262462">
        <ele>1584.8</ele>
        <time>2018-06-11T06:48:41Z</time>
      </trkpt>
      <trkpt lat="42.304335" lon="2.262415">
        <ele>1584.9</ele>
        <time>2018-06-11T06:48:42Z</time>
      </trkpt>
      <trkpt lat="42.304370" lon="2.262365">
        <ele>1585.4</ele>
        <time>2018-06-11T06:48:44Z</time>
      </trkpt>
      <trkpt lat="42.304423" lon="2.262295">
        <ele>1585.8</ele>
        <time>2018-06-11T06:48:46Z</time>
      </trkpt>
      <trkpt lat="42.304468" lon="2.262254">
        <ele>1586.5</ele>
        <time>2018-06-11T06:48:47Z</time>
      </trkpt>
      <trkpt lat="42.304489" lon="2.262228">
        <ele>1586.6</ele>
        <time>2018-06-11T06:48:48Z</time>
      </trkpt>
      <trkpt lat="42.304520" lon="2.262162">
        <ele>1586.0</ele>
        <time>2018-06-11T06:48:49Z</time>
      </trkpt>
      <trkpt lat="42.304553" lon="2.262080">
        <ele>1585.0</ele>
        <time>2018-06-11T06:48:51Z</time>
      </trkpt>
      <trkpt lat="42.304584" lon="2.261980">
        <ele>1583.4</ele>
        <time>2018-06-11T06:48:53Z</time>
      </trkpt>
      <trkpt lat="42.304614" lon="2.261905">
        <ele>1582.1</ele>
        <time>2018-06-11T06:48:55Z</time>
      </trkpt>
      <trkpt lat="42.304680" lon="2.261771">
        <ele>1580.6</ele>
        <time>2018-06-11T06:48:58Z</time>
      </trkpt>
      <trkpt lat="42.304763" lon="2.261650">
        <ele>1581.0</ele>
        <time>2018-06-11T06:49:01Z</time>
      </trkpt>
      <trkpt lat="42.304875" lon="2.261503">
        <ele>1582.0</ele>
        <time>2018-06-11T06:49:06Z</time>
      </trkpt>
      <trkpt lat="42.304971" lon="2.261356">
        <ele>1582.3</ele>
        <time>2018-06-11T06:49:09Z</time>
      </trkpt>
      <trkpt lat="42.305055" lon="2.261185">
        <ele>1582.1</ele>
        <time>2018-06-11T06:49:13Z</time>
      </trkpt>
      <trkpt lat="42.305103" lon="2.261050">
        <ele>1582.4</ele>
        <time>2018-06-11T06:49:16Z</time>
      </trkpt>
      <trkpt lat="42.305128" lon="2.260954">
        <ele>1582.5</ele>
        <time>2018-06-11T06:49:18Z</time>
      </trkpt>
      <trkpt lat="42.305159" lon="2.260774">
        <ele>1581.4</ele>
        <time>2018-06-11T06:49:22Z</time>
      </trkpt>
      <trkpt lat="42.305211" lon="2.260465">
        <ele>1576.3</ele>
        <time>2018-06-11T06:49:28Z</time>
      </trkpt>
      <trkpt lat="42.305240" lon="2.260359">
        <ele>1574.4</ele>
        <time>2018-06-11T06:49:31Z</time>
      </trkpt>
      <trkpt lat="42.305310" lon="2.260209">
        <ele>1572.7</ele>
        <time>2018-06-11T06:49:34Z</time>
      </trkpt>
      <trkpt lat="42.305379" lon="2.260064">
        <ele>1571.7</ele>
        <time>2018-06-11T06:49:37Z</time>
      </trkpt>
      <trkpt lat="42.305442" lon="2.259963">
        <ele>1572.2</ele>
        <time>2018-06-11T06:49:40Z</time>
      </trkpt>
      <trkpt lat="42.305510" lon="2.259879">
        <ele>1573.2</ele>
        <time>2018-06-11T06:49:42Z</time>
      </trkpt>
      <trkpt lat="42.305584" lon="2.259815">
        <ele>1575.3</ele>
        <time>2018-06-11T06:49:45Z</time>
      </trkpt>
      <trkpt lat="42.305653" lon="2.259769">
        <ele>1577.6</ele>
        <time>2018-06-11T06:49:47Z</time>
      </trkpt>
      <trkpt lat="42.305737" lon="2.259741">
        <ele>1580.2</ele>
        <time>2018-06-11T06:49:49Z</time>
      </trkpt>
      <trkpt lat="42.305850" lon="2.259686">
        <ele>1583.5</ele>
        <time>2018-06-11T06:49:53Z</time>
      </trkpt>
      <trkpt lat="42.305900" lon="2.259653">
        <ele>1584.9</ele>
        <time>2018-06-11T06:49:54Z</time>
      </trkpt>
      <trkpt lat="42.305948" lon="2.259597">
        <ele>1586.3</ele>
        <time>2018-06-11T06:49:56Z</time>
      </trkpt>
      <trkpt lat="42.305975" lon="2.259544">
        <ele>1587.4</ele>
        <time>2018-06-11T06:49:57Z</time>
      </trkpt>
      <trkpt lat="42.305996" lon="2.259481">
        <ele>1588.5</ele>
        <time>2018-06-11T06:49:58Z</time>
      </trkpt>
      <trkpt lat="42.306010" lon="2.259403">
        <ele>1589.3</ele>
        <time>2018-06-11T06:50:00Z</time>
      </trkpt>
      <trkpt lat="42.306016" lon="2.259341">
        <ele>1589.8</ele>
        <time>2018-06-11T06:50:01Z</time>
      </trkpt>
      <trkpt lat="42.306020" lon="2.259300">
        <ele>1590.1</ele>
        <time>2018-06-11T06:50:02Z</time>
      </trkpt>
      <trkpt lat="42.306019" lon="2.259275">
        <ele>1590.3</ele>
        <time>2018-06-11T06:50:03Z</time>
      </trkpt>
      <trkpt lat="42.306013" lon="2.259247">
        <ele>1590.5</ele>
        <time>2018-06-11T06:50:03Z</time>
      </trkpt>
      <trkpt lat="42.306000" lon="2.259228">
        <ele>1590.5</ele>
        <time>2018-06-11T06:50:04Z</time>
      </trkpt>
      <trkpt lat="42.305985" lon="2.259204">
        <ele>1590.4</ele>
        <time>2018-06-11T06:50:04Z</time>
      </trkpt>
      <trkpt lat="42.305932" lon="2.259157">
        <ele>1589.4</ele>
        <time>2018-06-11T06:50:06Z</time>
      </trkpt>
      <trkpt lat="42.305897" lon="2.259137">
        <ele>1588.6</ele>
        <time>2018-06-11T06:50:07Z</time>
      </trkpt>
      <trkpt lat="42.305855" lon="2.259085">
        <ele>1587.9</ele>
        <time>2018-06-11T06:50:09Z</time>
      </trkpt>
      <trkpt lat="42.305831" lon="2.259046">
        <ele>1587.7</ele>
        <time>2018-06-11T06:50:10Z</time>
      </trkpt>
      <trkpt lat="42.305778" lon="2.258963">
        <ele>1587.0</ele>
        <time>2018-06-11T06:50:12Z</time>
      </trkpt>
      <trkpt lat="42.305720" lon="2.258885">
        <ele>1586.2</ele>
        <time>2018-06-11T06:50:14Z</time>
      </trkpt>
      <trkpt lat="42.305675" lon="2.258835">
        <ele>1585.5</ele>
        <time>2018-06-11T06:50:15Z</time>
      </trkpt>
      <trkpt lat="42.305649" lon="2.258813">
        <ele>1585.0</ele>
        <time>2018-06-11T06:50:16Z</time>
      </trkpt>
      <trkpt lat="42.305580" lon="2.258780">
        <ele>1583.4</ele>
        <time>2018-06-11T06:50:18Z</time>
      </trkpt>
      <trkpt lat="42.305495" lon="2.258713">
        <ele>1581.2</ele>
        <time>2018-06-11T06:50:21Z</time>
      </trkpt>
      <trkpt lat="42.305445" lon="2.258664">
        <ele>1579.6</ele>
        <time>2018-06-11T06:50:23Z</time>
      </trkpt>
      <trkpt lat="42.305410" lon="2.258627">
        <ele>1578.4</ele>
        <time>2018-06-11T06:50:24Z</time>
      </trkpt>
      <trkpt lat="42.305376" lon="2.258573">
        <ele>1577.5</ele>
        <time>2018-06-11T06:50:25Z</time>
      </trkpt>
      <trkpt lat="42.305352" lon="2.258501">
        <ele>1576.9</ele>
        <time>2018-06-11T06:50:27Z</time>
      </trkpt>
      <trkpt lat="42.305326" lon="2.258407">
        <ele>1575.4</ele>
        <time>2018-06-11T06:50:29Z</time>
      </trkpt>
      <trkpt lat="42.305303" lon="2.258341">
        <ele>1574.1</ele>
        <time>2018-06-11T06:50:30Z</time>
      </trkpt>
      <trkpt lat="42.305271" lon="2.258276">
        <ele>1572.6</ele>
        <time>2018-06-11T06:50:32Z</time>
      </trkpt>
      <trkpt lat="42.305226" lon="2.258181">
        <ele>1570.4</ele>
        <time>2018-06-11T06:50:34Z</time>
      </trkpt>
      <trkpt lat="42.305194" lon="2.258110">
        <ele>1568.7</ele>
        <time>2018-06-11T06:50:36Z</time>
      </trkpt>
      <trkpt lat="42.305178" lon="2.258041">
        <ele>1567.4</ele>
        <time>2018-06-11T06:50:37Z</time>
      </trkpt>
      <trkpt lat="42.305168" lon="2.257974">
        <ele>1566.3</ele>
        <time>2018-06-11T06:50:38Z</time>
      </trkpt>
      <trkpt lat="42.305162" lon="2.257904">
        <ele>1565.1</ele>
        <time>2018-06-11T06:50:40Z</time>
      </trkpt>
      <trkpt lat="42.305165" lon="2.257832">
        <ele>1564.1</ele>
        <time>2018-06-11T06:50:41Z</time>
      </trkpt>
      <trkpt lat="42.305169" lon="2.257677">
        <ele>1562.0</ele>
        <time>2018-06-11T06:50:44Z</time>
      </trkpt>
      <trkpt lat="42.305175" lon="2.257552">
        <ele>1560.3</ele>
        <time>2018-06-11T06:50:47Z</time>
      </trkpt>
      <trkpt lat="42.305171" lon="2.257455">
        <ele>1558.9</ele>
        <time>2018-06-11T06:50:49Z</time>
      </trkpt>
      <trkpt lat="42.305154" lon="2.257316">
        <ele>1556.6</ele>
        <time>2018-06-11T06:50:52Z</time>
      </trkpt>
      <trkpt lat="42.305134" lon="2.257205">
        <ele>1554.6</ele>
        <time>2018-06-11T06:50:54Z</time>
      </trkpt>
      <trkpt lat="42.305121" lon="2.257084">
        <ele>1552.2</ele>
        <time>2018-06-11T06:50:56Z</time>
      </trkpt>
      <trkpt lat="42.305097" lon="2.256980">
        <ele>1548.9</ele>
        <time>2018-06-11T06:50:59Z</time>
      </trkpt>
      <trkpt lat="42.305081" lon="2.256899">
        <ele>1546.5</ele>
        <time>2018-06-11T06:51:00Z</time>
      </trkpt>
      <trkpt lat="42.305071" lon="2.256810">
        <ele>1544.2</ele>
        <time>2018-06-11T06:51:02Z</time>
      </trkpt>
      <trkpt lat="42.305067" lon="2.256666">
        <ele>1541.3</ele>
        <time>2018-06-11T06:51:05Z</time>
      </trkpt>
      <trkpt lat="42.305069" lon="2.256445">
        <ele>1537.6</ele>
        <time>2018-06-11T06:51:10Z</time>
      </trkpt>
      <trkpt lat="42.305071" lon="2.256350">
        <ele>1536.4</ele>
        <time>2018-06-11T06:51:11Z</time>
      </trkpt>
      <trkpt lat="42.305083" lon="2.256214">
        <ele>1535.2</ele>
        <time>2018-06-11T06:51:14Z</time>
      </trkpt>
      <trkpt lat="42.305092" lon="2.256124">
        <ele>1534.7</ele>
        <time>2018-06-11T06:51:16Z</time>
      </trkpt>
      <trkpt lat="42.305092" lon="2.255979">
        <ele>1533.2</ele>
        <time>2018-06-11T06:51:19Z</time>
      </trkpt>
      <trkpt lat="42.305100" lon="2.255821">
        <ele>1531.5</ele>
        <time>2018-06-11T06:51:22Z</time>
      </trkpt>
      <trkpt lat="42.305111" lon="2.255720">
        <ele>1530.6</ele>
        <time>2018-06-11T06:51:24Z</time>
      </trkpt>
      <trkpt lat="42.305128" lon="2.255625">
        <ele>1529.2</ele>
        <time>2018-06-11T06:51:26Z</time>
      </trkpt>
      <trkpt lat="42.305162" lon="2.255543">
        <ele>1528.4</ele>
        <time>2018-06-11T06:51:28Z</time>
      </trkpt>
      <trkpt lat="42.305231" lon="2.255398">
        <ele>1527.2</ele>
        <time>2018-06-11T06:51:31Z</time>
      </trkpt>
      <trkpt lat="42.305324" lon="2.255249">
        <ele>1525.3</ele>
        <time>2018-06-11T06:51:35Z</time>
      </trkpt>
      <trkpt lat="42.305392" lon="2.255185">
        <ele>1524.3</ele>
        <time>2018-06-11T06:51:37Z</time>
      </trkpt>
      <trkpt lat="42.305441" lon="2.255171">
        <ele>1525.1</ele>
        <time>2018-06-11T06:51:38Z</time>
      </trkpt>
      <trkpt lat="42.305480" lon="2.255158">
        <ele>1526.0</ele>
        <time>2018-06-11T06:51:40Z</time>
      </trkpt>
      <trkpt lat="42.305511" lon="2.255146">
        <ele>1526.7</ele>
        <time>2018-06-11T06:51:40Z</time>
      </trkpt>
      <trkpt lat="42.305528" lon="2.255128">
        <ele>1526.8</ele>
        <time>2018-06-11T06:51:41Z</time>
      </trkpt>
      <trkpt lat="42.305539" lon="2.255100">
        <ele>1526.6</ele>
        <time>2018-06-11T06:51:42Z</time>
      </trkpt>
      <trkpt lat="42.305541" lon="2.255059">
        <ele>1525.8</ele>
        <time>2018-06-11T06:51:42Z</time>
      </trkpt>
      <trkpt lat="42.305535" lon="2.255023">
        <ele>1524.9</ele>
        <time>2018-06-11T06:51:43Z</time>
      </trkpt>
      <trkpt lat="42.305514" lon="2.254970">
        <ele>1523.2</ele>
        <time>2018-06-11T06:51:44Z</time>
      </trkpt>
      <trkpt lat="42.305481" lon="2.254897">
        <ele>1521.0</ele>
        <time>2018-06-11T06:51:46Z</time>
      </trkpt>
      <trkpt lat="42.305471" lon="2.254861">
        <ele>1520.2</ele>
        <time>2018-06-11T06:51:47Z</time>
      </trkpt>
      <trkpt lat="42.305461" lon="2.254820">
        <ele>1519.3</ele>
        <time>2018-06-11T06:51:48Z</time>
      </trkpt>
      <trkpt lat="42.305450" lon="2.254772">
        <ele>1518.2</ele>
        <time>2018-06-11T06:51:49Z</time>
      </trkpt>
      <trkpt lat="42.305445" lon="2.254729">
        <ele>1517.3</ele>
        <time>2018-06-11T06:51:50Z</time>
      </trkpt>
      <trkpt lat="42.305444" lon="2.254681">
        <ele>1516.5</ele>
        <time>2018-06-11T06:51:51Z</time>
      </trkpt>
      <trkpt lat="42.305449" lon="2.254650">
        <ele>1516.1</ele>
        <time>2018-06-11T06:51:51Z</time>
      </trkpt>
      <trkpt lat="42.305459" lon="2.254600">
        <ele>1515.5</ele>
        <time>2018-06-11T06:51:52Z</time>
      </trkpt>
      <trkpt lat="42.305479" lon="2.254549">
        <ele>1514.9</ele>
        <time>2018-06-11T06:51:54Z</time>
      </trkpt>
      <trkpt lat="42.305500" lon="2.254509">
        <ele>1514.4</ele>
        <time>2018-06-11T06:51:54Z</time>
      </trkpt>
      <trkpt lat="42.305542" lon="2.254462">
        <ele>1514.4</ele>
        <time>2018-06-11T06:51:56Z</time>
      </trkpt>
      <trkpt lat="42.305611" lon="2.254401">
        <ele>1514.5</ele>
        <time>2018-06-11T06:51:58Z</time>
      </trkpt>
      <trkpt lat="42.305651" lon="2.254368">
        <ele>1514.7</ele>
        <time>2018-06-11T06:51:59Z</time>
      </trkpt>
      <trkpt lat="42.305670" lon="2.254345">
        <ele>1514.5</ele>
        <time>2018-06-11T06:52:00Z</time>
      </trkpt>
      <trkpt lat="42.305691" lon="2.254320">
        <ele>1514.3</ele>
        <time>2018-06-11T06:52:01Z</time>
      </trkpt>
      <trkpt lat="42.305706" lon="2.254272">
        <ele>1513.7</ele>
        <time>2018-06-11T06:52:02Z</time>
      </trkpt>
      <trkpt lat="42.305714" lon="2.254227">
        <ele>1513.0</ele>
        <time>2018-06-11T06:52:03Z</time>
      </trkpt>
      <trkpt lat="42.305719" lon="2.254170">
        <ele>1511.9</ele>
        <time>2018-06-11T06:52:04Z</time>
      </trkpt>
      <trkpt lat="42.305722" lon="2.254108">
        <ele>1510.7</ele>
        <time>2018-06-11T06:52:05Z</time>
      </trkpt>
      <trkpt lat="42.305729" lon="2.254046">
        <ele>1509.6</ele>
        <time>2018-06-11T06:52:06Z</time>
      </trkpt>
      <trkpt lat="42.305752" lon="2.253968">
        <ele>1508.9</ele>
        <time>2018-06-11T06:52:08Z</time>
      </trkpt>
      <trkpt lat="42.305795" lon="2.253838">
        <ele>1507.7</ele>
        <time>2018-06-11T06:52:11Z</time>
      </trkpt>
      <trkpt lat="42.305808" lon="2.253760">
        <ele>1506.5</ele>
        <time>2018-06-11T06:52:12Z</time>
      </trkpt>
      <trkpt lat="42.305812" lon="2.253721">
        <ele>1505.5</ele>
        <time>2018-06-11T06:52:13Z</time>
      </trkpt>
      <trkpt lat="42.305811" lon="2.253654">
        <ele>1503.5</ele>
        <time>2018-06-11T06:52:15Z</time>
      </trkpt>
      <trkpt lat="42.305814" lon="2.253613">
        <ele>1502.3</ele>
        <time>2018-06-11T06:52:15Z</time>
      </trkpt>
      <trkpt lat="42.305823" lon="2.253547">
        <ele>1500.5</ele>
        <time>2018-06-11T06:52:17Z</time>
      </trkpt>
      <trkpt lat="42.305834" lon="2.253488">
        <ele>1499.0</ele>
        <time>2018-06-11T06:52:18Z</time>
      </trkpt>
      <trkpt lat="42.305852" lon="2.253426">
        <ele>1497.3</ele>
        <time>2018-06-11T06:52:19Z</time>
      </trkpt>
      <trkpt lat="42.305893" lon="2.253328">
        <ele>1494.7</ele>
        <time>2018-06-11T06:52:22Z</time>
      </trkpt>
      <trkpt lat="42.305911" lon="2.253287">
        <ele>1493.6</ele>
        <time>2018-06-11T06:52:23Z</time>
      </trkpt>
      <trkpt lat="42.305936" lon="2.253251">
        <ele>1492.6</ele>
        <time>2018-06-11T06:52:24Z</time>
      </trkpt>
      <trkpt lat="42.305965" lon="2.253221">
        <ele>1491.9</ele>
        <time>2018-06-11T06:52:25Z</time>
      </trkpt>
      <trkpt lat="42.306001" lon="2.253187">
        <ele>1491.7</ele>
        <time>2018-06-11T06:52:26Z</time>
      </trkpt>
      <trkpt lat="42.306017" lon="2.253168">
        <ele>1491.7</ele>
        <time>2018-06-11T06:52:26Z</time>
      </trkpt>
      <trkpt lat="42.306027" lon="2.253144">
        <ele>1491.4</ele>
        <time>2018-06-11T06:52:27Z</time>
      </trkpt>
      <trkpt lat="42.306031" lon="2.253119">
        <ele>1490.8</ele>
        <time>2018-06-11T06:52:27Z</time>
      </trkpt>
      <trkpt lat="42.306029" lon="2.253096">
        <ele>1490.1</ele>
        <time>2018-06-11T06:52:28Z</time>
      </trkpt>
      <trkpt lat="42.306026" lon="2.253070">
        <ele>1489.3</ele>
        <time>2018-06-11T06:52:29Z</time>
      </trkpt>
      <trkpt lat="42.306013" lon="2.253041">
        <ele>1488.1</ele>
        <time>2018-06-11T06:52:29Z</time>
      </trkpt>
      <trkpt lat="42.305992" lon="2.253026">
        <ele>1487.2</ele>
        <time>2018-06-11T06:52:30Z</time>
      </trkpt>
      <trkpt lat="42.305958" lon="2.253029">
        <ele>1486.6</ele>
        <time>2018-06-11T06:52:31Z</time>
      </trkpt>
      <trkpt lat="42.305935" lon="2.253034">
        <ele>1486.3</ele>
        <time>2018-06-11T06:52:31Z</time>
      </trkpt>
      <trkpt lat="42.305765" lon="2.253099">
        <ele>1485.3</ele>
        <time>2018-06-11T06:52:36Z</time>
      </trkpt>
      <trkpt lat="42.305731" lon="2.253120">
        <ele>1485.4</ele>
        <time>2018-06-11T06:52:37Z</time>
      </trkpt>
      <trkpt lat="42.305709" lon="2.253143">
        <ele>1485.7</ele>
        <time>2018-06-11T06:52:38Z</time>
      </trkpt>
      <trkpt lat="42.305682" lon="2.253171">
        <ele>1486.0</ele>
        <time>2018-06-11T06:52:39Z</time>
      </trkpt>
      <trkpt lat="42.305655" lon="2.253193">
        <ele>1486.1</ele>
        <time>2018-06-11T06:52:40Z</time>
      </trkpt>
      <trkpt lat="42.305629" lon="2.253200">
        <ele>1485.8</ele>
        <time>2018-06-11T06:52:40Z</time>
      </trkpt>
      <trkpt lat="42.305606" lon="2.253196">
        <ele>1485.1</ele>
        <time>2018-06-11T06:52:41Z</time>
      </trkpt>
      <trkpt lat="42.305581" lon="2.253177">
        <ele>1483.9</ele>
        <time>2018-06-11T06:52:42Z</time>
      </trkpt>
      <trkpt lat="42.305565" lon="2.253154">
        <ele>1482.8</ele>
        <time>2018-06-11T06:52:42Z</time>
      </trkpt>
      <trkpt lat="42.305556" lon="2.253112">
        <ele>1481.1</ele>
        <time>2018-06-11T06:52:43Z</time>
      </trkpt>
      <trkpt lat="42.305553" lon="2.253072">
        <ele>1479.5</ele>
        <time>2018-06-11T06:52:44Z</time>
      </trkpt>
      <trkpt lat="42.305555" lon="2.253036">
        <ele>1478.3</ele>
        <time>2018-06-11T06:52:45Z</time>
      </trkpt>
      <trkpt lat="42.305648" lon="2.252751">
        <ele>1471.5</ele>
        <time>2018-06-11T06:52:51Z</time>
      </trkpt>
      <trkpt lat="42.305689" lon="2.252642">
        <ele>1468.9</ele>
        <time>2018-06-11T06:52:54Z</time>
      </trkpt>
      <trkpt lat="42.305717" lon="2.252597">
        <ele>1467.9</ele>
        <time>2018-06-11T06:52:55Z</time>
      </trkpt>
      <trkpt lat="42.305992" lon="2.252149">
        <ele>1459.9</ele>
        <time>2018-06-11T06:53:07Z</time>
      </trkpt>
      <trkpt lat="42.306090" lon="2.252001">
        <ele>1457.3</ele>
        <time>2018-06-11T06:53:10Z</time>
      </trkpt>
      <trkpt lat="42.306133" lon="2.251937">
        <ele>1456.3</ele>
        <time>2018-06-11T06:53:12Z</time>
      </trkpt>
      <trkpt lat="42.306155" lon="2.251893">
        <ele>1455.6</ele>
        <time>2018-06-11T06:53:13Z</time>
      </trkpt>
      <trkpt lat="42.306175" lon="2.251847">
        <ele>1454.9</ele>
        <time>2018-06-11T06:53:14Z</time>
      </trkpt>
      <trkpt lat="42.306188" lon="2.251774">
        <ele>1453.3</ele>
        <time>2018-06-11T06:53:16Z</time>
      </trkpt>
      <trkpt lat="42.306208" lon="2.251662">
        <ele>1451.1</ele>
        <time>2018-06-11T06:53:18Z</time>
      </trkpt>
      <trkpt lat="42.306223" lon="2.251577">
        <ele>1449.4</ele>
        <time>2018-06-11T06:53:20Z</time>
      </trkpt>
      <trkpt lat="42.306269" lon="2.251417">
        <ele>1446.5</ele>
        <time>2018-06-11T06:53:23Z</time>
      </trkpt>
      <trkpt lat="42.306303" lon="2.251330">
        <ele>1444.8</ele>
        <time>2018-06-11T06:53:25Z</time>
      </trkpt>
      <trkpt lat="42.306342" lon="2.251248">
        <ele>1443.3</ele>
        <time>2018-06-11T06:53:27Z</time>
      </trkpt>
      <trkpt lat="42.306392" lon="2.251168">
        <ele>1442.4</ele>
        <time>2018-06-11T06:53:29Z</time>
      </trkpt>
      <trkpt lat="42.306433" lon="2.251119">
        <ele>1442.0</ele>
        <time>2018-06-11T06:53:31Z</time>
      </trkpt>
      <trkpt lat="42.306464" lon="2.251068">
        <ele>1441.3</ele>
        <time>2018-06-11T06:53:32Z</time>
      </trkpt>
      <trkpt lat="42.306491" lon="2.251025">
        <ele>1440.7</ele>
        <time>2018-06-11T06:53:33Z</time>
      </trkpt>
      <trkpt lat="42.306504" lon="2.250992">
        <ele>1440.2</ele>
        <time>2018-06-11T06:53:34Z</time>
      </trkpt>
      <trkpt lat="42.306514" lon="2.250939">
        <ele>1439.5</ele>
        <time>2018-06-11T06:53:35Z</time>
      </trkpt>
      <trkpt lat="42.306524" lon="2.250877">
        <ele>1438.9</ele>
        <time>2018-06-11T06:53:36Z</time>
      </trkpt>
      <trkpt lat="42.306533" lon="2.250809">
        <ele>1438.3</ele>
        <time>2018-06-11T06:53:38Z</time>
      </trkpt>
      <trkpt lat="42.306540" lon="2.250741">
        <ele>1437.5</ele>
        <time>2018-06-11T06:53:39Z</time>
      </trkpt>
      <trkpt lat="42.306548" lon="2.250619">
        <ele>1434.9</ele>
        <time>2018-06-11T06:53:41Z</time>
      </trkpt>
      <trkpt lat="42.306554" lon="2.250544">
        <ele>1432.8</ele>
        <time>2018-06-11T06:53:43Z</time>
      </trkpt>
      <trkpt lat="42.306568" lon="2.250485">
        <ele>1431.3</ele>
        <time>2018-06-11T06:53:44Z</time>
      </trkpt>
      <trkpt lat="42.306579" lon="2.250447">
        <ele>1430.4</ele>
        <time>2018-06-11T06:53:45Z</time>
      </trkpt>
      <trkpt lat="42.306602" lon="2.250384">
        <ele>1428.8</ele>
        <time>2018-06-11T06:53:46Z</time>
      </trkpt>
      <trkpt lat="42.306627" lon="2.250338">
        <ele>1427.8</ele>
        <time>2018-06-11T06:53:48Z</time>
      </trkpt>
      <trkpt lat="42.306668" lon="2.250276">
        <ele>1426.7</ele>
        <time>2018-06-11T06:53:49Z</time>
      </trkpt>
      <trkpt lat="42.306697" lon="2.250238">
        <ele>1426.2</ele>
        <time>2018-06-11T06:53:50Z</time>
      </trkpt>
      <trkpt lat="42.306724" lon="2.250176">
        <ele>1425.2</ele>
        <time>2018-06-11T06:53:52Z</time>
      </trkpt>
      <trkpt lat="42.306764" lon="2.250080">
        <ele>1423.7</ele>
        <time>2018-06-11T06:53:54Z</time>
      </trkpt>
      <trkpt lat="42.306796" lon="2.250027">
        <ele>1423.3</ele>
        <time>2018-06-11T06:53:55Z</time>
      </trkpt>
      <trkpt lat="42.306845" lon="2.249969">
        <ele>1422.0</ele>
        <time>2018-06-11T06:53:57Z</time>
      </trkpt>
      <trkpt lat="42.306888" lon="2.249941">
        <ele>1421.0</ele>
        <time>2018-06-11T06:53:58Z</time>
      </trkpt>
      <trkpt lat="42.306952" lon="2.249914">
        <ele>1419.8</ele>
        <time>2018-06-11T06:54:00Z</time>
      </trkpt>
      <trkpt lat="42.306994" lon="2.249894">
        <ele>1418.8</ele>
        <time>2018-06-11T06:54:01Z</time>
      </trkpt>
      <trkpt lat="42.307088" lon="2.249867">
        <ele>1417.1</ele>
        <time>2018-06-11T06:54:04Z</time>
      </trkpt>
      <trkpt lat="42.307159" lon="2.249864">
        <ele>1416.2</ele>
        <time>2018-06-11T06:54:06Z</time>
      </trkpt>
      <trkpt lat="42.307499" lon="2.249833">
        <ele>1413.4</ele>
        <time>2018-06-11T06:54:15Z</time>
      </trkpt>
      <trkpt lat="42.307559" lon="2.249826">
        <ele>1413.2</ele>
        <time>2018-06-11T06:54:16Z</time>
      </trkpt>
      <trkpt lat="42.307591" lon="2.249813">
        <ele>1413.1</ele>
        <time>2018-06-11T06:54:17Z</time>
      </trkpt>
      <trkpt lat="42.307613" lon="2.249796">
        <ele>1413.0</ele>
        <time>2018-06-11T06:54:18Z</time>
      </trkpt>
      <trkpt lat="42.307625" lon="2.249759">
        <ele>1413.0</ele>
        <time>2018-06-11T06:54:19Z</time>
      </trkpt>
      <trkpt lat="42.307623" lon="2.249719">
        <ele>1413.0</ele>
        <time>2018-06-11T06:54:20Z</time>
      </trkpt>
      <trkpt lat="42.307612" lon="2.249687">
        <ele>1412.9</ele>
        <time>2018-06-11T06:54:20Z</time>
      </trkpt>
      <trkpt lat="42.307593" lon="2.249658">
        <ele>1412.8</ele>
        <time>2018-06-11T06:54:21Z</time>
      </trkpt>
      <trkpt lat="42.307568" lon="2.249632">
        <ele>1412.6</ele>
        <time>2018-06-11T06:54:22Z</time>
      </trkpt>
      <trkpt lat="42.307544" lon="2.249610">
        <ele>1412.4</ele>
        <time>2018-06-11T06:54:23Z</time>
      </trkpt>
      <trkpt lat="42.307514" lon="2.249570">
        <ele>1412.3</ele>
        <time>2018-06-11T06:54:24Z</time>
      </trkpt>
      <trkpt lat="42.307492" lon="2.249520">
        <ele>1412.8</ele>
        <time>2018-06-11T06:54:25Z</time>
      </trkpt>
      <trkpt lat="42.307486" lon="2.249457">
        <ele>1413.5</ele>
        <time>2018-06-11T06:54:26Z</time>
      </trkpt>
      <trkpt lat="42.307486" lon="2.249395">
        <ele>1414.3</ele>
        <time>2018-06-11T06:54:27Z</time>
      </trkpt>
      <trkpt lat="42.307493" lon="2.249330">
        <ele>1415.2</ele>
        <time>2018-06-11T06:54:29Z</time>
      </trkpt>
      <trkpt lat="42.307489" lon="2.249274">
        <ele>1416.3</ele>
        <time>2018-06-11T06:54:30Z</time>
      </trkpt>
      <trkpt lat="42.307478" lon="2.249236">
        <ele>1417.2</ele>
        <time>2018-06-11T06:54:31Z</time>
      </trkpt>
      <trkpt lat="42.307447" lon="2.249156">
        <ele>1419.1</ele>
        <time>2018-06-11T06:54:33Z</time>
      </trkpt>
      <trkpt lat="42.307407" lon="2.249079">
        <ele>1420.9</ele>
        <time>2018-06-11T06:54:34Z</time>
      </trkpt>
      <trkpt lat="42.307325" lon="2.248975">
        <ele>1423.2</ele>
        <time>2018-06-11T06:54:37Z</time>
      </trkpt>
      <trkpt lat="42.307261" lon="2.248919">
        <ele>1424.5</ele>
        <time>2018-06-11T06:54:39Z</time>
      </trkpt>
      <trkpt lat="42.307198" lon="2.248876">
        <ele>1425.6</ele>
        <time>2018-06-11T06:54:41Z</time>
      </trkpt>
      <trkpt lat="42.307119" lon="2.248852">
        <ele>1426.3</ele>
        <time>2018-06-11T06:54:43Z</time>
      </trkpt>
      <trkpt lat="42.307013" lon="2.248816">
        <ele>1425.2</ele>
        <time>2018-06-11T06:54:46Z</time>
      </trkpt>
      <trkpt lat="42.306909" lon="2.248770">
        <ele>1423.0</ele>
        <time>2018-06-11T06:54:49Z</time>
      </trkpt>
      <trkpt lat="42.306800" lon="2.248699">
        <ele>1420.1</ele>
        <time>2018-06-11T06:54:53Z</time>
      </trkpt>
      <trkpt lat="42.306761" lon="2.248664">
        <ele>1418.0</ele>
        <time>2018-06-11T06:54:54Z</time>
      </trkpt>
      <trkpt lat="42.306687" lon="2.248581">
        <ele>1413.9</ele>
        <time>2018-06-11T06:54:57Z</time>
      </trkpt>
      <trkpt lat="42.306645" lon="2.248535">
        <ele>1411.4</ele>
        <time>2018-06-11T06:54:58Z</time>
      </trkpt>
      <trkpt lat="42.306581" lon="2.248455">
        <ele>1407.3</ele>
        <time>2018-06-11T06:55:01Z</time>
      </trkpt>
      <trkpt lat="42.306553" lon="2.248412">
        <ele>1405.2</ele>
        <time>2018-06-11T06:55:02Z</time>
      </trkpt>
      <trkpt lat="42.306517" lon="2.248342">
        <ele>1402.5</ele>
        <time>2018-06-11T06:55:04Z</time>
      </trkpt>
      <trkpt lat="42.306493" lon="2.248236">
        <ele>1400.4</ele>
        <time>2018-06-11T06:55:06Z</time>
      </trkpt>
      <trkpt lat="42.306477" lon="2.248132">
        <ele>1398.0</ele>
        <time>2018-06-11T06:55:08Z</time>
      </trkpt>
      <trkpt lat="42.306474" lon="2.248025">
        <ele>1395.8</ele>
        <time>2018-06-11T06:55:10Z</time>
      </trkpt>
      <trkpt lat="42.306481" lon="2.247902">
        <ele>1393.6</ele>
        <time>2018-06-11T06:55:13Z</time>
      </trkpt>
      <trkpt lat="42.306499" lon="2.247785">
        <ele>1391.6</ele>
        <time>2018-06-11T06:55:15Z</time>
      </trkpt>
      <trkpt lat="42.306515" lon="2.247704">
        <ele>1390.2</ele>
        <time>2018-06-11T06:55:17Z</time>
      </trkpt>
      <trkpt lat="42.306527" lon="2.247657">
        <ele>1389.5</ele>
        <time>2018-06-11T06:55:18Z</time>
      </trkpt>
      <trkpt lat="42.306657" lon="2.247387">
        <ele>1397.7</ele>
        <time>2018-06-11T06:55:24Z</time>
      </trkpt>
      <trkpt lat="42.306764" lon="2.247171">
        <ele>1399.7</ele>
        <time>2018-06-11T06:55:30Z</time>
      </trkpt>
      <trkpt lat="42.306806" lon="2.247057">
        <ele>1399.3</ele>
        <time>2018-06-11T06:55:32Z</time>
      </trkpt>
      <trkpt lat="42.306829" lon="2.246980">
        <ele>1398.8</ele>
        <time>2018-06-11T06:55:34Z</time>
      </trkpt>
      <trkpt lat="42.306845" lon="2.246874">
        <ele>1397.0</ele>
        <time>2018-06-11T06:55:36Z</time>
      </trkpt>
      <trkpt lat="42.306868" lon="2.246737">
        <ele>1395.1</ele>
        <time>2018-06-11T06:55:39Z</time>
      </trkpt>
      <trkpt lat="42.306914" lon="2.246519">
        <ele>1393.8</ele>
        <time>2018-06-11T06:55:43Z</time>
      </trkpt>
      <trkpt lat="42.306985" lon="2.246251">
        <ele>1394.2</ele>
        <time>2018-06-11T06:55:49Z</time>
      </trkpt>
      <trkpt lat="42.307165" lon="2.245677">
        <ele>1389.2</ele>
        <time>2018-06-11T06:56:01Z</time>
      </trkpt>
      <trkpt lat="42.307313" lon="2.245258">
        <ele>1386.0</ele>
        <time>2018-06-11T06:56:10Z</time>
      </trkpt>
      <trkpt lat="42.307373" lon="2.245106">
        <ele>1385.1</ele>
        <time>2018-06-11T06:56:13Z</time>
      </trkpt>
      <trkpt lat="42.307465" lon="2.244970">
        <ele>1388.8</ele>
        <time>2018-06-11T06:56:17Z</time>
      </trkpt>
      <trkpt lat="42.307530" lon="2.244835">
        <ele>1391.5</ele>
        <time>2018-06-11T06:56:20Z</time>
      </trkpt>
      <trkpt lat="42.307623" lon="2.244559">
        <ele>1394.5</ele>
        <time>2018-06-11T06:56:26Z</time>
      </trkpt>
      <trkpt lat="42.307663" lon="2.244445">
        <ele>1394.3</ele>
        <time>2018-06-11T06:56:29Z</time>
      </trkpt>
      <trkpt lat="42.307680" lon="2.244359">
        <ele>1393.2</ele>
        <time>2018-06-11T06:56:31Z</time>
      </trkpt>
      <trkpt lat="42.307693" lon="2.244260">
        <ele>1391.8</ele>
        <time>2018-06-11T06:56:33Z</time>
      </trkpt>
      <trkpt lat="42.307715" lon="2.244055">
        <ele>1389.2</ele>
        <time>2018-06-11T06:56:37Z</time>
      </trkpt>
      <trkpt lat="42.307738" lon="2.243862">
        <ele>1388.0</ele>
        <time>2018-06-11T06:56:41Z</time>
      </trkpt>
      <trkpt lat="42.307750" lon="2.243644">
        <ele>1387.7</ele>
        <time>2018-06-11T06:56:45Z</time>
      </trkpt>
      <trkpt lat="42.307773" lon="2.243384">
        <ele>1389.0</ele>
        <time>2018-06-11T06:56:50Z</time>
      </trkpt>
      <trkpt lat="42.307785" lon="2.243216">
        <ele>1388.9</ele>
        <time>2018-06-11T06:56:53Z</time>
      </trkpt>
      <trkpt lat="42.307787" lon="2.243121">
        <ele>1387.4</ele>
        <time>2018-06-11T06:56:55Z</time>
      </trkpt>
      <trkpt lat="42.307780" lon="2.243015">
        <ele>1384.7</ele>
        <time>2018-06-11T06:56:57Z</time>
      </trkpt>
      <trkpt lat="42.307770" lon="2.242906">
        <ele>1381.8</ele>
        <time>2018-06-11T06:57:00Z</time>
      </trkpt>
      <trkpt lat="42.307760" lon="2.242768">
        <ele>1377.3</ele>
        <time>2018-06-11T06:57:02Z</time>
      </trkpt>
      <trkpt lat="42.307751" lon="2.242674">
        <ele>1374.3</ele>
        <time>2018-06-11T06:57:04Z</time>
      </trkpt>
      <trkpt lat="42.307756" lon="2.242600">
        <ele>1371.4</ele>
        <time>2018-06-11T06:57:06Z</time>
      </trkpt>
      <trkpt lat="42.307766" lon="2.242519">
        <ele>1367.5</ele>
        <time>2018-06-11T06:57:08Z</time>
      </trkpt>
      <trkpt lat="42.307777" lon="2.242463">
        <ele>1364.9</ele>
        <time>2018-06-11T06:57:09Z</time>
      </trkpt>
      <trkpt lat="42.307799" lon="2.242389">
        <ele>1361.7</ele>
        <time>2018-06-11T06:57:11Z</time>
      </trkpt>
      <trkpt lat="42.307827" lon="2.242320">
        <ele>1359.2</ele>
        <time>2018-06-11T06:57:13Z</time>
      </trkpt>
      <trkpt lat="42.308110" lon="2.241896">
        <ele>1352.0</ele>
        <time>2018-06-11T06:57:24Z</time>
      </trkpt>
      <trkpt lat="42.308231" lon="2.241666">
        <ele>1349.2</ele>
        <time>2018-06-11T06:57:29Z</time>
      </trkpt>
      <trkpt lat="42.308514" lon="2.241161">
        <ele>1358.5</ele>
        <time>2018-06-11T06:57:42Z</time>
      </trkpt>
      <trkpt lat="42.308609" lon="2.241011">
        <ele>1364.3</ele>
        <time>2018-06-11T06:57:46Z</time>
      </trkpt>
      <trkpt lat="42.308665" lon="2.240942">
        <ele>1367.5</ele>
        <time>2018-06-11T06:57:48Z</time>
      </trkpt>
      <trkpt lat="42.308717" lon="2.240903">
        <ele>1370.3</ele>
        <time>2018-06-11T06:57:50Z</time>
      </trkpt>
      <trkpt lat="42.308765" lon="2.240873">
        <ele>1372.4</ele>
        <time>2018-06-11T06:57:52Z</time>
      </trkpt>
      <trkpt lat="42.308862" lon="2.240869">
        <ele>1374.5</ele>
        <time>2018-06-11T06:57:54Z</time>
      </trkpt>
      <trkpt lat="42.309003" lon="2.240863">
        <ele>1377.5</ele>
        <time>2018-06-11T06:57:58Z</time>
      </trkpt>
      <trkpt lat="42.309250" lon="2.240916">
        <ele>1381.7</ele>
        <time>2018-06-11T06:58:05Z</time>
      </trkpt>
      <trkpt lat="42.309427" lon="2.240941">
        <ele>1382.1</ele>
        <time>2018-06-11T06:58:09Z</time>
      </trkpt>
      <trkpt lat="42.309535" lon="2.240951">
        <ele>1381.7</ele>
        <time>2018-06-11T06:58:12Z</time>
      </trkpt>
      <trkpt lat="42.309611" lon="2.240929">
        <ele>1383.1</ele>
        <time>2018-06-11T06:58:14Z</time>
      </trkpt>
      <trkpt lat="42.309649" lon="2.240905">
        <ele>1384.9</ele>
        <time>2018-06-11T06:58:16Z</time>
      </trkpt>
      <trkpt lat="42.309678" lon="2.240853">
        <ele>1386.7</ele>
        <time>2018-06-11T06:58:17Z</time>
      </trkpt>
      <trkpt lat="42.309705" lon="2.240797">
        <ele>1388.3</ele>
        <time>2018-06-11T06:58:18Z</time>
      </trkpt>
      <trkpt lat="42.309699" lon="2.240751">
        <ele>1388.8</ele>
        <time>2018-06-11T06:58:19Z</time>
      </trkpt>
      <trkpt lat="42.309688" lon="2.240712">
        <ele>1389.2</ele>
        <time>2018-06-11T06:58:20Z</time>
      </trkpt>
      <trkpt lat="42.309676" lon="2.240677">
        <ele>1389.9</ele>
        <time>2018-06-11T06:58:21Z</time>
      </trkpt>
      <trkpt lat="42.309644" lon="2.240634">
        <ele>1390.8</ele>
        <time>2018-06-11T06:58:22Z</time>
      </trkpt>
      <trkpt lat="42.309581" lon="2.240313">
        <ele>1400.1</ele>
        <time>2018-06-11T06:58:29Z</time>
      </trkpt>
      <trkpt lat="42.309170" lon="2.240058">
        <ele>1399.0</ele>
        <time>2018-06-11T06:58:41Z</time>
      </trkpt>
      <trkpt lat="42.308883" lon="2.239913">
        <ele>1395.9</ele>
        <time>2018-06-11T06:58:49Z</time>
      </trkpt>
      <trkpt lat="42.308678" lon="2.239841">
        <ele>1391.1</ele>
        <time>2018-06-11T06:58:55Z</time>
      </trkpt>
      <trkpt lat="42.308309" lon="2.239744">
        <ele>1382.2</ele>
        <time>2018-06-11T06:59:05Z</time>
      </trkpt>
      <trkpt lat="42.308215" lon="2.239705">
        <ele>1380.4</ele>
        <time>2018-06-11T06:59:07Z</time>
      </trkpt>
      <trkpt lat="42.308159" lon="2.239666">
        <ele>1379.6</ele>
        <time>2018-06-11T06:59:09Z</time>
      </trkpt>
      <trkpt lat="42.308084" lon="2.239618">
        <ele>1378.5</ele>
        <time>2018-06-11T06:59:11Z</time>
      </trkpt>
      <trkpt lat="42.308041" lon="2.239575">
        <ele>1377.8</ele>
        <time>2018-06-11T06:59:13Z</time>
      </trkpt>
      <trkpt lat="42.308015" lon="2.239524">
        <ele>1377.3</ele>
        <time>2018-06-11T06:59:14Z</time>
      </trkpt>
      <trkpt lat="42.308005" lon="2.239486">
        <ele>1377.0</ele>
        <time>2018-06-11T06:59:15Z</time>
      </trkpt>
      <trkpt lat="42.308002" lon="2.239445">
        <ele>1376.9</ele>
        <time>2018-06-11T06:59:16Z</time>
      </trkpt>
      <trkpt lat="42.308000" lon="2.239400">
        <ele>1376.7</ele>
        <time>2018-06-11T06:59:17Z</time>
      </trkpt>
      <trkpt lat="42.308015" lon="2.239351">
        <ele>1376.9</ele>
        <time>2018-06-11T06:59:18Z</time>
      </trkpt>
      <trkpt lat="42.308112" lon="2.238916">
        <ele>1373.6</ele>
        <time>2018-06-11T06:59:26Z</time>
      </trkpt>
      <trkpt lat="42.308145" lon="2.238723">
        <ele>1372.3</ele>
        <time>2018-06-11T06:59:30Z</time>
      </trkpt>
      <trkpt lat="42.308157" lon="2.238589">
        <ele>1371.1</ele>
        <time>2018-06-11T06:59:33Z</time>
      </trkpt>
      <trkpt lat="42.308162" lon="2.238513">
        <ele>1370.3</ele>
        <time>2018-06-11T06:59:35Z</time>
      </trkpt>
      <trkpt lat="42.308163" lon="2.238328">
        <ele>1367.8</ele>
        <time>2018-06-11T06:59:38Z</time>
      </trkpt>
      <trkpt lat="42.308140" lon="2.238040">
        <ele>1363.2</ele>
        <time>2018-06-11T06:59:44Z</time>
      </trkpt>
      <trkpt lat="42.308112" lon="2.237906">
        <ele>1359.8</ele>
        <time>2018-06-11T06:59:47Z</time>
      </trkpt>
      <trkpt lat="42.308085" lon="2.237814">
        <ele>1355.8</ele>
        <time>2018-06-11T06:59:49Z</time>
      </trkpt>
      <trkpt lat="42.308080" lon="2.237770">
        <ele>1354.5</ele>
        <time>2018-06-11T06:59:50Z</time>
      </trkpt>
      <trkpt lat="42.308081" lon="2.237731">
        <ele>1353.7</ele>
        <time>2018-06-11T06:59:51Z</time>
      </trkpt>
      <trkpt lat="42.308090" lon="2.237697">
        <ele>1353.6</ele>
        <time>2018-06-11T06:59:51Z</time>
      </trkpt>
      <trkpt lat="42.308109" lon="2.237662">
        <ele>1354.0</ele>
        <time>2018-06-11T06:59:52Z</time>
      </trkpt>
      <trkpt lat="42.308145" lon="2.237613">
        <ele>1355.1</ele>
        <time>2018-06-11T06:59:54Z</time>
      </trkpt>
      <trkpt lat="42.308258" lon="2.237505">
        <ele>1358.8</ele>
        <time>2018-06-11T06:59:57Z</time>
      </trkpt>
      <trkpt lat="42.308344" lon="2.237435">
        <ele>1362.0</ele>
        <time>2018-06-11T07:00:00Z</time>
      </trkpt>
      <trkpt lat="42.308385" lon="2.237396">
        <ele>1363.5</ele>
        <time>2018-06-11T07:00:02Z</time>
      </trkpt>
      <trkpt lat="42.308418" lon="2.237340">
        <ele>1364.1</ele>
        <time>2018-06-11T07:00:03Z</time>
      </trkpt>
      <trkpt lat="42.308434" lon="2.237311">
        <ele>1364.2</ele>
        <time>2018-06-11T07:00:04Z</time>
      </trkpt>
      <trkpt lat="42.308452" lon="2.237258">
        <ele>1363.8</ele>
        <time>2018-06-11T07:00:05Z</time>
      </trkpt>
      <trkpt lat="42.308457" lon="2.237189">
        <ele>1362.1</ele>
        <time>2018-06-11T07:00:06Z</time>
      </trkpt>
      <trkpt lat="42.308455" lon="2.237141">
        <ele>1360.6</ele>
        <time>2018-06-11T07:00:07Z</time>
      </trkpt>
      <trkpt lat="42.308447" lon="2.237090">
        <ele>1358.7</ele>
        <time>2018-06-11T07:00:08Z</time>
      </trkpt>
      <trkpt lat="42.308439" lon="2.237028">
        <ele>1356.5</ele>
        <time>2018-06-11T07:00:10Z</time>
      </trkpt>
      <trkpt lat="42.308434" lon="2.236992">
        <ele>1355.2</ele>
        <time>2018-06-11T07:00:10Z</time>
      </trkpt>
      <trkpt lat="42.308435" lon="2.236939">
        <ele>1353.7</ele>
        <time>2018-06-11T07:00:12Z</time>
      </trkpt>
      <trkpt lat="42.308457" lon="2.236872">
        <ele>1353.0</ele>
        <time>2018-06-11T07:00:13Z</time>
      </trkpt>
      <trkpt lat="42.308481" lon="2.236835">
        <ele>1353.1</ele>
        <time>2018-06-11T07:00:14Z</time>
      </trkpt>
      <trkpt lat="42.308533" lon="2.236758">
        <ele>1350.9</ele>
        <time>2018-06-11T07:00:16Z</time>
      </trkpt>
      <trkpt lat="42.308607" lon="2.236678">
        <ele>1348.9</ele>
        <time>2018-06-11T07:00:19Z</time>
      </trkpt>
      <trkpt lat="42.308652" lon="2.236598">
        <ele>1346.5</ele>
        <time>2018-06-11T07:00:21Z</time>
      </trkpt>
      <trkpt lat="42.308686" lon="2.236507">
        <ele>1343.5</ele>
        <time>2018-06-11T07:00:23Z</time>
      </trkpt>
      <trkpt lat="42.308734" lon="2.236357">
        <ele>1338.8</ele>
        <time>2018-06-11T07:00:26Z</time>
      </trkpt>
      <trkpt lat="42.308770" lon="2.236281">
        <ele>1337.2</ele>
        <time>2018-06-11T07:00:28Z</time>
      </trkpt>
      <trkpt lat="42.308802" lon="2.236227">
        <ele>1335.8</ele>
        <time>2018-06-11T07:00:29Z</time>
      </trkpt>
      <trkpt lat="42.308894" lon="2.236141">
        <ele>1334.8</ele>
        <time>2018-06-11T07:00:32Z</time>
      </trkpt>
      <trkpt lat="42.309037" lon="2.236051">
        <ele>1335.8</ele>
        <time>2018-06-11T07:00:37Z</time>
      </trkpt>
      <trkpt lat="42.309137" lon="2.235939">
        <ele>1331.7</ele>
        <time>2018-06-11T07:00:40Z</time>
      </trkpt>
      <trkpt lat="42.309181" lon="2.235868">
        <ele>1329.5</ele>
        <time>2018-06-11T07:00:42Z</time>
      </trkpt>
      <trkpt lat="42.309213" lon="2.235796">
        <ele>1327.2</ele>
        <time>2018-06-11T07:00:44Z</time>
      </trkpt>
      <trkpt lat="42.309237" lon="2.235753">
        <ele>1326.0</ele>
        <time>2018-06-11T07:00:45Z</time>
      </trkpt>
      <trkpt lat="42.309296" lon="2.235707">
        <ele>1326.1</ele>
        <time>2018-06-11T07:00:47Z</time>
      </trkpt>
      <trkpt lat="42.309328" lon="2.235662">
        <ele>1325.0</ele>
        <time>2018-06-11T07:00:48Z</time>
      </trkpt>
      <trkpt lat="42.309347" lon="2.235619">
        <ele>1323.5</ele>
        <time>2018-06-11T07:00:49Z</time>
      </trkpt>
      <trkpt lat="42.309364" lon="2.235553">
        <ele>1320.9</ele>
        <time>2018-06-11T07:00:50Z</time>
      </trkpt>
      <trkpt lat="42.309387" lon="2.235467">
        <ele>1317.8</ele>
        <time>2018-06-11T07:00:52Z</time>
      </trkpt>
      <trkpt lat="42.309402" lon="2.235421">
        <ele>1316.4</ele>
        <time>2018-06-11T07:00:53Z</time>
      </trkpt>
      <trkpt lat="42.309429" lon="2.235365">
        <ele>1315.8</ele>
        <time>2018-06-11T07:00:55Z</time>
      </trkpt>
      <trkpt lat="42.309476" lon="2.235310">
        <ele>1316.3</ele>
        <time>2018-06-11T07:00:56Z</time>
      </trkpt>
      <trkpt lat="42.309516" lon="2.235274">
        <ele>1317.0</ele>
        <time>2018-06-11T07:00:58Z</time>
      </trkpt>
      <trkpt lat="42.309541" lon="2.235236">
        <ele>1316.7</ele>
        <time>2018-06-11T07:00:59Z</time>
      </trkpt>
      <trkpt lat="42.309601" lon="2.235103">
        <ele>1316.2</ele>
        <time>2018-06-11T07:01:02Z</time>
      </trkpt>
      <trkpt lat="42.309562" lon="2.235182">
        <ele>1315.7</ele>
        <time>2018-06-11T07:01:04Z</time>
      </trkpt>
      <trkpt lat="42.309630" lon="2.235055">
        <ele>1317.9</ele>
        <time>2018-06-11T07:01:07Z</time>
      </trkpt>
      <trkpt lat="42.309741" lon="2.234893">
        <ele>1324.0</ele>
        <time>2018-06-11T07:01:11Z</time>
      </trkpt>
      <trkpt lat="42.309816" lon="2.234752">
        <ele>1326.1</ele>
        <time>2018-06-11T07:01:15Z</time>
      </trkpt>
      <trkpt lat="42.309842" lon="2.234700">
        <ele>1326.9</ele>
        <time>2018-06-11T07:01:16Z</time>
      </trkpt>
      <trkpt lat="42.309850" lon="2.234658">
        <ele>1326.6</ele>
        <time>2018-06-11T07:01:17Z</time>
      </trkpt>
      <trkpt lat="42.309847" lon="2.234599">
        <ele>1325.3</ele>
        <time>2018-06-11T07:01:18Z</time>
      </trkpt>
      <trkpt lat="42.309827" lon="2.234552">
        <ele>1323.0</ele>
        <time>2018-06-11T07:01:19Z</time>
      </trkpt>
      <trkpt lat="42.309802" lon="2.234506">
        <ele>1320.4</ele>
        <time>2018-06-11T07:01:20Z</time>
      </trkpt>
      <trkpt lat="42.309772" lon="2.234437">
        <ele>1317.0</ele>
        <time>2018-06-11T07:01:22Z</time>
      </trkpt>
      <trkpt lat="42.309761" lon="2.234391">
        <ele>1315.3</ele>
        <time>2018-06-11T07:01:23Z</time>
      </trkpt>
      <trkpt lat="42.309755" lon="2.234336">
        <ele>1313.9</ele>
        <time>2018-06-11T07:01:24Z</time>
      </trkpt>
      <trkpt lat="42.309757" lon="2.234250">
        <ele>1312.6</ele>
        <time>2018-06-11T07:01:26Z</time>
      </trkpt>
      <trkpt lat="42.309766" lon="2.234062">
        <ele>1310.1</ele>
        <time>2018-06-11T07:01:30Z</time>
      </trkpt>
      <trkpt lat="42.309766" lon="2.233950">
        <ele>1308.2</ele>
        <time>2018-06-11T07:01:32Z</time>
      </trkpt>
      <trkpt lat="42.309772" lon="2.233830">
        <ele>1306.6</ele>
        <time>2018-06-11T07:01:34Z</time>
      </trkpt>
      <trkpt lat="42.309782" lon="2.233770">
        <ele>1306.2</ele>
        <time>2018-06-11T07:01:36Z</time>
      </trkpt>
      <trkpt lat="42.309814" lon="2.233706">
        <ele>1307.5</ele>
        <time>2018-06-11T07:01:37Z</time>
      </trkpt>
      <trkpt lat="42.309846" lon="2.233643">
        <ele>1308.8</ele>
        <time>2018-06-11T07:01:39Z</time>
      </trkpt>
      <trkpt lat="42.309867" lon="2.233587">
        <ele>1309.7</ele>
        <time>2018-06-11T07:01:40Z</time>
      </trkpt>
      <trkpt lat="42.309873" lon="2.233521">
        <ele>1309.3</ele>
        <time>2018-06-11T07:01:41Z</time>
      </trkpt>
      <trkpt lat="42.309873" lon="2.233460">
        <ele>1308.7</ele>
        <time>2018-06-11T07:01:42Z</time>
      </trkpt>
      <trkpt lat="42.309868" lon="2.233396">
        <ele>1308.2</ele>
        <time>2018-06-11T07:01:44Z</time>
      </trkpt>
      <trkpt lat="42.309866" lon="2.233333">
        <ele>1307.8</ele>
        <time>2018-06-11T07:01:45Z</time>
      </trkpt>
      <trkpt lat="42.309863" lon="2.233258">
        <ele>1307.4</ele>
        <time>2018-06-11T07:01:46Z</time>
      </trkpt>
      <trkpt lat="42.309869" lon="2.233147">
        <ele>1307.6</ele>
        <time>2018-06-11T07:01:49Z</time>
      </trkpt>
      <trkpt lat="42.309886" lon="2.232918">
        <ele>1308.5</ele>
        <time>2018-06-11T07:01:53Z</time>
      </trkpt>
      <trkpt lat="42.309895" lon="2.232805">
        <ele>1308.6</ele>
        <time>2018-06-11T07:01:55Z</time>
      </trkpt>
      <trkpt lat="42.309892" lon="2.232758">
        <ele>1308.2</ele>
        <time>2018-06-11T07:01:56Z</time>
      </trkpt>
      <trkpt lat="42.309883" lon="2.232707">
        <ele>1307.4</ele>
        <time>2018-06-11T07:01:57Z</time>
      </trkpt>
      <trkpt lat="42.309864" lon="2.232623">
        <ele>1305.9</ele>
        <time>2018-06-11T07:01:59Z</time>
      </trkpt>
      <trkpt lat="42.309827" lon="2.232460">
        <ele>1300.8</ele>
        <time>2018-06-11T07:02:03Z</time>
      </trkpt>
      <trkpt lat="42.309805" lon="2.232334">
        <ele>1297.4</ele>
        <time>2018-06-11T07:02:05Z</time>
      </trkpt>
      <trkpt lat="42.309795" lon="2.232243">
        <ele>1295.6</ele>
        <time>2018-06-11T07:02:07Z</time>
      </trkpt>
      <trkpt lat="42.309787" lon="2.232125">
        <ele>1293.6</ele>
        <time>2018-06-11T07:02:10Z</time>
      </trkpt>
      <trkpt lat="42.309784" lon="2.231980">
        <ele>1290.3</ele>
        <time>2018-06-11T07:02:12Z</time>
      </trkpt>
      <trkpt lat="42.309793" lon="2.231822">
        <ele>1287.0</ele>
        <time>2018-06-11T07:02:16Z</time>
      </trkpt>
      <trkpt lat="42.309812" lon="2.231683">
        <ele>1282.8</ele>
        <time>2018-06-11T07:02:19Z</time>
      </trkpt>
      <trkpt lat="42.309842" lon="2.231590">
        <ele>1280.7</ele>
        <time>2018-06-11T07:02:21Z</time>
      </trkpt>
      <trkpt lat="42.309865" lon="2.231540">
        <ele>1279.6</ele>
        <time>2018-06-11T07:02:22Z</time>
      </trkpt>
      <trkpt lat="42.309908" lon="2.231478">
        <ele>1277.8</ele>
        <time>2018-06-11T07:02:24Z</time>
      </trkpt>
      <trkpt lat="42.310046" lon="2.231306">
        <ele>1275.3</ele>
        <time>2018-06-11T07:02:29Z</time>
      </trkpt>
      <trkpt lat="42.310309" lon="2.230985">
        <ele>1266.3</ele>
        <time>2018-06-11T07:02:38Z</time>
      </trkpt>
      <trkpt lat="42.310600" lon="2.230573">
        <ele>1258.7</ele>
        <time>2018-06-11T07:02:50Z</time>
      </trkpt>
      <trkpt lat="42.310675" lon="2.230430">
        <ele>1254.2</ele>
        <time>2018-06-11T07:02:53Z</time>
      </trkpt>
      <trkpt lat="42.310813" lon="2.230257">
        <ele>1252.2</ele>
        <time>2018-06-11T07:02:58Z</time>
      </trkpt>
      <trkpt lat="42.310891" lon="2.230144">
        <ele>1249.9</ele>
        <time>2018-06-11T07:03:01Z</time>
      </trkpt>
      <trkpt lat="42.310954" lon="2.230084">
        <ele>1250.1</ele>
        <time>2018-06-11T07:03:03Z</time>
      </trkpt>
      <trkpt lat="42.311010" lon="2.230046">
        <ele>1251.2</ele>
        <time>2018-06-11T07:03:05Z</time>
      </trkpt>
      <trkpt lat="42.311058" lon="2.230004">
        <ele>1252.0</ele>
        <time>2018-06-11T07:03:06Z</time>
      </trkpt>
      <trkpt lat="42.311089" lon="2.229955">
        <ele>1251.7</ele>
        <time>2018-06-11T07:03:08Z</time>
      </trkpt>
      <trkpt lat="42.311155" lon="2.229849">
        <ele>1250.4</ele>
        <time>2018-06-11T07:03:10Z</time>
      </trkpt>
      <trkpt lat="42.311238" lon="2.229695">
        <ele>1245.4</ele>
        <time>2018-06-11T07:03:14Z</time>
      </trkpt>
      <trkpt lat="42.311265" lon="2.229619">
        <ele>1242.3</ele>
        <time>2018-06-11T07:03:16Z</time>
      </trkpt>
      <trkpt lat="42.311280" lon="2.229538">
        <ele>1238.9</ele>
        <time>2018-06-11T07:03:18Z</time>
      </trkpt>
      <trkpt lat="42.311304" lon="2.229432">
        <ele>1234.2</ele>
        <time>2018-06-11T07:03:20Z</time>
      </trkpt>
      <trkpt lat="42.311327" lon="2.229375">
        <ele>1231.5</ele>
        <time>2018-06-11T07:03:22Z</time>
      </trkpt>
      <trkpt lat="42.311362" lon="2.229339">
        <ele>1229.6</ele>
        <time>2018-06-11T07:03:23Z</time>
      </trkpt>
      <trkpt lat="42.311392" lon="2.229322">
        <ele>1228.5</ele>
        <time>2018-06-11T07:03:24Z</time>
      </trkpt>
      <trkpt lat="42.311458" lon="2.229312">
        <ele>1227.7</ele>
        <time>2018-06-11T07:03:26Z</time>
      </trkpt>
      <trkpt lat="42.311509" lon="2.229285">
        <ele>1226.3</ele>
        <time>2018-06-11T07:03:27Z</time>
      </trkpt>
      <trkpt lat="42.311624" lon="2.229200">
        <ele>1225.4</ele>
        <time>2018-06-11T07:03:31Z</time>
      </trkpt>
      <trkpt lat="42.311711" lon="2.229119">
        <ele>1223.8</ele>
        <time>2018-06-11T07:03:34Z</time>
      </trkpt>
      <trkpt lat="42.311954" lon="2.229001">
        <ele>1220.5</ele>
        <time>2018-06-11T07:03:40Z</time>
      </trkpt>
      <trkpt lat="42.312191" lon="2.228867">
        <ele>1217.4</ele>
        <time>2018-06-11T07:03:47Z</time>
      </trkpt>
      <trkpt lat="42.312260" lon="2.228848">
        <ele>1218.0</ele>
        <time>2018-06-11T07:03:49Z</time>
      </trkpt>
      <trkpt lat="42.312306" lon="2.228817">
        <ele>1217.7</ele>
        <time>2018-06-11T07:03:51Z</time>
      </trkpt>
      <trkpt lat="42.312356" lon="2.228761">
        <ele>1216.4</ele>
        <time>2018-06-11T07:03:52Z</time>
      </trkpt>
      <trkpt lat="42.312412" lon="2.228667">
        <ele>1216.3</ele>
        <time>2018-06-11T07:03:55Z</time>
      </trkpt>
      <trkpt lat="42.312508" lon="2.228493">
        <ele>1215.2</ele>
        <time>2018-06-11T07:03:59Z</time>
      </trkpt>
      <trkpt lat="42.312544" lon="2.228446">
        <ele>1215.2</ele>
        <time>2018-06-11T07:04:00Z</time>
      </trkpt>
      <trkpt lat="42.312572" lon="2.228417">
        <ele>1215.5</ele>
        <time>2018-06-11T07:04:01Z</time>
      </trkpt>
      <trkpt lat="42.312614" lon="2.228383">
        <ele>1216.1</ele>
        <time>2018-06-11T07:04:02Z</time>
      </trkpt>
      <trkpt lat="42.312662" lon="2.228350">
        <ele>1216.7</ele>
        <time>2018-06-11T07:04:04Z</time>
      </trkpt>
      <trkpt lat="42.312688" lon="2.228312">
        <ele>1216.7</ele>
        <time>2018-06-11T07:04:05Z</time>
      </trkpt>
      <trkpt lat="42.312743" lon="2.228208">
        <ele>1217.1</ele>
        <time>2018-06-11T07:04:07Z</time>
      </trkpt>
      <trkpt lat="42.312770" lon="2.228133">
        <ele>1216.8</ele>
        <time>2018-06-11T07:04:09Z</time>
      </trkpt>
      <trkpt lat="42.312814" lon="2.228055">
        <ele>1216.9</ele>
        <time>2018-06-11T07:04:11Z</time>
      </trkpt>
      <trkpt lat="42.312857" lon="2.228004">
        <ele>1217.4</ele>
        <time>2018-06-11T07:04:12Z</time>
      </trkpt>
      <trkpt lat="42.312921" lon="2.227994">
        <ele>1219.2</ele>
        <time>2018-06-11T07:04:14Z</time>
      </trkpt>
      <trkpt lat="42.312978" lon="2.228021">
        <ele>1221.1</ele>
        <time>2018-06-11T07:04:16Z</time>
      </trkpt>
      <trkpt lat="42.313033" lon="2.228032">
        <ele>1222.7</ele>
        <time>2018-06-11T07:04:17Z</time>
      </trkpt>
      <trkpt lat="42.313072" lon="2.228025">
        <ele>1223.6</ele>
        <time>2018-06-11T07:04:18Z</time>
      </trkpt>
      <trkpt lat="42.313092" lon="2.228009">
        <ele>1224.0</ele>
        <time>2018-06-11T07:04:19Z</time>
      </trkpt>
      <trkpt lat="42.313106" lon="2.227967">
        <ele>1223.9</ele>
        <time>2018-06-11T07:04:20Z</time>
      </trkpt>
      <trkpt lat="42.313112" lon="2.227926">
        <ele>1223.7</ele>
        <time>2018-06-11T07:04:21Z</time>
      </trkpt>
      <trkpt lat="42.313110" lon="2.227880">
        <ele>1222.8</ele>
        <time>2018-06-11T07:04:22Z</time>
      </trkpt>
      <trkpt lat="42.313099" lon="2.227837">
        <ele>1221.6</ele>
        <time>2018-06-11T07:04:23Z</time>
      </trkpt>
      <trkpt lat="42.313076" lon="2.227727">
        <ele>1218.6</ele>
        <time>2018-06-11T07:04:25Z</time>
      </trkpt>
      <trkpt lat="42.313054" lon="2.227578">
        <ele>1214.9</ele>
        <time>2018-06-11T07:04:28Z</time>
      </trkpt>
      <trkpt lat="42.313045" lon="2.227390">
        <ele>1211.0</ele>
        <time>2018-06-11T07:04:32Z</time>
      </trkpt>
      <trkpt lat="42.313063" lon="2.227227">
        <ele>1211.1</ele>
        <time>2018-06-11T07:04:35Z</time>
      </trkpt>
      <trkpt lat="42.313106" lon="2.227069">
        <ele>1212.8</ele>
        <time>2018-06-11T07:04:38Z</time>
      </trkpt>
      <trkpt lat="42.313132" lon="2.226989">
        <ele>1213.4</ele>
        <time>2018-06-11T07:04:40Z</time>
      </trkpt>
      <trkpt lat="42.313178" lon="2.226921">
        <ele>1215.0</ele>
        <time>2018-06-11T07:04:42Z</time>
      </trkpt>
      <trkpt lat="42.313202" lon="2.226884">
        <ele>1215.8</ele>
        <time>2018-06-11T07:04:43Z</time>
      </trkpt>
      <trkpt lat="42.313224" lon="2.226845">
        <ele>1216.1</ele>
        <time>2018-06-11T07:04:44Z</time>
      </trkpt>
      <trkpt lat="42.313242" lon="2.226796">
        <ele>1216.3</ele>
        <time>2018-06-11T07:04:45Z</time>
      </trkpt>
      <trkpt lat="42.313252" lon="2.226712">
        <ele>1215.5</ele>
        <time>2018-06-11T07:04:47Z</time>
      </trkpt>
      <trkpt lat="42.313253" lon="2.226618">
        <ele>1214.4</ele>
        <time>2018-06-11T07:04:49Z</time>
      </trkpt>
      <trkpt lat="42.313250" lon="2.226462">
        <ele>1212.3</ele>
        <time>2018-06-11T07:04:52Z</time>
      </trkpt>
      <trkpt lat="42.313221" lon="2.226032">
        <ele>1206.1</ele>
        <time>2018-06-11T07:05:00Z</time>
      </trkpt>
      <trkpt lat="42.313214" lon="2.225903">
        <ele>1204.9</ele>
        <time>2018-06-11T07:05:03Z</time>
      </trkpt>
      <trkpt lat="42.313209" lon="2.225809">
        <ele>1204.3</ele>
        <time>2018-06-11T07:05:05Z</time>
      </trkpt>
      <trkpt lat="42.313222" lon="2.225741">
        <ele>1204.7</ele>
        <time>2018-06-11T07:05:06Z</time>
      </trkpt>
      <trkpt lat="42.313246" lon="2.225674">
        <ele>1205.9</ele>
        <time>2018-06-11T07:05:08Z</time>
      </trkpt>
      <trkpt lat="42.313296" lon="2.225576">
        <ele>1208.8</ele>
        <time>2018-06-11T07:05:10Z</time>
      </trkpt>
      <trkpt lat="42.313357" lon="2.225467">
        <ele>1212.1</ele>
        <time>2018-06-11T07:05:13Z</time>
      </trkpt>
      <trkpt lat="42.313404" lon="2.225405">
        <ele>1214.5</ele>
        <time>2018-06-11T07:05:15Z</time>
      </trkpt>
      <trkpt lat="42.313436" lon="2.225338">
        <ele>1215.7</ele>
        <time>2018-06-11T07:05:16Z</time>
      </trkpt>
      <trkpt lat="42.313448" lon="2.225267">
        <ele>1215.8</ele>
        <time>2018-06-11T07:05:18Z</time>
      </trkpt>
      <trkpt lat="42.313446" lon="2.225198">
        <ele>1215.2</ele>
        <time>2018-06-11T07:05:19Z</time>
      </trkpt>
      <trkpt lat="42.313410" lon="2.225094">
        <ele>1213.2</ele>
        <time>2018-06-11T07:05:21Z</time>
      </trkpt>
      <trkpt lat="42.313377" lon="2.225024">
        <ele>1211.7</ele>
        <time>2018-06-11T07:05:23Z</time>
      </trkpt>
      <trkpt lat="42.313357" lon="2.224977">
        <ele>1210.7</ele>
        <time>2018-06-11T07:05:24Z</time>
      </trkpt>
      <trkpt lat="42.313350" lon="2.224916">
        <ele>1210.4</ele>
        <time>2018-06-11T07:05:25Z</time>
      </trkpt>
      <trkpt lat="42.313361" lon="2.224801">
        <ele>1211.4</ele>
        <time>2018-06-11T07:05:28Z</time>
      </trkpt>
      <trkpt lat="42.313376" lon="2.224682">
        <ele>1213.1</ele>
        <time>2018-06-11T07:05:30Z</time>
      </trkpt>
      <trkpt lat="42.313390" lon="2.224590">
        <ele>1214.6</ele>
        <time>2018-06-11T07:05:32Z</time>
      </trkpt>
      <trkpt lat="42.313392" lon="2.224522">
        <ele>1215.8</ele>
        <time>2018-06-11T07:05:33Z</time>
      </trkpt>
      <trkpt lat="42.313392" lon="2.224465">
        <ele>1216.8</ele>
        <time>2018-06-11T07:05:34Z</time>
      </trkpt>
      <trkpt lat="42.313368" lon="2.224397">
        <ele>1216.4</ele>
        <time>2018-06-11T07:05:36Z</time>
      </trkpt>
      <trkpt lat="42.313337" lon="2.224334">
        <ele>1215.3</ele>
        <time>2018-06-11T07:05:37Z</time>
      </trkpt>
      <trkpt lat="42.313297" lon="2.224274">
        <ele>1213.6</ele>
        <time>2018-06-11T07:05:39Z</time>
      </trkpt>
      <trkpt lat="42.313251" lon="2.224205">
        <ele>1211.4</ele>
        <time>2018-06-11T07:05:41Z</time>
      </trkpt>
      <trkpt lat="42.313174" lon="2.224077">
        <ele>1208.0</ele>
        <time>2018-06-11T07:05:44Z</time>
      </trkpt>
      <trkpt lat="42.313130" lon="2.223979">
        <ele>1207.3</ele>
        <time>2018-06-11T07:05:46Z</time>
      </trkpt>
      <trkpt lat="42.313072" lon="2.223823">
        <ele>1207.3</ele>
        <time>2018-06-11T07:05:50Z</time>
      </trkpt>
      <trkpt lat="42.312927" lon="2.223415">
        <ele>1207.0</ele>
        <time>2018-06-11T07:05:59Z</time>
      </trkpt>
      <trkpt lat="42.312818" lon="2.223092">
        <ele>1201.2</ele>
        <time>2018-06-11T07:06:06Z</time>
      </trkpt>
      <trkpt lat="42.312788" lon="2.222965">
        <ele>1199.5</ele>
        <time>2018-06-11T07:06:08Z</time>
      </trkpt>
      <trkpt lat="42.312763" lon="2.222846">
        <ele>1197.2</ele>
        <time>2018-06-11T07:06:11Z</time>
      </trkpt>
      <trkpt lat="42.312739" lon="2.222709">
        <ele>1194.2</ele>
        <time>2018-06-11T07:06:14Z</time>
      </trkpt>
      <trkpt lat="42.312731" lon="2.222512">
        <ele>1190.7</ele>
        <time>2018-06-11T07:06:18Z</time>
      </trkpt>
      <trkpt lat="42.312739" lon="2.222352">
        <ele>1188.2</ele>
        <time>2018-06-11T07:06:21Z</time>
      </trkpt>
      <trkpt lat="42.312774" lon="2.222212">
        <ele>1187.7</ele>
        <time>2018-06-11T07:06:24Z</time>
      </trkpt>
      <trkpt lat="42.312902" lon="2.221811">
        <ele>1187.6</ele>
        <time>2018-06-11T07:06:32Z</time>
      </trkpt>
      <trkpt lat="42.312957" lon="2.221728">
        <ele>1189.2</ele>
        <time>2018-06-11T07:06:35Z</time>
      </trkpt>
      <trkpt lat="42.313018" lon="2.221659">
        <ele>1191.6</ele>
        <time>2018-06-11T07:06:37Z</time>
      </trkpt>
      <trkpt lat="42.313073" lon="2.221620">
        <ele>1193.9</ele>
        <time>2018-06-11T07:06:38Z</time>
      </trkpt>
      <trkpt lat="42.313144" lon="2.221600">
        <ele>1197.1</ele>
        <time>2018-06-11T07:06:40Z</time>
      </trkpt>
      <trkpt lat="42.313240" lon="2.221597">
        <ele>1201.1</ele>
        <time>2018-06-11T07:06:43Z</time>
      </trkpt>
      <trkpt lat="42.313300" lon="2.221596">
        <ele>1203.5</ele>
        <time>2018-06-11T07:06:45Z</time>
      </trkpt>
      <trkpt lat="42.313343" lon="2.221579">
        <ele>1205.4</ele>
        <time>2018-06-11T07:06:46Z</time>
      </trkpt>
      <trkpt lat="42.313372" lon="2.221557">
        <ele>1206.8</ele>
        <time>2018-06-11T07:06:47Z</time>
      </trkpt>
      <trkpt lat="42.313387" lon="2.221514">
        <ele>1208.1</ele>
        <time>2018-06-11T07:06:48Z</time>
      </trkpt>
      <trkpt lat="42.313393" lon="2.221477">
        <ele>1209.5</ele>
        <time>2018-06-11T07:06:49Z</time>
      </trkpt>
      <trkpt lat="42.313387" lon="2.221444">
        <ele>1210.3</ele>
        <time>2018-06-11T07:06:50Z</time>
      </trkpt>
      <trkpt lat="42.313372" lon="2.221382">
        <ele>1211.5</ele>
        <time>2018-06-11T07:06:51Z</time>
      </trkpt>
      <trkpt lat="42.313346" lon="2.221326">
        <ele>1212.0</ele>
        <time>2018-06-11T07:06:52Z</time>
      </trkpt>
      <trkpt lat="42.313320" lon="2.221258">
        <ele>1212.6</ele>
        <time>2018-06-11T07:06:54Z</time>
      </trkpt>
      <trkpt lat="42.313260" lon="2.221176">
        <ele>1210.6</ele>
        <time>2018-06-11T07:06:56Z</time>
      </trkpt>
      <trkpt lat="42.313167" lon="2.221049">
        <ele>1207.1</ele>
        <time>2018-06-11T07:07:00Z</time>
      </trkpt>
      <trkpt lat="42.313111" lon="2.220943">
        <ele>1203.8</ele>
        <time>2018-06-11T07:07:02Z</time>
      </trkpt>
      <trkpt lat="42.313071" lon="2.220844">
        <ele>1199.7</ele>
        <time>2018-06-11T07:07:05Z</time>
      </trkpt>
      <trkpt lat="42.313035" lon="2.220642">
        <ele>1193.8</ele>
        <time>2018-06-11T07:07:09Z</time>
      </trkpt>
      <trkpt lat="42.313035" lon="2.220478">
        <ele>1191.6</ele>
        <time>2018-06-11T07:07:12Z</time>
      </trkpt>
      <trkpt lat="42.313059" lon="2.220267">
        <ele>1190.7</ele>
        <time>2018-06-11T07:07:16Z</time>
      </trkpt>
      <trkpt lat="42.313130" lon="2.220038">
        <ele>1195.4</ele>
        <time>2018-06-11T07:07:21Z</time>
      </trkpt>
      <trkpt lat="42.313166" lon="2.219875">
        <ele>1198.1</ele>
        <time>2018-06-11T07:07:25Z</time>
      </trkpt>
      <trkpt lat="42.313189" lon="2.219714">
        <ele>1200.5</ele>
        <time>2018-06-11T07:07:28Z</time>
      </trkpt>
      <trkpt lat="42.313201" lon="2.219551">
        <ele>1202.0</ele>
        <time>2018-06-11T07:07:31Z</time>
      </trkpt>
      <trkpt lat="42.313212" lon="2.219340">
        <ele>1205.1</ele>
        <time>2018-06-11T07:07:36Z</time>
      </trkpt>
      <trkpt lat="42.313235" lon="2.219018">
        <ele>1210.8</ele>
        <time>2018-06-11T07:07:42Z</time>
      </trkpt>
      <trkpt lat="42.313258" lon="2.218711">
        <ele>1214.0</ele>
        <time>2018-06-11T07:07:48Z</time>
      </trkpt>
      <trkpt lat="42.313258" lon="2.218485">
        <ele>1215.2</ele>
        <time>2018-06-11T07:07:53Z</time>
      </trkpt>
      <trkpt lat="42.313246" lon="2.218292">
        <ele>1215.3</ele>
        <time>2018-06-11T07:07:56Z</time>
      </trkpt>
      <trkpt lat="42.313234" lon="2.218179">
        <ele>1215.3</ele>
        <time>2018-06-11T07:07:59Z</time>
      </trkpt>
      <trkpt lat="42.313233" lon="2.218082">
        <ele>1216.3</ele>
        <time>2018-06-11T07:08:00Z</time>
      </trkpt>
      <trkpt lat="42.313222" lon="2.217954">
        <ele>1217.4</ele>
        <time>2018-06-11T07:08:03Z</time>
      </trkpt>
      <trkpt lat="42.313221" lon="2.217808">
        <ele>1219.4</ele>
        <time>2018-06-11T07:08:06Z</time>
      </trkpt>
      <trkpt lat="42.313233" lon="2.217648">
        <ele>1222.0</ele>
        <time>2018-06-11T07:08:09Z</time>
      </trkpt>
      <trkpt lat="42.313267" lon="2.217477">
        <ele>1224.1</ele>
        <time>2018-06-11T07:08:13Z</time>
      </trkpt>
      <trkpt lat="42.313279" lon="2.217332">
        <ele>1225.0</ele>
        <time>2018-06-11T07:08:15Z</time>
      </trkpt>
      <trkpt lat="42.313288" lon="2.217177">
        <ele>1224.5</ele>
        <time>2018-06-11T07:08:19Z</time>
      </trkpt>
      <trkpt lat="42.313302" lon="2.217028">
        <ele>1224.8</ele>
        <time>2018-06-11T07:08:21Z</time>
      </trkpt>
      <trkpt lat="42.313319" lon="2.216810">
        <ele>1226.5</ele>
        <time>2018-06-11T07:08:26Z</time>
      </trkpt>
      <trkpt lat="42.313338" lon="2.216560">
        <ele>1228.5</ele>
        <time>2018-06-11T07:08:31Z</time>
      </trkpt>
      <trkpt lat="42.313347" lon="2.216424">
        <ele>1230.5</ele>
        <time>2018-06-11T07:08:33Z</time>
      </trkpt>
      <trkpt lat="42.313337" lon="2.216343">
        <ele>1231.3</ele>
        <time>2018-06-11T07:08:35Z</time>
      </trkpt>
      <trkpt lat="42.313312" lon="2.216241">
        <ele>1232.1</ele>
        <time>2018-06-11T07:08:37Z</time>
      </trkpt>
      <trkpt lat="42.313274" lon="2.216143">
        <ele>1233.5</ele>
        <time>2018-06-11T07:08:39Z</time>
      </trkpt>
      <trkpt lat="42.313227" lon="2.216052">
        <ele>1234.6</ele>
        <time>2018-06-11T07:08:42Z</time>
      </trkpt>
      <trkpt lat="42.313160" lon="2.215954">
        <ele>1234.2</ele>
        <time>2018-06-11T07:08:44Z</time>
      </trkpt>
      <trkpt lat="42.312993" lon="2.215768">
        <ele>1228.0</ele>
        <time>2018-06-11T07:08:50Z</time>
      </trkpt>
      <trkpt lat="42.312754" lon="2.215508">
        <ele>1224.0</ele>
        <time>2018-06-11T07:08:58Z</time>
      </trkpt>
      <trkpt lat="42.312611" lon="2.215307">
        <ele>1221.8</ele>
        <time>2018-06-11T07:09:04Z</time>
      </trkpt>
      <trkpt lat="42.312526" lon="2.215142">
        <ele>1219.7</ele>
        <time>2018-06-11T07:09:08Z</time>
      </trkpt>
      <trkpt lat="42.312501" lon="2.215086">
        <ele>1219.1</ele>
        <time>2018-06-11T07:09:09Z</time>
      </trkpt>
      <trkpt lat="42.312443" lon="2.215012">
        <ele>1217.6</ele>
        <time>2018-06-11T07:09:11Z</time>
      </trkpt>
      <trkpt lat="42.312364" lon="2.214907">
        <ele>1216.3</ele>
        <time>2018-06-11T07:09:14Z</time>
      </trkpt>
      <trkpt lat="42.312353" lon="2.214873">
        <ele>1216.6</ele>
        <time>2018-06-11T07:09:15Z</time>
      </trkpt>
      <trkpt lat="42.312348" lon="2.214824">
        <ele>1216.7</ele>
        <time>2018-06-11T07:09:16Z</time>
      </trkpt>
      <trkpt lat="42.312350" lon="2.214761">
        <ele>1216.7</ele>
        <time>2018-06-11T07:09:17Z</time>
      </trkpt>
      <trkpt lat="42.312356" lon="2.214690">
        <ele>1216.9</ele>
        <time>2018-06-11T07:09:18Z</time>
      </trkpt>
      <trkpt lat="42.312364" lon="2.214653">
        <ele>1217.1</ele>
        <time>2018-06-11T07:09:19Z</time>
      </trkpt>
      <trkpt lat="42.312367" lon="2.214616">
        <ele>1217.2</ele>
        <time>2018-06-11T07:09:20Z</time>
      </trkpt>
      <trkpt lat="42.312372" lon="2.214575">
        <ele>1217.4</ele>
        <time>2018-06-11T07:09:21Z</time>
      </trkpt>
      <trkpt lat="42.312372" lon="2.214519">
        <ele>1217.4</ele>
        <time>2018-06-11T07:09:22Z</time>
      </trkpt>
      <trkpt lat="42.312353" lon="2.214480">
        <ele>1216.8</ele>
        <time>2018-06-11T07:09:23Z</time>
      </trkpt>
      <trkpt lat="42.312314" lon="2.214441">
        <ele>1216.0</ele>
        <time>2018-06-11T07:09:24Z</time>
      </trkpt>
      <trkpt lat="42.312306" lon="2.214387">
        <ele>1215.8</ele>
        <time>2018-06-11T07:09:25Z</time>
      </trkpt>
      <trkpt lat="42.312306" lon="2.214318">
        <ele>1215.8</ele>
        <time>2018-06-11T07:09:26Z</time>
      </trkpt>
      <trkpt lat="42.312312" lon="2.214242">
        <ele>1216.2</ele>
        <time>2018-06-11T07:09:28Z</time>
      </trkpt>
      <trkpt lat="42.312314" lon="2.214154">
        <ele>1216.6</ele>
        <time>2018-06-11T07:09:30Z</time>
      </trkpt>
      <trkpt lat="42.312323" lon="2.214097">
        <ele>1217.0</ele>
        <time>2018-06-11T07:09:31Z</time>
      </trkpt>
      <trkpt lat="42.312323" lon="2.214010">
        <ele>1217.1</ele>
        <time>2018-06-11T07:09:33Z</time>
      </trkpt>
      <trkpt lat="42.312339" lon="2.213959">
        <ele>1216.7</ele>
        <time>2018-06-11T07:09:34Z</time>
      </trkpt>
      <trkpt lat="42.312356" lon="2.213942">
        <ele>1216.7</ele>
        <time>2018-06-11T07:09:34Z</time>
      </trkpt>
      <trkpt lat="42.312375" lon="2.213893">
        <ele>1216.6</ele>
        <time>2018-06-11T07:09:35Z</time>
      </trkpt>
      <trkpt lat="42.312389" lon="2.213840">
        <ele>1216.4</ele>
        <time>2018-06-11T07:09:36Z</time>
      </trkpt>
      <trkpt lat="42.312472" lon="2.213628">
        <ele>1215.5</ele>
        <time>2018-06-11T07:09:41Z</time>
      </trkpt>
      <trkpt lat="42.312635" lon="2.213195">
        <ele>1209.9</ele>
        <time>2018-06-11T07:09:51Z</time>
      </trkpt>
      <trkpt lat="42.312803" lon="2.213021">
        <ele>1211.5</ele>
        <time>2018-06-11T07:09:56Z</time>
      </trkpt>
      <trkpt lat="42.312911" lon="2.212927">
        <ele>1212.1</ele>
        <time>2018-06-11T07:10:00Z</time>
      </trkpt>
      <trkpt lat="42.313080" lon="2.212859">
        <ele>1213.2</ele>
        <time>2018-06-11T07:10:04Z</time>
      </trkpt>
      <trkpt lat="42.313218" lon="2.212832">
        <ele>1213.9</ele>
        <time>2018-06-11T07:10:08Z</time>
      </trkpt>
      <trkpt lat="42.313336" lon="2.212872">
        <ele>1214.1</ele>
        <time>2018-06-11T07:10:11Z</time>
      </trkpt>
      <trkpt lat="42.313576" lon="2.212909">
        <ele>1213.3</ele>
        <time>2018-06-11T07:10:18Z</time>
      </trkpt>
      <trkpt lat="42.313686" lon="2.212909">
        <ele>1211.7</ele>
        <time>2018-06-11T07:10:21Z</time>
      </trkpt>
      <trkpt lat="42.313755" lon="2.212882">
        <ele>1210.2</ele>
        <time>2018-06-11T07:10:23Z</time>
      </trkpt>
      <trkpt lat="42.313825" lon="2.212828">
        <ele>1209.9</ele>
        <time>2018-06-11T07:10:25Z</time>
      </trkpt>
      <trkpt lat="42.313874" lon="2.212747">
        <ele>1209.1</ele>
        <time>2018-06-11T07:10:27Z</time>
      </trkpt>
      <trkpt lat="42.313950" lon="2.212082">
        <ele>1202.1</ele>
        <time>2018-06-11T07:10:40Z</time>
      </trkpt>
      <trkpt lat="42.314002" lon="2.211904">
        <ele>1202.2</ele>
        <time>2018-06-11T07:10:44Z</time>
      </trkpt>
      <trkpt lat="42.314083" lon="2.211767">
        <ele>1201.4</ele>
        <time>2018-06-11T07:10:47Z</time>
      </trkpt>
      <trkpt lat="42.314273" lon="2.211625">
        <ele>1199.9</ele>
        <time>2018-06-11T07:10:53Z</time>
      </trkpt>
      <trkpt lat="42.314597" lon="2.211340">
        <ele>1195.5</ele>
        <time>2018-06-11T07:11:03Z</time>
      </trkpt>
      <trkpt lat="42.314785" lon="2.211175">
        <ele>1193.5</ele>
        <time>2018-06-11T07:11:09Z</time>
      </trkpt>
      <trkpt lat="42.314903" lon="2.211115">
        <ele>1192.8</ele>
        <time>2018-06-11T07:11:13Z</time>
      </trkpt>
      <trkpt lat="42.315146" lon="2.211039">
        <ele>1191.2</ele>
        <time>2018-06-11T07:11:19Z</time>
      </trkpt>
      <trkpt lat="42.315640" lon="2.210808">
        <ele>1192.7</ele>
        <time>2018-06-11T07:11:33Z</time>
      </trkpt>
      <trkpt lat="42.315927" lon="2.210616">
        <ele>1194.3</ele>
        <time>2018-06-11T07:11:42Z</time>
      </trkpt>
      <trkpt lat="42.315993" lon="2.210470">
        <ele>1194.1</ele>
        <time>2018-06-11T07:11:45Z</time>
      </trkpt>
      <trkpt lat="42.315987" lon="2.210227">
        <ele>1192.7</ele>
        <time>2018-06-11T07:11:50Z</time>
      </trkpt>
      <trkpt lat="42.315681" lon="2.209555">
        <ele>1184.3</ele>
        <time>2018-06-11T07:12:05Z</time>
      </trkpt>
      <trkpt lat="42.315657" lon="2.209378">
        <ele>1181.5</ele>
        <time>2018-06-11T07:12:09Z</time>
      </trkpt>
      <trkpt lat="42.315683" lon="2.209261">
        <ele>1180.3</ele>
        <time>2018-06-11T07:12:11Z</time>
      </trkpt>
      <trkpt lat="42.315832" lon="2.208981">
        <ele>1176.4</ele>
        <time>2018-06-11T07:12:18Z</time>
      </trkpt>
      <trkpt lat="42.316527" lon="2.208273">
        <ele>1179.8</ele>
        <time>2018-06-11T07:12:41Z</time>
      </trkpt>
      <trkpt lat="42.316724" lon="2.207992">
        <ele>1185.8</ele>
        <time>2018-06-11T07:12:49Z</time>
      </trkpt>
      <trkpt lat="42.316741" lon="2.207886">
        <ele>1186.3</ele>
        <time>2018-06-11T07:12:51Z</time>
      </trkpt>
      <trkpt lat="42.316717" lon="2.207731">
        <ele>1185.7</ele>
        <time>2018-06-11T07:12:54Z</time>
      </trkpt>
      <trkpt lat="42.316669" lon="2.207618">
        <ele>1183.6</ele>
        <time>2018-06-11T07:12:57Z</time>
      </trkpt>
      <trkpt lat="42.316521" lon="2.207369">
        <ele>1175.8</ele>
        <time>2018-06-11T07:13:03Z</time>
      </trkpt>
      <trkpt lat="42.316460" lon="2.206915">
        <ele>1175.6</ele>
        <time>2018-06-11T07:13:12Z</time>
      </trkpt>
      <trkpt lat="42.316330" lon="2.206371">
        <ele>1172.1</ele>
        <time>2018-06-11T07:13:23Z</time>
      </trkpt>
      <trkpt lat="42.316373" lon="2.206140">
        <ele>1172.8</ele>
        <time>2018-06-11T07:13:28Z</time>
      </trkpt>
      <trkpt lat="42.316368" lon="2.206000">
        <ele>1171.6</ele>
        <time>2018-06-11T07:13:31Z</time>
      </trkpt>
      <trkpt lat="42.316336" lon="2.205916">
        <ele>1169.6</ele>
        <time>2018-06-11T07:13:33Z</time>
      </trkpt>
      <trkpt lat="42.316254" lon="2.205850">
        <ele>1165.2</ele>
        <time>2018-06-11T07:13:35Z</time>
      </trkpt>
      <trkpt lat="42.316155" lon="2.205869">
        <ele>1162.1</ele>
        <time>2018-06-11T07:13:38Z</time>
      </trkpt>
      <trkpt lat="42.316088" lon="2.205931">
        <ele>1159.8</ele>
        <time>2018-06-11T07:13:40Z</time>
      </trkpt>
      <trkpt lat="42.316058" lon="2.206101">
        <ele>1158.9</ele>
        <time>2018-06-11T07:13:44Z</time>
      </trkpt>
      <trkpt lat="42.316096" lon="2.206471">
        <ele>1162.0</ele>
        <time>2018-06-11T07:13:51Z</time>
      </trkpt>
      <trkpt lat="42.316245" lon="2.207082">
        <ele>1164.9</ele>
        <time>2018-06-11T07:14:04Z</time>
      </trkpt>
      <trkpt lat="42.316259" lon="2.207179">
        <ele>1165.4</ele>
        <time>2018-06-11T07:14:06Z</time>
      </trkpt>
      <trkpt lat="42.316255" lon="2.207264">
        <ele>1165.2</ele>
        <time>2018-06-11T07:14:07Z</time>
      </trkpt>
      <trkpt lat="42.316170" lon="2.207325">
        <ele>1162.7</ele>
        <time>2018-06-11T07:14:10Z</time>
      </trkpt>
      <trkpt lat="42.316088" lon="2.207296">
        <ele>1160.3</ele>
        <time>2018-06-11T07:14:12Z</time>
      </trkpt>
      <trkpt lat="42.316016" lon="2.207176">
        <ele>1158.3</ele>
        <time>2018-06-11T07:14:15Z</time>
      </trkpt>
      <trkpt lat="42.315927" lon="2.206722">
        <ele>1156.3</ele>
        <time>2018-06-11T07:14:25Z</time>
      </trkpt>
      <trkpt lat="42.315844" lon="2.205746">
        <ele>1153.9</ele>
        <time>2018-06-11T07:14:44Z</time>
      </trkpt>
      <trkpt lat="42.315806" lon="2.205570">
        <ele>1154.6</ele>
        <time>2018-06-11T07:14:47Z</time>
      </trkpt>
      <trkpt lat="42.315760" lon="2.205383">
        <ele>1155.4</ele>
        <time>2018-06-11T07:14:51Z</time>
      </trkpt>
      <trkpt lat="42.315321" lon="2.204460">
        <ele>1149.2</ele>
        <time>2018-06-11T07:15:13Z</time>
      </trkpt>
      <trkpt lat="42.315110" lon="2.203881">
        <ele>1137.3</ele>
        <time>2018-06-11T07:15:26Z</time>
      </trkpt>
      <trkpt lat="42.315091" lon="2.203793">
        <ele>1135.6</ele>
        <time>2018-06-11T07:15:28Z</time>
      </trkpt>
      <trkpt lat="42.315118" lon="2.203702">
        <ele>1136.0</ele>
        <time>2018-06-11T07:15:30Z</time>
      </trkpt>
      <trkpt lat="42.315225" lon="2.203570">
        <ele>1139.3</ele>
        <time>2018-06-11T07:15:34Z</time>
      </trkpt>
      <trkpt lat="42.315291" lon="2.203387">
        <ele>1140.5</ele>
        <time>2018-06-11T07:15:37Z</time>
      </trkpt>
      <trkpt lat="42.315305" lon="2.202732">
        <ele>1136.0</ele>
        <time>2018-06-11T07:15:50Z</time>
      </trkpt>
      <trkpt lat="42.315330" lon="2.202537">
        <ele>1135.1</ele>
        <time>2018-06-11T07:15:54Z</time>
      </trkpt>
      <trkpt lat="42.315501" lon="2.201837">
        <ele>1141.2</ele>
        <time>2018-06-11T07:16:09Z</time>
      </trkpt>
      <trkpt lat="42.315550" lon="2.201727">
        <ele>1144.0</ele>
        <time>2018-06-11T07:16:11Z</time>
      </trkpt>
      <trkpt lat="42.315585" lon="2.201600">
        <ele>1146.4</ele>
        <time>2018-06-11T07:16:14Z</time>
      </trkpt>
      <trkpt lat="42.315552" lon="2.201412">
        <ele>1147.3</ele>
        <time>2018-06-11T07:16:18Z</time>
      </trkpt>
      <trkpt lat="42.315470" lon="2.201255">
        <ele>1146.0</ele>
        <time>2018-06-11T07:16:22Z</time>
      </trkpt>
      <trkpt lat="42.315311" lon="2.201051">
        <ele>1142.6</ele>
        <time>2018-06-11T07:16:27Z</time>
      </trkpt>
      <trkpt lat="42.315187" lon="2.200707">
        <ele>1137.6</ele>
        <time>2018-06-11T07:16:35Z</time>
      </trkpt>
      <trkpt lat="42.315126" lon="2.200404">
        <ele>1130.9</ele>
        <time>2018-06-11T07:16:41Z</time>
      </trkpt>
      <trkpt lat="42.315041" lon="2.199829">
        <ele>1120.2</ele>
        <time>2018-06-11T07:16:53Z</time>
      </trkpt>
      <trkpt lat="42.315035" lon="2.199271">
        <ele>1111.8</ele>
        <time>2018-06-11T07:17:04Z</time>
      </trkpt>
      <trkpt lat="42.315131" lon="2.198499">
        <ele>1106.0</ele>
        <time>2018-06-11T07:17:20Z</time>
      </trkpt>
      <trkpt lat="42.315217" lon="2.197891">
        <ele>1096.9</ele>
        <time>2018-06-11T07:17:32Z</time>
      </trkpt>
      <trkpt lat="42.315323" lon="2.197581">
        <ele>1094.1</ele>
        <time>2018-06-11T07:17:39Z</time>
      </trkpt>
      <trkpt lat="42.315540" lon="2.197199">
        <ele>1105.0</ele>
        <time>2018-06-11T07:17:49Z</time>
      </trkpt>
      <trkpt lat="42.315616" lon="2.197007">
        <ele>1110.7</ele>
        <time>2018-06-11T07:17:53Z</time>
      </trkpt>
      <trkpt lat="42.315619" lon="2.196837">
        <ele>1110.8</ele>
        <time>2018-06-11T07:17:56Z</time>
      </trkpt>
      <trkpt lat="42.315419" lon="2.195802">
        <ele>1094.3</ele>
        <time>2018-06-11T07:18:18Z</time>
      </trkpt>
      <trkpt lat="42.315421" lon="2.195523">
        <ele>1089.4</ele>
        <time>2018-06-11T07:18:23Z</time>
      </trkpt>
      <trkpt lat="42.315396" lon="2.195393">
        <ele>1085.5</ele>
        <time>2018-06-11T07:18:26Z</time>
      </trkpt>
      <trkpt lat="42.315325" lon="2.195355">
        <ele>1081.9</ele>
        <time>2018-06-11T07:18:28Z</time>
      </trkpt>
      <trkpt lat="42.315267" lon="2.195367">
        <ele>1080.2</ele>
        <time>2018-06-11T07:18:30Z</time>
      </trkpt>
      <trkpt lat="42.315236" lon="2.195446">
        <ele>1081.1</ele>
        <time>2018-06-11T07:18:32Z</time>
      </trkpt>
      <trkpt lat="42.315228" lon="2.195574">
        <ele>1083.6</ele>
        <time>2018-06-11T07:18:34Z</time>
      </trkpt>
      <trkpt lat="42.315279" lon="2.195792">
        <ele>1088.7</ele>
        <time>2018-06-11T07:18:39Z</time>
      </trkpt>
      <trkpt lat="42.315326" lon="2.196113">
        <ele>1092.3</ele>
        <time>2018-06-11T07:18:45Z</time>
      </trkpt>
      <trkpt lat="42.315319" lon="2.196398">
        <ele>1091.2</ele>
        <time>2018-06-11T07:18:51Z</time>
      </trkpt>
      <trkpt lat="42.315135" lon="2.197067">
        <ele>1084.7</ele>
        <time>2018-06-11T07:19:05Z</time>
      </trkpt>
      <trkpt lat="42.314629" lon="2.198123">
        <ele>1075.6</ele>
        <time>2018-06-11T07:19:30Z</time>
      </trkpt>
      <trkpt lat="42.314585" lon="2.198245">
        <ele>1076.0</ele>
        <time>2018-06-11T07:19:32Z</time>
      </trkpt>
      <trkpt lat="42.314595" lon="2.198397">
        <ele>1079.1</ele>
        <time>2018-06-11T07:19:35Z</time>
      </trkpt>
      <trkpt lat="42.314605" lon="2.198633">
        <ele>1082.7</ele>
        <time>2018-06-11T07:19:40Z</time>
      </trkpt>
      <trkpt lat="42.314584" lon="2.198749">
        <ele>1083.0</ele>
        <time>2018-06-11T07:19:42Z</time>
      </trkpt>
      <trkpt lat="42.314448" lon="2.199278">
        <ele>1077.2</ele>
        <time>2018-06-11T07:19:53Z</time>
      </trkpt>
      <trkpt lat="42.314394" lon="2.199321">
        <ele>1074.6</ele>
        <time>2018-06-11T07:19:55Z</time>
      </trkpt>
      <trkpt lat="42.314357" lon="2.199249">
        <ele>1072.7</ele>
        <time>2018-06-11T07:19:57Z</time>
      </trkpt>
      <trkpt lat="42.314357" lon="2.199170">
        <ele>1072.7</ele>
        <time>2018-06-11T07:19:59Z</time>
      </trkpt>
      <trkpt lat="42.314485" lon="2.198811">
        <ele>1079.3</ele>
        <time>2018-06-11T07:20:07Z</time>
      </trkpt>
      <trkpt lat="42.314515" lon="2.198628">
        <ele>1079.1</ele>
        <time>2018-06-11T07:20:10Z</time>
      </trkpt>
      <trkpt lat="42.314496" lon="2.198513">
        <ele>1077.3</ele>
        <time>2018-06-11T07:20:13Z</time>
      </trkpt>
      <trkpt lat="42.314460" lon="2.198411">
        <ele>1074.9</ele>
        <time>2018-06-11T07:20:15Z</time>
      </trkpt>
      <trkpt lat="42.314391" lon="2.198290">
        <ele>1071.6</ele>
        <time>2018-06-11T07:20:18Z</time>
      </trkpt>
      <trkpt lat="42.314417" lon="2.198102">
        <ele>1070.1</ele>
        <time>2018-06-11T07:20:22Z</time>
      </trkpt>
      <trkpt lat="42.314556" lon="2.197961">
        <ele>1071.0</ele>
        <time>2018-06-11T07:20:26Z</time>
      </trkpt>
      <trkpt lat="42.314627" lon="2.197869">
        <ele>1071.9</ele>
        <time>2018-06-11T07:20:29Z</time>
      </trkpt>
      <trkpt lat="42.314738" lon="2.197722">
        <ele>1073.4</ele>
        <time>2018-06-11T07:20:33Z</time>
      </trkpt>
      <trkpt lat="42.314787" lon="2.197588">
        <ele>1073.5</ele>
        <time>2018-06-11T07:20:36Z</time>
      </trkpt>
      <trkpt lat="42.314813" lon="2.197381">
        <ele>1073.2</ele>
        <time>2018-06-11T07:20:40Z</time>
      </trkpt>
      <trkpt lat="42.314660" lon="2.196819">
        <ele>1069.4</ele>
        <time>2018-06-11T07:20:52Z</time>
      </trkpt>
      <trkpt lat="42.314604" lon="2.196565">
        <ele>1066.7</ele>
        <time>2018-06-11T07:20:57Z</time>
      </trkpt>
      <trkpt lat="42.314612" lon="2.195758">
        <ele>1066.5</ele>
        <time>2018-06-11T07:21:13Z</time>
      </trkpt>
      <trkpt lat="42.314575" lon="2.195600">
        <ele>1065.8</ele>
        <time>2018-06-11T07:21:16Z</time>
      </trkpt>
      <trkpt lat="42.314489" lon="2.195532">
        <ele>1063.5</ele>
        <time>2018-06-11T07:21:19Z</time>
      </trkpt>
      <trkpt lat="42.314235" lon="2.195295">
        <ele>1055.9</ele>
        <time>2018-06-11T07:21:27Z</time>
      </trkpt>
      <trkpt lat="42.314148" lon="2.195121">
        <ele>1052.2</ele>
        <time>2018-06-11T07:21:31Z</time>
      </trkpt>
      <trkpt lat="42.314088" lon="2.194794">
        <ele>1047.3</ele>
        <time>2018-06-11T07:21:38Z</time>
      </trkpt>
      <trkpt lat="42.314136" lon="2.194604">
        <ele>1046.6</ele>
        <time>2018-06-11T07:21:42Z</time>
      </trkpt>
      <trkpt lat="42.314266" lon="2.194506">
        <ele>1047.6</ele>
        <time>2018-06-11T07:21:46Z</time>
      </trkpt>
      <trkpt lat="42.314369" lon="2.194499">
        <ele>1049.0</ele>
        <time>2018-06-11T07:21:49Z</time>
      </trkpt>
      <trkpt lat="42.314505" lon="2.194558">
        <ele>1051.6</ele>
        <time>2018-06-11T07:21:53Z</time>
      </trkpt>
      <trkpt lat="42.314604" lon="2.194551">
        <ele>1052.2</ele>
        <time>2018-06-11T07:21:55Z</time>
      </trkpt>
      <trkpt lat="42.314716" lon="2.194525">
        <ele>1051.5</ele>
        <time>2018-06-11T07:21:58Z</time>
      </trkpt>
      <trkpt lat="42.314828" lon="2.194426">
        <ele>1049.0</ele>
        <time>2018-06-11T07:22:02Z</time>
      </trkpt>
      <trkpt lat="42.314944" lon="2.194291">
        <ele>1048.0</ele>
        <time>2018-06-11T07:22:06Z</time>
      </trkpt>
      <trkpt lat="42.315062" lon="2.194247">
        <ele>1050.6</ele>
        <time>2018-06-11T07:22:09Z</time>
      </trkpt>
      <trkpt lat="42.315169" lon="2.194252">
        <ele>1053.5</ele>
        <time>2018-06-11T07:22:12Z</time>
      </trkpt>
      <trkpt lat="42.315304" lon="2.194208">
        <ele>1057.5</ele>
        <time>2018-06-11T07:22:16Z</time>
      </trkpt>
      <trkpt lat="42.315339" lon="2.194104">
        <ele>1058.4</ele>
        <time>2018-06-11T07:22:18Z</time>
      </trkpt>
      <trkpt lat="42.315360" lon="2.193916">
        <ele>1059.9</ele>
        <time>2018-06-11T07:22:22Z</time>
      </trkpt>
      <trkpt lat="42.315323" lon="2.193783">
        <ele>1059.7</ele>
        <time>2018-06-11T07:22:25Z</time>
      </trkpt>
      <trkpt lat="42.314964" lon="2.193284">
        <ele>1047.9</ele>
        <time>2018-06-11T07:22:39Z</time>
      </trkpt>
      <trkpt lat="42.314864" lon="2.193134">
        <ele>1042.9</ele>
        <time>2018-06-11T07:22:43Z</time>
      </trkpt>
      <trkpt lat="42.314818" lon="2.193008">
        <ele>1041.3</ele>
        <time>2018-06-11T07:22:45Z</time>
      </trkpt>
      <trkpt lat="42.314763" lon="2.192844">
        <ele>1039.3</ele>
        <time>2018-06-11T07:22:49Z</time>
      </trkpt>
      <trkpt lat="42.314715" lon="2.192432">
        <ele>1036.2</ele>
        <time>2018-06-11T07:22:57Z</time>
      </trkpt>
      <trkpt lat="42.314699" lon="2.191401">
        <ele>1031.2</ele>
        <time>2018-06-11T07:23:17Z</time>
      </trkpt>
      <trkpt lat="42.314650" lon="2.190965">
        <ele>1028.1</ele>
        <time>2018-06-11T07:23:26Z</time>
      </trkpt>
      <trkpt lat="42.314635" lon="2.190746">
        <ele>1025.5</ele>
        <time>2018-06-11T07:23:30Z</time>
      </trkpt>
      <trkpt lat="42.314661" lon="2.190490">
        <ele>1022.3</ele>
        <time>2018-06-11T07:23:36Z</time>
      </trkpt>
      <trkpt lat="42.314776" lon="2.190235">
        <ele>1020.8</ele>
        <time>2018-06-11T07:23:41Z</time>
      </trkpt>
      <trkpt lat="42.315072" lon="2.189831">
        <ele>1023.5</ele>
        <time>2018-06-11T07:23:53Z</time>
      </trkpt>
      <trkpt lat="42.315132" lon="2.189660">
        <ele>1024.8</ele>
        <time>2018-06-11T07:23:56Z</time>
      </trkpt>
      <trkpt lat="42.315066" lon="2.188991">
        <ele>1018.0</ele>
        <time>2018-06-11T07:24:10Z</time>
      </trkpt>
      <trkpt lat="42.315131" lon="2.188853">
        <ele>1019.4</ele>
        <time>2018-06-11T07:24:13Z</time>
      </trkpt>
      <trkpt lat="42.315256" lon="2.188670">
        <ele>1024.3</ele>
        <time>2018-06-11T07:24:18Z</time>
      </trkpt>
      <trkpt lat="42.315268" lon="2.188530">
        <ele>1023.6</ele>
        <time>2018-06-11T07:24:21Z</time>
      </trkpt>
      <trkpt lat="42.315240" lon="2.188427">
        <ele>1021.3</ele>
        <time>2018-06-11T07:24:23Z</time>
      </trkpt>
      <trkpt lat="42.315175" lon="2.188016">
        <ele>1010.9</ele>
        <time>2018-06-11T07:24:31Z</time>
      </trkpt>
      <trkpt lat="42.315151" lon="2.187907">
        <ele>1007.6</ele>
        <time>2018-06-11T07:24:34Z</time>
      </trkpt>
      <trkpt lat="42.315150" lon="2.187743">
        <ele>1006.9</ele>
        <time>2018-06-11T07:24:37Z</time>
      </trkpt>
      <trkpt lat="42.315250" lon="2.187403">
        <ele>1011.6</ele>
        <time>2018-06-11T07:24:44Z</time>
      </trkpt>
      <trkpt lat="42.315285" lon="2.187269">
        <ele>1014.4</ele>
        <time>2018-06-11T07:24:47Z</time>
      </trkpt>
      <trkpt lat="42.315262" lon="2.187148">
        <ele>1014.4</ele>
        <time>2018-06-11T07:24:50Z</time>
      </trkpt>
      <trkpt lat="42.315108" lon="2.187004">
        <ele>1006.7</ele>
        <time>2018-06-11T07:24:55Z</time>
      </trkpt>
      <trkpt lat="42.315067" lon="2.186901">
        <ele>1006.1</ele>
        <time>2018-06-11T07:24:57Z</time>
      </trkpt>
      <trkpt lat="42.314978" lon="2.186285">
        <ele>1009.3</ele>
        <time>2018-06-11T07:25:09Z</time>
      </trkpt>
      <trkpt lat="42.314949" lon="2.186187">
        <ele>1009.4</ele>
        <time>2018-06-11T07:25:11Z</time>
      </trkpt>
      <trkpt lat="42.314885" lon="2.186121">
        <ele>1007.7</ele>
        <time>2018-06-11T07:25:14Z</time>
      </trkpt>
      <trkpt lat="42.314669" lon="2.186094">
        <ele>1000.6</ele>
        <time>2018-06-11T07:25:20Z</time>
      </trkpt>
      <trkpt lat="42.314601" lon="2.186058">
        <ele>998.7</ele>
        <time>2018-06-11T07:25:22Z</time>
      </trkpt>
      <trkpt lat="42.314547" lon="2.185956">
        <ele>997.7</ele>
        <time>2018-06-11T07:25:24Z</time>
      </trkpt>
      <trkpt lat="42.314523" lon="2.185768">
        <ele>998.3</ele>
        <time>2018-06-11T07:25:28Z</time>
      </trkpt>
      <trkpt lat="42.314480" lon="2.185538">
        <ele>999.1</ele>
        <time>2018-06-11T07:25:32Z</time>
      </trkpt>
      <trkpt lat="42.314089" lon="2.184954">
        <ele>999.3</ele>
        <time>2018-06-11T07:25:48Z</time>
      </trkpt>
      <trkpt lat="42.313931" lon="2.184847">
        <ele>998.8</ele>
        <time>2018-06-11T07:25:53Z</time>
      </trkpt>
      <trkpt lat="42.313804" lon="2.184831">
        <ele>997.2</ele>
        <time>2018-06-11T07:25:56Z</time>
      </trkpt>
      <trkpt lat="42.313480" lon="2.184859">
        <ele>993.1</ele>
        <time>2018-06-11T07:26:05Z</time>
      </trkpt>
      <trkpt lat="42.313390" lon="2.184866">
        <ele>992.6</ele>
        <time>2018-06-11T07:26:07Z</time>
      </trkpt>
      <trkpt lat="42.313261" lon="2.184830">
        <ele>993.3</ele>
        <time>2018-06-11T07:26:11Z</time>
      </trkpt>
      <trkpt lat="42.312612" lon="2.184385">
        <ele>983.7</ele>
        <time>2018-06-11T07:26:30Z</time>
      </trkpt>
      <trkpt lat="42.312409" lon="2.184084">
        <ele>981.8</ele>
        <time>2018-06-11T07:26:38Z</time>
      </trkpt>
      <trkpt lat="42.312254" lon="2.183859">
        <ele>979.1</ele>
        <time>2018-06-11T07:26:44Z</time>
      </trkpt>
      <trkpt lat="42.312060" lon="2.183658">
        <ele>971.9</ele>
        <time>2018-06-11T07:26:51Z</time>
      </trkpt>
      <trkpt lat="42.311942" lon="2.183490">
        <ele>965.4</ele>
        <time>2018-06-11T07:26:55Z</time>
      </trkpt>
      <trkpt lat="42.311909" lon="2.183344">
        <ele>962.9</ele>
        <time>2018-06-11T07:26:58Z</time>
      </trkpt>
      <trkpt lat="42.311955" lon="2.182798">
        <ele>959.5</ele>
        <time>2018-06-11T07:27:09Z</time>
      </trkpt>
      <trkpt lat="42.311922" lon="2.182622">
        <ele>956.4</ele>
        <time>2018-06-11T07:27:13Z</time>
      </trkpt>
      <trkpt lat="42.311930" lon="2.182398">
        <ele>956.1</ele>
        <time>2018-06-11T07:27:17Z</time>
      </trkpt>
      <trkpt lat="42.311978" lon="2.182227">
        <ele>957.3</ele>
        <time>2018-06-11T07:27:21Z</time>
      </trkpt>
      <trkpt lat="42.312053" lon="2.182002">
        <ele>959.0</ele>
        <time>2018-06-11T07:27:26Z</time>
      </trkpt>
      <trkpt lat="42.312061" lon="2.181887">
        <ele>958.1</ele>
        <time>2018-06-11T07:27:28Z</time>
      </trkpt>
      <trkpt lat="42.312046" lon="2.181656">
        <ele>955.3</ele>
        <time>2018-06-11T07:27:33Z</time>
      </trkpt>
      <trkpt lat="42.312035" lon="2.181408">
        <ele>952.7</ele>
        <time>2018-06-11T07:27:38Z</time>
      </trkpt>
      <trkpt lat="42.312163" lon="2.181042">
        <ele>949.6</ele>
        <time>2018-06-11T07:27:45Z</time>
      </trkpt>
      <trkpt lat="42.312314" lon="2.180810">
        <ele>946.9</ele>
        <time>2018-06-11T07:27:52Z</time>
      </trkpt>
      <trkpt lat="42.312640" lon="2.180350">
        <ele>948.3</ele>
        <time>2018-06-11T07:28:04Z</time>
      </trkpt>
      <trkpt lat="42.312798" lon="2.179833">
        <ele>944.6</ele>
        <time>2018-06-11T07:28:15Z</time>
      </trkpt>
      <trkpt lat="42.313003" lon="2.179193">
        <ele>941.7</ele>
        <time>2018-06-11T07:28:29Z</time>
      </trkpt>
      <trkpt lat="42.313020" lon="2.179065">
        <ele>941.0</ele>
        <time>2018-06-11T07:28:31Z</time>
      </trkpt>
      <trkpt lat="42.313033" lon="2.178901">
        <ele>939.8</ele>
        <time>2018-06-11T07:28:34Z</time>
      </trkpt>
      <trkpt lat="42.313027" lon="2.178755">
        <ele>938.2</ele>
        <time>2018-06-11T07:28:37Z</time>
      </trkpt>
      <trkpt lat="42.313056" lon="2.177760">
        <ele>936.0</ele>
        <time>2018-06-11T07:28:57Z</time>
      </trkpt>
      <trkpt lat="42.313126" lon="2.176801">
        <ele>936.5</ele>
        <time>2018-06-11T07:29:16Z</time>
      </trkpt>
      <trkpt lat="42.313129" lon="2.176600">
        <ele>936.8</ele>
        <time>2018-06-11T07:29:20Z</time>
      </trkpt>
      <trkpt lat="42.313100" lon="2.176401">
        <ele>936.8</ele>
        <time>2018-06-11T07:29:24Z</time>
      </trkpt>
      <trkpt lat="42.313041" lon="2.176286">
        <ele>936.1</ele>
        <time>2018-06-11T07:29:26Z</time>
      </trkpt>
      <trkpt lat="42.312495" lon="2.175492">
        <ele>936.4</ele>
        <time>2018-06-11T07:29:48Z</time>
      </trkpt>
      <trkpt lat="42.311778" lon="2.174404">
        <ele>940.3</ele>
        <time>2018-06-11T07:30:16Z</time>
      </trkpt>
      <trkpt lat="42.311560" lon="2.174183">
        <ele>939.2</ele>
        <time>2018-06-11T07:30:23Z</time>
      </trkpt>
      <trkpt lat="42.311095" lon="2.174092">
        <ele>935.0</ele>
        <time>2018-06-11T07:30:36Z</time>
      </trkpt>
      <trkpt lat="42.310973" lon="2.174045">
        <ele>931.9</ele>
        <time>2018-06-11T07:30:39Z</time>
      </trkpt>
      <trkpt lat="42.310801" lon="2.173914">
        <ele>928.8</ele>
        <time>2018-06-11T07:30:45Z</time>
      </trkpt>
      <trkpt lat="42.310412" lon="2.173615">
        <ele>925.1</ele>
        <time>2018-06-11T07:30:56Z</time>
      </trkpt>
      <trkpt lat="42.310117" lon="2.173298">
        <ele>928.9</ele>
        <time>2018-06-11T07:31:06Z</time>
      </trkpt>
      <trkpt lat="42.310017" lon="2.173147">
        <ele>928.2</ele>
        <time>2018-06-11T07:31:10Z</time>
      </trkpt>
      <trkpt lat="42.309957" lon="2.172948">
        <ele>926.9</ele>
        <time>2018-06-11T07:31:15Z</time>
      </trkpt>
      <trkpt lat="42.309864" lon="2.172567">
        <ele>926.0</ele>
        <time>2018-06-11T07:31:23Z</time>
      </trkpt>
      <trkpt lat="42.309813" lon="2.172398">
        <ele>925.3</ele>
        <time>2018-06-11T07:31:26Z</time>
      </trkpt>
      <trkpt lat="42.309568" lon="2.172098">
        <ele>920.8</ele>
        <time>2018-06-11T07:31:35Z</time>
      </trkpt>
      <trkpt lat="42.309327" lon="2.171645">
        <ele>918.2</ele>
        <time>2018-06-11T07:31:46Z</time>
      </trkpt>
      <trkpt lat="42.309223" lon="2.171451">
        <ele>919.2</ele>
        <time>2018-06-11T07:31:51Z</time>
      </trkpt>
      <trkpt lat="42.309117" lon="2.171280">
        <ele>919.1</ele>
        <time>2018-06-11T07:31:55Z</time>
      </trkpt>
      <trkpt lat="42.309057" lon="2.171175">
        <ele>918.5</ele>
        <time>2018-06-11T07:31:58Z</time>
      </trkpt>
      <trkpt lat="42.308968" lon="2.171031">
        <ele>917.1</ele>
        <time>2018-06-11T07:32:01Z</time>
      </trkpt>
      <trkpt lat="42.308896" lon="2.170950">
        <ele>915.9</ele>
        <time>2018-06-11T07:32:04Z</time>
      </trkpt>
      <trkpt lat="42.308845" lon="2.170896">
        <ele>915.1</ele>
        <time>2018-06-11T07:32:05Z</time>
      </trkpt>
      <trkpt lat="42.308774" lon="2.170805">
        <ele>913.5</ele>
        <time>2018-06-11T07:32:08Z</time>
      </trkpt>
      <trkpt lat="42.308672" lon="2.170693">
        <ele>912.6</ele>
        <time>2018-06-11T07:32:12Z</time>
      </trkpt>
      <trkpt lat="42.308603" lon="2.170657">
        <ele>913.3</ele>
        <time>2018-06-11T07:32:14Z</time>
      </trkpt>
      <trkpt lat="42.308506" lon="2.170633">
        <ele>914.2</ele>
        <time>2018-06-11T07:32:16Z</time>
      </trkpt>
      <trkpt lat="42.308267" lon="2.170588">
        <ele>919.9</ele>
        <time>2018-06-11T07:32:23Z</time>
      </trkpt>
      <trkpt lat="42.308229" lon="2.170635">
        <ele>920.6</ele>
        <time>2018-06-11T07:32:24Z</time>
      </trkpt>
      <trkpt lat="42.308178" lon="2.170739">
        <ele>920.8</ele>
        <time>2018-06-11T07:32:26Z</time>
      </trkpt>
      <trkpt lat="42.308075" lon="2.170867">
        <ele>920.2</ele>
        <time>2018-06-11T07:32:30Z</time>
      </trkpt>
      <trkpt lat="42.307709" lon="2.170833">
        <ele>919.4</ele>
        <time>2018-06-11T07:32:40Z</time>
      </trkpt>
      <trkpt lat="42.307322" lon="2.170792">
        <ele>923.7</ele>
        <time>2018-06-11T07:32:50Z</time>
      </trkpt>
      <trkpt lat="42.307188" lon="2.170761">
        <ele>925.2</ele>
        <time>2018-06-11T07:32:54Z</time>
      </trkpt>
      <trkpt lat="42.306751" lon="2.170559">
        <ele>924.4</ele>
        <time>2018-06-11T07:33:06Z</time>
      </trkpt>
      <trkpt lat="42.306511" lon="2.170428">
        <ele>924.4</ele>
        <time>2018-06-11T07:33:13Z</time>
      </trkpt>
      <trkpt lat="42.306377" lon="2.170288">
        <ele>924.6</ele>
        <time>2018-06-11T07:33:17Z</time>
      </trkpt>
      <trkpt lat="42.306218" lon="2.169913">
        <ele>919.1</ele>
        <time>2018-06-11T07:33:26Z</time>
      </trkpt>
      <trkpt lat="42.305913" lon="2.169121">
        <ele>910.7</ele>
        <time>2018-06-11T07:33:44Z</time>
      </trkpt>
      <trkpt lat="42.305833" lon="2.168930">
        <ele>910.7</ele>
        <time>2018-06-11T07:33:48Z</time>
      </trkpt>
      <trkpt lat="42.305730" lon="2.168722">
        <ele>911.1</ele>
        <time>2018-06-11T07:33:53Z</time>
      </trkpt>
      <trkpt lat="42.305637" lon="2.168568">
        <ele>912.0</ele>
        <time>2018-06-11T07:33:57Z</time>
      </trkpt>
      <trkpt lat="42.305498" lon="2.168392">
        <ele>911.9</ele>
        <time>2018-06-11T07:34:02Z</time>
      </trkpt>
      <trkpt lat="42.305302" lon="2.168176">
        <ele>911.1</ele>
        <time>2018-06-11T07:34:08Z</time>
      </trkpt>
      <trkpt lat="42.305116" lon="2.168001">
        <ele>910.8</ele>
        <time>2018-06-11T07:34:14Z</time>
      </trkpt>
      <trkpt lat="42.305058" lon="2.167961">
        <ele>910.1</ele>
        <time>2018-06-11T07:34:16Z</time>
      </trkpt>
      <trkpt lat="42.304841" lon="2.167816">
        <ele>908.5</ele>
        <time>2018-06-11T07:34:23Z</time>
      </trkpt>
      <trkpt lat="42.304543" lon="2.167635">
        <ele>906.8</ele>
        <time>2018-06-11T07:34:31Z</time>
      </trkpt>
      <trkpt lat="42.303930" lon="2.167325">
        <ele>908.0</ele>
        <time>2018-06-11T07:34:49Z</time>
      </trkpt>
      <trkpt lat="42.303025" lon="2.166976">
        <ele>907.0</ele>
        <time>2018-06-11T07:35:13Z</time>
      </trkpt>
      <trkpt lat="42.302976" lon="2.166939">
        <ele>906.7</ele>
        <time>2018-06-11T07:35:15Z</time>
      </trkpt>
      <trkpt lat="42.302940" lon="2.166858">
        <ele>906.8</ele>
        <time>2018-06-11T07:35:17Z</time>
      </trkpt>
      <trkpt lat="42.302951" lon="2.166693">
        <ele>909.7</ele>
        <time>2018-06-11T07:35:20Z</time>
      </trkpt>
      <trkpt lat="42.302967" lon="2.166588">
        <ele>912.2</ele>
        <time>2018-06-11T07:35:22Z</time>
      </trkpt>
      <trkpt lat="42.302957" lon="2.166523">
        <ele>913.6</ele>
        <time>2018-06-11T07:35:24Z</time>
      </trkpt>
      <trkpt lat="42.302922" lon="2.166471">
        <ele>915.5</ele>
        <time>2018-06-11T07:35:25Z</time>
      </trkpt>
      <trkpt lat="42.302874" lon="2.166429">
        <ele>918.3</ele>
        <time>2018-06-11T07:35:27Z</time>
      </trkpt>
      <trkpt lat="42.302813" lon="2.166423">
        <ele>920.1</ele>
        <time>2018-06-11T07:35:28Z</time>
      </trkpt>
      <trkpt lat="42.302668" lon="2.166424">
        <ele>923.5</ele>
        <time>2018-06-11T07:35:32Z</time>
      </trkpt>
      <trkpt lat="42.302539" lon="2.166483">
        <ele>922.3</ele>
        <time>2018-06-11T07:35:36Z</time>
      </trkpt>
      <trkpt lat="42.302140" lon="2.166668">
        <ele>912.3</ele>
        <time>2018-06-11T07:35:47Z</time>
      </trkpt>
      <trkpt lat="42.301811" lon="2.166808">
        <ele>907.9</ele>
        <time>2018-06-11T07:35:57Z</time>
      </trkpt>
      <trkpt lat="42.301614" lon="2.166889">
        <ele>902.7</ele>
        <time>2018-06-11T07:36:02Z</time>
      </trkpt>
      <trkpt lat="42.301490" lon="2.166918">
        <ele>900.8</ele>
        <time>2018-06-11T07:36:06Z</time>
      </trkpt>
      <trkpt lat="42.301351" lon="2.166911">
        <ele>900.5</ele>
        <time>2018-06-11T07:36:09Z</time>
      </trkpt>
      <trkpt lat="42.301065" lon="2.166772">
        <ele>900.7</ele>
        <time>2018-06-11T07:36:17Z</time>
      </trkpt>
      <trkpt lat="42.300771" lon="2.166625">
        <ele>901.5</ele>
        <time>2018-06-11T07:36:26Z</time>
      </trkpt>
      <trkpt lat="42.300701" lon="2.166600">
        <ele>901.5</ele>
        <time>2018-06-11T07:36:28Z</time>
      </trkpt>
      <trkpt lat="42.300644" lon="2.166581">
        <ele>901.9</ele>
        <time>2018-06-11T07:36:29Z</time>
      </trkpt>
      <trkpt lat="42.300615" lon="2.166542">
        <ele>902.7</ele>
        <time>2018-06-11T07:36:30Z</time>
      </trkpt>
      <trkpt lat="42.300632" lon="2.166502">
        <ele>903.8</ele>
        <time>2018-06-11T07:36:31Z</time>
      </trkpt>
      <trkpt lat="42.300674" lon="2.166484">
        <ele>904.4</ele>
        <time>2018-06-11T07:36:32Z</time>
      </trkpt>
      <trkpt lat="42.300723" lon="2.166502">
        <ele>904.0</ele>
        <time>2018-06-11T07:36:34Z</time>
      </trkpt>
      <trkpt lat="42.300915" lon="2.166584">
        <ele>903.4</ele>
        <time>2018-06-11T07:36:39Z</time>
      </trkpt>
      <trkpt lat="42.300962" lon="2.166589">
        <ele>903.6</ele>
        <time>2018-06-11T07:36:40Z</time>
      </trkpt>
      <trkpt lat="42.301030" lon="2.166568">
        <ele>904.8</ele>
        <time>2018-06-11T07:36:42Z</time>
      </trkpt>
      <trkpt lat="42.301102" lon="2.166466">
        <ele>908.5</ele>
        <time>2018-06-11T07:36:45Z</time>
      </trkpt>
      <trkpt lat="42.301149" lon="2.166326">
        <ele>914.1</ele>
        <time>2018-06-11T07:36:48Z</time>
      </trkpt>
      <trkpt lat="42.301135" lon="2.166186">
        <ele>919.6</ele>
        <time>2018-06-11T07:36:51Z</time>
      </trkpt>
      <trkpt lat="42.301092" lon="2.166100">
        <ele>922.6</ele>
        <time>2018-06-11T07:36:53Z</time>
      </trkpt>
      <trkpt lat="42.301030" lon="2.166068">
        <ele>922.4</ele>
        <time>2018-06-11T07:36:55Z</time>
      </trkpt>
      <trkpt lat="42.300799" lon="2.166016">
        <ele>922.5</ele>
        <time>2018-06-11T07:37:01Z</time>
      </trkpt>
      <trkpt lat="42.300607" lon="2.165949">
        <ele>925.6</ele>
        <time>2018-06-11T07:37:07Z</time>
      </trkpt>
      <trkpt lat="42.300468" lon="2.165885">
        <ele>929.8</ele>
        <time>2018-06-11T07:37:11Z</time>
      </trkpt>
      <trkpt lat="42.300299" lon="2.165762">
        <ele>937.2</ele>
        <time>2018-06-11T07:37:16Z</time>
      </trkpt>
      <trkpt lat="42.300043" lon="2.165561">
        <ele>944.4</ele>
        <time>2018-06-11T07:37:24Z</time>
      </trkpt>
      <trkpt lat="42.299847" lon="2.165421">
        <ele>948.2</ele>
        <time>2018-06-11T07:37:30Z</time>
      </trkpt>
      <trkpt lat="42.299754" lon="2.165389">
        <ele>946.8</ele>
        <time>2018-06-11T07:37:33Z</time>
      </trkpt>
      <trkpt lat="42.299635" lon="2.165365">
        <ele>943.9</ele>
        <time>2018-06-11T07:37:36Z</time>
      </trkpt>
      <trkpt lat="42.299480" lon="2.165279">
        <ele>942.3</ele>
        <time>2018-06-11T07:37:40Z</time>
      </trkpt>
      <trkpt lat="42.299273" lon="2.165150">
        <ele>942.6</ele>
        <time>2018-06-11T07:37:46Z</time>
      </trkpt>
      <trkpt lat="42.299010" lon="2.164931">
        <ele>933.0</ele>
        <time>2018-06-11T07:37:55Z</time>
      </trkpt>
      <trkpt lat="42.298850" lon="2.164782">
        <ele>930.1</ele>
        <time>2018-06-11T07:38:00Z</time>
      </trkpt>
      <trkpt lat="42.298767" lon="2.164694">
        <ele>929.7</ele>
        <time>2018-06-11T07:38:03Z</time>
      </trkpt>
      <trkpt lat="42.298673" lon="2.164366">
        <ele>936.7</ele>
        <time>2018-06-11T07:38:10Z</time>
      </trkpt>
      <trkpt lat="42.298592" lon="2.163899">
        <ele>948.8</ele>
        <time>2018-06-11T07:38:20Z</time>
      </trkpt>
      <trkpt lat="42.298571" lon="2.163781">
        <ele>951.3</ele>
        <time>2018-06-11T07:38:22Z</time>
      </trkpt>
      <trkpt lat="42.298527" lon="2.163703">
        <ele>953.4</ele>
        <time>2018-06-11T07:38:24Z</time>
      </trkpt>
      <trkpt lat="42.298459" lon="2.163664">
        <ele>955.3</ele>
        <time>2018-06-11T07:38:26Z</time>
      </trkpt>
      <trkpt lat="42.298395" lon="2.163666">
        <ele>957.5</ele>
        <time>2018-06-11T07:38:28Z</time>
      </trkpt>
      <trkpt lat="42.298291" lon="2.163711">
        <ele>959.8</ele>
        <time>2018-06-11T07:38:31Z</time>
      </trkpt>
      <trkpt lat="42.298203" lon="2.163789">
        <ele>960.3</ele>
        <time>2018-06-11T07:38:34Z</time>
      </trkpt>
      <trkpt lat="42.298086" lon="2.163969">
        <ele>956.2</ele>
        <time>2018-06-11T07:38:39Z</time>
      </trkpt>
      <trkpt lat="42.297982" lon="2.164150">
        <ele>953.4</ele>
        <time>2018-06-11T07:38:43Z</time>
      </trkpt>
      <trkpt lat="42.297876" lon="2.164282">
        <ele>952.8</ele>
        <time>2018-06-11T07:38:47Z</time>
      </trkpt>
      <trkpt lat="42.297791" lon="2.164359">
        <ele>952.9</ele>
        <time>2018-06-11T07:38:50Z</time>
      </trkpt>
      <trkpt lat="42.297712" lon="2.164375">
        <ele>954.7</ele>
        <time>2018-06-11T07:38:52Z</time>
      </trkpt>
      <trkpt lat="42.297549" lon="2.164358">
        <ele>957.1</ele>
        <time>2018-06-11T07:38:56Z</time>
      </trkpt>
      <trkpt lat="42.297366" lon="2.164310">
        <ele>956.9</ele>
        <time>2018-06-11T07:39:01Z</time>
      </trkpt>
      <trkpt lat="42.297225" lon="2.164307">
        <ele>955.5</ele>
        <time>2018-06-11T07:39:05Z</time>
      </trkpt>
      <trkpt lat="42.297041" lon="2.164306">
        <ele>953.5</ele>
        <time>2018-06-11T07:39:10Z</time>
      </trkpt>
      <trkpt lat="42.296945" lon="2.164271">
        <ele>953.9</ele>
        <time>2018-06-11T07:39:12Z</time>
      </trkpt>
      <trkpt lat="42.296837" lon="2.164194">
        <ele>955.8</ele>
        <time>2018-06-11T07:39:16Z</time>
      </trkpt>
      <trkpt lat="42.296642" lon="2.164024">
        <ele>956.2</ele>
        <time>2018-06-11T07:39:22Z</time>
      </trkpt>
      <trkpt lat="42.296480" lon="2.163815">
        <ele>958.0</ele>
        <time>2018-06-11T07:39:28Z</time>
      </trkpt>
      <trkpt lat="42.296307" lon="2.163564">
        <ele>959.4</ele>
        <time>2018-06-11T07:39:34Z</time>
      </trkpt>
      <trkpt lat="42.296087" lon="2.163217">
        <ele>963.5</ele>
        <time>2018-06-11T07:39:43Z</time>
      </trkpt>
      <trkpt lat="42.295913" lon="2.162969">
        <ele>962.6</ele>
        <time>2018-06-11T07:39:50Z</time>
      </trkpt>
      <trkpt lat="42.295749" lon="2.162735">
        <ele>956.2</ele>
        <time>2018-06-11T07:39:57Z</time>
      </trkpt>
      <trkpt lat="42.295669" lon="2.162550">
        <ele>953.7</ele>
        <time>2018-06-11T07:40:01Z</time>
      </trkpt>
      <trkpt lat="42.295652" lon="2.162378">
        <ele>954.5</ele>
        <time>2018-06-11T07:40:04Z</time>
      </trkpt>
      <trkpt lat="42.295672" lon="2.162203">
        <ele>958.7</ele>
        <time>2018-06-11T07:40:08Z</time>
      </trkpt>
      <trkpt lat="42.295684" lon="2.162061">
        <ele>961.9</ele>
        <time>2018-06-11T07:40:11Z</time>
      </trkpt>
      <trkpt lat="42.295658" lon="2.161963">
        <ele>962.1</ele>
        <time>2018-06-11T07:40:13Z</time>
      </trkpt>
      <trkpt lat="42.295602" lon="2.161839">
        <ele>960.8</ele>
        <time>2018-06-11T07:40:16Z</time>
      </trkpt>
      <trkpt lat="42.295518" lon="2.161691">
        <ele>961.0</ele>
        <time>2018-06-11T07:40:19Z</time>
      </trkpt>
      <trkpt lat="42.295454" lon="2.161519">
        <ele>967.5</ele>
        <time>2018-06-11T07:40:23Z</time>
      </trkpt>
      <trkpt lat="42.295443" lon="2.161356">
        <ele>971.4</ele>
        <time>2018-06-11T07:40:27Z</time>
      </trkpt>
      <trkpt lat="42.295465" lon="2.161254">
        <ele>974.8</ele>
        <time>2018-06-11T07:40:29Z</time>
      </trkpt>
      <trkpt lat="42.295527" lon="2.161049">
        <ele>983.3</ele>
        <time>2018-06-11T07:40:34Z</time>
      </trkpt>
      <trkpt lat="42.295556" lon="2.160922">
        <ele>987.2</ele>
        <time>2018-06-11T07:40:37Z</time>
      </trkpt>
      <trkpt lat="42.295557" lon="2.160830">
        <ele>988.4</ele>
        <time>2018-06-11T07:40:38Z</time>
      </trkpt>
      <trkpt lat="42.295522" lon="2.160723">
        <ele>988.2</ele>
        <time>2018-06-11T07:40:41Z</time>
      </trkpt>
      <trkpt lat="42.295470" lon="2.160666">
        <ele>987.4</ele>
        <time>2018-06-11T07:40:42Z</time>
      </trkpt>
      <trkpt lat="42.295385" lon="2.160648">
        <ele>986.0</ele>
        <time>2018-06-11T07:40:45Z</time>
      </trkpt>
      <trkpt lat="42.295116" lon="2.160635">
        <ele>986.0</ele>
        <time>2018-06-11T07:40:52Z</time>
      </trkpt>
      <trkpt lat="42.294870" lon="2.160655">
        <ele>983.1</ele>
        <time>2018-06-11T07:40:58Z</time>
      </trkpt>
      <trkpt lat="42.294753" lon="2.160659">
        <ele>982.0</ele>
        <time>2018-06-11T07:41:02Z</time>
      </trkpt>
      <trkpt lat="42.294684" lon="2.160629">
        <ele>982.5</ele>
        <time>2018-06-11T07:41:03Z</time>
      </trkpt>
      <trkpt lat="42.294542" lon="2.160474">
        <ele>983.9</ele>
        <time>2018-06-11T07:41:08Z</time>
      </trkpt>
      <trkpt lat="42.294280" lon="2.160145">
        <ele>989.8</ele>
        <time>2018-06-11T07:41:18Z</time>
      </trkpt>
      <trkpt lat="42.294029" lon="2.159883">
        <ele>990.2</ele>
        <time>2018-06-11T07:41:26Z</time>
      </trkpt>
      <trkpt lat="42.293801" lon="2.159655">
        <ele>992.0</ele>
        <time>2018-06-11T07:41:34Z</time>
      </trkpt>
      <trkpt lat="42.293534" lon="2.159367">
        <ele>1000.0</ele>
        <time>2018-06-11T07:41:43Z</time>
      </trkpt>
      <trkpt lat="42.293443" lon="2.159283">
        <ele>1003.6</ele>
        <time>2018-06-11T07:41:46Z</time>
      </trkpt>
      <trkpt lat="42.293251" lon="2.159159">
        <ele>1005.7</ele>
        <time>2018-06-11T07:41:52Z</time>
      </trkpt>
      <trkpt lat="42.292958" lon="2.158988">
        <ele>1009.2</ele>
        <time>2018-06-11T07:42:00Z</time>
      </trkpt>
      <trkpt lat="42.292720" lon="2.158846">
        <ele>1012.2</ele>
        <time>2018-06-11T07:42:07Z</time>
      </trkpt>
      <trkpt lat="42.292548" lon="2.158738">
        <ele>1015.1</ele>
        <time>2018-06-11T07:42:12Z</time>
      </trkpt>
      <trkpt lat="42.292431" lon="2.158677">
        <ele>1016.4</ele>
        <time>2018-06-11T07:42:16Z</time>
      </trkpt>
      <trkpt lat="42.292313" lon="2.158666">
        <ele>1015.2</ele>
        <time>2018-06-11T07:42:19Z</time>
      </trkpt>
      <trkpt lat="42.292179" lon="2.158694">
        <ele>1012.7</ele>
        <time>2018-06-11T07:42:22Z</time>
      </trkpt>
      <trkpt lat="42.292001" lon="2.158709">
        <ele>1011.9</ele>
        <time>2018-06-11T07:42:27Z</time>
      </trkpt>
      <trkpt lat="42.291824" lon="2.158666">
        <ele>1015.7</ele>
        <time>2018-06-11T07:42:32Z</time>
      </trkpt>
      <trkpt lat="42.291654" lon="2.158571">
        <ele>1017.2</ele>
        <time>2018-06-11T07:42:37Z</time>
      </trkpt>
      <trkpt lat="42.291507" lon="2.158428">
        <ele>1017.4</ele>
        <time>2018-06-11T07:42:42Z</time>
      </trkpt>
      <trkpt lat="42.291319" lon="2.158202">
        <ele>1014.3</ele>
        <time>2018-06-11T07:42:48Z</time>
      </trkpt>
      <trkpt lat="42.291192" lon="2.158017">
        <ele>1013.1</ele>
        <time>2018-06-11T07:42:53Z</time>
      </trkpt>
      <trkpt lat="42.291080" lon="2.157788">
        <ele>1014.0</ele>
        <time>2018-06-11T07:42:59Z</time>
      </trkpt>
      <trkpt lat="42.290983" lon="2.157513">
        <ele>1015.6</ele>
        <time>2018-06-11T07:43:05Z</time>
      </trkpt>
      <trkpt lat="42.290856" lon="2.157134">
        <ele>1020.5</ele>
        <time>2018-06-11T07:43:13Z</time>
      </trkpt>
      <trkpt lat="42.290765" lon="2.156940">
        <ele>1020.6</ele>
        <time>2018-06-11T07:43:17Z</time>
      </trkpt>
      <trkpt lat="42.290638" lon="2.156712">
        <ele>1020.2</ele>
        <time>2018-06-11T07:43:23Z</time>
      </trkpt>
      <trkpt lat="42.290560" lon="2.156597">
        <ele>1020.5</ele>
        <time>2018-06-11T07:43:26Z</time>
      </trkpt>
      <trkpt lat="42.290444" lon="2.156466">
        <ele>1020.6</ele>
        <time>2018-06-11T07:43:30Z</time>
      </trkpt>
      <trkpt lat="42.290374" lon="2.156374">
        <ele>1021.0</ele>
        <time>2018-06-11T07:43:33Z</time>
      </trkpt>
      <trkpt lat="42.290342" lon="2.156290">
        <ele>1022.1</ele>
        <time>2018-06-11T07:43:34Z</time>
      </trkpt>
      <trkpt lat="42.290335" lon="2.156205">
        <ele>1023.9</ele>
        <time>2018-06-11T07:43:36Z</time>
      </trkpt>
      <trkpt lat="42.290351" lon="2.156156">
        <ele>1025.4</ele>
        <time>2018-06-11T07:43:37Z</time>
      </trkpt>
      <trkpt lat="42.290393" lon="2.156125">
        <ele>1026.8</ele>
        <time>2018-06-11T07:43:39Z</time>
      </trkpt>
      <trkpt lat="42.290434" lon="2.156118">
        <ele>1027.6</ele>
        <time>2018-06-11T07:43:40Z</time>
      </trkpt>
      <trkpt lat="42.290467" lon="2.156137">
        <ele>1027.7</ele>
        <time>2018-06-11T07:43:41Z</time>
      </trkpt>
      <trkpt lat="42.290497" lon="2.156156">
        <ele>1027.7</ele>
        <time>2018-06-11T07:43:41Z</time>
      </trkpt>
      <trkpt lat="42.290540" lon="2.156222">
        <ele>1026.9</ele>
        <time>2018-06-11T07:43:43Z</time>
      </trkpt>
      <trkpt lat="42.290608" lon="2.156365">
        <ele>1025.4</ele>
        <time>2018-06-11T07:43:47Z</time>
      </trkpt>
      <trkpt lat="42.290674" lon="2.156488">
        <ele>1024.4</ele>
        <time>2018-06-11T07:43:50Z</time>
      </trkpt>
      <trkpt lat="42.290776" lon="2.156670">
        <ele>1025.3</ele>
        <time>2018-06-11T07:43:54Z</time>
      </trkpt>
      <trkpt lat="42.290885" lon="2.156829">
        <ele>1026.5</ele>
        <time>2018-06-11T07:43:58Z</time>
      </trkpt>
      <trkpt lat="42.290931" lon="2.156940">
        <ele>1026.6</ele>
        <time>2018-06-11T07:44:01Z</time>
      </trkpt>
      <trkpt lat="42.290970" lon="2.157047">
        <ele>1026.4</ele>
        <time>2018-06-11T07:44:03Z</time>
      </trkpt>
      <trkpt lat="42.291000" lon="2.157133">
        <ele>1025.8</ele>
        <time>2018-06-11T07:44:05Z</time>
      </trkpt>
      <trkpt lat="42.291098" lon="2.157258">
        <ele>1026.0</ele>
        <time>2018-06-11T07:44:09Z</time>
      </trkpt>
      <trkpt lat="42.291151" lon="2.157344">
        <ele>1025.3</ele>
        <time>2018-06-11T07:44:11Z</time>
      </trkpt>
      <trkpt lat="42.291206" lon="2.157426">
        <ele>1025.8</ele>
        <time>2018-06-11T07:44:13Z</time>
      </trkpt>
      <trkpt lat="42.291270" lon="2.157604">
        <ele>1026.5</ele>
        <time>2018-06-11T07:44:17Z</time>
      </trkpt>
      <trkpt lat="42.291325" lon="2.157723">
        <ele>1026.9</ele>
        <time>2018-06-11T07:44:20Z</time>
      </trkpt>
      <trkpt lat="42.291381" lon="2.157800">
        <ele>1028.0</ele>
        <time>2018-06-11T07:44:22Z</time>
      </trkpt>
      <trkpt lat="42.291435" lon="2.157857">
        <ele>1029.5</ele>
        <time>2018-06-11T07:44:24Z</time>
      </trkpt>
      <trkpt lat="42.291492" lon="2.157906">
        <ele>1031.3</ele>
        <time>2018-06-11T07:44:25Z</time>
      </trkpt>
      <trkpt lat="42.291813" lon="2.158134">
        <ele>1040.0</ele>
        <time>2018-06-11T07:44:35Z</time>
      </trkpt>
      <trkpt lat="42.291882" lon="2.158162">
        <ele>1039.3</ele>
        <time>2018-06-11T07:44:37Z</time>
      </trkpt>
      <trkpt lat="42.291950" lon="2.158170">
        <ele>1039.1</ele>
        <time>2018-06-11T07:44:39Z</time>
      </trkpt>
      <trkpt lat="42.292019" lon="2.158160">
        <ele>1039.8</ele>
        <time>2018-06-11T07:44:41Z</time>
      </trkpt>
      <trkpt lat="42.292095" lon="2.158124">
        <ele>1042.1</ele>
        <time>2018-06-11T07:44:43Z</time>
      </trkpt>
      <trkpt lat="42.292168" lon="2.158089">
        <ele>1044.3</ele>
        <time>2018-06-11T07:44:45Z</time>
      </trkpt>
      <trkpt lat="42.292240" lon="2.158054">
        <ele>1046.4</ele>
        <time>2018-06-11T07:44:47Z</time>
      </trkpt>
      <trkpt lat="42.292313" lon="2.158029">
        <ele>1047.9</ele>
        <time>2018-06-11T07:44:49Z</time>
      </trkpt>
      <trkpt lat="42.292393" lon="2.158014">
        <ele>1049.8</ele>
        <time>2018-06-11T07:44:51Z</time>
      </trkpt>
      <trkpt lat="42.292469" lon="2.158006">
        <ele>1052.6</ele>
        <time>2018-06-11T07:44:54Z</time>
      </trkpt>
      <trkpt lat="42.292549" lon="2.158010">
        <ele>1054.8</ele>
        <time>2018-06-11T07:44:56Z</time>
      </trkpt>
      <trkpt lat="42.292629" lon="2.158021">
        <ele>1056.8</ele>
        <time>2018-06-11T07:44:58Z</time>
      </trkpt>
      <trkpt lat="42.292706" lon="2.158036">
        <ele>1058.0</ele>
        <time>2018-06-11T07:45:00Z</time>
      </trkpt>
      <trkpt lat="42.292850" lon="2.158091">
        <ele>1058.7</ele>
        <time>2018-06-11T07:45:04Z</time>
      </trkpt>
      <trkpt lat="42.292919" lon="2.158130">
        <ele>1058.3</ele>
        <time>2018-06-11T07:45:06Z</time>
      </trkpt>
      <trkpt lat="42.292988" lon="2.158174">
        <ele>1057.0</ele>
        <time>2018-06-11T07:45:08Z</time>
      </trkpt>
      <trkpt lat="42.293068" lon="2.158214">
        <ele>1056.1</ele>
        <time>2018-06-11T07:45:10Z</time>
      </trkpt>
      <trkpt lat="42.293144" lon="2.158250">
        <ele>1054.7</ele>
        <time>2018-06-11T07:45:12Z</time>
      </trkpt>
      <trkpt lat="42.293235" lon="2.158279">
        <ele>1053.8</ele>
        <time>2018-06-11T07:45:15Z</time>
      </trkpt>
      <trkpt lat="42.293481" lon="2.158357">
        <ele>1053.0</ele>
        <time>2018-06-11T07:45:22Z</time>
      </trkpt>
      <trkpt lat="42.293705" lon="2.158380">
        <ele>1057.3</ele>
        <time>2018-06-11T07:45:28Z</time>
      </trkpt>
      <trkpt lat="42.294113" lon="2.158421">
        <ele>1063.1</ele>
        <time>2018-06-11T07:45:39Z</time>
      </trkpt>
      <trkpt lat="42.294380" lon="2.158467">
        <ele>1065.3</ele>
        <time>2018-06-11T07:45:46Z</time>
      </trkpt>
      <trkpt lat="42.294640" lon="2.158540">
        <ele>1056.4</ele>
        <time>2018-06-11T07:45:53Z</time>
      </trkpt>
      <trkpt lat="42.294720" lon="2.158533">
        <ele>1055.7</ele>
        <time>2018-06-11T07:45:55Z</time>
      </trkpt>
      <trkpt lat="42.294840" lon="2.158492">
        <ele>1055.6</ele>
        <time>2018-06-11T07:45:58Z</time>
      </trkpt>
      <trkpt lat="42.295050" lon="2.158378">
        <ele>1055.3</ele>
        <time>2018-06-11T07:46:04Z</time>
      </trkpt>
      <trkpt lat="42.295287" lon="2.158232">
        <ele>1058.9</ele>
        <time>2018-06-11T07:46:11Z</time>
      </trkpt>
      <trkpt lat="42.295464" lon="2.158165">
        <ele>1061.2</ele>
        <time>2018-06-11T07:46:16Z</time>
      </trkpt>
      <trkpt lat="42.295670" lon="2.158106">
        <ele>1060.5</ele>
        <time>2018-06-11T07:46:22Z</time>
      </trkpt>
      <trkpt lat="42.295996" lon="2.158069">
        <ele>1058.7</ele>
        <time>2018-06-11T07:46:30Z</time>
      </trkpt>
      <trkpt lat="42.296230" lon="2.158069">
        <ele>1060.1</ele>
        <time>2018-06-11T07:46:37Z</time>
      </trkpt>
      <trkpt lat="42.296489" lon="2.158067">
        <ele>1060.4</ele>
        <time>2018-06-11T07:46:44Z</time>
      </trkpt>
      <trkpt lat="42.296577" lon="2.158049">
        <ele>1060.8</ele>
        <time>2018-06-11T07:46:46Z</time>
      </trkpt>
      <trkpt lat="42.296636" lon="2.158005">
        <ele>1061.4</ele>
        <time>2018-06-11T07:46:48Z</time>
      </trkpt>
      <trkpt lat="42.296696" lon="2.157934">
        <ele>1062.4</ele>
        <time>2018-06-11T07:46:50Z</time>
      </trkpt>
      <trkpt lat="42.296759" lon="2.157807">
        <ele>1064.6</ele>
        <time>2018-06-11T07:46:53Z</time>
      </trkpt>
      <trkpt lat="42.296816" lon="2.157702">
        <ele>1066.2</ele>
        <time>2018-06-11T07:46:55Z</time>
      </trkpt>
      <trkpt lat="42.296872" lon="2.157619">
        <ele>1067.9</ele>
        <time>2018-06-11T07:46:58Z</time>
      </trkpt>
      <trkpt lat="42.296971" lon="2.157527">
        <ele>1069.8</ele>
        <time>2018-06-11T07:47:01Z</time>
      </trkpt>
      <trkpt lat="42.297076" lon="2.157466">
        <ele>1071.2</ele>
        <time>2018-06-11T07:47:04Z</time>
      </trkpt>
      <trkpt lat="42.297229" lon="2.157399">
        <ele>1072.7</ele>
        <time>2018-06-11T07:47:08Z</time>
      </trkpt>
      <trkpt lat="42.297366" lon="2.157352">
        <ele>1074.1</ele>
        <time>2018-06-11T07:47:12Z</time>
      </trkpt>
      <trkpt lat="42.297522" lon="2.157328">
        <ele>1074.0</ele>
        <time>2018-06-11T07:47:16Z</time>
      </trkpt>
      <trkpt lat="42.297651" lon="2.157340">
        <ele>1073.6</ele>
        <time>2018-06-11T07:47:20Z</time>
      </trkpt>
      <trkpt lat="42.297751" lon="2.157374">
        <ele>1074.5</ele>
        <time>2018-06-11T07:47:22Z</time>
      </trkpt>
      <trkpt lat="42.297843" lon="2.157411">
        <ele>1075.5</ele>
        <time>2018-06-11T07:47:25Z</time>
      </trkpt>
      <trkpt lat="42.298206" lon="2.157548">
        <ele>1079.2</ele>
        <time>2018-06-11T07:47:35Z</time>
      </trkpt>
      <trkpt lat="42.298534" lon="2.157683">
        <ele>1083.6</ele>
        <time>2018-06-11T07:47:44Z</time>
      </trkpt>
      <trkpt lat="42.298611" lon="2.157727">
        <ele>1084.6</ele>
        <time>2018-06-11T07:47:46Z</time>
      </trkpt>
      <trkpt lat="42.298676" lon="2.157787">
        <ele>1085.0</ele>
        <time>2018-06-11T07:47:48Z</time>
      </trkpt>
      <trkpt lat="42.298717" lon="2.157854">
        <ele>1084.5</ele>
        <time>2018-06-11T07:47:50Z</time>
      </trkpt>
      <trkpt lat="42.298747" lon="2.157933">
        <ele>1083.7</ele>
        <time>2018-06-11T07:47:52Z</time>
      </trkpt>
      <trkpt lat="42.298800" lon="2.158128">
        <ele>1082.9</ele>
        <time>2018-06-11T07:47:56Z</time>
      </trkpt>
      <trkpt lat="42.298847" lon="2.158294">
        <ele>1083.2</ele>
        <time>2018-06-11T07:47:59Z</time>
      </trkpt>
      <trkpt lat="42.298909" lon="2.158458">
        <ele>1084.6</ele>
        <time>2018-06-11T07:48:03Z</time>
      </trkpt>
      <trkpt lat="42.298972" lon="2.158562">
        <ele>1085.9</ele>
        <time>2018-06-11T07:48:06Z</time>
      </trkpt>
      <trkpt lat="42.299187" lon="2.158791">
        <ele>1090.8</ele>
        <time>2018-06-11T07:48:13Z</time>
      </trkpt>
      <trkpt lat="42.299241" lon="2.158874">
        <ele>1091.8</ele>
        <time>2018-06-11T07:48:15Z</time>
      </trkpt>
      <trkpt lat="42.299317" lon="2.159012">
        <ele>1093.5</ele>
        <time>2018-06-11T07:48:18Z</time>
      </trkpt>
      <trkpt lat="42.299447" lon="2.159246">
        <ele>1095.3</ele>
        <time>2018-06-11T07:48:24Z</time>
      </trkpt>
      <trkpt lat="42.299576" lon="2.159465">
        <ele>1097.8</ele>
        <time>2018-06-11T07:48:30Z</time>
      </trkpt>
      <trkpt lat="42.299678" lon="2.159659">
        <ele>1098.7</ele>
        <time>2018-06-11T07:48:34Z</time>
      </trkpt>
      <trkpt lat="42.299762" lon="2.159818">
        <ele>1099.6</ele>
        <time>2018-06-11T07:48:38Z</time>
      </trkpt>
      <trkpt lat="42.299852" lon="2.159961">
        <ele>1101.4</ele>
        <time>2018-06-11T07:48:42Z</time>
      </trkpt>
      <trkpt lat="42.299915" lon="2.160041">
        <ele>1103.9</ele>
        <time>2018-06-11T07:48:44Z</time>
      </trkpt>
      <trkpt lat="42.300086" lon="2.160206">
        <ele>1112.3</ele>
        <time>2018-06-11T07:48:50Z</time>
      </trkpt>
      <trkpt lat="42.300205" lon="2.160304">
        <ele>1115.8</ele>
        <time>2018-06-11T07:48:54Z</time>
      </trkpt>
      <trkpt lat="42.300315" lon="2.160385">
        <ele>1117.4</ele>
        <time>2018-06-11T07:48:57Z</time>
      </trkpt>
      <trkpt lat="42.300425" lon="2.160438">
        <ele>1119.5</ele>
        <time>2018-06-11T07:49:00Z</time>
      </trkpt>
      <trkpt lat="42.300534" lon="2.160494">
        <ele>1120.6</ele>
        <time>2018-06-11T07:49:04Z</time>
      </trkpt>
      <trkpt lat="42.300615" lon="2.160557">
        <ele>1120.7</ele>
        <time>2018-06-11T07:49:06Z</time>
      </trkpt>
      <trkpt lat="42.300670" lon="2.160637">
        <ele>1119.4</ele>
        <time>2018-06-11T07:49:08Z</time>
      </trkpt>
      <trkpt lat="42.300725" lon="2.160776">
        <ele>1116.3</ele>
        <time>2018-06-11T07:49:11Z</time>
      </trkpt>
      <trkpt lat="42.300803" lon="2.160988">
        <ele>1112.5</ele>
        <time>2018-06-11T07:49:16Z</time>
      </trkpt>
      <trkpt lat="42.300818" lon="2.161074">
        <ele>1111.5</ele>
        <time>2018-06-11T07:49:18Z</time>
      </trkpt>
      <trkpt lat="42.300816" lon="2.161149">
        <ele>1110.2</ele>
        <time>2018-06-11T07:49:19Z</time>
      </trkpt>
      <trkpt lat="42.300801" lon="2.161240">
        <ele>1108.2</ele>
        <time>2018-06-11T07:49:21Z</time>
      </trkpt>
      <trkpt lat="42.300745" lon="2.161468">
        <ele>1106.0</ele>
        <time>2018-06-11T07:49:26Z</time>
      </trkpt>
      <trkpt lat="42.300716" lon="2.161613">
        <ele>1105.3</ele>
        <time>2018-06-11T07:49:29Z</time>
      </trkpt>
      <trkpt lat="42.300717" lon="2.161723">
        <ele>1105.3</ele>
        <time>2018-06-11T07:49:31Z</time>
      </trkpt>
      <trkpt lat="42.300747" lon="2.161804">
        <ele>1105.6</ele>
        <time>2018-06-11T07:49:33Z</time>
      </trkpt>
      <trkpt lat="42.300814" lon="2.161855">
        <ele>1105.8</ele>
        <time>2018-06-11T07:49:35Z</time>
      </trkpt>
      <trkpt lat="42.300880" lon="2.161846">
        <ele>1106.7</ele>
        <time>2018-06-11T07:49:37Z</time>
      </trkpt>
      <trkpt lat="42.300940" lon="2.161793">
        <ele>1107.7</ele>
        <time>2018-06-11T07:49:39Z</time>
      </trkpt>
      <trkpt lat="42.300992" lon="2.161722">
        <ele>1109.1</ele>
        <time>2018-06-11T07:49:41Z</time>
      </trkpt>
      <trkpt lat="42.301030" lon="2.161635">
        <ele>1110.9</ele>
        <time>2018-06-11T07:49:43Z</time>
      </trkpt>
      <trkpt lat="42.301051" lon="2.161530">
        <ele>1112.5</ele>
        <time>2018-06-11T07:49:45Z</time>
      </trkpt>
      <trkpt lat="42.301052" lon="2.161412">
        <ele>1114.1</ele>
        <time>2018-06-11T07:49:47Z</time>
      </trkpt>
      <trkpt lat="42.301044" lon="2.161250">
        <ele>1115.8</ele>
        <time>2018-06-11T07:49:50Z</time>
      </trkpt>
      <trkpt lat="42.301045" lon="2.161104">
        <ele>1118.1</ele>
        <time>2018-06-11T07:49:53Z</time>
      </trkpt>
      <trkpt lat="42.301041" lon="2.160990">
        <ele>1119.7</ele>
        <time>2018-06-11T07:49:55Z</time>
      </trkpt>
      <trkpt lat="42.301022" lon="2.160874">
        <ele>1121.5</ele>
        <time>2018-06-11T07:49:58Z</time>
      </trkpt>
      <trkpt lat="42.300976" lon="2.160709">
        <ele>1123.8</ele>
        <time>2018-06-11T07:50:01Z</time>
      </trkpt>
      <trkpt lat="42.300919" lon="2.160505">
        <ele>1127.5</ele>
        <time>2018-06-11T07:50:06Z</time>
      </trkpt>
      <trkpt lat="42.300878" lon="2.160378">
        <ele>1130.1</ele>
        <time>2018-06-11T07:50:08Z</time>
      </trkpt>
      <trkpt lat="42.300813" lon="2.160275">
        <ele>1132.0</ele>
        <time>2018-06-11T07:50:11Z</time>
      </trkpt>
      <trkpt lat="42.300747" lon="2.160207">
        <ele>1133.4</ele>
        <time>2018-06-11T07:50:13Z</time>
      </trkpt>
      <trkpt lat="42.300554" lon="2.160097">
        <ele>1133.9</ele>
        <time>2018-06-11T07:50:19Z</time>
      </trkpt>
      <trkpt lat="42.300417" lon="2.160004">
        <ele>1133.9</ele>
        <time>2018-06-11T07:50:23Z</time>
      </trkpt>
      <trkpt lat="42.300308" lon="2.159897">
        <ele>1130.9</ele>
        <time>2018-06-11T07:50:27Z</time>
      </trkpt>
      <trkpt lat="42.300162" lon="2.159700">
        <ele>1124.5</ele>
        <time>2018-06-11T07:50:32Z</time>
      </trkpt>
      <trkpt lat="42.300077" lon="2.159527">
        <ele>1120.6</ele>
        <time>2018-06-11T07:50:36Z</time>
      </trkpt>
      <trkpt lat="42.300039" lon="2.159394">
        <ele>1118.9</ele>
        <time>2018-06-11T07:50:39Z</time>
      </trkpt>
      <trkpt lat="42.299989" lon="2.159211">
        <ele>1116.6</ele>
        <time>2018-06-11T07:50:43Z</time>
      </trkpt>
      <trkpt lat="42.299963" lon="2.159069">
        <ele>1114.9</ele>
        <time>2018-06-11T07:50:46Z</time>
      </trkpt>
      <trkpt lat="42.299969" lon="2.158887">
        <ele>1114.9</ele>
        <time>2018-06-11T07:50:50Z</time>
      </trkpt>
      <trkpt lat="42.300016" lon="2.158690">
        <ele>1116.9</ele>
        <time>2018-06-11T07:50:54Z</time>
      </trkpt>
      <trkpt lat="42.300067" lon="2.158548">
        <ele>1120.0</ele>
        <time>2018-06-11T07:50:57Z</time>
      </trkpt>
      <trkpt lat="42.300176" lon="2.158181">
        <ele>1126.5</ele>
        <time>2018-06-11T07:51:05Z</time>
      </trkpt>
      <trkpt lat="42.300258" lon="2.157790">
        <ele>1130.7</ele>
        <time>2018-06-11T07:51:13Z</time>
      </trkpt>
      <trkpt lat="42.300302" lon="2.157566">
        <ele>1134.9</ele>
        <time>2018-06-11T07:51:17Z</time>
      </trkpt>
      <trkpt lat="42.300311" lon="2.157416">
        <ele>1137.5</ele>
        <time>2018-06-11T07:51:20Z</time>
      </trkpt>
      <trkpt lat="42.300301" lon="2.157273">
        <ele>1139.4</ele>
        <time>2018-06-11T07:51:23Z</time>
      </trkpt>
      <trkpt lat="42.300293" lon="2.157215">
        <ele>1140.0</ele>
        <time>2018-06-11T07:51:24Z</time>
      </trkpt>
      <trkpt lat="42.300270" lon="2.157096">
        <ele>1141.1</ele>
        <time>2018-06-11T07:51:27Z</time>
      </trkpt>
      <trkpt lat="42.300246" lon="2.156984">
        <ele>1141.0</ele>
        <time>2018-06-11T07:51:29Z</time>
      </trkpt>
      <trkpt lat="42.300219" lon="2.156858">
        <ele>1140.2</ele>
        <time>2018-06-11T07:51:32Z</time>
      </trkpt>
      <trkpt lat="42.300183" lon="2.156698">
        <ele>1138.5</ele>
        <time>2018-06-11T07:51:35Z</time>
      </trkpt>
      <trkpt lat="42.300155" lon="2.156580">
        <ele>1137.0</ele>
        <time>2018-06-11T07:51:37Z</time>
      </trkpt>
      <trkpt lat="42.300125" lon="2.156430">
        <ele>1135.9</ele>
        <time>2018-06-11T07:51:41Z</time>
      </trkpt>
      <trkpt lat="42.300102" lon="2.156261">
        <ele>1136.0</ele>
        <time>2018-06-11T07:51:44Z</time>
      </trkpt>
      <trkpt lat="42.300112" lon="2.156092">
        <ele>1138.5</ele>
        <time>2018-06-11T07:51:47Z</time>
      </trkpt>
      <trkpt lat="42.300125" lon="2.155907">
        <ele>1142.0</ele>
        <time>2018-06-11T07:51:51Z</time>
      </trkpt>
      <trkpt lat="42.300139" lon="2.155780">
        <ele>1145.2</ele>
        <time>2018-06-11T07:51:54Z</time>
      </trkpt>
      <trkpt lat="42.300149" lon="2.155666">
        <ele>1148.0</ele>
        <time>2018-06-11T07:51:56Z</time>
      </trkpt>
      <trkpt lat="42.300150" lon="2.155522">
        <ele>1150.5</ele>
        <time>2018-06-11T07:51:59Z</time>
      </trkpt>
      <trkpt lat="42.300135" lon="2.155393">
        <ele>1152.3</ele>
        <time>2018-06-11T07:52:01Z</time>
      </trkpt>
      <trkpt lat="42.300101" lon="2.155268">
        <ele>1153.5</ele>
        <time>2018-06-11T07:52:04Z</time>
      </trkpt>
      <trkpt lat="42.300070" lon="2.155100">
        <ele>1155.3</ele>
        <time>2018-06-11T07:52:08Z</time>
      </trkpt>
      <trkpt lat="42.300064" lon="2.154962">
        <ele>1157.1</ele>
        <time>2018-06-11T07:52:10Z</time>
      </trkpt>
      <trkpt lat="42.300087" lon="2.154828">
        <ele>1159.8</ele>
        <time>2018-06-11T07:52:13Z</time>
      </trkpt>
      <trkpt lat="42.300099" lon="2.154709">
        <ele>1162.1</ele>
        <time>2018-06-11T07:52:15Z</time>
      </trkpt>
      <trkpt lat="42.300102" lon="2.154597">
        <ele>1163.9</ele>
        <time>2018-06-11T07:52:18Z</time>
      </trkpt>
      <trkpt lat="42.300097" lon="2.154484">
        <ele>1165.1</ele>
        <time>2018-06-11T07:52:20Z</time>
      </trkpt>
      <trkpt lat="42.300061" lon="2.154377">
        <ele>1165.5</ele>
        <time>2018-06-11T07:52:22Z</time>
      </trkpt>
      <trkpt lat="42.300014" lon="2.154264">
        <ele>1165.8</ele>
        <time>2018-06-11T07:52:25Z</time>
      </trkpt>
      <trkpt lat="42.299956" lon="2.154083">
        <ele>1167.2</ele>
        <time>2018-06-11T07:52:29Z</time>
      </trkpt>
      <trkpt lat="42.299921" lon="2.153870">
        <ele>1170.7</ele>
        <time>2018-06-11T07:52:33Z</time>
      </trkpt>
      <trkpt lat="42.299919" lon="2.153734">
        <ele>1173.4</ele>
        <time>2018-06-11T07:52:36Z</time>
      </trkpt>
      <trkpt lat="42.299908" lon="2.153391">
        <ele>1181.8</ele>
        <time>2018-06-11T07:52:43Z</time>
      </trkpt>
      <trkpt lat="42.299895" lon="2.153282">
        <ele>1185.0</ele>
        <time>2018-06-11T07:52:45Z</time>
      </trkpt>
      <trkpt lat="42.299863" lon="2.153169">
        <ele>1188.4</ele>
        <time>2018-06-11T07:52:48Z</time>
      </trkpt>
      <trkpt lat="42.299841" lon="2.153123">
        <ele>1189.9</ele>
        <time>2018-06-11T07:52:49Z</time>
      </trkpt>
      <trkpt lat="42.299795" lon="2.153105">
        <ele>1191.7</ele>
        <time>2018-06-11T07:52:50Z</time>
      </trkpt>
      <trkpt lat="42.299670" lon="2.153081">
        <ele>1196.4</ele>
        <time>2018-06-11T07:52:54Z</time>
      </trkpt>
      <trkpt lat="42.299615" lon="2.153096">
        <ele>1197.8</ele>
        <time>2018-06-11T07:52:55Z</time>
      </trkpt>
      <trkpt lat="42.299557" lon="2.153167">
        <ele>1197.9</ele>
        <time>2018-06-11T07:52:57Z</time>
      </trkpt>
      <trkpt lat="42.299415" lon="2.153460">
        <ele>1196.2</ele>
        <time>2018-06-11T07:53:04Z</time>
      </trkpt>
      <trkpt lat="42.299328" lon="2.153621">
        <ele>1195.1</ele>
        <time>2018-06-11T07:53:08Z</time>
      </trkpt>
      <trkpt lat="42.299229" lon="2.153779">
        <ele>1195.6</ele>
        <time>2018-06-11T07:53:12Z</time>
      </trkpt>
      <trkpt lat="42.299121" lon="2.153946">
        <ele>1195.8</ele>
        <time>2018-06-11T07:53:16Z</time>
      </trkpt>
      <trkpt lat="42.298954" lon="2.154190">
        <ele>1196.8</ele>
        <time>2018-06-11T07:53:23Z</time>
      </trkpt>
      <trkpt lat="42.298923" lon="2.154257">
        <ele>1196.3</ele>
        <time>2018-06-11T07:53:24Z</time>
      </trkpt>
      <trkpt lat="42.298874" lon="2.154324">
        <ele>1196.5</ele>
        <time>2018-06-11T07:53:26Z</time>
      </trkpt>
      <trkpt lat="42.298851" lon="2.154359">
        <ele>1196.3</ele>
        <time>2018-06-11T07:53:27Z</time>
      </trkpt>
      <trkpt lat="42.298785" lon="2.154449">
        <ele>1196.2</ele>
        <time>2018-06-11T07:53:30Z</time>
      </trkpt>
      <trkpt lat="42.298740" lon="2.154487">
        <ele>1196.8</ele>
        <time>2018-06-11T07:53:31Z</time>
      </trkpt>
      <trkpt lat="42.298695" lon="2.154496">
        <ele>1197.7</ele>
        <time>2018-06-11T07:53:32Z</time>
      </trkpt>
      <trkpt lat="42.298638" lon="2.154484">
        <ele>1199.8</ele>
        <time>2018-06-11T07:53:34Z</time>
      </trkpt>
      <trkpt lat="42.298601" lon="2.154446">
        <ele>1202.0</ele>
        <time>2018-06-11T07:53:35Z</time>
      </trkpt>
      <trkpt lat="42.298586" lon="2.154391">
        <ele>1204.0</ele>
        <time>2018-06-11T07:53:36Z</time>
      </trkpt>
      <trkpt lat="42.298586" lon="2.154327">
        <ele>1205.9</ele>
        <time>2018-06-11T07:53:38Z</time>
      </trkpt>
      <trkpt lat="42.298597" lon="2.154259">
        <ele>1207.6</ele>
        <time>2018-06-11T07:53:39Z</time>
      </trkpt>
      <trkpt lat="42.298622" lon="2.154196">
        <ele>1208.7</ele>
        <time>2018-06-11T07:53:41Z</time>
      </trkpt>
      <trkpt lat="42.298666" lon="2.154144">
        <ele>1209.3</ele>
        <time>2018-06-11T07:53:42Z</time>
      </trkpt>
      <trkpt lat="42.298736" lon="2.154092">
        <ele>1209.4</ele>
        <time>2018-06-11T07:53:44Z</time>
      </trkpt>
      <trkpt lat="42.298779" lon="2.154061">
        <ele>1208.7</ele>
        <time>2018-06-11T07:53:46Z</time>
      </trkpt>
      <trkpt lat="42.298820" lon="2.153997">
        <ele>1208.6</ele>
        <time>2018-06-11T07:53:47Z</time>
      </trkpt>
      <trkpt lat="42.298821" lon="2.153992">
        <ele>1208.7</ele>
        <time>2018-06-11T07:53:47Z</time>
      </trkpt>
      <trkpt lat="42.298825" lon="2.153979">
        <ele>1208.9</ele>
        <time>2018-06-11T07:53:48Z</time>
      </trkpt>
      <trkpt lat="42.298830" lon="2.153964">
        <ele>1209.1</ele>
        <time>2018-06-11T07:53:48Z</time>
      </trkpt>
      <trkpt lat="42.298832" lon="2.153957">
        <ele>1209.2</ele>
        <time>2018-06-11T07:53:48Z</time>
      </trkpt>
      <trkpt lat="42.298864" lon="2.153880">
        <ele>1210.3</ele>
        <time>2018-06-11T07:53:50Z</time>
      </trkpt>
      <trkpt lat="42.298902" lon="2.153731">
        <ele>1213.5</ele>
        <time>2018-06-11T07:53:53Z</time>
      </trkpt>
      <trkpt lat="42.298956" lon="2.153551">
        <ele>1215.8</ele>
        <time>2018-06-11T07:53:57Z</time>
      </trkpt>
      <trkpt lat="42.299059" lon="2.153325">
        <ele>1217.6</ele>
        <time>2018-06-11T07:54:02Z</time>
      </trkpt>
      <trkpt lat="42.299123" lon="2.153216">
        <ele>1217.3</ele>
        <time>2018-06-11T07:54:05Z</time>
      </trkpt>
      <trkpt lat="42.299230" lon="2.153008">
        <ele>1216.3</ele>
        <time>2018-06-11T07:54:10Z</time>
      </trkpt>
      <trkpt lat="42.299295" lon="2.152837">
        <ele>1216.1</ele>
        <time>2018-06-11T07:54:14Z</time>
      </trkpt>
      <trkpt lat="42.299344" lon="2.152658">
        <ele>1217.5</ele>
        <time>2018-06-11T07:54:17Z</time>
      </trkpt>
      <trkpt lat="42.299390" lon="2.152471">
        <ele>1219.2</ele>
        <time>2018-06-11T07:54:21Z</time>
      </trkpt>
      <trkpt lat="42.299433" lon="2.152220">
        <ele>1221.8</ele>
        <time>2018-06-11T07:54:26Z</time>
      </trkpt>
      <trkpt lat="42.299459" lon="2.152078">
        <ele>1223.2</ele>
        <time>2018-06-11T07:54:29Z</time>
      </trkpt>
      <trkpt lat="42.299498" lon="2.151988">
        <ele>1224.3</ele>
        <time>2018-06-11T07:54:31Z</time>
      </trkpt>
      <trkpt lat="42.299542" lon="2.151930">
        <ele>1224.4</ele>
        <time>2018-06-11T07:54:33Z</time>
      </trkpt>
      <trkpt lat="42.299618" lon="2.151855">
        <ele>1224.3</ele>
        <time>2018-06-11T07:54:35Z</time>
      </trkpt>
      <trkpt lat="42.299731" lon="2.151787">
        <ele>1223.8</ele>
        <time>2018-06-11T07:54:39Z</time>
      </trkpt>
      <trkpt lat="42.299826" lon="2.151740">
        <ele>1223.2</ele>
        <time>2018-06-11T07:54:41Z</time>
      </trkpt>
      <trkpt lat="42.299991" lon="2.151659">
        <ele>1220.5</ele>
        <time>2018-06-11T07:54:46Z</time>
      </trkpt>
      <trkpt lat="42.300086" lon="2.151597">
        <ele>1219.0</ele>
        <time>2018-06-11T07:54:49Z</time>
      </trkpt>
      <trkpt lat="42.300163" lon="2.151559">
        <ele>1218.0</ele>
        <time>2018-06-11T07:54:51Z</time>
      </trkpt>
      <trkpt lat="42.300251" lon="2.151547">
        <ele>1217.3</ele>
        <time>2018-06-11T07:54:53Z</time>
      </trkpt>
      <trkpt lat="42.300334" lon="2.151549">
        <ele>1216.3</ele>
        <time>2018-06-11T07:54:56Z</time>
      </trkpt>
      <trkpt lat="42.300491" lon="2.151554">
        <ele>1214.1</ele>
        <time>2018-06-11T07:55:00Z</time>
      </trkpt>
      <trkpt lat="42.300654" lon="2.151507">
        <ele>1211.8</ele>
        <time>2018-06-11T07:55:04Z</time>
      </trkpt>
      <trkpt lat="42.300841" lon="2.151426">
        <ele>1212.2</ele>
        <time>2018-06-11T07:55:09Z</time>
      </trkpt>
      <trkpt lat="42.300917" lon="2.151402">
        <ele>1213.0</ele>
        <time>2018-06-11T07:55:11Z</time>
      </trkpt>
      <trkpt lat="42.300960" lon="2.151390">
        <ele>1213.4</ele>
        <time>2018-06-11T07:55:13Z</time>
      </trkpt>
      <trkpt lat="42.300984" lon="2.151373">
        <ele>1213.4</ele>
        <time>2018-06-11T07:55:13Z</time>
      </trkpt>
      <trkpt lat="42.301007" lon="2.151340">
        <ele>1213.3</ele>
        <time>2018-06-11T07:55:14Z</time>
      </trkpt>
      <trkpt lat="42.301027" lon="2.151297">
        <ele>1213.2</ele>
        <time>2018-06-11T07:55:15Z</time>
      </trkpt>
      <trkpt lat="42.301045" lon="2.151231">
        <ele>1213.0</ele>
        <time>2018-06-11T07:55:17Z</time>
      </trkpt>
      <trkpt lat="42.301061" lon="2.151148">
        <ele>1212.2</ele>
        <time>2018-06-11T07:55:18Z</time>
      </trkpt>
      <trkpt lat="42.301097" lon="2.151003">
        <ele>1210.8</ele>
        <time>2018-06-11T07:55:21Z</time>
      </trkpt>
      <trkpt lat="42.301114" lon="2.150876">
        <ele>1210.0</ele>
        <time>2018-06-11T07:55:24Z</time>
      </trkpt>
      <trkpt lat="42.301128" lon="2.150788">
        <ele>1209.4</ele>
        <time>2018-06-11T07:55:26Z</time>
      </trkpt>
      <trkpt lat="42.301122" lon="2.150687">
        <ele>1208.9</ele>
        <time>2018-06-11T07:55:28Z</time>
      </trkpt>
      <trkpt lat="42.301105" lon="2.150587">
        <ele>1208.7</ele>
        <time>2018-06-11T07:55:30Z</time>
      </trkpt>
      <trkpt lat="42.301087" lon="2.150499">
        <ele>1208.6</ele>
        <time>2018-06-11T07:55:31Z</time>
      </trkpt>
      <trkpt lat="42.301061" lon="2.150427">
        <ele>1208.7</ele>
        <time>2018-06-11T07:55:33Z</time>
      </trkpt>
      <trkpt lat="42.301023" lon="2.150267">
        <ele>1208.7</ele>
        <time>2018-06-11T07:55:36Z</time>
      </trkpt>
      <trkpt lat="42.300933" lon="2.149887">
        <ele>1211.1</ele>
        <time>2018-06-11T07:55:44Z</time>
      </trkpt>
      <trkpt lat="42.300893" lon="2.149627">
        <ele>1216.4</ele>
        <time>2018-06-11T07:55:49Z</time>
      </trkpt>
      <trkpt lat="42.300889" lon="2.149540">
        <ele>1218.5</ele>
        <time>2018-06-11T07:55:51Z</time>
      </trkpt>
      <trkpt lat="42.300911" lon="2.149421">
        <ele>1221.0</ele>
        <time>2018-06-11T07:55:54Z</time>
      </trkpt>
      <trkpt lat="42.300924" lon="2.149379">
        <ele>1221.7</ele>
        <time>2018-06-11T07:55:55Z</time>
      </trkpt>
      <trkpt lat="42.300938" lon="2.149306">
        <ele>1223.2</ele>
        <time>2018-06-11T07:55:56Z</time>
      </trkpt>
      <trkpt lat="42.300972" lon="2.149208">
        <ele>1224.8</ele>
        <time>2018-06-11T07:55:58Z</time>
      </trkpt>
      <trkpt lat="42.300996" lon="2.149016">
        <ele>1228.9</ele>
        <time>2018-06-11T07:56:02Z</time>
      </trkpt>
      <trkpt lat="42.301048" lon="2.148741">
        <ele>1228.3</ele>
        <time>2018-06-11T07:56:08Z</time>
      </trkpt>
      <trkpt lat="42.301081" lon="2.148426">
        <ele>1227.1</ele>
        <time>2018-06-11T07:56:14Z</time>
      </trkpt>
      <trkpt lat="42.301128" lon="2.147996">
        <ele>1218.3</ele>
        <time>2018-06-11T07:56:23Z</time>
      </trkpt>
      <trkpt lat="42.301131" lon="2.147834">
        <ele>1216.1</ele>
        <time>2018-06-11T07:56:26Z</time>
      </trkpt>
      <trkpt lat="42.301120" lon="2.147667">
        <ele>1214.6</ele>
        <time>2018-06-11T07:56:29Z</time>
      </trkpt>
      <trkpt lat="42.301095" lon="2.147593">
        <ele>1214.3</ele>
        <time>2018-06-11T07:56:31Z</time>
      </trkpt>
      <trkpt lat="42.301060" lon="2.147535">
        <ele>1214.2</ele>
        <time>2018-06-11T07:56:32Z</time>
      </trkpt>
      <trkpt lat="42.301000" lon="2.147471">
        <ele>1214.2</ele>
        <time>2018-06-11T07:56:34Z</time>
      </trkpt>
      <trkpt lat="42.300934" lon="2.147437">
        <ele>1213.9</ele>
        <time>2018-06-11T07:56:36Z</time>
      </trkpt>
      <trkpt lat="42.300859" lon="2.147432">
        <ele>1213.3</ele>
        <time>2018-06-11T07:56:38Z</time>
      </trkpt>
      <trkpt lat="42.300760" lon="2.147451">
        <ele>1213.2</ele>
        <time>2018-06-11T07:56:41Z</time>
      </trkpt>
      <trkpt lat="42.300564" lon="2.147502">
        <ele>1216.2</ele>
        <time>2018-06-11T07:56:46Z</time>
      </trkpt>
      <trkpt lat="42.300298" lon="2.147552">
        <ele>1221.6</ele>
        <time>2018-06-11T07:56:53Z</time>
      </trkpt>
      <trkpt lat="42.300045" lon="2.147586">
        <ele>1227.3</ele>
        <time>2018-06-11T07:57:00Z</time>
      </trkpt>
      <trkpt lat="42.299977" lon="2.147574">
        <ele>1229.4</ele>
        <time>2018-06-11T07:57:02Z</time>
      </trkpt>
      <trkpt lat="42.299918" lon="2.147549">
        <ele>1231.1</ele>
        <time>2018-06-11T07:57:04Z</time>
      </trkpt>
      <trkpt lat="42.299864" lon="2.147512">
        <ele>1232.9</ele>
        <time>2018-06-11T07:57:06Z</time>
      </trkpt>
      <trkpt lat="42.299812" lon="2.147434">
        <ele>1234.8</ele>
        <time>2018-06-11T07:57:08Z</time>
      </trkpt>
      <trkpt lat="42.299760" lon="2.147301">
        <ele>1237.3</ele>
        <time>2018-06-11T07:57:11Z</time>
      </trkpt>
      <trkpt lat="42.299709" lon="2.147117">
        <ele>1241.1</ele>
        <time>2018-06-11T07:57:15Z</time>
      </trkpt>
      <trkpt lat="42.299641" lon="2.146768">
        <ele>1243.9</ele>
        <time>2018-06-11T07:57:22Z</time>
      </trkpt>
      <trkpt lat="42.299602" lon="2.146582">
        <ele>1243.9</ele>
        <time>2018-06-11T07:57:25Z</time>
      </trkpt>
      <trkpt lat="42.299549" lon="2.146379">
        <ele>1244.2</ele>
        <time>2018-06-11T07:57:30Z</time>
      </trkpt>
      <trkpt lat="42.299501" lon="2.146270">
        <ele>1244.9</ele>
        <time>2018-06-11T07:57:32Z</time>
      </trkpt>
      <trkpt lat="42.299461" lon="2.146203">
        <ele>1245.5</ele>
        <time>2018-06-11T07:57:34Z</time>
      </trkpt>
      <trkpt lat="42.299278" lon="2.145828">
        <ele>1247.7</ele>
        <time>2018-06-11T07:57:43Z</time>
      </trkpt>
      <trkpt lat="42.299206" lon="2.145658">
        <ele>1248.7</ele>
        <time>2018-06-11T07:57:47Z</time>
      </trkpt>
      <trkpt lat="42.299130" lon="2.145451">
        <ele>1249.9</ele>
        <time>2018-06-11T07:57:51Z</time>
      </trkpt>
      <trkpt lat="42.299077" lon="2.145272">
        <ele>1250.8</ele>
        <time>2018-06-11T07:57:55Z</time>
      </trkpt>
      <trkpt lat="42.299033" lon="2.145129">
        <ele>1251.8</ele>
        <time>2018-06-11T07:57:58Z</time>
      </trkpt>
      <trkpt lat="42.298982" lon="2.145006">
        <ele>1253.3</ele>
        <time>2018-06-11T07:58:01Z</time>
      </trkpt>
      <trkpt lat="42.298931" lon="2.144928">
        <ele>1255.1</ele>
        <time>2018-06-11T07:58:03Z</time>
      </trkpt>
      <trkpt lat="42.298775" lon="2.144793">
        <ele>1260.5</ele>
        <time>2018-06-11T07:58:08Z</time>
      </trkpt>
      <trkpt lat="42.298710" lon="2.144729">
        <ele>1262.8</ele>
        <time>2018-06-11T07:58:10Z</time>
      </trkpt>
      <trkpt lat="42.298667" lon="2.144648">
        <ele>1264.2</ele>
        <time>2018-06-11T07:58:12Z</time>
      </trkpt>
      <trkpt lat="42.298646" lon="2.144574">
        <ele>1264.8</ele>
        <time>2018-06-11T07:58:14Z</time>
      </trkpt>
      <trkpt lat="42.298599" lon="2.144432">
        <ele>1265.7</ele>
        <time>2018-06-11T07:58:17Z</time>
      </trkpt>
      <trkpt lat="42.298568" lon="2.144367">
        <ele>1266.5</ele>
        <time>2018-06-11T07:58:18Z</time>
      </trkpt>
      <trkpt lat="42.298549" lon="2.144319">
        <ele>1266.8</ele>
        <time>2018-06-11T07:58:19Z</time>
      </trkpt>
      <trkpt lat="42.298538" lon="2.144237">
        <ele>1266.3</ele>
        <time>2018-06-11T07:58:21Z</time>
      </trkpt>
      <trkpt lat="42.298543" lon="2.144082">
        <ele>1264.3</ele>
        <time>2018-06-11T07:58:24Z</time>
      </trkpt>
      <trkpt lat="42.298542" lon="2.143949">
        <ele>1263.5</ele>
        <time>2018-06-11T07:58:27Z</time>
      </trkpt>
      <trkpt lat="42.298541" lon="2.143880">
        <ele>1263.2</ele>
        <time>2018-06-11T07:58:28Z</time>
      </trkpt>
      <trkpt lat="42.298514" lon="2.143793">
        <ele>1263.8</ele>
        <time>2018-06-11T07:58:30Z</time>
      </trkpt>
      <trkpt lat="42.298482" lon="2.143723">
        <ele>1264.9</ele>
        <time>2018-06-11T07:58:31Z</time>
      </trkpt>
      <trkpt lat="42.298432" lon="2.143641">
        <ele>1267.1</ele>
        <time>2018-06-11T07:58:34Z</time>
      </trkpt>
      <trkpt lat="42.298380" lon="2.143574">
        <ele>1269.0</ele>
        <time>2018-06-11T07:58:35Z</time>
      </trkpt>
      <trkpt lat="42.298335" lon="2.143509">
        <ele>1270.4</ele>
        <time>2018-06-11T07:58:37Z</time>
      </trkpt>
      <trkpt lat="42.298288" lon="2.143390">
        <ele>1272.1</ele>
        <time>2018-06-11T07:58:40Z</time>
      </trkpt>
      <trkpt lat="42.298240" lon="2.143308">
        <ele>1273.9</ele>
        <time>2018-06-11T07:58:42Z</time>
      </trkpt>
      <trkpt lat="42.298183" lon="2.143249">
        <ele>1275.8</ele>
        <time>2018-06-11T07:58:44Z</time>
      </trkpt>
      <trkpt lat="42.298120" lon="2.143212">
        <ele>1277.2</ele>
        <time>2018-06-11T07:58:46Z</time>
      </trkpt>
      <trkpt lat="42.298030" lon="2.143163">
        <ele>1279.1</ele>
        <time>2018-06-11T07:58:48Z</time>
      </trkpt>
      <trkpt lat="42.297974" lon="2.143128">
        <ele>1280.2</ele>
        <time>2018-06-11T07:58:50Z</time>
      </trkpt>
      <trkpt lat="42.297915" lon="2.143063">
        <ele>1281.5</ele>
        <time>2018-06-11T07:58:52Z</time>
      </trkpt>
      <trkpt lat="42.297897" lon="2.143010">
        <ele>1281.6</ele>
        <time>2018-06-11T07:58:53Z</time>
      </trkpt>
      <trkpt lat="42.297896" lon="2.142958">
        <ele>1281.7</ele>
        <time>2018-06-11T07:58:54Z</time>
      </trkpt>
      <trkpt lat="42.297916" lon="2.142919">
        <ele>1282.0</ele>
        <time>2018-06-11T07:58:55Z</time>
      </trkpt>
      <trkpt lat="42.297988" lon="2.142863">
        <ele>1280.0</ele>
        <time>2018-06-11T07:58:57Z</time>
      </trkpt>
      <trkpt lat="42.298051" lon="2.142788">
        <ele>1278.2</ele>
        <time>2018-06-11T07:59:00Z</time>
      </trkpt>
      <trkpt lat="42.298077" lon="2.142729">
        <ele>1277.2</ele>
        <time>2018-06-11T07:59:01Z</time>
      </trkpt>
      <trkpt lat="42.298073" lon="2.142662">
        <ele>1276.5</ele>
        <time>2018-06-11T07:59:02Z</time>
      </trkpt>
      <trkpt lat="42.298056" lon="2.142601">
        <ele>1275.7</ele>
        <time>2018-06-11T07:59:04Z</time>
      </trkpt>
      <trkpt lat="42.297992" lon="2.142516">
        <ele>1274.5</ele>
        <time>2018-06-11T07:59:06Z</time>
      </trkpt>
      <trkpt lat="42.297940" lon="2.142464">
        <ele>1274.0</ele>
        <time>2018-06-11T07:59:08Z</time>
      </trkpt>
      <trkpt lat="42.297847" lon="2.142404">
        <ele>1273.3</ele>
        <time>2018-06-11T07:59:11Z</time>
      </trkpt>
      <trkpt lat="42.297774" lon="2.142375">
        <ele>1273.2</ele>
        <time>2018-06-11T07:59:13Z</time>
      </trkpt>
      <trkpt lat="42.297602" lon="2.142350">
        <ele>1274.4</ele>
        <time>2018-06-11T07:59:17Z</time>
      </trkpt>
      <trkpt lat="42.297424" lon="2.142355">
        <ele>1276.3</ele>
        <time>2018-06-11T07:59:22Z</time>
      </trkpt>
      <trkpt lat="42.297327" lon="2.142369">
        <ele>1277.4</ele>
        <time>2018-06-11T07:59:24Z</time>
      </trkpt>
      <trkpt lat="42.297105" lon="2.142402">
        <ele>1279.9</ele>
        <time>2018-06-11T07:59:30Z</time>
      </trkpt>
      <trkpt lat="42.296951" lon="2.142431">
        <ele>1282.0</ele>
        <time>2018-06-11T07:59:35Z</time>
      </trkpt>
      <trkpt lat="42.296910" lon="2.142409">
        <ele>1282.6</ele>
        <time>2018-06-11T07:59:36Z</time>
      </trkpt>
      <trkpt lat="42.296822" lon="2.142302">
        <ele>1284.2</ele>
        <time>2018-06-11T07:59:39Z</time>
      </trkpt>
      <trkpt lat="42.296716" lon="2.142145">
        <ele>1286.2</ele>
        <time>2018-06-11T07:59:43Z</time>
      </trkpt>
      <trkpt lat="42.296663" lon="2.142083">
        <ele>1287.0</ele>
        <time>2018-06-11T07:59:45Z</time>
      </trkpt>
      <trkpt lat="42.296592" lon="2.142042">
        <ele>1287.8</ele>
        <time>2018-06-11T07:59:47Z</time>
      </trkpt>
      <trkpt lat="42.296472" lon="2.142000">
        <ele>1288.4</ele>
        <time>2018-06-11T07:59:50Z</time>
      </trkpt>
      <trkpt lat="42.296342" lon="2.141973">
        <ele>1288.1</ele>
        <time>2018-06-11T07:59:54Z</time>
      </trkpt>
      <trkpt lat="42.296291" lon="2.141945">
        <ele>1288.1</ele>
        <time>2018-06-11T07:59:55Z</time>
      </trkpt>
      <trkpt lat="42.296258" lon="2.141908">
        <ele>1288.3</ele>
        <time>2018-06-11T07:59:56Z</time>
      </trkpt>
      <trkpt lat="42.296223" lon="2.141819">
        <ele>1288.9</ele>
        <time>2018-06-11T07:59:58Z</time>
      </trkpt>
      <trkpt lat="42.296177" lon="2.141605">
        <ele>1290.4</ele>
        <time>2018-06-11T08:00:03Z</time>
      </trkpt>
      <trkpt lat="42.296136" lon="2.141408">
        <ele>1291.9</ele>
        <time>2018-06-11T08:00:07Z</time>
      </trkpt>
      <trkpt lat="42.296074" lon="2.141169">
        <ele>1293.5</ele>
        <time>2018-06-11T08:00:12Z</time>
      </trkpt>
      <trkpt lat="42.295998" lon="2.140827">
        <ele>1296.6</ele>
        <time>2018-06-11T08:00:19Z</time>
      </trkpt>
      <trkpt lat="42.295925" lon="2.140479">
        <ele>1302.0</ele>
        <time>2018-06-11T08:00:26Z</time>
      </trkpt>
      <trkpt lat="42.295918" lon="2.140448">
        <ele>1302.7</ele>
        <time>2018-06-11T08:00:27Z</time>
      </trkpt>
      <trkpt lat="42.295826" lon="2.140098">
        <ele>1306.8</ele>
        <time>2018-06-11T08:00:34Z</time>
      </trkpt>
      <trkpt lat="42.295759" lon="2.139911">
        <ele>1309.0</ele>
        <time>2018-06-11T08:00:38Z</time>
      </trkpt>
      <trkpt lat="42.295744" lon="2.139760">
        <ele>1309.2</ele>
        <time>2018-06-11T08:00:41Z</time>
      </trkpt>
      <trkpt lat="42.295775" lon="2.139543">
        <ele>1307.6</ele>
        <time>2018-06-11T08:00:45Z</time>
      </trkpt>
      <trkpt lat="42.295833" lon="2.139365">
        <ele>1306.0</ele>
        <time>2018-06-11T08:00:49Z</time>
      </trkpt>
      <trkpt lat="42.295931" lon="2.139000">
        <ele>1302.6</ele>
        <time>2018-06-11T08:00:57Z</time>
      </trkpt>
      <trkpt lat="42.295963" lon="2.138838">
        <ele>1301.5</ele>
        <time>2018-06-11T08:01:00Z</time>
      </trkpt>
      <trkpt lat="42.295987" lon="2.138632">
        <ele>1300.3</ele>
        <time>2018-06-11T08:01:04Z</time>
      </trkpt>
      <trkpt lat="42.295985" lon="2.138488">
        <ele>1299.9</ele>
        <time>2018-06-11T08:01:07Z</time>
      </trkpt>
      <trkpt lat="42.295919" lon="2.138249">
        <ele>1301.3</ele>
        <time>2018-06-11T08:01:12Z</time>
      </trkpt>
      <trkpt lat="42.295812" lon="2.137959">
        <ele>1306.1</ele>
        <time>2018-06-11T08:01:19Z</time>
      </trkpt>
      <trkpt lat="42.295681" lon="2.137590">
        <ele>1305.6</ele>
        <time>2018-06-11T08:01:27Z</time>
      </trkpt>
      <trkpt lat="42.295584" lon="2.137275">
        <ele>1304.8</ele>
        <time>2018-06-11T08:01:33Z</time>
      </trkpt>
      <trkpt lat="42.295558" lon="2.137142">
        <ele>1305.4</ele>
        <time>2018-06-11T08:01:36Z</time>
      </trkpt>
      <trkpt lat="42.295546" lon="2.136951">
        <ele>1306.9</ele>
        <time>2018-06-11T08:01:40Z</time>
      </trkpt>
      <trkpt lat="42.295556" lon="2.136817">
        <ele>1308.4</ele>
        <time>2018-06-11T08:01:42Z</time>
      </trkpt>
      <trkpt lat="42.295582" lon="2.136743">
        <ele>1309.8</ele>
        <time>2018-06-11T08:01:44Z</time>
      </trkpt>
      <trkpt lat="42.295616" lon="2.136699">
        <ele>1310.8</ele>
        <time>2018-06-11T08:01:45Z</time>
      </trkpt>
      <trkpt lat="42.295681" lon="2.136655">
        <ele>1311.7</ele>
        <time>2018-06-11T08:01:47Z</time>
      </trkpt>
      <trkpt lat="42.295801" lon="2.136625">
        <ele>1313.2</ele>
        <time>2018-06-11T08:01:50Z</time>
      </trkpt>
      <trkpt lat="42.295909" lon="2.136632">
        <ele>1314.0</ele>
        <time>2018-06-11T08:01:53Z</time>
      </trkpt>
      <trkpt lat="42.295972" lon="2.136633">
        <ele>1314.5</ele>
        <time>2018-06-11T08:01:55Z</time>
      </trkpt>
      <trkpt lat="42.296018" lon="2.136628">
        <ele>1314.2</ele>
        <time>2018-06-11T08:01:56Z</time>
      </trkpt>
      <trkpt lat="42.296088" lon="2.136590">
        <ele>1314.3</ele>
        <time>2018-06-11T08:01:58Z</time>
      </trkpt>
      <trkpt lat="42.296162" lon="2.136551">
        <ele>1314.3</ele>
        <time>2018-06-11T08:02:00Z</time>
      </trkpt>
      <trkpt lat="42.296323" lon="2.136464">
        <ele>1314.2</ele>
        <time>2018-06-11T08:02:05Z</time>
      </trkpt>
      <trkpt lat="42.296739" lon="2.136167">
        <ele>1314.6</ele>
        <time>2018-06-11T08:02:17Z</time>
      </trkpt>
      <trkpt lat="42.297035" lon="2.136003">
        <ele>1314.7</ele>
        <time>2018-06-11T08:02:26Z</time>
      </trkpt>
      <trkpt lat="42.297274" lon="2.135849">
        <ele>1313.3</ele>
        <time>2018-06-11T08:02:33Z</time>
      </trkpt>
      <trkpt lat="42.297462" lon="2.135672">
        <ele>1313.3</ele>
        <time>2018-06-11T08:02:39Z</time>
      </trkpt>
      <trkpt lat="42.297649" lon="2.135581">
        <ele>1315.1</ele>
        <time>2018-06-11T08:02:44Z</time>
      </trkpt>
      <trkpt lat="42.297727" lon="2.135543">
        <ele>1315.0</ele>
        <time>2018-06-11T08:02:46Z</time>
      </trkpt>
      <trkpt lat="42.297790" lon="2.135485">
        <ele>1315.7</ele>
        <time>2018-06-11T08:02:48Z</time>
      </trkpt>
      <trkpt lat="42.297857" lon="2.135391">
        <ele>1318.1</ele>
        <time>2018-06-11T08:02:51Z</time>
      </trkpt>
      <trkpt lat="42.297958" lon="2.135287">
        <ele>1321.3</ele>
        <time>2018-06-11T08:02:54Z</time>
      </trkpt>
      <trkpt lat="42.298187" lon="2.135080">
        <ele>1325.0</ele>
        <time>2018-06-11T08:03:02Z</time>
      </trkpt>
      <trkpt lat="42.298431" lon="2.134778">
        <ele>1333.5</ele>
        <time>2018-06-11T08:03:11Z</time>
      </trkpt>
      <trkpt lat="42.298639" lon="2.134640">
        <ele>1331.0</ele>
        <time>2018-06-11T08:03:17Z</time>
      </trkpt>
      <trkpt lat="42.298790" lon="2.134532">
        <ele>1328.7</ele>
        <time>2018-06-11T08:03:22Z</time>
      </trkpt>
      <trkpt lat="42.298875" lon="2.134444">
        <ele>1329.1</ele>
        <time>2018-06-11T08:03:24Z</time>
      </trkpt>
      <trkpt lat="42.298953" lon="2.134296">
        <ele>1330.5</ele>
        <time>2018-06-11T08:03:28Z</time>
      </trkpt>
      <trkpt lat="42.299080" lon="2.134070">
        <ele>1335.4</ele>
        <time>2018-06-11T08:03:34Z</time>
      </trkpt>
      <trkpt lat="42.299343" lon="2.133733">
        <ele>1344.4</ele>
        <time>2018-06-11T08:03:43Z</time>
      </trkpt>
      <trkpt lat="42.299426" lon="2.133626">
        <ele>1344.7</ele>
        <time>2018-06-11T08:03:47Z</time>
      </trkpt>
      <trkpt lat="42.299527" lon="2.133444">
        <ele>1345.9</ele>
        <time>2018-06-11T08:03:51Z</time>
      </trkpt>
      <trkpt lat="42.299601" lon="2.133199">
        <ele>1350.9</ele>
        <time>2018-06-11T08:03:56Z</time>
      </trkpt>
      <trkpt lat="42.299639" lon="2.133018">
        <ele>1355.0</ele>
        <time>2018-06-11T08:04:00Z</time>
      </trkpt>
      <trkpt lat="42.299699" lon="2.132836">
        <ele>1357.9</ele>
        <time>2018-06-11T08:04:04Z</time>
      </trkpt>
      <trkpt lat="42.299739" lon="2.132687">
        <ele>1360.3</ele>
        <time>2018-06-11T08:04:07Z</time>
      </trkpt>
      <trkpt lat="42.299771" lon="2.132576">
        <ele>1361.7</ele>
        <time>2018-06-11T08:04:10Z</time>
      </trkpt>
      <trkpt lat="42.299817" lon="2.132494">
        <ele>1361.3</ele>
        <time>2018-06-11T08:04:12Z</time>
      </trkpt>
      <trkpt lat="42.299889" lon="2.132416">
        <ele>1359.8</ele>
        <time>2018-06-11T08:04:14Z</time>
      </trkpt>
      <trkpt lat="42.299938" lon="2.132339">
        <ele>1359.6</ele>
        <time>2018-06-11T08:04:16Z</time>
      </trkpt>
      <trkpt lat="42.299986" lon="2.132259">
        <ele>1359.2</ele>
        <time>2018-06-11T08:04:18Z</time>
      </trkpt>
      <trkpt lat="42.300006" lon="2.132150">
        <ele>1360.2</ele>
        <time>2018-06-11T08:04:20Z</time>
      </trkpt>
      <trkpt lat="42.300053" lon="2.131961">
        <ele>1361.5</ele>
        <time>2018-06-11T08:04:24Z</time>
      </trkpt>
      <trkpt lat="42.300140" lon="2.131691">
        <ele>1363.0</ele>
        <time>2018-06-11T08:04:30Z</time>
      </trkpt>
      <trkpt lat="42.300182" lon="2.131608">
        <ele>1363.6</ele>
        <time>2018-06-11T08:04:32Z</time>
      </trkpt>
      <trkpt lat="42.300228" lon="2.131501">
        <ele>1364.8</ele>
        <time>2018-06-11T08:04:34Z</time>
      </trkpt>
      <trkpt lat="42.300270" lon="2.131433">
        <ele>1365.4</ele>
        <time>2018-06-11T08:04:36Z</time>
      </trkpt>
      <trkpt lat="42.300324" lon="2.131343">
        <ele>1366.0</ele>
        <time>2018-06-11T08:04:38Z</time>
      </trkpt>
      <trkpt lat="42.300367" lon="2.131249">
        <ele>1366.6</ele>
        <time>2018-06-11T08:04:41Z</time>
      </trkpt>
      <trkpt lat="42.300392" lon="2.131141">
        <ele>1367.1</ele>
        <time>2018-06-11T08:04:43Z</time>
      </trkpt>
      <trkpt lat="42.300414" lon="2.131014">
        <ele>1367.6</ele>
        <time>2018-06-11T08:04:45Z</time>
      </trkpt>
      <trkpt lat="42.300465" lon="2.130788">
        <ele>1371.3</ele>
        <time>2018-06-11T08:04:50Z</time>
      </trkpt>
      <trkpt lat="42.300487" lon="2.130688">
        <ele>1373.1</ele>
        <time>2018-06-11T08:04:52Z</time>
      </trkpt>
      <trkpt lat="42.300516" lon="2.130609">
        <ele>1374.1</ele>
        <time>2018-06-11T08:04:54Z</time>
      </trkpt>
      <trkpt lat="42.300556" lon="2.130537">
        <ele>1375.0</ele>
        <time>2018-06-11T08:04:56Z</time>
      </trkpt>
      <trkpt lat="42.300600" lon="2.130359">
        <ele>1377.0</ele>
        <time>2018-06-11T08:04:59Z</time>
      </trkpt>
      <trkpt lat="42.300620" lon="2.130213">
        <ele>1378.5</ele>
        <time>2018-06-11T08:05:02Z</time>
      </trkpt>
      <trkpt lat="42.300690" lon="2.129968">
        <ele>1379.9</ele>
        <time>2018-06-11T08:05:07Z</time>
      </trkpt>
      <trkpt lat="42.300761" lon="2.129786">
        <ele>1379.4</ele>
        <time>2018-06-11T08:05:11Z</time>
      </trkpt>
      <trkpt lat="42.300800" lon="2.129672">
        <ele>1378.9</ele>
        <time>2018-06-11T08:05:14Z</time>
      </trkpt>
      <trkpt lat="42.300849" lon="2.129617">
        <ele>1377.9</ele>
        <time>2018-06-11T08:05:16Z</time>
      </trkpt>
      <trkpt lat="42.300891" lon="2.129507">
        <ele>1377.2</ele>
        <time>2018-06-11T08:05:18Z</time>
      </trkpt>
      <trkpt lat="42.300916" lon="2.129404">
        <ele>1376.9</ele>
        <time>2018-06-11T08:05:20Z</time>
      </trkpt>
      <trkpt lat="42.300913" lon="2.129322">
        <ele>1377.2</ele>
        <time>2018-06-11T08:05:22Z</time>
      </trkpt>
      <trkpt lat="42.300883" lon="2.129264">
        <ele>1377.8</ele>
        <time>2018-06-11T08:05:23Z</time>
      </trkpt>
      <trkpt lat="42.300836" lon="2.129244">
        <ele>1378.7</ele>
        <time>2018-06-11T08:05:25Z</time>
      </trkpt>
      <trkpt lat="42.300794" lon="2.129235">
        <ele>1379.6</ele>
        <time>2018-06-11T08:05:26Z</time>
      </trkpt>
      <trkpt lat="42.300727" lon="2.129235">
        <ele>1381.0</ele>
        <time>2018-06-11T08:05:27Z</time>
      </trkpt>
      <trkpt lat="42.300614" lon="2.129270">
        <ele>1383.9</ele>
        <time>2018-06-11T08:05:31Z</time>
      </trkpt>
      <trkpt lat="42.300455" lon="2.129334">
        <ele>1388.0</ele>
        <time>2018-06-11T08:05:35Z</time>
      </trkpt>
      <trkpt lat="42.300362" lon="2.129381">
        <ele>1390.2</ele>
        <time>2018-06-11T08:05:38Z</time>
      </trkpt>
      <trkpt lat="42.300319" lon="2.129410">
        <ele>1391.1</ele>
        <time>2018-06-11T08:05:39Z</time>
      </trkpt>
      <trkpt lat="42.300266" lon="2.129480">
        <ele>1392.3</ele>
        <time>2018-06-11T08:05:41Z</time>
      </trkpt>
      <trkpt lat="42.300216" lon="2.129650">
        <ele>1393.1</ele>
        <time>2018-06-11T08:05:45Z</time>
      </trkpt>
      <trkpt lat="42.300201" lon="2.129729">
        <ele>1393.3</ele>
        <time>2018-06-11T08:05:46Z</time>
      </trkpt>
      <trkpt lat="42.300172" lon="2.129777">
        <ele>1394.0</ele>
        <time>2018-06-11T08:05:47Z</time>
      </trkpt>
      <trkpt lat="42.300134" lon="2.129805">
        <ele>1395.1</ele>
        <time>2018-06-11T08:05:49Z</time>
      </trkpt>
      <trkpt lat="42.300085" lon="2.129824">
        <ele>1396.6</ele>
        <time>2018-06-11T08:05:50Z</time>
      </trkpt>
      <trkpt lat="42.300028" lon="2.129809">
        <ele>1398.4</ele>
        <time>2018-06-11T08:05:52Z</time>
      </trkpt>
      <trkpt lat="42.299969" lon="2.129774">
        <ele>1400.4</ele>
        <time>2018-06-11T08:05:53Z</time>
      </trkpt>
      <trkpt lat="42.299917" lon="2.129765">
        <ele>1402.2</ele>
        <time>2018-06-11T08:05:55Z</time>
      </trkpt>
      <trkpt lat="42.299863" lon="2.129773">
        <ele>1403.9</ele>
        <time>2018-06-11T08:05:56Z</time>
      </trkpt>
      <trkpt lat="42.299819" lon="2.129793">
        <ele>1405.0</ele>
        <time>2018-06-11T08:05:58Z</time>
      </trkpt>
      <trkpt lat="42.299728" lon="2.129874">
        <ele>1406.6</ele>
        <time>2018-06-11T08:06:01Z</time>
      </trkpt>
      <trkpt lat="42.299613" lon="2.130021">
        <ele>1407.8</ele>
        <time>2018-06-11T08:06:05Z</time>
      </trkpt>
      <trkpt lat="42.299545" lon="2.130123">
        <ele>1408.2</ele>
        <time>2018-06-11T08:06:07Z</time>
      </trkpt>
      <trkpt lat="42.299442" lon="2.130260">
        <ele>1409.7</ele>
        <time>2018-06-11T08:06:11Z</time>
      </trkpt>
      <trkpt lat="42.299404" lon="2.130302">
        <ele>1410.5</ele>
        <time>2018-06-11T08:06:13Z</time>
      </trkpt>
      <trkpt lat="42.299297" lon="2.130444">
        <ele>1412.8</ele>
        <time>2018-06-11T08:06:17Z</time>
      </trkpt>
      <trkpt lat="42.299275" lon="2.130466">
        <ele>1413.1</ele>
        <time>2018-06-11T08:06:17Z</time>
      </trkpt>
      <trkpt lat="42.299244" lon="2.130495">
        <ele>1413.5</ele>
        <time>2018-06-11T08:06:18Z</time>
      </trkpt>
      <trkpt lat="42.299057" lon="2.130598">
        <ele>1417.2</ele>
        <time>2018-06-11T08:06:24Z</time>
      </trkpt>
      <trkpt lat="42.298952" lon="2.130695">
        <ele>1416.7</ele>
        <time>2018-06-11T08:06:27Z</time>
      </trkpt>
      <trkpt lat="42.298882" lon="2.130830">
        <ele>1414.3</ele>
        <time>2018-06-11T08:06:30Z</time>
      </trkpt>
      <trkpt lat="42.298841" lon="2.131007">
        <ele>1411.7</ele>
        <time>2018-06-11T08:06:34Z</time>
      </trkpt>
      <trkpt lat="42.298801" lon="2.131104">
        <ele>1410.5</ele>
        <time>2018-06-11T08:06:36Z</time>
      </trkpt>
      <trkpt lat="42.298772" lon="2.131141">
        <ele>1410.3</ele>
        <time>2018-06-11T08:06:37Z</time>
      </trkpt>
      <trkpt lat="42.298710" lon="2.131137">
        <ele>1411.2</ele>
        <time>2018-06-11T08:06:39Z</time>
      </trkpt>
      <trkpt lat="42.298678" lon="2.131114">
        <ele>1411.9</ele>
        <time>2018-06-11T08:06:40Z</time>
      </trkpt>
      <trkpt lat="42.298665" lon="2.131044">
        <ele>1413.0</ele>
        <time>2018-06-11T08:06:41Z</time>
      </trkpt>
      <trkpt lat="42.298693" lon="2.130920">
        <ele>1414.2</ele>
        <time>2018-06-11T08:06:44Z</time>
      </trkpt>
      <trkpt lat="42.298744" lon="2.130709">
        <ele>1415.9</ele>
        <time>2018-06-11T08:06:48Z</time>
      </trkpt>
      <trkpt lat="42.298790" lon="2.130529">
        <ele>1417.9</ele>
        <time>2018-06-11T08:06:52Z</time>
      </trkpt>
      <trkpt lat="42.298870" lon="2.130361">
        <ele>1419.8</ele>
        <time>2018-06-11T08:06:56Z</time>
      </trkpt>
      <trkpt lat="42.298962" lon="2.130050">
        <ele>1420.6</ele>
        <time>2018-06-11T08:07:03Z</time>
      </trkpt>
      <trkpt lat="42.298996" lon="2.129933">
        <ele>1420.4</ele>
        <time>2018-06-11T08:07:05Z</time>
      </trkpt>
      <trkpt lat="42.299004" lon="2.129846">
        <ele>1420.3</ele>
        <time>2018-06-11T08:07:07Z</time>
      </trkpt>
      <trkpt lat="42.299016" lon="2.129647">
        <ele>1420.2</ele>
        <time>2018-06-11T08:07:11Z</time>
      </trkpt>
      <trkpt lat="42.299002" lon="2.129482">
        <ele>1420.3</ele>
        <time>2018-06-11T08:07:14Z</time>
      </trkpt>
      <trkpt lat="42.298928" lon="2.129222">
        <ele>1421.2</ele>
        <time>2018-06-11T08:07:19Z</time>
      </trkpt>
      <trkpt lat="42.298841" lon="2.128950">
        <ele>1423.2</ele>
        <time>2018-06-11T08:07:25Z</time>
      </trkpt>
      <trkpt lat="42.298776" lon="2.128817">
        <ele>1425.1</ele>
        <time>2018-06-11T08:07:28Z</time>
      </trkpt>
      <trkpt lat="42.298729" lon="2.128770">
        <ele>1426.1</ele>
        <time>2018-06-11T08:07:30Z</time>
      </trkpt>
      <trkpt lat="42.298667" lon="2.128746">
        <ele>1426.9</ele>
        <time>2018-06-11T08:07:32Z</time>
      </trkpt>
      <trkpt lat="42.298615" lon="2.128753">
        <ele>1427.4</ele>
        <time>2018-06-11T08:07:33Z</time>
      </trkpt>
      <trkpt lat="42.298599" lon="2.128752">
        <ele>1427.6</ele>
        <time>2018-06-11T08:07:33Z</time>
      </trkpt>
      <trkpt lat="42.298425" lon="2.128794">
        <ele>1429.5</ele>
        <time>2018-06-11T08:07:38Z</time>
      </trkpt>
      <trkpt lat="42.298320" lon="2.128823">
        <ele>1431.1</ele>
        <time>2018-06-11T08:07:41Z</time>
      </trkpt>
      <trkpt lat="42.298249" lon="2.128812">
        <ele>1432.2</ele>
        <time>2018-06-11T08:07:43Z</time>
      </trkpt>
      <trkpt lat="42.298190" lon="2.128775">
        <ele>1433.1</ele>
        <time>2018-06-11T08:07:45Z</time>
      </trkpt>
      <trkpt lat="42.298100" lon="2.128642">
        <ele>1435.6</ele>
        <time>2018-06-11T08:07:48Z</time>
      </trkpt>
      <trkpt lat="42.298017" lon="2.128515">
        <ele>1438.4</ele>
        <time>2018-06-11T08:07:52Z</time>
      </trkpt>
      <trkpt lat="42.297941" lon="2.128376">
        <ele>1440.2</ele>
        <time>2018-06-11T08:07:55Z</time>
      </trkpt>
      <trkpt lat="42.297866" lon="2.128299">
        <ele>1441.6</ele>
        <time>2018-06-11T08:07:58Z</time>
      </trkpt>
      <trkpt lat="42.297822" lon="2.128272">
        <ele>1442.6</ele>
        <time>2018-06-11T08:07:59Z</time>
      </trkpt>
      <trkpt lat="42.297759" lon="2.128253">
        <ele>1444.1</ele>
        <time>2018-06-11T08:08:01Z</time>
      </trkpt>
      <trkpt lat="42.297657" lon="2.128250">
        <ele>1446.5</ele>
        <time>2018-06-11T08:08:03Z</time>
      </trkpt>
      <trkpt lat="42.297556" lon="2.128238">
        <ele>1447.7</ele>
        <time>2018-06-11T08:08:06Z</time>
      </trkpt>
      <trkpt lat="42.297433" lon="2.128220">
        <ele>1449.0</ele>
        <time>2018-06-11T08:08:09Z</time>
      </trkpt>
      <trkpt lat="42.297358" lon="2.128188">
        <ele>1450.1</ele>
        <time>2018-06-11T08:08:11Z</time>
      </trkpt>
      <trkpt lat="42.297281" lon="2.128129">
        <ele>1451.9</ele>
        <time>2018-06-11T08:08:14Z</time>
      </trkpt>
      <trkpt lat="42.297170" lon="2.128074">
        <ele>1454.2</ele>
        <time>2018-06-11T08:08:17Z</time>
      </trkpt>
      <trkpt lat="42.296840" lon="2.127934">
        <ele>1460.3</ele>
        <time>2018-06-11T08:08:26Z</time>
      </trkpt>
      <trkpt lat="42.296648" lon="2.127851">
        <ele>1463.1</ele>
        <time>2018-06-11T08:08:32Z</time>
      </trkpt>
      <trkpt lat="42.296435" lon="2.127786">
        <ele>1465.2</ele>
        <time>2018-06-11T08:08:37Z</time>
      </trkpt>
      <trkpt lat="42.296206" lon="2.127726">
        <ele>1465.5</ele>
        <time>2018-06-11T08:08:44Z</time>
      </trkpt>
      <trkpt lat="42.296048" lon="2.127669">
        <ele>1465.8</ele>
        <time>2018-06-11T08:08:48Z</time>
      </trkpt>
      <trkpt lat="42.295900" lon="2.127601">
        <ele>1465.9</ele>
        <time>2018-06-11T08:08:52Z</time>
      </trkpt>
      <trkpt lat="42.295762" lon="2.127505">
        <ele>1466.1</ele>
        <time>2018-06-11T08:08:56Z</time>
      </trkpt>
      <trkpt lat="42.295627" lon="2.127398">
        <ele>1466.4</ele>
        <time>2018-06-11T08:09:00Z</time>
      </trkpt>
      <trkpt lat="42.295489" lon="2.127315">
        <ele>1465.3</ele>
        <time>2018-06-11T08:09:04Z</time>
      </trkpt>
      <trkpt lat="42.295371" lon="2.127191">
        <ele>1463.3</ele>
        <time>2018-06-11T08:09:08Z</time>
      </trkpt>
      <trkpt lat="42.295272" lon="2.127009">
        <ele>1460.9</ele>
        <time>2018-06-11T08:09:13Z</time>
      </trkpt>
      <trkpt lat="42.295176" lon="2.126800">
        <ele>1458.8</ele>
        <time>2018-06-11T08:09:18Z</time>
      </trkpt>
      <trkpt lat="42.295149" lon="2.126645">
        <ele>1458.2</ele>
        <time>2018-06-11T08:09:21Z</time>
      </trkpt>
      <trkpt lat="42.295168" lon="2.126540">
        <ele>1458.4</ele>
        <time>2018-06-11T08:09:23Z</time>
      </trkpt>
      <trkpt lat="42.295211" lon="2.126387">
        <ele>1456.9</ele>
        <time>2018-06-11T08:09:26Z</time>
      </trkpt>
      <trkpt lat="42.295353" lon="2.126138">
        <ele>1457.1</ele>
        <time>2018-06-11T08:09:32Z</time>
      </trkpt>
      <trkpt lat="42.295586" lon="2.125783">
        <ele>1462.3</ele>
        <time>2018-06-11T08:09:42Z</time>
      </trkpt>
      <trkpt lat="42.295841" lon="2.125385">
        <ele>1465.9</ele>
        <time>2018-06-11T08:09:52Z</time>
      </trkpt>
      <trkpt lat="42.296021" lon="2.125043">
        <ele>1462.4</ele>
        <time>2018-06-11T08:10:00Z</time>
      </trkpt>
      <trkpt lat="42.296158" lon="2.124762">
        <ele>1464.6</ele>
        <time>2018-06-11T08:10:07Z</time>
      </trkpt>
      <trkpt lat="42.296322" lon="2.124475">
        <ele>1472.8</ele>
        <time>2018-06-11T08:10:14Z</time>
      </trkpt>
      <trkpt lat="42.296449" lon="2.124309">
        <ele>1477.7</ele>
        <time>2018-06-11T08:10:19Z</time>
      </trkpt>
      <trkpt lat="42.296581" lon="2.124141">
        <ele>1480.3</ele>
        <time>2018-06-11T08:10:24Z</time>
      </trkpt>
      <trkpt lat="42.296673" lon="2.124024">
        <ele>1481.6</ele>
        <time>2018-06-11T08:10:27Z</time>
      </trkpt>
      <trkpt lat="42.296823" lon="2.123790">
        <ele>1479.5</ele>
        <time>2018-06-11T08:10:33Z</time>
      </trkpt>
      <trkpt lat="42.297020" lon="2.123553">
        <ele>1468.8</ele>
        <time>2018-06-11T08:10:41Z</time>
      </trkpt>
      <trkpt lat="42.297205" lon="2.123404">
        <ele>1468.0</ele>
        <time>2018-06-11T08:10:46Z</time>
      </trkpt>
      <trkpt lat="42.297408" lon="2.123245">
        <ele>1471.2</ele>
        <time>2018-06-11T08:10:53Z</time>
      </trkpt>
      <trkpt lat="42.297659" lon="2.123043">
        <ele>1475.7</ele>
        <time>2018-06-11T08:11:01Z</time>
      </trkpt>
      <trkpt lat="42.297945" lon="2.122761">
        <ele>1468.1</ele>
        <time>2018-06-11T08:11:10Z</time>
      </trkpt>
      <trkpt lat="42.298197" lon="2.122549">
        <ele>1468.3</ele>
        <time>2018-06-11T08:11:18Z</time>
      </trkpt>
      <trkpt lat="42.298431" lon="2.122372">
        <ele>1475.2</ele>
        <time>2018-06-11T08:11:25Z</time>
      </trkpt>
      <trkpt lat="42.298547" lon="2.122293">
        <ele>1480.0</ele>
        <time>2018-06-11T08:11:29Z</time>
      </trkpt>
      <trkpt lat="42.298683" lon="2.122151">
        <ele>1485.7</ele>
        <time>2018-06-11T08:11:34Z</time>
      </trkpt>
      <trkpt lat="42.298721" lon="2.122097">
        <ele>1487.3</ele>
        <time>2018-06-11T08:11:35Z</time>
      </trkpt>
      <trkpt lat="42.298721" lon="2.122097">
        <ele>1487.3</ele>
        <time>2018-06-11T08:11:35Z</time>
      </trkpt>
      <trkpt lat="42.298829" lon="2.121992">
        <ele>1491.7</ele>
        <time>2018-06-11T08:11:39Z</time>
      </trkpt>
      <trkpt lat="42.298879" lon="2.121964">
        <ele>1492.9</ele>
        <time>2018-06-11T08:11:40Z</time>
      </trkpt>
      <trkpt lat="42.298953" lon="2.121953">
        <ele>1494.2</ele>
        <time>2018-06-11T08:11:42Z</time>
      </trkpt>
      <trkpt lat="42.299106" lon="2.122010">
        <ele>1496.5</ele>
        <time>2018-06-11T08:11:46Z</time>
      </trkpt>
      <trkpt lat="42.299207" lon="2.122035">
        <ele>1497.9</ele>
        <time>2018-06-11T08:11:49Z</time>
      </trkpt>
      <trkpt lat="42.299263" lon="2.122028">
        <ele>1498.8</ele>
        <time>2018-06-11T08:11:51Z</time>
      </trkpt>
      <trkpt lat="42.299322" lon="2.121988">
        <ele>1499.7</ele>
        <time>2018-06-11T08:11:53Z</time>
      </trkpt>
      <trkpt lat="42.299379" lon="2.121927">
        <ele>1500.2</ele>
        <time>2018-06-11T08:11:54Z</time>
      </trkpt>
      <trkpt lat="42.299424" lon="2.121845">
        <ele>1500.8</ele>
        <time>2018-06-11T08:11:56Z</time>
      </trkpt>
      <trkpt lat="42.299442" lon="2.121698">
        <ele>1502.2</ele>
        <time>2018-06-11T08:11:59Z</time>
      </trkpt>
      <trkpt lat="42.299461" lon="2.121376">
        <ele>1506.4</ele>
        <time>2018-06-11T08:12:06Z</time>
      </trkpt>
      <trkpt lat="42.299493" lon="2.121194">
        <ele>1508.9</ele>
        <time>2018-06-11T08:12:09Z</time>
      </trkpt>
      <trkpt lat="42.299543" lon="2.121076">
        <ele>1510.5</ele>
        <time>2018-06-11T08:12:12Z</time>
      </trkpt>
      <trkpt lat="42.299599" lon="2.120696">
        <ele>1513.5</ele>
        <time>2018-06-11T08:12:20Z</time>
      </trkpt>
      <trkpt lat="42.299713" lon="2.120406">
        <ele>1511.1</ele>
        <time>2018-06-11T08:12:26Z</time>
      </trkpt>
      <trkpt lat="42.299828" lon="2.120120">
        <ele>1505.9</ele>
        <time>2018-06-11T08:12:33Z</time>
      </trkpt>
      <trkpt lat="42.299923" lon="2.119783">
        <ele>1510.8</ele>
        <time>2018-06-11T08:12:40Z</time>
      </trkpt>
      <trkpt lat="42.300007" lon="2.119536">
        <ele>1514.6</ele>
        <time>2018-06-11T08:12:45Z</time>
      </trkpt>
      <trkpt lat="42.300037" lon="2.119278">
        <ele>1520.9</ele>
        <time>2018-06-11T08:12:51Z</time>
      </trkpt>
      <trkpt lat="42.300037" lon="2.119250">
        <ele>1521.2</ele>
        <time>2018-06-11T08:12:51Z</time>
      </trkpt>
      <trkpt lat="42.300045" lon="2.119184">
        <ele>1521.5</ele>
        <time>2018-06-11T08:12:53Z</time>
      </trkpt>
      <trkpt lat="42.300095" lon="2.118992">
        <ele>1522.2</ele>
        <time>2018-06-11T08:12:56Z</time>
      </trkpt>
      <trkpt lat="42.300134" lon="2.118734">
        <ele>1526.7</ele>
        <time>2018-06-11T08:13:02Z</time>
      </trkpt>
      <trkpt lat="42.300140" lon="2.118489">
        <ele>1534.4</ele>
        <time>2018-06-11T08:13:07Z</time>
      </trkpt>
      <trkpt lat="42.300132" lon="2.118170">
        <ele>1537.7</ele>
        <time>2018-06-11T08:13:13Z</time>
      </trkpt>
      <trkpt lat="42.300122" lon="2.117897">
        <ele>1533.1</ele>
        <time>2018-06-11T08:13:19Z</time>
      </trkpt>
      <trkpt lat="42.300102" lon="2.117595">
        <ele>1529.1</ele>
        <time>2018-06-11T08:13:25Z</time>
      </trkpt>
      <trkpt lat="42.300087" lon="2.117486">
        <ele>1529.3</ele>
        <time>2018-06-11T08:13:27Z</time>
      </trkpt>
      <trkpt lat="42.299950" lon="2.117229">
        <ele>1533.0</ele>
        <time>2018-06-11T08:13:33Z</time>
      </trkpt>
      <trkpt lat="42.299812" lon="2.116840">
        <ele>1530.8</ele>
        <time>2018-06-11T08:13:42Z</time>
      </trkpt>
      <trkpt lat="42.299766" lon="2.116704">
        <ele>1532.8</ele>
        <time>2018-06-11T08:13:45Z</time>
      </trkpt>
      <trkpt lat="42.299723" lon="2.116635">
        <ele>1534.9</ele>
        <time>2018-06-11T08:13:46Z</time>
      </trkpt>
      <trkpt lat="42.299678" lon="2.116610">
        <ele>1536.6</ele>
        <time>2018-06-11T08:13:48Z</time>
      </trkpt>
      <trkpt lat="42.299644" lon="2.116642">
        <ele>1537.8</ele>
        <time>2018-06-11T08:13:49Z</time>
      </trkpt>
      <trkpt lat="42.299526" lon="2.116918">
        <ele>1540.8</ele>
        <time>2018-06-11T08:13:55Z</time>
      </trkpt>
      <trkpt lat="42.299530" lon="2.116970">
        <ele>1540.2</ele>
        <time>2018-06-11T08:13:56Z</time>
      </trkpt>
      <trkpt lat="42.299539" lon="2.117281">
        <ele>1540.1</ele>
        <time>2018-06-11T08:14:02Z</time>
      </trkpt>
      <trkpt lat="42.299438" lon="2.117529">
        <ele>1546.2</ele>
        <time>2018-06-11T08:14:08Z</time>
      </trkpt>
      <trkpt lat="42.299313" lon="2.117772">
        <ele>1556.0</ele>
        <time>2018-06-11T08:14:14Z</time>
      </trkpt>
      <trkpt lat="42.299252" lon="2.117880">
        <ele>1561.3</ele>
        <time>2018-06-11T08:14:17Z</time>
      </trkpt>
      <trkpt lat="42.299229" lon="2.117949">
        <ele>1562.9</ele>
        <time>2018-06-11T08:14:19Z</time>
      </trkpt>
      <trkpt lat="42.299088" lon="2.118135">
        <ele>1565.5</ele>
        <time>2018-06-11T08:14:24Z</time>
      </trkpt>
      <trkpt lat="42.298935" lon="2.118300">
        <ele>1568.1</ele>
        <time>2018-06-11T08:14:29Z</time>
      </trkpt>
      <trkpt lat="42.298759" lon="2.118444">
        <ele>1573.0</ele>
        <time>2018-06-11T08:14:35Z</time>
      </trkpt>
      <trkpt lat="42.298565" lon="2.118583">
        <ele>1572.5</ele>
        <time>2018-06-11T08:14:41Z</time>
      </trkpt>
      <trkpt lat="42.298436" lon="2.118646">
        <ele>1573.3</ele>
        <time>2018-06-11T08:14:44Z</time>
      </trkpt>
      <trkpt lat="42.298386" lon="2.118650">
        <ele>1574.3</ele>
        <time>2018-06-11T08:14:46Z</time>
      </trkpt>
      <trkpt lat="42.298311" lon="2.118638">
        <ele>1576.3</ele>
        <time>2018-06-11T08:14:48Z</time>
      </trkpt>
      <trkpt lat="42.298279" lon="2.118586">
        <ele>1578.6</ele>
        <time>2018-06-11T08:14:49Z</time>
      </trkpt>
      <trkpt lat="42.298253" lon="2.118411">
        <ele>1583.3</ele>
        <time>2018-06-11T08:14:53Z</time>
      </trkpt>
      <trkpt lat="42.298221" lon="2.118212">
        <ele>1584.8</ele>
        <time>2018-06-11T08:14:57Z</time>
      </trkpt>
      <trkpt lat="42.298176" lon="2.117928">
        <ele>1582.0</ele>
        <time>2018-06-11T08:15:02Z</time>
      </trkpt>
      <trkpt lat="42.298147" lon="2.117694">
        <ele>1581.5</ele>
        <time>2018-06-11T08:15:07Z</time>
      </trkpt>
      <trkpt lat="42.298076" lon="2.117414">
        <ele>1578.6</ele>
        <time>2018-06-11T08:15:13Z</time>
      </trkpt>
      <trkpt lat="42.297974" lon="2.117071">
        <ele>1576.8</ele>
        <time>2018-06-11T08:15:20Z</time>
      </trkpt>
      <trkpt lat="42.297749" lon="2.116330">
        <ele>1569.1</ele>
        <time>2018-06-11T08:15:36Z</time>
      </trkpt>
      <trkpt lat="42.297726" lon="2.116206">
        <ele>1565.6</ele>
        <time>2018-06-11T08:15:39Z</time>
      </trkpt>
      <trkpt lat="42.297692" lon="2.115949">
        <ele>1564.2</ele>
        <time>2018-06-11T08:15:44Z</time>
      </trkpt>
      <trkpt lat="42.297672" lon="2.115795">
        <ele>1569.6</ele>
        <time>2018-06-11T08:15:47Z</time>
      </trkpt>
      <trkpt lat="42.297672" lon="2.115755">
        <ele>1571.2</ele>
        <time>2018-06-11T08:15:48Z</time>
      </trkpt>
      <trkpt lat="42.297661" lon="2.115688">
        <ele>1573.7</ele>
        <time>2018-06-11T08:15:49Z</time>
      </trkpt>
      <trkpt lat="42.297638" lon="2.115514">
        <ele>1581.4</ele>
        <time>2018-06-11T08:15:53Z</time>
      </trkpt>
      <trkpt lat="42.297623" lon="2.115313">
        <ele>1590.8</ele>
        <time>2018-06-11T08:15:58Z</time>
      </trkpt>
      <trkpt lat="42.297602" lon="2.115192">
        <ele>1596.5</ele>
        <time>2018-06-11T08:16:01Z</time>
      </trkpt>
      <trkpt lat="42.297556" lon="2.114942">
        <ele>1609.2</ele>
        <time>2018-06-11T08:16:07Z</time>
      </trkpt>
      <trkpt lat="42.297473" lon="2.114673">
        <ele>1619.7</ele>
        <time>2018-06-11T08:16:13Z</time>
      </trkpt>
      <trkpt lat="42.297358" lon="2.114405">
        <ele>1624.6</ele>
        <time>2018-06-11T08:16:19Z</time>
      </trkpt>
      <trkpt lat="42.297357" lon="2.114403">
        <ele>1624.6</ele>
        <time>2018-06-11T08:16:19Z</time>
      </trkpt>
      <trkpt lat="42.297285" lon="2.114142">
        <ele>1629.7</ele>
        <time>2018-06-11T08:16:25Z</time>
      </trkpt>
      <trkpt lat="42.297223" lon="2.113977">
        <ele>1635.6</ele>
        <time>2018-06-11T08:16:28Z</time>
      </trkpt>
      <trkpt lat="42.297187" lon="2.113807">
        <ele>1640.9</ele>
        <time>2018-06-11T08:16:32Z</time>
      </trkpt>
      <trkpt lat="42.297148" lon="2.113638">
        <ele>1646.1</ele>
        <time>2018-06-11T08:16:36Z</time>
      </trkpt>
      <trkpt lat="42.297102" lon="2.113460">
        <ele>1650.2</ele>
        <time>2018-06-11T08:16:40Z</time>
      </trkpt>
      <trkpt lat="42.297047" lon="2.113395">
        <ele>1648.8</ele>
        <time>2018-06-11T08:16:42Z</time>
      </trkpt>
      <trkpt lat="42.297012" lon="2.113270">
        <ele>1647.3</ele>
        <time>2018-06-11T08:16:44Z</time>
      </trkpt>
      <trkpt lat="42.296957" lon="2.113152">
        <ele>1645.3</ele>
        <time>2018-06-11T08:16:47Z</time>
      </trkpt>
      <trkpt lat="42.296901" lon="2.112966">
        <ele>1643.0</ele>
        <time>2018-06-11T08:16:51Z</time>
      </trkpt>
      <trkpt lat="42.296843" lon="2.112839">
        <ele>1640.9</ele>
        <time>2018-06-11T08:16:54Z</time>
      </trkpt>
      <trkpt lat="42.296796" lon="2.112772">
        <ele>1639.8</ele>
        <time>2018-06-11T08:16:56Z</time>
      </trkpt>
      <trkpt lat="42.296774" lon="2.112711">
        <ele>1639.9</ele>
        <time>2018-06-11T08:16:57Z</time>
      </trkpt>
      <trkpt lat="42.296685" lon="2.112690">
        <ele>1638.8</ele>
        <time>2018-06-11T08:17:00Z</time>
      </trkpt>
      <trkpt lat="42.296583" lon="2.112678">
        <ele>1637.5</ele>
        <time>2018-06-11T08:17:02Z</time>
      </trkpt>
      <trkpt lat="42.296468" lon="2.112654">
        <ele>1635.9</ele>
        <time>2018-06-11T08:17:05Z</time>
      </trkpt>
      <trkpt lat="42.296425" lon="2.112656">
        <ele>1634.7</ele>
        <time>2018-06-11T08:17:07Z</time>
      </trkpt>
      <trkpt lat="42.296365" lon="2.112642">
        <ele>1633.3</ele>
        <time>2018-06-11T08:17:08Z</time>
      </trkpt>
      <trkpt lat="42.296306" lon="2.112624">
        <ele>1632.5</ele>
        <time>2018-06-11T08:17:10Z</time>
      </trkpt>
      <trkpt lat="42.296280" lon="2.112600">
        <ele>1633.4</ele>
        <time>2018-06-11T08:17:11Z</time>
      </trkpt>
      <trkpt lat="42.296276" lon="2.112569">
        <ele>1635.3</ele>
        <time>2018-06-11T08:17:11Z</time>
      </trkpt>
      <trkpt lat="42.296282" lon="2.112521">
        <ele>1638.4</ele>
        <time>2018-06-11T08:17:13Z</time>
      </trkpt>
      <trkpt lat="42.296311" lon="2.112469">
        <ele>1641.2</ele>
        <time>2018-06-11T08:17:14Z</time>
      </trkpt>
      <trkpt lat="42.296389" lon="2.112412">
        <ele>1641.8</ele>
        <time>2018-06-11T08:17:16Z</time>
      </trkpt>
      <trkpt lat="42.296532" lon="2.112334">
        <ele>1638.5</ele>
        <time>2018-06-11T08:17:21Z</time>
      </trkpt>
      <trkpt lat="42.296649" lon="2.112264">
        <ele>1641.5</ele>
        <time>2018-06-11T08:17:24Z</time>
      </trkpt>
      <trkpt lat="42.296725" lon="2.112217">
        <ele>1641.7</ele>
        <time>2018-06-11T08:17:26Z</time>
      </trkpt>
      <trkpt lat="42.296814" lon="2.112132">
        <ele>1640.4</ele>
        <time>2018-06-11T08:17:29Z</time>
      </trkpt>
      <trkpt lat="42.296947" lon="2.111983">
        <ele>1645.2</ele>
        <time>2018-06-11T08:17:34Z</time>
      </trkpt>
      <trkpt lat="42.297028" lon="2.111827">
        <ele>1648.7</ele>
        <time>2018-06-11T08:17:38Z</time>
      </trkpt>
      <trkpt lat="42.297109" lon="2.111637">
        <ele>1648.7</ele>
        <time>2018-06-11T08:17:42Z</time>
      </trkpt>
      <trkpt lat="42.297192" lon="2.111387">
        <ele>1649.6</ele>
        <time>2018-06-11T08:17:47Z</time>
      </trkpt>
      <trkpt lat="42.297230" lon="2.111222">
        <ele>1649.4</ele>
        <time>2018-06-11T08:17:51Z</time>
      </trkpt>
      <trkpt lat="42.297250" lon="2.111060">
        <ele>1651.5</ele>
        <time>2018-06-11T08:17:54Z</time>
      </trkpt>
      <trkpt lat="42.297244" lon="2.110868">
        <ele>1654.7</ele>
        <time>2018-06-11T08:17:58Z</time>
      </trkpt>
      <trkpt lat="42.297244" lon="2.110664">
        <ele>1658.3</ele>
        <time>2018-06-11T08:18:02Z</time>
      </trkpt>
      <trkpt lat="42.297294" lon="2.110403">
        <ele>1659.1</ele>
        <time>2018-06-11T08:18:07Z</time>
      </trkpt>
      <trkpt lat="42.297378" lon="2.110193">
        <ele>1662.9</ele>
        <time>2018-06-11T08:18:12Z</time>
      </trkpt>
      <trkpt lat="42.297442" lon="2.110043">
        <ele>1663.3</ele>
        <time>2018-06-11T08:18:15Z</time>
      </trkpt>
      <trkpt lat="42.297485" lon="2.109860">
        <ele>1662.9</ele>
        <time>2018-06-11T08:18:19Z</time>
      </trkpt>
      <trkpt lat="42.297586" lon="2.109620">
        <ele>1660.5</ele>
        <time>2018-06-11T08:18:25Z</time>
      </trkpt>
      <trkpt lat="42.297653" lon="2.109287">
        <ele>1661.1</ele>
        <time>2018-06-11T08:18:31Z</time>
      </trkpt>
      <trkpt lat="42.297684" lon="2.109002">
        <ele>1664.5</ele>
        <time>2018-06-11T08:18:37Z</time>
      </trkpt>
      <trkpt lat="42.297735" lon="2.108698">
        <ele>1667.9</ele>
        <time>2018-06-11T08:18:43Z</time>
      </trkpt>
      <trkpt lat="42.297762" lon="2.108339">
        <ele>1666.2</ele>
        <time>2018-06-11T08:18:50Z</time>
      </trkpt>
      <trkpt lat="42.297822" lon="2.108133">
        <ele>1662.0</ele>
        <time>2018-06-11T08:18:55Z</time>
      </trkpt>
      <trkpt lat="42.297856" lon="2.107911">
        <ele>1659.2</ele>
        <time>2018-06-11T08:18:59Z</time>
      </trkpt>
      <trkpt lat="42.297856" lon="2.107640">
        <ele>1661.0</ele>
        <time>2018-06-11T08:19:05Z</time>
      </trkpt>
      <trkpt lat="42.297813" lon="2.107355">
        <ele>1663.5</ele>
        <time>2018-06-11T08:19:10Z</time>
      </trkpt>
      <trkpt lat="42.297742" lon="2.107096">
        <ele>1664.6</ele>
        <time>2018-06-11T08:19:16Z</time>
      </trkpt>
      <trkpt lat="42.297641" lon="2.106880">
        <ele>1664.3</ele>
        <time>2018-06-11T08:19:21Z</time>
      </trkpt>
      <trkpt lat="42.297541" lon="2.106721">
        <ele>1666.6</ele>
        <time>2018-06-11T08:19:25Z</time>
      </trkpt>
      <trkpt lat="42.297352" lon="2.106523">
        <ele>1670.3</ele>
        <time>2018-06-11T08:19:31Z</time>
      </trkpt>
      <trkpt lat="42.297158" lon="2.106304">
        <ele>1673.9</ele>
        <time>2018-06-11T08:19:38Z</time>
      </trkpt>
      <trkpt lat="42.296769" lon="2.105841">
        <ele>1675.2</ele>
        <time>2018-06-11T08:19:52Z</time>
      </trkpt>
      <trkpt lat="42.296495" lon="2.105391">
        <ele>1665.9</ele>
        <time>2018-06-11T08:20:03Z</time>
      </trkpt>
      <trkpt lat="42.296170" lon="2.104945">
        <ele>1683.2</ele>
        <time>2018-06-11T08:20:16Z</time>
      </trkpt>
      <trkpt lat="42.295890" lon="2.104392">
        <ele>1690.7</ele>
        <time>2018-06-11T08:20:29Z</time>
      </trkpt>
      <trkpt lat="42.295779" lon="2.104124">
        <ele>1691.0</ele>
        <time>2018-06-11T08:20:35Z</time>
      </trkpt>
      <trkpt lat="42.295616" lon="2.103883">
        <ele>1689.3</ele>
        <time>2018-06-11T08:20:42Z</time>
      </trkpt>
      <trkpt lat="42.295324" lon="2.103566">
        <ele>1691.2</ele>
        <time>2018-06-11T08:20:52Z</time>
      </trkpt>
      <trkpt lat="42.294914" lon="2.103285">
        <ele>1691.5</ele>
        <time>2018-06-11T08:21:04Z</time>
      </trkpt>
      <trkpt lat="42.294590" lon="2.103072">
        <ele>1679.5</ele>
        <time>2018-06-11T08:21:14Z</time>
      </trkpt>
      <trkpt lat="42.294411" lon="2.102941">
        <ele>1682.3</ele>
        <time>2018-06-11T08:21:19Z</time>
      </trkpt>
      <trkpt lat="42.293751" lon="2.102582">
        <ele>1680.0</ele>
        <time>2018-06-11T08:21:38Z</time>
      </trkpt>
      <trkpt lat="42.293489" lon="2.102458">
        <ele>1680.6</ele>
        <time>2018-06-11T08:21:46Z</time>
      </trkpt>
      <trkpt lat="42.293064" lon="2.102269">
        <ele>1688.2</ele>
        <time>2018-06-11T08:21:58Z</time>
      </trkpt>
      <trkpt lat="42.292900" lon="2.102146">
        <ele>1688.5</ele>
        <time>2018-06-11T08:22:03Z</time>
      </trkpt>
      <trkpt lat="42.292561" lon="2.101643">
        <ele>1677.5</ele>
        <time>2018-06-11T08:22:16Z</time>
      </trkpt>
      <trkpt lat="42.292382" lon="2.101459">
        <ele>1676.3</ele>
        <time>2018-06-11T08:22:22Z</time>
      </trkpt>
      <trkpt lat="42.292229" lon="2.101337">
        <ele>1676.9</ele>
        <time>2018-06-11T08:22:27Z</time>
      </trkpt>
      <trkpt lat="42.292123" lon="2.101285">
        <ele>1678.5</ele>
        <time>2018-06-11T08:22:30Z</time>
      </trkpt>
      <trkpt lat="42.292003" lon="2.101253">
        <ele>1677.6</ele>
        <time>2018-06-11T08:22:33Z</time>
      </trkpt>
      <trkpt lat="42.291823" lon="2.101201">
        <ele>1673.8</ele>
        <time>2018-06-11T08:22:38Z</time>
      </trkpt>
      <trkpt lat="42.291451" lon="2.101195">
        <ele>1667.3</ele>
        <time>2018-06-11T08:22:48Z</time>
      </trkpt>
      <trkpt lat="42.291112" lon="2.101208">
        <ele>1667.0</ele>
        <time>2018-06-11T08:22:57Z</time>
      </trkpt>
      <trkpt lat="42.290919" lon="2.101235">
        <ele>1668.6</ele>
        <time>2018-06-11T08:23:02Z</time>
      </trkpt>
      <trkpt lat="42.290752" lon="2.101228">
        <ele>1670.4</ele>
        <time>2018-06-11T08:23:07Z</time>
      </trkpt>
      <trkpt lat="42.290683" lon="2.101189">
        <ele>1671.1</ele>
        <time>2018-06-11T08:23:09Z</time>
      </trkpt>
      <trkpt lat="42.290634" lon="2.101108">
        <ele>1671.7</ele>
        <time>2018-06-11T08:23:11Z</time>
      </trkpt>
      <trkpt lat="42.290590" lon="2.100981">
        <ele>1672.1</ele>
        <time>2018-06-11T08:23:13Z</time>
      </trkpt>
      <trkpt lat="42.290412" lon="2.100518">
        <ele>1671.7</ele>
        <time>2018-06-11T08:23:24Z</time>
      </trkpt>
      <trkpt lat="42.290377" lon="2.100373">
        <ele>1669.8</ele>
        <time>2018-06-11T08:23:27Z</time>
      </trkpt>
      <trkpt lat="42.290293" lon="2.100222">
        <ele>1666.9</ele>
        <time>2018-06-11T08:23:30Z</time>
      </trkpt>
      <trkpt lat="42.290094" lon="2.100019">
        <ele>1666.4</ele>
        <time>2018-06-11T08:23:37Z</time>
      </trkpt>
      <trkpt lat="42.289917" lon="2.099828">
        <ele>1668.4</ele>
        <time>2018-06-11T08:23:43Z</time>
      </trkpt>
      <trkpt lat="42.289890" lon="2.099795">
        <ele>1668.7</ele>
        <time>2018-06-11T08:23:44Z</time>
      </trkpt>
      <trkpt lat="42.289814" lon="2.099658">
        <ele>1668.9</ele>
        <time>2018-06-11T08:23:47Z</time>
      </trkpt>
      <trkpt lat="42.289700" lon="2.099323">
        <ele>1668.2</ele>
        <time>2018-06-11T08:23:54Z</time>
      </trkpt>
      <trkpt lat="42.289642" lon="2.099195">
        <ele>1668.7</ele>
        <time>2018-06-11T08:23:57Z</time>
      </trkpt>
      <trkpt lat="42.289437" lon="2.098543">
        <ele>1668.5</ele>
        <time>2018-06-11T08:24:11Z</time>
      </trkpt>
      <trkpt lat="42.289461" lon="2.097658">
        <ele>1670.0</ele>
        <time>2018-06-11T08:24:29Z</time>
      </trkpt>
      <trkpt lat="42.289280" lon="2.097371">
        <ele>1668.7</ele>
        <time>2018-06-11T08:24:36Z</time>
      </trkpt>
      <trkpt lat="42.289185" lon="2.097056">
        <ele>1668.2</ele>
        <time>2018-06-11T08:24:43Z</time>
      </trkpt>
      <trkpt lat="42.288990" lon="2.096861">
        <ele>1674.9</ele>
        <time>2018-06-11T08:24:49Z</time>
      </trkpt>
      <trkpt lat="42.288795" lon="2.096545">
        <ele>1682.1</ele>
        <time>2018-06-11T08:24:58Z</time>
      </trkpt>
      <trkpt lat="42.288696" lon="2.096301">
        <ele>1685.5</ele>
        <time>2018-06-11T08:25:03Z</time>
      </trkpt>
      <trkpt lat="42.288756" lon="2.095915">
        <ele>1682.0</ele>
        <time>2018-06-11T08:25:11Z</time>
      </trkpt>
      <trkpt lat="42.288761" lon="2.095520">
        <ele>1687.2</ele>
        <time>2018-06-11T08:25:19Z</time>
      </trkpt>
      <trkpt lat="42.288681" lon="2.095132">
        <ele>1690.8</ele>
        <time>2018-06-11T08:25:27Z</time>
      </trkpt>
      <trkpt lat="42.288617" lon="2.094971">
        <ele>1695.1</ele>
        <time>2018-06-11T08:25:30Z</time>
      </trkpt>
      <trkpt lat="42.288590" lon="2.094906">
        <ele>1696.8</ele>
        <time>2018-06-11T08:25:32Z</time>
      </trkpt>
      <trkpt lat="42.288601" lon="2.094831">
        <ele>1697.9</ele>
        <time>2018-06-11T08:25:33Z</time>
      </trkpt>
      <trkpt lat="42.288840" lon="2.094687">
        <ele>1689.6</ele>
        <time>2018-06-11T08:25:41Z</time>
      </trkpt>
      <trkpt lat="42.289007" lon="2.094542">
        <ele>1684.2</ele>
        <time>2018-06-11T08:25:46Z</time>
      </trkpt>
      <trkpt lat="42.289039" lon="2.094466">
        <ele>1683.5</ele>
        <time>2018-06-11T08:25:48Z</time>
      </trkpt>
      <trkpt lat="42.289043" lon="2.094375">
        <ele>1684.1</ele>
        <time>2018-06-11T08:25:50Z</time>
      </trkpt>
      <trkpt lat="42.288948" lon="2.094054">
        <ele>1692.4</ele>
        <time>2018-06-11T08:25:57Z</time>
      </trkpt>
      <trkpt lat="42.288915" lon="2.093748">
        <ele>1701.0</ele>
        <time>2018-06-11T08:26:03Z</time>
      </trkpt>
      <trkpt lat="42.288949" lon="2.093462">
        <ele>1705.7</ele>
        <time>2018-06-11T08:26:09Z</time>
      </trkpt>
      <trkpt lat="42.289040" lon="2.093279">
        <ele>1706.2</ele>
        <time>2018-06-11T08:26:13Z</time>
      </trkpt>
      <trkpt lat="42.289133" lon="2.093179">
        <ele>1704.4</ele>
        <time>2018-06-11T08:26:16Z</time>
      </trkpt>
      <trkpt lat="42.289322" lon="2.092891">
        <ele>1705.3</ele>
        <time>2018-06-11T08:26:24Z</time>
      </trkpt>
      <trkpt lat="42.289545" lon="2.092684">
        <ele>1701.4</ele>
        <time>2018-06-11T08:26:31Z</time>
      </trkpt>
      <trkpt lat="42.289663" lon="2.092482">
        <ele>1701.5</ele>
        <time>2018-06-11T08:26:36Z</time>
      </trkpt>
      <trkpt lat="42.289738" lon="2.092249">
        <ele>1704.0</ele>
        <time>2018-06-11T08:26:41Z</time>
      </trkpt>
      <trkpt lat="42.289752" lon="2.091993">
        <ele>1703.6</ele>
        <time>2018-06-11T08:26:46Z</time>
      </trkpt>
      <trkpt lat="42.289761" lon="2.091721">
        <ele>1698.1</ele>
        <time>2018-06-11T08:26:52Z</time>
      </trkpt>
      <trkpt lat="42.289730" lon="2.091537">
        <ele>1695.7</ele>
        <time>2018-06-11T08:26:55Z</time>
      </trkpt>
      <trkpt lat="42.289719" lon="2.091516">
        <ele>1696.1</ele>
        <time>2018-06-11T08:26:56Z</time>
      </trkpt>
      <trkpt lat="42.289642" lon="2.091359">
        <ele>1699.5</ele>
        <time>2018-06-11T08:27:00Z</time>
      </trkpt>
      <trkpt lat="42.289521" lon="2.091163">
        <ele>1708.8</ele>
        <time>2018-06-11T08:27:05Z</time>
      </trkpt>
      <trkpt lat="42.289425" lon="2.090916">
        <ele>1718.6</ele>
        <time>2018-06-11T08:27:11Z</time>
      </trkpt>
      <trkpt lat="42.289425" lon="2.090869">
        <ele>1718.7</ele>
        <time>2018-06-11T08:27:12Z</time>
      </trkpt>
      <trkpt lat="42.289448" lon="2.090778">
        <ele>1717.6</ele>
        <time>2018-06-11T08:27:14Z</time>
      </trkpt>
      <trkpt lat="42.289528" lon="2.090739">
        <ele>1713.7</ele>
        <time>2018-06-11T08:27:16Z</time>
      </trkpt>
      <trkpt lat="42.289730" lon="2.090532">
        <ele>1705.0</ele>
        <time>2018-06-11T08:27:23Z</time>
      </trkpt>
      <trkpt lat="42.289780" lon="2.090158">
        <ele>1708.3</ele>
        <time>2018-06-11T08:27:31Z</time>
      </trkpt>
      <trkpt lat="42.289818" lon="2.089833">
        <ele>1712.8</ele>
        <time>2018-06-11T08:27:37Z</time>
      </trkpt>
      <trkpt lat="42.289829" lon="2.089777">
        <ele>1713.0</ele>
        <time>2018-06-11T08:27:38Z</time>
      </trkpt>
      <trkpt lat="42.289829" lon="2.089777">
        <ele>1713.0</ele>
        <time>2018-06-11T08:27:38Z</time>
      </trkpt>
      <trkpt lat="42.289833" lon="2.089780">
        <ele>1712.8</ele>
        <time>2018-06-11T08:27:39Z</time>
      </trkpt>
      <trkpt lat="42.289928" lon="2.089440">
        <ele>1712.3</ele>
        <time>2018-06-11T08:27:46Z</time>
      </trkpt>
      <trkpt lat="42.289944" lon="2.089411">
        <ele>1711.8</ele>
        <time>2018-06-11T08:27:46Z</time>
      </trkpt>
      <trkpt lat="42.289974" lon="2.089317">
        <ele>1711.4</ele>
        <time>2018-06-11T08:27:48Z</time>
      </trkpt>
      <trkpt lat="42.289974" lon="2.089317">
        <ele>1711.4</ele>
        <time>2018-06-11T08:27:48Z</time>
      </trkpt>
      <trkpt lat="42.289993" lon="2.089229">
        <ele>1711.5</ele>
        <time>2018-06-11T08:27:50Z</time>
      </trkpt>
      <trkpt lat="42.290115" lon="2.088841">
        <ele>1706.3</ele>
        <time>2018-06-11T08:27:59Z</time>
      </trkpt>
      <trkpt lat="42.290165" lon="2.088627">
        <ele>1708.1</ele>
        <time>2018-06-11T08:28:03Z</time>
      </trkpt>
      <trkpt lat="42.290165" lon="2.088627">
        <ele>1708.1</ele>
        <time>2018-06-11T08:28:03Z</time>
      </trkpt>
      <trkpt lat="42.290251" lon="2.088433">
        <ele>1708.9</ele>
        <time>2018-06-11T08:28:07Z</time>
      </trkpt>
      <trkpt lat="42.290340" lon="2.088158">
        <ele>1711.8</ele>
        <time>2018-06-11T08:28:13Z</time>
      </trkpt>
      <trkpt lat="42.290428" lon="2.087669">
        <ele>1716.4</ele>
        <time>2018-06-11T08:28:23Z</time>
      </trkpt>
      <trkpt lat="42.290466" lon="2.087029">
        <ele>1713.3</ele>
        <time>2018-06-11T08:28:36Z</time>
      </trkpt>
      <trkpt lat="42.290356" lon="2.086556">
        <ele>1710.1</ele>
        <time>2018-06-11T08:28:46Z</time>
      </trkpt>
      <trkpt lat="42.290188" lon="2.086231">
        <ele>1709.0</ele>
        <time>2018-06-11T08:28:53Z</time>
      </trkpt>
      <trkpt lat="42.290028" lon="2.085941">
        <ele>1711.3</ele>
        <time>2018-06-11T08:29:00Z</time>
      </trkpt>
      <trkpt lat="42.289952" lon="2.085723">
        <ele>1716.2</ele>
        <time>2018-06-11T08:29:05Z</time>
      </trkpt>
      <trkpt lat="42.289948" lon="2.085549">
        <ele>1717.1</ele>
        <time>2018-06-11T08:29:09Z</time>
      </trkpt>
      <trkpt lat="42.290044" lon="2.085359">
        <ele>1713.9</ele>
        <time>2018-06-11T08:29:13Z</time>
      </trkpt>
      <trkpt lat="42.290211" lon="2.084942">
        <ele>1711.7</ele>
        <time>2018-06-11T08:29:23Z</time>
      </trkpt>
      <trkpt lat="42.290285" lon="2.084703">
        <ele>1712.8</ele>
        <time>2018-06-11T08:29:28Z</time>
      </trkpt>
      <trkpt lat="42.290336" lon="2.084539">
        <ele>1713.7</ele>
        <time>2018-06-11T08:29:31Z</time>
      </trkpt>
      <trkpt lat="42.290466" lon="2.084409">
        <ele>1713.5</ele>
        <time>2018-06-11T08:29:35Z</time>
      </trkpt>
      <trkpt lat="42.290604" lon="2.084351">
        <ele>1714.7</ele>
        <time>2018-06-11T08:29:39Z</time>
      </trkpt>
      <trkpt lat="42.290692" lon="2.084241">
        <ele>1717.6</ele>
        <time>2018-06-11T08:29:43Z</time>
      </trkpt>
      <trkpt lat="42.290826" lon="2.084115">
        <ele>1719.2</ele>
        <time>2018-06-11T08:29:47Z</time>
      </trkpt>
      <trkpt lat="42.290978" lon="2.084104">
        <ele>1717.5</ele>
        <time>2018-06-11T08:29:51Z</time>
      </trkpt>
      <trkpt lat="42.291061" lon="2.084125">
        <ele>1715.3</ele>
        <time>2018-06-11T08:29:53Z</time>
      </trkpt>
      <trkpt lat="42.291193" lon="2.084125">
        <ele>1712.5</ele>
        <time>2018-06-11T08:29:57Z</time>
      </trkpt>
      <trkpt lat="42.291317" lon="2.084075">
        <ele>1710.1</ele>
        <time>2018-06-11T08:30:00Z</time>
      </trkpt>
      <trkpt lat="42.291455" lon="2.083912">
        <ele>1708.3</ele>
        <time>2018-06-11T08:30:05Z</time>
      </trkpt>
      <trkpt lat="42.291602" lon="2.083848">
        <ele>1706.8</ele>
        <time>2018-06-11T08:30:09Z</time>
      </trkpt>
      <trkpt lat="42.291794" lon="2.083812">
        <ele>1706.2</ele>
        <time>2018-06-11T08:30:14Z</time>
      </trkpt>
      <trkpt lat="42.291964" lon="2.083722">
        <ele>1707.0</ele>
        <time>2018-06-11T08:30:19Z</time>
      </trkpt>
      <trkpt lat="42.292049" lon="2.083695">
        <ele>1707.3</ele>
        <time>2018-06-11T08:30:22Z</time>
      </trkpt>
      <trkpt lat="42.292315" lon="2.083654">
        <ele>1708.9</ele>
        <time>2018-06-11T08:30:29Z</time>
      </trkpt>
      <trkpt lat="42.292571" lon="2.083499">
        <ele>1709.5</ele>
        <time>2018-06-11T08:30:36Z</time>
      </trkpt>
      <trkpt lat="42.292787" lon="2.083518">
        <ele>1706.5</ele>
        <time>2018-06-11T08:30:42Z</time>
      </trkpt>
      <trkpt lat="42.292799" lon="2.083494">
        <ele>1706.5</ele>
        <time>2018-06-11T08:30:42Z</time>
      </trkpt>
      <trkpt lat="42.292795" lon="2.083453">
        <ele>1706.8</ele>
        <time>2018-06-11T08:30:43Z</time>
      </trkpt>
      <trkpt lat="42.292775" lon="2.083421">
        <ele>1707.1</ele>
        <time>2018-06-11T08:30:44Z</time>
      </trkpt>
      <trkpt lat="42.292662" lon="2.083408">
        <ele>1708.9</ele>
        <time>2018-06-11T08:30:47Z</time>
      </trkpt>
      <trkpt lat="42.292379" lon="2.083317">
        <ele>1713.3</ele>
        <time>2018-06-11T08:30:55Z</time>
      </trkpt>
      <trkpt lat="42.291733" lon="2.082885">
        <ele>1719.6</ele>
        <time>2018-06-11T08:31:14Z</time>
      </trkpt>
      <trkpt lat="42.291626" lon="2.082844">
        <ele>1721.6</ele>
        <time>2018-06-11T08:31:17Z</time>
      </trkpt>
      <trkpt lat="42.291542" lon="2.082788">
        <ele>1722.8</ele>
        <time>2018-06-11T08:31:19Z</time>
      </trkpt>
      <trkpt lat="42.291481" lon="2.082730">
        <ele>1723.3</ele>
        <time>2018-06-11T08:31:21Z</time>
      </trkpt>
      <trkpt lat="42.291405" lon="2.082653">
        <ele>1724.2</ele>
        <time>2018-06-11T08:31:24Z</time>
      </trkpt>
      <trkpt lat="42.291393" lon="2.082643">
        <ele>1724.4</ele>
        <time>2018-06-11T08:31:24Z</time>
      </trkpt>
      <trkpt lat="42.291359" lon="2.082613">
        <ele>1724.8</ele>
        <time>2018-06-11T08:31:25Z</time>
      </trkpt>
      <trkpt lat="42.291117" lon="2.082498">
        <ele>1730.5</ele>
        <time>2018-06-11T08:31:32Z</time>
      </trkpt>
      <trkpt lat="42.290972" lon="2.082356">
        <ele>1737.0</ele>
        <time>2018-06-11T08:31:37Z</time>
      </trkpt>
      <trkpt lat="42.290939" lon="2.082295">
        <ele>1738.6</ele>
        <time>2018-06-11T08:31:39Z</time>
      </trkpt>
      <trkpt lat="42.290947" lon="2.082195">
        <ele>1738.4</ele>
        <time>2018-06-11T08:31:41Z</time>
      </trkpt>
      <trkpt lat="42.290980" lon="2.082075">
        <ele>1736.8</ele>
        <time>2018-06-11T08:31:43Z</time>
      </trkpt>
      <trkpt lat="42.290990" lon="2.081970">
        <ele>1737.8</ele>
        <time>2018-06-11T08:31:45Z</time>
      </trkpt>
      <trkpt lat="42.290977" lon="2.081842">
        <ele>1740.3</ele>
        <time>2018-06-11T08:31:48Z</time>
      </trkpt>
      <trkpt lat="42.290977" lon="2.081842">
        <ele>1740.3</ele>
        <time>2018-06-11T08:31:48Z</time>
      </trkpt>
      <trkpt lat="42.290966" lon="2.081801">
        <ele>1741.4</ele>
        <time>2018-06-11T08:31:49Z</time>
      </trkpt>
      <trkpt lat="42.290947" lon="2.081727">
        <ele>1743.7</ele>
        <time>2018-06-11T08:31:51Z</time>
      </trkpt>
      <trkpt lat="42.290920" lon="2.081663">
        <ele>1746.4</ele>
        <time>2018-06-11T08:31:52Z</time>
      </trkpt>
      <trkpt lat="42.290890" lon="2.081579">
        <ele>1749.6</ele>
        <time>2018-06-11T08:31:54Z</time>
      </trkpt>
      <trkpt lat="42.290901" lon="2.081534">
        <ele>1749.5</ele>
        <time>2018-06-11T08:31:55Z</time>
      </trkpt>
      <trkpt lat="42.290901" lon="2.081534">
        <ele>1749.5</ele>
        <time>2018-06-11T08:31:55Z</time>
      </trkpt>
      <trkpt lat="42.290913" lon="2.081511">
        <ele>1748.9</ele>
        <time>2018-06-11T08:31:56Z</time>
      </trkpt>
      <trkpt lat="42.290989" lon="2.081427">
        <ele>1745.1</ele>
        <time>2018-06-11T08:31:58Z</time>
      </trkpt>
      <trkpt lat="42.291035" lon="2.081231">
        <ele>1745.1</ele>
        <time>2018-06-11T08:32:02Z</time>
      </trkpt>
      <trkpt lat="42.291065" lon="2.081106">
        <ele>1744.7</ele>
        <time>2018-06-11T08:32:05Z</time>
      </trkpt>
      <trkpt lat="42.291111" lon="2.080905">
        <ele>1744.1</ele>
        <time>2018-06-11T08:32:09Z</time>
      </trkpt>
      <trkpt lat="42.291157" lon="2.080750">
        <ele>1743.3</ele>
        <time>2018-06-11T08:32:12Z</time>
      </trkpt>
      <trkpt lat="42.291214" lon="2.080585">
        <ele>1741.8</ele>
        <time>2018-06-11T08:32:16Z</time>
      </trkpt>
      <trkpt lat="42.291203" lon="2.080431">
        <ele>1744.0</ele>
        <time>2018-06-11T08:32:19Z</time>
      </trkpt>
      <trkpt lat="42.291214" lon="2.080265">
        <ele>1745.8</ele>
        <time>2018-06-11T08:32:22Z</time>
      </trkpt>
      <trkpt lat="42.291237" lon="2.080048">
        <ele>1748.3</ele>
        <time>2018-06-11T08:32:27Z</time>
      </trkpt>
      <trkpt lat="42.291241" lon="2.079967">
        <ele>1750.0</ele>
        <time>2018-06-11T08:32:28Z</time>
      </trkpt>
      <trkpt lat="42.291256" lon="2.079931">
        <ele>1749.9</ele>
        <time>2018-06-11T08:32:29Z</time>
      </trkpt>
      <trkpt lat="42.291298" lon="2.079727">
        <ele>1752.5</ele>
        <time>2018-06-11T08:32:33Z</time>
      </trkpt>
      <trkpt lat="42.291317" lon="2.079669">
        <ele>1752.8</ele>
        <time>2018-06-11T08:32:35Z</time>
      </trkpt>
      <trkpt lat="42.291367" lon="2.079595">
        <ele>1751.8</ele>
        <time>2018-06-11T08:32:37Z</time>
      </trkpt>
      <trkpt lat="42.291428" lon="2.079543">
        <ele>1750.2</ele>
        <time>2018-06-11T08:32:38Z</time>
      </trkpt>
      <trkpt lat="42.291477" lon="2.079443">
        <ele>1751.2</ele>
        <time>2018-06-11T08:32:41Z</time>
      </trkpt>
      <trkpt lat="42.291489" lon="2.079222">
        <ele>1756.7</ele>
        <time>2018-06-11T08:32:45Z</time>
      </trkpt>
      <trkpt lat="42.291479" lon="2.079175">
        <ele>1757.9</ele>
        <time>2018-06-11T08:32:46Z</time>
      </trkpt>
      <trkpt lat="42.291469" lon="2.079063">
        <ele>1760.1</ele>
        <time>2018-06-11T08:32:49Z</time>
      </trkpt>
      <trkpt lat="42.291517" lon="2.078918">
        <ele>1760.4</ele>
        <time>2018-06-11T08:32:52Z</time>
      </trkpt>
      <trkpt lat="42.291595" lon="2.078805">
        <ele>1758.9</ele>
        <time>2018-06-11T08:32:55Z</time>
      </trkpt>
      <trkpt lat="42.291615" lon="2.078744">
        <ele>1758.8</ele>
        <time>2018-06-11T08:32:56Z</time>
      </trkpt>
      <trkpt lat="42.291645" lon="2.078689">
        <ele>1757.9</ele>
        <time>2018-06-11T08:32:57Z</time>
      </trkpt>
      <trkpt lat="42.291710" lon="2.078513">
        <ele>1756.8</ele>
        <time>2018-06-11T08:33:01Z</time>
      </trkpt>
      <trkpt lat="42.291791" lon="2.078333">
        <ele>1754.8</ele>
        <time>2018-06-11T08:33:06Z</time>
      </trkpt>
      <trkpt lat="42.291977" lon="2.077880">
        <ele>1751.5</ele>
        <time>2018-06-11T08:33:16Z</time>
      </trkpt>
      <trkpt lat="42.292094" lon="2.077662">
        <ele>1745.4</ele>
        <time>2018-06-11T08:33:21Z</time>
      </trkpt>
      <trkpt lat="42.292183" lon="2.077490">
        <ele>1745.7</ele>
        <time>2018-06-11T08:33:25Z</time>
      </trkpt>
      <trkpt lat="42.292202" lon="2.077433">
        <ele>1745.6</ele>
        <time>2018-06-11T08:33:26Z</time>
      </trkpt>
      <trkpt lat="42.292274" lon="2.077099">
        <ele>1746.8</ele>
        <time>2018-06-11T08:33:33Z</time>
      </trkpt>
      <trkpt lat="42.292358" lon="2.076801">
        <ele>1749.2</ele>
        <time>2018-06-11T08:33:40Z</time>
      </trkpt>
      <trkpt lat="42.292393" lon="2.076569">
        <ele>1752.6</ele>
        <time>2018-06-11T08:33:44Z</time>
      </trkpt>
      <trkpt lat="42.292660" lon="2.075928">
        <ele>1760.3</ele>
        <time>2018-06-11T08:33:59Z</time>
      </trkpt>
      <trkpt lat="42.292690" lon="2.075871">
        <ele>1760.7</ele>
        <time>2018-06-11T08:34:00Z</time>
      </trkpt>
      <trkpt lat="42.292728" lon="2.075786">
        <ele>1761.2</ele>
        <time>2018-06-11T08:34:02Z</time>
      </trkpt>
      <trkpt lat="42.292782" lon="2.075655">
        <ele>1761.7</ele>
        <time>2018-06-11T08:34:05Z</time>
      </trkpt>
      <trkpt lat="42.292793" lon="2.075626">
        <ele>1761.7</ele>
        <time>2018-06-11T08:34:06Z</time>
      </trkpt>
      <trkpt lat="42.292824" lon="2.075512">
        <ele>1761.9</ele>
        <time>2018-06-11T08:34:08Z</time>
      </trkpt>
      <trkpt lat="42.292858" lon="2.075303">
        <ele>1762.4</ele>
        <time>2018-06-11T08:34:12Z</time>
      </trkpt>
      <trkpt lat="42.292847" lon="2.075246">
        <ele>1763.1</ele>
        <time>2018-06-11T08:34:13Z</time>
      </trkpt>
      <trkpt lat="42.292824" lon="2.075074">
        <ele>1764.9</ele>
        <time>2018-06-11T08:34:17Z</time>
      </trkpt>
      <trkpt lat="42.292835" lon="2.074857">
        <ele>1766.8</ele>
        <time>2018-06-11T08:34:21Z</time>
      </trkpt>
      <trkpt lat="42.292831" lon="2.074844">
        <ele>1766.9</ele>
        <time>2018-06-11T08:34:21Z</time>
      </trkpt>
      <trkpt lat="42.292870" lon="2.074670">
        <ele>1766.7</ele>
        <time>2018-06-11T08:34:25Z</time>
      </trkpt>
      <trkpt lat="42.292892" lon="2.074480">
        <ele>1767.0</ele>
        <time>2018-06-11T08:34:29Z</time>
      </trkpt>
      <trkpt lat="42.292870" lon="2.074217">
        <ele>1768.7</ele>
        <time>2018-06-11T08:34:34Z</time>
      </trkpt>
      <trkpt lat="42.292862" lon="2.074188">
        <ele>1769.0</ele>
        <time>2018-06-11T08:34:35Z</time>
      </trkpt>
      <trkpt lat="42.292862" lon="2.074101">
        <ele>1769.3</ele>
        <time>2018-06-11T08:34:36Z</time>
      </trkpt>
      <trkpt lat="42.292904" lon="2.073894">
        <ele>1768.4</ele>
        <time>2018-06-11T08:34:41Z</time>
      </trkpt>
      <trkpt lat="42.292923" lon="2.073701">
        <ele>1767.9</ele>
        <time>2018-06-11T08:34:44Z</time>
      </trkpt>
      <trkpt lat="42.292942" lon="2.073620">
        <ele>1767.5</ele>
        <time>2018-06-11T08:34:46Z</time>
      </trkpt>
      <trkpt lat="42.292976" lon="2.073404">
        <ele>1768.0</ele>
        <time>2018-06-11T08:34:50Z</time>
      </trkpt>
      <trkpt lat="42.293018" lon="2.073202">
        <ele>1769.7</ele>
        <time>2018-06-11T08:34:54Z</time>
      </trkpt>
      <trkpt lat="42.293056" lon="2.072974">
        <ele>1772.2</ele>
        <time>2018-06-11T08:34:59Z</time>
      </trkpt>
      <trkpt lat="42.293087" lon="2.072786">
        <ele>1774.5</ele>
        <time>2018-06-11T08:35:03Z</time>
      </trkpt>
      <trkpt lat="42.293102" lon="2.072727">
        <ele>1775.0</ele>
        <time>2018-06-11T08:35:04Z</time>
      </trkpt>
      <trkpt lat="42.293133" lon="2.072580">
        <ele>1776.7</ele>
        <time>2018-06-11T08:35:07Z</time>
      </trkpt>
      <trkpt lat="42.293133" lon="2.072580">
        <ele>1776.7</ele>
        <time>2018-06-11T08:35:07Z</time>
      </trkpt>
      <trkpt lat="42.293175" lon="2.072462">
        <ele>1777.7</ele>
        <time>2018-06-11T08:35:10Z</time>
      </trkpt>
      <trkpt lat="42.293205" lon="2.072298">
        <ele>1779.9</ele>
        <time>2018-06-11T08:35:13Z</time>
      </trkpt>
      <trkpt lat="42.293213" lon="2.072215">
        <ele>1781.3</ele>
        <time>2018-06-11T08:35:15Z</time>
      </trkpt>
      <trkpt lat="42.293256" lon="2.072062">
        <ele>1782.8</ele>
        <time>2018-06-11T08:35:18Z</time>
      </trkpt>
      <trkpt lat="42.293264" lon="2.071783">
        <ele>1784.4</ele>
        <time>2018-06-11T08:35:23Z</time>
      </trkpt>
      <trkpt lat="42.293208" lon="2.071289">
        <ele>1789.2</ele>
        <time>2018-06-11T08:35:33Z</time>
      </trkpt>
      <trkpt lat="42.293224" lon="2.069938">
        <ele>1812.2</ele>
        <time>2018-06-11T08:36:00Z</time>
      </trkpt>
      <trkpt lat="42.293113" lon="2.069476">
        <ele>1825.3</ele>
        <time>2018-06-11T08:36:10Z</time>
      </trkpt>
      <trkpt lat="42.292962" lon="2.069401">
        <ele>1834.4</ele>
        <time>2018-06-11T08:36:15Z</time>
      </trkpt>
      <trkpt lat="42.292835" lon="2.069444">
        <ele>1838.6</ele>
        <time>2018-06-11T08:36:19Z</time>
      </trkpt>
      <trkpt lat="42.292685" lon="2.069584">
        <ele>1842.5</ele>
        <time>2018-06-11T08:36:24Z</time>
      </trkpt>
      <trkpt lat="42.292637" lon="2.069573">
        <ele>1844.0</ele>
        <time>2018-06-11T08:36:25Z</time>
      </trkpt>
      <trkpt lat="42.292462" lon="2.069165">
        <ele>1848.6</ele>
        <time>2018-06-11T08:36:34Z</time>
      </trkpt>
      <trkpt lat="42.292161" lon="2.068768">
        <ele>1858.9</ele>
        <time>2018-06-11T08:36:46Z</time>
      </trkpt>
      <trkpt lat="42.291827" lon="2.068436">
        <ele>1862.0</ele>
        <time>2018-06-11T08:36:57Z</time>
      </trkpt>
      <trkpt lat="42.291605" lon="2.068425">
        <ele>1868.5</ele>
        <time>2018-06-11T08:37:03Z</time>
      </trkpt>
      <trkpt lat="42.291534" lon="2.068361">
        <ele>1871.8</ele>
        <time>2018-06-11T08:37:05Z</time>
      </trkpt>
      <trkpt lat="42.291375" lon="2.068114">
        <ele>1879.9</ele>
        <time>2018-06-11T08:37:12Z</time>
      </trkpt>
      <trkpt lat="42.291327" lon="2.067974">
        <ele>1883.9</ele>
        <time>2018-06-11T08:37:15Z</time>
      </trkpt>
      <trkpt lat="42.291296" lon="2.067717">
        <ele>1890.0</ele>
        <time>2018-06-11T08:37:20Z</time>
      </trkpt>
      <trkpt lat="42.291440" lon="2.067442">
        <ele>1891.6</ele>
        <time>2018-06-11T08:37:27Z</time>
      </trkpt>
      <trkpt lat="42.291742" lon="2.067130">
        <ele>1885.9</ele>
        <time>2018-06-11T08:37:37Z</time>
      </trkpt>
      <trkpt lat="42.292117" lon="2.066302">
        <ele>1885.7</ele>
        <time>2018-06-11T08:37:56Z</time>
      </trkpt>
      <trkpt lat="42.292644" lon="2.065473">
        <ele>1883.6</ele>
        <time>2018-06-11T08:38:17Z</time>
      </trkpt>
      <trkpt lat="42.293468" lon="2.063581">
        <ele>1870.1</ele>
        <time>2018-06-11T08:39:01Z</time>
      </trkpt>
      <trkpt lat="42.293615" lon="2.062993">
        <ele>1868.2</ele>
        <time>2018-06-11T08:39:13Z</time>
      </trkpt>
      <trkpt lat="42.293666" lon="2.062458">
        <ele>1865.4</ele>
        <time>2018-06-11T08:39:23Z</time>
      </trkpt>
      <trkpt lat="42.293606" lon="2.061863">
        <ele>1859.5</ele>
        <time>2018-06-11T08:39:35Z</time>
      </trkpt>
      <trkpt lat="42.293449" lon="2.061249">
        <ele>1855.7</ele>
        <time>2018-06-11T08:39:48Z</time>
      </trkpt>
      <trkpt lat="42.293368" lon="2.060736">
        <ele>1845.7</ele>
        <time>2018-06-11T08:39:58Z</time>
      </trkpt>
      <trkpt lat="42.293233" lon="2.060318">
        <ele>1838.2</ele>
        <time>2018-06-11T08:40:08Z</time>
      </trkpt>
      <trkpt lat="42.293183" lon="2.059885">
        <ele>1831.9</ele>
        <time>2018-06-11T08:40:16Z</time>
      </trkpt>
      <trkpt lat="42.293409" lon="2.059305">
        <ele>1836.4</ele>
        <time>2018-06-11T08:40:29Z</time>
      </trkpt>
      <trkpt lat="42.293457" lon="2.058747">
        <ele>1843.4</ele>
        <time>2018-06-11T08:40:40Z</time>
      </trkpt>
      <trkpt lat="42.293092" lon="2.058291">
        <ele>1829.5</ele>
        <time>2018-06-11T08:40:54Z</time>
      </trkpt>
      <trkpt lat="42.292931" lon="2.058075">
        <ele>1828.3</ele>
        <time>2018-06-11T08:41:00Z</time>
      </trkpt>
      <trkpt lat="42.292817" lon="2.058005">
        <ele>1829.4</ele>
        <time>2018-06-11T08:41:03Z</time>
      </trkpt>
      <trkpt lat="42.292660" lon="2.058010">
        <ele>1828.7</ele>
        <time>2018-06-11T08:41:07Z</time>
      </trkpt>
      <trkpt lat="42.292354" lon="2.057875">
        <ele>1831.6</ele>
        <time>2018-06-11T08:41:16Z</time>
      </trkpt>
      <trkpt lat="42.291967" lon="2.057612">
        <ele>1822.1</ele>
        <time>2018-06-11T08:41:28Z</time>
      </trkpt>
      <trkpt lat="42.291614" lon="2.057188">
        <ele>1812.7</ele>
        <time>2018-06-11T08:41:40Z</time>
      </trkpt>
      <trkpt lat="42.291287" lon="2.056766">
        <ele>1811.4</ele>
        <time>2018-06-11T08:41:52Z</time>
      </trkpt>
      <trkpt lat="42.291124" lon="2.056661">
        <ele>1810.0</ele>
        <time>2018-06-11T08:41:57Z</time>
      </trkpt>
      <trkpt lat="42.290768" lon="2.056409">
        <ele>1808.4</ele>
        <time>2018-06-11T08:42:08Z</time>
      </trkpt>
      <trkpt lat="42.290265" lon="2.056122">
        <ele>1803.7</ele>
        <time>2018-06-11T08:42:22Z</time>
      </trkpt>
      <trkpt lat="42.289556" lon="2.055661">
        <ele>1811.4</ele>
        <time>2018-06-11T08:42:43Z</time>
      </trkpt>
      <trkpt lat="42.288823" lon="2.055053">
        <ele>1792.9</ele>
        <time>2018-06-11T08:43:06Z</time>
      </trkpt>
      <trkpt lat="42.288476" lon="2.054698">
        <ele>1782.4</ele>
        <time>2018-06-11T08:43:18Z</time>
      </trkpt>
      <trkpt lat="42.288405" lon="2.054579">
        <ele>1780.0</ele>
        <time>2018-06-11T08:43:21Z</time>
      </trkpt>
      <trkpt lat="42.288346" lon="2.054461">
        <ele>1776.2</ele>
        <time>2018-06-11T08:43:24Z</time>
      </trkpt>
      <trkpt lat="42.288302" lon="2.054306">
        <ele>1773.1</ele>
        <time>2018-06-11T08:43:27Z</time>
      </trkpt>
      <trkpt lat="42.288282" lon="2.054136">
        <ele>1768.2</ele>
        <time>2018-06-11T08:43:31Z</time>
      </trkpt>
      <trkpt lat="42.288270" lon="2.054000">
        <ele>1764.4</ele>
        <time>2018-06-11T08:43:34Z</time>
      </trkpt>
      <trkpt lat="42.288279" lon="2.053828">
        <ele>1760.7</ele>
        <time>2018-06-11T08:43:37Z</time>
      </trkpt>
      <trkpt lat="42.288631" lon="2.052530">
        <ele>1758.5</ele>
        <time>2018-06-11T08:44:04Z</time>
      </trkpt>
      <trkpt lat="42.288671" lon="2.052396">
        <ele>1759.8</ele>
        <time>2018-06-11T08:44:07Z</time>
      </trkpt>
      <trkpt lat="42.288671" lon="2.052294">
        <ele>1760.5</ele>
        <time>2018-06-11T08:44:09Z</time>
      </trkpt>
      <trkpt lat="42.288631" lon="2.052214">
        <ele>1760.7</ele>
        <time>2018-06-11T08:44:11Z</time>
      </trkpt>
      <trkpt lat="42.288445" lon="2.051892">
        <ele>1761.8</ele>
        <time>2018-06-11T08:44:19Z</time>
      </trkpt>
      <trkpt lat="42.288181" lon="2.051159">
        <ele>1759.2</ele>
        <time>2018-06-11T08:44:35Z</time>
      </trkpt>
      <trkpt lat="42.288147" lon="2.050894">
        <ele>1757.1</ele>
        <time>2018-06-11T08:44:40Z</time>
      </trkpt>
      <trkpt lat="42.288150" lon="2.050410">
        <ele>1750.8</ele>
        <time>2018-06-11T08:44:50Z</time>
      </trkpt>
      <trkpt lat="42.288172" lon="2.050029">
        <ele>1746.5</ele>
        <time>2018-06-11T08:44:58Z</time>
      </trkpt>
      <trkpt lat="42.288199" lon="2.049902">
        <ele>1743.2</ele>
        <time>2018-06-11T08:45:00Z</time>
      </trkpt>
      <trkpt lat="42.288267" lon="2.049778">
        <ele>1740.5</ele>
        <time>2018-06-11T08:45:03Z</time>
      </trkpt>
      <trkpt lat="42.288333" lon="2.049678">
        <ele>1738.7</ele>
        <time>2018-06-11T08:45:06Z</time>
      </trkpt>
      <trkpt lat="42.288453" lon="2.049596">
        <ele>1738.9</ele>
        <time>2018-06-11T08:45:10Z</time>
      </trkpt>
      <trkpt lat="42.288600" lon="2.049531">
        <ele>1737.4</ele>
        <time>2018-06-11T08:45:14Z</time>
      </trkpt>
      <trkpt lat="42.288771" lon="2.049472">
        <ele>1736.5</ele>
        <time>2018-06-11T08:45:18Z</time>
      </trkpt>
      <trkpt lat="42.289366" lon="2.049462">
        <ele>1739.2</ele>
        <time>2018-06-11T08:45:34Z</time>
      </trkpt>
      <trkpt lat="42.289588" lon="2.049456">
        <ele>1745.7</ele>
        <time>2018-06-11T08:45:40Z</time>
      </trkpt>
      <trkpt lat="42.289692" lon="2.049390">
        <ele>1746.1</ele>
        <time>2018-06-11T08:45:43Z</time>
      </trkpt>
      <trkpt lat="42.289707" lon="2.049167">
        <ele>1743.2</ele>
        <time>2018-06-11T08:45:48Z</time>
      </trkpt>
      <trkpt lat="42.289695" lon="2.048961">
        <ele>1740.9</ele>
        <time>2018-06-11T08:45:52Z</time>
      </trkpt>
      <trkpt lat="42.289633" lon="2.048596">
        <ele>1737.9</ele>
        <time>2018-06-11T08:45:59Z</time>
      </trkpt>
      <trkpt lat="42.289545" lon="2.048212">
        <ele>1729.6</ele>
        <time>2018-06-11T08:46:07Z</time>
      </trkpt>
      <trkpt lat="42.289568" lon="2.048013">
        <ele>1725.2</ele>
        <time>2018-06-11T08:46:11Z</time>
      </trkpt>
      <trkpt lat="42.289646" lon="2.047860">
        <ele>1724.7</ele>
        <time>2018-06-11T08:46:15Z</time>
      </trkpt>
      <trkpt lat="42.289862" lon="2.047543">
        <ele>1724.5</ele>
        <time>2018-06-11T08:46:23Z</time>
      </trkpt>
      <trkpt lat="42.290486" lon="2.046548">
        <ele>1709.0</ele>
        <time>2018-06-11T08:46:49Z</time>
      </trkpt>
      <trkpt lat="42.290809" lon="2.046188">
        <ele>1725.6</ele>
        <time>2018-06-11T08:47:01Z</time>
      </trkpt>
      <trkpt lat="42.290815" lon="2.046071">
        <ele>1727.1</ele>
        <time>2018-06-11T08:47:03Z</time>
      </trkpt>
      <trkpt lat="42.290797" lon="2.046010">
        <ele>1727.0</ele>
        <time>2018-06-11T08:47:05Z</time>
      </trkpt>
      <trkpt lat="42.290656" lon="2.045857">
        <ele>1722.8</ele>
        <time>2018-06-11T08:47:10Z</time>
      </trkpt>
      <trkpt lat="42.290510" lon="2.045575">
        <ele>1720.6</ele>
        <time>2018-06-11T08:47:16Z</time>
      </trkpt>
      <trkpt lat="42.290321" lon="2.045401">
        <ele>1716.0</ele>
        <time>2018-06-11T08:47:22Z</time>
      </trkpt>
      <trkpt lat="42.290235" lon="2.045148">
        <ele>1718.6</ele>
        <time>2018-06-11T08:47:28Z</time>
      </trkpt>
      <trkpt lat="42.290168" lon="2.045025">
        <ele>1717.9</ele>
        <time>2018-06-11T08:47:31Z</time>
      </trkpt>
      <trkpt lat="42.289981" lon="2.044848">
        <ele>1711.7</ele>
        <time>2018-06-11T08:47:37Z</time>
      </trkpt>
      <trkpt lat="42.289423" lon="2.044566">
        <ele>1701.9</ele>
        <time>2018-06-11T08:47:53Z</time>
      </trkpt>
      <trkpt lat="42.289184" lon="2.044291">
        <ele>1698.9</ele>
        <time>2018-06-11T08:48:01Z</time>
      </trkpt>
      <trkpt lat="42.289144" lon="2.044162">
        <ele>1697.4</ele>
        <time>2018-06-11T08:48:04Z</time>
      </trkpt>
      <trkpt lat="42.289124" lon="2.044006">
        <ele>1696.2</ele>
        <time>2018-06-11T08:48:07Z</time>
      </trkpt>
      <trkpt lat="42.289144" lon="2.043824">
        <ele>1694.8</ele>
        <time>2018-06-11T08:48:11Z</time>
      </trkpt>
      <trkpt lat="42.289187" lon="2.043645">
        <ele>1693.2</ele>
        <time>2018-06-11T08:48:15Z</time>
      </trkpt>
      <trkpt lat="42.289291" lon="2.043405">
        <ele>1691.5</ele>
        <time>2018-06-11T08:48:20Z</time>
      </trkpt>
      <trkpt lat="42.289412" lon="2.043231">
        <ele>1691.3</ele>
        <time>2018-06-11T08:48:25Z</time>
      </trkpt>
      <trkpt lat="42.289754" lon="2.043046">
        <ele>1697.8</ele>
        <time>2018-06-11T08:48:35Z</time>
      </trkpt>
      <trkpt lat="42.289811" lon="2.043014">
        <ele>1698.7</ele>
        <time>2018-06-11T08:48:36Z</time>
      </trkpt>
      <trkpt lat="42.289842" lon="2.042956">
        <ele>1698.9</ele>
        <time>2018-06-11T08:48:38Z</time>
      </trkpt>
      <trkpt lat="42.289878" lon="2.042729">
        <ele>1700.7</ele>
        <time>2018-06-11T08:48:42Z</time>
      </trkpt>
      <trkpt lat="42.289875" lon="2.042511">
        <ele>1701.3</ele>
        <time>2018-06-11T08:48:47Z</time>
      </trkpt>
      <trkpt lat="42.289839" lon="2.042440">
        <ele>1700.4</ele>
        <time>2018-06-11T08:48:48Z</time>
      </trkpt>
      <trkpt lat="42.289664" lon="2.042252">
        <ele>1696.7</ele>
        <time>2018-06-11T08:48:54Z</time>
      </trkpt>
      <trkpt lat="42.289515" lon="2.042096">
        <ele>1695.2</ele>
        <time>2018-06-11T08:48:59Z</time>
      </trkpt>
      <trkpt lat="42.289526" lon="2.041859">
        <ele>1697.2</ele>
        <time>2018-06-11T08:49:04Z</time>
      </trkpt>
      <trkpt lat="42.289513" lon="2.041780">
        <ele>1698.0</ele>
        <time>2018-06-11T08:49:06Z</time>
      </trkpt>
      <trkpt lat="42.289472" lon="2.041732">
        <ele>1698.7</ele>
        <time>2018-06-11T08:49:07Z</time>
      </trkpt>
      <trkpt lat="42.289257" lon="2.041741">
        <ele>1696.7</ele>
        <time>2018-06-11T08:49:13Z</time>
      </trkpt>
      <trkpt lat="42.289156" lon="2.041678">
        <ele>1696.9</ele>
        <time>2018-06-11T08:49:16Z</time>
      </trkpt>
      <trkpt lat="42.288712" lon="2.041495">
        <ele>1691.9</ele>
        <time>2018-06-11T08:49:28Z</time>
      </trkpt>
      <trkpt lat="42.288645" lon="2.041463">
        <ele>1691.4</ele>
        <time>2018-06-11T08:49:30Z</time>
      </trkpt>
      <trkpt lat="42.288403" lon="2.041576">
        <ele>1685.5</ele>
        <time>2018-06-11T08:49:37Z</time>
      </trkpt>
      <trkpt lat="42.288276" lon="2.041549">
        <ele>1683.9</ele>
        <time>2018-06-11T08:49:40Z</time>
      </trkpt>
      <trkpt lat="42.288192" lon="2.041489">
        <ele>1683.8</ele>
        <time>2018-06-11T08:49:43Z</time>
      </trkpt>
      <trkpt lat="42.287966" lon="2.041137">
        <ele>1686.6</ele>
        <time>2018-06-11T08:49:52Z</time>
      </trkpt>
      <trkpt lat="42.287711" lon="2.040572">
        <ele>1681.6</ele>
        <time>2018-06-11T08:50:05Z</time>
      </trkpt>
      <trkpt lat="42.287621" lon="2.040223">
        <ele>1680.9</ele>
        <time>2018-06-11T08:50:12Z</time>
      </trkpt>
      <trkpt lat="42.287321" lon="2.039257">
        <ele>1670.7</ele>
        <time>2018-06-11T08:50:33Z</time>
      </trkpt>
      <trkpt lat="42.287159" lon="2.038130">
        <ele>1666.4</ele>
        <time>2018-06-11T08:50:55Z</time>
      </trkpt>
      <trkpt lat="42.287127" lon="2.037531">
        <ele>1666.1</ele>
        <time>2018-06-11T08:51:07Z</time>
      </trkpt>
      <trkpt lat="42.287161" lon="2.037145">
        <ele>1663.8</ele>
        <time>2018-06-11T08:51:15Z</time>
      </trkpt>
      <trkpt lat="42.287136" lon="2.037022">
        <ele>1660.9</ele>
        <time>2018-06-11T08:51:17Z</time>
      </trkpt>
      <trkpt lat="42.287097" lon="2.036957">
        <ele>1658.2</ele>
        <time>2018-06-11T08:51:19Z</time>
      </trkpt>
      <trkpt lat="42.287030" lon="2.036914">
        <ele>1655.5</ele>
        <time>2018-06-11T08:51:21Z</time>
      </trkpt>
      <trkpt lat="42.287038" lon="2.036828">
        <ele>1652.9</ele>
        <time>2018-06-11T08:51:23Z</time>
      </trkpt>
      <trkpt lat="42.287052" lon="2.036708">
        <ele>1648.2</ele>
        <time>2018-06-11T08:51:26Z</time>
      </trkpt>
      <trkpt lat="42.287145" lon="2.036619">
        <ele>1646.6</ele>
        <time>2018-06-11T08:51:29Z</time>
      </trkpt>
      <trkpt lat="42.287316" lon="2.036496">
        <ele>1646.3</ele>
        <time>2018-06-11T08:51:34Z</time>
      </trkpt>
      <trkpt lat="42.287677" lon="2.036273">
        <ele>1647.5</ele>
        <time>2018-06-11T08:51:44Z</time>
      </trkpt>
      <trkpt lat="42.288057" lon="2.036164">
        <ele>1657.1</ele>
        <time>2018-06-11T08:51:55Z</time>
      </trkpt>
      <trkpt lat="42.288498" lon="2.036173">
        <ele>1671.4</ele>
        <time>2018-06-11T08:52:07Z</time>
      </trkpt>
      <trkpt lat="42.288693" lon="2.036201">
        <ele>1674.4</ele>
        <time>2018-06-11T08:52:12Z</time>
      </trkpt>
      <trkpt lat="42.288929" lon="2.036295">
        <ele>1673.8</ele>
        <time>2018-06-11T08:52:19Z</time>
      </trkpt>
      <trkpt lat="42.289118" lon="2.036421">
        <ele>1672.9</ele>
        <time>2018-06-11T08:52:24Z</time>
      </trkpt>
      <trkpt lat="42.289294" lon="2.036614">
        <ele>1673.3</ele>
        <time>2018-06-11T08:52:30Z</time>
      </trkpt>
      <trkpt lat="42.289589" lon="2.036962">
        <ele>1678.0</ele>
        <time>2018-06-11T08:52:41Z</time>
      </trkpt>
      <trkpt lat="42.290163" lon="2.037597">
        <ele>1695.7</ele>
        <time>2018-06-11T08:53:01Z</time>
      </trkpt>
      <trkpt lat="42.290345" lon="2.037782">
        <ele>1698.3</ele>
        <time>2018-06-11T08:53:07Z</time>
      </trkpt>
      <trkpt lat="42.290411" lon="2.037789">
        <ele>1698.7</ele>
        <time>2018-06-11T08:53:09Z</time>
      </trkpt>
      <trkpt lat="42.290495" lon="2.037764">
        <ele>1699.8</ele>
        <time>2018-06-11T08:53:11Z</time>
      </trkpt>
      <trkpt lat="42.290558" lon="2.037532">
        <ele>1696.8</ele>
        <time>2018-06-11T08:53:16Z</time>
      </trkpt>
      <trkpt lat="42.290582" lon="2.037113">
        <ele>1693.0</ele>
        <time>2018-06-11T08:53:24Z</time>
      </trkpt>
      <trkpt lat="42.290803" lon="2.036225">
        <ele>1694.4</ele>
        <time>2018-06-11T08:53:42Z</time>
      </trkpt>
      <trkpt lat="42.291861" lon="2.035078">
        <ele>1701.0</ele>
        <time>2018-06-11T08:54:18Z</time>
      </trkpt>
      <trkpt lat="42.292329" lon="2.034617">
        <ele>1709.1</ele>
        <time>2018-06-11T08:54:34Z</time>
      </trkpt>
      <trkpt lat="42.292475" lon="2.034522">
        <ele>1708.7</ele>
        <time>2018-06-11T08:54:38Z</time>
      </trkpt>
      <trkpt lat="42.292554" lon="2.034490">
        <ele>1708.5</ele>
        <time>2018-06-11T08:54:40Z</time>
      </trkpt>
      <trkpt lat="42.292688" lon="2.034479">
        <ele>1709.9</ele>
        <time>2018-06-11T08:54:44Z</time>
      </trkpt>
      <trkpt lat="42.293058" lon="2.034495">
        <ele>1715.3</ele>
        <time>2018-06-11T08:54:54Z</time>
      </trkpt>
      <trkpt lat="42.293228" lon="2.034441">
        <ele>1714.3</ele>
        <time>2018-06-11T08:54:58Z</time>
      </trkpt>
      <trkpt lat="42.293583" lon="2.034137">
        <ele>1717.7</ele>
        <time>2018-06-11T08:55:10Z</time>
      </trkpt>
      <trkpt lat="42.293906" lon="2.033908">
        <ele>1727.1</ele>
        <time>2018-06-11T08:55:19Z</time>
      </trkpt>
      <trkpt lat="42.294118" lon="2.033857">
        <ele>1732.4</ele>
        <time>2018-06-11T08:55:25Z</time>
      </trkpt>
      <trkpt lat="42.294301" lon="2.033834">
        <ele>1735.1</ele>
        <time>2018-06-11T08:55:30Z</time>
      </trkpt>
      <trkpt lat="42.294553" lon="2.033881">
        <ele>1734.1</ele>
        <time>2018-06-11T08:55:37Z</time>
      </trkpt>
      <trkpt lat="42.295168" lon="2.034141">
        <ele>1736.4</ele>
        <time>2018-06-11T08:55:54Z</time>
      </trkpt>
      <trkpt lat="42.296205" lon="2.034806">
        <ele>1738.3</ele>
        <time>2018-06-11T08:56:24Z</time>
      </trkpt>
      <trkpt lat="42.296348" lon="2.034962">
        <ele>1736.7</ele>
        <time>2018-06-11T08:56:29Z</time>
      </trkpt>
      <trkpt lat="42.296475" lon="2.035182">
        <ele>1740.3</ele>
        <time>2018-06-11T08:56:35Z</time>
      </trkpt>
      <trkpt lat="42.296531" lon="2.035330">
        <ele>1743.1</ele>
        <time>2018-06-11T08:56:38Z</time>
      </trkpt>
      <trkpt lat="42.296634" lon="2.035605">
        <ele>1745.6</ele>
        <time>2018-06-11T08:56:44Z</time>
      </trkpt>
      <trkpt lat="42.296671" lon="2.035826">
        <ele>1748.6</ele>
        <time>2018-06-11T08:56:49Z</time>
      </trkpt>
      <trkpt lat="42.296676" lon="2.036334">
        <ele>1759.3</ele>
        <time>2018-06-11T08:56:59Z</time>
      </trkpt>
      <trkpt lat="42.296603" lon="2.036854">
        <ele>1773.4</ele>
        <time>2018-06-11T08:57:10Z</time>
      </trkpt>
      <trkpt lat="42.296579" lon="2.037346">
        <ele>1781.9</ele>
        <time>2018-06-11T08:57:20Z</time>
      </trkpt>
      <trkpt lat="42.296612" lon="2.037882">
        <ele>1780.4</ele>
        <time>2018-06-11T08:57:30Z</time>
      </trkpt>
      <trkpt lat="42.296863" lon="2.038748">
        <ele>1775.5</ele>
        <time>2018-06-11T08:57:49Z</time>
      </trkpt>
      <trkpt lat="42.296911" lon="2.039138">
        <ele>1785.1</ele>
        <time>2018-06-11T08:57:57Z</time>
      </trkpt>
      <trkpt lat="42.297031" lon="2.039675">
        <ele>1793.0</ele>
        <time>2018-06-11T08:58:08Z</time>
      </trkpt>
      <trkpt lat="42.297151" lon="2.039904">
        <ele>1795.2</ele>
        <time>2018-06-11T08:58:13Z</time>
      </trkpt>
      <trkpt lat="42.297397" lon="2.040540">
        <ele>1801.4</ele>
        <time>2018-06-11T08:58:27Z</time>
      </trkpt>
      <trkpt lat="42.297432" lon="2.040626">
        <ele>1803.0</ele>
        <time>2018-06-11T08:58:29Z</time>
      </trkpt>
      <trkpt lat="42.297501" lon="2.040687">
        <ele>1803.9</ele>
        <time>2018-06-11T08:58:32Z</time>
      </trkpt>
      <trkpt lat="42.297559" lon="2.040669">
        <ele>1803.7</ele>
        <time>2018-06-11T08:58:33Z</time>
      </trkpt>
      <trkpt lat="42.297614" lon="2.040619">
        <ele>1803.4</ele>
        <time>2018-06-11T08:58:35Z</time>
      </trkpt>
      <trkpt lat="42.297631" lon="2.040578">
        <ele>1803.1</ele>
        <time>2018-06-11T08:58:36Z</time>
      </trkpt>
      <trkpt lat="42.297642" lon="2.040536">
        <ele>1802.9</ele>
        <time>2018-06-11T08:58:37Z</time>
      </trkpt>
      <trkpt lat="42.297646" lon="2.040483">
        <ele>1802.5</ele>
        <time>2018-06-11T08:58:38Z</time>
      </trkpt>
      <trkpt lat="42.297638" lon="2.040395">
        <ele>1801.7</ele>
        <time>2018-06-11T08:58:39Z</time>
      </trkpt>
      <trkpt lat="42.297630" lon="2.040206">
        <ele>1799.7</ele>
        <time>2018-06-11T08:58:43Z</time>
      </trkpt>
      <trkpt lat="42.297649" lon="2.040096">
        <ele>1799.0</ele>
        <time>2018-06-11T08:58:45Z</time>
      </trkpt>
      <trkpt lat="42.297680" lon="2.039761">
        <ele>1799.1</ele>
        <time>2018-06-11T08:58:52Z</time>
      </trkpt>
      <trkpt lat="42.297678" lon="2.039301">
        <ele>1799.1</ele>
        <time>2018-06-11T08:59:01Z</time>
      </trkpt>
      <trkpt lat="42.297740" lon="2.038573">
        <ele>1788.9</ele>
        <time>2018-06-11T08:59:16Z</time>
      </trkpt>
      <trkpt lat="42.297746" lon="2.038404">
        <ele>1785.7</ele>
        <time>2018-06-11T08:59:19Z</time>
      </trkpt>
      <trkpt lat="42.297771" lon="2.038217">
        <ele>1783.6</ele>
        <time>2018-06-11T08:59:23Z</time>
      </trkpt>
      <trkpt lat="42.297829" lon="2.038071">
        <ele>1783.1</ele>
        <time>2018-06-11T08:59:26Z</time>
      </trkpt>
      <trkpt lat="42.297950" lon="2.037883">
        <ele>1783.0</ele>
        <time>2018-06-11T08:59:31Z</time>
      </trkpt>
      <trkpt lat="42.298109" lon="2.037766">
        <ele>1783.7</ele>
        <time>2018-06-11T08:59:36Z</time>
      </trkpt>
      <trkpt lat="42.298221" lon="2.037703">
        <ele>1784.8</ele>
        <time>2018-06-11T08:59:39Z</time>
      </trkpt>
      <trkpt lat="42.298451" lon="2.037678">
        <ele>1789.6</ele>
        <time>2018-06-11T08:59:45Z</time>
      </trkpt>
      <trkpt lat="42.298545" lon="2.037654">
        <ele>1793.0</ele>
        <time>2018-06-11T08:59:48Z</time>
      </trkpt>
      <trkpt lat="42.298614" lon="2.037593">
        <ele>1795.3</ele>
        <time>2018-06-11T08:59:50Z</time>
      </trkpt>
      <trkpt lat="42.298630" lon="2.037529">
        <ele>1795.1</ele>
        <time>2018-06-11T08:59:51Z</time>
      </trkpt>
      <trkpt lat="42.298650" lon="2.037402">
        <ele>1794.2</ele>
        <time>2018-06-11T08:59:54Z</time>
      </trkpt>
      <trkpt lat="42.298685" lon="2.037103">
        <ele>1792.8</ele>
        <time>2018-06-11T09:00:00Z</time>
      </trkpt>
      <trkpt lat="42.298699" lon="2.036815">
        <ele>1789.0</ele>
        <time>2018-06-11T09:00:06Z</time>
      </trkpt>
      <trkpt lat="42.298687" lon="2.036310">
        <ele>1778.5</ele>
        <time>2018-06-11T09:00:16Z</time>
      </trkpt>
      <trkpt lat="42.298689" lon="2.036216">
        <ele>1777.3</ele>
        <time>2018-06-11T09:00:18Z</time>
      </trkpt>
      <trkpt lat="42.298714" lon="2.036123">
        <ele>1778.5</ele>
        <time>2018-06-11T09:00:20Z</time>
      </trkpt>
      <trkpt lat="42.298756" lon="2.036049">
        <ele>1780.7</ele>
        <time>2018-06-11T09:00:21Z</time>
      </trkpt>
      <trkpt lat="42.298831" lon="2.035998">
        <ele>1783.0</ele>
        <time>2018-06-11T09:00:24Z</time>
      </trkpt>
      <trkpt lat="42.299194" lon="2.035850">
        <ele>1790.3</ele>
        <time>2018-06-11T09:00:34Z</time>
      </trkpt>
      <trkpt lat="42.299311" lon="2.035779">
        <ele>1792.8</ele>
        <time>2018-06-11T09:00:37Z</time>
      </trkpt>
      <trkpt lat="42.299388" lon="2.035689">
        <ele>1794.3</ele>
        <time>2018-06-11T09:00:40Z</time>
      </trkpt>
      <trkpt lat="42.299440" lon="2.035596">
        <ele>1796.0</ele>
        <time>2018-06-11T09:00:42Z</time>
      </trkpt>
      <trkpt lat="42.299453" lon="2.035526">
        <ele>1796.9</ele>
        <time>2018-06-11T09:00:44Z</time>
      </trkpt>
      <trkpt lat="42.299448" lon="2.035460">
        <ele>1797.6</ele>
        <time>2018-06-11T09:00:45Z</time>
      </trkpt>
      <trkpt lat="42.299401" lon="2.035393">
        <ele>1797.6</ele>
        <time>2018-06-11T09:00:47Z</time>
      </trkpt>
      <trkpt lat="42.299334" lon="2.035345">
        <ele>1796.8</ele>
        <time>2018-06-11T09:00:49Z</time>
      </trkpt>
      <trkpt lat="42.299260" lon="2.035297">
        <ele>1794.8</ele>
        <time>2018-06-11T09:00:51Z</time>
      </trkpt>
      <trkpt lat="42.299189" lon="2.035222">
        <ele>1792.7</ele>
        <time>2018-06-11T09:00:54Z</time>
      </trkpt>
      <trkpt lat="42.299151" lon="2.035121">
        <ele>1792.1</ele>
        <time>2018-06-11T09:00:56Z</time>
      </trkpt>
      <trkpt lat="42.299091" lon="2.034932">
        <ele>1791.0</ele>
        <time>2018-06-11T09:01:00Z</time>
      </trkpt>
      <trkpt lat="42.299070" lon="2.034599">
        <ele>1792.2</ele>
        <time>2018-06-11T09:01:06Z</time>
      </trkpt>
      <trkpt lat="42.299088" lon="2.034450">
        <ele>1792.4</ele>
        <time>2018-06-11T09:01:09Z</time>
      </trkpt>
      <trkpt lat="42.299114" lon="2.034353">
        <ele>1792.6</ele>
        <time>2018-06-11T09:01:11Z</time>
      </trkpt>
      <trkpt lat="42.299187" lon="2.034179">
        <ele>1792.2</ele>
        <time>2018-06-11T09:01:15Z</time>
      </trkpt>
      <trkpt lat="42.299310" lon="2.034051">
        <ele>1791.3</ele>
        <time>2018-06-11T09:01:20Z</time>
      </trkpt>
      <trkpt lat="42.299447" lon="2.033958">
        <ele>1789.4</ele>
        <time>2018-06-11T09:01:24Z</time>
      </trkpt>
      <trkpt lat="42.299644" lon="2.033887">
        <ele>1787.2</ele>
        <time>2018-06-11T09:01:29Z</time>
      </trkpt>
      <trkpt lat="42.299757" lon="2.033850">
        <ele>1785.6</ele>
        <time>2018-06-11T09:01:32Z</time>
      </trkpt>
      <trkpt lat="42.299839" lon="2.033833">
        <ele>1784.7</ele>
        <time>2018-06-11T09:01:34Z</time>
      </trkpt>
      <trkpt lat="42.300056" lon="2.033785">
        <ele>1785.6</ele>
        <time>2018-06-11T09:01:40Z</time>
      </trkpt>
      <trkpt lat="42.300320" lon="2.033748">
        <ele>1789.2</ele>
        <time>2018-06-11T09:01:47Z</time>
      </trkpt>
      <trkpt lat="42.300613" lon="2.033732">
        <ele>1792.8</ele>
        <time>2018-06-11T09:01:55Z</time>
      </trkpt>
      <trkpt lat="42.300977" lon="2.033695">
        <ele>1793.2</ele>
        <time>2018-06-11T09:02:05Z</time>
      </trkpt>
      <trkpt lat="42.301128" lon="2.033685">
        <ele>1792.8</ele>
        <time>2018-06-11T09:02:09Z</time>
      </trkpt>
      <trkpt lat="42.301312" lon="2.033704">
        <ele>1793.2</ele>
        <time>2018-06-11T09:02:14Z</time>
      </trkpt>
      <trkpt lat="42.301485" lon="2.033728">
        <ele>1793.8</ele>
        <time>2018-06-11T09:02:18Z</time>
      </trkpt>
      <trkpt lat="42.301649" lon="2.033757">
        <ele>1796.3</ele>
        <time>2018-06-11T09:02:23Z</time>
      </trkpt>
      <trkpt lat="42.301807" lon="2.033787">
        <ele>1799.2</ele>
        <time>2018-06-11T09:02:27Z</time>
      </trkpt>
      <trkpt lat="42.302031" lon="2.033871">
        <ele>1805.5</ele>
        <time>2018-06-11T09:02:33Z</time>
      </trkpt>
      <trkpt lat="42.302138" lon="2.033924">
        <ele>1808.6</ele>
        <time>2018-06-11T09:02:36Z</time>
      </trkpt>
      <trkpt lat="42.302230" lon="2.033958">
        <ele>1811.3</ele>
        <time>2018-06-11T09:02:39Z</time>
      </trkpt>
      <trkpt lat="42.302273" lon="2.033977">
        <ele>1812.7</ele>
        <time>2018-06-11T09:02:40Z</time>
      </trkpt>
      <trkpt lat="42.302309" lon="2.033996">
        <ele>1814.0</ele>
        <time>2018-06-11T09:02:41Z</time>
      </trkpt>
      <trkpt lat="42.302356" lon="2.033987">
        <ele>1815.1</ele>
        <time>2018-06-11T09:02:43Z</time>
      </trkpt>
      <trkpt lat="42.302387" lon="2.033938">
        <ele>1815.4</ele>
        <time>2018-06-11T09:02:44Z</time>
      </trkpt>
      <trkpt lat="42.302395" lon="2.033858">
        <ele>1814.3</ele>
        <time>2018-06-11T09:02:45Z</time>
      </trkpt>
      <trkpt lat="42.302398" lon="2.033624">
        <ele>1811.3</ele>
        <time>2018-06-11T09:02:50Z</time>
      </trkpt>
      <trkpt lat="42.302387" lon="2.033003">
        <ele>1805.4</ele>
        <time>2018-06-11T09:03:02Z</time>
      </trkpt>
      <trkpt lat="42.302358" lon="2.032488">
        <ele>1799.5</ele>
        <time>2018-06-11T09:03:12Z</time>
      </trkpt>
      <trkpt lat="42.302372" lon="2.032280">
        <ele>1802.2</ele>
        <time>2018-06-11T09:03:17Z</time>
      </trkpt>
      <trkpt lat="42.302447" lon="2.031995">
        <ele>1809.5</ele>
        <time>2018-06-11T09:03:23Z</time>
      </trkpt>
      <trkpt lat="42.302522" lon="2.031811">
        <ele>1814.0</ele>
        <time>2018-06-11T09:03:27Z</time>
      </trkpt>
      <trkpt lat="42.302572" lon="2.031665">
        <ele>1816.6</ele>
        <time>2018-06-11T09:03:30Z</time>
      </trkpt>
      <trkpt lat="42.302593" lon="2.031569">
        <ele>1817.8</ele>
        <time>2018-06-11T09:03:32Z</time>
      </trkpt>
      <trkpt lat="42.302586" lon="2.031466">
        <ele>1819.1</ele>
        <time>2018-06-11T09:03:34Z</time>
      </trkpt>
      <trkpt lat="42.302535" lon="2.031372">
        <ele>1819.7</ele>
        <time>2018-06-11T09:03:37Z</time>
      </trkpt>
      <trkpt lat="42.302402" lon="2.031222">
        <ele>1819.2</ele>
        <time>2018-06-11T09:03:41Z</time>
      </trkpt>
      <trkpt lat="42.302268" lon="2.031030">
        <ele>1817.2</ele>
        <time>2018-06-11T09:03:46Z</time>
      </trkpt>
      <trkpt lat="42.302185" lon="2.030872">
        <ele>1817.2</ele>
        <time>2018-06-11T09:03:50Z</time>
      </trkpt>
      <trkpt lat="42.302118" lon="2.030731">
        <ele>1818.7</ele>
        <time>2018-06-11T09:03:53Z</time>
      </trkpt>
      <trkpt lat="42.302086" lon="2.030557">
        <ele>1823.0</ele>
        <time>2018-06-11T09:03:57Z</time>
      </trkpt>
      <trkpt lat="42.302093" lon="2.030280">
        <ele>1831.5</ele>
        <time>2018-06-11T09:04:03Z</time>
      </trkpt>
      <trkpt lat="42.302136" lon="2.030075">
        <ele>1837.0</ele>
        <time>2018-06-11T09:04:07Z</time>
      </trkpt>
      <trkpt lat="42.302139" lon="2.029965">
        <ele>1838.0</ele>
        <time>2018-06-11T09:04:09Z</time>
      </trkpt>
      <trkpt lat="42.302114" lon="2.029880">
        <ele>1838.0</ele>
        <time>2018-06-11T09:04:11Z</time>
      </trkpt>
      <trkpt lat="42.302062" lon="2.029837">
        <ele>1836.1</ele>
        <time>2018-06-11T09:04:13Z</time>
      </trkpt>
      <trkpt lat="42.301953" lon="2.029819">
        <ele>1830.2</ele>
        <time>2018-06-11T09:04:16Z</time>
      </trkpt>
      <trkpt lat="42.301761" lon="2.029805">
        <ele>1822.2</ele>
        <time>2018-06-11T09:04:22Z</time>
      </trkpt>
      <trkpt lat="42.301643" lon="2.029753">
        <ele>1822.8</ele>
        <time>2018-06-11T09:04:25Z</time>
      </trkpt>
      <trkpt lat="42.301262" lon="2.029636">
        <ele>1825.5</ele>
        <time>2018-06-11T09:04:35Z</time>
      </trkpt>
      <trkpt lat="42.301089" lon="2.029543">
        <ele>1824.2</ele>
        <time>2018-06-11T09:04:40Z</time>
      </trkpt>
      <trkpt lat="42.300860" lon="2.029342">
        <ele>1823.6</ele>
        <time>2018-06-11T09:04:47Z</time>
      </trkpt>
      <trkpt lat="42.300568" lon="2.029212">
        <ele>1820.8</ele>
        <time>2018-06-11T09:04:56Z</time>
      </trkpt>
      <trkpt lat="42.300255" lon="2.029115">
        <ele>1821.2</ele>
        <time>2018-06-11T09:05:04Z</time>
      </trkpt>
      <trkpt lat="42.299901" lon="2.029013">
        <ele>1822.9</ele>
        <time>2018-06-11T09:05:14Z</time>
      </trkpt>
      <trkpt lat="42.299704" lon="2.028946">
        <ele>1818.2</ele>
        <time>2018-06-11T09:05:19Z</time>
      </trkpt>
      <trkpt lat="42.299556" lon="2.028846">
        <ele>1814.4</ele>
        <time>2018-06-11T09:05:24Z</time>
      </trkpt>
      <trkpt lat="42.299398" lon="2.028699">
        <ele>1813.1</ele>
        <time>2018-06-11T09:05:29Z</time>
      </trkpt>
      <trkpt lat="42.299339" lon="2.028582">
        <ele>1814.3</ele>
        <time>2018-06-11T09:05:32Z</time>
      </trkpt>
      <trkpt lat="42.299299" lon="2.028476">
        <ele>1815.7</ele>
        <time>2018-06-11T09:05:34Z</time>
      </trkpt>
      <trkpt lat="42.299219" lon="2.028357">
        <ele>1815.9</ele>
        <time>2018-06-11T09:05:37Z</time>
      </trkpt>
      <trkpt lat="42.299144" lon="2.028337">
        <ele>1814.2</ele>
        <time>2018-06-11T09:05:39Z</time>
      </trkpt>
      <trkpt lat="42.299016" lon="2.028346">
        <ele>1810.2</ele>
        <time>2018-06-11T09:05:43Z</time>
      </trkpt>
      <trkpt lat="42.298911" lon="2.028313">
        <ele>1808.9</ele>
        <time>2018-06-11T09:05:45Z</time>
      </trkpt>
      <trkpt lat="42.298786" lon="2.028278">
        <ele>1807.2</ele>
        <time>2018-06-11T09:05:49Z</time>
      </trkpt>
      <trkpt lat="42.298424" lon="2.028273">
        <ele>1804.1</ele>
        <time>2018-06-11T09:05:58Z</time>
      </trkpt>
      <trkpt lat="42.298213" lon="2.028288">
        <ele>1803.3</ele>
        <time>2018-06-11T09:06:04Z</time>
      </trkpt>
      <trkpt lat="42.298050" lon="2.028273">
        <ele>1802.7</ele>
        <time>2018-06-11T09:06:08Z</time>
      </trkpt>
      <trkpt lat="42.297930" lon="2.028224">
        <ele>1803.3</ele>
        <time>2018-06-11T09:06:12Z</time>
      </trkpt>
      <trkpt lat="42.297839" lon="2.028170">
        <ele>1802.0</ele>
        <time>2018-06-11T09:06:14Z</time>
      </trkpt>
      <trkpt lat="42.297722" lon="2.028085">
        <ele>1799.5</ele>
        <time>2018-06-11T09:06:18Z</time>
      </trkpt>
      <trkpt lat="42.297646" lon="2.027924">
        <ele>1799.2</ele>
        <time>2018-06-11T09:06:22Z</time>
      </trkpt>
      <trkpt lat="42.297607" lon="2.027819">
        <ele>1800.2</ele>
        <time>2018-06-11T09:06:24Z</time>
      </trkpt>
      <trkpt lat="42.297571" lon="2.027775">
        <ele>1800.3</ele>
        <time>2018-06-11T09:06:25Z</time>
      </trkpt>
      <trkpt lat="42.297512" lon="2.027758">
        <ele>1799.1</ele>
        <time>2018-06-11T09:06:27Z</time>
      </trkpt>
      <trkpt lat="42.297382" lon="2.027794">
        <ele>1794.6</ele>
        <time>2018-06-11T09:06:31Z</time>
      </trkpt>
      <trkpt lat="42.297261" lon="2.027813">
        <ele>1794.0</ele>
        <time>2018-06-11T09:06:34Z</time>
      </trkpt>
      <trkpt lat="42.297058" lon="2.027823">
        <ele>1793.9</ele>
        <time>2018-06-11T09:06:39Z</time>
      </trkpt>
      <trkpt lat="42.296585" lon="2.027689">
        <ele>1784.9</ele>
        <time>2018-06-11T09:06:52Z</time>
      </trkpt>
      <trkpt lat="42.296441" lon="2.027649">
        <ele>1782.9</ele>
        <time>2018-06-11T09:06:56Z</time>
      </trkpt>
      <trkpt lat="42.296308" lon="2.027572">
        <ele>1781.0</ele>
        <time>2018-06-11T09:07:00Z</time>
      </trkpt>
      <trkpt lat="42.296202" lon="2.027506">
        <ele>1779.0</ele>
        <time>2018-06-11T09:07:03Z</time>
      </trkpt>
      <trkpt lat="42.296111" lon="2.027408">
        <ele>1777.4</ele>
        <time>2018-06-11T09:07:06Z</time>
      </trkpt>
      <trkpt lat="42.296083" lon="2.027318">
        <ele>1777.5</ele>
        <time>2018-06-11T09:07:08Z</time>
      </trkpt>
      <trkpt lat="42.296079" lon="2.027214">
        <ele>1778.2</ele>
        <time>2018-06-11T09:07:10Z</time>
      </trkpt>
      <trkpt lat="42.296078" lon="2.026951">
        <ele>1779.7</ele>
        <time>2018-06-11T09:07:15Z</time>
      </trkpt>
      <trkpt lat="42.296089" lon="2.026626">
        <ele>1781.7</ele>
        <time>2018-06-11T09:07:22Z</time>
      </trkpt>
      <trkpt lat="42.296112" lon="2.026307">
        <ele>1783.0</ele>
        <time>2018-06-11T09:07:28Z</time>
      </trkpt>
      <trkpt lat="42.296180" lon="2.026023">
        <ele>1782.7</ele>
        <time>2018-06-11T09:07:34Z</time>
      </trkpt>
      <trkpt lat="42.296258" lon="2.025785">
        <ele>1782.2</ele>
        <time>2018-06-11T09:07:39Z</time>
      </trkpt>
      <trkpt lat="42.296322" lon="2.025628">
        <ele>1783.3</ele>
        <time>2018-06-11T09:07:42Z</time>
      </trkpt>
      <trkpt lat="42.296444" lon="2.025380">
        <ele>1787.4</ele>
        <time>2018-06-11T09:07:48Z</time>
      </trkpt>
      <trkpt lat="42.296539" lon="2.025120">
        <ele>1791.4</ele>
        <time>2018-06-11T09:07:54Z</time>
      </trkpt>
      <trkpt lat="42.296627" lon="2.024842">
        <ele>1794.3</ele>
        <time>2018-06-11T09:08:00Z</time>
      </trkpt>
      <trkpt lat="42.296749" lon="2.024635">
        <ele>1795.7</ele>
        <time>2018-06-11T09:08:05Z</time>
      </trkpt>
      <trkpt lat="42.296772" lon="2.024570">
        <ele>1795.5</ele>
        <time>2018-06-11T09:08:07Z</time>
      </trkpt>
      <trkpt lat="42.296803" lon="2.024520">
        <ele>1795.8</ele>
        <time>2018-06-11T09:08:08Z</time>
      </trkpt>
      <trkpt lat="42.296871" lon="2.024413">
        <ele>1796.4</ele>
        <time>2018-06-11T09:08:11Z</time>
      </trkpt>
      <trkpt lat="42.296959" lon="2.024196">
        <ele>1794.8</ele>
        <time>2018-06-11T09:08:16Z</time>
      </trkpt>
      <trkpt lat="42.297070" lon="2.023989">
        <ele>1795.1</ele>
        <time>2018-06-11T09:08:21Z</time>
      </trkpt>
      <trkpt lat="42.297192" lon="2.023741">
        <ele>1798.4</ele>
        <time>2018-06-11T09:08:26Z</time>
      </trkpt>
      <trkpt lat="42.297306" lon="2.023487">
        <ele>1804.7</ele>
        <time>2018-06-11T09:08:32Z</time>
      </trkpt>
      <trkpt lat="42.297370" lon="2.023360">
        <ele>1809.7</ele>
        <time>2018-06-11T09:08:36Z</time>
      </trkpt>
      <trkpt lat="42.297419" lon="2.023272">
        <ele>1812.8</ele>
        <time>2018-06-11T09:08:38Z</time>
      </trkpt>
      <trkpt lat="42.297457" lon="2.023194">
        <ele>1814.7</ele>
        <time>2018-06-11T09:08:40Z</time>
      </trkpt>
      <trkpt lat="42.297480" lon="2.023082">
        <ele>1815.6</ele>
        <time>2018-06-11T09:08:42Z</time>
      </trkpt>
      <trkpt lat="42.297465" lon="2.022976">
        <ele>1815.7</ele>
        <time>2018-06-11T09:08:44Z</time>
      </trkpt>
      <trkpt lat="42.297403" lon="2.022861">
        <ele>1814.5</ele>
        <time>2018-06-11T09:08:47Z</time>
      </trkpt>
      <trkpt lat="42.297348" lon="2.022778">
        <ele>1812.3</ele>
        <time>2018-06-11T09:08:49Z</time>
      </trkpt>
      <trkpt lat="42.297321" lon="2.022741">
        <ele>1810.7</ele>
        <time>2018-06-11T09:08:50Z</time>
      </trkpt>
      <trkpt lat="42.297281" lon="2.022641">
        <ele>1808.5</ele>
        <time>2018-06-11T09:08:53Z</time>
      </trkpt>
      <trkpt lat="42.297276" lon="2.022541">
        <ele>1810.5</ele>
        <time>2018-06-11T09:08:55Z</time>
      </trkpt>
      <trkpt lat="42.297276" lon="2.022476">
        <ele>1811.9</ele>
        <time>2018-06-11T09:08:56Z</time>
      </trkpt>
      <trkpt lat="42.297326" lon="2.022243">
        <ele>1820.7</ele>
        <time>2018-06-11T09:09:01Z</time>
      </trkpt>
      <trkpt lat="42.297391" lon="2.022033">
        <ele>1826.7</ele>
        <time>2018-06-11T09:09:06Z</time>
      </trkpt>
      <trkpt lat="42.297400" lon="2.021921">
        <ele>1826.4</ele>
        <time>2018-06-11T09:09:08Z</time>
      </trkpt>
      <trkpt lat="42.297382" lon="2.021768">
        <ele>1826.2</ele>
        <time>2018-06-11T09:09:11Z</time>
      </trkpt>
      <trkpt lat="42.297340" lon="2.021662">
        <ele>1826.3</ele>
        <time>2018-06-11T09:09:13Z</time>
      </trkpt>
      <trkpt lat="42.297260" lon="2.021552">
        <ele>1825.2</ele>
        <time>2018-06-11T09:09:17Z</time>
      </trkpt>
      <trkpt lat="42.297215" lon="2.021499">
        <ele>1824.4</ele>
        <time>2018-06-11T09:09:18Z</time>
      </trkpt>
      <trkpt lat="42.297096" lon="2.021387">
        <ele>1821.8</ele>
        <time>2018-06-11T09:09:22Z</time>
      </trkpt>
      <trkpt lat="42.297012" lon="2.021311">
        <ele>1820.5</ele>
        <time>2018-06-11T09:09:25Z</time>
      </trkpt>
      <trkpt lat="42.296953" lon="2.021208">
        <ele>1818.5</ele>
        <time>2018-06-11T09:09:27Z</time>
      </trkpt>
      <trkpt lat="42.296916" lon="2.021127">
        <ele>1815.7</ele>
        <time>2018-06-11T09:09:29Z</time>
      </trkpt>
      <trkpt lat="42.296913" lon="2.021018">
        <ele>1812.6</ele>
        <time>2018-06-11T09:09:32Z</time>
      </trkpt>
      <trkpt lat="42.296937" lon="2.020958">
        <ele>1811.2</ele>
        <time>2018-06-11T09:09:33Z</time>
      </trkpt>
      <trkpt lat="42.296998" lon="2.020894">
        <ele>1809.9</ele>
        <time>2018-06-11T09:09:35Z</time>
      </trkpt>
      <trkpt lat="42.297074" lon="2.020859">
        <ele>1810.3</ele>
        <time>2018-06-11T09:09:37Z</time>
      </trkpt>
      <trkpt lat="42.297214" lon="2.020840">
        <ele>1811.7</ele>
        <time>2018-06-11T09:09:41Z</time>
      </trkpt>
      <trkpt lat="42.297466" lon="2.020837">
        <ele>1812.3</ele>
        <time>2018-06-11T09:09:48Z</time>
      </trkpt>
      <trkpt lat="42.297652" lon="2.020873">
        <ele>1811.9</ele>
        <time>2018-06-11T09:09:52Z</time>
      </trkpt>
      <trkpt lat="42.297754" lon="2.020864">
        <ele>1812.6</ele>
        <time>2018-06-11T09:09:55Z</time>
      </trkpt>
      <trkpt lat="42.297890" lon="2.020803">
        <ele>1811.4</ele>
        <time>2018-06-11T09:09:59Z</time>
      </trkpt>
      <trkpt lat="42.298174" lon="2.020684">
        <ele>1806.8</ele>
        <time>2018-06-11T09:10:07Z</time>
      </trkpt>
      <trkpt lat="42.298508" lon="2.020627">
        <ele>1806.4</ele>
        <time>2018-06-11T09:10:16Z</time>
      </trkpt>
      <trkpt lat="42.298748" lon="2.020618">
        <ele>1805.0</ele>
        <time>2018-06-11T09:10:22Z</time>
      </trkpt>
      <trkpt lat="42.298837" lon="2.020629">
        <ele>1804.8</ele>
        <time>2018-06-11T09:10:25Z</time>
      </trkpt>
      <trkpt lat="42.298996" lon="2.020697">
        <ele>1806.4</ele>
        <time>2018-06-11T09:10:29Z</time>
      </trkpt>
      <trkpt lat="42.299356" lon="2.020807">
        <ele>1815.2</ele>
        <time>2018-06-11T09:10:39Z</time>
      </trkpt>
      <trkpt lat="42.299519" lon="2.020847">
        <ele>1816.8</ele>
        <time>2018-06-11T09:10:43Z</time>
      </trkpt>
      <trkpt lat="42.299747" lon="2.020819">
        <ele>1814.8</ele>
        <time>2018-06-11T09:10:50Z</time>
      </trkpt>
      <trkpt lat="42.300136" lon="2.020635">
        <ele>1813.1</ele>
        <time>2018-06-11T09:11:00Z</time>
      </trkpt>
      <trkpt lat="42.300485" lon="2.020473">
        <ele>1821.3</ele>
        <time>2018-06-11T09:11:10Z</time>
      </trkpt>
      <trkpt lat="42.300627" lon="2.020359">
        <ele>1826.4</ele>
        <time>2018-06-11T09:11:15Z</time>
      </trkpt>
      <trkpt lat="42.300680" lon="2.020241">
        <ele>1829.4</ele>
        <time>2018-06-11T09:11:18Z</time>
      </trkpt>
      <trkpt lat="42.300669" lon="2.020085">
        <ele>1830.8</ele>
        <time>2018-06-11T09:11:21Z</time>
      </trkpt>
      <trkpt lat="42.300620" lon="2.019980">
        <ele>1830.3</ele>
        <time>2018-06-11T09:11:23Z</time>
      </trkpt>
      <trkpt lat="42.300513" lon="2.019909">
        <ele>1827.6</ele>
        <time>2018-06-11T09:11:26Z</time>
      </trkpt>
      <trkpt lat="42.300339" lon="2.019791">
        <ele>1824.3</ele>
        <time>2018-06-11T09:11:32Z</time>
      </trkpt>
      <trkpt lat="42.300249" lon="2.019653">
        <ele>1823.5</ele>
        <time>2018-06-11T09:11:35Z</time>
      </trkpt>
      <trkpt lat="42.300226" lon="2.019469">
        <ele>1822.1</ele>
        <time>2018-06-11T09:11:39Z</time>
      </trkpt>
      <trkpt lat="42.300289" lon="2.019281">
        <ele>1820.2</ele>
        <time>2018-06-11T09:11:43Z</time>
      </trkpt>
      <trkpt lat="42.300529" lon="2.018996">
        <ele>1824.2</ele>
        <time>2018-06-11T09:11:52Z</time>
      </trkpt>
      <trkpt lat="42.300672" lon="2.018794">
        <ele>1831.3</ele>
        <time>2018-06-11T09:11:57Z</time>
      </trkpt>
      <trkpt lat="42.300735" lon="2.018687">
        <ele>1834.6</ele>
        <time>2018-06-11T09:12:00Z</time>
      </trkpt>
      <trkpt lat="42.300820" lon="2.018586">
        <ele>1839.6</ele>
        <time>2018-06-11T09:12:03Z</time>
      </trkpt>
      <trkpt lat="42.300877" lon="2.018416">
        <ele>1844.4</ele>
        <time>2018-06-11T09:12:07Z</time>
      </trkpt>
      <trkpt lat="42.300879" lon="2.018200">
        <ele>1846.3</ele>
        <time>2018-06-11T09:12:11Z</time>
      </trkpt>
      <trkpt lat="42.300820" lon="2.018084">
        <ele>1850.4</ele>
        <time>2018-06-11T09:12:14Z</time>
      </trkpt>
      <trkpt lat="42.300767" lon="2.018037">
        <ele>1852.9</ele>
        <time>2018-06-11T09:12:16Z</time>
      </trkpt>
      <trkpt lat="42.300701" lon="2.018000">
        <ele>1855.4</ele>
        <time>2018-06-11T09:12:18Z</time>
      </trkpt>
      <trkpt lat="42.300358" lon="2.017953">
        <ele>1851.7</ele>
        <time>2018-06-11T09:12:27Z</time>
      </trkpt>
      <trkpt lat="42.299939" lon="2.017943">
        <ele>1851.9</ele>
        <time>2018-06-11T09:12:38Z</time>
      </trkpt>
      <trkpt lat="42.299524" lon="2.017909">
        <ele>1851.3</ele>
        <time>2018-06-11T09:12:49Z</time>
      </trkpt>
      <trkpt lat="42.299381" lon="2.017844">
        <ele>1853.2</ele>
        <time>2018-06-11T09:12:53Z</time>
      </trkpt>
      <trkpt lat="42.299076" lon="2.017614">
        <ele>1856.5</ele>
        <time>2018-06-11T09:13:03Z</time>
      </trkpt>
      <trkpt lat="42.298744" lon="2.017289">
        <ele>1859.7</ele>
        <time>2018-06-11T09:13:14Z</time>
      </trkpt>
      <trkpt lat="42.298561" lon="2.017127">
        <ele>1859.4</ele>
        <time>2018-06-11T09:13:19Z</time>
      </trkpt>
      <trkpt lat="42.298325" lon="2.016879">
        <ele>1855.6</ele>
        <time>2018-06-11T09:13:27Z</time>
      </trkpt>
      <trkpt lat="42.298107" lon="2.016618">
        <ele>1849.5</ele>
        <time>2018-06-11T09:13:35Z</time>
      </trkpt>
      <trkpt lat="42.298030" lon="2.016434">
        <ele>1848.6</ele>
        <time>2018-06-11T09:13:39Z</time>
      </trkpt>
      <trkpt lat="42.297957" lon="2.016185">
        <ele>1846.5</ele>
        <time>2018-06-11T09:13:45Z</time>
      </trkpt>
      <trkpt lat="42.297895" lon="2.015683">
        <ele>1841.0</ele>
        <time>2018-06-11T09:13:55Z</time>
      </trkpt>
      <trkpt lat="42.297958" lon="2.015228">
        <ele>1841.3</ele>
        <time>2018-06-11T09:14:04Z</time>
      </trkpt>
      <trkpt lat="42.298079" lon="2.014624">
        <ele>1843.7</ele>
        <time>2018-06-11T09:14:16Z</time>
      </trkpt>
      <trkpt lat="42.298164" lon="2.014316">
        <ele>1844.6</ele>
        <time>2018-06-11T09:14:22Z</time>
      </trkpt>
      <trkpt lat="42.298325" lon="2.013902">
        <ele>1837.8</ele>
        <time>2018-06-11T09:14:32Z</time>
      </trkpt>
      <trkpt lat="42.298504" lon="2.013458">
        <ele>1838.1</ele>
        <time>2018-06-11T09:14:42Z</time>
      </trkpt>
      <trkpt lat="42.298661" lon="2.012981">
        <ele>1840.4</ele>
        <time>2018-06-11T09:14:52Z</time>
      </trkpt>
      <trkpt lat="42.298814" lon="2.012720">
        <ele>1842.1</ele>
        <time>2018-06-11T09:14:58Z</time>
      </trkpt>
      <trkpt lat="42.298944" lon="2.012554">
        <ele>1840.9</ele>
        <time>2018-06-11T09:15:03Z</time>
      </trkpt>
      <trkpt lat="42.299117" lon="2.012479">
        <ele>1842.6</ele>
        <time>2018-06-11T09:15:08Z</time>
      </trkpt>
      <trkpt lat="42.299267" lon="2.012468">
        <ele>1845.8</ele>
        <time>2018-06-11T09:15:12Z</time>
      </trkpt>
      <trkpt lat="42.299556" lon="2.012584">
        <ele>1851.6</ele>
        <time>2018-06-11T09:15:20Z</time>
      </trkpt>
      <trkpt lat="42.299744" lon="2.012669">
        <ele>1858.5</ele>
        <time>2018-06-11T09:15:26Z</time>
      </trkpt>
      <trkpt lat="42.300076" lon="2.012798">
        <ele>1865.3</ele>
        <time>2018-06-11T09:15:35Z</time>
      </trkpt>
      <trkpt lat="42.300502" lon="2.012866">
        <ele>1862.5</ele>
        <time>2018-06-11T09:15:46Z</time>
      </trkpt>
      <trkpt lat="42.300965" lon="2.012837">
        <ele>1863.8</ele>
        <time>2018-06-11T09:15:59Z</time>
      </trkpt>
      <trkpt lat="42.301445" lon="2.012743">
        <ele>1861.6</ele>
        <time>2018-06-11T09:16:11Z</time>
      </trkpt>
      <trkpt lat="42.301921" lon="2.012579">
        <ele>1873.3</ele>
        <time>2018-06-11T09:16:25Z</time>
      </trkpt>
      <trkpt lat="42.302039" lon="2.012489">
        <ele>1876.3</ele>
        <time>2018-06-11T09:16:28Z</time>
      </trkpt>
      <trkpt lat="42.302098" lon="2.012381">
        <ele>1877.7</ele>
        <time>2018-06-11T09:16:31Z</time>
      </trkpt>
      <trkpt lat="42.302082" lon="2.012239">
        <ele>1879.6</ele>
        <time>2018-06-11T09:16:34Z</time>
      </trkpt>
      <trkpt lat="42.302009" lon="2.012155">
        <ele>1880.4</ele>
        <time>2018-06-11T09:16:36Z</time>
      </trkpt>
      <trkpt lat="42.301937" lon="2.012133">
        <ele>1880.0</ele>
        <time>2018-06-11T09:16:38Z</time>
      </trkpt>
      <trkpt lat="42.301714" lon="2.012148">
        <ele>1877.4</ele>
        <time>2018-06-11T09:16:44Z</time>
      </trkpt>
      <trkpt lat="42.301496" lon="2.012087">
        <ele>1880.2</ele>
        <time>2018-06-11T09:16:50Z</time>
      </trkpt>
      <trkpt lat="42.301210" lon="2.011937">
        <ele>1887.4</ele>
        <time>2018-06-11T09:16:58Z</time>
      </trkpt>
      <trkpt lat="42.300906" lon="2.011744">
        <ele>1891.3</ele>
        <time>2018-06-11T09:17:07Z</time>
      </trkpt>
      <trkpt lat="42.300738" lon="2.011543">
        <ele>1892.4</ele>
        <time>2018-06-11T09:17:13Z</time>
      </trkpt>
      <trkpt lat="42.300532" lon="2.011206">
        <ele>1891.0</ele>
        <time>2018-06-11T09:17:22Z</time>
      </trkpt>
      <trkpt lat="42.300246" lon="2.010625">
        <ele>1888.5</ele>
        <time>2018-06-11T09:17:36Z</time>
      </trkpt>
      <trkpt lat="42.300132" lon="2.010168">
        <ele>1886.8</ele>
        <time>2018-06-11T09:17:45Z</time>
      </trkpt>
      <trkpt lat="42.300129" lon="2.009641">
        <ele>1885.8</ele>
        <time>2018-06-11T09:17:55Z</time>
      </trkpt>
      <trkpt lat="42.300203" lon="2.009066">
        <ele>1885.9</ele>
        <time>2018-06-11T09:18:07Z</time>
      </trkpt>
      <trkpt lat="42.300301" lon="2.008605">
        <ele>1885.0</ele>
        <time>2018-06-11T09:18:16Z</time>
      </trkpt>
      <trkpt lat="42.300434" lon="2.008188">
        <ele>1887.6</ele>
        <time>2018-06-11T09:18:25Z</time>
      </trkpt>
      <trkpt lat="42.300581" lon="2.007791">
        <ele>1891.9</ele>
        <time>2018-06-11T09:18:34Z</time>
      </trkpt>
      <trkpt lat="42.300800" lon="2.007180">
        <ele>1899.4</ele>
        <time>2018-06-11T09:18:47Z</time>
      </trkpt>
      <trkpt lat="42.300857" lon="2.006997">
        <ele>1902.7</ele>
        <time>2018-06-11T09:18:51Z</time>
      </trkpt>
      <trkpt lat="42.300870" lon="2.006883">
        <ele>1904.5</ele>
        <time>2018-06-11T09:18:54Z</time>
      </trkpt>
      <trkpt lat="42.300856" lon="2.006789">
        <ele>1906.1</ele>
        <time>2018-06-11T09:18:55Z</time>
      </trkpt>
      <trkpt lat="42.300778" lon="2.006705">
        <ele>1908.5</ele>
        <time>2018-06-11T09:18:58Z</time>
      </trkpt>
      <trkpt lat="42.300630" lon="2.006601">
        <ele>1909.8</ele>
        <time>2018-06-11T09:19:03Z</time>
      </trkpt>
      <trkpt lat="42.300501" lon="2.006550">
        <ele>1907.3</ele>
        <time>2018-06-11T09:19:06Z</time>
      </trkpt>
      <trkpt lat="42.300337" lon="2.006491">
        <ele>1904.1</ele>
        <time>2018-06-11T09:19:11Z</time>
      </trkpt>
      <trkpt lat="42.300231" lon="2.006380">
        <ele>1903.8</ele>
        <time>2018-06-11T09:19:14Z</time>
      </trkpt>
      <trkpt lat="42.300150" lon="2.006216">
        <ele>1903.9</ele>
        <time>2018-06-11T09:19:18Z</time>
      </trkpt>
      <trkpt lat="42.300099" lon="2.005749">
        <ele>1900.9</ele>
        <time>2018-06-11T09:19:27Z</time>
      </trkpt>
      <trkpt lat="42.300082" lon="2.005148">
        <ele>1902.0</ele>
        <time>2018-06-11T09:19:39Z</time>
      </trkpt>
      <trkpt lat="42.300117" lon="2.004697">
        <ele>1903.6</ele>
        <time>2018-06-11T09:19:48Z</time>
      </trkpt>
      <trkpt lat="42.300169" lon="2.004354">
        <ele>1907.2</ele>
        <time>2018-06-11T09:19:55Z</time>
      </trkpt>
      <trkpt lat="42.300237" lon="2.004073">
        <ele>1911.2</ele>
        <time>2018-06-11T09:20:01Z</time>
      </trkpt>
      <trkpt lat="42.300236" lon="2.003891">
        <ele>1913.4</ele>
        <time>2018-06-11T09:20:05Z</time>
      </trkpt>
      <trkpt lat="42.300194" lon="2.003564">
        <ele>1917.5</ele>
        <time>2018-06-11T09:20:11Z</time>
      </trkpt>
      <trkpt lat="42.300126" lon="2.003348">
        <ele>1918.6</ele>
        <time>2018-06-11T09:20:16Z</time>
      </trkpt>
      <trkpt lat="42.300059" lon="2.003164">
        <ele>1918.6</ele>
        <time>2018-06-11T09:20:20Z</time>
      </trkpt>
      <trkpt lat="42.299945" lon="2.002931">
        <ele>1920.5</ele>
        <time>2018-06-11T09:20:25Z</time>
      </trkpt>
      <trkpt lat="42.299825" lon="2.002672">
        <ele>1916.0</ele>
        <time>2018-06-11T09:20:31Z</time>
      </trkpt>
      <trkpt lat="42.299788" lon="2.002393">
        <ele>1914.0</ele>
        <time>2018-06-11T09:20:37Z</time>
      </trkpt>
      <trkpt lat="42.299839" lon="2.001963">
        <ele>1913.7</ele>
        <time>2018-06-11T09:20:45Z</time>
      </trkpt>
      <trkpt lat="42.299881" lon="2.001381">
        <ele>1914.6</ele>
        <time>2018-06-11T09:20:57Z</time>
      </trkpt>
      <trkpt lat="42.299899" lon="2.000767">
        <ele>1913.9</ele>
        <time>2018-06-11T09:21:09Z</time>
      </trkpt>
      <trkpt lat="42.299898" lon="2.000448">
        <ele>1910.6</ele>
        <time>2018-06-11T09:21:15Z</time>
      </trkpt>
      <trkpt lat="42.299992" lon="2.000142">
        <ele>1907.2</ele>
        <time>2018-06-11T09:21:22Z</time>
      </trkpt>
      <trkpt lat="42.300320" lon="1.999422">
        <ele>1906.0</ele>
        <time>2018-06-11T09:21:38Z</time>
      </trkpt>
      <trkpt lat="42.300369" lon="1.999324">
        <ele>1907.0</ele>
        <time>2018-06-11T09:21:41Z</time>
      </trkpt>
      <trkpt lat="42.300547" lon="1.998905">
        <ele>1908.3</ele>
        <time>2018-06-11T09:21:50Z</time>
      </trkpt>
      <trkpt lat="42.300644" lon="1.998729">
        <ele>1910.9</ele>
        <time>2018-06-11T09:21:54Z</time>
      </trkpt>
      <trkpt lat="42.300702" lon="1.998570">
        <ele>1912.4</ele>
        <time>2018-06-11T09:21:58Z</time>
      </trkpt>
      <trkpt lat="42.300750" lon="1.998340">
        <ele>1913.1</ele>
        <time>2018-06-11T09:22:03Z</time>
      </trkpt>
      <trkpt lat="42.300823" lon="1.997509">
        <ele>1915.1</ele>
        <time>2018-06-11T09:22:19Z</time>
      </trkpt>
      <trkpt lat="42.300934" lon="1.996353">
        <ele>1915.3</ele>
        <time>2018-06-11T09:22:42Z</time>
      </trkpt>
      <trkpt lat="42.301046" lon="1.995684">
        <ele>1912.9</ele>
        <time>2018-06-11T09:22:55Z</time>
      </trkpt>
      <trkpt lat="42.301182" lon="1.995050">
        <ele>1911.0</ele>
        <time>2018-06-11T09:23:08Z</time>
      </trkpt>
      <trkpt lat="42.301339" lon="1.994500">
        <ele>1912.4</ele>
        <time>2018-06-11T09:23:20Z</time>
      </trkpt>
      <trkpt lat="42.301403" lon="1.994021">
        <ele>1915.4</ele>
        <time>2018-06-11T09:23:29Z</time>
      </trkpt>
      <trkpt lat="42.301412" lon="1.993595">
        <ele>1918.0</ele>
        <time>2018-06-11T09:23:38Z</time>
      </trkpt>
      <trkpt lat="42.301435" lon="1.993232">
        <ele>1918.3</ele>
        <time>2018-06-11T09:23:45Z</time>
      </trkpt>
      <trkpt lat="42.301466" lon="1.992865">
        <ele>1918.7</ele>
        <time>2018-06-11T09:23:52Z</time>
      </trkpt>
      <trkpt lat="42.301512" lon="1.992512">
        <ele>1921.2</ele>
        <time>2018-06-11T09:23:59Z</time>
      </trkpt>
      <trkpt lat="42.301579" lon="1.992305">
        <ele>1921.2</ele>
        <time>2018-06-11T09:24:03Z</time>
      </trkpt>
      <trkpt lat="42.301998" lon="1.991526">
        <ele>1914.5</ele>
        <time>2018-06-11T09:24:22Z</time>
      </trkpt>
      <trkpt lat="42.302227" lon="1.991058">
        <ele>1912.0</ele>
        <time>2018-06-11T09:24:33Z</time>
      </trkpt>
      <trkpt lat="42.302301" lon="1.990797">
        <ele>1908.3</ele>
        <time>2018-06-11T09:24:39Z</time>
      </trkpt>
      <trkpt lat="42.302303" lon="1.990415">
        <ele>1905.1</ele>
        <time>2018-06-11T09:24:46Z</time>
      </trkpt>
      <trkpt lat="42.302252" lon="1.990129">
        <ele>1908.3</ele>
        <time>2018-06-11T09:24:52Z</time>
      </trkpt>
      <trkpt lat="42.302245" lon="1.989855">
        <ele>1913.0</ele>
        <time>2018-06-11T09:24:58Z</time>
      </trkpt>
      <trkpt lat="42.302275" lon="1.989732">
        <ele>1914.5</ele>
        <time>2018-06-11T09:25:00Z</time>
      </trkpt>
      <trkpt lat="42.302381" lon="1.989641">
        <ele>1914.2</ele>
        <time>2018-06-11T09:25:04Z</time>
      </trkpt>
      <trkpt lat="42.302532" lon="1.989621">
        <ele>1910.3</ele>
        <time>2018-06-11T09:25:08Z</time>
      </trkpt>
      <trkpt lat="42.302863" lon="1.989641">
        <ele>1901.5</ele>
        <time>2018-06-11T09:25:17Z</time>
      </trkpt>
      <trkpt lat="42.303079" lon="1.989658">
        <ele>1897.1</ele>
        <time>2018-06-11T09:25:23Z</time>
      </trkpt>
      <trkpt lat="42.303398" lon="1.989574">
        <ele>1893.0</ele>
        <time>2018-06-11T09:25:31Z</time>
      </trkpt>
      <trkpt lat="42.303761" lon="1.989408">
        <ele>1889.8</ele>
        <time>2018-06-11T09:25:41Z</time>
      </trkpt>
      <trkpt lat="42.304119" lon="1.989207">
        <ele>1889.6</ele>
        <time>2018-06-11T09:25:52Z</time>
      </trkpt>
      <trkpt lat="42.304604" lon="1.988921">
        <ele>1880.7</ele>
        <time>2018-06-11T09:26:06Z</time>
      </trkpt>
      <trkpt lat="42.304977" lon="1.988694">
        <ele>1875.5</ele>
        <time>2018-06-11T09:26:17Z</time>
      </trkpt>
      <trkpt lat="42.305363" lon="1.988466">
        <ele>1869.2</ele>
        <time>2018-06-11T09:26:28Z</time>
      </trkpt>
      <trkpt lat="42.305723" lon="1.988282">
        <ele>1862.5</ele>
        <time>2018-06-11T09:26:38Z</time>
      </trkpt>
      <trkpt lat="42.305925" lon="1.988248">
        <ele>1861.3</ele>
        <time>2018-06-11T09:26:44Z</time>
      </trkpt>
      <trkpt lat="42.306328" lon="1.988291">
        <ele>1859.8</ele>
        <time>2018-06-11T09:26:54Z</time>
      </trkpt>
      <trkpt lat="42.306480" lon="1.988332">
        <ele>1858.1</ele>
        <time>2018-06-11T09:26:59Z</time>
      </trkpt>
      <trkpt lat="42.306714" lon="1.988347">
        <ele>1854.4</ele>
        <time>2018-06-11T09:27:05Z</time>
      </trkpt>
      <trkpt lat="42.306894" lon="1.988250">
        <ele>1852.4</ele>
        <time>2018-06-11T09:27:10Z</time>
      </trkpt>
      <trkpt lat="42.307022" lon="1.988102">
        <ele>1852.3</ele>
        <time>2018-06-11T09:27:14Z</time>
      </trkpt>
      <trkpt lat="42.307075" lon="1.987884">
        <ele>1853.3</ele>
        <time>2018-06-11T09:27:19Z</time>
      </trkpt>
      <trkpt lat="42.307012" lon="1.987674">
        <ele>1854.8</ele>
        <time>2018-06-11T09:27:23Z</time>
      </trkpt>
      <trkpt lat="42.306713" lon="1.987061">
        <ele>1852.2</ele>
        <time>2018-06-11T09:27:38Z</time>
      </trkpt>
      <trkpt lat="42.306553" lon="1.986684">
        <ele>1849.9</ele>
        <time>2018-06-11T09:27:46Z</time>
      </trkpt>
      <trkpt lat="42.306404" lon="1.986320">
        <ele>1847.2</ele>
        <time>2018-06-11T09:27:55Z</time>
      </trkpt>
      <trkpt lat="42.306190" lon="1.985883">
        <ele>1843.5</ele>
        <time>2018-06-11T09:28:05Z</time>
      </trkpt>
      <trkpt lat="42.305954" lon="1.985397">
        <ele>1836.8</ele>
        <time>2018-06-11T09:28:16Z</time>
      </trkpt>
      <trkpt lat="42.305897" lon="1.985273">
        <ele>1835.3</ele>
        <time>2018-06-11T09:28:19Z</time>
      </trkpt>
      <trkpt lat="42.305649" lon="1.984776">
        <ele>1832.6</ele>
        <time>2018-06-11T09:28:31Z</time>
      </trkpt>
      <trkpt lat="42.305424" lon="1.984284">
        <ele>1830.3</ele>
        <time>2018-06-11T09:28:42Z</time>
      </trkpt>
      <trkpt lat="42.305261" lon="1.983932">
        <ele>1825.3</ele>
        <time>2018-06-11T09:28:50Z</time>
      </trkpt>
      <trkpt lat="42.305185" lon="1.983755">
        <ele>1824.5</ele>
        <time>2018-06-11T09:28:55Z</time>
      </trkpt>
      <trkpt lat="42.305109" lon="1.983569">
        <ele>1827.0</ele>
        <time>2018-06-11T09:28:59Z</time>
      </trkpt>
      <trkpt lat="42.305122" lon="1.983398">
        <ele>1829.0</ele>
        <time>2018-06-11T09:29:02Z</time>
      </trkpt>
      <trkpt lat="42.305158" lon="1.983279">
        <ele>1830.6</ele>
        <time>2018-06-11T09:29:05Z</time>
      </trkpt>
      <trkpt lat="42.305237" lon="1.983200">
        <ele>1829.7</ele>
        <time>2018-06-11T09:29:07Z</time>
      </trkpt>
      <trkpt lat="42.305695" lon="1.982867">
        <ele>1824.4</ele>
        <time>2018-06-11T09:29:21Z</time>
      </trkpt>
      <trkpt lat="42.305931" lon="1.982709">
        <ele>1819.8</ele>
        <time>2018-06-11T09:29:28Z</time>
      </trkpt>
      <trkpt lat="42.306263" lon="1.982503">
        <ele>1815.3</ele>
        <time>2018-06-11T09:29:38Z</time>
      </trkpt>
      <trkpt lat="42.306526" lon="1.982363">
        <ele>1814.0</ele>
        <time>2018-06-11T09:29:45Z</time>
      </trkpt>
      <trkpt lat="42.306797" lon="1.982180">
        <ele>1809.9</ele>
        <time>2018-06-11T09:29:53Z</time>
      </trkpt>
      <trkpt lat="42.307029" lon="1.981962">
        <ele>1807.5</ele>
        <time>2018-06-11T09:30:01Z</time>
      </trkpt>
      <trkpt lat="42.307212" lon="1.981661">
        <ele>1802.4</ele>
        <time>2018-06-11T09:30:09Z</time>
      </trkpt>
      <trkpt lat="42.307318" lon="1.981349">
        <ele>1797.2</ele>
        <time>2018-06-11T09:30:16Z</time>
      </trkpt>
      <trkpt lat="42.307371" lon="1.980959">
        <ele>1791.6</ele>
        <time>2018-06-11T09:30:23Z</time>
      </trkpt>
      <trkpt lat="42.307339" lon="1.980707">
        <ele>1788.6</ele>
        <time>2018-06-11T09:30:28Z</time>
      </trkpt>
      <trkpt lat="42.307244" lon="1.980472">
        <ele>1788.1</ele>
        <time>2018-06-11T09:30:34Z</time>
      </trkpt>
      <trkpt lat="42.307054" lon="1.980084">
        <ele>1791.4</ele>
        <time>2018-06-11T09:30:43Z</time>
      </trkpt>
      <trkpt lat="42.306976" lon="1.979871">
        <ele>1792.9</ele>
        <time>2018-06-11T09:30:48Z</time>
      </trkpt>
      <trkpt lat="42.306934" lon="1.979748">
        <ele>1794.3</ele>
        <time>2018-06-11T09:30:50Z</time>
      </trkpt>
      <trkpt lat="42.306873" lon="1.979355">
        <ele>1797.1</ele>
        <time>2018-06-11T09:30:58Z</time>
      </trkpt>
      <trkpt lat="42.306891" lon="1.978598">
        <ele>1793.3</ele>
        <time>2018-06-11T09:31:13Z</time>
      </trkpt>
      <trkpt lat="42.306899" lon="1.978040">
        <ele>1783.5</ele>
        <time>2018-06-11T09:31:24Z</time>
      </trkpt>
      <trkpt lat="42.306901" lon="1.977492">
        <ele>1773.4</ele>
        <time>2018-06-11T09:31:35Z</time>
      </trkpt>
      <trkpt lat="42.306815" lon="1.977059">
        <ele>1770.1</ele>
        <time>2018-06-11T09:31:44Z</time>
      </trkpt>
      <trkpt lat="42.306618" lon="1.976472">
        <ele>1774.4</ele>
        <time>2018-06-11T09:31:57Z</time>
      </trkpt>
      <trkpt lat="42.306442" lon="1.976042">
        <ele>1770.4</ele>
        <time>2018-06-11T09:32:06Z</time>
      </trkpt>
      <trkpt lat="42.306248" lon="1.975618">
        <ele>1765.5</ele>
        <time>2018-06-11T09:32:16Z</time>
      </trkpt>
      <trkpt lat="42.306065" lon="1.975271">
        <ele>1764.9</ele>
        <time>2018-06-11T09:32:24Z</time>
      </trkpt>
      <trkpt lat="42.305888" lon="1.974956">
        <ele>1765.1</ele>
        <time>2018-06-11T09:32:32Z</time>
      </trkpt>
      <trkpt lat="42.305839" lon="1.974769">
        <ele>1767.5</ele>
        <time>2018-06-11T09:32:36Z</time>
      </trkpt>
      <trkpt lat="42.305865" lon="1.974591">
        <ele>1769.5</ele>
        <time>2018-06-11T09:32:40Z</time>
      </trkpt>
      <trkpt lat="42.305933" lon="1.974483">
        <ele>1772.6</ele>
        <time>2018-06-11T09:32:43Z</time>
      </trkpt>
      <trkpt lat="42.306090" lon="1.974447">
        <ele>1774.9</ele>
        <time>2018-06-11T09:32:47Z</time>
      </trkpt>
      <trkpt lat="42.306252" lon="1.974515">
        <ele>1772.7</ele>
        <time>2018-06-11T09:32:51Z</time>
      </trkpt>
      <trkpt lat="42.306936" lon="1.974995">
        <ele>1763.5</ele>
        <time>2018-06-11T09:33:12Z</time>
      </trkpt>
      <trkpt lat="42.307231" lon="1.975143">
        <ele>1769.2</ele>
        <time>2018-06-11T09:33:20Z</time>
      </trkpt>
      <trkpt lat="42.307432" lon="1.975187">
        <ele>1774.3</ele>
        <time>2018-06-11T09:33:26Z</time>
      </trkpt>
      <trkpt lat="42.308095" lon="1.975354">
        <ele>1772.5</ele>
        <time>2018-06-11T09:33:44Z</time>
      </trkpt>
      <trkpt lat="42.308411" lon="1.975360">
        <ele>1765.8</ele>
        <time>2018-06-11T09:33:52Z</time>
      </trkpt>
      <trkpt lat="42.308565" lon="1.975340">
        <ele>1763.2</ele>
        <time>2018-06-11T09:33:56Z</time>
      </trkpt>
      <trkpt lat="42.308738" lon="1.975283">
        <ele>1761.6</ele>
        <time>2018-06-11T09:34:01Z</time>
      </trkpt>
      <trkpt lat="42.308959" lon="1.975110">
        <ele>1763.4</ele>
        <time>2018-06-11T09:34:08Z</time>
      </trkpt>
      <trkpt lat="42.309142" lon="1.974900">
        <ele>1764.4</ele>
        <time>2018-06-11T09:34:14Z</time>
      </trkpt>
      <trkpt lat="42.309818" lon="1.974135">
        <ele>1758.9</ele>
        <time>2018-06-11T09:34:38Z</time>
      </trkpt>
      <trkpt lat="42.309937" lon="1.973998">
        <ele>1756.5</ele>
        <time>2018-06-11T09:34:42Z</time>
      </trkpt>
      <trkpt lat="42.310577" lon="1.973240">
        <ele>1762.4</ele>
        <time>2018-06-11T09:35:04Z</time>
      </trkpt>
      <trkpt lat="42.310908" lon="1.972831">
        <ele>1765.6</ele>
        <time>2018-06-11T09:35:16Z</time>
      </trkpt>
      <trkpt lat="42.311176" lon="1.972413">
        <ele>1773.5</ele>
        <time>2018-06-11T09:35:27Z</time>
      </trkpt>
      <trkpt lat="42.311439" lon="1.971921">
        <ele>1781.0</ele>
        <time>2018-06-11T09:35:39Z</time>
      </trkpt>
      <trkpt lat="42.311548" lon="1.971777">
        <ele>1783.9</ele>
        <time>2018-06-11T09:35:43Z</time>
      </trkpt>
      <trkpt lat="42.311668" lon="1.971704">
        <ele>1785.2</ele>
        <time>2018-06-11T09:35:47Z</time>
      </trkpt>
      <trkpt lat="42.311773" lon="1.971675">
        <ele>1784.7</ele>
        <time>2018-06-11T09:35:50Z</time>
      </trkpt>
      <trkpt lat="42.312146" lon="1.971683">
        <ele>1777.1</ele>
        <time>2018-06-11T09:36:00Z</time>
      </trkpt>
      <trkpt lat="42.312352" lon="1.971657">
        <ele>1775.2</ele>
        <time>2018-06-11T09:36:05Z</time>
      </trkpt>
      <trkpt lat="42.312502" lon="1.971559">
        <ele>1774.2</ele>
        <time>2018-06-11T09:36:10Z</time>
      </trkpt>
      <trkpt lat="42.312738" lon="1.971297">
        <ele>1775.2</ele>
        <time>2018-06-11T09:36:18Z</time>
      </trkpt>
      <trkpt lat="42.313049" lon="1.970910">
        <ele>1778.1</ele>
        <time>2018-06-11T09:36:29Z</time>
      </trkpt>
      <trkpt lat="42.313548" lon="1.970242">
        <ele>1786.3</ele>
        <time>2018-06-11T09:36:48Z</time>
      </trkpt>
      <trkpt lat="42.313692" lon="1.970078">
        <ele>1785.7</ele>
        <time>2018-06-11T09:36:53Z</time>
      </trkpt>
      <trkpt lat="42.313787" lon="1.970005">
        <ele>1784.6</ele>
        <time>2018-06-11T09:36:55Z</time>
      </trkpt>
      <trkpt lat="42.313877" lon="1.970024">
        <ele>1783.6</ele>
        <time>2018-06-11T09:36:58Z</time>
      </trkpt>
      <trkpt lat="42.313959" lon="1.970125">
        <ele>1781.2</ele>
        <time>2018-06-11T09:37:01Z</time>
      </trkpt>
      <trkpt lat="42.314013" lon="1.970281">
        <ele>1780.1</ele>
        <time>2018-06-11T09:37:04Z</time>
      </trkpt>
      <trkpt lat="42.314031" lon="1.970629">
        <ele>1775.5</ele>
        <time>2018-06-11T09:37:11Z</time>
      </trkpt>
      <trkpt lat="42.314029" lon="1.970894">
        <ele>1772.6</ele>
        <time>2018-06-11T09:37:16Z</time>
      </trkpt>
      <trkpt lat="42.314029" lon="1.971105">
        <ele>1768.2</ele>
        <time>2018-06-11T09:37:21Z</time>
      </trkpt>
      <trkpt lat="42.314096" lon="1.971205">
        <ele>1769.0</ele>
        <time>2018-06-11T09:37:23Z</time>
      </trkpt>
      <trkpt lat="42.314218" lon="1.971223">
        <ele>1775.3</ele>
        <time>2018-06-11T09:37:27Z</time>
      </trkpt>
      <trkpt lat="42.314410" lon="1.971141">
        <ele>1783.6</ele>
        <time>2018-06-11T09:37:33Z</time>
      </trkpt>
      <trkpt lat="42.314552" lon="1.971049">
        <ele>1788.5</ele>
        <time>2018-06-11T09:37:37Z</time>
      </trkpt>
      <trkpt lat="42.314888" lon="1.970848">
        <ele>1790.7</ele>
        <time>2018-06-11T09:37:47Z</time>
      </trkpt>
      <trkpt lat="42.315142" lon="1.970673">
        <ele>1789.0</ele>
        <time>2018-06-11T09:37:54Z</time>
      </trkpt>
      <trkpt lat="42.315288" lon="1.970617">
        <ele>1791.1</ele>
        <time>2018-06-11T09:37:58Z</time>
      </trkpt>
      <trkpt lat="42.315651" lon="1.970576">
        <ele>1795.5</ele>
        <time>2018-06-11T09:38:08Z</time>
      </trkpt>
      <trkpt lat="42.315987" lon="1.970565">
        <ele>1791.0</ele>
        <time>2018-06-11T09:38:17Z</time>
      </trkpt>
      <trkpt lat="42.316311" lon="1.970575">
        <ele>1790.1</ele>
        <time>2018-06-11T09:38:26Z</time>
      </trkpt>
      <trkpt lat="42.316635" lon="1.970575">
        <ele>1794.2</ele>
        <time>2018-06-11T09:38:34Z</time>
      </trkpt>
      <trkpt lat="42.317051" lon="1.970577">
        <ele>1797.9</ele>
        <time>2018-06-11T09:38:45Z</time>
      </trkpt>
      <trkpt lat="42.317388" lon="1.970584">
        <ele>1792.6</ele>
        <time>2018-06-11T09:38:54Z</time>
      </trkpt>
      <trkpt lat="42.317598" lon="1.970541">
        <ele>1788.5</ele>
        <time>2018-06-11T09:39:00Z</time>
      </trkpt>
      <trkpt lat="42.317799" lon="1.970460">
        <ele>1791.6</ele>
        <time>2018-06-11T09:39:06Z</time>
      </trkpt>
      <trkpt lat="42.318065" lon="1.970252">
        <ele>1793.2</ele>
        <time>2018-06-11T09:39:14Z</time>
      </trkpt>
      <trkpt lat="42.318443" lon="1.969868">
        <ele>1789.5</ele>
        <time>2018-06-11T09:39:26Z</time>
      </trkpt>
      <trkpt lat="42.318772" lon="1.969492">
        <ele>1793.7</ele>
        <time>2018-06-11T09:39:38Z</time>
      </trkpt>
      <trkpt lat="42.319111" lon="1.969121">
        <ele>1795.6</ele>
        <time>2018-06-11T09:39:49Z</time>
      </trkpt>
      <trkpt lat="42.319431" lon="1.968733">
        <ele>1798.1</ele>
        <time>2018-06-11T09:40:01Z</time>
      </trkpt>
      <trkpt lat="42.319651" lon="1.968488">
        <ele>1800.4</ele>
        <time>2018-06-11T09:40:08Z</time>
      </trkpt>
      <trkpt lat="42.319820" lon="1.968234">
        <ele>1803.7</ele>
        <time>2018-06-11T09:40:15Z</time>
      </trkpt>
      <trkpt lat="42.320676" lon="1.966287">
        <ele>1807.9</ele>
        <time>2018-06-11T09:40:59Z</time>
      </trkpt>
      <trkpt lat="42.321405" lon="1.964656">
        <ele>1811.1</ele>
        <time>2018-06-11T09:41:37Z</time>
      </trkpt>
      <trkpt lat="42.322364" lon="1.962551">
        <ele>1819.6</ele>
        <time>2018-06-11T09:42:25Z</time>
      </trkpt>
      <trkpt lat="42.322679" lon="1.961896">
        <ele>1825.1</ele>
        <time>2018-06-11T09:42:40Z</time>
      </trkpt>
      <trkpt lat="42.322825" lon="1.961697">
        <ele>1827.4</ele>
        <time>2018-06-11T09:42:46Z</time>
      </trkpt>
      <trkpt lat="42.323088" lon="1.961456">
        <ele>1828.5</ele>
        <time>2018-06-11T09:42:54Z</time>
      </trkpt>
      <trkpt lat="42.323612" lon="1.961057">
        <ele>1830.5</ele>
        <time>2018-06-11T09:43:10Z</time>
      </trkpt>
      <trkpt lat="42.324445" lon="1.960477">
        <ele>1834.2</ele>
        <time>2018-06-11T09:43:35Z</time>
      </trkpt>
      <trkpt lat="42.324777" lon="1.960185">
        <ele>1835.3</ele>
        <time>2018-06-11T09:43:46Z</time>
      </trkpt>
      <trkpt lat="42.324881" lon="1.960085">
        <ele>1834.5</ele>
        <time>2018-06-11T09:43:49Z</time>
      </trkpt>
      <trkpt lat="42.324974" lon="1.959994">
        <ele>1833.6</ele>
        <time>2018-06-11T09:43:52Z</time>
      </trkpt>
      <trkpt lat="42.325055" lon="1.959861">
        <ele>1832.3</ele>
        <time>2018-06-11T09:43:55Z</time>
      </trkpt>
      <trkpt lat="42.325118" lon="1.959574">
        <ele>1830.3</ele>
        <time>2018-06-11T09:44:01Z</time>
      </trkpt>
      <trkpt lat="42.325156" lon="1.959211">
        <ele>1828.7</ele>
        <time>2018-06-11T09:44:08Z</time>
      </trkpt>
      <trkpt lat="42.325180" lon="1.958923">
        <ele>1829.5</ele>
        <time>2018-06-11T09:44:14Z</time>
      </trkpt>
      <trkpt lat="42.325286" lon="1.958439">
        <ele>1830.4</ele>
        <time>2018-06-11T09:44:24Z</time>
      </trkpt>
      <trkpt lat="42.325436" lon="1.957609">
        <ele>1814.2</ele>
        <time>2018-06-11T09:44:41Z</time>
      </trkpt>
      <trkpt lat="42.325459" lon="1.957360">
        <ele>1805.1</ele>
        <time>2018-06-11T09:44:47Z</time>
      </trkpt>
      <trkpt lat="42.325425" lon="1.957194">
        <ele>1804.6</ele>
        <time>2018-06-11T09:44:50Z</time>
      </trkpt>
      <trkpt lat="42.325364" lon="1.957081">
        <ele>1805.1</ele>
        <time>2018-06-11T09:44:53Z</time>
      </trkpt>
      <trkpt lat="42.325238" lon="1.956971">
        <ele>1806.2</ele>
        <time>2018-06-11T09:44:57Z</time>
      </trkpt>
      <trkpt lat="42.325125" lon="1.956923">
        <ele>1807.8</ele>
        <time>2018-06-11T09:45:00Z</time>
      </trkpt>
      <trkpt lat="42.324890" lon="1.956899">
        <ele>1810.3</ele>
        <time>2018-06-11T09:45:06Z</time>
      </trkpt>
      <trkpt lat="42.324766" lon="1.956906">
        <ele>1814.0</ele>
        <time>2018-06-11T09:45:09Z</time>
      </trkpt>
      <trkpt lat="42.324708" lon="1.956859">
        <ele>1815.8</ele>
        <time>2018-06-11T09:45:11Z</time>
      </trkpt>
      <trkpt lat="42.324684" lon="1.956801">
        <ele>1816.4</ele>
        <time>2018-06-11T09:45:13Z</time>
      </trkpt>
      <trkpt lat="42.324675" lon="1.956655">
        <ele>1816.7</ele>
        <time>2018-06-11T09:45:15Z</time>
      </trkpt>
      <trkpt lat="42.324648" lon="1.955987">
        <ele>1815.4</ele>
        <time>2018-06-11T09:45:29Z</time>
      </trkpt>
      <trkpt lat="42.324631" lon="1.955732">
        <ele>1817.0</ele>
        <time>2018-06-11T09:45:34Z</time>
      </trkpt>
      <trkpt lat="42.324638" lon="1.955354">
        <ele>1822.0</ele>
        <time>2018-06-11T09:45:41Z</time>
      </trkpt>
      <trkpt lat="42.324677" lon="1.955126">
        <ele>1825.6</ele>
        <time>2018-06-11T09:45:46Z</time>
      </trkpt>
      <trkpt lat="42.324770" lon="1.954968">
        <ele>1826.1</ele>
        <time>2018-06-11T09:45:50Z</time>
      </trkpt>
      <trkpt lat="42.324925" lon="1.954828">
        <ele>1823.2</ele>
        <time>2018-06-11T09:45:55Z</time>
      </trkpt>
      <trkpt lat="42.325094" lon="1.954643">
        <ele>1821.8</ele>
        <time>2018-06-11T09:46:00Z</time>
      </trkpt>
      <trkpt lat="42.325256" lon="1.954468">
        <ele>1819.2</ele>
        <time>2018-06-11T09:46:06Z</time>
      </trkpt>
      <trkpt lat="42.325444" lon="1.954325">
        <ele>1814.5</ele>
        <time>2018-06-11T09:46:12Z</time>
      </trkpt>
      <trkpt lat="42.325639" lon="1.954177">
        <ele>1811.8</ele>
        <time>2018-06-11T09:46:18Z</time>
      </trkpt>
      <trkpt lat="42.325861" lon="1.954007">
        <ele>1808.0</ele>
        <time>2018-06-11T09:46:25Z</time>
      </trkpt>
      <trkpt lat="42.326198" lon="1.953728">
        <ele>1801.7</ele>
        <time>2018-06-11T09:46:35Z</time>
      </trkpt>
      <trkpt lat="42.326458" lon="1.953496">
        <ele>1801.5</ele>
        <time>2018-06-11T09:46:43Z</time>
      </trkpt>
      <trkpt lat="42.326804" lon="1.953232">
        <ele>1801.5</ele>
        <time>2018-06-11T09:46:54Z</time>
      </trkpt>
      <trkpt lat="42.327000" lon="1.953144">
        <ele>1796.1</ele>
        <time>2018-06-11T09:47:00Z</time>
      </trkpt>
      <trkpt lat="42.327217" lon="1.953009">
        <ele>1793.6</ele>
        <time>2018-06-11T09:47:06Z</time>
      </trkpt>
      <trkpt lat="42.327328" lon="1.952917">
        <ele>1792.8</ele>
        <time>2018-06-11T09:47:09Z</time>
      </trkpt>
      <trkpt lat="42.327393" lon="1.952858">
        <ele>1791.1</ele>
        <time>2018-06-11T09:47:11Z</time>
      </trkpt>
      <trkpt lat="42.327435" lon="1.952740">
        <ele>1790.2</ele>
        <time>2018-06-11T09:47:14Z</time>
      </trkpt>
      <trkpt lat="42.327514" lon="1.952507">
        <ele>1788.1</ele>
        <time>2018-06-11T09:47:19Z</time>
      </trkpt>
      <trkpt lat="42.327564" lon="1.952325">
        <ele>1787.4</ele>
        <time>2018-06-11T09:47:23Z</time>
      </trkpt>
      <trkpt lat="42.327581" lon="1.952214">
        <ele>1788.1</ele>
        <time>2018-06-11T09:47:25Z</time>
      </trkpt>
      <trkpt lat="42.327633" lon="1.952070">
        <ele>1788.3</ele>
        <time>2018-06-11T09:47:28Z</time>
      </trkpt>
      <trkpt lat="42.327717" lon="1.951922">
        <ele>1786.2</ele>
        <time>2018-06-11T09:47:32Z</time>
      </trkpt>
      <trkpt lat="42.327859" lon="1.951695">
        <ele>1782.1</ele>
        <time>2018-06-11T09:47:38Z</time>
      </trkpt>
      <trkpt lat="42.327998" lon="1.951506">
        <ele>1776.3</ele>
        <time>2018-06-11T09:47:43Z</time>
      </trkpt>
      <trkpt lat="42.328088" lon="1.951364">
        <ele>1772.6</ele>
        <time>2018-06-11T09:47:47Z</time>
      </trkpt>
      <trkpt lat="42.328175" lon="1.951191">
        <ele>1770.0</ele>
        <time>2018-06-11T09:47:51Z</time>
      </trkpt>
      <trkpt lat="42.328344" lon="1.950922">
        <ele>1766.1</ele>
        <time>2018-06-11T09:47:58Z</time>
      </trkpt>
      <trkpt lat="42.328440" lon="1.950829">
        <ele>1760.1</ele>
        <time>2018-06-11T09:48:02Z</time>
      </trkpt>
      <trkpt lat="42.328589" lon="1.950667">
        <ele>1754.3</ele>
        <time>2018-06-11T09:48:07Z</time>
      </trkpt>
      <trkpt lat="42.328677" lon="1.950617">
        <ele>1752.8</ele>
        <time>2018-06-11T09:48:09Z</time>
      </trkpt>
      <trkpt lat="42.328703" lon="1.950555">
        <ele>1752.3</ele>
        <time>2018-06-11T09:48:11Z</time>
      </trkpt>
      <trkpt lat="42.328698" lon="1.950458">
        <ele>1752.1</ele>
        <time>2018-06-11T09:48:13Z</time>
      </trkpt>
      <trkpt lat="42.328679" lon="1.950319">
        <ele>1752.2</ele>
        <time>2018-06-11T09:48:15Z</time>
      </trkpt>
      <trkpt lat="42.328616" lon="1.949907">
        <ele>1753.8</ele>
        <time>2018-06-11T09:48:24Z</time>
      </trkpt>
      <trkpt lat="42.328601" lon="1.949707">
        <ele>1754.1</ele>
        <time>2018-06-11T09:48:28Z</time>
      </trkpt>
      <trkpt lat="42.328662" lon="1.949451">
        <ele>1752.4</ele>
        <time>2018-06-11T09:48:33Z</time>
      </trkpt>
      <trkpt lat="42.328687" lon="1.949263">
        <ele>1753.2</ele>
        <time>2018-06-11T09:48:37Z</time>
      </trkpt>
      <trkpt lat="42.328717" lon="1.949117">
        <ele>1754.5</ele>
        <time>2018-06-11T09:48:40Z</time>
      </trkpt>
      <trkpt lat="42.328794" lon="1.949109">
        <ele>1753.4</ele>
        <time>2018-06-11T09:48:42Z</time>
      </trkpt>
      <trkpt lat="42.328880" lon="1.949181">
        <ele>1751.8</ele>
        <time>2018-06-11T09:48:44Z</time>
      </trkpt>
      <trkpt lat="42.328961" lon="1.949198">
        <ele>1751.2</ele>
        <time>2018-06-11T09:48:47Z</time>
      </trkpt>
      <trkpt lat="42.329303" lon="1.949186">
        <ele>1752.2</ele>
        <time>2018-06-11T09:48:56Z</time>
      </trkpt>
      <trkpt lat="42.329506" lon="1.949201">
        <ele>1752.3</ele>
        <time>2018-06-11T09:49:01Z</time>
      </trkpt>
      <trkpt lat="42.329812" lon="1.949040">
        <ele>1750.7</ele>
        <time>2018-06-11T09:49:10Z</time>
      </trkpt>
      <trkpt lat="42.330191" lon="1.948710">
        <ele>1750.4</ele>
        <time>2018-06-11T09:49:22Z</time>
      </trkpt>
      <trkpt lat="42.330308" lon="1.948550">
        <ele>1747.5</ele>
        <time>2018-06-11T09:49:26Z</time>
      </trkpt>
      <trkpt lat="42.330452" lon="1.948307">
        <ele>1745.5</ele>
        <time>2018-06-11T09:49:32Z</time>
      </trkpt>
      <trkpt lat="42.330779" lon="1.947568">
        <ele>1750.8</ele>
        <time>2018-06-11T09:49:49Z</time>
      </trkpt>
      <trkpt lat="42.330973" lon="1.947067">
        <ele>1742.0</ele>
        <time>2018-06-11T09:50:00Z</time>
      </trkpt>
      <trkpt lat="42.331106" lon="1.946679">
        <ele>1740.7</ele>
        <time>2018-06-11T09:50:09Z</time>
      </trkpt>
      <trkpt lat="42.331285" lon="1.946208">
        <ele>1741.6</ele>
        <time>2018-06-11T09:50:19Z</time>
      </trkpt>
      <trkpt lat="42.331411" lon="1.945931">
        <ele>1740.0</ele>
        <time>2018-06-11T09:50:25Z</time>
      </trkpt>
      <trkpt lat="42.331594" lon="1.945550">
        <ele>1737.7</ele>
        <time>2018-06-11T09:50:34Z</time>
      </trkpt>
      <trkpt lat="42.331642" lon="1.945474">
        <ele>1737.6</ele>
        <time>2018-06-11T09:50:36Z</time>
      </trkpt>
      <trkpt lat="42.331699" lon="1.945426">
        <ele>1736.4</ele>
        <time>2018-06-11T09:50:38Z</time>
      </trkpt>
      <trkpt lat="42.331767" lon="1.945391">
        <ele>1734.5</ele>
        <time>2018-06-11T09:50:40Z</time>
      </trkpt>
      <trkpt lat="42.331863" lon="1.945357">
        <ele>1733.2</ele>
        <time>2018-06-11T09:50:43Z</time>
      </trkpt>
      <trkpt lat="42.331973" lon="1.945348">
        <ele>1732.0</ele>
        <time>2018-06-11T09:50:46Z</time>
      </trkpt>
      <trkpt lat="42.332072" lon="1.945362">
        <ele>1730.3</ele>
        <time>2018-06-11T09:50:48Z</time>
      </trkpt>
      <trkpt lat="42.332209" lon="1.945404">
        <ele>1729.3</ele>
        <time>2018-06-11T09:50:52Z</time>
      </trkpt>
      <trkpt lat="42.332333" lon="1.945467">
        <ele>1728.1</ele>
        <time>2018-06-11T09:50:56Z</time>
      </trkpt>
      <trkpt lat="42.332681" lon="1.945597">
        <ele>1728.1</ele>
        <time>2018-06-11T09:51:05Z</time>
      </trkpt>
      <trkpt lat="42.332860" lon="1.945670">
        <ele>1729.6</ele>
        <time>2018-06-11T09:51:10Z</time>
      </trkpt>
      <trkpt lat="42.332931" lon="1.945693">
        <ele>1730.0</ele>
        <time>2018-06-11T09:51:12Z</time>
      </trkpt>
      <trkpt lat="42.333002" lon="1.945702">
        <ele>1729.8</ele>
        <time>2018-06-11T09:51:14Z</time>
      </trkpt>
      <trkpt lat="42.333076" lon="1.945697">
        <ele>1730.0</ele>
        <time>2018-06-11T09:51:16Z</time>
      </trkpt>
      <trkpt lat="42.333331" lon="1.945659">
        <ele>1731.0</ele>
        <time>2018-06-11T09:51:23Z</time>
      </trkpt>
      <trkpt lat="42.333602" lon="1.945601">
        <ele>1730.8</ele>
        <time>2018-06-11T09:51:30Z</time>
      </trkpt>
      <trkpt lat="42.333734" lon="1.945544">
        <ele>1730.1</ele>
        <time>2018-06-11T09:51:34Z</time>
      </trkpt>
      <trkpt lat="42.333831" lon="1.945476">
        <ele>1729.5</ele>
        <time>2018-06-11T09:51:37Z</time>
      </trkpt>
      <trkpt lat="42.333888" lon="1.945427">
        <ele>1729.3</ele>
        <time>2018-06-11T09:51:38Z</time>
      </trkpt>
      <trkpt lat="42.333941" lon="1.945328">
        <ele>1730.8</ele>
        <time>2018-06-11T09:51:41Z</time>
      </trkpt>
      <trkpt lat="42.334003" lon="1.945190">
        <ele>1732.6</ele>
        <time>2018-06-11T09:51:44Z</time>
      </trkpt>
      <trkpt lat="42.334364" lon="1.944467">
        <ele>1729.5</ele>
        <time>2018-06-11T09:52:01Z</time>
      </trkpt>
      <trkpt lat="42.334517" lon="1.944229">
        <ele>1728.0</ele>
        <time>2018-06-11T09:52:07Z</time>
      </trkpt>
      <trkpt lat="42.334666" lon="1.944030">
        <ele>1726.3</ele>
        <time>2018-06-11T09:52:13Z</time>
      </trkpt>
      <trkpt lat="42.334747" lon="1.943947">
        <ele>1727.1</ele>
        <time>2018-06-11T09:52:15Z</time>
      </trkpt>
      <trkpt lat="42.334803" lon="1.943880">
        <ele>1728.1</ele>
        <time>2018-06-11T09:52:17Z</time>
      </trkpt>
      <trkpt lat="42.334852" lon="1.943773">
        <ele>1729.6</ele>
        <time>2018-06-11T09:52:20Z</time>
      </trkpt>
      <trkpt lat="42.334875" lon="1.943674">
        <ele>1729.1</ele>
        <time>2018-06-11T09:52:22Z</time>
      </trkpt>
      <trkpt lat="42.334888" lon="1.943590">
        <ele>1728.1</ele>
        <time>2018-06-11T09:52:24Z</time>
      </trkpt>
      <trkpt lat="42.334891" lon="1.943504">
        <ele>1727.2</ele>
        <time>2018-06-11T09:52:25Z</time>
      </trkpt>
      <trkpt lat="42.334891" lon="1.943441">
        <ele>1726.5</ele>
        <time>2018-06-11T09:52:27Z</time>
      </trkpt>
      <trkpt lat="42.334888" lon="1.943363">
        <ele>1725.6</ele>
        <time>2018-06-11T09:52:28Z</time>
      </trkpt>
      <trkpt lat="42.334898" lon="1.943312">
        <ele>1725.0</ele>
        <time>2018-06-11T09:52:29Z</time>
      </trkpt>
      <trkpt lat="42.334921" lon="1.943256">
        <ele>1724.1</ele>
        <time>2018-06-11T09:52:31Z</time>
      </trkpt>
      <trkpt lat="42.334955" lon="1.943200">
        <ele>1723.1</ele>
        <time>2018-06-11T09:52:32Z</time>
      </trkpt>
      <trkpt lat="42.334965" lon="1.943153">
        <ele>1722.1</ele>
        <time>2018-06-11T09:52:33Z</time>
      </trkpt>
      <trkpt lat="42.334962" lon="1.943087">
        <ele>1720.8</ele>
        <time>2018-06-11T09:52:34Z</time>
      </trkpt>
      <trkpt lat="42.334932" lon="1.943015">
        <ele>1719.8</ele>
        <time>2018-06-11T09:52:36Z</time>
      </trkpt>
      <trkpt lat="42.334891" lon="1.942933">
        <ele>1718.9</ele>
        <time>2018-06-11T09:52:38Z</time>
      </trkpt>
      <trkpt lat="42.334851" lon="1.942828">
        <ele>1715.7</ele>
        <time>2018-06-11T09:52:40Z</time>
      </trkpt>
      <trkpt lat="42.334841" lon="1.942764">
        <ele>1713.4</ele>
        <time>2018-06-11T09:52:42Z</time>
      </trkpt>
      <trkpt lat="42.334855" lon="1.942713">
        <ele>1711.7</ele>
        <time>2018-06-11T09:52:43Z</time>
      </trkpt>
      <trkpt lat="42.334906" lon="1.942684">
        <ele>1709.9</ele>
        <time>2018-06-11T09:52:44Z</time>
      </trkpt>
      <trkpt lat="42.334985" lon="1.942698">
        <ele>1709.3</ele>
        <time>2018-06-11T09:52:46Z</time>
      </trkpt>
      <trkpt lat="42.335187" lon="1.942757">
        <ele>1707.6</ele>
        <time>2018-06-11T09:52:52Z</time>
      </trkpt>
      <trkpt lat="42.335958" lon="1.943035">
        <ele>1697.0</ele>
        <time>2018-06-11T09:53:13Z</time>
      </trkpt>
      <trkpt lat="42.336311" lon="1.943257">
        <ele>1698.8</ele>
        <time>2018-06-11T09:53:24Z</time>
      </trkpt>
      <trkpt lat="42.336656" lon="1.943491">
        <ele>1697.5</ele>
        <time>2018-06-11T09:53:34Z</time>
      </trkpt>
      <trkpt lat="42.336789" lon="1.943564">
        <ele>1696.0</ele>
        <time>2018-06-11T09:53:38Z</time>
      </trkpt>
      <trkpt lat="42.336845" lon="1.943586">
        <ele>1695.7</ele>
        <time>2018-06-11T09:53:39Z</time>
      </trkpt>
      <trkpt lat="42.336881" lon="1.943591">
        <ele>1695.4</ele>
        <time>2018-06-11T09:53:40Z</time>
      </trkpt>
      <trkpt lat="42.336899" lon="1.943584">
        <ele>1695.1</ele>
        <time>2018-06-11T09:53:41Z</time>
      </trkpt>
      <trkpt lat="42.336910" lon="1.943559">
        <ele>1694.5</ele>
        <time>2018-06-11T09:53:41Z</time>
      </trkpt>
      <trkpt lat="42.336912" lon="1.943527">
        <ele>1693.9</ele>
        <time>2018-06-11T09:53:42Z</time>
      </trkpt>
      <trkpt lat="42.336902" lon="1.943484">
        <ele>1693.2</ele>
        <time>2018-06-11T09:53:43Z</time>
      </trkpt>
      <trkpt lat="42.336874" lon="1.943417">
        <ele>1692.7</ele>
        <time>2018-06-11T09:53:44Z</time>
      </trkpt>
      <trkpt lat="42.336798" lon="1.943225">
        <ele>1691.4</ele>
        <time>2018-06-11T09:53:48Z</time>
      </trkpt>
      <trkpt lat="42.336677" lon="1.942915">
        <ele>1686.7</ele>
        <time>2018-06-11T09:53:55Z</time>
      </trkpt>
      <trkpt lat="42.336541" lon="1.942493">
        <ele>1680.5</ele>
        <time>2018-06-11T09:54:05Z</time>
      </trkpt>
      <trkpt lat="42.336531" lon="1.942417">
        <ele>1680.2</ele>
        <time>2018-06-11T09:54:06Z</time>
      </trkpt>
      <trkpt lat="42.336532" lon="1.942327">
        <ele>1680.1</ele>
        <time>2018-06-11T09:54:08Z</time>
      </trkpt>
      <trkpt lat="42.336532" lon="1.942272">
        <ele>1680.3</ele>
        <time>2018-06-11T09:54:09Z</time>
      </trkpt>
      <trkpt lat="42.336579" lon="1.942206">
        <ele>1680.6</ele>
        <time>2018-06-11T09:54:11Z</time>
      </trkpt>
      <trkpt lat="42.336771" lon="1.942117">
        <ele>1680.9</ele>
        <time>2018-06-11T09:54:16Z</time>
      </trkpt>
      <trkpt lat="42.337005" lon="1.941971">
        <ele>1681.0</ele>
        <time>2018-06-11T09:54:23Z</time>
      </trkpt>
      <trkpt lat="42.337161" lon="1.941856">
        <ele>1680.8</ele>
        <time>2018-06-11T09:54:28Z</time>
      </trkpt>
      <trkpt lat="42.337270" lon="1.941691">
        <ele>1680.2</ele>
        <time>2018-06-11T09:54:32Z</time>
      </trkpt>
      <trkpt lat="42.337345" lon="1.941506">
        <ele>1680.2</ele>
        <time>2018-06-11T09:54:36Z</time>
      </trkpt>
      <trkpt lat="42.337354" lon="1.941328">
        <ele>1681.4</ele>
        <time>2018-06-11T09:54:40Z</time>
      </trkpt>
      <trkpt lat="42.337330" lon="1.941234">
        <ele>1681.8</ele>
        <time>2018-06-11T09:54:42Z</time>
      </trkpt>
      <trkpt lat="42.337287" lon="1.941120">
        <ele>1681.5</ele>
        <time>2018-06-11T09:54:44Z</time>
      </trkpt>
      <trkpt lat="42.336720" lon="1.940283">
        <ele>1678.2</ele>
        <time>2018-06-11T09:55:06Z</time>
      </trkpt>
      <trkpt lat="42.336483" lon="1.939897">
        <ele>1674.2</ele>
        <time>2018-06-11T09:55:16Z</time>
      </trkpt>
      <trkpt lat="42.336355" lon="1.939697">
        <ele>1668.8</ele>
        <time>2018-06-11T09:55:21Z</time>
      </trkpt>
      <trkpt lat="42.335869" lon="1.938754">
        <ele>1666.9</ele>
        <time>2018-06-11T09:55:44Z</time>
      </trkpt>
      <trkpt lat="42.335727" lon="1.938451">
        <ele>1666.6</ele>
        <time>2018-06-11T09:55:51Z</time>
      </trkpt>
      <trkpt lat="42.335674" lon="1.938284">
        <ele>1665.2</ele>
        <time>2018-06-11T09:55:55Z</time>
      </trkpt>
      <trkpt lat="42.335645" lon="1.938164">
        <ele>1664.4</ele>
        <time>2018-06-11T09:55:57Z</time>
      </trkpt>
      <trkpt lat="42.335633" lon="1.938057">
        <ele>1664.2</ele>
        <time>2018-06-11T09:55:59Z</time>
      </trkpt>
      <trkpt lat="42.335645" lon="1.937972">
        <ele>1663.7</ele>
        <time>2018-06-11T09:56:01Z</time>
      </trkpt>
      <trkpt lat="42.335671" lon="1.937858">
        <ele>1663.0</ele>
        <time>2018-06-11T09:56:03Z</time>
      </trkpt>
      <trkpt lat="42.335713" lon="1.937732">
        <ele>1662.4</ele>
        <time>2018-06-11T09:56:06Z</time>
      </trkpt>
      <trkpt lat="42.335828" lon="1.937523">
        <ele>1661.6</ele>
        <time>2018-06-11T09:56:11Z</time>
      </trkpt>
      <trkpt lat="42.335992" lon="1.937252">
        <ele>1660.3</ele>
        <time>2018-06-11T09:56:18Z</time>
      </trkpt>
      <trkpt lat="42.336015" lon="1.937197">
        <ele>1660.0</ele>
        <time>2018-06-11T09:56:19Z</time>
      </trkpt>
      <trkpt lat="42.336016" lon="1.937152">
        <ele>1659.7</ele>
        <time>2018-06-11T09:56:20Z</time>
      </trkpt>
      <trkpt lat="42.336008" lon="1.937106">
        <ele>1659.4</ele>
        <time>2018-06-11T09:56:21Z</time>
      </trkpt>
      <trkpt lat="42.335989" lon="1.937070">
        <ele>1659.0</ele>
        <time>2018-06-11T09:56:22Z</time>
      </trkpt>
      <trkpt lat="42.335958" lon="1.937032">
        <ele>1658.3</ele>
        <time>2018-06-11T09:56:23Z</time>
      </trkpt>
      <trkpt lat="42.335893" lon="1.936993">
        <ele>1657.1</ele>
        <time>2018-06-11T09:56:25Z</time>
      </trkpt>
      <trkpt lat="42.335751" lon="1.936925">
        <ele>1654.4</ele>
        <time>2018-06-11T09:56:29Z</time>
      </trkpt>
      <trkpt lat="42.335535" lon="1.936788">
        <ele>1655.3</ele>
        <time>2018-06-11T09:56:35Z</time>
      </trkpt>
      <trkpt lat="42.335407" lon="1.936707">
        <ele>1657.8</ele>
        <time>2018-06-11T09:56:39Z</time>
      </trkpt>
      <trkpt lat="42.335320" lon="1.936636">
        <ele>1659.0</ele>
        <time>2018-06-11T09:56:42Z</time>
      </trkpt>
      <trkpt lat="42.335253" lon="1.936481">
        <ele>1659.6</ele>
        <time>2018-06-11T09:56:45Z</time>
      </trkpt>
      <trkpt lat="42.335218" lon="1.936391">
        <ele>1659.6</ele>
        <time>2018-06-11T09:56:47Z</time>
      </trkpt>
      <trkpt lat="42.335174" lon="1.936216">
        <ele>1659.2</ele>
        <time>2018-06-11T09:56:51Z</time>
      </trkpt>
      <trkpt lat="42.335159" lon="1.936098">
        <ele>1659.0</ele>
        <time>2018-06-11T09:56:53Z</time>
      </trkpt>
      <trkpt lat="42.335146" lon="1.935828">
        <ele>1656.8</ele>
        <time>2018-06-11T09:56:58Z</time>
      </trkpt>
      <trkpt lat="42.335140" lon="1.935734">
        <ele>1655.5</ele>
        <time>2018-06-11T09:57:00Z</time>
      </trkpt>
      <trkpt lat="42.335121" lon="1.935610">
        <ele>1654.7</ele>
        <time>2018-06-11T09:57:03Z</time>
      </trkpt>
      <trkpt lat="42.335087" lon="1.935517">
        <ele>1654.5</ele>
        <time>2018-06-11T09:57:05Z</time>
      </trkpt>
      <trkpt lat="42.335015" lon="1.935364">
        <ele>1654.5</ele>
        <time>2018-06-11T09:57:08Z</time>
      </trkpt>
      <trkpt lat="42.334974" lon="1.935269">
        <ele>1654.5</ele>
        <time>2018-06-11T09:57:11Z</time>
      </trkpt>
      <trkpt lat="42.334948" lon="1.935166">
        <ele>1654.2</ele>
        <time>2018-06-11T09:57:13Z</time>
      </trkpt>
      <trkpt lat="42.334934" lon="1.935078">
        <ele>1653.9</ele>
        <time>2018-06-11T09:57:14Z</time>
      </trkpt>
      <trkpt lat="42.334935" lon="1.934982">
        <ele>1653.4</ele>
        <time>2018-06-11T09:57:16Z</time>
      </trkpt>
      <trkpt lat="42.334963" lon="1.934847">
        <ele>1652.5</ele>
        <time>2018-06-11T09:57:19Z</time>
      </trkpt>
      <trkpt lat="42.335030" lon="1.934547">
        <ele>1649.5</ele>
        <time>2018-06-11T09:57:25Z</time>
      </trkpt>
      <trkpt lat="42.335077" lon="1.934271">
        <ele>1647.6</ele>
        <time>2018-06-11T09:57:31Z</time>
      </trkpt>
      <trkpt lat="42.335124" lon="1.933996">
        <ele>1648.4</ele>
        <time>2018-06-11T09:57:36Z</time>
      </trkpt>
      <trkpt lat="42.335186" lon="1.933644">
        <ele>1650.5</ele>
        <time>2018-06-11T09:57:43Z</time>
      </trkpt>
      <trkpt lat="42.335230" lon="1.933460">
        <ele>1651.8</ele>
        <time>2018-06-11T09:57:47Z</time>
      </trkpt>
      <trkpt lat="42.335286" lon="1.933303">
        <ele>1652.7</ele>
        <time>2018-06-11T09:57:51Z</time>
      </trkpt>
      <trkpt lat="42.335357" lon="1.933188">
        <ele>1653.2</ele>
        <time>2018-06-11T09:57:54Z</time>
      </trkpt>
      <trkpt lat="42.335592" lon="1.932898">
        <ele>1652.4</ele>
        <time>2018-06-11T09:58:02Z</time>
      </trkpt>
      <trkpt lat="42.335786" lon="1.932727">
        <ele>1652.6</ele>
        <time>2018-06-11T09:58:08Z</time>
      </trkpt>
      <trkpt lat="42.336154" lon="1.932335">
        <ele>1654.5</ele>
        <time>2018-06-11T09:58:21Z</time>
      </trkpt>
      <trkpt lat="42.336234" lon="1.932244">
        <ele>1654.9</ele>
        <time>2018-06-11T09:58:23Z</time>
      </trkpt>
      <trkpt lat="42.336284" lon="1.932188">
        <ele>1655.0</ele>
        <time>2018-06-11T09:58:25Z</time>
      </trkpt>
      <trkpt lat="42.336324" lon="1.932097">
        <ele>1655.4</ele>
        <time>2018-06-11T09:58:27Z</time>
      </trkpt>
      <trkpt lat="42.336362" lon="1.931990">
        <ele>1655.9</ele>
        <time>2018-06-11T09:58:29Z</time>
      </trkpt>
      <trkpt lat="42.336400" lon="1.931894">
        <ele>1656.3</ele>
        <time>2018-06-11T09:58:32Z</time>
      </trkpt>
      <trkpt lat="42.336438" lon="1.931782">
        <ele>1656.5</ele>
        <time>2018-06-11T09:58:34Z</time>
      </trkpt>
      <trkpt lat="42.336473" lon="1.931748">
        <ele>1655.9</ele>
        <time>2018-06-11T09:58:35Z</time>
      </trkpt>
      <trkpt lat="42.336511" lon="1.931743">
        <ele>1655.5</ele>
        <time>2018-06-11T09:58:36Z</time>
      </trkpt>
      <trkpt lat="42.336544" lon="1.931764">
        <ele>1655.3</ele>
        <time>2018-06-11T09:58:37Z</time>
      </trkpt>
      <trkpt lat="42.336561" lon="1.931805">
        <ele>1655.4</ele>
        <time>2018-06-11T09:58:38Z</time>
      </trkpt>
      <trkpt lat="42.336570" lon="1.931872">
        <ele>1654.8</ele>
        <time>2018-06-11T09:58:39Z</time>
      </trkpt>
      <trkpt lat="42.336567" lon="1.931936">
        <ele>1654.5</ele>
        <time>2018-06-11T09:58:41Z</time>
      </trkpt>
      <trkpt lat="42.336552" lon="1.932019">
        <ele>1654.2</ele>
        <time>2018-06-11T09:58:42Z</time>
      </trkpt>
      <trkpt lat="42.336514" lon="1.932137">
        <ele>1653.5</ele>
        <time>2018-06-11T09:58:45Z</time>
      </trkpt>
      <trkpt lat="42.336175" lon="1.932913">
        <ele>1648.1</ele>
        <time>2018-06-11T09:59:03Z</time>
      </trkpt>
      <trkpt lat="42.335948" lon="1.933396">
        <ele>1641.3</ele>
        <time>2018-06-11T09:59:14Z</time>
      </trkpt>
      <trkpt lat="42.335926" lon="1.933446">
        <ele>1640.5</ele>
        <time>2018-06-11T09:59:15Z</time>
      </trkpt>
      <trkpt lat="42.335915" lon="1.933517">
        <ele>1639.4</ele>
        <time>2018-06-11T09:59:16Z</time>
      </trkpt>
      <trkpt lat="42.335932" lon="1.933546">
        <ele>1638.7</ele>
        <time>2018-06-11T09:59:17Z</time>
      </trkpt>
      <trkpt lat="42.335962" lon="1.933538">
        <ele>1638.2</ele>
        <time>2018-06-11T09:59:18Z</time>
      </trkpt>
      <trkpt lat="42.335995" lon="1.933513">
        <ele>1638.2</ele>
        <time>2018-06-11T09:59:19Z</time>
      </trkpt>
      <trkpt lat="42.336263" lon="1.933169">
        <ele>1643.2</ele>
        <time>2018-06-11T09:59:29Z</time>
      </trkpt>
      <trkpt lat="42.336571" lon="1.932808">
        <ele>1645.8</ele>
        <time>2018-06-11T09:59:40Z</time>
      </trkpt>
      <trkpt lat="42.336815" lon="1.932578">
        <ele>1645.9</ele>
        <time>2018-06-11T09:59:48Z</time>
      </trkpt>
      <trkpt lat="42.336898" lon="1.932527">
        <ele>1646.9</ele>
        <time>2018-06-11T09:59:50Z</time>
      </trkpt>
      <trkpt lat="42.336970" lon="1.932505">
        <ele>1647.5</ele>
        <time>2018-06-11T09:59:52Z</time>
      </trkpt>
      <trkpt lat="42.337065" lon="1.932484">
        <ele>1648.3</ele>
        <time>2018-06-11T09:59:54Z</time>
      </trkpt>
      <trkpt lat="42.337133" lon="1.932497">
        <ele>1648.1</ele>
        <time>2018-06-11T09:59:56Z</time>
      </trkpt>
      <trkpt lat="42.337335" lon="1.932550">
        <ele>1646.9</ele>
        <time>2018-06-11T10:00:02Z</time>
      </trkpt>
      <trkpt lat="42.337428" lon="1.932562">
        <ele>1644.8</ele>
        <time>2018-06-11T10:00:04Z</time>
      </trkpt>
      <trkpt lat="42.337487" lon="1.932564">
        <ele>1643.2</ele>
        <time>2018-06-11T10:00:06Z</time>
      </trkpt>
      <trkpt lat="42.337599" lon="1.932535">
        <ele>1640.6</ele>
        <time>2018-06-11T10:00:09Z</time>
      </trkpt>
      <trkpt lat="42.337719" lon="1.932474">
        <ele>1636.0</ele>
        <time>2018-06-11T10:00:13Z</time>
      </trkpt>
      <trkpt lat="42.337900" lon="1.932355">
        <ele>1627.0</ele>
        <time>2018-06-11T10:00:18Z</time>
      </trkpt>
      <trkpt lat="42.338012" lon="1.932225">
        <ele>1622.7</ele>
        <time>2018-06-11T10:00:22Z</time>
      </trkpt>
      <trkpt lat="42.338110" lon="1.932038">
        <ele>1619.4</ele>
        <time>2018-06-11T10:00:27Z</time>
      </trkpt>
      <trkpt lat="42.338195" lon="1.931792">
        <ele>1617.0</ele>
        <time>2018-06-11T10:00:32Z</time>
      </trkpt>
      <trkpt lat="42.338227" lon="1.931622">
        <ele>1616.8</ele>
        <time>2018-06-11T10:00:36Z</time>
      </trkpt>
      <trkpt lat="42.338238" lon="1.931482">
        <ele>1616.4</ele>
        <time>2018-06-11T10:00:38Z</time>
      </trkpt>
      <trkpt lat="42.338239" lon="1.931349">
        <ele>1615.0</ele>
        <time>2018-06-11T10:00:41Z</time>
      </trkpt>
      <trkpt lat="42.338178" lon="1.931235">
        <ele>1615.1</ele>
        <time>2018-06-11T10:00:44Z</time>
      </trkpt>
      <trkpt lat="42.338095" lon="1.931137">
        <ele>1615.0</ele>
        <time>2018-06-11T10:00:47Z</time>
      </trkpt>
      <trkpt lat="42.337909" lon="1.931018">
        <ele>1614.2</ele>
        <time>2018-06-11T10:00:52Z</time>
      </trkpt>
      <trkpt lat="42.337702" lon="1.930905">
        <ele>1614.1</ele>
        <time>2018-06-11T10:00:58Z</time>
      </trkpt>
      <trkpt lat="42.337472" lon="1.930725">
        <ele>1616.6</ele>
        <time>2018-06-11T10:01:05Z</time>
      </trkpt>
      <trkpt lat="42.337233" lon="1.930434">
        <ele>1615.1</ele>
        <time>2018-06-11T10:01:14Z</time>
      </trkpt>
      <trkpt lat="42.337156" lon="1.930334">
        <ele>1614.6</ele>
        <time>2018-06-11T10:01:16Z</time>
      </trkpt>
      <trkpt lat="42.337097" lon="1.930210">
        <ele>1613.2</ele>
        <time>2018-06-11T10:01:19Z</time>
      </trkpt>
      <trkpt lat="42.337056" lon="1.930067">
        <ele>1611.6</ele>
        <time>2018-06-11T10:01:22Z</time>
      </trkpt>
      <trkpt lat="42.337065" lon="1.929952">
        <ele>1609.7</ele>
        <time>2018-06-11T10:01:25Z</time>
      </trkpt>
      <trkpt lat="42.337110" lon="1.929771">
        <ele>1607.4</ele>
        <time>2018-06-11T10:01:28Z</time>
      </trkpt>
      <trkpt lat="42.337168" lon="1.929633">
        <ele>1606.2</ele>
        <time>2018-06-11T10:01:32Z</time>
      </trkpt>
      <trkpt lat="42.337233" lon="1.929498">
        <ele>1605.7</ele>
        <time>2018-06-11T10:01:35Z</time>
      </trkpt>
      <trkpt lat="42.337286" lon="1.929396">
        <ele>1605.6</ele>
        <time>2018-06-11T10:01:37Z</time>
      </trkpt>
      <trkpt lat="42.337361" lon="1.929210">
        <ele>1607.4</ele>
        <time>2018-06-11T10:01:41Z</time>
      </trkpt>
      <trkpt lat="42.337455" lon="1.929122">
        <ele>1612.0</ele>
        <time>2018-06-11T10:01:45Z</time>
      </trkpt>
      <trkpt lat="42.337544" lon="1.929110">
        <ele>1614.6</ele>
        <time>2018-06-11T10:01:47Z</time>
      </trkpt>
      <trkpt lat="42.337621" lon="1.929134">
        <ele>1615.9</ele>
        <time>2018-06-11T10:01:49Z</time>
      </trkpt>
      <trkpt lat="42.337792" lon="1.929208">
        <ele>1616.5</ele>
        <time>2018-06-11T10:01:54Z</time>
      </trkpt>
      <trkpt lat="42.337929" lon="1.929267">
        <ele>1616.5</ele>
        <time>2018-06-11T10:01:58Z</time>
      </trkpt>
      <trkpt lat="42.338065" lon="1.929301">
        <ele>1617.3</ele>
        <time>2018-06-11T10:02:01Z</time>
      </trkpt>
      <trkpt lat="42.338210" lon="1.929312">
        <ele>1619.3</ele>
        <time>2018-06-11T10:02:05Z</time>
      </trkpt>
      <trkpt lat="42.338384" lon="1.929293">
        <ele>1624.3</ele>
        <time>2018-06-11T10:02:10Z</time>
      </trkpt>
      <trkpt lat="42.338693" lon="1.929233">
        <ele>1631.0</ele>
        <time>2018-06-11T10:02:18Z</time>
      </trkpt>
      <trkpt lat="42.338861" lon="1.929190">
        <ele>1633.5</ele>
        <time>2018-06-11T10:02:23Z</time>
      </trkpt>
      <trkpt lat="42.339029" lon="1.929105">
        <ele>1637.7</ele>
        <time>2018-06-11T10:02:28Z</time>
      </trkpt>
      <trkpt lat="42.339195" lon="1.929024">
        <ele>1644.2</ele>
        <time>2018-06-11T10:02:33Z</time>
      </trkpt>
      <trkpt lat="42.339356" lon="1.928976">
        <ele>1648.2</ele>
        <time>2018-06-11T10:02:37Z</time>
      </trkpt>
      <trkpt lat="42.339527" lon="1.928952">
        <ele>1650.6</ele>
        <time>2018-06-11T10:02:42Z</time>
      </trkpt>
      <trkpt lat="42.339766" lon="1.928955">
        <ele>1652.4</ele>
        <time>2018-06-11T10:02:48Z</time>
      </trkpt>
      <trkpt lat="42.339979" lon="1.928986">
        <ele>1654.2</ele>
        <time>2018-06-11T10:02:54Z</time>
      </trkpt>
      <trkpt lat="42.340122" lon="1.929024">
        <ele>1655.8</ele>
        <time>2018-06-11T10:02:58Z</time>
      </trkpt>
      <trkpt lat="42.340199" lon="1.929071">
        <ele>1654.3</ele>
        <time>2018-06-11T10:03:00Z</time>
      </trkpt>
      <trkpt lat="42.340303" lon="1.929139">
        <ele>1652.6</ele>
        <time>2018-06-11T10:03:03Z</time>
      </trkpt>
      <trkpt lat="42.340409" lon="1.929224">
        <ele>1651.1</ele>
        <time>2018-06-11T10:03:06Z</time>
      </trkpt>
      <trkpt lat="42.340500" lon="1.929295">
        <ele>1650.2</ele>
        <time>2018-06-11T10:03:09Z</time>
      </trkpt>
      <trkpt lat="42.340567" lon="1.929325">
        <ele>1650.1</ele>
        <time>2018-06-11T10:03:11Z</time>
      </trkpt>
      <trkpt lat="42.340644" lon="1.929349">
        <ele>1650.7</ele>
        <time>2018-06-11T10:03:13Z</time>
      </trkpt>
      <trkpt lat="42.340710" lon="1.929393">
        <ele>1649.4</ele>
        <time>2018-06-11T10:03:15Z</time>
      </trkpt>
      <trkpt lat="42.340796" lon="1.929446">
        <ele>1647.3</ele>
        <time>2018-06-11T10:03:18Z</time>
      </trkpt>
      <trkpt lat="42.340847" lon="1.929490">
        <ele>1645.3</ele>
        <time>2018-06-11T10:03:19Z</time>
      </trkpt>
      <trkpt lat="42.340923" lon="1.929598">
        <ele>1639.6</ele>
        <time>2018-06-11T10:03:23Z</time>
      </trkpt>
      <trkpt lat="42.340981" lon="1.929676">
        <ele>1635.5</ele>
        <time>2018-06-11T10:03:25Z</time>
      </trkpt>
      <trkpt lat="42.341071" lon="1.929755">
        <ele>1632.3</ele>
        <time>2018-06-11T10:03:28Z</time>
      </trkpt>
      <trkpt lat="42.341189" lon="1.929787">
        <ele>1633.7</ele>
        <time>2018-06-11T10:03:31Z</time>
      </trkpt>
      <trkpt lat="42.341406" lon="1.929748">
        <ele>1640.8</ele>
        <time>2018-06-11T10:03:37Z</time>
      </trkpt>
      <trkpt lat="42.341556" lon="1.929713">
        <ele>1645.3</ele>
        <time>2018-06-11T10:03:41Z</time>
      </trkpt>
      <trkpt lat="42.341685" lon="1.929739">
        <ele>1646.1</ele>
        <time>2018-06-11T10:03:45Z</time>
      </trkpt>
      <trkpt lat="42.341768" lon="1.929792">
        <ele>1645.2</ele>
        <time>2018-06-11T10:03:47Z</time>
      </trkpt>
      <trkpt lat="42.341978" lon="1.929975">
        <ele>1642.5</ele>
        <time>2018-06-11T10:03:54Z</time>
      </trkpt>
      <trkpt lat="42.342101" lon="1.930001">
        <ele>1644.7</ele>
        <time>2018-06-11T10:03:57Z</time>
      </trkpt>
      <trkpt lat="42.342244" lon="1.929983">
        <ele>1646.7</ele>
        <time>2018-06-11T10:04:01Z</time>
      </trkpt>
      <trkpt lat="42.342456" lon="1.929965">
        <ele>1648.3</ele>
        <time>2018-06-11T10:04:07Z</time>
      </trkpt>
      <trkpt lat="42.342691" lon="1.929899">
        <ele>1649.1</ele>
        <time>2018-06-11T10:04:13Z</time>
      </trkpt>
      <trkpt lat="42.343013" lon="1.929798">
        <ele>1646.1</ele>
        <time>2018-06-11T10:04:22Z</time>
      </trkpt>
      <trkpt lat="42.343085" lon="1.929765">
        <ele>1645.5</ele>
        <time>2018-06-11T10:04:24Z</time>
      </trkpt>
      <trkpt lat="42.343164" lon="1.929755">
        <ele>1644.1</ele>
        <time>2018-06-11T10:04:26Z</time>
      </trkpt>
      <trkpt lat="42.343552" lon="1.929519">
        <ele>1641.4</ele>
        <time>2018-06-11T10:04:37Z</time>
      </trkpt>
      <trkpt lat="42.343731" lon="1.929368">
        <ele>1641.1</ele>
        <time>2018-06-11T10:04:43Z</time>
      </trkpt>
      <trkpt lat="42.344000" lon="1.929124">
        <ele>1640.4</ele>
        <time>2018-06-11T10:04:51Z</time>
      </trkpt>
      <trkpt lat="42.344319" lon="1.928710">
        <ele>1647.4</ele>
        <time>2018-06-11T10:05:03Z</time>
      </trkpt>
      <trkpt lat="42.344701" lon="1.928125">
        <ele>1641.9</ele>
        <time>2018-06-11T10:05:18Z</time>
      </trkpt>
      <trkpt lat="42.344979" lon="1.927547">
        <ele>1630.6</ele>
        <time>2018-06-11T10:05:32Z</time>
      </trkpt>
      <trkpt lat="42.345109" lon="1.927182">
        <ele>1624.9</ele>
        <time>2018-06-11T10:05:40Z</time>
      </trkpt>
      <trkpt lat="42.345364" lon="1.926599">
        <ele>1611.1</ele>
        <time>2018-06-11T10:05:54Z</time>
      </trkpt>
      <trkpt lat="42.345526" lon="1.926155">
        <ele>1605.1</ele>
        <time>2018-06-11T10:06:04Z</time>
      </trkpt>
      <trkpt lat="42.345603" lon="1.925857">
        <ele>1605.6</ele>
        <time>2018-06-11T10:06:10Z</time>
      </trkpt>
      <trkpt lat="42.345640" lon="1.925579">
        <ele>1607.0</ele>
        <time>2018-06-11T10:06:15Z</time>
      </trkpt>
      <trkpt lat="42.345667" lon="1.925317">
        <ele>1610.7</ele>
        <time>2018-06-11T10:06:21Z</time>
      </trkpt>
      <trkpt lat="42.345704" lon="1.925142">
        <ele>1613.3</ele>
        <time>2018-06-11T10:06:24Z</time>
      </trkpt>
      <trkpt lat="42.345794" lon="1.924880">
        <ele>1609.8</ele>
        <time>2018-06-11T10:06:30Z</time>
      </trkpt>
      <trkpt lat="42.345960" lon="1.924477">
        <ele>1601.0</ele>
        <time>2018-06-11T10:06:39Z</time>
      </trkpt>
      <trkpt lat="42.346244" lon="1.923913">
        <ele>1593.6</ele>
        <time>2018-06-11T10:06:53Z</time>
      </trkpt>
      <trkpt lat="42.346479" lon="1.923474">
        <ele>1591.9</ele>
        <time>2018-06-11T10:07:03Z</time>
      </trkpt>
      <trkpt lat="42.346593" lon="1.923209">
        <ele>1593.9</ele>
        <time>2018-06-11T10:07:09Z</time>
      </trkpt>
      <trkpt lat="42.346674" lon="1.923071">
        <ele>1595.3</ele>
        <time>2018-06-11T10:07:13Z</time>
      </trkpt>
      <trkpt lat="42.346715" lon="1.923005">
        <ele>1595.6</ele>
        <time>2018-06-11T10:07:15Z</time>
      </trkpt>
      <trkpt lat="42.346761" lon="1.922940">
        <ele>1595.4</ele>
        <time>2018-06-11T10:07:16Z</time>
      </trkpt>
      <trkpt lat="42.346796" lon="1.922927">
        <ele>1594.2</ele>
        <time>2018-06-11T10:07:17Z</time>
      </trkpt>
      <trkpt lat="42.346830" lon="1.922943">
        <ele>1593.2</ele>
        <time>2018-06-11T10:07:18Z</time>
      </trkpt>
      <trkpt lat="42.346850" lon="1.922985">
        <ele>1592.2</ele>
        <time>2018-06-11T10:07:19Z</time>
      </trkpt>
      <trkpt lat="42.346883" lon="1.923100">
        <ele>1589.8</ele>
        <time>2018-06-11T10:07:22Z</time>
      </trkpt>
      <trkpt lat="42.346884" lon="1.923258">
        <ele>1587.6</ele>
        <time>2018-06-11T10:07:25Z</time>
      </trkpt>
      <trkpt lat="42.346892" lon="1.923505">
        <ele>1586.0</ele>
        <time>2018-06-11T10:07:30Z</time>
      </trkpt>
      <trkpt lat="42.346880" lon="1.923693">
        <ele>1585.8</ele>
        <time>2018-06-11T10:07:33Z</time>
      </trkpt>
      <trkpt lat="42.346841" lon="1.923838">
        <ele>1585.7</ele>
        <time>2018-06-11T10:07:37Z</time>
      </trkpt>
      <trkpt lat="42.346805" lon="1.923918">
        <ele>1585.8</ele>
        <time>2018-06-11T10:07:38Z</time>
      </trkpt>
      <trkpt lat="42.346802" lon="1.923991">
        <ele>1585.3</ele>
        <time>2018-06-11T10:07:40Z</time>
      </trkpt>
      <trkpt lat="42.346816" lon="1.924053">
        <ele>1584.6</ele>
        <time>2018-06-11T10:07:41Z</time>
      </trkpt>
      <trkpt lat="42.346851" lon="1.924084">
        <ele>1583.6</ele>
        <time>2018-06-11T10:07:42Z</time>
      </trkpt>
      <trkpt lat="42.346899" lon="1.924086">
        <ele>1582.6</ele>
        <time>2018-06-11T10:07:43Z</time>
      </trkpt>
      <trkpt lat="42.346953" lon="1.924074">
        <ele>1581.7</ele>
        <time>2018-06-11T10:07:45Z</time>
      </trkpt>
      <trkpt lat="42.347016" lon="1.924062">
        <ele>1580.6</ele>
        <time>2018-06-11T10:07:47Z</time>
      </trkpt>
      <trkpt lat="42.347079" lon="1.923979">
        <ele>1580.4</ele>
        <time>2018-06-11T10:07:49Z</time>
      </trkpt>
      <trkpt lat="42.347506" lon="1.923304">
        <ele>1574.4</ele>
        <time>2018-06-11T10:08:06Z</time>
      </trkpt>
      <trkpt lat="42.347637" lon="1.923060">
        <ele>1568.2</ele>
        <time>2018-06-11T10:08:13Z</time>
      </trkpt>
      <trkpt lat="42.347670" lon="1.922915">
        <ele>1564.9</ele>
        <time>2018-06-11T10:08:16Z</time>
      </trkpt>
      <trkpt lat="42.347685" lon="1.922806">
        <ele>1565.0</ele>
        <time>2018-06-11T10:08:18Z</time>
      </trkpt>
      <trkpt lat="42.347700" lon="1.922676">
        <ele>1564.9</ele>
        <time>2018-06-11T10:08:20Z</time>
      </trkpt>
      <trkpt lat="42.347695" lon="1.922569">
        <ele>1565.4</ele>
        <time>2018-06-11T10:08:22Z</time>
      </trkpt>
      <trkpt lat="42.347672" lon="1.922433">
        <ele>1566.4</ele>
        <time>2018-06-11T10:08:25Z</time>
      </trkpt>
      <trkpt lat="42.347632" lon="1.922323">
        <ele>1567.3</ele>
        <time>2018-06-11T10:08:28Z</time>
      </trkpt>
      <trkpt lat="42.347541" lon="1.922169">
        <ele>1570.3</ele>
        <time>2018-06-11T10:08:32Z</time>
      </trkpt>
      <trkpt lat="42.347447" lon="1.922033">
        <ele>1574.2</ele>
        <time>2018-06-11T10:08:35Z</time>
      </trkpt>
      <trkpt lat="42.347349" lon="1.921902">
        <ele>1578.3</ele>
        <time>2018-06-11T10:08:39Z</time>
      </trkpt>
      <trkpt lat="42.347309" lon="1.921830">
        <ele>1580.1</ele>
        <time>2018-06-11T10:08:41Z</time>
      </trkpt>
      <trkpt lat="42.347268" lon="1.921710">
        <ele>1583.4</ele>
        <time>2018-06-11T10:08:44Z</time>
      </trkpt>
      <trkpt lat="42.347261" lon="1.921639">
        <ele>1585.1</ele>
        <time>2018-06-11T10:08:45Z</time>
      </trkpt>
      <trkpt lat="42.347260" lon="1.921595">
        <ele>1586.0</ele>
        <time>2018-06-11T10:08:46Z</time>
      </trkpt>
      <trkpt lat="42.347283" lon="1.921550">
        <ele>1586.6</ele>
        <time>2018-06-11T10:08:47Z</time>
      </trkpt>
      <trkpt lat="42.347322" lon="1.921523">
        <ele>1586.7</ele>
        <time>2018-06-11T10:08:48Z</time>
      </trkpt>
      <trkpt lat="42.347499" lon="1.921455">
        <ele>1584.6</ele>
        <time>2018-06-11T10:08:53Z</time>
      </trkpt>
      <trkpt lat="42.347658" lon="1.921381">
        <ele>1583.2</ele>
        <time>2018-06-11T10:08:58Z</time>
      </trkpt>
      <trkpt lat="42.347720" lon="1.921327">
        <ele>1583.0</ele>
        <time>2018-06-11T10:08:59Z</time>
      </trkpt>
      <trkpt lat="42.347769" lon="1.921222">
        <ele>1583.9</ele>
        <time>2018-06-11T10:09:02Z</time>
      </trkpt>
      <trkpt lat="42.347818" lon="1.921133">
        <ele>1584.5</ele>
        <time>2018-06-11T10:09:04Z</time>
      </trkpt>
      <trkpt lat="42.347897" lon="1.921059">
        <ele>1583.7</ele>
        <time>2018-06-11T10:09:07Z</time>
      </trkpt>
      <trkpt lat="42.347951" lon="1.920985">
        <ele>1583.2</ele>
        <time>2018-06-11T10:09:09Z</time>
      </trkpt>
      <trkpt lat="42.347987" lon="1.920924">
        <ele>1583.1</ele>
        <time>2018-06-11T10:09:10Z</time>
      </trkpt>
      <trkpt lat="42.347993" lon="1.920772">
        <ele>1586.4</ele>
        <time>2018-06-11T10:09:13Z</time>
      </trkpt>
      <trkpt lat="42.347987" lon="1.920663">
        <ele>1589.5</ele>
        <time>2018-06-11T10:09:16Z</time>
      </trkpt>
      <trkpt lat="42.348000" lon="1.920590">
        <ele>1591.4</ele>
        <time>2018-06-11T10:09:17Z</time>
      </trkpt>
      <trkpt lat="42.348034" lon="1.920531">
        <ele>1592.1</ele>
        <time>2018-06-11T10:09:19Z</time>
      </trkpt>
      <trkpt lat="42.348099" lon="1.920482">
        <ele>1591.3</ele>
        <time>2018-06-11T10:09:21Z</time>
      </trkpt>
      <trkpt lat="42.348163" lon="1.920457">
        <ele>1589.8</ele>
        <time>2018-06-11T10:09:22Z</time>
      </trkpt>
      <trkpt lat="42.348295" lon="1.920417">
        <ele>1585.6</ele>
        <time>2018-06-11T10:09:26Z</time>
      </trkpt>
      <trkpt lat="42.348444" lon="1.920387">
        <ele>1580.4</ele>
        <time>2018-06-11T10:09:30Z</time>
      </trkpt>
      <trkpt lat="42.348676" lon="1.920374">
        <ele>1577.9</ele>
        <time>2018-06-11T10:09:36Z</time>
      </trkpt>
      <trkpt lat="42.349138" lon="1.920358">
        <ele>1581.3</ele>
        <time>2018-06-11T10:09:49Z</time>
      </trkpt>
      <trkpt lat="42.349394" lon="1.920402">
        <ele>1584.0</ele>
        <time>2018-06-11T10:09:56Z</time>
      </trkpt>
      <trkpt lat="42.349479" lon="1.920422">
        <ele>1583.2</ele>
        <time>2018-06-11T10:09:58Z</time>
      </trkpt>
      <trkpt lat="42.349576" lon="1.920467">
        <ele>1581.2</ele>
        <time>2018-06-11T10:10:01Z</time>
      </trkpt>
      <trkpt lat="42.349651" lon="1.920548">
        <ele>1578.7</ele>
        <time>2018-06-11T10:10:03Z</time>
      </trkpt>
      <trkpt lat="42.349736" lon="1.920635">
        <ele>1576.9</ele>
        <time>2018-06-11T10:10:06Z</time>
      </trkpt>
      <trkpt lat="42.349917" lon="1.920854">
        <ele>1572.9</ele>
        <time>2018-06-11T10:10:13Z</time>
      </trkpt>
      <trkpt lat="42.350025" lon="1.920985">
        <ele>1569.7</ele>
        <time>2018-06-11T10:10:16Z</time>
      </trkpt>
      <trkpt lat="42.350084" lon="1.921037">
        <ele>1569.0</ele>
        <time>2018-06-11T10:10:18Z</time>
      </trkpt>
      <trkpt lat="42.350128" lon="1.921051">
        <ele>1569.1</ele>
        <time>2018-06-11T10:10:20Z</time>
      </trkpt>
      <trkpt lat="42.350169" lon="1.921050">
        <ele>1569.0</ele>
        <time>2018-06-11T10:10:21Z</time>
      </trkpt>
      <trkpt lat="42.350200" lon="1.921053">
        <ele>1568.8</ele>
        <time>2018-06-11T10:10:21Z</time>
      </trkpt>
      <trkpt lat="42.350263" lon="1.921037">
        <ele>1568.5</ele>
        <time>2018-06-11T10:10:23Z</time>
      </trkpt>
      <trkpt lat="42.350315" lon="1.921013">
        <ele>1568.4</ele>
        <time>2018-06-11T10:10:25Z</time>
      </trkpt>
      <trkpt lat="42.350377" lon="1.920978">
        <ele>1568.2</ele>
        <time>2018-06-11T10:10:26Z</time>
      </trkpt>
      <trkpt lat="42.350491" lon="1.920913">
        <ele>1567.3</ele>
        <time>2018-06-11T10:10:30Z</time>
      </trkpt>
      <trkpt lat="42.350583" lon="1.920856">
        <ele>1566.6</ele>
        <time>2018-06-11T10:10:32Z</time>
      </trkpt>
      <trkpt lat="42.350663" lon="1.920819">
        <ele>1566.1</ele>
        <time>2018-06-11T10:10:35Z</time>
      </trkpt>
      <trkpt lat="42.350758" lon="1.920791">
        <ele>1565.8</ele>
        <time>2018-06-11T10:10:37Z</time>
      </trkpt>
      <trkpt lat="42.350927" lon="1.920772">
        <ele>1564.9</ele>
        <time>2018-06-11T10:10:42Z</time>
      </trkpt>
      <trkpt lat="42.351064" lon="1.920761">
        <ele>1563.7</ele>
        <time>2018-06-11T10:10:45Z</time>
      </trkpt>
      <trkpt lat="42.351157" lon="1.920739">
        <ele>1563.1</ele>
        <time>2018-06-11T10:10:48Z</time>
      </trkpt>
      <trkpt lat="42.351272" lon="1.920703">
        <ele>1562.3</ele>
        <time>2018-06-11T10:10:51Z</time>
      </trkpt>
      <trkpt lat="42.351270" lon="1.920704">
        <ele>1562.3</ele>
        <time>2018-06-11T10:10:51Z</time>
      </trkpt>
      <trkpt lat="42.351382" lon="1.920675">
        <ele>1560.2</ele>
        <time>2018-06-11T10:10:54Z</time>
      </trkpt>
      <trkpt lat="42.351653" lon="1.920563">
        <ele>1558.7</ele>
        <time>2018-06-11T10:11:02Z</time>
      </trkpt>
      <trkpt lat="42.351866" lon="1.920493">
        <ele>1555.0</ele>
        <time>2018-06-11T10:11:07Z</time>
      </trkpt>
      <trkpt lat="42.351954" lon="1.920447">
        <ele>1551.6</ele>
        <time>2018-06-11T10:11:10Z</time>
      </trkpt>
      <trkpt lat="42.352008" lon="1.920399">
        <ele>1549.9</ele>
        <time>2018-06-11T10:11:12Z</time>
      </trkpt>
      <trkpt lat="42.352094" lon="1.920330">
        <ele>1547.4</ele>
        <time>2018-06-11T10:11:15Z</time>
      </trkpt>
      <trkpt lat="42.352207" lon="1.920227">
        <ele>1546.2</ele>
        <time>2018-06-11T10:11:18Z</time>
      </trkpt>
      <trkpt lat="42.352336" lon="1.920112">
        <ele>1543.6</ele>
        <time>2018-06-11T10:11:22Z</time>
      </trkpt>
      <trkpt lat="42.352491" lon="1.919989">
        <ele>1540.7</ele>
        <time>2018-06-11T10:11:27Z</time>
      </trkpt>
      <trkpt lat="42.352563" lon="1.919922">
        <ele>1539.1</ele>
        <time>2018-06-11T10:11:29Z</time>
      </trkpt>
      <trkpt lat="42.352593" lon="1.919908">
        <ele>1538.2</ele>
        <time>2018-06-11T10:11:30Z</time>
      </trkpt>
      <trkpt lat="42.352632" lon="1.919900">
        <ele>1536.9</ele>
        <time>2018-06-11T10:11:31Z</time>
      </trkpt>
      <trkpt lat="42.352743" lon="1.919782">
        <ele>1537.6</ele>
        <time>2018-06-11T10:11:35Z</time>
      </trkpt>
      <trkpt lat="42.352999" lon="1.919428">
        <ele>1535.8</ele>
        <time>2018-06-11T10:11:45Z</time>
      </trkpt>
      <trkpt lat="42.353116" lon="1.919208">
        <ele>1534.0</ele>
        <time>2018-06-11T10:11:50Z</time>
      </trkpt>
      <trkpt lat="42.353188" lon="1.919098">
        <ele>1533.6</ele>
        <time>2018-06-11T10:11:53Z</time>
      </trkpt>
      <trkpt lat="42.353235" lon="1.918967">
        <ele>1532.4</ele>
        <time>2018-06-11T10:11:56Z</time>
      </trkpt>
      <trkpt lat="42.353277" lon="1.918814">
        <ele>1530.9</ele>
        <time>2018-06-11T10:11:59Z</time>
      </trkpt>
      <trkpt lat="42.353313" lon="1.918669">
        <ele>1529.0</ele>
        <time>2018-06-11T10:12:02Z</time>
      </trkpt>
      <trkpt lat="42.353343" lon="1.918520">
        <ele>1525.8</ele>
        <time>2018-06-11T10:12:05Z</time>
      </trkpt>
      <trkpt lat="42.353370" lon="1.918369">
        <ele>1521.3</ele>
        <time>2018-06-11T10:12:08Z</time>
      </trkpt>
      <trkpt lat="42.353373" lon="1.917942">
        <ele>1509.7</ele>
        <time>2018-06-11T10:12:17Z</time>
      </trkpt>
      <trkpt lat="42.353355" lon="1.917561">
        <ele>1500.3</ele>
        <time>2018-06-11T10:12:25Z</time>
      </trkpt>
      <trkpt lat="42.353337" lon="1.917347">
        <ele>1497.1</ele>
        <time>2018-06-11T10:12:29Z</time>
      </trkpt>
      <trkpt lat="42.353306" lon="1.917164">
        <ele>1494.8</ele>
        <time>2018-06-11T10:12:33Z</time>
      </trkpt>
      <trkpt lat="42.353236" lon="1.916910">
        <ele>1491.3</ele>
        <time>2018-06-11T10:12:38Z</time>
      </trkpt>
      <trkpt lat="42.353111" lon="1.916580">
        <ele>1487.0</ele>
        <time>2018-06-11T10:12:46Z</time>
      </trkpt>
      <trkpt lat="42.353044" lon="1.916435">
        <ele>1485.7</ele>
        <time>2018-06-11T10:12:49Z</time>
      </trkpt>
      <trkpt lat="42.352965" lon="1.916293">
        <ele>1484.6</ele>
        <time>2018-06-11T10:12:53Z</time>
      </trkpt>
      <trkpt lat="42.352881" lon="1.916134">
        <ele>1480.7</ele>
        <time>2018-06-11T10:12:57Z</time>
      </trkpt>
      <trkpt lat="42.352860" lon="1.916041">
        <ele>1477.4</ele>
        <time>2018-06-11T10:12:59Z</time>
      </trkpt>
      <trkpt lat="42.352848" lon="1.915947">
        <ele>1474.9</ele>
        <time>2018-06-11T10:13:01Z</time>
      </trkpt>
      <trkpt lat="42.352867" lon="1.915845">
        <ele>1474.0</ele>
        <time>2018-06-11T10:13:03Z</time>
      </trkpt>
      <trkpt lat="42.352863" lon="1.915770">
        <ele>1473.7</ele>
        <time>2018-06-11T10:13:04Z</time>
      </trkpt>
      <trkpt lat="42.352844" lon="1.915676">
        <ele>1474.2</ele>
        <time>2018-06-11T10:13:06Z</time>
      </trkpt>
      <trkpt lat="42.352809" lon="1.915605">
        <ele>1476.4</ele>
        <time>2018-06-11T10:13:08Z</time>
      </trkpt>
      <trkpt lat="42.352716" lon="1.915446">
        <ele>1482.2</ele>
        <time>2018-06-11T10:13:12Z</time>
      </trkpt>
      <trkpt lat="42.352683" lon="1.915370">
        <ele>1484.8</ele>
        <time>2018-06-11T10:13:14Z</time>
      </trkpt>
      <trkpt lat="42.352674" lon="1.915263">
        <ele>1487.5</ele>
        <time>2018-06-11T10:13:16Z</time>
      </trkpt>
      <trkpt lat="42.352689" lon="1.915228">
        <ele>1487.7</ele>
        <time>2018-06-11T10:13:17Z</time>
      </trkpt>
      <trkpt lat="42.352719" lon="1.915193">
        <ele>1487.2</ele>
        <time>2018-06-11T10:13:18Z</time>
      </trkpt>
      <trkpt lat="42.352784" lon="1.915163">
        <ele>1484.8</ele>
        <time>2018-06-11T10:13:20Z</time>
      </trkpt>
      <trkpt lat="42.353001" lon="1.915105">
        <ele>1477.0</ele>
        <time>2018-06-11T10:13:26Z</time>
      </trkpt>
      <trkpt lat="42.353402" lon="1.915147">
        <ele>1466.4</ele>
        <time>2018-06-11T10:13:37Z</time>
      </trkpt>
      <trkpt lat="42.353653" lon="1.915247">
        <ele>1460.6</ele>
        <time>2018-06-11T10:13:44Z</time>
      </trkpt>
      <trkpt lat="42.353999" lon="1.915434">
        <ele>1449.1</ele>
        <time>2018-06-11T10:13:54Z</time>
      </trkpt>
      <trkpt lat="42.354235" lon="1.915558">
        <ele>1444.9</ele>
        <time>2018-06-11T10:14:01Z</time>
      </trkpt>
      <trkpt lat="42.354447" lon="1.915729">
        <ele>1442.3</ele>
        <time>2018-06-11T10:14:07Z</time>
      </trkpt>
      <trkpt lat="42.354695" lon="1.915920">
        <ele>1441.6</ele>
        <time>2018-06-11T10:14:15Z</time>
      </trkpt>
      <trkpt lat="42.354967" lon="1.916049">
        <ele>1438.1</ele>
        <time>2018-06-11T10:14:23Z</time>
      </trkpt>
      <trkpt lat="42.355038" lon="1.916058">
        <ele>1436.6</ele>
        <time>2018-06-11T10:14:25Z</time>
      </trkpt>
      <trkpt lat="42.355141" lon="1.916049">
        <ele>1435.3</ele>
        <time>2018-06-11T10:14:27Z</time>
      </trkpt>
      <trkpt lat="42.355258" lon="1.915982">
        <ele>1438.4</ele>
        <time>2018-06-11T10:14:31Z</time>
      </trkpt>
      <trkpt lat="42.355456" lon="1.915783">
        <ele>1447.2</ele>
        <time>2018-06-11T10:14:38Z</time>
      </trkpt>
      <trkpt lat="42.355761" lon="1.915553">
        <ele>1447.3</ele>
        <time>2018-06-11T10:14:47Z</time>
      </trkpt>
      <trkpt lat="42.355960" lon="1.915451">
        <ele>1443.8</ele>
        <time>2018-06-11T10:14:53Z</time>
      </trkpt>
      <trkpt lat="42.356126" lon="1.915363">
        <ele>1437.9</ele>
        <time>2018-06-11T10:14:58Z</time>
      </trkpt>
      <trkpt lat="42.356372" lon="1.915106">
        <ele>1430.8</ele>
        <time>2018-06-11T10:15:06Z</time>
      </trkpt>
      <trkpt lat="42.356584" lon="1.914831">
        <ele>1426.3</ele>
        <time>2018-06-11T10:15:14Z</time>
      </trkpt>
      <trkpt lat="42.356875" lon="1.914563">
        <ele>1423.8</ele>
        <time>2018-06-11T10:15:23Z</time>
      </trkpt>
      <trkpt lat="42.357086" lon="1.914403">
        <ele>1417.2</ele>
        <time>2018-06-11T10:15:30Z</time>
      </trkpt>
      <trkpt lat="42.357271" lon="1.914319">
        <ele>1411.8</ele>
        <time>2018-06-11T10:15:35Z</time>
      </trkpt>
      <trkpt lat="42.357470" lon="1.914295">
        <ele>1408.0</ele>
        <time>2018-06-11T10:15:40Z</time>
      </trkpt>
      <trkpt lat="42.357620" lon="1.914279">
        <ele>1406.5</ele>
        <time>2018-06-11T10:15:44Z</time>
      </trkpt>
      <trkpt lat="42.357762" lon="1.914176">
        <ele>1407.0</ele>
        <time>2018-06-11T10:15:49Z</time>
      </trkpt>
      <trkpt lat="42.357885" lon="1.914058">
        <ele>1407.8</ele>
        <time>2018-06-11T10:15:53Z</time>
      </trkpt>
      <trkpt lat="42.357962" lon="1.913999">
        <ele>1408.3</ele>
        <time>2018-06-11T10:15:55Z</time>
      </trkpt>
      <trkpt lat="42.358024" lon="1.913962">
        <ele>1408.8</ele>
        <time>2018-06-11T10:15:57Z</time>
      </trkpt>
      <trkpt lat="42.358143" lon="1.913959">
        <ele>1409.1</ele>
        <time>2018-06-11T10:16:00Z</time>
      </trkpt>
      <trkpt lat="42.358273" lon="1.913973">
        <ele>1406.6</ele>
        <time>2018-06-11T10:16:03Z</time>
      </trkpt>
      <trkpt lat="42.358431" lon="1.914005">
        <ele>1401.0</ele>
        <time>2018-06-11T10:16:08Z</time>
      </trkpt>
      <trkpt lat="42.358546" lon="1.914005">
        <ele>1395.2</ele>
        <time>2018-06-11T10:16:11Z</time>
      </trkpt>
      <trkpt lat="42.358615" lon="1.914032">
        <ele>1390.1</ele>
        <time>2018-06-11T10:16:14Z</time>
      </trkpt>
      <trkpt lat="42.358698" lon="1.913986">
        <ele>1386.7</ele>
        <time>2018-06-11T10:16:16Z</time>
      </trkpt>
      <trkpt lat="42.358807" lon="1.913983">
        <ele>1381.0</ele>
        <time>2018-06-11T10:16:19Z</time>
      </trkpt>
      <trkpt lat="42.358918" lon="1.913946">
        <ele>1377.6</ele>
        <time>2018-06-11T10:16:22Z</time>
      </trkpt>
      <trkpt lat="42.359051" lon="1.913903">
        <ele>1374.0</ele>
        <time>2018-06-11T10:16:26Z</time>
      </trkpt>
      <trkpt lat="42.359152" lon="1.913879">
        <ele>1371.3</ele>
        <time>2018-06-11T10:16:29Z</time>
      </trkpt>
      <trkpt lat="42.359360" lon="1.913782">
        <ele>1368.3</ele>
        <time>2018-06-11T10:16:35Z</time>
      </trkpt>
      <trkpt lat="42.359451" lon="1.913664">
        <ele>1371.3</ele>
        <time>2018-06-11T10:16:38Z</time>
      </trkpt>
      <trkpt lat="42.359537" lon="1.913480">
        <ele>1377.9</ele>
        <time>2018-06-11T10:16:43Z</time>
      </trkpt>
      <trkpt lat="42.359647" lon="1.913271">
        <ele>1381.5</ele>
        <time>2018-06-11T10:16:48Z</time>
      </trkpt>
      <trkpt lat="42.359697" lon="1.913077">
        <ele>1386.7</ele>
        <time>2018-06-11T10:16:52Z</time>
      </trkpt>
      <trkpt lat="42.360019" lon="1.912602">
        <ele>1378.0</ele>
        <time>2018-06-11T10:17:05Z</time>
      </trkpt>
      <trkpt lat="42.360219" lon="1.912344">
        <ele>1368.0</ele>
        <time>2018-06-11T10:17:12Z</time>
      </trkpt>
      <trkpt lat="42.360396" lon="1.912262">
        <ele>1360.7</ele>
        <time>2018-06-11T10:17:18Z</time>
      </trkpt>
      <trkpt lat="42.360561" lon="1.912102">
        <ele>1357.8</ele>
        <time>2018-06-11T10:17:23Z</time>
      </trkpt>
      <trkpt lat="42.360856" lon="1.911988">
        <ele>1345.9</ele>
        <time>2018-06-11T10:17:32Z</time>
      </trkpt>
      <trkpt lat="42.361077" lon="1.911902">
        <ele>1336.4</ele>
        <time>2018-06-11T10:17:38Z</time>
      </trkpt>
      <trkpt lat="42.361233" lon="1.911730">
        <ele>1330.5</ele>
        <time>2018-06-11T10:17:44Z</time>
      </trkpt>
      <trkpt lat="42.361448" lon="1.911505">
        <ele>1321.2</ele>
        <time>2018-06-11T10:17:51Z</time>
      </trkpt>
      <trkpt lat="42.361588" lon="1.911382">
        <ele>1315.5</ele>
        <time>2018-06-11T10:17:56Z</time>
      </trkpt>
      <trkpt lat="42.361768" lon="1.911247">
        <ele>1308.8</ele>
        <time>2018-06-11T10:18:02Z</time>
      </trkpt>
      <trkpt lat="42.361859" lon="1.911145">
        <ele>1306.0</ele>
        <time>2018-06-11T10:18:05Z</time>
      </trkpt>
      <trkpt lat="42.362012" lon="1.910813">
        <ele>1301.7</ele>
        <time>2018-06-11T10:18:12Z</time>
      </trkpt>
      <trkpt lat="42.362085" lon="1.910644">
        <ele>1298.1</ele>
        <time>2018-06-11T10:18:16Z</time>
      </trkpt>
      <trkpt lat="42.362190" lon="1.910486">
        <ele>1293.6</ele>
        <time>2018-06-11T10:18:21Z</time>
      </trkpt>
      <trkpt lat="42.362316" lon="1.910242">
        <ele>1289.9</ele>
        <time>2018-06-11T10:18:27Z</time>
      </trkpt>
      <trkpt lat="42.362699" lon="1.909441">
        <ele>1274.8</ele>
        <time>2018-06-11T10:18:46Z</time>
      </trkpt>
      <trkpt lat="42.362922" lon="1.909001">
        <ele>1259.0</ele>
        <time>2018-06-11T10:18:57Z</time>
      </trkpt>
      <trkpt lat="42.362988" lon="1.908799">
        <ele>1257.5</ele>
        <time>2018-06-11T10:19:01Z</time>
      </trkpt>
      <trkpt lat="42.363014" lon="1.908605">
        <ele>1258.3</ele>
        <time>2018-06-11T10:19:05Z</time>
      </trkpt>
      <trkpt lat="42.363018" lon="1.908507">
        <ele>1259.3</ele>
        <time>2018-06-11T10:19:07Z</time>
      </trkpt>
      <trkpt lat="42.363007" lon="1.908420">
        <ele>1261.4</ele>
        <time>2018-06-11T10:19:09Z</time>
      </trkpt>
      <trkpt lat="42.363018" lon="1.908358">
        <ele>1261.7</ele>
        <time>2018-06-11T10:19:10Z</time>
      </trkpt>
      <trkpt lat="42.363055" lon="1.908295">
        <ele>1260.4</ele>
        <time>2018-06-11T10:19:11Z</time>
      </trkpt>
      <trkpt lat="42.363104" lon="1.908279">
        <ele>1257.5</ele>
        <time>2018-06-11T10:19:13Z</time>
      </trkpt>
      <trkpt lat="42.363163" lon="1.908273">
        <ele>1253.9</ele>
        <time>2018-06-11T10:19:15Z</time>
      </trkpt>
      <trkpt lat="42.363222" lon="1.908247">
        <ele>1250.4</ele>
        <time>2018-06-11T10:19:17Z</time>
      </trkpt>
      <trkpt lat="42.363292" lon="1.908201">
        <ele>1246.3</ele>
        <time>2018-06-11T10:19:19Z</time>
      </trkpt>
      <trkpt lat="42.363391" lon="1.908113">
        <ele>1240.7</ele>
        <time>2018-06-11T10:19:22Z</time>
      </trkpt>
      <trkpt lat="42.363535" lon="1.907930">
        <ele>1235.0</ele>
        <time>2018-06-11T10:19:28Z</time>
      </trkpt>
      <trkpt lat="42.363835" lon="1.907505">
        <ele>1231.2</ele>
        <time>2018-06-11T10:19:39Z</time>
      </trkpt>
      <trkpt lat="42.364037" lon="1.907219">
        <ele>1226.7</ele>
        <time>2018-06-11T10:19:47Z</time>
      </trkpt>
      <trkpt lat="42.364132" lon="1.907055">
        <ele>1226.4</ele>
        <time>2018-06-11T10:19:51Z</time>
      </trkpt>
      <trkpt lat="42.364176" lon="1.906938">
        <ele>1228.0</ele>
        <time>2018-06-11T10:19:54Z</time>
      </trkpt>
      <trkpt lat="42.364250" lon="1.906820">
        <ele>1227.6</ele>
        <time>2018-06-11T10:19:57Z</time>
      </trkpt>
      <trkpt lat="42.364308" lon="1.906755">
        <ele>1225.9</ele>
        <time>2018-06-11T10:19:59Z</time>
      </trkpt>
      <trkpt lat="42.364368" lon="1.906723">
        <ele>1224.9</ele>
        <time>2018-06-11T10:20:00Z</time>
      </trkpt>
      <trkpt lat="42.364528" lon="1.906583">
        <ele>1223.4</ele>
        <time>2018-06-11T10:20:06Z</time>
      </trkpt>
      <trkpt lat="42.364741" lon="1.906358">
        <ele>1218.5</ele>
        <time>2018-06-11T10:20:13Z</time>
      </trkpt>
      <trkpt lat="42.364842" lon="1.906275">
        <ele>1215.5</ele>
        <time>2018-06-11T10:20:16Z</time>
      </trkpt>
      <trkpt lat="42.364963" lon="1.906123">
        <ele>1211.3</ele>
        <time>2018-06-11T10:20:20Z</time>
      </trkpt>
      <trkpt lat="42.365005" lon="1.906034">
        <ele>1210.1</ele>
        <time>2018-06-11T10:20:23Z</time>
      </trkpt>
      <trkpt lat="42.365044" lon="1.905968">
        <ele>1209.1</ele>
        <time>2018-06-11T10:20:24Z</time>
      </trkpt>
      <trkpt lat="42.365089" lon="1.905929">
        <ele>1207.7</ele>
        <time>2018-06-11T10:20:26Z</time>
      </trkpt>
      <trkpt lat="42.365174" lon="1.905878">
        <ele>1205.3</ele>
        <time>2018-06-11T10:20:28Z</time>
      </trkpt>
      <trkpt lat="42.365260" lon="1.905792">
        <ele>1203.2</ele>
        <time>2018-06-11T10:20:31Z</time>
      </trkpt>
      <trkpt lat="42.365340" lon="1.905698">
        <ele>1201.2</ele>
        <time>2018-06-11T10:20:34Z</time>
      </trkpt>
      <trkpt lat="42.365369" lon="1.905627">
        <ele>1199.9</ele>
        <time>2018-06-11T10:20:36Z</time>
      </trkpt>
      <trkpt lat="42.365401" lon="1.905552">
        <ele>1198.4</ele>
        <time>2018-06-11T10:20:37Z</time>
      </trkpt>
      <trkpt lat="42.365438" lon="1.905506">
        <ele>1197.2</ele>
        <time>2018-06-11T10:20:39Z</time>
      </trkpt>
      <trkpt lat="42.365463" lon="1.905480">
        <ele>1196.6</ele>
        <time>2018-06-11T10:20:39Z</time>
      </trkpt>
      <trkpt lat="42.365520" lon="1.905462">
        <ele>1195.4</ele>
        <time>2018-06-11T10:20:41Z</time>
      </trkpt>
      <trkpt lat="42.365565" lon="1.905487">
        <ele>1194.7</ele>
        <time>2018-06-11T10:20:42Z</time>
      </trkpt>
      <trkpt lat="42.365711" lon="1.905585">
        <ele>1192.5</ele>
        <time>2018-06-11T10:20:47Z</time>
      </trkpt>
      <trkpt lat="42.366072" lon="1.905814">
        <ele>1187.2</ele>
        <time>2018-06-11T10:20:57Z</time>
      </trkpt>
      <trkpt lat="42.366161" lon="1.905874">
        <ele>1185.5</ele>
        <time>2018-06-11T10:21:00Z</time>
      </trkpt>
      <trkpt lat="42.366236" lon="1.905879">
        <ele>1184.5</ele>
        <time>2018-06-11T10:21:02Z</time>
      </trkpt>
      <trkpt lat="42.366288" lon="1.905856">
        <ele>1184.1</ele>
        <time>2018-06-11T10:21:03Z</time>
      </trkpt>
      <trkpt lat="42.366346" lon="1.905815">
        <ele>1183.7</ele>
        <time>2018-06-11T10:21:05Z</time>
      </trkpt>
      <trkpt lat="42.366421" lon="1.905752">
        <ele>1183.1</ele>
        <time>2018-06-11T10:21:08Z</time>
      </trkpt>
      <trkpt lat="42.366473" lon="1.905698">
        <ele>1182.6</ele>
        <time>2018-06-11T10:21:09Z</time>
      </trkpt>
      <trkpt lat="42.366537" lon="1.905574">
        <ele>1183.2</ele>
        <time>2018-06-11T10:21:12Z</time>
      </trkpt>
      <trkpt lat="42.366553" lon="1.905459">
        <ele>1184.1</ele>
        <time>2018-06-11T10:21:15Z</time>
      </trkpt>
      <trkpt lat="42.366616" lon="1.905253">
        <ele>1185.9</ele>
        <time>2018-06-11T10:21:19Z</time>
      </trkpt>
      <trkpt lat="42.366663" lon="1.905139">
        <ele>1187.0</ele>
        <time>2018-06-11T10:21:21Z</time>
      </trkpt>
      <trkpt lat="42.366723" lon="1.905006">
        <ele>1189.2</ele>
        <time>2018-06-11T10:21:25Z</time>
      </trkpt>
      <trkpt lat="42.366794" lon="1.904873">
        <ele>1190.1</ele>
        <time>2018-06-11T10:21:28Z</time>
      </trkpt>
      <trkpt lat="42.366858" lon="1.904729">
        <ele>1191.4</ele>
        <time>2018-06-11T10:21:31Z</time>
      </trkpt>
      <trkpt lat="42.366934" lon="1.904590">
        <ele>1192.2</ele>
        <time>2018-06-11T10:21:34Z</time>
      </trkpt>
      <trkpt lat="42.366987" lon="1.904495">
        <ele>1193.1</ele>
        <time>2018-06-11T10:21:37Z</time>
      </trkpt>
      <trkpt lat="42.367014" lon="1.904397">
        <ele>1194.9</ele>
        <time>2018-06-11T10:21:39Z</time>
      </trkpt>
      <trkpt lat="42.367056" lon="1.904255">
        <ele>1196.8</ele>
        <time>2018-06-11T10:21:42Z</time>
      </trkpt>
      <trkpt lat="42.367119" lon="1.904034">
        <ele>1198.5</ele>
        <time>2018-06-11T10:21:47Z</time>
      </trkpt>
      <trkpt lat="42.367193" lon="1.903833">
        <ele>1198.9</ele>
        <time>2018-06-11T10:21:51Z</time>
      </trkpt>
      <trkpt lat="42.367258" lon="1.903774">
        <ele>1197.1</ele>
        <time>2018-06-11T10:21:53Z</time>
      </trkpt>
      <trkpt lat="42.367302" lon="1.903735">
        <ele>1195.7</ele>
        <time>2018-06-11T10:21:55Z</time>
      </trkpt>
      <trkpt lat="42.367375" lon="1.903611">
        <ele>1194.0</ele>
        <time>2018-06-11T10:21:58Z</time>
      </trkpt>
      <trkpt lat="42.367472" lon="1.903436">
        <ele>1191.4</ele>
        <time>2018-06-11T10:22:02Z</time>
      </trkpt>
      <trkpt lat="42.367550" lon="1.903309">
        <ele>1187.7</ele>
        <time>2018-06-11T10:22:05Z</time>
      </trkpt>
      <trkpt lat="42.367625" lon="1.903118">
        <ele>1184.8</ele>
        <time>2018-06-11T10:22:10Z</time>
      </trkpt>
      <trkpt lat="42.367754" lon="1.902562">
        <ele>1182.4</ele>
        <time>2018-06-11T10:22:21Z</time>
      </trkpt>
      <trkpt lat="42.367851" lon="1.902034">
        <ele>1184.8</ele>
        <time>2018-06-11T10:22:32Z</time>
      </trkpt>
      <trkpt lat="42.367885" lon="1.901752">
        <ele>1183.8</ele>
        <time>2018-06-11T10:22:37Z</time>
      </trkpt>
      <trkpt lat="42.367909" lon="1.901624">
        <ele>1182.0</ele>
        <time>2018-06-11T10:22:40Z</time>
      </trkpt>
      <trkpt lat="42.368023" lon="1.901315">
        <ele>1174.9</ele>
        <time>2018-06-11T10:22:47Z</time>
      </trkpt>
      <trkpt lat="42.368091" lon="1.901157">
        <ele>1171.7</ele>
        <time>2018-06-11T10:22:51Z</time>
      </trkpt>
      <trkpt lat="42.368126" lon="1.901114">
        <ele>1170.3</ele>
        <time>2018-06-11T10:22:52Z</time>
      </trkpt>
      <trkpt lat="42.368221" lon="1.901044">
        <ele>1166.7</ele>
        <time>2018-06-11T10:22:55Z</time>
      </trkpt>
      <trkpt lat="42.368280" lon="1.900982">
        <ele>1165.5</ele>
        <time>2018-06-11T10:22:57Z</time>
      </trkpt>
      <trkpt lat="42.368332" lon="1.900882">
        <ele>1165.7</ele>
        <time>2018-06-11T10:22:59Z</time>
      </trkpt>
      <trkpt lat="42.368376" lon="1.900777">
        <ele>1165.9</ele>
        <time>2018-06-11T10:23:02Z</time>
      </trkpt>
      <trkpt lat="42.368404" lon="1.900631">
        <ele>1166.8</ele>
        <time>2018-06-11T10:23:05Z</time>
      </trkpt>
      <trkpt lat="42.368418" lon="1.900513">
        <ele>1167.8</ele>
        <time>2018-06-11T10:23:07Z</time>
      </trkpt>
      <trkpt lat="42.368457" lon="1.900366">
        <ele>1168.5</ele>
        <time>2018-06-11T10:23:10Z</time>
      </trkpt>
      <trkpt lat="42.368550" lon="1.900107">
        <ele>1170.6</ele>
        <time>2018-06-11T10:23:16Z</time>
      </trkpt>
      <trkpt lat="42.368631" lon="1.899851">
        <ele>1173.1</ele>
        <time>2018-06-11T10:23:21Z</time>
      </trkpt>
      <trkpt lat="42.368711" lon="1.899492">
        <ele>1175.6</ele>
        <time>2018-06-11T10:23:28Z</time>
      </trkpt>
      <trkpt lat="42.368785" lon="1.899253">
        <ele>1176.7</ele>
        <time>2018-06-11T10:23:34Z</time>
      </trkpt>
      <trkpt lat="42.368909" lon="1.898945">
        <ele>1183.8</ele>
        <time>2018-06-11T10:23:41Z</time>
      </trkpt>
      <trkpt lat="42.368977" lon="1.898828">
        <ele>1188.0</ele>
        <time>2018-06-11T10:23:44Z</time>
      </trkpt>
      <trkpt lat="42.369151" lon="1.898629">
        <ele>1190.4</ele>
        <time>2018-06-11T10:23:50Z</time>
      </trkpt>
      <trkpt lat="42.369582" lon="1.898255">
        <ele>1178.3</ele>
        <time>2018-06-11T10:24:04Z</time>
      </trkpt>
      <trkpt lat="42.369976" lon="1.897990">
        <ele>1157.8</ele>
        <time>2018-06-11T10:24:16Z</time>
      </trkpt>
      <trkpt lat="42.370229" lon="1.897832">
        <ele>1152.5</ele>
        <time>2018-06-11T10:24:24Z</time>
      </trkpt>
      <trkpt lat="42.370341" lon="1.897757">
        <ele>1151.9</ele>
        <time>2018-06-11T10:24:27Z</time>
      </trkpt>
      <trkpt lat="42.370416" lon="1.897678">
        <ele>1151.0</ele>
        <time>2018-06-11T10:24:30Z</time>
      </trkpt>
      <trkpt lat="42.370467" lon="1.897587">
        <ele>1151.6</ele>
        <time>2018-06-11T10:24:32Z</time>
      </trkpt>
      <trkpt lat="42.370521" lon="1.897444">
        <ele>1152.8</ele>
        <time>2018-06-11T10:24:35Z</time>
      </trkpt>
      <trkpt lat="42.370558" lon="1.897282">
        <ele>1153.9</ele>
        <time>2018-06-11T10:24:38Z</time>
      </trkpt>
      <trkpt lat="42.370594" lon="1.897178">
        <ele>1154.5</ele>
        <time>2018-06-11T10:24:40Z</time>
      </trkpt>
      <trkpt lat="42.370652" lon="1.897060">
        <ele>1155.3</ele>
        <time>2018-06-11T10:24:43Z</time>
      </trkpt>
      <trkpt lat="42.370824" lon="1.896766">
        <ele>1159.4</ele>
        <time>2018-06-11T10:24:51Z</time>
      </trkpt>
      <trkpt lat="42.370971" lon="1.896603">
        <ele>1162.2</ele>
        <time>2018-06-11T10:24:56Z</time>
      </trkpt>
      <trkpt lat="42.371160" lon="1.896423">
        <ele>1161.3</ele>
        <time>2018-06-11T10:25:02Z</time>
      </trkpt>
      <trkpt lat="42.371504" lon="1.896172">
        <ele>1154.6</ele>
        <time>2018-06-11T10:25:12Z</time>
      </trkpt>
      <trkpt lat="42.371705" lon="1.896005">
        <ele>1149.3</ele>
        <time>2018-06-11T10:25:19Z</time>
      </trkpt>
      <trkpt lat="42.371770" lon="1.895911">
        <ele>1148.0</ele>
        <time>2018-06-11T10:25:21Z</time>
      </trkpt>
      <trkpt lat="42.372170" lon="1.895252">
        <ele>1147.9</ele>
        <time>2018-06-11T10:25:38Z</time>
      </trkpt>
      <trkpt lat="42.372340" lon="1.894944">
        <ele>1148.3</ele>
        <time>2018-06-11T10:25:45Z</time>
      </trkpt>
      <trkpt lat="42.372435" lon="1.894719">
        <ele>1149.9</ele>
        <time>2018-06-11T10:25:51Z</time>
      </trkpt>
      <trkpt lat="42.372468" lon="1.894546">
        <ele>1151.6</ele>
        <time>2018-06-11T10:25:54Z</time>
      </trkpt>
      <trkpt lat="42.372491" lon="1.894358">
        <ele>1154.7</ele>
        <time>2018-06-11T10:25:58Z</time>
      </trkpt>
      <trkpt lat="42.372497" lon="1.894184">
        <ele>1158.1</ele>
        <time>2018-06-11T10:26:01Z</time>
      </trkpt>
      <trkpt lat="42.372511" lon="1.894068">
        <ele>1160.6</ele>
        <time>2018-06-11T10:26:04Z</time>
      </trkpt>
      <trkpt lat="42.372556" lon="1.893919">
        <ele>1162.6</ele>
        <time>2018-06-11T10:26:07Z</time>
      </trkpt>
      <trkpt lat="42.372640" lon="1.893714">
        <ele>1164.5</ele>
        <time>2018-06-11T10:26:12Z</time>
      </trkpt>
      <trkpt lat="42.372852" lon="1.893324">
        <ele>1167.7</ele>
        <time>2018-06-11T10:26:21Z</time>
      </trkpt>
      <trkpt lat="42.372956" lon="1.893085">
        <ele>1170.2</ele>
        <time>2018-06-11T10:26:26Z</time>
      </trkpt>
      <trkpt lat="42.373068" lon="1.892797">
        <ele>1175.4</ele>
        <time>2018-06-11T10:26:33Z</time>
      </trkpt>
      <trkpt lat="42.373185" lon="1.892651">
        <ele>1176.9</ele>
        <time>2018-06-11T10:26:37Z</time>
      </trkpt>
      <trkpt lat="42.373483" lon="1.892361">
        <ele>1171.3</ele>
        <time>2018-06-11T10:26:47Z</time>
      </trkpt>
      <trkpt lat="42.373861" lon="1.891910">
        <ele>1157.6</ele>
        <time>2018-06-11T10:27:01Z</time>
      </trkpt>
      <trkpt lat="42.374157" lon="1.891542">
        <ele>1152.1</ele>
        <time>2018-06-11T10:27:11Z</time>
      </trkpt>
      <trkpt lat="42.374465" lon="1.891039">
        <ele>1150.4</ele>
        <time>2018-06-11T10:27:24Z</time>
      </trkpt>
      <trkpt lat="42.374547" lon="1.890901">
        <ele>1150.3</ele>
        <time>2018-06-11T10:27:28Z</time>
      </trkpt>
      <trkpt lat="42.374597" lon="1.890849">
        <ele>1149.7</ele>
        <time>2018-06-11T10:27:29Z</time>
      </trkpt>
      <trkpt lat="42.374653" lon="1.890828">
        <ele>1148.7</ele>
        <time>2018-06-11T10:27:31Z</time>
      </trkpt>
      <trkpt lat="42.374791" lon="1.890810">
        <ele>1146.2</ele>
        <time>2018-06-11T10:27:35Z</time>
      </trkpt>
      <trkpt lat="42.374972" lon="1.890818">
        <ele>1144.4</ele>
        <time>2018-06-11T10:27:39Z</time>
      </trkpt>
      <trkpt lat="42.375115" lon="1.890859">
        <ele>1143.7</ele>
        <time>2018-06-11T10:27:43Z</time>
      </trkpt>
      <trkpt lat="42.375235" lon="1.890875">
        <ele>1143.1</ele>
        <time>2018-06-11T10:27:47Z</time>
      </trkpt>
      <trkpt lat="42.375290" lon="1.890868">
        <ele>1142.7</ele>
        <time>2018-06-11T10:27:48Z</time>
      </trkpt>
      <trkpt lat="42.375346" lon="1.890815">
        <ele>1142.4</ele>
        <time>2018-06-11T10:27:50Z</time>
      </trkpt>
      <trkpt lat="42.375392" lon="1.890709">
        <ele>1142.1</ele>
        <time>2018-06-11T10:27:52Z</time>
      </trkpt>
      <trkpt lat="42.375452" lon="1.890510">
        <ele>1142.6</ele>
        <time>2018-06-11T10:27:56Z</time>
      </trkpt>
      <trkpt lat="42.375534" lon="1.890179">
        <ele>1143.1</ele>
        <time>2018-06-11T10:28:03Z</time>
      </trkpt>
      <trkpt lat="42.375585" lon="1.889965">
        <ele>1142.5</ele>
        <time>2018-06-11T10:28:08Z</time>
      </trkpt>
      <trkpt lat="42.375636" lon="1.889741">
        <ele>1142.6</ele>
        <time>2018-06-11T10:28:12Z</time>
      </trkpt>
      <trkpt lat="42.375650" lon="1.889628">
        <ele>1143.0</ele>
        <time>2018-06-11T10:28:14Z</time>
      </trkpt>
      <trkpt lat="42.375650" lon="1.889534">
        <ele>1143.2</ele>
        <time>2018-06-11T10:28:16Z</time>
      </trkpt>
      <trkpt lat="42.375631" lon="1.889427">
        <ele>1143.2</ele>
        <time>2018-06-11T10:28:18Z</time>
      </trkpt>
      <trkpt lat="42.375603" lon="1.889320">
        <ele>1143.3</ele>
        <time>2018-06-11T10:28:21Z</time>
      </trkpt>
      <trkpt lat="42.375557" lon="1.889191">
        <ele>1143.1</ele>
        <time>2018-06-11T10:28:23Z</time>
      </trkpt>
      <trkpt lat="42.375404" lon="1.888684">
        <ele>1144.4</ele>
        <time>2018-06-11T10:28:34Z</time>
      </trkpt>
      <trkpt lat="42.375224" lon="1.888228">
        <ele>1147.8</ele>
        <time>2018-06-11T10:28:44Z</time>
      </trkpt>
      <trkpt lat="42.375187" lon="1.888111">
        <ele>1148.3</ele>
        <time>2018-06-11T10:28:47Z</time>
      </trkpt>
      <trkpt lat="42.375187" lon="1.888055">
        <ele>1148.3</ele>
        <time>2018-06-11T10:28:48Z</time>
      </trkpt>
      <trkpt lat="42.375214" lon="1.887998">
        <ele>1147.9</ele>
        <time>2018-06-11T10:28:49Z</time>
      </trkpt>
      <trkpt lat="42.375246" lon="1.887971">
        <ele>1147.5</ele>
        <time>2018-06-11T10:28:50Z</time>
      </trkpt>
      <trkpt lat="42.375302" lon="1.887963">
        <ele>1146.6</ele>
        <time>2018-06-11T10:28:52Z</time>
      </trkpt>
      <trkpt lat="42.375464" lon="1.887949">
        <ele>1144.8</ele>
        <time>2018-06-11T10:28:56Z</time>
      </trkpt>
      <trkpt lat="42.375898" lon="1.887963">
        <ele>1143.1</ele>
        <time>2018-06-11T10:29:08Z</time>
      </trkpt>
      <trkpt lat="42.376297" lon="1.887951">
        <ele>1139.3</ele>
        <time>2018-06-11T10:29:18Z</time>
      </trkpt>
      <trkpt lat="42.376890" lon="1.887928">
        <ele>1128.9</ele>
        <time>2018-06-11T10:29:34Z</time>
      </trkpt>
      <trkpt lat="42.377384" lon="1.887900">
        <ele>1130.7</ele>
        <time>2018-06-11T10:29:47Z</time>
      </trkpt>
      <trkpt lat="42.378087" lon="1.887871">
        <ele>1132.0</ele>
        <time>2018-06-11T10:30:06Z</time>
      </trkpt>
      <trkpt lat="42.378295" lon="1.887832">
        <ele>1129.2</ele>
        <time>2018-06-11T10:30:11Z</time>
      </trkpt>
      <trkpt lat="42.378453" lon="1.887792">
        <ele>1127.7</ele>
        <time>2018-06-11T10:30:16Z</time>
      </trkpt>
      <trkpt lat="42.378578" lon="1.887706">
        <ele>1128.2</ele>
        <time>2018-06-11T10:30:19Z</time>
      </trkpt>
      <trkpt lat="42.378855" lon="1.887535">
        <ele>1129.6</ele>
        <time>2018-06-11T10:30:27Z</time>
      </trkpt>
      <trkpt lat="42.379522" lon="1.887133">
        <ele>1125.9</ele>
        <time>2018-06-11T10:30:47Z</time>
      </trkpt>
      <trkpt lat="42.379784" lon="1.886933">
        <ele>1126.9</ele>
        <time>2018-06-11T10:30:55Z</time>
      </trkpt>
      <trkpt lat="42.380121" lon="1.886668">
        <ele>1125.6</ele>
        <time>2018-06-11T10:31:05Z</time>
      </trkpt>
      <trkpt lat="42.380493" lon="1.886383">
        <ele>1124.1</ele>
        <time>2018-06-11T10:31:16Z</time>
      </trkpt>
      <trkpt lat="42.380648" lon="1.886245">
        <ele>1124.0</ele>
        <time>2018-06-11T10:31:21Z</time>
      </trkpt>
      <trkpt lat="42.380932" lon="1.886115">
        <ele>1123.1</ele>
        <time>2018-06-11T10:31:29Z</time>
      </trkpt>
      <trkpt lat="42.381513" lon="1.885817">
        <ele>1120.9</ele>
        <time>2018-06-11T10:31:46Z</time>
      </trkpt>
      <trkpt lat="42.382011" lon="1.885562">
        <ele>1121.6</ele>
        <time>2018-06-11T10:32:00Z</time>
      </trkpt>
      <trkpt lat="42.382311" lon="1.885398">
        <ele>1117.3</ele>
        <time>2018-06-11T10:32:08Z</time>
      </trkpt>
      <trkpt lat="42.382548" lon="1.885245">
        <ele>1113.1</ele>
        <time>2018-06-11T10:32:16Z</time>
      </trkpt>
      <trkpt lat="42.382768" lon="1.885043">
        <ele>1112.1</ele>
        <time>2018-06-11T10:32:23Z</time>
      </trkpt>
      <trkpt lat="42.383052" lon="1.884753">
        <ele>1113.0</ele>
        <time>2018-06-11T10:32:32Z</time>
      </trkpt>
      <trkpt lat="42.383228" lon="1.884600">
        <ele>1114.8</ele>
        <time>2018-06-11T10:32:38Z</time>
      </trkpt>
      <trkpt lat="42.383374" lon="1.884464">
        <ele>1114.6</ele>
        <time>2018-06-11T10:32:42Z</time>
      </trkpt>
      <trkpt lat="42.383586" lon="1.884307">
        <ele>1115.0</ele>
        <time>2018-06-11T10:32:49Z</time>
      </trkpt>
      <trkpt lat="42.383849" lon="1.884160">
        <ele>1113.7</ele>
        <time>2018-06-11T10:32:56Z</time>
      </trkpt>
      <trkpt lat="42.384261" lon="1.883980">
        <ele>1110.9</ele>
        <time>2018-06-11T10:33:08Z</time>
      </trkpt>
      <trkpt lat="42.384629" lon="1.883824">
        <ele>1108.2</ele>
        <time>2018-06-11T10:33:18Z</time>
      </trkpt>
      <trkpt lat="42.385014" lon="1.883617">
        <ele>1107.8</ele>
        <time>2018-06-11T10:33:29Z</time>
      </trkpt>
      <trkpt lat="42.385271" lon="1.883450">
        <ele>1108.5</ele>
        <time>2018-06-11T10:33:36Z</time>
      </trkpt>
      <trkpt lat="42.385426" lon="1.883350">
        <ele>1109.0</ele>
        <time>2018-06-11T10:33:41Z</time>
      </trkpt>
      <trkpt lat="42.385503" lon="1.883246">
        <ele>1109.3</ele>
        <time>2018-06-11T10:33:44Z</time>
      </trkpt>
      <trkpt lat="42.385713" lon="1.882995">
        <ele>1109.3</ele>
        <time>2018-06-11T10:33:51Z</time>
      </trkpt>
      <trkpt lat="42.385867" lon="1.882773">
        <ele>1108.5</ele>
        <time>2018-06-11T10:33:57Z</time>
      </trkpt>
      <trkpt lat="42.385931" lon="1.882668">
        <ele>1108.1</ele>
        <time>2018-06-11T10:34:00Z</time>
      </trkpt>
      <trkpt lat="42.385957" lon="1.882615">
        <ele>1107.9</ele>
        <time>2018-06-11T10:34:01Z</time>
      </trkpt>
      <trkpt lat="42.385979" lon="1.882568">
        <ele>1107.8</ele>
        <time>2018-06-11T10:34:02Z</time>
      </trkpt>
      <trkpt lat="42.385983" lon="1.882516">
        <ele>1107.6</ele>
        <time>2018-06-11T10:34:03Z</time>
      </trkpt>
      <trkpt lat="42.385974" lon="1.882458">
        <ele>1107.4</ele>
        <time>2018-06-11T10:34:04Z</time>
      </trkpt>
      <trkpt lat="42.385863" lon="1.882110">
        <ele>1105.0</ele>
        <time>2018-06-11T10:34:12Z</time>
      </trkpt>
      <trkpt lat="42.385594" lon="1.881175">
        <ele>1105.9</ele>
        <time>2018-06-11T10:34:31Z</time>
      </trkpt>
      <trkpt lat="42.385435" lon="1.880592">
        <ele>1106.5</ele>
        <time>2018-06-11T10:34:44Z</time>
      </trkpt>
      <trkpt lat="42.385388" lon="1.880423">
        <ele>1106.0</ele>
        <time>2018-06-11T10:34:47Z</time>
      </trkpt>
      <trkpt lat="42.385344" lon="1.880188">
        <ele>1107.2</ele>
        <time>2018-06-11T10:34:52Z</time>
      </trkpt>
      <trkpt lat="42.385330" lon="1.880018">
        <ele>1107.8</ele>
        <time>2018-06-11T10:34:55Z</time>
      </trkpt>
      <trkpt lat="42.385325" lon="1.879654">
        <ele>1108.8</ele>
        <time>2018-06-11T10:35:02Z</time>
      </trkpt>
      <trkpt lat="42.385312" lon="1.879128">
        <ele>1107.7</ele>
        <time>2018-06-11T10:35:13Z</time>
      </trkpt>
      <trkpt lat="42.385303" lon="1.878946">
        <ele>1107.1</ele>
        <time>2018-06-11T10:35:16Z</time>
      </trkpt>
      <trkpt lat="42.385277" lon="1.878754">
        <ele>1106.0</ele>
        <time>2018-06-11T10:35:20Z</time>
      </trkpt>
      <trkpt lat="42.385273" lon="1.878522">
        <ele>1105.2</ele>
        <time>2018-06-11T10:35:25Z</time>
      </trkpt>
      <trkpt lat="42.385301" lon="1.878104">
        <ele>1105.0</ele>
        <time>2018-06-11T10:35:33Z</time>
      </trkpt>
      <trkpt lat="42.385300" lon="1.877910">
        <ele>1105.7</ele>
        <time>2018-06-11T10:35:37Z</time>
      </trkpt>
      <trkpt lat="42.385295" lon="1.877577">
        <ele>1106.6</ele>
        <time>2018-06-11T10:35:43Z</time>
      </trkpt>
      <trkpt lat="42.385282" lon="1.877209">
        <ele>1107.8</ele>
        <time>2018-06-11T10:35:50Z</time>
      </trkpt>
      <trkpt lat="42.385252" lon="1.876859">
        <ele>1109.2</ele>
        <time>2018-06-11T10:35:57Z</time>
      </trkpt>
      <trkpt lat="42.385198" lon="1.876311">
        <ele>1108.4</ele>
        <time>2018-06-11T10:36:08Z</time>
      </trkpt>
      <trkpt lat="42.385136" lon="1.875877">
        <ele>1108.0</ele>
        <time>2018-06-11T10:36:17Z</time>
      </trkpt>
      <trkpt lat="42.385090" lon="1.875573">
        <ele>1108.1</ele>
        <time>2018-06-11T10:36:23Z</time>
      </trkpt>
      <trkpt lat="42.385041" lon="1.875252">
        <ele>1107.7</ele>
        <time>2018-06-11T10:36:29Z</time>
      </trkpt>
      <trkpt lat="42.385009" lon="1.874806">
        <ele>1108.9</ele>
        <time>2018-06-11T10:36:38Z</time>
      </trkpt>
      <trkpt lat="42.385000" lon="1.874443">
        <ele>1108.7</ele>
        <time>2018-06-11T10:36:45Z</time>
      </trkpt>
      <trkpt lat="42.385000" lon="1.874109">
        <ele>1107.4</ele>
        <time>2018-06-11T10:36:52Z</time>
      </trkpt>
      <trkpt lat="42.384985" lon="1.873898">
        <ele>1106.7</ele>
        <time>2018-06-11T10:36:56Z</time>
      </trkpt>
      <trkpt lat="42.385000" lon="1.873674">
        <ele>1105.9</ele>
        <time>2018-06-11T10:37:00Z</time>
      </trkpt>
      <trkpt lat="42.385045" lon="1.872887">
        <ele>1101.3</ele>
        <time>2018-06-11T10:37:16Z</time>
      </trkpt>
      <trkpt lat="42.385068" lon="1.872108">
        <ele>1100.5</ele>
        <time>2018-06-11T10:37:31Z</time>
      </trkpt>
      <trkpt lat="42.385097" lon="1.871775">
        <ele>1099.1</ele>
        <time>2018-06-11T10:37:37Z</time>
      </trkpt>
      <trkpt lat="42.385088" lon="1.871506">
        <ele>1099.8</ele>
        <time>2018-06-11T10:37:43Z</time>
      </trkpt>
      <trkpt lat="42.385080" lon="1.871282">
        <ele>1099.6</ele>
        <time>2018-06-11T10:37:47Z</time>
      </trkpt>
      <trkpt lat="42.385038" lon="1.870757">
        <ele>1099.8</ele>
        <time>2018-06-11T10:37:57Z</time>
      </trkpt>
      <trkpt lat="42.384966" lon="1.870009">
        <ele>1099.3</ele>
        <time>2018-06-11T10:38:12Z</time>
      </trkpt>
      <trkpt lat="42.384940" lon="1.869430">
        <ele>1098.6</ele>
        <time>2018-06-11T10:38:23Z</time>
      </trkpt>
      <trkpt lat="42.384905" lon="1.868804">
        <ele>1095.4</ele>
        <time>2018-06-11T10:38:36Z</time>
      </trkpt>
      <trkpt lat="42.384835" lon="1.867654">
        <ele>1094.9</ele>
        <time>2018-06-11T10:38:58Z</time>
      </trkpt>
      <trkpt lat="42.384816" lon="1.866977">
        <ele>1095.8</ele>
        <time>2018-06-11T10:39:12Z</time>
      </trkpt>
      <trkpt lat="42.384798" lon="1.866664">
        <ele>1092.9</ele>
        <time>2018-06-11T10:39:18Z</time>
      </trkpt>
      <trkpt lat="42.384790" lon="1.866471">
        <ele>1091.2</ele>
        <time>2018-06-11T10:39:22Z</time>
      </trkpt>
      <trkpt lat="42.384773" lon="1.866372">
        <ele>1090.2</ele>
        <time>2018-06-11T10:39:24Z</time>
      </trkpt>
      <trkpt lat="42.384717" lon="1.866231">
        <ele>1088.9</ele>
        <time>2018-06-11T10:39:27Z</time>
      </trkpt>
      <trkpt lat="42.384675" lon="1.866156">
        <ele>1088.7</ele>
        <time>2018-06-11T10:39:29Z</time>
      </trkpt>
      <trkpt lat="42.384602" lon="1.866058">
        <ele>1088.3</ele>
        <time>2018-06-11T10:39:31Z</time>
      </trkpt>
      <trkpt lat="42.384544" lon="1.865989">
        <ele>1088.1</ele>
        <time>2018-06-11T10:39:33Z</time>
      </trkpt>
      <trkpt lat="42.384461" lon="1.865919">
        <ele>1088.1</ele>
        <time>2018-06-11T10:39:36Z</time>
      </trkpt>
      <trkpt lat="42.384379" lon="1.865866">
        <ele>1088.1</ele>
        <time>2018-06-11T10:39:38Z</time>
      </trkpt>
      <trkpt lat="42.384213" lon="1.865766">
        <ele>1087.7</ele>
        <time>2018-06-11T10:39:43Z</time>
      </trkpt>
      <trkpt lat="42.384162" lon="1.865722">
        <ele>1087.5</ele>
        <time>2018-06-11T10:39:45Z</time>
      </trkpt>
      <trkpt lat="42.384122" lon="1.865663">
        <ele>1087.5</ele>
        <time>2018-06-11T10:39:46Z</time>
      </trkpt>
      <trkpt lat="42.384093" lon="1.865607">
        <ele>1087.6</ele>
        <time>2018-06-11T10:39:48Z</time>
      </trkpt>
      <trkpt lat="42.383845" lon="1.865369">
        <ele>1086.7</ele>
        <time>2018-06-11T10:39:56Z</time>
      </trkpt>
      <trkpt lat="42.383767" lon="1.865285">
        <ele>1086.1</ele>
        <time>2018-06-11T10:39:58Z</time>
      </trkpt>
      <trkpt lat="42.383690" lon="1.865166">
        <ele>1086.9</ele>
        <time>2018-06-11T10:40:01Z</time>
      </trkpt>
      <trkpt lat="42.383629" lon="1.865062">
        <ele>1088.3</ele>
        <time>2018-06-11T10:40:04Z</time>
      </trkpt>
      <trkpt lat="42.383580" lon="1.864936">
        <ele>1089.9</ele>
        <time>2018-06-11T10:40:07Z</time>
      </trkpt>
      <trkpt lat="42.383540" lon="1.864785">
        <ele>1091.1</ele>
        <time>2018-06-11T10:40:10Z</time>
      </trkpt>
      <trkpt lat="42.383506" lon="1.864627">
        <ele>1091.6</ele>
        <time>2018-06-11T10:40:13Z</time>
      </trkpt>
      <trkpt lat="42.383460" lon="1.864341">
        <ele>1092.0</ele>
        <time>2018-06-11T10:40:19Z</time>
      </trkpt>
      <trkpt lat="42.383427" lon="1.864123">
        <ele>1090.0</ele>
        <time>2018-06-11T10:40:23Z</time>
      </trkpt>
      <trkpt lat="42.383388" lon="1.863914">
        <ele>1088.6</ele>
        <time>2018-06-11T10:40:28Z</time>
      </trkpt>
      <trkpt lat="42.383366" lon="1.863769">
        <ele>1088.1</ele>
        <time>2018-06-11T10:40:30Z</time>
      </trkpt>
      <trkpt lat="42.383322" lon="1.863619">
        <ele>1087.3</ele>
        <time>2018-06-11T10:40:34Z</time>
      </trkpt>
      <trkpt lat="42.383289" lon="1.863522">
        <ele>1086.6</ele>
        <time>2018-06-11T10:40:36Z</time>
      </trkpt>
      <trkpt lat="42.383195" lon="1.863342">
        <ele>1085.5</ele>
        <time>2018-06-11T10:40:40Z</time>
      </trkpt>
      <trkpt lat="42.383025" lon="1.863097">
        <ele>1085.6</ele>
        <time>2018-06-11T10:40:47Z</time>
      </trkpt>
      <trkpt lat="42.382720" lon="1.862586">
        <ele>1089.3</ele>
        <time>2018-06-11T10:40:59Z</time>
      </trkpt>
      <trkpt lat="42.382492" lon="1.862204">
        <ele>1090.1</ele>
        <time>2018-06-11T10:41:09Z</time>
      </trkpt>
      <trkpt lat="42.382387" lon="1.862020">
        <ele>1090.7</ele>
        <time>2018-06-11T10:41:14Z</time>
      </trkpt>
      <trkpt lat="42.382312" lon="1.861930">
        <ele>1090.5</ele>
        <time>2018-06-11T10:41:16Z</time>
      </trkpt>
      <trkpt lat="42.382227" lon="1.861840">
        <ele>1090.2</ele>
        <time>2018-06-11T10:41:19Z</time>
      </trkpt>
      <trkpt lat="42.382152" lon="1.861773">
        <ele>1089.6</ele>
        <time>2018-06-11T10:41:22Z</time>
      </trkpt>
      <trkpt lat="42.382072" lon="1.861723">
        <ele>1088.7</ele>
        <time>2018-06-11T10:41:24Z</time>
      </trkpt>
      <trkpt lat="42.382012" lon="1.861703">
        <ele>1088.1</ele>
        <time>2018-06-11T10:41:26Z</time>
      </trkpt>
      <trkpt lat="42.381924" lon="1.861691">
        <ele>1087.4</ele>
        <time>2018-06-11T10:41:28Z</time>
      </trkpt>
      <trkpt lat="42.381841" lon="1.861685">
        <ele>1086.9</ele>
        <time>2018-06-11T10:41:30Z</time>
      </trkpt>
      <trkpt lat="42.381704" lon="1.861684">
        <ele>1085.9</ele>
        <time>2018-06-11T10:41:34Z</time>
      </trkpt>
      <trkpt lat="42.381620" lon="1.861689">
        <ele>1085.3</ele>
        <time>2018-06-11T10:41:36Z</time>
      </trkpt>
      <trkpt lat="42.381587" lon="1.861688">
        <ele>1085.0</ele>
        <time>2018-06-11T10:41:37Z</time>
      </trkpt>
      <trkpt lat="42.381540" lon="1.861703">
        <ele>1084.7</ele>
        <time>2018-06-11T10:41:38Z</time>
      </trkpt>
      <trkpt lat="42.381514" lon="1.861730">
        <ele>1084.7</ele>
        <time>2018-06-11T10:41:39Z</time>
      </trkpt>
      <trkpt lat="42.381380" lon="1.861905">
        <ele>1085.4</ele>
        <time>2018-06-11T10:41:44Z</time>
      </trkpt>
      <trkpt lat="42.381287" lon="1.862041">
        <ele>1085.9</ele>
        <time>2018-06-11T10:41:48Z</time>
      </trkpt>
      <trkpt lat="42.381246" lon="1.862094">
        <ele>1086.1</ele>
        <time>2018-06-11T10:41:49Z</time>
      </trkpt>
      <trkpt lat="42.381190" lon="1.862126">
        <ele>1086.5</ele>
        <time>2018-06-11T10:41:51Z</time>
      </trkpt>
      <trkpt lat="42.381111" lon="1.862160">
        <ele>1086.7</ele>
        <time>2018-06-11T10:41:53Z</time>
      </trkpt>
      <trkpt lat="42.380995" lon="1.862195">
        <ele>1086.5</ele>
        <time>2018-06-11T10:41:56Z</time>
      </trkpt>
      <trkpt lat="42.380625" lon="1.862240">
        <ele>1087.3</ele>
        <time>2018-06-11T10:42:06Z</time>
      </trkpt>
      <trkpt lat="42.380485" lon="1.862251">
        <ele>1087.0</ele>
        <time>2018-06-11T10:42:10Z</time>
      </trkpt>
      <trkpt lat="42.380415" lon="1.862236">
        <ele>1086.7</ele>
        <time>2018-06-11T10:42:11Z</time>
      </trkpt>
      <trkpt lat="42.380371" lon="1.862200">
        <ele>1086.5</ele>
        <time>2018-06-11T10:42:13Z</time>
      </trkpt>
      <trkpt lat="42.380344" lon="1.862141">
        <ele>1086.0</ele>
        <time>2018-06-11T10:42:14Z</time>
      </trkpt>
      <trkpt lat="42.380324" lon="1.862061">
        <ele>1085.6</ele>
        <time>2018-06-11T10:42:16Z</time>
      </trkpt>
      <trkpt lat="42.380306" lon="1.861974">
        <ele>1085.2</ele>
        <time>2018-06-11T10:42:18Z</time>
      </trkpt>
      <trkpt lat="42.380303" lon="1.861924">
        <ele>1085.0</ele>
        <time>2018-06-11T10:42:19Z</time>
      </trkpt>
      <trkpt lat="42.380306" lon="1.861868">
        <ele>1084.7</ele>
        <time>2018-06-11T10:42:20Z</time>
      </trkpt>
      <trkpt lat="42.380317" lon="1.861797">
        <ele>1084.3</ele>
        <time>2018-06-11T10:42:21Z</time>
      </trkpt>
      <trkpt lat="42.380353" lon="1.861698">
        <ele>1083.7</ele>
        <time>2018-06-11T10:42:23Z</time>
      </trkpt>
      <trkpt lat="42.380486" lon="1.861417">
        <ele>1083.1</ele>
        <time>2018-06-11T10:42:30Z</time>
      </trkpt>
      <trkpt lat="42.380513" lon="1.861349">
        <ele>1083.1</ele>
        <time>2018-06-11T10:42:31Z</time>
      </trkpt>
      <trkpt lat="42.380513" lon="1.861277">
        <ele>1082.8</ele>
        <time>2018-06-11T10:42:33Z</time>
      </trkpt>
      <trkpt lat="42.380495" lon="1.861215">
        <ele>1082.4</ele>
        <time>2018-06-11T10:42:34Z</time>
      </trkpt>
      <trkpt lat="42.380447" lon="1.861129">
        <ele>1081.8</ele>
        <time>2018-06-11T10:42:36Z</time>
      </trkpt>
      <trkpt lat="42.380363" lon="1.860997">
        <ele>1081.2</ele>
        <time>2018-06-11T10:42:39Z</time>
      </trkpt>
      <trkpt lat="42.380200" lon="1.860827">
        <ele>1082.7</ele>
        <time>2018-06-11T10:42:45Z</time>
      </trkpt>
      <trkpt lat="42.379733" lon="1.860307">
        <ele>1085.5</ele>
        <time>2018-06-11T10:43:01Z</time>
      </trkpt>
      <trkpt lat="42.379275" lon="1.859718">
        <ele>1087.2</ele>
        <time>2018-06-11T10:43:18Z</time>
      </trkpt>
      <trkpt lat="42.379006" lon="1.859466">
        <ele>1088.2</ele>
        <time>2018-06-11T10:43:26Z</time>
      </trkpt>
      <trkpt lat="42.378863" lon="1.859296">
        <ele>1088.2</ele>
        <time>2018-06-11T10:43:31Z</time>
      </trkpt>
      <trkpt lat="42.378792" lon="1.859207">
        <ele>1088.4</ele>
        <time>2018-06-11T10:43:34Z</time>
      </trkpt>
      <trkpt lat="42.378710" lon="1.859074">
        <ele>1088.2</ele>
        <time>2018-06-11T10:43:37Z</time>
      </trkpt>
      <trkpt lat="42.378661" lon="1.858963">
        <ele>1087.8</ele>
        <time>2018-06-11T10:43:40Z</time>
      </trkpt>
      <trkpt lat="42.378622" lon="1.858852">
        <ele>1087.7</ele>
        <time>2018-06-11T10:43:42Z</time>
      </trkpt>
      <trkpt lat="42.378546" lon="1.858541">
        <ele>1087.2</ele>
        <time>2018-06-11T10:43:49Z</time>
      </trkpt>
      <trkpt lat="42.378443" lon="1.858134">
        <ele>1087.0</ele>
        <time>2018-06-11T10:43:57Z</time>
      </trkpt>
      <trkpt lat="42.378297" lon="1.857661">
        <ele>1091.4</ele>
        <time>2018-06-11T10:44:07Z</time>
      </trkpt>
      <trkpt lat="42.378196" lon="1.857297">
        <ele>1094.2</ele>
        <time>2018-06-11T10:44:15Z</time>
      </trkpt>
      <trkpt lat="42.378157" lon="1.857185">
        <ele>1094.9</ele>
        <time>2018-06-11T10:44:17Z</time>
      </trkpt>
      <trkpt lat="42.378142" lon="1.857096">
        <ele>1095.2</ele>
        <time>2018-06-11T10:44:19Z</time>
      </trkpt>
      <trkpt lat="42.378132" lon="1.857015">
        <ele>1095.4</ele>
        <time>2018-06-11T10:44:21Z</time>
      </trkpt>
      <trkpt lat="42.378135" lon="1.856900">
        <ele>1095.7</ele>
        <time>2018-06-11T10:44:23Z</time>
      </trkpt>
      <trkpt lat="42.378159" lon="1.856738">
        <ele>1096.2</ele>
        <time>2018-06-11T10:44:26Z</time>
      </trkpt>
      <trkpt lat="42.378202" lon="1.856398">
        <ele>1097.4</ele>
        <time>2018-06-11T10:44:33Z</time>
      </trkpt>
      <trkpt lat="42.378209" lon="1.856259">
        <ele>1097.8</ele>
        <time>2018-06-11T10:44:36Z</time>
      </trkpt>
      <trkpt lat="42.378206" lon="1.856155">
        <ele>1097.9</ele>
        <time>2018-06-11T10:44:38Z</time>
      </trkpt>
      <trkpt lat="42.378196" lon="1.856047">
        <ele>1098.0</ele>
        <time>2018-06-11T10:44:40Z</time>
      </trkpt>
      <trkpt lat="42.378168" lon="1.855904">
        <ele>1097.4</ele>
        <time>2018-06-11T10:44:43Z</time>
      </trkpt>
      <trkpt lat="42.378120" lon="1.855688">
        <ele>1096.0</ele>
        <time>2018-06-11T10:44:47Z</time>
      </trkpt>
      <trkpt lat="42.377953" lon="1.855091">
        <ele>1097.0</ele>
        <time>2018-06-11T10:45:00Z</time>
      </trkpt>
      <trkpt lat="42.377749" lon="1.854449">
        <ele>1100.7</ele>
        <time>2018-06-11T10:45:13Z</time>
      </trkpt>
      <trkpt lat="42.377638" lon="1.854094">
        <ele>1101.2</ele>
        <time>2018-06-11T10:45:21Z</time>
      </trkpt>
      <trkpt lat="42.377544" lon="1.853808">
        <ele>1098.7</ele>
        <time>2018-06-11T10:45:27Z</time>
      </trkpt>
      <trkpt lat="42.377425" lon="1.853552">
        <ele>1096.6</ele>
        <time>2018-06-11T10:45:33Z</time>
      </trkpt>
      <trkpt lat="42.377299" lon="1.853302">
        <ele>1095.4</ele>
        <time>2018-06-11T10:45:39Z</time>
      </trkpt>
      <trkpt lat="42.377200" lon="1.853152">
        <ele>1095.6</ele>
        <time>2018-06-11T10:45:43Z</time>
      </trkpt>
      <trkpt lat="42.377089" lon="1.853001">
        <ele>1096.0</ele>
        <time>2018-06-11T10:45:47Z</time>
      </trkpt>
      <trkpt lat="42.376878" lon="1.852816">
        <ele>1094.8</ele>
        <time>2018-06-11T10:45:54Z</time>
      </trkpt>
      <trkpt lat="42.376667" lon="1.852616">
        <ele>1094.5</ele>
        <time>2018-06-11T10:46:00Z</time>
      </trkpt>
      <trkpt lat="42.376570" lon="1.852488">
        <ele>1094.8</ele>
        <time>2018-06-11T10:46:04Z</time>
      </trkpt>
      <trkpt lat="42.376474" lon="1.852328">
        <ele>1095.3</ele>
        <time>2018-06-11T10:46:08Z</time>
      </trkpt>
      <trkpt lat="42.376405" lon="1.852132">
        <ele>1095.5</ele>
        <time>2018-06-11T10:46:12Z</time>
      </trkpt>
      <trkpt lat="42.376359" lon="1.851982">
        <ele>1095.6</ele>
        <time>2018-06-11T10:46:15Z</time>
      </trkpt>
      <trkpt lat="42.376283" lon="1.851658">
        <ele>1097.5</ele>
        <time>2018-06-11T10:46:22Z</time>
      </trkpt>
      <trkpt lat="42.376191" lon="1.851279">
        <ele>1100.6</ele>
        <time>2018-06-11T10:46:30Z</time>
      </trkpt>
      <trkpt lat="42.376172" lon="1.851187">
        <ele>1101.1</ele>
        <time>2018-06-11T10:46:32Z</time>
      </trkpt>
      <trkpt lat="42.376172" lon="1.851131">
        <ele>1101.4</ele>
        <time>2018-06-11T10:46:33Z</time>
      </trkpt>
      <trkpt lat="42.376202" lon="1.851074">
        <ele>1101.7</ele>
        <time>2018-06-11T10:46:34Z</time>
      </trkpt>
      <trkpt lat="42.376240" lon="1.851038">
        <ele>1101.8</ele>
        <time>2018-06-11T10:46:36Z</time>
      </trkpt>
      <trkpt lat="42.376278" lon="1.850992">
        <ele>1101.8</ele>
        <time>2018-06-11T10:46:37Z</time>
      </trkpt>
      <trkpt lat="42.376297" lon="1.850935">
        <ele>1101.8</ele>
        <time>2018-06-11T10:46:38Z</time>
      </trkpt>
      <trkpt lat="42.376297" lon="1.850801">
        <ele>1101.7</ele>
        <time>2018-06-11T10:46:41Z</time>
      </trkpt>
      <trkpt lat="42.376270" lon="1.850594">
        <ele>1101.8</ele>
        <time>2018-06-11T10:46:45Z</time>
      </trkpt>
      <trkpt lat="42.376240" lon="1.850378">
        <ele>1102.0</ele>
        <time>2018-06-11T10:46:49Z</time>
      </trkpt>
      <trkpt lat="42.376179" lon="1.850143">
        <ele>1102.0</ele>
        <time>2018-06-11T10:46:54Z</time>
      </trkpt>
      <trkpt lat="42.376072" lon="1.849795">
        <ele>1102.1</ele>
        <time>2018-06-11T10:47:01Z</time>
      </trkpt>
      <trkpt lat="42.375961" lon="1.849499">
        <ele>1102.6</ele>
        <time>2018-06-11T10:47:08Z</time>
      </trkpt>
      <trkpt lat="42.375797" lon="1.849128">
        <ele>1100.9</ele>
        <time>2018-06-11T10:47:16Z</time>
      </trkpt>
      <trkpt lat="42.375755" lon="1.849035">
        <ele>1100.8</ele>
        <time>2018-06-11T10:47:18Z</time>
      </trkpt>
      <trkpt lat="42.375693" lon="1.848903">
        <ele>1100.1</ele>
        <time>2018-06-11T10:47:22Z</time>
      </trkpt>
      <trkpt lat="42.375631" lon="1.848699">
        <ele>1098.8</ele>
        <time>2018-06-11T10:47:26Z</time>
      </trkpt>
      <trkpt lat="42.375558" lon="1.848401">
        <ele>1097.9</ele>
        <time>2018-06-11T10:47:32Z</time>
      </trkpt>
      <trkpt lat="42.375516" lon="1.848180">
        <ele>1097.6</ele>
        <time>2018-06-11T10:47:36Z</time>
      </trkpt>
      <trkpt lat="42.375493" lon="1.848012">
        <ele>1097.1</ele>
        <time>2018-06-11T10:47:40Z</time>
      </trkpt>
      <trkpt lat="42.375463" lon="1.847825">
        <ele>1096.6</ele>
        <time>2018-06-11T10:47:44Z</time>
      </trkpt>
      <trkpt lat="42.375406" lon="1.847645">
        <ele>1096.0</ele>
        <time>2018-06-11T10:47:47Z</time>
      </trkpt>
      <trkpt lat="42.375322" lon="1.847484">
        <ele>1096.0</ele>
        <time>2018-06-11T10:47:51Z</time>
      </trkpt>
      <trkpt lat="42.375243" lon="1.847359">
        <ele>1096.6</ele>
        <time>2018-06-11T10:47:54Z</time>
      </trkpt>
      <trkpt lat="42.375207" lon="1.847242">
        <ele>1097.7</ele>
        <time>2018-06-11T10:47:57Z</time>
      </trkpt>
      <trkpt lat="42.375190" lon="1.847112">
        <ele>1098.8</ele>
        <time>2018-06-11T10:48:00Z</time>
      </trkpt>
      <trkpt lat="42.375169" lon="1.846995">
        <ele>1098.4</ele>
        <time>2018-06-11T10:48:02Z</time>
      </trkpt>
      <trkpt lat="42.375094" lon="1.846782">
        <ele>1097.1</ele>
        <time>2018-06-11T10:48:07Z</time>
      </trkpt>
      <trkpt lat="42.375039" lon="1.846652">
        <ele>1096.1</ele>
        <time>2018-06-11T10:48:09Z</time>
      </trkpt>
      <trkpt lat="42.374970" lon="1.846522">
        <ele>1095.2</ele>
        <time>2018-06-11T10:48:13Z</time>
      </trkpt>
      <trkpt lat="42.374897" lon="1.846405">
        <ele>1095.3</ele>
        <time>2018-06-11T10:48:16Z</time>
      </trkpt>
      <trkpt lat="42.374833" lon="1.846280">
        <ele>1095.8</ele>
        <time>2018-06-11T10:48:19Z</time>
      </trkpt>
      <trkpt lat="42.374768" lon="1.846088">
        <ele>1097.2</ele>
        <time>2018-06-11T10:48:23Z</time>
      </trkpt>
      <trkpt lat="42.374644" lon="1.845790">
        <ele>1099.5</ele>
        <time>2018-06-11T10:48:29Z</time>
      </trkpt>
      <trkpt lat="42.374557" lon="1.845623">
        <ele>1100.6</ele>
        <time>2018-06-11T10:48:33Z</time>
      </trkpt>
      <trkpt lat="42.374460" lon="1.845450">
        <ele>1100.1</ele>
        <time>2018-06-11T10:48:38Z</time>
      </trkpt>
      <trkpt lat="42.374368" lon="1.845301">
        <ele>1100.0</ele>
        <time>2018-06-11T10:48:41Z</time>
      </trkpt>
      <trkpt lat="42.374295" lon="1.845152">
        <ele>1100.0</ele>
        <time>2018-06-11T10:48:45Z</time>
      </trkpt>
      <trkpt lat="42.374258" lon="1.845016">
        <ele>1099.2</ele>
        <time>2018-06-11T10:48:48Z</time>
      </trkpt>
      <trkpt lat="42.374217" lon="1.844867">
        <ele>1098.4</ele>
        <time>2018-06-11T10:48:51Z</time>
      </trkpt>
      <trkpt lat="42.374180" lon="1.844745">
        <ele>1097.9</ele>
        <time>2018-06-11T10:48:54Z</time>
      </trkpt>
      <trkpt lat="42.374143" lon="1.844584">
        <ele>1097.2</ele>
        <time>2018-06-11T10:48:57Z</time>
      </trkpt>
      <trkpt lat="42.374119" lon="1.844385">
        <ele>1097.0</ele>
        <time>2018-06-11T10:49:01Z</time>
      </trkpt>
      <trkpt lat="42.374104" lon="1.844136">
        <ele>1097.3</ele>
        <time>2018-06-11T10:49:06Z</time>
      </trkpt>
      <trkpt lat="42.374117" lon="1.844011">
        <ele>1097.6</ele>
        <time>2018-06-11T10:49:08Z</time>
      </trkpt>
      <trkpt lat="42.374172" lon="1.843830">
        <ele>1097.0</ele>
        <time>2018-06-11T10:49:12Z</time>
      </trkpt>
      <trkpt lat="42.374195" lon="1.843718">
        <ele>1096.4</ele>
        <time>2018-06-11T10:49:14Z</time>
      </trkpt>
      <trkpt lat="42.374203" lon="1.843649">
        <ele>1096.0</ele>
        <time>2018-06-11T10:49:16Z</time>
      </trkpt>
      <trkpt lat="42.374208" lon="1.843586">
        <ele>1095.7</ele>
        <time>2018-06-11T10:49:17Z</time>
      </trkpt>
      <trkpt lat="42.374198" lon="1.843505">
        <ele>1095.2</ele>
        <time>2018-06-11T10:49:18Z</time>
      </trkpt>
      <trkpt lat="42.374161" lon="1.843436">
        <ele>1094.8</ele>
        <time>2018-06-11T10:49:20Z</time>
      </trkpt>
      <trkpt lat="42.374104" lon="1.843329">
        <ele>1094.3</ele>
        <time>2018-06-11T10:49:23Z</time>
      </trkpt>
      <trkpt lat="42.373996" lon="1.843123">
        <ele>1093.4</ele>
        <time>2018-06-11T10:49:28Z</time>
      </trkpt>
      <trkpt lat="42.373898" lon="1.842992">
        <ele>1092.4</ele>
        <time>2018-06-11T10:49:31Z</time>
      </trkpt>
      <trkpt lat="42.373847" lon="1.842916">
        <ele>1092.0</ele>
        <time>2018-06-11T10:49:33Z</time>
      </trkpt>
      <trkpt lat="42.373769" lon="1.842761">
        <ele>1091.4</ele>
        <time>2018-06-11T10:49:37Z</time>
      </trkpt>
      <trkpt lat="42.373700" lon="1.842529">
        <ele>1091.4</ele>
        <time>2018-06-11T10:49:42Z</time>
      </trkpt>
      <trkpt lat="42.373672" lon="1.842385">
        <ele>1091.6</ele>
        <time>2018-06-11T10:49:45Z</time>
      </trkpt>
      <trkpt lat="42.373676" lon="1.842279">
        <ele>1091.0</ele>
        <time>2018-06-11T10:49:47Z</time>
      </trkpt>
      <trkpt lat="42.373694" lon="1.842147">
        <ele>1090.0</ele>
        <time>2018-06-11T10:49:50Z</time>
      </trkpt>
      <trkpt lat="42.373712" lon="1.842009">
        <ele>1089.3</ele>
        <time>2018-06-11T10:49:52Z</time>
      </trkpt>
      <trkpt lat="42.373721" lon="1.841914">
        <ele>1089.2</ele>
        <time>2018-06-11T10:49:54Z</time>
      </trkpt>
      <trkpt lat="42.373716" lon="1.841795">
        <ele>1089.2</ele>
        <time>2018-06-11T10:49:56Z</time>
      </trkpt>
      <trkpt lat="42.373687" lon="1.841669">
        <ele>1089.5</ele>
        <time>2018-06-11T10:49:59Z</time>
      </trkpt>
      <trkpt lat="42.373641" lon="1.841550">
        <ele>1089.6</ele>
        <time>2018-06-11T10:50:02Z</time>
      </trkpt>
      <trkpt lat="42.373575" lon="1.841436">
        <ele>1088.4</ele>
        <time>2018-06-11T10:50:05Z</time>
      </trkpt>
      <trkpt lat="42.373491" lon="1.841317">
        <ele>1086.8</ele>
        <time>2018-06-11T10:50:08Z</time>
      </trkpt>
      <trkpt lat="42.373449" lon="1.841254">
        <ele>1085.9</ele>
        <time>2018-06-11T10:50:09Z</time>
      </trkpt>
      <trkpt lat="42.373421" lon="1.841178">
        <ele>1085.0</ele>
        <time>2018-06-11T10:50:11Z</time>
      </trkpt>
      <trkpt lat="42.373406" lon="1.841084">
        <ele>1084.0</ele>
        <time>2018-06-11T10:50:13Z</time>
      </trkpt>
      <trkpt lat="42.373405" lon="1.840993">
        <ele>1083.2</ele>
        <time>2018-06-11T10:50:15Z</time>
      </trkpt>
      <trkpt lat="42.373453" lon="1.840794">
        <ele>1082.4</ele>
        <time>2018-06-11T10:50:19Z</time>
      </trkpt>
      <trkpt lat="42.373626" lon="1.840229">
        <ele>1080.6</ele>
        <time>2018-06-11T10:50:31Z</time>
      </trkpt>
      <trkpt lat="42.373634" lon="1.840096">
        <ele>1079.9</ele>
        <time>2018-06-11T10:50:33Z</time>
      </trkpt>
      <trkpt lat="42.373624" lon="1.840031">
        <ele>1079.5</ele>
        <time>2018-06-11T10:50:35Z</time>
      </trkpt>
      <trkpt lat="42.373599" lon="1.839966">
        <ele>1079.0</ele>
        <time>2018-06-11T10:50:36Z</time>
      </trkpt>
      <trkpt lat="42.373555" lon="1.839895">
        <ele>1078.5</ele>
        <time>2018-06-11T10:50:38Z</time>
      </trkpt>
      <trkpt lat="42.373498" lon="1.839830">
        <ele>1078.1</ele>
        <time>2018-06-11T10:50:40Z</time>
      </trkpt>
      <trkpt lat="42.373403" lon="1.839745">
        <ele>1079.1</ele>
        <time>2018-06-11T10:50:43Z</time>
      </trkpt>
      <trkpt lat="42.373291" lon="1.839679">
        <ele>1080.8</ele>
        <time>2018-06-11T10:50:46Z</time>
      </trkpt>
      <trkpt lat="42.373235" lon="1.839656">
        <ele>1081.6</ele>
        <time>2018-06-11T10:50:48Z</time>
      </trkpt>
      <trkpt lat="42.373188" lon="1.839656">
        <ele>1082.3</ele>
        <time>2018-06-11T10:50:49Z</time>
      </trkpt>
      <trkpt lat="42.373147" lon="1.839688">
        <ele>1083.0</ele>
        <time>2018-06-11T10:50:50Z</time>
      </trkpt>
      <trkpt lat="42.373098" lon="1.839762">
        <ele>1083.9</ele>
        <time>2018-06-11T10:50:52Z</time>
      </trkpt>
      <trkpt lat="42.373061" lon="1.839839">
        <ele>1084.8</ele>
        <time>2018-06-11T10:50:54Z</time>
      </trkpt>
      <trkpt lat="42.373008" lon="1.839964">
        <ele>1085.6</ele>
        <time>2018-06-11T10:50:57Z</time>
      </trkpt>
      <trkpt lat="42.372944" lon="1.840097">
        <ele>1086.5</ele>
        <time>2018-06-11T10:51:00Z</time>
      </trkpt>
      <trkpt lat="42.372901" lon="1.840161">
        <ele>1086.7</ele>
        <time>2018-06-11T10:51:02Z</time>
      </trkpt>
      <trkpt lat="42.372819" lon="1.840244">
        <ele>1085.5</ele>
        <time>2018-06-11T10:51:05Z</time>
      </trkpt>
      <trkpt lat="42.372740" lon="1.840289">
        <ele>1084.7</ele>
        <time>2018-06-11T10:51:07Z</time>
      </trkpt>
      <trkpt lat="42.372658" lon="1.840315">
        <ele>1084.1</ele>
        <time>2018-06-11T10:51:09Z</time>
      </trkpt>
      <trkpt lat="42.372548" lon="1.840298">
        <ele>1084.3</ele>
        <time>2018-06-11T10:51:12Z</time>
      </trkpt>
      <trkpt lat="42.372353" lon="1.840215">
        <ele>1085.1</ele>
        <time>2018-06-11T10:51:17Z</time>
      </trkpt>
      <trkpt lat="42.371929" lon="1.840061">
        <ele>1090.4</ele>
        <time>2018-06-11T10:51:29Z</time>
      </trkpt>
      <trkpt lat="42.371673" lon="1.839976">
        <ele>1091.5</ele>
        <time>2018-06-11T10:51:36Z</time>
      </trkpt>
      <trkpt lat="42.371502" lon="1.839896">
        <ele>1091.4</ele>
        <time>2018-06-11T10:51:41Z</time>
      </trkpt>
      <trkpt lat="42.371358" lon="1.839817">
        <ele>1091.8</ele>
        <time>2018-06-11T10:51:45Z</time>
      </trkpt>
      <trkpt lat="42.371134" lon="1.839657">
        <ele>1092.4</ele>
        <time>2018-06-11T10:51:52Z</time>
      </trkpt>
      <trkpt lat="42.370844" lon="1.839374">
        <ele>1092.5</ele>
        <time>2018-06-11T10:52:01Z</time>
      </trkpt>
      <trkpt lat="42.370691" lon="1.839227">
        <ele>1092.5</ele>
        <time>2018-06-11T10:52:06Z</time>
      </trkpt>
      <trkpt lat="42.370610" lon="1.839182">
        <ele>1092.7</ele>
        <time>2018-06-11T10:52:08Z</time>
      </trkpt>
      <trkpt lat="42.370525" lon="1.839139">
        <ele>1093.0</ele>
        <time>2018-06-11T10:52:11Z</time>
      </trkpt>
      <trkpt lat="42.370411" lon="1.839067">
        <ele>1093.3</ele>
        <time>2018-06-11T10:52:14Z</time>
      </trkpt>
      <trkpt lat="42.370321" lon="1.838964">
        <ele>1092.0</ele>
        <time>2018-06-11T10:52:17Z</time>
      </trkpt>
      <trkpt lat="42.370219" lon="1.838803">
        <ele>1090.4</ele>
        <time>2018-06-11T10:52:21Z</time>
      </trkpt>
      <trkpt lat="42.369887" lon="1.838268">
        <ele>1091.1</ele>
        <time>2018-06-11T10:52:35Z</time>
      </trkpt>
      <trkpt lat="42.369608" lon="1.837842">
        <ele>1091.3</ele>
        <time>2018-06-11T10:52:46Z</time>
      </trkpt>
      <trkpt lat="42.369474" lon="1.837669">
        <ele>1090.2</ele>
        <time>2018-06-11T10:52:51Z</time>
      </trkpt>
      <trkpt lat="42.369378" lon="1.837553">
        <ele>1089.7</ele>
        <time>2018-06-11T10:52:55Z</time>
      </trkpt>
      <trkpt lat="42.369291" lon="1.837389">
        <ele>1089.2</ele>
        <time>2018-06-11T10:52:59Z</time>
      </trkpt>
      <trkpt lat="42.369233" lon="1.837252">
        <ele>1088.6</ele>
        <time>2018-06-11T10:53:02Z</time>
      </trkpt>
      <trkpt lat="42.369200" lon="1.837074">
        <ele>1087.3</ele>
        <time>2018-06-11T10:53:05Z</time>
      </trkpt>
      <trkpt lat="42.369174" lon="1.836817">
        <ele>1086.5</ele>
        <time>2018-06-11T10:53:10Z</time>
      </trkpt>
      <trkpt lat="42.369174" lon="1.836674">
        <ele>1086.2</ele>
        <time>2018-06-11T10:53:13Z</time>
      </trkpt>
      <trkpt lat="42.369155" lon="1.836507">
        <ele>1086.1</ele>
        <time>2018-06-11T10:53:16Z</time>
      </trkpt>
      <trkpt lat="42.369098" lon="1.836369">
        <ele>1086.5</ele>
        <time>2018-06-11T10:53:19Z</time>
      </trkpt>
      <trkpt lat="42.369042" lon="1.836277">
        <ele>1086.9</ele>
        <time>2018-06-11T10:53:22Z</time>
      </trkpt>
      <trkpt lat="42.368899" lon="1.836055">
        <ele>1085.4</ele>
        <time>2018-06-11T10:53:28Z</time>
      </trkpt>
      <trkpt lat="42.368782" lon="1.835898">
        <ele>1084.0</ele>
        <time>2018-06-11T10:53:32Z</time>
      </trkpt>
      <trkpt lat="42.368657" lon="1.835755">
        <ele>1082.9</ele>
        <time>2018-06-11T10:53:36Z</time>
      </trkpt>
      <trkpt lat="42.368447" lon="1.835527">
        <ele>1082.7</ele>
        <time>2018-06-11T10:53:43Z</time>
      </trkpt>
      <trkpt lat="42.368278" lon="1.835332">
        <ele>1083.8</ele>
        <time>2018-06-11T10:53:49Z</time>
      </trkpt>
      <trkpt lat="42.368186" lon="1.835228">
        <ele>1084.1</ele>
        <time>2018-06-11T10:53:53Z</time>
      </trkpt>
      <trkpt lat="42.368095" lon="1.835097">
        <ele>1084.7</ele>
        <time>2018-06-11T10:53:56Z</time>
      </trkpt>
      <trkpt lat="42.368008" lon="1.834934">
        <ele>1084.6</ele>
        <time>2018-06-11T10:54:00Z</time>
      </trkpt>
      <trkpt lat="42.367834" lon="1.834576">
        <ele>1084.6</ele>
        <time>2018-06-11T10:54:08Z</time>
      </trkpt>
      <trkpt lat="42.367830" lon="1.834542">
        <ele>1084.7</ele>
        <time>2018-06-11T10:54:09Z</time>
      </trkpt>
      <trkpt lat="42.367834" lon="1.834511">
        <ele>1084.8</ele>
        <time>2018-06-11T10:54:10Z</time>
      </trkpt>
      <trkpt lat="42.367852" lon="1.834487">
        <ele>1084.7</ele>
        <time>2018-06-11T10:54:10Z</time>
      </trkpt>
      <trkpt lat="42.368239" lon="1.834232">
        <ele>1085.3</ele>
        <time>2018-06-11T10:54:22Z</time>
      </trkpt>
      <trkpt lat="42.368705" lon="1.833937">
        <ele>1084.3</ele>
        <time>2018-06-11T10:54:35Z</time>
      </trkpt>
      <trkpt lat="42.368827" lon="1.833849">
        <ele>1083.8</ele>
        <time>2018-06-11T10:54:39Z</time>
      </trkpt>
      <trkpt lat="42.368900" lon="1.833782">
        <ele>1083.5</ele>
        <time>2018-06-11T10:54:41Z</time>
      </trkpt>
      <trkpt lat="42.369021" lon="1.833665">
        <ele>1082.4</ele>
        <time>2018-06-11T10:54:45Z</time>
      </trkpt>
      <trkpt lat="42.369168" lon="1.833499">
        <ele>1082.6</ele>
        <time>2018-06-11T10:54:50Z</time>
      </trkpt>
      <trkpt lat="42.369357" lon="1.833282">
        <ele>1082.9</ele>
        <time>2018-06-11T10:54:57Z</time>
      </trkpt>
      <trkpt lat="42.369605" lon="1.832928">
        <ele>1081.6</ele>
        <time>2018-06-11T10:55:06Z</time>
      </trkpt>
      <trkpt lat="42.369863" lon="1.832600">
        <ele>1077.9</ele>
        <time>2018-06-11T10:55:16Z</time>
      </trkpt>
      <trkpt lat="42.370035" lon="1.832393">
        <ele>1076.5</ele>
        <time>2018-06-11T10:55:22Z</time>
      </trkpt>
      <trkpt lat="42.370208" lon="1.832221">
        <ele>1075.6</ele>
        <time>2018-06-11T10:55:28Z</time>
      </trkpt>
      <trkpt lat="42.370454" lon="1.832048">
        <ele>1074.6</ele>
        <time>2018-06-11T10:55:35Z</time>
      </trkpt>
      <trkpt lat="42.370717" lon="1.831832">
        <ele>1073.1</ele>
        <time>2018-06-11T10:55:43Z</time>
      </trkpt>
      <trkpt lat="42.370929" lon="1.831577">
        <ele>1072.4</ele>
        <time>2018-06-11T10:55:51Z</time>
      </trkpt>
      <trkpt lat="42.371144" lon="1.831182">
        <ele>1069.8</ele>
        <time>2018-06-11T10:56:00Z</time>
      </trkpt>
      <trkpt lat="42.371208" lon="1.831072">
        <ele>1069.3</ele>
        <time>2018-06-11T10:56:03Z</time>
      </trkpt>
      <trkpt lat="42.371293" lon="1.830832">
        <ele>1068.7</ele>
        <time>2018-06-11T10:56:08Z</time>
      </trkpt>
      <trkpt lat="42.371353" lon="1.830596">
        <ele>1068.4</ele>
        <time>2018-06-11T10:56:13Z</time>
      </trkpt>
      <trkpt lat="42.371382" lon="1.830356">
        <ele>1068.4</ele>
        <time>2018-06-11T10:56:18Z</time>
      </trkpt>
      <trkpt lat="42.371409" lon="1.830101">
        <ele>1067.9</ele>
        <time>2018-06-11T10:56:23Z</time>
      </trkpt>
      <trkpt lat="42.371428" lon="1.829974">
        <ele>1067.8</ele>
        <time>2018-06-11T10:56:25Z</time>
      </trkpt>
      <trkpt lat="42.371433" lon="1.829866">
        <ele>1067.7</ele>
        <time>2018-06-11T10:56:28Z</time>
      </trkpt>
      <trkpt lat="42.371418" lon="1.829786">
        <ele>1067.2</ele>
        <time>2018-06-11T10:56:29Z</time>
      </trkpt>
      <trkpt lat="42.371364" lon="1.829726">
        <ele>1066.7</ele>
        <time>2018-06-11T10:56:31Z</time>
      </trkpt>
      <trkpt lat="42.371259" lon="1.829640">
        <ele>1066.2</ele>
        <time>2018-06-11T10:56:34Z</time>
      </trkpt>
      <trkpt lat="42.371185" lon="1.829573">
        <ele>1065.9</ele>
        <time>2018-06-11T10:56:37Z</time>
      </trkpt>
      <trkpt lat="42.371135" lon="1.829500">
        <ele>1065.2</ele>
        <time>2018-06-11T10:56:39Z</time>
      </trkpt>
      <trkpt lat="42.371092" lon="1.829388">
        <ele>1064.3</ele>
        <time>2018-06-11T10:56:41Z</time>
      </trkpt>
      <trkpt lat="42.371007" lon="1.829190">
        <ele>1063.4</ele>
        <time>2018-06-11T10:56:46Z</time>
      </trkpt>
      <trkpt lat="42.370844" lon="1.828699">
        <ele>1063.2</ele>
        <time>2018-06-11T10:56:56Z</time>
      </trkpt>
      <trkpt lat="42.370669" lon="1.828259">
        <ele>1063.2</ele>
        <time>2018-06-11T10:57:06Z</time>
      </trkpt>
      <trkpt lat="42.370569" lon="1.828059">
        <ele>1062.8</ele>
        <time>2018-06-11T10:57:11Z</time>
      </trkpt>
      <trkpt lat="42.370432" lon="1.827835">
        <ele>1062.1</ele>
        <time>2018-06-11T10:57:16Z</time>
      </trkpt>
      <trkpt lat="42.370268" lon="1.827633">
        <ele>1060.9</ele>
        <time>2018-06-11T10:57:22Z</time>
      </trkpt>
      <trkpt lat="42.370144" lon="1.827448">
        <ele>1058.7</ele>
        <time>2018-06-11T10:57:27Z</time>
      </trkpt>
      <trkpt lat="42.369982" lon="1.827168">
        <ele>1057.4</ele>
        <time>2018-06-11T10:57:34Z</time>
      </trkpt>
      <trkpt lat="42.369856" lon="1.826953">
        <ele>1056.0</ele>
        <time>2018-06-11T10:57:39Z</time>
      </trkpt>
      <trkpt lat="42.369801" lon="1.826874">
        <ele>1055.2</ele>
        <time>2018-06-11T10:57:42Z</time>
      </trkpt>
      <trkpt lat="42.369717" lon="1.826804">
        <ele>1054.5</ele>
        <time>2018-06-11T10:57:44Z</time>
      </trkpt>
      <trkpt lat="42.369627" lon="1.826745">
        <ele>1054.0</ele>
        <time>2018-06-11T10:57:47Z</time>
      </trkpt>
      <trkpt lat="42.369552" lon="1.826711">
        <ele>1053.7</ele>
        <time>2018-06-11T10:57:49Z</time>
      </trkpt>
      <trkpt lat="42.369497" lon="1.826694">
        <ele>1053.6</ele>
        <time>2018-06-11T10:57:50Z</time>
      </trkpt>
      <trkpt lat="42.369449" lon="1.826661">
        <ele>1053.5</ele>
        <time>2018-06-11T10:57:52Z</time>
      </trkpt>
      <trkpt lat="42.369413" lon="1.826604">
        <ele>1053.3</ele>
        <time>2018-06-11T10:57:53Z</time>
      </trkpt>
      <trkpt lat="42.369397" lon="1.826513">
        <ele>1052.9</ele>
        <time>2018-06-11T10:57:55Z</time>
      </trkpt>
      <trkpt lat="42.369403" lon="1.826427">
        <ele>1052.6</ele>
        <time>2018-06-11T10:57:57Z</time>
      </trkpt>
      <trkpt lat="42.369418" lon="1.826301">
        <ele>1052.2</ele>
        <time>2018-06-11T10:57:59Z</time>
      </trkpt>
      <trkpt lat="42.369436" lon="1.826106">
        <ele>1052.0</ele>
        <time>2018-06-11T10:58:03Z</time>
      </trkpt>
      <trkpt lat="42.369445" lon="1.825957">
        <ele>1052.0</ele>
        <time>2018-06-11T10:58:06Z</time>
      </trkpt>
      <trkpt lat="42.369451" lon="1.825849">
        <ele>1051.7</ele>
        <time>2018-06-11T10:58:08Z</time>
      </trkpt>
      <trkpt lat="42.369448" lon="1.825754">
        <ele>1051.6</ele>
        <time>2018-06-11T10:58:10Z</time>
      </trkpt>
      <trkpt lat="42.369424" lon="1.825648">
        <ele>1051.6</ele>
        <time>2018-06-11T10:58:12Z</time>
      </trkpt>
      <trkpt lat="42.369388" lon="1.825530">
        <ele>1051.7</ele>
        <time>2018-06-11T10:58:15Z</time>
      </trkpt>
      <trkpt lat="42.369342" lon="1.825449">
        <ele>1051.8</ele>
        <time>2018-06-11T10:58:17Z</time>
      </trkpt>
      <trkpt lat="42.369276" lon="1.825324">
        <ele>1052.6</ele>
        <time>2018-06-11T10:58:20Z</time>
      </trkpt>
      <trkpt lat="42.369138" lon="1.825143">
        <ele>1053.6</ele>
        <time>2018-06-11T10:58:25Z</time>
      </trkpt>
      <trkpt lat="42.368938" lon="1.824973">
        <ele>1055.0</ele>
        <time>2018-06-11T10:58:31Z</time>
      </trkpt>
      <trkpt lat="42.368814" lon="1.824887">
        <ele>1055.7</ele>
        <time>2018-06-11T10:58:35Z</time>
      </trkpt>
      <trkpt lat="42.368761" lon="1.824837">
        <ele>1056.0</ele>
        <time>2018-06-11T10:58:36Z</time>
      </trkpt>
      <trkpt lat="42.368744" lon="1.824791">
        <ele>1056.0</ele>
        <time>2018-06-11T10:58:37Z</time>
      </trkpt>
      <trkpt lat="42.368741" lon="1.824727">
        <ele>1056.0</ele>
        <time>2018-06-11T10:58:39Z</time>
      </trkpt>
      <trkpt lat="42.368762" lon="1.824628">
        <ele>1056.0</ele>
        <time>2018-06-11T10:58:41Z</time>
      </trkpt>
      <trkpt lat="42.368825" lon="1.824458">
        <ele>1057.2</ele>
        <time>2018-06-11T10:58:44Z</time>
      </trkpt>
      <trkpt lat="42.368931" lon="1.824241">
        <ele>1059.4</ele>
        <time>2018-06-11T10:58:50Z</time>
      </trkpt>
      <trkpt lat="42.368958" lon="1.824182">
        <ele>1060.1</ele>
        <time>2018-06-11T10:58:51Z</time>
      </trkpt>
      <trkpt lat="42.368967" lon="1.824153">
        <ele>1060.4</ele>
        <time>2018-06-11T10:58:52Z</time>
      </trkpt>
      <trkpt lat="42.368969" lon="1.824120">
        <ele>1060.8</ele>
        <time>2018-06-11T10:58:52Z</time>
      </trkpt>
      <trkpt lat="42.368961" lon="1.824091">
        <ele>1061.1</ele>
        <time>2018-06-11T10:58:53Z</time>
      </trkpt>
      <trkpt lat="42.368945" lon="1.824045">
        <ele>1061.5</ele>
        <time>2018-06-11T10:58:54Z</time>
      </trkpt>
      <trkpt lat="42.368901" lon="1.823938">
        <ele>1062.8</ele>
        <time>2018-06-11T10:58:56Z</time>
      </trkpt>
      <trkpt lat="42.368826" lon="1.823740">
        <ele>1065.3</ele>
        <time>2018-06-11T10:59:01Z</time>
      </trkpt>
      <trkpt lat="42.368811" lon="1.823676">
        <ele>1065.5</ele>
        <time>2018-06-11T10:59:02Z</time>
      </trkpt>
      <trkpt lat="42.368794" lon="1.823539">
        <ele>1066.0</ele>
        <time>2018-06-11T10:59:05Z</time>
      </trkpt>
      <trkpt lat="42.368782" lon="1.823398">
        <ele>1066.2</ele>
        <time>2018-06-11T10:59:07Z</time>
      </trkpt>
      <trkpt lat="42.368782" lon="1.823344">
        <ele>1066.2</ele>
        <time>2018-06-11T10:59:09Z</time>
      </trkpt>
      <trkpt lat="42.368797" lon="1.823288">
        <ele>1066.3</ele>
        <time>2018-06-11T10:59:10Z</time>
      </trkpt>
      <trkpt lat="42.368819" lon="1.823255">
        <ele>1066.5</ele>
        <time>2018-06-11T10:59:11Z</time>
      </trkpt>
      <trkpt lat="42.368846" lon="1.823233">
        <ele>1066.7</ele>
        <time>2018-06-11T10:59:11Z</time>
      </trkpt>
      <trkpt lat="42.368869" lon="1.823211">
        <ele>1066.9</ele>
        <time>2018-06-11T10:59:12Z</time>
      </trkpt>
      <trkpt lat="42.368882" lon="1.823181">
        <ele>1066.8</ele>
        <time>2018-06-11T10:59:13Z</time>
      </trkpt>
      <trkpt lat="42.368885" lon="1.823151">
        <ele>1066.6</ele>
        <time>2018-06-11T10:59:13Z</time>
      </trkpt>
      <trkpt lat="42.368880" lon="1.823116">
        <ele>1066.2</ele>
        <time>2018-06-11T10:59:14Z</time>
      </trkpt>
      <trkpt lat="42.368871" lon="1.823074">
        <ele>1065.8</ele>
        <time>2018-06-11T10:59:15Z</time>
      </trkpt>
      <trkpt lat="42.368841" lon="1.822881">
        <ele>1063.9</ele>
        <time>2018-06-11T10:59:19Z</time>
      </trkpt>
      <trkpt lat="42.368819" lon="1.822778">
        <ele>1063.2</ele>
        <time>2018-06-11T10:59:21Z</time>
      </trkpt>
      <trkpt lat="42.368801" lon="1.822719">
        <ele>1062.8</ele>
        <time>2018-06-11T10:59:22Z</time>
      </trkpt>
      <trkpt lat="42.368765" lon="1.822635">
        <ele>1062.2</ele>
        <time>2018-06-11T10:59:24Z</time>
      </trkpt>
      <trkpt lat="42.368746" lon="1.822574">
        <ele>1062.5</ele>
        <time>2018-06-11T10:59:25Z</time>
      </trkpt>
      <trkpt lat="42.368723" lon="1.822456">
        <ele>1063.4</ele>
        <time>2018-06-11T10:59:28Z</time>
      </trkpt>
      <trkpt lat="42.368718" lon="1.822305">
        <ele>1064.2</ele>
        <time>2018-06-11T10:59:31Z</time>
      </trkpt>
      <trkpt lat="42.368722" lon="1.822126">
        <ele>1064.9</ele>
        <time>2018-06-11T10:59:34Z</time>
      </trkpt>
      <trkpt lat="42.368735" lon="1.821947">
        <ele>1064.6</ele>
        <time>2018-06-11T10:59:38Z</time>
      </trkpt>
      <trkpt lat="42.368763" lon="1.821744">
        <ele>1063.3</ele>
        <time>2018-06-11T10:59:42Z</time>
      </trkpt>
      <trkpt lat="42.368804" lon="1.821548">
        <ele>1061.2</ele>
        <time>2018-06-11T10:59:46Z</time>
      </trkpt>
      <trkpt lat="42.368828" lon="1.821369">
        <ele>1061.2</ele>
        <time>2018-06-11T10:59:49Z</time>
      </trkpt>
      <trkpt lat="42.368828" lon="1.821259">
        <ele>1061.3</ele>
        <time>2018-06-11T10:59:52Z</time>
      </trkpt>
      <trkpt lat="42.368809" lon="1.821131">
        <ele>1061.3</ele>
        <time>2018-06-11T10:59:54Z</time>
      </trkpt>
      <trkpt lat="42.368771" lon="1.820952">
        <ele>1061.1</ele>
        <time>2018-06-11T10:59:58Z</time>
      </trkpt>
      <trkpt lat="42.368734" lon="1.820809">
        <ele>1061.2</ele>
        <time>2018-06-11T11:00:01Z</time>
      </trkpt>
      <trkpt lat="42.368667" lon="1.820591">
        <ele>1062.8</ele>
        <time>2018-06-11T11:00:05Z</time>
      </trkpt>
      <trkpt lat="42.368537" lon="1.820289">
        <ele>1065.9</ele>
        <time>2018-06-11T11:00:12Z</time>
      </trkpt>
      <trkpt lat="42.368270" lon="1.819677">
        <ele>1070.2</ele>
        <time>2018-06-11T11:00:26Z</time>
      </trkpt>
      <trkpt lat="42.367890" lon="1.818826">
        <ele>1071.7</ele>
        <time>2018-06-11T11:00:46Z</time>
      </trkpt>
      <trkpt lat="42.367799" lon="1.818639">
        <ele>1071.9</ele>
        <time>2018-06-11T11:00:50Z</time>
      </trkpt>
      <trkpt lat="42.367745" lon="1.818490">
        <ele>1072.2</ele>
        <time>2018-06-11T11:00:53Z</time>
      </trkpt>
      <trkpt lat="42.367715" lon="1.818299">
        <ele>1072.9</ele>
        <time>2018-06-11T11:00:57Z</time>
      </trkpt>
      <trkpt lat="42.367680" lon="1.817987">
        <ele>1075.2</ele>
        <time>2018-06-11T11:01:03Z</time>
      </trkpt>
      <trkpt lat="42.367645" lon="1.817780">
        <ele>1077.5</ele>
        <time>2018-06-11T11:01:08Z</time>
      </trkpt>
      <trkpt lat="42.367587" lon="1.817477">
        <ele>1082.9</ele>
        <time>2018-06-11T11:01:14Z</time>
      </trkpt>
      <trkpt lat="42.367559" lon="1.817276">
        <ele>1086.8</ele>
        <time>2018-06-11T11:01:18Z</time>
      </trkpt>
      <trkpt lat="42.367528" lon="1.817091">
        <ele>1089.7</ele>
        <time>2018-06-11T11:01:22Z</time>
      </trkpt>
      <trkpt lat="42.367512" lon="1.817002">
        <ele>1090.8</ele>
        <time>2018-06-11T11:01:23Z</time>
      </trkpt>
      <trkpt lat="42.367512" lon="1.816962">
        <ele>1091.2</ele>
        <time>2018-06-11T11:01:24Z</time>
      </trkpt>
      <trkpt lat="42.367526" lon="1.816909">
        <ele>1091.6</ele>
        <time>2018-06-11T11:01:25Z</time>
      </trkpt>
      <trkpt lat="42.367547" lon="1.816880">
        <ele>1091.6</ele>
        <time>2018-06-11T11:01:26Z</time>
      </trkpt>
      <trkpt lat="42.367574" lon="1.816857">
        <ele>1091.5</ele>
        <time>2018-06-11T11:01:27Z</time>
      </trkpt>
      <trkpt lat="42.367635" lon="1.816843">
        <ele>1090.8</ele>
        <time>2018-06-11T11:01:29Z</time>
      </trkpt>
      <trkpt lat="42.367680" lon="1.816837">
        <ele>1090.7</ele>
        <time>2018-06-11T11:01:30Z</time>
      </trkpt>
      <trkpt lat="42.367758" lon="1.816863">
        <ele>1090.4</ele>
        <time>2018-06-11T11:01:32Z</time>
      </trkpt>
      <trkpt lat="42.367906" lon="1.816907">
        <ele>1089.6</ele>
        <time>2018-06-11T11:01:36Z</time>
      </trkpt>
      <trkpt lat="42.367991" lon="1.816932">
        <ele>1088.9</ele>
        <time>2018-06-11T11:01:38Z</time>
      </trkpt>
      <trkpt lat="42.368037" lon="1.816938">
        <ele>1088.7</ele>
        <time>2018-06-11T11:01:40Z</time>
      </trkpt>
      <trkpt lat="42.368069" lon="1.816935">
        <ele>1088.6</ele>
        <time>2018-06-11T11:01:40Z</time>
      </trkpt>
      <trkpt lat="42.368089" lon="1.816914">
        <ele>1088.8</ele>
        <time>2018-06-11T11:01:41Z</time>
      </trkpt>
      <trkpt lat="42.368117" lon="1.816878">
        <ele>1089.2</ele>
        <time>2018-06-11T11:01:42Z</time>
      </trkpt>
      <trkpt lat="42.368127" lon="1.816844">
        <ele>1089.7</ele>
        <time>2018-06-11T11:01:43Z</time>
      </trkpt>
      <trkpt lat="42.368127" lon="1.816795">
        <ele>1090.3</ele>
        <time>2018-06-11T11:01:44Z</time>
      </trkpt>
      <trkpt lat="42.368117" lon="1.816749">
        <ele>1090.7</ele>
        <time>2018-06-11T11:01:45Z</time>
      </trkpt>
      <trkpt lat="42.368100" lon="1.816703">
        <ele>1091.2</ele>
        <time>2018-06-11T11:01:46Z</time>
      </trkpt>
      <trkpt lat="42.368073" lon="1.816664">
        <ele>1091.7</ele>
        <time>2018-06-11T11:01:47Z</time>
      </trkpt>
      <trkpt lat="42.368044" lon="1.816639">
        <ele>1092.1</ele>
        <time>2018-06-11T11:01:48Z</time>
      </trkpt>
      <trkpt lat="42.367992" lon="1.816617">
        <ele>1092.6</ele>
        <time>2018-06-11T11:01:49Z</time>
      </trkpt>
      <trkpt lat="42.367944" lon="1.816599">
        <ele>1093.1</ele>
        <time>2018-06-11T11:01:50Z</time>
      </trkpt>
      <trkpt lat="42.367883" lon="1.816577">
        <ele>1093.7</ele>
        <time>2018-06-11T11:01:52Z</time>
      </trkpt>
      <trkpt lat="42.367818" lon="1.816542">
        <ele>1094.5</ele>
        <time>2018-06-11T11:01:54Z</time>
      </trkpt>
      <trkpt lat="42.367763" lon="1.816508">
        <ele>1095.4</ele>
        <time>2018-06-11T11:01:56Z</time>
      </trkpt>
      <trkpt lat="42.367728" lon="1.816470">
        <ele>1096.3</ele>
        <time>2018-06-11T11:01:57Z</time>
      </trkpt>
      <trkpt lat="42.367683" lon="1.816397">
        <ele>1098.0</ele>
        <time>2018-06-11T11:01:59Z</time>
      </trkpt>
      <trkpt lat="42.367621" lon="1.816279">
        <ele>1100.4</ele>
        <time>2018-06-11T11:02:02Z</time>
      </trkpt>
      <trkpt lat="42.367568" lon="1.816124">
        <ele>1101.4</ele>
        <time>2018-06-11T11:02:05Z</time>
      </trkpt>
      <trkpt lat="42.367441" lon="1.815802">
        <ele>1102.9</ele>
        <time>2018-06-11T11:02:12Z</time>
      </trkpt>
      <trkpt lat="42.367360" lon="1.815577">
        <ele>1103.4</ele>
        <time>2018-06-11T11:02:17Z</time>
      </trkpt>
      <trkpt lat="42.367243" lon="1.815298">
        <ele>1103.3</ele>
        <time>2018-06-11T11:02:23Z</time>
      </trkpt>
      <trkpt lat="42.367176" lon="1.815137">
        <ele>1103.7</ele>
        <time>2018-06-11T11:02:27Z</time>
      </trkpt>
      <trkpt lat="42.367146" lon="1.815070">
        <ele>1103.4</ele>
        <time>2018-06-11T11:02:28Z</time>
      </trkpt>
      <trkpt lat="42.367111" lon="1.815005">
        <ele>1103.2</ele>
        <time>2018-06-11T11:02:30Z</time>
      </trkpt>
      <trkpt lat="42.367068" lon="1.814937">
        <ele>1102.9</ele>
        <time>2018-06-11T11:02:32Z</time>
      </trkpt>
      <trkpt lat="42.366915" lon="1.814732">
        <ele>1102.9</ele>
        <time>2018-06-11T11:02:37Z</time>
      </trkpt>
      <trkpt lat="42.366847" lon="1.814631">
        <ele>1103.0</ele>
        <time>2018-06-11T11:02:40Z</time>
      </trkpt>
      <trkpt lat="42.366728" lon="1.814433">
        <ele>1101.6</ele>
        <time>2018-06-11T11:02:45Z</time>
      </trkpt>
      <trkpt lat="42.366608" lon="1.814264">
        <ele>1098.5</ele>
        <time>2018-06-11T11:02:50Z</time>
      </trkpt>
      <trkpt lat="42.366482" lon="1.814141">
        <ele>1094.9</ele>
        <time>2018-06-11T11:02:54Z</time>
      </trkpt>
      <trkpt lat="42.366391" lon="1.814087">
        <ele>1092.8</ele>
        <time>2018-06-11T11:02:57Z</time>
      </trkpt>
      <trkpt lat="42.366248" lon="1.814033">
        <ele>1090.0</ele>
        <time>2018-06-11T11:03:01Z</time>
      </trkpt>
      <trkpt lat="42.366030" lon="1.813919">
        <ele>1089.0</ele>
        <time>2018-06-11T11:03:07Z</time>
      </trkpt>
      <trkpt lat="42.365904" lon="1.813858">
        <ele>1089.1</ele>
        <time>2018-06-11T11:03:10Z</time>
      </trkpt>
      <trkpt lat="42.365767" lon="1.813772">
        <ele>1090.3</ele>
        <time>2018-06-11T11:03:14Z</time>
      </trkpt>
      <trkpt lat="42.365526" lon="1.813609">
        <ele>1093.0</ele>
        <time>2018-06-11T11:03:22Z</time>
      </trkpt>
      <trkpt lat="42.365320" lon="1.813422">
        <ele>1094.9</ele>
        <time>2018-06-11T11:03:28Z</time>
      </trkpt>
      <trkpt lat="42.365129" lon="1.813266">
        <ele>1094.1</ele>
        <time>2018-06-11T11:03:34Z</time>
      </trkpt>
      <trkpt lat="42.364934" lon="1.813141">
        <ele>1088.8</ele>
        <time>2018-06-11T11:03:40Z</time>
      </trkpt>
      <trkpt lat="42.364773" lon="1.813054">
        <ele>1085.7</ele>
        <time>2018-06-11T11:03:45Z</time>
      </trkpt>
      <trkpt lat="42.364638" lon="1.812981">
        <ele>1084.6</ele>
        <time>2018-06-11T11:03:48Z</time>
      </trkpt>
      <trkpt lat="42.364611" lon="1.812956">
        <ele>1084.3</ele>
        <time>2018-06-11T11:03:49Z</time>
      </trkpt>
      <trkpt lat="42.364590" lon="1.812928">
        <ele>1084.1</ele>
        <time>2018-06-11T11:03:50Z</time>
      </trkpt>
      <trkpt lat="42.364593" lon="1.812895">
        <ele>1084.0</ele>
        <time>2018-06-11T11:03:51Z</time>
      </trkpt>
      <trkpt lat="42.364599" lon="1.812858">
        <ele>1084.0</ele>
        <time>2018-06-11T11:03:51Z</time>
      </trkpt>
      <trkpt lat="42.364623" lon="1.812780">
        <ele>1084.0</ele>
        <time>2018-06-11T11:03:53Z</time>
      </trkpt>
      <trkpt lat="42.364660" lon="1.812633">
        <ele>1084.0</ele>
        <time>2018-06-11T11:03:56Z</time>
      </trkpt>
      <trkpt lat="42.364669" lon="1.812523">
        <ele>1083.9</ele>
        <time>2018-06-11T11:03:58Z</time>
      </trkpt>
      <trkpt lat="42.364669" lon="1.812433">
        <ele>1083.8</ele>
        <time>2018-06-11T11:04:00Z</time>
      </trkpt>
      <trkpt lat="42.364651" lon="1.812335">
        <ele>1083.8</ele>
        <time>2018-06-11T11:04:02Z</time>
      </trkpt>
      <trkpt lat="42.364629" lon="1.812233">
        <ele>1084.1</ele>
        <time>2018-06-11T11:04:04Z</time>
      </trkpt>
      <trkpt lat="42.364581" lon="1.812053">
        <ele>1084.1</ele>
        <time>2018-06-11T11:04:08Z</time>
      </trkpt>
      <trkpt lat="42.364466" lon="1.811748">
        <ele>1084.1</ele>
        <time>2018-06-11T11:04:15Z</time>
      </trkpt>
      <trkpt lat="42.364230" lon="1.811187">
        <ele>1080.3</ele>
        <time>2018-06-11T11:04:27Z</time>
      </trkpt>
      <trkpt lat="42.364023" lon="1.810638">
        <ele>1076.4</ele>
        <time>2018-06-11T11:04:39Z</time>
      </trkpt>
      <trkpt lat="42.363911" lon="1.810353">
        <ele>1077.2</ele>
        <time>2018-06-11T11:04:46Z</time>
      </trkpt>
      <trkpt lat="42.363802" lon="1.810038">
        <ele>1077.3</ele>
        <time>2018-06-11T11:04:52Z</time>
      </trkpt>
      <trkpt lat="42.363732" lon="1.809706">
        <ele>1076.7</ele>
        <time>2018-06-11T11:04:59Z</time>
      </trkpt>
      <trkpt lat="42.363704" lon="1.809411">
        <ele>1076.3</ele>
        <time>2018-06-11T11:05:05Z</time>
      </trkpt>
      <trkpt lat="42.363704" lon="1.809089">
        <ele>1077.1</ele>
        <time>2018-06-11T11:05:11Z</time>
      </trkpt>
      <trkpt lat="42.363719" lon="1.808772">
        <ele>1078.4</ele>
        <time>2018-06-11T11:05:18Z</time>
      </trkpt>
      <trkpt lat="42.363723" lon="1.808683">
        <ele>1078.7</ele>
        <time>2018-06-11T11:05:19Z</time>
      </trkpt>
      <trkpt lat="42.363736" lon="1.808588">
        <ele>1079.3</ele>
        <time>2018-06-11T11:05:21Z</time>
      </trkpt>
      <trkpt lat="42.363734" lon="1.808510">
        <ele>1079.5</ele>
        <time>2018-06-11T11:05:23Z</time>
      </trkpt>
      <trkpt lat="42.363728" lon="1.808456">
        <ele>1079.5</ele>
        <time>2018-06-11T11:05:24Z</time>
      </trkpt>
      <trkpt lat="42.363714" lon="1.808396">
        <ele>1079.3</ele>
        <time>2018-06-11T11:05:25Z</time>
      </trkpt>
      <trkpt lat="42.363690" lon="1.808367">
        <ele>1078.8</ele>
        <time>2018-06-11T11:05:26Z</time>
      </trkpt>
      <trkpt lat="42.363656" lon="1.808361">
        <ele>1078.1</ele>
        <time>2018-06-11T11:05:27Z</time>
      </trkpt>
      <trkpt lat="42.363605" lon="1.808369">
        <ele>1077.1</ele>
        <time>2018-06-11T11:05:28Z</time>
      </trkpt>
      <trkpt lat="42.363562" lon="1.808376">
        <ele>1076.2</ele>
        <time>2018-06-11T11:05:29Z</time>
      </trkpt>
      <trkpt lat="42.363519" lon="1.808380">
        <ele>1075.3</ele>
        <time>2018-06-11T11:05:30Z</time>
      </trkpt>
      <trkpt lat="42.363494" lon="1.808366">
        <ele>1074.8</ele>
        <time>2018-06-11T11:05:31Z</time>
      </trkpt>
      <trkpt lat="42.363455" lon="1.808342">
        <ele>1074.1</ele>
        <time>2018-06-11T11:05:32Z</time>
      </trkpt>
      <trkpt lat="42.363435" lon="1.808341">
        <ele>1073.7</ele>
        <time>2018-06-11T11:05:33Z</time>
      </trkpt>
      <trkpt lat="42.363368" lon="1.808368">
        <ele>1072.2</ele>
        <time>2018-06-11T11:05:35Z</time>
      </trkpt>
      <trkpt lat="42.363325" lon="1.808400">
        <ele>1071.3</ele>
        <time>2018-06-11T11:05:36Z</time>
      </trkpt>
      <trkpt lat="42.363273" lon="1.808454">
        <ele>1070.4</ele>
        <time>2018-06-11T11:05:38Z</time>
      </trkpt>
      <trkpt lat="42.363218" lon="1.808508">
        <ele>1069.4</ele>
        <time>2018-06-11T11:05:40Z</time>
      </trkpt>
      <trkpt lat="42.363191" lon="1.808527">
        <ele>1069.0</ele>
        <time>2018-06-11T11:05:40Z</time>
      </trkpt>
      <trkpt lat="42.363168" lon="1.808530">
        <ele>1068.6</ele>
        <time>2018-06-11T11:05:41Z</time>
      </trkpt>
      <trkpt lat="42.363136" lon="1.808526">
        <ele>1068.2</ele>
        <time>2018-06-11T11:05:42Z</time>
      </trkpt>
      <trkpt lat="42.363111" lon="1.808498">
        <ele>1067.8</ele>
        <time>2018-06-11T11:05:43Z</time>
      </trkpt>
      <trkpt lat="42.363097" lon="1.808449">
        <ele>1067.5</ele>
        <time>2018-06-11T11:05:44Z</time>
      </trkpt>
      <trkpt lat="42.363089" lon="1.808403">
        <ele>1067.2</ele>
        <time>2018-06-11T11:05:45Z</time>
      </trkpt>
      <trkpt lat="42.363017" lon="1.807843">
        <ele>1067.1</ele>
        <time>2018-06-11T11:05:56Z</time>
      </trkpt>
      <trkpt lat="42.363009" lon="1.807815">
        <ele>1067.0</ele>
        <time>2018-06-11T11:05:56Z</time>
      </trkpt>
      <trkpt lat="42.362994" lon="1.807799">
        <ele>1066.8</ele>
        <time>2018-06-11T11:05:57Z</time>
      </trkpt>
      <trkpt lat="42.362973" lon="1.807794">
        <ele>1066.5</ele>
        <time>2018-06-11T11:05:58Z</time>
      </trkpt>
      <trkpt lat="42.362957" lon="1.807818">
        <ele>1066.1</ele>
        <time>2018-06-11T11:05:58Z</time>
      </trkpt>
      <trkpt lat="42.362945" lon="1.807848">
        <ele>1065.8</ele>
        <time>2018-06-11T11:05:59Z</time>
      </trkpt>
      <trkpt lat="42.362945" lon="1.807888">
        <ele>1065.6</ele>
        <time>2018-06-11T11:06:00Z</time>
      </trkpt>
      <trkpt lat="42.362947" lon="1.807951">
        <ele>1065.4</ele>
        <time>2018-06-11T11:06:01Z</time>
      </trkpt>
      <trkpt lat="42.362950" lon="1.808017">
        <ele>1065.2</ele>
        <time>2018-06-11T11:06:02Z</time>
      </trkpt>
      <trkpt lat="42.362951" lon="1.808077">
        <ele>1065.0</ele>
        <time>2018-06-11T11:06:03Z</time>
      </trkpt>
      <trkpt lat="42.362945" lon="1.808136">
        <ele>1064.6</ele>
        <time>2018-06-11T11:06:05Z</time>
      </trkpt>
      <trkpt lat="42.362933" lon="1.808164">
        <ele>1064.4</ele>
        <time>2018-06-11T11:06:05Z</time>
      </trkpt>
      <trkpt lat="42.362907" lon="1.808185">
        <ele>1064.1</ele>
        <time>2018-06-11T11:06:06Z</time>
      </trkpt>
      <trkpt lat="42.362881" lon="1.808200">
        <ele>1064.1</ele>
        <time>2018-06-11T11:06:07Z</time>
      </trkpt>
      <trkpt lat="42.362846" lon="1.808218">
        <ele>1064.3</ele>
        <time>2018-06-11T11:06:08Z</time>
      </trkpt>
      <trkpt lat="42.362800" lon="1.808236">
        <ele>1064.5</ele>
        <time>2018-06-11T11:06:09Z</time>
      </trkpt>
      <trkpt lat="42.362767" lon="1.808241">
        <ele>1064.6</ele>
        <time>2018-06-11T11:06:10Z</time>
      </trkpt>
      <trkpt lat="42.362725" lon="1.808243">
        <ele>1064.7</ele>
        <time>2018-06-11T11:06:11Z</time>
      </trkpt>
      <trkpt lat="42.362683" lon="1.808233">
        <ele>1064.9</ele>
        <time>2018-06-11T11:06:12Z</time>
      </trkpt>
      <trkpt lat="42.362590" lon="1.808177">
        <ele>1065.8</ele>
        <time>2018-06-11T11:06:15Z</time>
      </trkpt>
      <trkpt lat="42.362497" lon="1.808116">
        <ele>1067.1</ele>
        <time>2018-06-11T11:06:18Z</time>
      </trkpt>
      <trkpt lat="42.362401" lon="1.808018">
        <ele>1068.1</ele>
        <time>2018-06-11T11:06:21Z</time>
      </trkpt>
      <trkpt lat="42.362360" lon="1.807970">
        <ele>1068.4</ele>
        <time>2018-06-11T11:06:22Z</time>
      </trkpt>
      <trkpt lat="42.362303" lon="1.807890">
        <ele>1068.7</ele>
        <time>2018-06-11T11:06:24Z</time>
      </trkpt>
      <trkpt lat="42.362282" lon="1.807834">
        <ele>1068.8</ele>
        <time>2018-06-11T11:06:26Z</time>
      </trkpt>
      <trkpt lat="42.362270" lon="1.807766">
        <ele>1068.8</ele>
        <time>2018-06-11T11:06:27Z</time>
      </trkpt>
      <trkpt lat="42.362268" lon="1.807663">
        <ele>1068.4</ele>
        <time>2018-06-11T11:06:29Z</time>
      </trkpt>
      <trkpt lat="42.362264" lon="1.807317">
        <ele>1065.7</ele>
        <time>2018-06-11T11:06:36Z</time>
      </trkpt>
      <trkpt lat="42.362248" lon="1.806860">
        <ele>1063.3</ele>
        <time>2018-06-11T11:06:45Z</time>
      </trkpt>
      <trkpt lat="42.362207" lon="1.806225">
        <ele>1063.2</ele>
        <time>2018-06-11T11:06:57Z</time>
      </trkpt>
      <trkpt lat="42.362187" lon="1.805969">
        <ele>1062.1</ele>
        <time>2018-06-11T11:07:02Z</time>
      </trkpt>
      <trkpt lat="42.362182" lon="1.805777">
        <ele>1061.8</ele>
        <time>2018-06-11T11:07:06Z</time>
      </trkpt>
      <trkpt lat="42.362235" lon="1.804937">
        <ele>1058.6</ele>
        <time>2018-06-11T11:07:23Z</time>
      </trkpt>
      <trkpt lat="42.362262" lon="1.804407">
        <ele>1056.0</ele>
        <time>2018-06-11T11:07:33Z</time>
      </trkpt>
      <trkpt lat="42.362275" lon="1.803768">
        <ele>1053.8</ele>
        <time>2018-06-11T11:07:45Z</time>
      </trkpt>
      <trkpt lat="42.362293" lon="1.803344">
        <ele>1052.3</ele>
        <time>2018-06-11T11:07:54Z</time>
      </trkpt>
      <trkpt lat="42.362314" lon="1.803090">
        <ele>1051.5</ele>
        <time>2018-06-11T11:07:59Z</time>
      </trkpt>
      <trkpt lat="42.362318" lon="1.802949">
        <ele>1051.1</ele>
        <time>2018-06-11T11:08:02Z</time>
      </trkpt>
      <trkpt lat="42.362314" lon="1.802868">
        <ele>1050.9</ele>
        <time>2018-06-11T11:08:03Z</time>
      </trkpt>
      <trkpt lat="42.362293" lon="1.802759">
        <ele>1050.6</ele>
        <time>2018-06-11T11:08:05Z</time>
      </trkpt>
      <trkpt lat="42.362259" lon="1.802671">
        <ele>1050.4</ele>
        <time>2018-06-11T11:08:07Z</time>
      </trkpt>
      <trkpt lat="42.362203" lon="1.802564">
        <ele>1050.2</ele>
        <time>2018-06-11T11:08:10Z</time>
      </trkpt>
      <trkpt lat="42.362106" lon="1.802455">
        <ele>1050.2</ele>
        <time>2018-06-11T11:08:13Z</time>
      </trkpt>
      <trkpt lat="42.362027" lon="1.802387">
        <ele>1050.5</ele>
        <time>2018-06-11T11:08:16Z</time>
      </trkpt>
      <trkpt lat="42.361972" lon="1.802334">
        <ele>1050.7</ele>
        <time>2018-06-11T11:08:17Z</time>
      </trkpt>
      <trkpt lat="42.361940" lon="1.802291">
        <ele>1050.8</ele>
        <time>2018-06-11T11:08:19Z</time>
      </trkpt>
      <trkpt lat="42.361916" lon="1.802189">
        <ele>1050.5</ele>
        <time>2018-06-11T11:08:21Z</time>
      </trkpt>
      <trkpt lat="42.361895" lon="1.802027">
        <ele>1050.1</ele>
        <time>2018-06-11T11:08:24Z</time>
      </trkpt>
      <trkpt lat="42.361836" lon="1.801772">
        <ele>1050.0</ele>
        <time>2018-06-11T11:08:29Z</time>
      </trkpt>
      <trkpt lat="42.361781" lon="1.801500">
        <ele>1048.6</ele>
        <time>2018-06-11T11:08:35Z</time>
      </trkpt>
      <trkpt lat="42.361571" lon="1.800737">
        <ele>1047.4</ele>
        <time>2018-06-11T11:08:51Z</time>
      </trkpt>
      <trkpt lat="42.361448" lon="1.800385">
        <ele>1046.8</ele>
        <time>2018-06-11T11:08:58Z</time>
      </trkpt>
      <trkpt lat="42.361305" lon="1.799983">
        <ele>1045.5</ele>
        <time>2018-06-11T11:09:07Z</time>
      </trkpt>
      <trkpt lat="42.361060" lon="1.799512">
        <ele>1045.1</ele>
        <time>2018-06-11T11:09:18Z</time>
      </trkpt>
      <trkpt lat="42.360942" lon="1.799318">
        <ele>1043.8</ele>
        <time>2018-06-11T11:09:23Z</time>
      </trkpt>
      <trkpt lat="42.360880" lon="1.799186">
        <ele>1043.3</ele>
        <time>2018-06-11T11:09:26Z</time>
      </trkpt>
      <trkpt lat="42.360722" lon="1.798880">
        <ele>1044.1</ele>
        <time>2018-06-11T11:09:34Z</time>
      </trkpt>
      <trkpt lat="42.360691" lon="1.798763">
        <ele>1045.8</ele>
        <time>2018-06-11T11:09:36Z</time>
      </trkpt>
      <trkpt lat="42.360667" lon="1.798613">
        <ele>1045.7</ele>
        <time>2018-06-11T11:09:39Z</time>
      </trkpt>
      <trkpt lat="42.360620" lon="1.798180">
        <ele>1048.3</ele>
        <time>2018-06-11T11:09:48Z</time>
      </trkpt>
      <trkpt lat="42.360615" lon="1.797916">
        <ele>1048.3</ele>
        <time>2018-06-11T11:09:53Z</time>
      </trkpt>
      <trkpt lat="42.360622" lon="1.797803">
        <ele>1047.1</ele>
        <time>2018-06-11T11:09:55Z</time>
      </trkpt>
      <trkpt lat="42.360603" lon="1.797724">
        <ele>1046.5</ele>
        <time>2018-06-11T11:09:57Z</time>
      </trkpt>
      <trkpt lat="42.360574" lon="1.797651">
        <ele>1046.0</ele>
        <time>2018-06-11T11:09:58Z</time>
      </trkpt>
      <trkpt lat="42.360519" lon="1.797638">
        <ele>1046.3</ele>
        <time>2018-06-11T11:10:00Z</time>
      </trkpt>
      <trkpt lat="42.360325" lon="1.797609">
        <ele>1047.7</ele>
        <time>2018-06-11T11:10:05Z</time>
      </trkpt>
      <trkpt lat="42.360040" lon="1.797541">
        <ele>1051.4</ele>
        <time>2018-06-11T11:10:13Z</time>
      </trkpt>
      <trkpt lat="42.359839" lon="1.797519">
        <ele>1054.8</ele>
        <time>2018-06-11T11:10:18Z</time>
      </trkpt>
      <trkpt lat="42.359380" lon="1.797498">
        <ele>1052.0</ele>
        <time>2018-06-11T11:10:30Z</time>
      </trkpt>
      <trkpt lat="42.358938" lon="1.797486">
        <ele>1054.4</ele>
        <time>2018-06-11T11:10:42Z</time>
      </trkpt>
      <trkpt lat="42.358400" lon="1.797498">
        <ele>1054.6</ele>
        <time>2018-06-11T11:10:56Z</time>
      </trkpt>
      <trkpt lat="42.357910" lon="1.797495">
        <ele>1058.6</ele>
        <time>2018-06-11T11:11:09Z</time>
      </trkpt>
      <trkpt lat="42.357526" lon="1.797516">
        <ele>1067.4</ele>
        <time>2018-06-11T11:11:20Z</time>
      </trkpt>
      <trkpt lat="42.357239" lon="1.797531">
        <ele>1070.5</ele>
        <time>2018-06-11T11:11:27Z</time>
      </trkpt>
      <trkpt lat="42.356979" lon="1.797530">
        <ele>1072.8</ele>
        <time>2018-06-11T11:11:34Z</time>
      </trkpt>
      <trkpt lat="42.356707" lon="1.797510">
        <ele>1076.5</ele>
        <time>2018-06-11T11:11:41Z</time>
      </trkpt>
      <trkpt lat="42.356362" lon="1.797489">
        <ele>1079.1</ele>
        <time>2018-06-11T11:11:51Z</time>
      </trkpt>
      <trkpt lat="42.356264" lon="1.797481">
        <ele>1079.5</ele>
        <time>2018-06-11T11:11:53Z</time>
      </trkpt>
      <trkpt lat="42.356183" lon="1.797467">
        <ele>1080.1</ele>
        <time>2018-06-11T11:11:55Z</time>
      </trkpt>
      <trkpt lat="42.356058" lon="1.797435">
        <ele>1080.7</ele>
        <time>2018-06-11T11:11:59Z</time>
      </trkpt>
      <trkpt lat="42.355878" lon="1.797329">
        <ele>1081.6</ele>
        <time>2018-06-11T11:12:04Z</time>
      </trkpt>
      <trkpt lat="42.355731" lon="1.797249">
        <ele>1083.9</ele>
        <time>2018-06-11T11:12:08Z</time>
      </trkpt>
      <trkpt lat="42.355615" lon="1.797207">
        <ele>1085.0</ele>
        <time>2018-06-11T11:12:11Z</time>
      </trkpt>
      <trkpt lat="42.355478" lon="1.797209">
        <ele>1086.1</ele>
        <time>2018-06-11T11:12:15Z</time>
      </trkpt>
      <trkpt lat="42.355342" lon="1.797241">
        <ele>1086.7</ele>
        <time>2018-06-11T11:12:19Z</time>
      </trkpt>
      <trkpt lat="42.355102" lon="1.797376">
        <ele>1088.0</ele>
        <time>2018-06-11T11:12:25Z</time>
      </trkpt>
      <trkpt lat="42.354912" lon="1.797479">
        <ele>1088.3</ele>
        <time>2018-06-11T11:12:31Z</time>
      </trkpt>
      <trkpt lat="42.354692" lon="1.797567">
        <ele>1087.7</ele>
        <time>2018-06-11T11:12:37Z</time>
      </trkpt>
      <trkpt lat="42.354437" lon="1.797654">
        <ele>1085.9</ele>
        <time>2018-06-11T11:12:44Z</time>
      </trkpt>
      <trkpt lat="42.354099" lon="1.797706">
        <ele>1087.7</ele>
        <time>2018-06-11T11:12:53Z</time>
      </trkpt>
      <trkpt lat="42.353881" lon="1.797776">
        <ele>1089.6</ele>
        <time>2018-06-11T11:12:59Z</time>
      </trkpt>
      <trkpt lat="42.353596" lon="1.797842">
        <ele>1090.8</ele>
        <time>2018-06-11T11:13:07Z</time>
      </trkpt>
      <trkpt lat="42.353233" lon="1.797957">
        <ele>1091.5</ele>
        <time>2018-06-11T11:13:16Z</time>
      </trkpt>
      <trkpt lat="42.353113" lon="1.798003">
        <ele>1092.8</ele>
        <time>2018-06-11T11:13:20Z</time>
      </trkpt>
      <trkpt lat="42.353038" lon="1.798023">
        <ele>1093.8</ele>
        <time>2018-06-11T11:13:22Z</time>
      </trkpt>
      <trkpt lat="42.352953" lon="1.798037">
        <ele>1094.9</ele>
        <time>2018-06-11T11:13:24Z</time>
      </trkpt>
      <trkpt lat="42.352893" lon="1.798026">
        <ele>1095.2</ele>
        <time>2018-06-11T11:13:26Z</time>
      </trkpt>
      <trkpt lat="42.352861" lon="1.797995">
        <ele>1095.0</ele>
        <time>2018-06-11T11:13:27Z</time>
      </trkpt>
      <trkpt lat="42.352823" lon="1.797879">
        <ele>1093.7</ele>
        <time>2018-06-11T11:13:29Z</time>
      </trkpt>
      <trkpt lat="42.352799" lon="1.797738">
        <ele>1091.5</ele>
        <time>2018-06-11T11:13:32Z</time>
      </trkpt>
      <trkpt lat="42.352770" lon="1.797641">
        <ele>1090.1</ele>
        <time>2018-06-11T11:13:34Z</time>
      </trkpt>
      <trkpt lat="42.352740" lon="1.797555">
        <ele>1088.2</ele>
        <time>2018-06-11T11:13:36Z</time>
      </trkpt>
      <trkpt lat="42.352686" lon="1.797463">
        <ele>1085.9</ele>
        <time>2018-06-11T11:13:38Z</time>
      </trkpt>
      <trkpt lat="42.352650" lon="1.797317">
        <ele>1082.1</ele>
        <time>2018-06-11T11:13:42Z</time>
      </trkpt>
      <trkpt lat="42.352626" lon="1.797104">
        <ele>1077.4</ele>
        <time>2018-06-11T11:13:46Z</time>
      </trkpt>
      <trkpt lat="42.352597" lon="1.796822">
        <ele>1072.6</ele>
        <time>2018-06-11T11:13:52Z</time>
      </trkpt>
      <trkpt lat="42.352589" lon="1.796545">
        <ele>1069.7</ele>
        <time>2018-06-11T11:13:57Z</time>
      </trkpt>
      <trkpt lat="42.352604" lon="1.796331">
        <ele>1069.6</ele>
        <time>2018-06-11T11:14:01Z</time>
      </trkpt>
      <trkpt lat="42.352636" lon="1.796070">
        <ele>1068.7</ele>
        <time>2018-06-11T11:14:07Z</time>
      </trkpt>
      <trkpt lat="42.352718" lon="1.795674">
        <ele>1061.5</ele>
        <time>2018-06-11T11:14:15Z</time>
      </trkpt>
      <trkpt lat="42.352778" lon="1.795484">
        <ele>1059.2</ele>
        <time>2018-06-11T11:14:19Z</time>
      </trkpt>
      <trkpt lat="42.352809" lon="1.795153">
        <ele>1058.8</ele>
        <time>2018-06-11T11:14:25Z</time>
      </trkpt>
      <trkpt lat="42.352819" lon="1.794757">
        <ele>1059.5</ele>
        <time>2018-06-11T11:14:33Z</time>
      </trkpt>
      <trkpt lat="42.352838" lon="1.794571">
        <ele>1061.0</ele>
        <time>2018-06-11T11:14:37Z</time>
      </trkpt>
      <trkpt lat="42.352898" lon="1.794243">
        <ele>1061.6</ele>
        <time>2018-06-11T11:14:43Z</time>
      </trkpt>
      <trkpt lat="42.352949" lon="1.794021">
        <ele>1060.4</ele>
        <time>2018-06-11T11:14:48Z</time>
      </trkpt>
      <trkpt lat="42.352956" lon="1.793818">
        <ele>1060.9</ele>
        <time>2018-06-11T11:14:52Z</time>
      </trkpt>
      <trkpt lat="42.352973" lon="1.793333">
        <ele>1062.7</ele>
        <time>2018-06-11T11:15:01Z</time>
      </trkpt>
      <trkpt lat="42.353044" lon="1.792985">
        <ele>1066.7</ele>
        <time>2018-06-11T11:15:09Z</time>
      </trkpt>
      <trkpt lat="42.353068" lon="1.792826">
        <ele>1068.3</ele>
        <time>2018-06-11T11:15:12Z</time>
      </trkpt>
      <trkpt lat="42.353046" lon="1.792582">
        <ele>1069.2</ele>
        <time>2018-06-11T11:15:17Z</time>
      </trkpt>
      <trkpt lat="42.353010" lon="1.792323">
        <ele>1070.2</ele>
        <time>2018-06-11T11:15:22Z</time>
      </trkpt>
      <trkpt lat="42.352961" lon="1.792045">
        <ele>1071.7</ele>
        <time>2018-06-11T11:15:27Z</time>
      </trkpt>
      <trkpt lat="42.352931" lon="1.791802">
        <ele>1071.1</ele>
        <time>2018-06-11T11:15:32Z</time>
      </trkpt>
      <trkpt lat="42.352938" lon="1.791743">
        <ele>1071.3</ele>
        <time>2018-06-11T11:15:33Z</time>
      </trkpt>
      <trkpt lat="42.352952" lon="1.791671">
        <ele>1071.7</ele>
        <time>2018-06-11T11:15:35Z</time>
      </trkpt>
      <trkpt lat="42.352993" lon="1.791570">
        <ele>1072.4</ele>
        <time>2018-06-11T11:15:37Z</time>
      </trkpt>
      <trkpt lat="42.353037" lon="1.791338">
        <ele>1073.6</ele>
        <time>2018-06-11T11:15:42Z</time>
      </trkpt>
      <trkpt lat="42.353150" lon="1.790368">
        <ele>1077.3</ele>
        <time>2018-06-11T11:16:01Z</time>
      </trkpt>
      <trkpt lat="42.353236" lon="1.789703">
        <ele>1084.1</ele>
        <time>2018-06-11T11:16:14Z</time>
      </trkpt>
      <trkpt lat="42.353289" lon="1.789218">
        <ele>1084.6</ele>
        <time>2018-06-11T11:16:24Z</time>
      </trkpt>
      <trkpt lat="42.353317" lon="1.788935">
        <ele>1083.8</ele>
        <time>2018-06-11T11:16:30Z</time>
      </trkpt>
      <trkpt lat="42.353303" lon="1.788755">
        <ele>1083.6</ele>
        <time>2018-06-11T11:16:33Z</time>
      </trkpt>
      <trkpt lat="42.353280" lon="1.788605">
        <ele>1083.4</ele>
        <time>2018-06-11T11:16:36Z</time>
      </trkpt>
      <trkpt lat="42.353133" lon="1.788278">
        <ele>1084.6</ele>
        <time>2018-06-11T11:16:44Z</time>
      </trkpt>
      <trkpt lat="42.352921" lon="1.787723">
        <ele>1084.7</ele>
        <time>2018-06-11T11:16:56Z</time>
      </trkpt>
      <trkpt lat="42.352853" lon="1.787530">
        <ele>1082.2</ele>
        <time>2018-06-11T11:17:00Z</time>
      </trkpt>
      <trkpt lat="42.352798" lon="1.787381">
        <ele>1080.2</ele>
        <time>2018-06-11T11:17:03Z</time>
      </trkpt>
      <trkpt lat="42.352764" lon="1.787232">
        <ele>1079.4</ele>
        <time>2018-06-11T11:17:06Z</time>
      </trkpt>
      <trkpt lat="42.352832" lon="1.786827">
        <ele>1077.7</ele>
        <time>2018-06-11T11:17:14Z</time>
      </trkpt>
      <trkpt lat="42.352904" lon="1.786321">
        <ele>1077.1</ele>
        <time>2018-06-11T11:17:25Z</time>
      </trkpt>
      <trkpt lat="42.352955" lon="1.786026">
        <ele>1077.0</ele>
        <time>2018-06-11T11:17:31Z</time>
      </trkpt>
      <trkpt lat="42.352989" lon="1.785599">
        <ele>1078.0</ele>
        <time>2018-06-11T11:17:39Z</time>
      </trkpt>
      <trkpt lat="42.353055" lon="1.785186">
        <ele>1079.2</ele>
        <time>2018-06-11T11:17:47Z</time>
      </trkpt>
      <trkpt lat="42.353095" lon="1.784703">
        <ele>1081.4</ele>
        <time>2018-06-11T11:17:57Z</time>
      </trkpt>
      <trkpt lat="42.353129" lon="1.784499">
        <ele>1082.4</ele>
        <time>2018-06-11T11:18:01Z</time>
      </trkpt>
      <trkpt lat="42.353155" lon="1.784422">
        <ele>1082.7</ele>
        <time>2018-06-11T11:18:02Z</time>
      </trkpt>
      <trkpt lat="42.353212" lon="1.784323">
        <ele>1082.9</ele>
        <time>2018-06-11T11:18:05Z</time>
      </trkpt>
      <trkpt lat="42.353269" lon="1.784234">
        <ele>1082.7</ele>
        <time>2018-06-11T11:18:07Z</time>
      </trkpt>
      <trkpt lat="42.353300" lon="1.784112">
        <ele>1082.4</ele>
        <time>2018-06-11T11:18:10Z</time>
      </trkpt>
      <trkpt lat="42.353357" lon="1.783754">
        <ele>1082.2</ele>
        <time>2018-06-11T11:18:17Z</time>
      </trkpt>
      <trkpt lat="42.353391" lon="1.783690">
        <ele>1081.7</ele>
        <time>2018-06-11T11:18:18Z</time>
      </trkpt>
      <trkpt lat="42.353436" lon="1.783663">
        <ele>1081.1</ele>
        <time>2018-06-11T11:18:20Z</time>
      </trkpt>
      <trkpt lat="42.353473" lon="1.783662">
        <ele>1080.7</ele>
        <time>2018-06-11T11:18:21Z</time>
      </trkpt>
      <trkpt lat="42.353555" lon="1.783694">
        <ele>1080.2</ele>
        <time>2018-06-11T11:18:23Z</time>
      </trkpt>
      <trkpt lat="42.354364" lon="1.784257">
        <ele>1079.4</ele>
        <time>2018-06-11T11:18:47Z</time>
      </trkpt>
      <trkpt lat="42.355160" lon="1.784811">
        <ele>1069.7</ele>
        <time>2018-06-11T11:19:11Z</time>
      </trkpt>
      <trkpt lat="42.355241" lon="1.784827">
        <ele>1069.8</ele>
        <time>2018-06-11T11:19:13Z</time>
      </trkpt>
      <trkpt lat="42.355311" lon="1.784811">
        <ele>1069.9</ele>
        <time>2018-06-11T11:19:15Z</time>
      </trkpt>
      <trkpt lat="42.355363" lon="1.784764">
        <ele>1069.9</ele>
        <time>2018-06-11T11:19:17Z</time>
      </trkpt>
      <trkpt lat="42.355426" lon="1.784685">
        <ele>1070.0</ele>
        <time>2018-06-11T11:19:19Z</time>
      </trkpt>
      <trkpt lat="42.355472" lon="1.784568">
        <ele>1069.9</ele>
        <time>2018-06-11T11:19:21Z</time>
      </trkpt>
      <trkpt lat="42.355518" lon="1.784412">
        <ele>1070.2</ele>
        <time>2018-06-11T11:19:25Z</time>
      </trkpt>
      <trkpt lat="42.355628" lon="1.784192">
        <ele>1070.3</ele>
        <time>2018-06-11T11:19:30Z</time>
      </trkpt>
      <trkpt lat="42.355877" lon="1.783323">
        <ele>1070.7</ele>
        <time>2018-06-11T11:19:48Z</time>
      </trkpt>
      <trkpt lat="42.356048" lon="1.782635">
        <ele>1068.8</ele>
        <time>2018-06-11T11:20:02Z</time>
      </trkpt>
      <trkpt lat="42.356324" lon="1.781563">
        <ele>1071.0</ele>
        <time>2018-06-11T11:20:25Z</time>
      </trkpt>
      <trkpt lat="42.356550" lon="1.780806">
        <ele>1072.1</ele>
        <time>2018-06-11T11:20:41Z</time>
      </trkpt>
      <trkpt lat="42.356560" lon="1.780640">
        <ele>1071.8</ele>
        <time>2018-06-11T11:20:44Z</time>
      </trkpt>
      <trkpt lat="42.356510" lon="1.780502">
        <ele>1072.5</ele>
        <time>2018-06-11T11:20:47Z</time>
      </trkpt>
      <trkpt lat="42.356481" lon="1.780457">
        <ele>1072.9</ele>
        <time>2018-06-11T11:20:48Z</time>
      </trkpt>
      <trkpt lat="42.356468" lon="1.780373">
        <ele>1072.9</ele>
        <time>2018-06-11T11:20:50Z</time>
      </trkpt>
      <trkpt lat="42.356474" lon="1.780251">
        <ele>1072.0</ele>
        <time>2018-06-11T11:20:52Z</time>
      </trkpt>
      <trkpt lat="42.356477" lon="1.779830">
        <ele>1070.5</ele>
        <time>2018-06-11T11:21:00Z</time>
      </trkpt>
      <trkpt lat="42.356474" lon="1.779700">
        <ele>1071.2</ele>
        <time>2018-06-11T11:21:03Z</time>
      </trkpt>
      <trkpt lat="42.356461" lon="1.779577">
        <ele>1071.8</ele>
        <time>2018-06-11T11:21:05Z</time>
      </trkpt>
      <trkpt lat="42.356461" lon="1.779571">
        <ele>1071.8</ele>
        <time>2018-06-11T11:21:05Z</time>
      </trkpt>
      <trkpt lat="42.356437" lon="1.779469">
        <ele>1072.1</ele>
        <time>2018-06-11T11:21:08Z</time>
      </trkpt>
      <trkpt lat="42.356409" lon="1.779396">
        <ele>1072.2</ele>
        <time>2018-06-11T11:21:09Z</time>
      </trkpt>
      <trkpt lat="42.356409" lon="1.779313">
        <ele>1072.5</ele>
        <time>2018-06-11T11:21:11Z</time>
      </trkpt>
      <trkpt lat="42.356438" lon="1.779195">
        <ele>1073.6</ele>
        <time>2018-06-11T11:21:13Z</time>
      </trkpt>
      <trkpt lat="42.356443" lon="1.779183">
        <ele>1073.7</ele>
        <time>2018-06-11T11:21:14Z</time>
      </trkpt>
      <trkpt lat="42.356457" lon="1.779117">
        <ele>1074.3</ele>
        <time>2018-06-11T11:21:15Z</time>
      </trkpt>
      <trkpt lat="42.356464" lon="1.779044">
        <ele>1074.9</ele>
        <time>2018-06-11T11:21:16Z</time>
      </trkpt>
      <trkpt lat="42.356456" lon="1.778927">
        <ele>1075.6</ele>
        <time>2018-06-11T11:21:19Z</time>
      </trkpt>
      <trkpt lat="42.356431" lon="1.778356">
        <ele>1074.8</ele>
        <time>2018-06-11T11:21:30Z</time>
      </trkpt>
      <trkpt lat="42.356413" lon="1.778074">
        <ele>1074.2</ele>
        <time>2018-06-11T11:21:35Z</time>
      </trkpt>
      <trkpt lat="42.356414" lon="1.777908">
        <ele>1074.4</ele>
        <time>2018-06-11T11:21:39Z</time>
      </trkpt>
      <trkpt lat="42.356427" lon="1.777759">
        <ele>1073.8</ele>
        <time>2018-06-11T11:21:42Z</time>
      </trkpt>
      <trkpt lat="42.356443" lon="1.777598">
        <ele>1073.7</ele>
        <time>2018-06-11T11:21:45Z</time>
      </trkpt>
      <trkpt lat="42.356456" lon="1.777494">
        <ele>1074.6</ele>
        <time>2018-06-11T11:21:47Z</time>
      </trkpt>
      <trkpt lat="42.356458" lon="1.777429">
        <ele>1075.1</ele>
        <time>2018-06-11T11:21:48Z</time>
      </trkpt>
      <trkpt lat="42.356443" lon="1.777324">
        <ele>1075.5</ele>
        <time>2018-06-11T11:21:50Z</time>
      </trkpt>
      <trkpt lat="42.356409" lon="1.777228">
        <ele>1075.2</ele>
        <time>2018-06-11T11:21:52Z</time>
      </trkpt>
      <trkpt lat="42.356368" lon="1.777116">
        <ele>1075.2</ele>
        <time>2018-06-11T11:21:55Z</time>
      </trkpt>
      <trkpt lat="42.356356" lon="1.777047">
        <ele>1075.1</ele>
        <time>2018-06-11T11:21:56Z</time>
      </trkpt>
      <trkpt lat="42.356341" lon="1.776963">
        <ele>1074.9</ele>
        <time>2018-06-11T11:21:58Z</time>
      </trkpt>
      <trkpt lat="42.356314" lon="1.776612">
        <ele>1072.4</ele>
        <time>2018-06-11T11:22:05Z</time>
      </trkpt>
      <trkpt lat="42.356282" lon="1.776220">
        <ele>1067.5</ele>
        <time>2018-06-11T11:22:13Z</time>
      </trkpt>
      <trkpt lat="42.356255" lon="1.776022">
        <ele>1064.7</ele>
        <time>2018-06-11T11:22:17Z</time>
      </trkpt>
      <trkpt lat="42.356234" lon="1.775873">
        <ele>1064.5</ele>
        <time>2018-06-11T11:22:19Z</time>
      </trkpt>
      <trkpt lat="42.356208" lon="1.775792">
        <ele>1065.1</ele>
        <time>2018-06-11T11:22:21Z</time>
      </trkpt>
      <trkpt lat="42.356182" lon="1.775747">
        <ele>1065.6</ele>
        <time>2018-06-11T11:22:22Z</time>
      </trkpt>
      <trkpt lat="42.356141" lon="1.775704">
        <ele>1066.1</ele>
        <time>2018-06-11T11:22:24Z</time>
      </trkpt>
      <trkpt lat="42.356096" lon="1.775682">
        <ele>1066.9</ele>
        <time>2018-06-11T11:22:25Z</time>
      </trkpt>
      <trkpt lat="42.356036" lon="1.775678">
        <ele>1067.6</ele>
        <time>2018-06-11T11:22:27Z</time>
      </trkpt>
      <trkpt lat="42.355954" lon="1.775699">
        <ele>1068.3</ele>
        <time>2018-06-11T11:22:29Z</time>
      </trkpt>
      <trkpt lat="42.355895" lon="1.775701">
        <ele>1069.4</ele>
        <time>2018-06-11T11:22:30Z</time>
      </trkpt>
      <trkpt lat="42.355860" lon="1.775694">
        <ele>1070.0</ele>
        <time>2018-06-11T11:22:31Z</time>
      </trkpt>
      <trkpt lat="42.355816" lon="1.775671">
        <ele>1070.9</ele>
        <time>2018-06-11T11:22:33Z</time>
      </trkpt>
      <trkpt lat="42.355707" lon="1.775611">
        <ele>1072.3</ele>
        <time>2018-06-11T11:22:36Z</time>
      </trkpt>
      <trkpt lat="42.355598" lon="1.775563">
        <ele>1072.9</ele>
        <time>2018-06-11T11:22:39Z</time>
      </trkpt>
      <trkpt lat="42.355464" lon="1.775535">
        <ele>1073.9</ele>
        <time>2018-06-11T11:22:42Z</time>
      </trkpt>
      <trkpt lat="42.355125" lon="1.775455">
        <ele>1070.7</ele>
        <time>2018-06-11T11:22:52Z</time>
      </trkpt>
      <trkpt lat="42.354977" lon="1.775419">
        <ele>1071.8</ele>
        <time>2018-06-11T11:22:56Z</time>
      </trkpt>
      <trkpt lat="42.354867" lon="1.775390">
        <ele>1072.8</ele>
        <time>2018-06-11T11:22:58Z</time>
      </trkpt>
      <trkpt lat="42.354772" lon="1.775329">
        <ele>1073.6</ele>
        <time>2018-06-11T11:23:01Z</time>
      </trkpt>
      <trkpt lat="42.354716" lon="1.775268">
        <ele>1074.0</ele>
        <time>2018-06-11T11:23:03Z</time>
      </trkpt>
      <trkpt lat="42.354698" lon="1.775223">
        <ele>1074.1</ele>
        <time>2018-06-11T11:23:04Z</time>
      </trkpt>
      <trkpt lat="42.354676" lon="1.775095">
        <ele>1074.2</ele>
        <time>2018-06-11T11:23:07Z</time>
      </trkpt>
      <trkpt lat="42.354654" lon="1.775028">
        <ele>1074.6</ele>
        <time>2018-06-11T11:23:08Z</time>
      </trkpt>
      <trkpt lat="42.354616" lon="1.774984">
        <ele>1075.2</ele>
        <time>2018-06-11T11:23:10Z</time>
      </trkpt>
      <trkpt lat="42.354515" lon="1.774894">
        <ele>1076.7</ele>
        <time>2018-06-11T11:23:13Z</time>
      </trkpt>
      <trkpt lat="42.354372" lon="1.774783">
        <ele>1078.9</ele>
        <time>2018-06-11T11:23:17Z</time>
      </trkpt>
      <trkpt lat="42.354291" lon="1.774736">
        <ele>1080.0</ele>
        <time>2018-06-11T11:23:19Z</time>
      </trkpt>
      <trkpt lat="42.354199" lon="1.774692">
        <ele>1080.7</ele>
        <time>2018-06-11T11:23:22Z</time>
      </trkpt>
      <trkpt lat="42.354119" lon="1.774642">
        <ele>1080.8</ele>
        <time>2018-06-11T11:23:24Z</time>
      </trkpt>
      <trkpt lat="42.354026" lon="1.774583">
        <ele>1080.0</ele>
        <time>2018-06-11T11:23:27Z</time>
      </trkpt>
      <trkpt lat="42.353940" lon="1.774540">
        <ele>1080.3</ele>
        <time>2018-06-11T11:23:30Z</time>
      </trkpt>
      <trkpt lat="42.353867" lon="1.774516">
        <ele>1080.5</ele>
        <time>2018-06-11T11:23:32Z</time>
      </trkpt>
      <trkpt lat="42.353773" lon="1.774516">
        <ele>1080.5</ele>
        <time>2018-06-11T11:23:34Z</time>
      </trkpt>
      <trkpt lat="42.353670" lon="1.774527">
        <ele>1079.8</ele>
        <time>2018-06-11T11:23:37Z</time>
      </trkpt>
      <trkpt lat="42.353609" lon="1.774527">
        <ele>1079.3</ele>
        <time>2018-06-11T11:23:38Z</time>
      </trkpt>
      <trkpt lat="42.353553" lon="1.774524">
        <ele>1078.9</ele>
        <time>2018-06-11T11:23:40Z</time>
      </trkpt>
      <trkpt lat="42.353503" lon="1.774522">
        <ele>1078.5</ele>
        <time>2018-06-11T11:23:41Z</time>
      </trkpt>
      <trkpt lat="42.353461" lon="1.774499">
        <ele>1078.3</ele>
        <time>2018-06-11T11:23:42Z</time>
      </trkpt>
      <trkpt lat="42.353439" lon="1.774463">
        <ele>1078.6</ele>
        <time>2018-06-11T11:23:43Z</time>
      </trkpt>
      <trkpt lat="42.353425" lon="1.774419">
        <ele>1078.8</ele>
        <time>2018-06-11T11:23:44Z</time>
      </trkpt>
      <trkpt lat="42.353420" lon="1.774363">
        <ele>1079.0</ele>
        <time>2018-06-11T11:23:45Z</time>
      </trkpt>
      <trkpt lat="42.353420" lon="1.774302">
        <ele>1079.2</ele>
        <time>2018-06-11T11:23:47Z</time>
      </trkpt>
      <trkpt lat="42.353432" lon="1.774214">
        <ele>1079.8</ele>
        <time>2018-06-11T11:23:48Z</time>
      </trkpt>
      <trkpt lat="42.353453" lon="1.774150">
        <ele>1080.2</ele>
        <time>2018-06-11T11:23:50Z</time>
      </trkpt>
      <trkpt lat="42.353517" lon="1.774020">
        <ele>1081.2</ele>
        <time>2018-06-11T11:23:53Z</time>
      </trkpt>
      <trkpt lat="42.353626" lon="1.773837">
        <ele>1082.5</ele>
        <time>2018-06-11T11:23:57Z</time>
      </trkpt>
      <trkpt lat="42.353698" lon="1.773747">
        <ele>1082.4</ele>
        <time>2018-06-11T11:24:00Z</time>
      </trkpt>
      <trkpt lat="42.353778" lon="1.773674">
        <ele>1083.3</ele>
        <time>2018-06-11T11:24:03Z</time>
      </trkpt>
      <trkpt lat="42.353823" lon="1.773647">
        <ele>1083.6</ele>
        <time>2018-06-11T11:24:04Z</time>
      </trkpt>
      <trkpt lat="42.353855" lon="1.773636">
        <ele>1083.6</ele>
        <time>2018-06-11T11:24:05Z</time>
      </trkpt>
      <trkpt lat="42.353864" lon="1.773630">
        <ele>1083.6</ele>
        <time>2018-06-11T11:24:05Z</time>
      </trkpt>
      <trkpt lat="42.353894" lon="1.773604">
        <ele>1083.8</ele>
        <time>2018-06-11T11:24:06Z</time>
      </trkpt>
      <trkpt lat="42.353921" lon="1.773538">
        <ele>1084.4</ele>
        <time>2018-06-11T11:24:07Z</time>
      </trkpt>
      <trkpt lat="42.353943" lon="1.773472">
        <ele>1084.9</ele>
        <time>2018-06-11T11:24:09Z</time>
      </trkpt>
      <trkpt lat="42.353951" lon="1.773401">
        <ele>1084.7</ele>
        <time>2018-06-11T11:24:10Z</time>
      </trkpt>
      <trkpt lat="42.353959" lon="1.773257">
        <ele>1084.3</ele>
        <time>2018-06-11T11:24:13Z</time>
      </trkpt>
      <trkpt lat="42.353954" lon="1.773117">
        <ele>1083.8</ele>
        <time>2018-06-11T11:24:16Z</time>
      </trkpt>
      <trkpt lat="42.353957" lon="1.772913">
        <ele>1082.5</ele>
        <time>2018-06-11T11:24:20Z</time>
      </trkpt>
      <trkpt lat="42.353970" lon="1.772855">
        <ele>1081.6</ele>
        <time>2018-06-11T11:24:21Z</time>
      </trkpt>
      <trkpt lat="42.353991" lon="1.772790">
        <ele>1080.4</ele>
        <time>2018-06-11T11:24:22Z</time>
      </trkpt>
      <trkpt lat="42.354007" lon="1.772731">
        <ele>1079.4</ele>
        <time>2018-06-11T11:24:24Z</time>
      </trkpt>
      <trkpt lat="42.354009" lon="1.772699">
        <ele>1079.0</ele>
        <time>2018-06-11T11:24:24Z</time>
      </trkpt>
      <trkpt lat="42.354008" lon="1.772655">
        <ele>1078.6</ele>
        <time>2018-06-11T11:24:25Z</time>
      </trkpt>
      <trkpt lat="42.353996" lon="1.772588">
        <ele>1078.8</ele>
        <time>2018-06-11T11:24:27Z</time>
      </trkpt>
      <trkpt lat="42.353966" lon="1.772504">
        <ele>1079.7</ele>
        <time>2018-06-11T11:24:28Z</time>
      </trkpt>
      <trkpt lat="42.353941" lon="1.772431">
        <ele>1080.4</ele>
        <time>2018-06-11T11:24:30Z</time>
      </trkpt>
      <trkpt lat="42.353931" lon="1.772383">
        <ele>1080.7</ele>
        <time>2018-06-11T11:24:31Z</time>
      </trkpt>
      <trkpt lat="42.353921" lon="1.772286">
        <ele>1080.7</ele>
        <time>2018-06-11T11:24:33Z</time>
      </trkpt>
      <trkpt lat="42.353925" lon="1.772227">
        <ele>1080.5</ele>
        <time>2018-06-11T11:24:34Z</time>
      </trkpt>
      <trkpt lat="42.353931" lon="1.772169">
        <ele>1080.3</ele>
        <time>2018-06-11T11:24:35Z</time>
      </trkpt>
      <trkpt lat="42.353952" lon="1.772103">
        <ele>1079.7</ele>
        <time>2018-06-11T11:24:37Z</time>
      </trkpt>
      <trkpt lat="42.353994" lon="1.772025">
        <ele>1079.4</ele>
        <time>2018-06-11T11:24:38Z</time>
      </trkpt>
      <trkpt lat="42.354054" lon="1.771934">
        <ele>1079.4</ele>
        <time>2018-06-11T11:24:41Z</time>
      </trkpt>
      <trkpt lat="42.354115" lon="1.771814">
        <ele>1080.0</ele>
        <time>2018-06-11T11:24:44Z</time>
      </trkpt>
      <trkpt lat="42.354160" lon="1.771716">
        <ele>1080.6</ele>
        <time>2018-06-11T11:24:46Z</time>
      </trkpt>
      <trkpt lat="42.354225" lon="1.771540">
        <ele>1081.3</ele>
        <time>2018-06-11T11:24:50Z</time>
      </trkpt>
      <trkpt lat="42.354300" lon="1.771295">
        <ele>1080.9</ele>
        <time>2018-06-11T11:24:55Z</time>
      </trkpt>
      <trkpt lat="42.354333" lon="1.771107">
        <ele>1082.7</ele>
        <time>2018-06-11T11:24:59Z</time>
      </trkpt>
      <trkpt lat="42.354334" lon="1.770958">
        <ele>1084.5</ele>
        <time>2018-06-11T11:25:02Z</time>
      </trkpt>
      <trkpt lat="42.354306" lon="1.770823">
        <ele>1087.2</ele>
        <time>2018-06-11T11:25:05Z</time>
      </trkpt>
      <trkpt lat="42.354254" lon="1.770703">
        <ele>1090.2</ele>
        <time>2018-06-11T11:25:07Z</time>
      </trkpt>
      <trkpt lat="42.354160" lon="1.770535">
        <ele>1093.6</ele>
        <time>2018-06-11T11:25:12Z</time>
      </trkpt>
      <trkpt lat="42.354104" lon="1.770366">
        <ele>1096.5</ele>
        <time>2018-06-11T11:25:15Z</time>
      </trkpt>
      <trkpt lat="42.354015" lon="1.770079">
        <ele>1100.5</ele>
        <time>2018-06-11T11:25:21Z</time>
      </trkpt>
      <trkpt lat="42.353962" lon="1.769903">
        <ele>1102.2</ele>
        <time>2018-06-11T11:25:25Z</time>
      </trkpt>
      <trkpt lat="42.353955" lon="1.769836">
        <ele>1102.7</ele>
        <time>2018-06-11T11:25:27Z</time>
      </trkpt>
      <trkpt lat="42.353957" lon="1.769736">
        <ele>1103.4</ele>
        <time>2018-06-11T11:25:28Z</time>
      </trkpt>
      <trkpt lat="42.353967" lon="1.769683">
        <ele>1103.7</ele>
        <time>2018-06-11T11:25:30Z</time>
      </trkpt>
      <trkpt lat="42.353955" lon="1.769479">
        <ele>1104.3</ele>
        <time>2018-06-11T11:25:34Z</time>
      </trkpt>
      <trkpt lat="42.353918" lon="1.769173">
        <ele>1105.0</ele>
        <time>2018-06-11T11:25:40Z</time>
      </trkpt>
      <trkpt lat="42.353891" lon="1.768866">
        <ele>1106.0</ele>
        <time>2018-06-11T11:25:46Z</time>
      </trkpt>
      <trkpt lat="42.353853" lon="1.768593">
        <ele>1105.7</ele>
        <time>2018-06-11T11:25:51Z</time>
      </trkpt>
      <trkpt lat="42.353836" lon="1.768393">
        <ele>1105.1</ele>
        <time>2018-06-11T11:25:55Z</time>
      </trkpt>
      <trkpt lat="42.353809" lon="1.768180">
        <ele>1105.4</ele>
        <time>2018-06-11T11:25:59Z</time>
      </trkpt>
      <trkpt lat="42.353765" lon="1.767957">
        <ele>1105.9</ele>
        <time>2018-06-11T11:26:04Z</time>
      </trkpt>
      <trkpt lat="42.353748" lon="1.767626">
        <ele>1104.9</ele>
        <time>2018-06-11T11:26:10Z</time>
      </trkpt>
      <trkpt lat="42.353723" lon="1.767406">
        <ele>1103.8</ele>
        <time>2018-06-11T11:26:15Z</time>
      </trkpt>
      <trkpt lat="42.353711" lon="1.767313">
        <ele>1103.6</ele>
        <time>2018-06-11T11:26:17Z</time>
      </trkpt>
      <trkpt lat="42.353720" lon="1.767219">
        <ele>1103.4</ele>
        <time>2018-06-11T11:26:18Z</time>
      </trkpt>
      <trkpt lat="42.353735" lon="1.767103">
        <ele>1103.1</ele>
        <time>2018-06-11T11:26:21Z</time>
      </trkpt>
      <trkpt lat="42.353767" lon="1.766997">
        <ele>1102.6</ele>
        <time>2018-06-11T11:26:23Z</time>
      </trkpt>
      <trkpt lat="42.353791" lon="1.766837">
        <ele>1101.8</ele>
        <time>2018-06-11T11:26:26Z</time>
      </trkpt>
      <trkpt lat="42.353790" lon="1.766709">
        <ele>1101.0</ele>
        <time>2018-06-11T11:26:29Z</time>
      </trkpt>
      <trkpt lat="42.353778" lon="1.766462">
        <ele>1099.2</ele>
        <time>2018-06-11T11:26:34Z</time>
      </trkpt>
      <trkpt lat="42.353776" lon="1.766309">
        <ele>1098.0</ele>
        <time>2018-06-11T11:26:37Z</time>
      </trkpt>
      <trkpt lat="42.353788" lon="1.766131">
        <ele>1096.8</ele>
        <time>2018-06-11T11:26:40Z</time>
      </trkpt>
      <trkpt lat="42.353826" lon="1.765910">
        <ele>1095.0</ele>
        <time>2018-06-11T11:26:44Z</time>
      </trkpt>
      <trkpt lat="42.353869" lon="1.765688">
        <ele>1093.6</ele>
        <time>2018-06-11T11:26:49Z</time>
      </trkpt>
      <trkpt lat="42.354119" lon="1.765007">
        <ele>1088.7</ele>
        <time>2018-06-11T11:27:04Z</time>
      </trkpt>
      <trkpt lat="42.354184" lon="1.764834">
        <ele>1089.0</ele>
        <time>2018-06-11T11:27:08Z</time>
      </trkpt>
      <trkpt lat="42.354208" lon="1.764759">
        <ele>1089.1</ele>
        <time>2018-06-11T11:27:09Z</time>
      </trkpt>
      <trkpt lat="42.354220" lon="1.764683">
        <ele>1089.2</ele>
        <time>2018-06-11T11:27:11Z</time>
      </trkpt>
      <trkpt lat="42.354218" lon="1.764622">
        <ele>1089.3</ele>
        <time>2018-06-11T11:27:12Z</time>
      </trkpt>
      <trkpt lat="42.354208" lon="1.764565">
        <ele>1089.3</ele>
        <time>2018-06-11T11:27:13Z</time>
      </trkpt>
      <trkpt lat="42.354180" lon="1.764520">
        <ele>1089.1</ele>
        <time>2018-06-11T11:27:14Z</time>
      </trkpt>
      <trkpt lat="42.354131" lon="1.764463">
        <ele>1088.9</ele>
        <time>2018-06-11T11:27:16Z</time>
      </trkpt>
      <trkpt lat="42.354056" lon="1.764397">
        <ele>1088.6</ele>
        <time>2018-06-11T11:27:18Z</time>
      </trkpt>
      <trkpt lat="42.353954" lon="1.764294">
        <ele>1088.6</ele>
        <time>2018-06-11T11:27:22Z</time>
      </trkpt>
      <trkpt lat="42.353784" lon="1.764099">
        <ele>1085.7</ele>
        <time>2018-06-11T11:27:28Z</time>
      </trkpt>
      <trkpt lat="42.353663" lon="1.763909">
        <ele>1082.2</ele>
        <time>2018-06-11T11:27:33Z</time>
      </trkpt>
      <trkpt lat="42.353553" lon="1.763800">
        <ele>1081.1</ele>
        <time>2018-06-11T11:27:36Z</time>
      </trkpt>
      <trkpt lat="42.353434" lon="1.763695">
        <ele>1079.9</ele>
        <time>2018-06-11T11:27:40Z</time>
      </trkpt>
      <trkpt lat="42.353268" lon="1.763529">
        <ele>1076.9</ele>
        <time>2018-06-11T11:27:46Z</time>
      </trkpt>
      <trkpt lat="42.353125" lon="1.763396">
        <ele>1075.3</ele>
        <time>2018-06-11T11:27:50Z</time>
      </trkpt>
      <trkpt lat="42.353038" lon="1.763333">
        <ele>1075.0</ele>
        <time>2018-06-11T11:27:53Z</time>
      </trkpt>
      <trkpt lat="42.352937" lon="1.763274">
        <ele>1075.0</ele>
        <time>2018-06-11T11:27:56Z</time>
      </trkpt>
      <trkpt lat="42.352880" lon="1.763255">
        <ele>1075.1</ele>
        <time>2018-06-11T11:27:57Z</time>
      </trkpt>
      <trkpt lat="42.352815" lon="1.763222">
        <ele>1075.3</ele>
        <time>2018-06-11T11:27:59Z</time>
      </trkpt>
      <trkpt lat="42.352768" lon="1.763189">
        <ele>1075.5</ele>
        <time>2018-06-11T11:28:01Z</time>
      </trkpt>
      <trkpt lat="42.352735" lon="1.763159">
        <ele>1075.3</ele>
        <time>2018-06-11T11:28:02Z</time>
      </trkpt>
      <trkpt lat="42.352712" lon="1.763111">
        <ele>1074.9</ele>
        <time>2018-06-11T11:28:03Z</time>
      </trkpt>
      <trkpt lat="42.352693" lon="1.763051">
        <ele>1074.4</ele>
        <time>2018-06-11T11:28:04Z</time>
      </trkpt>
      <trkpt lat="42.352678" lon="1.762976">
        <ele>1073.6</ele>
        <time>2018-06-11T11:28:06Z</time>
      </trkpt>
      <trkpt lat="42.352675" lon="1.762868">
        <ele>1073.5</ele>
        <time>2018-06-11T11:28:08Z</time>
      </trkpt>
      <trkpt lat="42.352675" lon="1.762766">
        <ele>1074.4</ele>
        <time>2018-06-11T11:28:10Z</time>
      </trkpt>
      <trkpt lat="42.352695" lon="1.762589">
        <ele>1075.9</ele>
        <time>2018-06-11T11:28:13Z</time>
      </trkpt>
      <trkpt lat="42.352701" lon="1.762405">
        <ele>1077.7</ele>
        <time>2018-06-11T11:28:17Z</time>
      </trkpt>
      <trkpt lat="42.352710" lon="1.762291">
        <ele>1078.4</ele>
        <time>2018-06-11T11:28:19Z</time>
      </trkpt>
      <trkpt lat="42.352726" lon="1.762229">
        <ele>1078.7</ele>
        <time>2018-06-11T11:28:20Z</time>
      </trkpt>
      <trkpt lat="42.352750" lon="1.762206">
        <ele>1078.6</ele>
        <time>2018-06-11T11:28:21Z</time>
      </trkpt>
      <trkpt lat="42.352788" lon="1.762191">
        <ele>1078.4</ele>
        <time>2018-06-11T11:28:22Z</time>
      </trkpt>
      <trkpt lat="42.352908" lon="1.762133">
        <ele>1078.3</ele>
        <time>2018-06-11T11:28:26Z</time>
      </trkpt>
      <trkpt lat="42.353020" lon="1.762113">
        <ele>1077.3</ele>
        <time>2018-06-11T11:28:29Z</time>
      </trkpt>
      <trkpt lat="42.353071" lon="1.762105">
        <ele>1076.6</ele>
        <time>2018-06-11T11:28:30Z</time>
      </trkpt>
      <trkpt lat="42.353173" lon="1.762059">
        <ele>1075.4</ele>
        <time>2018-06-11T11:28:33Z</time>
      </trkpt>
      <trkpt lat="42.353206" lon="1.762026">
        <ele>1075.2</ele>
        <time>2018-06-11T11:28:34Z</time>
      </trkpt>
      <trkpt lat="42.353269" lon="1.761925">
        <ele>1075.7</ele>
        <time>2018-06-11T11:28:36Z</time>
      </trkpt>
      <trkpt lat="42.353316" lon="1.761853">
        <ele>1076.2</ele>
        <time>2018-06-11T11:28:38Z</time>
      </trkpt>
      <trkpt lat="42.353379" lon="1.761805">
        <ele>1076.7</ele>
        <time>2018-06-11T11:28:40Z</time>
      </trkpt>
      <trkpt lat="42.353462" lon="1.761766">
        <ele>1077.0</ele>
        <time>2018-06-11T11:28:43Z</time>
      </trkpt>
      <trkpt lat="42.353529" lon="1.761760">
        <ele>1076.4</ele>
        <time>2018-06-11T11:28:44Z</time>
      </trkpt>
      <trkpt lat="42.353616" lon="1.761769">
        <ele>1075.5</ele>
        <time>2018-06-11T11:28:47Z</time>
      </trkpt>
      <trkpt lat="42.353736" lon="1.761773">
        <ele>1074.3</ele>
        <time>2018-06-11T11:28:50Z</time>
      </trkpt>
      <trkpt lat="42.353840" lon="1.761760">
        <ele>1072.0</ele>
        <time>2018-06-11T11:28:53Z</time>
      </trkpt>
      <trkpt lat="42.353969" lon="1.761725">
        <ele>1068.6</ele>
        <time>2018-06-11T11:28:56Z</time>
      </trkpt>
      <trkpt lat="42.354105" lon="1.761648">
        <ele>1066.2</ele>
        <time>2018-06-11T11:29:00Z</time>
      </trkpt>
      <trkpt lat="42.354306" lon="1.761543">
        <ele>1065.1</ele>
        <time>2018-06-11T11:29:06Z</time>
      </trkpt>
      <trkpt lat="42.354475" lon="1.761447">
        <ele>1064.9</ele>
        <time>2018-06-11T11:29:11Z</time>
      </trkpt>
      <trkpt lat="42.354570" lon="1.761356">
        <ele>1065.0</ele>
        <time>2018-06-11T11:29:14Z</time>
      </trkpt>
      <trkpt lat="42.354782" lon="1.761141">
        <ele>1064.4</ele>
        <time>2018-06-11T11:29:21Z</time>
      </trkpt>
      <trkpt lat="42.355343" lon="1.760574">
        <ele>1061.4</ele>
        <time>2018-06-11T11:29:39Z</time>
      </trkpt>
      <trkpt lat="42.355884" lon="1.760003">
        <ele>1061.0</ele>
        <time>2018-06-11T11:29:58Z</time>
      </trkpt>
      <trkpt lat="42.356314" lon="1.759487">
        <ele>1060.4</ele>
        <time>2018-06-11T11:30:13Z</time>
      </trkpt>
      <trkpt lat="42.356938" lon="1.758739">
        <ele>1059.2</ele>
        <time>2018-06-11T11:30:35Z</time>
      </trkpt>
      <trkpt lat="42.357512" lon="1.757951">
        <ele>1061.3</ele>
        <time>2018-06-11T11:30:57Z</time>
      </trkpt>
      <trkpt lat="42.358022" lon="1.757173">
        <ele>1056.8</ele>
        <time>2018-06-11T11:31:17Z</time>
      </trkpt>
      <trkpt lat="42.358321" lon="1.756710">
        <ele>1048.9</ele>
        <time>2018-06-11T11:31:29Z</time>
      </trkpt>
      <trkpt lat="42.358451" lon="1.756490">
        <ele>1044.5</ele>
        <time>2018-06-11T11:31:35Z</time>
      </trkpt>
      <trkpt lat="42.358524" lon="1.756311">
        <ele>1043.5</ele>
        <time>2018-06-11T11:31:39Z</time>
      </trkpt>
      <trkpt lat="42.358597" lon="1.755954">
        <ele>1041.6</ele>
        <time>2018-06-11T11:31:46Z</time>
      </trkpt>
      <trkpt lat="42.358684" lon="1.755577">
        <ele>1040.1</ele>
        <time>2018-06-11T11:31:54Z</time>
      </trkpt>
      <trkpt lat="42.358744" lon="1.755278">
        <ele>1038.0</ele>
        <time>2018-06-11T11:32:00Z</time>
      </trkpt>
      <trkpt lat="42.358817" lon="1.754996">
        <ele>1036.1</ele>
        <time>2018-06-11T11:32:06Z</time>
      </trkpt>
      <trkpt lat="42.358987" lon="1.754631">
        <ele>1034.9</ele>
        <time>2018-06-11T11:32:14Z</time>
      </trkpt>
      <trkpt lat="42.359126" lon="1.754378">
        <ele>1035.6</ele>
        <time>2018-06-11T11:32:20Z</time>
      </trkpt>
      <trkpt lat="42.359226" lon="1.754228">
        <ele>1035.8</ele>
        <time>2018-06-11T11:32:24Z</time>
      </trkpt>
      <trkpt lat="42.359295" lon="1.754172">
        <ele>1036.0</ele>
        <time>2018-06-11T11:32:26Z</time>
      </trkpt>
      <trkpt lat="42.359414" lon="1.754135">
        <ele>1034.1</ele>
        <time>2018-06-11T11:32:30Z</time>
      </trkpt>
      <trkpt lat="42.359629" lon="1.754101">
        <ele>1030.5</ele>
        <time>2018-06-11T11:32:35Z</time>
      </trkpt>
      <trkpt lat="42.360026" lon="1.754052">
        <ele>1027.1</ele>
        <time>2018-06-11T11:32:46Z</time>
      </trkpt>
      <trkpt lat="42.360368" lon="1.753994">
        <ele>1022.5</ele>
        <time>2018-06-11T11:32:55Z</time>
      </trkpt>
      <trkpt lat="42.360619" lon="1.753969">
        <ele>1023.3</ele>
        <time>2018-06-11T11:33:02Z</time>
      </trkpt>
      <trkpt lat="42.360679" lon="1.753948">
        <ele>1023.6</ele>
        <time>2018-06-11T11:33:03Z</time>
      </trkpt>
      <trkpt lat="42.360715" lon="1.753902">
        <ele>1023.7</ele>
        <time>2018-06-11T11:33:05Z</time>
      </trkpt>
      <trkpt lat="42.360752" lon="1.753847">
        <ele>1023.7</ele>
        <time>2018-06-11T11:33:06Z</time>
      </trkpt>
      <trkpt lat="42.360763" lon="1.753740">
        <ele>1023.5</ele>
        <time>2018-06-11T11:33:08Z</time>
      </trkpt>
      <trkpt lat="42.360763" lon="1.753669">
        <ele>1023.4</ele>
        <time>2018-06-11T11:33:10Z</time>
      </trkpt>
      <trkpt lat="42.360752" lon="1.753539">
        <ele>1023.3</ele>
        <time>2018-06-11T11:33:12Z</time>
      </trkpt>
      <trkpt lat="42.360745" lon="1.753412">
        <ele>1023.1</ele>
        <time>2018-06-11T11:33:15Z</time>
      </trkpt>
      <trkpt lat="42.360709" lon="1.753220">
        <ele>1023.0</ele>
        <time>2018-06-11T11:33:19Z</time>
      </trkpt>
      <trkpt lat="42.360663" lon="1.752977">
        <ele>1023.8</ele>
        <time>2018-06-11T11:33:24Z</time>
      </trkpt>
      <trkpt lat="42.360629" lon="1.752811">
        <ele>1023.9</ele>
        <time>2018-06-11T11:33:27Z</time>
      </trkpt>
      <trkpt lat="42.360595" lon="1.752605">
        <ele>1023.4</ele>
        <time>2018-06-11T11:33:31Z</time>
      </trkpt>
      <trkpt lat="42.360558" lon="1.752389">
        <ele>1021.3</ele>
        <time>2018-06-11T11:33:35Z</time>
      </trkpt>
      <trkpt lat="42.360500" lon="1.751891">
        <ele>1022.6</ele>
        <time>2018-06-11T11:33:45Z</time>
      </trkpt>
      <trkpt lat="42.360452" lon="1.751465">
        <ele>1026.6</ele>
        <time>2018-06-11T11:33:54Z</time>
      </trkpt>
      <trkpt lat="42.360415" lon="1.751187">
        <ele>1028.0</ele>
        <time>2018-06-11T11:33:59Z</time>
      </trkpt>
      <trkpt lat="42.360330" lon="1.750827">
        <ele>1027.4</ele>
        <time>2018-06-11T11:34:07Z</time>
      </trkpt>
      <trkpt lat="42.360270" lon="1.750581">
        <ele>1026.7</ele>
        <time>2018-06-11T11:34:12Z</time>
      </trkpt>
      <trkpt lat="42.360246" lon="1.750319">
        <ele>1026.4</ele>
        <time>2018-06-11T11:34:17Z</time>
      </trkpt>
      <trkpt lat="42.360221" lon="1.749646">
        <ele>1025.5</ele>
        <time>2018-06-11T11:34:30Z</time>
      </trkpt>
      <trkpt lat="42.360208" lon="1.749128">
        <ele>1025.7</ele>
        <time>2018-06-11T11:34:40Z</time>
      </trkpt>
      <trkpt lat="42.360184" lon="1.748670">
        <ele>1027.3</ele>
        <time>2018-06-11T11:34:49Z</time>
      </trkpt>
      <trkpt lat="42.360173" lon="1.748115">
        <ele>1028.3</ele>
        <time>2018-06-11T11:35:00Z</time>
      </trkpt>
      <trkpt lat="42.360150" lon="1.747758">
        <ele>1029.0</ele>
        <time>2018-06-11T11:35:07Z</time>
      </trkpt>
      <trkpt lat="42.360102" lon="1.747451">
        <ele>1028.7</ele>
        <time>2018-06-11T11:35:13Z</time>
      </trkpt>
      <trkpt lat="42.360042" lon="1.747127">
        <ele>1028.2</ele>
        <time>2018-06-11T11:35:20Z</time>
      </trkpt>
      <trkpt lat="42.359982" lon="1.746867">
        <ele>1027.6</ele>
        <time>2018-06-11T11:35:25Z</time>
      </trkpt>
      <trkpt lat="42.359836" lon="1.746440">
        <ele>1027.4</ele>
        <time>2018-06-11T11:35:34Z</time>
      </trkpt>
      <trkpt lat="42.359654" lon="1.745930">
        <ele>1027.9</ele>
        <time>2018-06-11T11:35:45Z</time>
      </trkpt>
      <trkpt lat="42.359533" lon="1.745572">
        <ele>1028.7</ele>
        <time>2018-06-11T11:35:53Z</time>
      </trkpt>
      <trkpt lat="42.359424" lon="1.745229">
        <ele>1029.5</ele>
        <time>2018-06-11T11:36:00Z</time>
      </trkpt>
      <trkpt lat="42.359376" lon="1.744937">
        <ele>1030.8</ele>
        <time>2018-06-11T11:36:06Z</time>
      </trkpt>
      <trkpt lat="42.359341" lon="1.744564">
        <ele>1032.7</ele>
        <time>2018-06-11T11:36:14Z</time>
      </trkpt>
      <trkpt lat="42.359293" lon="1.744240">
        <ele>1033.9</ele>
        <time>2018-06-11T11:36:20Z</time>
      </trkpt>
      <trkpt lat="42.359258" lon="1.743869">
        <ele>1032.9</ele>
        <time>2018-06-11T11:36:27Z</time>
      </trkpt>
      <trkpt lat="42.359270" lon="1.743527">
        <ele>1034.7</ele>
        <time>2018-06-11T11:36:34Z</time>
      </trkpt>
      <trkpt lat="42.359264" lon="1.742497">
        <ele>1039.3</ele>
        <time>2018-06-11T11:36:54Z</time>
      </trkpt>
      <trkpt lat="42.359247" lon="1.741616">
        <ele>1044.6</ele>
        <time>2018-06-11T11:37:12Z</time>
      </trkpt>
      <trkpt lat="42.359230" lon="1.741021">
        <ele>1047.0</ele>
        <time>2018-06-11T11:37:23Z</time>
      </trkpt>
      <trkpt lat="42.359187" lon="1.740421">
        <ele>1052.2</ele>
        <time>2018-06-11T11:37:35Z</time>
      </trkpt>
      <trkpt lat="42.359127" lon="1.739776">
        <ele>1053.3</ele>
        <time>2018-06-11T11:37:48Z</time>
      </trkpt>
      <trkpt lat="42.359117" lon="1.739691">
        <ele>1053.4</ele>
        <time>2018-06-11T11:37:50Z</time>
      </trkpt>
      <trkpt lat="42.359063" lon="1.739609">
        <ele>1054.3</ele>
        <time>2018-06-11T11:37:52Z</time>
      </trkpt>
      <trkpt lat="42.359023" lon="1.739541">
        <ele>1054.8</ele>
        <time>2018-06-11T11:37:53Z</time>
      </trkpt>
      <trkpt lat="42.358959" lon="1.739475">
        <ele>1055.4</ele>
        <time>2018-06-11T11:37:56Z</time>
      </trkpt>
      <trkpt lat="42.358876" lon="1.739409">
        <ele>1056.6</ele>
        <time>2018-06-11T11:37:58Z</time>
      </trkpt>
      <trkpt lat="42.358812" lon="1.739356">
        <ele>1057.7</ele>
        <time>2018-06-11T11:38:00Z</time>
      </trkpt>
      <trkpt lat="42.358787" lon="1.739309">
        <ele>1058.2</ele>
        <time>2018-06-11T11:38:01Z</time>
      </trkpt>
      <trkpt lat="42.358772" lon="1.739236">
        <ele>1058.3</ele>
        <time>2018-06-11T11:38:03Z</time>
      </trkpt>
      <trkpt lat="42.358754" lon="1.739036">
        <ele>1058.0</ele>
        <time>2018-06-11T11:38:07Z</time>
      </trkpt>
      <trkpt lat="42.358729" lon="1.738814">
        <ele>1058.2</ele>
        <time>2018-06-11T11:38:11Z</time>
      </trkpt>
      <trkpt lat="42.358714" lon="1.738597">
        <ele>1058.3</ele>
        <time>2018-06-11T11:38:15Z</time>
      </trkpt>
      <trkpt lat="42.358723" lon="1.738327">
        <ele>1058.4</ele>
        <time>2018-06-11T11:38:21Z</time>
      </trkpt>
      <trkpt lat="42.358749" lon="1.737917">
        <ele>1059.0</ele>
        <time>2018-06-11T11:38:29Z</time>
      </trkpt>
      <trkpt lat="42.358764" lon="1.737730">
        <ele>1058.8</ele>
        <time>2018-06-11T11:38:32Z</time>
      </trkpt>
      <trkpt lat="42.358754" lon="1.737655">
        <ele>1059.0</ele>
        <time>2018-06-11T11:38:34Z</time>
      </trkpt>
      <trkpt lat="42.358715" lon="1.737483">
        <ele>1058.9</ele>
        <time>2018-06-11T11:38:37Z</time>
      </trkpt>
      <trkpt lat="42.358598" lon="1.737111">
        <ele>1057.1</ele>
        <time>2018-06-11T11:38:45Z</time>
      </trkpt>
      <trkpt lat="42.358511" lon="1.736859">
        <ele>1056.2</ele>
        <time>2018-06-11T11:38:51Z</time>
      </trkpt>
      <trkpt lat="42.358385" lon="1.736544">
        <ele>1055.1</ele>
        <time>2018-06-11T11:38:58Z</time>
      </trkpt>
      <trkpt lat="42.358293" lon="1.736320">
        <ele>1054.8</ele>
        <time>2018-06-11T11:39:03Z</time>
      </trkpt>
      <trkpt lat="42.358210" lon="1.736086">
        <ele>1053.5</ele>
        <time>2018-06-11T11:39:08Z</time>
      </trkpt>
      <trkpt lat="42.358191" lon="1.735926">
        <ele>1052.7</ele>
        <time>2018-06-11T11:39:11Z</time>
      </trkpt>
      <trkpt lat="42.358196" lon="1.735763">
        <ele>1051.5</ele>
        <time>2018-06-11T11:39:14Z</time>
      </trkpt>
      <trkpt lat="42.358274" lon="1.735599">
        <ele>1050.3</ele>
        <time>2018-06-11T11:39:18Z</time>
      </trkpt>
      <trkpt lat="42.358384" lon="1.735329">
        <ele>1048.2</ele>
        <time>2018-06-11T11:39:24Z</time>
      </trkpt>
      <trkpt lat="42.358575" lon="1.734985">
        <ele>1043.9</ele>
        <time>2018-06-11T11:39:33Z</time>
      </trkpt>
      <trkpt lat="42.358678" lon="1.734759">
        <ele>1040.6</ele>
        <time>2018-06-11T11:39:38Z</time>
      </trkpt>
      <trkpt lat="42.358717" lon="1.734623">
        <ele>1038.7</ele>
        <time>2018-06-11T11:39:41Z</time>
      </trkpt>
      <trkpt lat="42.358771" lon="1.734354">
        <ele>1036.3</ele>
        <time>2018-06-11T11:39:46Z</time>
      </trkpt>
      <trkpt lat="42.358862" lon="1.733881">
        <ele>1035.3</ele>
        <time>2018-06-11T11:39:56Z</time>
      </trkpt>
      <trkpt lat="42.358947" lon="1.733589">
        <ele>1037.6</ele>
        <time>2018-06-11T11:40:02Z</time>
      </trkpt>
      <trkpt lat="42.359180" lon="1.732940">
        <ele>1039.4</ele>
        <time>2018-06-11T11:40:16Z</time>
      </trkpt>
      <trkpt lat="42.359189" lon="1.732805">
        <ele>1039.1</ele>
        <time>2018-06-11T11:40:19Z</time>
      </trkpt>
      <trkpt lat="42.359180" lon="1.732693">
        <ele>1039.0</ele>
        <time>2018-06-11T11:40:21Z</time>
      </trkpt>
      <trkpt lat="42.359129" lon="1.732498">
        <ele>1038.5</ele>
        <time>2018-06-11T11:40:25Z</time>
      </trkpt>
      <trkpt lat="42.359025" lon="1.732218">
        <ele>1036.5</ele>
        <time>2018-06-11T11:40:31Z</time>
      </trkpt>
      <trkpt lat="42.358962" lon="1.731975">
        <ele>1036.5</ele>
        <time>2018-06-11T11:40:36Z</time>
      </trkpt>
      <trkpt lat="42.358922" lon="1.731693">
        <ele>1036.0</ele>
        <time>2018-06-11T11:40:42Z</time>
      </trkpt>
      <trkpt lat="42.358835" lon="1.731416">
        <ele>1036.0</ele>
        <time>2018-06-11T11:40:48Z</time>
      </trkpt>
      <trkpt lat="42.358844" lon="1.731337">
        <ele>1036.1</ele>
        <time>2018-06-11T11:40:49Z</time>
      </trkpt>
      <trkpt lat="42.358870" lon="1.731246">
        <ele>1036.2</ele>
        <time>2018-06-11T11:40:51Z</time>
      </trkpt>
      <trkpt lat="42.358931" lon="1.731113">
        <ele>1036.5</ele>
        <time>2018-06-11T11:40:54Z</time>
      </trkpt>
      <trkpt lat="42.359113" lon="1.730543">
        <ele>1037.8</ele>
        <time>2018-06-11T11:41:06Z</time>
      </trkpt>
      <trkpt lat="42.359288" lon="1.730063">
        <ele>1040.4</ele>
        <time>2018-06-11T11:41:17Z</time>
      </trkpt>
      <trkpt lat="42.359349" lon="1.729886">
        <ele>1042.6</ele>
        <time>2018-06-11T11:41:21Z</time>
      </trkpt>
      <trkpt lat="42.359376" lon="1.729764">
        <ele>1044.2</ele>
        <time>2018-06-11T11:41:23Z</time>
      </trkpt>
      <trkpt lat="42.359368" lon="1.729687">
        <ele>1044.9</ele>
        <time>2018-06-11T11:41:25Z</time>
      </trkpt>
      <trkpt lat="42.359336" lon="1.729575">
        <ele>1045.5</ele>
        <time>2018-06-11T11:41:27Z</time>
      </trkpt>
      <trkpt lat="42.359243" lon="1.729463">
        <ele>1045.3</ele>
        <time>2018-06-11T11:41:30Z</time>
      </trkpt>
      <trkpt lat="42.359177" lon="1.729384">
        <ele>1045.2</ele>
        <time>2018-06-11T11:41:33Z</time>
      </trkpt>
      <trkpt lat="42.359161" lon="1.729295">
        <ele>1045.5</ele>
        <time>2018-06-11T11:41:35Z</time>
      </trkpt>
      <trkpt lat="42.359178" lon="1.729218">
        <ele>1045.9</ele>
        <time>2018-06-11T11:41:36Z</time>
      </trkpt>
      <trkpt lat="42.359288" lon="1.729119">
        <ele>1046.9</ele>
        <time>2018-06-11T11:41:40Z</time>
      </trkpt>
      <trkpt lat="42.360116" lon="1.728459">
        <ele>1044.2</ele>
        <time>2018-06-11T11:42:05Z</time>
      </trkpt>
      <trkpt lat="42.360697" lon="1.727973">
        <ele>1044.8</ele>
        <time>2018-06-11T11:42:23Z</time>
      </trkpt>
      <trkpt lat="42.361237" lon="1.727525">
        <ele>1044.8</ele>
        <time>2018-06-11T11:42:40Z</time>
      </trkpt>
      <trkpt lat="42.361500" lon="1.727316">
        <ele>1046.0</ele>
        <time>2018-06-11T11:42:48Z</time>
      </trkpt>
      <trkpt lat="42.361574" lon="1.727262">
        <ele>1046.0</ele>
        <time>2018-06-11T11:42:50Z</time>
      </trkpt>
      <trkpt lat="42.361620" lon="1.727251">
        <ele>1046.1</ele>
        <time>2018-06-11T11:42:51Z</time>
      </trkpt>
      <trkpt lat="42.361706" lon="1.727236">
        <ele>1046.1</ele>
        <time>2018-06-11T11:42:54Z</time>
      </trkpt>
      <trkpt lat="42.361747" lon="1.727214">
        <ele>1046.0</ele>
        <time>2018-06-11T11:42:55Z</time>
      </trkpt>
      <trkpt lat="42.361772" lon="1.727183">
        <ele>1045.7</ele>
        <time>2018-06-11T11:42:56Z</time>
      </trkpt>
      <trkpt lat="42.361795" lon="1.727121">
        <ele>1045.3</ele>
        <time>2018-06-11T11:42:57Z</time>
      </trkpt>
      <trkpt lat="42.361827" lon="1.727033">
        <ele>1045.5</ele>
        <time>2018-06-11T11:42:59Z</time>
      </trkpt>
      <trkpt lat="42.361973" lon="1.726433">
        <ele>1047.1</ele>
        <time>2018-06-11T11:43:12Z</time>
      </trkpt>
      <trkpt lat="42.362084" lon="1.726004">
        <ele>1045.1</ele>
        <time>2018-06-11T11:43:20Z</time>
      </trkpt>
      <trkpt lat="42.362178" lon="1.725711">
        <ele>1042.7</ele>
        <time>2018-06-11T11:43:27Z</time>
      </trkpt>
      <trkpt lat="42.362274" lon="1.725494">
        <ele>1041.0</ele>
        <time>2018-06-11T11:43:32Z</time>
      </trkpt>
      <trkpt lat="42.362479" lon="1.725112">
        <ele>1036.2</ele>
        <time>2018-06-11T11:43:41Z</time>
      </trkpt>
      <trkpt lat="42.362686" lon="1.724730">
        <ele>1031.4</ele>
        <time>2018-06-11T11:43:50Z</time>
      </trkpt>
      <trkpt lat="42.362763" lon="1.724569">
        <ele>1029.2</ele>
        <time>2018-06-11T11:43:54Z</time>
      </trkpt>
      <trkpt lat="42.362805" lon="1.724419">
        <ele>1028.4</ele>
        <time>2018-06-11T11:43:57Z</time>
      </trkpt>
      <trkpt lat="42.362834" lon="1.724232">
        <ele>1027.6</ele>
        <time>2018-06-11T11:44:01Z</time>
      </trkpt>
      <trkpt lat="42.362891" lon="1.723886">
        <ele>1026.7</ele>
        <time>2018-06-11T11:44:08Z</time>
      </trkpt>
      <trkpt lat="42.362940" lon="1.723624">
        <ele>1027.1</ele>
        <time>2018-06-11T11:44:13Z</time>
      </trkpt>
      <trkpt lat="42.362959" lon="1.723374">
        <ele>1027.0</ele>
        <time>2018-06-11T11:44:18Z</time>
      </trkpt>
      <trkpt lat="42.362954" lon="1.723306">
        <ele>1026.7</ele>
        <time>2018-06-11T11:44:19Z</time>
      </trkpt>
      <trkpt lat="42.362945" lon="1.723252">
        <ele>1026.4</ele>
        <time>2018-06-11T11:44:21Z</time>
      </trkpt>
      <trkpt lat="42.362910" lon="1.723185">
        <ele>1026.1</ele>
        <time>2018-06-11T11:44:22Z</time>
      </trkpt>
      <trkpt lat="42.362832" lon="1.723037">
        <ele>1027.4</ele>
        <time>2018-06-11T11:44:26Z</time>
      </trkpt>
      <trkpt lat="42.362685" lon="1.722808">
        <ele>1029.6</ele>
        <time>2018-06-11T11:44:32Z</time>
      </trkpt>
      <trkpt lat="42.362573" lon="1.722615">
        <ele>1031.4</ele>
        <time>2018-06-11T11:44:36Z</time>
      </trkpt>
      <trkpt lat="42.362483" lon="1.722477">
        <ele>1032.9</ele>
        <time>2018-06-11T11:44:40Z</time>
      </trkpt>
      <trkpt lat="42.362440" lon="1.722407">
        <ele>1033.4</ele>
        <time>2018-06-11T11:44:42Z</time>
      </trkpt>
      <trkpt lat="42.362421" lon="1.722356">
        <ele>1033.7</ele>
        <time>2018-06-11T11:44:43Z</time>
      </trkpt>
      <trkpt lat="42.362411" lon="1.722314">
        <ele>1034.4</ele>
        <time>2018-06-11T11:44:44Z</time>
      </trkpt>
      <trkpt lat="42.362417" lon="1.722281">
        <ele>1035.1</ele>
        <time>2018-06-11T11:44:45Z</time>
      </trkpt>
      <trkpt lat="42.362431" lon="1.722256">
        <ele>1035.8</ele>
        <time>2018-06-11T11:44:45Z</time>
      </trkpt>
      <trkpt lat="42.362458" lon="1.722240">
        <ele>1036.4</ele>
        <time>2018-06-11T11:44:46Z</time>
      </trkpt>
      <trkpt lat="42.362485" lon="1.722238">
        <ele>1036.8</ele>
        <time>2018-06-11T11:44:47Z</time>
      </trkpt>
      <trkpt lat="42.362512" lon="1.722244">
        <ele>1037.0</ele>
        <time>2018-06-11T11:44:47Z</time>
      </trkpt>
      <trkpt lat="42.362545" lon="1.722269">
        <ele>1036.9</ele>
        <time>2018-06-11T11:44:48Z</time>
      </trkpt>
      <trkpt lat="42.362587" lon="1.722325">
        <ele>1036.2</ele>
        <time>2018-06-11T11:44:50Z</time>
      </trkpt>
      <trkpt lat="42.362619" lon="1.722363">
        <ele>1035.8</ele>
        <time>2018-06-11T11:44:51Z</time>
      </trkpt>
      <trkpt lat="42.362658" lon="1.722385">
        <ele>1036.1</ele>
        <time>2018-06-11T11:44:52Z</time>
      </trkpt>
      <trkpt lat="42.362739" lon="1.722444">
        <ele>1036.9</ele>
        <time>2018-06-11T11:44:55Z</time>
      </trkpt>
      <trkpt lat="42.362833" lon="1.722488">
        <ele>1038.3</ele>
        <time>2018-06-11T11:44:57Z</time>
      </trkpt>
      <trkpt lat="42.362909" lon="1.722519">
        <ele>1039.4</ele>
        <time>2018-06-11T11:44:59Z</time>
      </trkpt>
      <trkpt lat="42.362974" lon="1.722531">
        <ele>1039.9</ele>
        <time>2018-06-11T11:45:01Z</time>
      </trkpt>
      <trkpt lat="42.363043" lon="1.722538">
        <ele>1040.5</ele>
        <time>2018-06-11T11:45:03Z</time>
      </trkpt>
      <trkpt lat="42.363147" lon="1.722511">
        <ele>1041.9</ele>
        <time>2018-06-11T11:45:06Z</time>
      </trkpt>
      <trkpt lat="42.363265" lon="1.722452">
        <ele>1043.3</ele>
        <time>2018-06-11T11:45:09Z</time>
      </trkpt>
      <trkpt lat="42.363401" lon="1.722331">
        <ele>1045.1</ele>
        <time>2018-06-11T11:45:14Z</time>
      </trkpt>
      <trkpt lat="42.363492" lon="1.722222">
        <ele>1046.5</ele>
        <time>2018-06-11T11:45:17Z</time>
      </trkpt>
      <trkpt lat="42.363574" lon="1.722114">
        <ele>1048.0</ele>
        <time>2018-06-11T11:45:20Z</time>
      </trkpt>
      <trkpt lat="42.363646" lon="1.721979">
        <ele>1049.2</ele>
        <time>2018-06-11T11:45:23Z</time>
      </trkpt>
      <trkpt lat="42.363691" lon="1.721796">
        <ele>1050.6</ele>
        <time>2018-06-11T11:45:27Z</time>
      </trkpt>
      <trkpt lat="42.363718" lon="1.721542">
        <ele>1050.0</ele>
        <time>2018-06-11T11:45:32Z</time>
      </trkpt>
      <trkpt lat="42.363754" lon="1.721301">
        <ele>1049.9</ele>
        <time>2018-06-11T11:45:37Z</time>
      </trkpt>
      <trkpt lat="42.363817" lon="1.720995">
        <ele>1047.4</ele>
        <time>2018-06-11T11:45:43Z</time>
      </trkpt>
      <trkpt lat="42.363852" lon="1.720737">
        <ele>1047.3</ele>
        <time>2018-06-11T11:45:48Z</time>
      </trkpt>
      <trkpt lat="42.363870" lon="1.720515">
        <ele>1046.3</ele>
        <time>2018-06-11T11:45:52Z</time>
      </trkpt>
      <trkpt lat="42.363870" lon="1.720211">
        <ele>1045.6</ele>
        <time>2018-06-11T11:45:58Z</time>
      </trkpt>
      <trkpt lat="42.363852" lon="1.720030">
        <ele>1046.1</ele>
        <time>2018-06-11T11:46:02Z</time>
      </trkpt>
      <trkpt lat="42.363806" lon="1.719811">
        <ele>1047.4</ele>
        <time>2018-06-11T11:46:06Z</time>
      </trkpt>
      <trkpt lat="42.363770" lon="1.719618">
        <ele>1048.5</ele>
        <time>2018-06-11T11:46:10Z</time>
      </trkpt>
      <trkpt lat="42.363671" lon="1.719308">
        <ele>1048.2</ele>
        <time>2018-06-11T11:46:17Z</time>
      </trkpt>
      <trkpt lat="42.363564" lon="1.718975">
        <ele>1050.3</ele>
        <time>2018-06-11T11:46:24Z</time>
      </trkpt>
      <trkpt lat="42.363483" lon="1.718726">
        <ele>1051.6</ele>
        <time>2018-06-11T11:46:29Z</time>
      </trkpt>
      <trkpt lat="42.363402" lon="1.718461">
        <ele>1050.7</ele>
        <time>2018-06-11T11:46:35Z</time>
      </trkpt>
      <trkpt lat="42.363357" lon="1.718292">
        <ele>1050.5</ele>
        <time>2018-06-11T11:46:39Z</time>
      </trkpt>
      <trkpt lat="42.363319" lon="1.717893">
        <ele>1048.5</ele>
        <time>2018-06-11T11:46:46Z</time>
      </trkpt>
      <trkpt lat="42.363307" lon="1.717523">
        <ele>1043.4</ele>
        <time>2018-06-11T11:46:54Z</time>
      </trkpt>
      <trkpt lat="42.363305" lon="1.717254">
        <ele>1039.1</ele>
        <time>2018-06-11T11:46:59Z</time>
      </trkpt>
      <trkpt lat="42.363303" lon="1.717012">
        <ele>1035.6</ele>
        <time>2018-06-11T11:47:04Z</time>
      </trkpt>
      <trkpt lat="42.363311" lon="1.716858">
        <ele>1033.3</ele>
        <time>2018-06-11T11:47:07Z</time>
      </trkpt>
      <trkpt lat="42.363354" lon="1.716489">
        <ele>1030.3</ele>
        <time>2018-06-11T11:47:14Z</time>
      </trkpt>
      <trkpt lat="42.363352" lon="1.716318">
        <ele>1030.1</ele>
        <time>2018-06-11T11:47:18Z</time>
      </trkpt>
      <trkpt lat="42.363315" lon="1.716081">
        <ele>1029.1</ele>
        <time>2018-06-11T11:47:22Z</time>
      </trkpt>
      <trkpt lat="42.363277" lon="1.715807">
        <ele>1024.6</ele>
        <time>2018-06-11T11:47:28Z</time>
      </trkpt>
      <trkpt lat="42.363267" lon="1.715516">
        <ele>1016.6</ele>
        <time>2018-06-11T11:47:34Z</time>
      </trkpt>
      <trkpt lat="42.363264" lon="1.715328">
        <ele>1011.1</ele>
        <time>2018-06-11T11:47:38Z</time>
      </trkpt>
      <trkpt lat="42.363255" lon="1.715204">
        <ele>1007.7</ele>
        <time>2018-06-11T11:47:41Z</time>
      </trkpt>
      <trkpt lat="42.363250" lon="1.715140">
        <ele>1006.0</ele>
        <time>2018-06-11T11:47:42Z</time>
      </trkpt>
      <trkpt lat="42.363227" lon="1.715077">
        <ele>1004.9</ele>
        <time>2018-06-11T11:47:43Z</time>
      </trkpt>
      <trkpt lat="42.363185" lon="1.715038">
        <ele>1004.1</ele>
        <time>2018-06-11T11:47:45Z</time>
      </trkpt>
      <trkpt lat="42.363111" lon="1.715036">
        <ele>1003.3</ele>
        <time>2018-06-11T11:47:47Z</time>
      </trkpt>
      <trkpt lat="42.362969" lon="1.715098">
        <ele>1003.4</ele>
        <time>2018-06-11T11:47:51Z</time>
      </trkpt>
      <trkpt lat="42.362867" lon="1.715147">
        <ele>1004.1</ele>
        <time>2018-06-11T11:47:53Z</time>
      </trkpt>
      <trkpt lat="42.362802" lon="1.715185">
        <ele>1005.0</ele>
        <time>2018-06-11T11:47:55Z</time>
      </trkpt>
      <trkpt lat="42.362754" lon="1.715206">
        <ele>1005.4</ele>
        <time>2018-06-11T11:47:57Z</time>
      </trkpt>
      <trkpt lat="42.362712" lon="1.715216">
        <ele>1005.6</ele>
        <time>2018-06-11T11:47:58Z</time>
      </trkpt>
      <trkpt lat="42.362676" lon="1.715219">
        <ele>1005.5</ele>
        <time>2018-06-11T11:47:59Z</time>
      </trkpt>
      <trkpt lat="42.362645" lon="1.715201">
        <ele>1004.8</ele>
        <time>2018-06-11T11:48:00Z</time>
      </trkpt>
      <trkpt lat="42.362616" lon="1.715176">
        <ele>1003.8</ele>
        <time>2018-06-11T11:48:01Z</time>
      </trkpt>
      <trkpt lat="42.362607" lon="1.715140">
        <ele>1002.7</ele>
        <time>2018-06-11T11:48:01Z</time>
      </trkpt>
      <trkpt lat="42.362606" lon="1.715093">
        <ele>1001.3</ele>
        <time>2018-06-11T11:48:02Z</time>
      </trkpt>
      <trkpt lat="42.362619" lon="1.715052">
        <ele>1000.1</ele>
        <time>2018-06-11T11:48:03Z</time>
      </trkpt>
      <trkpt lat="42.362639" lon="1.715034">
        <ele>999.6</ele>
        <time>2018-06-11T11:48:04Z</time>
      </trkpt>
      <trkpt lat="42.362673" lon="1.715001">
        <ele>998.8</ele>
        <time>2018-06-11T11:48:05Z</time>
      </trkpt>
      <trkpt lat="42.362806" lon="1.714954">
        <ele>998.4</ele>
        <time>2018-06-11T11:48:09Z</time>
      </trkpt>
      <trkpt lat="42.362979" lon="1.714879">
        <ele>998.3</ele>
        <time>2018-06-11T11:48:13Z</time>
      </trkpt>
      <trkpt lat="42.363059" lon="1.714838">
        <ele>998.5</ele>
        <time>2018-06-11T11:48:16Z</time>
      </trkpt>
      <trkpt lat="42.363136" lon="1.714783">
        <ele>998.8</ele>
        <time>2018-06-11T11:48:18Z</time>
      </trkpt>
      <trkpt lat="42.363201" lon="1.714730">
        <ele>999.1</ele>
        <time>2018-06-11T11:48:20Z</time>
      </trkpt>
      <trkpt lat="42.363247" lon="1.714674">
        <ele>998.5</ele>
        <time>2018-06-11T11:48:22Z</time>
      </trkpt>
      <trkpt lat="42.363306" lon="1.714589">
        <ele>997.9</ele>
        <time>2018-06-11T11:48:24Z</time>
      </trkpt>
      <trkpt lat="42.363337" lon="1.714535">
        <ele>997.5</ele>
        <time>2018-06-11T11:48:25Z</time>
      </trkpt>
      <trkpt lat="42.363376" lon="1.714439">
        <ele>997.2</ele>
        <time>2018-06-11T11:48:27Z</time>
      </trkpt>
      <trkpt lat="42.363407" lon="1.714334">
        <ele>997.3</ele>
        <time>2018-06-11T11:48:30Z</time>
      </trkpt>
      <trkpt lat="42.363440" lon="1.714249">
        <ele>997.6</ele>
        <time>2018-06-11T11:48:32Z</time>
      </trkpt>
      <trkpt lat="42.363489" lon="1.714167">
        <ele>998.0</ele>
        <time>2018-06-11T11:48:34Z</time>
      </trkpt>
      <trkpt lat="42.363509" lon="1.714120">
        <ele>997.8</ele>
        <time>2018-06-11T11:48:35Z</time>
      </trkpt>
      <trkpt lat="42.363522" lon="1.714054">
        <ele>997.5</ele>
        <time>2018-06-11T11:48:36Z</time>
      </trkpt>
      <trkpt lat="42.363540" lon="1.713960">
        <ele>996.6</ele>
        <time>2018-06-11T11:48:38Z</time>
      </trkpt>
      <trkpt lat="42.363580" lon="1.713748">
        <ele>994.5</ele>
        <time>2018-06-11T11:48:42Z</time>
      </trkpt>
      <trkpt lat="42.363607" lon="1.713668">
        <ele>993.5</ele>
        <time>2018-06-11T11:48:44Z</time>
      </trkpt>
      <trkpt lat="42.363639" lon="1.713599">
        <ele>992.7</ele>
        <time>2018-06-11T11:48:46Z</time>
      </trkpt>
      <trkpt lat="42.363715" lon="1.713452">
        <ele>991.1</ele>
        <time>2018-06-11T11:48:49Z</time>
      </trkpt>
      <trkpt lat="42.363803" lon="1.713261">
        <ele>987.5</ele>
        <time>2018-06-11T11:48:54Z</time>
      </trkpt>
      <trkpt lat="42.363877" lon="1.713069">
        <ele>983.7</ele>
        <time>2018-06-11T11:48:58Z</time>
      </trkpt>
      <trkpt lat="42.364021" lon="1.712643">
        <ele>979.0</ele>
        <time>2018-06-11T11:49:07Z</time>
      </trkpt>
      <trkpt lat="42.364061" lon="1.712455">
        <ele>977.0</ele>
        <time>2018-06-11T11:49:11Z</time>
      </trkpt>
      <trkpt lat="42.364134" lon="1.712232">
        <ele>975.2</ele>
        <time>2018-06-11T11:49:16Z</time>
      </trkpt>
      <trkpt lat="42.364176" lon="1.712110">
        <ele>974.7</ele>
        <time>2018-06-11T11:49:18Z</time>
      </trkpt>
      <trkpt lat="42.364209" lon="1.712042">
        <ele>974.5</ele>
        <time>2018-06-11T11:49:20Z</time>
      </trkpt>
      <trkpt lat="42.364229" lon="1.712022">
        <ele>974.5</ele>
        <time>2018-06-11T11:49:21Z</time>
      </trkpt>
      <trkpt lat="42.364252" lon="1.712004">
        <ele>974.5</ele>
        <time>2018-06-11T11:49:21Z</time>
      </trkpt>
      <trkpt lat="42.364278" lon="1.711981">
        <ele>974.5</ele>
        <time>2018-06-11T11:49:22Z</time>
      </trkpt>
      <trkpt lat="42.364288" lon="1.711958">
        <ele>974.5</ele>
        <time>2018-06-11T11:49:23Z</time>
      </trkpt>
      <trkpt lat="42.364287" lon="1.711926">
        <ele>974.4</ele>
        <time>2018-06-11T11:49:23Z</time>
      </trkpt>
      <trkpt lat="42.364274" lon="1.711885">
        <ele>974.2</ele>
        <time>2018-06-11T11:49:24Z</time>
      </trkpt>
      <trkpt lat="42.364256" lon="1.711841">
        <ele>974.0</ele>
        <time>2018-06-11T11:49:25Z</time>
      </trkpt>
      <trkpt lat="42.364239" lon="1.711801">
        <ele>973.7</ele>
        <time>2018-06-11T11:49:26Z</time>
      </trkpt>
      <trkpt lat="42.364173" lon="1.711667">
        <ele>973.3</ele>
        <time>2018-06-11T11:49:29Z</time>
      </trkpt>
      <trkpt lat="42.364094" lon="1.711473">
        <ele>973.6</ele>
        <time>2018-06-11T11:49:34Z</time>
      </trkpt>
      <trkpt lat="42.364016" lon="1.711286">
        <ele>976.0</ele>
        <time>2018-06-11T11:49:38Z</time>
      </trkpt>
      <trkpt lat="42.363986" lon="1.711189">
        <ele>977.3</ele>
        <time>2018-06-11T11:49:40Z</time>
      </trkpt>
      <trkpt lat="42.363995" lon="1.711142">
        <ele>977.1</ele>
        <time>2018-06-11T11:49:41Z</time>
      </trkpt>
      <trkpt lat="42.364005" lon="1.711015">
        <ele>977.2</ele>
        <time>2018-06-11T11:49:43Z</time>
      </trkpt>
      <trkpt lat="42.363960" lon="1.710842">
        <ele>976.8</ele>
        <time>2018-06-11T11:49:47Z</time>
      </trkpt>
      <trkpt lat="42.363922" lon="1.710792">
        <ele>976.7</ele>
        <time>2018-06-11T11:49:48Z</time>
      </trkpt>
      <trkpt lat="42.363877" lon="1.710781">
        <ele>977.0</ele>
        <time>2018-06-11T11:49:50Z</time>
      </trkpt>
      <trkpt lat="42.363739" lon="1.711012">
        <ele>981.7</ele>
        <time>2018-06-11T11:49:56Z</time>
      </trkpt>
      <trkpt lat="42.363728" lon="1.710995">
        <ele>981.9</ele>
        <time>2018-06-11T11:49:56Z</time>
      </trkpt>
      <trkpt lat="42.363720" lon="1.710936">
        <ele>981.3</ele>
        <time>2018-06-11T11:49:57Z</time>
      </trkpt>
      <trkpt lat="42.363701" lon="1.710828">
        <ele>980.4</ele>
        <time>2018-06-11T11:49:59Z</time>
      </trkpt>
      <trkpt lat="42.363670" lon="1.710638">
        <ele>979.1</ele>
        <time>2018-06-11T11:50:03Z</time>
      </trkpt>
      <trkpt lat="42.363491" lon="1.710214">
        <ele>981.0</ele>
        <time>2018-06-11T11:50:13Z</time>
      </trkpt>
      <trkpt lat="42.363342" lon="1.709928">
        <ele>982.7</ele>
        <time>2018-06-11T11:50:20Z</time>
      </trkpt>
      <trkpt lat="42.363258" lon="1.709791">
        <ele>983.2</ele>
        <time>2018-06-11T11:50:23Z</time>
      </trkpt>
      <trkpt lat="42.363178" lon="1.709637">
        <ele>983.3</ele>
        <time>2018-06-11T11:50:27Z</time>
      </trkpt>
      <trkpt lat="42.363097" lon="1.709442">
        <ele>984.0</ele>
        <time>2018-06-11T11:50:31Z</time>
      </trkpt>
      <trkpt lat="42.363035" lon="1.709222">
        <ele>982.4</ele>
        <time>2018-06-11T11:50:36Z</time>
      </trkpt>
      <trkpt lat="42.363009" lon="1.709028">
        <ele>979.0</ele>
        <time>2018-06-11T11:50:40Z</time>
      </trkpt>
      <trkpt lat="42.363007" lon="1.708771">
        <ele>975.3</ele>
        <time>2018-06-11T11:50:45Z</time>
      </trkpt>
      <trkpt lat="42.362999" lon="1.708314">
        <ele>974.7</ele>
        <time>2018-06-11T11:50:54Z</time>
      </trkpt>
      <trkpt lat="42.363014" lon="1.707868">
        <ele>974.9</ele>
        <time>2018-06-11T11:51:02Z</time>
      </trkpt>
      <trkpt lat="42.363015" lon="1.707528">
        <ele>973.5</ele>
        <time>2018-06-11T11:51:09Z</time>
      </trkpt>
      <trkpt lat="42.363039" lon="1.707493">
        <ele>972.9</ele>
        <time>2018-06-11T11:51:10Z</time>
      </trkpt>
      <trkpt lat="42.363096" lon="1.707437">
        <ele>971.7</ele>
        <time>2018-06-11T11:51:12Z</time>
      </trkpt>
      <trkpt lat="42.363118" lon="1.707402">
        <ele>971.2</ele>
        <time>2018-06-11T11:51:13Z</time>
      </trkpt>
      <trkpt lat="42.363128" lon="1.707349">
        <ele>970.7</ele>
        <time>2018-06-11T11:51:14Z</time>
      </trkpt>
      <trkpt lat="42.363074" lon="1.707214">
        <ele>970.5</ele>
        <time>2018-06-11T11:51:17Z</time>
      </trkpt>
      <trkpt lat="42.363054" lon="1.707137">
        <ele>970.3</ele>
        <time>2018-06-11T11:51:19Z</time>
      </trkpt>
      <trkpt lat="42.363003" lon="1.707024">
        <ele>969.9</ele>
        <time>2018-06-11T11:51:21Z</time>
      </trkpt>
      <trkpt lat="42.362822" lon="1.706261">
        <ele>964.9</ele>
        <time>2018-06-11T11:51:37Z</time>
      </trkpt>
      <trkpt lat="42.362788" lon="1.706177">
        <ele>964.7</ele>
        <time>2018-06-11T11:51:39Z</time>
      </trkpt>
      <trkpt lat="42.362745" lon="1.706125">
        <ele>964.7</ele>
        <time>2018-06-11T11:51:40Z</time>
      </trkpt>
      <trkpt lat="42.362710" lon="1.706101">
        <ele>964.7</ele>
        <time>2018-06-11T11:51:41Z</time>
      </trkpt>
      <trkpt lat="42.362641" lon="1.706088">
        <ele>965.1</ele>
        <time>2018-06-11T11:51:43Z</time>
      </trkpt>
      <trkpt lat="42.362546" lon="1.706056">
        <ele>966.3</ele>
        <time>2018-06-11T11:51:46Z</time>
      </trkpt>
      <trkpt lat="42.362496" lon="1.706056">
        <ele>967.2</ele>
        <time>2018-06-11T11:51:47Z</time>
      </trkpt>
      <trkpt lat="42.362454" lon="1.706045">
        <ele>967.8</ele>
        <time>2018-06-11T11:51:48Z</time>
      </trkpt>
      <trkpt lat="42.362429" lon="1.706050">
        <ele>968.4</ele>
        <time>2018-06-11T11:51:49Z</time>
      </trkpt>
      <trkpt lat="42.362365" lon="1.706032">
        <ele>969.2</ele>
        <time>2018-06-11T11:51:51Z</time>
      </trkpt>
      <trkpt lat="42.362304" lon="1.706050">
        <ele>970.4</ele>
        <time>2018-06-11T11:51:52Z</time>
      </trkpt>
      <trkpt lat="42.362197" lon="1.706029">
        <ele>971.2</ele>
        <time>2018-06-11T11:51:55Z</time>
      </trkpt>
      <trkpt lat="42.362120" lon="1.705989">
        <ele>971.1</ele>
        <time>2018-06-11T11:51:57Z</time>
      </trkpt>
      <trkpt lat="42.362021" lon="1.705954">
        <ele>970.5</ele>
        <time>2018-06-11T11:52:00Z</time>
      </trkpt>
      <trkpt lat="42.361987" lon="1.705887">
        <ele>969.3</ele>
        <time>2018-06-11T11:52:02Z</time>
      </trkpt>
      <trkpt lat="42.361957" lon="1.705849">
        <ele>968.9</ele>
        <time>2018-06-11T11:52:03Z</time>
      </trkpt>
      <trkpt lat="42.361862" lon="1.705798">
        <ele>968.9</ele>
        <time>2018-06-11T11:52:06Z</time>
      </trkpt>
      <trkpt lat="42.361821" lon="1.705742">
        <ele>969.0</ele>
        <time>2018-06-11T11:52:07Z</time>
      </trkpt>
      <trkpt lat="42.361737" lon="1.705641">
        <ele>970.4</ele>
        <time>2018-06-11T11:52:10Z</time>
      </trkpt>
      <trkpt lat="42.361665" lon="1.705584">
        <ele>971.9</ele>
        <time>2018-06-11T11:52:12Z</time>
      </trkpt>
      <trkpt lat="42.361576" lon="1.705570">
        <ele>973.6</ele>
        <time>2018-06-11T11:52:15Z</time>
      </trkpt>
      <trkpt lat="42.361457" lon="1.705564">
        <ele>975.9</ele>
        <time>2018-06-11T11:52:18Z</time>
      </trkpt>
      <trkpt lat="42.361343" lon="1.705564">
        <ele>978.3</ele>
        <time>2018-06-11T11:52:21Z</time>
      </trkpt>
      <trkpt lat="42.361276" lon="1.705565">
        <ele>979.7</ele>
        <time>2018-06-11T11:52:23Z</time>
      </trkpt>
      <trkpt lat="42.361085" lon="1.705523">
        <ele>979.3</ele>
        <time>2018-06-11T11:52:28Z</time>
      </trkpt>
      <trkpt lat="42.360903" lon="1.705452">
        <ele>978.5</ele>
        <time>2018-06-11T11:52:33Z</time>
      </trkpt>
      <trkpt lat="42.360804" lon="1.705417">
        <ele>978.0</ele>
        <time>2018-06-11T11:52:36Z</time>
      </trkpt>
      <trkpt lat="42.360746" lon="1.705354">
        <ele>977.6</ele>
        <time>2018-06-11T11:52:38Z</time>
      </trkpt>
      <trkpt lat="42.360699" lon="1.705254">
        <ele>976.8</ele>
        <time>2018-06-11T11:52:40Z</time>
      </trkpt>
      <trkpt lat="42.360636" lon="1.705155">
        <ele>975.7</ele>
        <time>2018-06-11T11:52:42Z</time>
      </trkpt>
      <trkpt lat="42.360546" lon="1.705041">
        <ele>973.9</ele>
        <time>2018-06-11T11:52:46Z</time>
      </trkpt>
      <trkpt lat="42.360395" lon="1.704928">
        <ele>971.6</ele>
        <time>2018-06-11T11:52:50Z</time>
      </trkpt>
      <trkpt lat="42.360233" lon="1.704781">
        <ele>970.5</ele>
        <time>2018-06-11T11:52:56Z</time>
      </trkpt>
      <trkpt lat="42.360144" lon="1.704661">
        <ele>969.8</ele>
        <time>2018-06-11T11:52:59Z</time>
      </trkpt>
      <trkpt lat="42.360065" lon="1.704551">
        <ele>971.8</ele>
        <time>2018-06-11T11:53:02Z</time>
      </trkpt>
      <trkpt lat="42.359976" lon="1.704446">
        <ele>974.2</ele>
        <time>2018-06-11T11:53:05Z</time>
      </trkpt>
      <trkpt lat="42.359381" lon="1.704006">
        <ele>982.7</ele>
        <time>2018-06-11T11:53:23Z</time>
      </trkpt>
      <trkpt lat="42.358883" lon="1.703621">
        <ele>976.3</ele>
        <time>2018-06-11T11:53:38Z</time>
      </trkpt>
      <trkpt lat="42.358779" lon="1.703546">
        <ele>973.9</ele>
        <time>2018-06-11T11:53:42Z</time>
      </trkpt>
      <trkpt lat="42.358717" lon="1.703497">
        <ele>973.2</ele>
        <time>2018-06-11T11:53:43Z</time>
      </trkpt>
      <trkpt lat="42.358620" lon="1.703489">
        <ele>973.3</ele>
        <time>2018-06-11T11:53:46Z</time>
      </trkpt>
      <trkpt lat="42.358516" lon="1.703482">
        <ele>973.2</ele>
        <time>2018-06-11T11:53:49Z</time>
      </trkpt>
      <trkpt lat="42.358431" lon="1.703466">
        <ele>974.0</ele>
        <time>2018-06-11T11:53:51Z</time>
      </trkpt>
      <trkpt lat="42.358383" lon="1.703434">
        <ele>974.6</ele>
        <time>2018-06-11T11:53:53Z</time>
      </trkpt>
      <trkpt lat="42.358329" lon="1.703353">
        <ele>974.2</ele>
        <time>2018-06-11T11:53:55Z</time>
      </trkpt>
      <trkpt lat="42.358182" lon="1.703095">
        <ele>971.2</ele>
        <time>2018-06-11T11:54:01Z</time>
      </trkpt>
      <trkpt lat="42.358112" lon="1.702910">
        <ele>971.5</ele>
        <time>2018-06-11T11:54:05Z</time>
      </trkpt>
      <trkpt lat="42.358070" lon="1.702730">
        <ele>972.4</ele>
        <time>2018-06-11T11:54:09Z</time>
      </trkpt>
      <trkpt lat="42.358040" lon="1.702575">
        <ele>972.6</ele>
        <time>2018-06-11T11:54:12Z</time>
      </trkpt>
      <trkpt lat="42.358001" lon="1.702327">
        <ele>971.6</ele>
        <time>2018-06-11T11:54:17Z</time>
      </trkpt>
      <trkpt lat="42.357979" lon="1.701941">
        <ele>969.6</ele>
        <time>2018-06-11T11:54:25Z</time>
      </trkpt>
      <trkpt lat="42.357997" lon="1.701404">
        <ele>971.9</ele>
        <time>2018-06-11T11:54:35Z</time>
      </trkpt>
      <trkpt lat="42.358046" lon="1.701073">
        <ele>974.0</ele>
        <time>2018-06-11T11:54:42Z</time>
      </trkpt>
      <trkpt lat="42.358173" lon="1.700670">
        <ele>970.7</ele>
        <time>2018-06-11T11:54:50Z</time>
      </trkpt>
      <trkpt lat="42.358306" lon="1.700198">
        <ele>966.2</ele>
        <time>2018-06-11T11:55:00Z</time>
      </trkpt>
      <trkpt lat="42.358426" lon="1.699929">
        <ele>958.9</ele>
        <time>2018-06-11T11:55:07Z</time>
      </trkpt>
      <trkpt lat="42.358500" lon="1.699807">
        <ele>956.0</ele>
        <time>2018-06-11T11:55:10Z</time>
      </trkpt>
      <trkpt lat="42.358597" lon="1.699685">
        <ele>956.3</ele>
        <time>2018-06-11T11:55:13Z</time>
      </trkpt>
      <trkpt lat="42.358621" lon="1.699640">
        <ele>956.3</ele>
        <time>2018-06-11T11:55:14Z</time>
      </trkpt>
      <trkpt lat="42.358762" lon="1.699325">
        <ele>955.2</ele>
        <time>2018-06-11T11:55:22Z</time>
      </trkpt>
      <trkpt lat="42.359169" lon="1.698429">
        <ele>956.0</ele>
        <time>2018-06-11T11:55:42Z</time>
      </trkpt>
      <trkpt lat="42.359216" lon="1.698297">
        <ele>956.5</ele>
        <time>2018-06-11T11:55:45Z</time>
      </trkpt>
      <trkpt lat="42.359316" lon="1.698014">
        <ele>955.7</ele>
        <time>2018-06-11T11:55:51Z</time>
      </trkpt>
      <trkpt lat="42.359434" lon="1.697662">
        <ele>955.0</ele>
        <time>2018-06-11T11:55:59Z</time>
      </trkpt>
      <trkpt lat="42.359468" lon="1.697547">
        <ele>955.3</ele>
        <time>2018-06-11T11:56:01Z</time>
      </trkpt>
      <trkpt lat="42.359493" lon="1.697433">
        <ele>955.6</ele>
        <time>2018-06-11T11:56:04Z</time>
      </trkpt>
      <trkpt lat="42.359497" lon="1.697307">
        <ele>955.9</ele>
        <time>2018-06-11T11:56:06Z</time>
      </trkpt>
      <trkpt lat="42.359484" lon="1.697066">
        <ele>957.0</ele>
        <time>2018-06-11T11:56:11Z</time>
      </trkpt>
      <trkpt lat="42.359471" lon="1.696957">
        <ele>957.0</ele>
        <time>2018-06-11T11:56:13Z</time>
      </trkpt>
      <trkpt lat="42.359442" lon="1.696870">
        <ele>957.0</ele>
        <time>2018-06-11T11:56:15Z</time>
      </trkpt>
      <trkpt lat="42.359382" lon="1.696807">
        <ele>957.0</ele>
        <time>2018-06-11T11:56:17Z</time>
      </trkpt>
      <trkpt lat="42.359183" lon="1.696614">
        <ele>959.8</ele>
        <time>2018-06-11T11:56:23Z</time>
      </trkpt>
      <trkpt lat="42.359112" lon="1.696538">
        <ele>961.0</ele>
        <time>2018-06-11T11:56:26Z</time>
      </trkpt>
      <trkpt lat="42.358928" lon="1.696302">
        <ele>961.8</ele>
        <time>2018-06-11T11:56:32Z</time>
      </trkpt>
      <trkpt lat="42.358687" lon="1.695995">
        <ele>964.2</ele>
        <time>2018-06-11T11:56:41Z</time>
      </trkpt>
      <trkpt lat="42.358533" lon="1.695811">
        <ele>965.7</ele>
        <time>2018-06-11T11:56:47Z</time>
      </trkpt>
      <trkpt lat="42.358261" lon="1.695483">
        <ele>968.8</ele>
        <time>2018-06-11T11:56:56Z</time>
      </trkpt>
      <trkpt lat="42.358174" lon="1.695366">
        <ele>968.8</ele>
        <time>2018-06-11T11:57:00Z</time>
      </trkpt>
      <trkpt lat="42.358088" lon="1.695216">
        <ele>968.4</ele>
        <time>2018-06-11T11:57:03Z</time>
      </trkpt>
      <trkpt lat="42.358038" lon="1.695098">
        <ele>967.7</ele>
        <time>2018-06-11T11:57:06Z</time>
      </trkpt>
      <trkpt lat="42.357981" lon="1.694919">
        <ele>966.3</ele>
        <time>2018-06-11T11:57:10Z</time>
      </trkpt>
      <trkpt lat="42.357903" lon="1.694616">
        <ele>964.8</ele>
        <time>2018-06-11T11:57:16Z</time>
      </trkpt>
      <trkpt lat="42.357842" lon="1.694309">
        <ele>967.0</ele>
        <time>2018-06-11T11:57:22Z</time>
      </trkpt>
      <trkpt lat="42.357827" lon="1.694101">
        <ele>967.3</ele>
        <time>2018-06-11T11:57:26Z</time>
      </trkpt>
      <trkpt lat="42.357823" lon="1.693925">
        <ele>966.5</ele>
        <time>2018-06-11T11:57:30Z</time>
      </trkpt>
      <trkpt lat="42.357827" lon="1.693713">
        <ele>965.0</ele>
        <time>2018-06-11T11:57:34Z</time>
      </trkpt>
      <trkpt lat="42.357839" lon="1.693595">
        <ele>964.9</ele>
        <time>2018-06-11T11:57:36Z</time>
      </trkpt>
      <trkpt lat="42.357856" lon="1.693502">
        <ele>964.3</ele>
        <time>2018-06-11T11:57:38Z</time>
      </trkpt>
      <trkpt lat="42.357893" lon="1.693390">
        <ele>963.9</ele>
        <time>2018-06-11T11:57:41Z</time>
      </trkpt>
      <trkpt lat="42.357995" lon="1.693210">
        <ele>963.7</ele>
        <time>2018-06-11T11:57:45Z</time>
      </trkpt>
      <trkpt lat="42.358102" lon="1.693051">
        <ele>961.9</ele>
        <time>2018-06-11T11:57:49Z</time>
      </trkpt>
      <trkpt lat="42.358263" lon="1.692845">
        <ele>960.6</ele>
        <time>2018-06-11T11:57:55Z</time>
      </trkpt>
      <trkpt lat="42.358351" lon="1.692716">
        <ele>960.4</ele>
        <time>2018-06-11T11:57:59Z</time>
      </trkpt>
      <trkpt lat="42.358404" lon="1.692652">
        <ele>959.1</ele>
        <time>2018-06-11T11:58:00Z</time>
      </trkpt>
      <trkpt lat="42.358450" lon="1.692618">
        <ele>957.8</ele>
        <time>2018-06-11T11:58:02Z</time>
      </trkpt>
      <trkpt lat="42.358512" lon="1.692592">
        <ele>957.5</ele>
        <time>2018-06-11T11:58:04Z</time>
      </trkpt>
      <trkpt lat="42.358554" lon="1.692586">
        <ele>957.4</ele>
        <time>2018-06-11T11:58:05Z</time>
      </trkpt>
      <trkpt lat="42.358588" lon="1.692556">
        <ele>957.9</ele>
        <time>2018-06-11T11:58:06Z</time>
      </trkpt>
      <trkpt lat="42.358613" lon="1.692520">
        <ele>958.3</ele>
        <time>2018-06-11T11:58:07Z</time>
      </trkpt>
      <trkpt lat="42.358630" lon="1.692471">
        <ele>958.9</ele>
        <time>2018-06-11T11:58:08Z</time>
      </trkpt>
      <trkpt lat="42.358638" lon="1.692417">
        <ele>959.7</ele>
        <time>2018-06-11T11:58:09Z</time>
      </trkpt>
      <trkpt lat="42.358655" lon="1.692315">
        <ele>961.3</ele>
        <time>2018-06-11T11:58:11Z</time>
      </trkpt>
      <trkpt lat="42.358676" lon="1.692210">
        <ele>963.0</ele>
        <time>2018-06-11T11:58:13Z</time>
      </trkpt>
      <trkpt lat="42.358706" lon="1.692141">
        <ele>962.8</ele>
        <time>2018-06-11T11:58:15Z</time>
      </trkpt>
      <trkpt lat="42.358856" lon="1.691847">
        <ele>962.0</ele>
        <time>2018-06-11T11:58:22Z</time>
      </trkpt>
      <trkpt lat="42.358951" lon="1.691635">
        <ele>961.1</ele>
        <time>2018-06-11T11:58:27Z</time>
      </trkpt>
      <trkpt lat="42.359080" lon="1.691263">
        <ele>959.8</ele>
        <time>2018-06-11T11:58:35Z</time>
      </trkpt>
      <trkpt lat="42.359225" lon="1.690807">
        <ele>964.1</ele>
        <time>2018-06-11T11:58:44Z</time>
      </trkpt>
      <trkpt lat="42.359418" lon="1.690032">
        <ele>967.1</ele>
        <time>2018-06-11T11:59:00Z</time>
      </trkpt>
      <trkpt lat="42.359456" lon="1.689860">
        <ele>966.5</ele>
        <time>2018-06-11T11:59:04Z</time>
      </trkpt>
      <trkpt lat="42.359476" lon="1.689751">
        <ele>966.2</ele>
        <time>2018-06-11T11:59:06Z</time>
      </trkpt>
      <trkpt lat="42.359476" lon="1.689673">
        <ele>966.6</ele>
        <time>2018-06-11T11:59:08Z</time>
      </trkpt>
      <trkpt lat="42.359456" lon="1.689557">
        <ele>967.9</ele>
        <time>2018-06-11T11:59:10Z</time>
      </trkpt>
      <trkpt lat="42.359432" lon="1.689441">
        <ele>969.1</ele>
        <time>2018-06-11T11:59:12Z</time>
      </trkpt>
      <trkpt lat="42.359398" lon="1.689276">
        <ele>970.8</ele>
        <time>2018-06-11T11:59:16Z</time>
      </trkpt>
      <trkpt lat="42.359331" lon="1.688982">
        <ele>972.4</ele>
        <time>2018-06-11T11:59:22Z</time>
      </trkpt>
      <trkpt lat="42.359281" lon="1.688734">
        <ele>970.0</ele>
        <time>2018-06-11T11:59:27Z</time>
      </trkpt>
      <trkpt lat="42.359244" lon="1.688562">
        <ele>968.0</ele>
        <time>2018-06-11T11:59:30Z</time>
      </trkpt>
      <trkpt lat="42.359212" lon="1.688455">
        <ele>966.8</ele>
        <time>2018-06-11T11:59:33Z</time>
      </trkpt>
      <trkpt lat="42.359163" lon="1.688350">
        <ele>965.7</ele>
        <time>2018-06-11T11:59:35Z</time>
      </trkpt>
      <trkpt lat="42.359074" lon="1.688141">
        <ele>963.0</ele>
        <time>2018-06-11T11:59:40Z</time>
      </trkpt>
      <trkpt lat="42.358965" lon="1.687878">
        <ele>962.7</ele>
        <time>2018-06-11T11:59:46Z</time>
      </trkpt>
      <trkpt lat="42.358926" lon="1.687808">
        <ele>963.9</ele>
        <time>2018-06-11T11:59:48Z</time>
      </trkpt>
      <trkpt lat="42.358855" lon="1.687759">
        <ele>966.4</ele>
        <time>2018-06-11T11:59:50Z</time>
      </trkpt>
      <trkpt lat="42.358752" lon="1.687683">
        <ele>968.5</ele>
        <time>2018-06-11T11:59:53Z</time>
      </trkpt>
      <trkpt lat="42.358512" lon="1.687577">
        <ele>973.9</ele>
        <time>2018-06-11T12:00:00Z</time>
      </trkpt>
      <trkpt lat="42.358421" lon="1.687496">
        <ele>973.4</ele>
        <time>2018-06-11T12:00:03Z</time>
      </trkpt>
      <trkpt lat="42.358307" lon="1.687387">
        <ele>971.9</ele>
        <time>2018-06-11T12:00:06Z</time>
      </trkpt>
      <trkpt lat="42.358167" lon="1.687219">
        <ele>968.4</ele>
        <time>2018-06-11T12:00:11Z</time>
      </trkpt>
      <trkpt lat="42.357942" lon="1.686993">
        <ele>966.3</ele>
        <time>2018-06-11T12:00:19Z</time>
      </trkpt>
      <trkpt lat="42.357700" lon="1.686754">
        <ele>966.6</ele>
        <time>2018-06-11T12:00:27Z</time>
      </trkpt>
      <trkpt lat="42.357487" lon="1.686527">
        <ele>965.2</ele>
        <time>2018-06-11T12:00:34Z</time>
      </trkpt>
      <trkpt lat="42.357343" lon="1.686331">
        <ele>961.7</ele>
        <time>2018-06-11T12:00:39Z</time>
      </trkpt>
      <trkpt lat="42.357266" lon="1.686167">
        <ele>956.7</ele>
        <time>2018-06-11T12:00:43Z</time>
      </trkpt>
      <trkpt lat="42.357234" lon="1.685987">
        <ele>951.0</ele>
        <time>2018-06-11T12:00:47Z</time>
      </trkpt>
      <trkpt lat="42.357218" lon="1.685777">
        <ele>948.7</ele>
        <time>2018-06-11T12:00:51Z</time>
      </trkpt>
      <trkpt lat="42.357217" lon="1.685640">
        <ele>948.0</ele>
        <time>2018-06-11T12:00:54Z</time>
      </trkpt>
      <trkpt lat="42.357194" lon="1.685526">
        <ele>947.7</ele>
        <time>2018-06-11T12:00:56Z</time>
      </trkpt>
      <trkpt lat="42.357155" lon="1.685443">
        <ele>947.1</ele>
        <time>2018-06-11T12:00:58Z</time>
      </trkpt>
      <trkpt lat="42.357071" lon="1.685381">
        <ele>946.3</ele>
        <time>2018-06-11T12:01:01Z</time>
      </trkpt>
      <trkpt lat="42.356999" lon="1.685328">
        <ele>947.3</ele>
        <time>2018-06-11T12:01:03Z</time>
      </trkpt>
      <trkpt lat="42.356911" lon="1.685284">
        <ele>948.5</ele>
        <time>2018-06-11T12:01:06Z</time>
      </trkpt>
      <trkpt lat="42.356844" lon="1.685263">
        <ele>949.3</ele>
        <time>2018-06-11T12:01:07Z</time>
      </trkpt>
      <trkpt lat="42.356786" lon="1.685255">
        <ele>949.8</ele>
        <time>2018-06-11T12:01:09Z</time>
      </trkpt>
      <trkpt lat="42.356745" lon="1.685253">
        <ele>950.0</ele>
        <time>2018-06-11T12:01:10Z</time>
      </trkpt>
      <trkpt lat="42.356715" lon="1.685237">
        <ele>950.3</ele>
        <time>2018-06-11T12:01:11Z</time>
      </trkpt>
      <trkpt lat="42.356699" lon="1.685187">
        <ele>950.9</ele>
        <time>2018-06-11T12:01:12Z</time>
      </trkpt>
      <trkpt lat="42.356695" lon="1.685127">
        <ele>951.4</ele>
        <time>2018-06-11T12:01:13Z</time>
      </trkpt>
      <trkpt lat="42.356707" lon="1.685032">
        <ele>951.7</ele>
        <time>2018-06-11T12:01:15Z</time>
      </trkpt>
      <trkpt lat="42.356726" lon="1.684918">
        <ele>952.1</ele>
        <time>2018-06-11T12:01:17Z</time>
      </trkpt>
      <trkpt lat="42.356739" lon="1.684735">
        <ele>952.6</ele>
        <time>2018-06-11T12:01:21Z</time>
      </trkpt>
      <trkpt lat="42.356736" lon="1.684472">
        <ele>953.4</ele>
        <time>2018-06-11T12:01:26Z</time>
      </trkpt>
      <trkpt lat="42.356749" lon="1.684392">
        <ele>953.7</ele>
        <time>2018-06-11T12:01:28Z</time>
      </trkpt>
      <trkpt lat="42.356779" lon="1.684318">
        <ele>954.0</ele>
        <time>2018-06-11T12:01:29Z</time>
      </trkpt>
      <trkpt lat="42.356822" lon="1.684261">
        <ele>953.8</ele>
        <time>2018-06-11T12:01:31Z</time>
      </trkpt>
      <trkpt lat="42.356889" lon="1.684191">
        <ele>952.8</ele>
        <time>2018-06-11T12:01:33Z</time>
      </trkpt>
      <trkpt lat="42.356922" lon="1.684140">
        <ele>952.3</ele>
        <time>2018-06-11T12:01:34Z</time>
      </trkpt>
      <trkpt lat="42.357050" lon="1.683852">
        <ele>952.4</ele>
        <time>2018-06-11T12:01:41Z</time>
      </trkpt>
      <trkpt lat="42.357251" lon="1.683414">
        <ele>949.0</ele>
        <time>2018-06-11T12:01:51Z</time>
      </trkpt>
      <trkpt lat="42.357321" lon="1.683220">
        <ele>946.9</ele>
        <time>2018-06-11T12:01:55Z</time>
      </trkpt>
      <trkpt lat="42.357373" lon="1.683074">
        <ele>946.8</ele>
        <time>2018-06-11T12:01:59Z</time>
      </trkpt>
      <trkpt lat="42.357426" lon="1.682921">
        <ele>947.3</ele>
        <time>2018-06-11T12:02:02Z</time>
      </trkpt>
      <trkpt lat="42.357497" lon="1.682670">
        <ele>946.5</ele>
        <time>2018-06-11T12:02:07Z</time>
      </trkpt>
      <trkpt lat="42.357628" lon="1.682151">
        <ele>946.8</ele>
        <time>2018-06-11T12:02:18Z</time>
      </trkpt>
      <trkpt lat="42.357717" lon="1.681929">
        <ele>947.0</ele>
        <time>2018-06-11T12:02:23Z</time>
      </trkpt>
      <trkpt lat="42.357783" lon="1.681795">
        <ele>947.5</ele>
        <time>2018-06-11T12:02:26Z</time>
      </trkpt>
      <trkpt lat="42.357918" lon="1.681599">
        <ele>947.0</ele>
        <time>2018-06-11T12:02:31Z</time>
      </trkpt>
      <trkpt lat="42.358125" lon="1.681351">
        <ele>945.1</ele>
        <time>2018-06-11T12:02:39Z</time>
      </trkpt>
      <trkpt lat="42.358347" lon="1.681092">
        <ele>945.6</ele>
        <time>2018-06-11T12:02:46Z</time>
      </trkpt>
      <trkpt lat="42.358405" lon="1.681011">
        <ele>946.0</ele>
        <time>2018-06-11T12:02:49Z</time>
      </trkpt>
      <trkpt lat="42.358449" lon="1.680921">
        <ele>946.3</ele>
        <time>2018-06-11T12:02:51Z</time>
      </trkpt>
      <trkpt lat="42.358489" lon="1.680805">
        <ele>946.5</ele>
        <time>2018-06-11T12:02:53Z</time>
      </trkpt>
      <trkpt lat="42.358555" lon="1.680568">
        <ele>946.8</ele>
        <time>2018-06-11T12:02:58Z</time>
      </trkpt>
      <trkpt lat="42.358609" lon="1.680450">
        <ele>946.9</ele>
        <time>2018-06-11T12:03:01Z</time>
      </trkpt>
      <trkpt lat="42.358650" lon="1.680332">
        <ele>947.8</ele>
        <time>2018-06-11T12:03:03Z</time>
      </trkpt>
      <trkpt lat="42.358710" lon="1.680228">
        <ele>948.6</ele>
        <time>2018-06-11T12:03:06Z</time>
      </trkpt>
      <trkpt lat="42.358772" lon="1.680178">
        <ele>948.7</ele>
        <time>2018-06-11T12:03:08Z</time>
      </trkpt>
      <trkpt lat="42.358830" lon="1.680134">
        <ele>949.1</ele>
        <time>2018-06-11T12:03:10Z</time>
      </trkpt>
      <trkpt lat="42.359045" lon="1.680073">
        <ele>949.5</ele>
        <time>2018-06-11T12:03:15Z</time>
      </trkpt>
      <trkpt lat="42.359253" lon="1.680030">
        <ele>945.2</ele>
        <time>2018-06-11T12:03:21Z</time>
      </trkpt>
      <trkpt lat="42.359322" lon="1.680002">
        <ele>944.3</ele>
        <time>2018-06-11T12:03:23Z</time>
      </trkpt>
      <trkpt lat="42.359425" lon="1.679969">
        <ele>943.5</ele>
        <time>2018-06-11T12:03:26Z</time>
      </trkpt>
      <trkpt lat="42.359570" lon="1.679913">
        <ele>942.4</ele>
        <time>2018-06-11T12:03:30Z</time>
      </trkpt>
      <trkpt lat="42.359685" lon="1.679825">
        <ele>942.6</ele>
        <time>2018-06-11T12:03:33Z</time>
      </trkpt>
      <trkpt lat="42.359802" lon="1.679739">
        <ele>943.1</ele>
        <time>2018-06-11T12:03:37Z</time>
      </trkpt>
      <trkpt lat="42.359991" lon="1.679619">
        <ele>943.8</ele>
        <time>2018-06-11T12:03:42Z</time>
      </trkpt>
      <trkpt lat="42.360077" lon="1.679598">
        <ele>943.4</ele>
        <time>2018-06-11T12:03:45Z</time>
      </trkpt>
      <trkpt lat="42.360168" lon="1.679583">
        <ele>942.7</ele>
        <time>2018-06-11T12:03:47Z</time>
      </trkpt>
      <trkpt lat="42.360307" lon="1.679579">
        <ele>941.3</ele>
        <time>2018-06-11T12:03:51Z</time>
      </trkpt>
      <trkpt lat="42.360519" lon="1.679572">
        <ele>938.9</ele>
        <time>2018-06-11T12:03:56Z</time>
      </trkpt>
      <trkpt lat="42.360813" lon="1.679568">
        <ele>939.2</ele>
        <time>2018-06-11T12:04:04Z</time>
      </trkpt>
      <trkpt lat="42.360937" lon="1.679544">
        <ele>942.4</ele>
        <time>2018-06-11T12:04:08Z</time>
      </trkpt>
      <trkpt lat="42.361151" lon="1.679550">
        <ele>943.3</ele>
        <time>2018-06-11T12:04:13Z</time>
      </trkpt>
      <trkpt lat="42.361285" lon="1.679573">
        <ele>942.7</ele>
        <time>2018-06-11T12:04:17Z</time>
      </trkpt>
      <trkpt lat="42.361431" lon="1.679648">
        <ele>939.5</ele>
        <time>2018-06-11T12:04:21Z</time>
      </trkpt>
      <trkpt lat="42.361626" lon="1.679729">
        <ele>936.6</ele>
        <time>2018-06-11T12:04:27Z</time>
      </trkpt>
      <trkpt lat="42.361770" lon="1.679793">
        <ele>936.0</ele>
        <time>2018-06-11T12:04:31Z</time>
      </trkpt>
      <trkpt lat="42.361905" lon="1.679834">
        <ele>936.1</ele>
        <time>2018-06-11T12:04:34Z</time>
      </trkpt>
      <trkpt lat="42.362031" lon="1.679830">
        <ele>936.3</ele>
        <time>2018-06-11T12:04:38Z</time>
      </trkpt>
      <trkpt lat="42.362137" lon="1.679807">
        <ele>936.4</ele>
        <time>2018-06-11T12:04:40Z</time>
      </trkpt>
      <trkpt lat="42.362318" lon="1.679730">
        <ele>936.2</ele>
        <time>2018-06-11T12:04:45Z</time>
      </trkpt>
      <trkpt lat="42.362539" lon="1.679594">
        <ele>936.3</ele>
        <time>2018-06-11T12:04:52Z</time>
      </trkpt>
      <trkpt lat="42.362750" lon="1.679478">
        <ele>937.2</ele>
        <time>2018-06-11T12:04:58Z</time>
      </trkpt>
      <trkpt lat="42.362991" lon="1.679308">
        <ele>940.7</ele>
        <time>2018-06-11T12:05:05Z</time>
      </trkpt>
      <trkpt lat="42.363040" lon="1.679241">
        <ele>941.7</ele>
        <time>2018-06-11T12:05:07Z</time>
      </trkpt>
      <trkpt lat="42.363157" lon="1.679096">
        <ele>943.9</ele>
        <time>2018-06-11T12:05:11Z</time>
      </trkpt>
      <trkpt lat="42.363240" lon="1.678983">
        <ele>946.0</ele>
        <time>2018-06-11T12:05:14Z</time>
      </trkpt>
      <trkpt lat="42.363309" lon="1.678902">
        <ele>947.8</ele>
        <time>2018-06-11T12:05:17Z</time>
      </trkpt>
      <trkpt lat="42.363393" lon="1.678834">
        <ele>949.2</ele>
        <time>2018-06-11T12:05:19Z</time>
      </trkpt>
      <trkpt lat="42.363553" lon="1.678729">
        <ele>952.1</ele>
        <time>2018-06-11T12:05:24Z</time>
      </trkpt>
      <trkpt lat="42.363729" lon="1.678589">
        <ele>959.1</ele>
        <time>2018-06-11T12:05:30Z</time>
      </trkpt>
      <trkpt lat="42.363889" lon="1.678479">
        <ele>958.2</ele>
        <time>2018-06-11T12:05:35Z</time>
      </trkpt>
      <trkpt lat="42.363977" lon="1.678404">
        <ele>957.2</ele>
        <time>2018-06-11T12:05:37Z</time>
      </trkpt>
      <trkpt lat="42.364024" lon="1.678338">
        <ele>958.0</ele>
        <time>2018-06-11T12:05:39Z</time>
      </trkpt>
      <trkpt lat="42.364081" lon="1.678228">
        <ele>959.5</ele>
        <time>2018-06-11T12:05:42Z</time>
      </trkpt>
      <trkpt lat="42.364196" lon="1.678000">
        <ele>958.5</ele>
        <time>2018-06-11T12:05:47Z</time>
      </trkpt>
      <trkpt lat="42.364340" lon="1.677708">
        <ele>953.8</ele>
        <time>2018-06-11T12:05:54Z</time>
      </trkpt>
      <trkpt lat="42.364448" lon="1.677463">
        <ele>950.6</ele>
        <time>2018-06-11T12:06:00Z</time>
      </trkpt>
      <trkpt lat="42.364491" lon="1.677344">
        <ele>949.5</ele>
        <time>2018-06-11T12:06:02Z</time>
      </trkpt>
      <trkpt lat="42.364570" lon="1.677126">
        <ele>946.4</ele>
        <time>2018-06-11T12:06:07Z</time>
      </trkpt>
      <trkpt lat="42.364643" lon="1.676886">
        <ele>945.0</ele>
        <time>2018-06-11T12:06:12Z</time>
      </trkpt>
      <trkpt lat="42.364672" lon="1.676691">
        <ele>944.0</ele>
        <time>2018-06-11T12:06:16Z</time>
      </trkpt>
      <trkpt lat="42.364694" lon="1.676505">
        <ele>942.5</ele>
        <time>2018-06-11T12:06:20Z</time>
      </trkpt>
      <trkpt lat="42.364732" lon="1.676138">
        <ele>935.6</ele>
        <time>2018-06-11T12:06:27Z</time>
      </trkpt>
      <trkpt lat="42.364726" lon="1.676009">
        <ele>933.5</ele>
        <time>2018-06-11T12:06:30Z</time>
      </trkpt>
      <trkpt lat="42.364724" lon="1.675918">
        <ele>932.1</ele>
        <time>2018-06-11T12:06:32Z</time>
      </trkpt>
      <trkpt lat="42.364736" lon="1.675864">
        <ele>930.9</ele>
        <time>2018-06-11T12:06:33Z</time>
      </trkpt>
      <trkpt lat="42.364752" lon="1.675821">
        <ele>929.9</ele>
        <time>2018-06-11T12:06:34Z</time>
      </trkpt>
      <trkpt lat="42.364762" lon="1.675789">
        <ele>929.2</ele>
        <time>2018-06-11T12:06:35Z</time>
      </trkpt>
      <trkpt lat="42.364767" lon="1.675747">
        <ele>928.4</ele>
        <time>2018-06-11T12:06:35Z</time>
      </trkpt>
      <trkpt lat="42.364764" lon="1.675720">
        <ele>928.1</ele>
        <time>2018-06-11T12:06:36Z</time>
      </trkpt>
      <trkpt lat="42.364753" lon="1.675676">
        <ele>927.8</ele>
        <time>2018-06-11T12:06:37Z</time>
      </trkpt>
      <trkpt lat="42.364716" lon="1.675607">
        <ele>928.0</ele>
        <time>2018-06-11T12:06:39Z</time>
      </trkpt>
      <trkpt lat="42.364637" lon="1.675518">
        <ele>928.4</ele>
        <time>2018-06-11T12:06:41Z</time>
      </trkpt>
      <trkpt lat="42.364618" lon="1.675494">
        <ele>928.4</ele>
        <time>2018-06-11T12:06:42Z</time>
      </trkpt>
      <trkpt lat="42.364600" lon="1.675448">
        <ele>928.1</ele>
        <time>2018-06-11T12:06:43Z</time>
      </trkpt>
      <trkpt lat="42.364589" lon="1.675398">
        <ele>927.8</ele>
        <time>2018-06-11T12:06:44Z</time>
      </trkpt>
      <trkpt lat="42.364567" lon="1.675314">
        <ele>927.8</ele>
        <time>2018-06-11T12:06:46Z</time>
      </trkpt>
      <trkpt lat="42.364526" lon="1.675223">
        <ele>928.2</ele>
        <time>2018-06-11T12:06:48Z</time>
      </trkpt>
      <trkpt lat="42.364485" lon="1.675156">
        <ele>928.3</ele>
        <time>2018-06-11T12:06:50Z</time>
      </trkpt>
      <trkpt lat="42.364454" lon="1.675113">
        <ele>928.5</ele>
        <time>2018-06-11T12:06:51Z</time>
      </trkpt>
      <trkpt lat="42.364435" lon="1.675073">
        <ele>928.4</ele>
        <time>2018-06-11T12:06:52Z</time>
      </trkpt>
      <trkpt lat="42.364416" lon="1.675026">
        <ele>928.1</ele>
        <time>2018-06-11T12:06:53Z</time>
      </trkpt>
      <trkpt lat="42.364411" lon="1.674991">
        <ele>927.7</ele>
        <time>2018-06-11T12:06:53Z</time>
      </trkpt>
      <trkpt lat="42.364419" lon="1.674952">
        <ele>927.0</ele>
        <time>2018-06-11T12:06:54Z</time>
      </trkpt>
      <trkpt lat="42.364445" lon="1.674874">
        <ele>925.6</ele>
        <time>2018-06-11T12:06:56Z</time>
      </trkpt>
      <trkpt lat="42.364456" lon="1.674839">
        <ele>925.2</ele>
        <time>2018-06-11T12:06:57Z</time>
      </trkpt>
      <trkpt lat="42.364460" lon="1.674801">
        <ele>924.9</ele>
        <time>2018-06-11T12:06:57Z</time>
      </trkpt>
      <trkpt lat="42.364463" lon="1.674773">
        <ele>924.7</ele>
        <time>2018-06-11T12:06:58Z</time>
      </trkpt>
      <trkpt lat="42.364456" lon="1.674722">
        <ele>924.5</ele>
        <time>2018-06-11T12:06:59Z</time>
      </trkpt>
      <trkpt lat="42.364431" lon="1.674631">
        <ele>923.8</ele>
        <time>2018-06-11T12:07:01Z</time>
      </trkpt>
      <trkpt lat="42.364383" lon="1.674496">
        <ele>923.7</ele>
        <time>2018-06-11T12:07:04Z</time>
      </trkpt>
      <trkpt lat="42.364290" lon="1.674277">
        <ele>924.4</ele>
        <time>2018-06-11T12:07:09Z</time>
      </trkpt>
      <trkpt lat="42.364209" lon="1.674139">
        <ele>926.2</ele>
        <time>2018-06-11T12:07:12Z</time>
      </trkpt>
      <trkpt lat="42.364095" lon="1.673940">
        <ele>926.9</ele>
        <time>2018-06-11T12:07:17Z</time>
      </trkpt>
      <trkpt lat="42.363994" lon="1.673726">
        <ele>926.3</ele>
        <time>2018-06-11T12:07:22Z</time>
      </trkpt>
      <trkpt lat="42.363920" lon="1.673520">
        <ele>926.9</ele>
        <time>2018-06-11T12:07:27Z</time>
      </trkpt>
      <trkpt lat="42.363833" lon="1.673226">
        <ele>925.7</ele>
        <time>2018-06-11T12:07:33Z</time>
      </trkpt>
      <trkpt lat="42.363725" lon="1.672905">
        <ele>926.9</ele>
        <time>2018-06-11T12:07:40Z</time>
      </trkpt>
      <trkpt lat="42.363629" lon="1.672743">
        <ele>929.9</ele>
        <time>2018-06-11T12:07:44Z</time>
      </trkpt>
      <trkpt lat="42.363426" lon="1.672426">
        <ele>933.6</ele>
        <time>2018-06-11T12:07:52Z</time>
      </trkpt>
      <trkpt lat="42.363098" lon="1.672110">
        <ele>938.5</ele>
        <time>2018-06-11T12:08:03Z</time>
      </trkpt>
      <trkpt lat="42.362883" lon="1.671815">
        <ele>939.1</ele>
        <time>2018-06-11T12:08:11Z</time>
      </trkpt>
      <trkpt lat="42.362766" lon="1.671613">
        <ele>938.4</ele>
        <time>2018-06-11T12:08:16Z</time>
      </trkpt>
      <trkpt lat="42.362584" lon="1.671449">
        <ele>938.4</ele>
        <time>2018-06-11T12:08:22Z</time>
      </trkpt>
      <trkpt lat="42.362403" lon="1.671325">
        <ele>938.1</ele>
        <time>2018-06-11T12:08:27Z</time>
      </trkpt>
      <trkpt lat="42.362041" lon="1.671007">
        <ele>934.2</ele>
        <time>2018-06-11T12:08:39Z</time>
      </trkpt>
      <trkpt lat="42.361775" lon="1.670779">
        <ele>933.2</ele>
        <time>2018-06-11T12:08:47Z</time>
      </trkpt>
      <trkpt lat="42.361321" lon="1.670377">
        <ele>936.4</ele>
        <time>2018-06-11T12:09:01Z</time>
      </trkpt>
      <trkpt lat="42.361107" lon="1.670205">
        <ele>940.5</ele>
        <time>2018-06-11T12:09:08Z</time>
      </trkpt>
      <trkpt lat="42.360988" lon="1.670049">
        <ele>941.4</ele>
        <time>2018-06-11T12:09:12Z</time>
      </trkpt>
      <trkpt lat="42.360891" lon="1.669804">
        <ele>941.1</ele>
        <time>2018-06-11T12:09:18Z</time>
      </trkpt>
      <trkpt lat="42.360794" lon="1.669530">
        <ele>943.8</ele>
        <time>2018-06-11T12:09:24Z</time>
      </trkpt>
      <trkpt lat="42.360704" lon="1.669210">
        <ele>944.7</ele>
        <time>2018-06-11T12:09:30Z</time>
      </trkpt>
      <trkpt lat="42.360629" lon="1.669027">
        <ele>946.4</ele>
        <time>2018-06-11T12:09:35Z</time>
      </trkpt>
      <trkpt lat="42.360608" lon="1.668777">
        <ele>945.5</ele>
        <time>2018-06-11T12:09:40Z</time>
      </trkpt>
      <trkpt lat="42.360627" lon="1.668494">
        <ele>943.4</ele>
        <time>2018-06-11T12:09:45Z</time>
      </trkpt>
      <trkpt lat="42.360573" lon="1.668253">
        <ele>950.1</ele>
        <time>2018-06-11T12:09:50Z</time>
      </trkpt>
      <trkpt lat="42.360540" lon="1.667793">
        <ele>958.5</ele>
        <time>2018-06-11T12:10:00Z</time>
      </trkpt>
      <trkpt lat="42.360539" lon="1.667218">
        <ele>959.8</ele>
        <time>2018-06-11T12:10:11Z</time>
      </trkpt>
      <trkpt lat="42.360572" lon="1.666809">
        <ele>956.8</ele>
        <time>2018-06-11T12:10:19Z</time>
      </trkpt>
      <trkpt lat="42.360786" lon="1.666386">
        <ele>944.8</ele>
        <time>2018-06-11T12:10:29Z</time>
      </trkpt>
      <trkpt lat="42.360901" lon="1.666287">
        <ele>940.3</ele>
        <time>2018-06-11T12:10:33Z</time>
      </trkpt>
      <trkpt lat="42.361004" lon="1.666245">
        <ele>936.0</ele>
        <time>2018-06-11T12:10:36Z</time>
      </trkpt>
      <trkpt lat="42.361221" lon="1.666069">
        <ele>934.5</ele>
        <time>2018-06-11T12:10:43Z</time>
      </trkpt>
      <trkpt lat="42.361510" lon="1.665831">
        <ele>925.7</ele>
        <time>2018-06-11T12:10:52Z</time>
      </trkpt>
      <trkpt lat="42.361883" lon="1.665326">
        <ele>922.6</ele>
        <time>2018-06-11T12:11:06Z</time>
      </trkpt>
      <trkpt lat="42.362107" lon="1.664956">
        <ele>923.1</ele>
        <time>2018-06-11T12:11:15Z</time>
      </trkpt>
      <trkpt lat="42.362180" lon="1.664775">
        <ele>923.8</ele>
        <time>2018-06-11T12:11:19Z</time>
      </trkpt>
      <trkpt lat="42.362480" lon="1.664419">
        <ele>918.3</ele>
        <time>2018-06-11T12:11:30Z</time>
      </trkpt>
      <trkpt lat="42.362692" lon="1.664196">
        <ele>914.3</ele>
        <time>2018-06-11T12:11:37Z</time>
      </trkpt>
      <trkpt lat="42.362799" lon="1.664094">
        <ele>913.2</ele>
        <time>2018-06-11T12:11:41Z</time>
      </trkpt>
      <trkpt lat="42.362894" lon="1.664006">
        <ele>911.2</ele>
        <time>2018-06-11T12:11:44Z</time>
      </trkpt>
      <trkpt lat="42.362951" lon="1.663933">
        <ele>910.3</ele>
        <time>2018-06-11T12:11:46Z</time>
      </trkpt>
      <trkpt lat="42.362963" lon="1.663891">
        <ele>910.0</ele>
        <time>2018-06-11T12:11:47Z</time>
      </trkpt>
      <trkpt lat="42.362959" lon="1.663851">
        <ele>909.7</ele>
        <time>2018-06-11T12:11:48Z</time>
      </trkpt>
      <trkpt lat="42.362943" lon="1.663793">
        <ele>909.3</ele>
        <time>2018-06-11T12:11:49Z</time>
      </trkpt>
      <trkpt lat="42.362905" lon="1.663717">
        <ele>909.3</ele>
        <time>2018-06-11T12:11:51Z</time>
      </trkpt>
      <trkpt lat="42.362852" lon="1.663619">
        <ele>910.4</ele>
        <time>2018-06-11T12:11:53Z</time>
      </trkpt>
      <trkpt lat="42.362804" lon="1.663558">
        <ele>911.3</ele>
        <time>2018-06-11T12:11:55Z</time>
      </trkpt>
      <trkpt lat="42.362777" lon="1.663534">
        <ele>911.8</ele>
        <time>2018-06-11T12:11:56Z</time>
      </trkpt>
      <trkpt lat="42.362741" lon="1.663518">
        <ele>912.4</ele>
        <time>2018-06-11T12:11:57Z</time>
      </trkpt>
      <trkpt lat="42.362704" lon="1.663498">
        <ele>913.0</ele>
        <time>2018-06-11T12:11:58Z</time>
      </trkpt>
      <trkpt lat="42.362650" lon="1.663471">
        <ele>913.8</ele>
        <time>2018-06-11T12:11:59Z</time>
      </trkpt>
      <trkpt lat="42.362567" lon="1.663437">
        <ele>916.1</ele>
        <time>2018-06-11T12:12:02Z</time>
      </trkpt>
      <trkpt lat="42.362493" lon="1.663424">
        <ele>918.1</ele>
        <time>2018-06-11T12:12:04Z</time>
      </trkpt>
      <trkpt lat="42.362417" lon="1.663425">
        <ele>920.1</ele>
        <time>2018-06-11T12:12:06Z</time>
      </trkpt>
      <trkpt lat="42.362291" lon="1.663408">
        <ele>922.8</ele>
        <time>2018-06-11T12:12:09Z</time>
      </trkpt>
      <trkpt lat="42.362130" lon="1.663401">
        <ele>925.6</ele>
        <time>2018-06-11T12:12:13Z</time>
      </trkpt>
      <trkpt lat="42.362004" lon="1.663393">
        <ele>927.0</ele>
        <time>2018-06-11T12:12:17Z</time>
      </trkpt>
      <trkpt lat="42.361914" lon="1.663385">
        <ele>927.6</ele>
        <time>2018-06-11T12:12:19Z</time>
      </trkpt>
      <trkpt lat="42.361832" lon="1.663363">
        <ele>927.8</ele>
        <time>2018-06-11T12:12:21Z</time>
      </trkpt>
      <trkpt lat="42.361731" lon="1.663318">
        <ele>928.0</ele>
        <time>2018-06-11T12:12:24Z</time>
      </trkpt>
      <trkpt lat="42.361633" lon="1.663264">
        <ele>928.1</ele>
        <time>2018-06-11T12:12:27Z</time>
      </trkpt>
      <trkpt lat="42.361495" lon="1.663191">
        <ele>928.7</ele>
        <time>2018-06-11T12:12:31Z</time>
      </trkpt>
      <trkpt lat="42.361386" lon="1.663107">
        <ele>929.8</ele>
        <time>2018-06-11T12:12:34Z</time>
      </trkpt>
      <trkpt lat="42.361318" lon="1.663053">
        <ele>930.6</ele>
        <time>2018-06-11T12:12:36Z</time>
      </trkpt>
      <trkpt lat="42.361179" lon="1.662904">
        <ele>932.8</ele>
        <time>2018-06-11T12:12:41Z</time>
      </trkpt>
      <trkpt lat="42.361100" lon="1.662805">
        <ele>934.0</ele>
        <time>2018-06-11T12:12:44Z</time>
      </trkpt>
      <trkpt lat="42.361036" lon="1.662701">
        <ele>934.2</ele>
        <time>2018-06-11T12:12:47Z</time>
      </trkpt>
      <trkpt lat="42.360901" lon="1.662392">
        <ele>932.5</ele>
        <time>2018-06-11T12:12:54Z</time>
      </trkpt>
      <trkpt lat="42.360776" lon="1.662087">
        <ele>932.7</ele>
        <time>2018-06-11T12:13:00Z</time>
      </trkpt>
      <trkpt lat="42.360688" lon="1.661790">
        <ele>933.8</ele>
        <time>2018-06-11T12:13:07Z</time>
      </trkpt>
      <trkpt lat="42.360612" lon="1.661518">
        <ele>931.2</ele>
        <time>2018-06-11T12:13:12Z</time>
      </trkpt>
      <trkpt lat="42.360537" lon="1.661132">
        <ele>931.3</ele>
        <time>2018-06-11T12:13:20Z</time>
      </trkpt>
      <trkpt lat="42.360485" lon="1.660883">
        <ele>932.2</ele>
        <time>2018-06-11T12:13:25Z</time>
      </trkpt>
      <trkpt lat="42.360443" lon="1.660664">
        <ele>931.1</ele>
        <time>2018-06-11T12:13:30Z</time>
      </trkpt>
      <trkpt lat="42.360414" lon="1.660522">
        <ele>928.7</ele>
        <time>2018-06-11T12:13:33Z</time>
      </trkpt>
      <trkpt lat="42.360326" lon="1.660329">
        <ele>927.2</ele>
        <time>2018-06-11T12:13:37Z</time>
      </trkpt>
      <trkpt lat="42.360253" lon="1.660206">
        <ele>927.1</ele>
        <time>2018-06-11T12:13:40Z</time>
      </trkpt>
      <trkpt lat="42.360149" lon="1.660083">
        <ele>927.3</ele>
        <time>2018-06-11T12:13:44Z</time>
      </trkpt>
      <trkpt lat="42.359929" lon="1.659715">
        <ele>926.7</ele>
        <time>2018-06-11T12:13:53Z</time>
      </trkpt>
      <trkpt lat="42.359807" lon="1.659460">
        <ele>925.5</ele>
        <time>2018-06-11T12:13:59Z</time>
      </trkpt>
      <trkpt lat="42.359741" lon="1.659322">
        <ele>925.4</ele>
        <time>2018-06-11T12:14:02Z</time>
      </trkpt>
      <trkpt lat="42.359652" lon="1.659156">
        <ele>927.0</ele>
        <time>2018-06-11T12:14:06Z</time>
      </trkpt>
      <trkpt lat="42.359571" lon="1.659042">
        <ele>927.3</ele>
        <time>2018-06-11T12:14:09Z</time>
      </trkpt>
      <trkpt lat="42.359417" lon="1.658867">
        <ele>930.2</ele>
        <time>2018-06-11T12:14:15Z</time>
      </trkpt>
      <trkpt lat="42.359324" lon="1.658764">
        <ele>930.1</ele>
        <time>2018-06-11T12:14:18Z</time>
      </trkpt>
      <trkpt lat="42.359290" lon="1.658723">
        <ele>930.1</ele>
        <time>2018-06-11T12:14:19Z</time>
      </trkpt>
      <trkpt lat="42.359275" lon="1.658696">
        <ele>930.2</ele>
        <time>2018-06-11T12:14:20Z</time>
      </trkpt>
      <trkpt lat="42.359273" lon="1.658661">
        <ele>930.3</ele>
        <time>2018-06-11T12:14:20Z</time>
      </trkpt>
      <trkpt lat="42.359294" lon="1.658628">
        <ele>930.4</ele>
        <time>2018-06-11T12:14:21Z</time>
      </trkpt>
      <trkpt lat="42.359333" lon="1.658617">
        <ele>930.8</ele>
        <time>2018-06-11T12:14:22Z</time>
      </trkpt>
      <trkpt lat="42.359386" lon="1.658635">
        <ele>931.2</ele>
        <time>2018-06-11T12:14:24Z</time>
      </trkpt>
      <trkpt lat="42.359449" lon="1.658671">
        <ele>931.4</ele>
        <time>2018-06-11T12:14:26Z</time>
      </trkpt>
      <trkpt lat="42.359613" lon="1.658789">
        <ele>930.6</ele>
        <time>2018-06-11T12:14:31Z</time>
      </trkpt>
      <trkpt lat="42.359665" lon="1.658807">
        <ele>930.7</ele>
        <time>2018-06-11T12:14:32Z</time>
      </trkpt>
      <trkpt lat="42.359795" lon="1.658824">
        <ele>931.3</ele>
        <time>2018-06-11T12:14:35Z</time>
      </trkpt>
      <trkpt lat="42.359954" lon="1.658821">
        <ele>932.7</ele>
        <time>2018-06-11T12:14:40Z</time>
      </trkpt>
      <trkpt lat="42.360157" lon="1.658831">
        <ele>934.5</ele>
        <time>2018-06-11T12:14:45Z</time>
      </trkpt>
      <trkpt lat="42.360282" lon="1.658852">
        <ele>935.5</ele>
        <time>2018-06-11T12:14:48Z</time>
      </trkpt>
      <trkpt lat="42.360422" lon="1.658908">
        <ele>935.5</ele>
        <time>2018-06-11T12:14:52Z</time>
      </trkpt>
      <trkpt lat="42.360535" lon="1.659004">
        <ele>934.4</ele>
        <time>2018-06-11T12:14:56Z</time>
      </trkpt>
      <trkpt lat="42.360642" lon="1.659101">
        <ele>933.2</ele>
        <time>2018-06-11T12:14:59Z</time>
      </trkpt>
      <trkpt lat="42.360710" lon="1.659147">
        <ele>932.7</ele>
        <time>2018-06-11T12:15:01Z</time>
      </trkpt>
      <trkpt lat="42.360785" lon="1.659189">
        <ele>931.8</ele>
        <time>2018-06-11T12:15:03Z</time>
      </trkpt>
      <trkpt lat="42.360871" lon="1.659202">
        <ele>931.9</ele>
        <time>2018-06-11T12:15:06Z</time>
      </trkpt>
      <trkpt lat="42.361004" lon="1.659208">
        <ele>932.1</ele>
        <time>2018-06-11T12:15:09Z</time>
      </trkpt>
      <trkpt lat="42.361089" lon="1.659209">
        <ele>931.7</ele>
        <time>2018-06-11T12:15:11Z</time>
      </trkpt>
      <trkpt lat="42.361149" lon="1.659202">
        <ele>931.8</ele>
        <time>2018-06-11T12:15:13Z</time>
      </trkpt>
      <trkpt lat="42.361204" lon="1.659182">
        <ele>932.5</ele>
        <time>2018-06-11T12:15:15Z</time>
      </trkpt>
      <trkpt lat="42.361253" lon="1.659147">
        <ele>933.8</ele>
        <time>2018-06-11T12:15:16Z</time>
      </trkpt>
      <trkpt lat="42.361288" lon="1.659101">
        <ele>935.5</ele>
        <time>2018-06-11T12:15:17Z</time>
      </trkpt>
      <trkpt lat="42.361325" lon="1.659001">
        <ele>939.0</ele>
        <time>2018-06-11T12:15:20Z</time>
      </trkpt>
      <trkpt lat="42.361488" lon="1.658674">
        <ele>944.4</ele>
        <time>2018-06-11T12:15:28Z</time>
      </trkpt>
      <trkpt lat="42.361583" lon="1.658521">
        <ele>944.7</ele>
        <time>2018-06-11T12:15:32Z</time>
      </trkpt>
      <trkpt lat="42.361666" lon="1.658372">
        <ele>945.5</ele>
        <time>2018-06-11T12:15:35Z</time>
      </trkpt>
      <trkpt lat="42.361743" lon="1.658225">
        <ele>946.7</ele>
        <time>2018-06-11T12:15:39Z</time>
      </trkpt>
      <trkpt lat="42.361799" lon="1.658086">
        <ele>949.2</ele>
        <time>2018-06-11T12:15:42Z</time>
      </trkpt>
      <trkpt lat="42.361842" lon="1.657940">
        <ele>952.4</ele>
        <time>2018-06-11T12:15:45Z</time>
      </trkpt>
      <trkpt lat="42.361867" lon="1.657748">
        <ele>956.0</ele>
        <time>2018-06-11T12:15:49Z</time>
      </trkpt>
      <trkpt lat="42.361917" lon="1.657599">
        <ele>957.2</ele>
        <time>2018-06-11T12:15:52Z</time>
      </trkpt>
      <trkpt lat="42.361987" lon="1.657501">
        <ele>956.3</ele>
        <time>2018-06-11T12:15:55Z</time>
      </trkpt>
      <trkpt lat="42.362024" lon="1.657415">
        <ele>956.1</ele>
        <time>2018-06-11T12:15:57Z</time>
      </trkpt>
      <trkpt lat="42.362043" lon="1.657318">
        <ele>955.5</ele>
        <time>2018-06-11T12:15:59Z</time>
      </trkpt>
      <trkpt lat="42.362062" lon="1.657219">
        <ele>953.2</ele>
        <time>2018-06-11T12:16:01Z</time>
      </trkpt>
      <trkpt lat="42.362068" lon="1.657130">
        <ele>951.5</ele>
        <time>2018-06-11T12:16:03Z</time>
      </trkpt>
      <trkpt lat="42.362048" lon="1.657037">
        <ele>949.9</ele>
        <time>2018-06-11T12:16:05Z</time>
      </trkpt>
      <trkpt lat="42.362010" lon="1.656963">
        <ele>949.5</ele>
        <time>2018-06-11T12:16:06Z</time>
      </trkpt>
      <trkpt lat="42.361963" lon="1.656863">
        <ele>949.3</ele>
        <time>2018-06-11T12:16:09Z</time>
      </trkpt>
      <trkpt lat="42.361918" lon="1.656792">
        <ele>950.2</ele>
        <time>2018-06-11T12:16:10Z</time>
      </trkpt>
      <trkpt lat="42.361822" lon="1.656369">
        <ele>943.8</ele>
        <time>2018-06-11T12:16:19Z</time>
      </trkpt>
      <trkpt lat="42.361726" lon="1.655861">
        <ele>941.3</ele>
        <time>2018-06-11T12:16:30Z</time>
      </trkpt>
      <trkpt lat="42.361630" lon="1.655450">
        <ele>941.2</ele>
        <time>2018-06-11T12:16:38Z</time>
      </trkpt>
      <trkpt lat="42.361527" lon="1.654613">
        <ele>931.7</ele>
        <time>2018-06-11T12:16:55Z</time>
      </trkpt>
      <trkpt lat="42.361490" lon="1.654191">
        <ele>934.2</ele>
        <time>2018-06-11T12:17:03Z</time>
      </trkpt>
      <trkpt lat="42.361504" lon="1.653729">
        <ele>935.3</ele>
        <time>2018-06-11T12:17:12Z</time>
      </trkpt>
      <trkpt lat="42.361527" lon="1.653407">
        <ele>933.8</ele>
        <time>2018-06-11T12:17:18Z</time>
      </trkpt>
      <trkpt lat="42.361522" lon="1.652963">
        <ele>935.1</ele>
        <time>2018-06-11T12:17:27Z</time>
      </trkpt>
      <trkpt lat="42.361561" lon="1.652745">
        <ele>937.2</ele>
        <time>2018-06-11T12:17:32Z</time>
      </trkpt>
      <trkpt lat="42.361647" lon="1.652575">
        <ele>934.2</ele>
        <time>2018-06-11T12:17:36Z</time>
      </trkpt>
      <trkpt lat="42.361715" lon="1.652459">
        <ele>930.9</ele>
        <time>2018-06-11T12:17:39Z</time>
      </trkpt>
      <trkpt lat="42.361787" lon="1.652276">
        <ele>928.4</ele>
        <time>2018-06-11T12:17:43Z</time>
      </trkpt>
      <trkpt lat="42.361801" lon="1.652266">
        <ele>927.4</ele>
        <time>2018-06-11T12:17:43Z</time>
      </trkpt>
      <trkpt lat="42.361989" lon="1.652045">
        <ele>920.2</ele>
        <time>2018-06-11T12:17:50Z</time>
      </trkpt>
      <trkpt lat="42.362058" lon="1.651947">
        <ele>916.7</ele>
        <time>2018-06-11T12:17:53Z</time>
      </trkpt>
      <trkpt lat="42.362086" lon="1.651850">
        <ele>915.5</ele>
        <time>2018-06-11T12:17:55Z</time>
      </trkpt>
      <trkpt lat="42.362092" lon="1.651651">
        <ele>916.5</ele>
        <time>2018-06-11T12:17:59Z</time>
      </trkpt>
      <trkpt lat="42.362096" lon="1.651404">
        <ele>917.1</ele>
        <time>2018-06-11T12:18:04Z</time>
      </trkpt>
      <trkpt lat="42.362104" lon="1.651166">
        <ele>916.5</ele>
        <time>2018-06-11T12:18:08Z</time>
      </trkpt>
      <trkpt lat="42.362167" lon="1.650910">
        <ele>913.7</ele>
        <time>2018-06-11T12:18:14Z</time>
      </trkpt>
      <trkpt lat="42.362417" lon="1.650775">
        <ele>904.4</ele>
        <time>2018-06-11T12:18:21Z</time>
      </trkpt>
      <trkpt lat="42.362702" lon="1.650604">
        <ele>900.3</ele>
        <time>2018-06-11T12:18:29Z</time>
      </trkpt>
      <trkpt lat="42.363134" lon="1.650126">
        <ele>894.4</ele>
        <time>2018-06-11T12:18:44Z</time>
      </trkpt>
      <trkpt lat="42.363356" lon="1.649847">
        <ele>892.9</ele>
        <time>2018-06-11T12:18:52Z</time>
      </trkpt>
      <trkpt lat="42.364129" lon="1.648952">
        <ele>893.7</ele>
        <time>2018-06-11T12:19:19Z</time>
      </trkpt>
      <trkpt lat="42.364185" lon="1.648758">
        <ele>894.7</ele>
        <time>2018-06-11T12:19:23Z</time>
      </trkpt>
      <trkpt lat="42.364190" lon="1.648632">
        <ele>896.0</ele>
        <time>2018-06-11T12:19:26Z</time>
      </trkpt>
      <trkpt lat="42.364097" lon="1.648445">
        <ele>900.6</ele>
        <time>2018-06-11T12:19:30Z</time>
      </trkpt>
      <trkpt lat="42.364091" lon="1.648400">
        <ele>901.3</ele>
        <time>2018-06-11T12:19:31Z</time>
      </trkpt>
      <trkpt lat="42.364079" lon="1.648334">
        <ele>902.3</ele>
        <time>2018-06-11T12:19:33Z</time>
      </trkpt>
      <trkpt lat="42.364065" lon="1.648257">
        <ele>903.5</ele>
        <time>2018-06-11T12:19:34Z</time>
      </trkpt>
      <trkpt lat="42.364053" lon="1.648209">
        <ele>904.3</ele>
        <time>2018-06-11T12:19:35Z</time>
      </trkpt>
      <trkpt lat="42.364049" lon="1.648168">
        <ele>904.6</ele>
        <time>2018-06-11T12:19:36Z</time>
      </trkpt>
      <trkpt lat="42.364065" lon="1.648124">
        <ele>904.5</ele>
        <time>2018-06-11T12:19:37Z</time>
      </trkpt>
      <trkpt lat="42.364114" lon="1.648053">
        <ele>903.8</ele>
        <time>2018-06-11T12:19:39Z</time>
      </trkpt>
      <trkpt lat="42.364154" lon="1.647989">
        <ele>903.3</ele>
        <time>2018-06-11T12:19:40Z</time>
      </trkpt>
      <trkpt lat="42.364176" lon="1.647926">
        <ele>903.3</ele>
        <time>2018-06-11T12:19:42Z</time>
      </trkpt>
      <trkpt lat="42.364184" lon="1.647856">
        <ele>903.4</ele>
        <time>2018-06-11T12:19:43Z</time>
      </trkpt>
      <trkpt lat="42.364193" lon="1.647797">
        <ele>903.4</ele>
        <time>2018-06-11T12:19:44Z</time>
      </trkpt>
      <trkpt lat="42.364208" lon="1.647738">
        <ele>903.4</ele>
        <time>2018-06-11T12:19:46Z</time>
      </trkpt>
      <trkpt lat="42.364249" lon="1.647667">
        <ele>902.9</ele>
        <time>2018-06-11T12:19:47Z</time>
      </trkpt>
      <trkpt lat="42.364449" lon="1.647395">
        <ele>900.2</ele>
        <time>2018-06-11T12:19:55Z</time>
      </trkpt>
      <trkpt lat="42.364513" lon="1.647293">
        <ele>900.0</ele>
        <time>2018-06-11T12:19:58Z</time>
      </trkpt>
      <trkpt lat="42.364567" lon="1.647190">
        <ele>900.0</ele>
        <time>2018-06-11T12:20:00Z</time>
      </trkpt>
      <trkpt lat="42.364605" lon="1.647103">
        <ele>899.9</ele>
        <time>2018-06-11T12:20:02Z</time>
      </trkpt>
      <trkpt lat="42.364697" lon="1.646926">
        <ele>899.8</ele>
        <time>2018-06-11T12:20:06Z</time>
      </trkpt>
      <trkpt lat="42.364856" lon="1.646709">
        <ele>894.9</ele>
        <time>2018-06-11T12:20:12Z</time>
      </trkpt>
      <trkpt lat="42.364946" lon="1.646600">
        <ele>894.6</ele>
        <time>2018-06-11T12:20:15Z</time>
      </trkpt>
      <trkpt lat="42.364997" lon="1.646488">
        <ele>895.4</ele>
        <time>2018-06-11T12:20:18Z</time>
      </trkpt>
      <trkpt lat="42.365045" lon="1.646383">
        <ele>896.5</ele>
        <time>2018-06-11T12:20:21Z</time>
      </trkpt>
      <trkpt lat="42.365100" lon="1.646237">
        <ele>897.0</ele>
        <time>2018-06-11T12:20:24Z</time>
      </trkpt>
      <trkpt lat="42.365147" lon="1.646043">
        <ele>900.8</ele>
        <time>2018-06-11T12:20:28Z</time>
      </trkpt>
      <trkpt lat="42.365274" lon="1.645805">
        <ele>902.0</ele>
        <time>2018-06-11T12:20:34Z</time>
      </trkpt>
      <trkpt lat="42.365374" lon="1.645533">
        <ele>903.3</ele>
        <time>2018-06-11T12:20:40Z</time>
      </trkpt>
      <trkpt lat="42.365454" lon="1.645314">
        <ele>904.9</ele>
        <time>2018-06-11T12:20:44Z</time>
      </trkpt>
      <trkpt lat="42.365541" lon="1.645077">
        <ele>907.9</ele>
        <time>2018-06-11T12:20:50Z</time>
      </trkpt>
      <trkpt lat="42.365602" lon="1.644940">
        <ele>908.9</ele>
        <time>2018-06-11T12:20:53Z</time>
      </trkpt>
      <trkpt lat="42.365675" lon="1.644867">
        <ele>906.9</ele>
        <time>2018-06-11T12:20:55Z</time>
      </trkpt>
      <trkpt lat="42.365782" lon="1.644807">
        <ele>905.9</ele>
        <time>2018-06-11T12:20:58Z</time>
      </trkpt>
      <trkpt lat="42.366012" lon="1.644645">
        <ele>904.7</ele>
        <time>2018-06-11T12:21:05Z</time>
      </trkpt>
      <trkpt lat="42.366439" lon="1.644356">
        <ele>905.2</ele>
        <time>2018-06-11T12:21:18Z</time>
      </trkpt>
      <trkpt lat="42.366699" lon="1.644150">
        <ele>907.6</ele>
        <time>2018-06-11T12:21:26Z</time>
      </trkpt>
      <trkpt lat="42.366783" lon="1.644075">
        <ele>908.3</ele>
        <time>2018-06-11T12:21:28Z</time>
      </trkpt>
      <trkpt lat="42.366819" lon="1.644054">
        <ele>908.3</ele>
        <time>2018-06-11T12:21:29Z</time>
      </trkpt>
      <trkpt lat="42.366877" lon="1.644039">
        <ele>908.0</ele>
        <time>2018-06-11T12:21:31Z</time>
      </trkpt>
      <trkpt lat="42.366954" lon="1.644028">
        <ele>907.4</ele>
        <time>2018-06-11T12:21:33Z</time>
      </trkpt>
      <trkpt lat="42.367044" lon="1.644031">
        <ele>906.4</ele>
        <time>2018-06-11T12:21:35Z</time>
      </trkpt>
      <trkpt lat="42.367095" lon="1.644031">
        <ele>906.0</ele>
        <time>2018-06-11T12:21:37Z</time>
      </trkpt>
      <trkpt lat="42.367151" lon="1.644020">
        <ele>906.5</ele>
        <time>2018-06-11T12:21:38Z</time>
      </trkpt>
      <trkpt lat="42.367255" lon="1.643977">
        <ele>908.1</ele>
        <time>2018-06-11T12:21:41Z</time>
      </trkpt>
      <trkpt lat="42.367448" lon="1.643862">
        <ele>910.9</ele>
        <time>2018-06-11T12:21:47Z</time>
      </trkpt>
      <trkpt lat="42.367508" lon="1.643855">
        <ele>911.0</ele>
        <time>2018-06-11T12:21:48Z</time>
      </trkpt>
      <trkpt lat="42.367572" lon="1.643874">
        <ele>910.2</ele>
        <time>2018-06-11T12:21:50Z</time>
      </trkpt>
      <trkpt lat="42.367672" lon="1.643925">
        <ele>908.3</ele>
        <time>2018-06-11T12:21:53Z</time>
      </trkpt>
      <trkpt lat="42.367761" lon="1.643979">
        <ele>906.2</ele>
        <time>2018-06-11T12:21:56Z</time>
      </trkpt>
      <trkpt lat="42.367863" lon="1.644045">
        <ele>903.9</ele>
        <time>2018-06-11T12:21:59Z</time>
      </trkpt>
      <trkpt lat="42.367933" lon="1.644076">
        <ele>903.2</ele>
        <time>2018-06-11T12:22:01Z</time>
      </trkpt>
      <trkpt lat="42.367997" lon="1.644088">
        <ele>903.2</ele>
        <time>2018-06-11T12:22:02Z</time>
      </trkpt>
      <trkpt lat="42.368093" lon="1.644084">
        <ele>903.6</ele>
        <time>2018-06-11T12:22:05Z</time>
      </trkpt>
      <trkpt lat="42.368219" lon="1.644058">
        <ele>904.4</ele>
        <time>2018-06-11T12:22:08Z</time>
      </trkpt>
      <trkpt lat="42.368363" lon="1.643992">
        <ele>905.4</ele>
        <time>2018-06-11T12:22:12Z</time>
      </trkpt>
      <trkpt lat="42.368460" lon="1.643952">
        <ele>906.0</ele>
        <time>2018-06-11T12:22:15Z</time>
      </trkpt>
      <trkpt lat="42.368551" lon="1.643928">
        <ele>906.8</ele>
        <time>2018-06-11T12:22:17Z</time>
      </trkpt>
      <trkpt lat="42.368620" lon="1.643917">
        <ele>907.2</ele>
        <time>2018-06-11T12:22:19Z</time>
      </trkpt>
      <trkpt lat="42.368679" lon="1.643917">
        <ele>907.4</ele>
        <time>2018-06-11T12:22:21Z</time>
      </trkpt>
      <trkpt lat="42.368720" lon="1.643914">
        <ele>907.6</ele>
        <time>2018-06-11T12:22:22Z</time>
      </trkpt>
      <trkpt lat="42.368767" lon="1.643947">
        <ele>907.7</ele>
        <time>2018-06-11T12:22:23Z</time>
      </trkpt>
      <trkpt lat="42.368844" lon="1.643978">
        <ele>909.4</ele>
        <time>2018-06-11T12:22:26Z</time>
      </trkpt>
      <trkpt lat="42.368892" lon="1.643972">
        <ele>910.9</ele>
        <time>2018-06-11T12:22:27Z</time>
      </trkpt>
      <trkpt lat="42.368931" lon="1.643913">
        <ele>912.9</ele>
        <time>2018-06-11T12:22:28Z</time>
      </trkpt>
      <trkpt lat="42.368923" lon="1.643774">
        <ele>914.7</ele>
        <time>2018-06-11T12:22:31Z</time>
      </trkpt>
      <trkpt lat="42.368865" lon="1.643661">
        <ele>915.7</ele>
        <time>2018-06-11T12:22:34Z</time>
      </trkpt>
      <trkpt lat="42.368770" lon="1.643559">
        <ele>916.6</ele>
        <time>2018-06-11T12:22:37Z</time>
      </trkpt>
      <trkpt lat="42.368694" lon="1.643527">
        <ele>917.6</ele>
        <time>2018-06-11T12:22:39Z</time>
      </trkpt>
      <trkpt lat="42.368587" lon="1.643527">
        <ele>918.3</ele>
        <time>2018-06-11T12:22:42Z</time>
      </trkpt>
      <trkpt lat="42.368389" lon="1.643581">
        <ele>917.7</ele>
        <time>2018-06-11T12:22:47Z</time>
      </trkpt>
      <trkpt lat="42.368298" lon="1.643554">
        <ele>919.3</ele>
        <time>2018-06-11T12:22:50Z</time>
      </trkpt>
      <trkpt lat="42.368104" lon="1.643479">
        <ele>923.1</ele>
        <time>2018-06-11T12:22:55Z</time>
      </trkpt>
      <trkpt lat="42.368009" lon="1.643420">
        <ele>925.4</ele>
        <time>2018-06-11T12:22:58Z</time>
      </trkpt>
      <trkpt lat="42.367906" lon="1.643323">
        <ele>928.7</ele>
        <time>2018-06-11T12:23:02Z</time>
      </trkpt>
      <trkpt lat="42.367778" lon="1.643103">
        <ele>934.3</ele>
        <time>2018-06-11T12:23:07Z</time>
      </trkpt>
      <trkpt lat="42.367684" lon="1.643001">
        <ele>936.6</ele>
        <time>2018-06-11T12:23:10Z</time>
      </trkpt>
      <trkpt lat="42.367518" lon="1.642915">
        <ele>937.3</ele>
        <time>2018-06-11T12:23:15Z</time>
      </trkpt>
      <trkpt lat="42.367367" lon="1.642733">
        <ele>944.4</ele>
        <time>2018-06-11T12:23:21Z</time>
      </trkpt>
      <trkpt lat="42.367263" lon="1.642663">
        <ele>949.6</ele>
        <time>2018-06-11T12:23:24Z</time>
      </trkpt>
      <trkpt lat="42.367180" lon="1.642647">
        <ele>951.9</ele>
        <time>2018-06-11T12:23:26Z</time>
      </trkpt>
      <trkpt lat="42.367105" lon="1.642674">
        <ele>952.0</ele>
        <time>2018-06-11T12:23:28Z</time>
      </trkpt>
      <trkpt lat="42.366824" lon="1.642948">
        <ele>949.7</ele>
        <time>2018-06-11T12:23:38Z</time>
      </trkpt>
      <trkpt lat="42.366689" lon="1.643012">
        <ele>951.3</ele>
        <time>2018-06-11T12:23:41Z</time>
      </trkpt>
      <trkpt lat="42.366570" lon="1.643023">
        <ele>953.4</ele>
        <time>2018-06-11T12:23:45Z</time>
      </trkpt>
      <trkpt lat="42.366396" lon="1.642958">
        <ele>959.5</ele>
        <time>2018-06-11T12:23:50Z</time>
      </trkpt>
      <trkpt lat="42.366276" lon="1.642964">
        <ele>962.0</ele>
        <time>2018-06-11T12:23:53Z</time>
      </trkpt>
      <trkpt lat="42.366218" lon="1.643039">
        <ele>962.0</ele>
        <time>2018-06-11T12:23:55Z</time>
      </trkpt>
      <trkpt lat="42.366059" lon="1.643286">
        <ele>963.0</ele>
        <time>2018-06-11T12:24:01Z</time>
      </trkpt>
      <trkpt lat="42.365936" lon="1.643430">
        <ele>961.1</ele>
        <time>2018-06-11T12:24:06Z</time>
      </trkpt>
      <trkpt lat="42.365813" lon="1.643479">
        <ele>959.9</ele>
        <time>2018-06-11T12:24:09Z</time>
      </trkpt>
      <trkpt lat="42.365675" lon="1.643500">
        <ele>960.2</ele>
        <time>2018-06-11T12:24:13Z</time>
      </trkpt>
      <trkpt lat="42.365583" lon="1.643489">
        <ele>960.5</ele>
        <time>2018-06-11T12:24:15Z</time>
      </trkpt>
      <trkpt lat="42.365305" lon="1.643607">
        <ele>956.8</ele>
        <time>2018-06-11T12:24:23Z</time>
      </trkpt>
      <trkpt lat="42.365159" lon="1.643629">
        <ele>955.3</ele>
        <time>2018-06-11T12:24:27Z</time>
      </trkpt>
      <trkpt lat="42.365099" lon="1.643575">
        <ele>956.0</ele>
        <time>2018-06-11T12:24:29Z</time>
      </trkpt>
      <trkpt lat="42.365084" lon="1.643516">
        <ele>956.9</ele>
        <time>2018-06-11T12:24:30Z</time>
      </trkpt>
      <trkpt lat="42.365100" lon="1.643468">
        <ele>957.8</ele>
        <time>2018-06-11T12:24:31Z</time>
      </trkpt>
      <trkpt lat="42.365136" lon="1.643420">
        <ele>958.9</ele>
        <time>2018-06-11T12:24:33Z</time>
      </trkpt>
      <trkpt lat="42.365219" lon="1.643420">
        <ele>960.0</ele>
        <time>2018-06-11T12:24:35Z</time>
      </trkpt>
      <trkpt lat="42.365318" lon="1.643441">
        <ele>960.7</ele>
        <time>2018-06-11T12:24:37Z</time>
      </trkpt>
      <trkpt lat="42.365548" lon="1.643323">
        <ele>967.1</ele>
        <time>2018-06-11T12:24:44Z</time>
      </trkpt>
      <trkpt lat="42.365735" lon="1.643216">
        <ele>974.2</ele>
        <time>2018-06-11T12:24:50Z</time>
      </trkpt>
      <trkpt lat="42.365845" lon="1.643039">
        <ele>979.2</ele>
        <time>2018-06-11T12:24:54Z</time>
      </trkpt>
      <trkpt lat="42.365925" lon="1.642819">
        <ele>983.6</ele>
        <time>2018-06-11T12:24:59Z</time>
      </trkpt>
      <trkpt lat="42.365984" lon="1.642647">
        <ele>987.9</ele>
        <time>2018-06-11T12:25:03Z</time>
      </trkpt>
      <trkpt lat="42.366091" lon="1.642481">
        <ele>991.9</ele>
        <time>2018-06-11T12:25:08Z</time>
      </trkpt>
      <trkpt lat="42.366163" lon="1.642433">
        <ele>989.0</ele>
        <time>2018-06-11T12:25:10Z</time>
      </trkpt>
      <trkpt lat="42.366341" lon="1.642384">
        <ele>983.0</ele>
        <time>2018-06-11T12:25:15Z</time>
      </trkpt>
      <trkpt lat="42.366488" lon="1.642282">
        <ele>986.6</ele>
        <time>2018-06-11T12:25:19Z</time>
      </trkpt>
      <trkpt lat="42.366666" lon="1.642052">
        <ele>991.2</ele>
        <time>2018-06-11T12:25:26Z</time>
      </trkpt>
      <trkpt lat="42.366760" lon="1.641928">
        <ele>994.6</ele>
        <time>2018-06-11T12:25:29Z</time>
      </trkpt>
      <trkpt lat="42.366924" lon="1.641837">
        <ele>995.3</ele>
        <time>2018-06-11T12:25:34Z</time>
      </trkpt>
      <trkpt lat="42.367035" lon="1.641751">
        <ele>997.0</ele>
        <time>2018-06-11T12:25:38Z</time>
      </trkpt>
      <trkpt lat="42.367162" lon="1.641687">
        <ele>996.5</ele>
        <time>2018-06-11T12:25:41Z</time>
      </trkpt>
      <trkpt lat="42.367304" lon="1.641639">
        <ele>994.2</ele>
        <time>2018-06-11T12:25:45Z</time>
      </trkpt>
      <trkpt lat="42.367525" lon="1.641472">
        <ele>997.5</ele>
        <time>2018-06-11T12:25:52Z</time>
      </trkpt>
      <trkpt lat="42.367705" lon="1.641370">
        <ele>998.9</ele>
        <time>2018-06-11T12:25:57Z</time>
      </trkpt>
      <trkpt lat="42.367887" lon="1.641279">
        <ele>999.6</ele>
        <time>2018-06-11T12:26:02Z</time>
      </trkpt>
      <trkpt lat="42.368081" lon="1.641108">
        <ele>1001.5</ele>
        <time>2018-06-11T12:26:08Z</time>
      </trkpt>
      <trkpt lat="42.368244" lon="1.640936">
        <ele>1002.1</ele>
        <time>2018-06-11T12:26:14Z</time>
      </trkpt>
      <trkpt lat="42.368327" lon="1.640845">
        <ele>1002.6</ele>
        <time>2018-06-11T12:26:17Z</time>
      </trkpt>
      <trkpt lat="42.368475" lon="1.640641">
        <ele>1003.7</ele>
        <time>2018-06-11T12:26:22Z</time>
      </trkpt>
      <trkpt lat="42.368525" lon="1.640389">
        <ele>1006.9</ele>
        <time>2018-06-11T12:26:27Z</time>
      </trkpt>
      <trkpt lat="42.368585" lon="1.640335">
        <ele>1007.3</ele>
        <time>2018-06-11T12:26:29Z</time>
      </trkpt>
      <trkpt lat="42.368668" lon="1.640324">
        <ele>1006.5</ele>
        <time>2018-06-11T12:26:31Z</time>
      </trkpt>
      <trkpt lat="42.369362" lon="1.640936">
        <ele>1012.2</ele>
        <time>2018-06-11T12:26:53Z</time>
      </trkpt>
      <trkpt lat="42.369429" lon="1.640952">
        <ele>1014.2</ele>
        <time>2018-06-11T12:26:55Z</time>
      </trkpt>
      <trkpt lat="42.369532" lon="1.640914">
        <ele>1018.0</ele>
        <time>2018-06-11T12:26:58Z</time>
      </trkpt>
      <trkpt lat="42.369726" lon="1.640813">
        <ele>1020.8</ele>
        <time>2018-06-11T12:27:04Z</time>
      </trkpt>
      <trkpt lat="42.369849" lon="1.640700">
        <ele>1022.9</ele>
        <time>2018-06-11T12:27:08Z</time>
      </trkpt>
      <trkpt lat="42.369956" lon="1.640501">
        <ele>1023.7</ele>
        <time>2018-06-11T12:27:13Z</time>
      </trkpt>
      <trkpt lat="42.370158" lon="1.640019">
        <ele>1026.6</ele>
        <time>2018-06-11T12:27:23Z</time>
      </trkpt>
      <trkpt lat="42.370329" lon="1.639697">
        <ele>1028.4</ele>
        <time>2018-06-11T12:27:31Z</time>
      </trkpt>
      <trkpt lat="42.370872" lon="1.638613">
        <ele>1007.2</ele>
        <time>2018-06-11T12:27:57Z</time>
      </trkpt>
      <trkpt lat="42.371102" lon="1.638039">
        <ele>1005.9</ele>
        <time>2018-06-11T12:28:10Z</time>
      </trkpt>
      <trkpt lat="42.371256" lon="1.637803">
        <ele>1002.9</ele>
        <time>2018-06-11T12:28:16Z</time>
      </trkpt>
      <trkpt lat="42.371308" lon="1.637723">
        <ele>1000.8</ele>
        <time>2018-06-11T12:28:18Z</time>
      </trkpt>
      <trkpt lat="42.371343" lon="1.637567">
        <ele>998.8</ele>
        <time>2018-06-11T12:28:22Z</time>
      </trkpt>
      <trkpt lat="42.371332" lon="1.637454">
        <ele>997.7</ele>
        <time>2018-06-11T12:28:24Z</time>
      </trkpt>
      <trkpt lat="42.371280" lon="1.637277">
        <ele>996.6</ele>
        <time>2018-06-11T12:28:28Z</time>
      </trkpt>
      <trkpt lat="42.371018" lon="1.636467">
        <ele>993.9</ele>
        <time>2018-06-11T12:28:45Z</time>
      </trkpt>
      <trkpt lat="42.370951" lon="1.635995">
        <ele>995.1</ele>
        <time>2018-06-11T12:28:54Z</time>
      </trkpt>
      <trkpt lat="42.370975" lon="1.635684">
        <ele>997.0</ele>
        <time>2018-06-11T12:29:00Z</time>
      </trkpt>
      <trkpt lat="42.371011" lon="1.635502">
        <ele>997.5</ele>
        <time>2018-06-11T12:29:04Z</time>
      </trkpt>
      <trkpt lat="42.371145" lon="1.635051">
        <ele>996.0</ele>
        <time>2018-06-11T12:29:14Z</time>
      </trkpt>
      <trkpt lat="42.371189" lon="1.634729">
        <ele>995.5</ele>
        <time>2018-06-11T12:29:20Z</time>
      </trkpt>
      <trkpt lat="42.371260" lon="1.634075">
        <ele>986.1</ele>
        <time>2018-06-11T12:29:33Z</time>
      </trkpt>
      <trkpt lat="42.371249" lon="1.632943">
        <ele>979.4</ele>
        <time>2018-06-11T12:29:55Z</time>
      </trkpt>
      <trkpt lat="42.371249" lon="1.632675">
        <ele>975.5</ele>
        <time>2018-06-11T12:30:01Z</time>
      </trkpt>
      <trkpt lat="42.371225" lon="1.632471">
        <ele>972.5</ele>
        <time>2018-06-11T12:30:05Z</time>
      </trkpt>
      <trkpt lat="42.371086" lon="1.631892">
        <ele>974.7</ele>
        <time>2018-06-11T12:30:17Z</time>
      </trkpt>
      <trkpt lat="42.371031" lon="1.631194">
        <ele>971.7</ele>
        <time>2018-06-11T12:30:30Z</time>
      </trkpt>
      <trkpt lat="42.371007" lon="1.630749">
        <ele>970.6</ele>
        <time>2018-06-11T12:30:39Z</time>
      </trkpt>
      <trkpt lat="42.370972" lon="1.630518">
        <ele>969.5</ele>
        <time>2018-06-11T12:30:44Z</time>
      </trkpt>
      <trkpt lat="42.370900" lon="1.630336">
        <ele>971.3</ele>
        <time>2018-06-11T12:30:48Z</time>
      </trkpt>
      <trkpt lat="42.370841" lon="1.630132">
        <ele>973.3</ele>
        <time>2018-06-11T12:30:52Z</time>
      </trkpt>
      <trkpt lat="42.370845" lon="1.630068">
        <ele>972.3</ele>
        <time>2018-06-11T12:30:54Z</time>
      </trkpt>
      <trkpt lat="42.370872" lon="1.630035">
        <ele>969.6</ele>
        <time>2018-06-11T12:30:55Z</time>
      </trkpt>
      <trkpt lat="42.370963" lon="1.630046">
        <ele>961.8</ele>
        <time>2018-06-11T12:30:58Z</time>
      </trkpt>
      <trkpt lat="42.371094" lon="1.630132">
        <ele>957.5</ele>
        <time>2018-06-11T12:31:02Z</time>
      </trkpt>
      <trkpt lat="42.371229" lon="1.630288">
        <ele>954.5</ele>
        <time>2018-06-11T12:31:06Z</time>
      </trkpt>
      <trkpt lat="42.371324" lon="1.630507">
        <ele>954.2</ele>
        <time>2018-06-11T12:31:11Z</time>
      </trkpt>
      <trkpt lat="42.371384" lon="1.630888">
        <ele>954.1</ele>
        <time>2018-06-11T12:31:19Z</time>
      </trkpt>
      <trkpt lat="42.371431" lon="1.631119">
        <ele>954.2</ele>
        <time>2018-06-11T12:31:24Z</time>
      </trkpt>
      <trkpt lat="42.371958" lon="1.632058">
        <ele>948.3</ele>
        <time>2018-06-11T12:31:47Z</time>
      </trkpt>
      <trkpt lat="42.371994" lon="1.632197">
        <ele>948.4</ele>
        <time>2018-06-11T12:31:50Z</time>
      </trkpt>
      <trkpt lat="42.372001" lon="1.632342">
        <ele>949.2</ele>
        <time>2018-06-11T12:31:53Z</time>
      </trkpt>
      <trkpt lat="42.371914" lon="1.633479">
        <ele>951.4</ele>
        <time>2018-06-11T12:32:15Z</time>
      </trkpt>
      <trkpt lat="42.371910" lon="1.633592">
        <ele>952.7</ele>
        <time>2018-06-11T12:32:17Z</time>
      </trkpt>
      <trkpt lat="42.371934" lon="1.633656">
        <ele>952.0</ele>
        <time>2018-06-11T12:32:19Z</time>
      </trkpt>
      <trkpt lat="42.371966" lon="1.633689">
        <ele>950.6</ele>
        <time>2018-06-11T12:32:20Z</time>
      </trkpt>
      <trkpt lat="42.372002" lon="1.633683">
        <ele>948.6</ele>
        <time>2018-06-11T12:32:21Z</time>
      </trkpt>
      <trkpt lat="42.372037" lon="1.633651">
        <ele>946.1</ele>
        <time>2018-06-11T12:32:22Z</time>
      </trkpt>
      <trkpt lat="42.372081" lon="1.633544">
        <ele>942.2</ele>
        <time>2018-06-11T12:32:25Z</time>
      </trkpt>
      <trkpt lat="42.372224" lon="1.633029">
        <ele>933.9</ele>
        <time>2018-06-11T12:32:36Z</time>
      </trkpt>
      <trkpt lat="42.372574" lon="1.632528">
        <ele>931.3</ele>
        <time>2018-06-11T12:32:49Z</time>
      </trkpt>
      <trkpt lat="42.372668" lon="1.632334">
        <ele>933.1</ele>
        <time>2018-06-11T12:32:54Z</time>
      </trkpt>
      <trkpt lat="42.372720" lon="1.632198">
        <ele>933.7</ele>
        <time>2018-06-11T12:32:57Z</time>
      </trkpt>
      <trkpt lat="42.372768" lon="1.632035">
        <ele>933.8</ele>
        <time>2018-06-11T12:33:00Z</time>
      </trkpt>
      <trkpt lat="42.372808" lon="1.631911">
        <ele>932.8</ele>
        <time>2018-06-11T12:33:03Z</time>
      </trkpt>
      <trkpt lat="42.372826" lon="1.631762">
        <ele>931.3</ele>
        <time>2018-06-11T12:33:06Z</time>
      </trkpt>
      <trkpt lat="42.372840" lon="1.631617">
        <ele>928.8</ele>
        <time>2018-06-11T12:33:09Z</time>
      </trkpt>
      <trkpt lat="42.372830" lon="1.631518">
        <ele>927.3</ele>
        <time>2018-06-11T12:33:11Z</time>
      </trkpt>
      <trkpt lat="42.372812" lon="1.631424">
        <ele>925.7</ele>
        <time>2018-06-11T12:33:13Z</time>
      </trkpt>
      <trkpt lat="42.372790" lon="1.631342">
        <ele>924.5</ele>
        <time>2018-06-11T12:33:14Z</time>
      </trkpt>
      <trkpt lat="42.372753" lon="1.631213">
        <ele>923.3</ele>
        <time>2018-06-11T12:33:17Z</time>
      </trkpt>
      <trkpt lat="42.372695" lon="1.631028">
        <ele>923.3</ele>
        <time>2018-06-11T12:33:21Z</time>
      </trkpt>
      <trkpt lat="42.372653" lon="1.630884">
        <ele>924.1</ele>
        <time>2018-06-11T12:33:24Z</time>
      </trkpt>
      <trkpt lat="42.372618" lon="1.630763">
        <ele>924.5</ele>
        <time>2018-06-11T12:33:26Z</time>
      </trkpt>
      <trkpt lat="42.372563" lon="1.630341">
        <ele>924.0</ele>
        <time>2018-06-11T12:33:35Z</time>
      </trkpt>
      <trkpt lat="42.372535" lon="1.629736">
        <ele>920.2</ele>
        <time>2018-06-11T12:33:47Z</time>
      </trkpt>
      <trkpt lat="42.372497" lon="1.629293">
        <ele>915.9</ele>
        <time>2018-06-11T12:33:56Z</time>
      </trkpt>
      <trkpt lat="42.372372" lon="1.628610">
        <ele>906.6</ele>
        <time>2018-06-11T12:34:09Z</time>
      </trkpt>
      <trkpt lat="42.372348" lon="1.628459">
        <ele>905.3</ele>
        <time>2018-06-11T12:34:13Z</time>
      </trkpt>
      <trkpt lat="42.372356" lon="1.628376">
        <ele>904.4</ele>
        <time>2018-06-11T12:34:14Z</time>
      </trkpt>
      <trkpt lat="42.372370" lon="1.628331">
        <ele>903.7</ele>
        <time>2018-06-11T12:34:15Z</time>
      </trkpt>
      <trkpt lat="42.372408" lon="1.628272">
        <ele>902.4</ele>
        <time>2018-06-11T12:34:17Z</time>
      </trkpt>
      <trkpt lat="42.372444" lon="1.628253">
        <ele>901.4</ele>
        <time>2018-06-11T12:34:18Z</time>
      </trkpt>
      <trkpt lat="42.372558" lon="1.628269">
        <ele>898.7</ele>
        <time>2018-06-11T12:34:21Z</time>
      </trkpt>
      <trkpt lat="42.372604" lon="1.628239">
        <ele>897.6</ele>
        <time>2018-06-11T12:34:22Z</time>
      </trkpt>
      <trkpt lat="42.372646" lon="1.628215">
        <ele>896.6</ele>
        <time>2018-06-11T12:34:23Z</time>
      </trkpt>
      <trkpt lat="42.372685" lon="1.628138">
        <ele>895.6</ele>
        <time>2018-06-11T12:34:25Z</time>
      </trkpt>
      <trkpt lat="42.372705" lon="1.628056">
        <ele>895.5</ele>
        <time>2018-06-11T12:34:27Z</time>
      </trkpt>
      <trkpt lat="42.372698" lon="1.627742">
        <ele>898.3</ele>
        <time>2018-06-11T12:34:33Z</time>
      </trkpt>
      <trkpt lat="42.372692" lon="1.626718">
        <ele>898.5</ele>
        <time>2018-06-11T12:34:53Z</time>
      </trkpt>
      <trkpt lat="42.372694" lon="1.626686">
        <ele>898.1</ele>
        <time>2018-06-11T12:34:54Z</time>
      </trkpt>
      <trkpt lat="42.372702" lon="1.626657">
        <ele>897.5</ele>
        <time>2018-06-11T12:34:54Z</time>
      </trkpt>
      <trkpt lat="42.372713" lon="1.626646">
        <ele>896.8</ele>
        <time>2018-06-11T12:34:55Z</time>
      </trkpt>
      <trkpt lat="42.372726" lon="1.626660">
        <ele>896.3</ele>
        <time>2018-06-11T12:34:55Z</time>
      </trkpt>
      <trkpt lat="42.372734" lon="1.626677">
        <ele>895.9</ele>
        <time>2018-06-11T12:34:56Z</time>
      </trkpt>
      <trkpt lat="42.372753" lon="1.626735">
        <ele>895.3</ele>
        <time>2018-06-11T12:34:57Z</time>
      </trkpt>
      <trkpt lat="42.372791" lon="1.626903">
        <ele>894.3</ele>
        <time>2018-06-11T12:35:00Z</time>
      </trkpt>
      <trkpt lat="42.372850" lon="1.627200">
        <ele>892.0</ele>
        <time>2018-06-11T12:35:06Z</time>
      </trkpt>
      <trkpt lat="42.372909" lon="1.627591">
        <ele>888.4</ele>
        <time>2018-06-11T12:35:14Z</time>
      </trkpt>
      <trkpt lat="42.372947" lon="1.627774">
        <ele>886.3</ele>
        <time>2018-06-11T12:35:18Z</time>
      </trkpt>
      <trkpt lat="42.372978" lon="1.627925">
        <ele>884.3</ele>
        <time>2018-06-11T12:35:21Z</time>
      </trkpt>
      <trkpt lat="42.372991" lon="1.628054">
        <ele>882.9</ele>
        <time>2018-06-11T12:35:24Z</time>
      </trkpt>
      <trkpt lat="42.373002" lon="1.628109">
        <ele>882.1</ele>
        <time>2018-06-11T12:35:25Z</time>
      </trkpt>
      <trkpt lat="42.373012" lon="1.628134">
        <ele>881.6</ele>
        <time>2018-06-11T12:35:25Z</time>
      </trkpt>
      <trkpt lat="42.373024" lon="1.628141">
        <ele>881.1</ele>
        <time>2018-06-11T12:35:26Z</time>
      </trkpt>
      <trkpt lat="42.373037" lon="1.628139">
        <ele>880.5</ele>
        <time>2018-06-11T12:35:26Z</time>
      </trkpt>
      <trkpt lat="42.373043" lon="1.628118">
        <ele>880.4</ele>
        <time>2018-06-11T12:35:27Z</time>
      </trkpt>
      <trkpt lat="42.373051" lon="1.628053">
        <ele>880.4</ele>
        <time>2018-06-11T12:35:28Z</time>
      </trkpt>
      <trkpt lat="42.373102" lon="1.627879">
        <ele>879.3</ele>
        <time>2018-06-11T12:35:32Z</time>
      </trkpt>
      <trkpt lat="42.373164" lon="1.627556">
        <ele>879.1</ele>
        <time>2018-06-11T12:35:38Z</time>
      </trkpt>
      <trkpt lat="42.373188" lon="1.627429">
        <ele>878.2</ele>
        <time>2018-06-11T12:35:41Z</time>
      </trkpt>
      <trkpt lat="42.373198" lon="1.627369">
        <ele>877.8</ele>
        <time>2018-06-11T12:35:42Z</time>
      </trkpt>
      <trkpt lat="42.373216" lon="1.627342">
        <ele>876.9</ele>
        <time>2018-06-11T12:35:43Z</time>
      </trkpt>
      <trkpt lat="42.373236" lon="1.627355">
        <ele>876.2</ele>
        <time>2018-06-11T12:35:43Z</time>
      </trkpt>
      <trkpt lat="42.373255" lon="1.627396">
        <ele>875.3</ele>
        <time>2018-06-11T12:35:44Z</time>
      </trkpt>
      <trkpt lat="42.373257" lon="1.627403">
        <ele>875.2</ele>
        <time>2018-06-11T12:35:44Z</time>
      </trkpt>
      <trkpt lat="42.373265" lon="1.627478">
        <ele>874.8</ele>
        <time>2018-06-11T12:35:46Z</time>
      </trkpt>
      <trkpt lat="42.373265" lon="1.627483">
        <ele>874.8</ele>
        <time>2018-06-11T12:35:46Z</time>
      </trkpt>
      <trkpt lat="42.373261" lon="1.627575">
        <ele>874.9</ele>
        <time>2018-06-11T12:35:48Z</time>
      </trkpt>
      <trkpt lat="42.373250" lon="1.627668">
        <ele>875.1</ele>
        <time>2018-06-11T12:35:50Z</time>
      </trkpt>
      <trkpt lat="42.373260" lon="1.627788">
        <ele>873.6</ele>
        <time>2018-06-11T12:35:52Z</time>
      </trkpt>
      <trkpt lat="42.373269" lon="1.627825">
        <ele>872.9</ele>
        <time>2018-06-11T12:35:53Z</time>
      </trkpt>
      <trkpt lat="42.373290" lon="1.627870">
        <ele>871.6</ele>
        <time>2018-06-11T12:35:54Z</time>
      </trkpt>
      <trkpt lat="42.373317" lon="1.627871">
        <ele>870.5</ele>
        <time>2018-06-11T12:35:55Z</time>
      </trkpt>
      <trkpt lat="42.373332" lon="1.627850">
        <ele>870.0</ele>
        <time>2018-06-11T12:35:55Z</time>
      </trkpt>
      <trkpt lat="42.373346" lon="1.627814">
        <ele>869.7</ele>
        <time>2018-06-11T12:35:56Z</time>
      </trkpt>
      <trkpt lat="42.373377" lon="1.627681">
        <ele>869.2</ele>
        <time>2018-06-11T12:35:59Z</time>
      </trkpt>
      <trkpt lat="42.373408" lon="1.627511">
        <ele>868.4</ele>
        <time>2018-06-11T12:36:02Z</time>
      </trkpt>
      <trkpt lat="42.373408" lon="1.627390">
        <ele>868.7</ele>
        <time>2018-06-11T12:36:05Z</time>
      </trkpt>
      <trkpt lat="42.373380" lon="1.627254">
        <ele>869.7</ele>
        <time>2018-06-11T12:36:07Z</time>
      </trkpt>
      <trkpt lat="42.373325" lon="1.627074">
        <ele>871.3</ele>
        <time>2018-06-11T12:36:11Z</time>
      </trkpt>
      <trkpt lat="42.373265" lon="1.626772">
        <ele>871.6</ele>
        <time>2018-06-11T12:36:17Z</time>
      </trkpt>
      <trkpt lat="42.373196" lon="1.626387">
        <ele>869.0</ele>
        <time>2018-06-11T12:36:25Z</time>
      </trkpt>
      <trkpt lat="42.373145" lon="1.626054">
        <ele>868.9</ele>
        <time>2018-06-11T12:36:32Z</time>
      </trkpt>
      <trkpt lat="42.373024" lon="1.625218">
        <ele>869.5</ele>
        <time>2018-06-11T12:36:48Z</time>
      </trkpt>
      <trkpt lat="42.372956" lon="1.624502">
        <ele>867.9</ele>
        <time>2018-06-11T12:37:02Z</time>
      </trkpt>
      <trkpt lat="42.372989" lon="1.624022">
        <ele>865.7</ele>
        <time>2018-06-11T12:37:12Z</time>
      </trkpt>
      <trkpt lat="42.373074" lon="1.623485">
        <ele>865.3</ele>
        <time>2018-06-11T12:37:23Z</time>
      </trkpt>
      <trkpt lat="42.373122" lon="1.623130">
        <ele>863.3</ele>
        <time>2018-06-11T12:37:30Z</time>
      </trkpt>
      <trkpt lat="42.373117" lon="1.622763">
        <ele>862.9</ele>
        <time>2018-06-11T12:37:37Z</time>
      </trkpt>
      <trkpt lat="42.373152" lon="1.622282">
        <ele>857.4</ele>
        <time>2018-06-11T12:37:46Z</time>
      </trkpt>
      <trkpt lat="42.373110" lon="1.622016">
        <ele>856.8</ele>
        <time>2018-06-11T12:37:52Z</time>
      </trkpt>
      <trkpt lat="42.373044" lon="1.621825">
        <ele>857.0</ele>
        <time>2018-06-11T12:37:56Z</time>
      </trkpt>
      <trkpt lat="42.372912" lon="1.621604">
        <ele>857.2</ele>
        <time>2018-06-11T12:38:01Z</time>
      </trkpt>
      <trkpt lat="42.372663" lon="1.621275">
        <ele>860.0</ele>
        <time>2018-06-11T12:38:11Z</time>
      </trkpt>
      <trkpt lat="42.372490" lon="1.621012">
        <ele>860.9</ele>
        <time>2018-06-11T12:38:18Z</time>
      </trkpt>
      <trkpt lat="42.372280" lon="1.620619">
        <ele>858.8</ele>
        <time>2018-06-11T12:38:27Z</time>
      </trkpt>
      <trkpt lat="42.372171" lon="1.620363">
        <ele>856.1</ele>
        <time>2018-06-11T12:38:33Z</time>
      </trkpt>
      <trkpt lat="42.371891" lon="1.619724">
        <ele>850.5</ele>
        <time>2018-06-11T12:38:47Z</time>
      </trkpt>
      <trkpt lat="42.371720" lon="1.619398">
        <ele>848.5</ele>
        <time>2018-06-11T12:38:55Z</time>
      </trkpt>
      <trkpt lat="42.371629" lon="1.619240">
        <ele>847.9</ele>
        <time>2018-06-11T12:38:59Z</time>
      </trkpt>
      <trkpt lat="42.371605" lon="1.619168">
        <ele>847.9</ele>
        <time>2018-06-11T12:39:01Z</time>
      </trkpt>
      <trkpt lat="42.371606" lon="1.619120">
        <ele>847.6</ele>
        <time>2018-06-11T12:39:02Z</time>
      </trkpt>
      <trkpt lat="42.371636" lon="1.619082">
        <ele>847.1</ele>
        <time>2018-06-11T12:39:03Z</time>
      </trkpt>
      <trkpt lat="42.371682" lon="1.619052">
        <ele>846.4</ele>
        <time>2018-06-11T12:39:04Z</time>
      </trkpt>
      <trkpt lat="42.371880" lon="1.618902">
        <ele>845.0</ele>
        <time>2018-06-11T12:39:10Z</time>
      </trkpt>
      <trkpt lat="42.371991" lon="1.618808">
        <ele>845.4</ele>
        <time>2018-06-11T12:39:14Z</time>
      </trkpt>
      <trkpt lat="42.372035" lon="1.618738">
        <ele>846.0</ele>
        <time>2018-06-11T12:39:15Z</time>
      </trkpt>
      <trkpt lat="42.372024" lon="1.618680">
        <ele>846.7</ele>
        <time>2018-06-11T12:39:17Z</time>
      </trkpt>
      <trkpt lat="42.371985" lon="1.618601">
        <ele>847.4</ele>
        <time>2018-06-11T12:39:18Z</time>
      </trkpt>
      <trkpt lat="42.371876" lon="1.618275">
        <ele>850.1</ele>
        <time>2018-06-11T12:39:26Z</time>
      </trkpt>
      <trkpt lat="42.371769" lon="1.618022">
        <ele>850.4</ele>
        <time>2018-06-11T12:39:31Z</time>
      </trkpt>
      <trkpt lat="42.371696" lon="1.617781">
        <ele>851.9</ele>
        <time>2018-06-11T12:39:36Z</time>
      </trkpt>
      <trkpt lat="42.371640" lon="1.617612">
        <ele>851.9</ele>
        <time>2018-06-11T12:39:40Z</time>
      </trkpt>
      <trkpt lat="42.371541" lon="1.617359">
        <ele>849.6</ele>
        <time>2018-06-11T12:39:46Z</time>
      </trkpt>
      <trkpt lat="42.371457" lon="1.617161">
        <ele>849.2</ele>
        <time>2018-06-11T12:39:50Z</time>
      </trkpt>
      <trkpt lat="42.371413" lon="1.616992">
        <ele>848.7</ele>
        <time>2018-06-11T12:39:54Z</time>
      </trkpt>
      <trkpt lat="42.371377" lon="1.616833">
        <ele>847.9</ele>
        <time>2018-06-11T12:39:57Z</time>
      </trkpt>
      <trkpt lat="42.371325" lon="1.616639">
        <ele>846.9</ele>
        <time>2018-06-11T12:40:01Z</time>
      </trkpt>
      <trkpt lat="42.371298" lon="1.616578">
        <ele>845.7</ele>
        <time>2018-06-11T12:40:02Z</time>
      </trkpt>
      <trkpt lat="42.371252" lon="1.616494">
        <ele>843.4</ele>
        <time>2018-06-11T12:40:04Z</time>
      </trkpt>
      <trkpt lat="42.371217" lon="1.616391">
        <ele>843.5</ele>
        <time>2018-06-11T12:40:07Z</time>
      </trkpt>
      <trkpt lat="42.371153" lon="1.616122">
        <ele>844.5</ele>
        <time>2018-06-11T12:40:12Z</time>
      </trkpt>
      <trkpt lat="42.371099" lon="1.615889">
        <ele>844.7</ele>
        <time>2018-06-11T12:40:17Z</time>
      </trkpt>
      <trkpt lat="42.371074" lon="1.615674">
        <ele>845.1</ele>
        <time>2018-06-11T12:40:21Z</time>
      </trkpt>
      <trkpt lat="42.371052" lon="1.615531">
        <ele>844.8</ele>
        <time>2018-06-11T12:40:24Z</time>
      </trkpt>
      <trkpt lat="42.370988" lon="1.615326">
        <ele>842.9</ele>
        <time>2018-06-11T12:40:28Z</time>
      </trkpt>
      <trkpt lat="42.370887" lon="1.615081">
        <ele>842.4</ele>
        <time>2018-06-11T12:40:34Z</time>
      </trkpt>
      <trkpt lat="42.370815" lon="1.614874">
        <ele>842.1</ele>
        <time>2018-06-11T12:40:38Z</time>
      </trkpt>
      <trkpt lat="42.370771" lon="1.614748">
        <ele>841.9</ele>
        <time>2018-06-11T12:40:41Z</time>
      </trkpt>
      <trkpt lat="42.370741" lon="1.614580">
        <ele>842.0</ele>
        <time>2018-06-11T12:40:44Z</time>
      </trkpt>
      <trkpt lat="42.370687" lon="1.614378">
        <ele>840.9</ele>
        <time>2018-06-11T12:40:49Z</time>
      </trkpt>
      <trkpt lat="42.370609" lon="1.614139">
        <ele>840.8</ele>
        <time>2018-06-11T12:40:54Z</time>
      </trkpt>
      <trkpt lat="42.370494" lon="1.613796">
        <ele>840.5</ele>
        <time>2018-06-11T12:41:01Z</time>
      </trkpt>
      <trkpt lat="42.370437" lon="1.613591">
        <ele>838.9</ele>
        <time>2018-06-11T12:41:05Z</time>
      </trkpt>
      <trkpt lat="42.370402" lon="1.613462">
        <ele>837.8</ele>
        <time>2018-06-11T12:41:08Z</time>
      </trkpt>
      <trkpt lat="42.370376" lon="1.613363">
        <ele>836.7</ele>
        <time>2018-06-11T12:41:10Z</time>
      </trkpt>
      <trkpt lat="42.370365" lon="1.613279">
        <ele>835.7</ele>
        <time>2018-06-11T12:41:12Z</time>
      </trkpt>
      <trkpt lat="42.370365" lon="1.613210">
        <ele>835.0</ele>
        <time>2018-06-11T12:41:13Z</time>
      </trkpt>
      <trkpt lat="42.370392" lon="1.613110">
        <ele>834.0</ele>
        <time>2018-06-11T12:41:15Z</time>
      </trkpt>
      <trkpt lat="42.370418" lon="1.613029">
        <ele>833.3</ele>
        <time>2018-06-11T12:41:17Z</time>
      </trkpt>
      <trkpt lat="42.370463" lon="1.612981">
        <ele>834.3</ele>
        <time>2018-06-11T12:41:19Z</time>
      </trkpt>
      <trkpt lat="42.370515" lon="1.612949">
        <ele>835.9</ele>
        <time>2018-06-11T12:41:20Z</time>
      </trkpt>
      <trkpt lat="42.370560" lon="1.612902">
        <ele>837.0</ele>
        <time>2018-06-11T12:41:22Z</time>
      </trkpt>
      <trkpt lat="42.370604" lon="1.612859">
        <ele>838.2</ele>
        <time>2018-06-11T12:41:23Z</time>
      </trkpt>
      <trkpt lat="42.370655" lon="1.612807">
        <ele>839.5</ele>
        <time>2018-06-11T12:41:25Z</time>
      </trkpt>
      <trkpt lat="42.370676" lon="1.612757">
        <ele>839.6</ele>
        <time>2018-06-11T12:41:26Z</time>
      </trkpt>
      <trkpt lat="42.370668" lon="1.612695">
        <ele>838.7</ele>
        <time>2018-06-11T12:41:27Z</time>
      </trkpt>
      <trkpt lat="42.370649" lon="1.612613">
        <ele>837.3</ele>
        <time>2018-06-11T12:41:29Z</time>
      </trkpt>
      <trkpt lat="42.370634" lon="1.612524">
        <ele>836.0</ele>
        <time>2018-06-11T12:41:31Z</time>
      </trkpt>
      <trkpt lat="42.370626" lon="1.612430">
        <ele>834.9</ele>
        <time>2018-06-11T12:41:33Z</time>
      </trkpt>
      <trkpt lat="42.370632" lon="1.612345">
        <ele>834.4</ele>
        <time>2018-06-11T12:41:34Z</time>
      </trkpt>
      <trkpt lat="42.370652" lon="1.612261">
        <ele>834.3</ele>
        <time>2018-06-11T12:41:36Z</time>
      </trkpt>
      <trkpt lat="42.370675" lon="1.612158">
        <ele>834.1</ele>
        <time>2018-06-11T12:41:38Z</time>
      </trkpt>
      <trkpt lat="42.370732" lon="1.611982">
        <ele>833.4</ele>
        <time>2018-06-11T12:41:42Z</time>
      </trkpt>
      <trkpt lat="42.370797" lon="1.611814">
        <ele>832.4</ele>
        <time>2018-06-11T12:41:46Z</time>
      </trkpt>
      <trkpt lat="42.370911" lon="1.611579">
        <ele>829.2</ele>
        <time>2018-06-11T12:41:51Z</time>
      </trkpt>
      <trkpt lat="42.371133" lon="1.611250">
        <ele>828.5</ele>
        <time>2018-06-11T12:42:00Z</time>
      </trkpt>
      <trkpt lat="42.371193" lon="1.611169">
        <ele>829.5</ele>
        <time>2018-06-11T12:42:02Z</time>
      </trkpt>
      <trkpt lat="42.371279" lon="1.610954">
        <ele>831.4</ele>
        <time>2018-06-11T12:42:07Z</time>
      </trkpt>
      <trkpt lat="42.371400" lon="1.610600">
        <ele>836.1</ele>
        <time>2018-06-11T12:42:15Z</time>
      </trkpt>
      <trkpt lat="42.371479" lon="1.610187">
        <ele>836.3</ele>
        <time>2018-06-11T12:42:23Z</time>
      </trkpt>
      <trkpt lat="42.371541" lon="1.610015">
        <ele>836.7</ele>
        <time>2018-06-11T12:42:27Z</time>
      </trkpt>
      <trkpt lat="42.371607" lon="1.609799">
        <ele>837.3</ele>
        <time>2018-06-11T12:42:31Z</time>
      </trkpt>
      <trkpt lat="42.371702" lon="1.609559">
        <ele>837.9</ele>
        <time>2018-06-11T12:42:37Z</time>
      </trkpt>
      <trkpt lat="42.371762" lon="1.609454">
        <ele>838.9</ele>
        <time>2018-06-11T12:42:39Z</time>
      </trkpt>
      <trkpt lat="42.371791" lon="1.609407">
        <ele>839.4</ele>
        <time>2018-06-11T12:42:41Z</time>
      </trkpt>
      <trkpt lat="42.371805" lon="1.609372">
        <ele>839.5</ele>
        <time>2018-06-11T12:42:41Z</time>
      </trkpt>
      <trkpt lat="42.371808" lon="1.609321">
        <ele>839.2</ele>
        <time>2018-06-11T12:42:42Z</time>
      </trkpt>
      <trkpt lat="42.371804" lon="1.609274">
        <ele>838.7</ele>
        <time>2018-06-11T12:42:43Z</time>
      </trkpt>
      <trkpt lat="42.371789" lon="1.609233">
        <ele>838.1</ele>
        <time>2018-06-11T12:42:44Z</time>
      </trkpt>
      <trkpt lat="42.371767" lon="1.609180">
        <ele>837.3</ele>
        <time>2018-06-11T12:42:45Z</time>
      </trkpt>
      <trkpt lat="42.371754" lon="1.609132">
        <ele>836.7</ele>
        <time>2018-06-11T12:42:46Z</time>
      </trkpt>
      <trkpt lat="42.371741" lon="1.609046">
        <ele>835.9</ele>
        <time>2018-06-11T12:42:48Z</time>
      </trkpt>
      <trkpt lat="42.371738" lon="1.608924">
        <ele>834.8</ele>
        <time>2018-06-11T12:42:51Z</time>
      </trkpt>
      <trkpt lat="42.371755" lon="1.608807">
        <ele>834.0</ele>
        <time>2018-06-11T12:42:53Z</time>
      </trkpt>
      <trkpt lat="42.371776" lon="1.608658">
        <ele>832.5</ele>
        <time>2018-06-11T12:42:56Z</time>
      </trkpt>
      <trkpt lat="42.371812" lon="1.608478">
        <ele>830.3</ele>
        <time>2018-06-11T12:43:00Z</time>
      </trkpt>
      <trkpt lat="42.371828" lon="1.608393">
        <ele>830.3</ele>
        <time>2018-06-11T12:43:01Z</time>
      </trkpt>
      <trkpt lat="42.371851" lon="1.608303">
        <ele>830.5</ele>
        <time>2018-06-11T12:43:03Z</time>
      </trkpt>
      <trkpt lat="42.371878" lon="1.608254">
        <ele>830.9</ele>
        <time>2018-06-11T12:43:04Z</time>
      </trkpt>
      <trkpt lat="42.371919" lon="1.608201">
        <ele>831.5</ele>
        <time>2018-06-11T12:43:06Z</time>
      </trkpt>
      <trkpt lat="42.371942" lon="1.608180">
        <ele>831.9</ele>
        <time>2018-06-11T12:43:07Z</time>
      </trkpt>
      <trkpt lat="42.371966" lon="1.608141">
        <ele>832.3</ele>
        <time>2018-06-11T12:43:08Z</time>
      </trkpt>
      <trkpt lat="42.371980" lon="1.608115">
        <ele>832.5</ele>
        <time>2018-06-11T12:43:08Z</time>
      </trkpt>
      <trkpt lat="42.371978" lon="1.608071">
        <ele>832.3</ele>
        <time>2018-06-11T12:43:09Z</time>
      </trkpt>
      <trkpt lat="42.371956" lon="1.608013">
        <ele>831.6</ele>
        <time>2018-06-11T12:43:10Z</time>
      </trkpt>
      <trkpt lat="42.371928" lon="1.607935">
        <ele>830.7</ele>
        <time>2018-06-11T12:43:12Z</time>
      </trkpt>
      <trkpt lat="42.371895" lon="1.607830">
        <ele>829.9</ele>
        <time>2018-06-11T12:43:14Z</time>
      </trkpt>
      <trkpt lat="42.371871" lon="1.607734">
        <ele>829.4</ele>
        <time>2018-06-11T12:43:16Z</time>
      </trkpt>
      <trkpt lat="42.371868" lon="1.607650">
        <ele>829.4</ele>
        <time>2018-06-11T12:43:18Z</time>
      </trkpt>
      <trkpt lat="42.371874" lon="1.607604">
        <ele>829.3</ele>
        <time>2018-06-11T12:43:19Z</time>
      </trkpt>
      <trkpt lat="42.371882" lon="1.607516">
        <ele>829.3</ele>
        <time>2018-06-11T12:43:21Z</time>
      </trkpt>
      <trkpt lat="42.371891" lon="1.607420">
        <ele>829.2</ele>
        <time>2018-06-11T12:43:22Z</time>
      </trkpt>
      <trkpt lat="42.371922" lon="1.607270">
        <ele>830.7</ele>
        <time>2018-06-11T12:43:26Z</time>
      </trkpt>
      <trkpt lat="42.371955" lon="1.607051">
        <ele>833.1</ele>
        <time>2018-06-11T12:43:30Z</time>
      </trkpt>
      <trkpt lat="42.371964" lon="1.606947">
        <ele>834.1</ele>
        <time>2018-06-11T12:43:32Z</time>
      </trkpt>
      <trkpt lat="42.371964" lon="1.606872">
        <ele>834.6</ele>
        <time>2018-06-11T12:43:33Z</time>
      </trkpt>
      <trkpt lat="42.371954" lon="1.606773">
        <ele>834.8</ele>
        <time>2018-06-11T12:43:35Z</time>
      </trkpt>
      <trkpt lat="42.371920" lon="1.606582">
        <ele>835.2</ele>
        <time>2018-06-11T12:43:39Z</time>
      </trkpt>
      <trkpt lat="42.371887" lon="1.606422">
        <ele>835.6</ele>
        <time>2018-06-11T12:43:43Z</time>
      </trkpt>
      <trkpt lat="42.371873" lon="1.606258">
        <ele>837.0</ele>
        <time>2018-06-11T12:43:46Z</time>
      </trkpt>
      <trkpt lat="42.371836" lon="1.605991">
        <ele>837.0</ele>
        <time>2018-06-11T12:43:51Z</time>
      </trkpt>
      <trkpt lat="42.371786" lon="1.605761">
        <ele>835.7</ele>
        <time>2018-06-11T12:43:56Z</time>
      </trkpt>
      <trkpt lat="42.371748" lon="1.605611">
        <ele>835.0</ele>
        <time>2018-06-11T12:43:59Z</time>
      </trkpt>
      <trkpt lat="42.371551" lon="1.604979">
        <ele>827.0</ele>
        <time>2018-06-11T12:44:12Z</time>
      </trkpt>
      <trkpt lat="42.371507" lon="1.604737">
        <ele>826.2</ele>
        <time>2018-06-11T12:44:17Z</time>
      </trkpt>
      <trkpt lat="42.371470" lon="1.604407">
        <ele>827.5</ele>
        <time>2018-06-11T12:44:24Z</time>
      </trkpt>
      <trkpt lat="42.371448" lon="1.604173">
        <ele>827.5</ele>
        <time>2018-06-11T12:44:28Z</time>
      </trkpt>
      <trkpt lat="42.371447" lon="1.603991">
        <ele>827.1</ele>
        <time>2018-06-11T12:44:32Z</time>
      </trkpt>
      <trkpt lat="42.371470" lon="1.603797">
        <ele>827.4</ele>
        <time>2018-06-11T12:44:36Z</time>
      </trkpt>
      <trkpt lat="42.371524" lon="1.603651">
        <ele>827.6</ele>
        <time>2018-06-11T12:44:39Z</time>
      </trkpt>
      <trkpt lat="42.371538" lon="1.603581">
        <ele>827.7</ele>
        <time>2018-06-11T12:44:40Z</time>
      </trkpt>
      <trkpt lat="42.371543" lon="1.603281">
        <ele>827.3</ele>
        <time>2018-06-11T12:44:46Z</time>
      </trkpt>
      <trkpt lat="42.371569" lon="1.602987">
        <ele>828.3</ele>
        <time>2018-06-11T12:44:52Z</time>
      </trkpt>
      <trkpt lat="42.371606" lon="1.602772">
        <ele>828.8</ele>
        <time>2018-06-11T12:44:56Z</time>
      </trkpt>
      <trkpt lat="42.371626" lon="1.602616">
        <ele>829.0</ele>
        <time>2018-06-11T12:45:00Z</time>
      </trkpt>
      <trkpt lat="42.371630" lon="1.602531">
        <ele>829.0</ele>
        <time>2018-06-11T12:45:01Z</time>
      </trkpt>
      <trkpt lat="42.371622" lon="1.602442">
        <ele>828.8</ele>
        <time>2018-06-11T12:45:03Z</time>
      </trkpt>
      <trkpt lat="42.371581" lon="1.602268">
        <ele>828.2</ele>
        <time>2018-06-11T12:45:07Z</time>
      </trkpt>
      <trkpt lat="42.371512" lon="1.602158">
        <ele>827.3</ele>
        <time>2018-06-11T12:45:09Z</time>
      </trkpt>
      <trkpt lat="42.371448" lon="1.602083">
        <ele>826.0</ele>
        <time>2018-06-11T12:45:12Z</time>
      </trkpt>
      <trkpt lat="42.371424" lon="1.601959">
        <ele>825.4</ele>
        <time>2018-06-11T12:45:14Z</time>
      </trkpt>
      <trkpt lat="42.371422" lon="1.601797">
        <ele>825.4</ele>
        <time>2018-06-11T12:45:17Z</time>
      </trkpt>
      <trkpt lat="42.371422" lon="1.601552">
        <ele>827.4</ele>
        <time>2018-06-11T12:45:22Z</time>
      </trkpt>
      <trkpt lat="42.371391" lon="1.601246">
        <ele>830.7</ele>
        <time>2018-06-11T12:45:28Z</time>
      </trkpt>
      <trkpt lat="42.371304" lon="1.600778">
        <ele>830.9</ele>
        <time>2018-06-11T12:45:38Z</time>
      </trkpt>
      <trkpt lat="42.371270" lon="1.600589">
        <ele>830.5</ele>
        <time>2018-06-11T12:45:41Z</time>
      </trkpt>
      <trkpt lat="42.371155" lon="1.600159">
        <ele>831.6</ele>
        <time>2018-06-11T12:45:50Z</time>
      </trkpt>
      <trkpt lat="42.370872" lon="1.599246">
        <ele>832.5</ele>
        <time>2018-06-11T12:46:10Z</time>
      </trkpt>
      <trkpt lat="42.370727" lon="1.598855">
        <ele>830.6</ele>
        <time>2018-06-11T12:46:18Z</time>
      </trkpt>
      <trkpt lat="42.370576" lon="1.598535">
        <ele>831.0</ele>
        <time>2018-06-11T12:46:26Z</time>
      </trkpt>
      <trkpt lat="42.370517" lon="1.598435">
        <ele>832.4</ele>
        <time>2018-06-11T12:46:28Z</time>
      </trkpt>
      <trkpt lat="42.370445" lon="1.598360">
        <ele>833.8</ele>
        <time>2018-06-11T12:46:31Z</time>
      </trkpt>
      <trkpt lat="42.370265" lon="1.598216">
        <ele>835.5</ele>
        <time>2018-06-11T12:46:36Z</time>
      </trkpt>
      <trkpt lat="42.370006" lon="1.598040">
        <ele>837.2</ele>
        <time>2018-06-11T12:46:44Z</time>
      </trkpt>
      <trkpt lat="42.369705" lon="1.597795">
        <ele>835.5</ele>
        <time>2018-06-11T12:46:53Z</time>
      </trkpt>
      <trkpt lat="42.369454" lon="1.597555">
        <ele>832.8</ele>
        <time>2018-06-11T12:47:01Z</time>
      </trkpt>
      <trkpt lat="42.369316" lon="1.597409">
        <ele>830.9</ele>
        <time>2018-06-11T12:47:06Z</time>
      </trkpt>
      <trkpt lat="42.369249" lon="1.597298">
        <ele>830.9</ele>
        <time>2018-06-11T12:47:09Z</time>
      </trkpt>
      <trkpt lat="42.369165" lon="1.597138">
        <ele>831.4</ele>
        <time>2018-06-11T12:47:13Z</time>
      </trkpt>
      <trkpt lat="42.368968" lon="1.596765">
        <ele>830.6</ele>
        <time>2018-06-11T12:47:22Z</time>
      </trkpt>
      <trkpt lat="42.368828" lon="1.596408">
        <ele>830.1</ele>
        <time>2018-06-11T12:47:30Z</time>
      </trkpt>
      <trkpt lat="42.368731" lon="1.596083">
        <ele>829.1</ele>
        <time>2018-06-11T12:47:36Z</time>
      </trkpt>
      <trkpt lat="42.368699" lon="1.595903">
        <ele>828.4</ele>
        <time>2018-06-11T12:47:40Z</time>
      </trkpt>
      <trkpt lat="42.368681" lon="1.595715">
        <ele>827.3</ele>
        <time>2018-06-11T12:47:44Z</time>
      </trkpt>
      <trkpt lat="42.368663" lon="1.595171">
        <ele>823.4</ele>
        <time>2018-06-11T12:47:55Z</time>
      </trkpt>
      <trkpt lat="42.368637" lon="1.594250">
        <ele>817.7</ele>
        <time>2018-06-11T12:48:13Z</time>
      </trkpt>
      <trkpt lat="42.368552" lon="1.593464">
        <ele>812.1</ele>
        <time>2018-06-11T12:48:28Z</time>
      </trkpt>
      <trkpt lat="42.368482" lon="1.592783">
        <ele>811.3</ele>
        <time>2018-06-11T12:48:42Z</time>
      </trkpt>
      <trkpt lat="42.368413" lon="1.592422">
        <ele>814.3</ele>
        <time>2018-06-11T12:48:49Z</time>
      </trkpt>
      <trkpt lat="42.368298" lon="1.592003">
        <ele>814.4</ele>
        <time>2018-06-11T12:48:58Z</time>
      </trkpt>
      <trkpt lat="42.368121" lon="1.591523">
        <ele>809.2</ele>
        <time>2018-06-11T12:49:08Z</time>
      </trkpt>
      <trkpt lat="42.367716" lon="1.590593">
        <ele>807.7</ele>
        <time>2018-06-11T12:49:29Z</time>
      </trkpt>
      <trkpt lat="42.367243" lon="1.589479">
        <ele>804.8</ele>
        <time>2018-06-11T12:49:55Z</time>
      </trkpt>
      <trkpt lat="42.366935" lon="1.588782">
        <ele>801.9</ele>
        <time>2018-06-11T12:50:10Z</time>
      </trkpt>
      <trkpt lat="42.366773" lon="1.588516">
        <ele>803.1</ele>
        <time>2018-06-11T12:50:17Z</time>
      </trkpt>
      <trkpt lat="42.366595" lon="1.588298">
        <ele>805.8</ele>
        <time>2018-06-11T12:50:24Z</time>
      </trkpt>
      <trkpt lat="42.366383" lon="1.588100">
        <ele>806.6</ele>
        <time>2018-06-11T12:50:30Z</time>
      </trkpt>
      <trkpt lat="42.366093" lon="1.587954">
        <ele>806.3</ele>
        <time>2018-06-11T12:50:39Z</time>
      </trkpt>
      <trkpt lat="42.365826" lon="1.587885">
        <ele>804.9</ele>
        <time>2018-06-11T12:50:46Z</time>
      </trkpt>
      <trkpt lat="42.365518" lon="1.587897">
        <ele>804.9</ele>
        <time>2018-06-11T12:50:54Z</time>
      </trkpt>
      <trkpt lat="42.365171" lon="1.587958">
        <ele>801.0</ele>
        <time>2018-06-11T12:51:03Z</time>
      </trkpt>
      <trkpt lat="42.364747" lon="1.588077">
        <ele>801.1</ele>
        <time>2018-06-11T12:51:15Z</time>
      </trkpt>
      <trkpt lat="42.364376" lon="1.588157">
        <ele>801.3</ele>
        <time>2018-06-11T12:51:25Z</time>
      </trkpt>
      <trkpt lat="42.363925" lon="1.588211">
        <ele>801.7</ele>
        <time>2018-06-11T12:51:37Z</time>
      </trkpt>
      <trkpt lat="42.363616" lon="1.588162">
        <ele>800.2</ele>
        <time>2018-06-11T12:51:45Z</time>
      </trkpt>
      <trkpt lat="42.363430" lon="1.588109">
        <ele>798.6</ele>
        <time>2018-06-11T12:51:50Z</time>
      </trkpt>
      <trkpt lat="42.362763" lon="1.587929">
        <ele>804.4</ele>
        <time>2018-06-11T12:52:08Z</time>
      </trkpt>
      <trkpt lat="42.362472" lon="1.587764">
        <ele>808.2</ele>
        <time>2018-06-11T12:52:16Z</time>
      </trkpt>
      <trkpt lat="42.362257" lon="1.587535">
        <ele>809.2</ele>
        <time>2018-06-11T12:52:24Z</time>
      </trkpt>
      <trkpt lat="42.361657" lon="1.586993">
        <ele>810.4</ele>
        <time>2018-06-11T12:52:43Z</time>
      </trkpt>
      <trkpt lat="42.361334" lon="1.586737">
        <ele>812.1</ele>
        <time>2018-06-11T12:52:53Z</time>
      </trkpt>
      <trkpt lat="42.361072" lon="1.586516">
        <ele>811.0</ele>
        <time>2018-06-11T12:53:01Z</time>
      </trkpt>
      <trkpt lat="42.360818" lon="1.586255">
        <ele>809.7</ele>
        <time>2018-06-11T12:53:09Z</time>
      </trkpt>
      <trkpt lat="42.360597" lon="1.585835">
        <ele>808.4</ele>
        <time>2018-06-11T12:53:19Z</time>
      </trkpt>
      <trkpt lat="42.360422" lon="1.585366">
        <ele>807.1</ele>
        <time>2018-06-11T12:53:30Z</time>
      </trkpt>
      <trkpt lat="42.360335" lon="1.584967">
        <ele>803.1</ele>
        <time>2018-06-11T12:53:38Z</time>
      </trkpt>
      <trkpt lat="42.360340" lon="1.584492">
        <ele>799.9</ele>
        <time>2018-06-11T12:53:47Z</time>
      </trkpt>
      <trkpt lat="42.360405" lon="1.584055">
        <ele>799.7</ele>
        <time>2018-06-11T12:53:56Z</time>
      </trkpt>
      <trkpt lat="42.360454" lon="1.583601">
        <ele>800.8</ele>
        <time>2018-06-11T12:54:05Z</time>
      </trkpt>
      <trkpt lat="42.360448" lon="1.583137">
        <ele>801.8</ele>
        <time>2018-06-11T12:54:14Z</time>
      </trkpt>
      <trkpt lat="42.360448" lon="1.583118">
        <ele>801.8</ele>
        <time>2018-06-11T12:54:14Z</time>
      </trkpt>
      <trkpt lat="42.360385" lon="1.582767">
        <ele>801.1</ele>
        <time>2018-06-11T12:54:21Z</time>
      </trkpt>
      <trkpt lat="42.360234" lon="1.582397">
        <ele>800.6</ele>
        <time>2018-06-11T12:54:30Z</time>
      </trkpt>
      <trkpt lat="42.359905" lon="1.581750">
        <ele>804.4</ele>
        <time>2018-06-11T12:54:45Z</time>
      </trkpt>
      <trkpt lat="42.359235" lon="1.580405">
        <ele>812.1</ele>
        <time>2018-06-11T12:55:17Z</time>
      </trkpt>
      <trkpt lat="42.359093" lon="1.580012">
        <ele>813.3</ele>
        <time>2018-06-11T12:55:25Z</time>
      </trkpt>
      <trkpt lat="42.359050" lon="1.579564">
        <ele>816.8</ele>
        <time>2018-06-11T12:55:34Z</time>
      </trkpt>
      <trkpt lat="42.359059" lon="1.579204">
        <ele>821.3</ele>
        <time>2018-06-11T12:55:41Z</time>
      </trkpt>
      <trkpt lat="42.359114" lon="1.578883">
        <ele>823.4</ele>
        <time>2018-06-11T12:55:48Z</time>
      </trkpt>
      <trkpt lat="42.359303" lon="1.578429">
        <ele>819.1</ele>
        <time>2018-06-11T12:55:58Z</time>
      </trkpt>
      <trkpt lat="42.359547" lon="1.578128">
        <ele>807.7</ele>
        <time>2018-06-11T12:56:07Z</time>
      </trkpt>
      <trkpt lat="42.359798" lon="1.577904">
        <ele>797.6</ele>
        <time>2018-06-11T12:56:16Z</time>
      </trkpt>
      <trkpt lat="42.360073" lon="1.577725">
        <ele>792.1</ele>
        <time>2018-06-11T12:56:24Z</time>
      </trkpt>
      <trkpt lat="42.360348" lon="1.577537">
        <ele>789.4</ele>
        <time>2018-06-11T12:56:32Z</time>
      </trkpt>
      <trkpt lat="42.360897" lon="1.577160">
        <ele>784.3</ele>
        <time>2018-06-11T12:56:48Z</time>
      </trkpt>
      <trkpt lat="42.361105" lon="1.576984">
        <ele>783.8</ele>
        <time>2018-06-11T12:56:55Z</time>
      </trkpt>
      <trkpt lat="42.361346" lon="1.576714">
        <ele>785.0</ele>
        <time>2018-06-11T12:57:03Z</time>
      </trkpt>
      <trkpt lat="42.361490" lon="1.576428">
        <ele>784.1</ele>
        <time>2018-06-11T12:57:10Z</time>
      </trkpt>
      <trkpt lat="42.361609" lon="1.576063">
        <ele>782.9</ele>
        <time>2018-06-11T12:57:18Z</time>
      </trkpt>
      <trkpt lat="42.361844" lon="1.575258">
        <ele>781.0</ele>
        <time>2018-06-11T12:57:35Z</time>
      </trkpt>
      <trkpt lat="42.362144" lon="1.574067">
        <ele>784.6</ele>
        <time>2018-06-11T12:57:59Z</time>
      </trkpt>
      <trkpt lat="42.362161" lon="1.573713">
        <ele>785.9</ele>
        <time>2018-06-11T12:58:06Z</time>
      </trkpt>
      <trkpt lat="42.362117" lon="1.573291">
        <ele>786.5</ele>
        <time>2018-06-11T12:58:15Z</time>
      </trkpt>
      <trkpt lat="42.362001" lon="1.572980">
        <ele>786.8</ele>
        <time>2018-06-11T12:58:21Z</time>
      </trkpt>
      <trkpt lat="42.361794" lon="1.572540">
        <ele>786.4</ele>
        <time>2018-06-11T12:58:32Z</time>
      </trkpt>
      <trkpt lat="42.361625" lon="1.572039">
        <ele>781.9</ele>
        <time>2018-06-11T12:58:42Z</time>
      </trkpt>
      <trkpt lat="42.361507" lon="1.571563">
        <ele>784.5</ele>
        <time>2018-06-11T12:58:52Z</time>
      </trkpt>
      <trkpt lat="42.361090" lon="1.570686">
        <ele>788.3</ele>
        <time>2018-06-11T12:59:13Z</time>
      </trkpt>
      <trkpt lat="42.360909" lon="1.570436">
        <ele>787.7</ele>
        <time>2018-06-11T12:59:20Z</time>
      </trkpt>
      <trkpt lat="42.360528" lon="1.570037">
        <ele>785.0</ele>
        <time>2018-06-11T12:59:32Z</time>
      </trkpt>
      <trkpt lat="42.360173" lon="1.569674">
        <ele>784.2</ele>
        <time>2018-06-11T12:59:44Z</time>
      </trkpt>
      <trkpt lat="42.359965" lon="1.569446">
        <ele>779.9</ele>
        <time>2018-06-11T12:59:51Z</time>
      </trkpt>
      <trkpt lat="42.359827" lon="1.569258">
        <ele>775.5</ele>
        <time>2018-06-11T12:59:57Z</time>
      </trkpt>
      <trkpt lat="42.359714" lon="1.568977">
        <ele>774.0</ele>
        <time>2018-06-11T13:00:03Z</time>
      </trkpt>
      <trkpt lat="42.359622" lon="1.568628">
        <ele>772.7</ele>
        <time>2018-06-11T13:00:10Z</time>
      </trkpt>
      <trkpt lat="42.359582" lon="1.568262">
        <ele>775.0</ele>
        <time>2018-06-11T13:00:17Z</time>
      </trkpt>
      <trkpt lat="42.359524" lon="1.567918">
        <ele>777.8</ele>
        <time>2018-06-11T13:00:24Z</time>
      </trkpt>
      <trkpt lat="42.359350" lon="1.567488">
        <ele>776.7</ele>
        <time>2018-06-11T13:00:34Z</time>
      </trkpt>
      <trkpt lat="42.359181" lon="1.567116">
        <ele>773.8</ele>
        <time>2018-06-11T13:00:42Z</time>
      </trkpt>
      <trkpt lat="42.359088" lon="1.566751">
        <ele>769.2</ele>
        <time>2018-06-11T13:00:50Z</time>
      </trkpt>
      <trkpt lat="42.359043" lon="1.566510">
        <ele>765.2</ele>
        <time>2018-06-11T13:00:55Z</time>
      </trkpt>
      <trkpt lat="42.359041" lon="1.566208">
        <ele>761.1</ele>
        <time>2018-06-11T13:01:01Z</time>
      </trkpt>
      <trkpt lat="42.359121" lon="1.565843">
        <ele>761.2</ele>
        <time>2018-06-11T13:01:08Z</time>
      </trkpt>
      <trkpt lat="42.359413" lon="1.564744">
        <ele>764.3</ele>
        <time>2018-06-11T13:01:31Z</time>
      </trkpt>
      <trkpt lat="42.359636" lon="1.563780">
        <ele>764.7</ele>
        <time>2018-06-11T13:01:51Z</time>
      </trkpt>
      <trkpt lat="42.359681" lon="1.563450">
        <ele>764.1</ele>
        <time>2018-06-11T13:01:58Z</time>
      </trkpt>
      <trkpt lat="42.359688" lon="1.563162">
        <ele>764.4</ele>
        <time>2018-06-11T13:02:03Z</time>
      </trkpt>
      <trkpt lat="42.359634" lon="1.562788">
        <ele>764.4</ele>
        <time>2018-06-11T13:02:11Z</time>
      </trkpt>
      <trkpt lat="42.359568" lon="1.562454">
        <ele>762.5</ele>
        <time>2018-06-11T13:02:18Z</time>
      </trkpt>
      <trkpt lat="42.359403" lon="1.561574">
        <ele>758.5</ele>
        <time>2018-06-11T13:02:35Z</time>
      </trkpt>
      <trkpt lat="42.359370" lon="1.561091">
        <ele>756.3</ele>
        <time>2018-06-11T13:02:45Z</time>
      </trkpt>
      <trkpt lat="42.359367" lon="1.560533">
        <ele>753.5</ele>
        <time>2018-06-11T13:02:56Z</time>
      </trkpt>
      <trkpt lat="42.359384" lon="1.560143">
        <ele>753.3</ele>
        <time>2018-06-11T13:03:03Z</time>
      </trkpt>
      <trkpt lat="42.359433" lon="1.559673">
        <ele>752.9</ele>
        <time>2018-06-11T13:03:13Z</time>
      </trkpt>
      <trkpt lat="42.359485" lon="1.559091">
        <ele>754.9</ele>
        <time>2018-06-11T13:03:24Z</time>
      </trkpt>
      <trkpt lat="42.359494" lon="1.558750">
        <ele>756.4</ele>
        <time>2018-06-11T13:03:31Z</time>
      </trkpt>
      <trkpt lat="42.359463" lon="1.558385">
        <ele>758.8</ele>
        <time>2018-06-11T13:03:38Z</time>
      </trkpt>
      <trkpt lat="42.359381" lon="1.557907">
        <ele>759.6</ele>
        <time>2018-06-11T13:03:48Z</time>
      </trkpt>
      <trkpt lat="42.359329" lon="1.557697">
        <ele>759.5</ele>
        <time>2018-06-11T13:03:52Z</time>
      </trkpt>
      <trkpt lat="42.359221" lon="1.557374">
        <ele>762.0</ele>
        <time>2018-06-11T13:03:59Z</time>
      </trkpt>
      <trkpt lat="42.359003" lon="1.556844">
        <ele>765.7</ele>
        <time>2018-06-11T13:04:11Z</time>
      </trkpt>
      <trkpt lat="42.358797" lon="1.556318">
        <ele>763.4</ele>
        <time>2018-06-11T13:04:23Z</time>
      </trkpt>
      <trkpt lat="42.358609" lon="1.555768">
        <ele>760.0</ele>
        <time>2018-06-11T13:04:34Z</time>
      </trkpt>
      <trkpt lat="42.358496" lon="1.555360">
        <ele>755.6</ele>
        <time>2018-06-11T13:04:43Z</time>
      </trkpt>
      <trkpt lat="42.358457" lon="1.555072">
        <ele>754.6</ele>
        <time>2018-06-11T13:04:49Z</time>
      </trkpt>
      <trkpt lat="42.358478" lon="1.554691">
        <ele>754.6</ele>
        <time>2018-06-11T13:04:56Z</time>
      </trkpt>
      <trkpt lat="42.358548" lon="1.553947">
        <ele>757.6</ele>
        <time>2018-06-11T13:05:11Z</time>
      </trkpt>
      <trkpt lat="42.358535" lon="1.553628">
        <ele>758.2</ele>
        <time>2018-06-11T13:05:17Z</time>
      </trkpt>
      <trkpt lat="42.358487" lon="1.553382">
        <ele>757.0</ele>
        <time>2018-06-11T13:05:22Z</time>
      </trkpt>
      <trkpt lat="42.358324" lon="1.552679">
        <ele>756.5</ele>
        <time>2018-06-11T13:05:37Z</time>
      </trkpt>
      <trkpt lat="42.358167" lon="1.552020">
        <ele>756.4</ele>
        <time>2018-06-11T13:05:50Z</time>
      </trkpt>
      <trkpt lat="42.357926" lon="1.550907">
        <ele>748.7</ele>
        <time>2018-06-11T13:06:13Z</time>
      </trkpt>
      <trkpt lat="42.357874" lon="1.550447">
        <ele>749.4</ele>
        <time>2018-06-11T13:06:22Z</time>
      </trkpt>
      <trkpt lat="42.357898" lon="1.549999">
        <ele>750.3</ele>
        <time>2018-06-11T13:06:31Z</time>
      </trkpt>
      <trkpt lat="42.357991" lon="1.549553">
        <ele>751.1</ele>
        <time>2018-06-11T13:06:40Z</time>
      </trkpt>
      <trkpt lat="42.358101" lon="1.549248">
        <ele>752.1</ele>
        <time>2018-06-11T13:06:46Z</time>
      </trkpt>
      <trkpt lat="42.358415" lon="1.548357">
        <ele>752.4</ele>
        <time>2018-06-11T13:07:06Z</time>
      </trkpt>
      <trkpt lat="42.358529" lon="1.547830">
        <ele>750.0</ele>
        <time>2018-06-11T13:07:17Z</time>
      </trkpt>
      <trkpt lat="42.358656" lon="1.546985">
        <ele>745.1</ele>
        <time>2018-06-11T13:07:33Z</time>
      </trkpt>
      <trkpt lat="42.358802" lon="1.546009">
        <ele>744.1</ele>
        <time>2018-06-11T13:07:53Z</time>
      </trkpt>
      <trkpt lat="42.358874" lon="1.545503">
        <ele>744.3</ele>
        <time>2018-06-11T13:08:03Z</time>
      </trkpt>
      <trkpt lat="42.358911" lon="1.544986">
        <ele>744.5</ele>
        <time>2018-06-11T13:08:13Z</time>
      </trkpt>
      <trkpt lat="42.358888" lon="1.544086">
        <ele>747.7</ele>
        <time>2018-06-11T13:08:31Z</time>
      </trkpt>
      <trkpt lat="42.358847" lon="1.543758">
        <ele>748.4</ele>
        <time>2018-06-11T13:08:37Z</time>
      </trkpt>
      <trkpt lat="42.358720" lon="1.543308">
        <ele>747.7</ele>
        <time>2018-06-11T13:08:47Z</time>
      </trkpt>
      <trkpt lat="42.358481" lon="1.542624">
        <ele>752.3</ele>
        <time>2018-06-11T13:09:02Z</time>
      </trkpt>
      <trkpt lat="42.358351" lon="1.542375">
        <ele>752.9</ele>
        <time>2018-06-11T13:09:08Z</time>
      </trkpt>
      <trkpt lat="42.358121" lon="1.542104">
        <ele>754.4</ele>
        <time>2018-06-11T13:09:16Z</time>
      </trkpt>
      <trkpt lat="42.357819" lon="1.541914">
        <ele>750.8</ele>
        <time>2018-06-11T13:09:24Z</time>
      </trkpt>
      <trkpt lat="42.357333" lon="1.541652">
        <ele>750.5</ele>
        <time>2018-06-11T13:09:38Z</time>
      </trkpt>
      <trkpt lat="42.357072" lon="1.541488">
        <ele>758.7</ele>
        <time>2018-06-11T13:09:46Z</time>
      </trkpt>
      <trkpt lat="42.356913" lon="1.541316">
        <ele>754.4</ele>
        <time>2018-06-11T13:09:52Z</time>
      </trkpt>
      <trkpt lat="42.356756" lon="1.541010">
        <ele>749.8</ele>
        <time>2018-06-11T13:09:59Z</time>
      </trkpt>
      <trkpt lat="42.356663" lon="1.540529">
        <ele>742.1</ele>
        <time>2018-06-11T13:10:09Z</time>
      </trkpt>
      <trkpt lat="42.356713" lon="1.539983">
        <ele>736.3</ele>
        <time>2018-06-11T13:10:20Z</time>
      </trkpt>
      <trkpt lat="42.356799" lon="1.539329">
        <ele>734.2</ele>
        <time>2018-06-11T13:10:33Z</time>
      </trkpt>
      <trkpt lat="42.356877" lon="1.538847">
        <ele>735.1</ele>
        <time>2018-06-11T13:10:42Z</time>
      </trkpt>
      <trkpt lat="42.356924" lon="1.538324">
        <ele>734.8</ele>
        <time>2018-06-11T13:10:53Z</time>
      </trkpt>
      <trkpt lat="42.356897" lon="1.537944">
        <ele>733.6</ele>
        <time>2018-06-11T13:11:00Z</time>
      </trkpt>
      <trkpt lat="42.356857" lon="1.537663">
        <ele>735.0</ele>
        <time>2018-06-11T13:11:06Z</time>
      </trkpt>
      <trkpt lat="42.356737" lon="1.537164">
        <ele>735.2</ele>
        <time>2018-06-11T13:11:16Z</time>
      </trkpt>
      <trkpt lat="42.356650" lon="1.536711">
        <ele>733.3</ele>
        <time>2018-06-11T13:11:25Z</time>
      </trkpt>
      <trkpt lat="42.356632" lon="1.536400">
        <ele>732.0</ele>
        <time>2018-06-11T13:11:31Z</time>
      </trkpt>
      <trkpt lat="42.356676" lon="1.535998">
        <ele>730.1</ele>
        <time>2018-06-11T13:11:39Z</time>
      </trkpt>
      <trkpt lat="42.356777" lon="1.535607">
        <ele>728.4</ele>
        <time>2018-06-11T13:11:47Z</time>
      </trkpt>
      <trkpt lat="42.356902" lon="1.535227">
        <ele>727.1</ele>
        <time>2018-06-11T13:11:56Z</time>
      </trkpt>
      <trkpt lat="42.356996" lon="1.534838">
        <ele>724.6</ele>
        <time>2018-06-11T13:12:04Z</time>
      </trkpt>
      <trkpt lat="42.357095" lon="1.534344">
        <ele>724.4</ele>
        <time>2018-06-11T13:12:14Z</time>
      </trkpt>
      <trkpt lat="42.357114" lon="1.533863">
        <ele>725.8</ele>
        <time>2018-06-11T13:12:23Z</time>
      </trkpt>
      <trkpt lat="42.357078" lon="1.533140">
        <ele>725.1</ele>
        <time>2018-06-11T13:12:37Z</time>
      </trkpt>
      <trkpt lat="42.357016" lon="1.532383">
        <ele>726.0</ele>
        <time>2018-06-11T13:12:52Z</time>
      </trkpt>
      <trkpt lat="42.356886" lon="1.531202">
        <ele>724.9</ele>
        <time>2018-06-11T13:13:16Z</time>
      </trkpt>
      <trkpt lat="42.356841" lon="1.530839">
        <ele>725.1</ele>
        <time>2018-06-11T13:13:23Z</time>
      </trkpt>
      <trkpt lat="42.356709" lon="1.530243">
        <ele>727.8</ele>
        <time>2018-06-11T13:13:35Z</time>
      </trkpt>
      <trkpt lat="42.356573" lon="1.529683">
        <ele>730.5</ele>
        <time>2018-06-11T13:13:46Z</time>
      </trkpt>
      <trkpt lat="42.356424" lon="1.529118">
        <ele>731.0</ele>
        <time>2018-06-11T13:13:58Z</time>
      </trkpt>
      <trkpt lat="42.356179" lon="1.528274">
        <ele>726.4</ele>
        <time>2018-06-11T13:14:16Z</time>
      </trkpt>
      <trkpt lat="42.355739" lon="1.526730">
        <ele>731.4</ele>
        <time>2018-06-11T13:14:48Z</time>
      </trkpt>
      <trkpt lat="42.355684" lon="1.526314">
        <ele>729.8</ele>
        <time>2018-06-11T13:14:57Z</time>
      </trkpt>
      <trkpt lat="42.355714" lon="1.525859">
        <ele>729.7</ele>
        <time>2018-06-11T13:15:06Z</time>
      </trkpt>
      <trkpt lat="42.355808" lon="1.525309">
        <ele>731.3</ele>
        <time>2018-06-11T13:15:17Z</time>
      </trkpt>
      <trkpt lat="42.356019" lon="1.524555">
        <ele>730.8</ele>
        <time>2018-06-11T13:15:32Z</time>
      </trkpt>
      <trkpt lat="42.356423" lon="1.523167">
        <ele>734.2</ele>
        <time>2018-06-11T13:16:02Z</time>
      </trkpt>
      <trkpt lat="42.356629" lon="1.522566">
        <ele>742.1</ele>
        <time>2018-06-11T13:16:15Z</time>
      </trkpt>
      <trkpt lat="42.356777" lon="1.522260">
        <ele>750.5</ele>
        <time>2018-06-11T13:16:22Z</time>
      </trkpt>
      <trkpt lat="42.357370" lon="1.521161">
        <ele>736.3</ele>
        <time>2018-06-11T13:16:49Z</time>
      </trkpt>
      <trkpt lat="42.358586" lon="1.519035">
        <ele>724.0</ele>
        <time>2018-06-11T13:17:42Z</time>
      </trkpt>
      <trkpt lat="42.359036" lon="1.518318">
        <ele>720.0</ele>
        <time>2018-06-11T13:18:00Z</time>
      </trkpt>
      <trkpt lat="42.359209" lon="1.517996">
        <ele>718.9</ele>
        <time>2018-06-11T13:18:08Z</time>
      </trkpt>
      <trkpt lat="42.359358" lon="1.517614">
        <ele>720.4</ele>
        <time>2018-06-11T13:18:16Z</time>
      </trkpt>
      <trkpt lat="42.359488" lon="1.517128">
        <ele>723.2</ele>
        <time>2018-06-11T13:18:26Z</time>
      </trkpt>
      <trkpt lat="42.359852" lon="1.515482">
        <ele>725.2</ele>
        <time>2018-06-11T13:19:00Z</time>
      </trkpt>
      <trkpt lat="42.360094" lon="1.514438">
        <ele>724.5</ele>
        <time>2018-06-11T13:19:22Z</time>
      </trkpt>
      <trkpt lat="42.360173" lon="1.513901">
        <ele>726.4</ele>
        <time>2018-06-11T13:19:32Z</time>
      </trkpt>
      <trkpt lat="42.360167" lon="1.513438">
        <ele>730.7</ele>
        <time>2018-06-11T13:19:41Z</time>
      </trkpt>
      <trkpt lat="42.360083" lon="1.512991">
        <ele>733.6</ele>
        <time>2018-06-11T13:19:50Z</time>
      </trkpt>
      <trkpt lat="42.359976" lon="1.512646">
        <ele>735.8</ele>
        <time>2018-06-11T13:19:58Z</time>
      </trkpt>
      <trkpt lat="42.359390" lon="1.511403">
        <ele>734.8</ele>
        <time>2018-06-11T13:20:27Z</time>
      </trkpt>
      <trkpt lat="42.359006" lon="1.510620">
        <ele>728.6</ele>
        <time>2018-06-11T13:20:45Z</time>
      </trkpt>
      <trkpt lat="42.358584" lon="1.509735">
        <ele>724.3</ele>
        <time>2018-06-11T13:21:06Z</time>
      </trkpt>
      <trkpt lat="42.358137" lon="1.508862">
        <ele>718.0</ele>
        <time>2018-06-11T13:21:27Z</time>
      </trkpt>
      <trkpt lat="42.357920" lon="1.508415">
        <ele>716.3</ele>
        <time>2018-06-11T13:21:37Z</time>
      </trkpt>
      <trkpt lat="42.357738" lon="1.507932">
        <ele>715.4</ele>
        <time>2018-06-11T13:21:48Z</time>
      </trkpt>
      <trkpt lat="42.357635" lon="1.507647">
        <ele>715.9</ele>
        <time>2018-06-11T13:21:54Z</time>
      </trkpt>
      <trkpt lat="42.357532" lon="1.507307">
        <ele>714.4</ele>
        <time>2018-06-11T13:22:01Z</time>
      </trkpt>
      <trkpt lat="42.357457" lon="1.506971">
        <ele>713.0</ele>
        <time>2018-06-11T13:22:08Z</time>
      </trkpt>
      <trkpt lat="42.357417" lon="1.506714">
        <ele>712.5</ele>
        <time>2018-06-11T13:22:13Z</time>
      </trkpt>
      <trkpt lat="42.357392" lon="1.506416">
        <ele>711.2</ele>
        <time>2018-06-11T13:22:19Z</time>
      </trkpt>
      <trkpt lat="42.357386" lon="1.505555">
        <ele>706.8</ele>
        <time>2018-06-11T13:22:36Z</time>
      </trkpt>
      <trkpt lat="42.357390" lon="1.505327">
        <ele>706.3</ele>
        <time>2018-06-11T13:22:40Z</time>
      </trkpt>
      <trkpt lat="42.357372" lon="1.505115">
        <ele>706.1</ele>
        <time>2018-06-11T13:22:44Z</time>
      </trkpt>
      <trkpt lat="42.357353" lon="1.505032">
        <ele>706.3</ele>
        <time>2018-06-11T13:22:46Z</time>
      </trkpt>
      <trkpt lat="42.357337" lon="1.504962">
        <ele>706.2</ele>
        <time>2018-06-11T13:22:48Z</time>
      </trkpt>
      <trkpt lat="42.357306" lon="1.504919">
        <ele>705.8</ele>
        <time>2018-06-11T13:22:49Z</time>
      </trkpt>
      <trkpt lat="42.357279" lon="1.504874">
        <ele>705.5</ele>
        <time>2018-06-11T13:22:50Z</time>
      </trkpt>
      <trkpt lat="42.357242" lon="1.504860">
        <ele>704.9</ele>
        <time>2018-06-11T13:22:51Z</time>
      </trkpt>
      <trkpt lat="42.357179" lon="1.504876">
        <ele>703.7</ele>
        <time>2018-06-11T13:22:53Z</time>
      </trkpt>
      <trkpt lat="42.357115" lon="1.504951">
        <ele>702.5</ele>
        <time>2018-06-11T13:22:55Z</time>
      </trkpt>
      <trkpt lat="42.355716" lon="1.505826">
        <ele>704.2</ele>
        <time>2018-06-11T13:23:36Z</time>
      </trkpt>
      <trkpt lat="42.355486" lon="1.505868">
        <ele>704.2</ele>
        <time>2018-06-11T13:23:42Z</time>
      </trkpt>
      <trkpt lat="42.355256" lon="1.505847">
        <ele>706.7</ele>
        <time>2018-06-11T13:23:48Z</time>
      </trkpt>
      <trkpt lat="42.354990" lon="1.505713">
        <ele>707.1</ele>
        <time>2018-06-11T13:23:55Z</time>
      </trkpt>
      <trkpt lat="42.354816" lon="1.505584">
        <ele>705.4</ele>
        <time>2018-06-11T13:24:01Z</time>
      </trkpt>
      <trkpt lat="42.354665" lon="1.505402">
        <ele>705.4</ele>
        <time>2018-06-11T13:24:06Z</time>
      </trkpt>
      <trkpt lat="42.354526" lon="1.505166">
        <ele>706.3</ele>
        <time>2018-06-11T13:24:12Z</time>
      </trkpt>
      <trkpt lat="42.354579" lon="1.505048">
        <ele>705.1</ele>
        <time>2018-06-11T13:24:15Z</time>
      </trkpt>
      <trkpt lat="42.354693" lon="1.504602">
        <ele>702.7</ele>
        <time>2018-06-11T13:24:24Z</time>
      </trkpt>
      <trkpt lat="42.354833" lon="1.504254">
        <ele>700.8</ele>
        <time>2018-06-11T13:24:32Z</time>
      </trkpt>
      <trkpt lat="42.354963" lon="1.503953">
        <ele>699.2</ele>
        <time>2018-06-11T13:24:39Z</time>
      </trkpt>
      <trkpt lat="42.355204" lon="1.503438">
        <ele>699.8</ele>
        <time>2018-06-11T13:24:50Z</time>
      </trkpt>
      <trkpt lat="42.355391" lon="1.503213">
        <ele>699.2</ele>
        <time>2018-06-11T13:24:57Z</time>
      </trkpt>
      <trkpt lat="42.355494" lon="1.503074">
        <ele>698.8</ele>
        <time>2018-06-11T13:25:01Z</time>
      </trkpt>
      <trkpt lat="42.355506" lon="1.501829">
        <ele>697.4</ele>
        <time>2018-06-11T13:25:25Z</time>
      </trkpt>
      <trkpt lat="42.355566" lon="1.500815">
        <ele>697.9</ele>
        <time>2018-06-11T13:25:45Z</time>
      </trkpt>
      <trkpt lat="42.355649" lon="1.500053">
        <ele>697.1</ele>
        <time>2018-06-11T13:26:00Z</time>
      </trkpt>
      <trkpt lat="42.355776" lon="1.499201">
        <ele>693.7</ele>
        <time>2018-06-11T13:26:17Z</time>
      </trkpt>
      <trkpt lat="42.356058" lon="1.498026">
        <ele>692.3</ele>
        <time>2018-06-11T13:26:41Z</time>
      </trkpt>
      <trkpt lat="42.357033" lon="1.494700">
        <ele>689.8</ele>
        <time>2018-06-11T13:27:51Z</time>
      </trkpt>
      <trkpt lat="42.357588" lon="1.492763">
        <ele>687.8</ele>
        <time>2018-06-11T13:28:32Z</time>
      </trkpt>
      <trkpt lat="42.357810" lon="1.491916">
        <ele>687.5</ele>
        <time>2018-06-11T13:28:50Z</time>
      </trkpt>
      <trkpt lat="42.357889" lon="1.491401">
        <ele>686.9</ele>
        <time>2018-06-11T13:29:00Z</time>
      </trkpt>
      <trkpt lat="42.357941" lon="1.490923">
        <ele>686.6</ele>
        <time>2018-06-11T13:29:09Z</time>
      </trkpt>
      <trkpt lat="42.357957" lon="1.490290">
        <ele>686.5</ele>
        <time>2018-06-11T13:29:22Z</time>
      </trkpt>
      <trkpt lat="42.357917" lon="1.489775">
        <ele>687.0</ele>
        <time>2018-06-11T13:29:32Z</time>
      </trkpt>
      <trkpt lat="42.357802" lon="1.488949">
        <ele>689.4</ele>
        <time>2018-06-11T13:29:48Z</time>
      </trkpt>
      <trkpt lat="42.357763" lon="1.488788">
        <ele>689.6</ele>
        <time>2018-06-11T13:29:52Z</time>
      </trkpt>
      <trkpt lat="42.357521" lon="1.488005">
        <ele>688.2</ele>
        <time>2018-06-11T13:30:08Z</time>
      </trkpt>
      <trkpt lat="42.357307" lon="1.487141">
        <ele>688.8</ele>
        <time>2018-06-11T13:30:26Z</time>
      </trkpt>
      <trkpt lat="42.357224" lon="1.486637">
        <ele>685.8</ele>
        <time>2018-06-11T13:30:36Z</time>
      </trkpt>
      <trkpt lat="42.357172" lon="1.486192">
        <ele>684.7</ele>
        <time>2018-06-11T13:30:45Z</time>
      </trkpt>
      <trkpt lat="42.357164" lon="1.484996">
        <ele>683.8</ele>
        <time>2018-06-11T13:31:09Z</time>
      </trkpt>
      <trkpt lat="42.357133" lon="1.484899">
        <ele>683.8</ele>
        <time>2018-06-11T13:31:11Z</time>
      </trkpt>
      <trkpt lat="42.357077" lon="1.484835">
        <ele>684.0</ele>
        <time>2018-06-11T13:31:13Z</time>
      </trkpt>
      <trkpt lat="42.357014" lon="1.484808">
        <ele>683.7</ele>
        <time>2018-06-11T13:31:14Z</time>
      </trkpt>
      <trkpt lat="42.355848" lon="1.484556">
        <ele>688.9</ele>
        <time>2018-06-11T13:31:46Z</time>
      </trkpt>
      <trkpt lat="42.355828" lon="1.484454">
        <ele>689.0</ele>
        <time>2018-06-11T13:31:48Z</time>
      </trkpt>
      <trkpt lat="42.355876" lon="1.484363">
        <ele>688.9</ele>
        <time>2018-06-11T13:31:50Z</time>
      </trkpt>
      <trkpt lat="42.356046" lon="1.484389">
        <ele>688.2</ele>
        <time>2018-06-11T13:31:54Z</time>
      </trkpt>
      <trkpt lat="42.356725" lon="1.484447">
        <ele>683.6</ele>
        <time>2018-06-11T13:32:12Z</time>
      </trkpt>
      <trkpt lat="42.356886" lon="1.484394">
        <ele>683.8</ele>
        <time>2018-06-11T13:32:17Z</time>
      </trkpt>
      <trkpt lat="42.357176" lon="1.484148">
        <ele>683.5</ele>
        <time>2018-06-11T13:32:26Z</time>
      </trkpt>
      <trkpt lat="42.357251" lon="1.484041">
        <ele>682.8</ele>
        <time>2018-06-11T13:32:29Z</time>
      </trkpt>
      <trkpt lat="42.357406" lon="1.483445">
        <ele>681.5</ele>
        <time>2018-06-11T13:32:41Z</time>
      </trkpt>
      <trkpt lat="42.357648" lon="1.482673">
        <ele>678.9</ele>
        <time>2018-06-11T13:32:58Z</time>
      </trkpt>
      <trkpt lat="42.358021" lon="1.481820">
        <ele>679.0</ele>
        <time>2018-06-11T13:33:17Z</time>
      </trkpt>
      <trkpt lat="42.358770" lon="1.480334">
        <ele>679.7</ele>
        <time>2018-06-11T13:33:52Z</time>
      </trkpt>
      <trkpt lat="42.359004" lon="1.479695">
        <ele>681.7</ele>
        <time>2018-06-11T13:34:06Z</time>
      </trkpt>
      <trkpt lat="42.359167" lon="1.478950">
        <ele>681.1</ele>
        <time>2018-06-11T13:34:21Z</time>
      </trkpt>
      <trkpt lat="42.359254" lon="1.478000">
        <ele>680.9</ele>
        <time>2018-06-11T13:34:40Z</time>
      </trkpt>
      <trkpt lat="42.359214" lon="1.477062">
        <ele>683.4</ele>
        <time>2018-06-11T13:34:58Z</time>
      </trkpt>
      <trkpt lat="42.359167" lon="1.476654">
        <ele>683.3</ele>
        <time>2018-06-11T13:35:06Z</time>
      </trkpt>
      <trkpt lat="42.359120" lon="1.476353">
        <ele>682.2</ele>
        <time>2018-06-11T13:35:13Z</time>
      </trkpt>
      <trkpt lat="42.359021" lon="1.475849">
        <ele>680.5</ele>
        <time>2018-06-11T13:35:23Z</time>
      </trkpt>
      <trkpt lat="42.358917" lon="1.475511">
        <ele>679.6</ele>
        <time>2018-06-11T13:35:30Z</time>
      </trkpt>
      <trkpt lat="42.358573" lon="1.474690">
        <ele>680.8</ele>
        <time>2018-06-11T13:35:48Z</time>
      </trkpt>
      <trkpt lat="42.358242" lon="1.474084">
        <ele>682.0</ele>
        <time>2018-06-11T13:36:03Z</time>
      </trkpt>
      <trkpt lat="42.357859" lon="1.473612">
        <ele>681.2</ele>
        <time>2018-06-11T13:36:17Z</time>
      </trkpt>
      <trkpt lat="42.356894" lon="1.472625">
        <ele>683.4</ele>
        <time>2018-06-11T13:36:49Z</time>
      </trkpt>
      <trkpt lat="42.356093" lon="1.471842">
        <ele>679.6</ele>
        <time>2018-06-11T13:37:15Z</time>
      </trkpt>
      <trkpt lat="42.355181" lon="1.470694">
        <ele>676.8</ele>
        <time>2018-06-11T13:37:48Z</time>
      </trkpt>
      <trkpt lat="42.354753" lon="1.469922">
        <ele>675.3</ele>
        <time>2018-06-11T13:38:07Z</time>
      </trkpt>
      <trkpt lat="42.354451" lon="1.469128">
        <ele>675.9</ele>
        <time>2018-06-11T13:38:24Z</time>
      </trkpt>
      <trkpt lat="42.354182" lon="1.468141">
        <ele>674.7</ele>
        <time>2018-06-11T13:38:45Z</time>
      </trkpt>
      <trkpt lat="42.353975" lon="1.466445">
        <ele>671.7</ele>
        <time>2018-06-11T13:39:19Z</time>
      </trkpt>
      <trkpt lat="42.353738" lon="1.464772">
        <ele>673.7</ele>
        <time>2018-06-11T13:39:52Z</time>
      </trkpt>
      <trkpt lat="42.353500" lon="1.463742">
        <ele>675.8</ele>
        <time>2018-06-11T13:40:13Z</time>
      </trkpt>
      <trkpt lat="42.352810" lon="1.461832">
        <ele>671.4</ele>
        <time>2018-06-11T13:40:55Z</time>
      </trkpt>
      <trkpt lat="42.352193" lon="1.460287">
        <ele>671.9</ele>
        <time>2018-06-11T13:41:29Z</time>
      </trkpt>
      <trkpt lat="42.352165" lon="1.460204">
        <ele>672.1</ele>
        <time>2018-06-11T13:41:31Z</time>
      </trkpt>
      <trkpt lat="42.352153" lon="1.460115">
        <ele>672.3</ele>
        <time>2018-06-11T13:41:33Z</time>
      </trkpt>
      <trkpt lat="42.352167" lon="1.460051">
        <ele>672.6</ele>
        <time>2018-06-11T13:41:34Z</time>
      </trkpt>
      <trkpt lat="42.352548" lon="1.459643">
        <ele>678.8</ele>
        <time>2018-06-11T13:41:47Z</time>
      </trkpt>
      <trkpt lat="42.352591" lon="1.459600">
        <ele>679.4</ele>
        <time>2018-06-11T13:41:48Z</time>
      </trkpt>
      <trkpt lat="42.352611" lon="1.459560">
        <ele>679.8</ele>
        <time>2018-06-11T13:41:49Z</time>
      </trkpt>
      <trkpt lat="42.352623" lon="1.459531">
        <ele>680.0</ele>
        <time>2018-06-11T13:41:50Z</time>
      </trkpt>
      <trkpt lat="42.352630" lon="1.459475">
        <ele>680.3</ele>
        <time>2018-06-11T13:41:51Z</time>
      </trkpt>
      <trkpt lat="42.352546" lon="1.459126">
        <ele>681.0</ele>
        <time>2018-06-11T13:41:58Z</time>
      </trkpt>
      <trkpt lat="42.352456" lon="1.458841">
        <ele>680.2</ele>
        <time>2018-06-11T13:42:04Z</time>
      </trkpt>
      <trkpt lat="42.352267" lon="1.458300">
        <ele>681.7</ele>
        <time>2018-06-11T13:42:16Z</time>
      </trkpt>
      <trkpt lat="42.352258" lon="1.458251">
        <ele>681.8</ele>
        <time>2018-06-11T13:42:17Z</time>
      </trkpt>
      <trkpt lat="42.352271" lon="1.458227">
        <ele>681.9</ele>
        <time>2018-06-11T13:42:18Z</time>
      </trkpt>
      <trkpt lat="42.352298" lon="1.458226">
        <ele>682.2</ele>
        <time>2018-06-11T13:42:18Z</time>
      </trkpt>
      <trkpt lat="42.352353" lon="1.458304">
        <ele>682.5</ele>
        <time>2018-06-11T13:42:20Z</time>
      </trkpt>
      <trkpt lat="42.352512" lon="1.458773">
        <ele>680.7</ele>
        <time>2018-06-11T13:42:30Z</time>
      </trkpt>
      <trkpt lat="42.352586" lon="1.458923">
        <ele>681.5</ele>
        <time>2018-06-11T13:42:34Z</time>
      </trkpt>
      <trkpt lat="42.352725" lon="1.459169">
        <ele>682.1</ele>
        <time>2018-06-11T13:42:40Z</time>
      </trkpt>
      <trkpt lat="42.352845" lon="1.459416">
        <ele>683.1</ele>
        <time>2018-06-11T13:42:46Z</time>
      </trkpt>
      <trkpt lat="42.352933" lon="1.459643">
        <ele>683.4</ele>
        <time>2018-06-11T13:42:51Z</time>
      </trkpt>
      <trkpt lat="42.352961" lon="1.459679">
        <ele>683.1</ele>
        <time>2018-06-11T13:42:52Z</time>
      </trkpt>
      <trkpt lat="42.353006" lon="1.459708">
        <ele>683.1</ele>
        <time>2018-06-11T13:42:53Z</time>
      </trkpt>
      <trkpt lat="42.354094" lon="1.459909">
        <ele>689.4</ele>
        <time>2018-06-11T13:43:22Z</time>
      </trkpt>
      <trkpt lat="42.354685" lon="1.459957">
        <ele>689.3</ele>
        <time>2018-06-11T13:43:38Z</time>
      </trkpt>
      <trkpt lat="42.354729" lon="1.459997">
        <ele>689.5</ele>
        <time>2018-06-11T13:43:39Z</time>
      </trkpt>
      <trkpt lat="42.354743" lon="1.460062">
        <ele>689.7</ele>
        <time>2018-06-11T13:43:41Z</time>
      </trkpt>
      <trkpt lat="42.354779" lon="1.460558">
        <ele>692.5</ele>
        <time>2018-06-11T13:43:50Z</time>
      </trkpt>
      <trkpt lat="42.354796" lon="1.460669">
        <ele>693.2</ele>
        <time>2018-06-11T13:43:53Z</time>
      </trkpt>
      <trkpt lat="42.354826" lon="1.460703">
        <ele>693.7</ele>
        <time>2018-06-11T13:43:54Z</time>
      </trkpt>
      <trkpt lat="42.354868" lon="1.460705">
        <ele>693.9</ele>
        <time>2018-06-11T13:43:55Z</time>
      </trkpt>
      <trkpt lat="42.355316" lon="1.460505">
        <ele>688.2</ele>
        <time>2018-06-11T13:44:07Z</time>
      </trkpt>
      <trkpt lat="42.356331" lon="1.460030">
        <ele>691.1</ele>
        <time>2018-06-11T13:44:36Z</time>
      </trkpt>
      <trkpt lat="42.356703" lon="1.459778">
        <ele>693.8</ele>
        <time>2018-06-11T13:44:47Z</time>
      </trkpt>
      <trkpt lat="42.357340" lon="1.459470">
        <ele>696.3</ele>
        <time>2018-06-11T13:45:05Z</time>
      </trkpt>
      <trkpt lat="42.357884" lon="1.459277">
        <ele>696.4</ele>
        <time>2018-06-11T13:45:20Z</time>
      </trkpt>
      <trkpt lat="42.358025" lon="1.459252">
        <ele>694.7</ele>
        <time>2018-06-11T13:45:24Z</time>
      </trkpt>
      <trkpt lat="42.358140" lon="1.459266">
        <ele>693.0</ele>
        <time>2018-06-11T13:45:27Z</time>
      </trkpt>
      <trkpt lat="42.358647" lon="1.459311">
        <ele>690.4</ele>
        <time>2018-06-11T13:45:40Z</time>
      </trkpt>
      <trkpt lat="42.358709" lon="1.459357">
        <ele>690.9</ele>
        <time>2018-06-11T13:45:42Z</time>
      </trkpt>
      <trkpt lat="42.358954" lon="1.459623">
        <ele>692.2</ele>
        <time>2018-06-11T13:45:50Z</time>
      </trkpt>
      <trkpt lat="42.359012" lon="1.459668">
        <ele>692.1</ele>
        <time>2018-06-11T13:45:52Z</time>
      </trkpt>
      <trkpt lat="42.359226" lon="1.459698">
        <ele>694.2</ele>
        <time>2018-06-11T13:45:58Z</time>
      </trkpt>
      <trkpt lat="42.359236" lon="1.459735">
        <ele>694.4</ele>
        <time>2018-06-11T13:45:59Z</time>
      </trkpt>
      <trkpt lat="42.359236" lon="1.459767">
        <ele>694.5</ele>
        <time>2018-06-11T13:45:59Z</time>
      </trkpt>
      <trkpt lat="42.359176" lon="1.460502">
        <ele>694.4</ele>
        <time>2018-06-11T13:46:14Z</time>
      </trkpt>
      <trkpt lat="42.358938" lon="1.463012">
        <ele>688.5</ele>
        <time>2018-06-11T13:47:03Z</time>
      </trkpt>
      <trkpt lat="42.358947" lon="1.463292">
        <ele>683.3</ele>
        <time>2018-06-11T13:47:09Z</time>
      </trkpt>
      <trkpt lat="42.358981" lon="1.463514">
        <ele>679.7</ele>
        <time>2018-06-11T13:47:13Z</time>
      </trkpt>
      <trkpt lat="42.359191" lon="1.464453">
        <ele>677.9</ele>
        <time>2018-06-11T13:47:32Z</time>
      </trkpt>
      <trkpt lat="42.359613" lon="1.466172">
        <ele>683.6</ele>
        <time>2018-06-11T13:48:08Z</time>
      </trkpt>
      <trkpt lat="42.359693" lon="1.466492">
        <ele>682.4</ele>
        <time>2018-06-11T13:48:15Z</time>
      </trkpt>
      <trkpt lat="42.359744" lon="1.466776">
        <ele>679.7</ele>
        <time>2018-06-11T13:48:20Z</time>
      </trkpt>
      <trkpt lat="42.359768" lon="1.466966">
        <ele>679.7</ele>
        <time>2018-06-11T13:48:24Z</time>
      </trkpt>
      <trkpt lat="42.359752" lon="1.467039">
        <ele>679.4</ele>
        <time>2018-06-11T13:48:26Z</time>
      </trkpt>
      <trkpt lat="42.359878" lon="1.467589">
        <ele>682.3</ele>
        <time>2018-06-12T06:00:00Z</time>
      </trkpt>
      <trkpt lat="42.359929" lon="1.468019">
        <ele>679.1</ele>
        <time>2018-06-12T06:00:08Z</time>
      </trkpt>
      <trkpt lat="42.360000" lon="1.468248">
        <ele>679.1</ele>
        <time>2018-06-12T06:00:13Z</time>
      </trkpt>
      <trkpt lat="42.360135" lon="1.468603">
        <ele>681.4</ele>
        <time>2018-06-12T06:00:21Z</time>
      </trkpt>
      <trkpt lat="42.360262" lon="1.468982">
        <ele>684.8</ele>
        <time>2018-06-12T06:00:29Z</time>
      </trkpt>
      <trkpt lat="42.360568" lon="1.470371">
        <ele>678.0</ele>
        <time>2018-06-12T06:00:57Z</time>
      </trkpt>
      <trkpt lat="42.360599" lon="1.470656">
        <ele>678.3</ele>
        <time>2018-06-12T06:01:03Z</time>
      </trkpt>
      <trkpt lat="42.360613" lon="1.470995">
        <ele>678.8</ele>
        <time>2018-06-12T06:01:09Z</time>
      </trkpt>
      <trkpt lat="42.360611" lon="1.471226">
        <ele>678.8</ele>
        <time>2018-06-12T06:01:14Z</time>
      </trkpt>
      <trkpt lat="42.360531" lon="1.471295">
        <ele>678.0</ele>
        <time>2018-06-12T06:01:16Z</time>
      </trkpt>
      <trkpt lat="42.360479" lon="1.471418">
        <ele>678.1</ele>
        <time>2018-06-12T06:01:19Z</time>
      </trkpt>
      <trkpt lat="42.360462" lon="1.471552">
        <ele>678.9</ele>
        <time>2018-06-12T06:01:22Z</time>
      </trkpt>
      <trkpt lat="42.360165" lon="1.471868">
        <ele>680.4</ele>
        <time>2018-06-12T06:01:32Z</time>
      </trkpt>
      <trkpt lat="42.359410" lon="1.472682">
        <ele>677.6</ele>
        <time>2018-06-12T06:01:57Z</time>
      </trkpt>
      <trkpt lat="42.359200" lon="1.472827">
        <ele>679.0</ele>
        <time>2018-06-12T06:02:03Z</time>
      </trkpt>
      <trkpt lat="42.358971" lon="1.472881">
        <ele>680.5</ele>
        <time>2018-06-12T06:02:09Z</time>
      </trkpt>
      <trkpt lat="42.358765" lon="1.472898">
        <ele>679.1</ele>
        <time>2018-06-12T06:02:15Z</time>
      </trkpt>
      <trkpt lat="42.358533" lon="1.472871">
        <ele>680.3</ele>
        <time>2018-06-12T06:02:21Z</time>
      </trkpt>
      <trkpt lat="42.356942" lon="1.471339">
        <ele>684.1</ele>
        <time>2018-06-12T06:03:12Z</time>
      </trkpt>
      <trkpt lat="42.356404" lon="1.470812">
        <ele>683.2</ele>
        <time>2018-06-12T06:03:30Z</time>
      </trkpt>
      <trkpt lat="42.356006" lon="1.470317">
        <ele>681.3</ele>
        <time>2018-06-12T06:03:44Z</time>
      </trkpt>
      <trkpt lat="42.355670" lon="1.469804">
        <ele>678.9</ele>
        <time>2018-06-12T06:03:58Z</time>
      </trkpt>
      <trkpt lat="42.355448" lon="1.469354">
        <ele>677.4</ele>
        <time>2018-06-12T06:04:08Z</time>
      </trkpt>
      <trkpt lat="42.355280" lon="1.468915">
        <ele>676.3</ele>
        <time>2018-06-12T06:04:18Z</time>
      </trkpt>
      <trkpt lat="42.355150" lon="1.468469">
        <ele>676.0</ele>
        <time>2018-06-12T06:04:27Z</time>
      </trkpt>
      <trkpt lat="42.355020" lon="1.468035">
        <ele>675.2</ele>
        <time>2018-06-12T06:04:36Z</time>
      </trkpt>
      <trkpt lat="42.354937" lon="1.467521">
        <ele>674.7</ele>
        <time>2018-06-12T06:04:46Z</time>
      </trkpt>
      <trkpt lat="42.354790" lon="1.466329">
        <ele>676.0</ele>
        <time>2018-06-12T06:05:10Z</time>
      </trkpt>
      <trkpt lat="42.354689" lon="1.465118">
        <ele>677.8</ele>
        <time>2018-06-12T06:05:34Z</time>
      </trkpt>
      <trkpt lat="42.354392" lon="1.463631">
        <ele>676.1</ele>
        <time>2018-06-12T06:06:04Z</time>
      </trkpt>
      <trkpt lat="42.353830" lon="1.462050">
        <ele>680.0</ele>
        <time>2018-06-12T06:06:38Z</time>
      </trkpt>
      <trkpt lat="42.353220" lon="1.460856">
        <ele>678.1</ele>
        <time>2018-06-12T06:07:06Z</time>
      </trkpt>
      <trkpt lat="42.352914" lon="1.460196">
        <ele>677.6</ele>
        <time>2018-06-12T06:07:21Z</time>
      </trkpt>
      <trkpt lat="42.352839" lon="1.460004">
        <ele>678.9</ele>
        <time>2018-06-12T06:07:25Z</time>
      </trkpt>
      <trkpt lat="42.352801" lon="1.459810">
        <ele>680.6</ele>
        <time>2018-06-12T06:07:29Z</time>
      </trkpt>
      <trkpt lat="42.352744" lon="1.459654">
        <ele>681.1</ele>
        <time>2018-06-12T06:07:33Z</time>
      </trkpt>
      <trkpt lat="42.352688" lon="1.459588">
        <ele>680.7</ele>
        <time>2018-06-12T06:07:35Z</time>
      </trkpt>
      <trkpt lat="42.352622" lon="1.459574">
        <ele>679.9</ele>
        <time>2018-06-12T06:07:36Z</time>
      </trkpt>
      <trkpt lat="42.352579" lon="1.459573">
        <ele>679.4</ele>
        <time>2018-06-12T06:07:38Z</time>
      </trkpt>
      <trkpt lat="42.352537" lon="1.459588">
        <ele>678.9</ele>
        <time>2018-06-12T06:07:39Z</time>
      </trkpt>
      <trkpt lat="42.352477" lon="1.459637">
        <ele>678.1</ele>
        <time>2018-06-12T06:07:41Z</time>
      </trkpt>
      <trkpt lat="42.352202" lon="1.459925">
        <ele>673.4</ele>
        <time>2018-06-12T06:07:50Z</time>
      </trkpt>
      <trkpt lat="42.352151" lon="1.459966">
        <ele>672.7</ele>
        <time>2018-06-12T06:07:51Z</time>
      </trkpt>
      <trkpt lat="42.352100" lon="1.459996">
        <ele>672.2</ele>
        <time>2018-06-12T06:07:53Z</time>
      </trkpt>
      <trkpt lat="42.352053" lon="1.459984">
        <ele>671.9</ele>
        <time>2018-06-12T06:07:54Z</time>
      </trkpt>
      <trkpt lat="42.352010" lon="1.459955">
        <ele>671.8</ele>
        <time>2018-06-12T06:07:55Z</time>
      </trkpt>
      <trkpt lat="42.351963" lon="1.459878">
        <ele>671.6</ele>
        <time>2018-06-12T06:07:57Z</time>
      </trkpt>
      <trkpt lat="42.351870" lon="1.459611">
        <ele>671.4</ele>
        <time>2018-06-12T06:08:03Z</time>
      </trkpt>
      <trkpt lat="42.351753" lon="1.459317">
        <ele>673.7</ele>
        <time>2018-06-12T06:08:10Z</time>
      </trkpt>
      <trkpt lat="42.351669" lon="1.459167">
        <ele>675.0</ele>
        <time>2018-06-12T06:08:13Z</time>
      </trkpt>
      <trkpt lat="42.351595" lon="1.459055">
        <ele>675.9</ele>
        <time>2018-06-12T06:08:16Z</time>
      </trkpt>
      <trkpt lat="42.351461" lon="1.458887">
        <ele>676.2</ele>
        <time>2018-06-12T06:08:21Z</time>
      </trkpt>
      <trkpt lat="42.350933" lon="1.458221">
        <ele>674.6</ele>
        <time>2018-06-12T06:08:40Z</time>
      </trkpt>
      <trkpt lat="42.350709" lon="1.457966">
        <ele>671.2</ele>
        <time>2018-06-12T06:08:48Z</time>
      </trkpt>
      <trkpt lat="42.350566" lon="1.457808">
        <ele>671.9</ele>
        <time>2018-06-12T06:08:53Z</time>
      </trkpt>
      <trkpt lat="42.350441" lon="1.457699">
        <ele>673.8</ele>
        <time>2018-06-12T06:08:57Z</time>
      </trkpt>
      <trkpt lat="42.350209" lon="1.457483">
        <ele>674.0</ele>
        <time>2018-06-12T06:09:04Z</time>
      </trkpt>
      <trkpt lat="42.349995" lon="1.457290">
        <ele>673.4</ele>
        <time>2018-06-12T06:09:11Z</time>
      </trkpt>
      <trkpt lat="42.349887" lon="1.457169">
        <ele>673.0</ele>
        <time>2018-06-12T06:09:14Z</time>
      </trkpt>
      <trkpt lat="42.349807" lon="1.457036">
        <ele>672.8</ele>
        <time>2018-06-12T06:09:18Z</time>
      </trkpt>
      <trkpt lat="42.349673" lon="1.456879">
        <ele>671.8</ele>
        <time>2018-06-12T06:09:22Z</time>
      </trkpt>
      <trkpt lat="42.349540" lon="1.456685">
        <ele>670.9</ele>
        <time>2018-06-12T06:09:28Z</time>
      </trkpt>
      <trkpt lat="42.349376" lon="1.456380">
        <ele>668.6</ele>
        <time>2018-06-12T06:09:35Z</time>
      </trkpt>
      <trkpt lat="42.349314" lon="1.456222">
        <ele>667.0</ele>
        <time>2018-06-12T06:09:39Z</time>
      </trkpt>
      <trkpt lat="42.349269" lon="1.456161">
        <ele>666.9</ele>
        <time>2018-06-12T06:09:40Z</time>
      </trkpt>
      <trkpt lat="42.349179" lon="1.456112">
        <ele>667.0</ele>
        <time>2018-06-12T06:09:43Z</time>
      </trkpt>
      <trkpt lat="42.349062" lon="1.456052">
        <ele>666.8</ele>
        <time>2018-06-12T06:09:46Z</time>
      </trkpt>
      <trkpt lat="42.348812" lon="1.455978">
        <ele>667.6</ele>
        <time>2018-06-12T06:09:53Z</time>
      </trkpt>
      <trkpt lat="42.348658" lon="1.455917">
        <ele>668.1</ele>
        <time>2018-06-12T06:09:57Z</time>
      </trkpt>
      <trkpt lat="42.348579" lon="1.455867">
        <ele>668.2</ele>
        <time>2018-06-12T06:09:59Z</time>
      </trkpt>
      <trkpt lat="42.348531" lon="1.455806">
        <ele>668.2</ele>
        <time>2018-06-12T06:10:01Z</time>
      </trkpt>
      <trkpt lat="42.348413" lon="1.455596">
        <ele>667.6</ele>
        <time>2018-06-12T06:10:06Z</time>
      </trkpt>
      <trkpt lat="42.348138" lon="1.455129">
        <ele>668.5</ele>
        <time>2018-06-12T06:10:18Z</time>
      </trkpt>
      <trkpt lat="42.347968" lon="1.454831">
        <ele>670.0</ele>
        <time>2018-06-12T06:10:25Z</time>
      </trkpt>
      <trkpt lat="42.347893" lon="1.454652">
        <ele>669.7</ele>
        <time>2018-06-12T06:10:29Z</time>
      </trkpt>
      <trkpt lat="42.347839" lon="1.454444">
        <ele>668.8</ele>
        <time>2018-06-12T06:10:33Z</time>
      </trkpt>
      <trkpt lat="42.347757" lon="1.453976">
        <ele>668.5</ele>
        <time>2018-06-12T06:10:43Z</time>
      </trkpt>
      <trkpt lat="42.347713" lon="1.453833">
        <ele>668.6</ele>
        <time>2018-06-12T06:10:46Z</time>
      </trkpt>
      <trkpt lat="42.347660" lon="1.453755">
        <ele>668.9</ele>
        <time>2018-06-12T06:10:48Z</time>
      </trkpt>
      <trkpt lat="42.347596" lon="1.453666">
        <ele>669.5</ele>
        <time>2018-06-12T06:10:50Z</time>
      </trkpt>
      <trkpt lat="42.347480" lon="1.453547">
        <ele>670.7</ele>
        <time>2018-06-12T06:10:54Z</time>
      </trkpt>
      <trkpt lat="42.347406" lon="1.453465">
        <ele>671.6</ele>
        <time>2018-06-12T06:10:57Z</time>
      </trkpt>
      <trkpt lat="42.347344" lon="1.453345">
        <ele>671.3</ele>
        <time>2018-06-12T06:11:00Z</time>
      </trkpt>
      <trkpt lat="42.347239" lon="1.453123">
        <ele>669.1</ele>
        <time>2018-06-12T06:11:05Z</time>
      </trkpt>
      <trkpt lat="42.347178" lon="1.452986">
        <ele>668.3</ele>
        <time>2018-06-12T06:11:08Z</time>
      </trkpt>
      <trkpt lat="42.347069" lon="1.452734">
        <ele>668.2</ele>
        <time>2018-06-12T06:11:13Z</time>
      </trkpt>
      <trkpt lat="42.347008" lon="1.452549">
        <ele>668.6</ele>
        <time>2018-06-12T06:11:17Z</time>
      </trkpt>
      <trkpt lat="42.346900" lon="1.452109">
        <ele>667.2</ele>
        <time>2018-06-12T06:11:26Z</time>
      </trkpt>
      <trkpt lat="42.346829" lon="1.451852">
        <ele>666.2</ele>
        <time>2018-06-12T06:11:32Z</time>
      </trkpt>
      <trkpt lat="42.346787" lon="1.451643">
        <ele>667.1</ele>
        <time>2018-06-12T06:11:36Z</time>
      </trkpt>
      <trkpt lat="42.346761" lon="1.451357">
        <ele>667.9</ele>
        <time>2018-06-12T06:11:42Z</time>
      </trkpt>
      <trkpt lat="42.346775" lon="1.451096">
        <ele>669.2</ele>
        <time>2018-06-12T06:11:47Z</time>
      </trkpt>
      <trkpt lat="42.346829" lon="1.450764">
        <ele>670.6</ele>
        <time>2018-06-12T06:11:53Z</time>
      </trkpt>
      <trkpt lat="42.346896" lon="1.450169">
        <ele>668.6</ele>
        <time>2018-06-12T06:12:05Z</time>
      </trkpt>
      <trkpt lat="42.346858" lon="1.449548">
        <ele>667.5</ele>
        <time>2018-06-12T06:12:17Z</time>
      </trkpt>
      <trkpt lat="42.346816" lon="1.448755">
        <ele>663.1</ele>
        <time>2018-06-12T06:12:33Z</time>
      </trkpt>
      <trkpt lat="42.346728" lon="1.448230">
        <ele>664.1</ele>
        <time>2018-06-12T06:12:43Z</time>
      </trkpt>
      <trkpt lat="42.346583" lon="1.447630">
        <ele>661.4</ele>
        <time>2018-06-12T06:12:56Z</time>
      </trkpt>
      <trkpt lat="42.346430" lon="1.446864">
        <ele>660.6</ele>
        <time>2018-06-12T06:13:11Z</time>
      </trkpt>
      <trkpt lat="42.346289" lon="1.446326">
        <ele>661.0</ele>
        <time>2018-06-12T06:13:22Z</time>
      </trkpt>
      <trkpt lat="42.346214" lon="1.446158">
        <ele>661.2</ele>
        <time>2018-06-12T06:13:26Z</time>
      </trkpt>
      <trkpt lat="42.346222" lon="1.446170">
        <ele>661.2</ele>
        <time>2018-06-12T06:13:26Z</time>
      </trkpt>
      <trkpt lat="42.346010" lon="1.445545">
        <ele>660.3</ele>
        <time>2018-06-12T06:13:40Z</time>
      </trkpt>
      <trkpt lat="42.345943" lon="1.445200">
        <ele>659.8</ele>
        <time>2018-06-12T06:13:47Z</time>
      </trkpt>
      <trkpt lat="42.345864" lon="1.444830">
        <ele>661.0</ele>
        <time>2018-06-12T06:13:54Z</time>
      </trkpt>
      <trkpt lat="42.345722" lon="1.443935">
        <ele>662.9</ele>
        <time>2018-06-12T06:14:12Z</time>
      </trkpt>
      <trkpt lat="42.345645" lon="1.443530">
        <ele>660.5</ele>
        <time>2018-06-12T06:14:20Z</time>
      </trkpt>
      <trkpt lat="42.345525" lon="1.443111">
        <ele>660.1</ele>
        <time>2018-06-12T06:14:29Z</time>
      </trkpt>
      <trkpt lat="42.345391" lon="1.442620">
        <ele>660.9</ele>
        <time>2018-06-12T06:14:39Z</time>
      </trkpt>
      <trkpt lat="42.345233" lon="1.442239">
        <ele>661.1</ele>
        <time>2018-06-12T06:14:47Z</time>
      </trkpt>
      <trkpt lat="42.344844" lon="1.441434">
        <ele>661.6</ele>
        <time>2018-06-12T06:15:06Z</time>
      </trkpt>
      <trkpt lat="42.344583" lon="1.440849">
        <ele>662.4</ele>
        <time>2018-06-12T06:15:20Z</time>
      </trkpt>
      <trkpt lat="42.344383" lon="1.440480">
        <ele>662.0</ele>
        <time>2018-06-12T06:15:28Z</time>
      </trkpt>
      <trkpt lat="42.344238" lon="1.440297">
        <ele>664.8</ele>
        <time>2018-06-12T06:15:34Z</time>
      </trkpt>
      <trkpt lat="42.344140" lon="1.440163">
        <ele>667.9</ele>
        <time>2018-06-12T06:15:37Z</time>
      </trkpt>
      <trkpt lat="42.344032" lon="1.440054">
        <ele>668.9</ele>
        <time>2018-06-12T06:15:41Z</time>
      </trkpt>
      <trkpt lat="42.343785" lon="1.439856">
        <ele>672.1</ele>
        <time>2018-06-12T06:15:49Z</time>
      </trkpt>
      <trkpt lat="42.342875" lon="1.439244">
        <ele>651.0</ele>
        <time>2018-06-12T06:16:16Z</time>
      </trkpt>
      <trkpt lat="42.342228" lon="1.438751">
        <ele>657.4</ele>
        <time>2018-06-12T06:16:35Z</time>
      </trkpt>
      <trkpt lat="42.341702" lon="1.438383">
        <ele>661.8</ele>
        <time>2018-06-12T06:16:51Z</time>
      </trkpt>
      <trkpt lat="42.341433" lon="1.438216">
        <ele>662.5</ele>
        <time>2018-06-12T06:16:59Z</time>
      </trkpt>
      <trkpt lat="42.341333" lon="1.438142">
        <ele>663.0</ele>
        <time>2018-06-12T06:17:02Z</time>
      </trkpt>
      <trkpt lat="42.341223" lon="1.438019">
        <ele>663.6</ele>
        <time>2018-06-12T06:17:06Z</time>
      </trkpt>
      <trkpt lat="42.341086" lon="1.437859">
        <ele>662.9</ele>
        <time>2018-06-12T06:17:10Z</time>
      </trkpt>
      <trkpt lat="42.340695" lon="1.437217">
        <ele>662.0</ele>
        <time>2018-06-12T06:17:27Z</time>
      </trkpt>
      <trkpt lat="42.340205" lon="1.436399">
        <ele>660.4</ele>
        <time>2018-06-12T06:17:47Z</time>
      </trkpt>
      <trkpt lat="42.339952" lon="1.435781">
        <ele>657.1</ele>
        <time>2018-06-12T06:18:01Z</time>
      </trkpt>
      <trkpt lat="42.339657" lon="1.434898">
        <ele>652.8</ele>
        <time>2018-06-12T06:18:20Z</time>
      </trkpt>
      <trkpt lat="42.339497" lon="1.434472">
        <ele>654.5</ele>
        <time>2018-06-12T06:18:29Z</time>
      </trkpt>
      <trkpt lat="42.339323" lon="1.434036">
        <ele>655.1</ele>
        <time>2018-06-12T06:18:39Z</time>
      </trkpt>
      <trkpt lat="42.339128" lon="1.433620">
        <ele>654.7</ele>
        <time>2018-06-12T06:18:48Z</time>
      </trkpt>
      <trkpt lat="42.338751" lon="1.432940">
        <ele>654.1</ele>
        <time>2018-06-12T06:19:05Z</time>
      </trkpt>
      <trkpt lat="42.338452" lon="1.432416">
        <ele>656.8</ele>
        <time>2018-06-12T06:19:18Z</time>
      </trkpt>
      <trkpt lat="42.338101" lon="1.431882">
        <ele>657.7</ele>
        <time>2018-06-12T06:19:32Z</time>
      </trkpt>
      <trkpt lat="42.337590" lon="1.431196">
        <ele>650.1</ele>
        <time>2018-06-12T06:19:51Z</time>
      </trkpt>
      <trkpt lat="42.337128" lon="1.430702">
        <ele>648.0</ele>
        <time>2018-06-12T06:20:06Z</time>
      </trkpt>
      <trkpt lat="42.337064" lon="1.430566">
        <ele>648.7</ele>
        <time>2018-06-12T06:20:09Z</time>
      </trkpt>
      <trkpt lat="42.337042" lon="1.430442">
        <ele>649.2</ele>
        <time>2018-06-12T06:20:12Z</time>
      </trkpt>
      <trkpt lat="42.336983" lon="1.430330">
        <ele>651.3</ele>
        <time>2018-06-12T06:20:15Z</time>
      </trkpt>
      <trkpt lat="42.336846" lon="1.430225">
        <ele>653.1</ele>
        <time>2018-06-12T06:20:19Z</time>
      </trkpt>
      <trkpt lat="42.336731" lon="1.430193">
        <ele>653.3</ele>
        <time>2018-06-12T06:20:22Z</time>
      </trkpt>
      <trkpt lat="42.336606" lon="1.430167">
        <ele>653.2</ele>
        <time>2018-06-12T06:20:25Z</time>
      </trkpt>
      <trkpt lat="42.336382" lon="1.429979">
        <ele>654.8</ele>
        <time>2018-06-12T06:20:32Z</time>
      </trkpt>
      <trkpt lat="42.335923" lon="1.429622">
        <ele>658.9</ele>
        <time>2018-06-12T06:20:46Z</time>
      </trkpt>
      <trkpt lat="42.335721" lon="1.429476">
        <ele>656.8</ele>
        <time>2018-06-12T06:20:52Z</time>
      </trkpt>
      <trkpt lat="42.335562" lon="1.429387">
        <ele>658.5</ele>
        <time>2018-06-12T06:20:57Z</time>
      </trkpt>
      <trkpt lat="42.335361" lon="1.429279">
        <ele>661.5</ele>
        <time>2018-06-12T06:21:02Z</time>
      </trkpt>
      <trkpt lat="42.335242" lon="1.429119">
        <ele>661.8</ele>
        <time>2018-06-12T06:21:07Z</time>
      </trkpt>
      <trkpt lat="42.335151" lon="1.428960">
        <ele>661.2</ele>
        <time>2018-06-12T06:21:11Z</time>
      </trkpt>
      <trkpt lat="42.335093" lon="1.428808">
        <ele>660.0</ele>
        <time>2018-06-12T06:21:14Z</time>
      </trkpt>
      <trkpt lat="42.335051" lon="1.428612">
        <ele>659.3</ele>
        <time>2018-06-12T06:21:18Z</time>
      </trkpt>
      <trkpt lat="42.334951" lon="1.428441">
        <ele>660.4</ele>
        <time>2018-06-12T06:21:22Z</time>
      </trkpt>
      <trkpt lat="42.334802" lon="1.428258">
        <ele>663.1</ele>
        <time>2018-06-12T06:21:28Z</time>
      </trkpt>
      <trkpt lat="42.334649" lon="1.428067">
        <ele>664.4</ele>
        <time>2018-06-12T06:21:33Z</time>
      </trkpt>
      <trkpt lat="42.334528" lon="1.427883">
        <ele>664.5</ele>
        <time>2018-06-12T06:21:38Z</time>
      </trkpt>
      <trkpt lat="42.334460" lon="1.427706">
        <ele>663.5</ele>
        <time>2018-06-12T06:21:42Z</time>
      </trkpt>
      <trkpt lat="42.334443" lon="1.427524">
        <ele>661.4</ele>
        <time>2018-06-12T06:21:45Z</time>
      </trkpt>
      <trkpt lat="42.334437" lon="1.427352">
        <ele>659.1</ele>
        <time>2018-06-12T06:21:49Z</time>
      </trkpt>
      <trkpt lat="42.334457" lon="1.427056">
        <ele>655.5</ele>
        <time>2018-06-12T06:21:55Z</time>
      </trkpt>
      <trkpt lat="42.334435" lon="1.426818">
        <ele>653.8</ele>
        <time>2018-06-12T06:21:59Z</time>
      </trkpt>
      <trkpt lat="42.334368" lon="1.426695">
        <ele>654.5</ele>
        <time>2018-06-12T06:22:02Z</time>
      </trkpt>
      <trkpt lat="42.334227" lon="1.426529">
        <ele>656.7</ele>
        <time>2018-06-12T06:22:07Z</time>
      </trkpt>
      <trkpt lat="42.334121" lon="1.426342">
        <ele>658.3</ele>
        <time>2018-06-12T06:22:12Z</time>
      </trkpt>
      <trkpt lat="42.333955" lon="1.425938">
        <ele>660.0</ele>
        <time>2018-06-12T06:22:21Z</time>
      </trkpt>
      <trkpt lat="42.333823" lon="1.425732">
        <ele>663.0</ele>
        <time>2018-06-12T06:22:26Z</time>
      </trkpt>
      <trkpt lat="42.333654" lon="1.425581">
        <ele>663.6</ele>
        <time>2018-06-12T06:22:32Z</time>
      </trkpt>
      <trkpt lat="42.333472" lon="1.425335">
        <ele>660.8</ele>
        <time>2018-06-12T06:22:38Z</time>
      </trkpt>
      <trkpt lat="42.333323" lon="1.424948">
        <ele>657.0</ele>
        <time>2018-06-12T06:22:47Z</time>
      </trkpt>
      <trkpt lat="42.333252" lon="1.424662">
        <ele>656.3</ele>
        <time>2018-06-12T06:22:53Z</time>
      </trkpt>
      <trkpt lat="42.333237" lon="1.424309">
        <ele>655.1</ele>
        <time>2018-06-12T06:23:00Z</time>
      </trkpt>
      <trkpt lat="42.333160" lon="1.424126">
        <ele>654.4</ele>
        <time>2018-06-12T06:23:04Z</time>
      </trkpt>
      <trkpt lat="42.333052" lon="1.423969">
        <ele>654.0</ele>
        <time>2018-06-12T06:23:08Z</time>
      </trkpt>
      <trkpt lat="42.332939" lon="1.423775">
        <ele>653.1</ele>
        <time>2018-06-12T06:23:13Z</time>
      </trkpt>
      <trkpt lat="42.332557" lon="1.423259">
        <ele>651.3</ele>
        <time>2018-06-12T06:23:27Z</time>
      </trkpt>
      <trkpt lat="42.332411" lon="1.422984">
        <ele>650.9</ele>
        <time>2018-06-12T06:23:34Z</time>
      </trkpt>
      <trkpt lat="42.332316" lon="1.422746">
        <ele>650.9</ele>
        <time>2018-06-12T06:23:39Z</time>
      </trkpt>
      <trkpt lat="42.332264" lon="1.422579">
        <ele>650.5</ele>
        <time>2018-06-12T06:23:42Z</time>
      </trkpt>
      <trkpt lat="42.332200" lon="1.422257">
        <ele>648.6</ele>
        <time>2018-06-12T06:23:49Z</time>
      </trkpt>
      <trkpt lat="42.332181" lon="1.422027">
        <ele>647.7</ele>
        <time>2018-06-12T06:23:53Z</time>
      </trkpt>
      <trkpt lat="42.332181" lon="1.421779">
        <ele>646.8</ele>
        <time>2018-06-12T06:23:58Z</time>
      </trkpt>
      <trkpt lat="42.332198" lon="1.421496">
        <ele>645.8</ele>
        <time>2018-06-12T06:24:04Z</time>
      </trkpt>
      <trkpt lat="42.332232" lon="1.421199">
        <ele>646.1</ele>
        <time>2018-06-12T06:24:10Z</time>
      </trkpt>
      <trkpt lat="42.332223" lon="1.420946">
        <ele>647.1</ele>
        <time>2018-06-12T06:24:15Z</time>
      </trkpt>
      <trkpt lat="42.332154" lon="1.420600">
        <ele>647.6</ele>
        <time>2018-06-12T06:24:22Z</time>
      </trkpt>
      <trkpt lat="42.332076" lon="1.420170">
        <ele>645.2</ele>
        <time>2018-06-12T06:24:30Z</time>
      </trkpt>
      <trkpt lat="42.331885" lon="1.419240">
        <ele>643.3</ele>
        <time>2018-06-12T06:24:49Z</time>
      </trkpt>
      <trkpt lat="42.331816" lon="1.418780">
        <ele>644.9</ele>
        <time>2018-06-12T06:24:58Z</time>
      </trkpt>
      <trkpt lat="42.331841" lon="1.418130">
        <ele>641.6</ele>
        <time>2018-06-12T06:25:11Z</time>
      </trkpt>
      <trkpt lat="42.331876" lon="1.417439">
        <ele>641.3</ele>
        <time>2018-06-12T06:25:24Z</time>
      </trkpt>
      <trkpt lat="42.331938" lon="1.416884">
        <ele>643.4</ele>
        <time>2018-06-12T06:25:35Z</time>
      </trkpt>
      <trkpt lat="42.332028" lon="1.416501">
        <ele>643.0</ele>
        <time>2018-06-12T06:25:43Z</time>
      </trkpt>
      <trkpt lat="42.332163" lon="1.416192">
        <ele>643.6</ele>
        <time>2018-06-12T06:25:50Z</time>
      </trkpt>
      <trkpt lat="42.332205" lon="1.416083">
        <ele>644.1</ele>
        <time>2018-06-12T06:25:53Z</time>
      </trkpt>
      <trkpt lat="42.332219" lon="1.415997">
        <ele>644.8</ele>
        <time>2018-06-12T06:25:54Z</time>
      </trkpt>
      <trkpt lat="42.332194" lon="1.415783">
        <ele>647.1</ele>
        <time>2018-06-12T06:25:59Z</time>
      </trkpt>
      <trkpt lat="42.332192" lon="1.415661">
        <ele>647.9</ele>
        <time>2018-06-12T06:26:01Z</time>
      </trkpt>
      <trkpt lat="42.332222" lon="1.415292">
        <ele>647.7</ele>
        <time>2018-06-12T06:26:08Z</time>
      </trkpt>
      <trkpt lat="42.332232" lon="1.415063">
        <ele>648.2</ele>
        <time>2018-06-12T06:26:13Z</time>
      </trkpt>
      <trkpt lat="42.332199" lon="1.414956">
        <ele>649.5</ele>
        <time>2018-06-12T06:26:15Z</time>
      </trkpt>
      <trkpt lat="42.332158" lon="1.414891">
        <ele>650.6</ele>
        <time>2018-06-12T06:26:17Z</time>
      </trkpt>
      <trkpt lat="42.332085" lon="1.414852">
        <ele>652.0</ele>
        <time>2018-06-12T06:26:19Z</time>
      </trkpt>
      <trkpt lat="42.331538" lon="1.414647">
        <ele>665.0</ele>
        <time>2018-06-12T06:26:34Z</time>
      </trkpt>
      <trkpt lat="42.331431" lon="1.414574">
        <ele>664.2</ele>
        <time>2018-06-12T06:26:37Z</time>
      </trkpt>
      <trkpt lat="42.331270" lon="1.414457">
        <ele>663.1</ele>
        <time>2018-06-12T06:26:42Z</time>
      </trkpt>
      <trkpt lat="42.331114" lon="1.414334">
        <ele>660.8</ele>
        <time>2018-06-12T06:26:47Z</time>
      </trkpt>
      <trkpt lat="42.330918" lon="1.414186">
        <ele>660.1</ele>
        <time>2018-06-12T06:26:53Z</time>
      </trkpt>
      <trkpt lat="42.330519" lon="1.413767">
        <ele>662.0</ele>
        <time>2018-06-12T06:27:06Z</time>
      </trkpt>
      <trkpt lat="42.330349" lon="1.413615">
        <ele>662.8</ele>
        <time>2018-06-12T06:27:11Z</time>
      </trkpt>
      <trkpt lat="42.329972" lon="1.413335">
        <ele>664.0</ele>
        <time>2018-06-12T06:27:23Z</time>
      </trkpt>
      <trkpt lat="42.329663" lon="1.413084">
        <ele>662.2</ele>
        <time>2018-06-12T06:27:32Z</time>
      </trkpt>
      <trkpt lat="42.329555" lon="1.412968">
        <ele>661.0</ele>
        <time>2018-06-12T06:27:36Z</time>
      </trkpt>
      <trkpt lat="42.329447" lon="1.412808">
        <ele>659.0</ele>
        <time>2018-06-12T06:27:40Z</time>
      </trkpt>
      <trkpt lat="42.329252" lon="1.412540">
        <ele>655.5</ele>
        <time>2018-06-12T06:27:47Z</time>
      </trkpt>
      <trkpt lat="42.328971" lon="1.412124">
        <ele>654.6</ele>
        <time>2018-06-12T06:27:58Z</time>
      </trkpt>
      <trkpt lat="42.328887" lon="1.411974">
        <ele>652.1</ele>
        <time>2018-06-12T06:28:02Z</time>
      </trkpt>
      <trkpt lat="42.328766" lon="1.411850">
        <ele>649.9</ele>
        <time>2018-06-12T06:28:06Z</time>
      </trkpt>
      <trkpt lat="42.328643" lon="1.411768">
        <ele>647.9</ele>
        <time>2018-06-12T06:28:10Z</time>
      </trkpt>
      <trkpt lat="42.328442" lon="1.411670">
        <ele>644.3</ele>
        <time>2018-06-12T06:28:15Z</time>
      </trkpt>
      <trkpt lat="42.328278" lon="1.411607">
        <ele>640.5</ele>
        <time>2018-06-12T06:28:20Z</time>
      </trkpt>
      <trkpt lat="42.328123" lon="1.411589">
        <ele>639.9</ele>
        <time>2018-06-12T06:28:24Z</time>
      </trkpt>
      <trkpt lat="42.327971" lon="1.411621">
        <ele>642.7</ele>
        <time>2018-06-12T06:28:28Z</time>
      </trkpt>
      <trkpt lat="42.327900" lon="1.411636">
        <ele>644.2</ele>
        <time>2018-06-12T06:28:30Z</time>
      </trkpt>
      <trkpt lat="42.327795" lon="1.411636">
        <ele>647.7</ele>
        <time>2018-06-12T06:28:33Z</time>
      </trkpt>
      <trkpt lat="42.327712" lon="1.411637">
        <ele>650.4</ele>
        <time>2018-06-12T06:28:35Z</time>
      </trkpt>
      <trkpt lat="42.327559" lon="1.411604">
        <ele>652.5</ele>
        <time>2018-06-12T06:28:39Z</time>
      </trkpt>
      <trkpt lat="42.327512" lon="1.411605">
        <ele>652.9</ele>
        <time>2018-06-12T06:28:41Z</time>
      </trkpt>
      <trkpt lat="42.327453" lon="1.411605">
        <ele>653.3</ele>
        <time>2018-06-12T06:28:42Z</time>
      </trkpt>
      <trkpt lat="42.327359" lon="1.411591">
        <ele>653.6</ele>
        <time>2018-06-12T06:28:45Z</time>
      </trkpt>
      <trkpt lat="42.327279" lon="1.411499">
        <ele>651.9</ele>
        <time>2018-06-12T06:28:47Z</time>
      </trkpt>
      <trkpt lat="42.327246" lon="1.411417">
        <ele>650.2</ele>
        <time>2018-06-12T06:28:49Z</time>
      </trkpt>
      <trkpt lat="42.327199" lon="1.411353">
        <ele>649.1</ele>
        <time>2018-06-12T06:28:51Z</time>
      </trkpt>
      <trkpt lat="42.327118" lon="1.411297">
        <ele>648.7</ele>
        <time>2018-06-12T06:28:54Z</time>
      </trkpt>
      <trkpt lat="42.327012" lon="1.411247">
        <ele>649.3</ele>
        <time>2018-06-12T06:28:56Z</time>
      </trkpt>
      <trkpt lat="42.326897" lon="1.411218">
        <ele>651.0</ele>
        <time>2018-06-12T06:29:00Z</time>
      </trkpt>
      <trkpt lat="42.326724" lon="1.411184">
        <ele>653.5</ele>
        <time>2018-06-12T06:29:04Z</time>
      </trkpt>
      <trkpt lat="42.326643" lon="1.411161">
        <ele>654.6</ele>
        <time>2018-06-12T06:29:06Z</time>
      </trkpt>
      <trkpt lat="42.326588" lon="1.411133">
        <ele>655.2</ele>
        <time>2018-06-12T06:29:08Z</time>
      </trkpt>
      <trkpt lat="42.326555" lon="1.411088">
        <ele>655.4</ele>
        <time>2018-06-12T06:29:09Z</time>
      </trkpt>
      <trkpt lat="42.326538" lon="1.410956">
        <ele>654.7</ele>
        <time>2018-06-12T06:29:12Z</time>
      </trkpt>
      <trkpt lat="42.326535" lon="1.410816">
        <ele>653.7</ele>
        <time>2018-06-12T06:29:15Z</time>
      </trkpt>
      <trkpt lat="42.326537" lon="1.410651">
        <ele>652.3</ele>
        <time>2018-06-12T06:29:18Z</time>
      </trkpt>
      <trkpt lat="42.326530" lon="1.410529">
        <ele>651.2</ele>
        <time>2018-06-12T06:29:20Z</time>
      </trkpt>
      <trkpt lat="42.326513" lon="1.410390">
        <ele>650.0</ele>
        <time>2018-06-12T06:29:23Z</time>
      </trkpt>
      <trkpt lat="42.326502" lon="1.410272">
        <ele>648.5</ele>
        <time>2018-06-12T06:29:25Z</time>
      </trkpt>
      <trkpt lat="42.326488" lon="1.410189">
        <ele>647.5</ele>
        <time>2018-06-12T06:29:27Z</time>
      </trkpt>
      <trkpt lat="42.326462" lon="1.410124">
        <ele>647.0</ele>
        <time>2018-06-12T06:29:28Z</time>
      </trkpt>
      <trkpt lat="42.326427" lon="1.410052">
        <ele>646.5</ele>
        <time>2018-06-12T06:29:30Z</time>
      </trkpt>
      <trkpt lat="42.326379" lon="1.409956">
        <ele>645.6</ele>
        <time>2018-06-12T06:29:32Z</time>
      </trkpt>
      <trkpt lat="42.325853" lon="1.409276">
        <ele>639.6</ele>
        <time>2018-06-12T06:29:52Z</time>
      </trkpt>
      <trkpt lat="42.325774" lon="1.409175">
        <ele>639.1</ele>
        <time>2018-06-12T06:29:54Z</time>
      </trkpt>
      <trkpt lat="42.325748" lon="1.409086">
        <ele>638.4</ele>
        <time>2018-06-12T06:29:56Z</time>
      </trkpt>
      <trkpt lat="42.325769" lon="1.408956">
        <ele>637.9</ele>
        <time>2018-06-12T06:29:59Z</time>
      </trkpt>
      <trkpt lat="42.325806" lon="1.408843">
        <ele>638.0</ele>
        <time>2018-06-12T06:30:01Z</time>
      </trkpt>
      <trkpt lat="42.325835" lon="1.408749">
        <ele>638.0</ele>
        <time>2018-06-12T06:30:03Z</time>
      </trkpt>
      <trkpt lat="42.325839" lon="1.408674">
        <ele>638.0</ele>
        <time>2018-06-12T06:30:05Z</time>
      </trkpt>
      <trkpt lat="42.325839" lon="1.408579">
        <ele>638.0</ele>
        <time>2018-06-12T06:30:07Z</time>
      </trkpt>
      <trkpt lat="42.325830" lon="1.408329">
        <ele>637.7</ele>
        <time>2018-06-12T06:30:11Z</time>
      </trkpt>
      <trkpt lat="42.325812" lon="1.407924">
        <ele>636.9</ele>
        <time>2018-06-12T06:30:19Z</time>
      </trkpt>
      <trkpt lat="42.325799" lon="1.407733">
        <ele>635.8</ele>
        <time>2018-06-12T06:30:23Z</time>
      </trkpt>
      <trkpt lat="42.325770" lon="1.407567">
        <ele>635.3</ele>
        <time>2018-06-12T06:30:26Z</time>
      </trkpt>
      <trkpt lat="42.325705" lon="1.407353">
        <ele>635.1</ele>
        <time>2018-06-12T06:30:31Z</time>
      </trkpt>
      <trkpt lat="42.325393" lon="1.406585">
        <ele>636.6</ele>
        <time>2018-06-12T06:30:48Z</time>
      </trkpt>
      <trkpt lat="42.324988" lon="1.405612">
        <ele>635.4</ele>
        <time>2018-06-12T06:31:10Z</time>
      </trkpt>
      <trkpt lat="42.324771" lon="1.405171">
        <ele>634.4</ele>
        <time>2018-06-12T06:31:20Z</time>
      </trkpt>
      <trkpt lat="42.324740" lon="1.405054">
        <ele>634.4</ele>
        <time>2018-06-12T06:31:23Z</time>
      </trkpt>
      <trkpt lat="42.324678" lon="1.404718">
        <ele>636.4</ele>
        <time>2018-06-12T06:31:29Z</time>
      </trkpt>
      <trkpt lat="42.324638" lon="1.404591">
        <ele>637.9</ele>
        <time>2018-06-12T06:31:32Z</time>
      </trkpt>
      <trkpt lat="42.324589" lon="1.404496">
        <ele>638.3</ele>
        <time>2018-06-12T06:31:34Z</time>
      </trkpt>
      <trkpt lat="42.324430" lon="1.404203">
        <ele>638.6</ele>
        <time>2018-06-12T06:31:41Z</time>
      </trkpt>
      <trkpt lat="42.324103" lon="1.403763">
        <ele>633.2</ele>
        <time>2018-06-12T06:31:54Z</time>
      </trkpt>
      <trkpt lat="42.323953" lon="1.403595">
        <ele>633.3</ele>
        <time>2018-06-12T06:31:59Z</time>
      </trkpt>
      <trkpt lat="42.323658" lon="1.403394">
        <ele>634.8</ele>
        <time>2018-06-12T06:32:07Z</time>
      </trkpt>
      <trkpt lat="42.323392" lon="1.403283">
        <ele>638.6</ele>
        <time>2018-06-12T06:32:15Z</time>
      </trkpt>
      <trkpt lat="42.323267" lon="1.403189">
        <ele>639.9</ele>
        <time>2018-06-12T06:32:19Z</time>
      </trkpt>
      <trkpt lat="42.323121" lon="1.403049">
        <ele>640.1</ele>
        <time>2018-06-12T06:32:23Z</time>
      </trkpt>
      <trkpt lat="42.322989" lon="1.402803">
        <ele>638.9</ele>
        <time>2018-06-12T06:32:29Z</time>
      </trkpt>
      <trkpt lat="42.322848" lon="1.402422">
        <ele>636.9</ele>
        <time>2018-06-12T06:32:37Z</time>
      </trkpt>
      <trkpt lat="42.322731" lon="1.401929">
        <ele>635.6</ele>
        <time>2018-06-12T06:32:48Z</time>
      </trkpt>
      <trkpt lat="42.322652" lon="1.401338">
        <ele>634.6</ele>
        <time>2018-06-12T06:32:59Z</time>
      </trkpt>
      <trkpt lat="42.322616" lon="1.400755">
        <ele>634.0</ele>
        <time>2018-06-12T06:33:11Z</time>
      </trkpt>
      <trkpt lat="42.322612" lon="1.400134">
        <ele>636.1</ele>
        <time>2018-06-12T06:33:23Z</time>
      </trkpt>
      <trkpt lat="42.322638" lon="1.399539">
        <ele>633.7</ele>
        <time>2018-06-12T06:33:34Z</time>
      </trkpt>
      <trkpt lat="42.322743" lon="1.399139">
        <ele>630.1</ele>
        <time>2018-06-12T06:33:43Z</time>
      </trkpt>
      <trkpt lat="42.322920" lon="1.398736">
        <ele>627.9</ele>
        <time>2018-06-12T06:33:52Z</time>
      </trkpt>
      <trkpt lat="42.323127" lon="1.398352">
        <ele>624.2</ele>
        <time>2018-06-12T06:34:01Z</time>
      </trkpt>
      <trkpt lat="42.323337" lon="1.397814">
        <ele>623.7</ele>
        <time>2018-06-12T06:34:13Z</time>
      </trkpt>
      <trkpt lat="42.323400" lon="1.397641">
        <ele>625.0</ele>
        <time>2018-06-12T06:34:17Z</time>
      </trkpt>
      <trkpt lat="42.323443" lon="1.397499">
        <ele>626.7</ele>
        <time>2018-06-12T06:34:20Z</time>
      </trkpt>
      <trkpt lat="42.323462" lon="1.397390">
        <ele>627.7</ele>
        <time>2018-06-12T06:34:22Z</time>
      </trkpt>
      <trkpt lat="42.323435" lon="1.397247">
        <ele>628.6</ele>
        <time>2018-06-12T06:34:25Z</time>
      </trkpt>
      <trkpt lat="42.323325" lon="1.396952">
        <ele>630.2</ele>
        <time>2018-06-12T06:34:31Z</time>
      </trkpt>
      <trkpt lat="42.323164" lon="1.396586">
        <ele>631.0</ele>
        <time>2018-06-12T06:34:40Z</time>
      </trkpt>
      <trkpt lat="42.323132" lon="1.396432">
        <ele>631.0</ele>
        <time>2018-06-12T06:34:43Z</time>
      </trkpt>
      <trkpt lat="42.323047" lon="1.396124">
        <ele>631.2</ele>
        <time>2018-06-12T06:34:49Z</time>
      </trkpt>
      <trkpt lat="42.322930" lon="1.395828">
        <ele>632.4</ele>
        <time>2018-06-12T06:34:56Z</time>
      </trkpt>
      <trkpt lat="42.322735" lon="1.395518">
        <ele>634.1</ele>
        <time>2018-06-12T06:35:04Z</time>
      </trkpt>
      <trkpt lat="42.322384" lon="1.395003">
        <ele>636.9</ele>
        <time>2018-06-12T06:35:17Z</time>
      </trkpt>
      <trkpt lat="42.322030" lon="1.394532">
        <ele>636.2</ele>
        <time>2018-06-12T06:35:30Z</time>
      </trkpt>
      <trkpt lat="42.321842" lon="1.394209">
        <ele>637.2</ele>
        <time>2018-06-12T06:35:38Z</time>
      </trkpt>
      <trkpt lat="42.321679" lon="1.393998">
        <ele>640.6</ele>
        <time>2018-06-12T06:35:44Z</time>
      </trkpt>
      <trkpt lat="42.321572" lon="1.393898">
        <ele>642.5</ele>
        <time>2018-06-12T06:35:48Z</time>
      </trkpt>
      <trkpt lat="42.321449" lon="1.393744">
        <ele>646.3</ele>
        <time>2018-06-12T06:35:52Z</time>
      </trkpt>
      <trkpt lat="42.321291" lon="1.393513">
        <ele>651.7</ele>
        <time>2018-06-12T06:35:59Z</time>
      </trkpt>
      <trkpt lat="42.321121" lon="1.393304">
        <ele>654.6</ele>
        <time>2018-06-12T06:36:05Z</time>
      </trkpt>
      <trkpt lat="42.320998" lon="1.393180">
        <ele>655.6</ele>
        <time>2018-06-12T06:36:09Z</time>
      </trkpt>
      <trkpt lat="42.320947" lon="1.393091">
        <ele>655.4</ele>
        <time>2018-06-12T06:36:11Z</time>
      </trkpt>
      <trkpt lat="42.320869" lon="1.392832">
        <ele>654.4</ele>
        <time>2018-06-12T06:36:16Z</time>
      </trkpt>
      <trkpt lat="42.320799" lon="1.392710">
        <ele>654.5</ele>
        <time>2018-06-12T06:36:19Z</time>
      </trkpt>
      <trkpt lat="42.320744" lon="1.392641">
        <ele>654.6</ele>
        <time>2018-06-12T06:36:21Z</time>
      </trkpt>
      <trkpt lat="42.320582" lon="1.392430">
        <ele>656.9</ele>
        <time>2018-06-12T06:36:27Z</time>
      </trkpt>
      <trkpt lat="42.320491" lon="1.392192">
        <ele>660.3</ele>
        <time>2018-06-12T06:36:33Z</time>
      </trkpt>
      <trkpt lat="42.320392" lon="1.392011">
        <ele>664.2</ele>
        <time>2018-06-12T06:36:37Z</time>
      </trkpt>
      <trkpt lat="42.320294" lon="1.391885">
        <ele>667.3</ele>
        <time>2018-06-12T06:36:41Z</time>
      </trkpt>
      <trkpt lat="42.319773" lon="1.391448">
        <ele>665.9</ele>
        <time>2018-06-12T06:36:57Z</time>
      </trkpt>
      <trkpt lat="42.319379" lon="1.391153">
        <ele>662.5</ele>
        <time>2018-06-12T06:37:09Z</time>
      </trkpt>
      <trkpt lat="42.319183" lon="1.390983">
        <ele>663.9</ele>
        <time>2018-06-12T06:37:15Z</time>
      </trkpt>
      <trkpt lat="42.319020" lon="1.390869">
        <ele>665.3</ele>
        <time>2018-06-12T06:37:20Z</time>
      </trkpt>
      <trkpt lat="42.318861" lon="1.390801">
        <ele>666.4</ele>
        <time>2018-06-12T06:37:24Z</time>
      </trkpt>
      <trkpt lat="42.318707" lon="1.390776">
        <ele>667.6</ele>
        <time>2018-06-12T06:37:28Z</time>
      </trkpt>
      <trkpt lat="42.318641" lon="1.390735">
        <ele>667.7</ele>
        <time>2018-06-12T06:37:30Z</time>
      </trkpt>
      <trkpt lat="42.318584" lon="1.390685">
        <ele>667.7</ele>
        <time>2018-06-12T06:37:32Z</time>
      </trkpt>
      <trkpt lat="42.318494" lon="1.390605">
        <ele>667.8</ele>
        <time>2018-06-12T06:37:35Z</time>
      </trkpt>
      <trkpt lat="42.318400" lon="1.390561">
        <ele>668.2</ele>
        <time>2018-06-12T06:37:37Z</time>
      </trkpt>
      <trkpt lat="42.318316" lon="1.390564">
        <ele>668.9</ele>
        <time>2018-06-12T06:37:40Z</time>
      </trkpt>
      <trkpt lat="42.318229" lon="1.390601">
        <ele>669.7</ele>
        <time>2018-06-12T06:37:42Z</time>
      </trkpt>
      <trkpt lat="42.318163" lon="1.390601">
        <ele>670.1</ele>
        <time>2018-06-12T06:37:44Z</time>
      </trkpt>
      <trkpt lat="42.318115" lon="1.390566">
        <ele>670.3</ele>
        <time>2018-06-12T06:37:45Z</time>
      </trkpt>
      <trkpt lat="42.318063" lon="1.390475">
        <ele>670.5</ele>
        <time>2018-06-12T06:37:47Z</time>
      </trkpt>
      <trkpt lat="42.318026" lon="1.390377">
        <ele>670.2</ele>
        <time>2018-06-12T06:37:50Z</time>
      </trkpt>
      <trkpt lat="42.318008" lon="1.390238">
        <ele>668.7</ele>
        <time>2018-06-12T06:37:52Z</time>
      </trkpt>
      <trkpt lat="42.317966" lon="1.390174">
        <ele>668.2</ele>
        <time>2018-06-12T06:37:54Z</time>
      </trkpt>
      <trkpt lat="42.317920" lon="1.390132">
        <ele>667.9</ele>
        <time>2018-06-12T06:37:55Z</time>
      </trkpt>
      <trkpt lat="42.317794" lon="1.390038">
        <ele>668.8</ele>
        <time>2018-06-12T06:37:59Z</time>
      </trkpt>
      <trkpt lat="42.317596" lon="1.389878">
        <ele>670.8</ele>
        <time>2018-06-12T06:38:05Z</time>
      </trkpt>
      <trkpt lat="42.317423" lon="1.389653">
        <ele>673.1</ele>
        <time>2018-06-12T06:38:12Z</time>
      </trkpt>
      <trkpt lat="42.317324" lon="1.389488">
        <ele>673.2</ele>
        <time>2018-06-12T06:38:16Z</time>
      </trkpt>
      <trkpt lat="42.317255" lon="1.389376">
        <ele>672.2</ele>
        <time>2018-06-12T06:38:19Z</time>
      </trkpt>
      <trkpt lat="42.317151" lon="1.389281">
        <ele>671.6</ele>
        <time>2018-06-12T06:38:22Z</time>
      </trkpt>
      <trkpt lat="42.316929" lon="1.389079">
        <ele>673.3</ele>
        <time>2018-06-12T06:38:29Z</time>
      </trkpt>
      <trkpt lat="42.316803" lon="1.388954">
        <ele>674.2</ele>
        <time>2018-06-12T06:38:33Z</time>
      </trkpt>
      <trkpt lat="42.316746" lon="1.388883">
        <ele>674.1</ele>
        <time>2018-06-12T06:38:35Z</time>
      </trkpt>
      <trkpt lat="42.316717" lon="1.388765">
        <ele>673.1</ele>
        <time>2018-06-12T06:38:38Z</time>
      </trkpt>
      <trkpt lat="42.316717" lon="1.388629">
        <ele>672.4</ele>
        <time>2018-06-12T06:38:40Z</time>
      </trkpt>
      <trkpt lat="42.316747" lon="1.388446">
        <ele>671.7</ele>
        <time>2018-06-12T06:38:44Z</time>
      </trkpt>
      <trkpt lat="42.316795" lon="1.388310">
        <ele>671.4</ele>
        <time>2018-06-12T06:38:47Z</time>
      </trkpt>
      <trkpt lat="42.316844" lon="1.388156">
        <ele>671.2</ele>
        <time>2018-06-12T06:38:50Z</time>
      </trkpt>
      <trkpt lat="42.316853" lon="1.388008">
        <ele>670.9</ele>
        <time>2018-06-12T06:38:53Z</time>
      </trkpt>
      <trkpt lat="42.316815" lon="1.387864">
        <ele>669.9</ele>
        <time>2018-06-12T06:38:56Z</time>
      </trkpt>
      <trkpt lat="42.316772" lon="1.387658">
        <ele>669.2</ele>
        <time>2018-06-12T06:39:00Z</time>
      </trkpt>
      <trkpt lat="42.316699" lon="1.387456">
        <ele>668.4</ele>
        <time>2018-06-12T06:39:05Z</time>
      </trkpt>
      <trkpt lat="42.316620" lon="1.387303">
        <ele>666.5</ele>
        <time>2018-06-12T06:39:08Z</time>
      </trkpt>
      <trkpt lat="42.316479" lon="1.387171">
        <ele>664.4</ele>
        <time>2018-06-12T06:39:13Z</time>
      </trkpt>
      <trkpt lat="42.315953" lon="1.386697">
        <ele>661.9</ele>
        <time>2018-06-12T06:39:29Z</time>
      </trkpt>
      <trkpt lat="42.315814" lon="1.386551">
        <ele>663.4</ele>
        <time>2018-06-12T06:39:34Z</time>
      </trkpt>
      <trkpt lat="42.315687" lon="1.386369">
        <ele>663.9</ele>
        <time>2018-06-12T06:39:39Z</time>
      </trkpt>
      <trkpt lat="42.315537" lon="1.386055">
        <ele>664.7</ele>
        <time>2018-06-12T06:39:46Z</time>
      </trkpt>
      <trkpt lat="42.315487" lon="1.385920">
        <ele>665.2</ele>
        <time>2018-06-12T06:39:49Z</time>
      </trkpt>
      <trkpt lat="42.315451" lon="1.385882">
        <ele>665.6</ele>
        <time>2018-06-12T06:39:50Z</time>
      </trkpt>
      <trkpt lat="42.315405" lon="1.385857">
        <ele>666.1</ele>
        <time>2018-06-12T06:39:52Z</time>
      </trkpt>
      <trkpt lat="42.315346" lon="1.385842">
        <ele>666.9</ele>
        <time>2018-06-12T06:39:53Z</time>
      </trkpt>
      <trkpt lat="42.315318" lon="1.385773">
        <ele>667.3</ele>
        <time>2018-06-12T06:39:55Z</time>
      </trkpt>
      <trkpt lat="42.315318" lon="1.385693">
        <ele>667.4</ele>
        <time>2018-06-12T06:39:56Z</time>
      </trkpt>
      <trkpt lat="42.315340" lon="1.385640">
        <ele>667.3</ele>
        <time>2018-06-12T06:39:58Z</time>
      </trkpt>
      <trkpt lat="42.315370" lon="1.385568">
        <ele>667.1</ele>
        <time>2018-06-12T06:39:59Z</time>
      </trkpt>
      <trkpt lat="42.315396" lon="1.385507">
        <ele>667.0</ele>
        <time>2018-06-12T06:40:01Z</time>
      </trkpt>
      <trkpt lat="42.315404" lon="1.385436">
        <ele>667.1</ele>
        <time>2018-06-12T06:40:02Z</time>
      </trkpt>
      <trkpt lat="42.315386" lon="1.385357">
        <ele>667.7</ele>
        <time>2018-06-12T06:40:04Z</time>
      </trkpt>
      <trkpt lat="42.315342" lon="1.385292">
        <ele>668.6</ele>
        <time>2018-06-12T06:40:05Z</time>
      </trkpt>
      <trkpt lat="42.314457" lon="1.384100">
        <ele>675.5</ele>
        <time>2018-06-12T06:40:38Z</time>
      </trkpt>
      <trkpt lat="42.313988" lon="1.383441">
        <ele>677.7</ele>
        <time>2018-06-12T06:40:56Z</time>
      </trkpt>
      <trkpt lat="42.313942" lon="1.383350">
        <ele>676.9</ele>
        <time>2018-06-12T06:40:58Z</time>
      </trkpt>
      <trkpt lat="42.313889" lon="1.383223">
        <ele>676.2</ele>
        <time>2018-06-12T06:41:01Z</time>
      </trkpt>
      <trkpt lat="42.313860" lon="1.383084">
        <ele>676.1</ele>
        <time>2018-06-12T06:41:04Z</time>
      </trkpt>
      <trkpt lat="42.313848" lon="1.382821">
        <ele>674.9</ele>
        <time>2018-06-12T06:41:09Z</time>
      </trkpt>
      <trkpt lat="42.313858" lon="1.382679">
        <ele>672.8</ele>
        <time>2018-06-12T06:41:12Z</time>
      </trkpt>
      <trkpt lat="42.313820" lon="1.382524">
        <ele>671.5</ele>
        <time>2018-06-12T06:41:15Z</time>
      </trkpt>
      <trkpt lat="42.313763" lon="1.382448">
        <ele>671.3</ele>
        <time>2018-06-12T06:41:17Z</time>
      </trkpt>
      <trkpt lat="42.313701" lon="1.382428">
        <ele>672.1</ele>
        <time>2018-06-12T06:41:19Z</time>
      </trkpt>
      <trkpt lat="42.313618" lon="1.382458">
        <ele>674.1</ele>
        <time>2018-06-12T06:41:21Z</time>
      </trkpt>
      <trkpt lat="42.313538" lon="1.382475">
        <ele>675.9</ele>
        <time>2018-06-12T06:41:23Z</time>
      </trkpt>
      <trkpt lat="42.313441" lon="1.382481">
        <ele>677.4</ele>
        <time>2018-06-12T06:41:26Z</time>
      </trkpt>
      <trkpt lat="42.313321" lon="1.382509">
        <ele>679.0</ele>
        <time>2018-06-12T06:41:29Z</time>
      </trkpt>
      <trkpt lat="42.313290" lon="1.382512">
        <ele>679.4</ele>
        <time>2018-06-12T06:41:30Z</time>
      </trkpt>
      <trkpt lat="42.313232" lon="1.382520">
        <ele>680.1</ele>
        <time>2018-06-12T06:41:31Z</time>
      </trkpt>
      <trkpt lat="42.313206" lon="1.382512">
        <ele>680.1</ele>
        <time>2018-06-12T06:41:32Z</time>
      </trkpt>
      <trkpt lat="42.313182" lon="1.382492">
        <ele>679.8</ele>
        <time>2018-06-12T06:41:33Z</time>
      </trkpt>
      <trkpt lat="42.313094" lon="1.382401">
        <ele>677.5</ele>
        <time>2018-06-12T06:41:36Z</time>
      </trkpt>
      <trkpt lat="42.313036" lon="1.382356">
        <ele>676.3</ele>
        <time>2018-06-12T06:41:38Z</time>
      </trkpt>
      <trkpt lat="42.312891" lon="1.382300">
        <ele>674.4</ele>
        <time>2018-06-12T06:41:42Z</time>
      </trkpt>
      <trkpt lat="42.312823" lon="1.382291">
        <ele>674.1</ele>
        <time>2018-06-12T06:41:43Z</time>
      </trkpt>
      <trkpt lat="42.312723" lon="1.382283">
        <ele>673.6</ele>
        <time>2018-06-12T06:41:46Z</time>
      </trkpt>
      <trkpt lat="42.312664" lon="1.382291">
        <ele>673.8</ele>
        <time>2018-06-12T06:41:48Z</time>
      </trkpt>
      <trkpt lat="42.312582" lon="1.382328">
        <ele>674.0</ele>
        <time>2018-06-12T06:41:50Z</time>
      </trkpt>
      <trkpt lat="42.312340" lon="1.382481">
        <ele>672.2</ele>
        <time>2018-06-12T06:41:57Z</time>
      </trkpt>
      <trkpt lat="42.312231" lon="1.382560">
        <ele>673.2</ele>
        <time>2018-06-12T06:42:00Z</time>
      </trkpt>
      <trkpt lat="42.312098" lon="1.382668">
        <ele>675.3</ele>
        <time>2018-06-12T06:42:04Z</time>
      </trkpt>
      <trkpt lat="42.312001" lon="1.382778">
        <ele>676.7</ele>
        <time>2018-06-12T06:42:08Z</time>
      </trkpt>
      <trkpt lat="42.311968" lon="1.382814">
        <ele>677.2</ele>
        <time>2018-06-12T06:42:09Z</time>
      </trkpt>
      <trkpt lat="42.311928" lon="1.382847">
        <ele>677.7</ele>
        <time>2018-06-12T06:42:10Z</time>
      </trkpt>
      <trkpt lat="42.311878" lon="1.382854">
        <ele>677.8</ele>
        <time>2018-06-12T06:42:11Z</time>
      </trkpt>
      <trkpt lat="42.311800" lon="1.382867">
        <ele>677.9</ele>
        <time>2018-06-12T06:42:13Z</time>
      </trkpt>
      <trkpt lat="42.311524" lon="1.382931">
        <ele>677.3</ele>
        <time>2018-06-12T06:42:21Z</time>
      </trkpt>
      <trkpt lat="42.311449" lon="1.382965">
        <ele>678.0</ele>
        <time>2018-06-12T06:42:23Z</time>
      </trkpt>
      <trkpt lat="42.311381" lon="1.383015">
        <ele>678.7</ele>
        <time>2018-06-12T06:42:25Z</time>
      </trkpt>
      <trkpt lat="42.311190" lon="1.383179">
        <ele>679.7</ele>
        <time>2018-06-12T06:42:31Z</time>
      </trkpt>
      <trkpt lat="42.311128" lon="1.383219">
        <ele>679.9</ele>
        <time>2018-06-12T06:42:33Z</time>
      </trkpt>
      <trkpt lat="42.311065" lon="1.383245">
        <ele>680.1</ele>
        <time>2018-06-12T06:42:35Z</time>
      </trkpt>
      <trkpt lat="42.311021" lon="1.383247">
        <ele>680.0</ele>
        <time>2018-06-12T06:42:36Z</time>
      </trkpt>
      <trkpt lat="42.310975" lon="1.383231">
        <ele>679.7</ele>
        <time>2018-06-12T06:42:37Z</time>
      </trkpt>
      <trkpt lat="42.310947" lon="1.383191">
        <ele>679.0</ele>
        <time>2018-06-12T06:42:38Z</time>
      </trkpt>
      <trkpt lat="42.310855" lon="1.382997">
        <ele>677.0</ele>
        <time>2018-06-12T06:42:43Z</time>
      </trkpt>
      <trkpt lat="42.310819" lon="1.382972">
        <ele>676.7</ele>
        <time>2018-06-12T06:42:44Z</time>
      </trkpt>
      <trkpt lat="42.310785" lon="1.382952">
        <ele>676.5</ele>
        <time>2018-06-12T06:42:45Z</time>
      </trkpt>
      <trkpt lat="42.310744" lon="1.382947">
        <ele>676.4</ele>
        <time>2018-06-12T06:42:46Z</time>
      </trkpt>
      <trkpt lat="42.310687" lon="1.382948">
        <ele>676.5</ele>
        <time>2018-06-12T06:42:47Z</time>
      </trkpt>
      <trkpt lat="42.310627" lon="1.382976">
        <ele>677.0</ele>
        <time>2018-06-12T06:42:49Z</time>
      </trkpt>
      <trkpt lat="42.310582" lon="1.382999">
        <ele>677.4</ele>
        <time>2018-06-12T06:42:50Z</time>
      </trkpt>
      <trkpt lat="42.310518" lon="1.383006">
        <ele>677.7</ele>
        <time>2018-06-12T06:42:52Z</time>
      </trkpt>
      <trkpt lat="42.310363" lon="1.382998">
        <ele>678.0</ele>
        <time>2018-06-12T06:42:56Z</time>
      </trkpt>
      <trkpt lat="42.310323" lon="1.382982">
        <ele>677.9</ele>
        <time>2018-06-12T06:42:57Z</time>
      </trkpt>
      <trkpt lat="42.310176" lon="1.382887">
        <ele>677.3</ele>
        <time>2018-06-12T06:43:01Z</time>
      </trkpt>
      <trkpt lat="42.309904" lon="1.382651">
        <ele>674.9</ele>
        <time>2018-06-12T06:43:10Z</time>
      </trkpt>
      <trkpt lat="42.309759" lon="1.382491">
        <ele>671.6</ele>
        <time>2018-06-12T06:43:15Z</time>
      </trkpt>
      <trkpt lat="42.309733" lon="1.382447">
        <ele>670.6</ele>
        <time>2018-06-12T06:43:16Z</time>
      </trkpt>
      <trkpt lat="42.309712" lon="1.382395">
        <ele>669.7</ele>
        <time>2018-06-12T06:43:17Z</time>
      </trkpt>
      <trkpt lat="42.309697" lon="1.382321">
        <ele>668.6</ele>
        <time>2018-06-12T06:43:19Z</time>
      </trkpt>
      <trkpt lat="42.309671" lon="1.382255">
        <ele>667.4</ele>
        <time>2018-06-12T06:43:20Z</time>
      </trkpt>
      <trkpt lat="42.309638" lon="1.382200">
        <ele>666.2</ele>
        <time>2018-06-12T06:43:21Z</time>
      </trkpt>
      <trkpt lat="42.309586" lon="1.382158">
        <ele>664.9</ele>
        <time>2018-06-12T06:43:23Z</time>
      </trkpt>
      <trkpt lat="42.309514" lon="1.382119">
        <ele>664.1</ele>
        <time>2018-06-12T06:43:25Z</time>
      </trkpt>
      <trkpt lat="42.309443" lon="1.382111">
        <ele>663.8</ele>
        <time>2018-06-12T06:43:27Z</time>
      </trkpt>
      <trkpt lat="42.309355" lon="1.382124">
        <ele>663.6</ele>
        <time>2018-06-12T06:43:29Z</time>
      </trkpt>
      <trkpt lat="42.309178" lon="1.382204">
        <ele>662.3</ele>
        <time>2018-06-12T06:43:34Z</time>
      </trkpt>
      <trkpt lat="42.308902" lon="1.382320">
        <ele>661.6</ele>
        <time>2018-06-12T06:43:42Z</time>
      </trkpt>
      <trkpt lat="42.308851" lon="1.382330">
        <ele>662.0</ele>
        <time>2018-06-12T06:43:43Z</time>
      </trkpt>
      <trkpt lat="42.308792" lon="1.382320">
        <ele>662.4</ele>
        <time>2018-06-12T06:43:45Z</time>
      </trkpt>
      <trkpt lat="42.308710" lon="1.382296">
        <ele>662.8</ele>
        <time>2018-06-12T06:43:47Z</time>
      </trkpt>
      <trkpt lat="42.308603" lon="1.382258">
        <ele>663.3</ele>
        <time>2018-06-12T06:43:50Z</time>
      </trkpt>
      <trkpt lat="42.308470" lon="1.382232">
        <ele>664.1</ele>
        <time>2018-06-12T06:43:54Z</time>
      </trkpt>
      <trkpt lat="42.308364" lon="1.382222">
        <ele>665.3</ele>
        <time>2018-06-12T06:43:56Z</time>
      </trkpt>
      <trkpt lat="42.308231" lon="1.382177">
        <ele>666.6</ele>
        <time>2018-06-12T06:44:00Z</time>
      </trkpt>
      <trkpt lat="42.308117" lon="1.382115">
        <ele>666.4</ele>
        <time>2018-06-12T06:44:03Z</time>
      </trkpt>
      <trkpt lat="42.308030" lon="1.382034">
        <ele>665.6</ele>
        <time>2018-06-12T06:44:06Z</time>
      </trkpt>
      <trkpt lat="42.307943" lon="1.381998">
        <ele>665.4</ele>
        <time>2018-06-12T06:44:08Z</time>
      </trkpt>
      <trkpt lat="42.307864" lon="1.381970">
        <ele>664.5</ele>
        <time>2018-06-12T06:44:11Z</time>
      </trkpt>
      <trkpt lat="42.307797" lon="1.381934">
        <ele>663.4</ele>
        <time>2018-06-12T06:44:12Z</time>
      </trkpt>
      <trkpt lat="42.307704" lon="1.381844">
        <ele>661.9</ele>
        <time>2018-06-12T06:44:15Z</time>
      </trkpt>
      <trkpt lat="42.307537" lon="1.381772">
        <ele>659.7</ele>
        <time>2018-06-12T06:44:20Z</time>
      </trkpt>
      <trkpt lat="42.307343" lon="1.381708">
        <ele>657.3</ele>
        <time>2018-06-12T06:44:25Z</time>
      </trkpt>
      <trkpt lat="42.306992" lon="1.381599">
        <ele>657.0</ele>
        <time>2018-06-12T06:44:35Z</time>
      </trkpt>
      <trkpt lat="42.306603" lon="1.381472">
        <ele>660.6</ele>
        <time>2018-06-12T06:44:45Z</time>
      </trkpt>
      <trkpt lat="42.306028" lon="1.381189">
        <ele>659.9</ele>
        <time>2018-06-12T06:45:02Z</time>
      </trkpt>
      <trkpt lat="42.305701" lon="1.381057">
        <ele>659.9</ele>
        <time>2018-06-12T06:45:11Z</time>
      </trkpt>
      <trkpt lat="42.305453" lon="1.380936">
        <ele>659.5</ele>
        <time>2018-06-12T06:45:18Z</time>
      </trkpt>
      <trkpt lat="42.305214" lon="1.380805">
        <ele>660.2</ele>
        <time>2018-06-12T06:45:24Z</time>
      </trkpt>
      <trkpt lat="42.304967" lon="1.380724">
        <ele>664.0</ele>
        <time>2018-06-12T06:45:31Z</time>
      </trkpt>
      <trkpt lat="42.304842" lon="1.380617">
        <ele>666.4</ele>
        <time>2018-06-12T06:45:35Z</time>
      </trkpt>
      <trkpt lat="42.304665" lon="1.380498">
        <ele>667.8</ele>
        <time>2018-06-12T06:45:40Z</time>
      </trkpt>
      <trkpt lat="42.304153" lon="1.380020">
        <ele>660.8</ele>
        <time>2018-06-12T06:45:57Z</time>
      </trkpt>
      <trkpt lat="42.303710" lon="1.379648">
        <ele>663.8</ele>
        <time>2018-06-12T06:46:10Z</time>
      </trkpt>
      <trkpt lat="42.303462" lon="1.379365">
        <ele>666.4</ele>
        <time>2018-06-12T06:46:19Z</time>
      </trkpt>
      <trkpt lat="42.303365" lon="1.379246">
        <ele>665.4</ele>
        <time>2018-06-12T06:46:22Z</time>
      </trkpt>
      <trkpt lat="42.303232" lon="1.379152">
        <ele>664.6</ele>
        <time>2018-06-12T06:46:26Z</time>
      </trkpt>
      <trkpt lat="42.303074" lon="1.379118">
        <ele>664.8</ele>
        <time>2018-06-12T06:46:31Z</time>
      </trkpt>
      <trkpt lat="42.303003" lon="1.379073">
        <ele>664.8</ele>
        <time>2018-06-12T06:46:33Z</time>
      </trkpt>
      <trkpt lat="42.302920" lon="1.378980">
        <ele>664.8</ele>
        <time>2018-06-12T06:46:36Z</time>
      </trkpt>
      <trkpt lat="42.302812" lon="1.378835">
        <ele>664.3</ele>
        <time>2018-06-12T06:46:40Z</time>
      </trkpt>
      <trkpt lat="42.302628" lon="1.378615">
        <ele>663.7</ele>
        <time>2018-06-12T06:46:46Z</time>
      </trkpt>
      <trkpt lat="42.302452" lon="1.378446">
        <ele>665.4</ele>
        <time>2018-06-12T06:46:52Z</time>
      </trkpt>
      <trkpt lat="42.302375" lon="1.378392">
        <ele>665.7</ele>
        <time>2018-06-12T06:46:54Z</time>
      </trkpt>
      <trkpt lat="42.302165" lon="1.378233">
        <ele>662.6</ele>
        <time>2018-06-12T06:47:00Z</time>
      </trkpt>
      <trkpt lat="42.302059" lon="1.378137">
        <ele>662.0</ele>
        <time>2018-06-12T06:47:04Z</time>
      </trkpt>
      <trkpt lat="42.301883" lon="1.377951">
        <ele>663.2</ele>
        <time>2018-06-12T06:47:10Z</time>
      </trkpt>
      <trkpt lat="42.301746" lon="1.377760">
        <ele>664.5</ele>
        <time>2018-06-12T06:47:15Z</time>
      </trkpt>
      <trkpt lat="42.301651" lon="1.377638">
        <ele>667.0</ele>
        <time>2018-06-12T06:47:18Z</time>
      </trkpt>
      <trkpt lat="42.301597" lon="1.377483">
        <ele>667.6</ele>
        <time>2018-06-12T06:47:22Z</time>
      </trkpt>
      <trkpt lat="42.301565" lon="1.377328">
        <ele>667.4</ele>
        <time>2018-06-12T06:47:25Z</time>
      </trkpt>
      <trkpt lat="42.301547" lon="1.377162">
        <ele>665.6</ele>
        <time>2018-06-12T06:47:28Z</time>
      </trkpt>
      <trkpt lat="42.301544" lon="1.377094">
        <ele>664.8</ele>
        <time>2018-06-12T06:47:29Z</time>
      </trkpt>
      <trkpt lat="42.301526" lon="1.376944">
        <ele>662.0</ele>
        <time>2018-06-12T06:47:33Z</time>
      </trkpt>
      <trkpt lat="42.301492" lon="1.376807">
        <ele>659.0</ele>
        <time>2018-06-12T06:47:35Z</time>
      </trkpt>
      <trkpt lat="42.301450" lon="1.376667">
        <ele>655.1</ele>
        <time>2018-06-12T06:47:38Z</time>
      </trkpt>
      <trkpt lat="42.301404" lon="1.376533">
        <ele>650.8</ele>
        <time>2018-06-12T06:47:42Z</time>
      </trkpt>
      <trkpt lat="42.301391" lon="1.376375">
        <ele>648.0</ele>
        <time>2018-06-12T06:47:45Z</time>
      </trkpt>
      <trkpt lat="42.301402" lon="1.376246">
        <ele>646.0</ele>
        <time>2018-06-12T06:47:47Z</time>
      </trkpt>
      <trkpt lat="42.301448" lon="1.376089">
        <ele>644.3</ele>
        <time>2018-06-12T06:47:51Z</time>
      </trkpt>
      <trkpt lat="42.301504" lon="1.375961">
        <ele>642.9</ele>
        <time>2018-06-12T06:47:54Z</time>
      </trkpt>
      <trkpt lat="42.301565" lon="1.375710">
        <ele>643.4</ele>
        <time>2018-06-12T06:47:59Z</time>
      </trkpt>
      <trkpt lat="42.301596" lon="1.375555">
        <ele>644.3</ele>
        <time>2018-06-12T06:48:02Z</time>
      </trkpt>
      <trkpt lat="42.301696" lon="1.375274">
        <ele>643.7</ele>
        <time>2018-06-12T06:48:08Z</time>
      </trkpt>
      <trkpt lat="42.301887" lon="1.374728">
        <ele>638.7</ele>
        <time>2018-06-12T06:48:20Z</time>
      </trkpt>
      <trkpt lat="42.302145" lon="1.374109">
        <ele>635.2</ele>
        <time>2018-06-12T06:48:34Z</time>
      </trkpt>
      <trkpt lat="42.302311" lon="1.373831">
        <ele>637.6</ele>
        <time>2018-06-12T06:48:41Z</time>
      </trkpt>
      <trkpt lat="42.302356" lon="1.373713">
        <ele>637.7</ele>
        <time>2018-06-12T06:48:43Z</time>
      </trkpt>
      <trkpt lat="42.302363" lon="1.373662">
        <ele>637.4</ele>
        <time>2018-06-12T06:48:44Z</time>
      </trkpt>
      <trkpt lat="42.302359" lon="1.373594">
        <ele>636.9</ele>
        <time>2018-06-12T06:48:45Z</time>
      </trkpt>
      <trkpt lat="42.302348" lon="1.373535">
        <ele>636.4</ele>
        <time>2018-06-12T06:48:47Z</time>
      </trkpt>
      <trkpt lat="42.302325" lon="1.373488">
        <ele>636.0</ele>
        <time>2018-06-12T06:48:48Z</time>
      </trkpt>
      <trkpt lat="42.302295" lon="1.373461">
        <ele>635.8</ele>
        <time>2018-06-12T06:48:49Z</time>
      </trkpt>
      <trkpt lat="42.302250" lon="1.373450">
        <ele>635.7</ele>
        <time>2018-06-12T06:48:50Z</time>
      </trkpt>
      <trkpt lat="42.302197" lon="1.373470">
        <ele>635.4</ele>
        <time>2018-06-12T06:48:51Z</time>
      </trkpt>
      <trkpt lat="42.302132" lon="1.373508">
        <ele>635.0</ele>
        <time>2018-06-12T06:48:53Z</time>
      </trkpt>
      <trkpt lat="42.302072" lon="1.373589">
        <ele>634.3</ele>
        <time>2018-06-12T06:48:55Z</time>
      </trkpt>
      <trkpt lat="42.301980" lon="1.373755">
        <ele>633.0</ele>
        <time>2018-06-12T06:49:00Z</time>
      </trkpt>
      <trkpt lat="42.301922" lon="1.373841">
        <ele>632.8</ele>
        <time>2018-06-12T06:49:02Z</time>
      </trkpt>
      <trkpt lat="42.301750" lon="1.373992">
        <ele>632.2</ele>
        <time>2018-06-12T06:49:07Z</time>
      </trkpt>
      <trkpt lat="42.301562" lon="1.374221">
        <ele>630.9</ele>
        <time>2018-06-12T06:49:14Z</time>
      </trkpt>
      <trkpt lat="42.301415" lon="1.374442">
        <ele>631.4</ele>
        <time>2018-06-12T06:49:20Z</time>
      </trkpt>
      <trkpt lat="42.301248" lon="1.374677">
        <ele>631.7</ele>
        <time>2018-06-12T06:49:26Z</time>
      </trkpt>
      <trkpt lat="42.301178" lon="1.374744">
        <ele>631.9</ele>
        <time>2018-06-12T06:49:28Z</time>
      </trkpt>
      <trkpt lat="42.301100" lon="1.374795">
        <ele>631.5</ele>
        <time>2018-06-12T06:49:31Z</time>
      </trkpt>
      <trkpt lat="42.300999" lon="1.374812">
        <ele>630.7</ele>
        <time>2018-06-12T06:49:33Z</time>
      </trkpt>
      <trkpt lat="42.300903" lon="1.374825">
        <ele>632.1</ele>
        <time>2018-06-12T06:49:36Z</time>
      </trkpt>
      <trkpt lat="42.300825" lon="1.374812">
        <ele>634.2</ele>
        <time>2018-06-12T06:49:38Z</time>
      </trkpt>
      <trkpt lat="42.300758" lon="1.374817">
        <ele>635.7</ele>
        <time>2018-06-12T06:49:40Z</time>
      </trkpt>
      <trkpt lat="42.300675" lon="1.374854">
        <ele>637.5</ele>
        <time>2018-06-12T06:49:42Z</time>
      </trkpt>
      <trkpt lat="42.300627" lon="1.374912">
        <ele>639.8</ele>
        <time>2018-06-12T06:49:44Z</time>
      </trkpt>
      <trkpt lat="42.300596" lon="1.374974">
        <ele>640.8</ele>
        <time>2018-06-12T06:49:45Z</time>
      </trkpt>
      <trkpt lat="42.300547" lon="1.375061">
        <ele>642.2</ele>
        <time>2018-06-12T06:49:47Z</time>
      </trkpt>
      <trkpt lat="42.300473" lon="1.375128">
        <ele>644.6</ele>
        <time>2018-06-12T06:49:50Z</time>
      </trkpt>
      <trkpt lat="42.300434" lon="1.375189">
        <ele>645.7</ele>
        <time>2018-06-12T06:49:52Z</time>
      </trkpt>
      <trkpt lat="42.300431" lon="1.375264">
        <ele>645.1</ele>
        <time>2018-06-12T06:49:53Z</time>
      </trkpt>
      <trkpt lat="42.300441" lon="1.375364">
        <ele>643.7</ele>
        <time>2018-06-12T06:49:55Z</time>
      </trkpt>
      <trkpt lat="42.300461" lon="1.375458">
        <ele>642.6</ele>
        <time>2018-06-12T06:49:57Z</time>
      </trkpt>
      <trkpt lat="42.300470" lon="1.375548">
        <ele>642.5</ele>
        <time>2018-06-12T06:49:59Z</time>
      </trkpt>
      <trkpt lat="42.300474" lon="1.375605">
        <ele>642.4</ele>
        <time>2018-06-12T06:50:00Z</time>
      </trkpt>
      <trkpt lat="42.300460" lon="1.375642">
        <ele>642.8</ele>
        <time>2018-06-12T06:50:01Z</time>
      </trkpt>
      <trkpt lat="42.300427" lon="1.375637">
        <ele>643.7</ele>
        <time>2018-06-12T06:50:01Z</time>
      </trkpt>
      <trkpt lat="42.300393" lon="1.375613">
        <ele>645.5</ele>
        <time>2018-06-12T06:50:03Z</time>
      </trkpt>
      <trkpt lat="42.300367" lon="1.375556">
        <ele>647.3</ele>
        <time>2018-06-12T06:50:04Z</time>
      </trkpt>
      <trkpt lat="42.300325" lon="1.375470">
        <ele>650.6</ele>
        <time>2018-06-12T06:50:06Z</time>
      </trkpt>
      <trkpt lat="42.300282" lon="1.375359">
        <ele>655.1</ele>
        <time>2018-06-12T06:50:09Z</time>
      </trkpt>
      <trkpt lat="42.300267" lon="1.375277">
        <ele>657.6</ele>
        <time>2018-06-12T06:50:11Z</time>
      </trkpt>
      <trkpt lat="42.300267" lon="1.375200">
        <ele>658.9</ele>
        <time>2018-06-12T06:50:12Z</time>
      </trkpt>
      <trkpt lat="42.300269" lon="1.375109">
        <ele>660.4</ele>
        <time>2018-06-12T06:50:14Z</time>
      </trkpt>
      <trkpt lat="42.300260" lon="1.375044">
        <ele>662.5</ele>
        <time>2018-06-12T06:50:15Z</time>
      </trkpt>
      <trkpt lat="42.300245" lon="1.374956">
        <ele>665.6</ele>
        <time>2018-06-12T06:50:17Z</time>
      </trkpt>
      <trkpt lat="42.300239" lon="1.374829">
        <ele>668.9</ele>
        <time>2018-06-12T06:50:20Z</time>
      </trkpt>
      <trkpt lat="42.300258" lon="1.374728">
        <ele>670.0</ele>
        <time>2018-06-12T06:50:22Z</time>
      </trkpt>
      <trkpt lat="42.300260" lon="1.374654">
        <ele>671.8</ele>
        <time>2018-06-12T06:50:23Z</time>
      </trkpt>
      <trkpt lat="42.300251" lon="1.374607">
        <ele>673.7</ele>
        <time>2018-06-12T06:50:24Z</time>
      </trkpt>
      <trkpt lat="42.300243" lon="1.374535">
        <ele>676.5</ele>
        <time>2018-06-12T06:50:26Z</time>
      </trkpt>
      <trkpt lat="42.300234" lon="1.374472">
        <ele>679.1</ele>
        <time>2018-06-12T06:50:27Z</time>
      </trkpt>
      <trkpt lat="42.300227" lon="1.374393">
        <ele>682.1</ele>
        <time>2018-06-12T06:50:29Z</time>
      </trkpt>
      <trkpt lat="42.300244" lon="1.374351">
        <ele>682.6</ele>
        <time>2018-06-12T06:50:30Z</time>
      </trkpt>
      <trkpt lat="42.300286" lon="1.374309">
        <ele>682.0</ele>
        <time>2018-06-12T06:50:31Z</time>
      </trkpt>
      <trkpt lat="42.300340" lon="1.374263">
        <ele>681.3</ele>
        <time>2018-06-12T06:50:33Z</time>
      </trkpt>
      <trkpt lat="42.300384" lon="1.374248">
        <ele>679.9</ele>
        <time>2018-06-12T06:50:34Z</time>
      </trkpt>
      <trkpt lat="42.300433" lon="1.374222">
        <ele>678.4</ele>
        <time>2018-06-12T06:50:36Z</time>
      </trkpt>
      <trkpt lat="42.300471" lon="1.374184">
        <ele>677.4</ele>
        <time>2018-06-12T06:50:37Z</time>
      </trkpt>
      <trkpt lat="42.300517" lon="1.374095">
        <ele>678.3</ele>
        <time>2018-06-12T06:50:39Z</time>
      </trkpt>
      <trkpt lat="42.300540" lon="1.374015">
        <ele>680.4</ele>
        <time>2018-06-12T06:50:41Z</time>
      </trkpt>
      <trkpt lat="42.300558" lon="1.373870">
        <ele>684.6</ele>
        <time>2018-06-12T06:50:44Z</time>
      </trkpt>
      <trkpt lat="42.300580" lon="1.373758">
        <ele>687.3</ele>
        <time>2018-06-12T06:50:46Z</time>
      </trkpt>
      <trkpt lat="42.300599" lon="1.373668">
        <ele>688.2</ele>
        <time>2018-06-12T06:50:48Z</time>
      </trkpt>
      <trkpt lat="42.300625" lon="1.373571">
        <ele>688.9</ele>
        <time>2018-06-12T06:50:50Z</time>
      </trkpt>
      <trkpt lat="42.300666" lon="1.373422">
        <ele>689.7</ele>
        <time>2018-06-12T06:50:53Z</time>
      </trkpt>
      <trkpt lat="42.300716" lon="1.373339">
        <ele>688.5</ele>
        <time>2018-06-12T06:50:55Z</time>
      </trkpt>
      <trkpt lat="42.300758" lon="1.373311">
        <ele>687.1</ele>
        <time>2018-06-12T06:50:57Z</time>
      </trkpt>
      <trkpt lat="42.300777" lon="1.373269">
        <ele>687.0</ele>
        <time>2018-06-12T06:50:58Z</time>
      </trkpt>
      <trkpt lat="42.300781" lon="1.373213">
        <ele>687.9</ele>
        <time>2018-06-12T06:50:59Z</time>
      </trkpt>
      <trkpt lat="42.300783" lon="1.373139">
        <ele>688.8</ele>
        <time>2018-06-12T06:51:00Z</time>
      </trkpt>
      <trkpt lat="42.300809" lon="1.373053">
        <ele>689.1</ele>
        <time>2018-06-12T06:51:02Z</time>
      </trkpt>
      <trkpt lat="42.300848" lon="1.372980">
        <ele>689.3</ele>
        <time>2018-06-12T06:51:04Z</time>
      </trkpt>
      <trkpt lat="42.300899" lon="1.372880">
        <ele>689.6</ele>
        <time>2018-06-12T06:51:06Z</time>
      </trkpt>
      <trkpt lat="42.300931" lon="1.372828">
        <ele>689.6</ele>
        <time>2018-06-12T06:51:07Z</time>
      </trkpt>
      <trkpt lat="42.300976" lon="1.372736">
        <ele>689.9</ele>
        <time>2018-06-12T06:51:09Z</time>
      </trkpt>
      <trkpt lat="42.300994" lon="1.372690">
        <ele>690.0</ele>
        <time>2018-06-12T06:51:10Z</time>
      </trkpt>
      <trkpt lat="42.300991" lon="1.372624">
        <ele>690.7</ele>
        <time>2018-06-12T06:51:12Z</time>
      </trkpt>
      <trkpt lat="42.300974" lon="1.372605">
        <ele>691.0</ele>
        <time>2018-06-12T06:51:12Z</time>
      </trkpt>
      <trkpt lat="42.300944" lon="1.372599">
        <ele>691.3</ele>
        <time>2018-06-12T06:51:13Z</time>
      </trkpt>
      <trkpt lat="42.300920" lon="1.372624">
        <ele>691.5</ele>
        <time>2018-06-12T06:51:14Z</time>
      </trkpt>
      <trkpt lat="42.300885" lon="1.372666">
        <ele>691.7</ele>
        <time>2018-06-12T06:51:15Z</time>
      </trkpt>
      <trkpt lat="42.300850" lon="1.372723">
        <ele>691.7</ele>
        <time>2018-06-12T06:51:17Z</time>
      </trkpt>
      <trkpt lat="42.300776" lon="1.372801">
        <ele>692.2</ele>
        <time>2018-06-12T06:51:19Z</time>
      </trkpt>
      <trkpt lat="42.300701" lon="1.372851">
        <ele>693.1</ele>
        <time>2018-06-12T06:51:21Z</time>
      </trkpt>
      <trkpt lat="42.300633" lon="1.372903">
        <ele>694.3</ele>
        <time>2018-06-12T06:51:23Z</time>
      </trkpt>
      <trkpt lat="42.300586" lon="1.372960">
        <ele>695.2</ele>
        <time>2018-06-12T06:51:25Z</time>
      </trkpt>
      <trkpt lat="42.300540" lon="1.373051">
        <ele>696.2</ele>
        <time>2018-06-12T06:51:27Z</time>
      </trkpt>
      <trkpt lat="42.300529" lon="1.373112">
        <ele>696.4</ele>
        <time>2018-06-12T06:51:28Z</time>
      </trkpt>
      <trkpt lat="42.300489" lon="1.373203">
        <ele>697.6</ele>
        <time>2018-06-12T06:51:31Z</time>
      </trkpt>
      <trkpt lat="42.300439" lon="1.373323">
        <ele>699.1</ele>
        <time>2018-06-12T06:51:33Z</time>
      </trkpt>
      <trkpt lat="42.300390" lon="1.373422">
        <ele>700.5</ele>
        <time>2018-06-12T06:51:36Z</time>
      </trkpt>
      <trkpt lat="42.300332" lon="1.373568">
        <ele>700.6</ele>
        <time>2018-06-12T06:51:39Z</time>
      </trkpt>
      <trkpt lat="42.300255" lon="1.373716">
        <ele>700.8</ele>
        <time>2018-06-12T06:51:42Z</time>
      </trkpt>
      <trkpt lat="42.300170" lon="1.373809">
        <ele>701.2</ele>
        <time>2018-06-12T06:51:45Z</time>
      </trkpt>
      <trkpt lat="42.300088" lon="1.373877">
        <ele>700.5</ele>
        <time>2018-06-12T06:51:48Z</time>
      </trkpt>
      <trkpt lat="42.300021" lon="1.373906">
        <ele>699.8</ele>
        <time>2018-06-12T06:51:50Z</time>
      </trkpt>
      <trkpt lat="42.299939" lon="1.373982">
        <ele>698.6</ele>
        <time>2018-06-12T06:51:52Z</time>
      </trkpt>
      <trkpt lat="42.299870" lon="1.374068">
        <ele>697.7</ele>
        <time>2018-06-12T06:51:55Z</time>
      </trkpt>
      <trkpt lat="42.299799" lon="1.374150">
        <ele>697.0</ele>
        <time>2018-06-12T06:51:57Z</time>
      </trkpt>
      <trkpt lat="42.299765" lon="1.374184">
        <ele>696.7</ele>
        <time>2018-06-12T06:51:58Z</time>
      </trkpt>
      <trkpt lat="42.299748" lon="1.374240">
        <ele>696.4</ele>
        <time>2018-06-12T06:52:00Z</time>
      </trkpt>
      <trkpt lat="42.299735" lon="1.374311">
        <ele>696.0</ele>
        <time>2018-06-12T06:52:01Z</time>
      </trkpt>
      <trkpt lat="42.299709" lon="1.374410">
        <ele>695.7</ele>
        <time>2018-06-12T06:52:03Z</time>
      </trkpt>
      <trkpt lat="42.299689" lon="1.374498">
        <ele>695.5</ele>
        <time>2018-06-12T06:52:05Z</time>
      </trkpt>
      <trkpt lat="42.299663" lon="1.374550">
        <ele>695.5</ele>
        <time>2018-06-12T06:52:06Z</time>
      </trkpt>
      <trkpt lat="42.299636" lon="1.374605">
        <ele>695.5</ele>
        <time>2018-06-12T06:52:07Z</time>
      </trkpt>
      <trkpt lat="42.299592" lon="1.374702">
        <ele>695.5</ele>
        <time>2018-06-12T06:52:10Z</time>
      </trkpt>
      <trkpt lat="42.299552" lon="1.374772">
        <ele>695.9</ele>
        <time>2018-06-12T06:52:11Z</time>
      </trkpt>
      <trkpt lat="42.299496" lon="1.374846">
        <ele>696.6</ele>
        <time>2018-06-12T06:52:13Z</time>
      </trkpt>
      <trkpt lat="42.299440" lon="1.374938">
        <ele>697.6</ele>
        <time>2018-06-12T06:52:16Z</time>
      </trkpt>
      <trkpt lat="42.299413" lon="1.375007">
        <ele>698.1</ele>
        <time>2018-06-12T06:52:17Z</time>
      </trkpt>
      <trkpt lat="42.299394" lon="1.375084">
        <ele>698.4</ele>
        <time>2018-06-12T06:52:19Z</time>
      </trkpt>
      <trkpt lat="42.299353" lon="1.375198">
        <ele>699.1</ele>
        <time>2018-06-12T06:52:21Z</time>
      </trkpt>
      <trkpt lat="42.299289" lon="1.375388">
        <ele>700.4</ele>
        <time>2018-06-12T06:52:25Z</time>
      </trkpt>
      <trkpt lat="42.299258" lon="1.375469">
        <ele>701.1</ele>
        <time>2018-06-12T06:52:27Z</time>
      </trkpt>
      <trkpt lat="42.299223" lon="1.375554">
        <ele>702.1</ele>
        <time>2018-06-12T06:52:29Z</time>
      </trkpt>
      <trkpt lat="42.299189" lon="1.375594">
        <ele>703.0</ele>
        <time>2018-06-12T06:52:30Z</time>
      </trkpt>
      <trkpt lat="42.299133" lon="1.375628">
        <ele>704.7</ele>
        <time>2018-06-12T06:52:32Z</time>
      </trkpt>
      <trkpt lat="42.299103" lon="1.375618">
        <ele>705.4</ele>
        <time>2018-06-12T06:52:33Z</time>
      </trkpt>
      <trkpt lat="42.299078" lon="1.375563">
        <ele>705.8</ele>
        <time>2018-06-12T06:52:34Z</time>
      </trkpt>
      <trkpt lat="42.299077" lon="1.375495">
        <ele>705.4</ele>
        <time>2018-06-12T06:52:35Z</time>
      </trkpt>
      <trkpt lat="42.299076" lon="1.375406">
        <ele>704.9</ele>
        <time>2018-06-12T06:52:37Z</time>
      </trkpt>
      <trkpt lat="42.299072" lon="1.375291">
        <ele>705.0</ele>
        <time>2018-06-12T06:52:39Z</time>
      </trkpt>
      <trkpt lat="42.299070" lon="1.375189">
        <ele>705.1</ele>
        <time>2018-06-12T06:52:41Z</time>
      </trkpt>
      <trkpt lat="42.299056" lon="1.375088">
        <ele>705.1</ele>
        <time>2018-06-12T06:52:43Z</time>
      </trkpt>
      <trkpt lat="42.299045" lon="1.375009">
        <ele>704.7</ele>
        <time>2018-06-12T06:52:45Z</time>
      </trkpt>
      <trkpt lat="42.299009" lon="1.374966">
        <ele>705.1</ele>
        <time>2018-06-12T06:52:46Z</time>
      </trkpt>
      <trkpt lat="42.298967" lon="1.374945">
        <ele>705.7</ele>
        <time>2018-06-12T06:52:47Z</time>
      </trkpt>
      <trkpt lat="42.298909" lon="1.374945">
        <ele>706.7</ele>
        <time>2018-06-12T06:52:49Z</time>
      </trkpt>
      <trkpt lat="42.298827" lon="1.374972">
        <ele>708.6</ele>
        <time>2018-06-12T06:52:51Z</time>
      </trkpt>
      <trkpt lat="42.298775" lon="1.375029">
        <ele>710.5</ele>
        <time>2018-06-12T06:52:53Z</time>
      </trkpt>
      <trkpt lat="42.298708" lon="1.375089">
        <ele>712.2</ele>
        <time>2018-06-12T06:52:55Z</time>
      </trkpt>
      <trkpt lat="42.298672" lon="1.375120">
        <ele>712.9</ele>
        <time>2018-06-12T06:52:56Z</time>
      </trkpt>
      <trkpt lat="42.298592" lon="1.375183">
        <ele>713.3</ele>
        <time>2018-06-12T06:52:59Z</time>
      </trkpt>
      <trkpt lat="42.298531" lon="1.375206">
        <ele>713.6</ele>
        <time>2018-06-12T06:53:00Z</time>
      </trkpt>
      <trkpt lat="42.298470" lon="1.375193">
        <ele>714.0</ele>
        <time>2018-06-12T06:53:02Z</time>
      </trkpt>
      <trkpt lat="42.298393" lon="1.375207">
        <ele>712.6</ele>
        <time>2018-06-12T06:53:04Z</time>
      </trkpt>
      <trkpt lat="42.298317" lon="1.375229">
        <ele>711.4</ele>
        <time>2018-06-12T06:53:06Z</time>
      </trkpt>
      <trkpt lat="42.298261" lon="1.375313">
        <ele>711.4</ele>
        <time>2018-06-12T06:53:08Z</time>
      </trkpt>
      <trkpt lat="42.298236" lon="1.375370">
        <ele>711.7</ele>
        <time>2018-06-12T06:53:10Z</time>
      </trkpt>
      <trkpt lat="42.298211" lon="1.375469">
        <ele>713.0</ele>
        <time>2018-06-12T06:53:12Z</time>
      </trkpt>
      <trkpt lat="42.298196" lon="1.375556">
        <ele>714.5</ele>
        <time>2018-06-12T06:53:13Z</time>
      </trkpt>
      <trkpt lat="42.298158" lon="1.375740">
        <ele>716.0</ele>
        <time>2018-06-12T06:53:17Z</time>
      </trkpt>
      <trkpt lat="42.298149" lon="1.375856">
        <ele>716.6</ele>
        <time>2018-06-12T06:53:19Z</time>
      </trkpt>
      <trkpt lat="42.298115" lon="1.376069">
        <ele>717.5</ele>
        <time>2018-06-12T06:53:24Z</time>
      </trkpt>
      <trkpt lat="42.298050" lon="1.376345">
        <ele>719.1</ele>
        <time>2018-06-12T06:53:29Z</time>
      </trkpt>
      <trkpt lat="42.297976" lon="1.376598">
        <ele>722.5</ele>
        <time>2018-06-12T06:53:35Z</time>
      </trkpt>
      <trkpt lat="42.297862" lon="1.376953">
        <ele>727.4</ele>
        <time>2018-06-12T06:53:42Z</time>
      </trkpt>
      <trkpt lat="42.297784" lon="1.377118">
        <ele>728.0</ele>
        <time>2018-06-12T06:53:46Z</time>
      </trkpt>
      <trkpt lat="42.297765" lon="1.377240">
        <ele>729.0</ele>
        <time>2018-06-12T06:53:49Z</time>
      </trkpt>
      <trkpt lat="42.297673" lon="1.377519">
        <ele>729.2</ele>
        <time>2018-06-12T06:53:55Z</time>
      </trkpt>
      <trkpt lat="42.297585" lon="1.377736">
        <ele>728.0</ele>
        <time>2018-06-12T06:53:59Z</time>
      </trkpt>
      <trkpt lat="42.297498" lon="1.377962">
        <ele>727.3</ele>
        <time>2018-06-12T06:54:04Z</time>
      </trkpt>
      <trkpt lat="42.297446" lon="1.378074">
        <ele>726.7</ele>
        <time>2018-06-12T06:54:07Z</time>
      </trkpt>
      <trkpt lat="42.297377" lon="1.378237">
        <ele>725.7</ele>
        <time>2018-06-12T06:54:11Z</time>
      </trkpt>
      <trkpt lat="42.297328" lon="1.378325">
        <ele>724.9</ele>
        <time>2018-06-12T06:54:13Z</time>
      </trkpt>
      <trkpt lat="42.297262" lon="1.378373">
        <ele>724.1</ele>
        <time>2018-06-12T06:54:15Z</time>
      </trkpt>
      <trkpt lat="42.297199" lon="1.378461">
        <ele>723.6</ele>
        <time>2018-06-12T06:54:17Z</time>
      </trkpt>
      <trkpt lat="42.297162" lon="1.378549">
        <ele>723.7</ele>
        <time>2018-06-12T06:54:19Z</time>
      </trkpt>
      <trkpt lat="42.297119" lon="1.378675">
        <ele>723.6</ele>
        <time>2018-06-12T06:54:22Z</time>
      </trkpt>
      <trkpt lat="42.297087" lon="1.378734">
        <ele>723.1</ele>
        <time>2018-06-12T06:54:23Z</time>
      </trkpt>
      <trkpt lat="42.297040" lon="1.378784">
        <ele>722.5</ele>
        <time>2018-06-12T06:54:25Z</time>
      </trkpt>
      <trkpt lat="42.296927" lon="1.378881">
        <ele>721.1</ele>
        <time>2018-06-12T06:54:28Z</time>
      </trkpt>
      <trkpt lat="42.296814" lon="1.378966">
        <ele>719.2</ele>
        <time>2018-06-12T06:54:32Z</time>
      </trkpt>
      <trkpt lat="42.296750" lon="1.379033">
        <ele>717.7</ele>
        <time>2018-06-12T06:54:34Z</time>
      </trkpt>
      <trkpt lat="42.296732" lon="1.379076">
        <ele>717.8</ele>
        <time>2018-06-12T06:54:35Z</time>
      </trkpt>
      <trkpt lat="42.296685" lon="1.379202">
        <ele>718.5</ele>
        <time>2018-06-12T06:54:38Z</time>
      </trkpt>
      <trkpt lat="42.296637" lon="1.379327">
        <ele>719.3</ele>
        <time>2018-06-12T06:54:40Z</time>
      </trkpt>
      <trkpt lat="42.296580" lon="1.379427">
        <ele>718.9</ele>
        <time>2018-06-12T06:54:43Z</time>
      </trkpt>
      <trkpt lat="42.296533" lon="1.379491">
        <ele>718.5</ele>
        <time>2018-06-12T06:54:45Z</time>
      </trkpt>
      <trkpt lat="42.296434" lon="1.379657">
        <ele>718.9</ele>
        <time>2018-06-12T06:54:49Z</time>
      </trkpt>
      <trkpt lat="42.296359" lon="1.379823">
        <ele>719.5</ele>
        <time>2018-06-12T06:54:53Z</time>
      </trkpt>
      <trkpt lat="42.296288" lon="1.380000">
        <ele>720.3</ele>
        <time>2018-06-12T06:54:56Z</time>
      </trkpt>
      <trkpt lat="42.296222" lon="1.380090">
        <ele>720.2</ele>
        <time>2018-06-12T06:54:59Z</time>
      </trkpt>
      <trkpt lat="42.296145" lon="1.380152">
        <ele>719.9</ele>
        <time>2018-06-12T06:55:01Z</time>
      </trkpt>
      <trkpt lat="42.296073" lon="1.380256">
        <ele>719.2</ele>
        <time>2018-06-12T06:55:04Z</time>
      </trkpt>
      <trkpt lat="42.296039" lon="1.380358">
        <ele>718.9</ele>
        <time>2018-06-12T06:55:06Z</time>
      </trkpt>
      <trkpt lat="42.296011" lon="1.380452">
        <ele>718.5</ele>
        <time>2018-06-12T06:55:08Z</time>
      </trkpt>
      <trkpt lat="42.295954" lon="1.380550">
        <ele>717.5</ele>
        <time>2018-06-12T06:55:11Z</time>
      </trkpt>
      <trkpt lat="42.295891" lon="1.380611">
        <ele>717.2</ele>
        <time>2018-06-12T06:55:13Z</time>
      </trkpt>
      <trkpt lat="42.295828" lon="1.380636">
        <ele>717.1</ele>
        <time>2018-06-12T06:55:14Z</time>
      </trkpt>
      <trkpt lat="42.295758" lon="1.380691">
        <ele>717.0</ele>
        <time>2018-06-12T06:55:17Z</time>
      </trkpt>
      <trkpt lat="42.295678" lon="1.380782">
        <ele>718.3</ele>
        <time>2018-06-12T06:55:19Z</time>
      </trkpt>
      <trkpt lat="42.295645" lon="1.380838">
        <ele>719.5</ele>
        <time>2018-06-12T06:55:21Z</time>
      </trkpt>
      <trkpt lat="42.295614" lon="1.380870">
        <ele>720.4</ele>
        <time>2018-06-12T06:55:22Z</time>
      </trkpt>
      <trkpt lat="42.295585" lon="1.380921">
        <ele>721.5</ele>
        <time>2018-06-12T06:55:23Z</time>
      </trkpt>
      <trkpt lat="42.295550" lon="1.380949">
        <ele>722.4</ele>
        <time>2018-06-12T06:55:24Z</time>
      </trkpt>
      <trkpt lat="42.295506" lon="1.380964">
        <ele>723.3</ele>
        <time>2018-06-12T06:55:25Z</time>
      </trkpt>
      <trkpt lat="42.295476" lon="1.380946">
        <ele>723.7</ele>
        <time>2018-06-12T06:55:26Z</time>
      </trkpt>
      <trkpt lat="42.295448" lon="1.380886">
        <ele>723.8</ele>
        <time>2018-06-12T06:55:28Z</time>
      </trkpt>
      <trkpt lat="42.295417" lon="1.380777">
        <ele>723.6</ele>
        <time>2018-06-12T06:55:30Z</time>
      </trkpt>
      <trkpt lat="42.295295" lon="1.380308">
        <ele>724.3</ele>
        <time>2018-06-12T06:55:40Z</time>
      </trkpt>
      <trkpt lat="42.295248" lon="1.380123">
        <ele>725.0</ele>
        <time>2018-06-12T06:55:43Z</time>
      </trkpt>
      <trkpt lat="42.295198" lon="1.379995">
        <ele>724.7</ele>
        <time>2018-06-12T06:55:46Z</time>
      </trkpt>
      <trkpt lat="42.295127" lon="1.379895">
        <ele>725.8</ele>
        <time>2018-06-12T06:55:49Z</time>
      </trkpt>
      <trkpt lat="42.295077" lon="1.379844">
        <ele>727.2</ele>
        <time>2018-06-12T06:55:51Z</time>
      </trkpt>
      <trkpt lat="42.295035" lon="1.379802">
        <ele>728.5</ele>
        <time>2018-06-12T06:55:52Z</time>
      </trkpt>
      <trkpt lat="42.295011" lon="1.379722">
        <ele>729.1</ele>
        <time>2018-06-12T06:55:54Z</time>
      </trkpt>
      <trkpt lat="42.295010" lon="1.379655">
        <ele>728.9</ele>
        <time>2018-06-12T06:55:55Z</time>
      </trkpt>
      <trkpt lat="42.295029" lon="1.379518">
        <ele>727.1</ele>
        <time>2018-06-12T06:55:58Z</time>
      </trkpt>
      <trkpt lat="42.295075" lon="1.379258">
        <ele>722.7</ele>
        <time>2018-06-12T06:56:03Z</time>
      </trkpt>
      <trkpt lat="42.295189" lon="1.378711">
        <ele>712.5</ele>
        <time>2018-06-12T06:56:14Z</time>
      </trkpt>
      <trkpt lat="42.295219" lon="1.378628">
        <ele>711.3</ele>
        <time>2018-06-12T06:56:16Z</time>
      </trkpt>
      <trkpt lat="42.295292" lon="1.378503">
        <ele>709.3</ele>
        <time>2018-06-12T06:56:19Z</time>
      </trkpt>
      <trkpt lat="42.295441" lon="1.378322">
        <ele>706.7</ele>
        <time>2018-06-12T06:56:25Z</time>
      </trkpt>
      <trkpt lat="42.295598" lon="1.378085">
        <ele>705.3</ele>
        <time>2018-06-12T06:56:31Z</time>
      </trkpt>
      <trkpt lat="42.295612" lon="1.378029">
        <ele>705.3</ele>
        <time>2018-06-12T06:56:32Z</time>
      </trkpt>
      <trkpt lat="42.295625" lon="1.377948">
        <ele>705.4</ele>
        <time>2018-06-12T06:56:34Z</time>
      </trkpt>
      <trkpt lat="42.295634" lon="1.377814">
        <ele>704.7</ele>
        <time>2018-06-12T06:56:36Z</time>
      </trkpt>
      <trkpt lat="42.295648" lon="1.377459">
        <ele>701.4</ele>
        <time>2018-06-12T06:56:43Z</time>
      </trkpt>
      <trkpt lat="42.295640" lon="1.377344">
        <ele>700.2</ele>
        <time>2018-06-12T06:56:46Z</time>
      </trkpt>
      <trkpt lat="42.295640" lon="1.377338">
        <ele>700.1</ele>
        <time>2018-06-12T06:56:46Z</time>
      </trkpt>
      <trkpt lat="42.295612" lon="1.377171">
        <ele>698.5</ele>
        <time>2018-06-12T06:56:49Z</time>
      </trkpt>
      <trkpt lat="42.295606" lon="1.377032">
        <ele>697.4</ele>
        <time>2018-06-12T06:56:52Z</time>
      </trkpt>
      <trkpt lat="42.295600" lon="1.376897">
        <ele>697.0</ele>
        <time>2018-06-12T06:56:54Z</time>
      </trkpt>
      <trkpt lat="42.295565" lon="1.376785">
        <ele>696.7</ele>
        <time>2018-06-12T06:56:57Z</time>
      </trkpt>
      <trkpt lat="42.295509" lon="1.376733">
        <ele>696.4</ele>
        <time>2018-06-12T06:56:59Z</time>
      </trkpt>
      <trkpt lat="42.295395" lon="1.376655">
        <ele>696.1</ele>
        <time>2018-06-12T06:57:02Z</time>
      </trkpt>
      <trkpt lat="42.295282" lon="1.376549">
        <ele>696.6</ele>
        <time>2018-06-12T06:57:06Z</time>
      </trkpt>
      <trkpt lat="42.295170" lon="1.376483">
        <ele>698.9</ele>
        <time>2018-06-12T06:57:09Z</time>
      </trkpt>
      <trkpt lat="42.295144" lon="1.376439">
        <ele>699.8</ele>
        <time>2018-06-12T06:57:10Z</time>
      </trkpt>
      <trkpt lat="42.295140" lon="1.376374">
        <ele>700.6</ele>
        <time>2018-06-12T06:57:11Z</time>
      </trkpt>
      <trkpt lat="42.295163" lon="1.376333">
        <ele>700.5</ele>
        <time>2018-06-12T06:57:12Z</time>
      </trkpt>
      <trkpt lat="42.295211" lon="1.376282">
        <ele>699.7</ele>
        <time>2018-06-12T06:57:14Z</time>
      </trkpt>
      <trkpt lat="42.295256" lon="1.376237">
        <ele>698.6</ele>
        <time>2018-06-12T06:57:15Z</time>
      </trkpt>
      <trkpt lat="42.295293" lon="1.376175">
        <ele>697.4</ele>
        <time>2018-06-12T06:57:17Z</time>
      </trkpt>
      <trkpt lat="42.295312" lon="1.376052">
        <ele>696.4</ele>
        <time>2018-06-12T06:57:19Z</time>
      </trkpt>
      <trkpt lat="42.295327" lon="1.375898">
        <ele>695.7</ele>
        <time>2018-06-12T06:57:22Z</time>
      </trkpt>
      <trkpt lat="42.295361" lon="1.375705">
        <ele>695.0</ele>
        <time>2018-06-12T06:57:26Z</time>
      </trkpt>
      <trkpt lat="42.295435" lon="1.375392">
        <ele>693.4</ele>
        <time>2018-06-12T06:57:33Z</time>
      </trkpt>
      <trkpt lat="42.295538" lon="1.375127">
        <ele>691.0</ele>
        <time>2018-06-12T06:57:39Z</time>
      </trkpt>
      <trkpt lat="42.295656" lon="1.374821">
        <ele>687.9</ele>
        <time>2018-06-12T06:57:45Z</time>
      </trkpt>
      <trkpt lat="42.295714" lon="1.374675">
        <ele>686.0</ele>
        <time>2018-06-12T06:57:49Z</time>
      </trkpt>
      <trkpt lat="42.295745" lon="1.374556">
        <ele>685.6</ele>
        <time>2018-06-12T06:57:51Z</time>
      </trkpt>
      <trkpt lat="42.295779" lon="1.374299">
        <ele>685.3</ele>
        <time>2018-06-12T06:57:56Z</time>
      </trkpt>
      <trkpt lat="42.295817" lon="1.373914">
        <ele>685.0</ele>
        <time>2018-06-12T06:58:04Z</time>
      </trkpt>
      <trkpt lat="42.295848" lon="1.373641">
        <ele>684.1</ele>
        <time>2018-06-12T06:58:09Z</time>
      </trkpt>
      <trkpt lat="42.295861" lon="1.373291">
        <ele>683.4</ele>
        <time>2018-06-12T06:58:16Z</time>
      </trkpt>
      <trkpt lat="42.295879" lon="1.372806">
        <ele>683.9</ele>
        <time>2018-06-12T06:58:25Z</time>
      </trkpt>
      <trkpt lat="42.295891" lon="1.372392">
        <ele>684.6</ele>
        <time>2018-06-12T06:58:33Z</time>
      </trkpt>
      <trkpt lat="42.295903" lon="1.372051">
        <ele>682.1</ele>
        <time>2018-06-12T06:58:40Z</time>
      </trkpt>
      <trkpt lat="42.295896" lon="1.371889">
        <ele>679.3</ele>
        <time>2018-06-12T06:58:43Z</time>
      </trkpt>
      <trkpt lat="42.295875" lon="1.371768">
        <ele>677.9</ele>
        <time>2018-06-12T06:58:46Z</time>
      </trkpt>
      <trkpt lat="42.295842" lon="1.371695">
        <ele>678.0</ele>
        <time>2018-06-12T06:58:47Z</time>
      </trkpt>
      <trkpt lat="42.295790" lon="1.371653">
        <ele>679.9</ele>
        <time>2018-06-12T06:58:49Z</time>
      </trkpt>
      <trkpt lat="42.295738" lon="1.371611">
        <ele>681.8</ele>
        <time>2018-06-12T06:58:51Z</time>
      </trkpt>
      <trkpt lat="42.295661" lon="1.371574">
        <ele>684.6</ele>
        <time>2018-06-12T06:58:53Z</time>
      </trkpt>
      <trkpt lat="42.295630" lon="1.371454">
        <ele>681.8</ele>
        <time>2018-06-12T06:58:56Z</time>
      </trkpt>
      <trkpt lat="42.295572" lon="1.371280">
        <ele>678.3</ele>
        <time>2018-06-12T06:58:59Z</time>
      </trkpt>
      <trkpt lat="42.295565" lon="1.371182">
        <ele>675.9</ele>
        <time>2018-06-12T06:59:01Z</time>
      </trkpt>
      <trkpt lat="42.295564" lon="1.371056">
        <ele>672.8</ele>
        <time>2018-06-12T06:59:04Z</time>
      </trkpt>
      <trkpt lat="42.295532" lon="1.370957">
        <ele>671.3</ele>
        <time>2018-06-12T06:59:06Z</time>
      </trkpt>
      <trkpt lat="42.295492" lon="1.370867">
        <ele>669.4</ele>
        <time>2018-06-12T06:59:08Z</time>
      </trkpt>
      <trkpt lat="42.295452" lon="1.370767">
        <ele>666.9</ele>
        <time>2018-06-12T06:59:10Z</time>
      </trkpt>
      <trkpt lat="42.295392" lon="1.370603">
        <ele>662.3</ele>
        <time>2018-06-12T06:59:14Z</time>
      </trkpt>
      <trkpt lat="42.295312" lon="1.370410">
        <ele>656.9</ele>
        <time>2018-06-12T06:59:19Z</time>
      </trkpt>
      <trkpt lat="42.295239" lon="1.370300">
        <ele>653.0</ele>
        <time>2018-06-12T06:59:22Z</time>
      </trkpt>
      <trkpt lat="42.295139" lon="1.370191">
        <ele>648.8</ele>
        <time>2018-06-12T06:59:25Z</time>
      </trkpt>
      <trkpt lat="42.294985" lon="1.370058">
        <ele>648.8</ele>
        <time>2018-06-12T06:59:30Z</time>
      </trkpt>
      <trkpt lat="42.294751" lon="1.369943">
        <ele>650.3</ele>
        <time>2018-06-12T06:59:37Z</time>
      </trkpt>
      <trkpt lat="42.294548" lon="1.369835">
        <ele>649.0</ele>
        <time>2018-06-12T06:59:42Z</time>
      </trkpt>
      <trkpt lat="42.294331" lon="1.369728">
        <ele>643.1</ele>
        <time>2018-06-12T06:59:49Z</time>
      </trkpt>
      <trkpt lat="42.294217" lon="1.369650">
        <ele>637.9</ele>
        <time>2018-06-12T06:59:52Z</time>
      </trkpt>
      <trkpt lat="42.294096" lon="1.369554">
        <ele>633.2</ele>
        <time>2018-06-12T06:59:56Z</time>
      </trkpt>
      <trkpt lat="42.294009" lon="1.369527">
        <ele>630.8</ele>
        <time>2018-06-12T06:59:59Z</time>
      </trkpt>
      <trkpt lat="42.293907" lon="1.369503">
        <ele>626.1</ele>
        <time>2018-06-12T07:00:01Z</time>
      </trkpt>
      <trkpt lat="42.293832" lon="1.369508">
        <ele>623.2</ele>
        <time>2018-06-12T07:00:04Z</time>
      </trkpt>
      <trkpt lat="42.293780" lon="1.369533">
        <ele>621.8</ele>
        <time>2018-06-12T07:00:05Z</time>
      </trkpt>
      <trkpt lat="42.293717" lon="1.369590">
        <ele>621.0</ele>
        <time>2018-06-12T07:00:07Z</time>
      </trkpt>
      <trkpt lat="42.293669" lon="1.369691">
        <ele>621.9</ele>
        <time>2018-06-12T07:00:09Z</time>
      </trkpt>
      <trkpt lat="42.293643" lon="1.369750">
        <ele>622.3</ele>
        <time>2018-06-12T07:00:11Z</time>
      </trkpt>
      <trkpt lat="42.293621" lon="1.369796">
        <ele>622.4</ele>
        <time>2018-06-12T07:00:12Z</time>
      </trkpt>
      <trkpt lat="42.293598" lon="1.369799">
        <ele>621.5</ele>
        <time>2018-06-12T07:00:12Z</time>
      </trkpt>
      <trkpt lat="42.293578" lon="1.369784">
        <ele>620.3</ele>
        <time>2018-06-12T07:00:13Z</time>
      </trkpt>
      <trkpt lat="42.293561" lon="1.369761">
        <ele>619.0</ele>
        <time>2018-06-12T07:00:14Z</time>
      </trkpt>
      <trkpt lat="42.293560" lon="1.369732">
        <ele>618.3</ele>
        <time>2018-06-12T07:00:14Z</time>
      </trkpt>
      <trkpt lat="42.293565" lon="1.369691">
        <ele>617.7</ele>
        <time>2018-06-12T07:00:15Z</time>
      </trkpt>
      <trkpt lat="42.293605" lon="1.369594">
        <ele>617.0</ele>
        <time>2018-06-12T07:00:17Z</time>
      </trkpt>
      <trkpt lat="42.293644" lon="1.369489">
        <ele>615.9</ele>
        <time>2018-06-12T07:00:20Z</time>
      </trkpt>
      <trkpt lat="42.293742" lon="1.369331">
        <ele>614.5</ele>
        <time>2018-06-12T07:00:24Z</time>
      </trkpt>
      <trkpt lat="42.293927" lon="1.369064">
        <ele>614.2</ele>
        <time>2018-06-12T07:00:31Z</time>
      </trkpt>
      <trkpt lat="42.294046" lon="1.368953">
        <ele>614.6</ele>
        <time>2018-06-12T07:00:35Z</time>
      </trkpt>
      <trkpt lat="42.294178" lon="1.368859">
        <ele>614.6</ele>
        <time>2018-06-12T07:00:39Z</time>
      </trkpt>
      <trkpt lat="42.294236" lon="1.368833">
        <ele>615.1</ele>
        <time>2018-06-12T07:00:40Z</time>
      </trkpt>
      <trkpt lat="42.294265" lon="1.368801">
        <ele>615.1</ele>
        <time>2018-06-12T07:00:41Z</time>
      </trkpt>
      <trkpt lat="42.294276" lon="1.368742">
        <ele>614.3</ele>
        <time>2018-06-12T07:00:42Z</time>
      </trkpt>
      <trkpt lat="42.294275" lon="1.368697">
        <ele>613.6</ele>
        <time>2018-06-12T07:00:43Z</time>
      </trkpt>
      <trkpt lat="42.294268" lon="1.368657">
        <ele>612.9</ele>
        <time>2018-06-12T07:00:44Z</time>
      </trkpt>
      <trkpt lat="42.294239" lon="1.368614">
        <ele>611.5</ele>
        <time>2018-06-12T07:00:45Z</time>
      </trkpt>
      <trkpt lat="42.294213" lon="1.368613">
        <ele>610.9</ele>
        <time>2018-06-12T07:00:46Z</time>
      </trkpt>
      <trkpt lat="42.294178" lon="1.368615">
        <ele>610.1</ele>
        <time>2018-06-12T07:00:47Z</time>
      </trkpt>
      <trkpt lat="42.294144" lon="1.368605">
        <ele>609.1</ele>
        <time>2018-06-12T07:00:48Z</time>
      </trkpt>
      <trkpt lat="42.294130" lon="1.368579">
        <ele>608.2</ele>
        <time>2018-06-12T07:00:49Z</time>
      </trkpt>
      <trkpt lat="42.294129" lon="1.368523">
        <ele>607.0</ele>
        <time>2018-06-12T07:00:50Z</time>
      </trkpt>
      <trkpt lat="42.294152" lon="1.368475">
        <ele>606.6</ele>
        <time>2018-06-12T07:00:51Z</time>
      </trkpt>
      <trkpt lat="42.294292" lon="1.368067">
        <ele>605.4</ele>
        <time>2018-06-12T07:01:00Z</time>
      </trkpt>
      <trkpt lat="42.294355" lon="1.367969">
        <ele>604.6</ele>
        <time>2018-06-12T07:01:02Z</time>
      </trkpt>
      <trkpt lat="42.294396" lon="1.367929">
        <ele>604.5</ele>
        <time>2018-06-12T07:01:03Z</time>
      </trkpt>
      <trkpt lat="42.294447" lon="1.367894">
        <ele>604.8</ele>
        <time>2018-06-12T07:01:05Z</time>
      </trkpt>
      <trkpt lat="42.294483" lon="1.367888">
        <ele>605.2</ele>
        <time>2018-06-12T07:01:06Z</time>
      </trkpt>
      <trkpt lat="42.294579" lon="1.367862">
        <ele>606.2</ele>
        <time>2018-06-12T07:01:08Z</time>
      </trkpt>
      <trkpt lat="42.294669" lon="1.367846">
        <ele>606.1</ele>
        <time>2018-06-12T07:01:11Z</time>
      </trkpt>
      <trkpt lat="42.294742" lon="1.367786">
        <ele>605.4</ele>
        <time>2018-06-12T07:01:13Z</time>
      </trkpt>
      <trkpt lat="42.294782" lon="1.367715">
        <ele>604.6</ele>
        <time>2018-06-12T07:01:15Z</time>
      </trkpt>
      <trkpt lat="42.294817" lon="1.367619">
        <ele>603.7</ele>
        <time>2018-06-12T07:01:17Z</time>
      </trkpt>
      <trkpt lat="42.294820" lon="1.367565">
        <ele>603.2</ele>
        <time>2018-06-12T07:01:18Z</time>
      </trkpt>
      <trkpt lat="42.294811" lon="1.367499">
        <ele>602.6</ele>
        <time>2018-06-12T07:01:19Z</time>
      </trkpt>
      <trkpt lat="42.294765" lon="1.367370">
        <ele>601.1</ele>
        <time>2018-06-12T07:01:22Z</time>
      </trkpt>
      <trkpt lat="42.294681" lon="1.367078">
        <ele>597.7</ele>
        <time>2018-06-12T07:01:28Z</time>
      </trkpt>
      <trkpt lat="42.294650" lon="1.366924">
        <ele>594.6</ele>
        <time>2018-06-12T07:01:31Z</time>
      </trkpt>
      <trkpt lat="42.294628" lon="1.366801">
        <ele>592.1</ele>
        <time>2018-06-12T07:01:34Z</time>
      </trkpt>
      <trkpt lat="42.294626" lon="1.366733">
        <ele>591.2</ele>
        <time>2018-06-12T07:01:35Z</time>
      </trkpt>
      <trkpt lat="42.294629" lon="1.366677">
        <ele>590.7</ele>
        <time>2018-06-12T07:01:36Z</time>
      </trkpt>
      <trkpt lat="42.294646" lon="1.366622">
        <ele>590.4</ele>
        <time>2018-06-12T07:01:38Z</time>
      </trkpt>
      <trkpt lat="42.294673" lon="1.366567">
        <ele>590.4</ele>
        <time>2018-06-12T07:01:39Z</time>
      </trkpt>
      <trkpt lat="42.294710" lon="1.366526">
        <ele>590.7</ele>
        <time>2018-06-12T07:01:40Z</time>
      </trkpt>
      <trkpt lat="42.294755" lon="1.366473">
        <ele>591.0</ele>
        <time>2018-06-12T07:01:42Z</time>
      </trkpt>
      <trkpt lat="42.294792" lon="1.366437">
        <ele>591.3</ele>
        <time>2018-06-12T07:01:43Z</time>
      </trkpt>
      <trkpt lat="42.294812" lon="1.366387">
        <ele>591.0</ele>
        <time>2018-06-12T07:01:44Z</time>
      </trkpt>
      <trkpt lat="42.294813" lon="1.366353">
        <ele>590.6</ele>
        <time>2018-06-12T07:01:45Z</time>
      </trkpt>
      <trkpt lat="42.294809" lon="1.366326">
        <ele>590.1</ele>
        <time>2018-06-12T07:01:45Z</time>
      </trkpt>
      <trkpt lat="42.294785" lon="1.366292">
        <ele>589.2</ele>
        <time>2018-06-12T07:01:46Z</time>
      </trkpt>
      <trkpt lat="42.294769" lon="1.366275">
        <ele>588.7</ele>
        <time>2018-06-12T07:01:47Z</time>
      </trkpt>
      <trkpt lat="42.294747" lon="1.366271">
        <ele>588.2</ele>
        <time>2018-06-12T07:01:47Z</time>
      </trkpt>
      <trkpt lat="42.294719" lon="1.366285">
        <ele>587.9</ele>
        <time>2018-06-12T07:01:48Z</time>
      </trkpt>
      <trkpt lat="42.294680" lon="1.366303">
        <ele>587.4</ele>
        <time>2018-06-12T07:01:49Z</time>
      </trkpt>
      <trkpt lat="42.294567" lon="1.366381">
        <ele>586.2</ele>
        <time>2018-06-12T07:01:53Z</time>
      </trkpt>
      <trkpt lat="42.294374" lon="1.366526">
        <ele>584.2</ele>
        <time>2018-06-12T07:01:58Z</time>
      </trkpt>
      <trkpt lat="42.294250" lon="1.366609">
        <ele>583.3</ele>
        <time>2018-06-12T07:02:02Z</time>
      </trkpt>
      <trkpt lat="42.294103" lon="1.366671">
        <ele>582.9</ele>
        <time>2018-06-12T07:02:06Z</time>
      </trkpt>
      <trkpt lat="42.293841" lon="1.366813">
        <ele>581.0</ele>
        <time>2018-06-12T07:02:14Z</time>
      </trkpt>
      <trkpt lat="42.293775" lon="1.366847">
        <ele>580.6</ele>
        <time>2018-06-12T07:02:15Z</time>
      </trkpt>
      <trkpt lat="42.293672" lon="1.366923">
        <ele>579.4</ele>
        <time>2018-06-12T07:02:19Z</time>
      </trkpt>
      <trkpt lat="42.293553" lon="1.367056">
        <ele>578.3</ele>
        <time>2018-06-12T07:02:23Z</time>
      </trkpt>
      <trkpt lat="42.293494" lon="1.367146">
        <ele>577.6</ele>
        <time>2018-06-12T07:02:25Z</time>
      </trkpt>
      <trkpt lat="42.293462" lon="1.367225">
        <ele>577.4</ele>
        <time>2018-06-12T07:02:27Z</time>
      </trkpt>
      <trkpt lat="42.293418" lon="1.367335">
        <ele>577.5</ele>
        <time>2018-06-12T07:02:29Z</time>
      </trkpt>
      <trkpt lat="42.293323" lon="1.367440">
        <ele>577.6</ele>
        <time>2018-06-12T07:02:32Z</time>
      </trkpt>
      <trkpt lat="42.293221" lon="1.367535">
        <ele>577.5</ele>
        <time>2018-06-12T07:02:36Z</time>
      </trkpt>
      <trkpt lat="42.292947" lon="1.367770">
        <ele>576.8</ele>
        <time>2018-06-12T07:02:44Z</time>
      </trkpt>
      <trkpt lat="42.292559" lon="1.368019">
        <ele>576.2</ele>
        <time>2018-06-12T07:02:56Z</time>
      </trkpt>
      <trkpt lat="42.292400" lon="1.368079">
        <ele>575.4</ele>
        <time>2018-06-12T07:03:00Z</time>
      </trkpt>
      <trkpt lat="42.292162" lon="1.368138">
        <ele>574.1</ele>
        <time>2018-06-12T07:03:06Z</time>
      </trkpt>
      <trkpt lat="42.291984" lon="1.368161">
        <ele>571.9</ele>
        <time>2018-06-12T07:03:11Z</time>
      </trkpt>
      <trkpt lat="42.291631" lon="1.368162">
        <ele>568.5</ele>
        <time>2018-06-12T07:03:20Z</time>
      </trkpt>
      <trkpt lat="42.291428" lon="1.368151">
        <ele>571.1</ele>
        <time>2018-06-12T07:03:26Z</time>
      </trkpt>
      <trkpt lat="42.291110" lon="1.368116">
        <ele>574.7</ele>
        <time>2018-06-12T07:03:34Z</time>
      </trkpt>
      <trkpt lat="42.290899" lon="1.368079">
        <ele>576.9</ele>
        <time>2018-06-12T07:03:40Z</time>
      </trkpt>
      <trkpt lat="42.290695" lon="1.368017">
        <ele>582.4</ele>
        <time>2018-06-12T07:03:45Z</time>
      </trkpt>
      <trkpt lat="42.290368" lon="1.367887">
        <ele>586.2</ele>
        <time>2018-06-12T07:03:54Z</time>
      </trkpt>
      <trkpt lat="42.290156" lon="1.367779">
        <ele>590.0</ele>
        <time>2018-06-12T07:04:01Z</time>
      </trkpt>
      <trkpt lat="42.289906" lon="1.367607">
        <ele>588.6</ele>
        <time>2018-06-12T07:04:08Z</time>
      </trkpt>
      <trkpt lat="42.289868" lon="1.367559">
        <ele>589.5</ele>
        <time>2018-06-12T07:04:09Z</time>
      </trkpt>
      <trkpt lat="42.289855" lon="1.367497">
        <ele>590.0</ele>
        <time>2018-06-12T07:04:11Z</time>
      </trkpt>
      <trkpt lat="42.289872" lon="1.367426">
        <ele>590.3</ele>
        <time>2018-06-12T07:04:12Z</time>
      </trkpt>
      <trkpt lat="42.290111" lon="1.366971">
        <ele>586.1</ele>
        <time>2018-06-12T07:04:23Z</time>
      </trkpt>
      <trkpt lat="42.290137" lon="1.366915">
        <ele>585.4</ele>
        <time>2018-06-12T07:04:24Z</time>
      </trkpt>
      <trkpt lat="42.290155" lon="1.366845">
        <ele>584.8</ele>
        <time>2018-06-12T07:04:26Z</time>
      </trkpt>
      <trkpt lat="42.290165" lon="1.366769">
        <ele>584.6</ele>
        <time>2018-06-12T07:04:27Z</time>
      </trkpt>
      <trkpt lat="42.290187" lon="1.366308">
        <ele>585.4</ele>
        <time>2018-06-12T07:04:36Z</time>
      </trkpt>
      <trkpt lat="42.290187" lon="1.366219">
        <ele>585.7</ele>
        <time>2018-06-12T07:04:38Z</time>
      </trkpt>
      <trkpt lat="42.290179" lon="1.366136">
        <ele>586.5</ele>
        <time>2018-06-12T07:04:40Z</time>
      </trkpt>
      <trkpt lat="42.290155" lon="1.366069">
        <ele>587.2</ele>
        <time>2018-06-12T07:04:41Z</time>
      </trkpt>
      <trkpt lat="42.290112" lon="1.366017">
        <ele>587.9</ele>
        <time>2018-06-12T07:04:43Z</time>
      </trkpt>
      <trkpt lat="42.290010" lon="1.365917">
        <ele>589.6</ele>
        <time>2018-06-12T07:04:46Z</time>
      </trkpt>
      <trkpt lat="42.289902" lon="1.365806">
        <ele>591.6</ele>
        <time>2018-06-12T07:04:50Z</time>
      </trkpt>
      <trkpt lat="42.289841" lon="1.365719">
        <ele>592.8</ele>
        <time>2018-06-12T07:04:52Z</time>
      </trkpt>
      <trkpt lat="42.289799" lon="1.365641">
        <ele>593.5</ele>
        <time>2018-06-12T07:04:54Z</time>
      </trkpt>
      <trkpt lat="42.289567" lon="1.365183">
        <ele>593.0</ele>
        <time>2018-06-12T07:05:05Z</time>
      </trkpt>
      <trkpt lat="42.289314" lon="1.364635">
        <ele>594.6</ele>
        <time>2018-06-12T07:05:17Z</time>
      </trkpt>
      <trkpt lat="42.289153" lon="1.364316">
        <ele>597.2</ele>
        <time>2018-06-12T07:05:25Z</time>
      </trkpt>
      <trkpt lat="42.288884" lon="1.363838">
        <ele>602.0</ele>
        <time>2018-06-12T07:05:36Z</time>
      </trkpt>
      <trkpt lat="42.288703" lon="1.363495">
        <ele>600.0</ele>
        <time>2018-06-12T07:05:45Z</time>
      </trkpt>
      <trkpt lat="42.288543" lon="1.363093">
        <ele>599.2</ele>
        <time>2018-06-12T07:05:54Z</time>
      </trkpt>
      <trkpt lat="42.288336" lon="1.362585">
        <ele>602.8</ele>
        <time>2018-06-12T07:06:05Z</time>
      </trkpt>
      <trkpt lat="42.288195" lon="1.362198">
        <ele>604.2</ele>
        <time>2018-06-12T07:06:13Z</time>
      </trkpt>
      <trkpt lat="42.288107" lon="1.361977">
        <ele>602.2</ele>
        <time>2018-06-12T07:06:18Z</time>
      </trkpt>
      <trkpt lat="42.288038" lon="1.361759">
        <ele>601.3</ele>
        <time>2018-06-12T07:06:23Z</time>
      </trkpt>
      <trkpt lat="42.288031" lon="1.361655">
        <ele>601.9</ele>
        <time>2018-06-12T07:06:25Z</time>
      </trkpt>
      <trkpt lat="42.288047" lon="1.361574">
        <ele>602.6</ele>
        <time>2018-06-12T07:06:27Z</time>
      </trkpt>
      <trkpt lat="42.288171" lon="1.361271">
        <ele>603.9</ele>
        <time>2018-06-12T07:06:33Z</time>
      </trkpt>
      <trkpt lat="42.289040" lon="1.359243">
        <ele>606.8</ele>
        <time>2018-06-12T07:07:19Z</time>
      </trkpt>
      <trkpt lat="42.289915" lon="1.357583">
        <ele>604.0</ele>
        <time>2018-06-12T07:07:59Z</time>
      </trkpt>
      <trkpt lat="42.290337" lon="1.356804">
        <ele>604.8</ele>
        <time>2018-06-12T07:08:17Z</time>
      </trkpt>
      <trkpt lat="42.290551" lon="1.356468">
        <ele>606.8</ele>
        <time>2018-06-12T07:08:26Z</time>
      </trkpt>
      <trkpt lat="42.290637" lon="1.356305">
        <ele>608.6</ele>
        <time>2018-06-12T07:08:30Z</time>
      </trkpt>
      <trkpt lat="42.290725" lon="1.356086">
        <ele>608.6</ele>
        <time>2018-06-12T07:08:35Z</time>
      </trkpt>
      <trkpt lat="42.290810" lon="1.355855">
        <ele>607.6</ele>
        <time>2018-06-12T07:08:40Z</time>
      </trkpt>
      <trkpt lat="42.290932" lon="1.355581">
        <ele>606.7</ele>
        <time>2018-06-12T07:08:46Z</time>
      </trkpt>
      <trkpt lat="42.291009" lon="1.355340">
        <ele>606.1</ele>
        <time>2018-06-12T07:08:51Z</time>
      </trkpt>
      <trkpt lat="42.291079" lon="1.355068">
        <ele>605.8</ele>
        <time>2018-06-12T07:08:57Z</time>
      </trkpt>
      <trkpt lat="42.291139" lon="1.354733">
        <ele>606.3</ele>
        <time>2018-06-12T07:09:04Z</time>
      </trkpt>
      <trkpt lat="42.291182" lon="1.354247">
        <ele>605.6</ele>
        <time>2018-06-12T07:09:13Z</time>
      </trkpt>
      <trkpt lat="42.291225" lon="1.353975">
        <ele>605.2</ele>
        <time>2018-06-12T07:09:19Z</time>
      </trkpt>
      <trkpt lat="42.291292" lon="1.353784">
        <ele>606.1</ele>
        <time>2018-06-12T07:09:23Z</time>
      </trkpt>
      <trkpt lat="42.291405" lon="1.353668">
        <ele>606.9</ele>
        <time>2018-06-12T07:09:26Z</time>
      </trkpt>
      <trkpt lat="42.291549" lon="1.353573">
        <ele>607.9</ele>
        <time>2018-06-12T07:09:31Z</time>
      </trkpt>
      <trkpt lat="42.291661" lon="1.353447">
        <ele>609.1</ele>
        <time>2018-06-12T07:09:35Z</time>
      </trkpt>
      <trkpt lat="42.291712" lon="1.353230">
        <ele>610.2</ele>
        <time>2018-06-12T07:09:39Z</time>
      </trkpt>
      <trkpt lat="42.292053" lon="1.351535">
        <ele>612.6</ele>
        <time>2018-06-12T07:10:13Z</time>
      </trkpt>
      <trkpt lat="42.292198" lon="1.350723">
        <ele>610.3</ele>
        <time>2018-06-12T07:10:29Z</time>
      </trkpt>
      <trkpt lat="42.292345" lon="1.350163">
        <ele>608.8</ele>
        <time>2018-06-12T07:10:41Z</time>
      </trkpt>
      <trkpt lat="42.292438" lon="1.349882">
        <ele>609.0</ele>
        <time>2018-06-12T07:10:47Z</time>
      </trkpt>
      <trkpt lat="42.292489" lon="1.349767">
        <ele>610.2</ele>
        <time>2018-06-12T07:10:50Z</time>
      </trkpt>
      <trkpt lat="42.292514" lon="1.349621">
        <ele>610.9</ele>
        <time>2018-06-12T07:10:53Z</time>
      </trkpt>
      <trkpt lat="42.292522" lon="1.349484">
        <ele>610.4</ele>
        <time>2018-06-12T07:10:55Z</time>
      </trkpt>
      <trkpt lat="42.292496" lon="1.349331">
        <ele>608.6</ele>
        <time>2018-06-12T07:10:58Z</time>
      </trkpt>
      <trkpt lat="42.292503" lon="1.349231">
        <ele>607.9</ele>
        <time>2018-06-12T07:11:00Z</time>
      </trkpt>
      <trkpt lat="42.292522" lon="1.349101">
        <ele>607.2</ele>
        <time>2018-06-12T07:11:03Z</time>
      </trkpt>
      <trkpt lat="42.292556" lon="1.348961">
        <ele>606.8</ele>
        <time>2018-06-12T07:11:06Z</time>
      </trkpt>
      <trkpt lat="42.292746" lon="1.348392">
        <ele>608.0</ele>
        <time>2018-06-12T07:11:18Z</time>
      </trkpt>
      <trkpt lat="42.292933" lon="1.347830">
        <ele>605.9</ele>
        <time>2018-06-12T07:11:30Z</time>
      </trkpt>
      <trkpt lat="42.293010" lon="1.347727">
        <ele>606.2</ele>
        <time>2018-06-12T07:11:33Z</time>
      </trkpt>
      <trkpt lat="42.293111" lon="1.347643">
        <ele>607.7</ele>
        <time>2018-06-12T07:11:36Z</time>
      </trkpt>
      <trkpt lat="42.293225" lon="1.347572">
        <ele>609.3</ele>
        <time>2018-06-12T07:11:39Z</time>
      </trkpt>
      <trkpt lat="42.293429" lon="1.347419">
        <ele>608.7</ele>
        <time>2018-06-12T07:11:45Z</time>
      </trkpt>
      <trkpt lat="42.293566" lon="1.347266">
        <ele>608.8</ele>
        <time>2018-06-12T07:11:50Z</time>
      </trkpt>
      <trkpt lat="42.293703" lon="1.347083">
        <ele>608.5</ele>
        <time>2018-06-12T07:11:55Z</time>
      </trkpt>
      <trkpt lat="42.293814" lon="1.346899">
        <ele>608.0</ele>
        <time>2018-06-12T07:12:00Z</time>
      </trkpt>
      <trkpt lat="42.293882" lon="1.346702">
        <ele>607.0</ele>
        <time>2018-06-12T07:12:04Z</time>
      </trkpt>
      <trkpt lat="42.293945" lon="1.346554">
        <ele>606.4</ele>
        <time>2018-06-12T07:12:07Z</time>
      </trkpt>
      <trkpt lat="42.293988" lon="1.346438">
        <ele>607.2</ele>
        <time>2018-06-12T07:12:10Z</time>
      </trkpt>
      <trkpt lat="42.294002" lon="1.346277">
        <ele>608.5</ele>
        <time>2018-06-12T07:12:13Z</time>
      </trkpt>
      <trkpt lat="42.293970" lon="1.346116">
        <ele>609.9</ele>
        <time>2018-06-12T07:12:16Z</time>
      </trkpt>
      <trkpt lat="42.293908" lon="1.345990">
        <ele>610.9</ele>
        <time>2018-06-12T07:12:19Z</time>
      </trkpt>
      <trkpt lat="42.293848" lon="1.345914">
        <ele>611.3</ele>
        <time>2018-06-12T07:12:22Z</time>
      </trkpt>
      <trkpt lat="42.293741" lon="1.345823">
        <ele>612.1</ele>
        <time>2018-06-12T07:12:25Z</time>
      </trkpt>
      <trkpt lat="42.293635" lon="1.345717">
        <ele>613.3</ele>
        <time>2018-06-12T07:12:28Z</time>
      </trkpt>
      <trkpt lat="42.293500" lon="1.345581">
        <ele>614.3</ele>
        <time>2018-06-12T07:12:33Z</time>
      </trkpt>
      <trkpt lat="42.293358" lon="1.345411">
        <ele>613.5</ele>
        <time>2018-06-12T07:12:38Z</time>
      </trkpt>
      <trkpt lat="42.293202" lon="1.345202">
        <ele>610.2</ele>
        <time>2018-06-12T07:12:44Z</time>
      </trkpt>
      <trkpt lat="42.293169" lon="1.345070">
        <ele>610.0</ele>
        <time>2018-06-12T07:12:46Z</time>
      </trkpt>
      <trkpt lat="42.293185" lon="1.344918">
        <ele>610.7</ele>
        <time>2018-06-12T07:12:49Z</time>
      </trkpt>
      <trkpt lat="42.293291" lon="1.344812">
        <ele>613.8</ele>
        <time>2018-06-12T07:12:53Z</time>
      </trkpt>
      <trkpt lat="42.293359" lon="1.344810">
        <ele>615.5</ele>
        <time>2018-06-12T07:12:55Z</time>
      </trkpt>
      <trkpt lat="42.293571" lon="1.344853">
        <ele>619.1</ele>
        <time>2018-06-12T07:13:00Z</time>
      </trkpt>
      <trkpt lat="42.293670" lon="1.344820">
        <ele>620.5</ele>
        <time>2018-06-12T07:13:03Z</time>
      </trkpt>
      <trkpt lat="42.294577" lon="1.343717">
        <ele>630.5</ele>
        <time>2018-06-12T07:13:35Z</time>
      </trkpt>
      <trkpt lat="42.294598" lon="1.343594">
        <ele>632.1</ele>
        <time>2018-06-12T07:13:38Z</time>
      </trkpt>
      <trkpt lat="42.294596" lon="1.343462">
        <ele>634.0</ele>
        <time>2018-06-12T07:13:40Z</time>
      </trkpt>
      <trkpt lat="42.294542" lon="1.343172">
        <ele>639.7</ele>
        <time>2018-06-12T07:13:46Z</time>
      </trkpt>
      <trkpt lat="42.294446" lon="1.342665">
        <ele>645.8</ele>
        <time>2018-06-12T07:13:57Z</time>
      </trkpt>
      <trkpt lat="42.294442" lon="1.342601">
        <ele>646.8</ele>
        <time>2018-06-12T07:13:58Z</time>
      </trkpt>
      <trkpt lat="42.294465" lon="1.342543">
        <ele>647.9</ele>
        <time>2018-06-12T07:13:59Z</time>
      </trkpt>
      <trkpt lat="42.294863" lon="1.342345">
        <ele>647.7</ele>
        <time>2018-06-12T07:14:10Z</time>
      </trkpt>
      <trkpt lat="42.294876" lon="1.342290">
        <ele>650.2</ele>
        <time>2018-06-12T07:14:12Z</time>
      </trkpt>
      <trkpt lat="42.294839" lon="1.342254">
        <ele>652.3</ele>
        <time>2018-06-12T07:14:13Z</time>
      </trkpt>
      <trkpt lat="42.294735" lon="1.342233">
        <ele>654.8</ele>
        <time>2018-06-12T07:14:16Z</time>
      </trkpt>
      <trkpt lat="42.294612" lon="1.342239">
        <ele>656.3</ele>
        <time>2018-06-12T07:14:19Z</time>
      </trkpt>
      <trkpt lat="42.294585" lon="1.342215">
        <ele>657.8</ele>
        <time>2018-06-12T07:14:20Z</time>
      </trkpt>
      <trkpt lat="42.294544" lon="1.342204">
        <ele>658.4</ele>
        <time>2018-06-12T07:14:21Z</time>
      </trkpt>
      <trkpt lat="42.294332" lon="1.342198">
        <ele>658.9</ele>
        <time>2018-06-12T07:14:27Z</time>
      </trkpt>
      <trkpt lat="42.294149" lon="1.342269">
        <ele>655.9</ele>
        <time>2018-06-12T07:14:32Z</time>
      </trkpt>
      <trkpt lat="42.294045" lon="1.342284">
        <ele>655.4</ele>
        <time>2018-06-12T07:14:35Z</time>
      </trkpt>
      <trkpt lat="42.293982" lon="1.342268">
        <ele>655.8</ele>
        <time>2018-06-12T07:14:36Z</time>
      </trkpt>
      <trkpt lat="42.293884" lon="1.342237">
        <ele>656.6</ele>
        <time>2018-06-12T07:14:39Z</time>
      </trkpt>
      <trkpt lat="42.293861" lon="1.342177">
        <ele>657.3</ele>
        <time>2018-06-12T07:14:40Z</time>
      </trkpt>
      <trkpt lat="42.293873" lon="1.342098">
        <ele>658.3</ele>
        <time>2018-06-12T07:14:42Z</time>
      </trkpt>
      <trkpt lat="42.294097" lon="1.341822">
        <ele>665.2</ele>
        <time>2018-06-12T07:14:50Z</time>
      </trkpt>
      <trkpt lat="42.294101" lon="1.341755">
        <ele>665.6</ele>
        <time>2018-06-12T07:14:51Z</time>
      </trkpt>
      <trkpt lat="42.294027" lon="1.341611">
        <ele>663.3</ele>
        <time>2018-06-12T07:14:55Z</time>
      </trkpt>
      <trkpt lat="42.293994" lon="1.341515">
        <ele>662.0</ele>
        <time>2018-06-12T07:14:57Z</time>
      </trkpt>
      <trkpt lat="42.294019" lon="1.341405">
        <ele>662.3</ele>
        <time>2018-06-12T07:14:59Z</time>
      </trkpt>
      <trkpt lat="42.294121" lon="1.341294">
        <ele>665.8</ele>
        <time>2018-06-12T07:15:03Z</time>
      </trkpt>
      <trkpt lat="42.294214" lon="1.341212">
        <ele>669.4</ele>
        <time>2018-06-12T07:15:06Z</time>
      </trkpt>
      <trkpt lat="42.294273" lon="1.341211">
        <ele>671.6</ele>
        <time>2018-06-12T07:15:07Z</time>
      </trkpt>
      <trkpt lat="42.294346" lon="1.341176">
        <ele>674.3</ele>
        <time>2018-06-12T07:15:09Z</time>
      </trkpt>
      <trkpt lat="42.294384" lon="1.340974">
        <ele>675.7</ele>
        <time>2018-06-12T07:15:14Z</time>
      </trkpt>
      <trkpt lat="42.294406" lon="1.340646">
        <ele>681.2</ele>
        <time>2018-06-12T07:15:20Z</time>
      </trkpt>
      <trkpt lat="42.294211" lon="1.339942">
        <ele>688.4</ele>
        <time>2018-06-12T07:15:35Z</time>
      </trkpt>
      <trkpt lat="42.294053" lon="1.339546">
        <ele>690.7</ele>
        <time>2018-06-12T07:15:44Z</time>
      </trkpt>
      <trkpt lat="42.293968" lon="1.339324">
        <ele>695.2</ele>
        <time>2018-06-12T07:15:49Z</time>
      </trkpt>
      <trkpt lat="42.293757" lon="1.339008">
        <ele>701.7</ele>
        <time>2018-06-12T07:15:57Z</time>
      </trkpt>
      <trkpt lat="42.293677" lon="1.338816">
        <ele>701.2</ele>
        <time>2018-06-12T07:16:01Z</time>
      </trkpt>
      <trkpt lat="42.293681" lon="1.338761">
        <ele>703.0</ele>
        <time>2018-06-12T07:16:02Z</time>
      </trkpt>
      <trkpt lat="42.293621" lon="1.338362">
        <ele>714.3</ele>
        <time>2018-06-12T07:16:11Z</time>
      </trkpt>
      <trkpt lat="42.293549" lon="1.338061">
        <ele>719.9</ele>
        <time>2018-06-12T07:16:17Z</time>
      </trkpt>
      <trkpt lat="42.293369" lon="1.337726">
        <ele>718.4</ele>
        <time>2018-06-12T07:16:25Z</time>
      </trkpt>
      <trkpt lat="42.293284" lon="1.337480">
        <ele>717.9</ele>
        <time>2018-06-12T07:16:31Z</time>
      </trkpt>
      <trkpt lat="42.293192" lon="1.337312">
        <ele>715.7</ele>
        <time>2018-06-12T07:16:35Z</time>
      </trkpt>
      <trkpt lat="42.293199" lon="1.337185">
        <ele>718.4</ele>
        <time>2018-06-12T07:16:37Z</time>
      </trkpt>
      <trkpt lat="42.293161" lon="1.337058">
        <ele>718.1</ele>
        <time>2018-06-12T07:16:40Z</time>
      </trkpt>
      <trkpt lat="42.293105" lon="1.336951">
        <ele>715.8</ele>
        <time>2018-06-12T07:16:42Z</time>
      </trkpt>
      <trkpt lat="42.293044" lon="1.336734">
        <ele>714.5</ele>
        <time>2018-06-12T07:16:47Z</time>
      </trkpt>
      <trkpt lat="42.293072" lon="1.336545">
        <ele>717.9</ele>
        <time>2018-06-12T07:16:51Z</time>
      </trkpt>
      <trkpt lat="42.293049" lon="1.336188">
        <ele>719.1</ele>
        <time>2018-06-12T07:16:58Z</time>
      </trkpt>
      <trkpt lat="42.293029" lon="1.336007">
        <ele>719.4</ele>
        <time>2018-06-12T07:17:01Z</time>
      </trkpt>
      <trkpt lat="42.292967" lon="1.335778">
        <ele>718.5</ele>
        <time>2018-06-12T07:17:06Z</time>
      </trkpt>
      <trkpt lat="42.292965" lon="1.335687">
        <ele>719.3</ele>
        <time>2018-06-12T07:17:08Z</time>
      </trkpt>
      <trkpt lat="42.292968" lon="1.335547">
        <ele>720.7</ele>
        <time>2018-06-12T07:17:11Z</time>
      </trkpt>
      <trkpt lat="42.293041" lon="1.335315">
        <ele>728.6</ele>
        <time>2018-06-12T07:17:16Z</time>
      </trkpt>
      <trkpt lat="42.293030" lon="1.335170">
        <ele>732.2</ele>
        <time>2018-06-12T07:17:19Z</time>
      </trkpt>
      <trkpt lat="42.293011" lon="1.335109">
        <ele>732.9</ele>
        <time>2018-06-12T07:17:20Z</time>
      </trkpt>
      <trkpt lat="42.292952" lon="1.335075">
        <ele>731.2</ele>
        <time>2018-06-12T07:17:22Z</time>
      </trkpt>
      <trkpt lat="42.292888" lon="1.334991">
        <ele>729.1</ele>
        <time>2018-06-12T07:17:24Z</time>
      </trkpt>
      <trkpt lat="42.292827" lon="1.334841">
        <ele>727.4</ele>
        <time>2018-06-12T07:17:28Z</time>
      </trkpt>
      <trkpt lat="42.292636" lon="1.334385">
        <ele>716.0</ele>
        <time>2018-06-12T07:17:38Z</time>
      </trkpt>
      <trkpt lat="42.292625" lon="1.334283">
        <ele>714.3</ele>
        <time>2018-06-12T07:17:40Z</time>
      </trkpt>
      <trkpt lat="42.292721" lon="1.334038">
        <ele>718.4</ele>
        <time>2018-06-12T07:17:46Z</time>
      </trkpt>
      <trkpt lat="42.293051" lon="1.333222">
        <ele>732.2</ele>
        <time>2018-06-12T07:18:04Z</time>
      </trkpt>
      <trkpt lat="42.293093" lon="1.332972">
        <ele>735.9</ele>
        <time>2018-06-12T07:18:09Z</time>
      </trkpt>
      <trkpt lat="42.293098" lon="1.332748">
        <ele>740.1</ele>
        <time>2018-06-12T07:18:14Z</time>
      </trkpt>
      <trkpt lat="42.292995" lon="1.332429">
        <ele>743.7</ele>
        <time>2018-06-12T07:18:21Z</time>
      </trkpt>
      <trkpt lat="42.292925" lon="1.332292">
        <ele>743.8</ele>
        <time>2018-06-12T07:18:24Z</time>
      </trkpt>
      <trkpt lat="42.292782" lon="1.332071">
        <ele>739.6</ele>
        <time>2018-06-12T07:18:30Z</time>
      </trkpt>
      <trkpt lat="42.292765" lon="1.331817">
        <ele>743.4</ele>
        <time>2018-06-12T07:18:35Z</time>
      </trkpt>
      <trkpt lat="42.292685" lon="1.331600">
        <ele>739.4</ele>
        <time>2018-06-12T07:18:40Z</time>
      </trkpt>
      <trkpt lat="42.292669" lon="1.331389">
        <ele>738.7</ele>
        <time>2018-06-12T07:18:44Z</time>
      </trkpt>
      <trkpt lat="42.292693" lon="1.331170">
        <ele>738.9</ele>
        <time>2018-06-12T07:18:48Z</time>
      </trkpt>
      <trkpt lat="42.292723" lon="1.331084">
        <ele>739.2</ele>
        <time>2018-06-12T07:18:50Z</time>
      </trkpt>
      <trkpt lat="42.292852" lon="1.331014">
        <ele>742.8</ele>
        <time>2018-06-12T07:18:54Z</time>
      </trkpt>
      <trkpt lat="42.292928" lon="1.330951">
        <ele>743.4</ele>
        <time>2018-06-12T07:18:56Z</time>
      </trkpt>
      <trkpt lat="42.293009" lon="1.330937">
        <ele>743.5</ele>
        <time>2018-06-12T07:18:58Z</time>
      </trkpt>
      <trkpt lat="42.293225" lon="1.330931">
        <ele>745.1</ele>
        <time>2018-06-12T07:19:04Z</time>
      </trkpt>
      <trkpt lat="42.293542" lon="1.330753">
        <ele>744.1</ele>
        <time>2018-06-12T07:19:13Z</time>
      </trkpt>
      <trkpt lat="42.293717" lon="1.330718">
        <ele>746.9</ele>
        <time>2018-06-12T07:19:18Z</time>
      </trkpt>
      <trkpt lat="42.293996" lon="1.330733">
        <ele>751.6</ele>
        <time>2018-06-12T07:19:25Z</time>
      </trkpt>
      <trkpt lat="42.294141" lon="1.330731">
        <ele>755.1</ele>
        <time>2018-06-12T07:19:29Z</time>
      </trkpt>
      <trkpt lat="42.294190" lon="1.330699">
        <ele>755.3</ele>
        <time>2018-06-12T07:19:30Z</time>
      </trkpt>
      <trkpt lat="42.294243" lon="1.330619">
        <ele>755.5</ele>
        <time>2018-06-12T07:19:32Z</time>
      </trkpt>
      <trkpt lat="42.294200" lon="1.330451">
        <ele>751.6</ele>
        <time>2018-06-12T07:19:36Z</time>
      </trkpt>
      <trkpt lat="42.294325" lon="1.330083">
        <ele>755.1</ele>
        <time>2018-06-12T07:19:44Z</time>
      </trkpt>
      <trkpt lat="42.294405" lon="1.330002">
        <ele>757.5</ele>
        <time>2018-06-12T07:19:47Z</time>
      </trkpt>
      <trkpt lat="42.294453" lon="1.329916">
        <ele>759.1</ele>
        <time>2018-06-12T07:19:49Z</time>
      </trkpt>
      <trkpt lat="42.294465" lon="1.329819">
        <ele>759.5</ele>
        <time>2018-06-12T07:19:51Z</time>
      </trkpt>
      <trkpt lat="42.294420" lon="1.329790">
        <ele>757.4</ele>
        <time>2018-06-12T07:19:52Z</time>
      </trkpt>
      <trkpt lat="42.294329" lon="1.329756">
        <ele>753.1</ele>
        <time>2018-06-12T07:19:55Z</time>
      </trkpt>
      <trkpt lat="42.294259" lon="1.329606">
        <ele>748.8</ele>
        <time>2018-06-12T07:19:58Z</time>
      </trkpt>
      <trkpt lat="42.294212" lon="1.329450">
        <ele>745.3</ele>
        <time>2018-06-12T07:20:02Z</time>
      </trkpt>
      <trkpt lat="42.294252" lon="1.329233">
        <ele>747.0</ele>
        <time>2018-06-12T07:20:06Z</time>
      </trkpt>
      <trkpt lat="42.294324" lon="1.329058">
        <ele>749.0</ele>
        <time>2018-06-12T07:20:10Z</time>
      </trkpt>
      <trkpt lat="42.294412" lon="1.328923">
        <ele>750.4</ele>
        <time>2018-06-12T07:20:14Z</time>
      </trkpt>
      <trkpt lat="42.294536" lon="1.328780">
        <ele>754.1</ele>
        <time>2018-06-12T07:20:18Z</time>
      </trkpt>
      <trkpt lat="42.294629" lon="1.328674">
        <ele>756.8</ele>
        <time>2018-06-12T07:20:21Z</time>
      </trkpt>
      <trkpt lat="42.294694" lon="1.328545">
        <ele>757.7</ele>
        <time>2018-06-12T07:20:24Z</time>
      </trkpt>
      <trkpt lat="42.294665" lon="1.328376">
        <ele>755.1</ele>
        <time>2018-06-12T07:20:28Z</time>
      </trkpt>
      <trkpt lat="42.294675" lon="1.328164">
        <ele>752.8</ele>
        <time>2018-06-12T07:20:32Z</time>
      </trkpt>
      <trkpt lat="42.294646" lon="1.328043">
        <ele>751.3</ele>
        <time>2018-06-12T07:20:34Z</time>
      </trkpt>
      <trkpt lat="42.294594" lon="1.327850">
        <ele>749.2</ele>
        <time>2018-06-12T07:20:38Z</time>
      </trkpt>
      <trkpt lat="42.294615" lon="1.327741">
        <ele>749.6</ele>
        <time>2018-06-12T07:20:41Z</time>
      </trkpt>
      <trkpt lat="42.294677" lon="1.327648">
        <ele>750.7</ele>
        <time>2018-06-12T07:20:43Z</time>
      </trkpt>
      <trkpt lat="42.294775" lon="1.327579">
        <ele>753.2</ele>
        <time>2018-06-12T07:20:46Z</time>
      </trkpt>
      <trkpt lat="42.294838" lon="1.327565">
        <ele>754.4</ele>
        <time>2018-06-12T07:20:48Z</time>
      </trkpt>
      <trkpt lat="42.294907" lon="1.327418">
        <ele>758.1</ele>
        <time>2018-06-12T07:20:51Z</time>
      </trkpt>
      <trkpt lat="42.294874" lon="1.327279">
        <ele>758.9</ele>
        <time>2018-06-12T07:20:54Z</time>
      </trkpt>
      <trkpt lat="42.294815" lon="1.327232">
        <ele>759.2</ele>
        <time>2018-06-12T07:20:56Z</time>
      </trkpt>
      <trkpt lat="42.294776" lon="1.327166">
        <ele>760.7</ele>
        <time>2018-06-12T07:20:58Z</time>
      </trkpt>
      <trkpt lat="42.294515" lon="1.327076">
        <ele>764.1</ele>
        <time>2018-06-12T07:21:05Z</time>
      </trkpt>
      <trkpt lat="42.294134" lon="1.326898">
        <ele>763.0</ele>
        <time>2018-06-12T07:21:15Z</time>
      </trkpt>
      <trkpt lat="42.294047" lon="1.326773">
        <ele>761.5</ele>
        <time>2018-06-12T07:21:19Z</time>
      </trkpt>
      <trkpt lat="42.293995" lon="1.326611">
        <ele>758.4</ele>
        <time>2018-06-12T07:21:22Z</time>
      </trkpt>
      <trkpt lat="42.294105" lon="1.326086">
        <ele>763.9</ele>
        <time>2018-06-12T07:21:33Z</time>
      </trkpt>
      <trkpt lat="42.294180" lon="1.325678">
        <ele>768.7</ele>
        <time>2018-06-12T07:21:41Z</time>
      </trkpt>
      <trkpt lat="42.294209" lon="1.325412">
        <ele>772.6</ele>
        <time>2018-06-12T07:21:47Z</time>
      </trkpt>
      <trkpt lat="42.294180" lon="1.325114">
        <ele>774.8</ele>
        <time>2018-06-12T07:21:52Z</time>
      </trkpt>
      <trkpt lat="42.294111" lon="1.324873">
        <ele>776.6</ele>
        <time>2018-06-12T07:21:57Z</time>
      </trkpt>
      <trkpt lat="42.294036" lon="1.324641">
        <ele>779.1</ele>
        <time>2018-06-12T07:22:02Z</time>
      </trkpt>
      <trkpt lat="42.294061" lon="1.324312">
        <ele>782.1</ele>
        <time>2018-06-12T07:22:09Z</time>
      </trkpt>
      <trkpt lat="42.293881" lon="1.324282">
        <ele>777.5</ele>
        <time>2018-06-12T07:22:14Z</time>
      </trkpt>
      <trkpt lat="42.293721" lon="1.324186">
        <ele>773.3</ele>
        <time>2018-06-12T07:22:19Z</time>
      </trkpt>
      <trkpt lat="42.293689" lon="1.324120">
        <ele>772.9</ele>
        <time>2018-06-12T07:22:20Z</time>
      </trkpt>
      <trkpt lat="42.293508" lon="1.323804">
        <ele>766.7</ele>
        <time>2018-06-12T07:22:28Z</time>
      </trkpt>
      <trkpt lat="42.293496" lon="1.323598">
        <ele>764.7</ele>
        <time>2018-06-12T07:22:32Z</time>
      </trkpt>
      <trkpt lat="42.293519" lon="1.323306">
        <ele>761.9</ele>
        <time>2018-06-12T07:22:38Z</time>
      </trkpt>
      <trkpt lat="42.293608" lon="1.323091">
        <ele>762.9</ele>
        <time>2018-06-12T07:22:43Z</time>
      </trkpt>
      <trkpt lat="42.293680" lon="1.322950">
        <ele>763.8</ele>
        <time>2018-06-12T07:22:46Z</time>
      </trkpt>
      <trkpt lat="42.293756" lon="1.322857">
        <ele>766.2</ele>
        <time>2018-06-12T07:22:49Z</time>
      </trkpt>
      <trkpt lat="42.293908" lon="1.322810">
        <ele>772.0</ele>
        <time>2018-06-12T07:22:53Z</time>
      </trkpt>
      <trkpt lat="42.294029" lon="1.322734">
        <ele>774.5</ele>
        <time>2018-06-12T07:22:57Z</time>
      </trkpt>
      <trkpt lat="42.294157" lon="1.322567">
        <ele>775.5</ele>
        <time>2018-06-12T07:23:01Z</time>
      </trkpt>
      <trkpt lat="42.294395" lon="1.321039">
        <ele>780.7</ele>
        <time>2018-06-12T07:23:32Z</time>
      </trkpt>
      <trkpt lat="42.294433" lon="1.320838">
        <ele>780.8</ele>
        <time>2018-06-12T07:23:36Z</time>
      </trkpt>
      <trkpt lat="42.294603" lon="1.320136">
        <ele>773.7</ele>
        <time>2018-06-12T07:23:50Z</time>
      </trkpt>
      <trkpt lat="42.294655" lon="1.319983">
        <ele>771.8</ele>
        <time>2018-06-12T07:23:54Z</time>
      </trkpt>
      <trkpt lat="42.294716" lon="1.319872">
        <ele>771.9</ele>
        <time>2018-06-12T07:23:56Z</time>
      </trkpt>
      <trkpt lat="42.294801" lon="1.319845">
        <ele>775.7</ele>
        <time>2018-06-12T07:23:59Z</time>
      </trkpt>
      <trkpt lat="42.294942" lon="1.319902">
        <ele>782.4</ele>
        <time>2018-06-12T07:24:03Z</time>
      </trkpt>
      <trkpt lat="42.295014" lon="1.319788">
        <ele>782.5</ele>
        <time>2018-06-12T07:24:06Z</time>
      </trkpt>
      <trkpt lat="42.295046" lon="1.319335">
        <ele>777.0</ele>
        <time>2018-06-12T07:24:15Z</time>
      </trkpt>
      <trkpt lat="42.295012" lon="1.319172">
        <ele>775.7</ele>
        <time>2018-06-12T07:24:18Z</time>
      </trkpt>
      <trkpt lat="42.294990" lon="1.318918">
        <ele>776.6</ele>
        <time>2018-06-12T07:24:23Z</time>
      </trkpt>
      <trkpt lat="42.294951" lon="1.318713">
        <ele>778.2</ele>
        <time>2018-06-12T07:24:27Z</time>
      </trkpt>
      <trkpt lat="42.294870" lon="1.318382">
        <ele>780.6</ele>
        <time>2018-06-12T07:24:34Z</time>
      </trkpt>
      <trkpt lat="42.294779" lon="1.318038">
        <ele>779.9</ele>
        <time>2018-06-12T07:24:41Z</time>
      </trkpt>
      <trkpt lat="42.294630" lon="1.317672">
        <ele>773.8</ele>
        <time>2018-06-12T07:24:49Z</time>
      </trkpt>
      <trkpt lat="42.294453" lon="1.317283">
        <ele>763.8</ele>
        <time>2018-06-12T07:24:59Z</time>
      </trkpt>
      <trkpt lat="42.294400" lon="1.317060">
        <ele>758.1</ele>
        <time>2018-06-12T07:25:03Z</time>
      </trkpt>
      <trkpt lat="42.294387" lon="1.316775">
        <ele>754.0</ele>
        <time>2018-06-12T07:25:09Z</time>
      </trkpt>
      <trkpt lat="42.294389" lon="1.316624">
        <ele>751.3</ele>
        <time>2018-06-12T07:25:12Z</time>
      </trkpt>
      <trkpt lat="42.294531" lon="1.316122">
        <ele>749.3</ele>
        <time>2018-06-12T07:25:23Z</time>
      </trkpt>
      <trkpt lat="42.294596" lon="1.315999">
        <ele>749.8</ele>
        <time>2018-06-12T07:25:25Z</time>
      </trkpt>
      <trkpt lat="42.294636" lon="1.315634">
        <ele>748.7</ele>
        <time>2018-06-12T07:25:33Z</time>
      </trkpt>
      <trkpt lat="42.294679" lon="1.315209">
        <ele>746.5</ele>
        <time>2018-06-12T07:25:41Z</time>
      </trkpt>
      <trkpt lat="42.294626" lon="1.314646">
        <ele>743.5</ele>
        <time>2018-06-12T07:25:52Z</time>
      </trkpt>
      <trkpt lat="42.294589" lon="1.314580">
        <ele>742.1</ele>
        <time>2018-06-12T07:25:54Z</time>
      </trkpt>
      <trkpt lat="42.294609" lon="1.314410">
        <ele>741.4</ele>
        <time>2018-06-12T07:25:57Z</time>
      </trkpt>
      <trkpt lat="42.294805" lon="1.313932">
        <ele>741.2</ele>
        <time>2018-06-12T07:26:08Z</time>
      </trkpt>
      <trkpt lat="42.295034" lon="1.313331">
        <ele>739.1</ele>
        <time>2018-06-12T07:26:21Z</time>
      </trkpt>
      <trkpt lat="42.295268" lon="1.312536">
        <ele>728.8</ele>
        <time>2018-06-12T07:26:38Z</time>
      </trkpt>
      <trkpt lat="42.295366" lon="1.312468">
        <ele>731.5</ele>
        <time>2018-06-12T07:26:41Z</time>
      </trkpt>
      <trkpt lat="42.295508" lon="1.312453">
        <ele>734.8</ele>
        <time>2018-06-12T07:26:45Z</time>
      </trkpt>
      <trkpt lat="42.295690" lon="1.312447">
        <ele>737.1</ele>
        <time>2018-06-12T07:26:49Z</time>
      </trkpt>
      <trkpt lat="42.295893" lon="1.312499">
        <ele>742.8</ele>
        <time>2018-06-12T07:26:55Z</time>
      </trkpt>
      <trkpt lat="42.296132" lon="1.312535">
        <ele>750.9</ele>
        <time>2018-06-12T07:27:02Z</time>
      </trkpt>
      <trkpt lat="42.296206" lon="1.312567">
        <ele>754.1</ele>
        <time>2018-06-12T07:27:04Z</time>
      </trkpt>
      <trkpt lat="42.296270" lon="1.312584">
        <ele>756.3</ele>
        <time>2018-06-12T07:27:06Z</time>
      </trkpt>
      <trkpt lat="42.296347" lon="1.312559">
        <ele>757.5</ele>
        <time>2018-06-12T07:27:08Z</time>
      </trkpt>
      <trkpt lat="42.296386" lon="1.312527">
        <ele>757.6</ele>
        <time>2018-06-12T07:27:09Z</time>
      </trkpt>
      <trkpt lat="42.296410" lon="1.312447">
        <ele>756.1</ele>
        <time>2018-06-12T07:27:11Z</time>
      </trkpt>
      <trkpt lat="42.296409" lon="1.312378">
        <ele>754.3</ele>
        <time>2018-06-12T07:27:12Z</time>
      </trkpt>
      <trkpt lat="42.296403" lon="1.312312">
        <ele>752.4</ele>
        <time>2018-06-12T07:27:13Z</time>
      </trkpt>
      <trkpt lat="42.296379" lon="1.312235">
        <ele>749.9</ele>
        <time>2018-06-12T07:27:15Z</time>
      </trkpt>
      <trkpt lat="42.296355" lon="1.312157">
        <ele>747.1</ele>
        <time>2018-06-12T07:27:17Z</time>
      </trkpt>
      <trkpt lat="42.296332" lon="1.312079">
        <ele>744.3</ele>
        <time>2018-06-12T07:27:19Z</time>
      </trkpt>
      <trkpt lat="42.296274" lon="1.311900">
        <ele>740.0</ele>
        <time>2018-06-12T07:27:23Z</time>
      </trkpt>
      <trkpt lat="42.296233" lon="1.311789">
        <ele>735.9</ele>
        <time>2018-06-12T07:27:25Z</time>
      </trkpt>
      <trkpt lat="42.296227" lon="1.311645">
        <ele>728.3</ele>
        <time>2018-06-12T07:27:29Z</time>
      </trkpt>
      <trkpt lat="42.296244" lon="1.311544">
        <ele>724.5</ele>
        <time>2018-06-12T07:27:31Z</time>
      </trkpt>
      <trkpt lat="42.296279" lon="1.311446">
        <ele>721.8</ele>
        <time>2018-06-12T07:27:33Z</time>
      </trkpt>
      <trkpt lat="42.296360" lon="1.311262">
        <ele>718.9</ele>
        <time>2018-06-12T07:27:37Z</time>
      </trkpt>
      <trkpt lat="42.296549" lon="1.310926">
        <ele>721.0</ele>
        <time>2018-06-12T07:27:45Z</time>
      </trkpt>
      <trkpt lat="42.296653" lon="1.310784">
        <ele>727.2</ele>
        <time>2018-06-12T07:27:50Z</time>
      </trkpt>
      <trkpt lat="42.296709" lon="1.310706">
        <ele>730.2</ele>
        <time>2018-06-12T07:27:52Z</time>
      </trkpt>
      <trkpt lat="42.296750" lon="1.310619">
        <ele>733.3</ele>
        <time>2018-06-12T07:27:54Z</time>
      </trkpt>
      <trkpt lat="42.296763" lon="1.310461">
        <ele>733.9</ele>
        <time>2018-06-12T07:27:57Z</time>
      </trkpt>
      <trkpt lat="42.296795" lon="1.310199">
        <ele>736.1</ele>
        <time>2018-06-12T07:28:02Z</time>
      </trkpt>
      <trkpt lat="42.296834" lon="1.309949">
        <ele>737.4</ele>
        <time>2018-06-12T07:28:07Z</time>
      </trkpt>
      <trkpt lat="42.296914" lon="1.309656">
        <ele>740.1</ele>
        <time>2018-06-12T07:28:13Z</time>
      </trkpt>
      <trkpt lat="42.296962" lon="1.309484">
        <ele>741.7</ele>
        <time>2018-06-12T07:28:17Z</time>
      </trkpt>
      <trkpt lat="42.296990" lon="1.309340">
        <ele>742.7</ele>
        <time>2018-06-12T07:28:20Z</time>
      </trkpt>
      <trkpt lat="42.297000" lon="1.309249">
        <ele>743.0</ele>
        <time>2018-06-12T07:28:22Z</time>
      </trkpt>
      <trkpt lat="42.297000" lon="1.309076">
        <ele>742.0</ele>
        <time>2018-06-12T07:28:25Z</time>
      </trkpt>
      <trkpt lat="42.297000" lon="1.308916">
        <ele>742.5</ele>
        <time>2018-06-12T07:28:28Z</time>
      </trkpt>
      <trkpt lat="42.296971" lon="1.308683">
        <ele>742.7</ele>
        <time>2018-06-12T07:28:33Z</time>
      </trkpt>
      <trkpt lat="42.296921" lon="1.308454">
        <ele>743.8</ele>
        <time>2018-06-12T07:28:37Z</time>
      </trkpt>
      <trkpt lat="42.296901" lon="1.308311">
        <ele>742.6</ele>
        <time>2018-06-12T07:28:40Z</time>
      </trkpt>
      <trkpt lat="42.296871" lon="1.308140">
        <ele>739.7</ele>
        <time>2018-06-12T07:28:44Z</time>
      </trkpt>
      <trkpt lat="42.296870" lon="1.307955">
        <ele>736.2</ele>
        <time>2018-06-12T07:28:48Z</time>
      </trkpt>
      <trkpt lat="42.296919" lon="1.307726">
        <ele>732.1</ele>
        <time>2018-06-12T07:28:52Z</time>
      </trkpt>
      <trkpt lat="42.297059" lon="1.307294">
        <ele>728.7</ele>
        <time>2018-06-12T07:29:02Z</time>
      </trkpt>
      <trkpt lat="42.297146" lon="1.307039">
        <ele>728.8</ele>
        <time>2018-06-12T07:29:07Z</time>
      </trkpt>
      <trkpt lat="42.297246" lon="1.306901">
        <ele>731.7</ele>
        <time>2018-06-12T07:29:11Z</time>
      </trkpt>
      <trkpt lat="42.297345" lon="1.306832">
        <ele>735.7</ele>
        <time>2018-06-12T07:29:14Z</time>
      </trkpt>
      <trkpt lat="42.297485" lon="1.306733">
        <ele>742.5</ele>
        <time>2018-06-12T07:29:18Z</time>
      </trkpt>
      <trkpt lat="42.297619" lon="1.306727">
        <ele>750.9</ele>
        <time>2018-06-12T07:29:22Z</time>
      </trkpt>
      <trkpt lat="42.297745" lon="1.306647">
        <ele>760.6</ele>
        <time>2018-06-12T07:29:27Z</time>
      </trkpt>
      <trkpt lat="42.297764" lon="1.306532">
        <ele>762.1</ele>
        <time>2018-06-12T07:29:29Z</time>
      </trkpt>
      <trkpt lat="42.297763" lon="1.306389">
        <ele>759.9</ele>
        <time>2018-06-12T07:29:32Z</time>
      </trkpt>
      <trkpt lat="42.297704" lon="1.306284">
        <ele>754.3</ele>
        <time>2018-06-12T07:29:35Z</time>
      </trkpt>
      <trkpt lat="42.297645" lon="1.306126">
        <ele>750.4</ele>
        <time>2018-06-12T07:29:38Z</time>
      </trkpt>
      <trkpt lat="42.297616" lon="1.306036">
        <ele>748.1</ele>
        <time>2018-06-12T07:29:40Z</time>
      </trkpt>
      <trkpt lat="42.297615" lon="1.305919">
        <ele>747.1</ele>
        <time>2018-06-12T07:29:43Z</time>
      </trkpt>
      <trkpt lat="42.297666" lon="1.305776">
        <ele>747.9</ele>
        <time>2018-06-12T07:29:46Z</time>
      </trkpt>
      <trkpt lat="42.297751" lon="1.305669">
        <ele>750.1</ele>
        <time>2018-06-12T07:29:49Z</time>
      </trkpt>
      <trkpt lat="42.297857" lon="1.305525">
        <ele>752.5</ele>
        <time>2018-06-12T07:29:53Z</time>
      </trkpt>
      <trkpt lat="42.297983" lon="1.305471">
        <ele>757.4</ele>
        <time>2018-06-12T07:29:56Z</time>
      </trkpt>
      <trkpt lat="42.298030" lon="1.305404">
        <ele>757.9</ele>
        <time>2018-06-12T07:29:58Z</time>
      </trkpt>
      <trkpt lat="42.298087" lon="1.305265">
        <ele>758.4</ele>
        <time>2018-06-12T07:30:01Z</time>
      </trkpt>
      <trkpt lat="42.298125" lon="1.305118">
        <ele>758.7</ele>
        <time>2018-06-12T07:30:04Z</time>
      </trkpt>
      <trkpt lat="42.298132" lon="1.304959">
        <ele>758.9</ele>
        <time>2018-06-12T07:30:08Z</time>
      </trkpt>
      <trkpt lat="42.298130" lon="1.304749">
        <ele>757.9</ele>
        <time>2018-06-12T07:30:12Z</time>
      </trkpt>
      <trkpt lat="42.298099" lon="1.304458">
        <ele>752.0</ele>
        <time>2018-06-12T07:30:18Z</time>
      </trkpt>
      <trkpt lat="42.298079" lon="1.304316">
        <ele>748.5</ele>
        <time>2018-06-12T07:30:20Z</time>
      </trkpt>
      <trkpt lat="42.298088" lon="1.304074">
        <ele>748.4</ele>
        <time>2018-06-12T07:30:25Z</time>
      </trkpt>
      <trkpt lat="42.298135" lon="1.303930">
        <ele>751.8</ele>
        <time>2018-06-12T07:30:28Z</time>
      </trkpt>
      <trkpt lat="42.298222" lon="1.303753">
        <ele>758.5</ele>
        <time>2018-06-12T07:30:33Z</time>
      </trkpt>
      <trkpt lat="42.298323" lon="1.303502">
        <ele>769.0</ele>
        <time>2018-06-12T07:30:39Z</time>
      </trkpt>
      <trkpt lat="42.298367" lon="1.303301">
        <ele>772.3</ele>
        <time>2018-06-12T07:30:43Z</time>
      </trkpt>
      <trkpt lat="42.298400" lon="1.303130">
        <ele>776.0</ele>
        <time>2018-06-12T07:30:47Z</time>
      </trkpt>
      <trkpt lat="42.298444" lon="1.302962">
        <ele>782.8</ele>
        <time>2018-06-12T07:30:50Z</time>
      </trkpt>
      <trkpt lat="42.298465" lon="1.302788">
        <ele>787.8</ele>
        <time>2018-06-12T07:30:54Z</time>
      </trkpt>
      <trkpt lat="42.298454" lon="1.302604">
        <ele>790.0</ele>
        <time>2018-06-12T07:30:58Z</time>
      </trkpt>
      <trkpt lat="42.298427" lon="1.302410">
        <ele>790.0</ele>
        <time>2018-06-12T07:31:02Z</time>
      </trkpt>
      <trkpt lat="42.298384" lon="1.302222">
        <ele>787.5</ele>
        <time>2018-06-12T07:31:05Z</time>
      </trkpt>
      <trkpt lat="42.298357" lon="1.302106">
        <ele>785.9</ele>
        <time>2018-06-12T07:31:08Z</time>
      </trkpt>
      <trkpt lat="42.298356" lon="1.301989">
        <ele>783.7</ele>
        <time>2018-06-12T07:31:10Z</time>
      </trkpt>
      <trkpt lat="42.298372" lon="1.301880">
        <ele>781.8</ele>
        <time>2018-06-12T07:31:12Z</time>
      </trkpt>
      <trkpt lat="42.298405" lon="1.301791">
        <ele>780.6</ele>
        <time>2018-06-12T07:31:14Z</time>
      </trkpt>
      <trkpt lat="42.298485" lon="1.301616">
        <ele>777.3</ele>
        <time>2018-06-12T07:31:18Z</time>
      </trkpt>
      <trkpt lat="42.298619" lon="1.301445">
        <ele>777.0</ele>
        <time>2018-06-12T07:31:23Z</time>
      </trkpt>
      <trkpt lat="42.298778" lon="1.301161">
        <ele>777.1</ele>
        <time>2018-06-12T07:31:30Z</time>
      </trkpt>
      <trkpt lat="42.298894" lon="1.301044">
        <ele>781.0</ele>
        <time>2018-06-12T07:31:34Z</time>
      </trkpt>
      <trkpt lat="42.298952" lon="1.300999">
        <ele>783.7</ele>
        <time>2018-06-12T07:31:36Z</time>
      </trkpt>
      <trkpt lat="42.299015" lon="1.300917">
        <ele>787.8</ele>
        <time>2018-06-12T07:31:38Z</time>
      </trkpt>
      <trkpt lat="42.299040" lon="1.300792">
        <ele>790.6</ele>
        <time>2018-06-12T07:31:41Z</time>
      </trkpt>
      <trkpt lat="42.299044" lon="1.300644">
        <ele>793.2</ele>
        <time>2018-06-12T07:31:44Z</time>
      </trkpt>
      <trkpt lat="42.299037" lon="1.300490">
        <ele>797.2</ele>
        <time>2018-06-12T07:31:47Z</time>
      </trkpt>
      <trkpt lat="42.299035" lon="1.300360">
        <ele>799.4</ele>
        <time>2018-06-12T07:31:50Z</time>
      </trkpt>
      <trkpt lat="42.299050" lon="1.300215">
        <ele>800.4</ele>
        <time>2018-06-12T07:31:53Z</time>
      </trkpt>
      <trkpt lat="42.299087" lon="1.300059">
        <ele>802.3</ele>
        <time>2018-06-12T07:31:56Z</time>
      </trkpt>
      <trkpt lat="42.299129" lon="1.299775">
        <ele>806.4</ele>
        <time>2018-06-12T07:32:02Z</time>
      </trkpt>
      <trkpt lat="42.299145" lon="1.299546">
        <ele>810.5</ele>
        <time>2018-06-12T07:32:06Z</time>
      </trkpt>
      <trkpt lat="42.299114" lon="1.299219">
        <ele>813.8</ele>
        <time>2018-06-12T07:32:13Z</time>
      </trkpt>
      <trkpt lat="42.299047" lon="1.298908">
        <ele>816.7</ele>
        <time>2018-06-12T07:32:19Z</time>
      </trkpt>
      <trkpt lat="42.298954" lon="1.298664">
        <ele>813.6</ele>
        <time>2018-06-12T07:32:24Z</time>
      </trkpt>
      <trkpt lat="42.298862" lon="1.298464">
        <ele>809.8</ele>
        <time>2018-06-12T07:32:29Z</time>
      </trkpt>
      <trkpt lat="42.298798" lon="1.298386">
        <ele>807.0</ele>
        <time>2018-06-12T07:32:31Z</time>
      </trkpt>
      <trkpt lat="42.298772" lon="1.298306">
        <ele>807.0</ele>
        <time>2018-06-12T07:32:33Z</time>
      </trkpt>
      <trkpt lat="42.298759" lon="1.298186">
        <ele>808.6</ele>
        <time>2018-06-12T07:32:36Z</time>
      </trkpt>
      <trkpt lat="42.298718" lon="1.298026">
        <ele>804.3</ele>
        <time>2018-06-12T07:32:39Z</time>
      </trkpt>
      <trkpt lat="42.298661" lon="1.297862">
        <ele>799.1</ele>
        <time>2018-06-12T07:32:43Z</time>
      </trkpt>
      <trkpt lat="42.298556" lon="1.297703">
        <ele>790.1</ele>
        <time>2018-06-12T07:32:47Z</time>
      </trkpt>
      <trkpt lat="42.298422" lon="1.297571">
        <ele>780.3</ele>
        <time>2018-06-12T07:32:52Z</time>
      </trkpt>
      <trkpt lat="42.298353" lon="1.297507">
        <ele>777.8</ele>
        <time>2018-06-12T07:32:55Z</time>
      </trkpt>
      <trkpt lat="42.298286" lon="1.297416">
        <ele>775.6</ele>
        <time>2018-06-12T07:32:57Z</time>
      </trkpt>
      <trkpt lat="42.298221" lon="1.297269">
        <ele>773.5</ele>
        <time>2018-06-12T07:33:01Z</time>
      </trkpt>
      <trkpt lat="42.298193" lon="1.297134">
        <ele>772.0</ele>
        <time>2018-06-12T07:33:03Z</time>
      </trkpt>
      <trkpt lat="42.298156" lon="1.296994">
        <ele>771.0</ele>
        <time>2018-06-12T07:33:06Z</time>
      </trkpt>
      <trkpt lat="42.298121" lon="1.296835">
        <ele>770.1</ele>
        <time>2018-06-12T07:33:09Z</time>
      </trkpt>
      <trkpt lat="42.298074" lon="1.296696">
        <ele>768.7</ele>
        <time>2018-06-12T07:33:12Z</time>
      </trkpt>
      <trkpt lat="42.298072" lon="1.296591">
        <ele>768.3</ele>
        <time>2018-06-12T07:33:14Z</time>
      </trkpt>
      <trkpt lat="42.298086" lon="1.296532">
        <ele>768.7</ele>
        <time>2018-06-12T07:33:16Z</time>
      </trkpt>
      <trkpt lat="42.298138" lon="1.296493">
        <ele>770.1</ele>
        <time>2018-06-12T07:33:17Z</time>
      </trkpt>
      <trkpt lat="42.298207" lon="1.296486">
        <ele>773.1</ele>
        <time>2018-06-12T07:33:19Z</time>
      </trkpt>
      <trkpt lat="42.298334" lon="1.296481">
        <ele>781.4</ele>
        <time>2018-06-12T07:33:23Z</time>
      </trkpt>
      <trkpt lat="42.298615" lon="1.296420">
        <ele>795.6</ele>
        <time>2018-06-12T07:33:31Z</time>
      </trkpt>
      <trkpt lat="42.298888" lon="1.296309">
        <ele>800.7</ele>
        <time>2018-06-12T07:33:39Z</time>
      </trkpt>
      <trkpt lat="42.299283" lon="1.296180">
        <ele>807.5</ele>
        <time>2018-06-12T07:33:50Z</time>
      </trkpt>
      <trkpt lat="42.299537" lon="1.296043">
        <ele>810.5</ele>
        <time>2018-06-12T07:33:57Z</time>
      </trkpt>
      <trkpt lat="42.299934" lon="1.295746">
        <ele>815.3</ele>
        <time>2018-06-12T07:34:09Z</time>
      </trkpt>
      <trkpt lat="42.300047" lon="1.295679">
        <ele>817.0</ele>
        <time>2018-06-12T07:34:12Z</time>
      </trkpt>
      <trkpt lat="42.300113" lon="1.295609">
        <ele>817.1</ele>
        <time>2018-06-12T07:34:15Z</time>
      </trkpt>
      <trkpt lat="42.300229" lon="1.295433">
        <ele>814.7</ele>
        <time>2018-06-12T07:34:19Z</time>
      </trkpt>
      <trkpt lat="42.300295" lon="1.295342">
        <ele>813.8</ele>
        <time>2018-06-12T07:34:22Z</time>
      </trkpt>
      <trkpt lat="42.300346" lon="1.295219">
        <ele>812.6</ele>
        <time>2018-06-12T07:34:24Z</time>
      </trkpt>
      <trkpt lat="42.300381" lon="1.295046">
        <ele>808.7</ele>
        <time>2018-06-12T07:34:28Z</time>
      </trkpt>
      <trkpt lat="42.300381" lon="1.294901">
        <ele>803.4</ele>
        <time>2018-06-12T07:34:31Z</time>
      </trkpt>
      <trkpt lat="42.300381" lon="1.294745">
        <ele>799.2</ele>
        <time>2018-06-12T07:34:34Z</time>
      </trkpt>
      <trkpt lat="42.300424" lon="1.294578">
        <ele>796.6</ele>
        <time>2018-06-12T07:34:38Z</time>
      </trkpt>
      <trkpt lat="42.300510" lon="1.294447">
        <ele>802.1</ele>
        <time>2018-06-12T07:34:41Z</time>
      </trkpt>
      <trkpt lat="42.300945" lon="1.293943">
        <ele>825.3</ele>
        <time>2018-06-12T07:34:57Z</time>
      </trkpt>
      <trkpt lat="42.301252" lon="1.293649">
        <ele>832.7</ele>
        <time>2018-06-12T07:35:08Z</time>
      </trkpt>
      <trkpt lat="42.301365" lon="1.293557">
        <ele>833.9</ele>
        <time>2018-06-12T07:35:11Z</time>
      </trkpt>
      <trkpt lat="42.301458" lon="1.293415">
        <ele>832.5</ele>
        <time>2018-06-12T07:35:15Z</time>
      </trkpt>
      <trkpt lat="42.301543" lon="1.293249">
        <ele>830.4</ele>
        <time>2018-06-12T07:35:19Z</time>
      </trkpt>
      <trkpt lat="42.301736" lon="1.292880">
        <ele>826.0</ele>
        <time>2018-06-12T07:35:28Z</time>
      </trkpt>
      <trkpt lat="42.301866" lon="1.292616">
        <ele>824.2</ele>
        <time>2018-06-12T07:35:34Z</time>
      </trkpt>
      <trkpt lat="42.301937" lon="1.292518">
        <ele>822.4</ele>
        <time>2018-06-12T07:35:36Z</time>
      </trkpt>
      <trkpt lat="42.302101" lon="1.292364">
        <ele>820.5</ele>
        <time>2018-06-12T07:35:42Z</time>
      </trkpt>
      <trkpt lat="42.302330" lon="1.292198">
        <ele>818.0</ele>
        <time>2018-06-12T07:35:49Z</time>
      </trkpt>
      <trkpt lat="42.302472" lon="1.292104">
        <ele>817.7</ele>
        <time>2018-06-12T07:35:53Z</time>
      </trkpt>
      <trkpt lat="42.302609" lon="1.292074">
        <ele>820.7</ele>
        <time>2018-06-12T07:35:57Z</time>
      </trkpt>
      <trkpt lat="42.302778" lon="1.292085">
        <ele>824.6</ele>
        <time>2018-06-12T07:36:01Z</time>
      </trkpt>
      <trkpt lat="42.302892" lon="1.292085">
        <ele>826.6</ele>
        <time>2018-06-12T07:36:04Z</time>
      </trkpt>
      <trkpt lat="42.302977" lon="1.292067">
        <ele>826.8</ele>
        <time>2018-06-12T07:36:06Z</time>
      </trkpt>
      <trkpt lat="42.303077" lon="1.291979">
        <ele>824.0</ele>
        <time>2018-06-12T07:36:10Z</time>
      </trkpt>
      <trkpt lat="42.303214" lon="1.291869">
        <ele>820.1</ele>
        <time>2018-06-12T07:36:14Z</time>
      </trkpt>
      <trkpt lat="42.303459" lon="1.291642">
        <ele>818.2</ele>
        <time>2018-06-12T07:36:22Z</time>
      </trkpt>
      <trkpt lat="42.303617" lon="1.291497">
        <ele>817.7</ele>
        <time>2018-06-12T07:36:27Z</time>
      </trkpt>
      <trkpt lat="42.303668" lon="1.291415">
        <ele>817.5</ele>
        <time>2018-06-12T07:36:29Z</time>
      </trkpt>
      <trkpt lat="42.303707" lon="1.291324">
        <ele>817.1</ele>
        <time>2018-06-12T07:36:31Z</time>
      </trkpt>
      <trkpt lat="42.303751" lon="1.291212">
        <ele>816.7</ele>
        <time>2018-06-12T07:36:33Z</time>
      </trkpt>
      <trkpt lat="42.303817" lon="1.291134">
        <ele>817.0</ele>
        <time>2018-06-12T07:36:36Z</time>
      </trkpt>
      <trkpt lat="42.304007" lon="1.290963">
        <ele>815.9</ele>
        <time>2018-06-12T07:36:42Z</time>
      </trkpt>
      <trkpt lat="42.304724" lon="1.290228">
        <ele>819.5</ele>
        <time>2018-06-12T07:37:05Z</time>
      </trkpt>
      <trkpt lat="42.304819" lon="1.290086">
        <ele>821.4</ele>
        <time>2018-06-12T07:37:09Z</time>
      </trkpt>
      <trkpt lat="42.304942" lon="1.289985">
        <ele>824.3</ele>
        <time>2018-06-12T07:37:13Z</time>
      </trkpt>
      <trkpt lat="42.305069" lon="1.289911">
        <ele>825.2</ele>
        <time>2018-06-12T07:37:17Z</time>
      </trkpt>
      <trkpt lat="42.305230" lon="1.289891">
        <ele>827.0</ele>
        <time>2018-06-12T07:37:21Z</time>
      </trkpt>
      <trkpt lat="42.305666" lon="1.289773">
        <ele>840.0</ele>
        <time>2018-06-12T07:37:33Z</time>
      </trkpt>
      <trkpt lat="42.306064" lon="1.289693">
        <ele>849.9</ele>
        <time>2018-06-12T07:37:44Z</time>
      </trkpt>
      <trkpt lat="42.306256" lon="1.289642">
        <ele>850.9</ele>
        <time>2018-06-12T07:37:49Z</time>
      </trkpt>
      <trkpt lat="42.306436" lon="1.289556">
        <ele>849.2</ele>
        <time>2018-06-12T07:37:54Z</time>
      </trkpt>
      <trkpt lat="42.306585" lon="1.289441">
        <ele>852.3</ele>
        <time>2018-06-12T07:37:59Z</time>
      </trkpt>
      <trkpt lat="42.306723" lon="1.289320">
        <ele>852.9</ele>
        <time>2018-06-12T07:38:03Z</time>
      </trkpt>
      <trkpt lat="42.306825" lon="1.289181">
        <ele>872.5</ele>
        <time>2018-06-12T07:38:09Z</time>
      </trkpt>
      <trkpt lat="42.306993" lon="1.288926">
        <ele>912.2</ele>
        <time>2018-06-12T07:38:21Z</time>
      </trkpt>
      <trkpt lat="42.307123" lon="1.288682">
        <ele>925.4</ele>
        <time>2018-06-12T07:38:27Z</time>
      </trkpt>
      <trkpt lat="42.307205" lon="1.288532">
        <ele>934.6</ele>
        <time>2018-06-12T07:38:31Z</time>
      </trkpt>
      <trkpt lat="42.307338" lon="1.288458">
        <ele>938.9</ele>
        <time>2018-06-12T07:38:35Z</time>
      </trkpt>
      <trkpt lat="42.307490" lon="1.288469">
        <ele>932.8</ele>
        <time>2018-06-12T07:38:40Z</time>
      </trkpt>
      <trkpt lat="42.307656" lon="1.288528">
        <ele>924.7</ele>
        <time>2018-06-12T07:38:45Z</time>
      </trkpt>
      <trkpt lat="42.307929" lon="1.288658">
        <ele>920.6</ele>
        <time>2018-06-12T07:38:52Z</time>
      </trkpt>
      <trkpt lat="42.308583" lon="1.289168">
        <ele>904.4</ele>
        <time>2018-06-12T07:39:12Z</time>
      </trkpt>
      <trkpt lat="42.308964" lon="1.289396">
        <ele>889.9</ele>
        <time>2018-06-12T07:39:24Z</time>
      </trkpt>
      <trkpt lat="42.309172" lon="1.289476">
        <ele>886.2</ele>
        <time>2018-06-12T07:39:30Z</time>
      </trkpt>
      <trkpt lat="42.309385" lon="1.289535">
        <ele>885.9</ele>
        <time>2018-06-12T07:39:35Z</time>
      </trkpt>
      <trkpt lat="42.309578" lon="1.289633">
        <ele>884.9</ele>
        <time>2018-06-12T07:39:41Z</time>
      </trkpt>
      <trkpt lat="42.309727" lon="1.289703">
        <ele>886.6</ele>
        <time>2018-06-12T07:39:45Z</time>
      </trkpt>
      <trkpt lat="42.309838" lon="1.289711">
        <ele>887.1</ele>
        <time>2018-06-12T07:39:48Z</time>
      </trkpt>
      <trkpt lat="42.309940" lon="1.289702">
        <ele>888.5</ele>
        <time>2018-06-12T07:39:51Z</time>
      </trkpt>
      <trkpt lat="42.310035" lon="1.289639">
        <ele>889.7</ele>
        <time>2018-06-12T07:39:53Z</time>
      </trkpt>
      <trkpt lat="42.310111" lon="1.289535">
        <ele>891.8</ele>
        <time>2018-06-12T07:39:56Z</time>
      </trkpt>
      <trkpt lat="42.310246" lon="1.289376">
        <ele>894.2</ele>
        <time>2018-06-12T07:40:01Z</time>
      </trkpt>
      <trkpt lat="42.310412" lon="1.289233">
        <ele>897.1</ele>
        <time>2018-06-12T07:40:06Z</time>
      </trkpt>
      <trkpt lat="42.310527" lon="1.289147">
        <ele>900.9</ele>
        <time>2018-06-12T07:40:10Z</time>
      </trkpt>
      <trkpt lat="42.310643" lon="1.289081">
        <ele>904.1</ele>
        <time>2018-06-12T07:40:13Z</time>
      </trkpt>
      <trkpt lat="42.310745" lon="1.289083">
        <ele>904.9</ele>
        <time>2018-06-12T07:40:16Z</time>
      </trkpt>
      <trkpt lat="42.310916" lon="1.289153">
        <ele>905.1</ele>
        <time>2018-06-12T07:40:21Z</time>
      </trkpt>
      <trkpt lat="42.311125" lon="1.289285">
        <ele>902.2</ele>
        <time>2018-06-12T07:40:27Z</time>
      </trkpt>
      <trkpt lat="42.311270" lon="1.289331">
        <ele>900.0</ele>
        <time>2018-06-12T07:40:31Z</time>
      </trkpt>
      <trkpt lat="42.311393" lon="1.289391">
        <ele>899.8</ele>
        <time>2018-06-12T07:40:34Z</time>
      </trkpt>
      <trkpt lat="42.311520" lon="1.289362">
        <ele>899.8</ele>
        <time>2018-06-12T07:40:38Z</time>
      </trkpt>
      <trkpt lat="42.311607" lon="1.289345">
        <ele>899.3</ele>
        <time>2018-06-12T07:40:40Z</time>
      </trkpt>
      <trkpt lat="42.311708" lon="1.289277">
        <ele>899.5</ele>
        <time>2018-06-12T07:40:43Z</time>
      </trkpt>
      <trkpt lat="42.311844" lon="1.289078">
        <ele>902.9</ele>
        <time>2018-06-12T07:40:48Z</time>
      </trkpt>
      <trkpt lat="42.312001" lon="1.288893">
        <ele>902.7</ele>
        <time>2018-06-12T07:40:54Z</time>
      </trkpt>
      <trkpt lat="42.312184" lon="1.288715">
        <ele>900.6</ele>
        <time>2018-06-12T07:41:00Z</time>
      </trkpt>
      <trkpt lat="42.312307" lon="1.288646">
        <ele>897.8</ele>
        <time>2018-06-12T07:41:03Z</time>
      </trkpt>
      <trkpt lat="42.312405" lon="1.288610">
        <ele>897.3</ele>
        <time>2018-06-12T07:41:06Z</time>
      </trkpt>
      <trkpt lat="42.312520" lon="1.288666">
        <ele>899.0</ele>
        <time>2018-06-12T07:41:09Z</time>
      </trkpt>
      <trkpt lat="42.312655" lon="1.288710">
        <ele>901.0</ele>
        <time>2018-06-12T07:41:13Z</time>
      </trkpt>
      <trkpt lat="42.312972" lon="1.288785">
        <ele>896.8</ele>
        <time>2018-06-12T07:41:21Z</time>
      </trkpt>
      <trkpt lat="42.313386" lon="1.288837">
        <ele>893.2</ele>
        <time>2018-06-12T07:41:32Z</time>
      </trkpt>
      <trkpt lat="42.313583" lon="1.288839">
        <ele>890.5</ele>
        <time>2018-06-12T07:41:38Z</time>
      </trkpt>
      <trkpt lat="42.313779" lon="1.288815">
        <ele>888.1</ele>
        <time>2018-06-12T07:41:43Z</time>
      </trkpt>
      <trkpt lat="42.313909" lon="1.288751">
        <ele>884.4</ele>
        <time>2018-06-12T07:41:47Z</time>
      </trkpt>
      <trkpt lat="42.314035" lon="1.288692">
        <ele>883.1</ele>
        <time>2018-06-12T07:41:50Z</time>
      </trkpt>
      <trkpt lat="42.314149" lon="1.288567">
        <ele>886.3</ele>
        <time>2018-06-12T07:41:54Z</time>
      </trkpt>
      <trkpt lat="42.314261" lon="1.288415">
        <ele>889.3</ele>
        <time>2018-06-12T07:41:58Z</time>
      </trkpt>
      <trkpt lat="42.314355" lon="1.288330">
        <ele>890.7</ele>
        <time>2018-06-12T07:42:01Z</time>
      </trkpt>
      <trkpt lat="42.314498" lon="1.288233">
        <ele>891.4</ele>
        <time>2018-06-12T07:42:06Z</time>
      </trkpt>
      <trkpt lat="42.314686" lon="1.288159">
        <ele>893.6</ele>
        <time>2018-06-12T07:42:11Z</time>
      </trkpt>
      <trkpt lat="42.314821" lon="1.288118">
        <ele>896.7</ele>
        <time>2018-06-12T07:42:14Z</time>
      </trkpt>
      <trkpt lat="42.315028" lon="1.288048">
        <ele>904.0</ele>
        <time>2018-06-12T07:42:20Z</time>
      </trkpt>
      <trkpt lat="42.315098" lon="1.287994">
        <ele>907.5</ele>
        <time>2018-06-12T07:42:23Z</time>
      </trkpt>
      <trkpt lat="42.315161" lon="1.287920">
        <ele>910.3</ele>
        <time>2018-06-12T07:42:25Z</time>
      </trkpt>
      <trkpt lat="42.315194" lon="1.287792">
        <ele>912.2</ele>
        <time>2018-06-12T07:42:28Z</time>
      </trkpt>
      <trkpt lat="42.315202" lon="1.287696">
        <ele>914.0</ele>
        <time>2018-06-12T07:42:29Z</time>
      </trkpt>
      <trkpt lat="42.315180" lon="1.287600">
        <ele>916.3</ele>
        <time>2018-06-12T07:42:32Z</time>
      </trkpt>
      <trkpt lat="42.315137" lon="1.287475">
        <ele>919.4</ele>
        <time>2018-06-12T07:42:34Z</time>
      </trkpt>
      <trkpt lat="42.315083" lon="1.287393">
        <ele>922.7</ele>
        <time>2018-06-12T07:42:37Z</time>
      </trkpt>
      <trkpt lat="42.315009" lon="1.287270">
        <ele>925.8</ele>
        <time>2018-06-12T07:42:40Z</time>
      </trkpt>
      <trkpt lat="42.314846" lon="1.286911">
        <ele>931.2</ele>
        <time>2018-06-12T07:42:48Z</time>
      </trkpt>
      <trkpt lat="42.314778" lon="1.286762">
        <ele>931.7</ele>
        <time>2018-06-12T07:42:51Z</time>
      </trkpt>
      <trkpt lat="42.314733" lon="1.286626">
        <ele>931.1</ele>
        <time>2018-06-12T07:42:54Z</time>
      </trkpt>
      <trkpt lat="42.314711" lon="1.286462">
        <ele>930.1</ele>
        <time>2018-06-12T07:42:58Z</time>
      </trkpt>
      <trkpt lat="42.314708" lon="1.286245">
        <ele>929.2</ele>
        <time>2018-06-12T07:43:02Z</time>
      </trkpt>
      <trkpt lat="42.314715" lon="1.285985">
        <ele>928.8</ele>
        <time>2018-06-12T07:43:07Z</time>
      </trkpt>
      <trkpt lat="42.314765" lon="1.285363">
        <ele>926.4</ele>
        <time>2018-06-12T07:43:19Z</time>
      </trkpt>
      <trkpt lat="42.314815" lon="1.285019">
        <ele>928.3</ele>
        <time>2018-06-12T07:43:26Z</time>
      </trkpt>
      <trkpt lat="42.314866" lon="1.284840">
        <ele>929.2</ele>
        <time>2018-06-12T07:43:30Z</time>
      </trkpt>
      <trkpt lat="42.314930" lon="1.284638">
        <ele>930.6</ele>
        <time>2018-06-12T07:43:34Z</time>
      </trkpt>
      <trkpt lat="42.315018" lon="1.284526">
        <ele>930.1</ele>
        <time>2018-06-12T07:43:37Z</time>
      </trkpt>
      <trkpt lat="42.315100" lon="1.284417">
        <ele>932.1</ele>
        <time>2018-06-12T07:43:40Z</time>
      </trkpt>
      <trkpt lat="42.315200" lon="1.284304">
        <ele>932.2</ele>
        <time>2018-06-12T07:43:44Z</time>
      </trkpt>
      <trkpt lat="42.315356" lon="1.284214">
        <ele>923.3</ele>
        <time>2018-06-12T07:43:49Z</time>
      </trkpt>
      <trkpt lat="42.315606" lon="1.284056">
        <ele>918.3</ele>
        <time>2018-06-12T07:43:56Z</time>
      </trkpt>
      <trkpt lat="42.315769" lon="1.283948">
        <ele>917.8</ele>
        <time>2018-06-12T07:44:01Z</time>
      </trkpt>
      <trkpt lat="42.315946" lon="1.283750">
        <ele>918.4</ele>
        <time>2018-06-12T07:44:07Z</time>
      </trkpt>
      <trkpt lat="42.316138" lon="1.283517">
        <ele>919.7</ele>
        <time>2018-06-12T07:44:14Z</time>
      </trkpt>
      <trkpt lat="42.316197" lon="1.283421">
        <ele>920.9</ele>
        <time>2018-06-12T07:44:16Z</time>
      </trkpt>
      <trkpt lat="42.316237" lon="1.283350">
        <ele>922.0</ele>
        <time>2018-06-12T07:44:18Z</time>
      </trkpt>
      <trkpt lat="42.316250" lon="1.283303">
        <ele>922.9</ele>
        <time>2018-06-12T07:44:19Z</time>
      </trkpt>
      <trkpt lat="42.316249" lon="1.283233">
        <ele>925.0</ele>
        <time>2018-06-12T07:44:20Z</time>
      </trkpt>
      <trkpt lat="42.316207" lon="1.283177">
        <ele>929.4</ele>
        <time>2018-06-12T07:44:22Z</time>
      </trkpt>
      <trkpt lat="42.316153" lon="1.283133">
        <ele>934.9</ele>
        <time>2018-06-12T07:44:24Z</time>
      </trkpt>
      <trkpt lat="42.316092" lon="1.283114">
        <ele>939.8</ele>
        <time>2018-06-12T07:44:26Z</time>
      </trkpt>
      <trkpt lat="42.316038" lon="1.283124">
        <ele>942.8</ele>
        <time>2018-06-12T07:44:28Z</time>
      </trkpt>
      <trkpt lat="42.315975" lon="1.283157">
        <ele>945.0</ele>
        <time>2018-06-12T07:44:30Z</time>
      </trkpt>
      <trkpt lat="42.315840" lon="1.283268">
        <ele>945.5</ele>
        <time>2018-06-12T07:44:34Z</time>
      </trkpt>
      <trkpt lat="42.315694" lon="1.283302">
        <ele>951.1</ele>
        <time>2018-06-12T07:44:38Z</time>
      </trkpt>
      <trkpt lat="42.315454" lon="1.283385">
        <ele>961.4</ele>
        <time>2018-06-12T07:44:45Z</time>
      </trkpt>
      <trkpt lat="42.315396" lon="1.283418">
        <ele>963.5</ele>
        <time>2018-06-12T07:44:47Z</time>
      </trkpt>
      <trkpt lat="42.315315" lon="1.283498">
        <ele>963.2</ele>
        <time>2018-06-12T07:44:49Z</time>
      </trkpt>
      <trkpt lat="42.315235" lon="1.283617">
        <ele>961.0</ele>
        <time>2018-06-12T07:44:53Z</time>
      </trkpt>
      <trkpt lat="42.315070" lon="1.283848">
        <ele>960.6</ele>
        <time>2018-06-12T07:44:59Z</time>
      </trkpt>
      <trkpt lat="42.314923" lon="1.284038">
        <ele>958.9</ele>
        <time>2018-06-12T07:45:04Z</time>
      </trkpt>
      <trkpt lat="42.314754" lon="1.284195">
        <ele>958.3</ele>
        <time>2018-06-12T07:45:10Z</time>
      </trkpt>
      <trkpt lat="42.314600" lon="1.284273">
        <ele>961.4</ele>
        <time>2018-06-12T07:45:14Z</time>
      </trkpt>
      <trkpt lat="42.314444" lon="1.284355">
        <ele>966.6</ele>
        <time>2018-06-12T07:45:19Z</time>
      </trkpt>
      <trkpt lat="42.314370" lon="1.284404">
        <ele>969.3</ele>
        <time>2018-06-12T07:45:21Z</time>
      </trkpt>
      <trkpt lat="42.314290" lon="1.284461">
        <ele>972.6</ele>
        <time>2018-06-12T07:45:23Z</time>
      </trkpt>
      <trkpt lat="42.314226" lon="1.284525">
        <ele>975.6</ele>
        <time>2018-06-12T07:45:25Z</time>
      </trkpt>
      <trkpt lat="42.314226" lon="1.284586">
        <ele>974.4</ele>
        <time>2018-06-12T07:45:27Z</time>
      </trkpt>
      <trkpt lat="42.314240" lon="1.284655">
        <ele>971.9</ele>
        <time>2018-06-12T07:45:28Z</time>
      </trkpt>
      <trkpt lat="42.314249" lon="1.284754">
        <ele>969.2</ele>
        <time>2018-06-12T07:45:30Z</time>
      </trkpt>
      <trkpt lat="42.314262" lon="1.284870">
        <ele>965.9</ele>
        <time>2018-06-12T07:45:33Z</time>
      </trkpt>
      <trkpt lat="42.314244" lon="1.285002">
        <ele>965.1</ele>
        <time>2018-06-12T07:45:35Z</time>
      </trkpt>
      <trkpt lat="42.314192" lon="1.285174">
        <ele>965.0</ele>
        <time>2018-06-12T07:45:39Z</time>
      </trkpt>
      <trkpt lat="42.314068" lon="1.285506">
        <ele>966.8</ele>
        <time>2018-06-12T07:45:46Z</time>
      </trkpt>
      <trkpt lat="42.314023" lon="1.285628">
        <ele>969.2</ele>
        <time>2018-06-12T07:45:49Z</time>
      </trkpt>
      <trkpt lat="42.313957" lon="1.285796">
        <ele>972.0</ele>
        <time>2018-06-12T07:45:53Z</time>
      </trkpt>
      <trkpt lat="42.313924" lon="1.285850">
        <ele>973.2</ele>
        <time>2018-06-12T07:45:54Z</time>
      </trkpt>
      <trkpt lat="42.313924" lon="1.285903">
        <ele>973.4</ele>
        <time>2018-06-12T07:45:55Z</time>
      </trkpt>
      <trkpt lat="42.313935" lon="1.285948">
        <ele>973.2</ele>
        <time>2018-06-12T07:45:56Z</time>
      </trkpt>
      <trkpt lat="42.313952" lon="1.286009">
        <ele>972.9</ele>
        <time>2018-06-12T07:45:57Z</time>
      </trkpt>
      <trkpt lat="42.313985" lon="1.286077">
        <ele>972.2</ele>
        <time>2018-06-12T07:45:59Z</time>
      </trkpt>
      <trkpt lat="42.314037" lon="1.286284">
        <ele>971.1</ele>
        <time>2018-06-12T07:46:03Z</time>
      </trkpt>
      <trkpt lat="42.314037" lon="1.286415">
        <ele>970.7</ele>
        <time>2018-06-12T07:46:06Z</time>
      </trkpt>
      <trkpt lat="42.314037" lon="1.286531">
        <ele>970.2</ele>
        <time>2018-06-12T07:46:08Z</time>
      </trkpt>
      <trkpt lat="42.314032" lon="1.286739">
        <ele>968.5</ele>
        <time>2018-06-12T07:46:12Z</time>
      </trkpt>
      <trkpt lat="42.314055" lon="1.286828">
        <ele>966.2</ele>
        <time>2018-06-12T07:46:14Z</time>
      </trkpt>
      <trkpt lat="42.314088" lon="1.286920">
        <ele>963.4</ele>
        <time>2018-06-12T07:46:16Z</time>
      </trkpt>
      <trkpt lat="42.314111" lon="1.287041">
        <ele>961.1</ele>
        <time>2018-06-12T07:46:19Z</time>
      </trkpt>
      <trkpt lat="42.314116" lon="1.287183">
        <ele>960.1</ele>
        <time>2018-06-12T07:46:21Z</time>
      </trkpt>
      <trkpt lat="42.314089" lon="1.287229">
        <ele>961.0</ele>
        <time>2018-06-12T07:46:22Z</time>
      </trkpt>
      <trkpt lat="42.314021" lon="1.287312">
        <ele>963.3</ele>
        <time>2018-06-12T07:46:25Z</time>
      </trkpt>
      <trkpt lat="42.313978" lon="1.287328">
        <ele>963.7</ele>
        <time>2018-06-12T07:46:26Z</time>
      </trkpt>
      <trkpt lat="42.313923" lon="1.287359">
        <ele>964.1</ele>
        <time>2018-06-12T07:46:28Z</time>
      </trkpt>
      <trkpt lat="42.313879" lon="1.287382">
        <ele>964.1</ele>
        <time>2018-06-12T07:46:29Z</time>
      </trkpt>
      <trkpt lat="42.313829" lon="1.287382">
        <ele>964.6</ele>
        <time>2018-06-12T07:46:30Z</time>
      </trkpt>
      <trkpt lat="42.313730" lon="1.287353">
        <ele>966.1</ele>
        <time>2018-06-12T07:46:33Z</time>
      </trkpt>
      <trkpt lat="42.313674" lon="1.287301">
        <ele>967.0</ele>
        <time>2018-06-12T07:46:35Z</time>
      </trkpt>
      <trkpt lat="42.313575" lon="1.287174">
        <ele>968.9</ele>
        <time>2018-06-12T07:46:38Z</time>
      </trkpt>
      <trkpt lat="42.313498" lon="1.287063">
        <ele>970.1</ele>
        <time>2018-06-12T07:46:41Z</time>
      </trkpt>
      <trkpt lat="42.313455" lon="1.287005">
        <ele>969.5</ele>
        <time>2018-06-12T07:46:43Z</time>
      </trkpt>
      <trkpt lat="42.313417" lon="1.286879">
        <ele>968.6</ele>
        <time>2018-06-12T07:46:46Z</time>
      </trkpt>
      <trkpt lat="42.313388" lon="1.286790">
        <ele>967.9</ele>
        <time>2018-06-12T07:46:48Z</time>
      </trkpt>
      <trkpt lat="42.313384" lon="1.286687">
        <ele>967.9</ele>
        <time>2018-06-12T07:46:50Z</time>
      </trkpt>
      <trkpt lat="42.313385" lon="1.286584">
        <ele>968.1</ele>
        <time>2018-06-12T07:46:52Z</time>
      </trkpt>
      <trkpt lat="42.313408" lon="1.286358">
        <ele>970.9</ele>
        <time>2018-06-12T07:46:56Z</time>
      </trkpt>
      <trkpt lat="42.313447" lon="1.286072">
        <ele>976.0</ele>
        <time>2018-06-12T07:47:02Z</time>
      </trkpt>
      <trkpt lat="42.313502" lon="1.285709">
        <ele>982.3</ele>
        <time>2018-06-12T07:47:09Z</time>
      </trkpt>
      <trkpt lat="42.313561" lon="1.285489">
        <ele>985.2</ele>
        <time>2018-06-12T07:47:14Z</time>
      </trkpt>
      <trkpt lat="42.313601" lon="1.285352">
        <ele>986.6</ele>
        <time>2018-06-12T07:47:17Z</time>
      </trkpt>
      <trkpt lat="42.313683" lon="1.285148">
        <ele>988.0</ele>
        <time>2018-06-12T07:47:21Z</time>
      </trkpt>
      <trkpt lat="42.313732" lon="1.285011">
        <ele>991.1</ele>
        <time>2018-06-12T07:47:24Z</time>
      </trkpt>
      <trkpt lat="42.313748" lon="1.284900">
        <ele>994.7</ele>
        <time>2018-06-12T07:47:27Z</time>
      </trkpt>
      <trkpt lat="42.313759" lon="1.284769">
        <ele>996.9</ele>
        <time>2018-06-12T07:47:29Z</time>
      </trkpt>
      <trkpt lat="42.313748" lon="1.284602">
        <ele>999.8</ele>
        <time>2018-06-12T07:47:33Z</time>
      </trkpt>
      <trkpt lat="42.313716" lon="1.284496">
        <ele>1001.3</ele>
        <time>2018-06-12T07:47:35Z</time>
      </trkpt>
      <trkpt lat="42.313706" lon="1.284397">
        <ele>1002.0</ele>
        <time>2018-06-12T07:47:37Z</time>
      </trkpt>
      <trkpt lat="42.313679" lon="1.284299">
        <ele>1003.3</ele>
        <time>2018-06-12T07:47:39Z</time>
      </trkpt>
      <trkpt lat="42.313696" lon="1.284200">
        <ele>1003.2</ele>
        <time>2018-06-12T07:47:41Z</time>
      </trkpt>
      <trkpt lat="42.313744" lon="1.284128">
        <ele>1001.8</ele>
        <time>2018-06-12T07:47:43Z</time>
      </trkpt>
      <trkpt lat="42.313809" lon="1.284040">
        <ele>1000.6</ele>
        <time>2018-06-12T07:47:45Z</time>
      </trkpt>
      <trkpt lat="42.313997" lon="1.283867">
        <ele>996.3</ele>
        <time>2018-06-12T07:47:51Z</time>
      </trkpt>
      <trkpt lat="42.314395" lon="1.283534">
        <ele>992.9</ele>
        <time>2018-06-12T07:48:04Z</time>
      </trkpt>
      <trkpt lat="42.314505" lon="1.283400">
        <ele>995.5</ele>
        <time>2018-06-12T07:48:08Z</time>
      </trkpt>
      <trkpt lat="42.314561" lon="1.283276">
        <ele>1000.9</ele>
        <time>2018-06-12T07:48:11Z</time>
      </trkpt>
      <trkpt lat="42.314825" lon="1.282570">
        <ele>1008.1</ele>
        <time>2018-06-12T07:48:26Z</time>
      </trkpt>
      <trkpt lat="42.314895" lon="1.282522">
        <ele>1004.9</ele>
        <time>2018-06-12T07:48:28Z</time>
      </trkpt>
      <trkpt lat="42.314962" lon="1.282474">
        <ele>1001.4</ele>
        <time>2018-06-12T07:48:31Z</time>
      </trkpt>
      <trkpt lat="42.315041" lon="1.282346">
        <ele>998.0</ele>
        <time>2018-06-12T07:48:34Z</time>
      </trkpt>
      <trkpt lat="42.315116" lon="1.282154">
        <ele>998.4</ele>
        <time>2018-06-12T07:48:38Z</time>
      </trkpt>
      <trkpt lat="42.315175" lon="1.281947">
        <ele>1000.6</ele>
        <time>2018-06-12T07:48:42Z</time>
      </trkpt>
      <trkpt lat="42.315214" lon="1.281777">
        <ele>1002.0</ele>
        <time>2018-06-12T07:48:46Z</time>
      </trkpt>
      <trkpt lat="42.315229" lon="1.281513">
        <ele>1004.1</ele>
        <time>2018-06-12T07:48:51Z</time>
      </trkpt>
      <trkpt lat="42.315246" lon="1.281294">
        <ele>1007.5</ele>
        <time>2018-06-12T07:48:56Z</time>
      </trkpt>
      <trkpt lat="42.315296" lon="1.280971">
        <ele>1010.4</ele>
        <time>2018-06-12T07:49:02Z</time>
      </trkpt>
      <trkpt lat="42.315337" lon="1.280647">
        <ele>1012.8</ele>
        <time>2018-06-12T07:49:08Z</time>
      </trkpt>
      <trkpt lat="42.315327" lon="1.280580">
        <ele>1013.9</ele>
        <time>2018-06-12T07:49:10Z</time>
      </trkpt>
      <trkpt lat="42.315296" lon="1.280532">
        <ele>1015.5</ele>
        <time>2018-06-12T07:49:11Z</time>
      </trkpt>
      <trkpt lat="42.315265" lon="1.280515">
        <ele>1016.7</ele>
        <time>2018-06-12T07:49:12Z</time>
      </trkpt>
      <trkpt lat="42.315214" lon="1.280326">
        <ele>1020.7</ele>
        <time>2018-06-12T07:49:16Z</time>
      </trkpt>
      <trkpt lat="42.315160" lon="1.280012">
        <ele>1025.6</ele>
        <time>2018-06-12T07:49:22Z</time>
      </trkpt>
      <trkpt lat="42.315020" lon="1.279718">
        <ele>1030.3</ele>
        <time>2018-06-12T07:49:29Z</time>
      </trkpt>
      <trkpt lat="42.314815" lon="1.279251">
        <ele>1036.1</ele>
        <time>2018-06-12T07:49:40Z</time>
      </trkpt>
      <trkpt lat="42.314800" lon="1.279172">
        <ele>1036.9</ele>
        <time>2018-06-12T07:49:42Z</time>
      </trkpt>
      <trkpt lat="42.315115" lon="1.278848">
        <ele>1025.8</ele>
        <time>2018-06-12T07:49:52Z</time>
      </trkpt>
      <trkpt lat="42.315201" lon="1.278665">
        <ele>1023.3</ele>
        <time>2018-06-12T07:49:57Z</time>
      </trkpt>
      <trkpt lat="42.315255" lon="1.278529">
        <ele>1022.4</ele>
        <time>2018-06-12T07:50:00Z</time>
      </trkpt>
      <trkpt lat="42.315257" lon="1.278401">
        <ele>1025.1</ele>
        <time>2018-06-12T07:50:02Z</time>
      </trkpt>
      <trkpt lat="42.315264" lon="1.278231">
        <ele>1029.5</ele>
        <time>2018-06-12T07:50:06Z</time>
      </trkpt>
      <trkpt lat="42.315377" lon="1.277986">
        <ele>1028.9</ele>
        <time>2018-06-12T07:50:11Z</time>
      </trkpt>
      <trkpt lat="42.315390" lon="1.277912">
        <ele>1029.4</ele>
        <time>2018-06-12T07:50:13Z</time>
      </trkpt>
      <trkpt lat="42.315378" lon="1.277767">
        <ele>1031.5</ele>
        <time>2018-06-12T07:50:16Z</time>
      </trkpt>
      <trkpt lat="42.315222" lon="1.277237">
        <ele>1045.2</ele>
        <time>2018-06-12T07:50:27Z</time>
      </trkpt>
      <trkpt lat="42.315256" lon="1.277091">
        <ele>1044.2</ele>
        <time>2018-06-12T07:50:30Z</time>
      </trkpt>
      <trkpt lat="42.315326" lon="1.276974">
        <ele>1043.1</ele>
        <time>2018-06-12T07:50:33Z</time>
      </trkpt>
      <trkpt lat="42.315764" lon="1.276762">
        <ele>1037.3</ele>
        <time>2018-06-12T07:50:45Z</time>
      </trkpt>
      <trkpt lat="42.315855" lon="1.276681">
        <ele>1035.4</ele>
        <time>2018-06-12T07:50:48Z</time>
      </trkpt>
      <trkpt lat="42.315933" lon="1.276593">
        <ele>1034.2</ele>
        <time>2018-06-12T07:50:51Z</time>
      </trkpt>
      <trkpt lat="42.315981" lon="1.276483">
        <ele>1033.3</ele>
        <time>2018-06-12T07:50:54Z</time>
      </trkpt>
      <trkpt lat="42.316100" lon="1.276043">
        <ele>1028.7</ele>
        <time>2018-06-12T07:51:03Z</time>
      </trkpt>
      <trkpt lat="42.316200" lon="1.275791">
        <ele>1029.4</ele>
        <time>2018-06-12T07:51:08Z</time>
      </trkpt>
      <trkpt lat="42.316274" lon="1.275649">
        <ele>1030.6</ele>
        <time>2018-06-12T07:51:12Z</time>
      </trkpt>
      <trkpt lat="42.316323" lon="1.275606">
        <ele>1030.5</ele>
        <time>2018-06-12T07:51:13Z</time>
      </trkpt>
      <trkpt lat="42.316403" lon="1.275543">
        <ele>1030.3</ele>
        <time>2018-06-12T07:51:16Z</time>
      </trkpt>
      <trkpt lat="42.316443" lon="1.275463">
        <ele>1031.6</ele>
        <time>2018-06-12T07:51:18Z</time>
      </trkpt>
      <trkpt lat="42.316464" lon="1.275383">
        <ele>1033.5</ele>
        <time>2018-06-12T07:51:19Z</time>
      </trkpt>
      <trkpt lat="42.316573" lon="1.274579">
        <ele>1043.6</ele>
        <time>2018-06-12T07:51:35Z</time>
      </trkpt>
      <trkpt lat="42.316571" lon="1.274446">
        <ele>1042.3</ele>
        <time>2018-06-12T07:51:38Z</time>
      </trkpt>
      <trkpt lat="42.316548" lon="1.274356">
        <ele>1042.0</ele>
        <time>2018-06-12T07:51:40Z</time>
      </trkpt>
      <trkpt lat="42.316373" lon="1.273863">
        <ele>1054.3</ele>
        <time>2018-06-12T07:51:51Z</time>
      </trkpt>
      <trkpt lat="42.316349" lon="1.273730">
        <ele>1056.0</ele>
        <time>2018-06-12T07:51:54Z</time>
      </trkpt>
      <trkpt lat="42.316387" lon="1.273583">
        <ele>1054.3</ele>
        <time>2018-06-12T07:51:57Z</time>
      </trkpt>
      <trkpt lat="42.316614" lon="1.273086">
        <ele>1052.2</ele>
        <time>2018-06-12T07:52:08Z</time>
      </trkpt>
      <trkpt lat="42.316629" lon="1.273020">
        <ele>1053.1</ele>
        <time>2018-06-12T07:52:09Z</time>
      </trkpt>
      <trkpt lat="42.316663" lon="1.272733">
        <ele>1061.6</ele>
        <time>2018-06-12T07:52:15Z</time>
      </trkpt>
      <trkpt lat="42.316695" lon="1.272654">
        <ele>1063.5</ele>
        <time>2018-06-12T07:52:17Z</time>
      </trkpt>
      <trkpt lat="42.316996" lon="1.272438">
        <ele>1059.7</ele>
        <time>2018-06-12T07:52:26Z</time>
      </trkpt>
      <trkpt lat="42.317069" lon="1.272352">
        <ele>1059.7</ele>
        <time>2018-06-12T07:52:29Z</time>
      </trkpt>
      <trkpt lat="42.317101" lon="1.272253">
        <ele>1061.2</ele>
        <time>2018-06-12T07:52:31Z</time>
      </trkpt>
      <trkpt lat="42.317152" lon="1.271997">
        <ele>1066.7</ele>
        <time>2018-06-12T07:52:36Z</time>
      </trkpt>
      <trkpt lat="42.317170" lon="1.271889">
        <ele>1069.0</ele>
        <time>2018-06-12T07:52:39Z</time>
      </trkpt>
      <trkpt lat="42.317183" lon="1.271687">
        <ele>1071.7</ele>
        <time>2018-06-12T07:52:43Z</time>
      </trkpt>
      <trkpt lat="42.317167" lon="1.271524">
        <ele>1073.3</ele>
        <time>2018-06-12T07:52:46Z</time>
      </trkpt>
      <trkpt lat="42.316962" lon="1.271092">
        <ele>1082.0</ele>
        <time>2018-06-12T07:52:56Z</time>
      </trkpt>
      <trkpt lat="42.316982" lon="1.270916">
        <ele>1082.7</ele>
        <time>2018-06-12T07:52:59Z</time>
      </trkpt>
      <trkpt lat="42.316910" lon="1.270358">
        <ele>1081.6</ele>
        <time>2018-06-12T07:53:10Z</time>
      </trkpt>
      <trkpt lat="42.317018" lon="1.270107">
        <ele>1081.0</ele>
        <time>2018-06-12T07:53:16Z</time>
      </trkpt>
      <trkpt lat="42.317133" lon="1.269916">
        <ele>1079.6</ele>
        <time>2018-06-12T07:53:21Z</time>
      </trkpt>
      <trkpt lat="42.317268" lon="1.269596">
        <ele>1079.2</ele>
        <time>2018-06-12T07:53:28Z</time>
      </trkpt>
      <trkpt lat="42.317446" lon="1.269179">
        <ele>1082.9</ele>
        <time>2018-06-12T07:53:38Z</time>
      </trkpt>
      <trkpt lat="42.317436" lon="1.269094">
        <ele>1084.5</ele>
        <time>2018-06-12T07:53:39Z</time>
      </trkpt>
      <trkpt lat="42.317416" lon="1.269022">
        <ele>1085.8</ele>
        <time>2018-06-12T07:53:41Z</time>
      </trkpt>
      <trkpt lat="42.317365" lon="1.268920">
        <ele>1086.0</ele>
        <time>2018-06-12T07:53:43Z</time>
      </trkpt>
      <trkpt lat="42.317002" lon="1.268099">
        <ele>1094.1</ele>
        <time>2018-06-12T07:54:02Z</time>
      </trkpt>
      <trkpt lat="42.316781" lon="1.267814">
        <ele>1100.2</ele>
        <time>2018-06-12T07:54:10Z</time>
      </trkpt>
      <trkpt lat="42.316667" lon="1.267380">
        <ele>1104.1</ele>
        <time>2018-06-12T07:54:19Z</time>
      </trkpt>
      <trkpt lat="42.316604" lon="1.267418">
        <ele>1107.1</ele>
        <time>2018-06-12T07:54:21Z</time>
      </trkpt>
      <trkpt lat="42.316597" lon="1.267564">
        <ele>1108.5</ele>
        <time>2018-06-12T07:54:24Z</time>
      </trkpt>
      <trkpt lat="42.316639" lon="1.267915">
        <ele>1109.0</ele>
        <time>2018-06-12T07:54:31Z</time>
      </trkpt>
      <trkpt lat="42.316835" lon="1.268522">
        <ele>1097.8</ele>
        <time>2018-06-12T07:54:44Z</time>
      </trkpt>
      <trkpt lat="42.316867" lon="1.268697">
        <ele>1095.6</ele>
        <time>2018-06-12T07:54:48Z</time>
      </trkpt>
      <trkpt lat="42.316608" lon="1.268862">
        <ele>1107.6</ele>
        <time>2018-06-12T07:54:56Z</time>
      </trkpt>
      <trkpt lat="42.316612" lon="1.269153">
        <ele>1107.2</ele>
        <time>2018-06-12T07:55:01Z</time>
      </trkpt>
      <trkpt lat="42.316641" lon="1.269461">
        <ele>1105.0</ele>
        <time>2018-06-12T07:55:07Z</time>
      </trkpt>
      <trkpt lat="42.316620" lon="1.269651">
        <ele>1103.0</ele>
        <time>2018-06-12T07:55:11Z</time>
      </trkpt>
      <trkpt lat="42.316316" lon="1.269792">
        <ele>1107.3</ele>
        <time>2018-06-12T07:55:20Z</time>
      </trkpt>
      <trkpt lat="42.316199" lon="1.269796">
        <ele>1110.3</ele>
        <time>2018-06-12T07:55:23Z</time>
      </trkpt>
      <trkpt lat="42.315931" lon="1.270009">
        <ele>1114.5</ele>
        <time>2018-06-12T07:55:31Z</time>
      </trkpt>
      <trkpt lat="42.315709" lon="1.270185">
        <ele>1121.7</ele>
        <time>2018-06-12T07:55:38Z</time>
      </trkpt>
      <trkpt lat="42.315622" lon="1.270406">
        <ele>1126.0</ele>
        <time>2018-06-12T07:55:43Z</time>
      </trkpt>
      <trkpt lat="42.315817" lon="1.270984">
        <ele>1113.2</ele>
        <time>2018-06-12T07:55:56Z</time>
      </trkpt>
      <trkpt lat="42.315756" lon="1.271156">
        <ele>1115.1</ele>
        <time>2018-06-12T07:55:59Z</time>
      </trkpt>
      <trkpt lat="42.315579" lon="1.271355">
        <ele>1123.3</ele>
        <time>2018-06-12T07:56:06Z</time>
      </trkpt>
      <trkpt lat="42.315012" lon="1.271652">
        <ele>1144.7</ele>
        <time>2018-06-12T07:56:23Z</time>
      </trkpt>
      <trkpt lat="42.314858" lon="1.271896">
        <ele>1146.5</ele>
        <time>2018-06-12T07:56:29Z</time>
      </trkpt>
      <trkpt lat="42.314762" lon="1.272117">
        <ele>1143.8</ele>
        <time>2018-06-12T07:56:34Z</time>
      </trkpt>
      <trkpt lat="42.314496" lon="1.272404">
        <ele>1149.4</ele>
        <time>2018-06-12T07:56:43Z</time>
      </trkpt>
      <trkpt lat="42.314419" lon="1.272673">
        <ele>1147.9</ele>
        <time>2018-06-12T07:56:49Z</time>
      </trkpt>
      <trkpt lat="42.314279" lon="1.272980">
        <ele>1150.5</ele>
        <time>2018-06-12T07:56:56Z</time>
      </trkpt>
      <trkpt lat="42.314265" lon="1.273211">
        <ele>1147.0</ele>
        <time>2018-06-12T07:57:00Z</time>
      </trkpt>
      <trkpt lat="42.314367" lon="1.273402">
        <ele>1142.8</ele>
        <time>2018-06-12T07:57:05Z</time>
      </trkpt>
      <trkpt lat="42.314389" lon="1.273668">
        <ele>1142.6</ele>
        <time>2018-06-12T07:57:10Z</time>
      </trkpt>
      <trkpt lat="42.314349" lon="1.274034">
        <ele>1144.4</ele>
        <time>2018-06-12T07:57:17Z</time>
      </trkpt>
      <trkpt lat="42.314226" lon="1.274195">
        <ele>1146.8</ele>
        <time>2018-06-12T07:57:22Z</time>
      </trkpt>
      <trkpt lat="42.313972" lon="1.274687">
        <ele>1144.6</ele>
        <time>2018-06-12T07:57:34Z</time>
      </trkpt>
      <trkpt lat="42.313701" lon="1.275265">
        <ele>1136.6</ele>
        <time>2018-06-12T07:57:47Z</time>
      </trkpt>
      <trkpt lat="42.313481" lon="1.275801">
        <ele>1141.0</ele>
        <time>2018-06-12T07:57:59Z</time>
      </trkpt>
      <trkpt lat="42.313460" lon="1.275975">
        <ele>1140.2</ele>
        <time>2018-06-12T07:58:03Z</time>
      </trkpt>
      <trkpt lat="42.313455" lon="1.276356">
        <ele>1136.8</ele>
        <time>2018-06-12T07:58:10Z</time>
      </trkpt>
      <trkpt lat="42.313431" lon="1.276508">
        <ele>1135.3</ele>
        <time>2018-06-12T07:58:13Z</time>
      </trkpt>
      <trkpt lat="42.313299" lon="1.276659">
        <ele>1137.2</ele>
        <time>2018-06-12T07:58:18Z</time>
      </trkpt>
      <trkpt lat="42.313158" lon="1.276671">
        <ele>1140.4</ele>
        <time>2018-06-12T07:58:21Z</time>
      </trkpt>
      <trkpt lat="42.312921" lon="1.276669">
        <ele>1142.9</ele>
        <time>2018-06-12T07:58:28Z</time>
      </trkpt>
      <trkpt lat="42.312796" lon="1.276746">
        <ele>1144.4</ele>
        <time>2018-06-12T07:58:31Z</time>
      </trkpt>
      <trkpt lat="42.312690" lon="1.276882">
        <ele>1146.6</ele>
        <time>2018-06-12T07:58:35Z</time>
      </trkpt>
      <trkpt lat="42.312585" lon="1.277091">
        <ele>1149.6</ele>
        <time>2018-06-12T07:58:40Z</time>
      </trkpt>
      <trkpt lat="42.312495" lon="1.277163">
        <ele>1151.0</ele>
        <time>2018-06-12T07:58:43Z</time>
      </trkpt>
      <trkpt lat="42.312401" lon="1.277201">
        <ele>1152.3</ele>
        <time>2018-06-12T07:58:46Z</time>
      </trkpt>
      <trkpt lat="42.312326" lon="1.277326">
        <ele>1154.5</ele>
        <time>2018-06-12T07:58:49Z</time>
      </trkpt>
      <trkpt lat="42.312081" lon="1.278901">
        <ele>1154.6</ele>
        <time>2018-06-12T07:59:20Z</time>
      </trkpt>
      <trkpt lat="42.311927" lon="1.279731">
        <ele>1159.2</ele>
        <time>2018-06-12T07:59:37Z</time>
      </trkpt>
      <trkpt lat="42.311650" lon="1.280268">
        <ele>1163.6</ele>
        <time>2018-06-12T07:59:50Z</time>
      </trkpt>
      <trkpt lat="42.311585" lon="1.280524">
        <ele>1164.3</ele>
        <time>2018-06-12T07:59:55Z</time>
      </trkpt>
      <trkpt lat="42.311573" lon="1.280921">
        <ele>1160.6</ele>
        <time>2018-06-12T08:00:03Z</time>
      </trkpt>
      <trkpt lat="42.311533" lon="1.281162">
        <ele>1157.7</ele>
        <time>2018-06-12T08:00:07Z</time>
      </trkpt>
      <trkpt lat="42.311375" lon="1.281482">
        <ele>1152.4</ele>
        <time>2018-06-12T08:00:15Z</time>
      </trkpt>
      <trkpt lat="42.311260" lon="1.281606">
        <ele>1150.3</ele>
        <time>2018-06-12T08:00:19Z</time>
      </trkpt>
      <trkpt lat="42.311084" lon="1.281639">
        <ele>1153.0</ele>
        <time>2018-06-12T08:00:24Z</time>
      </trkpt>
      <trkpt lat="42.310696" lon="1.281562">
        <ele>1158.4</ele>
        <time>2018-06-12T08:00:34Z</time>
      </trkpt>
      <trkpt lat="42.310485" lon="1.281579">
        <ele>1161.4</ele>
        <time>2018-06-12T08:00:40Z</time>
      </trkpt>
      <trkpt lat="42.310234" lon="1.281646">
        <ele>1163.0</ele>
        <time>2018-06-12T08:00:46Z</time>
      </trkpt>
      <trkpt lat="42.310107" lon="1.281633">
        <ele>1163.1</ele>
        <time>2018-06-12T08:00:50Z</time>
      </trkpt>
      <trkpt lat="42.309850" lon="1.281305">
        <ele>1163.4</ele>
        <time>2018-06-12T08:00:59Z</time>
      </trkpt>
      <trkpt lat="42.309752" lon="1.281223">
        <ele>1169.9</ele>
        <time>2018-06-12T08:01:03Z</time>
      </trkpt>
      <trkpt lat="42.309657" lon="1.281168">
        <ele>1176.1</ele>
        <time>2018-06-12T08:01:06Z</time>
      </trkpt>
      <trkpt lat="42.309570" lon="1.281192">
        <ele>1178.7</ele>
        <time>2018-06-12T08:01:08Z</time>
      </trkpt>
      <trkpt lat="42.309383" lon="1.281390">
        <ele>1179.8</ele>
        <time>2018-06-12T08:01:14Z</time>
      </trkpt>
      <trkpt lat="42.308977" lon="1.282004">
        <ele>1191.6</ele>
        <time>2018-06-12T08:01:31Z</time>
      </trkpt>
      <trkpt lat="42.308913" lon="1.282068">
        <ele>1191.5</ele>
        <time>2018-06-12T08:01:33Z</time>
      </trkpt>
      <trkpt lat="42.308885" lon="1.282048">
        <ele>1192.5</ele>
        <time>2018-06-12T08:01:34Z</time>
      </trkpt>
      <trkpt lat="42.308880" lon="1.281983">
        <ele>1194.4</ele>
        <time>2018-06-12T08:01:35Z</time>
      </trkpt>
      <trkpt lat="42.308959" lon="1.281839">
        <ele>1195.7</ele>
        <time>2018-06-12T08:01:38Z</time>
      </trkpt>
      <trkpt lat="42.309330" lon="1.280768">
        <ele>1193.6</ele>
        <time>2018-06-12T08:02:01Z</time>
      </trkpt>
      <trkpt lat="42.309420" lon="1.280512">
        <ele>1192.5</ele>
        <time>2018-06-12T08:02:07Z</time>
      </trkpt>
      <trkpt lat="42.309609" lon="1.280261">
        <ele>1194.7</ele>
        <time>2018-06-12T08:02:14Z</time>
      </trkpt>
      <trkpt lat="42.309709" lon="1.280065">
        <ele>1198.9</ele>
        <time>2018-06-12T08:02:19Z</time>
      </trkpt>
      <trkpt lat="42.309893" lon="1.279893">
        <ele>1201.8</ele>
        <time>2018-06-12T08:02:25Z</time>
      </trkpt>
      <trkpt lat="42.310044" lon="1.279715">
        <ele>1203.1</ele>
        <time>2018-06-12T08:02:30Z</time>
      </trkpt>
      <trkpt lat="42.310112" lon="1.279520">
        <ele>1204.5</ele>
        <time>2018-06-12T08:02:34Z</time>
      </trkpt>
      <trkpt lat="42.310086" lon="1.279315">
        <ele>1205.5</ele>
        <time>2018-06-12T08:02:38Z</time>
      </trkpt>
      <trkpt lat="42.309978" lon="1.278983">
        <ele>1206.0</ele>
        <time>2018-06-12T08:02:45Z</time>
      </trkpt>
      <trkpt lat="42.309956" lon="1.278753">
        <ele>1205.0</ele>
        <time>2018-06-12T08:02:50Z</time>
      </trkpt>
      <trkpt lat="42.309825" lon="1.278405">
        <ele>1204.6</ele>
        <time>2018-06-12T08:02:57Z</time>
      </trkpt>
      <trkpt lat="42.309620" lon="1.278007">
        <ele>1212.7</ele>
        <time>2018-06-12T08:03:07Z</time>
      </trkpt>
      <trkpt lat="42.309588" lon="1.277859">
        <ele>1215.7</ele>
        <time>2018-06-12T08:03:10Z</time>
      </trkpt>
      <trkpt lat="42.309596" lon="1.277721">
        <ele>1217.5</ele>
        <time>2018-06-12T08:03:13Z</time>
      </trkpt>
      <trkpt lat="42.309652" lon="1.277657">
        <ele>1217.0</ele>
        <time>2018-06-12T08:03:15Z</time>
      </trkpt>
      <trkpt lat="42.309756" lon="1.277475">
        <ele>1217.6</ele>
        <time>2018-06-12T08:03:19Z</time>
      </trkpt>
      <trkpt lat="42.309839" lon="1.277381">
        <ele>1217.2</ele>
        <time>2018-06-12T08:03:22Z</time>
      </trkpt>
      <trkpt lat="42.309896" lon="1.277321">
        <ele>1218.9</ele>
        <time>2018-06-12T08:03:24Z</time>
      </trkpt>
      <trkpt lat="42.309947" lon="1.277225">
        <ele>1223.2</ele>
        <time>2018-06-12T08:03:27Z</time>
      </trkpt>
      <trkpt lat="42.309932" lon="1.277152">
        <ele>1226.0</ele>
        <time>2018-06-12T08:03:28Z</time>
      </trkpt>
      <trkpt lat="42.309869" lon="1.277131">
        <ele>1226.2</ele>
        <time>2018-06-12T08:03:30Z</time>
      </trkpt>
      <trkpt lat="42.309799" lon="1.277158">
        <ele>1226.5</ele>
        <time>2018-06-12T08:03:32Z</time>
      </trkpt>
      <trkpt lat="42.309602" lon="1.277355">
        <ele>1223.8</ele>
        <time>2018-06-12T08:03:38Z</time>
      </trkpt>
      <trkpt lat="42.309245" lon="1.277584">
        <ele>1231.7</ele>
        <time>2018-06-12T08:03:49Z</time>
      </trkpt>
      <trkpt lat="42.309148" lon="1.277879">
        <ele>1234.7</ele>
        <time>2018-06-12T08:03:55Z</time>
      </trkpt>
      <trkpt lat="42.308915" lon="1.278418">
        <ele>1244.3</ele>
        <time>2018-06-12T08:04:08Z</time>
      </trkpt>
      <trkpt lat="42.308608" lon="1.278827">
        <ele>1260.7</ele>
        <time>2018-06-12T08:04:20Z</time>
      </trkpt>
      <trkpt lat="42.308571" lon="1.278789">
        <ele>1264.5</ele>
        <time>2018-06-12T08:04:21Z</time>
      </trkpt>
      <trkpt lat="42.308569" lon="1.278731">
        <ele>1266.0</ele>
        <time>2018-06-12T08:04:22Z</time>
      </trkpt>
      <trkpt lat="42.308603" lon="1.278620">
        <ele>1265.2</ele>
        <time>2018-06-12T08:04:25Z</time>
      </trkpt>
      <trkpt lat="42.308715" lon="1.278337">
        <ele>1261.7</ele>
        <time>2018-06-12T08:04:31Z</time>
      </trkpt>
      <trkpt lat="42.308734" lon="1.278189">
        <ele>1262.9</ele>
        <time>2018-06-12T08:04:34Z</time>
      </trkpt>
      <trkpt lat="42.308811" lon="1.277756">
        <ele>1256.8</ele>
        <time>2018-06-12T08:04:43Z</time>
      </trkpt>
      <trkpt lat="42.308822" lon="1.277515">
        <ele>1256.5</ele>
        <time>2018-06-12T08:04:47Z</time>
      </trkpt>
      <trkpt lat="42.308824" lon="1.277270">
        <ele>1257.9</ele>
        <time>2018-06-12T08:04:52Z</time>
      </trkpt>
      <trkpt lat="42.308865" lon="1.277073">
        <ele>1258.1</ele>
        <time>2018-06-12T08:04:56Z</time>
      </trkpt>
      <trkpt lat="42.308873" lon="1.276860">
        <ele>1258.4</ele>
        <time>2018-06-12T08:05:00Z</time>
      </trkpt>
      <trkpt lat="42.308848" lon="1.276681">
        <ele>1260.1</ele>
        <time>2018-06-12T08:05:04Z</time>
      </trkpt>
      <trkpt lat="42.308783" lon="1.276516">
        <ele>1263.0</ele>
        <time>2018-06-12T08:05:08Z</time>
      </trkpt>
      <trkpt lat="42.308749" lon="1.276308">
        <ele>1265.6</ele>
        <time>2018-06-12T08:05:12Z</time>
      </trkpt>
      <trkpt lat="42.308722" lon="1.275897">
        <ele>1272.7</ele>
        <time>2018-06-12T08:05:20Z</time>
      </trkpt>
      <trkpt lat="42.308747" lon="1.275777">
        <ele>1273.9</ele>
        <time>2018-06-12T08:05:22Z</time>
      </trkpt>
      <trkpt lat="42.308828" lon="1.275666">
        <ele>1271.1</ele>
        <time>2018-06-12T08:05:26Z</time>
      </trkpt>
      <trkpt lat="42.308874" lon="1.275551">
        <ele>1269.0</ele>
        <time>2018-06-12T08:05:28Z</time>
      </trkpt>
      <trkpt lat="42.308885" lon="1.275406">
        <ele>1268.7</ele>
        <time>2018-06-12T08:05:31Z</time>
      </trkpt>
      <trkpt lat="42.308842" lon="1.275293">
        <ele>1270.7</ele>
        <time>2018-06-12T08:05:34Z</time>
      </trkpt>
      <trkpt lat="42.308714" lon="1.275185">
        <ele>1274.4</ele>
        <time>2018-06-12T08:05:38Z</time>
      </trkpt>
      <trkpt lat="42.308673" lon="1.275075">
        <ele>1274.5</ele>
        <time>2018-06-12T08:05:40Z</time>
      </trkpt>
      <trkpt lat="42.308676" lon="1.274994">
        <ele>1274.3</ele>
        <time>2018-06-12T08:05:42Z</time>
      </trkpt>
      <trkpt lat="42.308738" lon="1.274902">
        <ele>1273.3</ele>
        <time>2018-06-12T08:05:44Z</time>
      </trkpt>
      <trkpt lat="42.308790" lon="1.274834">
        <ele>1272.1</ele>
        <time>2018-06-12T08:05:46Z</time>
      </trkpt>
      <trkpt lat="42.308820" lon="1.274528">
        <ele>1272.4</ele>
        <time>2018-06-12T08:05:52Z</time>
      </trkpt>
      <trkpt lat="42.308596" lon="1.273961">
        <ele>1281.1</ele>
        <time>2018-06-12T08:06:05Z</time>
      </trkpt>
      <trkpt lat="42.308564" lon="1.273826">
        <ele>1281.7</ele>
        <time>2018-06-12T08:06:07Z</time>
      </trkpt>
      <trkpt lat="42.308577" lon="1.273610">
        <ele>1281.5</ele>
        <time>2018-06-12T08:06:12Z</time>
      </trkpt>
      <trkpt lat="42.308671" lon="1.273375">
        <ele>1278.5</ele>
        <time>2018-06-12T08:06:17Z</time>
      </trkpt>
      <trkpt lat="42.308773" lon="1.273168">
        <ele>1274.5</ele>
        <time>2018-06-12T08:06:22Z</time>
      </trkpt>
      <trkpt lat="42.308818" lon="1.273022">
        <ele>1273.9</ele>
        <time>2018-06-12T08:06:25Z</time>
      </trkpt>
      <trkpt lat="42.308820" lon="1.272908">
        <ele>1274.5</ele>
        <time>2018-06-12T08:06:27Z</time>
      </trkpt>
      <trkpt lat="42.308735" lon="1.272792">
        <ele>1278.6</ele>
        <time>2018-06-12T08:06:30Z</time>
      </trkpt>
      <trkpt lat="42.308689" lon="1.272672">
        <ele>1280.4</ele>
        <time>2018-06-12T08:06:33Z</time>
      </trkpt>
      <trkpt lat="42.308710" lon="1.272526">
        <ele>1279.7</ele>
        <time>2018-06-12T08:06:36Z</time>
      </trkpt>
      <trkpt lat="42.308726" lon="1.272380">
        <ele>1279.1</ele>
        <time>2018-06-12T08:06:39Z</time>
      </trkpt>
      <trkpt lat="42.308730" lon="1.272272">
        <ele>1278.9</ele>
        <time>2018-06-12T08:06:41Z</time>
      </trkpt>
      <trkpt lat="42.308797" lon="1.272124">
        <ele>1276.6</ele>
        <time>2018-06-12T08:06:44Z</time>
      </trkpt>
      <trkpt lat="42.308864" lon="1.271808">
        <ele>1277.1</ele>
        <time>2018-06-12T08:06:51Z</time>
      </trkpt>
      <trkpt lat="42.308853" lon="1.271612">
        <ele>1280.2</ele>
        <time>2018-06-12T08:06:55Z</time>
      </trkpt>
      <trkpt lat="42.308773" lon="1.271471">
        <ele>1285.0</ele>
        <time>2018-06-12T08:06:58Z</time>
      </trkpt>
      <trkpt lat="42.308713" lon="1.271332">
        <ele>1290.9</ele>
        <time>2018-06-12T08:07:02Z</time>
      </trkpt>
      <trkpt lat="42.308711" lon="1.271229">
        <ele>1293.9</ele>
        <time>2018-06-12T08:07:04Z</time>
      </trkpt>
      <trkpt lat="42.308905" lon="1.270783">
        <ele>1297.2</ele>
        <time>2018-06-12T08:07:14Z</time>
      </trkpt>
      <trkpt lat="42.308940" lon="1.270551">
        <ele>1298.4</ele>
        <time>2018-06-12T08:07:19Z</time>
      </trkpt>
      <trkpt lat="42.308958" lon="1.270345">
        <ele>1298.9</ele>
        <time>2018-06-12T08:07:23Z</time>
      </trkpt>
      <trkpt lat="42.308961" lon="1.270044">
        <ele>1299.4</ele>
        <time>2018-06-12T08:07:29Z</time>
      </trkpt>
      <trkpt lat="42.308910" lon="1.269862">
        <ele>1302.3</ele>
        <time>2018-06-12T08:07:32Z</time>
      </trkpt>
      <trkpt lat="42.308735" lon="1.269588">
        <ele>1314.8</ele>
        <time>2018-06-12T08:07:40Z</time>
      </trkpt>
      <trkpt lat="42.308656" lon="1.269386">
        <ele>1322.1</ele>
        <time>2018-06-12T08:07:45Z</time>
      </trkpt>
      <trkpt lat="42.308603" lon="1.269308">
        <ele>1326.4</ele>
        <time>2018-06-12T08:07:47Z</time>
      </trkpt>
      <trkpt lat="42.308527" lon="1.269292">
        <ele>1330.9</ele>
        <time>2018-06-12T08:07:49Z</time>
      </trkpt>
      <trkpt lat="42.308488" lon="1.269353">
        <ele>1332.2</ele>
        <time>2018-06-12T08:07:51Z</time>
      </trkpt>
      <trkpt lat="42.308453" lon="1.269522">
        <ele>1330.9</ele>
        <time>2018-06-12T08:07:54Z</time>
      </trkpt>
      <trkpt lat="42.308421" lon="1.269733">
        <ele>1329.8</ele>
        <time>2018-06-12T08:07:59Z</time>
      </trkpt>
      <trkpt lat="42.308230" lon="1.270184">
        <ele>1333.3</ele>
        <time>2018-06-12T08:08:09Z</time>
      </trkpt>
      <trkpt lat="42.307725" lon="1.270825">
        <ele>1350.3</ele>
        <time>2018-06-12T08:08:28Z</time>
      </trkpt>
      <trkpt lat="42.307618" lon="1.271197">
        <ele>1352.0</ele>
        <time>2018-06-12T08:08:35Z</time>
      </trkpt>
      <trkpt lat="42.307529" lon="1.271577">
        <ele>1347.1</ele>
        <time>2018-06-12T08:08:43Z</time>
      </trkpt>
      <trkpt lat="42.307279" lon="1.272171">
        <ele>1338.6</ele>
        <time>2018-06-12T08:08:57Z</time>
      </trkpt>
      <trkpt lat="42.306839" lon="1.272795">
        <ele>1334.7</ele>
        <time>2018-06-12T08:09:13Z</time>
      </trkpt>
      <trkpt lat="42.306705" lon="1.272968">
        <ele>1331.7</ele>
        <time>2018-06-12T08:09:18Z</time>
      </trkpt>
      <trkpt lat="42.306664" lon="1.273096">
        <ele>1328.7</ele>
        <time>2018-06-12T08:09:21Z</time>
      </trkpt>
      <trkpt lat="42.306640" lon="1.273226">
        <ele>1325.8</ele>
        <time>2018-06-12T08:09:24Z</time>
      </trkpt>
      <trkpt lat="42.306585" lon="1.273283">
        <ele>1325.7</ele>
        <time>2018-06-12T08:09:26Z</time>
      </trkpt>
      <trkpt lat="42.306450" lon="1.273384">
        <ele>1325.1</ele>
        <time>2018-06-12T08:09:30Z</time>
      </trkpt>
      <trkpt lat="42.306322" lon="1.273415">
        <ele>1324.5</ele>
        <time>2018-06-12T08:09:33Z</time>
      </trkpt>
      <trkpt lat="42.306141" lon="1.273381">
        <ele>1327.8</ele>
        <time>2018-06-12T08:09:38Z</time>
      </trkpt>
      <trkpt lat="42.305985" lon="1.273401">
        <ele>1332.4</ele>
        <time>2018-06-12T08:09:42Z</time>
      </trkpt>
      <trkpt lat="42.305608" lon="1.273509">
        <ele>1346.2</ele>
        <time>2018-06-12T08:09:53Z</time>
      </trkpt>
      <trkpt lat="42.305413" lon="1.273688">
        <ele>1356.4</ele>
        <time>2018-06-12T08:10:00Z</time>
      </trkpt>
      <trkpt lat="42.305335" lon="1.273817">
        <ele>1361.7</ele>
        <time>2018-06-12T08:10:03Z</time>
      </trkpt>
      <trkpt lat="42.305323" lon="1.273987">
        <ele>1364.0</ele>
        <time>2018-06-12T08:10:07Z</time>
      </trkpt>
      <trkpt lat="42.305365" lon="1.274110">
        <ele>1362.4</ele>
        <time>2018-06-12T08:10:09Z</time>
      </trkpt>
      <trkpt lat="42.305426" lon="1.274528">
        <ele>1362.8</ele>
        <time>2018-06-12T08:10:17Z</time>
      </trkpt>
      <trkpt lat="42.305303" lon="1.274791">
        <ele>1370.7</ele>
        <time>2018-06-12T08:10:24Z</time>
      </trkpt>
      <trkpt lat="42.305094" lon="1.275270">
        <ele>1385.5</ele>
        <time>2018-06-12T08:10:35Z</time>
      </trkpt>
      <trkpt lat="42.305055" lon="1.275449">
        <ele>1390.0</ele>
        <time>2018-06-12T08:10:39Z</time>
      </trkpt>
      <trkpt lat="42.305065" lon="1.275756">
        <ele>1388.9</ele>
        <time>2018-06-12T08:10:45Z</time>
      </trkpt>
      <trkpt lat="42.305089" lon="1.276447">
        <ele>1382.5</ele>
        <time>2018-06-12T08:10:59Z</time>
      </trkpt>
      <trkpt lat="42.305055" lon="1.276993">
        <ele>1380.7</ele>
        <time>2018-06-12T08:11:09Z</time>
      </trkpt>
      <trkpt lat="42.305017" lon="1.277175">
        <ele>1381.2</ele>
        <time>2018-06-12T08:11:13Z</time>
      </trkpt>
      <trkpt lat="42.304912" lon="1.277364">
        <ele>1383.1</ele>
        <time>2018-06-12T08:11:18Z</time>
      </trkpt>
      <trkpt lat="42.304732" lon="1.277549">
        <ele>1387.1</ele>
        <time>2018-06-12T08:11:24Z</time>
      </trkpt>
      <trkpt lat="42.304464" lon="1.277714">
        <ele>1394.1</ele>
        <time>2018-06-12T08:11:31Z</time>
      </trkpt>
      <trkpt lat="42.304322" lon="1.277811">
        <ele>1396.2</ele>
        <time>2018-06-12T08:11:36Z</time>
      </trkpt>
      <trkpt lat="42.304107" lon="1.278053">
        <ele>1393.9</ele>
        <time>2018-06-12T08:11:43Z</time>
      </trkpt>
      <trkpt lat="42.303500" lon="1.278262">
        <ele>1384.1</ele>
        <time>2018-06-12T08:12:00Z</time>
      </trkpt>
      <trkpt lat="42.303309" lon="1.278222">
        <ele>1378.8</ele>
        <time>2018-06-12T08:12:05Z</time>
      </trkpt>
      <trkpt lat="42.303051" lon="1.277859">
        <ele>1382.4</ele>
        <time>2018-06-12T08:12:15Z</time>
      </trkpt>
      <trkpt lat="42.302967" lon="1.277563">
        <ele>1391.1</ele>
        <time>2018-06-12T08:12:21Z</time>
      </trkpt>
      <trkpt lat="42.302912" lon="1.277324">
        <ele>1394.0</ele>
        <time>2018-06-12T08:12:26Z</time>
      </trkpt>
      <trkpt lat="42.302945" lon="1.277159">
        <ele>1394.7</ele>
        <time>2018-06-12T08:12:30Z</time>
      </trkpt>
      <trkpt lat="42.303098" lon="1.276931">
        <ele>1394.6</ele>
        <time>2018-06-12T08:12:36Z</time>
      </trkpt>
      <trkpt lat="42.303158" lon="1.276761">
        <ele>1393.9</ele>
        <time>2018-06-12T08:12:39Z</time>
      </trkpt>
      <trkpt lat="42.303249" lon="1.276646">
        <ele>1394.2</ele>
        <time>2018-06-12T08:12:43Z</time>
      </trkpt>
      <trkpt lat="42.303364" lon="1.276544">
        <ele>1395.0</ele>
        <time>2018-06-12T08:12:46Z</time>
      </trkpt>
      <trkpt lat="42.303437" lon="1.276504">
        <ele>1396.1</ele>
        <time>2018-06-12T08:12:48Z</time>
      </trkpt>
      <trkpt lat="42.303676" lon="1.276255">
        <ele>1407.1</ele>
        <time>2018-06-12T08:12:57Z</time>
      </trkpt>
      <trkpt lat="42.303747" lon="1.276185">
        <ele>1409.1</ele>
        <time>2018-06-12T08:12:59Z</time>
      </trkpt>
      <trkpt lat="42.303779" lon="1.276088">
        <ele>1409.9</ele>
        <time>2018-06-12T08:13:01Z</time>
      </trkpt>
      <trkpt lat="42.303765" lon="1.275906">
        <ele>1410.4</ele>
        <time>2018-06-12T08:13:05Z</time>
      </trkpt>
      <trkpt lat="42.303727" lon="1.275651">
        <ele>1410.5</ele>
        <time>2018-06-12T08:13:10Z</time>
      </trkpt>
      <trkpt lat="42.303732" lon="1.275373">
        <ele>1412.9</ele>
        <time>2018-06-12T08:13:15Z</time>
      </trkpt>
      <trkpt lat="42.303766" lon="1.274892">
        <ele>1419.2</ele>
        <time>2018-06-12T08:13:25Z</time>
      </trkpt>
      <trkpt lat="42.303759" lon="1.274589">
        <ele>1422.8</ele>
        <time>2018-06-12T08:13:31Z</time>
      </trkpt>
      <trkpt lat="42.303793" lon="1.274236">
        <ele>1423.3</ele>
        <time>2018-06-12T08:13:38Z</time>
      </trkpt>
      <trkpt lat="42.303893" lon="1.273916">
        <ele>1426.5</ele>
        <time>2018-06-12T08:13:44Z</time>
      </trkpt>
      <trkpt lat="42.303931" lon="1.273299">
        <ele>1425.9</ele>
        <time>2018-06-12T08:13:56Z</time>
      </trkpt>
      <trkpt lat="42.303973" lon="1.273099">
        <ele>1423.0</ele>
        <time>2018-06-12T08:14:01Z</time>
      </trkpt>
      <trkpt lat="42.304158" lon="1.272450">
        <ele>1427.7</ele>
        <time>2018-06-12T08:14:14Z</time>
      </trkpt>
      <trkpt lat="42.304273" lon="1.271579">
        <ele>1436.8</ele>
        <time>2018-06-12T08:14:32Z</time>
      </trkpt>
      <trkpt lat="42.304282" lon="1.271409">
        <ele>1437.9</ele>
        <time>2018-06-12T08:14:35Z</time>
      </trkpt>
      <trkpt lat="42.304288" lon="1.271239">
        <ele>1439.6</ele>
        <time>2018-06-12T08:14:38Z</time>
      </trkpt>
      <trkpt lat="42.304266" lon="1.271106">
        <ele>1441.3</ele>
        <time>2018-06-12T08:14:41Z</time>
      </trkpt>
      <trkpt lat="42.304279" lon="1.270900">
        <ele>1441.4</ele>
        <time>2018-06-12T08:14:45Z</time>
      </trkpt>
      <trkpt lat="42.304284" lon="1.270772">
        <ele>1440.3</ele>
        <time>2018-06-12T08:14:47Z</time>
      </trkpt>
      <trkpt lat="42.304178" lon="1.270573">
        <ele>1452.8</ele>
        <time>2018-06-12T08:14:53Z</time>
      </trkpt>
      <trkpt lat="42.304153" lon="1.270461">
        <ele>1459.4</ele>
        <time>2018-06-12T08:14:56Z</time>
      </trkpt>
      <trkpt lat="42.304172" lon="1.270377">
        <ele>1461.7</ele>
        <time>2018-06-12T08:14:58Z</time>
      </trkpt>
      <trkpt lat="42.304399" lon="1.269738">
        <ele>1459.8</ele>
        <time>2018-06-12T08:15:11Z</time>
      </trkpt>
      <trkpt lat="42.304530" lon="1.269356">
        <ele>1468.2</ele>
        <time>2018-06-12T08:15:20Z</time>
      </trkpt>
      <trkpt lat="42.304640" lon="1.269171">
        <ele>1468.9</ele>
        <time>2018-06-12T08:15:24Z</time>
      </trkpt>
      <trkpt lat="42.304788" lon="1.269003">
        <ele>1465.9</ele>
        <time>2018-06-12T08:15:30Z</time>
      </trkpt>
      <trkpt lat="42.304978" lon="1.268739">
        <ele>1459.1</ele>
        <time>2018-06-12T08:15:37Z</time>
      </trkpt>
      <trkpt lat="42.305096" lon="1.268544">
        <ele>1453.6</ele>
        <time>2018-06-12T08:15:42Z</time>
      </trkpt>
      <trkpt lat="42.305261" lon="1.268186">
        <ele>1458.3</ele>
        <time>2018-06-12T08:15:50Z</time>
      </trkpt>
      <trkpt lat="42.305359" lon="1.268014">
        <ele>1460.9</ele>
        <time>2018-06-12T08:15:55Z</time>
      </trkpt>
      <trkpt lat="42.305946" lon="1.267700">
        <ele>1464.6</ele>
        <time>2018-06-12T08:16:11Z</time>
      </trkpt>
      <trkpt lat="42.306101" lon="1.267348">
        <ele>1472.5</ele>
        <time>2018-06-12T08:16:19Z</time>
      </trkpt>
      <trkpt lat="42.306248" lon="1.266931">
        <ele>1480.9</ele>
        <time>2018-06-12T08:16:29Z</time>
      </trkpt>
      <trkpt lat="42.306362" lon="1.266639">
        <ele>1485.2</ele>
        <time>2018-06-12T08:16:35Z</time>
      </trkpt>
      <trkpt lat="42.306446" lon="1.266378">
        <ele>1487.8</ele>
        <time>2018-06-12T08:16:41Z</time>
      </trkpt>
      <trkpt lat="42.306401" lon="1.266153">
        <ele>1491.2</ele>
        <time>2018-06-12T08:16:45Z</time>
      </trkpt>
      <trkpt lat="42.306399" lon="1.265986">
        <ele>1492.8</ele>
        <time>2018-06-12T08:16:49Z</time>
      </trkpt>
      <trkpt lat="42.306537" lon="1.265538">
        <ele>1499.7</ele>
        <time>2018-06-12T08:16:58Z</time>
      </trkpt>
      <trkpt lat="42.306564" lon="1.265426">
        <ele>1501.7</ele>
        <time>2018-06-12T08:17:01Z</time>
      </trkpt>
      <trkpt lat="42.306498" lon="1.265427">
        <ele>1503.2</ele>
        <time>2018-06-12T08:17:02Z</time>
      </trkpt>
      <trkpt lat="42.306351" lon="1.265711">
        <ele>1497.0</ele>
        <time>2018-06-12T08:17:09Z</time>
      </trkpt>
      <trkpt lat="42.306166" lon="1.265849">
        <ele>1497.7</ele>
        <time>2018-06-12T08:17:15Z</time>
      </trkpt>
      <trkpt lat="42.306064" lon="1.265902">
        <ele>1499.2</ele>
        <time>2018-06-12T08:17:18Z</time>
      </trkpt>
      <trkpt lat="42.305986" lon="1.266119">
        <ele>1499.7</ele>
        <time>2018-06-12T08:17:22Z</time>
      </trkpt>
      <trkpt lat="42.305856" lon="1.266303">
        <ele>1507.0</ele>
        <time>2018-06-12T08:17:28Z</time>
      </trkpt>
      <trkpt lat="42.305723" lon="1.266429">
        <ele>1513.2</ele>
        <time>2018-06-12T08:17:32Z</time>
      </trkpt>
      <trkpt lat="42.305649" lon="1.266413">
        <ele>1517.1</ele>
        <time>2018-06-12T08:17:34Z</time>
      </trkpt>
      <trkpt lat="42.305625" lon="1.266300">
        <ele>1520.1</ele>
        <time>2018-06-12T08:17:37Z</time>
      </trkpt>
      <trkpt lat="42.305647" lon="1.266215">
        <ele>1520.3</ele>
        <time>2018-06-12T08:17:39Z</time>
      </trkpt>
      <trkpt lat="42.305759" lon="1.266115">
        <ele>1514.5</ele>
        <time>2018-06-12T08:17:42Z</time>
      </trkpt>
      <trkpt lat="42.305834" lon="1.265906">
        <ele>1510.6</ele>
        <time>2018-06-12T08:17:47Z</time>
      </trkpt>
      <trkpt lat="42.305818" lon="1.265642">
        <ele>1515.0</ele>
        <time>2018-06-12T08:17:52Z</time>
      </trkpt>
      <trkpt lat="42.305839" lon="1.265412">
        <ele>1518.9</ele>
        <time>2018-06-12T08:17:57Z</time>
      </trkpt>
      <trkpt lat="42.305994" lon="1.265316">
        <ele>1514.5</ele>
        <time>2018-06-12T08:18:01Z</time>
      </trkpt>
      <trkpt lat="42.306111" lon="1.265190">
        <ele>1515.6</ele>
        <time>2018-06-12T08:18:05Z</time>
      </trkpt>
      <trkpt lat="42.306184" lon="1.265081">
        <ele>1516.4</ele>
        <time>2018-06-12T08:18:08Z</time>
      </trkpt>
      <trkpt lat="42.306375" lon="1.264787">
        <ele>1515.2</ele>
        <time>2018-06-12T08:18:16Z</time>
      </trkpt>
      <trkpt lat="42.306724" lon="1.264632">
        <ele>1508.0</ele>
        <time>2018-06-12T08:18:26Z</time>
      </trkpt>
      <trkpt lat="42.307005" lon="1.264405">
        <ele>1509.3</ele>
        <time>2018-06-12T08:18:34Z</time>
      </trkpt>
      <trkpt lat="42.307127" lon="1.263942">
        <ele>1520.0</ele>
        <time>2018-06-12T08:18:44Z</time>
      </trkpt>
      <trkpt lat="42.307131" lon="1.263561">
        <ele>1518.3</ele>
        <time>2018-06-12T08:18:52Z</time>
      </trkpt>
      <trkpt lat="42.306962" lon="1.262864">
        <ele>1524.6</ele>
        <time>2018-06-12T08:19:06Z</time>
      </trkpt>
      <trkpt lat="42.306843" lon="1.262484">
        <ele>1539.5</ele>
        <time>2018-06-12T08:19:15Z</time>
      </trkpt>
      <trkpt lat="42.306898" lon="1.262122">
        <ele>1555.0</ele>
        <time>2018-06-12T08:19:23Z</time>
      </trkpt>
      <trkpt lat="42.307105" lon="1.261882">
        <ele>1557.2</ele>
        <time>2018-06-12T08:19:30Z</time>
      </trkpt>
      <trkpt lat="42.307748" lon="1.260863">
        <ele>1548.3</ele>
        <time>2018-06-12T08:19:56Z</time>
      </trkpt>
      <trkpt lat="42.307927" lon="1.260599">
        <ele>1544.7</ele>
        <time>2018-06-12T08:20:03Z</time>
      </trkpt>
      <trkpt lat="42.307991" lon="1.260238">
        <ele>1551.6</ele>
        <time>2018-06-12T08:20:11Z</time>
      </trkpt>
      <trkpt lat="42.307976" lon="1.259898">
        <ele>1562.0</ele>
        <time>2018-06-12T08:20:18Z</time>
      </trkpt>
      <trkpt lat="42.307867" lon="1.259713">
        <ele>1570.2</ele>
        <time>2018-06-12T08:20:23Z</time>
      </trkpt>
      <trkpt lat="42.307868" lon="1.259568">
        <ele>1572.4</ele>
        <time>2018-06-12T08:20:26Z</time>
      </trkpt>
      <trkpt lat="42.307932" lon="1.259483">
        <ele>1568.0</ele>
        <time>2018-06-12T08:20:28Z</time>
      </trkpt>
      <trkpt lat="42.308022" lon="1.259406">
        <ele>1566.2</ele>
        <time>2018-06-12T08:20:31Z</time>
      </trkpt>
      <trkpt lat="42.308138" lon="1.259462">
        <ele>1565.5</ele>
        <time>2018-06-12T08:20:34Z</time>
      </trkpt>
      <trkpt lat="42.308258" lon="1.259519">
        <ele>1564.1</ele>
        <time>2018-06-12T08:20:38Z</time>
      </trkpt>
      <trkpt lat="42.308710" lon="1.259639">
        <ele>1564.5</ele>
        <time>2018-06-12T08:20:50Z</time>
      </trkpt>
      <trkpt lat="42.309427" lon="1.259672">
        <ele>1571.9</ele>
        <time>2018-06-12T08:21:09Z</time>
      </trkpt>
      <trkpt lat="42.309610" lon="1.259615">
        <ele>1574.8</ele>
        <time>2018-06-12T08:21:14Z</time>
      </trkpt>
      <trkpt lat="42.309841" lon="1.259438">
        <ele>1577.3</ele>
        <time>2018-06-12T08:21:21Z</time>
      </trkpt>
      <trkpt lat="42.310169" lon="1.259065">
        <ele>1589.2</ele>
        <time>2018-06-12T08:21:32Z</time>
      </trkpt>
      <trkpt lat="42.310245" lon="1.258809">
        <ele>1594.2</ele>
        <time>2018-06-12T08:21:38Z</time>
      </trkpt>
      <trkpt lat="42.310234" lon="1.256855">
        <ele>1602.0</ele>
        <time>2018-06-12T08:22:16Z</time>
      </trkpt>
      <trkpt lat="42.310275" lon="1.256195">
        <ele>1595.5</ele>
        <time>2018-06-12T08:22:29Z</time>
      </trkpt>
      <trkpt lat="42.310321" lon="1.255445">
        <ele>1589.0</ele>
        <time>2018-06-12T08:22:44Z</time>
      </trkpt>
      <trkpt lat="42.310387" lon="1.255055">
        <ele>1588.9</ele>
        <time>2018-06-12T08:22:52Z</time>
      </trkpt>
      <trkpt lat="42.310463" lon="1.254883">
        <ele>1586.9</ele>
        <time>2018-06-12T08:22:56Z</time>
      </trkpt>
      <trkpt lat="42.311193" lon="1.254742">
        <ele>1585.4</ele>
        <time>2018-06-12T08:23:15Z</time>
      </trkpt>
      <trkpt lat="42.311534" lon="1.254684">
        <ele>1594.2</ele>
        <time>2018-06-12T08:23:24Z</time>
      </trkpt>
      <trkpt lat="42.311715" lon="1.254764">
        <ele>1593.8</ele>
        <time>2018-06-12T08:23:29Z</time>
      </trkpt>
      <trkpt lat="42.311903" lon="1.254661">
        <ele>1593.8</ele>
        <time>2018-06-12T08:23:35Z</time>
      </trkpt>
      <trkpt lat="42.312689" lon="1.253778">
        <ele>1585.3</ele>
        <time>2018-06-12T08:24:02Z</time>
      </trkpt>
      <trkpt lat="42.312813" lon="1.253532">
        <ele>1580.3</ele>
        <time>2018-06-12T08:24:07Z</time>
      </trkpt>
      <trkpt lat="42.312794" lon="1.253448">
        <ele>1580.2</ele>
        <time>2018-06-12T08:24:09Z</time>
      </trkpt>
      <trkpt lat="42.312726" lon="1.253420">
        <ele>1582.6</ele>
        <time>2018-06-12T08:24:11Z</time>
      </trkpt>
      <trkpt lat="42.312382" lon="1.253617">
        <ele>1593.0</ele>
        <time>2018-06-12T08:24:21Z</time>
      </trkpt>
      <trkpt lat="42.312245" lon="1.253620">
        <ele>1596.7</ele>
        <time>2018-06-12T08:24:25Z</time>
      </trkpt>
      <trkpt lat="42.311779" lon="1.253621">
        <ele>1607.0</ele>
        <time>2018-06-12T08:24:38Z</time>
      </trkpt>
      <trkpt lat="42.311343" lon="1.253552">
        <ele>1605.5</ele>
        <time>2018-06-12T08:24:49Z</time>
      </trkpt>
      <trkpt lat="42.310506" lon="1.253202">
        <ele>1627.9</ele>
        <time>2018-06-12T08:25:13Z</time>
      </trkpt>
      <trkpt lat="42.309980" lon="1.252591">
        <ele>1632.1</ele>
        <time>2018-06-12T08:25:31Z</time>
      </trkpt>
      <trkpt lat="42.309733" lon="1.252477">
        <ele>1642.2</ele>
        <time>2018-06-12T08:25:38Z</time>
      </trkpt>
      <trkpt lat="42.309430" lon="1.252497">
        <ele>1649.6</ele>
        <time>2018-06-12T08:25:47Z</time>
      </trkpt>
      <trkpt lat="42.309111" lon="1.252587">
        <ele>1650.0</ele>
        <time>2018-06-12T08:25:55Z</time>
      </trkpt>
      <trkpt lat="42.308418" lon="1.252513">
        <ele>1650.9</ele>
        <time>2018-06-12T08:26:13Z</time>
      </trkpt>
      <trkpt lat="42.307954" lon="1.252574">
        <ele>1656.2</ele>
        <time>2018-06-12T08:26:26Z</time>
      </trkpt>
      <trkpt lat="42.307590" lon="1.252876">
        <ele>1659.1</ele>
        <time>2018-06-12T08:26:37Z</time>
      </trkpt>
      <trkpt lat="42.307279" lon="1.253188">
        <ele>1663.1</ele>
        <time>2018-06-12T08:26:47Z</time>
      </trkpt>
      <trkpt lat="42.306887" lon="1.253465">
        <ele>1669.6</ele>
        <time>2018-06-12T08:26:59Z</time>
      </trkpt>
      <trkpt lat="42.306522" lon="1.253742">
        <ele>1681.8</ele>
        <time>2018-06-12T08:27:10Z</time>
      </trkpt>
      <trkpt lat="42.306195" lon="1.253905">
        <ele>1689.7</ele>
        <time>2018-06-12T08:27:20Z</time>
      </trkpt>
      <trkpt lat="42.305725" lon="1.254031">
        <ele>1691.9</ele>
        <time>2018-06-12T08:27:32Z</time>
      </trkpt>
      <trkpt lat="42.305180" lon="1.253722">
        <ele>1689.3</ele>
        <time>2018-06-12T08:27:48Z</time>
      </trkpt>
      <trkpt lat="42.304562" lon="1.253323">
        <ele>1667.0</ele>
        <time>2018-06-12T08:28:07Z</time>
      </trkpt>
      <trkpt lat="42.304478" lon="1.253089">
        <ele>1664.1</ele>
        <time>2018-06-12T08:28:12Z</time>
      </trkpt>
      <trkpt lat="42.304305" lon="1.252408">
        <ele>1658.7</ele>
        <time>2018-06-12T08:28:26Z</time>
      </trkpt>
      <trkpt lat="42.304308" lon="1.251438">
        <ele>1644.3</ele>
        <time>2018-06-12T08:28:45Z</time>
      </trkpt>
      <trkpt lat="42.304312" lon="1.251098">
        <ele>1642.9</ele>
        <time>2018-06-12T08:28:52Z</time>
      </trkpt>
      <trkpt lat="42.304394" lon="1.250574">
        <ele>1642.4</ele>
        <time>2018-06-12T08:29:02Z</time>
      </trkpt>
      <trkpt lat="42.304533" lon="1.250230">
        <ele>1639.0</ele>
        <time>2018-06-12T08:29:10Z</time>
      </trkpt>
      <trkpt lat="42.304699" lon="1.249443">
        <ele>1631.4</ele>
        <time>2018-06-12T08:29:26Z</time>
      </trkpt>
      <trkpt lat="42.304569" lon="1.248482">
        <ele>1618.2</ele>
        <time>2018-06-12T08:29:45Z</time>
      </trkpt>
      <trkpt lat="42.304594" lon="1.248324">
        <ele>1616.0</ele>
        <time>2018-06-12T08:29:48Z</time>
      </trkpt>
      <trkpt lat="42.304673" lon="1.248176">
        <ele>1610.8</ele>
        <time>2018-06-12T08:29:52Z</time>
      </trkpt>
      <trkpt lat="42.304842" lon="1.248087">
        <ele>1602.2</ele>
        <time>2018-06-12T08:29:57Z</time>
      </trkpt>
      <trkpt lat="42.304894" lon="1.247903">
        <ele>1598.2</ele>
        <time>2018-06-12T08:30:01Z</time>
      </trkpt>
      <trkpt lat="42.304917" lon="1.247696">
        <ele>1593.6</ele>
        <time>2018-06-12T08:30:06Z</time>
      </trkpt>
      <trkpt lat="42.304860" lon="1.247455">
        <ele>1590.4</ele>
        <time>2018-06-12T08:30:11Z</time>
      </trkpt>
      <trkpt lat="42.304703" lon="1.247229">
        <ele>1591.2</ele>
        <time>2018-06-12T08:30:17Z</time>
      </trkpt>
      <trkpt lat="42.304662" lon="1.247017">
        <ele>1590.3</ele>
        <time>2018-06-12T08:30:21Z</time>
      </trkpt>
      <trkpt lat="42.304657" lon="1.246575">
        <ele>1590.1</ele>
        <time>2018-06-12T08:30:29Z</time>
      </trkpt>
      <trkpt lat="42.304557" lon="1.245911">
        <ele>1589.5</ele>
        <time>2018-06-12T08:30:43Z</time>
      </trkpt>
      <trkpt lat="42.304370" lon="1.245467">
        <ele>1589.1</ele>
        <time>2018-06-12T08:30:53Z</time>
      </trkpt>
      <trkpt lat="42.304068" lon="1.244421">
        <ele>1604.1</ele>
        <time>2018-06-12T08:31:15Z</time>
      </trkpt>
      <trkpt lat="42.304053" lon="1.244190">
        <ele>1603.8</ele>
        <time>2018-06-12T08:31:19Z</time>
      </trkpt>
      <trkpt lat="42.304149" lon="1.243956">
        <ele>1603.3</ele>
        <time>2018-06-12T08:31:25Z</time>
      </trkpt>
      <trkpt lat="42.304333" lon="1.243648">
        <ele>1607.7</ele>
        <time>2018-06-12T08:31:32Z</time>
      </trkpt>
      <trkpt lat="42.304376" lon="1.243501">
        <ele>1609.8</ele>
        <time>2018-06-12T08:31:35Z</time>
      </trkpt>
      <trkpt lat="42.304329" lon="1.243387">
        <ele>1612.3</ele>
        <time>2018-06-12T08:31:38Z</time>
      </trkpt>
      <trkpt lat="42.303995" lon="1.243330">
        <ele>1615.2</ele>
        <time>2018-06-12T08:31:47Z</time>
      </trkpt>
      <trkpt lat="42.303669" lon="1.243230">
        <ele>1622.8</ele>
        <time>2018-06-12T08:31:56Z</time>
      </trkpt>
      <trkpt lat="42.303438" lon="1.243124">
        <ele>1625.1</ele>
        <time>2018-06-12T08:32:02Z</time>
      </trkpt>
      <trkpt lat="42.303278" lon="1.243016">
        <ele>1623.7</ele>
        <time>2018-06-12T08:32:07Z</time>
      </trkpt>
      <trkpt lat="42.303221" lon="1.242769">
        <ele>1623.4</ele>
        <time>2018-06-12T08:32:12Z</time>
      </trkpt>
      <trkpt lat="42.303213" lon="1.242571">
        <ele>1623.5</ele>
        <time>2018-06-12T08:32:16Z</time>
      </trkpt>
      <trkpt lat="42.303406" lon="1.242198">
        <ele>1629.3</ele>
        <time>2018-06-12T08:32:25Z</time>
      </trkpt>
      <trkpt lat="42.303498" lon="1.241915">
        <ele>1632.9</ele>
        <time>2018-06-12T08:32:31Z</time>
      </trkpt>
      <trkpt lat="42.303984" lon="1.241223">
        <ele>1641.7</ele>
        <time>2018-06-12T08:32:50Z</time>
      </trkpt>
      <trkpt lat="42.304264" lon="1.240449">
        <ele>1656.2</ele>
        <time>2018-06-12T08:33:07Z</time>
      </trkpt>
      <trkpt lat="42.304429" lon="1.239985">
        <ele>1661.0</ele>
        <time>2018-06-12T08:33:17Z</time>
      </trkpt>
      <trkpt lat="42.304490" lon="1.239734">
        <ele>1661.1</ele>
        <time>2018-06-12T08:33:22Z</time>
      </trkpt>
      <trkpt lat="42.304593" lon="1.239568">
        <ele>1663.4</ele>
        <time>2018-06-12T08:33:26Z</time>
      </trkpt>
      <trkpt lat="42.304619" lon="1.239388">
        <ele>1665.7</ele>
        <time>2018-06-12T08:33:30Z</time>
      </trkpt>
      <trkpt lat="42.304643" lon="1.239191">
        <ele>1668.7</ele>
        <time>2018-06-12T08:33:34Z</time>
      </trkpt>
      <trkpt lat="42.304570" lon="1.239049">
        <ele>1668.3</ele>
        <time>2018-06-12T08:33:37Z</time>
      </trkpt>
      <trkpt lat="42.304448" lon="1.238941">
        <ele>1666.0</ele>
        <time>2018-06-12T08:33:41Z</time>
      </trkpt>
      <trkpt lat="42.304003" lon="1.238355">
        <ele>1665.0</ele>
        <time>2018-06-12T08:33:58Z</time>
      </trkpt>
      <trkpt lat="42.303904" lon="1.238172">
        <ele>1663.4</ele>
        <time>2018-06-12T08:34:02Z</time>
      </trkpt>
      <trkpt lat="42.303829" lon="1.237895">
        <ele>1658.0</ele>
        <time>2018-06-12T08:34:08Z</time>
      </trkpt>
      <trkpt lat="42.303767" lon="1.237656">
        <ele>1652.7</ele>
        <time>2018-06-12T08:34:13Z</time>
      </trkpt>
      <trkpt lat="42.303791" lon="1.237464">
        <ele>1649.9</ele>
        <time>2018-06-12T08:34:17Z</time>
      </trkpt>
      <trkpt lat="42.303972" lon="1.237143">
        <ele>1651.4</ele>
        <time>2018-06-12T08:34:25Z</time>
      </trkpt>
      <trkpt lat="42.303939" lon="1.236874">
        <ele>1649.8</ele>
        <time>2018-06-12T08:34:30Z</time>
      </trkpt>
      <trkpt lat="42.303834" lon="1.236624">
        <ele>1647.1</ele>
        <time>2018-06-12T08:34:36Z</time>
      </trkpt>
      <trkpt lat="42.303768" lon="1.236317">
        <ele>1645.3</ele>
        <time>2018-06-12T08:34:42Z</time>
      </trkpt>
      <trkpt lat="42.303670" lon="1.235754">
        <ele>1648.1</ele>
        <time>2018-06-12T08:34:53Z</time>
      </trkpt>
      <trkpt lat="42.303652" lon="1.235380">
        <ele>1646.0</ele>
        <time>2018-06-12T08:35:00Z</time>
      </trkpt>
      <trkpt lat="42.303655" lon="1.235053">
        <ele>1643.5</ele>
        <time>2018-06-12T08:35:07Z</time>
      </trkpt>
      <trkpt lat="42.303722" lon="1.234666">
        <ele>1644.2</ele>
        <time>2018-06-12T08:35:15Z</time>
      </trkpt>
      <trkpt lat="42.303969" lon="1.233406">
        <ele>1626.6</ele>
        <time>2018-06-12T08:35:40Z</time>
      </trkpt>
      <trkpt lat="42.303965" lon="1.233225">
        <ele>1623.0</ele>
        <time>2018-06-12T08:35:44Z</time>
      </trkpt>
      <trkpt lat="42.303882" lon="1.233045">
        <ele>1623.3</ele>
        <time>2018-06-12T08:35:48Z</time>
      </trkpt>
      <trkpt lat="42.303636" lon="1.232833">
        <ele>1625.7</ele>
        <time>2018-06-12T08:35:56Z</time>
      </trkpt>
      <trkpt lat="42.303541" lon="1.232703">
        <ele>1629.0</ele>
        <time>2018-06-12T08:35:59Z</time>
      </trkpt>
      <trkpt lat="42.303452" lon="1.232455">
        <ele>1634.4</ele>
        <time>2018-06-12T08:36:05Z</time>
      </trkpt>
      <trkpt lat="42.303438" lon="1.232277">
        <ele>1639.7</ele>
        <time>2018-06-12T08:36:09Z</time>
      </trkpt>
      <trkpt lat="42.303463" lon="1.232119">
        <ele>1645.6</ele>
        <time>2018-06-12T08:36:12Z</time>
      </trkpt>
      <trkpt lat="42.303425" lon="1.232026">
        <ele>1649.4</ele>
        <time>2018-06-12T08:36:14Z</time>
      </trkpt>
      <trkpt lat="42.303193" lon="1.231596">
        <ele>1663.8</ele>
        <time>2018-06-12T08:36:25Z</time>
      </trkpt>
      <trkpt lat="42.303062" lon="1.231260">
        <ele>1674.3</ele>
        <time>2018-06-12T08:36:33Z</time>
      </trkpt>
      <trkpt lat="42.303000" lon="1.230870">
        <ele>1680.6</ele>
        <time>2018-06-12T08:36:41Z</time>
      </trkpt>
      <trkpt lat="42.302888" lon="1.230476">
        <ele>1683.6</ele>
        <time>2018-06-12T08:36:49Z</time>
      </trkpt>
      <trkpt lat="42.302877" lon="1.230367">
        <ele>1685.2</ele>
        <time>2018-06-12T08:36:51Z</time>
      </trkpt>
      <trkpt lat="42.302881" lon="1.230269">
        <ele>1686.4</ele>
        <time>2018-06-12T08:36:53Z</time>
      </trkpt>
      <trkpt lat="42.302938" lon="1.230208">
        <ele>1687.3</ele>
        <time>2018-06-12T08:36:55Z</time>
      </trkpt>
      <trkpt lat="42.303137" lon="1.230147">
        <ele>1687.3</ele>
        <time>2018-06-12T08:37:01Z</time>
      </trkpt>
      <trkpt lat="42.303701" lon="1.229821">
        <ele>1692.7</ele>
        <time>2018-06-12T08:37:17Z</time>
      </trkpt>
      <trkpt lat="42.304041" lon="1.229485">
        <ele>1693.8</ele>
        <time>2018-06-12T08:37:28Z</time>
      </trkpt>
      <trkpt lat="42.304157" lon="1.229317">
        <ele>1703.4</ele>
        <time>2018-06-12T08:37:33Z</time>
      </trkpt>
      <trkpt lat="42.304146" lon="1.229184">
        <ele>1706.1</ele>
        <time>2018-06-12T08:37:36Z</time>
      </trkpt>
      <trkpt lat="42.304030" lon="1.229005">
        <ele>1706.7</ele>
        <time>2018-06-12T08:37:40Z</time>
      </trkpt>
      <trkpt lat="42.303855" lon="1.228762">
        <ele>1705.9</ele>
        <time>2018-06-12T08:37:47Z</time>
      </trkpt>
      <trkpt lat="42.303761" lon="1.228541">
        <ele>1702.5</ele>
        <time>2018-06-12T08:37:52Z</time>
      </trkpt>
      <trkpt lat="42.303724" lon="1.228213">
        <ele>1697.5</ele>
        <time>2018-06-12T08:37:59Z</time>
      </trkpt>
      <trkpt lat="42.303753" lon="1.227648">
        <ele>1696.1</ele>
        <time>2018-06-12T08:38:10Z</time>
      </trkpt>
      <trkpt lat="42.303760" lon="1.227455">
        <ele>1697.0</ele>
        <time>2018-06-12T08:38:13Z</time>
      </trkpt>
      <trkpt lat="42.303712" lon="1.227314">
        <ele>1694.4</ele>
        <time>2018-06-12T08:38:16Z</time>
      </trkpt>
      <trkpt lat="42.303670" lon="1.227124">
        <ele>1689.9</ele>
        <time>2018-06-12T08:38:20Z</time>
      </trkpt>
      <trkpt lat="42.303692" lon="1.226960">
        <ele>1690.5</ele>
        <time>2018-06-12T08:38:24Z</time>
      </trkpt>
      <trkpt lat="42.303765" lon="1.226761">
        <ele>1694.1</ele>
        <time>2018-06-12T08:38:28Z</time>
      </trkpt>
      <trkpt lat="42.303992" lon="1.226380">
        <ele>1702.7</ele>
        <time>2018-06-12T08:38:38Z</time>
      </trkpt>
      <trkpt lat="42.304401" lon="1.225922">
        <ele>1703.9</ele>
        <time>2018-06-12T08:38:52Z</time>
      </trkpt>
      <trkpt lat="42.304933" lon="1.225142">
        <ele>1698.1</ele>
        <time>2018-06-12T08:39:13Z</time>
      </trkpt>
      <trkpt lat="42.305267" lon="1.224757">
        <ele>1705.4</ele>
        <time>2018-06-12T08:39:24Z</time>
      </trkpt>
      <trkpt lat="42.305542" lon="1.224621">
        <ele>1713.2</ele>
        <time>2018-06-12T08:39:32Z</time>
      </trkpt>
      <trkpt lat="42.305851" lon="1.224559">
        <ele>1719.5</ele>
        <time>2018-06-12T08:39:41Z</time>
      </trkpt>
      <trkpt lat="42.306308" lon="1.224479">
        <ele>1722.9</ele>
        <time>2018-06-12T08:39:53Z</time>
      </trkpt>
      <trkpt lat="42.306851" lon="1.224174">
        <ele>1726.0</ele>
        <time>2018-06-12T08:40:08Z</time>
      </trkpt>
      <trkpt lat="42.307014" lon="1.224075">
        <ele>1729.5</ele>
        <time>2018-06-12T08:40:13Z</time>
      </trkpt>
      <trkpt lat="42.307062" lon="1.223979">
        <ele>1729.8</ele>
        <time>2018-06-12T08:40:15Z</time>
      </trkpt>
      <trkpt lat="42.307058" lon="1.223764">
        <ele>1727.3</ele>
        <time>2018-06-12T08:40:19Z</time>
      </trkpt>
      <trkpt lat="42.307060" lon="1.223593">
        <ele>1724.5</ele>
        <time>2018-06-12T08:40:23Z</time>
      </trkpt>
      <trkpt lat="42.307201" lon="1.223206">
        <ele>1722.4</ele>
        <time>2018-06-12T08:40:31Z</time>
      </trkpt>
      <trkpt lat="42.307355" lon="1.222808">
        <ele>1716.8</ele>
        <time>2018-06-12T08:40:40Z</time>
      </trkpt>
      <trkpt lat="42.307607" lon="1.222301">
        <ele>1716.2</ele>
        <time>2018-06-12T08:40:52Z</time>
      </trkpt>
      <trkpt lat="42.307829" lon="1.222052">
        <ele>1722.2</ele>
        <time>2018-06-12T08:41:00Z</time>
      </trkpt>
      <trkpt lat="42.308142" lon="1.221770">
        <ele>1732.7</ele>
        <time>2018-06-12T08:41:10Z</time>
      </trkpt>
      <trkpt lat="42.308334" lon="1.221672">
        <ele>1736.5</ele>
        <time>2018-06-12T08:41:15Z</time>
      </trkpt>
      <trkpt lat="42.308567" lon="1.221709">
        <ele>1748.1</ele>
        <time>2018-06-12T08:41:22Z</time>
      </trkpt>
      <trkpt lat="42.308612" lon="1.221663">
        <ele>1748.1</ele>
        <time>2018-06-12T08:41:24Z</time>
      </trkpt>
      <trkpt lat="42.308629" lon="1.221539">
        <ele>1742.5</ele>
        <time>2018-06-12T08:41:26Z</time>
      </trkpt>
      <trkpt lat="42.308606" lon="1.221393">
        <ele>1738.5</ele>
        <time>2018-06-12T08:41:30Z</time>
      </trkpt>
      <trkpt lat="42.308705" lon="1.220915">
        <ele>1744.8</ele>
        <time>2018-06-12T08:41:39Z</time>
      </trkpt>
      <trkpt lat="42.308742" lon="1.220592">
        <ele>1751.0</ele>
        <time>2018-06-12T08:41:46Z</time>
      </trkpt>
      <trkpt lat="42.308674" lon="1.220328">
        <ele>1744.6</ele>
        <time>2018-06-12T08:41:52Z</time>
      </trkpt>
      <trkpt lat="42.308597" lon="1.220202">
        <ele>1738.6</ele>
        <time>2018-06-12T08:41:55Z</time>
      </trkpt>
      <trkpt lat="42.308571" lon="1.219996">
        <ele>1737.1</ele>
        <time>2018-06-12T08:41:59Z</time>
      </trkpt>
      <trkpt lat="42.308650" lon="1.219858">
        <ele>1741.6</ele>
        <time>2018-06-12T08:42:03Z</time>
      </trkpt>
      <trkpt lat="42.308771" lon="1.219679">
        <ele>1746.6</ele>
        <time>2018-06-12T08:42:08Z</time>
      </trkpt>
      <trkpt lat="42.309127" lon="1.219460">
        <ele>1752.7</ele>
        <time>2018-06-12T08:42:18Z</time>
      </trkpt>
      <trkpt lat="42.309463" lon="1.219323">
        <ele>1756.5</ele>
        <time>2018-06-12T08:42:27Z</time>
      </trkpt>
      <trkpt lat="42.309780" lon="1.219273">
        <ele>1762.7</ele>
        <time>2018-06-12T08:42:36Z</time>
      </trkpt>
      <trkpt lat="42.310192" lon="1.219317">
        <ele>1772.5</ele>
        <time>2018-06-12T08:42:47Z</time>
      </trkpt>
      <trkpt lat="42.310333" lon="1.219254">
        <ele>1772.7</ele>
        <time>2018-06-12T08:42:51Z</time>
      </trkpt>
      <trkpt lat="42.311214" lon="1.218432">
        <ele>1783.1</ele>
        <time>2018-06-12T08:43:19Z</time>
      </trkpt>
      <trkpt lat="42.311319" lon="1.218020">
        <ele>1786.0</ele>
        <time>2018-06-12T08:43:28Z</time>
      </trkpt>
      <trkpt lat="42.311339" lon="1.217712">
        <ele>1788.9</ele>
        <time>2018-06-12T08:43:34Z</time>
      </trkpt>
      <trkpt lat="42.311277" lon="1.217261">
        <ele>1788.4</ele>
        <time>2018-06-12T08:43:43Z</time>
      </trkpt>
      <trkpt lat="42.311226" lon="1.217000">
        <ele>1780.9</ele>
        <time>2018-06-12T08:43:48Z</time>
      </trkpt>
      <trkpt lat="42.311348" lon="1.216589">
        <ele>1778.4</ele>
        <time>2018-06-12T08:43:57Z</time>
      </trkpt>
      <trkpt lat="42.311709" lon="1.216095">
        <ele>1780.9</ele>
        <time>2018-06-12T08:44:10Z</time>
      </trkpt>
      <trkpt lat="42.311957" lon="1.215830">
        <ele>1782.4</ele>
        <time>2018-06-12T08:44:19Z</time>
      </trkpt>
      <trkpt lat="42.312193" lon="1.215631">
        <ele>1786.4</ele>
        <time>2018-06-12T08:44:26Z</time>
      </trkpt>
      <trkpt lat="42.312253" lon="1.215753">
        <ele>1793.2</ele>
        <time>2018-06-12T08:44:29Z</time>
      </trkpt>
      <trkpt lat="42.312250" lon="1.215966">
        <ele>1800.2</ele>
        <time>2018-06-12T08:44:34Z</time>
      </trkpt>
      <trkpt lat="42.312315" lon="1.216086">
        <ele>1805.3</ele>
        <time>2018-06-12T08:44:37Z</time>
      </trkpt>
      <trkpt lat="42.312453" lon="1.216123">
        <ele>1808.8</ele>
        <time>2018-06-12T08:44:41Z</time>
      </trkpt>
      <trkpt lat="42.313457" lon="1.215617">
        <ele>1812.0</ele>
        <time>2018-06-12T08:45:09Z</time>
      </trkpt>
      <trkpt lat="42.313571" lon="1.215519">
        <ele>1813.7</ele>
        <time>2018-06-12T08:45:13Z</time>
      </trkpt>
      <trkpt lat="42.313638" lon="1.215303">
        <ele>1816.4</ele>
        <time>2018-06-12T08:45:17Z</time>
      </trkpt>
      <trkpt lat="42.313566" lon="1.215100">
        <ele>1818.9</ele>
        <time>2018-06-12T08:45:22Z</time>
      </trkpt>
      <trkpt lat="42.313540" lon="1.214928">
        <ele>1821.3</ele>
        <time>2018-06-12T08:45:25Z</time>
      </trkpt>
      <trkpt lat="42.313575" lon="1.214654">
        <ele>1825.2</ele>
        <time>2018-06-12T08:45:31Z</time>
      </trkpt>
      <trkpt lat="42.313721" lon="1.213457">
        <ele>1836.6</ele>
        <time>2018-06-12T08:45:54Z</time>
      </trkpt>
      <trkpt lat="42.313689" lon="1.213102">
        <ele>1842.1</ele>
        <time>2018-06-12T08:46:01Z</time>
      </trkpt>
      <trkpt lat="42.313577" lon="1.212803">
        <ele>1851.1</ele>
        <time>2018-06-12T08:46:08Z</time>
      </trkpt>
      <trkpt lat="42.313219" lon="1.212111">
        <ele>1855.9</ele>
        <time>2018-06-12T08:46:25Z</time>
      </trkpt>
      <trkpt lat="42.312704" lon="1.211513">
        <ele>1858.0</ele>
        <time>2018-06-12T08:46:43Z</time>
      </trkpt>
      <trkpt lat="42.312510" lon="1.211133">
        <ele>1860.3</ele>
        <time>2018-06-12T08:46:52Z</time>
      </trkpt>
      <trkpt lat="42.312424" lon="1.210681">
        <ele>1859.6</ele>
        <time>2018-06-12T08:47:01Z</time>
      </trkpt>
      <trkpt lat="42.312401" lon="1.210305">
        <ele>1857.2</ele>
        <time>2018-06-12T08:47:08Z</time>
      </trkpt>
      <trkpt lat="42.312496" lon="1.209611">
        <ele>1854.4</ele>
        <time>2018-06-12T08:47:22Z</time>
      </trkpt>
      <trkpt lat="42.312549" lon="1.209074">
        <ele>1856.9</ele>
        <time>2018-06-12T08:47:32Z</time>
      </trkpt>
      <trkpt lat="42.312662" lon="1.208558">
        <ele>1857.5</ele>
        <time>2018-06-12T08:47:43Z</time>
      </trkpt>
      <trkpt lat="42.312798" lon="1.208216">
        <ele>1856.9</ele>
        <time>2018-06-12T08:47:50Z</time>
      </trkpt>
      <trkpt lat="42.312928" lon="1.207908">
        <ele>1857.8</ele>
        <time>2018-06-12T08:47:57Z</time>
      </trkpt>
      <trkpt lat="42.313297" lon="1.207405">
        <ele>1855.5</ele>
        <time>2018-06-12T08:48:11Z</time>
      </trkpt>
      <trkpt lat="42.313468" lon="1.207197">
        <ele>1854.8</ele>
        <time>2018-06-12T08:48:17Z</time>
      </trkpt>
      <trkpt lat="42.313569" lon="1.206859">
        <ele>1858.8</ele>
        <time>2018-06-12T08:48:24Z</time>
      </trkpt>
      <trkpt lat="42.313645" lon="1.206493">
        <ele>1862.6</ele>
        <time>2018-06-12T08:48:32Z</time>
      </trkpt>
      <trkpt lat="42.313638" lon="1.206068">
        <ele>1866.6</ele>
        <time>2018-06-12T08:48:40Z</time>
      </trkpt>
      <trkpt lat="42.313452" lon="1.205115">
        <ele>1872.4</ele>
        <time>2018-06-12T08:48:59Z</time>
      </trkpt>
      <trkpt lat="42.313431" lon="1.204865">
        <ele>1875.7</ele>
        <time>2018-06-12T08:49:04Z</time>
      </trkpt>
      <trkpt lat="42.313454" lon="1.204702">
        <ele>1876.5</ele>
        <time>2018-06-12T08:49:08Z</time>
      </trkpt>
      <trkpt lat="42.313675" lon="1.204380">
        <ele>1877.0</ele>
        <time>2018-06-12T08:49:16Z</time>
      </trkpt>
      <trkpt lat="42.314095" lon="1.203628">
        <ele>1871.3</ele>
        <time>2018-06-12T08:49:35Z</time>
      </trkpt>
      <trkpt lat="42.314396" lon="1.203304">
        <ele>1867.0</ele>
        <time>2018-06-12T08:49:45Z</time>
      </trkpt>
      <trkpt lat="42.314913" lon="1.202503">
        <ele>1872.9</ele>
        <time>2018-06-12T08:50:06Z</time>
      </trkpt>
      <trkpt lat="42.315754" lon="1.201104">
        <ele>1874.5</ele>
        <time>2018-06-12T08:50:41Z</time>
      </trkpt>
      <trkpt lat="42.315865" lon="1.200747">
        <ele>1876.9</ele>
        <time>2018-06-12T08:50:48Z</time>
      </trkpt>
      <trkpt lat="42.316598" lon="1.198387">
        <ele>1880.8</ele>
        <time>2018-06-12T08:51:38Z</time>
      </trkpt>
      <trkpt lat="42.316649" lon="1.198053">
        <ele>1879.9</ele>
        <time>2018-06-12T08:51:45Z</time>
      </trkpt>
      <trkpt lat="42.316708" lon="1.196758">
        <ele>1868.5</ele>
        <time>2018-06-12T08:52:10Z</time>
      </trkpt>
      <trkpt lat="42.316718" lon="1.196130">
        <ele>1870.2</ele>
        <time>2018-06-12T08:52:22Z</time>
      </trkpt>
      <trkpt lat="42.316809" lon="1.195784">
        <ele>1868.3</ele>
        <time>2018-06-12T08:52:30Z</time>
      </trkpt>
      <trkpt lat="42.317021" lon="1.194929">
        <ele>1866.0</ele>
        <time>2018-06-12T08:52:47Z</time>
      </trkpt>
      <trkpt lat="42.317130" lon="1.193821">
        <ele>1858.2</ele>
        <time>2018-06-12T08:53:09Z</time>
      </trkpt>
      <trkpt lat="42.317145" lon="1.193056">
        <ele>1852.6</ele>
        <time>2018-06-12T08:53:24Z</time>
      </trkpt>
      <trkpt lat="42.317111" lon="1.192645">
        <ele>1855.4</ele>
        <time>2018-06-12T08:53:32Z</time>
      </trkpt>
      <trkpt lat="42.317221" lon="1.192156">
        <ele>1858.4</ele>
        <time>2018-06-12T08:53:42Z</time>
      </trkpt>
      <trkpt lat="42.317261" lon="1.191911">
        <ele>1860.1</ele>
        <time>2018-06-12T08:53:47Z</time>
      </trkpt>
      <trkpt lat="42.317392" lon="1.191678">
        <ele>1860.1</ele>
        <time>2018-06-12T08:53:53Z</time>
      </trkpt>
      <trkpt lat="42.318142" lon="1.190601">
        <ele>1856.1</ele>
        <time>2018-06-12T08:54:21Z</time>
      </trkpt>
      <trkpt lat="42.318192" lon="1.190381">
        <ele>1857.4</ele>
        <time>2018-06-12T08:54:26Z</time>
      </trkpt>
      <trkpt lat="42.318217" lon="1.190210">
        <ele>1858.6</ele>
        <time>2018-06-12T08:54:29Z</time>
      </trkpt>
      <trkpt lat="42.318220" lon="1.189846">
        <ele>1860.2</ele>
        <time>2018-06-12T08:54:36Z</time>
      </trkpt>
      <trkpt lat="42.318115" lon="1.189485">
        <ele>1864.5</ele>
        <time>2018-06-12T08:54:44Z</time>
      </trkpt>
      <trkpt lat="42.317686" lon="1.188527">
        <ele>1866.1</ele>
        <time>2018-06-12T08:55:06Z</time>
      </trkpt>
      <trkpt lat="42.317255" lon="1.187507">
        <ele>1862.8</ele>
        <time>2018-06-12T08:55:29Z</time>
      </trkpt>
      <trkpt lat="42.317024" lon="1.186684">
        <ele>1864.2</ele>
        <time>2018-06-12T08:55:46Z</time>
      </trkpt>
      <trkpt lat="42.316909" lon="1.186262">
        <ele>1861.8</ele>
        <time>2018-06-12T08:55:55Z</time>
      </trkpt>
      <trkpt lat="42.316841" lon="1.185961">
        <ele>1856.4</ele>
        <time>2018-06-12T08:56:01Z</time>
      </trkpt>
      <trkpt lat="42.316863" lon="1.185632">
        <ele>1853.2</ele>
        <time>2018-06-12T08:56:07Z</time>
      </trkpt>
      <trkpt lat="42.316932" lon="1.185466">
        <ele>1852.7</ele>
        <time>2018-06-12T08:56:11Z</time>
      </trkpt>
      <trkpt lat="42.317036" lon="1.185190">
        <ele>1854.7</ele>
        <time>2018-06-12T08:56:17Z</time>
      </trkpt>
      <trkpt lat="42.317273" lon="1.184783">
        <ele>1851.1</ele>
        <time>2018-06-12T08:56:27Z</time>
      </trkpt>
      <trkpt lat="42.317430" lon="1.184464">
        <ele>1850.5</ele>
        <time>2018-06-12T08:56:35Z</time>
      </trkpt>
      <trkpt lat="42.317760" lon="1.183992">
        <ele>1855.8</ele>
        <time>2018-06-12T08:56:47Z</time>
      </trkpt>
      <trkpt lat="42.317881" lon="1.183946">
        <ele>1855.5</ele>
        <time>2018-06-12T08:56:51Z</time>
      </trkpt>
      <trkpt lat="42.318012" lon="1.183973">
        <ele>1855.1</ele>
        <time>2018-06-12T08:56:54Z</time>
      </trkpt>
      <trkpt lat="42.318487" lon="1.184056">
        <ele>1854.8</ele>
        <time>2018-06-12T08:57:07Z</time>
      </trkpt>
      <trkpt lat="42.318671" lon="1.184021">
        <ele>1855.8</ele>
        <time>2018-06-12T08:57:12Z</time>
      </trkpt>
      <trkpt lat="42.318796" lon="1.183948">
        <ele>1857.3</ele>
        <time>2018-06-12T08:57:15Z</time>
      </trkpt>
      <trkpt lat="42.319046" lon="1.183798">
        <ele>1858.8</ele>
        <time>2018-06-12T08:57:23Z</time>
      </trkpt>
      <trkpt lat="42.319352" lon="1.183490">
        <ele>1859.6</ele>
        <time>2018-06-12T08:57:33Z</time>
      </trkpt>
      <trkpt lat="42.319625" lon="1.183107">
        <ele>1861.6</ele>
        <time>2018-06-12T08:57:43Z</time>
      </trkpt>
      <trkpt lat="42.319792" lon="1.182587">
        <ele>1867.9</ele>
        <time>2018-06-12T08:57:54Z</time>
      </trkpt>
      <trkpt lat="42.320081" lon="1.181765">
        <ele>1879.3</ele>
        <time>2018-06-12T08:58:12Z</time>
      </trkpt>
      <trkpt lat="42.320163" lon="1.181514">
        <ele>1884.6</ele>
        <time>2018-06-12T08:58:18Z</time>
      </trkpt>
      <trkpt lat="42.320265" lon="1.181444">
        <ele>1883.2</ele>
        <time>2018-06-12T08:58:21Z</time>
      </trkpt>
      <trkpt lat="42.320390" lon="1.181398">
        <ele>1880.9</ele>
        <time>2018-06-12T08:58:24Z</time>
      </trkpt>
      <trkpt lat="42.320531" lon="1.181437">
        <ele>1876.9</ele>
        <time>2018-06-12T08:58:28Z</time>
      </trkpt>
      <trkpt lat="42.320725" lon="1.181474">
        <ele>1872.5</ele>
        <time>2018-06-12T08:58:33Z</time>
      </trkpt>
      <trkpt lat="42.321174" lon="1.181469">
        <ele>1870.7</ele>
        <time>2018-06-12T08:58:45Z</time>
      </trkpt>
      <trkpt lat="42.321606" lon="1.181333">
        <ele>1868.2</ele>
        <time>2018-06-12T08:58:57Z</time>
      </trkpt>
      <trkpt lat="42.321887" lon="1.181161">
        <ele>1865.2</ele>
        <time>2018-06-12T08:59:05Z</time>
      </trkpt>
      <trkpt lat="42.322187" lon="1.180818">
        <ele>1867.9</ele>
        <time>2018-06-12T08:59:15Z</time>
      </trkpt>
      <trkpt lat="42.322262" lon="1.180677">
        <ele>1869.4</ele>
        <time>2018-06-12T08:59:19Z</time>
      </trkpt>
      <trkpt lat="42.322356" lon="1.180383">
        <ele>1869.8</ele>
        <time>2018-06-12T08:59:25Z</time>
      </trkpt>
      <trkpt lat="42.322606" lon="1.179544">
        <ele>1877.9</ele>
        <time>2018-06-12T08:59:43Z</time>
      </trkpt>
      <trkpt lat="42.322688" lon="1.179432">
        <ele>1878.3</ele>
        <time>2018-06-12T08:59:46Z</time>
      </trkpt>
      <trkpt lat="42.322878" lon="1.179208">
        <ele>1879.3</ele>
        <time>2018-06-12T08:59:52Z</time>
      </trkpt>
      <trkpt lat="42.323410" lon="1.178689">
        <ele>1875.0</ele>
        <time>2018-06-12T09:00:10Z</time>
      </trkpt>
      <trkpt lat="42.323614" lon="1.178459">
        <ele>1876.6</ele>
        <time>2018-06-12T09:00:17Z</time>
      </trkpt>
      <trkpt lat="42.323723" lon="1.178243">
        <ele>1879.0</ele>
        <time>2018-06-12T09:00:22Z</time>
      </trkpt>
      <trkpt lat="42.323797" lon="1.178047">
        <ele>1880.9</ele>
        <time>2018-06-12T09:00:26Z</time>
      </trkpt>
      <trkpt lat="42.323861" lon="1.177845">
        <ele>1882.7</ele>
        <time>2018-06-12T09:00:30Z</time>
      </trkpt>
      <trkpt lat="42.323848" lon="1.177627">
        <ele>1885.1</ele>
        <time>2018-06-12T09:00:35Z</time>
      </trkpt>
      <trkpt lat="42.323730" lon="1.176857">
        <ele>1894.1</ele>
        <time>2018-06-12T09:00:50Z</time>
      </trkpt>
      <trkpt lat="42.323574" lon="1.176245">
        <ele>1897.0</ele>
        <time>2018-06-12T09:01:03Z</time>
      </trkpt>
      <trkpt lat="42.323565" lon="1.175972">
        <ele>1896.0</ele>
        <time>2018-06-12T09:01:08Z</time>
      </trkpt>
      <trkpt lat="42.323596" lon="1.175037">
        <ele>1891.2</ele>
        <time>2018-06-12T09:01:26Z</time>
      </trkpt>
      <trkpt lat="42.323571" lon="1.174798">
        <ele>1889.9</ele>
        <time>2018-06-12T09:01:31Z</time>
      </trkpt>
      <trkpt lat="42.323518" lon="1.174602">
        <ele>1888.8</ele>
        <time>2018-06-12T09:01:35Z</time>
      </trkpt>
      <trkpt lat="42.323336" lon="1.174286">
        <ele>1890.7</ele>
        <time>2018-06-12T09:01:43Z</time>
      </trkpt>
      <trkpt lat="42.323220" lon="1.174089">
        <ele>1891.8</ele>
        <time>2018-06-12T09:01:48Z</time>
      </trkpt>
      <trkpt lat="42.323027" lon="1.173584">
        <ele>1896.4</ele>
        <time>2018-06-12T09:01:59Z</time>
      </trkpt>
      <trkpt lat="42.322852" lon="1.173335">
        <ele>1898.8</ele>
        <time>2018-06-12T09:02:06Z</time>
      </trkpt>
      <trkpt lat="42.322685" lon="1.172994">
        <ele>1892.1</ele>
        <time>2018-06-12T09:02:14Z</time>
      </trkpt>
      <trkpt lat="42.322667" lon="1.172758">
        <ele>1886.9</ele>
        <time>2018-06-12T09:02:19Z</time>
      </trkpt>
      <trkpt lat="42.322694" lon="1.172429">
        <ele>1881.2</ele>
        <time>2018-06-12T09:02:25Z</time>
      </trkpt>
      <trkpt lat="42.322767" lon="1.172259">
        <ele>1879.2</ele>
        <time>2018-06-12T09:02:29Z</time>
      </trkpt>
      <trkpt lat="42.322994" lon="1.172026">
        <ele>1875.2</ele>
        <time>2018-06-12T09:02:37Z</time>
      </trkpt>
      <trkpt lat="42.323265" lon="1.171812">
        <ele>1875.6</ele>
        <time>2018-06-12T09:02:45Z</time>
      </trkpt>
      <trkpt lat="42.323791" lon="1.171499">
        <ele>1867.2</ele>
        <time>2018-06-12T09:03:00Z</time>
      </trkpt>
      <trkpt lat="42.324124" lon="1.171174">
        <ele>1862.1</ele>
        <time>2018-06-12T09:03:11Z</time>
      </trkpt>
      <trkpt lat="42.324309" lon="1.170883">
        <ele>1862.8</ele>
        <time>2018-06-12T09:03:19Z</time>
      </trkpt>
      <trkpt lat="42.324346" lon="1.170718">
        <ele>1866.9</ele>
        <time>2018-06-12T09:03:22Z</time>
      </trkpt>
      <trkpt lat="42.324357" lon="1.170518">
        <ele>1869.3</ele>
        <time>2018-06-12T09:03:26Z</time>
      </trkpt>
      <trkpt lat="42.324292" lon="1.170107">
        <ele>1877.6</ele>
        <time>2018-06-12T09:03:34Z</time>
      </trkpt>
      <trkpt lat="42.324137" lon="1.169425">
        <ele>1883.6</ele>
        <time>2018-06-12T09:03:48Z</time>
      </trkpt>
      <trkpt lat="42.324145" lon="1.169358">
        <ele>1884.2</ele>
        <time>2018-06-12T09:03:50Z</time>
      </trkpt>
      <trkpt lat="42.324184" lon="1.169297">
        <ele>1884.4</ele>
        <time>2018-06-12T09:03:51Z</time>
      </trkpt>
      <trkpt lat="42.324243" lon="1.169301">
        <ele>1883.3</ele>
        <time>2018-06-12T09:03:53Z</time>
      </trkpt>
      <trkpt lat="42.324311" lon="1.169323">
        <ele>1881.8</ele>
        <time>2018-06-12T09:03:55Z</time>
      </trkpt>
      <trkpt lat="42.324433" lon="1.169386">
        <ele>1881.2</ele>
        <time>2018-06-12T09:03:58Z</time>
      </trkpt>
      <trkpt lat="42.324878" lon="1.169760">
        <ele>1877.4</ele>
        <time>2018-06-12T09:04:12Z</time>
      </trkpt>
      <trkpt lat="42.325432" lon="1.170159">
        <ele>1866.4</ele>
        <time>2018-06-12T09:04:29Z</time>
      </trkpt>
      <trkpt lat="42.326205" lon="1.170666">
        <ele>1860.6</ele>
        <time>2018-06-12T09:04:51Z</time>
      </trkpt>
      <trkpt lat="42.326428" lon="1.170773">
        <ele>1858.9</ele>
        <time>2018-06-12T09:04:58Z</time>
      </trkpt>
      <trkpt lat="42.326978" lon="1.171061">
        <ele>1849.8</ele>
        <time>2018-06-12T09:05:13Z</time>
      </trkpt>
      <trkpt lat="42.327264" lon="1.171174">
        <ele>1841.3</ele>
        <time>2018-06-12T09:05:21Z</time>
      </trkpt>
      <trkpt lat="42.327366" lon="1.171145">
        <ele>1837.7</ele>
        <time>2018-06-12T09:05:24Z</time>
      </trkpt>
      <trkpt lat="42.327426" lon="1.171066">
        <ele>1837.6</ele>
        <time>2018-06-12T09:05:26Z</time>
      </trkpt>
      <trkpt lat="42.327463" lon="1.170949">
        <ele>1837.8</ele>
        <time>2018-06-12T09:05:29Z</time>
      </trkpt>
      <trkpt lat="42.327397" lon="1.170775">
        <ele>1841.1</ele>
        <time>2018-06-12T09:05:33Z</time>
      </trkpt>
      <trkpt lat="42.326974" lon="1.169980">
        <ele>1859.2</ele>
        <time>2018-06-12T09:05:52Z</time>
      </trkpt>
      <trkpt lat="42.326622" lon="1.169074">
        <ele>1848.6</ele>
        <time>2018-06-12T09:06:12Z</time>
      </trkpt>
      <trkpt lat="42.326375" lon="1.168535">
        <ele>1848.6</ele>
        <time>2018-06-12T09:06:25Z</time>
      </trkpt>
      <trkpt lat="42.326252" lon="1.168454">
        <ele>1854.3</ele>
        <time>2018-06-12T09:06:29Z</time>
      </trkpt>
      <trkpt lat="42.326142" lon="1.168360">
        <ele>1861.2</ele>
        <time>2018-06-12T09:06:32Z</time>
      </trkpt>
      <trkpt lat="42.326127" lon="1.168287">
        <ele>1863.0</ele>
        <time>2018-06-12T09:06:34Z</time>
      </trkpt>
      <trkpt lat="42.326158" lon="1.168238">
        <ele>1862.6</ele>
        <time>2018-06-12T09:06:35Z</time>
      </trkpt>
      <trkpt lat="42.326297" lon="1.168179">
        <ele>1857.9</ele>
        <time>2018-06-12T09:06:39Z</time>
      </trkpt>
      <trkpt lat="42.326529" lon="1.168069">
        <ele>1850.0</ele>
        <time>2018-06-12T09:06:46Z</time>
      </trkpt>
      <trkpt lat="42.326812" lon="1.167981">
        <ele>1841.5</ele>
        <time>2018-06-12T09:06:54Z</time>
      </trkpt>
      <trkpt lat="42.327112" lon="1.167876">
        <ele>1836.5</ele>
        <time>2018-06-12T09:07:02Z</time>
      </trkpt>
      <trkpt lat="42.327386" lon="1.167850">
        <ele>1828.5</ele>
        <time>2018-06-12T09:07:10Z</time>
      </trkpt>
      <trkpt lat="42.327480" lon="1.167805">
        <ele>1828.0</ele>
        <time>2018-06-12T09:07:12Z</time>
      </trkpt>
      <trkpt lat="42.327556" lon="1.167742">
        <ele>1827.6</ele>
        <time>2018-06-12T09:07:15Z</time>
      </trkpt>
      <trkpt lat="42.327595" lon="1.167650">
        <ele>1827.6</ele>
        <time>2018-06-12T09:07:17Z</time>
      </trkpt>
      <trkpt lat="42.327626" lon="1.167352">
        <ele>1825.4</ele>
        <time>2018-06-12T09:07:23Z</time>
      </trkpt>
      <trkpt lat="42.327626" lon="1.167091">
        <ele>1824.4</ele>
        <time>2018-06-12T09:07:28Z</time>
      </trkpt>
      <trkpt lat="42.327631" lon="1.166824">
        <ele>1821.4</ele>
        <time>2018-06-12T09:07:33Z</time>
      </trkpt>
      <trkpt lat="42.327595" lon="1.166611">
        <ele>1818.6</ele>
        <time>2018-06-12T09:07:37Z</time>
      </trkpt>
      <trkpt lat="42.327506" lon="1.166329">
        <ele>1814.5</ele>
        <time>2018-06-12T09:07:43Z</time>
      </trkpt>
      <trkpt lat="42.327399" lon="1.166096">
        <ele>1815.2</ele>
        <time>2018-06-12T09:07:49Z</time>
      </trkpt>
      <trkpt lat="42.327307" lon="1.165971">
        <ele>1819.9</ele>
        <time>2018-06-12T09:07:52Z</time>
      </trkpt>
      <trkpt lat="42.327215" lon="1.165852">
        <ele>1826.0</ele>
        <time>2018-06-12T09:07:56Z</time>
      </trkpt>
      <trkpt lat="42.327235" lon="1.165781">
        <ele>1825.6</ele>
        <time>2018-06-12T09:07:57Z</time>
      </trkpt>
      <trkpt lat="42.327311" lon="1.165692">
        <ele>1823.2</ele>
        <time>2018-06-12T09:08:00Z</time>
      </trkpt>
      <trkpt lat="42.327418" lon="1.165646">
        <ele>1822.2</ele>
        <time>2018-06-12T09:08:03Z</time>
      </trkpt>
      <trkpt lat="42.327657" lon="1.165602">
        <ele>1821.0</ele>
        <time>2018-06-12T09:08:09Z</time>
      </trkpt>
      <trkpt lat="42.327814" lon="1.165598">
        <ele>1823.7</ele>
        <time>2018-06-12T09:08:14Z</time>
      </trkpt>
      <trkpt lat="42.329144" lon="1.165366">
        <ele>1818.3</ele>
        <time>2018-06-12T09:08:49Z</time>
      </trkpt>
      <trkpt lat="42.329261" lon="1.165374">
        <ele>1816.3</ele>
        <time>2018-06-12T09:08:52Z</time>
      </trkpt>
      <trkpt lat="42.329727" lon="1.165494">
        <ele>1807.6</ele>
        <time>2018-06-12T09:09:05Z</time>
      </trkpt>
      <trkpt lat="42.330658" lon="1.165443">
        <ele>1795.2</ele>
        <time>2018-06-12T09:09:29Z</time>
      </trkpt>
      <trkpt lat="42.331341" lon="1.165302">
        <ele>1791.0</ele>
        <time>2018-06-12T09:09:48Z</time>
      </trkpt>
      <trkpt lat="42.331497" lon="1.165242">
        <ele>1794.4</ele>
        <time>2018-06-12T09:09:52Z</time>
      </trkpt>
      <trkpt lat="42.331586" lon="1.165124">
        <ele>1796.6</ele>
        <time>2018-06-12T09:09:55Z</time>
      </trkpt>
      <trkpt lat="42.331638" lon="1.165008">
        <ele>1797.0</ele>
        <time>2018-06-12T09:09:58Z</time>
      </trkpt>
      <trkpt lat="42.331635" lon="1.164813">
        <ele>1796.3</ele>
        <time>2018-06-12T09:10:02Z</time>
      </trkpt>
      <trkpt lat="42.331506" lon="1.164179">
        <ele>1793.4</ele>
        <time>2018-06-12T09:10:15Z</time>
      </trkpt>
      <trkpt lat="42.331359" lon="1.163905">
        <ele>1793.6</ele>
        <time>2018-06-12T09:10:21Z</time>
      </trkpt>
      <trkpt lat="42.331070" lon="1.163288">
        <ele>1797.5</ele>
        <time>2018-06-12T09:10:35Z</time>
      </trkpt>
      <trkpt lat="42.330791" lon="1.162936">
        <ele>1789.1</ele>
        <time>2018-06-12T09:10:46Z</time>
      </trkpt>
      <trkpt lat="42.330399" lon="1.162626">
        <ele>1771.9</ele>
        <time>2018-06-12T09:10:58Z</time>
      </trkpt>
      <trkpt lat="42.330057" lon="1.162522">
        <ele>1774.0</ele>
        <time>2018-06-12T09:11:08Z</time>
      </trkpt>
      <trkpt lat="42.329798" lon="1.162176">
        <ele>1768.3</ele>
        <time>2018-06-12T09:11:17Z</time>
      </trkpt>
      <trkpt lat="42.329523" lon="1.161917">
        <ele>1764.2</ele>
        <time>2018-06-12T09:11:26Z</time>
      </trkpt>
      <trkpt lat="42.329292" lon="1.161815">
        <ele>1763.5</ele>
        <time>2018-06-12T09:11:33Z</time>
      </trkpt>
      <trkpt lat="42.328429" lon="1.161799">
        <ele>1785.9</ele>
        <time>2018-06-12T09:11:56Z</time>
      </trkpt>
      <trkpt lat="42.328384" lon="1.161782">
        <ele>1787.9</ele>
        <time>2018-06-12T09:11:57Z</time>
      </trkpt>
      <trkpt lat="42.328378" lon="1.161691">
        <ele>1789.8</ele>
        <time>2018-06-12T09:11:59Z</time>
      </trkpt>
      <trkpt lat="42.328439" lon="1.161580">
        <ele>1789.9</ele>
        <time>2018-06-12T09:12:02Z</time>
      </trkpt>
      <trkpt lat="42.328564" lon="1.161522">
        <ele>1786.2</ele>
        <time>2018-06-12T09:12:05Z</time>
      </trkpt>
      <trkpt lat="42.329035" lon="1.161144">
        <ele>1780.8</ele>
        <time>2018-06-12T09:12:20Z</time>
      </trkpt>
      <trkpt lat="42.329486" lon="1.160864">
        <ele>1783.5</ele>
        <time>2018-06-12T09:12:33Z</time>
      </trkpt>
      <trkpt lat="42.329797" lon="1.160618">
        <ele>1795.1</ele>
        <time>2018-06-12T09:12:43Z</time>
      </trkpt>
      <trkpt lat="42.329923" lon="1.160568">
        <ele>1796.5</ele>
        <time>2018-06-12T09:12:46Z</time>
      </trkpt>
      <trkpt lat="42.330256" lon="1.160568">
        <ele>1792.3</ele>
        <time>2018-06-12T09:12:55Z</time>
      </trkpt>
      <trkpt lat="42.330567" lon="1.160572">
        <ele>1785.3</ele>
        <time>2018-06-12T09:13:03Z</time>
      </trkpt>
      <trkpt lat="42.330647" lon="1.160545">
        <ele>1783.4</ele>
        <time>2018-06-12T09:13:06Z</time>
      </trkpt>
      <trkpt lat="42.330740" lon="1.160391">
        <ele>1782.3</ele>
        <time>2018-06-12T09:13:09Z</time>
      </trkpt>
      <trkpt lat="42.330738" lon="1.160075">
        <ele>1780.6</ele>
        <time>2018-06-12T09:13:16Z</time>
      </trkpt>
      <trkpt lat="42.330691" lon="1.159609">
        <ele>1783.9</ele>
        <time>2018-06-12T09:13:25Z</time>
      </trkpt>
      <trkpt lat="42.330637" lon="1.159350">
        <ele>1785.8</ele>
        <time>2018-06-12T09:13:30Z</time>
      </trkpt>
      <trkpt lat="42.330522" lon="1.158965">
        <ele>1790.8</ele>
        <time>2018-06-12T09:13:38Z</time>
      </trkpt>
      <trkpt lat="42.330267" lon="1.158152">
        <ele>1784.7</ele>
        <time>2018-06-12T09:13:56Z</time>
      </trkpt>
      <trkpt lat="42.329991" lon="1.157287">
        <ele>1787.4</ele>
        <time>2018-06-12T09:14:14Z</time>
      </trkpt>
      <trkpt lat="42.329834" lon="1.156860">
        <ele>1786.9</ele>
        <time>2018-06-12T09:14:23Z</time>
      </trkpt>
      <trkpt lat="42.329709" lon="1.156681">
        <ele>1788.2</ele>
        <time>2018-06-12T09:14:28Z</time>
      </trkpt>
      <trkpt lat="42.329481" lon="1.156457">
        <ele>1784.2</ele>
        <time>2018-06-12T09:14:35Z</time>
      </trkpt>
      <trkpt lat="42.329299" lon="1.156323">
        <ele>1772.4</ele>
        <time>2018-06-12T09:14:42Z</time>
      </trkpt>
      <trkpt lat="42.329163" lon="1.156266">
        <ele>1766.7</ele>
        <time>2018-06-12T09:14:46Z</time>
      </trkpt>
      <trkpt lat="42.328687" lon="1.156287">
        <ele>1763.1</ele>
        <time>2018-06-12T09:14:58Z</time>
      </trkpt>
      <trkpt lat="42.328610" lon="1.156234">
        <ele>1763.2</ele>
        <time>2018-06-12T09:15:00Z</time>
      </trkpt>
      <trkpt lat="42.328604" lon="1.156131">
        <ele>1764.8</ele>
        <time>2018-06-12T09:15:02Z</time>
      </trkpt>
      <trkpt lat="42.328646" lon="1.155997">
        <ele>1766.2</ele>
        <time>2018-06-12T09:15:05Z</time>
      </trkpt>
      <trkpt lat="42.328738" lon="1.155842">
        <ele>1766.3</ele>
        <time>2018-06-12T09:15:09Z</time>
      </trkpt>
      <trkpt lat="42.328933" lon="1.155606">
        <ele>1769.7</ele>
        <time>2018-06-12T09:15:16Z</time>
      </trkpt>
      <trkpt lat="42.329094" lon="1.155231">
        <ele>1776.9</ele>
        <time>2018-06-12T09:15:25Z</time>
      </trkpt>
      <trkpt lat="42.329209" lon="1.154869">
        <ele>1774.4</ele>
        <time>2018-06-12T09:15:32Z</time>
      </trkpt>
      <trkpt lat="42.329368" lon="1.154652">
        <ele>1773.5</ele>
        <time>2018-06-12T09:15:38Z</time>
      </trkpt>
      <trkpt lat="42.329999" lon="1.154118">
        <ele>1776.6</ele>
        <time>2018-06-12T09:15:58Z</time>
      </trkpt>
      <trkpt lat="42.330587" lon="1.153433">
        <ele>1764.2</ele>
        <time>2018-06-12T09:16:19Z</time>
      </trkpt>
      <trkpt lat="42.330718" lon="1.153168">
        <ele>1756.9</ele>
        <time>2018-06-12T09:16:25Z</time>
      </trkpt>
      <trkpt lat="42.330718" lon="1.152877">
        <ele>1758.3</ele>
        <time>2018-06-12T09:16:31Z</time>
      </trkpt>
      <trkpt lat="42.330768" lon="1.152639">
        <ele>1753.7</ele>
        <time>2018-06-12T09:16:36Z</time>
      </trkpt>
      <trkpt lat="42.330898" lon="1.152324">
        <ele>1750.6</ele>
        <time>2018-06-12T09:16:43Z</time>
      </trkpt>
      <trkpt lat="42.331135" lon="1.151669">
        <ele>1741.3</ele>
        <time>2018-06-12T09:16:57Z</time>
      </trkpt>
      <trkpt lat="42.331276" lon="1.151489">
        <ele>1740.9</ele>
        <time>2018-06-12T09:17:02Z</time>
      </trkpt>
      <trkpt lat="42.331447" lon="1.151193">
        <ele>1741.5</ele>
        <time>2018-06-12T09:17:10Z</time>
      </trkpt>
      <trkpt lat="42.331548" lon="1.150753">
        <ele>1743.8</ele>
        <time>2018-06-12T09:17:19Z</time>
      </trkpt>
      <trkpt lat="42.331666" lon="1.150245">
        <ele>1735.1</ele>
        <time>2018-06-12T09:17:29Z</time>
      </trkpt>
      <trkpt lat="42.331832" lon="1.149919">
        <ele>1729.3</ele>
        <time>2018-06-12T09:17:37Z</time>
      </trkpt>
      <trkpt lat="42.332035" lon="1.149670">
        <ele>1726.8</ele>
        <time>2018-06-12T09:17:44Z</time>
      </trkpt>
      <trkpt lat="42.332170" lon="1.149580">
        <ele>1727.9</ele>
        <time>2018-06-12T09:17:48Z</time>
      </trkpt>
      <trkpt lat="42.332437" lon="1.149440">
        <ele>1728.0</ele>
        <time>2018-06-12T09:17:56Z</time>
      </trkpt>
      <trkpt lat="42.332680" lon="1.149427">
        <ele>1726.6</ele>
        <time>2018-06-12T09:18:02Z</time>
      </trkpt>
      <trkpt lat="42.333141" lon="1.149540">
        <ele>1732.0</ele>
        <time>2018-06-12T09:18:15Z</time>
      </trkpt>
      <trkpt lat="42.333209" lon="1.149557">
        <ele>1734.4</ele>
        <time>2018-06-12T09:18:16Z</time>
      </trkpt>
      <trkpt lat="42.333299" lon="1.149536">
        <ele>1736.4</ele>
        <time>2018-06-12T09:18:19Z</time>
      </trkpt>
      <trkpt lat="42.333352" lon="1.149486">
        <ele>1736.5</ele>
        <time>2018-06-12T09:18:21Z</time>
      </trkpt>
      <trkpt lat="42.333373" lon="1.149388">
        <ele>1734.2</ele>
        <time>2018-06-12T09:18:23Z</time>
      </trkpt>
      <trkpt lat="42.333358" lon="1.149285">
        <ele>1731.1</ele>
        <time>2018-06-12T09:18:25Z</time>
      </trkpt>
      <trkpt lat="42.332937" lon="1.148624">
        <ele>1717.3</ele>
        <time>2018-06-12T09:18:42Z</time>
      </trkpt>
      <trkpt lat="42.332876" lon="1.148456">
        <ele>1716.8</ele>
        <time>2018-06-12T09:18:46Z</time>
      </trkpt>
      <trkpt lat="42.332714" lon="1.148187">
        <ele>1717.2</ele>
        <time>2018-06-12T09:18:53Z</time>
      </trkpt>
      <trkpt lat="42.332535" lon="1.147992">
        <ele>1708.5</ele>
        <time>2018-06-12T09:18:59Z</time>
      </trkpt>
      <trkpt lat="42.332253" lon="1.147521">
        <ele>1689.1</ele>
        <time>2018-06-12T09:19:12Z</time>
      </trkpt>
      <trkpt lat="42.332232" lon="1.147091">
        <ele>1687.0</ele>
        <time>2018-06-12T09:19:20Z</time>
      </trkpt>
      <trkpt lat="42.332197" lon="1.146965">
        <ele>1685.7</ele>
        <time>2018-06-12T09:19:23Z</time>
      </trkpt>
      <trkpt lat="42.332130" lon="1.146881">
        <ele>1683.2</ele>
        <time>2018-06-12T09:19:25Z</time>
      </trkpt>
      <trkpt lat="42.331921" lon="1.146766">
        <ele>1680.7</ele>
        <time>2018-06-12T09:19:31Z</time>
      </trkpt>
      <trkpt lat="42.331825" lon="1.146696">
        <ele>1681.1</ele>
        <time>2018-06-12T09:19:34Z</time>
      </trkpt>
      <trkpt lat="42.331792" lon="1.146576">
        <ele>1683.4</ele>
        <time>2018-06-12T09:19:36Z</time>
      </trkpt>
      <trkpt lat="42.331704" lon="1.146439">
        <ele>1681.8</ele>
        <time>2018-06-12T09:19:40Z</time>
      </trkpt>
      <trkpt lat="42.331571" lon="1.146303">
        <ele>1678.7</ele>
        <time>2018-06-12T09:19:44Z</time>
      </trkpt>
      <trkpt lat="42.331319" lon="1.146031">
        <ele>1673.7</ele>
        <time>2018-06-12T09:19:53Z</time>
      </trkpt>
      <trkpt lat="42.331199" lon="1.145834">
        <ele>1670.6</ele>
        <time>2018-06-12T09:19:58Z</time>
      </trkpt>
      <trkpt lat="42.330949" lon="1.145720">
        <ele>1668.9</ele>
        <time>2018-06-12T09:20:05Z</time>
      </trkpt>
      <trkpt lat="42.330721" lon="1.145608">
        <ele>1669.9</ele>
        <time>2018-06-12T09:20:11Z</time>
      </trkpt>
      <trkpt lat="42.330613" lon="1.145560">
        <ele>1670.7</ele>
        <time>2018-06-12T09:20:14Z</time>
      </trkpt>
      <trkpt lat="42.330487" lon="1.145558">
        <ele>1671.2</ele>
        <time>2018-06-12T09:20:18Z</time>
      </trkpt>
      <trkpt lat="42.330159" lon="1.145604">
        <ele>1667.6</ele>
        <time>2018-06-12T09:20:26Z</time>
      </trkpt>
      <trkpt lat="42.329888" lon="1.145539">
        <ele>1663.5</ele>
        <time>2018-06-12T09:20:34Z</time>
      </trkpt>
      <trkpt lat="42.329675" lon="1.145485">
        <ele>1660.0</ele>
        <time>2018-06-12T09:20:40Z</time>
      </trkpt>
      <trkpt lat="42.329517" lon="1.145373">
        <ele>1658.8</ele>
        <time>2018-06-12T09:20:44Z</time>
      </trkpt>
      <trkpt lat="42.329399" lon="1.145273">
        <ele>1659.5</ele>
        <time>2018-06-12T09:20:48Z</time>
      </trkpt>
      <trkpt lat="42.329280" lon="1.145149">
        <ele>1659.4</ele>
        <time>2018-06-12T09:20:52Z</time>
      </trkpt>
      <trkpt lat="42.328963" lon="1.144764">
        <ele>1661.8</ele>
        <time>2018-06-12T09:21:03Z</time>
      </trkpt>
      <trkpt lat="42.328835" lon="1.144636">
        <ele>1661.3</ele>
        <time>2018-06-12T09:21:07Z</time>
      </trkpt>
      <trkpt lat="42.328225" lon="1.144531">
        <ele>1657.0</ele>
        <time>2018-06-12T09:21:24Z</time>
      </trkpt>
      <trkpt lat="42.328139" lon="1.144470">
        <ele>1656.1</ele>
        <time>2018-06-12T09:21:26Z</time>
      </trkpt>
      <trkpt lat="42.328114" lon="1.144370">
        <ele>1657.0</ele>
        <time>2018-06-12T09:21:28Z</time>
      </trkpt>
      <trkpt lat="42.328111" lon="1.144170">
        <ele>1658.9</ele>
        <time>2018-06-12T09:21:32Z</time>
      </trkpt>
      <trkpt lat="42.328074" lon="1.144098">
        <ele>1658.5</ele>
        <time>2018-06-12T09:21:34Z</time>
      </trkpt>
      <trkpt lat="42.327987" lon="1.144022">
        <ele>1656.8</ele>
        <time>2018-06-12T09:21:37Z</time>
      </trkpt>
      <trkpt lat="42.327904" lon="1.143891">
        <ele>1653.7</ele>
        <time>2018-06-12T09:21:40Z</time>
      </trkpt>
      <trkpt lat="42.327850" lon="1.143731">
        <ele>1649.8</ele>
        <time>2018-06-12T09:21:44Z</time>
      </trkpt>
      <trkpt lat="42.327809" lon="1.143323">
        <ele>1636.0</ele>
        <time>2018-06-12T09:21:52Z</time>
      </trkpt>
      <trkpt lat="42.327692" lon="1.142523">
        <ele>1614.2</ele>
        <time>2018-06-12T09:22:09Z</time>
      </trkpt>
      <trkpt lat="42.327577" lon="1.142389">
        <ele>1609.3</ele>
        <time>2018-06-12T09:22:13Z</time>
      </trkpt>
      <trkpt lat="42.327485" lon="1.142271">
        <ele>1607.5</ele>
        <time>2018-06-12T09:22:16Z</time>
      </trkpt>
      <trkpt lat="42.327428" lon="1.142060">
        <ele>1608.8</ele>
        <time>2018-06-12T09:22:21Z</time>
      </trkpt>
      <trkpt lat="42.327354" lon="1.141692">
        <ele>1607.4</ele>
        <time>2018-06-12T09:22:28Z</time>
      </trkpt>
      <trkpt lat="42.327394" lon="1.141375">
        <ele>1608.3</ele>
        <time>2018-06-12T09:22:35Z</time>
      </trkpt>
      <trkpt lat="42.327394" lon="1.141224">
        <ele>1608.2</ele>
        <time>2018-06-12T09:22:37Z</time>
      </trkpt>
      <trkpt lat="42.327382" lon="1.141145">
        <ele>1606.7</ele>
        <time>2018-06-12T09:22:39Z</time>
      </trkpt>
      <trkpt lat="42.327302" lon="1.140941">
        <ele>1601.4</ele>
        <time>2018-06-12T09:22:44Z</time>
      </trkpt>
      <trkpt lat="42.327310" lon="1.140589">
        <ele>1596.2</ele>
        <time>2018-06-12T09:22:51Z</time>
      </trkpt>
      <trkpt lat="42.327371" lon="1.140229">
        <ele>1591.1</ele>
        <time>2018-06-12T09:22:58Z</time>
      </trkpt>
      <trkpt lat="42.327323" lon="1.140036">
        <ele>1585.6</ele>
        <time>2018-06-12T09:23:02Z</time>
      </trkpt>
      <trkpt lat="42.327245" lon="1.139935">
        <ele>1582.2</ele>
        <time>2018-06-12T09:23:05Z</time>
      </trkpt>
      <trkpt lat="42.327100" lon="1.139879">
        <ele>1579.4</ele>
        <time>2018-06-12T09:23:09Z</time>
      </trkpt>
      <trkpt lat="42.327040" lon="1.139783">
        <ele>1578.0</ele>
        <time>2018-06-12T09:23:12Z</time>
      </trkpt>
      <trkpt lat="42.327046" lon="1.139601">
        <ele>1578.1</ele>
        <time>2018-06-12T09:23:15Z</time>
      </trkpt>
      <trkpt lat="42.327000" lon="1.139287">
        <ele>1575.4</ele>
        <time>2018-06-12T09:23:21Z</time>
      </trkpt>
      <trkpt lat="42.326897" lon="1.139053">
        <ele>1572.1</ele>
        <time>2018-06-12T09:23:27Z</time>
      </trkpt>
      <trkpt lat="42.326854" lon="1.138866">
        <ele>1568.7</ele>
        <time>2018-06-12T09:23:31Z</time>
      </trkpt>
      <trkpt lat="42.326822" lon="1.138558">
        <ele>1564.9</ele>
        <time>2018-06-12T09:23:37Z</time>
      </trkpt>
      <trkpt lat="42.326814" lon="1.138346">
        <ele>1565.0</ele>
        <time>2018-06-12T09:23:41Z</time>
      </trkpt>
      <trkpt lat="42.326786" lon="1.138196">
        <ele>1565.3</ele>
        <time>2018-06-12T09:23:44Z</time>
      </trkpt>
      <trkpt lat="42.326748" lon="1.138014">
        <ele>1563.7</ele>
        <time>2018-06-12T09:23:48Z</time>
      </trkpt>
      <trkpt lat="42.326691" lon="1.137739">
        <ele>1564.3</ele>
        <time>2018-06-12T09:23:53Z</time>
      </trkpt>
      <trkpt lat="42.326626" lon="1.137410">
        <ele>1568.2</ele>
        <time>2018-06-12T09:24:00Z</time>
      </trkpt>
      <trkpt lat="42.326520" lon="1.137047">
        <ele>1571.4</ele>
        <time>2018-06-12T09:24:08Z</time>
      </trkpt>
      <trkpt lat="42.326533" lon="1.136867">
        <ele>1574.1</ele>
        <time>2018-06-12T09:24:11Z</time>
      </trkpt>
      <trkpt lat="42.326623" lon="1.136393">
        <ele>1572.8</ele>
        <time>2018-06-12T09:24:21Z</time>
      </trkpt>
      <trkpt lat="42.326665" lon="1.136141">
        <ele>1570.9</ele>
        <time>2018-06-12T09:24:26Z</time>
      </trkpt>
      <trkpt lat="42.326662" lon="1.135941">
        <ele>1569.7</ele>
        <time>2018-06-12T09:24:30Z</time>
      </trkpt>
      <trkpt lat="42.326638" lon="1.135577">
        <ele>1565.3</ele>
        <time>2018-06-12T09:24:37Z</time>
      </trkpt>
      <trkpt lat="42.326616" lon="1.135305">
        <ele>1561.9</ele>
        <time>2018-06-12T09:24:42Z</time>
      </trkpt>
      <trkpt lat="42.326567" lon="1.135100">
        <ele>1559.7</ele>
        <time>2018-06-12T09:24:46Z</time>
      </trkpt>
      <trkpt lat="42.326569" lon="1.134954">
        <ele>1557.8</ele>
        <time>2018-06-12T09:24:49Z</time>
      </trkpt>
      <trkpt lat="42.326599" lon="1.134862">
        <ele>1556.5</ele>
        <time>2018-06-12T09:24:51Z</time>
      </trkpt>
      <trkpt lat="42.326678" lon="1.134690">
        <ele>1555.0</ele>
        <time>2018-06-12T09:24:55Z</time>
      </trkpt>
      <trkpt lat="42.326711" lon="1.134537">
        <ele>1554.1</ele>
        <time>2018-06-12T09:24:58Z</time>
      </trkpt>
      <trkpt lat="42.326753" lon="1.134348">
        <ele>1552.7</ele>
        <time>2018-06-12T09:25:02Z</time>
      </trkpt>
      <trkpt lat="42.326805" lon="1.134207">
        <ele>1550.6</ele>
        <time>2018-06-12T09:25:05Z</time>
      </trkpt>
      <trkpt lat="42.326863" lon="1.134145">
        <ele>1549.6</ele>
        <time>2018-06-12T09:25:07Z</time>
      </trkpt>
      <trkpt lat="42.326965" lon="1.134050">
        <ele>1548.8</ele>
        <time>2018-06-12T09:25:11Z</time>
      </trkpt>
      <trkpt lat="42.327013" lon="1.133988">
        <ele>1548.5</ele>
        <time>2018-06-12T09:25:12Z</time>
      </trkpt>
      <trkpt lat="42.327134" lon="1.133764">
        <ele>1547.1</ele>
        <time>2018-06-12T09:25:18Z</time>
      </trkpt>
      <trkpt lat="42.327233" lon="1.133357">
        <ele>1547.1</ele>
        <time>2018-06-12T09:25:26Z</time>
      </trkpt>
      <trkpt lat="42.327279" lon="1.133173">
        <ele>1546.2</ele>
        <time>2018-06-12T09:25:30Z</time>
      </trkpt>
      <trkpt lat="42.327295" lon="1.133045">
        <ele>1545.5</ele>
        <time>2018-06-12T09:25:32Z</time>
      </trkpt>
      <trkpt lat="42.327298" lon="1.132936">
        <ele>1545.0</ele>
        <time>2018-06-12T09:25:35Z</time>
      </trkpt>
      <trkpt lat="42.327268" lon="1.132797">
        <ele>1545.1</ele>
        <time>2018-06-12T09:25:37Z</time>
      </trkpt>
      <trkpt lat="42.327219" lon="1.132556">
        <ele>1545.5</ele>
        <time>2018-06-12T09:25:42Z</time>
      </trkpt>
      <trkpt lat="42.327198" lon="1.132332">
        <ele>1544.9</ele>
        <time>2018-06-12T09:25:47Z</time>
      </trkpt>
      <trkpt lat="42.327196" lon="1.132205">
        <ele>1544.9</ele>
        <time>2018-06-12T09:25:49Z</time>
      </trkpt>
      <trkpt lat="42.327253" lon="1.131839">
        <ele>1542.1</ele>
        <time>2018-06-12T09:25:56Z</time>
      </trkpt>
      <trkpt lat="42.327246" lon="1.131675">
        <ele>1540.4</ele>
        <time>2018-06-12T09:26:00Z</time>
      </trkpt>
      <trkpt lat="42.327221" lon="1.131536">
        <ele>1539.7</ele>
        <time>2018-06-12T09:26:02Z</time>
      </trkpt>
      <trkpt lat="42.327155" lon="1.131350">
        <ele>1541.7</ele>
        <time>2018-06-12T09:26:06Z</time>
      </trkpt>
      <trkpt lat="42.326932" lon="1.130422">
        <ele>1537.1</ele>
        <time>2018-06-12T09:26:25Z</time>
      </trkpt>
      <trkpt lat="42.326930" lon="1.130270">
        <ele>1536.7</ele>
        <time>2018-06-12T09:26:28Z</time>
      </trkpt>
      <trkpt lat="42.326961" lon="1.129942">
        <ele>1533.1</ele>
        <time>2018-06-12T09:26:35Z</time>
      </trkpt>
      <trkpt lat="42.326965" lon="1.129681">
        <ele>1530.1</ele>
        <time>2018-06-12T09:26:40Z</time>
      </trkpt>
      <trkpt lat="42.326951" lon="1.129353">
        <ele>1529.2</ele>
        <time>2018-06-12T09:26:46Z</time>
      </trkpt>
      <trkpt lat="42.326948" lon="1.128862">
        <ele>1522.2</ele>
        <time>2018-06-12T09:26:56Z</time>
      </trkpt>
      <trkpt lat="42.327002" lon="1.128357">
        <ele>1526.0</ele>
        <time>2018-06-12T09:27:06Z</time>
      </trkpt>
      <trkpt lat="42.327023" lon="1.128259">
        <ele>1528.2</ele>
        <time>2018-06-12T09:27:08Z</time>
      </trkpt>
      <trkpt lat="42.327187" lon="1.127823">
        <ele>1526.2</ele>
        <time>2018-06-12T09:27:18Z</time>
      </trkpt>
      <trkpt lat="42.327279" lon="1.127626">
        <ele>1521.4</ele>
        <time>2018-06-12T09:27:22Z</time>
      </trkpt>
      <trkpt lat="42.327471" lon="1.127281">
        <ele>1508.2</ele>
        <time>2018-06-12T09:27:31Z</time>
      </trkpt>
      <trkpt lat="42.327578" lon="1.127029">
        <ele>1501.1</ele>
        <time>2018-06-12T09:27:37Z</time>
      </trkpt>
      <trkpt lat="42.327605" lon="1.126949">
        <ele>1499.5</ele>
        <time>2018-06-12T09:27:39Z</time>
      </trkpt>
      <trkpt lat="42.327645" lon="1.126644">
        <ele>1497.4</ele>
        <time>2018-06-12T09:27:45Z</time>
      </trkpt>
      <trkpt lat="42.327708" lon="1.126041">
        <ele>1487.6</ele>
        <time>2018-06-12T09:27:57Z</time>
      </trkpt>
      <trkpt lat="42.327697" lon="1.125945">
        <ele>1486.9</ele>
        <time>2018-06-12T09:27:59Z</time>
      </trkpt>
      <trkpt lat="42.327668" lon="1.125848">
        <ele>1487.2</ele>
        <time>2018-06-12T09:28:01Z</time>
      </trkpt>
      <trkpt lat="42.327612" lon="1.125723">
        <ele>1488.0</ele>
        <time>2018-06-12T09:28:04Z</time>
      </trkpt>
      <trkpt lat="42.327555" lon="1.125530">
        <ele>1488.8</ele>
        <time>2018-06-12T09:28:08Z</time>
      </trkpt>
      <trkpt lat="42.327542" lon="1.125276">
        <ele>1487.4</ele>
        <time>2018-06-12T09:28:13Z</time>
      </trkpt>
      <trkpt lat="42.327563" lon="1.125190">
        <ele>1486.1</ele>
        <time>2018-06-12T09:28:15Z</time>
      </trkpt>
      <trkpt lat="42.327611" lon="1.125085">
        <ele>1483.0</ele>
        <time>2018-06-12T09:28:17Z</time>
      </trkpt>
      <trkpt lat="42.327664" lon="1.125005">
        <ele>1479.5</ele>
        <time>2018-06-12T09:28:20Z</time>
      </trkpt>
      <trkpt lat="42.327743" lon="1.124869">
        <ele>1471.8</ele>
        <time>2018-06-12T09:28:23Z</time>
      </trkpt>
      <trkpt lat="42.327764" lon="1.124808">
        <ele>1468.2</ele>
        <time>2018-06-12T09:28:25Z</time>
      </trkpt>
      <trkpt lat="42.327802" lon="1.124661">
        <ele>1460.9</ele>
        <time>2018-06-12T09:28:28Z</time>
      </trkpt>
      <trkpt lat="42.327827" lon="1.124515">
        <ele>1454.6</ele>
        <time>2018-06-12T09:28:32Z</time>
      </trkpt>
      <trkpt lat="42.327825" lon="1.124405">
        <ele>1449.9</ele>
        <time>2018-06-12T09:28:34Z</time>
      </trkpt>
      <trkpt lat="42.327797" lon="1.124321">
        <ele>1447.1</ele>
        <time>2018-06-12T09:28:36Z</time>
      </trkpt>
      <trkpt lat="42.327750" lon="1.124232">
        <ele>1445.7</ele>
        <time>2018-06-12T09:28:38Z</time>
      </trkpt>
      <trkpt lat="42.327670" lon="1.124132">
        <ele>1446.0</ele>
        <time>2018-06-12T09:28:41Z</time>
      </trkpt>
      <trkpt lat="42.327594" lon="1.124072">
        <ele>1446.2</ele>
        <time>2018-06-12T09:28:43Z</time>
      </trkpt>
      <trkpt lat="42.327460" lon="1.124045">
        <ele>1446.2</ele>
        <time>2018-06-12T09:28:47Z</time>
      </trkpt>
      <trkpt lat="42.327445" lon="1.124004">
        <ele>1445.4</ele>
        <time>2018-06-12T09:28:48Z</time>
      </trkpt>
      <trkpt lat="42.327459" lon="1.123952">
        <ele>1444.5</ele>
        <time>2018-06-12T09:28:49Z</time>
      </trkpt>
      <trkpt lat="42.327527" lon="1.123856">
        <ele>1441.9</ele>
        <time>2018-06-12T09:28:52Z</time>
      </trkpt>
      <trkpt lat="42.327610" lon="1.123846">
        <ele>1440.3</ele>
        <time>2018-06-12T09:28:54Z</time>
      </trkpt>
      <trkpt lat="42.327841" lon="1.124017">
        <ele>1435.3</ele>
        <time>2018-06-12T09:29:01Z</time>
      </trkpt>
      <trkpt lat="42.327864" lon="1.124004">
        <ele>1434.1</ele>
        <time>2018-06-12T09:29:02Z</time>
      </trkpt>
      <trkpt lat="42.327858" lon="1.123949">
        <ele>1433.6</ele>
        <time>2018-06-12T09:29:03Z</time>
      </trkpt>
      <trkpt lat="42.327789" lon="1.123860">
        <ele>1434.8</ele>
        <time>2018-06-12T09:29:05Z</time>
      </trkpt>
      <trkpt lat="42.327702" lon="1.123796">
        <ele>1436.3</ele>
        <time>2018-06-12T09:29:08Z</time>
      </trkpt>
      <trkpt lat="42.327663" lon="1.123759">
        <ele>1436.5</ele>
        <time>2018-06-12T09:29:09Z</time>
      </trkpt>
      <trkpt lat="42.327661" lon="1.123731">
        <ele>1436.0</ele>
        <time>2018-06-12T09:29:10Z</time>
      </trkpt>
      <trkpt lat="42.327688" lon="1.123718">
        <ele>1435.1</ele>
        <time>2018-06-12T09:29:10Z</time>
      </trkpt>
      <trkpt lat="42.327751" lon="1.123716">
        <ele>1433.2</ele>
        <time>2018-06-12T09:29:12Z</time>
      </trkpt>
      <trkpt lat="42.327868" lon="1.123730">
        <ele>1430.2</ele>
        <time>2018-06-12T09:29:15Z</time>
      </trkpt>
      <trkpt lat="42.327940" lon="1.123751">
        <ele>1428.1</ele>
        <time>2018-06-12T09:29:17Z</time>
      </trkpt>
      <trkpt lat="42.328013" lon="1.123811">
        <ele>1426.7</ele>
        <time>2018-06-12T09:29:20Z</time>
      </trkpt>
      <trkpt lat="42.328100" lon="1.123875">
        <ele>1425.8</ele>
        <time>2018-06-12T09:29:22Z</time>
      </trkpt>
      <trkpt lat="42.328169" lon="1.123964">
        <ele>1427.1</ele>
        <time>2018-06-12T09:29:25Z</time>
      </trkpt>
      <trkpt lat="42.328187" lon="1.123976">
        <ele>1427.2</ele>
        <time>2018-06-12T09:29:25Z</time>
      </trkpt>
      <trkpt lat="42.328196" lon="1.123933">
        <ele>1425.6</ele>
        <time>2018-06-12T09:29:26Z</time>
      </trkpt>
      <trkpt lat="42.328173" lon="1.123643">
        <ele>1419.7</ele>
        <time>2018-06-12T09:29:32Z</time>
      </trkpt>
      <trkpt lat="42.328153" lon="1.123516">
        <ele>1420.1</ele>
        <time>2018-06-12T09:29:35Z</time>
      </trkpt>
      <trkpt lat="42.328129" lon="1.123437">
        <ele>1420.0</ele>
        <time>2018-06-12T09:29:36Z</time>
      </trkpt>
      <trkpt lat="42.328109" lon="1.123347">
        <ele>1419.0</ele>
        <time>2018-06-12T09:29:38Z</time>
      </trkpt>
      <trkpt lat="42.328104" lon="1.123311">
        <ele>1418.5</ele>
        <time>2018-06-12T09:29:39Z</time>
      </trkpt>
      <trkpt lat="42.328122" lon="1.123286">
        <ele>1417.6</ele>
        <time>2018-06-12T09:29:40Z</time>
      </trkpt>
      <trkpt lat="42.328176" lon="1.123309">
        <ele>1416.6</ele>
        <time>2018-06-12T09:29:41Z</time>
      </trkpt>
      <trkpt lat="42.328254" lon="1.123349">
        <ele>1415.8</ele>
        <time>2018-06-12T09:29:43Z</time>
      </trkpt>
      <trkpt lat="42.328468" lon="1.123512">
        <ele>1414.9</ele>
        <time>2018-06-12T09:29:50Z</time>
      </trkpt>
      <trkpt lat="42.328536" lon="1.123547">
        <ele>1412.8</ele>
        <time>2018-06-12T09:29:52Z</time>
      </trkpt>
      <trkpt lat="42.328577" lon="1.123570">
        <ele>1411.4</ele>
        <time>2018-06-12T09:29:53Z</time>
      </trkpt>
      <trkpt lat="42.328596" lon="1.123606">
        <ele>1411.1</ele>
        <time>2018-06-12T09:29:54Z</time>
      </trkpt>
      <trkpt lat="42.328632" lon="1.123653">
        <ele>1410.1</ele>
        <time>2018-06-12T09:29:55Z</time>
      </trkpt>
      <trkpt lat="42.328660" lon="1.123707">
        <ele>1409.3</ele>
        <time>2018-06-12T09:29:56Z</time>
      </trkpt>
      <trkpt lat="42.328692" lon="1.123724">
        <ele>1407.8</ele>
        <time>2018-06-12T09:29:57Z</time>
      </trkpt>
      <trkpt lat="42.328714" lon="1.123699">
        <ele>1406.5</ele>
        <time>2018-06-12T09:29:58Z</time>
      </trkpt>
      <trkpt lat="42.328732" lon="1.123662">
        <ele>1405.2</ele>
        <time>2018-06-12T09:29:59Z</time>
      </trkpt>
      <trkpt lat="42.328795" lon="1.123412">
        <ele>1401.9</ele>
        <time>2018-06-12T09:30:04Z</time>
      </trkpt>
      <trkpt lat="42.328800" lon="1.123291">
        <ele>1401.1</ele>
        <time>2018-06-12T09:30:07Z</time>
      </trkpt>
      <trkpt lat="42.328759" lon="1.123157">
        <ele>1400.8</ele>
        <time>2018-06-12T09:30:10Z</time>
      </trkpt>
      <trkpt lat="42.328686" lon="1.123048">
        <ele>1401.9</ele>
        <time>2018-06-12T09:30:12Z</time>
      </trkpt>
      <trkpt lat="42.328510" lon="1.122885">
        <ele>1402.5</ele>
        <time>2018-06-12T09:30:18Z</time>
      </trkpt>
      <trkpt lat="42.328358" lon="1.122704">
        <ele>1398.4</ele>
        <time>2018-06-12T09:30:23Z</time>
      </trkpt>
      <trkpt lat="42.328184" lon="1.122471">
        <ele>1392.7</ele>
        <time>2018-06-12T09:30:30Z</time>
      </trkpt>
      <trkpt lat="42.328001" lon="1.122354">
        <ele>1392.9</ele>
        <time>2018-06-12T09:30:35Z</time>
      </trkpt>
      <trkpt lat="42.327899" lon="1.122340">
        <ele>1394.3</ele>
        <time>2018-06-12T09:30:38Z</time>
      </trkpt>
      <trkpt lat="42.327813" lon="1.122357">
        <ele>1394.9</ele>
        <time>2018-06-12T09:30:40Z</time>
      </trkpt>
      <trkpt lat="42.327752" lon="1.122411">
        <ele>1396.6</ele>
        <time>2018-06-12T09:30:42Z</time>
      </trkpt>
      <trkpt lat="42.327684" lon="1.122434">
        <ele>1397.5</ele>
        <time>2018-06-12T09:30:44Z</time>
      </trkpt>
      <trkpt lat="42.327582" lon="1.122366">
        <ele>1395.0</ele>
        <time>2018-06-12T09:30:47Z</time>
      </trkpt>
      <trkpt lat="42.327491" lon="1.122373">
        <ele>1394.9</ele>
        <time>2018-06-12T09:30:50Z</time>
      </trkpt>
      <trkpt lat="42.327368" lon="1.122432">
        <ele>1397.1</ele>
        <time>2018-06-12T09:30:53Z</time>
      </trkpt>
      <trkpt lat="42.327310" lon="1.122446">
        <ele>1398.3</ele>
        <time>2018-06-12T09:30:55Z</time>
      </trkpt>
      <trkpt lat="42.327251" lon="1.122425">
        <ele>1398.2</ele>
        <time>2018-06-12T09:30:56Z</time>
      </trkpt>
      <trkpt lat="42.327000" lon="1.122113">
        <ele>1389.6</ele>
        <time>2018-06-12T09:31:06Z</time>
      </trkpt>
      <trkpt lat="42.326941" lon="1.122101">
        <ele>1390.7</ele>
        <time>2018-06-12T09:31:07Z</time>
      </trkpt>
      <trkpt lat="42.326844" lon="1.122141">
        <ele>1394.8</ele>
        <time>2018-06-12T09:31:10Z</time>
      </trkpt>
      <trkpt lat="42.326747" lon="1.122134">
        <ele>1398.8</ele>
        <time>2018-06-12T09:31:13Z</time>
      </trkpt>
      <trkpt lat="42.326701" lon="1.122064">
        <ele>1399.0</ele>
        <time>2018-06-12T09:31:15Z</time>
      </trkpt>
      <trkpt lat="42.326702" lon="1.121986">
        <ele>1396.7</ele>
        <time>2018-06-12T09:31:16Z</time>
      </trkpt>
      <trkpt lat="42.326744" lon="1.121938">
        <ele>1392.8</ele>
        <time>2018-06-12T09:31:18Z</time>
      </trkpt>
      <trkpt lat="42.326905" lon="1.121846">
        <ele>1384.0</ele>
        <time>2018-06-12T09:31:23Z</time>
      </trkpt>
      <trkpt lat="42.327046" lon="1.121837">
        <ele>1380.6</ele>
        <time>2018-06-12T09:31:27Z</time>
      </trkpt>
      <trkpt lat="42.327182" lon="1.121939">
        <ele>1383.3</ele>
        <time>2018-06-12T09:31:31Z</time>
      </trkpt>
      <trkpt lat="42.327274" lon="1.121974">
        <ele>1384.7</ele>
        <time>2018-06-12T09:31:33Z</time>
      </trkpt>
      <trkpt lat="42.327415" lon="1.121962">
        <ele>1385.7</ele>
        <time>2018-06-12T09:31:37Z</time>
      </trkpt>
      <trkpt lat="42.327587" lon="1.121921">
        <ele>1386.1</ele>
        <time>2018-06-12T09:31:42Z</time>
      </trkpt>
      <trkpt lat="42.327862" lon="1.121894">
        <ele>1381.6</ele>
        <time>2018-06-12T09:31:49Z</time>
      </trkpt>
      <trkpt lat="42.328205" lon="1.121925">
        <ele>1374.3</ele>
        <time>2018-06-12T09:31:58Z</time>
      </trkpt>
      <trkpt lat="42.328445" lon="1.121992">
        <ele>1372.5</ele>
        <time>2018-06-12T09:32:05Z</time>
      </trkpt>
      <trkpt lat="42.328584" lon="1.122074">
        <ele>1374.3</ele>
        <time>2018-06-12T09:32:09Z</time>
      </trkpt>
      <trkpt lat="42.328677" lon="1.122162">
        <ele>1378.3</ele>
        <time>2018-06-12T09:32:12Z</time>
      </trkpt>
      <trkpt lat="42.328755" lon="1.122169">
        <ele>1378.9</ele>
        <time>2018-06-12T09:32:14Z</time>
      </trkpt>
      <trkpt lat="42.328801" lon="1.122137">
        <ele>1376.9</ele>
        <time>2018-06-12T09:32:15Z</time>
      </trkpt>
      <trkpt lat="42.328844" lon="1.122072">
        <ele>1373.6</ele>
        <time>2018-06-12T09:32:17Z</time>
      </trkpt>
      <trkpt lat="42.328929" lon="1.121953">
        <ele>1368.7</ele>
        <time>2018-06-12T09:32:21Z</time>
      </trkpt>
      <trkpt lat="42.329066" lon="1.121881">
        <ele>1365.1</ele>
        <time>2018-06-12T09:32:25Z</time>
      </trkpt>
      <trkpt lat="42.329138" lon="1.121890">
        <ele>1365.1</ele>
        <time>2018-06-12T09:32:27Z</time>
      </trkpt>
      <trkpt lat="42.329197" lon="1.121842">
        <ele>1363.5</ele>
        <time>2018-06-12T09:32:28Z</time>
      </trkpt>
      <trkpt lat="42.329214" lon="1.121768">
        <ele>1361.3</ele>
        <time>2018-06-12T09:32:30Z</time>
      </trkpt>
      <trkpt lat="42.329183" lon="1.121719">
        <ele>1359.5</ele>
        <time>2018-06-12T09:32:31Z</time>
      </trkpt>
      <trkpt lat="42.329110" lon="1.121702">
        <ele>1359.0</ele>
        <time>2018-06-12T09:32:33Z</time>
      </trkpt>
      <trkpt lat="42.328918" lon="1.121768">
        <ele>1361.5</ele>
        <time>2018-06-12T09:32:39Z</time>
      </trkpt>
      <trkpt lat="42.328794" lon="1.121851">
        <ele>1365.4</ele>
        <time>2018-06-12T09:32:42Z</time>
      </trkpt>
      <trkpt lat="42.328738" lon="1.121850">
        <ele>1365.7</ele>
        <time>2018-06-12T09:32:44Z</time>
      </trkpt>
      <trkpt lat="42.328664" lon="1.121802">
        <ele>1364.5</ele>
        <time>2018-06-12T09:32:46Z</time>
      </trkpt>
      <trkpt lat="42.328598" lon="1.121729">
        <ele>1362.2</ele>
        <time>2018-06-12T09:32:48Z</time>
      </trkpt>
      <trkpt lat="42.328525" lon="1.121624">
        <ele>1359.4</ele>
        <time>2018-06-12T09:32:51Z</time>
      </trkpt>
      <trkpt lat="42.328401" lon="1.121516">
        <ele>1358.0</ele>
        <time>2018-06-12T09:32:55Z</time>
      </trkpt>
      <trkpt lat="42.328270" lon="1.121447">
        <ele>1358.4</ele>
        <time>2018-06-12T09:32:59Z</time>
      </trkpt>
      <trkpt lat="42.327980" lon="1.121350">
        <ele>1360.7</ele>
        <time>2018-06-12T09:33:07Z</time>
      </trkpt>
      <trkpt lat="42.327809" lon="1.121310">
        <ele>1363.1</ele>
        <time>2018-06-12T09:33:11Z</time>
      </trkpt>
      <trkpt lat="42.327737" lon="1.121287">
        <ele>1364.0</ele>
        <time>2018-06-12T09:33:13Z</time>
      </trkpt>
      <trkpt lat="42.327697" lon="1.121253">
        <ele>1363.8</ele>
        <time>2018-06-12T09:33:14Z</time>
      </trkpt>
      <trkpt lat="42.327665" lon="1.121206">
        <ele>1362.9</ele>
        <time>2018-06-12T09:33:16Z</time>
      </trkpt>
      <trkpt lat="42.327627" lon="1.121122">
        <ele>1360.7</ele>
        <time>2018-06-12T09:33:18Z</time>
      </trkpt>
      <trkpt lat="42.327618" lon="1.121026">
        <ele>1357.5</ele>
        <time>2018-06-12T09:33:20Z</time>
      </trkpt>
      <trkpt lat="42.327508" lon="1.120458">
        <ele>1346.6</ele>
        <time>2018-06-12T09:33:31Z</time>
      </trkpt>
      <trkpt lat="42.327469" lon="1.120318">
        <ele>1344.7</ele>
        <time>2018-06-12T09:33:34Z</time>
      </trkpt>
      <trkpt lat="42.327356" lon="1.119959">
        <ele>1340.5</ele>
        <time>2018-06-12T09:33:42Z</time>
      </trkpt>
      <trkpt lat="42.327289" lon="1.119821">
        <ele>1337.9</ele>
        <time>2018-06-12T09:33:45Z</time>
      </trkpt>
      <trkpt lat="42.327241" lon="1.119771">
        <ele>1337.2</ele>
        <time>2018-06-12T09:33:47Z</time>
      </trkpt>
      <trkpt lat="42.327176" lon="1.119763">
        <ele>1337.6</ele>
        <time>2018-06-12T09:33:49Z</time>
      </trkpt>
      <trkpt lat="42.327110" lon="1.119736">
        <ele>1337.6</ele>
        <time>2018-06-12T09:33:51Z</time>
      </trkpt>
      <trkpt lat="42.326981" lon="1.119605">
        <ele>1336.3</ele>
        <time>2018-06-12T09:33:55Z</time>
      </trkpt>
      <trkpt lat="42.326944" lon="1.119576">
        <ele>1336.4</ele>
        <time>2018-06-12T09:33:56Z</time>
      </trkpt>
      <trkpt lat="42.326881" lon="1.119566">
        <ele>1337.4</ele>
        <time>2018-06-12T09:33:58Z</time>
      </trkpt>
      <trkpt lat="42.326804" lon="1.119569">
        <ele>1338.9</ele>
        <time>2018-06-12T09:34:00Z</time>
      </trkpt>
      <trkpt lat="42.326769" lon="1.119612">
        <ele>1340.1</ele>
        <time>2018-06-12T09:34:01Z</time>
      </trkpt>
      <trkpt lat="42.326727" lon="1.119690">
        <ele>1342.2</ele>
        <time>2018-06-12T09:34:03Z</time>
      </trkpt>
      <trkpt lat="42.326679" lon="1.119774">
        <ele>1344.6</ele>
        <time>2018-06-12T09:34:05Z</time>
      </trkpt>
      <trkpt lat="42.326623" lon="1.119886">
        <ele>1348.2</ele>
        <time>2018-06-12T09:34:08Z</time>
      </trkpt>
      <trkpt lat="42.326553" lon="1.119934">
        <ele>1351.2</ele>
        <time>2018-06-12T09:34:10Z</time>
      </trkpt>
      <trkpt lat="42.326494" lon="1.119901">
        <ele>1352.3</ele>
        <time>2018-06-12T09:34:12Z</time>
      </trkpt>
      <trkpt lat="42.326393" lon="1.119812">
        <ele>1354.1</ele>
        <time>2018-06-12T09:34:15Z</time>
      </trkpt>
      <trkpt lat="42.326262" lon="1.119649">
        <ele>1354.5</ele>
        <time>2018-06-12T09:34:20Z</time>
      </trkpt>
      <trkpt lat="42.326132" lon="1.119377">
        <ele>1348.1</ele>
        <time>2018-06-12T09:34:26Z</time>
      </trkpt>
      <trkpt lat="42.326063" lon="1.119167">
        <ele>1345.9</ele>
        <time>2018-06-12T09:34:31Z</time>
      </trkpt>
      <trkpt lat="42.326004" lon="1.118948">
        <ele>1344.6</ele>
        <time>2018-06-12T09:34:35Z</time>
      </trkpt>
      <trkpt lat="42.325932" lon="1.118794">
        <ele>1346.4</ele>
        <time>2018-06-12T09:34:39Z</time>
      </trkpt>
      <trkpt lat="42.325836" lon="1.118740">
        <ele>1348.9</ele>
        <time>2018-06-12T09:34:41Z</time>
      </trkpt>
      <trkpt lat="42.325724" lon="1.118750">
        <ele>1352.2</ele>
        <time>2018-06-12T09:34:45Z</time>
      </trkpt>
      <trkpt lat="42.325638" lon="1.118709">
        <ele>1356.5</ele>
        <time>2018-06-12T09:34:47Z</time>
      </trkpt>
      <trkpt lat="42.325614" lon="1.118645">
        <ele>1358.1</ele>
        <time>2018-06-12T09:34:49Z</time>
      </trkpt>
      <trkpt lat="42.325614" lon="1.118583">
        <ele>1358.2</ele>
        <time>2018-06-12T09:34:50Z</time>
      </trkpt>
      <trkpt lat="42.325645" lon="1.118431">
        <ele>1356.3</ele>
        <time>2018-06-12T09:34:53Z</time>
      </trkpt>
      <trkpt lat="42.325696" lon="1.118230">
        <ele>1348.7</ele>
        <time>2018-06-12T09:34:57Z</time>
      </trkpt>
      <trkpt lat="42.325806" lon="1.117810">
        <ele>1334.8</ele>
        <time>2018-06-12T09:35:07Z</time>
      </trkpt>
      <trkpt lat="42.325890" lon="1.117230">
        <ele>1322.7</ele>
        <time>2018-06-12T09:35:19Z</time>
      </trkpt>
      <trkpt lat="42.325939" lon="1.116826">
        <ele>1326.2</ele>
        <time>2018-06-12T09:35:27Z</time>
      </trkpt>
      <trkpt lat="42.325962" lon="1.116556">
        <ele>1321.1</ele>
        <time>2018-06-12T09:35:32Z</time>
      </trkpt>
      <trkpt lat="42.326012" lon="1.116168">
        <ele>1300.4</ele>
        <time>2018-06-12T09:35:41Z</time>
      </trkpt>
      <trkpt lat="42.326038" lon="1.115910">
        <ele>1296.4</ele>
        <time>2018-06-12T09:35:46Z</time>
      </trkpt>
      <trkpt lat="42.326036" lon="1.115368">
        <ele>1286.8</ele>
        <time>2018-06-12T09:35:57Z</time>
      </trkpt>
      <trkpt lat="42.326019" lon="1.115224">
        <ele>1284.7</ele>
        <time>2018-06-12T09:36:00Z</time>
      </trkpt>
      <trkpt lat="42.325981" lon="1.114802">
        <ele>1285.1</ele>
        <time>2018-06-12T09:36:08Z</time>
      </trkpt>
      <trkpt lat="42.325890" lon="1.114380">
        <ele>1278.0</ele>
        <time>2018-06-12T09:36:17Z</time>
      </trkpt>
      <trkpt lat="42.325817" lon="1.114093">
        <ele>1276.0</ele>
        <time>2018-06-12T09:36:23Z</time>
      </trkpt>
      <trkpt lat="42.325645" lon="1.113668">
        <ele>1272.7</ele>
        <time>2018-06-12T09:36:32Z</time>
      </trkpt>
      <trkpt lat="42.325496" lon="1.113369">
        <ele>1273.9</ele>
        <time>2018-06-12T09:36:39Z</time>
      </trkpt>
      <trkpt lat="42.325367" lon="1.113129">
        <ele>1270.6</ele>
        <time>2018-06-12T09:36:45Z</time>
      </trkpt>
      <trkpt lat="42.325161" lon="1.112829">
        <ele>1266.6</ele>
        <time>2018-06-12T09:36:53Z</time>
      </trkpt>
      <trkpt lat="42.324707" lon="1.112382">
        <ele>1267.6</ele>
        <time>2018-06-12T09:37:08Z</time>
      </trkpt>
      <trkpt lat="42.324520" lon="1.112215">
        <ele>1268.4</ele>
        <time>2018-06-12T09:37:14Z</time>
      </trkpt>
      <trkpt lat="42.324304" lon="1.112049">
        <ele>1269.4</ele>
        <time>2018-06-12T09:37:20Z</time>
      </trkpt>
      <trkpt lat="42.323957" lon="1.111616">
        <ele>1263.1</ele>
        <time>2018-06-12T09:37:33Z</time>
      </trkpt>
      <trkpt lat="42.323789" lon="1.111454">
        <ele>1263.0</ele>
        <time>2018-06-12T09:37:38Z</time>
      </trkpt>
      <trkpt lat="42.323605" lon="1.111223">
        <ele>1256.9</ele>
        <time>2018-06-12T09:37:45Z</time>
      </trkpt>
      <trkpt lat="42.323427" lon="1.111060">
        <ele>1254.3</ele>
        <time>2018-06-12T09:37:51Z</time>
      </trkpt>
      <trkpt lat="42.323278" lon="1.111006">
        <ele>1258.4</ele>
        <time>2018-06-12T09:37:55Z</time>
      </trkpt>
      <trkpt lat="42.323148" lon="1.110960">
        <ele>1262.8</ele>
        <time>2018-06-12T09:37:59Z</time>
      </trkpt>
      <trkpt lat="42.323011" lon="1.110869">
        <ele>1269.2</ele>
        <time>2018-06-12T09:38:03Z</time>
      </trkpt>
      <trkpt lat="42.322974" lon="1.110787">
        <ele>1269.0</ele>
        <time>2018-06-12T09:38:05Z</time>
      </trkpt>
      <trkpt lat="42.322937" lon="1.110623">
        <ele>1265.2</ele>
        <time>2018-06-12T09:38:08Z</time>
      </trkpt>
      <trkpt lat="42.322910" lon="1.110447">
        <ele>1259.6</ele>
        <time>2018-06-12T09:38:12Z</time>
      </trkpt>
      <trkpt lat="42.322887" lon="1.110024">
        <ele>1251.0</ele>
        <time>2018-06-12T09:38:21Z</time>
      </trkpt>
      <trkpt lat="42.322825" lon="1.109577">
        <ele>1244.4</ele>
        <time>2018-06-12T09:38:30Z</time>
      </trkpt>
      <trkpt lat="42.322712" lon="1.109124">
        <ele>1243.4</ele>
        <time>2018-06-12T09:38:39Z</time>
      </trkpt>
      <trkpt lat="42.322559" lon="1.108653">
        <ele>1243.9</ele>
        <time>2018-06-12T09:38:49Z</time>
      </trkpt>
      <trkpt lat="42.322521" lon="1.108549">
        <ele>1244.7</ele>
        <time>2018-06-12T09:38:51Z</time>
      </trkpt>
      <trkpt lat="42.322487" lon="1.108439">
        <ele>1244.8</ele>
        <time>2018-06-12T09:38:54Z</time>
      </trkpt>
      <trkpt lat="42.322403" lon="1.107919">
        <ele>1234.7</ele>
        <time>2018-06-12T09:39:04Z</time>
      </trkpt>
      <trkpt lat="42.322330" lon="1.107198">
        <ele>1211.0</ele>
        <time>2018-06-12T09:39:19Z</time>
      </trkpt>
      <trkpt lat="42.322319" lon="1.107077">
        <ele>1209.8</ele>
        <time>2018-06-12T09:39:22Z</time>
      </trkpt>
      <trkpt lat="42.322300" lon="1.106935">
        <ele>1209.9</ele>
        <time>2018-06-12T09:39:25Z</time>
      </trkpt>
      <trkpt lat="42.322250" lon="1.106787">
        <ele>1210.9</ele>
        <time>2018-06-12T09:39:28Z</time>
      </trkpt>
      <trkpt lat="42.322166" lon="1.106625">
        <ele>1209.5</ele>
        <time>2018-06-12T09:39:32Z</time>
      </trkpt>
      <trkpt lat="42.322086" lon="1.106540">
        <ele>1212.2</ele>
        <time>2018-06-12T09:39:34Z</time>
      </trkpt>
      <trkpt lat="42.322008" lon="1.106508">
        <ele>1215.0</ele>
        <time>2018-06-12T09:39:37Z</time>
      </trkpt>
      <trkpt lat="42.321830" lon="1.106451">
        <ele>1221.8</ele>
        <time>2018-06-12T09:39:42Z</time>
      </trkpt>
      <trkpt lat="42.321660" lon="1.106385">
        <ele>1224.8</ele>
        <time>2018-06-12T09:39:46Z</time>
      </trkpt>
      <trkpt lat="42.321556" lon="1.106326">
        <ele>1226.4</ele>
        <time>2018-06-12T09:39:49Z</time>
      </trkpt>
      <trkpt lat="42.321475" lon="1.106241">
        <ele>1226.0</ele>
        <time>2018-06-12T09:39:52Z</time>
      </trkpt>
      <trkpt lat="42.321371" lon="1.106089">
        <ele>1220.9</ele>
        <time>2018-06-12T09:39:56Z</time>
      </trkpt>
      <trkpt lat="42.321279" lon="1.105915">
        <ele>1215.9</ele>
        <time>2018-06-12T09:40:01Z</time>
      </trkpt>
      <trkpt lat="42.321181" lon="1.105724">
        <ele>1210.9</ele>
        <time>2018-06-12T09:40:05Z</time>
      </trkpt>
      <trkpt lat="42.321083" lon="1.105521">
        <ele>1208.8</ele>
        <time>2018-06-12T09:40:10Z</time>
      </trkpt>
      <trkpt lat="42.321009" lon="1.105294">
        <ele>1204.8</ele>
        <time>2018-06-12T09:40:15Z</time>
      </trkpt>
      <trkpt lat="42.320982" lon="1.105135">
        <ele>1200.4</ele>
        <time>2018-06-12T09:40:18Z</time>
      </trkpt>
      <trkpt lat="42.320973" lon="1.105040">
        <ele>1198.8</ele>
        <time>2018-06-12T09:40:20Z</time>
      </trkpt>
      <trkpt lat="42.320988" lon="1.104578">
        <ele>1176.3</ele>
        <time>2018-06-12T09:40:31Z</time>
      </trkpt>
      <trkpt lat="42.320969" lon="1.104053">
        <ele>1149.2</ele>
        <time>2018-06-12T09:40:43Z</time>
      </trkpt>
      <trkpt lat="42.320824" lon="1.103400">
        <ele>1146.0</ele>
        <time>2018-06-12T09:40:56Z</time>
      </trkpt>
      <trkpt lat="42.320698" lon="1.102834">
        <ele>1152.8</ele>
        <time>2018-06-12T09:41:08Z</time>
      </trkpt>
      <trkpt lat="42.320660" lon="1.102543">
        <ele>1145.9</ele>
        <time>2018-06-12T09:41:14Z</time>
      </trkpt>
      <trkpt lat="42.320668" lon="1.102311">
        <ele>1139.0</ele>
        <time>2018-06-12T09:41:19Z</time>
      </trkpt>
      <trkpt lat="42.320724" lon="1.101662">
        <ele>1107.9</ele>
        <time>2018-06-12T09:41:33Z</time>
      </trkpt>
      <trkpt lat="42.320732" lon="1.101532">
        <ele>1104.6</ele>
        <time>2018-06-12T09:41:36Z</time>
      </trkpt>
      <trkpt lat="42.320732" lon="1.100953">
        <ele>1119.1</ele>
        <time>2018-06-12T09:41:48Z</time>
      </trkpt>
      <trkpt lat="42.320683" lon="1.100451">
        <ele>1143.9</ele>
        <time>2018-06-12T09:41:59Z</time>
      </trkpt>
      <trkpt lat="42.320660" lon="1.100341">
        <ele>1145.1</ele>
        <time>2018-06-12T09:42:01Z</time>
      </trkpt>
      <trkpt lat="42.320566" lon="1.100131">
        <ele>1145.0</ele>
        <time>2018-06-12T09:42:06Z</time>
      </trkpt>
      <trkpt lat="42.320453" lon="1.100062">
        <ele>1144.6</ele>
        <time>2018-06-12T09:42:09Z</time>
      </trkpt>
      <trkpt lat="42.320406" lon="1.100049">
        <ele>1144.1</ele>
        <time>2018-06-12T09:42:11Z</time>
      </trkpt>
      <trkpt lat="42.320370" lon="1.100062">
        <ele>1143.4</ele>
        <time>2018-06-12T09:42:12Z</time>
      </trkpt>
      <trkpt lat="42.320281" lon="1.100144">
        <ele>1142.1</ele>
        <time>2018-06-12T09:42:15Z</time>
      </trkpt>
      <trkpt lat="42.320254" lon="1.100139">
        <ele>1141.5</ele>
        <time>2018-06-12T09:42:15Z</time>
      </trkpt>
      <trkpt lat="42.320238" lon="1.099981">
        <ele>1140.0</ele>
        <time>2018-06-12T09:42:18Z</time>
      </trkpt>
      <trkpt lat="42.320235" lon="1.099800">
        <ele>1137.2</ele>
        <time>2018-06-12T09:42:22Z</time>
      </trkpt>
      <trkpt lat="42.320242" lon="1.099678">
        <ele>1133.6</ele>
        <time>2018-06-12T09:42:25Z</time>
      </trkpt>
      <trkpt lat="42.320193" lon="1.099465">
        <ele>1126.8</ele>
        <time>2018-06-12T09:42:29Z</time>
      </trkpt>
      <trkpt lat="42.320197" lon="1.099424">
        <ele>1126.2</ele>
        <time>2018-06-12T09:42:30Z</time>
      </trkpt>
      <trkpt lat="42.320205" lon="1.099364">
        <ele>1125.3</ele>
        <time>2018-06-12T09:42:31Z</time>
      </trkpt>
      <trkpt lat="42.320231" lon="1.099296">
        <ele>1124.6</ele>
        <time>2018-06-12T09:42:33Z</time>
      </trkpt>
      <trkpt lat="42.320247" lon="1.099198">
        <ele>1123.7</ele>
        <time>2018-06-12T09:42:35Z</time>
      </trkpt>
      <trkpt lat="42.320238" lon="1.099156">
        <ele>1123.2</ele>
        <time>2018-06-12T09:42:36Z</time>
      </trkpt>
      <trkpt lat="42.320188" lon="1.099152">
        <ele>1123.1</ele>
        <time>2018-06-12T09:42:37Z</time>
      </trkpt>
      <trkpt lat="42.320156" lon="1.099134">
        <ele>1123.0</ele>
        <time>2018-06-12T09:42:38Z</time>
      </trkpt>
      <trkpt lat="42.320164" lon="1.099031">
        <ele>1122.7</ele>
        <time>2018-06-12T09:42:40Z</time>
      </trkpt>
      <trkpt lat="42.320185" lon="1.098951">
        <ele>1120.7</ele>
        <time>2018-06-12T09:42:42Z</time>
      </trkpt>
      <trkpt lat="42.320197" lon="1.098891">
        <ele>1119.1</ele>
        <time>2018-06-12T09:42:43Z</time>
      </trkpt>
      <trkpt lat="42.320259" lon="1.098792">
        <ele>1114.5</ele>
        <time>2018-06-12T09:42:46Z</time>
      </trkpt>
      <trkpt lat="42.320280" lon="1.098724">
        <ele>1111.8</ele>
        <time>2018-06-12T09:42:47Z</time>
      </trkpt>
      <trkpt lat="42.320284" lon="1.098676">
        <ele>1110.4</ele>
        <time>2018-06-12T09:42:48Z</time>
      </trkpt>
      <trkpt lat="42.320297" lon="1.098639">
        <ele>1109.0</ele>
        <time>2018-06-12T09:42:49Z</time>
      </trkpt>
      <trkpt lat="42.320355" lon="1.098595">
        <ele>1106.2</ele>
        <time>2018-06-12T09:42:51Z</time>
      </trkpt>
      <trkpt lat="42.320372" lon="1.098564">
        <ele>1105.0</ele>
        <time>2018-06-12T09:42:52Z</time>
      </trkpt>
      <trkpt lat="42.320371" lon="1.098521">
        <ele>1104.1</ele>
        <time>2018-06-12T09:42:53Z</time>
      </trkpt>
      <trkpt lat="42.320357" lon="1.098479">
        <ele>1103.6</ele>
        <time>2018-06-12T09:42:53Z</time>
      </trkpt>
      <trkpt lat="42.320255" lon="1.098312">
        <ele>1104.6</ele>
        <time>2018-06-12T09:42:58Z</time>
      </trkpt>
      <trkpt lat="42.320227" lon="1.098259">
        <ele>1104.7</ele>
        <time>2018-06-12T09:42:59Z</time>
      </trkpt>
      <trkpt lat="42.320195" lon="1.098187">
        <ele>1104.7</ele>
        <time>2018-06-12T09:43:01Z</time>
      </trkpt>
      <trkpt lat="42.320162" lon="1.098097">
        <ele>1104.0</ele>
        <time>2018-06-12T09:43:03Z</time>
      </trkpt>
      <trkpt lat="42.320169" lon="1.098027">
        <ele>1102.9</ele>
        <time>2018-06-12T09:43:04Z</time>
      </trkpt>
      <trkpt lat="42.320203" lon="1.097895">
        <ele>1100.2</ele>
        <time>2018-06-12T09:43:07Z</time>
      </trkpt>
      <trkpt lat="42.320260" lon="1.097809">
        <ele>1097.2</ele>
        <time>2018-06-12T09:43:09Z</time>
      </trkpt>
      <trkpt lat="42.320305" lon="1.097783">
        <ele>1094.9</ele>
        <time>2018-06-12T09:43:10Z</time>
      </trkpt>
      <trkpt lat="42.320340" lon="1.097746">
        <ele>1092.5</ele>
        <time>2018-06-12T09:43:12Z</time>
      </trkpt>
      <trkpt lat="42.320299" lon="1.097668">
        <ele>1092.8</ele>
        <time>2018-06-12T09:43:14Z</time>
      </trkpt>
      <trkpt lat="42.320239" lon="1.097614">
        <ele>1094.9</ele>
        <time>2018-06-12T09:43:16Z</time>
      </trkpt>
      <trkpt lat="42.320198" lon="1.097568">
        <ele>1095.4</ele>
        <time>2018-06-12T09:43:17Z</time>
      </trkpt>
      <trkpt lat="42.320197" lon="1.097507">
        <ele>1093.0</ele>
        <time>2018-06-12T09:43:18Z</time>
      </trkpt>
      <trkpt lat="42.320223" lon="1.097464">
        <ele>1089.8</ele>
        <time>2018-06-12T09:43:20Z</time>
      </trkpt>
      <trkpt lat="42.320218" lon="1.097409">
        <ele>1087.9</ele>
        <time>2018-06-12T09:43:21Z</time>
      </trkpt>
      <trkpt lat="42.320190" lon="1.097362">
        <ele>1087.5</ele>
        <time>2018-06-12T09:43:22Z</time>
      </trkpt>
      <trkpt lat="42.320081" lon="1.097292">
        <ele>1088.2</ele>
        <time>2018-06-12T09:43:25Z</time>
      </trkpt>
      <trkpt lat="42.320027" lon="1.097282">
        <ele>1088.4</ele>
        <time>2018-06-12T09:43:27Z</time>
      </trkpt>
      <trkpt lat="42.320017" lon="1.097246">
        <ele>1087.3</ele>
        <time>2018-06-12T09:43:27Z</time>
      </trkpt>
      <trkpt lat="42.320043" lon="1.097196">
        <ele>1085.5</ele>
        <time>2018-06-12T09:43:29Z</time>
      </trkpt>
      <trkpt lat="42.320078" lon="1.097105">
        <ele>1082.3</ele>
        <time>2018-06-12T09:43:31Z</time>
      </trkpt>
      <trkpt lat="42.320126" lon="1.097036">
        <ele>1080.3</ele>
        <time>2018-06-12T09:43:33Z</time>
      </trkpt>
      <trkpt lat="42.320121" lon="1.097012">
        <ele>1079.9</ele>
        <time>2018-06-12T09:43:33Z</time>
      </trkpt>
      <trkpt lat="42.320075" lon="1.096971">
        <ele>1079.7</ele>
        <time>2018-06-12T09:43:35Z</time>
      </trkpt>
      <trkpt lat="42.320065" lon="1.096892">
        <ele>1078.3</ele>
        <time>2018-06-12T09:43:36Z</time>
      </trkpt>
      <trkpt lat="42.320074" lon="1.096856">
        <ele>1077.6</ele>
        <time>2018-06-12T09:43:37Z</time>
      </trkpt>
      <trkpt lat="42.320117" lon="1.096781">
        <ele>1076.3</ele>
        <time>2018-06-12T09:43:39Z</time>
      </trkpt>
      <trkpt lat="42.320171" lon="1.096756">
        <ele>1075.7</ele>
        <time>2018-06-12T09:43:40Z</time>
      </trkpt>
      <trkpt lat="42.320225" lon="1.096742">
        <ele>1074.9</ele>
        <time>2018-06-12T09:43:42Z</time>
      </trkpt>
      <trkpt lat="42.320283" lon="1.096722">
        <ele>1074.1</ele>
        <time>2018-06-12T09:43:43Z</time>
      </trkpt>
      <trkpt lat="42.320314" lon="1.096721">
        <ele>1073.6</ele>
        <time>2018-06-12T09:43:44Z</time>
      </trkpt>
      <trkpt lat="42.320332" lon="1.096714">
        <ele>1073.3</ele>
        <time>2018-06-12T09:43:45Z</time>
      </trkpt>
      <trkpt lat="42.320341" lon="1.096678">
        <ele>1073.2</ele>
        <time>2018-06-12T09:43:46Z</time>
      </trkpt>
      <trkpt lat="42.320234" lon="1.096505">
        <ele>1074.7</ele>
        <time>2018-06-12T09:43:50Z</time>
      </trkpt>
      <trkpt lat="42.320144" lon="1.096487">
        <ele>1075.9</ele>
        <time>2018-06-12T09:43:52Z</time>
      </trkpt>
      <trkpt lat="42.320116" lon="1.096454">
        <ele>1074.7</ele>
        <time>2018-06-12T09:43:53Z</time>
      </trkpt>
      <trkpt lat="42.320125" lon="1.096411">
        <ele>1073.7</ele>
        <time>2018-06-12T09:43:54Z</time>
      </trkpt>
      <trkpt lat="42.320142" lon="1.096384">
        <ele>1073.3</ele>
        <time>2018-06-12T09:43:55Z</time>
      </trkpt>
      <trkpt lat="42.320155" lon="1.096356">
        <ele>1072.4</ele>
        <time>2018-06-12T09:43:56Z</time>
      </trkpt>
      <trkpt lat="42.320208" lon="1.096305">
        <ele>1070.3</ele>
        <time>2018-06-12T09:43:57Z</time>
      </trkpt>
      <trkpt lat="42.320266" lon="1.096219">
        <ele>1067.1</ele>
        <time>2018-06-12T09:44:00Z</time>
      </trkpt>
      <trkpt lat="42.320502" lon="1.095799">
        <ele>1056.7</ele>
        <time>2018-06-12T09:44:10Z</time>
      </trkpt>
      <trkpt lat="42.320541" lon="1.095737">
        <ele>1056.0</ele>
        <time>2018-06-12T09:44:12Z</time>
      </trkpt>
      <trkpt lat="42.320549" lon="1.095688">
        <ele>1055.4</ele>
        <time>2018-06-12T09:44:13Z</time>
      </trkpt>
      <trkpt lat="42.320548" lon="1.095603">
        <ele>1054.3</ele>
        <time>2018-06-12T09:44:15Z</time>
      </trkpt>
      <trkpt lat="42.320537" lon="1.095470">
        <ele>1052.5</ele>
        <time>2018-06-12T09:44:17Z</time>
      </trkpt>
      <trkpt lat="42.320518" lon="1.095398">
        <ele>1051.4</ele>
        <time>2018-06-12T09:44:19Z</time>
      </trkpt>
      <trkpt lat="42.320489" lon="1.095290">
        <ele>1049.4</ele>
        <time>2018-06-12T09:44:21Z</time>
      </trkpt>
      <trkpt lat="42.320423" lon="1.095134">
        <ele>1046.0</ele>
        <time>2018-06-12T09:44:25Z</time>
      </trkpt>
      <trkpt lat="42.320404" lon="1.095068">
        <ele>1044.8</ele>
        <time>2018-06-12T09:44:26Z</time>
      </trkpt>
      <trkpt lat="42.320389" lon="1.094977">
        <ele>1043.2</ele>
        <time>2018-06-12T09:44:28Z</time>
      </trkpt>
      <trkpt lat="42.320388" lon="1.094911">
        <ele>1042.2</ele>
        <time>2018-06-12T09:44:29Z</time>
      </trkpt>
      <trkpt lat="42.320410" lon="1.094855">
        <ele>1041.8</ele>
        <time>2018-06-12T09:44:30Z</time>
      </trkpt>
      <trkpt lat="42.320449" lon="1.094806">
        <ele>1041.6</ele>
        <time>2018-06-12T09:44:32Z</time>
      </trkpt>
      <trkpt lat="42.320453" lon="1.094757">
        <ele>1041.0</ele>
        <time>2018-06-12T09:44:33Z</time>
      </trkpt>
      <trkpt lat="42.320419" lon="1.094732">
        <ele>1040.2</ele>
        <time>2018-06-12T09:44:34Z</time>
      </trkpt>
      <trkpt lat="42.320470" lon="1.094684">
        <ele>1040.1</ele>
        <time>2018-06-12T09:44:36Z</time>
      </trkpt>
      <trkpt lat="42.320531" lon="1.094560">
        <ele>1038.8</ele>
        <time>2018-06-12T09:44:38Z</time>
      </trkpt>
      <trkpt lat="42.320568" lon="1.094522">
        <ele>1038.4</ele>
        <time>2018-06-12T09:44:40Z</time>
      </trkpt>
      <trkpt lat="42.320592" lon="1.094474">
        <ele>1037.7</ele>
        <time>2018-06-12T09:44:41Z</time>
      </trkpt>
      <trkpt lat="42.320638" lon="1.094109">
        <ele>1032.0</ele>
        <time>2018-06-12T09:44:48Z</time>
      </trkpt>
      <trkpt lat="42.320630" lon="1.094048">
        <ele>1031.1</ele>
        <time>2018-06-12T09:44:49Z</time>
      </trkpt>
      <trkpt lat="42.320603" lon="1.094012">
        <ele>1030.2</ele>
        <time>2018-06-12T09:44:50Z</time>
      </trkpt>
      <trkpt lat="42.320558" lon="1.093906">
        <ele>1028.4</ele>
        <time>2018-06-12T09:44:53Z</time>
      </trkpt>
      <trkpt lat="42.320523" lon="1.093833">
        <ele>1027.1</ele>
        <time>2018-06-12T09:44:55Z</time>
      </trkpt>
      <trkpt lat="42.320517" lon="1.093754">
        <ele>1026.2</ele>
        <time>2018-06-12T09:44:56Z</time>
      </trkpt>
      <trkpt lat="42.320494" lon="1.093682">
        <ele>1025.2</ele>
        <time>2018-06-12T09:44:58Z</time>
      </trkpt>
      <trkpt lat="42.320452" lon="1.093641">
        <ele>1024.0</ele>
        <time>2018-06-12T09:44:59Z</time>
      </trkpt>
      <trkpt lat="42.320443" lon="1.093604">
        <ele>1023.5</ele>
        <time>2018-06-12T09:45:00Z</time>
      </trkpt>
      <trkpt lat="42.320469" lon="1.093555">
        <ele>1023.7</ele>
        <time>2018-06-12T09:45:01Z</time>
      </trkpt>
      <trkpt lat="42.320493" lon="1.093372">
        <ele>1023.9</ele>
        <time>2018-06-12T09:45:05Z</time>
      </trkpt>
      <trkpt lat="42.320548" lon="1.093290">
        <ele>1024.6</ele>
        <time>2018-06-12T09:45:07Z</time>
      </trkpt>
      <trkpt lat="42.320561" lon="1.093152">
        <ele>1024.7</ele>
        <time>2018-06-12T09:45:09Z</time>
      </trkpt>
      <trkpt lat="42.320588" lon="1.093115">
        <ele>1024.8</ele>
        <time>2018-06-12T09:45:10Z</time>
      </trkpt>
      <trkpt lat="42.320614" lon="1.093053">
        <ele>1025.0</ele>
        <time>2018-06-12T09:45:12Z</time>
      </trkpt>
      <trkpt lat="42.320640" lon="1.093034">
        <ele>1025.0</ele>
        <time>2018-06-12T09:45:13Z</time>
      </trkpt>
      <trkpt lat="42.320681" lon="1.093039">
        <ele>1025.0</ele>
        <time>2018-06-12T09:45:14Z</time>
      </trkpt>
      <trkpt lat="42.320730" lon="1.093013">
        <ele>1024.9</ele>
        <time>2018-06-12T09:45:15Z</time>
      </trkpt>
      <trkpt lat="42.320747" lon="1.092922">
        <ele>1024.6</ele>
        <time>2018-06-12T09:45:17Z</time>
      </trkpt>
      <trkpt lat="42.320745" lon="1.092849">
        <ele>1024.1</ele>
        <time>2018-06-12T09:45:18Z</time>
      </trkpt>
      <trkpt lat="42.320692" lon="1.092772">
        <ele>1024.0</ele>
        <time>2018-06-12T09:45:20Z</time>
      </trkpt>
      <trkpt lat="42.320672" lon="1.092748">
        <ele>1023.9</ele>
        <time>2018-06-12T09:45:21Z</time>
      </trkpt>
      <trkpt lat="42.320671" lon="1.092724">
        <ele>1023.8</ele>
        <time>2018-06-12T09:45:22Z</time>
      </trkpt>
      <trkpt lat="42.320680" lon="1.092699">
        <ele>1023.5</ele>
        <time>2018-06-12T09:45:22Z</time>
      </trkpt>
      <trkpt lat="42.320716" lon="1.092698">
        <ele>1023.1</ele>
        <time>2018-06-12T09:45:23Z</time>
      </trkpt>
      <trkpt lat="42.320766" lon="1.092667">
        <ele>1022.2</ele>
        <time>2018-06-12T09:45:25Z</time>
      </trkpt>
      <trkpt lat="42.320772" lon="1.092581">
        <ele>1021.0</ele>
        <time>2018-06-12T09:45:26Z</time>
      </trkpt>
      <trkpt lat="42.320785" lon="1.092508">
        <ele>1019.6</ele>
        <time>2018-06-12T09:45:28Z</time>
      </trkpt>
      <trkpt lat="42.320806" lon="1.092447">
        <ele>1018.3</ele>
        <time>2018-06-12T09:45:29Z</time>
      </trkpt>
      <trkpt lat="42.320801" lon="1.092404">
        <ele>1017.8</ele>
        <time>2018-06-12T09:45:30Z</time>
      </trkpt>
      <trkpt lat="42.320781" lon="1.092314">
        <ele>1016.6</ele>
        <time>2018-06-12T09:45:32Z</time>
      </trkpt>
      <trkpt lat="42.320739" lon="1.092224">
        <ele>1015.5</ele>
        <time>2018-06-12T09:45:34Z</time>
      </trkpt>
      <trkpt lat="42.320681" lon="1.092156">
        <ele>1014.7</ele>
        <time>2018-06-12T09:45:36Z</time>
      </trkpt>
      <trkpt lat="42.320602" lon="1.091953">
        <ele>1011.6</ele>
        <time>2018-06-12T09:45:40Z</time>
      </trkpt>
      <trkpt lat="42.320567" lon="1.091890">
        <ele>1010.9</ele>
        <time>2018-06-12T09:45:42Z</time>
      </trkpt>
      <trkpt lat="42.320503" lon="1.091831">
        <ele>1010.5</ele>
        <time>2018-06-12T09:45:44Z</time>
      </trkpt>
      <trkpt lat="42.320467" lon="1.091820">
        <ele>1010.7</ele>
        <time>2018-06-12T09:45:45Z</time>
      </trkpt>
      <trkpt lat="42.320467" lon="1.091796">
        <ele>1010.2</ele>
        <time>2018-06-12T09:45:46Z</time>
      </trkpt>
      <trkpt lat="42.320488" lon="1.091728">
        <ele>1008.1</ele>
        <time>2018-06-12T09:45:47Z</time>
      </trkpt>
      <trkpt lat="42.320505" lon="1.091673">
        <ele>1006.5</ele>
        <time>2018-06-12T09:45:48Z</time>
      </trkpt>
      <trkpt lat="42.320552" lon="1.091520">
        <ele>1002.2</ele>
        <time>2018-06-12T09:45:52Z</time>
      </trkpt>
      <trkpt lat="42.320534" lon="1.091502">
        <ele>1001.6</ele>
        <time>2018-06-12T09:45:52Z</time>
      </trkpt>
      <trkpt lat="42.320489" lon="1.091492">
        <ele>1001.4</ele>
        <time>2018-06-12T09:45:53Z</time>
      </trkpt>
      <trkpt lat="42.320417" lon="1.091500">
        <ele>1001.9</ele>
        <time>2018-06-12T09:45:55Z</time>
      </trkpt>
      <trkpt lat="42.320371" lon="1.091471">
        <ele>1000.8</ele>
        <time>2018-06-12T09:45:57Z</time>
      </trkpt>
      <trkpt lat="42.320298" lon="1.091388">
        <ele>997.5</ele>
        <time>2018-06-12T09:45:59Z</time>
      </trkpt>
      <trkpt lat="42.320238" lon="1.091311">
        <ele>994.0</ele>
        <time>2018-06-12T09:46:02Z</time>
      </trkpt>
      <trkpt lat="42.320237" lon="1.091275">
        <ele>992.5</ele>
        <time>2018-06-12T09:46:02Z</time>
      </trkpt>
      <trkpt lat="42.320154" lon="1.091113">
        <ele>985.6</ele>
        <time>2018-06-12T09:46:07Z</time>
      </trkpt>
      <trkpt lat="42.320122" lon="1.091096">
        <ele>984.9</ele>
        <time>2018-06-12T09:46:08Z</time>
      </trkpt>
      <trkpt lat="42.320095" lon="1.091085">
        <ele>984.5</ele>
        <time>2018-06-12T09:46:08Z</time>
      </trkpt>
      <trkpt lat="42.320000" lon="1.091051">
        <ele>983.4</ele>
        <time>2018-06-12T09:46:11Z</time>
      </trkpt>
      <trkpt lat="42.319930" lon="1.090926">
        <ele>979.9</ele>
        <time>2018-06-12T09:46:14Z</time>
      </trkpt>
      <trkpt lat="42.319920" lon="1.090890">
        <ele>978.8</ele>
        <time>2018-06-12T09:46:15Z</time>
      </trkpt>
      <trkpt lat="42.319929" lon="1.090853">
        <ele>977.5</ele>
        <time>2018-06-12T09:46:16Z</time>
      </trkpt>
      <trkpt lat="42.319919" lon="1.090805">
        <ele>976.0</ele>
        <time>2018-06-12T09:46:17Z</time>
      </trkpt>
      <trkpt lat="42.319918" lon="1.090769">
        <ele>974.8</ele>
        <time>2018-06-12T09:46:17Z</time>
      </trkpt>
      <trkpt lat="42.319777" lon="1.090664">
        <ele>971.3</ele>
        <time>2018-06-12T09:46:22Z</time>
      </trkpt>
      <trkpt lat="42.319776" lon="1.090621">
        <ele>970.1</ele>
        <time>2018-06-12T09:46:23Z</time>
      </trkpt>
      <trkpt lat="42.319785" lon="1.090591">
        <ele>969.4</ele>
        <time>2018-06-12T09:46:23Z</time>
      </trkpt>
      <trkpt lat="42.319797" lon="1.090536">
        <ele>968.0</ele>
        <time>2018-06-12T09:46:24Z</time>
      </trkpt>
      <trkpt lat="42.319692" lon="1.090448">
        <ele>965.1</ele>
        <time>2018-06-12T09:46:28Z</time>
      </trkpt>
      <trkpt lat="42.319623" lon="1.090335">
        <ele>961.2</ele>
        <time>2018-06-12T09:46:31Z</time>
      </trkpt>
      <trkpt lat="42.319631" lon="1.090298">
        <ele>959.9</ele>
        <time>2018-06-12T09:46:32Z</time>
      </trkpt>
      <trkpt lat="42.319631" lon="1.090261">
        <ele>958.6</ele>
        <time>2018-06-12T09:46:32Z</time>
      </trkpt>
      <trkpt lat="42.319603" lon="1.090196">
        <ele>956.1</ele>
        <time>2018-06-12T09:46:34Z</time>
      </trkpt>
      <trkpt lat="42.319584" lon="1.090154">
        <ele>954.5</ele>
        <time>2018-06-12T09:46:35Z</time>
      </trkpt>
      <trkpt lat="42.319605" lon="1.090098">
        <ele>952.5</ele>
        <time>2018-06-12T09:46:36Z</time>
      </trkpt>
      <trkpt lat="42.319646" lon="1.090079">
        <ele>951.9</ele>
        <time>2018-06-12T09:46:37Z</time>
      </trkpt>
      <trkpt lat="42.319741" lon="1.090106">
        <ele>953.3</ele>
        <time>2018-06-12T09:46:40Z</time>
      </trkpt>
      <trkpt lat="42.319836" lon="1.090146">
        <ele>955.2</ele>
        <time>2018-06-12T09:46:43Z</time>
      </trkpt>
      <trkpt lat="42.320215" lon="1.090450">
        <ele>960.1</ele>
        <time>2018-06-12T09:46:54Z</time>
      </trkpt>
      <trkpt lat="42.320309" lon="1.090423">
        <ele>957.8</ele>
        <time>2018-06-12T09:46:57Z</time>
      </trkpt>
      <trkpt lat="42.320492" lon="1.090326">
        <ele>955.5</ele>
        <time>2018-06-12T09:47:02Z</time>
      </trkpt>
      <trkpt lat="42.320705" lon="1.090132">
        <ele>955.2</ele>
        <time>2018-06-12T09:47:09Z</time>
      </trkpt>
      <trkpt lat="42.320896" lon="1.089981">
        <ele>957.4</ele>
        <time>2018-06-12T09:47:15Z</time>
      </trkpt>
      <trkpt lat="42.320959" lon="1.089997">
        <ele>958.7</ele>
        <time>2018-06-12T09:47:17Z</time>
      </trkpt>
      <trkpt lat="42.321018" lon="1.090013">
        <ele>958.1</ele>
        <time>2018-06-12T09:47:18Z</time>
      </trkpt>
      <trkpt lat="42.321119" lon="1.090144">
        <ele>957.9</ele>
        <time>2018-06-12T09:47:22Z</time>
      </trkpt>
      <trkpt lat="42.321142" lon="1.090143">
        <ele>957.4</ele>
        <time>2018-06-12T09:47:22Z</time>
      </trkpt>
      <trkpt lat="42.321155" lon="1.090118">
        <ele>956.7</ele>
        <time>2018-06-12T09:47:23Z</time>
      </trkpt>
      <trkpt lat="42.321158" lon="1.090027">
        <ele>955.1</ele>
        <time>2018-06-12T09:47:25Z</time>
      </trkpt>
      <trkpt lat="42.321157" lon="1.089991">
        <ele>954.5</ele>
        <time>2018-06-12T09:47:26Z</time>
      </trkpt>
      <trkpt lat="42.321094" lon="1.089750">
        <ele>951.7</ele>
        <time>2018-06-12T09:47:31Z</time>
      </trkpt>
      <trkpt lat="42.321025" lon="1.089661">
        <ele>951.0</ele>
        <time>2018-06-12T09:47:33Z</time>
      </trkpt>
      <trkpt lat="42.320987" lon="1.089523">
        <ele>949.1</ele>
        <time>2018-06-12T09:47:36Z</time>
      </trkpt>
      <trkpt lat="42.320981" lon="1.089438">
        <ele>948.3</ele>
        <time>2018-06-12T09:47:38Z</time>
      </trkpt>
      <trkpt lat="42.320976" lon="1.089377">
        <ele>947.7</ele>
        <time>2018-06-12T09:47:39Z</time>
      </trkpt>
      <trkpt lat="42.320984" lon="1.089321">
        <ele>947.0</ele>
        <time>2018-06-12T09:47:40Z</time>
      </trkpt>
      <trkpt lat="42.321028" lon="1.089279">
        <ele>946.0</ele>
        <time>2018-06-12T09:47:41Z</time>
      </trkpt>
      <trkpt lat="42.321095" lon="1.089252">
        <ele>945.1</ele>
        <time>2018-06-12T09:47:43Z</time>
      </trkpt>
      <trkpt lat="42.321136" lon="1.089288">
        <ele>945.1</ele>
        <time>2018-06-12T09:47:45Z</time>
      </trkpt>
      <trkpt lat="42.321205" lon="1.089271">
        <ele>944.4</ele>
        <time>2018-06-12T09:47:46Z</time>
      </trkpt>
      <trkpt lat="42.321189" lon="1.089213">
        <ele>944.3</ele>
        <time>2018-06-12T09:47:48Z</time>
      </trkpt>
      <trkpt lat="42.321224" lon="1.089139">
        <ele>944.0</ele>
        <time>2018-06-12T09:47:49Z</time>
      </trkpt>
      <trkpt lat="42.321287" lon="1.089119">
        <ele>943.6</ele>
        <time>2018-06-12T09:47:51Z</time>
      </trkpt>
      <trkpt lat="42.321314" lon="1.089124">
        <ele>943.3</ele>
        <time>2018-06-12T09:47:52Z</time>
      </trkpt>
      <trkpt lat="42.321340" lon="1.089081">
        <ele>943.0</ele>
        <time>2018-06-12T09:47:53Z</time>
      </trkpt>
      <trkpt lat="42.321335" lon="1.088931">
        <ele>942.8</ele>
        <time>2018-06-12T09:47:56Z</time>
      </trkpt>
      <trkpt lat="42.321304" lon="1.088695">
        <ele>942.1</ele>
        <time>2018-06-12T09:48:00Z</time>
      </trkpt>
      <trkpt lat="42.321296" lon="1.088603">
        <ele>941.4</ele>
        <time>2018-06-12T09:48:02Z</time>
      </trkpt>
      <trkpt lat="42.321294" lon="1.088494">
        <ele>940.5</ele>
        <time>2018-06-12T09:48:04Z</time>
      </trkpt>
      <trkpt lat="42.321309" lon="1.088324">
        <ele>938.5</ele>
        <time>2018-06-12T09:48:08Z</time>
      </trkpt>
      <trkpt lat="42.321330" lon="1.088238">
        <ele>937.8</ele>
        <time>2018-06-12T09:48:10Z</time>
      </trkpt>
      <trkpt lat="42.321343" lon="1.088189">
        <ele>937.6</ele>
        <time>2018-06-12T09:48:11Z</time>
      </trkpt>
      <trkpt lat="42.321361" lon="1.088170">
        <ele>937.9</ele>
        <time>2018-06-12T09:48:11Z</time>
      </trkpt>
      <trkpt lat="42.321397" lon="1.088200">
        <ele>938.7</ele>
        <time>2018-06-12T09:48:12Z</time>
      </trkpt>
      <trkpt lat="42.321471" lon="1.088307">
        <ele>939.1</ele>
        <time>2018-06-12T09:48:15Z</time>
      </trkpt>
      <trkpt lat="42.321505" lon="1.088457">
        <ele>937.5</ele>
        <time>2018-06-12T09:48:18Z</time>
      </trkpt>
      <trkpt lat="42.321536" lon="1.088534">
        <ele>938.0</ele>
        <time>2018-06-12T09:48:20Z</time>
      </trkpt>
      <trkpt lat="42.321548" lon="1.088583">
        <ele>938.8</ele>
        <time>2018-06-12T09:48:21Z</time>
      </trkpt>
      <trkpt lat="42.321584" lon="1.088594">
        <ele>939.3</ele>
        <time>2018-06-12T09:48:22Z</time>
      </trkpt>
      <trkpt lat="42.321607" lon="1.088630">
        <ele>939.8</ele>
        <time>2018-06-12T09:48:23Z</time>
      </trkpt>
      <trkpt lat="42.321631" lon="1.088696">
        <ele>940.4</ele>
        <time>2018-06-12T09:48:24Z</time>
      </trkpt>
      <trkpt lat="42.321667" lon="1.088714">
        <ele>940.4</ele>
        <time>2018-06-12T09:48:25Z</time>
      </trkpt>
      <trkpt lat="42.321707" lon="1.088712">
        <ele>940.4</ele>
        <time>2018-06-12T09:48:26Z</time>
      </trkpt>
      <trkpt lat="42.321785" lon="1.088764">
        <ele>940.0</ele>
        <time>2018-06-12T09:48:29Z</time>
      </trkpt>
      <trkpt lat="42.321812" lon="1.088745">
        <ele>939.9</ele>
        <time>2018-06-12T09:48:29Z</time>
      </trkpt>
      <trkpt lat="42.321867" lon="1.088841">
        <ele>938.0</ele>
        <time>2018-06-12T09:48:32Z</time>
      </trkpt>
      <trkpt lat="42.321987" lon="1.089031">
        <ele>932.8</ele>
        <time>2018-06-12T09:48:37Z</time>
      </trkpt>
      <trkpt lat="42.322034" lon="1.089103">
        <ele>931.4</ele>
        <time>2018-06-12T09:48:39Z</time>
      </trkpt>
      <trkpt lat="42.322053" lon="1.089175">
        <ele>930.9</ele>
        <time>2018-06-12T09:48:40Z</time>
      </trkpt>
      <trkpt lat="42.322136" lon="1.089324">
        <ele>927.6</ele>
        <time>2018-06-12T09:48:44Z</time>
      </trkpt>
      <trkpt lat="42.322187" lon="1.089414">
        <ele>925.9</ele>
        <time>2018-06-12T09:48:46Z</time>
      </trkpt>
      <trkpt lat="42.322237" lon="1.089437">
        <ele>924.1</ele>
        <time>2018-06-12T09:48:48Z</time>
      </trkpt>
      <trkpt lat="42.322292" lon="1.089465">
        <ele>922.4</ele>
        <time>2018-06-12T09:48:49Z</time>
      </trkpt>
      <trkpt lat="42.322439" lon="1.089661">
        <ele>917.6</ele>
        <time>2018-06-12T09:48:55Z</time>
      </trkpt>
      <trkpt lat="42.322573" lon="1.089857">
        <ele>913.0</ele>
        <time>2018-06-12T09:49:00Z</time>
      </trkpt>
      <trkpt lat="42.322638" lon="1.089958">
        <ele>911.8</ele>
        <time>2018-06-12T09:49:03Z</time>
      </trkpt>
      <trkpt lat="42.322716" lon="1.090065">
        <ele>908.9</ele>
        <time>2018-06-12T09:49:06Z</time>
      </trkpt>
      <trkpt lat="42.322789" lon="1.090123">
        <ele>905.9</ele>
        <time>2018-06-12T09:49:08Z</time>
      </trkpt>
      <trkpt lat="42.322830" lon="1.090140">
        <ele>904.0</ele>
        <time>2018-06-12T09:49:09Z</time>
      </trkpt>
      <trkpt lat="42.322861" lon="1.090097">
        <ele>900.8</ele>
        <time>2018-06-12T09:49:11Z</time>
      </trkpt>
      <trkpt lat="42.322887" lon="1.090036">
        <ele>897.2</ele>
        <time>2018-06-12T09:49:12Z</time>
      </trkpt>
      <trkpt lat="42.322912" lon="1.089950">
        <ele>892.5</ele>
        <time>2018-06-12T09:49:14Z</time>
      </trkpt>
      <trkpt lat="42.322906" lon="1.089847">
        <ele>889.5</ele>
        <time>2018-06-12T09:49:17Z</time>
      </trkpt>
      <trkpt lat="42.322910" lon="1.089804">
        <ele>888.0</ele>
        <time>2018-06-12T09:49:18Z</time>
      </trkpt>
      <trkpt lat="42.322927" lon="1.089773">
        <ele>886.2</ele>
        <time>2018-06-12T09:49:18Z</time>
      </trkpt>
      <trkpt lat="42.322949" lon="1.089755">
        <ele>884.7</ele>
        <time>2018-06-12T09:49:19Z</time>
      </trkpt>
      <trkpt lat="42.323008" lon="1.089765">
        <ele>882.1</ele>
        <time>2018-06-12T09:49:21Z</time>
      </trkpt>
      <trkpt lat="42.323053" lon="1.089751">
        <ele>879.6</ele>
        <time>2018-06-12T09:49:22Z</time>
      </trkpt>
      <trkpt lat="42.323070" lon="1.089714">
        <ele>878.1</ele>
        <time>2018-06-12T09:49:23Z</time>
      </trkpt>
      <trkpt lat="42.323079" lon="1.089666">
        <ele>876.9</ele>
        <time>2018-06-12T09:49:24Z</time>
      </trkpt>
      <trkpt lat="42.323073" lon="1.089617">
        <ele>876.4</ele>
        <time>2018-06-12T09:49:25Z</time>
      </trkpt>
      <trkpt lat="42.323082" lon="1.089593">
        <ele>875.6</ele>
        <time>2018-06-12T09:49:26Z</time>
      </trkpt>
      <trkpt lat="42.323123" lon="1.089610">
        <ele>874.2</ele>
        <time>2018-06-12T09:49:27Z</time>
      </trkpt>
      <trkpt lat="42.323149" lon="1.089597">
        <ele>873.0</ele>
        <time>2018-06-12T09:49:28Z</time>
      </trkpt>
      <trkpt lat="42.323171" lon="1.089554">
        <ele>871.3</ele>
        <time>2018-06-12T09:49:29Z</time>
      </trkpt>
      <trkpt lat="42.323175" lon="1.089511">
        <ele>870.2</ele>
        <time>2018-06-12T09:49:30Z</time>
      </trkpt>
      <trkpt lat="42.323166" lon="1.089481">
        <ele>869.9</ele>
        <time>2018-06-12T09:49:30Z</time>
      </trkpt>
      <trkpt lat="42.323138" lon="1.089439">
        <ele>870.1</ele>
        <time>2018-06-12T09:49:31Z</time>
      </trkpt>
      <trkpt lat="42.323106" lon="1.089416">
        <ele>870.9</ele>
        <time>2018-06-12T09:49:32Z</time>
      </trkpt>
      <trkpt lat="42.323042" lon="1.089369">
        <ele>872.4</ele>
        <time>2018-06-12T09:49:34Z</time>
      </trkpt>
      <trkpt lat="42.322996" lon="1.089286">
        <ele>872.6</ele>
        <time>2018-06-12T09:49:36Z</time>
      </trkpt>
      <trkpt lat="42.322935" lon="1.089166">
        <ele>874.1</ele>
        <time>2018-06-12T09:49:39Z</time>
      </trkpt>
      <trkpt lat="42.322888" lon="1.089046">
        <ele>876.3</ele>
        <time>2018-06-12T09:49:42Z</time>
      </trkpt>
      <trkpt lat="42.322876" lon="1.088871">
        <ele>875.6</ele>
        <time>2018-06-12T09:49:45Z</time>
      </trkpt>
      <trkpt lat="42.322940" lon="1.088657">
        <ele>866.7</ele>
        <time>2018-06-12T09:49:50Z</time>
      </trkpt>
      <trkpt lat="42.323069" lon="1.088525">
        <ele>852.7</ele>
        <time>2018-06-12T09:49:56Z</time>
      </trkpt>
      <trkpt lat="42.323184" lon="1.088413">
        <ele>841.1</ele>
        <time>2018-06-12T09:50:00Z</time>
      </trkpt>
      <trkpt lat="42.323280" lon="1.088240">
        <ele>835.2</ele>
        <time>2018-06-12T09:50:05Z</time>
      </trkpt>
      <trkpt lat="42.323379" lon="1.087976">
        <ele>829.4</ele>
        <time>2018-06-12T09:50:11Z</time>
      </trkpt>
      <trkpt lat="42.323470" lon="1.087761">
        <ele>826.1</ele>
        <time>2018-06-12T09:50:15Z</time>
      </trkpt>
      <trkpt lat="42.323494" lon="1.087560">
        <ele>825.2</ele>
        <time>2018-06-12T09:50:19Z</time>
      </trkpt>
      <trkpt lat="42.323481" lon="1.087348">
        <ele>824.6</ele>
        <time>2018-06-12T09:50:24Z</time>
      </trkpt>
      <trkpt lat="42.323446" lon="1.087130">
        <ele>823.1</ele>
        <time>2018-06-12T09:50:28Z</time>
      </trkpt>
      <trkpt lat="42.323438" lon="1.086912">
        <ele>820.7</ele>
        <time>2018-06-12T09:50:32Z</time>
      </trkpt>
      <trkpt lat="42.323424" lon="1.086597">
        <ele>816.4</ele>
        <time>2018-06-12T09:50:38Z</time>
      </trkpt>
      <trkpt lat="42.323379" lon="1.086331">
        <ele>813.9</ele>
        <time>2018-06-12T09:50:44Z</time>
      </trkpt>
      <trkpt lat="42.323375" lon="1.086107">
        <ele>811.3</ele>
        <time>2018-06-12T09:50:48Z</time>
      </trkpt>
      <trkpt lat="42.323384" lon="1.085870">
        <ele>807.1</ele>
        <time>2018-06-12T09:50:53Z</time>
      </trkpt>
      <trkpt lat="42.323378" lon="1.085743">
        <ele>804.5</ele>
        <time>2018-06-12T09:50:55Z</time>
      </trkpt>
      <trkpt lat="42.323344" lon="1.085592">
        <ele>801.3</ele>
        <time>2018-06-12T09:50:59Z</time>
      </trkpt>
      <trkpt lat="42.323279" lon="1.085479">
        <ele>800.0</ele>
        <time>2018-06-12T09:51:01Z</time>
      </trkpt>
      <trkpt lat="42.323268" lon="1.085394">
        <ele>796.7</ele>
        <time>2018-06-12T09:51:03Z</time>
      </trkpt>
      <trkpt lat="42.323272" lon="1.085315">
        <ele>791.7</ele>
        <time>2018-06-12T09:51:05Z</time>
      </trkpt>
      <trkpt lat="42.323302" lon="1.085235">
        <ele>786.0</ele>
        <time>2018-06-12T09:51:07Z</time>
      </trkpt>
      <trkpt lat="42.323309" lon="1.085150">
        <ele>780.7</ele>
        <time>2018-06-12T09:51:10Z</time>
      </trkpt>
      <trkpt lat="42.323345" lon="1.085119">
        <ele>777.6</ele>
        <time>2018-06-12T09:51:11Z</time>
      </trkpt>
      <trkpt lat="42.323340" lon="1.085089">
        <ele>775.3</ele>
        <time>2018-06-12T09:51:12Z</time>
      </trkpt>
      <trkpt lat="42.323286" lon="1.085072">
        <ele>775.3</ele>
        <time>2018-06-12T09:51:13Z</time>
      </trkpt>
      <trkpt lat="42.323240" lon="1.085019">
        <ele>772.2</ele>
        <time>2018-06-12T09:51:15Z</time>
      </trkpt>
      <trkpt lat="42.323226" lon="1.084983">
        <ele>769.8</ele>
        <time>2018-06-12T09:51:16Z</time>
      </trkpt>
      <trkpt lat="42.323234" lon="1.084964">
        <ele>768.0</ele>
        <time>2018-06-12T09:51:16Z</time>
      </trkpt>
      <trkpt lat="42.323324" lon="1.084950">
        <ele>764.4</ele>
        <time>2018-06-12T09:51:19Z</time>
      </trkpt>
      <trkpt lat="42.323397" lon="1.085032">
        <ele>769.1</ele>
        <time>2018-06-12T09:51:22Z</time>
      </trkpt>
      <trkpt lat="42.323426" lon="1.085116">
        <ele>775.2</ele>
        <time>2018-06-12T09:51:24Z</time>
      </trkpt>
      <trkpt lat="42.323440" lon="1.085165">
        <ele>778.1</ele>
        <time>2018-06-12T09:51:25Z</time>
      </trkpt>
      <trkpt lat="42.323459" lon="1.085213">
        <ele>780.1</ele>
        <time>2018-06-12T09:51:26Z</time>
      </trkpt>
      <trkpt lat="42.323491" lon="1.085242">
        <ele>779.9</ele>
        <time>2018-06-12T09:51:27Z</time>
      </trkpt>
      <trkpt lat="42.323518" lon="1.085235">
        <ele>777.8</ele>
        <time>2018-06-12T09:51:28Z</time>
      </trkpt>
      <trkpt lat="42.323540" lon="1.085210">
        <ele>775.0</ele>
        <time>2018-06-12T09:51:29Z</time>
      </trkpt>
      <trkpt lat="42.323533" lon="1.085053">
        <ele>765.7</ele>
        <time>2018-06-12T09:51:33Z</time>
      </trkpt>
      <trkpt lat="42.323531" lon="1.084931">
        <ele>756.9</ele>
        <time>2018-06-12T09:51:36Z</time>
      </trkpt>
      <trkpt lat="42.323520" lon="1.084847">
        <ele>751.5</ele>
        <time>2018-06-12T09:51:38Z</time>
      </trkpt>
      <trkpt lat="42.323542" lon="1.084779">
        <ele>748.9</ele>
        <time>2018-06-12T09:51:40Z</time>
      </trkpt>
      <trkpt lat="42.323586" lon="1.084711">
        <ele>746.2</ele>
        <time>2018-06-12T09:51:42Z</time>
      </trkpt>
      <trkpt lat="42.323606" lon="1.084670">
        <ele>744.9</ele>
        <time>2018-06-12T09:51:43Z</time>
      </trkpt>
      <trkpt lat="42.323621" lon="1.084637">
        <ele>743.9</ele>
        <time>2018-06-12T09:51:44Z</time>
      </trkpt>
      <trkpt lat="42.323652" lon="1.084636">
        <ele>743.6</ele>
        <time>2018-06-12T09:51:44Z</time>
      </trkpt>
      <trkpt lat="42.323693" lon="1.084665">
        <ele>744.0</ele>
        <time>2018-06-12T09:51:46Z</time>
      </trkpt>
      <trkpt lat="42.323716" lon="1.084707">
        <ele>744.6</ele>
        <time>2018-06-12T09:51:47Z</time>
      </trkpt>
      <trkpt lat="42.323740" lon="1.084767">
        <ele>745.5</ele>
        <time>2018-06-12T09:51:48Z</time>
      </trkpt>
      <trkpt lat="42.323754" lon="1.084827">
        <ele>746.3</ele>
        <time>2018-06-12T09:51:49Z</time>
      </trkpt>
      <trkpt lat="42.323810" lon="1.084911">
        <ele>747.0</ele>
        <time>2018-06-12T09:51:52Z</time>
      </trkpt>
      <trkpt lat="42.323914" lon="1.084944">
        <ele>744.8</ele>
        <time>2018-06-12T09:51:54Z</time>
      </trkpt>
      <trkpt lat="42.323992" lon="1.084966">
        <ele>742.9</ele>
        <time>2018-06-12T09:51:57Z</time>
      </trkpt>
      <trkpt lat="42.324014" lon="1.084995">
        <ele>742.8</ele>
        <time>2018-06-12T09:51:57Z</time>
      </trkpt>
      <trkpt lat="42.324046" lon="1.085049">
        <ele>743.1</ele>
        <time>2018-06-12T09:51:59Z</time>
      </trkpt>
      <trkpt lat="42.324069" lon="1.085097">
        <ele>743.5</ele>
        <time>2018-06-12T09:52:00Z</time>
      </trkpt>
      <trkpt lat="42.324072" lon="1.085169">
        <ele>744.8</ele>
        <time>2018-06-12T09:52:01Z</time>
      </trkpt>
      <trkpt lat="42.324080" lon="1.085206">
        <ele>745.0</ele>
        <time>2018-06-12T09:52:02Z</time>
      </trkpt>
      <trkpt lat="42.324090" lon="1.085254">
        <ele>745.2</ele>
        <time>2018-06-12T09:52:03Z</time>
      </trkpt>
      <trkpt lat="42.324122" lon="1.085277">
        <ele>744.2</ele>
        <time>2018-06-12T09:52:04Z</time>
      </trkpt>
      <trkpt lat="42.324235" lon="1.085322">
        <ele>740.2</ele>
        <time>2018-06-12T09:52:07Z</time>
      </trkpt>
      <trkpt lat="42.324249" lon="1.085310">
        <ele>739.5</ele>
        <time>2018-06-12T09:52:08Z</time>
      </trkpt>
      <trkpt lat="42.324257" lon="1.085249">
        <ele>738.7</ele>
        <time>2018-06-12T09:52:09Z</time>
      </trkpt>
      <trkpt lat="42.324251" lon="1.085195">
        <ele>738.4</ele>
        <time>2018-06-12T09:52:10Z</time>
      </trkpt>
      <trkpt lat="42.324195" lon="1.084802">
        <ele>734.3</ele>
        <time>2018-06-12T09:52:18Z</time>
      </trkpt>
      <trkpt lat="42.324134" lon="1.084345">
        <ele>732.6</ele>
        <time>2018-06-12T09:52:27Z</time>
      </trkpt>
      <trkpt lat="42.324106" lon="1.084034">
        <ele>730.2</ele>
        <time>2018-06-12T09:52:33Z</time>
      </trkpt>
      <trkpt lat="42.324089" lon="1.083871">
        <ele>727.9</ele>
        <time>2018-06-12T09:52:36Z</time>
      </trkpt>
      <trkpt lat="42.324093" lon="1.083531">
        <ele>721.5</ele>
        <time>2018-06-12T09:52:43Z</time>
      </trkpt>
      <trkpt lat="42.324115" lon="1.083239">
        <ele>717.5</ele>
        <time>2018-06-12T09:52:49Z</time>
      </trkpt>
      <trkpt lat="42.324153" lon="1.082291">
        <ele>720.0</ele>
        <time>2018-06-12T09:53:07Z</time>
      </trkpt>
      <trkpt lat="42.324184" lon="1.081453">
        <ele>718.1</ele>
        <time>2018-06-12T09:53:24Z</time>
      </trkpt>
      <trkpt lat="42.324159" lon="1.081262">
        <ele>717.8</ele>
        <time>2018-06-12T09:53:27Z</time>
      </trkpt>
      <trkpt lat="42.324106" lon="1.081091">
        <ele>716.8</ele>
        <time>2018-06-12T09:53:31Z</time>
      </trkpt>
      <trkpt lat="42.324012" lon="1.080881">
        <ele>715.2</ele>
        <time>2018-06-12T09:53:36Z</time>
      </trkpt>
      <trkpt lat="42.323744" lon="1.080459">
        <ele>709.4</ele>
        <time>2018-06-12T09:53:47Z</time>
      </trkpt>
      <trkpt lat="42.323679" lon="1.080321">
        <ele>709.7</ele>
        <time>2018-06-12T09:53:50Z</time>
      </trkpt>
      <trkpt lat="42.323650" lon="1.080213">
        <ele>709.3</ele>
        <time>2018-06-12T09:53:52Z</time>
      </trkpt>
      <trkpt lat="42.323639" lon="1.080086">
        <ele>708.2</ele>
        <time>2018-06-12T09:53:55Z</time>
      </trkpt>
      <trkpt lat="42.323618" lon="1.079892">
        <ele>706.7</ele>
        <time>2018-06-12T09:53:59Z</time>
      </trkpt>
      <trkpt lat="42.323596" lon="1.079533">
        <ele>703.1</ele>
        <time>2018-06-12T09:54:06Z</time>
      </trkpt>
      <trkpt lat="42.323511" lon="1.079021">
        <ele>702.0</ele>
        <time>2018-06-12T09:54:16Z</time>
      </trkpt>
      <trkpt lat="42.323493" lon="1.078931">
        <ele>701.7</ele>
        <time>2018-06-12T09:54:18Z</time>
      </trkpt>
      <trkpt lat="42.323451" lon="1.078811">
        <ele>701.0</ele>
        <time>2018-06-12T09:54:20Z</time>
      </trkpt>
      <trkpt lat="42.323334" lon="1.078578">
        <ele>698.7</ele>
        <time>2018-06-12T09:54:26Z</time>
      </trkpt>
      <trkpt lat="42.323065" lon="1.078089">
        <ele>694.4</ele>
        <time>2018-06-12T09:54:38Z</time>
      </trkpt>
      <trkpt lat="42.322893" lon="1.077760">
        <ele>694.8</ele>
        <time>2018-06-12T09:54:45Z</time>
      </trkpt>
      <trkpt lat="42.322181" lon="1.076635">
        <ele>693.0</ele>
        <time>2018-06-12T09:55:14Z</time>
      </trkpt>
      <trkpt lat="42.322139" lon="1.076539">
        <ele>691.9</ele>
        <time>2018-06-12T09:55:17Z</time>
      </trkpt>
      <trkpt lat="42.322117" lon="1.076340">
        <ele>688.2</ele>
        <time>2018-06-12T09:55:21Z</time>
      </trkpt>
      <trkpt lat="42.322111" lon="1.075970">
        <ele>682.7</ele>
        <time>2018-06-12T09:55:28Z</time>
      </trkpt>
      <trkpt lat="42.322096" lon="1.075606">
        <ele>679.9</ele>
        <time>2018-06-12T09:55:35Z</time>
      </trkpt>
      <trkpt lat="42.322078" lon="1.075358">
        <ele>679.3</ele>
        <time>2018-06-12T09:55:40Z</time>
      </trkpt>
      <trkpt lat="42.322083" lon="1.075109">
        <ele>678.9</ele>
        <time>2018-06-12T09:55:45Z</time>
      </trkpt>
      <trkpt lat="42.322086" lon="1.074982">
        <ele>678.5</ele>
        <time>2018-06-12T09:55:47Z</time>
      </trkpt>
      <trkpt lat="42.322065" lon="1.074843">
        <ele>678.5</ele>
        <time>2018-06-12T09:55:50Z</time>
      </trkpt>
      <trkpt lat="42.322009" lon="1.074711">
        <ele>679.0</ele>
        <time>2018-06-12T09:55:53Z</time>
      </trkpt>
      <trkpt lat="42.321926" lon="1.074604">
        <ele>679.7</ele>
        <time>2018-06-12T09:55:56Z</time>
      </trkpt>
      <trkpt lat="42.321594" lon="1.073583">
        <ele>672.5</ele>
        <time>2018-06-12T09:56:18Z</time>
      </trkpt>
      <trkpt lat="42.321574" lon="1.073499">
        <ele>671.4</ele>
        <time>2018-06-12T09:56:19Z</time>
      </trkpt>
      <trkpt lat="42.321604" lon="1.073376">
        <ele>669.9</ele>
        <time>2018-06-12T09:56:22Z</time>
      </trkpt>
      <trkpt lat="42.321616" lon="1.073291">
        <ele>669.9</ele>
        <time>2018-06-12T09:56:24Z</time>
      </trkpt>
      <trkpt lat="42.321660" lon="1.073247">
        <ele>668.4</ele>
        <time>2018-06-12T09:56:25Z</time>
      </trkpt>
      <trkpt lat="42.321737" lon="1.073219">
        <ele>665.5</ele>
        <time>2018-06-12T09:56:27Z</time>
      </trkpt>
      <trkpt lat="42.321931" lon="1.073296">
        <ele>660.9</ele>
        <time>2018-06-12T09:56:33Z</time>
      </trkpt>
      <trkpt lat="42.322055" lon="1.073147">
        <ele>659.1</ele>
        <time>2018-06-12T09:56:37Z</time>
      </trkpt>
      <trkpt lat="42.322124" lon="1.072975">
        <ele>657.1</ele>
        <time>2018-06-12T09:56:41Z</time>
      </trkpt>
      <trkpt lat="42.322228" lon="1.072753">
        <ele>655.1</ele>
        <time>2018-06-12T09:56:46Z</time>
      </trkpt>
      <trkpt lat="42.322369" lon="1.072555">
        <ele>650.8</ele>
        <time>2018-06-12T09:56:52Z</time>
      </trkpt>
      <trkpt lat="42.322403" lon="1.072432">
        <ele>650.9</ele>
        <time>2018-06-12T09:56:54Z</time>
      </trkpt>
      <trkpt lat="42.322399" lon="1.072190">
        <ele>649.8</ele>
        <time>2018-06-12T09:56:59Z</time>
      </trkpt>
      <trkpt lat="42.322322" lon="1.071763">
        <ele>647.0</ele>
        <time>2018-06-12T09:57:07Z</time>
      </trkpt>
      <trkpt lat="42.322237" lon="1.071127">
        <ele>643.0</ele>
        <time>2018-06-12T09:57:20Z</time>
      </trkpt>
      <trkpt lat="42.322123" lon="1.070790">
        <ele>642.4</ele>
        <time>2018-06-12T09:57:27Z</time>
      </trkpt>
      <trkpt lat="42.321863" lon="1.070313">
        <ele>639.0</ele>
        <time>2018-06-12T09:57:39Z</time>
      </trkpt>
      <trkpt lat="42.321680" lon="1.069830">
        <ele>633.2</ele>
        <time>2018-06-12T09:57:50Z</time>
      </trkpt>
      <trkpt lat="42.321596" lon="1.069447">
        <ele>628.9</ele>
        <time>2018-06-12T09:57:57Z</time>
      </trkpt>
      <trkpt lat="42.321554" lon="1.069060">
        <ele>627.4</ele>
        <time>2018-06-12T09:58:05Z</time>
      </trkpt>
      <trkpt lat="42.321659" lon="1.068887">
        <ele>623.5</ele>
        <time>2018-06-12T09:58:09Z</time>
      </trkpt>
      <trkpt lat="42.321801" lon="1.068761">
        <ele>619.1</ele>
        <time>2018-06-12T09:58:14Z</time>
      </trkpt>
      <trkpt lat="42.322051" lon="1.068560">
        <ele>611.3</ele>
        <time>2018-06-12T09:58:22Z</time>
      </trkpt>
      <trkpt lat="42.322263" lon="1.068271">
        <ele>602.3</ele>
        <time>2018-06-12T09:58:30Z</time>
      </trkpt>
      <trkpt lat="42.322435" lon="1.067892">
        <ele>598.6</ele>
        <time>2018-06-12T09:58:39Z</time>
      </trkpt>
      <trkpt lat="42.322467" lon="1.067673">
        <ele>597.9</ele>
        <time>2018-06-12T09:58:43Z</time>
      </trkpt>
      <trkpt lat="42.322482" lon="1.067478">
        <ele>597.0</ele>
        <time>2018-06-12T09:58:47Z</time>
      </trkpt>
      <trkpt lat="42.322520" lon="1.067318">
        <ele>596.3</ele>
        <time>2018-06-12T09:58:50Z</time>
      </trkpt>
      <trkpt lat="42.322564" lon="1.067295">
        <ele>596.1</ele>
        <time>2018-06-12T09:58:52Z</time>
      </trkpt>
      <trkpt lat="42.322718" lon="1.067150">
        <ele>594.8</ele>
        <time>2018-06-12T09:58:57Z</time>
      </trkpt>
      <trkpt lat="42.322784" lon="1.067131">
        <ele>593.8</ele>
        <time>2018-06-12T09:58:58Z</time>
      </trkpt>
      <trkpt lat="42.322857" lon="1.067159">
        <ele>592.6</ele>
        <time>2018-06-12T09:59:00Z</time>
      </trkpt>
      <trkpt lat="42.322949" lon="1.067198">
        <ele>591.2</ele>
        <time>2018-06-12T09:59:03Z</time>
      </trkpt>
      <trkpt lat="42.323029" lon="1.067235">
        <ele>590.1</ele>
        <time>2018-06-12T09:59:05Z</time>
      </trkpt>
      <trkpt lat="42.323108" lon="1.067217">
        <ele>589.1</ele>
        <time>2018-06-12T09:59:07Z</time>
      </trkpt>
      <trkpt lat="42.323264" lon="1.066872">
        <ele>588.0</ele>
        <time>2018-06-12T09:59:15Z</time>
      </trkpt>
      <trkpt lat="42.323297" lon="1.066677">
        <ele>588.3</ele>
        <time>2018-06-12T09:59:19Z</time>
      </trkpt>
      <trkpt lat="42.323240" lon="1.066533">
        <ele>588.3</ele>
        <time>2018-06-12T09:59:22Z</time>
      </trkpt>
      <trkpt lat="42.323223" lon="1.066393">
        <ele>589.3</ele>
        <time>2018-06-12T09:59:25Z</time>
      </trkpt>
      <trkpt lat="42.322495" lon="1.066119">
        <ele>572.6</ele>
        <time>2018-06-12T09:59:45Z</time>
      </trkpt>
      <trkpt lat="42.322303" lon="1.066113">
        <ele>570.4</ele>
        <time>2018-06-12T09:59:50Z</time>
      </trkpt>
      <trkpt lat="42.322081" lon="1.066132">
        <ele>572.0</ele>
        <time>2018-06-12T09:59:56Z</time>
      </trkpt>
      <trkpt lat="42.321866" lon="1.066187">
        <ele>569.0</ele>
        <time>2018-06-12T10:00:02Z</time>
      </trkpt>
      <trkpt lat="42.321327" lon="1.066276">
        <ele>574.0</ele>
        <time>2018-06-12T10:00:16Z</time>
      </trkpt>
      <trkpt lat="42.321217" lon="1.066182">
        <ele>573.5</ele>
        <time>2018-06-12T10:00:20Z</time>
      </trkpt>
      <trkpt lat="42.321073" lon="1.066187">
        <ele>575.8</ele>
        <time>2018-06-12T10:00:24Z</time>
      </trkpt>
      <trkpt lat="42.320785" lon="1.066220">
        <ele>584.3</ele>
        <time>2018-06-12T10:00:32Z</time>
      </trkpt>
      <trkpt lat="42.320714" lon="1.066270">
        <ele>588.2</ele>
        <time>2018-06-12T10:00:34Z</time>
      </trkpt>
      <trkpt lat="42.320591" lon="1.066420">
        <ele>596.2</ele>
        <time>2018-06-12T10:00:39Z</time>
      </trkpt>
      <trkpt lat="42.320282" lon="1.066284">
        <ele>598.7</ele>
        <time>2018-06-12T10:00:47Z</time>
      </trkpt>
      <trkpt lat="42.320174" lon="1.066263">
        <ele>599.8</ele>
        <time>2018-06-12T10:00:50Z</time>
      </trkpt>
      <trkpt lat="42.320047" lon="1.066242">
        <ele>601.9</ele>
        <time>2018-06-12T10:00:53Z</time>
      </trkpt>
      <trkpt lat="42.319886" lon="1.066296">
        <ele>607.1</ele>
        <time>2018-06-12T10:00:58Z</time>
      </trkpt>
      <trkpt lat="42.319744" lon="1.066397">
        <ele>612.7</ele>
        <time>2018-06-12T10:01:02Z</time>
      </trkpt>
      <trkpt lat="42.319524" lon="1.066186">
        <ele>610.3</ele>
        <time>2018-06-12T10:01:10Z</time>
      </trkpt>
      <trkpt lat="42.319450" lon="1.066042">
        <ele>607.2</ele>
        <time>2018-06-12T10:01:13Z</time>
      </trkpt>
      <trkpt lat="42.319446" lon="1.065848">
        <ele>602.7</ele>
        <time>2018-06-12T10:01:17Z</time>
      </trkpt>
      <trkpt lat="42.319408" lon="1.065728">
        <ele>601.1</ele>
        <time>2018-06-12T10:01:20Z</time>
      </trkpt>
      <trkpt lat="42.319334" lon="1.065585">
        <ele>600.5</ele>
        <time>2018-06-12T10:01:23Z</time>
      </trkpt>
      <trkpt lat="42.319245" lon="1.065590">
        <ele>601.9</ele>
        <time>2018-06-12T10:01:25Z</time>
      </trkpt>
      <trkpt lat="42.318711" lon="1.064948">
        <ele>601.6</ele>
        <time>2018-06-12T10:01:44Z</time>
      </trkpt>
      <trkpt lat="42.318619" lon="1.064878">
        <ele>602.4</ele>
        <time>2018-06-12T10:01:47Z</time>
      </trkpt>
      <trkpt lat="42.318511" lon="1.064882">
        <ele>603.5</ele>
        <time>2018-06-12T10:01:50Z</time>
      </trkpt>
      <trkpt lat="42.318318" lon="1.064899">
        <ele>607.8</ele>
        <time>2018-06-12T10:01:55Z</time>
      </trkpt>
      <trkpt lat="42.318051" lon="1.064313">
        <ele>605.1</ele>
        <time>2018-06-12T10:02:08Z</time>
      </trkpt>
      <trkpt lat="42.317789" lon="1.063739">
        <ele>596.9</ele>
        <time>2018-06-12T10:02:22Z</time>
      </trkpt>
      <trkpt lat="42.317608" lon="1.063482">
        <ele>597.0</ele>
        <time>2018-06-12T10:02:29Z</time>
      </trkpt>
      <trkpt lat="42.317424" lon="1.063410">
        <ele>596.3</ele>
        <time>2018-06-12T10:02:34Z</time>
      </trkpt>
      <trkpt lat="42.317208" lon="1.063466">
        <ele>594.8</ele>
        <time>2018-06-12T10:02:39Z</time>
      </trkpt>
      <trkpt lat="42.316919" lon="1.063402">
        <ele>596.4</ele>
        <time>2018-06-12T10:02:47Z</time>
      </trkpt>
      <trkpt lat="42.316154" lon="1.063116">
        <ele>621.8</ele>
        <time>2018-06-12T10:03:09Z</time>
      </trkpt>
      <trkpt lat="42.315766" lon="1.062717">
        <ele>609.6</ele>
        <time>2018-06-12T10:03:22Z</time>
      </trkpt>
      <trkpt lat="42.315531" lon="1.062255">
        <ele>590.1</ele>
        <time>2018-06-12T10:03:34Z</time>
      </trkpt>
      <trkpt lat="42.315511" lon="1.062159">
        <ele>587.9</ele>
        <time>2018-06-12T10:03:36Z</time>
      </trkpt>
      <trkpt lat="42.315472" lon="1.061922">
        <ele>582.1</ele>
        <time>2018-06-12T10:03:41Z</time>
      </trkpt>
      <trkpt lat="42.315305" lon="1.061655">
        <ele>575.8</ele>
        <time>2018-06-12T10:03:48Z</time>
      </trkpt>
      <trkpt lat="42.315213" lon="1.061604">
        <ele>574.5</ele>
        <time>2018-06-12T10:03:50Z</time>
      </trkpt>
      <trkpt lat="42.315086" lon="1.061516">
        <ele>570.3</ele>
        <time>2018-06-12T10:03:54Z</time>
      </trkpt>
      <trkpt lat="42.314723" lon="1.061358">
        <ele>552.9</ele>
        <time>2018-06-12T10:04:05Z</time>
      </trkpt>
      <trkpt lat="42.314613" lon="1.061264">
        <ele>545.2</ele>
        <time>2018-06-12T10:04:09Z</time>
      </trkpt>
      <trkpt lat="42.314505" lon="1.061267">
        <ele>541.8</ele>
        <time>2018-06-12T10:04:12Z</time>
      </trkpt>
      <trkpt lat="42.314274" lon="1.061444">
        <ele>546.9</ele>
        <time>2018-06-12T10:04:19Z</time>
      </trkpt>
      <trkpt lat="42.313971" lon="1.061623">
        <ele>539.1</ele>
        <time>2018-06-12T10:04:28Z</time>
      </trkpt>
      <trkpt lat="42.313690" lon="1.061651">
        <ele>538.3</ele>
        <time>2018-06-12T10:04:35Z</time>
      </trkpt>
      <trkpt lat="42.313415" lon="1.061786">
        <ele>549.5</ele>
        <time>2018-06-12T10:04:44Z</time>
      </trkpt>
      <trkpt lat="42.313145" lon="1.061794">
        <ele>554.5</ele>
        <time>2018-06-12T10:04:51Z</time>
      </trkpt>
      <trkpt lat="42.313017" lon="1.061836">
        <ele>555.4</ele>
        <time>2018-06-12T10:04:54Z</time>
      </trkpt>
      <trkpt lat="42.312944" lon="1.061865">
        <ele>556.2</ele>
        <time>2018-06-12T10:04:56Z</time>
      </trkpt>
      <trkpt lat="42.312898" lon="1.061845">
        <ele>555.6</ele>
        <time>2018-06-12T10:04:58Z</time>
      </trkpt>
      <trkpt lat="42.312813" lon="1.061785">
        <ele>554.7</ele>
        <time>2018-06-12T10:05:00Z</time>
      </trkpt>
      <trkpt lat="42.312491" lon="1.061426">
        <ele>556.0</ele>
        <time>2018-06-12T10:05:11Z</time>
      </trkpt>
      <trkpt lat="42.312216" lon="1.061168">
        <ele>567.0</ele>
        <time>2018-06-12T10:05:20Z</time>
      </trkpt>
      <trkpt lat="42.312143" lon="1.061147">
        <ele>570.3</ele>
        <time>2018-06-12T10:05:22Z</time>
      </trkpt>
      <trkpt lat="42.312088" lon="1.061160">
        <ele>571.7</ele>
        <time>2018-06-12T10:05:24Z</time>
      </trkpt>
      <trkpt lat="42.311410" lon="1.061459">
        <ele>572.4</ele>
        <time>2018-06-12T10:05:43Z</time>
      </trkpt>
      <trkpt lat="42.311310" lon="1.061468">
        <ele>575.4</ele>
        <time>2018-06-12T10:05:45Z</time>
      </trkpt>
      <trkpt lat="42.311270" lon="1.061415">
        <ele>578.8</ele>
        <time>2018-06-12T10:05:47Z</time>
      </trkpt>
      <trkpt lat="42.311254" lon="1.061361">
        <ele>581.5</ele>
        <time>2018-06-12T10:05:48Z</time>
      </trkpt>
      <trkpt lat="42.311231" lon="1.061249">
        <ele>586.1</ele>
        <time>2018-06-12T10:05:51Z</time>
      </trkpt>
      <trkpt lat="42.311117" lon="1.061129">
        <ele>588.4</ele>
        <time>2018-06-12T10:05:55Z</time>
      </trkpt>
      <trkpt lat="42.310900" lon="1.061087">
        <ele>590.2</ele>
        <time>2018-06-12T10:06:01Z</time>
      </trkpt>
      <trkpt lat="42.310536" lon="1.060904">
        <ele>592.9</ele>
        <time>2018-06-12T10:06:11Z</time>
      </trkpt>
      <trkpt lat="42.310318" lon="1.060765">
        <ele>591.6</ele>
        <time>2018-06-12T10:06:17Z</time>
      </trkpt>
      <trkpt lat="42.310062" lon="1.060530">
        <ele>587.1</ele>
        <time>2018-06-12T10:06:25Z</time>
      </trkpt>
      <trkpt lat="42.310059" lon="1.060475">
        <ele>586.5</ele>
        <time>2018-06-12T10:06:26Z</time>
      </trkpt>
      <trkpt lat="42.310074" lon="1.060413">
        <ele>585.6</ele>
        <time>2018-06-12T10:06:28Z</time>
      </trkpt>
      <trkpt lat="42.310106" lon="1.060399">
        <ele>585.1</ele>
        <time>2018-06-12T10:06:29Z</time>
      </trkpt>
      <trkpt lat="42.310131" lon="1.060382">
        <ele>584.5</ele>
        <time>2018-06-12T10:06:29Z</time>
      </trkpt>
      <trkpt lat="42.310278" lon="1.060523">
        <ele>587.7</ele>
        <time>2018-06-12T10:06:34Z</time>
      </trkpt>
      <trkpt lat="42.310303" lon="1.060509">
        <ele>587.7</ele>
        <time>2018-06-12T10:06:35Z</time>
      </trkpt>
      <trkpt lat="42.310313" lon="1.060474">
        <ele>587.2</ele>
        <time>2018-06-12T10:06:36Z</time>
      </trkpt>
      <trkpt lat="42.310238" lon="1.060282">
        <ele>584.2</ele>
        <time>2018-06-12T10:06:40Z</time>
      </trkpt>
      <trkpt lat="42.310200" lon="1.060178">
        <ele>582.1</ele>
        <time>2018-06-12T10:06:42Z</time>
      </trkpt>
      <trkpt lat="42.310184" lon="1.060150">
        <ele>581.3</ele>
        <time>2018-06-12T10:06:43Z</time>
      </trkpt>
      <trkpt lat="42.310193" lon="1.060118">
        <ele>581.8</ele>
        <time>2018-06-12T10:06:44Z</time>
      </trkpt>
      <trkpt lat="42.310234" lon="1.060088">
        <ele>583.2</ele>
        <time>2018-06-12T10:06:45Z</time>
      </trkpt>
      <trkpt lat="42.310448" lon="1.059960">
        <ele>585.7</ele>
        <time>2018-06-12T10:06:51Z</time>
      </trkpt>
      <trkpt lat="42.310661" lon="1.059759">
        <ele>591.9</ele>
        <time>2018-06-12T10:06:58Z</time>
      </trkpt>
      <trkpt lat="42.310766" lon="1.059538">
        <ele>593.9</ele>
        <time>2018-06-12T10:07:03Z</time>
      </trkpt>
      <trkpt lat="42.310836" lon="1.059439">
        <ele>593.2</ele>
        <time>2018-06-12T10:07:06Z</time>
      </trkpt>
      <trkpt lat="42.310869" lon="1.059243">
        <ele>594.9</ele>
        <time>2018-06-12T10:07:10Z</time>
      </trkpt>
      <trkpt lat="42.310866" lon="1.059098">
        <ele>597.7</ele>
        <time>2018-06-12T10:07:13Z</time>
      </trkpt>
      <trkpt lat="42.310852" lon="1.058969">
        <ele>600.7</ele>
        <time>2018-06-12T10:07:15Z</time>
      </trkpt>
      <trkpt lat="42.310987" lon="1.058862">
        <ele>600.1</ele>
        <time>2018-06-12T10:07:20Z</time>
      </trkpt>
      <trkpt lat="42.311284" lon="1.058809">
        <ele>599.1</ele>
        <time>2018-06-12T10:07:27Z</time>
      </trkpt>
      <trkpt lat="42.311420" lon="1.058763">
        <ele>597.8</ele>
        <time>2018-06-12T10:07:31Z</time>
      </trkpt>
      <trkpt lat="42.311563" lon="1.058546">
        <ele>597.2</ele>
        <time>2018-06-12T10:07:37Z</time>
      </trkpt>
      <trkpt lat="42.311683" lon="1.058393">
        <ele>598.1</ele>
        <time>2018-06-12T10:07:41Z</time>
      </trkpt>
      <trkpt lat="42.311963" lon="1.058224">
        <ele>603.0</ele>
        <time>2018-06-12T10:07:49Z</time>
      </trkpt>
      <trkpt lat="42.312153" lon="1.058055">
        <ele>609.8</ele>
        <time>2018-06-12T10:07:56Z</time>
      </trkpt>
      <trkpt lat="42.312355" lon="1.057996">
        <ele>610.3</ele>
        <time>2018-06-12T10:08:01Z</time>
      </trkpt>
      <trkpt lat="42.312504" lon="1.057980">
        <ele>613.2</ele>
        <time>2018-06-12T10:08:05Z</time>
      </trkpt>
      <trkpt lat="42.312686" lon="1.058071">
        <ele>615.3</ele>
        <time>2018-06-12T10:08:10Z</time>
      </trkpt>
      <trkpt lat="42.312728" lon="1.058053">
        <ele>617.1</ele>
        <time>2018-06-12T10:08:11Z</time>
      </trkpt>
      <trkpt lat="42.312679" lon="1.057979">
        <ele>617.1</ele>
        <time>2018-06-12T10:08:13Z</time>
      </trkpt>
      <trkpt lat="42.312627" lon="1.057888">
        <ele>617.3</ele>
        <time>2018-06-12T10:08:15Z</time>
      </trkpt>
      <trkpt lat="42.312655" lon="1.057767">
        <ele>620.0</ele>
        <time>2018-06-12T10:08:18Z</time>
      </trkpt>
      <trkpt lat="42.312710" lon="1.057594">
        <ele>623.0</ele>
        <time>2018-06-12T10:08:22Z</time>
      </trkpt>
      <trkpt lat="42.312958" lon="1.057117">
        <ele>624.6</ele>
        <time>2018-06-12T10:08:33Z</time>
      </trkpt>
      <trkpt lat="42.312974" lon="1.056995">
        <ele>627.1</ele>
        <time>2018-06-12T10:08:36Z</time>
      </trkpt>
      <trkpt lat="42.312883" lon="1.056949">
        <ele>629.2</ele>
        <time>2018-06-12T10:08:38Z</time>
      </trkpt>
      <trkpt lat="42.312812" lon="1.056975">
        <ele>632.0</ele>
        <time>2018-06-12T10:08:40Z</time>
      </trkpt>
      <trkpt lat="42.312472" lon="1.057271">
        <ele>638.2</ele>
        <time>2018-06-12T10:08:51Z</time>
      </trkpt>
      <trkpt lat="42.312089" lon="1.057180">
        <ele>653.1</ele>
        <time>2018-06-12T10:09:02Z</time>
      </trkpt>
      <trkpt lat="42.311661" lon="1.057084">
        <ele>654.4</ele>
        <time>2018-06-12T10:09:13Z</time>
      </trkpt>
      <trkpt lat="42.311480" lon="1.057065">
        <ele>652.7</ele>
        <time>2018-06-12T10:09:18Z</time>
      </trkpt>
      <trkpt lat="42.311324" lon="1.056998">
        <ele>655.3</ele>
        <time>2018-06-12T10:09:22Z</time>
      </trkpt>
      <trkpt lat="42.311117" lon="1.056906">
        <ele>658.9</ele>
        <time>2018-06-12T10:09:28Z</time>
      </trkpt>
      <trkpt lat="42.310899" lon="1.056767">
        <ele>664.5</ele>
        <time>2018-06-12T10:09:35Z</time>
      </trkpt>
      <trkpt lat="42.310770" lon="1.056626">
        <ele>669.2</ele>
        <time>2018-06-12T10:09:39Z</time>
      </trkpt>
      <trkpt lat="42.310643" lon="1.056533">
        <ele>670.9</ele>
        <time>2018-06-12T10:09:43Z</time>
      </trkpt>
      <trkpt lat="42.310621" lon="1.056493">
        <ele>672.1</ele>
        <time>2018-06-12T10:09:44Z</time>
      </trkpt>
      <trkpt lat="42.310623" lon="1.056436">
        <ele>674.4</ele>
        <time>2018-06-12T10:09:45Z</time>
      </trkpt>
      <trkpt lat="42.310626" lon="1.056386">
        <ele>676.5</ele>
        <time>2018-06-12T10:09:46Z</time>
      </trkpt>
      <trkpt lat="42.310643" lon="1.056340">
        <ele>678.6</ele>
        <time>2018-06-12T10:09:48Z</time>
      </trkpt>
      <trkpt lat="42.310707" lon="1.056294">
        <ele>681.6</ele>
        <time>2018-06-12T10:09:50Z</time>
      </trkpt>
      <trkpt lat="42.310806" lon="1.056297">
        <ele>684.0</ele>
        <time>2018-06-12T10:09:52Z</time>
      </trkpt>
      <trkpt lat="42.310881" lon="1.056265">
        <ele>687.6</ele>
        <time>2018-06-12T10:09:54Z</time>
      </trkpt>
      <trkpt lat="42.310966" lon="1.056252">
        <ele>690.7</ele>
        <time>2018-06-12T10:09:57Z</time>
      </trkpt>
      <trkpt lat="42.311096" lon="1.056241">
        <ele>689.9</ele>
        <time>2018-06-12T10:10:00Z</time>
      </trkpt>
      <trkpt lat="42.311224" lon="1.056225">
        <ele>689.1</ele>
        <time>2018-06-12T10:10:04Z</time>
      </trkpt>
      <trkpt lat="42.311362" lon="1.056235">
        <ele>689.3</ele>
        <time>2018-06-12T10:10:07Z</time>
      </trkpt>
      <trkpt lat="42.311375" lon="1.056206">
        <ele>690.3</ele>
        <time>2018-06-12T10:10:08Z</time>
      </trkpt>
      <trkpt lat="42.311373" lon="1.056163">
        <ele>691.7</ele>
        <time>2018-06-12T10:10:09Z</time>
      </trkpt>
      <trkpt lat="42.311349" lon="1.056128">
        <ele>692.7</ele>
        <time>2018-06-12T10:10:10Z</time>
      </trkpt>
      <trkpt lat="42.311183" lon="1.055999">
        <ele>696.0</ele>
        <time>2018-06-12T10:10:15Z</time>
      </trkpt>
      <trkpt lat="42.311185" lon="1.055978">
        <ele>696.6</ele>
        <time>2018-06-12T10:10:15Z</time>
      </trkpt>
      <trkpt lat="42.311206" lon="1.055975">
        <ele>696.8</ele>
        <time>2018-06-12T10:10:16Z</time>
      </trkpt>
      <trkpt lat="42.311252" lon="1.055989">
        <ele>696.5</ele>
        <time>2018-06-12T10:10:17Z</time>
      </trkpt>
      <trkpt lat="42.311536" lon="1.056064">
        <ele>696.2</ele>
        <time>2018-06-12T10:10:25Z</time>
      </trkpt>
      <trkpt lat="42.311577" lon="1.056061">
        <ele>696.9</ele>
        <time>2018-06-12T10:10:26Z</time>
      </trkpt>
      <trkpt lat="42.311599" lon="1.056024">
        <ele>698.6</ele>
        <time>2018-06-12T10:10:27Z</time>
      </trkpt>
      <trkpt lat="42.311559" lon="1.055948">
        <ele>700.2</ele>
        <time>2018-06-12T10:10:29Z</time>
      </trkpt>
      <trkpt lat="42.311417" lon="1.055838">
        <ele>701.3</ele>
        <time>2018-06-12T10:10:33Z</time>
      </trkpt>
      <trkpt lat="42.311175" lon="1.055704">
        <ele>703.5</ele>
        <time>2018-06-12T10:10:40Z</time>
      </trkpt>
      <trkpt lat="42.310965" lon="1.055565">
        <ele>700.8</ele>
        <time>2018-06-12T10:10:46Z</time>
      </trkpt>
      <trkpt lat="42.310799" lon="1.055549">
        <ele>693.8</ele>
        <time>2018-06-12T10:10:51Z</time>
      </trkpt>
      <trkpt lat="42.310723" lon="1.055420">
        <ele>689.2</ele>
        <time>2018-06-12T10:10:54Z</time>
      </trkpt>
      <trkpt lat="42.310807" lon="1.055200">
        <ele>687.7</ele>
        <time>2018-06-12T10:10:59Z</time>
      </trkpt>
      <trkpt lat="42.310874" lon="1.055146">
        <ele>690.8</ele>
        <time>2018-06-12T10:11:01Z</time>
      </trkpt>
      <trkpt lat="42.310926" lon="1.055168">
        <ele>694.4</ele>
        <time>2018-06-12T10:11:03Z</time>
      </trkpt>
      <trkpt lat="42.311025" lon="1.055329">
        <ele>699.8</ele>
        <time>2018-06-12T10:11:07Z</time>
      </trkpt>
      <trkpt lat="42.311168" lon="1.055334">
        <ele>703.6</ele>
        <time>2018-06-12T10:11:11Z</time>
      </trkpt>
      <trkpt lat="42.311303" lon="1.055302">
        <ele>706.1</ele>
        <time>2018-06-12T10:11:15Z</time>
      </trkpt>
      <trkpt lat="42.311445" lon="1.055232">
        <ele>707.9</ele>
        <time>2018-06-12T10:11:19Z</time>
      </trkpt>
      <trkpt lat="42.311711" lon="1.055184">
        <ele>715.8</ele>
        <time>2018-06-12T10:11:26Z</time>
      </trkpt>
      <trkpt lat="42.311802" lon="1.055189">
        <ele>718.8</ele>
        <time>2018-06-12T10:11:29Z</time>
      </trkpt>
      <trkpt lat="42.312080" lon="1.055270">
        <ele>734.0</ele>
        <time>2018-06-12T10:11:37Z</time>
      </trkpt>
      <trkpt lat="42.312140" lon="1.055264">
        <ele>736.3</ele>
        <time>2018-06-12T10:11:39Z</time>
      </trkpt>
      <trkpt lat="42.312179" lon="1.055216">
        <ele>739.0</ele>
        <time>2018-06-12T10:11:40Z</time>
      </trkpt>
      <trkpt lat="42.311759" lon="1.054776">
        <ele>735.0</ele>
        <time>2018-06-12T10:11:54Z</time>
      </trkpt>
      <trkpt lat="42.311707" lon="1.054648">
        <ele>735.4</ele>
        <time>2018-06-12T10:11:57Z</time>
      </trkpt>
      <trkpt lat="42.311688" lon="1.054438">
        <ele>737.2</ele>
        <time>2018-06-12T10:12:01Z</time>
      </trkpt>
      <trkpt lat="42.311736" lon="1.054315">
        <ele>741.2</ele>
        <time>2018-06-12T10:12:04Z</time>
      </trkpt>
      <trkpt lat="42.311756" lon="1.054217">
        <ele>741.8</ele>
        <time>2018-06-12T10:12:06Z</time>
      </trkpt>
      <trkpt lat="42.311810" lon="1.054216">
        <ele>745.1</ele>
        <time>2018-06-12T10:12:08Z</time>
      </trkpt>
      <trkpt lat="42.311829" lon="1.054263">
        <ele>746.2</ele>
        <time>2018-06-12T10:12:09Z</time>
      </trkpt>
      <trkpt lat="42.311867" lon="1.054359">
        <ele>747.0</ele>
        <time>2018-06-12T10:12:11Z</time>
      </trkpt>
      <trkpt lat="42.311902" lon="1.054334">
        <ele>748.2</ele>
        <time>2018-06-12T10:12:12Z</time>
      </trkpt>
      <trkpt lat="42.311919" lon="1.054236">
        <ele>748.2</ele>
        <time>2018-06-12T10:12:14Z</time>
      </trkpt>
      <trkpt lat="42.311935" lon="1.054163">
        <ele>748.0</ele>
        <time>2018-06-12T10:12:15Z</time>
      </trkpt>
      <trkpt lat="42.312007" lon="1.054113">
        <ele>749.5</ele>
        <time>2018-06-12T10:12:18Z</time>
      </trkpt>
      <trkpt lat="42.312043" lon="1.054111">
        <ele>750.5</ele>
        <time>2018-06-12T10:12:18Z</time>
      </trkpt>
      <trkpt lat="42.312151" lon="1.054108">
        <ele>753.1</ele>
        <time>2018-06-12T10:12:21Z</time>
      </trkpt>
      <trkpt lat="42.312223" lon="1.054154">
        <ele>754.9</ele>
        <time>2018-06-12T10:12:24Z</time>
      </trkpt>
      <trkpt lat="42.312295" lon="1.054152">
        <ele>756.5</ele>
        <time>2018-06-12T10:12:25Z</time>
      </trkpt>
      <trkpt lat="42.312331" lon="1.054127">
        <ele>757.1</ele>
        <time>2018-06-12T10:12:27Z</time>
      </trkpt>
      <trkpt lat="42.312474" lon="1.054074">
        <ele>760.9</ele>
        <time>2018-06-12T10:12:31Z</time>
      </trkpt>
      <trkpt lat="42.312581" lon="1.053998">
        <ele>765.1</ele>
        <time>2018-06-12T10:12:34Z</time>
      </trkpt>
      <trkpt lat="42.312652" lon="1.053947">
        <ele>768.0</ele>
        <time>2018-06-12T10:12:36Z</time>
      </trkpt>
      <trkpt lat="42.312651" lon="1.053874">
        <ele>768.5</ele>
        <time>2018-06-12T10:12:38Z</time>
      </trkpt>
      <trkpt lat="42.312575" lon="1.053634">
        <ele>765.8</ele>
        <time>2018-06-12T10:12:43Z</time>
      </trkpt>
      <trkpt lat="42.312482" lon="1.053367">
        <ele>759.8</ele>
        <time>2018-06-12T10:12:49Z</time>
      </trkpt>
      <trkpt lat="42.312496" lon="1.053248">
        <ele>759.7</ele>
        <time>2018-06-12T10:12:51Z</time>
      </trkpt>
      <trkpt lat="42.312532" lon="1.053223">
        <ele>761.7</ele>
        <time>2018-06-12T10:12:52Z</time>
      </trkpt>
      <trkpt lat="42.312586" lon="1.053245">
        <ele>765.0</ele>
        <time>2018-06-12T10:12:54Z</time>
      </trkpt>
      <trkpt lat="42.312645" lon="1.053510">
        <ele>769.3</ele>
        <time>2018-06-12T10:12:59Z</time>
      </trkpt>
      <trkpt lat="42.312683" lon="1.053655">
        <ele>770.7</ele>
        <time>2018-06-12T10:13:02Z</time>
      </trkpt>
      <trkpt lat="42.312705" lon="1.053715">
        <ele>771.4</ele>
        <time>2018-06-12T10:13:04Z</time>
      </trkpt>
      <trkpt lat="42.312751" lon="1.053734">
        <ele>773.1</ele>
        <time>2018-06-12T10:13:05Z</time>
      </trkpt>
      <trkpt lat="42.312782" lon="1.053721">
        <ele>774.3</ele>
        <time>2018-06-12T10:13:06Z</time>
      </trkpt>
      <trkpt lat="42.312797" lon="1.053684">
        <ele>775.0</ele>
        <time>2018-06-12T10:13:07Z</time>
      </trkpt>
      <trkpt lat="42.312801" lon="1.053640">
        <ele>775.3</ele>
        <time>2018-06-12T10:13:08Z</time>
      </trkpt>
      <trkpt lat="42.312790" lon="1.053603">
        <ele>775.0</ele>
        <time>2018-06-12T10:13:08Z</time>
      </trkpt>
      <trkpt lat="42.312771" lon="1.053506">
        <ele>774.6</ele>
        <time>2018-06-12T10:13:10Z</time>
      </trkpt>
      <trkpt lat="42.312751" lon="1.053410">
        <ele>773.9</ele>
        <time>2018-06-12T10:13:12Z</time>
      </trkpt>
      <trkpt lat="42.312746" lon="1.053336">
        <ele>773.7</ele>
        <time>2018-06-12T10:13:14Z</time>
      </trkpt>
      <trkpt lat="42.312767" lon="1.053312">
        <ele>774.8</ele>
        <time>2018-06-12T10:13:14Z</time>
      </trkpt>
      <trkpt lat="42.312795" lon="1.053317">
        <ele>776.1</ele>
        <time>2018-06-12T10:13:15Z</time>
      </trkpt>
      <trkpt lat="42.312822" lon="1.053335">
        <ele>777.4</ele>
        <time>2018-06-12T10:13:16Z</time>
      </trkpt>
      <trkpt lat="42.312859" lon="1.053407">
        <ele>778.8</ele>
        <time>2018-06-12T10:13:18Z</time>
      </trkpt>
      <trkpt lat="42.312914" lon="1.053478">
        <ele>780.9</ele>
        <time>2018-06-12T10:13:20Z</time>
      </trkpt>
      <trkpt lat="42.312987" lon="1.053500">
        <ele>782.1</ele>
        <time>2018-06-12T10:13:22Z</time>
      </trkpt>
      <trkpt lat="42.313113" lon="1.053496">
        <ele>784.5</ele>
        <time>2018-06-12T10:13:25Z</time>
      </trkpt>
      <trkpt lat="42.313202" lon="1.053420">
        <ele>786.5</ele>
        <time>2018-06-12T10:13:28Z</time>
      </trkpt>
      <trkpt lat="42.313274" lon="1.053418">
        <ele>789.1</ele>
        <time>2018-06-12T10:13:30Z</time>
      </trkpt>
      <trkpt lat="42.313362" lon="1.053343">
        <ele>792.8</ele>
        <time>2018-06-12T10:13:33Z</time>
      </trkpt>
      <trkpt lat="42.313433" lon="1.053243">
        <ele>796.1</ele>
        <time>2018-06-12T10:13:36Z</time>
      </trkpt>
      <trkpt lat="42.313467" lon="1.053145">
        <ele>797.8</ele>
        <time>2018-06-12T10:13:38Z</time>
      </trkpt>
      <trkpt lat="42.313519" lon="1.053047">
        <ele>798.5</ele>
        <time>2018-06-12T10:13:40Z</time>
      </trkpt>
      <trkpt lat="42.313591" lon="1.052996">
        <ele>799.1</ele>
        <time>2018-06-12T10:13:42Z</time>
      </trkpt>
      <trkpt lat="42.313644" lon="1.052946">
        <ele>799.4</ele>
        <time>2018-06-12T10:13:44Z</time>
      </trkpt>
      <trkpt lat="42.313714" lon="1.052846">
        <ele>799.3</ele>
        <time>2018-06-12T10:13:47Z</time>
      </trkpt>
      <trkpt lat="42.313768" lon="1.052820">
        <ele>799.5</ele>
        <time>2018-06-12T10:13:48Z</time>
      </trkpt>
      <trkpt lat="42.313947" lon="1.052742">
        <ele>801.8</ele>
        <time>2018-06-12T10:13:53Z</time>
      </trkpt>
      <trkpt lat="42.314073" lon="1.052738">
        <ele>803.5</ele>
        <time>2018-06-12T10:13:57Z</time>
      </trkpt>
      <trkpt lat="42.314109" lon="1.052737">
        <ele>803.9</ele>
        <time>2018-06-12T10:13:58Z</time>
      </trkpt>
      <trkpt lat="42.314126" lon="1.052688">
        <ele>804.2</ele>
        <time>2018-06-12T10:13:59Z</time>
      </trkpt>
      <trkpt lat="42.314123" lon="1.052543">
        <ele>803.8</ele>
        <time>2018-06-12T10:14:01Z</time>
      </trkpt>
      <trkpt lat="42.314176" lon="1.052445">
        <ele>804.5</ele>
        <time>2018-06-12T10:14:04Z</time>
      </trkpt>
      <trkpt lat="42.314441" lon="1.052169">
        <ele>812.4</ele>
        <time>2018-06-12T10:14:13Z</time>
      </trkpt>
      <trkpt lat="42.314707" lon="1.051918">
        <ele>820.9</ele>
        <time>2018-06-12T10:14:22Z</time>
      </trkpt>
      <trkpt lat="42.314921" lon="1.051790">
        <ele>827.3</ele>
        <time>2018-06-12T10:14:28Z</time>
      </trkpt>
      <trkpt lat="42.315063" lon="1.051664">
        <ele>834.2</ele>
        <time>2018-06-12T10:14:33Z</time>
      </trkpt>
      <trkpt lat="42.315080" lon="1.051591">
        <ele>836.1</ele>
        <time>2018-06-12T10:14:34Z</time>
      </trkpt>
      <trkpt lat="42.315077" lon="1.051421">
        <ele>838.8</ele>
        <time>2018-06-12T10:14:38Z</time>
      </trkpt>
      <trkpt lat="42.315110" lon="1.051250">
        <ele>842.2</ele>
        <time>2018-06-12T10:14:41Z</time>
      </trkpt>
      <trkpt lat="42.315128" lon="1.051182">
        <ele>843.4</ele>
        <time>2018-06-12T10:14:43Z</time>
      </trkpt>
      <trkpt lat="42.315152" lon="1.051130">
        <ele>844.9</ele>
        <time>2018-06-12T10:14:44Z</time>
      </trkpt>
      <trkpt lat="42.315198" lon="1.051126">
        <ele>847.0</ele>
        <time>2018-06-12T10:14:45Z</time>
      </trkpt>
      <trkpt lat="42.315326" lon="1.051219">
        <ele>852.0</ele>
        <time>2018-06-12T10:14:49Z</time>
      </trkpt>
      <trkpt lat="42.315398" lon="1.051226">
        <ele>855.3</ele>
        <time>2018-06-12T10:14:51Z</time>
      </trkpt>
      <trkpt lat="42.315488" lon="1.051211">
        <ele>857.9</ele>
        <time>2018-06-12T10:14:54Z</time>
      </trkpt>
      <trkpt lat="42.315559" lon="1.051188">
        <ele>859.9</ele>
        <time>2018-06-12T10:14:56Z</time>
      </trkpt>
      <trkpt lat="42.315637" lon="1.051161">
        <ele>862.2</ele>
        <time>2018-06-12T10:14:58Z</time>
      </trkpt>
      <trkpt lat="42.315703" lon="1.051159">
        <ele>863.7</ele>
        <time>2018-06-12T10:15:00Z</time>
      </trkpt>
      <trkpt lat="42.315811" lon="1.051156">
        <ele>864.7</ele>
        <time>2018-06-12T10:15:02Z</time>
      </trkpt>
      <trkpt lat="42.315883" lon="1.051161">
        <ele>865.2</ele>
        <time>2018-06-12T10:15:04Z</time>
      </trkpt>
      <trkpt lat="42.315918" lon="1.051144">
        <ele>866.0</ele>
        <time>2018-06-12T10:15:05Z</time>
      </trkpt>
      <trkpt lat="42.315933" lon="1.051097">
        <ele>867.5</ele>
        <time>2018-06-12T10:15:06Z</time>
      </trkpt>
      <trkpt lat="42.315899" lon="1.051056">
        <ele>868.3</ele>
        <time>2018-06-12T10:15:08Z</time>
      </trkpt>
      <trkpt lat="42.315789" lon="1.051049">
        <ele>866.9</ele>
        <time>2018-06-12T10:15:11Z</time>
      </trkpt>
      <trkpt lat="42.315737" lon="1.051037">
        <ele>866.5</ele>
        <time>2018-06-12T10:15:12Z</time>
      </trkpt>
      <trkpt lat="42.315736" lon="1.050988">
        <ele>867.4</ele>
        <time>2018-06-12T10:15:13Z</time>
      </trkpt>
      <trkpt lat="42.315771" lon="1.050939">
        <ele>869.1</ele>
        <time>2018-06-12T10:15:14Z</time>
      </trkpt>
      <trkpt lat="42.315879" lon="1.050935">
        <ele>871.3</ele>
        <time>2018-06-12T10:15:17Z</time>
      </trkpt>
      <trkpt lat="42.315995" lon="1.050958">
        <ele>872.6</ele>
        <time>2018-06-12T10:15:20Z</time>
      </trkpt>
      <trkpt lat="42.316242" lon="1.051070">
        <ele>870.4</ele>
        <time>2018-06-12T10:15:27Z</time>
      </trkpt>
      <trkpt lat="42.316331" lon="1.051091">
        <ele>869.3</ele>
        <time>2018-06-12T10:15:30Z</time>
      </trkpt>
      <trkpt lat="42.316459" lon="1.051111">
        <ele>867.9</ele>
        <time>2018-06-12T10:15:33Z</time>
      </trkpt>
      <trkpt lat="42.316890" lon="1.051050">
        <ele>866.2</ele>
        <time>2018-06-12T10:15:44Z</time>
      </trkpt>
      <trkpt lat="42.317376" lon="1.051059">
        <ele>867.0</ele>
        <time>2018-06-12T10:15:57Z</time>
      </trkpt>
      <trkpt lat="42.317502" lon="1.051055">
        <ele>867.4</ele>
        <time>2018-06-12T10:16:01Z</time>
      </trkpt>
      <trkpt lat="42.317735" lon="1.050975">
        <ele>871.6</ele>
        <time>2018-06-12T10:16:07Z</time>
      </trkpt>
      <trkpt lat="42.318057" lon="1.050844">
        <ele>881.7</ele>
        <time>2018-06-12T10:16:16Z</time>
      </trkpt>
      <trkpt lat="42.318362" lon="1.050762">
        <ele>888.3</ele>
        <time>2018-06-12T10:16:24Z</time>
      </trkpt>
      <trkpt lat="42.318613" lon="1.050705">
        <ele>892.2</ele>
        <time>2018-06-12T10:16:31Z</time>
      </trkpt>
      <trkpt lat="42.318864" lon="1.050600">
        <ele>895.8</ele>
        <time>2018-06-12T10:16:38Z</time>
      </trkpt>
      <trkpt lat="42.319149" lon="1.050446">
        <ele>892.8</ele>
        <time>2018-06-12T10:16:46Z</time>
      </trkpt>
      <trkpt lat="42.319272" lon="1.050224">
        <ele>895.7</ele>
        <time>2018-06-12T10:16:52Z</time>
      </trkpt>
      <trkpt lat="42.319413" lon="1.049812">
        <ele>895.3</ele>
        <time>2018-06-12T10:17:01Z</time>
      </trkpt>
      <trkpt lat="42.319517" lon="1.049598">
        <ele>895.2</ele>
        <time>2018-06-12T10:17:06Z</time>
      </trkpt>
      <trkpt lat="42.319607" lon="1.049523">
        <ele>893.3</ele>
        <time>2018-06-12T10:17:08Z</time>
      </trkpt>
      <trkpt lat="42.319692" lon="1.049507">
        <ele>891.4</ele>
        <time>2018-06-12T10:17:11Z</time>
      </trkpt>
      <trkpt lat="42.319890" lon="1.049525">
        <ele>887.2</ele>
        <time>2018-06-12T10:17:16Z</time>
      </trkpt>
      <trkpt lat="42.320034" lon="1.049496">
        <ele>889.2</ele>
        <time>2018-06-12T10:17:20Z</time>
      </trkpt>
      <trkpt lat="42.320268" lon="1.049356">
        <ele>890.1</ele>
        <time>2018-06-12T10:17:27Z</time>
      </trkpt>
      <trkpt lat="42.320319" lon="1.049293">
        <ele>889.7</ele>
        <time>2018-06-12T10:17:28Z</time>
      </trkpt>
      <trkpt lat="42.320340" lon="1.049221">
        <ele>889.5</ele>
        <time>2018-06-12T10:17:30Z</time>
      </trkpt>
      <trkpt lat="42.320438" lon="1.048901">
        <ele>886.2</ele>
        <time>2018-06-12T10:17:37Z</time>
      </trkpt>
      <trkpt lat="42.320598" lon="1.048799">
        <ele>882.0</ele>
        <time>2018-06-12T10:17:42Z</time>
      </trkpt>
      <trkpt lat="42.320885" lon="1.048693">
        <ele>878.7</ele>
        <time>2018-06-12T10:17:49Z</time>
      </trkpt>
      <trkpt lat="42.321046" lon="1.048664">
        <ele>878.2</ele>
        <time>2018-06-12T10:17:54Z</time>
      </trkpt>
      <trkpt lat="42.321922" lon="1.048144">
        <ele>881.9</ele>
        <time>2018-06-12T10:18:19Z</time>
      </trkpt>
      <trkpt lat="42.321955" lon="1.048078">
        <ele>882.3</ele>
        <time>2018-06-12T10:18:20Z</time>
      </trkpt>
      <trkpt lat="42.321900" lon="1.048007">
        <ele>881.0</ele>
        <time>2018-06-12T10:18:22Z</time>
      </trkpt>
      <trkpt lat="42.321500" lon="1.047801">
        <ele>878.3</ele>
        <time>2018-06-12T10:18:34Z</time>
      </trkpt>
      <trkpt lat="42.320895" lon="1.047188">
        <ele>888.4</ele>
        <time>2018-06-12T10:18:54Z</time>
      </trkpt>
      <trkpt lat="42.320173" lon="1.046393">
        <ele>894.2</ele>
        <time>2018-06-12T10:19:18Z</time>
      </trkpt>
      <trkpt lat="42.320038" lon="1.046169">
        <ele>894.2</ele>
        <time>2018-06-12T10:19:24Z</time>
      </trkpt>
      <trkpt lat="42.319974" lon="1.046025">
        <ele>894.2</ele>
        <time>2018-06-12T10:19:27Z</time>
      </trkpt>
      <trkpt lat="42.319969" lon="1.045847">
        <ele>893.6</ele>
        <time>2018-06-12T10:19:31Z</time>
      </trkpt>
      <trkpt lat="42.320040" lon="1.045613">
        <ele>891.6</ele>
        <time>2018-06-12T10:19:36Z</time>
      </trkpt>
      <trkpt lat="42.320000" lon="1.045420">
        <ele>892.0</ele>
        <time>2018-06-12T10:19:40Z</time>
      </trkpt>
      <trkpt lat="42.319670" lon="1.045042">
        <ele>896.4</ele>
        <time>2018-06-12T10:19:51Z</time>
      </trkpt>
      <trkpt lat="42.319605" lon="1.044942">
        <ele>896.4</ele>
        <time>2018-06-12T10:19:54Z</time>
      </trkpt>
      <trkpt lat="42.319522" lon="1.044700">
        <ele>897.2</ele>
        <time>2018-06-12T10:19:59Z</time>
      </trkpt>
      <trkpt lat="42.319393" lon="1.044305">
        <ele>897.0</ele>
        <time>2018-06-12T10:20:07Z</time>
      </trkpt>
      <trkpt lat="42.319298" lon="1.044056">
        <ele>897.1</ele>
        <time>2018-06-12T10:20:13Z</time>
      </trkpt>
      <trkpt lat="42.319189" lon="1.043856">
        <ele>896.2</ele>
        <time>2018-06-12T10:20:18Z</time>
      </trkpt>
      <trkpt lat="42.318923" lon="1.043512">
        <ele>897.9</ele>
        <time>2018-06-12T10:20:27Z</time>
      </trkpt>
      <trkpt lat="42.318866" lon="1.043307">
        <ele>899.5</ele>
        <time>2018-06-12T10:20:32Z</time>
      </trkpt>
      <trkpt lat="42.318731" lon="1.042814">
        <ele>905.7</ele>
        <time>2018-06-12T10:20:42Z</time>
      </trkpt>
      <trkpt lat="42.318603" lon="1.042672">
        <ele>907.6</ele>
        <time>2018-06-12T10:20:46Z</time>
      </trkpt>
      <trkpt lat="42.318404" lon="1.042630">
        <ele>908.3</ele>
        <time>2018-06-12T10:20:52Z</time>
      </trkpt>
      <trkpt lat="42.318310" lon="1.042525">
        <ele>908.3</ele>
        <time>2018-06-12T10:20:55Z</time>
      </trkpt>
      <trkpt lat="42.318205" lon="1.042341">
        <ele>909.4</ele>
        <time>2018-06-12T10:20:59Z</time>
      </trkpt>
      <trkpt lat="42.318033" lon="1.042007">
        <ele>906.6</ele>
        <time>2018-06-12T10:21:07Z</time>
      </trkpt>
      <trkpt lat="42.317934" lon="1.041759">
        <ele>902.8</ele>
        <time>2018-06-12T10:21:13Z</time>
      </trkpt>
      <trkpt lat="42.317822" lon="1.041542">
        <ele>902.0</ele>
        <time>2018-06-12T10:21:18Z</time>
      </trkpt>
      <trkpt lat="42.317768" lon="1.041266">
        <ele>903.7</ele>
        <time>2018-06-12T10:21:24Z</time>
      </trkpt>
      <trkpt lat="42.317591" lon="1.040844">
        <ele>903.2</ele>
        <time>2018-06-12T10:21:33Z</time>
      </trkpt>
      <trkpt lat="42.317387" lon="1.040412">
        <ele>902.1</ele>
        <time>2018-06-12T10:21:43Z</time>
      </trkpt>
      <trkpt lat="42.317129" lon="1.039765">
        <ele>892.9</ele>
        <time>2018-06-12T10:21:57Z</time>
      </trkpt>
      <trkpt lat="42.317090" lon="1.039516">
        <ele>889.1</ele>
        <time>2018-06-12T10:22:03Z</time>
      </trkpt>
      <trkpt lat="42.317140" lon="1.039296">
        <ele>886.8</ele>
        <time>2018-06-12T10:22:07Z</time>
      </trkpt>
      <trkpt lat="42.317102" lon="1.039176">
        <ele>885.9</ele>
        <time>2018-06-12T10:22:10Z</time>
      </trkpt>
      <trkpt lat="42.317028" lon="1.039105">
        <ele>884.4</ele>
        <time>2018-06-12T10:22:12Z</time>
      </trkpt>
      <trkpt lat="42.316899" lon="1.038891">
        <ele>883.0</ele>
        <time>2018-06-12T10:22:17Z</time>
      </trkpt>
      <trkpt lat="42.316714" lon="1.038551">
        <ele>878.9</ele>
        <time>2018-06-12T10:22:26Z</time>
      </trkpt>
      <trkpt lat="42.316510" lon="1.038296">
        <ele>873.8</ele>
        <time>2018-06-12T10:22:33Z</time>
      </trkpt>
      <trkpt lat="42.316417" lon="1.038247">
        <ele>871.9</ele>
        <time>2018-06-12T10:22:36Z</time>
      </trkpt>
      <trkpt lat="42.316186" lon="1.038282">
        <ele>868.0</ele>
        <time>2018-06-12T10:22:42Z</time>
      </trkpt>
      <trkpt lat="42.315626" lon="1.038178">
        <ele>876.4</ele>
        <time>2018-06-12T10:22:57Z</time>
      </trkpt>
      <trkpt lat="42.314867" lon="1.038056">
        <ele>879.5</ele>
        <time>2018-06-12T10:23:17Z</time>
      </trkpt>
      <trkpt lat="42.314579" lon="1.038065">
        <ele>875.3</ele>
        <time>2018-06-12T10:23:25Z</time>
      </trkpt>
      <trkpt lat="42.314433" lon="1.037948">
        <ele>869.0</ele>
        <time>2018-06-12T10:23:29Z</time>
      </trkpt>
      <trkpt lat="42.314376" lon="1.037780">
        <ele>866.5</ele>
        <time>2018-06-12T10:23:33Z</time>
      </trkpt>
      <trkpt lat="42.314345" lon="1.037489">
        <ele>866.0</ele>
        <time>2018-06-12T10:23:39Z</time>
      </trkpt>
      <trkpt lat="42.314370" lon="1.037236">
        <ele>865.9</ele>
        <time>2018-06-12T10:23:44Z</time>
      </trkpt>
      <trkpt lat="42.314339" lon="1.037103">
        <ele>863.4</ele>
        <time>2018-06-12T10:23:47Z</time>
      </trkpt>
      <trkpt lat="42.314293" lon="1.036911">
        <ele>861.1</ele>
        <time>2018-06-12T10:23:51Z</time>
      </trkpt>
      <trkpt lat="42.314295" lon="1.036623">
        <ele>858.8</ele>
        <time>2018-06-12T10:23:56Z</time>
      </trkpt>
      <trkpt lat="42.314250" lon="1.036362">
        <ele>855.4</ele>
        <time>2018-06-12T10:24:01Z</time>
      </trkpt>
      <trkpt lat="42.314145" lon="1.035870">
        <ele>847.6</ele>
        <time>2018-06-12T10:24:12Z</time>
      </trkpt>
      <trkpt lat="42.314087" lon="1.035751">
        <ele>845.1</ele>
        <time>2018-06-12T10:24:14Z</time>
      </trkpt>
      <trkpt lat="42.313997" lon="1.035656">
        <ele>843.5</ele>
        <time>2018-06-12T10:24:17Z</time>
      </trkpt>
      <trkpt lat="42.313834" lon="1.035672">
        <ele>843.5</ele>
        <time>2018-06-12T10:24:22Z</time>
      </trkpt>
      <trkpt lat="42.313860" lon="1.035595">
        <ele>844.9</ele>
        <time>2018-06-12T10:24:23Z</time>
      </trkpt>
      <trkpt lat="42.313919" lon="1.035513">
        <ele>846.0</ele>
        <time>2018-06-12T10:24:26Z</time>
      </trkpt>
      <trkpt lat="42.314012" lon="1.035457">
        <ele>845.8</ele>
        <time>2018-06-12T10:24:28Z</time>
      </trkpt>
      <trkpt lat="42.314138" lon="1.035458">
        <ele>846.7</ele>
        <time>2018-06-12T10:24:32Z</time>
      </trkpt>
      <trkpt lat="42.314498" lon="1.035422">
        <ele>850.1</ele>
        <time>2018-06-12T10:24:41Z</time>
      </trkpt>
      <trkpt lat="42.314712" lon="1.035343">
        <ele>850.9</ele>
        <time>2018-06-12T10:24:47Z</time>
      </trkpt>
      <trkpt lat="42.315138" lon="1.034941">
        <ele>847.9</ele>
        <time>2018-06-12T10:25:01Z</time>
      </trkpt>
      <trkpt lat="42.315525" lon="1.034395">
        <ele>840.1</ele>
        <time>2018-06-12T10:25:16Z</time>
      </trkpt>
      <trkpt lat="42.315720" lon="1.034195">
        <ele>837.1</ele>
        <time>2018-06-12T10:25:22Z</time>
      </trkpt>
      <trkpt lat="42.315918" lon="1.034189">
        <ele>840.9</ele>
        <time>2018-06-12T10:25:27Z</time>
      </trkpt>
      <trkpt lat="42.316024" lon="1.034088">
        <ele>837.5</ele>
        <time>2018-06-12T10:25:31Z</time>
      </trkpt>
      <trkpt lat="42.316093" lon="1.033941">
        <ele>833.0</ele>
        <time>2018-06-12T10:25:34Z</time>
      </trkpt>
      <trkpt lat="42.316090" lon="1.033747">
        <ele>828.5</ele>
        <time>2018-06-12T10:25:38Z</time>
      </trkpt>
      <trkpt lat="42.316397" lon="1.032718">
        <ele>829.8</ele>
        <time>2018-06-12T10:26:00Z</time>
      </trkpt>
      <trkpt lat="42.316496" lon="1.032229">
        <ele>827.8</ele>
        <time>2018-06-12T10:26:10Z</time>
      </trkpt>
      <trkpt lat="42.316457" lon="1.032061">
        <ele>823.3</ele>
        <time>2018-06-12T10:26:13Z</time>
      </trkpt>
      <trkpt lat="42.316454" lon="1.031842">
        <ele>817.3</ele>
        <time>2018-06-12T10:26:18Z</time>
      </trkpt>
      <trkpt lat="42.316522" lon="1.031646">
        <ele>813.4</ele>
        <time>2018-06-12T10:26:22Z</time>
      </trkpt>
      <trkpt lat="42.316627" lon="1.031449">
        <ele>810.2</ele>
        <time>2018-06-12T10:26:27Z</time>
      </trkpt>
      <trkpt lat="42.316754" lon="1.031250">
        <ele>808.8</ele>
        <time>2018-06-12T10:26:32Z</time>
      </trkpt>
      <trkpt lat="42.317050" lon="1.030902">
        <ele>810.8</ele>
        <time>2018-06-12T10:26:43Z</time>
      </trkpt>
      <trkpt lat="42.317228" lon="1.030799">
        <ele>811.9</ele>
        <time>2018-06-12T10:26:48Z</time>
      </trkpt>
      <trkpt lat="42.317431" lon="1.030715">
        <ele>811.4</ele>
        <time>2018-06-12T10:26:53Z</time>
      </trkpt>
      <trkpt lat="42.317584" lon="1.030545">
        <ele>807.6</ele>
        <time>2018-06-12T10:26:59Z</time>
      </trkpt>
      <trkpt lat="42.317729" lon="1.030295">
        <ele>803.0</ele>
        <time>2018-06-12T10:27:05Z</time>
      </trkpt>
      <trkpt lat="42.318010" lon="1.030192">
        <ele>801.1</ele>
        <time>2018-06-12T10:27:13Z</time>
      </trkpt>
      <trkpt lat="42.318404" lon="1.030058">
        <ele>800.4</ele>
        <time>2018-06-12T10:27:23Z</time>
      </trkpt>
      <trkpt lat="42.318656" lon="1.030026">
        <ele>802.8</ele>
        <time>2018-06-12T10:27:30Z</time>
      </trkpt>
      <trkpt lat="42.318816" lon="1.029924">
        <ele>806.0</ele>
        <time>2018-06-12T10:27:35Z</time>
      </trkpt>
      <trkpt lat="42.318940" lon="1.029750">
        <ele>809.3</ele>
        <time>2018-06-12T10:27:39Z</time>
      </trkpt>
      <trkpt lat="42.319088" lon="1.029534">
        <ele>812.2</ele>
        <time>2018-06-12T10:27:45Z</time>
      </trkpt>
      <trkpt lat="42.319848" lon="1.029407">
        <ele>820.7</ele>
        <time>2018-06-12T10:28:05Z</time>
      </trkpt>
      <trkpt lat="42.320091" lon="1.029310">
        <ele>812.2</ele>
        <time>2018-06-12T10:28:12Z</time>
      </trkpt>
      <trkpt lat="42.320281" lon="1.029199">
        <ele>806.9</ele>
        <time>2018-06-12T10:28:18Z</time>
      </trkpt>
      <trkpt lat="42.320484" lon="1.028902">
        <ele>806.2</ele>
        <time>2018-06-12T10:28:26Z</time>
      </trkpt>
      <trkpt lat="42.320597" lon="1.028665">
        <ele>807.6</ele>
        <time>2018-06-12T10:28:31Z</time>
      </trkpt>
      <trkpt lat="42.320819" lon="1.028247">
        <ele>805.7</ele>
        <time>2018-06-12T10:28:41Z</time>
      </trkpt>
      <trkpt lat="42.320892" lon="1.028087">
        <ele>805.2</ele>
        <time>2018-06-12T10:28:45Z</time>
      </trkpt>
      <trkpt lat="42.320956" lon="1.027904">
        <ele>804.9</ele>
        <time>2018-06-12T10:28:49Z</time>
      </trkpt>
      <trkpt lat="42.320995" lon="1.027749">
        <ele>806.0</ele>
        <time>2018-06-12T10:28:52Z</time>
      </trkpt>
      <trkpt lat="42.320983" lon="1.027652">
        <ele>806.2</ele>
        <time>2018-06-12T10:28:54Z</time>
      </trkpt>
      <trkpt lat="42.320940" lon="1.027534">
        <ele>805.7</ele>
        <time>2018-06-12T10:28:57Z</time>
      </trkpt>
      <trkpt lat="42.320924" lon="1.027448">
        <ele>805.6</ele>
        <time>2018-06-12T10:28:58Z</time>
      </trkpt>
      <trkpt lat="42.320934" lon="1.027367">
        <ele>805.7</ele>
        <time>2018-06-12T10:29:00Z</time>
      </trkpt>
      <trkpt lat="42.320954" lon="1.027246">
        <ele>805.5</ele>
        <time>2018-06-12T10:29:02Z</time>
      </trkpt>
      <trkpt lat="42.320985" lon="1.027024">
        <ele>805.1</ele>
        <time>2018-06-12T10:29:07Z</time>
      </trkpt>
      <trkpt lat="42.321011" lon="1.026831">
        <ele>804.2</ele>
        <time>2018-06-12T10:29:11Z</time>
      </trkpt>
      <trkpt lat="42.321001" lon="1.026695">
        <ele>803.4</ele>
        <time>2018-06-12T10:29:13Z</time>
      </trkpt>
      <trkpt lat="42.321018" lon="1.026494">
        <ele>802.4</ele>
        <time>2018-06-12T10:29:17Z</time>
      </trkpt>
      <trkpt lat="42.321067" lon="1.026305">
        <ele>802.7</ele>
        <time>2018-06-12T10:29:21Z</time>
      </trkpt>
      <trkpt lat="42.321109" lon="1.026155">
        <ele>803.0</ele>
        <time>2018-06-12T10:29:24Z</time>
      </trkpt>
      <trkpt lat="42.321172" lon="1.026060">
        <ele>803.0</ele>
        <time>2018-06-12T10:29:27Z</time>
      </trkpt>
      <trkpt lat="42.321257" lon="1.026019">
        <ele>803.3</ele>
        <time>2018-06-12T10:29:29Z</time>
      </trkpt>
      <trkpt lat="42.321344" lon="1.025999">
        <ele>806.4</ele>
        <time>2018-06-12T10:29:32Z</time>
      </trkpt>
      <trkpt lat="42.321428" lon="1.026001">
        <ele>809.5</ele>
        <time>2018-06-12T10:29:34Z</time>
      </trkpt>
      <trkpt lat="42.321498" lon="1.025954">
        <ele>811.9</ele>
        <time>2018-06-12T10:29:36Z</time>
      </trkpt>
      <trkpt lat="42.321534" lon="1.025881">
        <ele>812.8</ele>
        <time>2018-06-12T10:29:38Z</time>
      </trkpt>
      <trkpt lat="42.321544" lon="1.025804">
        <ele>812.9</ele>
        <time>2018-06-12T10:29:39Z</time>
      </trkpt>
      <trkpt lat="42.321534" lon="1.025710">
        <ele>812.3</ele>
        <time>2018-06-12T10:29:41Z</time>
      </trkpt>
      <trkpt lat="42.321501" lon="1.025634">
        <ele>810.5</ele>
        <time>2018-06-12T10:29:43Z</time>
      </trkpt>
      <trkpt lat="42.321476" lon="1.025595">
        <ele>809.3</ele>
        <time>2018-06-12T10:29:44Z</time>
      </trkpt>
      <trkpt lat="42.321396" lon="1.025459">
        <ele>806.3</ele>
        <time>2018-06-12T10:29:47Z</time>
      </trkpt>
      <trkpt lat="42.321285" lon="1.025178">
        <ele>805.3</ele>
        <time>2018-06-12T10:29:54Z</time>
      </trkpt>
      <trkpt lat="42.321231" lon="1.025071">
        <ele>804.3</ele>
        <time>2018-06-12T10:29:56Z</time>
      </trkpt>
      <trkpt lat="42.321171" lon="1.024982">
        <ele>803.2</ele>
        <time>2018-06-12T10:29:59Z</time>
      </trkpt>
      <trkpt lat="42.321119" lon="1.024912">
        <ele>802.3</ele>
        <time>2018-06-12T10:30:00Z</time>
      </trkpt>
      <trkpt lat="42.321090" lon="1.024871">
        <ele>801.9</ele>
        <time>2018-06-12T10:30:02Z</time>
      </trkpt>
      <trkpt lat="42.321064" lon="1.024827">
        <ele>802.0</ele>
        <time>2018-06-12T10:30:03Z</time>
      </trkpt>
      <trkpt lat="42.321036" lon="1.024747">
        <ele>802.5</ele>
        <time>2018-06-12T10:30:04Z</time>
      </trkpt>
      <trkpt lat="42.321021" lon="1.024668">
        <ele>803.2</ele>
        <time>2018-06-12T10:30:06Z</time>
      </trkpt>
      <trkpt lat="42.321027" lon="1.024618">
        <ele>803.7</ele>
        <time>2018-06-12T10:30:07Z</time>
      </trkpt>
      <trkpt lat="42.321055" lon="1.024547">
        <ele>804.1</ele>
        <time>2018-06-12T10:30:09Z</time>
      </trkpt>
      <trkpt lat="42.321084" lon="1.024465">
        <ele>804.4</ele>
        <time>2018-06-12T10:30:10Z</time>
      </trkpt>
      <trkpt lat="42.321114" lon="1.024299">
        <ele>805.6</ele>
        <time>2018-06-12T10:30:14Z</time>
      </trkpt>
      <trkpt lat="42.321145" lon="1.024227">
        <ele>806.3</ele>
        <time>2018-06-12T10:30:15Z</time>
      </trkpt>
      <trkpt lat="42.321213" lon="1.024046">
        <ele>808.1</ele>
        <time>2018-06-12T10:30:19Z</time>
      </trkpt>
      <trkpt lat="42.321236" lon="1.023967">
        <ele>808.3</ele>
        <time>2018-06-12T10:30:21Z</time>
      </trkpt>
      <trkpt lat="42.321251" lon="1.023870">
        <ele>807.9</ele>
        <time>2018-06-12T10:30:23Z</time>
      </trkpt>
      <trkpt lat="42.321247" lon="1.023679">
        <ele>807.2</ele>
        <time>2018-06-12T10:30:27Z</time>
      </trkpt>
      <trkpt lat="42.321263" lon="1.023501">
        <ele>808.0</ele>
        <time>2018-06-12T10:30:30Z</time>
      </trkpt>
      <trkpt lat="42.321287" lon="1.023347">
        <ele>807.5</ele>
        <time>2018-06-12T10:30:33Z</time>
      </trkpt>
      <trkpt lat="42.321283" lon="1.023103">
        <ele>807.4</ele>
        <time>2018-06-12T10:30:38Z</time>
      </trkpt>
      <trkpt lat="42.321310" lon="1.022880">
        <ele>809.6</ele>
        <time>2018-06-12T10:30:42Z</time>
      </trkpt>
      <trkpt lat="42.321362" lon="1.022663">
        <ele>809.3</ele>
        <time>2018-06-12T10:30:47Z</time>
      </trkpt>
      <trkpt lat="42.321394" lon="1.022514">
        <ele>810.1</ele>
        <time>2018-06-12T10:30:50Z</time>
      </trkpt>
      <trkpt lat="42.321399" lon="1.022323">
        <ele>811.5</ele>
        <time>2018-06-12T10:30:54Z</time>
      </trkpt>
      <trkpt lat="42.321381" lon="1.022187">
        <ele>811.1</ele>
        <time>2018-06-12T10:30:56Z</time>
      </trkpt>
      <trkpt lat="42.321335" lon="1.021983">
        <ele>810.6</ele>
        <time>2018-06-12T10:31:00Z</time>
      </trkpt>
      <trkpt lat="42.321322" lon="1.021768">
        <ele>811.4</ele>
        <time>2018-06-12T10:31:05Z</time>
      </trkpt>
      <trkpt lat="42.321370" lon="1.021502">
        <ele>815.4</ele>
        <time>2018-06-12T10:31:10Z</time>
      </trkpt>
      <trkpt lat="42.321464" lon="1.021222">
        <ele>817.6</ele>
        <time>2018-06-12T10:31:16Z</time>
      </trkpt>
      <trkpt lat="42.321513" lon="1.021094">
        <ele>818.8</ele>
        <time>2018-06-12T10:31:19Z</time>
      </trkpt>
      <trkpt lat="42.321536" lon="1.020899">
        <ele>820.7</ele>
        <time>2018-06-12T10:31:23Z</time>
      </trkpt>
      <trkpt lat="42.321528" lon="1.020751">
        <ele>822.4</ele>
        <time>2018-06-12T10:31:26Z</time>
      </trkpt>
      <trkpt lat="42.321525" lon="1.020587">
        <ele>824.2</ele>
        <time>2018-06-12T10:31:29Z</time>
      </trkpt>
      <trkpt lat="42.321566" lon="1.020449">
        <ele>825.1</ele>
        <time>2018-06-12T10:31:32Z</time>
      </trkpt>
      <trkpt lat="42.321671" lon="1.020354">
        <ele>825.4</ele>
        <time>2018-06-12T10:31:35Z</time>
      </trkpt>
      <trkpt lat="42.321783" lon="1.020214">
        <ele>824.3</ele>
        <time>2018-06-12T10:31:39Z</time>
      </trkpt>
      <trkpt lat="42.321861" lon="1.020034">
        <ele>827.0</ele>
        <time>2018-06-12T10:31:43Z</time>
      </trkpt>
      <trkpt lat="42.321928" lon="1.019893">
        <ele>831.8</ele>
        <time>2018-06-12T10:31:47Z</time>
      </trkpt>
      <trkpt lat="42.322043" lon="1.019782">
        <ele>837.1</ele>
        <time>2018-06-12T10:31:51Z</time>
      </trkpt>
      <trkpt lat="42.322212" lon="1.019604">
        <ele>841.6</ele>
        <time>2018-06-12T10:31:56Z</time>
      </trkpt>
      <trkpt lat="42.322299" lon="1.019517">
        <ele>842.8</ele>
        <time>2018-06-12T10:31:59Z</time>
      </trkpt>
      <trkpt lat="42.322335" lon="1.019383">
        <ele>843.6</ele>
        <time>2018-06-12T10:32:02Z</time>
      </trkpt>
      <trkpt lat="42.322327" lon="1.019269">
        <ele>843.3</ele>
        <time>2018-06-12T10:32:04Z</time>
      </trkpt>
      <trkpt lat="42.322292" lon="1.018999">
        <ele>840.3</ele>
        <time>2018-06-12T10:32:10Z</time>
      </trkpt>
      <trkpt lat="42.322275" lon="1.018798">
        <ele>839.5</ele>
        <time>2018-06-12T10:32:14Z</time>
      </trkpt>
      <trkpt lat="42.322244" lon="1.018724">
        <ele>840.1</ele>
        <time>2018-06-12T10:32:15Z</time>
      </trkpt>
      <trkpt lat="42.322196" lon="1.018711">
        <ele>841.4</ele>
        <time>2018-06-12T10:32:17Z</time>
      </trkpt>
      <trkpt lat="42.322159" lon="1.018746">
        <ele>842.1</ele>
        <time>2018-06-12T10:32:18Z</time>
      </trkpt>
      <trkpt lat="42.322147" lon="1.018831">
        <ele>842.7</ele>
        <time>2018-06-12T10:32:19Z</time>
      </trkpt>
      <trkpt lat="42.322105" lon="1.018973">
        <ele>844.3</ele>
        <time>2018-06-12T10:32:22Z</time>
      </trkpt>
      <trkpt lat="42.322051" lon="1.019053">
        <ele>845.9</ele>
        <time>2018-06-12T10:32:25Z</time>
      </trkpt>
      <trkpt lat="42.321923" lon="1.019213">
        <ele>850.0</ele>
        <time>2018-06-12T10:32:29Z</time>
      </trkpt>
      <trkpt lat="42.321770" lon="1.019361">
        <ele>854.8</ele>
        <time>2018-06-12T10:32:34Z</time>
      </trkpt>
      <trkpt lat="42.321644" lon="1.019493">
        <ele>855.5</ele>
        <time>2018-06-12T10:32:39Z</time>
      </trkpt>
      <trkpt lat="42.321566" lon="1.019599">
        <ele>855.3</ele>
        <time>2018-06-12T10:32:41Z</time>
      </trkpt>
      <trkpt lat="42.321483" lon="1.019661">
        <ele>855.5</ele>
        <time>2018-06-12T10:32:44Z</time>
      </trkpt>
      <trkpt lat="42.321382" lon="1.019703">
        <ele>855.9</ele>
        <time>2018-06-12T10:32:47Z</time>
      </trkpt>
      <trkpt lat="42.321284" lon="1.019841">
        <ele>853.9</ele>
        <time>2018-06-12T10:32:51Z</time>
      </trkpt>
      <trkpt lat="42.321184" lon="1.020002">
        <ele>850.7</ele>
        <time>2018-06-12T10:32:55Z</time>
      </trkpt>
      <trkpt lat="42.320964" lon="1.020289">
        <ele>841.6</ele>
        <time>2018-06-12T10:33:03Z</time>
      </trkpt>
      <trkpt lat="42.320813" lon="1.020506">
        <ele>840.5</ele>
        <time>2018-06-12T10:33:09Z</time>
      </trkpt>
      <trkpt lat="42.320746" lon="1.020583">
        <ele>839.6</ele>
        <time>2018-06-12T10:33:11Z</time>
      </trkpt>
      <trkpt lat="42.320698" lon="1.020598">
        <ele>840.1</ele>
        <time>2018-06-12T10:33:12Z</time>
      </trkpt>
      <trkpt lat="42.320658" lon="1.020552">
        <ele>842.3</ele>
        <time>2018-06-12T10:33:14Z</time>
      </trkpt>
      <trkpt lat="42.320648" lon="1.020480">
        <ele>844.7</ele>
        <time>2018-06-12T10:33:15Z</time>
      </trkpt>
      <trkpt lat="42.320685" lon="1.020393">
        <ele>847.0</ele>
        <time>2018-06-12T10:33:18Z</time>
      </trkpt>
      <trkpt lat="42.320872" lon="1.020121">
        <ele>849.0</ele>
        <time>2018-06-12T10:33:25Z</time>
      </trkpt>
      <trkpt lat="42.321075" lon="1.019730">
        <ele>858.9</ele>
        <time>2018-06-12T10:33:34Z</time>
      </trkpt>
      <trkpt lat="42.321159" lon="1.019544">
        <ele>863.4</ele>
        <time>2018-06-12T10:33:39Z</time>
      </trkpt>
      <trkpt lat="42.321365" lon="1.019242">
        <ele>869.7</ele>
        <time>2018-06-12T10:33:47Z</time>
      </trkpt>
      <trkpt lat="42.321438" lon="1.019111">
        <ele>870.5</ele>
        <time>2018-06-12T10:33:50Z</time>
      </trkpt>
      <trkpt lat="42.321476" lon="1.019003">
        <ele>871.0</ele>
        <time>2018-06-12T10:33:52Z</time>
      </trkpt>
      <trkpt lat="42.321503" lon="1.018857">
        <ele>871.2</ele>
        <time>2018-06-12T10:33:55Z</time>
      </trkpt>
      <trkpt lat="42.321453" lon="1.018569">
        <ele>874.4</ele>
        <time>2018-06-12T10:34:01Z</time>
      </trkpt>
      <trkpt lat="42.321349" lon="1.018283">
        <ele>878.2</ele>
        <time>2018-06-12T10:34:07Z</time>
      </trkpt>
      <trkpt lat="42.321350" lon="1.018124">
        <ele>877.7</ele>
        <time>2018-06-12T10:34:11Z</time>
      </trkpt>
      <trkpt lat="42.321396" lon="1.017992">
        <ele>875.5</ele>
        <time>2018-06-12T10:34:13Z</time>
      </trkpt>
      <trkpt lat="42.321489" lon="1.017919">
        <ele>872.2</ele>
        <time>2018-06-12T10:34:16Z</time>
      </trkpt>
      <trkpt lat="42.321604" lon="1.017874">
        <ele>868.7</ele>
        <time>2018-06-12T10:34:20Z</time>
      </trkpt>
      <trkpt lat="42.321683" lon="1.017827">
        <ele>866.7</ele>
        <time>2018-06-12T10:34:22Z</time>
      </trkpt>
      <trkpt lat="42.321744" lon="1.017729">
        <ele>866.1</ele>
        <time>2018-06-12T10:34:24Z</time>
      </trkpt>
      <trkpt lat="42.321828" lon="1.017578">
        <ele>865.7</ele>
        <time>2018-06-12T10:34:28Z</time>
      </trkpt>
      <trkpt lat="42.321966" lon="1.017442">
        <ele>863.2</ele>
        <time>2018-06-12T10:34:33Z</time>
      </trkpt>
      <trkpt lat="42.322111" lon="1.017376">
        <ele>860.6</ele>
        <time>2018-06-12T10:34:37Z</time>
      </trkpt>
      <trkpt lat="42.322207" lon="1.017318">
        <ele>859.7</ele>
        <time>2018-06-12T10:34:40Z</time>
      </trkpt>
      <trkpt lat="42.322258" lon="1.017246">
        <ele>859.5</ele>
        <time>2018-06-12T10:34:41Z</time>
      </trkpt>
      <trkpt lat="42.322372" lon="1.017061">
        <ele>860.8</ele>
        <time>2018-06-12T10:34:46Z</time>
      </trkpt>
      <trkpt lat="42.322480" lon="1.016990">
        <ele>863.8</ele>
        <time>2018-06-12T10:34:49Z</time>
      </trkpt>
      <trkpt lat="42.322588" lon="1.017016">
        <ele>865.0</ele>
        <time>2018-06-12T10:34:52Z</time>
      </trkpt>
      <trkpt lat="42.322641" lon="1.017021">
        <ele>865.8</ele>
        <time>2018-06-12T10:34:54Z</time>
      </trkpt>
      <trkpt lat="42.322661" lon="1.016993">
        <ele>866.0</ele>
        <time>2018-06-12T10:34:54Z</time>
      </trkpt>
      <trkpt lat="42.322663" lon="1.016942">
        <ele>865.9</ele>
        <time>2018-06-12T10:34:55Z</time>
      </trkpt>
      <trkpt lat="42.322625" lon="1.016908">
        <ele>865.3</ele>
        <time>2018-06-12T10:34:57Z</time>
      </trkpt>
      <trkpt lat="42.322571" lon="1.016879">
        <ele>865.2</ele>
        <time>2018-06-12T10:34:58Z</time>
      </trkpt>
      <trkpt lat="42.322478" lon="1.016809">
        <ele>866.1</ele>
        <time>2018-06-12T10:35:01Z</time>
      </trkpt>
      <trkpt lat="42.322392" lon="1.016767">
        <ele>867.5</ele>
        <time>2018-06-12T10:35:03Z</time>
      </trkpt>
      <trkpt lat="42.322279" lon="1.016762">
        <ele>868.7</ele>
        <time>2018-06-12T10:35:06Z</time>
      </trkpt>
      <trkpt lat="42.322175" lon="1.016780">
        <ele>869.5</ele>
        <time>2018-06-12T10:35:09Z</time>
      </trkpt>
      <trkpt lat="42.322105" lon="1.016795">
        <ele>870.0</ele>
        <time>2018-06-12T10:35:11Z</time>
      </trkpt>
      <trkpt lat="42.322029" lon="1.016821">
        <ele>870.3</ele>
        <time>2018-06-12T10:35:13Z</time>
      </trkpt>
      <trkpt lat="42.321932" lon="1.016823">
        <ele>871.9</ele>
        <time>2018-06-12T10:35:16Z</time>
      </trkpt>
      <trkpt lat="42.321828" lon="1.016773">
        <ele>874.1</ele>
        <time>2018-06-12T10:35:19Z</time>
      </trkpt>
      <trkpt lat="42.321747" lon="1.016659">
        <ele>876.5</ele>
        <time>2018-06-12T10:35:22Z</time>
      </trkpt>
      <trkpt lat="42.321642" lon="1.016519">
        <ele>877.6</ele>
        <time>2018-06-12T10:35:26Z</time>
      </trkpt>
      <trkpt lat="42.321474" lon="1.016439">
        <ele>878.4</ele>
        <time>2018-06-12T10:35:30Z</time>
      </trkpt>
      <trkpt lat="42.321292" lon="1.016404">
        <ele>882.1</ele>
        <time>2018-06-12T10:35:35Z</time>
      </trkpt>
      <trkpt lat="42.321179" lon="1.016432">
        <ele>886.1</ele>
        <time>2018-06-12T10:35:38Z</time>
      </trkpt>
      <trkpt lat="42.321095" lon="1.016493">
        <ele>889.4</ele>
        <time>2018-06-12T10:35:41Z</time>
      </trkpt>
      <trkpt lat="42.321049" lon="1.016572">
        <ele>890.5</ele>
        <time>2018-06-12T10:35:43Z</time>
      </trkpt>
      <trkpt lat="42.320972" lon="1.016768">
        <ele>890.5</ele>
        <time>2018-06-12T10:35:47Z</time>
      </trkpt>
      <trkpt lat="42.320899" lon="1.016967">
        <ele>891.7</ele>
        <time>2018-06-12T10:35:52Z</time>
      </trkpt>
      <trkpt lat="42.320883" lon="1.017193">
        <ele>890.9</ele>
        <time>2018-06-12T10:35:56Z</time>
      </trkpt>
      <trkpt lat="42.320868" lon="1.017344">
        <ele>890.5</ele>
        <time>2018-06-12T10:35:59Z</time>
      </trkpt>
      <trkpt lat="42.320838" lon="1.017507">
        <ele>891.1</ele>
        <time>2018-06-12T10:36:02Z</time>
      </trkpt>
      <trkpt lat="42.320778" lon="1.017608">
        <ele>892.3</ele>
        <time>2018-06-12T10:36:05Z</time>
      </trkpt>
      <trkpt lat="42.320724" lon="1.017644">
        <ele>893.3</ele>
        <time>2018-06-12T10:36:07Z</time>
      </trkpt>
      <trkpt lat="42.320650" lon="1.017707">
        <ele>894.4</ele>
        <time>2018-06-12T10:36:09Z</time>
      </trkpt>
      <trkpt lat="42.320576" lon="1.017830">
        <ele>894.9</ele>
        <time>2018-06-12T10:36:12Z</time>
      </trkpt>
      <trkpt lat="42.320503" lon="1.017993">
        <ele>894.1</ele>
        <time>2018-06-12T10:36:16Z</time>
      </trkpt>
      <trkpt lat="42.320430" lon="1.018111">
        <ele>892.7</ele>
        <time>2018-06-12T10:36:19Z</time>
      </trkpt>
      <trkpt lat="42.320349" lon="1.018176">
        <ele>893.6</ele>
        <time>2018-06-12T10:36:21Z</time>
      </trkpt>
      <trkpt lat="42.320219" lon="1.018221">
        <ele>896.6</ele>
        <time>2018-06-12T10:36:25Z</time>
      </trkpt>
      <trkpt lat="42.320129" lon="1.018214">
        <ele>899.5</ele>
        <time>2018-06-12T10:36:27Z</time>
      </trkpt>
      <trkpt lat="42.320043" lon="1.018221">
        <ele>900.3</ele>
        <time>2018-06-12T10:36:30Z</time>
      </trkpt>
      <trkpt lat="42.319947" lon="1.018237">
        <ele>900.9</ele>
        <time>2018-06-12T10:36:32Z</time>
      </trkpt>
      <trkpt lat="42.319845" lon="1.018212">
        <ele>902.4</ele>
        <time>2018-06-12T10:36:35Z</time>
      </trkpt>
      <trkpt lat="42.319763" lon="1.018140">
        <ele>902.9</ele>
        <time>2018-06-12T10:36:37Z</time>
      </trkpt>
      <trkpt lat="42.319693" lon="1.018032">
        <ele>903.6</ele>
        <time>2018-06-12T10:36:40Z</time>
      </trkpt>
      <trkpt lat="42.319646" lon="1.017942">
        <ele>904.0</ele>
        <time>2018-06-12T10:36:42Z</time>
      </trkpt>
      <trkpt lat="42.319634" lon="1.017784">
        <ele>905.4</ele>
        <time>2018-06-12T10:36:45Z</time>
      </trkpt>
      <trkpt lat="42.319627" lon="1.017576">
        <ele>907.0</ele>
        <time>2018-06-12T10:36:50Z</time>
      </trkpt>
      <trkpt lat="42.319595" lon="1.017351">
        <ele>907.4</ele>
        <time>2018-06-12T10:36:54Z</time>
      </trkpt>
      <trkpt lat="42.319535" lon="1.017161">
        <ele>907.6</ele>
        <time>2018-06-12T10:36:58Z</time>
      </trkpt>
      <trkpt lat="42.319463" lon="1.017023">
        <ele>907.1</ele>
        <time>2018-06-12T10:37:01Z</time>
      </trkpt>
      <trkpt lat="42.319360" lon="1.016918">
        <ele>905.6</ele>
        <time>2018-06-12T10:37:05Z</time>
      </trkpt>
      <trkpt lat="42.319232" lon="1.016833">
        <ele>903.4</ele>
        <time>2018-06-12T10:37:09Z</time>
      </trkpt>
      <trkpt lat="42.318745" lon="1.016510">
        <ele>893.4</ele>
        <time>2018-06-12T10:37:23Z</time>
      </trkpt>
      <trkpt lat="42.318623" lon="1.016457">
        <ele>895.8</ele>
        <time>2018-06-12T10:37:26Z</time>
      </trkpt>
      <trkpt lat="42.318509" lon="1.016446">
        <ele>897.3</ele>
        <time>2018-06-12T10:37:29Z</time>
      </trkpt>
      <trkpt lat="42.318390" lon="1.016479">
        <ele>899.6</ele>
        <time>2018-06-12T10:37:33Z</time>
      </trkpt>
      <trkpt lat="42.318194" lon="1.016600">
        <ele>905.0</ele>
        <time>2018-06-12T10:37:39Z</time>
      </trkpt>
      <trkpt lat="42.318016" lon="1.016691">
        <ele>909.9</ele>
        <time>2018-06-12T10:37:44Z</time>
      </trkpt>
      <trkpt lat="42.317856" lon="1.016753">
        <ele>913.1</ele>
        <time>2018-06-12T10:37:48Z</time>
      </trkpt>
      <trkpt lat="42.317764" lon="1.016832">
        <ele>913.9</ele>
        <time>2018-06-12T10:37:51Z</time>
      </trkpt>
      <trkpt lat="42.317673" lon="1.016963">
        <ele>914.0</ele>
        <time>2018-06-12T10:37:54Z</time>
      </trkpt>
      <trkpt lat="42.317588" lon="1.017101">
        <ele>913.4</ele>
        <time>2018-06-12T10:37:58Z</time>
      </trkpt>
      <trkpt lat="42.317527" lon="1.017173">
        <ele>913.3</ele>
        <time>2018-06-12T10:38:00Z</time>
      </trkpt>
      <trkpt lat="42.317441" lon="1.017259">
        <ele>913.0</ele>
        <time>2018-06-12T10:38:03Z</time>
      </trkpt>
      <trkpt lat="42.317355" lon="1.017349">
        <ele>912.2</ele>
        <time>2018-06-12T10:38:06Z</time>
      </trkpt>
      <trkpt lat="42.317280" lon="1.017476">
        <ele>911.6</ele>
        <time>2018-06-12T10:38:09Z</time>
      </trkpt>
      <trkpt lat="42.317192" lon="1.017667">
        <ele>911.1</ele>
        <time>2018-06-12T10:38:13Z</time>
      </trkpt>
      <trkpt lat="42.317093" lon="1.017801">
        <ele>910.8</ele>
        <time>2018-06-12T10:38:17Z</time>
      </trkpt>
      <trkpt lat="42.317030" lon="1.017868">
        <ele>910.9</ele>
        <time>2018-06-12T10:38:19Z</time>
      </trkpt>
      <trkpt lat="42.316909" lon="1.017931">
        <ele>911.8</ele>
        <time>2018-06-12T10:38:23Z</time>
      </trkpt>
      <trkpt lat="42.316750" lon="1.017954">
        <ele>913.3</ele>
        <time>2018-06-12T10:38:27Z</time>
      </trkpt>
      <trkpt lat="42.316629" lon="1.017964">
        <ele>914.2</ele>
        <time>2018-06-12T10:38:30Z</time>
      </trkpt>
      <trkpt lat="42.316592" lon="1.018013">
        <ele>914.5</ele>
        <time>2018-06-12T10:38:31Z</time>
      </trkpt>
      <trkpt lat="42.316543" lon="1.018059">
        <ele>914.9</ele>
        <time>2018-06-12T10:38:33Z</time>
      </trkpt>
      <trkpt lat="42.316511" lon="1.018099">
        <ele>915.1</ele>
        <time>2018-06-12T10:38:34Z</time>
      </trkpt>
      <trkpt lat="42.316453" lon="1.018077">
        <ele>915.7</ele>
        <time>2018-06-12T10:38:36Z</time>
      </trkpt>
      <trkpt lat="42.316279" lon="1.017998">
        <ele>917.4</ele>
        <time>2018-06-12T10:38:41Z</time>
      </trkpt>
      <trkpt lat="42.316224" lon="1.017968">
        <ele>917.9</ele>
        <time>2018-06-12T10:38:42Z</time>
      </trkpt>
      <trkpt lat="42.316142" lon="1.017875">
        <ele>918.4</ele>
        <time>2018-06-12T10:38:45Z</time>
      </trkpt>
      <trkpt lat="42.316089" lon="1.017774">
        <ele>919.0</ele>
        <time>2018-06-12T10:38:47Z</time>
      </trkpt>
      <trkpt lat="42.316055" lon="1.017747">
        <ele>919.4</ele>
        <time>2018-06-12T10:38:48Z</time>
      </trkpt>
      <trkpt lat="42.316013" lon="1.017732">
        <ele>919.9</ele>
        <time>2018-06-12T10:38:50Z</time>
      </trkpt>
      <trkpt lat="42.315982" lon="1.017743">
        <ele>920.2</ele>
        <time>2018-06-12T10:38:50Z</time>
      </trkpt>
      <trkpt lat="42.315947" lon="1.017807">
        <ele>919.7</ele>
        <time>2018-06-12T10:38:52Z</time>
      </trkpt>
      <trkpt lat="42.315933" lon="1.017878">
        <ele>919.1</ele>
        <time>2018-06-12T10:38:53Z</time>
      </trkpt>
      <trkpt lat="42.315927" lon="1.018044">
        <ele>918.3</ele>
        <time>2018-06-12T10:38:57Z</time>
      </trkpt>
      <trkpt lat="42.315922" lon="1.018149">
        <ele>917.8</ele>
        <time>2018-06-12T10:38:59Z</time>
      </trkpt>
      <trkpt lat="42.315906" lon="1.018242">
        <ele>917.2</ele>
        <time>2018-06-12T10:39:01Z</time>
      </trkpt>
      <trkpt lat="42.315862" lon="1.018327">
        <ele>916.4</ele>
        <time>2018-06-12T10:39:03Z</time>
      </trkpt>
      <trkpt lat="42.315829" lon="1.018426">
        <ele>915.7</ele>
        <time>2018-06-12T10:39:05Z</time>
      </trkpt>
      <trkpt lat="42.315787" lon="1.018505">
        <ele>915.0</ele>
        <time>2018-06-12T10:39:07Z</time>
      </trkpt>
      <trkpt lat="42.315715" lon="1.018579">
        <ele>914.3</ele>
        <time>2018-06-12T10:39:09Z</time>
      </trkpt>
      <trkpt lat="42.315639" lon="1.018606">
        <ele>914.6</ele>
        <time>2018-06-12T10:39:11Z</time>
      </trkpt>
      <trkpt lat="42.315564" lon="1.018641">
        <ele>915.3</ele>
        <time>2018-06-12T10:39:13Z</time>
      </trkpt>
      <trkpt lat="42.315497" lon="1.018622">
        <ele>916.1</ele>
        <time>2018-06-12T10:39:15Z</time>
      </trkpt>
      <trkpt lat="42.315461" lon="1.018575">
        <ele>916.6</ele>
        <time>2018-06-12T10:39:16Z</time>
      </trkpt>
      <trkpt lat="42.315421" lon="1.018475">
        <ele>917.0</ele>
        <time>2018-06-12T10:39:19Z</time>
      </trkpt>
      <trkpt lat="42.315389" lon="1.018254">
        <ele>917.6</ele>
        <time>2018-06-12T10:39:23Z</time>
      </trkpt>
      <trkpt lat="42.315383" lon="1.018029">
        <ele>918.9</ele>
        <time>2018-06-12T10:39:27Z</time>
      </trkpt>
      <trkpt lat="42.315350" lon="1.017944">
        <ele>919.1</ele>
        <time>2018-06-12T10:39:29Z</time>
      </trkpt>
      <trkpt lat="42.315285" lon="1.017852">
        <ele>918.8</ele>
        <time>2018-06-12T10:39:32Z</time>
      </trkpt>
      <trkpt lat="42.315170" lon="1.017800">
        <ele>917.8</ele>
        <time>2018-06-12T10:39:35Z</time>
      </trkpt>
      <trkpt lat="42.315116" lon="1.017796">
        <ele>917.5</ele>
        <time>2018-06-12T10:39:36Z</time>
      </trkpt>
      <trkpt lat="42.315062" lon="1.017829">
        <ele>917.5</ele>
        <time>2018-06-12T10:39:38Z</time>
      </trkpt>
      <trkpt lat="42.314997" lon="1.017869">
        <ele>917.6</ele>
        <time>2018-06-12T10:39:40Z</time>
      </trkpt>
      <trkpt lat="42.314907" lon="1.017902">
        <ele>917.8</ele>
        <time>2018-06-12T10:39:42Z</time>
      </trkpt>
      <trkpt lat="42.314818" lon="1.017865">
        <ele>917.6</ele>
        <time>2018-06-12T10:39:45Z</time>
      </trkpt>
      <trkpt lat="42.314756" lon="1.017799">
        <ele>917.5</ele>
        <time>2018-06-12T10:39:47Z</time>
      </trkpt>
      <trkpt lat="42.314698" lon="1.017689">
        <ele>918.2</ele>
        <time>2018-06-12T10:39:49Z</time>
      </trkpt>
      <trkpt lat="42.314689" lon="1.017545">
        <ele>919.5</ele>
        <time>2018-06-12T10:39:52Z</time>
      </trkpt>
      <trkpt lat="42.314842" lon="1.016347">
        <ele>937.9</ele>
        <time>2018-06-12T10:40:16Z</time>
      </trkpt>
      <trkpt lat="42.314854" lon="1.016228">
        <ele>939.2</ele>
        <time>2018-06-12T10:40:19Z</time>
      </trkpt>
      <trkpt lat="42.314920" lon="1.015888">
        <ele>941.6</ele>
        <time>2018-06-12T10:40:25Z</time>
      </trkpt>
      <trkpt lat="42.315121" lon="1.015523">
        <ele>941.4</ele>
        <time>2018-06-12T10:40:34Z</time>
      </trkpt>
      <trkpt lat="42.315201" lon="1.015359">
        <ele>938.5</ele>
        <time>2018-06-12T10:40:38Z</time>
      </trkpt>
      <trkpt lat="42.315366" lon="1.014851">
        <ele>934.3</ele>
        <time>2018-06-12T10:40:49Z</time>
      </trkpt>
      <trkpt lat="42.315418" lon="1.014757">
        <ele>935.1</ele>
        <time>2018-06-12T10:40:51Z</time>
      </trkpt>
      <trkpt lat="42.315444" lon="1.014698">
        <ele>935.6</ele>
        <time>2018-06-12T10:40:53Z</time>
      </trkpt>
      <trkpt lat="42.315438" lon="1.014605">
        <ele>936.6</ele>
        <time>2018-06-12T10:40:55Z</time>
      </trkpt>
      <trkpt lat="42.315402" lon="1.014502">
        <ele>937.6</ele>
        <time>2018-06-12T10:40:57Z</time>
      </trkpt>
      <trkpt lat="42.315371" lon="1.014416">
        <ele>938.2</ele>
        <time>2018-06-12T10:40:59Z</time>
      </trkpt>
      <trkpt lat="42.315371" lon="1.014297">
        <ele>939.3</ele>
        <time>2018-06-12T10:41:01Z</time>
      </trkpt>
      <trkpt lat="42.315371" lon="1.014283">
        <ele>939.5</ele>
        <time>2018-06-12T10:41:01Z</time>
      </trkpt>
      <trkpt lat="42.315389" lon="1.014145">
        <ele>941.2</ele>
        <time>2018-06-12T10:41:04Z</time>
      </trkpt>
      <trkpt lat="42.315418" lon="1.014040">
        <ele>942.8</ele>
        <time>2018-06-12T10:41:06Z</time>
      </trkpt>
      <trkpt lat="42.315483" lon="1.013818">
        <ele>943.4</ele>
        <time>2018-06-12T10:41:11Z</time>
      </trkpt>
      <trkpt lat="42.315548" lon="1.013484">
        <ele>944.9</ele>
        <time>2018-06-12T10:41:18Z</time>
      </trkpt>
      <trkpt lat="42.315602" lon="1.013320">
        <ele>945.5</ele>
        <time>2018-06-12T10:41:21Z</time>
      </trkpt>
      <trkpt lat="42.315627" lon="1.013222">
        <ele>945.9</ele>
        <time>2018-06-12T10:41:23Z</time>
      </trkpt>
      <trkpt lat="42.315626" lon="1.013144">
        <ele>946.0</ele>
        <time>2018-06-12T10:41:25Z</time>
      </trkpt>
      <trkpt lat="42.315614" lon="1.013071">
        <ele>945.9</ele>
        <time>2018-06-12T10:41:26Z</time>
      </trkpt>
      <trkpt lat="42.315606" lon="1.012968">
        <ele>946.0</ele>
        <time>2018-06-12T10:41:28Z</time>
      </trkpt>
      <trkpt lat="42.315625" lon="1.012868">
        <ele>946.4</ele>
        <time>2018-06-12T10:41:30Z</time>
      </trkpt>
      <trkpt lat="42.315675" lon="1.012708">
        <ele>948.1</ele>
        <time>2018-06-12T10:41:34Z</time>
      </trkpt>
      <trkpt lat="42.315754" lon="1.012445">
        <ele>951.4</ele>
        <time>2018-06-12T10:41:39Z</time>
      </trkpt>
      <trkpt lat="42.315795" lon="1.012290">
        <ele>954.0</ele>
        <time>2018-06-12T10:41:42Z</time>
      </trkpt>
      <trkpt lat="42.315813" lon="1.012133">
        <ele>957.6</ele>
        <time>2018-06-12T10:41:46Z</time>
      </trkpt>
      <trkpt lat="42.315796" lon="1.012009">
        <ele>961.1</ele>
        <time>2018-06-12T10:41:48Z</time>
      </trkpt>
      <trkpt lat="42.315770" lon="1.011942">
        <ele>963.4</ele>
        <time>2018-06-12T10:41:50Z</time>
      </trkpt>
      <trkpt lat="42.315743" lon="1.011917">
        <ele>964.4</ele>
        <time>2018-06-12T10:41:51Z</time>
      </trkpt>
      <trkpt lat="42.315668" lon="1.011915">
        <ele>964.8</ele>
        <time>2018-06-12T10:41:53Z</time>
      </trkpt>
      <trkpt lat="42.315583" lon="1.011888">
        <ele>965.5</ele>
        <time>2018-06-12T10:41:55Z</time>
      </trkpt>
      <trkpt lat="42.315528" lon="1.011843">
        <ele>966.5</ele>
        <time>2018-06-12T10:41:57Z</time>
      </trkpt>
      <trkpt lat="42.315501" lon="1.011777">
        <ele>967.8</ele>
        <time>2018-06-12T10:41:58Z</time>
      </trkpt>
      <trkpt lat="42.315496" lon="1.011707">
        <ele>969.1</ele>
        <time>2018-06-12T10:42:00Z</time>
      </trkpt>
      <trkpt lat="42.315506" lon="1.011658">
        <ele>970.0</ele>
        <time>2018-06-12T10:42:01Z</time>
      </trkpt>
      <trkpt lat="42.315521" lon="1.011502">
        <ele>972.5</ele>
        <time>2018-06-12T10:42:04Z</time>
      </trkpt>
      <trkpt lat="42.315493" lon="1.011361">
        <ele>972.9</ele>
        <time>2018-06-12T10:42:07Z</time>
      </trkpt>
      <trkpt lat="42.315406" lon="1.011148">
        <ele>973.7</ele>
        <time>2018-06-12T10:42:11Z</time>
      </trkpt>
      <trkpt lat="42.315303" lon="1.010998">
        <ele>975.1</ele>
        <time>2018-06-12T10:42:15Z</time>
      </trkpt>
      <trkpt lat="42.315205" lon="1.010915">
        <ele>977.3</ele>
        <time>2018-06-12T10:42:18Z</time>
      </trkpt>
      <trkpt lat="42.315108" lon="1.010887">
        <ele>978.9</ele>
        <time>2018-06-12T10:42:21Z</time>
      </trkpt>
      <trkpt lat="42.314992" lon="1.010892">
        <ele>980.3</ele>
        <time>2018-06-12T10:42:24Z</time>
      </trkpt>
      <trkpt lat="42.314862" lon="1.010914">
        <ele>981.5</ele>
        <time>2018-06-12T10:42:28Z</time>
      </trkpt>
      <trkpt lat="42.314765" lon="1.010889">
        <ele>983.8</ele>
        <time>2018-06-12T10:42:30Z</time>
      </trkpt>
      <trkpt lat="42.314699" lon="1.010798">
        <ele>987.3</ele>
        <time>2018-06-12T10:42:33Z</time>
      </trkpt>
      <trkpt lat="42.314645" lon="1.010747">
        <ele>989.6</ele>
        <time>2018-06-12T10:42:35Z</time>
      </trkpt>
      <trkpt lat="42.314616" lon="1.010729">
        <ele>990.6</ele>
        <time>2018-06-12T10:42:36Z</time>
      </trkpt>
      <trkpt lat="42.314567" lon="1.010744">
        <ele>990.9</ele>
        <time>2018-06-12T10:42:37Z</time>
      </trkpt>
      <trkpt lat="42.314526" lon="1.010779">
        <ele>990.4</ele>
        <time>2018-06-12T10:42:38Z</time>
      </trkpt>
      <trkpt lat="42.314413" lon="1.011037">
        <ele>985.6</ele>
        <time>2018-06-12T10:42:44Z</time>
      </trkpt>
      <trkpt lat="42.314300" lon="1.011304">
        <ele>983.3</ele>
        <time>2018-06-12T10:42:50Z</time>
      </trkpt>
      <trkpt lat="42.314259" lon="1.011377">
        <ele>983.2</ele>
        <time>2018-06-12T10:42:52Z</time>
      </trkpt>
      <trkpt lat="42.314204" lon="1.011447">
        <ele>983.5</ele>
        <time>2018-06-12T10:42:54Z</time>
      </trkpt>
      <trkpt lat="42.314108" lon="1.011523">
        <ele>985.0</ele>
        <time>2018-06-12T10:42:57Z</time>
      </trkpt>
      <trkpt lat="42.314002" lon="1.011586">
        <ele>986.8</ele>
        <time>2018-06-12T10:43:00Z</time>
      </trkpt>
      <trkpt lat="42.313931" lon="1.011645">
        <ele>987.7</ele>
        <time>2018-06-12T10:43:02Z</time>
      </trkpt>
      <trkpt lat="42.313837" lon="1.011737">
        <ele>989.2</ele>
        <time>2018-06-12T10:43:05Z</time>
      </trkpt>
      <trkpt lat="42.313778" lon="1.011788">
        <ele>990.3</ele>
        <time>2018-06-12T10:43:07Z</time>
      </trkpt>
      <trkpt lat="42.313731" lon="1.011815">
        <ele>991.2</ele>
        <time>2018-06-12T10:43:08Z</time>
      </trkpt>
      <trkpt lat="42.313693" lon="1.011805">
        <ele>991.8</ele>
        <time>2018-06-12T10:43:09Z</time>
      </trkpt>
      <trkpt lat="42.313660" lon="1.011752">
        <ele>992.7</ele>
        <time>2018-06-12T10:43:11Z</time>
      </trkpt>
      <trkpt lat="42.313650" lon="1.011694">
        <ele>993.2</ele>
        <time>2018-06-12T10:43:12Z</time>
      </trkpt>
      <trkpt lat="42.313680" lon="1.011607">
        <ele>993.4</ele>
        <time>2018-06-12T10:43:14Z</time>
      </trkpt>
      <trkpt lat="42.313739" lon="1.011477">
        <ele>993.1</ele>
        <time>2018-06-12T10:43:17Z</time>
      </trkpt>
      <trkpt lat="42.313900" lon="1.011069">
        <ele>992.3</ele>
        <time>2018-06-12T10:43:26Z</time>
      </trkpt>
      <trkpt lat="42.313929" lon="1.010989">
        <ele>992.8</ele>
        <time>2018-06-12T10:43:28Z</time>
      </trkpt>
      <trkpt lat="42.314000" lon="1.010710">
        <ele>997.6</ele>
        <time>2018-06-12T10:43:33Z</time>
      </trkpt>
      <trkpt lat="42.314015" lon="1.010550">
        <ele>1001.7</ele>
        <time>2018-06-12T10:43:37Z</time>
      </trkpt>
      <trkpt lat="42.313981" lon="1.010054">
        <ele>1008.5</ele>
        <time>2018-06-12T10:43:47Z</time>
      </trkpt>
      <trkpt lat="42.313980" lon="1.009854">
        <ele>1009.9</ele>
        <time>2018-06-12T10:43:50Z</time>
      </trkpt>
      <trkpt lat="42.313989" lon="1.009682">
        <ele>1010.9</ele>
        <time>2018-06-12T10:43:54Z</time>
      </trkpt>
      <trkpt lat="42.314002" lon="1.009609">
        <ele>1011.2</ele>
        <time>2018-06-12T10:43:55Z</time>
      </trkpt>
      <trkpt lat="42.314102" lon="1.009281">
        <ele>1013.0</ele>
        <time>2018-06-12T10:44:02Z</time>
      </trkpt>
      <trkpt lat="42.314187" lon="1.008939">
        <ele>1015.2</ele>
        <time>2018-06-12T10:44:09Z</time>
      </trkpt>
      <trkpt lat="42.314231" lon="1.008831">
        <ele>1015.1</ele>
        <time>2018-06-12T10:44:12Z</time>
      </trkpt>
      <trkpt lat="42.314304" lon="1.008748">
        <ele>1013.1</ele>
        <time>2018-06-12T10:44:14Z</time>
      </trkpt>
      <trkpt lat="42.314394" lon="1.008674">
        <ele>1011.9</ele>
        <time>2018-06-12T10:44:17Z</time>
      </trkpt>
      <trkpt lat="42.314515" lon="1.008615">
        <ele>1009.3</ele>
        <time>2018-06-12T10:44:20Z</time>
      </trkpt>
      <trkpt lat="42.314635" lon="1.008567">
        <ele>1007.4</ele>
        <time>2018-06-12T10:44:24Z</time>
      </trkpt>
      <trkpt lat="42.314741" lon="1.008510">
        <ele>1006.9</ele>
        <time>2018-06-12T10:44:27Z</time>
      </trkpt>
      <trkpt lat="42.314850" lon="1.008406">
        <ele>1006.6</ele>
        <time>2018-06-12T10:44:30Z</time>
      </trkpt>
      <trkpt lat="42.314939" lon="1.008313">
        <ele>1006.9</ele>
        <time>2018-06-12T10:44:33Z</time>
      </trkpt>
      <trkpt lat="42.315008" lon="1.008238">
        <ele>1007.2</ele>
        <time>2018-06-12T10:44:36Z</time>
      </trkpt>
      <trkpt lat="42.315114" lon="1.008054">
        <ele>1010.6</ele>
        <time>2018-06-12T10:44:40Z</time>
      </trkpt>
      <trkpt lat="42.315175" lon="1.007939">
        <ele>1013.4</ele>
        <time>2018-06-12T10:44:43Z</time>
      </trkpt>
      <trkpt lat="42.315216" lon="1.007828">
        <ele>1018.1</ele>
        <time>2018-06-12T10:44:46Z</time>
      </trkpt>
      <trkpt lat="42.315236" lon="1.007750">
        <ele>1021.3</ele>
        <time>2018-06-12T10:44:47Z</time>
      </trkpt>
      <trkpt lat="42.315259" lon="1.007627">
        <ele>1025.8</ele>
        <time>2018-06-12T10:44:50Z</time>
      </trkpt>
      <trkpt lat="42.315277" lon="1.007511">
        <ele>1027.6</ele>
        <time>2018-06-12T10:44:52Z</time>
      </trkpt>
      <trkpt lat="42.315293" lon="1.007445">
        <ele>1028.4</ele>
        <time>2018-06-12T10:44:54Z</time>
      </trkpt>
      <trkpt lat="42.315320" lon="1.007346">
        <ele>1029.7</ele>
        <time>2018-06-12T10:44:56Z</time>
      </trkpt>
      <trkpt lat="42.315395" lon="1.007136">
        <ele>1033.0</ele>
        <time>2018-06-12T10:45:01Z</time>
      </trkpt>
      <trkpt lat="42.315416" lon="1.007074">
        <ele>1034.3</ele>
        <time>2018-06-12T10:45:02Z</time>
      </trkpt>
      <trkpt lat="42.315449" lon="1.006967">
        <ele>1037.0</ele>
        <time>2018-06-12T10:45:04Z</time>
      </trkpt>
      <trkpt lat="42.315475" lon="1.006811">
        <ele>1041.0</ele>
        <time>2018-06-12T10:45:08Z</time>
      </trkpt>
      <trkpt lat="42.315507" lon="1.006707">
        <ele>1043.0</ele>
        <time>2018-06-12T10:45:10Z</time>
      </trkpt>
      <trkpt lat="42.315539" lon="1.006634">
        <ele>1044.0</ele>
        <time>2018-06-12T10:45:11Z</time>
      </trkpt>
      <trkpt lat="42.315715" lon="1.006303">
        <ele>1048.8</ele>
        <time>2018-06-12T10:45:19Z</time>
      </trkpt>
      <trkpt lat="42.315765" lon="1.006232">
        <ele>1048.5</ele>
        <time>2018-06-12T10:45:21Z</time>
      </trkpt>
      <trkpt lat="42.315794" lon="1.006164">
        <ele>1047.6</ele>
        <time>2018-06-12T10:45:23Z</time>
      </trkpt>
      <trkpt lat="42.315803" lon="1.006089">
        <ele>1047.5</ele>
        <time>2018-06-12T10:45:24Z</time>
      </trkpt>
      <trkpt lat="42.315805" lon="1.005980">
        <ele>1047.8</ele>
        <time>2018-06-12T10:45:27Z</time>
      </trkpt>
      <trkpt lat="42.315787" lon="1.005791">
        <ele>1050.5</ele>
        <time>2018-06-12T10:45:30Z</time>
      </trkpt>
      <trkpt lat="42.315761" lon="1.005653">
        <ele>1053.0</ele>
        <time>2018-06-12T10:45:33Z</time>
      </trkpt>
      <trkpt lat="42.315735" lon="1.005551">
        <ele>1055.6</ele>
        <time>2018-06-12T10:45:35Z</time>
      </trkpt>
      <trkpt lat="42.315709" lon="1.005458">
        <ele>1058.4</ele>
        <time>2018-06-12T10:45:37Z</time>
      </trkpt>
      <trkpt lat="42.315702" lon="1.005380">
        <ele>1059.7</ele>
        <time>2018-06-12T10:45:39Z</time>
      </trkpt>
      <trkpt lat="42.315702" lon="1.005290">
        <ele>1059.7</ele>
        <time>2018-06-12T10:45:41Z</time>
      </trkpt>
      <trkpt lat="42.315688" lon="1.005147">
        <ele>1060.1</ele>
        <time>2018-06-12T10:45:43Z</time>
      </trkpt>
      <trkpt lat="42.315671" lon="1.005062">
        <ele>1060.6</ele>
        <time>2018-06-12T10:45:45Z</time>
      </trkpt>
      <trkpt lat="42.315659" lon="1.004957">
        <ele>1061.0</ele>
        <time>2018-06-12T10:45:47Z</time>
      </trkpt>
      <trkpt lat="42.315658" lon="1.004903">
        <ele>1061.1</ele>
        <time>2018-06-12T10:45:48Z</time>
      </trkpt>
      <trkpt lat="42.315683" lon="1.004852">
        <ele>1061.0</ele>
        <time>2018-06-12T10:45:49Z</time>
      </trkpt>
      <trkpt lat="42.315736" lon="1.004830">
        <ele>1059.6</ele>
        <time>2018-06-12T10:45:51Z</time>
      </trkpt>
      <trkpt lat="42.315828" lon="1.004808">
        <ele>1056.8</ele>
        <time>2018-06-12T10:45:54Z</time>
      </trkpt>
      <trkpt lat="42.315906" lon="1.004751">
        <ele>1054.7</ele>
        <time>2018-06-12T10:45:56Z</time>
      </trkpt>
      <trkpt lat="42.315980" lon="1.004641">
        <ele>1053.5</ele>
        <time>2018-06-12T10:45:59Z</time>
      </trkpt>
      <trkpt lat="42.316075" lon="1.004469">
        <ele>1053.4</ele>
        <time>2018-06-12T10:46:03Z</time>
      </trkpt>
      <trkpt lat="42.316257" lon="1.004201">
        <ele>1050.8</ele>
        <time>2018-06-12T10:46:10Z</time>
      </trkpt>
      <trkpt lat="42.316384" lon="1.004002">
        <ele>1049.0</ele>
        <time>2018-06-12T10:46:15Z</time>
      </trkpt>
      <trkpt lat="42.316440" lon="1.003896">
        <ele>1049.7</ele>
        <time>2018-06-12T10:46:18Z</time>
      </trkpt>
      <trkpt lat="42.316480" lon="1.003807">
        <ele>1050.6</ele>
        <time>2018-06-12T10:46:20Z</time>
      </trkpt>
      <trkpt lat="42.316641" lon="1.003553">
        <ele>1057.4</ele>
        <time>2018-06-12T10:46:27Z</time>
      </trkpt>
      <trkpt lat="42.316817" lon="1.003155">
        <ele>1060.0</ele>
        <time>2018-06-12T10:46:36Z</time>
      </trkpt>
      <trkpt lat="42.317077" lon="1.002621">
        <ele>1060.1</ele>
        <time>2018-06-12T10:46:48Z</time>
      </trkpt>
      <trkpt lat="42.317440" lon="1.002020">
        <ele>1059.3</ele>
        <time>2018-06-12T10:47:03Z</time>
      </trkpt>
      <trkpt lat="42.317524" lon="1.001858">
        <ele>1060.4</ele>
        <time>2018-06-12T10:47:07Z</time>
      </trkpt>
      <trkpt lat="42.317582" lon="1.001701">
        <ele>1060.6</ele>
        <time>2018-06-12T10:47:10Z</time>
      </trkpt>
      <trkpt lat="42.317604" lon="1.001597">
        <ele>1060.4</ele>
        <time>2018-06-12T10:47:13Z</time>
      </trkpt>
      <trkpt lat="42.317609" lon="1.001485">
        <ele>1060.6</ele>
        <time>2018-06-12T10:47:15Z</time>
      </trkpt>
      <trkpt lat="42.317624" lon="1.001342">
        <ele>1060.9</ele>
        <time>2018-06-12T10:47:18Z</time>
      </trkpt>
      <trkpt lat="42.317683" lon="1.000904">
        <ele>1062.9</ele>
        <time>2018-06-12T10:47:26Z</time>
      </trkpt>
      <trkpt lat="42.317712" lon="1.000721">
        <ele>1064.1</ele>
        <time>2018-06-12T10:47:30Z</time>
      </trkpt>
      <trkpt lat="42.317715" lon="1.000630">
        <ele>1065.1</ele>
        <time>2018-06-12T10:47:32Z</time>
      </trkpt>
      <trkpt lat="42.317696" lon="1.000481">
        <ele>1067.2</ele>
        <time>2018-06-12T10:47:35Z</time>
      </trkpt>
      <trkpt lat="42.317686" lon="1.000338">
        <ele>1069.0</ele>
        <time>2018-06-12T10:47:38Z</time>
      </trkpt>
      <trkpt lat="42.317696" lon="1.000241">
        <ele>1069.8</ele>
        <time>2018-06-12T10:47:39Z</time>
      </trkpt>
      <trkpt lat="42.317744" lon="1.000171">
        <ele>1069.0</ele>
        <time>2018-06-12T10:47:41Z</time>
      </trkpt>
      <trkpt lat="42.317827" lon="1.000086">
        <ele>1066.6</ele>
        <time>2018-06-12T10:47:44Z</time>
      </trkpt>
      <trkpt lat="42.317930" lon="0.999951">
        <ele>1063.3</ele>
        <time>2018-06-12T10:47:48Z</time>
      </trkpt>
      <trkpt lat="42.318018" lon="0.999791">
        <ele>1062.8</ele>
        <time>2018-06-12T10:47:52Z</time>
      </trkpt>
      <trkpt lat="42.318122" lon="0.999598">
        <ele>1063.1</ele>
        <time>2018-06-12T10:47:57Z</time>
      </trkpt>
      <trkpt lat="42.318228" lon="0.999405">
        <ele>1061.7</ele>
        <time>2018-06-12T10:48:01Z</time>
      </trkpt>
      <trkpt lat="42.318331" lon="0.999255">
        <ele>1059.7</ele>
        <time>2018-06-12T10:48:05Z</time>
      </trkpt>
      <trkpt lat="42.318719" lon="0.998868">
        <ele>1052.1</ele>
        <time>2018-06-12T10:48:18Z</time>
      </trkpt>
      <trkpt lat="42.318867" lon="0.998709">
        <ele>1051.0</ele>
        <time>2018-06-12T10:48:23Z</time>
      </trkpt>
      <trkpt lat="42.318962" lon="0.998593">
        <ele>1050.1</ele>
        <time>2018-06-12T10:48:26Z</time>
      </trkpt>
      <trkpt lat="42.319023" lon="0.998499">
        <ele>1049.1</ele>
        <time>2018-06-12T10:48:29Z</time>
      </trkpt>
      <trkpt lat="42.319224" lon="0.998150">
        <ele>1049.6</ele>
        <time>2018-06-12T10:48:37Z</time>
      </trkpt>
      <trkpt lat="42.319410" lon="0.997847">
        <ele>1047.8</ele>
        <time>2018-06-12T10:48:45Z</time>
      </trkpt>
      <trkpt lat="42.319645" lon="0.997521">
        <ele>1048.9</ele>
        <time>2018-06-12T10:48:54Z</time>
      </trkpt>
      <trkpt lat="42.319784" lon="0.997359">
        <ele>1049.2</ele>
        <time>2018-06-12T10:48:59Z</time>
      </trkpt>
      <trkpt lat="42.319931" lon="0.997210">
        <ele>1054.0</ele>
        <time>2018-06-12T10:49:04Z</time>
      </trkpt>
      <trkpt lat="42.320075" lon="0.997080">
        <ele>1058.8</ele>
        <time>2018-06-12T10:49:09Z</time>
      </trkpt>
      <trkpt lat="42.320169" lon="0.997027">
        <ele>1059.5</ele>
        <time>2018-06-12T10:49:11Z</time>
      </trkpt>
      <trkpt lat="42.320240" lon="0.997019">
        <ele>1058.4</ele>
        <time>2018-06-12T10:49:13Z</time>
      </trkpt>
      <trkpt lat="42.320327" lon="0.997024">
        <ele>1056.8</ele>
        <time>2018-06-12T10:49:15Z</time>
      </trkpt>
      <trkpt lat="42.320438" lon="0.997064">
        <ele>1054.2</ele>
        <time>2018-06-12T10:49:19Z</time>
      </trkpt>
      <trkpt lat="42.320541" lon="0.997102">
        <ele>1052.9</ele>
        <time>2018-06-12T10:49:21Z</time>
      </trkpt>
      <trkpt lat="42.320583" lon="0.997099">
        <ele>1052.6</ele>
        <time>2018-06-12T10:49:22Z</time>
      </trkpt>
      <trkpt lat="42.320644" lon="0.997067">
        <ele>1052.6</ele>
        <time>2018-06-12T10:49:24Z</time>
      </trkpt>
      <trkpt lat="42.320746" lon="0.996989">
        <ele>1052.0</ele>
        <time>2018-06-12T10:49:27Z</time>
      </trkpt>
      <trkpt lat="42.321002" lon="0.996747">
        <ele>1050.7</ele>
        <time>2018-06-12T10:49:35Z</time>
      </trkpt>
      <trkpt lat="42.321194" lon="0.996537">
        <ele>1053.1</ele>
        <time>2018-06-12T10:49:42Z</time>
      </trkpt>
      <trkpt lat="42.321327" lon="0.996411">
        <ele>1054.8</ele>
        <time>2018-06-12T10:49:46Z</time>
      </trkpt>
      <trkpt lat="42.321634" lon="0.996194">
        <ele>1059.5</ele>
        <time>2018-06-12T10:49:56Z</time>
      </trkpt>
      <trkpt lat="42.321696" lon="0.996157">
        <ele>1060.4</ele>
        <time>2018-06-12T10:49:57Z</time>
      </trkpt>
      <trkpt lat="42.321749" lon="0.996143">
        <ele>1060.8</ele>
        <time>2018-06-12T10:49:59Z</time>
      </trkpt>
      <trkpt lat="42.321790" lon="0.996148">
        <ele>1061.0</ele>
        <time>2018-06-12T10:50:00Z</time>
      </trkpt>
      <trkpt lat="42.321836" lon="0.996186">
        <ele>1060.7</ele>
        <time>2018-06-12T10:50:01Z</time>
      </trkpt>
      <trkpt lat="42.321894" lon="0.996257">
        <ele>1059.9</ele>
        <time>2018-06-12T10:50:03Z</time>
      </trkpt>
      <trkpt lat="42.322046" lon="0.996433">
        <ele>1057.8</ele>
        <time>2018-06-12T10:50:09Z</time>
      </trkpt>
      <trkpt lat="42.322124" lon="0.996465">
        <ele>1058.2</ele>
        <time>2018-06-12T10:50:11Z</time>
      </trkpt>
      <trkpt lat="42.322205" lon="0.996470">
        <ele>1059.3</ele>
        <time>2018-06-12T10:50:13Z</time>
      </trkpt>
      <trkpt lat="42.322300" lon="0.996455">
        <ele>1060.5</ele>
        <time>2018-06-12T10:50:15Z</time>
      </trkpt>
      <trkpt lat="42.322410" lon="0.996394">
        <ele>1060.7</ele>
        <time>2018-06-12T10:50:19Z</time>
      </trkpt>
      <trkpt lat="42.322528" lon="0.996323">
        <ele>1059.8</ele>
        <time>2018-06-12T10:50:22Z</time>
      </trkpt>
      <trkpt lat="42.322610" lon="0.996302">
        <ele>1059.3</ele>
        <time>2018-06-12T10:50:24Z</time>
      </trkpt>
      <trkpt lat="42.322713" lon="0.996289">
        <ele>1058.7</ele>
        <time>2018-06-12T10:50:27Z</time>
      </trkpt>
      <trkpt lat="42.322872" lon="0.996245">
        <ele>1057.1</ele>
        <time>2018-06-12T10:50:31Z</time>
      </trkpt>
      <trkpt lat="42.323020" lon="0.996191">
        <ele>1055.4</ele>
        <time>2018-06-12T10:50:35Z</time>
      </trkpt>
      <trkpt lat="42.323250" lon="0.996130">
        <ele>1054.0</ele>
        <time>2018-06-12T10:50:41Z</time>
      </trkpt>
      <trkpt lat="42.323452" lon="0.996060">
        <ele>1054.9</ele>
        <time>2018-06-12T10:50:47Z</time>
      </trkpt>
      <trkpt lat="42.323648" lon="0.996027">
        <ele>1054.9</ele>
        <time>2018-06-12T10:50:52Z</time>
      </trkpt>
      <trkpt lat="42.323972" lon="0.995979">
        <ele>1051.1</ele>
        <time>2018-06-12T10:51:01Z</time>
      </trkpt>
      <trkpt lat="42.324077" lon="0.995968">
        <ele>1048.9</ele>
        <time>2018-06-12T10:51:04Z</time>
      </trkpt>
      <trkpt lat="42.324410" lon="0.995928">
        <ele>1042.9</ele>
        <time>2018-06-12T10:51:13Z</time>
      </trkpt>
      <trkpt lat="42.324685" lon="0.995883">
        <ele>1041.0</ele>
        <time>2018-06-12T10:51:20Z</time>
      </trkpt>
      <trkpt lat="42.324779" lon="0.995858">
        <ele>1041.4</ele>
        <time>2018-06-12T10:51:22Z</time>
      </trkpt>
      <trkpt lat="42.324959" lon="0.995794">
        <ele>1043.5</ele>
        <time>2018-06-12T10:51:27Z</time>
      </trkpt>
      <trkpt lat="42.325040" lon="0.995746">
        <ele>1044.9</ele>
        <time>2018-06-12T10:51:30Z</time>
      </trkpt>
      <trkpt lat="42.325223" lon="0.995609">
        <ele>1046.4</ele>
        <time>2018-06-12T10:51:35Z</time>
      </trkpt>
      <trkpt lat="42.325596" lon="0.995369">
        <ele>1045.2</ele>
        <time>2018-06-12T10:51:46Z</time>
      </trkpt>
      <trkpt lat="42.326110" lon="0.995069">
        <ele>1039.3</ele>
        <time>2018-06-12T10:52:01Z</time>
      </trkpt>
      <trkpt lat="42.326254" lon="0.994998">
        <ele>1039.0</ele>
        <time>2018-06-12T10:52:05Z</time>
      </trkpt>
      <trkpt lat="42.326446" lon="0.994924">
        <ele>1036.9</ele>
        <time>2018-06-12T10:52:10Z</time>
      </trkpt>
      <trkpt lat="42.326550" lon="0.994872">
        <ele>1035.5</ele>
        <time>2018-06-12T10:52:13Z</time>
      </trkpt>
      <trkpt lat="42.326913" lon="0.994622">
        <ele>1035.2</ele>
        <time>2018-06-12T10:52:24Z</time>
      </trkpt>
      <trkpt lat="42.327101" lon="0.994500">
        <ele>1035.0</ele>
        <time>2018-06-12T10:52:29Z</time>
      </trkpt>
      <trkpt lat="42.327235" lon="0.994437">
        <ele>1035.8</ele>
        <time>2018-06-12T10:52:33Z</time>
      </trkpt>
      <trkpt lat="42.327354" lon="0.994407">
        <ele>1035.7</ele>
        <time>2018-06-12T10:52:36Z</time>
      </trkpt>
      <trkpt lat="42.327424" lon="0.994378">
        <ele>1035.4</ele>
        <time>2018-06-12T10:52:38Z</time>
      </trkpt>
      <trkpt lat="42.327484" lon="0.994339">
        <ele>1035.1</ele>
        <time>2018-06-12T10:52:40Z</time>
      </trkpt>
      <trkpt lat="42.327526" lon="0.994274">
        <ele>1035.2</ele>
        <time>2018-06-12T10:52:42Z</time>
      </trkpt>
      <trkpt lat="42.327551" lon="0.994194">
        <ele>1035.7</ele>
        <time>2018-06-12T10:52:43Z</time>
      </trkpt>
      <trkpt lat="42.327604" lon="0.994093">
        <ele>1036.0</ele>
        <time>2018-06-12T10:52:46Z</time>
      </trkpt>
      <trkpt lat="42.327692" lon="0.993990">
        <ele>1036.3</ele>
        <time>2018-06-12T10:52:49Z</time>
      </trkpt>
      <trkpt lat="42.327780" lon="0.993909">
        <ele>1036.9</ele>
        <time>2018-06-12T10:52:52Z</time>
      </trkpt>
      <trkpt lat="42.327868" lon="0.993774">
        <ele>1038.2</ele>
        <time>2018-06-12T10:52:55Z</time>
      </trkpt>
      <trkpt lat="42.327926" lon="0.993577">
        <ele>1040.1</ele>
        <time>2018-06-12T10:52:59Z</time>
      </trkpt>
      <trkpt lat="42.327927" lon="0.993390">
        <ele>1042.4</ele>
        <time>2018-06-12T10:53:03Z</time>
      </trkpt>
      <trkpt lat="42.327927" lon="0.993095">
        <ele>1044.8</ele>
        <time>2018-06-12T10:53:09Z</time>
      </trkpt>
      <trkpt lat="42.327909" lon="0.992762">
        <ele>1045.9</ele>
        <time>2018-06-12T10:53:15Z</time>
      </trkpt>
      <trkpt lat="42.327822" lon="0.992172">
        <ele>1050.1</ele>
        <time>2018-06-12T10:53:27Z</time>
      </trkpt>
      <trkpt lat="42.327745" lon="0.991725">
        <ele>1054.4</ele>
        <time>2018-06-12T10:53:36Z</time>
      </trkpt>
      <trkpt lat="42.327569" lon="0.991096">
        <ele>1053.6</ele>
        <time>2018-06-12T10:53:49Z</time>
      </trkpt>
      <trkpt lat="42.327481" lon="0.990941">
        <ele>1051.7</ele>
        <time>2018-06-12T10:53:53Z</time>
      </trkpt>
      <trkpt lat="42.327384" lon="0.990797">
        <ele>1048.6</ele>
        <time>2018-06-12T10:53:57Z</time>
      </trkpt>
      <trkpt lat="42.327295" lon="0.990729">
        <ele>1047.7</ele>
        <time>2018-06-12T10:53:59Z</time>
      </trkpt>
      <trkpt lat="42.327213" lon="0.990720">
        <ele>1047.8</ele>
        <time>2018-06-12T10:54:02Z</time>
      </trkpt>
      <trkpt lat="42.327085" lon="0.990739">
        <ele>1048.5</ele>
        <time>2018-06-12T10:54:05Z</time>
      </trkpt>
      <trkpt lat="42.326977" lon="0.990822">
        <ele>1050.3</ele>
        <time>2018-06-12T10:54:08Z</time>
      </trkpt>
      <trkpt lat="42.326870" lon="0.990882">
        <ele>1051.8</ele>
        <time>2018-06-12T10:54:11Z</time>
      </trkpt>
      <trkpt lat="42.326782" lon="0.990905">
        <ele>1053.1</ele>
        <time>2018-06-12T10:54:14Z</time>
      </trkpt>
      <trkpt lat="42.326626" lon="0.990881">
        <ele>1057.1</ele>
        <time>2018-06-12T10:54:18Z</time>
      </trkpt>
      <trkpt lat="42.326524" lon="0.990816">
        <ele>1059.5</ele>
        <time>2018-06-12T10:54:21Z</time>
      </trkpt>
      <trkpt lat="42.326354" lon="0.990720">
        <ele>1059.9</ele>
        <time>2018-06-12T10:54:26Z</time>
      </trkpt>
      <trkpt lat="42.326238" lon="0.990654">
        <ele>1059.8</ele>
        <time>2018-06-12T10:54:29Z</time>
      </trkpt>
      <trkpt lat="42.326128" lon="0.990596">
        <ele>1059.5</ele>
        <time>2018-06-12T10:54:32Z</time>
      </trkpt>
      <trkpt lat="42.326070" lon="0.990580">
        <ele>1059.5</ele>
        <time>2018-06-12T10:54:34Z</time>
      </trkpt>
      <trkpt lat="42.326005" lon="0.990504">
        <ele>1059.6</ele>
        <time>2018-06-12T10:54:36Z</time>
      </trkpt>
      <trkpt lat="42.325998" lon="0.990418">
        <ele>1059.9</ele>
        <time>2018-06-12T10:54:38Z</time>
      </trkpt>
      <trkpt lat="42.326036" lon="0.990351">
        <ele>1060.9</ele>
        <time>2018-06-12T10:54:39Z</time>
      </trkpt>
      <trkpt lat="42.326124" lon="0.990314">
        <ele>1061.1</ele>
        <time>2018-06-12T10:54:42Z</time>
      </trkpt>
      <trkpt lat="42.326225" lon="0.990193">
        <ele>1062.4</ele>
        <time>2018-06-12T10:54:45Z</time>
      </trkpt>
      <trkpt lat="42.326282" lon="0.990023">
        <ele>1064.7</ele>
        <time>2018-06-12T10:54:49Z</time>
      </trkpt>
      <trkpt lat="42.326377" lon="0.989751">
        <ele>1067.0</ele>
        <time>2018-06-12T10:54:55Z</time>
      </trkpt>
      <trkpt lat="42.326409" lon="0.989567">
        <ele>1067.9</ele>
        <time>2018-06-12T10:54:59Z</time>
      </trkpt>
      <trkpt lat="42.326440" lon="0.989304">
        <ele>1068.5</ele>
        <time>2018-06-12T10:55:04Z</time>
      </trkpt>
      <trkpt lat="42.326439" lon="0.989170">
        <ele>1069.2</ele>
        <time>2018-06-12T10:55:07Z</time>
      </trkpt>
      <trkpt lat="42.326438" lon="0.988994">
        <ele>1070.3</ele>
        <time>2018-06-12T10:55:10Z</time>
      </trkpt>
      <trkpt lat="42.326437" lon="0.988759">
        <ele>1072.6</ele>
        <time>2018-06-12T10:55:15Z</time>
      </trkpt>
      <trkpt lat="42.326417" lon="0.988633">
        <ele>1073.8</ele>
        <time>2018-06-12T10:55:17Z</time>
      </trkpt>
      <trkpt lat="42.326391" lon="0.988482">
        <ele>1075.4</ele>
        <time>2018-06-12T10:55:20Z</time>
      </trkpt>
      <trkpt lat="42.326358" lon="0.988336">
        <ele>1077.7</ele>
        <time>2018-06-12T10:55:23Z</time>
      </trkpt>
      <trkpt lat="42.326346" lon="0.988168">
        <ele>1079.7</ele>
        <time>2018-06-12T10:55:26Z</time>
      </trkpt>
      <trkpt lat="42.326340" lon="0.987982">
        <ele>1080.2</ele>
        <time>2018-06-12T10:55:30Z</time>
      </trkpt>
      <trkpt lat="42.326359" lon="0.987830">
        <ele>1080.6</ele>
        <time>2018-06-12T10:55:33Z</time>
      </trkpt>
      <trkpt lat="42.326404" lon="0.987657">
        <ele>1081.2</ele>
        <time>2018-06-12T10:55:37Z</time>
      </trkpt>
      <trkpt lat="42.326461" lon="0.987559">
        <ele>1082.0</ele>
        <time>2018-06-12T10:55:39Z</time>
      </trkpt>
      <trkpt lat="42.326580" lon="0.987416">
        <ele>1084.1</ele>
        <time>2018-06-12T10:55:43Z</time>
      </trkpt>
      <trkpt lat="42.326780" lon="0.987208">
        <ele>1086.6</ele>
        <time>2018-06-12T10:55:50Z</time>
      </trkpt>
      <trkpt lat="42.326880" lon="0.987085">
        <ele>1087.7</ele>
        <time>2018-06-12T10:55:54Z</time>
      </trkpt>
      <trkpt lat="42.326943" lon="0.986949">
        <ele>1088.7</ele>
        <time>2018-06-12T10:55:57Z</time>
      </trkpt>
      <trkpt lat="42.326993" lon="0.986802">
        <ele>1089.7</ele>
        <time>2018-06-12T10:56:00Z</time>
      </trkpt>
      <trkpt lat="42.326995" lon="0.986640">
        <ele>1090.8</ele>
        <time>2018-06-12T10:56:03Z</time>
      </trkpt>
      <trkpt lat="42.326984" lon="0.986461">
        <ele>1092.1</ele>
        <time>2018-06-12T10:56:07Z</time>
      </trkpt>
      <trkpt lat="42.327033" lon="0.986213">
        <ele>1093.5</ele>
        <time>2018-06-12T10:56:12Z</time>
      </trkpt>
      <trkpt lat="42.327058" lon="0.986081">
        <ele>1094.4</ele>
        <time>2018-06-12T10:56:14Z</time>
      </trkpt>
      <trkpt lat="42.327120" lon="0.985850">
        <ele>1097.1</ele>
        <time>2018-06-12T10:56:19Z</time>
      </trkpt>
      <trkpt lat="42.327206" lon="0.985539">
        <ele>1098.5</ele>
        <time>2018-06-12T10:56:26Z</time>
      </trkpt>
      <trkpt lat="42.327255" lon="0.985343">
        <ele>1096.7</ele>
        <time>2018-06-12T10:56:30Z</time>
      </trkpt>
      <trkpt lat="42.327287" lon="0.985207">
        <ele>1094.8</ele>
        <time>2018-06-12T10:56:32Z</time>
      </trkpt>
      <trkpt lat="42.327308" lon="0.985054">
        <ele>1093.5</ele>
        <time>2018-06-12T10:56:35Z</time>
      </trkpt>
      <trkpt lat="42.327339" lon="0.984935">
        <ele>1092.5</ele>
        <time>2018-06-12T10:56:38Z</time>
      </trkpt>
      <trkpt lat="42.327394" lon="0.984821">
        <ele>1090.8</ele>
        <time>2018-06-12T10:56:41Z</time>
      </trkpt>
      <trkpt lat="42.327450" lon="0.984683">
        <ele>1088.7</ele>
        <time>2018-06-12T10:56:44Z</time>
      </trkpt>
      <trkpt lat="42.327522" lon="0.984504">
        <ele>1087.5</ele>
        <time>2018-06-12T10:56:48Z</time>
      </trkpt>
      <trkpt lat="42.327578" lon="0.984276">
        <ele>1088.1</ele>
        <time>2018-06-12T10:56:52Z</time>
      </trkpt>
      <trkpt lat="42.327599" lon="0.984109">
        <ele>1088.7</ele>
        <time>2018-06-12T10:56:56Z</time>
      </trkpt>
      <trkpt lat="42.327604" lon="0.983961">
        <ele>1089.4</ele>
        <time>2018-06-12T10:56:59Z</time>
      </trkpt>
      <trkpt lat="42.327589" lon="0.983847">
        <ele>1090.0</ele>
        <time>2018-06-12T10:57:01Z</time>
      </trkpt>
      <trkpt lat="42.327570" lon="0.983814">
        <ele>1090.0</ele>
        <time>2018-06-12T10:57:02Z</time>
      </trkpt>
      <trkpt lat="42.327535" lon="0.983807">
        <ele>1089.7</ele>
        <time>2018-06-12T10:57:03Z</time>
      </trkpt>
      <trkpt lat="42.327466" lon="0.983801">
        <ele>1089.1</ele>
        <time>2018-06-12T10:57:04Z</time>
      </trkpt>
      <trkpt lat="42.327402" lon="0.983830">
        <ele>1088.6</ele>
        <time>2018-06-12T10:57:06Z</time>
      </trkpt>
      <trkpt lat="42.327203" lon="0.983935">
        <ele>1090.2</ele>
        <time>2018-06-12T10:57:12Z</time>
      </trkpt>
      <trkpt lat="42.327043" lon="0.983996">
        <ele>1092.2</ele>
        <time>2018-06-12T10:57:16Z</time>
      </trkpt>
      <trkpt lat="42.326950" lon="0.984011">
        <ele>1093.0</ele>
        <time>2018-06-12T10:57:19Z</time>
      </trkpt>
      <trkpt lat="42.326901" lon="0.984006">
        <ele>1093.5</ele>
        <time>2018-06-12T10:57:20Z</time>
      </trkpt>
      <trkpt lat="42.326853" lon="0.983980">
        <ele>1094.2</ele>
        <time>2018-06-12T10:57:21Z</time>
      </trkpt>
      <trkpt lat="42.326810" lon="0.983930">
        <ele>1095.3</ele>
        <time>2018-06-12T10:57:23Z</time>
      </trkpt>
      <trkpt lat="42.326767" lon="0.983848">
        <ele>1097.8</ele>
        <time>2018-06-12T10:57:25Z</time>
      </trkpt>
      <trkpt lat="42.326743" lon="0.983664">
        <ele>1101.3</ele>
        <time>2018-06-12T10:57:29Z</time>
      </trkpt>
      <trkpt lat="42.326713" lon="0.983550">
        <ele>1104.1</ele>
        <time>2018-06-12T10:57:31Z</time>
      </trkpt>
      <trkpt lat="42.326670" lon="0.983453">
        <ele>1107.2</ele>
        <time>2018-06-12T10:57:33Z</time>
      </trkpt>
      <trkpt lat="42.326623" lon="0.983391">
        <ele>1109.8</ele>
        <time>2018-06-12T10:57:35Z</time>
      </trkpt>
      <trkpt lat="42.326580" lon="0.983294">
        <ele>1112.8</ele>
        <time>2018-06-12T10:57:38Z</time>
      </trkpt>
      <trkpt lat="42.326552" lon="0.983170">
        <ele>1115.1</ele>
        <time>2018-06-12T10:57:40Z</time>
      </trkpt>
      <trkpt lat="42.326499" lon="0.982980">
        <ele>1115.1</ele>
        <time>2018-06-12T10:57:44Z</time>
      </trkpt>
      <trkpt lat="42.326428" lon="0.982798">
        <ele>1114.2</ele>
        <time>2018-06-12T10:57:48Z</time>
      </trkpt>
      <trkpt lat="42.326395" lon="0.982734">
        <ele>1114.1</ele>
        <time>2018-06-12T10:57:50Z</time>
      </trkpt>
      <trkpt lat="42.326344" lon="0.982656">
        <ele>1114.3</ele>
        <time>2018-06-12T10:57:52Z</time>
      </trkpt>
      <trkpt lat="42.326296" lon="0.982605">
        <ele>1114.5</ele>
        <time>2018-06-12T10:57:53Z</time>
      </trkpt>
      <trkpt lat="42.326240" lon="0.982567">
        <ele>1114.7</ele>
        <time>2018-06-12T10:57:55Z</time>
      </trkpt>
      <trkpt lat="42.326069" lon="0.982478">
        <ele>1114.4</ele>
        <time>2018-06-12T10:58:00Z</time>
      </trkpt>
      <trkpt lat="42.325810" lon="0.982362">
        <ele>1114.6</ele>
        <time>2018-06-12T10:58:07Z</time>
      </trkpt>
      <trkpt lat="42.325422" lon="0.982201">
        <ele>1114.3</ele>
        <time>2018-06-12T10:58:18Z</time>
      </trkpt>
      <trkpt lat="42.325181" lon="0.982095">
        <ele>1111.4</ele>
        <time>2018-06-12T10:58:24Z</time>
      </trkpt>
      <trkpt lat="42.325126" lon="0.982078">
        <ele>1111.0</ele>
        <time>2018-06-12T10:58:26Z</time>
      </trkpt>
      <trkpt lat="42.325069" lon="0.982073">
        <ele>1111.2</ele>
        <time>2018-06-12T10:58:27Z</time>
      </trkpt>
      <trkpt lat="42.324985" lon="0.982081">
        <ele>1111.5</ele>
        <time>2018-06-12T10:58:30Z</time>
      </trkpt>
      <trkpt lat="42.324922" lon="0.982084">
        <ele>1111.8</ele>
        <time>2018-06-12T10:58:31Z</time>
      </trkpt>
      <trkpt lat="42.324890" lon="0.982079">
        <ele>1111.9</ele>
        <time>2018-06-12T10:58:32Z</time>
      </trkpt>
      <trkpt lat="42.324863" lon="0.982047">
        <ele>1111.9</ele>
        <time>2018-06-12T10:58:33Z</time>
      </trkpt>
      <trkpt lat="42.324850" lon="0.981989">
        <ele>1111.6</ele>
        <time>2018-06-12T10:58:34Z</time>
      </trkpt>
      <trkpt lat="42.324851" lon="0.981940">
        <ele>1111.4</ele>
        <time>2018-06-12T10:58:35Z</time>
      </trkpt>
      <trkpt lat="42.324870" lon="0.981823">
        <ele>1111.1</ele>
        <time>2018-06-12T10:58:37Z</time>
      </trkpt>
      <trkpt lat="42.324894" lon="0.981715">
        <ele>1110.8</ele>
        <time>2018-06-12T10:58:40Z</time>
      </trkpt>
      <trkpt lat="42.324981" lon="0.981246">
        <ele>1111.9</ele>
        <time>2018-06-12T10:58:49Z</time>
      </trkpt>
      <trkpt lat="42.325002" lon="0.981101">
        <ele>1112.3</ele>
        <time>2018-06-12T10:58:52Z</time>
      </trkpt>
      <trkpt lat="42.325002" lon="0.981003">
        <ele>1112.5</ele>
        <time>2018-06-12T10:58:54Z</time>
      </trkpt>
      <trkpt lat="42.324995" lon="0.980934">
        <ele>1112.3</ele>
        <time>2018-06-12T10:58:55Z</time>
      </trkpt>
      <trkpt lat="42.324976" lon="0.980875">
        <ele>1112.1</ele>
        <time>2018-06-12T10:58:56Z</time>
      </trkpt>
      <trkpt lat="42.324952" lon="0.980816">
        <ele>1111.8</ele>
        <time>2018-06-12T10:58:58Z</time>
      </trkpt>
      <trkpt lat="42.324912" lon="0.980762">
        <ele>1111.4</ele>
        <time>2018-06-12T10:58:59Z</time>
      </trkpt>
      <trkpt lat="42.324802" lon="0.980646">
        <ele>1110.8</ele>
        <time>2018-06-12T10:59:03Z</time>
      </trkpt>
      <trkpt lat="42.324752" lon="0.980569">
        <ele>1110.3</ele>
        <time>2018-06-12T10:59:05Z</time>
      </trkpt>
      <trkpt lat="42.324707" lon="0.980497">
        <ele>1109.7</ele>
        <time>2018-06-12T10:59:07Z</time>
      </trkpt>
      <trkpt lat="42.324676" lon="0.980418">
        <ele>1109.0</ele>
        <time>2018-06-12T10:59:09Z</time>
      </trkpt>
      <trkpt lat="42.324627" lon="0.980182">
        <ele>1108.3</ele>
        <time>2018-06-12T10:59:13Z</time>
      </trkpt>
      <trkpt lat="42.324592" lon="0.979990">
        <ele>1108.0</ele>
        <time>2018-06-12T10:59:17Z</time>
      </trkpt>
      <trkpt lat="42.324510" lon="0.979672">
        <ele>1105.3</ele>
        <time>2018-06-12T10:59:24Z</time>
      </trkpt>
      <trkpt lat="42.324450" lon="0.979404">
        <ele>1101.9</ele>
        <time>2018-06-12T10:59:29Z</time>
      </trkpt>
      <trkpt lat="42.324417" lon="0.979109">
        <ele>1097.5</ele>
        <time>2018-06-12T10:59:35Z</time>
      </trkpt>
      <trkpt lat="42.324388" lon="0.978910">
        <ele>1095.7</ele>
        <time>2018-06-12T10:59:39Z</time>
      </trkpt>
      <trkpt lat="42.324364" lon="0.978797">
        <ele>1095.4</ele>
        <time>2018-06-12T10:59:41Z</time>
      </trkpt>
      <trkpt lat="42.324328" lon="0.978716">
        <ele>1095.3</ele>
        <time>2018-06-12T10:59:43Z</time>
      </trkpt>
      <trkpt lat="42.324299" lon="0.978675">
        <ele>1095.7</ele>
        <time>2018-06-12T10:59:44Z</time>
      </trkpt>
      <trkpt lat="42.324264" lon="0.978637">
        <ele>1096.8</ele>
        <time>2018-06-12T10:59:46Z</time>
      </trkpt>
      <trkpt lat="42.324240" lon="0.978596">
        <ele>1097.8</ele>
        <time>2018-06-12T10:59:47Z</time>
      </trkpt>
      <trkpt lat="42.324226" lon="0.978529">
        <ele>1098.8</ele>
        <time>2018-06-12T10:59:48Z</time>
      </trkpt>
      <trkpt lat="42.324226" lon="0.978480">
        <ele>1099.2</ele>
        <time>2018-06-12T10:59:49Z</time>
      </trkpt>
      <trkpt lat="42.324221" lon="0.978412">
        <ele>1099.6</ele>
        <time>2018-06-12T10:59:50Z</time>
      </trkpt>
      <trkpt lat="42.324199" lon="0.978346">
        <ele>1100.3</ele>
        <time>2018-06-12T10:59:52Z</time>
      </trkpt>
      <trkpt lat="42.324172" lon="0.978259">
        <ele>1101.2</ele>
        <time>2018-06-12T10:59:54Z</time>
      </trkpt>
      <trkpt lat="42.324151" lon="0.978176">
        <ele>1101.9</ele>
        <time>2018-06-12T10:59:55Z</time>
      </trkpt>
      <trkpt lat="42.324126" lon="0.978096">
        <ele>1102.6</ele>
        <time>2018-06-12T10:59:57Z</time>
      </trkpt>
      <trkpt lat="42.324117" lon="0.978008">
        <ele>1103.0</ele>
        <time>2018-06-12T10:59:59Z</time>
      </trkpt>
      <trkpt lat="42.324103" lon="0.977896">
        <ele>1103.2</ele>
        <time>2018-06-12T11:00:01Z</time>
      </trkpt>
      <trkpt lat="42.324094" lon="0.977804">
        <ele>1103.0</ele>
        <time>2018-06-12T11:00:03Z</time>
      </trkpt>
      <trkpt lat="42.324068" lon="0.977652">
        <ele>1102.5</ele>
        <time>2018-06-12T11:00:06Z</time>
      </trkpt>
      <trkpt lat="42.324033" lon="0.977514">
        <ele>1102.0</ele>
        <time>2018-06-12T11:00:09Z</time>
      </trkpt>
      <trkpt lat="42.323972" lon="0.977382">
        <ele>1102.1</ele>
        <time>2018-06-12T11:00:12Z</time>
      </trkpt>
      <trkpt lat="42.323841" lon="0.977073">
        <ele>1103.7</ele>
        <time>2018-06-12T11:00:19Z</time>
      </trkpt>
      <trkpt lat="42.323781" lon="0.976889">
        <ele>1105.2</ele>
        <time>2018-06-12T11:00:23Z</time>
      </trkpt>
      <trkpt lat="42.323745" lon="0.976780">
        <ele>1106.4</ele>
        <time>2018-06-12T11:00:25Z</time>
      </trkpt>
      <trkpt lat="42.323731" lon="0.976697">
        <ele>1107.4</ele>
        <time>2018-06-12T11:00:27Z</time>
      </trkpt>
      <trkpt lat="42.323726" lon="0.976599">
        <ele>1108.1</ele>
        <time>2018-06-12T11:00:28Z</time>
      </trkpt>
      <trkpt lat="42.323733" lon="0.976504">
        <ele>1108.2</ele>
        <time>2018-06-12T11:00:30Z</time>
      </trkpt>
      <trkpt lat="42.323770" lon="0.976411">
        <ele>1107.2</ele>
        <time>2018-06-12T11:00:32Z</time>
      </trkpt>
      <trkpt lat="42.323812" lon="0.976335">
        <ele>1106.5</ele>
        <time>2018-06-12T11:00:34Z</time>
      </trkpt>
      <trkpt lat="42.323865" lon="0.976300">
        <ele>1105.9</ele>
        <time>2018-06-12T11:00:36Z</time>
      </trkpt>
      <trkpt lat="42.323931" lon="0.976283">
        <ele>1105.4</ele>
        <time>2018-06-12T11:00:38Z</time>
      </trkpt>
      <trkpt lat="42.323990" lon="0.976263">
        <ele>1105.1</ele>
        <time>2018-06-12T11:00:39Z</time>
      </trkpt>
      <trkpt lat="42.324029" lon="0.976240">
        <ele>1105.0</ele>
        <time>2018-06-12T11:00:40Z</time>
      </trkpt>
      <trkpt lat="42.324088" lon="0.976191">
        <ele>1103.3</ele>
        <time>2018-06-12T11:00:42Z</time>
      </trkpt>
      <trkpt lat="42.324127" lon="0.976124">
        <ele>1102.3</ele>
        <time>2018-06-12T11:00:44Z</time>
      </trkpt>
      <trkpt lat="42.324167" lon="0.976059">
        <ele>1101.3</ele>
        <time>2018-06-12T11:00:46Z</time>
      </trkpt>
      <trkpt lat="42.324197" lon="0.975971">
        <ele>1100.7</ele>
        <time>2018-06-12T11:00:47Z</time>
      </trkpt>
      <trkpt lat="42.324241" lon="0.975809">
        <ele>1100.5</ele>
        <time>2018-06-12T11:00:51Z</time>
      </trkpt>
      <trkpt lat="42.324267" lon="0.975666">
        <ele>1100.5</ele>
        <time>2018-06-12T11:00:54Z</time>
      </trkpt>
      <trkpt lat="42.324291" lon="0.975580">
        <ele>1100.4</ele>
        <time>2018-06-12T11:00:55Z</time>
      </trkpt>
      <trkpt lat="42.324323" lon="0.975546">
        <ele>1099.1</ele>
        <time>2018-06-12T11:00:57Z</time>
      </trkpt>
      <trkpt lat="42.324370" lon="0.975527">
        <ele>1096.5</ele>
        <time>2018-06-12T11:00:58Z</time>
      </trkpt>
      <trkpt lat="42.324405" lon="0.975552">
        <ele>1094.5</ele>
        <time>2018-06-12T11:00:59Z</time>
      </trkpt>
      <trkpt lat="42.324424" lon="0.975583">
        <ele>1093.2</ele>
        <time>2018-06-12T11:01:00Z</time>
      </trkpt>
      <trkpt lat="42.324424" lon="0.975643">
        <ele>1092.9</ele>
        <time>2018-06-12T11:01:01Z</time>
      </trkpt>
      <trkpt lat="42.324428" lon="0.975701">
        <ele>1092.4</ele>
        <time>2018-06-12T11:01:02Z</time>
      </trkpt>
      <trkpt lat="42.324420" lon="0.975815">
        <ele>1092.5</ele>
        <time>2018-06-12T11:01:05Z</time>
      </trkpt>
      <trkpt lat="42.324424" lon="0.975912">
        <ele>1092.2</ele>
        <time>2018-06-12T11:01:06Z</time>
      </trkpt>
      <trkpt lat="42.324435" lon="0.975971">
        <ele>1091.5</ele>
        <time>2018-06-12T11:01:08Z</time>
      </trkpt>
      <trkpt lat="42.324455" lon="0.975992">
        <ele>1090.6</ele>
        <time>2018-06-12T11:01:08Z</time>
      </trkpt>
      <trkpt lat="42.324494" lon="0.975996">
        <ele>1088.7</ele>
        <time>2018-06-12T11:01:09Z</time>
      </trkpt>
      <trkpt lat="42.324538" lon="0.975978">
        <ele>1086.3</ele>
        <time>2018-06-12T11:01:11Z</time>
      </trkpt>
      <trkpt lat="42.324578" lon="0.975950">
        <ele>1084.3</ele>
        <time>2018-06-12T11:01:12Z</time>
      </trkpt>
      <trkpt lat="42.324686" lon="0.975823">
        <ele>1083.6</ele>
        <time>2018-06-12T11:01:16Z</time>
      </trkpt>
      <trkpt lat="42.324783" lon="0.975698">
        <ele>1083.3</ele>
        <time>2018-06-12T11:01:19Z</time>
      </trkpt>
      <trkpt lat="42.324840" lon="0.975613">
        <ele>1083.1</ele>
        <time>2018-06-12T11:01:22Z</time>
      </trkpt>
      <trkpt lat="42.324882" lon="0.975517">
        <ele>1083.1</ele>
        <time>2018-06-12T11:01:24Z</time>
      </trkpt>
      <trkpt lat="42.324907" lon="0.975370">
        <ele>1083.6</ele>
        <time>2018-06-12T11:01:27Z</time>
      </trkpt>
      <trkpt lat="42.324931" lon="0.975127">
        <ele>1084.6</ele>
        <time>2018-06-12T11:01:31Z</time>
      </trkpt>
      <trkpt lat="42.324975" lon="0.974660">
        <ele>1084.7</ele>
        <time>2018-06-12T11:01:41Z</time>
      </trkpt>
      <trkpt lat="42.324992" lon="0.974332">
        <ele>1084.8</ele>
        <time>2018-06-12T11:01:47Z</time>
      </trkpt>
      <trkpt lat="42.325034" lon="0.974023">
        <ele>1084.5</ele>
        <time>2018-06-12T11:01:53Z</time>
      </trkpt>
      <trkpt lat="42.325085" lon="0.973548">
        <ele>1083.6</ele>
        <time>2018-06-12T11:02:03Z</time>
      </trkpt>
      <trkpt lat="42.325180" lon="0.973017">
        <ele>1082.1</ele>
        <time>2018-06-12T11:02:13Z</time>
      </trkpt>
      <trkpt lat="42.325178" lon="0.972656">
        <ele>1080.8</ele>
        <time>2018-06-12T11:02:20Z</time>
      </trkpt>
      <trkpt lat="42.325262" lon="0.972039">
        <ele>1076.5</ele>
        <time>2018-06-12T11:02:32Z</time>
      </trkpt>
      <trkpt lat="42.325388" lon="0.971536">
        <ele>1077.4</ele>
        <time>2018-06-12T11:02:43Z</time>
      </trkpt>
      <trkpt lat="42.325430" lon="0.971154">
        <ele>1077.6</ele>
        <time>2018-06-12T11:02:50Z</time>
      </trkpt>
      <trkpt lat="42.325473" lon="0.970829">
        <ele>1076.9</ele>
        <time>2018-06-12T11:02:57Z</time>
      </trkpt>
      <trkpt lat="42.325578" lon="0.970498">
        <ele>1076.0</ele>
        <time>2018-06-12T11:03:04Z</time>
      </trkpt>
      <trkpt lat="42.325630" lon="0.970238">
        <ele>1074.6</ele>
        <time>2018-06-12T11:03:09Z</time>
      </trkpt>
      <trkpt lat="42.325639" lon="0.969991">
        <ele>1071.4</ele>
        <time>2018-06-12T11:03:14Z</time>
      </trkpt>
      <trkpt lat="42.325710" lon="0.969447">
        <ele>1069.5</ele>
        <time>2018-06-12T11:03:25Z</time>
      </trkpt>
      <trkpt lat="42.325740" lon="0.969078">
        <ele>1068.2</ele>
        <time>2018-06-12T11:03:32Z</time>
      </trkpt>
      <trkpt lat="42.325780" lon="0.968519">
        <ele>1066.1</ele>
        <time>2018-06-12T11:03:43Z</time>
      </trkpt>
      <trkpt lat="42.325789" lon="0.968081">
        <ele>1065.7</ele>
        <time>2018-06-12T11:03:51Z</time>
      </trkpt>
      <trkpt lat="42.325788" lon="0.967759">
        <ele>1065.3</ele>
        <time>2018-06-12T11:03:58Z</time>
      </trkpt>
      <trkpt lat="42.325754" lon="0.967466">
        <ele>1063.4</ele>
        <time>2018-06-12T11:04:03Z</time>
      </trkpt>
      <trkpt lat="42.325688" lon="0.967215">
        <ele>1060.3</ele>
        <time>2018-06-12T11:04:09Z</time>
      </trkpt>
      <trkpt lat="42.325676" lon="0.966934">
        <ele>1057.7</ele>
        <time>2018-06-12T11:04:14Z</time>
      </trkpt>
      <trkpt lat="42.325663" lon="0.966594">
        <ele>1056.2</ele>
        <time>2018-06-12T11:04:21Z</time>
      </trkpt>
      <trkpt lat="42.325694" lon="0.966298">
        <ele>1054.3</ele>
        <time>2018-06-12T11:04:27Z</time>
      </trkpt>
      <trkpt lat="42.325725" lon="0.966000">
        <ele>1053.2</ele>
        <time>2018-06-12T11:04:33Z</time>
      </trkpt>
      <trkpt lat="42.325757" lon="0.965703">
        <ele>1050.8</ele>
        <time>2018-06-12T11:04:38Z</time>
      </trkpt>
      <trkpt lat="42.325842" lon="0.965388">
        <ele>1045.6</ele>
        <time>2018-06-12T11:04:45Z</time>
      </trkpt>
      <trkpt lat="42.325938" lon="0.965072">
        <ele>1043.6</ele>
        <time>2018-06-12T11:04:52Z</time>
      </trkpt>
      <trkpt lat="42.325985" lon="0.964953">
        <ele>1044.1</ele>
        <time>2018-06-12T11:04:54Z</time>
      </trkpt>
      <trkpt lat="42.326103" lon="0.964808">
        <ele>1044.2</ele>
        <time>2018-06-12T11:04:59Z</time>
      </trkpt>
      <trkpt lat="42.326162" lon="0.964766">
        <ele>1044.1</ele>
        <time>2018-06-12T11:05:00Z</time>
      </trkpt>
      <trkpt lat="42.326200" lon="0.964719">
        <ele>1043.9</ele>
        <time>2018-06-12T11:05:02Z</time>
      </trkpt>
      <trkpt lat="42.326215" lon="0.964660">
        <ele>1043.5</ele>
        <time>2018-06-12T11:05:03Z</time>
      </trkpt>
      <trkpt lat="42.326212" lon="0.964570">
        <ele>1042.8</ele>
        <time>2018-06-12T11:05:05Z</time>
      </trkpt>
      <trkpt lat="42.326202" lon="0.964490">
        <ele>1041.7</ele>
        <time>2018-06-12T11:05:06Z</time>
      </trkpt>
      <trkpt lat="42.326188" lon="0.964363">
        <ele>1040.0</ele>
        <time>2018-06-12T11:05:09Z</time>
      </trkpt>
      <trkpt lat="42.326160" lon="0.964283">
        <ele>1039.1</ele>
        <time>2018-06-12T11:05:11Z</time>
      </trkpt>
      <trkpt lat="42.326145" lon="0.964153">
        <ele>1037.9</ele>
        <time>2018-06-12T11:05:13Z</time>
      </trkpt>
      <trkpt lat="42.326152" lon="0.964116">
        <ele>1037.5</ele>
        <time>2018-06-12T11:05:14Z</time>
      </trkpt>
      <trkpt lat="42.326159" lon="0.964077">
        <ele>1037.1</ele>
        <time>2018-06-12T11:05:15Z</time>
      </trkpt>
      <trkpt lat="42.326159" lon="0.964015">
        <ele>1036.6</ele>
        <time>2018-06-12T11:05:16Z</time>
      </trkpt>
      <trkpt lat="42.326155" lon="0.963945">
        <ele>1036.3</ele>
        <time>2018-06-12T11:05:17Z</time>
      </trkpt>
      <trkpt lat="42.326150" lon="0.963885">
        <ele>1035.9</ele>
        <time>2018-06-12T11:05:18Z</time>
      </trkpt>
      <trkpt lat="42.326137" lon="0.963836">
        <ele>1035.6</ele>
        <time>2018-06-12T11:05:19Z</time>
      </trkpt>
      <trkpt lat="42.326081" lon="0.963731">
        <ele>1034.7</ele>
        <time>2018-06-12T11:05:22Z</time>
      </trkpt>
      <trkpt lat="42.326020" lon="0.963630">
        <ele>1034.2</ele>
        <time>2018-06-12T11:05:24Z</time>
      </trkpt>
      <trkpt lat="42.325974" lon="0.963559">
        <ele>1034.0</ele>
        <time>2018-06-12T11:05:26Z</time>
      </trkpt>
      <trkpt lat="42.325894" lon="0.963446">
        <ele>1034.1</ele>
        <time>2018-06-12T11:05:29Z</time>
      </trkpt>
      <trkpt lat="42.325825" lon="0.963316">
        <ele>1034.6</ele>
        <time>2018-06-12T11:05:32Z</time>
      </trkpt>
      <trkpt lat="42.325761" lon="0.963199">
        <ele>1035.5</ele>
        <time>2018-06-12T11:05:35Z</time>
      </trkpt>
      <trkpt lat="42.325734" lon="0.963132">
        <ele>1035.7</ele>
        <time>2018-06-12T11:05:37Z</time>
      </trkpt>
      <trkpt lat="42.325684" lon="0.963010">
        <ele>1036.0</ele>
        <time>2018-06-12T11:05:40Z</time>
      </trkpt>
      <trkpt lat="42.325609" lon="0.962853">
        <ele>1035.1</ele>
        <time>2018-06-12T11:05:43Z</time>
      </trkpt>
      <trkpt lat="42.325505" lon="0.962636">
        <ele>1033.0</ele>
        <time>2018-06-12T11:05:48Z</time>
      </trkpt>
      <trkpt lat="42.325396" lon="0.962464">
        <ele>1030.6</ele>
        <time>2018-06-12T11:05:53Z</time>
      </trkpt>
      <trkpt lat="42.325273" lon="0.962315">
        <ele>1029.3</ele>
        <time>2018-06-12T11:05:57Z</time>
      </trkpt>
      <trkpt lat="42.325208" lon="0.962176">
        <ele>1027.7</ele>
        <time>2018-06-12T11:06:00Z</time>
      </trkpt>
      <trkpt lat="42.325099" lon="0.961924">
        <ele>1028.7</ele>
        <time>2018-06-12T11:06:06Z</time>
      </trkpt>
      <trkpt lat="42.324949" lon="0.961484">
        <ele>1036.1</ele>
        <time>2018-06-12T11:06:16Z</time>
      </trkpt>
      <trkpt lat="42.324850" lon="0.961132">
        <ele>1040.5</ele>
        <time>2018-06-12T11:06:23Z</time>
      </trkpt>
      <trkpt lat="42.324761" lon="0.960746">
        <ele>1040.2</ele>
        <time>2018-06-12T11:06:31Z</time>
      </trkpt>
      <trkpt lat="42.324722" lon="0.960481">
        <ele>1039.8</ele>
        <time>2018-06-12T11:06:36Z</time>
      </trkpt>
      <trkpt lat="42.324690" lon="0.960152">
        <ele>1039.2</ele>
        <time>2018-06-12T11:06:43Z</time>
      </trkpt>
      <trkpt lat="42.324671" lon="0.959873">
        <ele>1038.8</ele>
        <time>2018-06-12T11:06:48Z</time>
      </trkpt>
      <trkpt lat="42.324665" lon="0.959472">
        <ele>1038.2</ele>
        <time>2018-06-12T11:06:56Z</time>
      </trkpt>
      <trkpt lat="42.324690" lon="0.959083">
        <ele>1034.1</ele>
        <time>2018-06-12T11:07:03Z</time>
      </trkpt>
      <trkpt lat="42.324709" lon="0.959036">
        <ele>1032.7</ele>
        <time>2018-06-12T11:07:05Z</time>
      </trkpt>
      <trkpt lat="42.324741" lon="0.959012">
        <ele>1031.0</ele>
        <time>2018-06-12T11:07:06Z</time>
      </trkpt>
      <trkpt lat="42.324765" lon="0.959007">
        <ele>1029.8</ele>
        <time>2018-06-12T11:07:06Z</time>
      </trkpt>
      <trkpt lat="42.324801" lon="0.959059">
        <ele>1029.2</ele>
        <time>2018-06-12T11:07:08Z</time>
      </trkpt>
      <trkpt lat="42.324837" lon="0.959151">
        <ele>1029.5</ele>
        <time>2018-06-12T11:07:10Z</time>
      </trkpt>
      <trkpt lat="42.324857" lon="0.959239">
        <ele>1030.7</ele>
        <time>2018-06-12T11:07:12Z</time>
      </trkpt>
      <trkpt lat="42.324879" lon="0.959374">
        <ele>1031.6</ele>
        <time>2018-06-12T11:07:14Z</time>
      </trkpt>
      <trkpt lat="42.324890" lon="0.959447">
        <ele>1031.6</ele>
        <time>2018-06-12T11:07:16Z</time>
      </trkpt>
      <trkpt lat="42.324908" lon="0.959487">
        <ele>1030.9</ele>
        <time>2018-06-12T11:07:17Z</time>
      </trkpt>
      <trkpt lat="42.324941" lon="0.959501">
        <ele>1028.8</ele>
        <time>2018-06-12T11:07:18Z</time>
      </trkpt>
      <trkpt lat="42.324969" lon="0.959470">
        <ele>1026.7</ele>
        <time>2018-06-12T11:07:19Z</time>
      </trkpt>
      <trkpt lat="42.325032" lon="0.959272">
        <ele>1020.9</ele>
        <time>2018-06-12T11:07:23Z</time>
      </trkpt>
      <trkpt lat="42.325120" lon="0.959031">
        <ele>1012.0</ele>
        <time>2018-06-12T11:07:29Z</time>
      </trkpt>
      <trkpt lat="42.325181" lon="0.958896">
        <ele>1009.8</ele>
        <time>2018-06-12T11:07:32Z</time>
      </trkpt>
      <trkpt lat="42.325213" lon="0.958878">
        <ele>1009.3</ele>
        <time>2018-06-12T11:07:33Z</time>
      </trkpt>
      <trkpt lat="42.325244" lon="0.958902">
        <ele>1008.8</ele>
        <time>2018-06-12T11:07:34Z</time>
      </trkpt>
      <trkpt lat="42.325290" lon="0.959080">
        <ele>1008.6</ele>
        <time>2018-06-12T11:07:37Z</time>
      </trkpt>
      <trkpt lat="42.325349" lon="0.959300">
        <ele>1008.2</ele>
        <time>2018-06-12T11:07:42Z</time>
      </trkpt>
      <trkpt lat="42.325415" lon="0.959464">
        <ele>1007.2</ele>
        <time>2018-06-12T11:07:46Z</time>
      </trkpt>
      <trkpt lat="42.325472" lon="0.959646">
        <ele>1006.9</ele>
        <time>2018-06-12T11:07:50Z</time>
      </trkpt>
      <trkpt lat="42.325510" lon="0.959746">
        <ele>1006.5</ele>
        <time>2018-06-12T11:07:52Z</time>
      </trkpt>
      <trkpt lat="42.325522" lon="0.959787">
        <ele>1006.4</ele>
        <time>2018-06-12T11:07:53Z</time>
      </trkpt>
      <trkpt lat="42.325560" lon="0.959829">
        <ele>1005.6</ele>
        <time>2018-06-12T11:07:54Z</time>
      </trkpt>
      <trkpt lat="42.325599" lon="0.959807">
        <ele>1004.4</ele>
        <time>2018-06-12T11:07:55Z</time>
      </trkpt>
      <trkpt lat="42.325632" lon="0.959736">
        <ele>1002.9</ele>
        <time>2018-06-12T11:07:57Z</time>
      </trkpt>
      <trkpt lat="42.325674" lon="0.959615">
        <ele>1000.8</ele>
        <time>2018-06-12T11:07:59Z</time>
      </trkpt>
      <trkpt lat="42.325708" lon="0.959480">
        <ele>999.1</ele>
        <time>2018-06-12T11:08:02Z</time>
      </trkpt>
      <trkpt lat="42.325711" lon="0.959376">
        <ele>998.5</ele>
        <time>2018-06-12T11:08:04Z</time>
      </trkpt>
      <trkpt lat="42.325706" lon="0.959184">
        <ele>998.0</ele>
        <time>2018-06-12T11:08:08Z</time>
      </trkpt>
      <trkpt lat="42.325697" lon="0.958882">
        <ele>997.3</ele>
        <time>2018-06-12T11:08:14Z</time>
      </trkpt>
      <trkpt lat="42.325724" lon="0.958559">
        <ele>995.3</ele>
        <time>2018-06-12T11:08:20Z</time>
      </trkpt>
      <trkpt lat="42.325755" lon="0.958462">
        <ele>993.3</ele>
        <time>2018-06-12T11:08:22Z</time>
      </trkpt>
      <trkpt lat="42.325857" lon="0.958278">
        <ele>987.4</ele>
        <time>2018-06-12T11:08:27Z</time>
      </trkpt>
      <trkpt lat="42.325910" lon="0.958227">
        <ele>984.5</ele>
        <time>2018-06-12T11:08:29Z</time>
      </trkpt>
      <trkpt lat="42.325949" lon="0.958153">
        <ele>982.3</ele>
        <time>2018-06-12T11:08:31Z</time>
      </trkpt>
      <trkpt lat="42.325976" lon="0.958107">
        <ele>980.8</ele>
        <time>2018-06-12T11:08:32Z</time>
      </trkpt>
      <trkpt lat="42.325977" lon="0.958071">
        <ele>980.8</ele>
        <time>2018-06-12T11:08:33Z</time>
      </trkpt>
      <trkpt lat="42.325970" lon="0.958027">
        <ele>981.1</ele>
        <time>2018-06-12T11:08:33Z</time>
      </trkpt>
      <trkpt lat="42.325958" lon="0.957970">
        <ele>981.7</ele>
        <time>2018-06-12T11:08:35Z</time>
      </trkpt>
      <trkpt lat="42.325936" lon="0.957904">
        <ele>982.6</ele>
        <time>2018-06-12T11:08:36Z</time>
      </trkpt>
      <trkpt lat="42.325913" lon="0.957838">
        <ele>982.5</ele>
        <time>2018-06-12T11:08:37Z</time>
      </trkpt>
      <trkpt lat="42.325868" lon="0.957701">
        <ele>982.1</ele>
        <time>2018-06-12T11:08:40Z</time>
      </trkpt>
      <trkpt lat="42.325781" lon="0.957503">
        <ele>980.7</ele>
        <time>2018-06-12T11:08:45Z</time>
      </trkpt>
      <trkpt lat="42.325698" lon="0.957251">
        <ele>977.5</ele>
        <time>2018-06-12T11:08:50Z</time>
      </trkpt>
      <trkpt lat="42.325568" lon="0.956913">
        <ele>973.4</ele>
        <time>2018-06-12T11:08:58Z</time>
      </trkpt>
      <trkpt lat="42.325460" lon="0.956590">
        <ele>969.2</ele>
        <time>2018-06-12T11:09:05Z</time>
      </trkpt>
      <trkpt lat="42.325383" lon="0.956340">
        <ele>966.9</ele>
        <time>2018-06-12T11:09:10Z</time>
      </trkpt>
      <trkpt lat="42.325328" lon="0.956152">
        <ele>965.0</ele>
        <time>2018-06-12T11:09:14Z</time>
      </trkpt>
      <trkpt lat="42.325304" lon="0.956020">
        <ele>963.0</ele>
        <time>2018-06-12T11:09:17Z</time>
      </trkpt>
      <trkpt lat="42.325291" lon="0.955904">
        <ele>961.6</ele>
        <time>2018-06-12T11:09:19Z</time>
      </trkpt>
      <trkpt lat="42.325302" lon="0.955820">
        <ele>960.7</ele>
        <time>2018-06-12T11:09:21Z</time>
      </trkpt>
      <trkpt lat="42.325342" lon="0.955701">
        <ele>959.3</ele>
        <time>2018-06-12T11:09:23Z</time>
      </trkpt>
      <trkpt lat="42.325371" lon="0.955582">
        <ele>958.2</ele>
        <time>2018-06-12T11:09:26Z</time>
      </trkpt>
      <trkpt lat="42.325388" lon="0.955457">
        <ele>957.1</ele>
        <time>2018-06-12T11:09:28Z</time>
      </trkpt>
      <trkpt lat="42.325381" lon="0.955339">
        <ele>955.5</ele>
        <time>2018-06-12T11:09:31Z</time>
      </trkpt>
      <trkpt lat="42.325363" lon="0.955241">
        <ele>953.8</ele>
        <time>2018-06-12T11:09:33Z</time>
      </trkpt>
      <trkpt lat="42.325332" lon="0.955165">
        <ele>952.2</ele>
        <time>2018-06-12T11:09:34Z</time>
      </trkpt>
      <trkpt lat="42.325301" lon="0.955089">
        <ele>950.2</ele>
        <time>2018-06-12T11:09:36Z</time>
      </trkpt>
      <trkpt lat="42.325246" lon="0.955029">
        <ele>948.0</ele>
        <time>2018-06-12T11:09:38Z</time>
      </trkpt>
      <trkpt lat="42.325220" lon="0.954979">
        <ele>946.5</ele>
        <time>2018-06-12T11:09:39Z</time>
      </trkpt>
      <trkpt lat="42.325208" lon="0.954909">
        <ele>944.8</ele>
        <time>2018-06-12T11:09:41Z</time>
      </trkpt>
      <trkpt lat="42.325220" lon="0.954843">
        <ele>943.5</ele>
        <time>2018-06-12T11:09:42Z</time>
      </trkpt>
      <trkpt lat="42.325277" lon="0.954744">
        <ele>942.0</ele>
        <time>2018-06-12T11:09:44Z</time>
      </trkpt>
      <trkpt lat="42.325415" lon="0.954629">
        <ele>939.3</ele>
        <time>2018-06-12T11:09:49Z</time>
      </trkpt>
      <trkpt lat="42.325509" lon="0.954535">
        <ele>939.0</ele>
        <time>2018-06-12T11:09:52Z</time>
      </trkpt>
      <trkpt lat="42.325565" lon="0.954472">
        <ele>938.8</ele>
        <time>2018-06-12T11:09:54Z</time>
      </trkpt>
      <trkpt lat="42.325588" lon="0.954391">
        <ele>937.4</ele>
        <time>2018-06-12T11:09:56Z</time>
      </trkpt>
      <trkpt lat="42.325562" lon="0.954266">
        <ele>934.6</ele>
        <time>2018-06-12T11:09:58Z</time>
      </trkpt>
      <trkpt lat="42.325495" lon="0.954141">
        <ele>932.4</ele>
        <time>2018-06-12T11:10:01Z</time>
      </trkpt>
      <trkpt lat="42.325467" lon="0.954067">
        <ele>931.5</ele>
        <time>2018-06-12T11:10:03Z</time>
      </trkpt>
      <trkpt lat="42.325480" lon="0.953994">
        <ele>931.1</ele>
        <time>2018-06-12T11:10:04Z</time>
      </trkpt>
      <trkpt lat="42.325521" lon="0.953938">
        <ele>930.9</ele>
        <time>2018-06-12T11:10:06Z</time>
      </trkpt>
      <trkpt lat="42.325555" lon="0.953886">
        <ele>930.7</ele>
        <time>2018-06-12T11:10:07Z</time>
      </trkpt>
      <trkpt lat="42.325569" lon="0.953789">
        <ele>930.2</ele>
        <time>2018-06-12T11:10:09Z</time>
      </trkpt>
      <trkpt lat="42.325582" lon="0.953692">
        <ele>929.4</ele>
        <time>2018-06-12T11:10:11Z</time>
      </trkpt>
      <trkpt lat="42.325620" lon="0.953607">
        <ele>928.5</ele>
        <time>2018-06-12T11:10:13Z</time>
      </trkpt>
      <trkpt lat="42.325781" lon="0.953365">
        <ele>926.5</ele>
        <time>2018-06-12T11:10:19Z</time>
      </trkpt>
      <trkpt lat="42.325939" lon="0.952985">
        <ele>924.8</ele>
        <time>2018-06-12T11:10:28Z</time>
      </trkpt>
      <trkpt lat="42.326037" lon="0.952628">
        <ele>926.0</ele>
        <time>2018-06-12T11:10:35Z</time>
      </trkpt>
      <trkpt lat="42.326099" lon="0.952409">
        <ele>926.1</ele>
        <time>2018-06-12T11:10:40Z</time>
      </trkpt>
      <trkpt lat="42.326157" lon="0.952383">
        <ele>925.7</ele>
        <time>2018-06-12T11:10:41Z</time>
      </trkpt>
      <trkpt lat="42.326188" lon="0.952345">
        <ele>925.1</ele>
        <time>2018-06-12T11:10:43Z</time>
      </trkpt>
      <trkpt lat="42.326218" lon="0.952284">
        <ele>923.7</ele>
        <time>2018-06-12T11:10:44Z</time>
      </trkpt>
      <trkpt lat="42.326256" lon="0.952137">
        <ele>920.9</ele>
        <time>2018-06-12T11:10:47Z</time>
      </trkpt>
      <trkpt lat="42.326258" lon="0.951967">
        <ele>917.9</ele>
        <time>2018-06-12T11:10:50Z</time>
      </trkpt>
      <trkpt lat="42.326237" lon="0.951834">
        <ele>915.5</ele>
        <time>2018-06-12T11:10:53Z</time>
      </trkpt>
      <trkpt lat="42.326236" lon="0.951761">
        <ele>914.0</ele>
        <time>2018-06-12T11:10:55Z</time>
      </trkpt>
      <trkpt lat="42.326252" lon="0.951639">
        <ele>911.4</ele>
        <time>2018-06-12T11:10:57Z</time>
      </trkpt>
      <trkpt lat="42.326286" lon="0.951541">
        <ele>909.5</ele>
        <time>2018-06-12T11:10:59Z</time>
      </trkpt>
      <trkpt lat="42.326372" lon="0.951290">
        <ele>904.7</ele>
        <time>2018-06-12T11:11:05Z</time>
      </trkpt>
      <trkpt lat="42.326407" lon="0.951222">
        <ele>903.6</ele>
        <time>2018-06-12T11:11:06Z</time>
      </trkpt>
      <trkpt lat="42.326432" lon="0.951124">
        <ele>901.9</ele>
        <time>2018-06-12T11:11:09Z</time>
      </trkpt>
      <trkpt lat="42.326444" lon="0.951051">
        <ele>900.6</ele>
        <time>2018-06-12T11:11:10Z</time>
      </trkpt>
      <trkpt lat="42.326443" lon="0.951001">
        <ele>899.6</ele>
        <time>2018-06-12T11:11:11Z</time>
      </trkpt>
      <trkpt lat="42.326340" lon="0.950733">
        <ele>896.5</ele>
        <time>2018-06-12T11:11:17Z</time>
      </trkpt>
      <trkpt lat="42.326315" lon="0.950534">
        <ele>894.5</ele>
        <time>2018-06-12T11:11:21Z</time>
      </trkpt>
      <trkpt lat="42.326321" lon="0.950351">
        <ele>892.5</ele>
        <time>2018-06-12T11:11:24Z</time>
      </trkpt>
      <trkpt lat="42.326290" lon="0.950133">
        <ele>889.0</ele>
        <time>2018-06-12T11:11:29Z</time>
      </trkpt>
      <trkpt lat="42.326279" lon="0.950094">
        <ele>888.3</ele>
        <time>2018-06-12T11:11:30Z</time>
      </trkpt>
      <trkpt lat="42.326258" lon="0.949932">
        <ele>885.3</ele>
        <time>2018-06-12T11:11:33Z</time>
      </trkpt>
      <trkpt lat="42.326263" lon="0.949770">
        <ele>883.1</ele>
        <time>2018-06-12T11:11:36Z</time>
      </trkpt>
      <trkpt lat="42.326256" lon="0.949539">
        <ele>880.4</ele>
        <time>2018-06-12T11:11:41Z</time>
      </trkpt>
      <trkpt lat="42.326225" lon="0.949388">
        <ele>877.9</ele>
        <time>2018-06-12T11:11:44Z</time>
      </trkpt>
      <trkpt lat="42.326149" lon="0.949210">
        <ele>874.5</ele>
        <time>2018-06-12T11:11:48Z</time>
      </trkpt>
      <trkpt lat="42.326130" lon="0.949027">
        <ele>871.7</ele>
        <time>2018-06-12T11:11:52Z</time>
      </trkpt>
      <trkpt lat="42.326107" lon="0.948872">
        <ele>868.7</ele>
        <time>2018-06-12T11:11:55Z</time>
      </trkpt>
      <trkpt lat="42.326092" lon="0.948685">
        <ele>864.8</ele>
        <time>2018-06-12T11:11:59Z</time>
      </trkpt>
      <trkpt lat="42.326088" lon="0.948593">
        <ele>862.4</ele>
        <time>2018-06-12T11:12:00Z</time>
      </trkpt>
      <trkpt lat="42.326092" lon="0.948516">
        <ele>860.4</ele>
        <time>2018-06-12T11:12:02Z</time>
      </trkpt>
      <trkpt lat="42.326084" lon="0.948397">
        <ele>857.1</ele>
        <time>2018-06-12T11:12:04Z</time>
      </trkpt>
      <trkpt lat="42.326069" lon="0.948214">
        <ele>851.6</ele>
        <time>2018-06-12T11:12:08Z</time>
      </trkpt>
      <trkpt lat="42.326069" lon="0.948182">
        <ele>850.8</ele>
        <time>2018-06-12T11:12:09Z</time>
      </trkpt>
      <trkpt lat="42.326073" lon="0.948119">
        <ele>849.3</ele>
        <time>2018-06-12T11:12:10Z</time>
      </trkpt>
      <trkpt lat="42.326077" lon="0.948107">
        <ele>849.1</ele>
        <time>2018-06-12T11:12:10Z</time>
      </trkpt>
      <trkpt lat="42.326107" lon="0.948009">
        <ele>847.3</ele>
        <time>2018-06-12T11:12:13Z</time>
      </trkpt>
      <trkpt lat="42.326099" lon="0.947792">
        <ele>843.3</ele>
        <time>2018-06-12T11:12:17Z</time>
      </trkpt>
      <trkpt lat="42.326069" lon="0.947722">
        <ele>842.3</ele>
        <time>2018-06-12T11:12:18Z</time>
      </trkpt>
      <trkpt lat="42.326036" lon="0.947688">
        <ele>841.7</ele>
        <time>2018-06-12T11:12:20Z</time>
      </trkpt>
      <trkpt lat="42.325900" lon="0.947580">
        <ele>838.3</ele>
        <time>2018-06-12T11:12:24Z</time>
      </trkpt>
      <trkpt lat="42.325870" lon="0.947505">
        <ele>836.6</ele>
        <time>2018-06-12T11:12:26Z</time>
      </trkpt>
      <trkpt lat="42.325845" lon="0.947403">
        <ele>834.8</ele>
        <time>2018-06-12T11:12:28Z</time>
      </trkpt>
      <trkpt lat="42.325870" lon="0.947328">
        <ele>834.7</ele>
        <time>2018-06-12T11:12:29Z</time>
      </trkpt>
      <trkpt lat="42.325905" lon="0.947277">
        <ele>835.1</ele>
        <time>2018-06-12T11:12:31Z</time>
      </trkpt>
      <trkpt lat="42.325956" lon="0.947245">
        <ele>836.3</ele>
        <time>2018-06-12T11:12:32Z</time>
      </trkpt>
      <trkpt lat="42.326002" lon="0.947147">
        <ele>835.8</ele>
        <time>2018-06-12T11:12:34Z</time>
      </trkpt>
      <trkpt lat="42.326002" lon="0.947072">
        <ele>834.9</ele>
        <time>2018-06-12T11:12:36Z</time>
      </trkpt>
      <trkpt lat="42.325957" lon="0.947093">
        <ele>834.7</ele>
        <time>2018-06-12T11:12:37Z</time>
      </trkpt>
      <trkpt lat="42.325926" lon="0.947038">
        <ele>832.8</ele>
        <time>2018-06-12T11:12:39Z</time>
      </trkpt>
      <trkpt lat="42.325932" lon="0.946969">
        <ele>831.5</ele>
        <time>2018-06-12T11:12:40Z</time>
      </trkpt>
      <trkpt lat="42.325912" lon="0.946919">
        <ele>830.1</ele>
        <time>2018-06-12T11:12:41Z</time>
      </trkpt>
      <trkpt lat="42.325897" lon="0.946858">
        <ele>828.6</ele>
        <time>2018-06-12T11:12:42Z</time>
      </trkpt>
      <trkpt lat="42.325855" lon="0.946646">
        <ele>824.5</ele>
        <time>2018-06-12T11:12:47Z</time>
      </trkpt>
      <trkpt lat="42.325787" lon="0.946593">
        <ele>822.9</ele>
        <time>2018-06-12T11:12:49Z</time>
      </trkpt>
      <trkpt lat="42.325890" lon="0.946383">
        <ele>822.1</ele>
        <time>2018-06-12T11:12:54Z</time>
      </trkpt>
      <trkpt lat="42.325890" lon="0.946347">
        <ele>821.8</ele>
        <time>2018-06-12T11:12:54Z</time>
      </trkpt>
      <trkpt lat="42.325848" lon="0.946221">
        <ele>820.4</ele>
        <time>2018-06-12T11:12:57Z</time>
      </trkpt>
      <trkpt lat="42.325802" lon="0.946160">
        <ele>819.3</ele>
        <time>2018-06-12T11:12:59Z</time>
      </trkpt>
      <trkpt lat="42.325794" lon="0.946141">
        <ele>819.0</ele>
        <time>2018-06-12T11:12:59Z</time>
      </trkpt>
      <trkpt lat="42.325825" lon="0.945975">
        <ele>817.9</ele>
        <time>2018-06-12T11:13:03Z</time>
      </trkpt>
      <trkpt lat="42.325764" lon="0.945556">
        <ele>812.0</ele>
        <time>2018-06-12T11:13:11Z</time>
      </trkpt>
      <trkpt lat="42.325718" lon="0.945468">
        <ele>810.1</ele>
        <time>2018-06-12T11:13:13Z</time>
      </trkpt>
      <trkpt lat="42.325737" lon="0.945169">
        <ele>804.6</ele>
        <time>2018-06-12T11:13:19Z</time>
      </trkpt>
      <trkpt lat="42.325691" lon="0.944962">
        <ele>799.5</ele>
        <time>2018-06-12T11:13:24Z</time>
      </trkpt>
      <trkpt lat="42.325657" lon="0.944850">
        <ele>796.8</ele>
        <time>2018-06-12T11:13:26Z</time>
      </trkpt>
      <trkpt lat="42.325630" lon="0.944659">
        <ele>794.1</ele>
        <time>2018-06-12T11:13:30Z</time>
      </trkpt>
      <trkpt lat="42.325623" lon="0.944600">
        <ele>793.2</ele>
        <time>2018-06-12T11:13:31Z</time>
      </trkpt>
      <trkpt lat="42.325615" lon="0.944529">
        <ele>792.4</ele>
        <time>2018-06-12T11:13:33Z</time>
      </trkpt>
      <trkpt lat="42.325569" lon="0.944438">
        <ele>791.2</ele>
        <time>2018-06-12T11:13:35Z</time>
      </trkpt>
      <trkpt lat="42.325539" lon="0.944278">
        <ele>788.4</ele>
        <time>2018-06-12T11:13:38Z</time>
      </trkpt>
      <trkpt lat="42.325476" lon="0.944080">
        <ele>781.3</ele>
        <time>2018-06-12T11:13:42Z</time>
      </trkpt>
      <trkpt lat="42.325469" lon="0.943997">
        <ele>778.1</ele>
        <time>2018-06-12T11:13:44Z</time>
      </trkpt>
      <trkpt lat="42.325500" lon="0.943928">
        <ele>774.9</ele>
        <time>2018-06-12T11:13:46Z</time>
      </trkpt>
      <trkpt lat="42.325634" lon="0.943822">
        <ele>770.0</ele>
        <time>2018-06-12T11:13:50Z</time>
      </trkpt>
      <trkpt lat="42.325645" lon="0.943744">
        <ele>765.8</ele>
        <time>2018-06-12T11:13:52Z</time>
      </trkpt>
      <trkpt lat="42.325649" lon="0.943628">
        <ele>761.8</ele>
        <time>2018-06-12T11:13:55Z</time>
      </trkpt>
      <trkpt lat="42.325703" lon="0.943545">
        <ele>761.3</ele>
        <time>2018-06-12T11:13:57Z</time>
      </trkpt>
      <trkpt lat="42.325714" lon="0.943416">
        <ele>758.0</ele>
        <time>2018-06-12T11:13:59Z</time>
      </trkpt>
      <trkpt lat="42.325699" lon="0.943324">
        <ele>753.9</ele>
        <time>2018-06-12T11:14:01Z</time>
      </trkpt>
      <trkpt lat="42.325687" lon="0.943272">
        <ele>751.4</ele>
        <time>2018-06-12T11:14:03Z</time>
      </trkpt>
      <trkpt lat="42.325706" lon="0.943192">
        <ele>749.8</ele>
        <time>2018-06-12T11:14:04Z</time>
      </trkpt>
      <trkpt lat="42.325703" lon="0.943137">
        <ele>748.3</ele>
        <time>2018-06-12T11:14:05Z</time>
      </trkpt>
      <trkpt lat="42.325722" lon="0.943049">
        <ele>747.7</ele>
        <time>2018-06-12T11:14:07Z</time>
      </trkpt>
      <trkpt lat="42.325722" lon="0.943020">
        <ele>747.1</ele>
        <time>2018-06-12T11:14:08Z</time>
      </trkpt>
      <trkpt lat="42.325634" lon="0.942855">
        <ele>740.7</ele>
        <time>2018-06-12T11:14:12Z</time>
      </trkpt>
      <trkpt lat="42.325550" lon="0.942811">
        <ele>738.4</ele>
        <time>2018-06-12T11:14:15Z</time>
      </trkpt>
      <trkpt lat="42.325504" lon="0.942804">
        <ele>737.3</ele>
        <time>2018-06-12T11:14:16Z</time>
      </trkpt>
      <trkpt lat="42.325504" lon="0.942804">
        <ele>737.3</ele>
        <time>2018-06-12T11:14:16Z</time>
      </trkpt>
      <trkpt lat="42.325486" lon="0.942695">
        <ele>737.4</ele>
        <time>2018-06-12T11:14:18Z</time>
      </trkpt>
      <trkpt lat="42.325556" lon="0.942509">
        <ele>738.0</ele>
        <time>2018-06-12T11:14:22Z</time>
      </trkpt>
      <trkpt lat="42.325708" lon="0.942320">
        <ele>736.2</ele>
        <time>2018-06-12T11:14:27Z</time>
      </trkpt>
      <trkpt lat="42.325849" lon="0.942197">
        <ele>738.6</ele>
        <time>2018-06-12T11:14:32Z</time>
      </trkpt>
      <trkpt lat="42.325955" lon="0.942141">
        <ele>739.5</ele>
        <time>2018-06-12T11:14:35Z</time>
      </trkpt>
      <trkpt lat="42.326027" lon="0.942104">
        <ele>739.2</ele>
        <time>2018-06-12T11:14:37Z</time>
      </trkpt>
      <trkpt lat="42.326126" lon="0.942107">
        <ele>740.3</ele>
        <time>2018-06-12T11:14:40Z</time>
      </trkpt>
      <trkpt lat="42.326557" lon="0.942366">
        <ele>754.5</ele>
        <time>2018-06-12T11:14:52Z</time>
      </trkpt>
      <trkpt lat="42.326622" lon="0.942392">
        <ele>753.6</ele>
        <time>2018-06-12T11:14:54Z</time>
      </trkpt>
      <trkpt lat="42.326739" lon="0.942444">
        <ele>752.2</ele>
        <time>2018-06-12T11:14:57Z</time>
      </trkpt>
      <trkpt lat="42.326817" lon="0.942451">
        <ele>750.8</ele>
        <time>2018-06-12T11:15:00Z</time>
      </trkpt>
      <trkpt lat="42.326860" lon="0.942426">
        <ele>749.9</ele>
        <time>2018-06-12T11:15:01Z</time>
      </trkpt>
      <trkpt lat="42.326877" lon="0.942371">
        <ele>748.4</ele>
        <time>2018-06-12T11:15:02Z</time>
      </trkpt>
      <trkpt lat="42.326862" lon="0.942313">
        <ele>747.6</ele>
        <time>2018-06-12T11:15:03Z</time>
      </trkpt>
      <trkpt lat="42.326824" lon="0.942267">
        <ele>747.4</ele>
        <time>2018-06-12T11:15:05Z</time>
      </trkpt>
      <trkpt lat="42.326466" lon="0.941904">
        <ele>738.9</ele>
        <time>2018-06-12T11:15:17Z</time>
      </trkpt>
      <trkpt lat="42.326393" lon="0.941873">
        <ele>735.8</ele>
        <time>2018-06-12T11:15:19Z</time>
      </trkpt>
      <trkpt lat="42.326331" lon="0.941852">
        <ele>733.2</ele>
        <time>2018-06-12T11:15:20Z</time>
      </trkpt>
      <trkpt lat="42.326243" lon="0.941759">
        <ele>729.0</ele>
        <time>2018-06-12T11:15:24Z</time>
      </trkpt>
      <trkpt lat="42.326186" lon="0.941678">
        <ele>728.5</ele>
        <time>2018-06-12T11:15:26Z</time>
      </trkpt>
      <trkpt lat="42.326080" lon="0.941471">
        <ele>726.7</ele>
        <time>2018-06-12T11:15:31Z</time>
      </trkpt>
      <trkpt lat="42.325943" lon="0.941276">
        <ele>722.9</ele>
        <time>2018-06-12T11:15:36Z</time>
      </trkpt>
      <trkpt lat="42.325825" lon="0.941123">
        <ele>720.0</ele>
        <time>2018-06-12T11:15:40Z</time>
      </trkpt>
      <trkpt lat="42.325765" lon="0.940947">
        <ele>718.4</ele>
        <time>2018-06-12T11:15:44Z</time>
      </trkpt>
      <trkpt lat="42.325760" lon="0.940792">
        <ele>717.9</ele>
        <time>2018-06-12T11:15:47Z</time>
      </trkpt>
      <trkpt lat="42.325779" lon="0.940445">
        <ele>718.0</ele>
        <time>2018-06-12T11:15:54Z</time>
      </trkpt>
      <trkpt lat="42.325797" lon="0.940347">
        <ele>719.3</ele>
        <time>2018-06-12T11:15:56Z</time>
      </trkpt>
      <trkpt lat="42.325809" lon="0.940223">
        <ele>721.7</ele>
        <time>2018-06-12T11:15:58Z</time>
      </trkpt>
      <trkpt lat="42.325767" lon="0.940151">
        <ele>723.7</ele>
        <time>2018-06-12T11:16:00Z</time>
      </trkpt>
      <trkpt lat="42.325532" lon="0.940135">
        <ele>727.9</ele>
        <time>2018-06-12T11:16:07Z</time>
      </trkpt>
      <trkpt lat="42.325342" lon="0.940056">
        <ele>730.6</ele>
        <time>2018-06-12T11:16:12Z</time>
      </trkpt>
      <trkpt lat="42.324399" lon="0.939468">
        <ele>733.5</ele>
        <time>2018-06-12T11:16:39Z</time>
      </trkpt>
      <trkpt lat="42.323261" lon="0.938753">
        <ele>739.3</ele>
        <time>2018-06-12T11:17:12Z</time>
      </trkpt>
      <trkpt lat="42.323133" lon="0.938654">
        <ele>740.6</ele>
        <time>2018-06-12T11:17:16Z</time>
      </trkpt>
      <trkpt lat="42.323109" lon="0.938600">
        <ele>740.1</ele>
        <time>2018-06-12T11:17:17Z</time>
      </trkpt>
      <trkpt lat="42.323122" lon="0.938539">
        <ele>739.2</ele>
        <time>2018-06-12T11:17:19Z</time>
      </trkpt>
      <trkpt lat="42.323373" lon="0.938003">
        <ele>715.6</ele>
        <time>2018-06-12T11:17:32Z</time>
      </trkpt>
      <trkpt lat="42.323404" lon="0.937971">
        <ele>713.6</ele>
        <time>2018-06-12T11:17:33Z</time>
      </trkpt>
      <trkpt lat="42.323431" lon="0.937946">
        <ele>712.0</ele>
        <time>2018-06-12T11:17:34Z</time>
      </trkpt>
      <trkpt lat="42.323441" lon="0.937890">
        <ele>711.2</ele>
        <time>2018-06-12T11:17:35Z</time>
      </trkpt>
      <trkpt lat="42.323427" lon="0.937800">
        <ele>712.1</ele>
        <time>2018-06-12T11:17:37Z</time>
      </trkpt>
      <trkpt lat="42.323438" lon="0.937692">
        <ele>712.4</ele>
        <time>2018-06-12T11:17:39Z</time>
      </trkpt>
      <trkpt lat="42.323456" lon="0.937633">
        <ele>712.4</ele>
        <time>2018-06-12T11:17:41Z</time>
      </trkpt>
      <trkpt lat="42.323507" lon="0.937615">
        <ele>712.2</ele>
        <time>2018-06-12T11:17:42Z</time>
      </trkpt>
      <trkpt lat="42.323578" lon="0.937611">
        <ele>712.2</ele>
        <time>2018-06-12T11:17:44Z</time>
      </trkpt>
      <trkpt lat="42.323714" lon="0.937629">
        <ele>712.0</ele>
        <time>2018-06-12T11:17:47Z</time>
      </trkpt>
      <trkpt lat="42.323858" lon="0.937672">
        <ele>711.6</ele>
        <time>2018-06-12T11:17:51Z</time>
      </trkpt>
      <trkpt lat="42.323966" lon="0.937702">
        <ele>711.6</ele>
        <time>2018-06-12T11:17:54Z</time>
      </trkpt>
      <trkpt lat="42.324077" lon="0.937724">
        <ele>712.4</ele>
        <time>2018-06-12T11:17:57Z</time>
      </trkpt>
      <trkpt lat="42.324146" lon="0.937721">
        <ele>713.4</ele>
        <time>2018-06-12T11:17:59Z</time>
      </trkpt>
      <trkpt lat="42.324215" lon="0.937704">
        <ele>714.3</ele>
        <time>2018-06-12T11:18:01Z</time>
      </trkpt>
      <trkpt lat="42.324286" lon="0.937665">
        <ele>715.0</ele>
        <time>2018-06-12T11:18:03Z</time>
      </trkpt>
      <trkpt lat="42.324388" lon="0.937590">
        <ele>718.2</ele>
        <time>2018-06-12T11:18:06Z</time>
      </trkpt>
      <trkpt lat="42.324405" lon="0.937571">
        <ele>718.9</ele>
        <time>2018-06-12T11:18:07Z</time>
      </trkpt>
      <trkpt lat="42.324422" lon="0.937547">
        <ele>719.5</ele>
        <time>2018-06-12T11:18:07Z</time>
      </trkpt>
      <trkpt lat="42.324431" lon="0.937514">
        <ele>719.8</ele>
        <time>2018-06-12T11:18:08Z</time>
      </trkpt>
      <trkpt lat="42.324442" lon="0.937450">
        <ele>720.1</ele>
        <time>2018-06-12T11:18:09Z</time>
      </trkpt>
      <trkpt lat="42.324458" lon="0.937363">
        <ele>720.5</ele>
        <time>2018-06-12T11:18:11Z</time>
      </trkpt>
      <trkpt lat="42.324467" lon="0.937325">
        <ele>721.0</ele>
        <time>2018-06-12T11:18:12Z</time>
      </trkpt>
      <trkpt lat="42.324503" lon="0.937268">
        <ele>722.4</ele>
        <time>2018-06-12T11:18:13Z</time>
      </trkpt>
      <trkpt lat="42.324574" lon="0.937163">
        <ele>724.1</ele>
        <time>2018-06-12T11:18:16Z</time>
      </trkpt>
      <trkpt lat="42.324666" lon="0.937080">
        <ele>726.6</ele>
        <time>2018-06-12T11:18:19Z</time>
      </trkpt>
      <trkpt lat="42.324669" lon="0.937077">
        <ele>726.7</ele>
        <time>2018-06-12T11:18:19Z</time>
      </trkpt>
      <trkpt lat="42.324820" lon="0.936946">
        <ele>729.9</ele>
        <time>2018-06-12T11:18:24Z</time>
      </trkpt>
      <trkpt lat="42.324828" lon="0.936942">
        <ele>730.1</ele>
        <time>2018-06-12T11:18:24Z</time>
      </trkpt>
      <trkpt lat="42.324830" lon="0.936940">
        <ele>730.1</ele>
        <time>2018-06-12T11:18:24Z</time>
      </trkpt>
      <trkpt lat="42.324999" lon="0.936797">
        <ele>731.5</ele>
        <time>2018-06-12T11:18:30Z</time>
      </trkpt>
      <trkpt lat="42.325083" lon="0.936749">
        <ele>732.8</ele>
        <time>2018-06-12T11:18:32Z</time>
      </trkpt>
      <trkpt lat="42.325131" lon="0.936738">
        <ele>733.4</ele>
        <time>2018-06-12T11:18:33Z</time>
      </trkpt>
      <trkpt lat="42.325178" lon="0.936743">
        <ele>733.3</ele>
        <time>2018-06-12T11:18:35Z</time>
      </trkpt>
      <trkpt lat="42.325222" lon="0.936749">
        <ele>732.9</ele>
        <time>2018-06-12T11:18:36Z</time>
      </trkpt>
      <trkpt lat="42.325244" lon="0.936764">
        <ele>732.8</ele>
        <time>2018-06-12T11:18:36Z</time>
      </trkpt>
      <trkpt lat="42.325263" lon="0.936749">
        <ele>732.6</ele>
        <time>2018-06-12T11:18:37Z</time>
      </trkpt>
      <trkpt lat="42.325270" lon="0.936719">
        <ele>732.5</ele>
        <time>2018-06-12T11:18:38Z</time>
      </trkpt>
      <trkpt lat="42.325257" lon="0.936699">
        <ele>732.6</ele>
        <time>2018-06-12T11:18:38Z</time>
      </trkpt>
      <trkpt lat="42.325246" lon="0.936678">
        <ele>732.6</ele>
        <time>2018-06-12T11:18:39Z</time>
      </trkpt>
      <trkpt lat="42.325192" lon="0.936612">
        <ele>732.6</ele>
        <time>2018-06-12T11:18:40Z</time>
      </trkpt>
      <trkpt lat="42.325088" lon="0.936495">
        <ele>732.3</ele>
        <time>2018-06-12T11:18:44Z</time>
      </trkpt>
      <trkpt lat="42.325054" lon="0.936449">
        <ele>732.7</ele>
        <time>2018-06-12T11:18:45Z</time>
      </trkpt>
      <trkpt lat="42.325040" lon="0.936416">
        <ele>733.1</ele>
        <time>2018-06-12T11:18:46Z</time>
      </trkpt>
      <trkpt lat="42.325035" lon="0.936376">
        <ele>733.5</ele>
        <time>2018-06-12T11:18:47Z</time>
      </trkpt>
      <trkpt lat="42.325034" lon="0.936320">
        <ele>734.1</ele>
        <time>2018-06-12T11:18:48Z</time>
      </trkpt>
      <trkpt lat="42.325040" lon="0.936246">
        <ele>734.8</ele>
        <time>2018-06-12T11:18:49Z</time>
      </trkpt>
      <trkpt lat="42.325065" lon="0.936127">
        <ele>737.4</ele>
        <time>2018-06-12T11:18:52Z</time>
      </trkpt>
      <trkpt lat="42.325101" lon="0.936027">
        <ele>739.7</ele>
        <time>2018-06-12T11:18:54Z</time>
      </trkpt>
      <trkpt lat="42.325168" lon="0.935883">
        <ele>742.2</ele>
        <time>2018-06-12T11:18:57Z</time>
      </trkpt>
      <trkpt lat="42.325256" lon="0.935760">
        <ele>742.6</ele>
        <time>2018-06-12T11:19:01Z</time>
      </trkpt>
      <trkpt lat="42.325350" lon="0.935653">
        <ele>742.5</ele>
        <time>2018-06-12T11:19:04Z</time>
      </trkpt>
      <trkpt lat="42.325509" lon="0.935463">
        <ele>742.5</ele>
        <time>2018-06-12T11:19:10Z</time>
      </trkpt>
      <trkpt lat="42.325556" lon="0.935398">
        <ele>742.5</ele>
        <time>2018-06-12T11:19:11Z</time>
      </trkpt>
      <trkpt lat="42.325582" lon="0.935335">
        <ele>743.5</ele>
        <time>2018-06-12T11:19:13Z</time>
      </trkpt>
      <trkpt lat="42.325608" lon="0.935265">
        <ele>744.7</ele>
        <time>2018-06-12T11:19:14Z</time>
      </trkpt>
      <trkpt lat="42.325617" lon="0.935177">
        <ele>746.9</ele>
        <time>2018-06-12T11:19:16Z</time>
      </trkpt>
      <trkpt lat="42.325622" lon="0.935101">
        <ele>748.6</ele>
        <time>2018-06-12T11:19:18Z</time>
      </trkpt>
      <trkpt lat="42.325636" lon="0.934974">
        <ele>750.7</ele>
        <time>2018-06-12T11:19:20Z</time>
      </trkpt>
      <trkpt lat="42.325654" lon="0.934837">
        <ele>752.8</ele>
        <time>2018-06-12T11:19:23Z</time>
      </trkpt>
      <trkpt lat="42.325692" lon="0.934725">
        <ele>753.5</ele>
        <time>2018-06-12T11:19:25Z</time>
      </trkpt>
      <trkpt lat="42.325755" lon="0.934628">
        <ele>753.9</ele>
        <time>2018-06-12T11:19:28Z</time>
      </trkpt>
      <trkpt lat="42.326837" lon="0.933433">
        <ele>749.1</ele>
        <time>2018-06-12T11:20:05Z</time>
      </trkpt>
      <trkpt lat="42.326922" lon="0.933285">
        <ele>753.1</ele>
        <time>2018-06-12T11:20:09Z</time>
      </trkpt>
      <trkpt lat="42.326980" lon="0.933172">
        <ele>755.7</ele>
        <time>2018-06-12T11:20:11Z</time>
      </trkpt>
      <trkpt lat="42.327016" lon="0.933068">
        <ele>757.9</ele>
        <time>2018-06-12T11:20:14Z</time>
      </trkpt>
      <trkpt lat="42.327041" lon="0.932974">
        <ele>759.9</ele>
        <time>2018-06-12T11:20:16Z</time>
      </trkpt>
      <trkpt lat="42.327033" lon="0.932882">
        <ele>762.6</ele>
        <time>2018-06-12T11:20:17Z</time>
      </trkpt>
      <trkpt lat="42.326999" lon="0.932773">
        <ele>765.6</ele>
        <time>2018-06-12T11:20:20Z</time>
      </trkpt>
      <trkpt lat="42.326915" lon="0.932687">
        <ele>769.1</ele>
        <time>2018-06-12T11:20:23Z</time>
      </trkpt>
      <trkpt lat="42.326839" lon="0.932615">
        <ele>771.6</ele>
        <time>2018-06-12T11:20:25Z</time>
      </trkpt>
      <trkpt lat="42.326794" lon="0.932551">
        <ele>773.0</ele>
        <time>2018-06-12T11:20:27Z</time>
      </trkpt>
      <trkpt lat="42.326769" lon="0.932485">
        <ele>773.9</ele>
        <time>2018-06-12T11:20:29Z</time>
      </trkpt>
      <trkpt lat="42.326737" lon="0.932438">
        <ele>774.6</ele>
        <time>2018-06-12T11:20:30Z</time>
      </trkpt>
      <trkpt lat="42.326730" lon="0.932362">
        <ele>775.3</ele>
        <time>2018-06-12T11:20:31Z</time>
      </trkpt>
      <trkpt lat="42.326744" lon="0.932302">
        <ele>775.6</ele>
        <time>2018-06-12T11:20:33Z</time>
      </trkpt>
      <trkpt lat="42.326798" lon="0.932284">
        <ele>775.6</ele>
        <time>2018-06-12T11:20:34Z</time>
      </trkpt>
      <trkpt lat="42.326874" lon="0.932290">
        <ele>775.0</ele>
        <time>2018-06-12T11:20:36Z</time>
      </trkpt>
      <trkpt lat="42.326935" lon="0.932314">
        <ele>774.2</ele>
        <time>2018-06-12T11:20:38Z</time>
      </trkpt>
      <trkpt lat="42.327302" lon="0.932372">
        <ele>765.5</ele>
        <time>2018-06-12T11:20:48Z</time>
      </trkpt>
      <trkpt lat="42.327373" lon="0.932352">
        <ele>763.9</ele>
        <time>2018-06-12T11:20:50Z</time>
      </trkpt>
      <trkpt lat="42.327454" lon="0.932308">
        <ele>763.2</ele>
        <time>2018-06-12T11:20:52Z</time>
      </trkpt>
      <trkpt lat="42.327590" lon="0.932180">
        <ele>762.6</ele>
        <time>2018-06-12T11:20:56Z</time>
      </trkpt>
      <trkpt lat="42.327830" lon="0.931960">
        <ele>757.5</ele>
        <time>2018-06-12T11:21:04Z</time>
      </trkpt>
      <trkpt lat="42.327893" lon="0.931892">
        <ele>758.6</ele>
        <time>2018-06-12T11:21:06Z</time>
      </trkpt>
      <trkpt lat="42.327910" lon="0.931834">
        <ele>761.5</ele>
        <time>2018-06-12T11:21:07Z</time>
      </trkpt>
      <trkpt lat="42.327906" lon="0.931787">
        <ele>764.6</ele>
        <time>2018-06-12T11:21:09Z</time>
      </trkpt>
      <trkpt lat="42.327876" lon="0.931749">
        <ele>768.1</ele>
        <time>2018-06-12T11:21:10Z</time>
      </trkpt>
      <trkpt lat="42.327817" lon="0.931730">
        <ele>770.9</ele>
        <time>2018-06-12T11:21:12Z</time>
      </trkpt>
      <trkpt lat="42.327394" lon="0.931749">
        <ele>780.4</ele>
        <time>2018-06-12T11:21:23Z</time>
      </trkpt>
      <trkpt lat="42.327162" lon="0.931773">
        <ele>780.1</ele>
        <time>2018-06-12T11:21:29Z</time>
      </trkpt>
      <trkpt lat="42.327049" lon="0.931767">
        <ele>780.7</ele>
        <time>2018-06-12T11:21:32Z</time>
      </trkpt>
      <trkpt lat="42.326943" lon="0.931753">
        <ele>782.7</ele>
        <time>2018-06-12T11:21:35Z</time>
      </trkpt>
      <trkpt lat="42.326888" lon="0.931719">
        <ele>784.6</ele>
        <time>2018-06-12T11:21:37Z</time>
      </trkpt>
      <trkpt lat="42.326862" lon="0.931658">
        <ele>787.0</ele>
        <time>2018-06-12T11:21:38Z</time>
      </trkpt>
      <trkpt lat="42.326873" lon="0.931602">
        <ele>788.6</ele>
        <time>2018-06-12T11:21:39Z</time>
      </trkpt>
      <trkpt lat="42.326908" lon="0.931538">
        <ele>790.2</ele>
        <time>2018-06-12T11:21:41Z</time>
      </trkpt>
      <trkpt lat="42.326969" lon="0.931518">
        <ele>790.2</ele>
        <time>2018-06-12T11:21:43Z</time>
      </trkpt>
      <trkpt lat="42.327091" lon="0.931471">
        <ele>791.3</ele>
        <time>2018-06-12T11:21:46Z</time>
      </trkpt>
      <trkpt lat="42.327214" lon="0.931454">
        <ele>792.4</ele>
        <time>2018-06-12T11:21:49Z</time>
      </trkpt>
      <trkpt lat="42.327842" lon="0.931367">
        <ele>795.4</ele>
        <time>2018-06-12T11:22:06Z</time>
      </trkpt>
      <trkpt lat="42.328167" lon="0.931349">
        <ele>793.6</ele>
        <time>2018-06-12T11:22:14Z</time>
      </trkpt>
      <trkpt lat="42.328329" lon="0.931352">
        <ele>791.8</ele>
        <time>2018-06-12T11:22:19Z</time>
      </trkpt>
      <trkpt lat="42.328492" lon="0.931319">
        <ele>792.9</ele>
        <time>2018-06-12T11:22:23Z</time>
      </trkpt>
      <trkpt lat="42.328700" lon="0.931226">
        <ele>793.1</ele>
        <time>2018-06-12T11:22:29Z</time>
      </trkpt>
      <trkpt lat="42.328874" lon="0.931108">
        <ele>795.9</ele>
        <time>2018-06-12T11:22:34Z</time>
      </trkpt>
      <trkpt lat="42.329001" lon="0.931004">
        <ele>799.7</ele>
        <time>2018-06-12T11:22:38Z</time>
      </trkpt>
      <trkpt lat="42.329141" lon="0.930973">
        <ele>796.1</ele>
        <time>2018-06-12T11:22:42Z</time>
      </trkpt>
      <trkpt lat="42.329283" lon="0.930966">
        <ele>790.4</ele>
        <time>2018-06-12T11:22:46Z</time>
      </trkpt>
      <trkpt lat="42.329400" lon="0.930948">
        <ele>789.9</ele>
        <time>2018-06-12T11:22:49Z</time>
      </trkpt>
      <trkpt lat="42.329524" lon="0.930915">
        <ele>791.0</ele>
        <time>2018-06-12T11:22:52Z</time>
      </trkpt>
      <trkpt lat="42.329622" lon="0.930851">
        <ele>794.6</ele>
        <time>2018-06-12T11:22:55Z</time>
      </trkpt>
      <trkpt lat="42.329705" lon="0.930754">
        <ele>801.2</ele>
        <time>2018-06-12T11:22:59Z</time>
      </trkpt>
      <trkpt lat="42.329786" lon="0.930637">
        <ele>807.3</ele>
        <time>2018-06-12T11:23:02Z</time>
      </trkpt>
      <trkpt lat="42.329840" lon="0.930577">
        <ele>808.7</ele>
        <time>2018-06-12T11:23:04Z</time>
      </trkpt>
      <trkpt lat="42.329930" lon="0.930516">
        <ele>808.2</ele>
        <time>2018-06-12T11:23:07Z</time>
      </trkpt>
      <trkpt lat="42.330018" lon="0.930468">
        <ele>807.0</ele>
        <time>2018-06-12T11:23:09Z</time>
      </trkpt>
      <trkpt lat="42.330101" lon="0.930404">
        <ele>806.1</ele>
        <time>2018-06-12T11:23:12Z</time>
      </trkpt>
      <trkpt lat="42.330187" lon="0.930301">
        <ele>803.7</ele>
        <time>2018-06-12T11:23:15Z</time>
      </trkpt>
      <trkpt lat="42.330239" lon="0.930233">
        <ele>801.8</ele>
        <time>2018-06-12T11:23:17Z</time>
      </trkpt>
      <trkpt lat="42.330275" lon="0.930174">
        <ele>800.4</ele>
        <time>2018-06-12T11:23:18Z</time>
      </trkpt>
      <trkpt lat="42.330283" lon="0.930128">
        <ele>800.5</ele>
        <time>2018-06-12T11:23:19Z</time>
      </trkpt>
      <trkpt lat="42.330281" lon="0.930084">
        <ele>801.4</ele>
        <time>2018-06-12T11:23:20Z</time>
      </trkpt>
      <trkpt lat="42.330267" lon="0.930052">
        <ele>802.7</ele>
        <time>2018-06-12T11:23:21Z</time>
      </trkpt>
      <trkpt lat="42.330238" lon="0.930035">
        <ele>804.3</ele>
        <time>2018-06-12T11:23:22Z</time>
      </trkpt>
      <trkpt lat="42.330210" lon="0.930033">
        <ele>805.7</ele>
        <time>2018-06-12T11:23:22Z</time>
      </trkpt>
      <trkpt lat="42.330177" lon="0.930035">
        <ele>807.1</ele>
        <time>2018-06-12T11:23:23Z</time>
      </trkpt>
      <trkpt lat="42.330131" lon="0.930067">
        <ele>808.6</ele>
        <time>2018-06-12T11:23:25Z</time>
      </trkpt>
      <trkpt lat="42.330099" lon="0.930104">
        <ele>809.4</ele>
        <time>2018-06-12T11:23:26Z</time>
      </trkpt>
      <trkpt lat="42.330069" lon="0.930156">
        <ele>809.8</ele>
        <time>2018-06-12T11:23:27Z</time>
      </trkpt>
      <trkpt lat="42.330046" lon="0.930186">
        <ele>810.4</ele>
        <time>2018-06-12T11:23:28Z</time>
      </trkpt>
      <trkpt lat="42.330006" lon="0.930216">
        <ele>811.5</ele>
        <time>2018-06-12T11:23:29Z</time>
      </trkpt>
      <trkpt lat="42.329974" lon="0.930232">
        <ele>812.5</ele>
        <time>2018-06-12T11:23:30Z</time>
      </trkpt>
      <trkpt lat="42.329934" lon="0.930244">
        <ele>813.7</ele>
        <time>2018-06-12T11:23:31Z</time>
      </trkpt>
      <trkpt lat="42.329891" lon="0.930242">
        <ele>815.3</ele>
        <time>2018-06-12T11:23:33Z</time>
      </trkpt>
      <trkpt lat="42.329864" lon="0.930217">
        <ele>816.9</ele>
        <time>2018-06-12T11:23:34Z</time>
      </trkpt>
      <trkpt lat="42.329859" lon="0.930178">
        <ele>818.1</ele>
        <time>2018-06-12T11:23:34Z</time>
      </trkpt>
      <trkpt lat="42.329859" lon="0.930142">
        <ele>819.0</ele>
        <time>2018-06-12T11:23:35Z</time>
      </trkpt>
      <trkpt lat="42.329876" lon="0.930108">
        <ele>819.0</ele>
        <time>2018-06-12T11:23:36Z</time>
      </trkpt>
      <trkpt lat="42.329896" lon="0.930060">
        <ele>819.2</ele>
        <time>2018-06-12T11:23:37Z</time>
      </trkpt>
      <trkpt lat="42.329928" lon="0.930025">
        <ele>818.5</ele>
        <time>2018-06-12T11:23:38Z</time>
      </trkpt>
      <trkpt lat="42.329969" lon="0.929975">
        <ele>817.6</ele>
        <time>2018-06-12T11:23:40Z</time>
      </trkpt>
      <trkpt lat="42.330034" lon="0.929913">
        <ele>815.9</ele>
        <time>2018-06-12T11:23:42Z</time>
      </trkpt>
      <trkpt lat="42.330089" lon="0.929817">
        <ele>815.7</ele>
        <time>2018-06-12T11:23:44Z</time>
      </trkpt>
      <trkpt lat="42.330177" lon="0.929646">
        <ele>816.8</ele>
        <time>2018-06-12T11:23:48Z</time>
      </trkpt>
      <trkpt lat="42.330265" lon="0.929463">
        <ele>819.6</ele>
        <time>2018-06-12T11:23:52Z</time>
      </trkpt>
      <trkpt lat="42.330410" lon="0.929135">
        <ele>821.2</ele>
        <time>2018-06-12T11:24:00Z</time>
      </trkpt>
      <trkpt lat="42.330513" lon="0.928849">
        <ele>827.4</ele>
        <time>2018-06-12T11:24:06Z</time>
      </trkpt>
      <trkpt lat="42.330642" lon="0.928438">
        <ele>832.8</ele>
        <time>2018-06-12T11:24:15Z</time>
      </trkpt>
      <trkpt lat="42.330741" lon="0.928182">
        <ele>835.1</ele>
        <time>2018-06-12T11:24:21Z</time>
      </trkpt>
      <trkpt lat="42.330835" lon="0.927964">
        <ele>836.5</ele>
        <time>2018-06-12T11:24:26Z</time>
      </trkpt>
      <trkpt lat="42.330902" lon="0.927812">
        <ele>838.5</ele>
        <time>2018-06-12T11:24:29Z</time>
      </trkpt>
      <trkpt lat="42.330994" lon="0.927687">
        <ele>838.9</ele>
        <time>2018-06-12T11:24:32Z</time>
      </trkpt>
      <trkpt lat="42.331146" lon="0.927585">
        <ele>835.2</ele>
        <time>2018-06-12T11:24:37Z</time>
      </trkpt>
      <trkpt lat="42.331307" lon="0.927470">
        <ele>831.3</ele>
        <time>2018-06-12T11:24:42Z</time>
      </trkpt>
      <trkpt lat="42.331457" lon="0.927295">
        <ele>830.0</ele>
        <time>2018-06-12T11:24:47Z</time>
      </trkpt>
      <trkpt lat="42.331529" lon="0.927211">
        <ele>829.3</ele>
        <time>2018-06-12T11:24:50Z</time>
      </trkpt>
      <trkpt lat="42.331586" lon="0.927095">
        <ele>831.5</ele>
        <time>2018-06-12T11:24:52Z</time>
      </trkpt>
      <trkpt lat="42.331624" lon="0.926917">
        <ele>833.3</ele>
        <time>2018-06-12T11:24:56Z</time>
      </trkpt>
      <trkpt lat="42.331622" lon="0.926752">
        <ele>835.7</ele>
        <time>2018-06-12T11:24:59Z</time>
      </trkpt>
      <trkpt lat="42.331594" lon="0.926599">
        <ele>839.0</ele>
        <time>2018-06-12T11:25:02Z</time>
      </trkpt>
      <trkpt lat="42.331556" lon="0.926426">
        <ele>843.2</ele>
        <time>2018-06-12T11:25:06Z</time>
      </trkpt>
      <trkpt lat="42.331518" lon="0.926270">
        <ele>847.4</ele>
        <time>2018-06-12T11:25:09Z</time>
      </trkpt>
      <trkpt lat="42.331507" lon="0.926070">
        <ele>846.4</ele>
        <time>2018-06-12T11:25:13Z</time>
      </trkpt>
      <trkpt lat="42.331517" lon="0.925903">
        <ele>845.9</ele>
        <time>2018-06-12T11:25:17Z</time>
      </trkpt>
      <trkpt lat="42.331527" lon="0.925796">
        <ele>847.4</ele>
        <time>2018-06-12T11:25:19Z</time>
      </trkpt>
      <trkpt lat="42.331525" lon="0.925735">
        <ele>849.2</ele>
        <time>2018-06-12T11:25:20Z</time>
      </trkpt>
      <trkpt lat="42.331506" lon="0.925702">
        <ele>852.1</ele>
        <time>2018-06-12T11:25:21Z</time>
      </trkpt>
      <trkpt lat="42.331480" lon="0.925684">
        <ele>855.6</ele>
        <time>2018-06-12T11:25:22Z</time>
      </trkpt>
      <trkpt lat="42.331437" lon="0.925718">
        <ele>858.8</ele>
        <time>2018-06-12T11:25:24Z</time>
      </trkpt>
      <trkpt lat="42.331403" lon="0.925776">
        <ele>861.1</ele>
        <time>2018-06-12T11:25:25Z</time>
      </trkpt>
      <trkpt lat="42.331371" lon="0.925857">
        <ele>862.6</ele>
        <time>2018-06-12T11:25:27Z</time>
      </trkpt>
      <trkpt lat="42.331361" lon="0.925937">
        <ele>861.9</ele>
        <time>2018-06-12T11:25:29Z</time>
      </trkpt>
      <trkpt lat="42.331349" lon="0.926108">
        <ele>861.5</ele>
        <time>2018-06-12T11:25:32Z</time>
      </trkpt>
      <trkpt lat="42.331360" lon="0.926524">
        <ele>853.9</ele>
        <time>2018-06-12T11:25:40Z</time>
      </trkpt>
      <trkpt lat="42.331376" lon="0.926758">
        <ele>847.3</ele>
        <time>2018-06-12T11:25:45Z</time>
      </trkpt>
      <trkpt lat="42.331376" lon="0.926824">
        <ele>845.8</ele>
        <time>2018-06-12T11:25:47Z</time>
      </trkpt>
      <trkpt lat="42.331363" lon="0.926903">
        <ele>844.7</ele>
        <time>2018-06-12T11:25:48Z</time>
      </trkpt>
      <trkpt lat="42.331338" lon="0.926957">
        <ele>844.8</ele>
        <time>2018-06-12T11:25:49Z</time>
      </trkpt>
      <trkpt lat="42.331292" lon="0.927018">
        <ele>845.6</ele>
        <time>2018-06-12T11:25:51Z</time>
      </trkpt>
      <trkpt lat="42.331234" lon="0.927062">
        <ele>847.5</ele>
        <time>2018-06-12T11:25:53Z</time>
      </trkpt>
      <trkpt lat="42.331150" lon="0.927103">
        <ele>851.5</ele>
        <time>2018-06-12T11:25:55Z</time>
      </trkpt>
      <trkpt lat="42.331002" lon="0.927147">
        <ele>859.1</ele>
        <time>2018-06-12T11:26:00Z</time>
      </trkpt>
      <trkpt lat="42.330838" lon="0.927223">
        <ele>865.0</ele>
        <time>2018-06-12T11:26:05Z</time>
      </trkpt>
      <trkpt lat="42.330622" lon="0.927345">
        <ele>870.2</ele>
        <time>2018-06-12T11:26:11Z</time>
      </trkpt>
      <trkpt lat="42.330491" lon="0.927433">
        <ele>871.9</ele>
        <time>2018-06-12T11:26:15Z</time>
      </trkpt>
      <trkpt lat="42.330336" lon="0.927604">
        <ele>871.7</ele>
        <time>2018-06-12T11:26:20Z</time>
      </trkpt>
      <trkpt lat="42.330214" lon="0.927796">
        <ele>872.1</ele>
        <time>2018-06-12T11:26:25Z</time>
      </trkpt>
      <trkpt lat="42.330122" lon="0.927988">
        <ele>873.1</ele>
        <time>2018-06-12T11:26:29Z</time>
      </trkpt>
      <trkpt lat="42.330060" lon="0.928136">
        <ele>873.1</ele>
        <time>2018-06-12T11:26:33Z</time>
      </trkpt>
      <trkpt lat="42.330013" lon="0.928260">
        <ele>873.3</ele>
        <time>2018-06-12T11:26:35Z</time>
      </trkpt>
      <trkpt lat="42.329965" lon="0.928355">
        <ele>874.3</ele>
        <time>2018-06-12T11:26:38Z</time>
      </trkpt>
      <trkpt lat="42.329891" lon="0.928445">
        <ele>877.4</ele>
        <time>2018-06-12T11:26:40Z</time>
      </trkpt>
      <trkpt lat="42.329778" lon="0.928504">
        <ele>879.3</ele>
        <time>2018-06-12T11:26:44Z</time>
      </trkpt>
      <trkpt lat="42.329583" lon="0.928583">
        <ele>880.2</ele>
        <time>2018-06-12T11:26:49Z</time>
      </trkpt>
      <trkpt lat="42.329457" lon="0.928647">
        <ele>881.0</ele>
        <time>2018-06-12T11:26:53Z</time>
      </trkpt>
      <trkpt lat="42.329329" lon="0.928723">
        <ele>881.3</ele>
        <time>2018-06-12T11:26:56Z</time>
      </trkpt>
      <trkpt lat="42.329244" lon="0.928776">
        <ele>882.0</ele>
        <time>2018-06-12T11:26:59Z</time>
      </trkpt>
      <trkpt lat="42.328972" lon="0.928894">
        <ele>883.8</ele>
        <time>2018-06-12T11:27:06Z</time>
      </trkpt>
      <trkpt lat="42.328837" lon="0.928964">
        <ele>886.2</ele>
        <time>2018-06-12T11:27:10Z</time>
      </trkpt>
      <trkpt lat="42.328613" lon="0.929063">
        <ele>890.6</ele>
        <time>2018-06-12T11:27:16Z</time>
      </trkpt>
      <trkpt lat="42.328529" lon="0.929093">
        <ele>892.0</ele>
        <time>2018-06-12T11:27:19Z</time>
      </trkpt>
      <trkpt lat="42.328471" lon="0.929123">
        <ele>892.6</ele>
        <time>2018-06-12T11:27:20Z</time>
      </trkpt>
      <trkpt lat="42.328415" lon="0.929103">
        <ele>893.3</ele>
        <time>2018-06-12T11:27:22Z</time>
      </trkpt>
      <trkpt lat="42.328401" lon="0.929049">
        <ele>895.0</ele>
        <time>2018-06-12T11:27:23Z</time>
      </trkpt>
      <trkpt lat="42.328413" lon="0.929008">
        <ele>896.5</ele>
        <time>2018-06-12T11:27:24Z</time>
      </trkpt>
      <trkpt lat="42.328460" lon="0.928957">
        <ele>898.3</ele>
        <time>2018-06-12T11:27:26Z</time>
      </trkpt>
      <trkpt lat="42.328518" lon="0.928903">
        <ele>898.7</ele>
        <time>2018-06-12T11:27:27Z</time>
      </trkpt>
      <trkpt lat="42.328640" lon="0.928833">
        <ele>897.5</ele>
        <time>2018-06-12T11:27:31Z</time>
      </trkpt>
      <trkpt lat="42.328798" lon="0.928694">
        <ele>897.1</ele>
        <time>2018-06-12T11:27:36Z</time>
      </trkpt>
      <trkpt lat="42.329084" lon="0.928404">
        <ele>896.1</ele>
        <time>2018-06-12T11:27:45Z</time>
      </trkpt>
      <trkpt lat="42.329307" lon="0.928172">
        <ele>896.2</ele>
        <time>2018-06-12T11:27:53Z</time>
      </trkpt>
      <trkpt lat="42.329647" lon="0.927859">
        <ele>894.3</ele>
        <time>2018-06-12T11:28:04Z</time>
      </trkpt>
      <trkpt lat="42.329764" lon="0.927680">
        <ele>894.4</ele>
        <time>2018-06-12T11:28:08Z</time>
      </trkpt>
      <trkpt lat="42.329823" lon="0.927539">
        <ele>895.4</ele>
        <time>2018-06-12T11:28:11Z</time>
      </trkpt>
      <trkpt lat="42.329823" lon="0.927482">
        <ele>896.2</ele>
        <time>2018-06-12T11:28:13Z</time>
      </trkpt>
      <trkpt lat="42.329799" lon="0.927428">
        <ele>897.7</ele>
        <time>2018-06-12T11:28:14Z</time>
      </trkpt>
      <trkpt lat="42.329740" lon="0.927382">
        <ele>900.1</ele>
        <time>2018-06-12T11:28:16Z</time>
      </trkpt>
      <trkpt lat="42.329668" lon="0.927416">
        <ele>901.5</ele>
        <time>2018-06-12T11:28:18Z</time>
      </trkpt>
      <trkpt lat="42.329438" lon="0.927584">
        <ele>904.5</ele>
        <time>2018-06-12T11:28:25Z</time>
      </trkpt>
      <trkpt lat="42.329250" lon="0.927714">
        <ele>906.2</ele>
        <time>2018-06-12T11:28:30Z</time>
      </trkpt>
      <trkpt lat="42.328987" lon="0.927979">
        <ele>906.9</ele>
        <time>2018-06-12T11:28:39Z</time>
      </trkpt>
      <trkpt lat="42.328710" lon="0.928189">
        <ele>907.5</ele>
        <time>2018-06-12T11:28:47Z</time>
      </trkpt>
      <trkpt lat="42.328501" lon="0.928307">
        <ele>911.4</ele>
        <time>2018-06-12T11:28:53Z</time>
      </trkpt>
      <trkpt lat="42.328363" lon="0.928350">
        <ele>914.6</ele>
        <time>2018-06-12T11:28:57Z</time>
      </trkpt>
      <trkpt lat="42.328206" lon="0.928369">
        <ele>919.0</ele>
        <time>2018-06-12T11:29:01Z</time>
      </trkpt>
      <trkpt lat="42.328110" lon="0.928405">
        <ele>918.7</ele>
        <time>2018-06-12T11:29:04Z</time>
      </trkpt>
      <trkpt lat="42.327991" lon="0.928453">
        <ele>918.0</ele>
        <time>2018-06-12T11:29:07Z</time>
      </trkpt>
      <trkpt lat="42.327897" lon="0.928477">
        <ele>917.5</ele>
        <time>2018-06-12T11:29:10Z</time>
      </trkpt>
      <trkpt lat="42.327842" lon="0.928465">
        <ele>916.9</ele>
        <time>2018-06-12T11:29:11Z</time>
      </trkpt>
      <trkpt lat="42.327803" lon="0.928440">
        <ele>916.8</ele>
        <time>2018-06-12T11:29:12Z</time>
      </trkpt>
      <trkpt lat="42.327783" lon="0.928395">
        <ele>917.7</ele>
        <time>2018-06-12T11:29:13Z</time>
      </trkpt>
      <trkpt lat="42.327793" lon="0.928345">
        <ele>919.2</ele>
        <time>2018-06-12T11:29:14Z</time>
      </trkpt>
      <trkpt lat="42.327823" lon="0.928301">
        <ele>921.1</ele>
        <time>2018-06-12T11:29:16Z</time>
      </trkpt>
      <trkpt lat="42.327869" lon="0.928283">
        <ele>922.5</ele>
        <time>2018-06-12T11:29:17Z</time>
      </trkpt>
      <trkpt lat="42.328001" lon="0.928230">
        <ele>924.6</ele>
        <time>2018-06-12T11:29:21Z</time>
      </trkpt>
      <trkpt lat="42.328130" lon="0.928135">
        <ele>926.8</ele>
        <time>2018-06-12T11:29:25Z</time>
      </trkpt>
      <trkpt lat="42.328387" lon="0.927876">
        <ele>930.9</ele>
        <time>2018-06-12T11:29:33Z</time>
      </trkpt>
      <trkpt lat="42.328698" lon="0.927632">
        <ele>932.2</ele>
        <time>2018-06-12T11:29:43Z</time>
      </trkpt>
      <trkpt lat="42.328831" lon="0.927478">
        <ele>929.2</ele>
        <time>2018-06-12T11:29:47Z</time>
      </trkpt>
      <trkpt lat="42.328976" lon="0.927247">
        <ele>926.9</ele>
        <time>2018-06-12T11:29:53Z</time>
      </trkpt>
      <trkpt lat="42.329057" lon="0.927089">
        <ele>928.4</ele>
        <time>2018-06-12T11:29:57Z</time>
      </trkpt>
      <trkpt lat="42.329293" lon="0.926781">
        <ele>933.9</ele>
        <time>2018-06-12T11:30:06Z</time>
      </trkpt>
      <trkpt lat="42.329490" lon="0.926524">
        <ele>931.8</ele>
        <time>2018-06-12T11:30:13Z</time>
      </trkpt>
      <trkpt lat="42.329690" lon="0.926209">
        <ele>935.4</ele>
        <time>2018-06-12T11:30:21Z</time>
      </trkpt>
      <trkpt lat="42.329886" lon="0.925827">
        <ele>943.6</ele>
        <time>2018-06-12T11:30:30Z</time>
      </trkpt>
      <trkpt lat="42.330051" lon="0.925587">
        <ele>941.2</ele>
        <time>2018-06-12T11:30:37Z</time>
      </trkpt>
      <trkpt lat="42.330123" lon="0.925481">
        <ele>938.3</ele>
        <time>2018-06-12T11:30:40Z</time>
      </trkpt>
      <trkpt lat="42.330170" lon="0.925387">
        <ele>936.7</ele>
        <time>2018-06-12T11:30:42Z</time>
      </trkpt>
      <trkpt lat="42.330198" lon="0.925276">
        <ele>937.5</ele>
        <time>2018-06-12T11:30:44Z</time>
      </trkpt>
      <trkpt lat="42.330219" lon="0.925145">
        <ele>939.2</ele>
        <time>2018-06-12T11:30:47Z</time>
      </trkpt>
      <trkpt lat="42.330207" lon="0.925019">
        <ele>940.8</ele>
        <time>2018-06-12T11:30:49Z</time>
      </trkpt>
      <trkpt lat="42.330195" lon="0.924900">
        <ele>942.3</ele>
        <time>2018-06-12T11:30:52Z</time>
      </trkpt>
      <trkpt lat="42.330170" lon="0.924694">
        <ele>944.5</ele>
        <time>2018-06-12T11:30:56Z</time>
      </trkpt>
      <trkpt lat="42.330150" lon="0.924526">
        <ele>946.1</ele>
        <time>2018-06-12T11:30:59Z</time>
      </trkpt>
      <trkpt lat="42.330125" lon="0.924294">
        <ele>947.0</ele>
        <time>2018-06-12T11:31:04Z</time>
      </trkpt>
      <trkpt lat="42.330139" lon="0.924086">
        <ele>946.8</ele>
        <time>2018-06-12T11:31:08Z</time>
      </trkpt>
      <trkpt lat="42.330179" lon="0.923842">
        <ele>942.3</ele>
        <time>2018-06-12T11:31:13Z</time>
      </trkpt>
      <trkpt lat="42.330167" lon="0.923670">
        <ele>940.2</ele>
        <time>2018-06-12T11:31:16Z</time>
      </trkpt>
      <trkpt lat="42.330148" lon="0.923548">
        <ele>938.3</ele>
        <time>2018-06-12T11:31:19Z</time>
      </trkpt>
      <trkpt lat="42.330089" lon="0.923418">
        <ele>939.4</ele>
        <time>2018-06-12T11:31:22Z</time>
      </trkpt>
      <trkpt lat="42.330001" lon="0.923322">
        <ele>943.4</ele>
        <time>2018-06-12T11:31:25Z</time>
      </trkpt>
      <trkpt lat="42.329874" lon="0.923223">
        <ele>949.8</ele>
        <time>2018-06-12T11:31:29Z</time>
      </trkpt>
      <trkpt lat="42.329609" lon="0.923051">
        <ele>961.7</ele>
        <time>2018-06-12T11:31:37Z</time>
      </trkpt>
      <trkpt lat="42.329507" lon="0.922990">
        <ele>965.7</ele>
        <time>2018-06-12T11:31:40Z</time>
      </trkpt>
      <trkpt lat="42.329365" lon="0.922914">
        <ele>969.8</ele>
        <time>2018-06-12T11:31:44Z</time>
      </trkpt>
      <trkpt lat="42.329307" lon="0.922871">
        <ele>970.9</ele>
        <time>2018-06-12T11:31:46Z</time>
      </trkpt>
      <trkpt lat="42.329248" lon="0.922787">
        <ele>972.1</ele>
        <time>2018-06-12T11:31:48Z</time>
      </trkpt>
      <trkpt lat="42.329228" lon="0.922693">
        <ele>971.4</ele>
        <time>2018-06-12T11:31:50Z</time>
      </trkpt>
      <trkpt lat="42.329234" lon="0.922546">
        <ele>968.8</ele>
        <time>2018-06-12T11:31:53Z</time>
      </trkpt>
      <trkpt lat="42.329221" lon="0.922401">
        <ele>967.4</ele>
        <time>2018-06-12T11:31:56Z</time>
      </trkpt>
      <trkpt lat="42.329195" lon="0.922293">
        <ele>968.4</ele>
        <time>2018-06-12T11:31:58Z</time>
      </trkpt>
      <trkpt lat="42.329144" lon="0.922145">
        <ele>970.6</ele>
        <time>2018-06-12T11:32:01Z</time>
      </trkpt>
      <trkpt lat="42.329029" lon="0.921919">
        <ele>972.0</ele>
        <time>2018-06-12T11:32:07Z</time>
      </trkpt>
      <trkpt lat="42.328902" lon="0.921646">
        <ele>972.3</ele>
        <time>2018-06-12T11:32:13Z</time>
      </trkpt>
      <trkpt lat="42.328819" lon="0.921395">
        <ele>972.2</ele>
        <time>2018-06-12T11:32:18Z</time>
      </trkpt>
      <trkpt lat="42.328763" lon="0.921232">
        <ele>972.5</ele>
        <time>2018-06-12T11:32:22Z</time>
      </trkpt>
      <trkpt lat="42.328706" lon="0.921124">
        <ele>972.5</ele>
        <time>2018-06-12T11:32:25Z</time>
      </trkpt>
      <trkpt lat="42.328613" lon="0.921025">
        <ele>973.1</ele>
        <time>2018-06-12T11:32:28Z</time>
      </trkpt>
      <trkpt lat="42.328531" lon="0.920922">
        <ele>973.5</ele>
        <time>2018-06-12T11:32:31Z</time>
      </trkpt>
      <trkpt lat="42.328446" lon="0.920861">
        <ele>974.4</ele>
        <time>2018-06-12T11:32:33Z</time>
      </trkpt>
      <trkpt lat="42.328384" lon="0.920793">
        <ele>974.5</ele>
        <time>2018-06-12T11:32:35Z</time>
      </trkpt>
      <trkpt lat="42.328361" lon="0.920721">
        <ele>974.0</ele>
        <time>2018-06-12T11:32:37Z</time>
      </trkpt>
      <trkpt lat="42.328337" lon="0.920628">
        <ele>973.7</ele>
        <time>2018-06-12T11:32:39Z</time>
      </trkpt>
      <trkpt lat="42.328310" lon="0.920472">
        <ele>973.5</ele>
        <time>2018-06-12T11:32:42Z</time>
      </trkpt>
      <trkpt lat="42.328282" lon="0.920237">
        <ele>974.9</ele>
        <time>2018-06-12T11:32:46Z</time>
      </trkpt>
      <trkpt lat="42.328271" lon="0.920012">
        <ele>975.9</ele>
        <time>2018-06-12T11:32:51Z</time>
      </trkpt>
      <trkpt lat="42.328249" lon="0.919880">
        <ele>976.8</ele>
        <time>2018-06-12T11:32:53Z</time>
      </trkpt>
      <trkpt lat="42.328217" lon="0.919770">
        <ele>978.0</ele>
        <time>2018-06-12T11:32:56Z</time>
      </trkpt>
      <trkpt lat="42.328173" lon="0.919686">
        <ele>979.4</ele>
        <time>2018-06-12T11:32:58Z</time>
      </trkpt>
      <trkpt lat="42.328108" lon="0.919619">
        <ele>980.6</ele>
        <time>2018-06-12T11:33:00Z</time>
      </trkpt>
      <trkpt lat="42.328035" lon="0.919542">
        <ele>981.5</ele>
        <time>2018-06-12T11:33:02Z</time>
      </trkpt>
      <trkpt lat="42.327970" lon="0.919468">
        <ele>982.4</ele>
        <time>2018-06-12T11:33:05Z</time>
      </trkpt>
      <trkpt lat="42.327924" lon="0.919401">
        <ele>983.2</ele>
        <time>2018-06-12T11:33:06Z</time>
      </trkpt>
      <trkpt lat="42.327912" lon="0.919344">
        <ele>983.2</ele>
        <time>2018-06-12T11:33:08Z</time>
      </trkpt>
      <trkpt lat="42.327920" lon="0.919266">
        <ele>982.5</ele>
        <time>2018-06-12T11:33:09Z</time>
      </trkpt>
      <trkpt lat="42.327964" lon="0.919169">
        <ele>980.4</ele>
        <time>2018-06-12T11:33:11Z</time>
      </trkpt>
      <trkpt lat="42.328073" lon="0.919021">
        <ele>977.3</ele>
        <time>2018-06-12T11:33:16Z</time>
      </trkpt>
      <trkpt lat="42.328239" lon="0.918751">
        <ele>976.0</ele>
        <time>2018-06-12T11:33:22Z</time>
      </trkpt>
      <trkpt lat="42.328362" lon="0.918593">
        <ele>975.3</ele>
        <time>2018-06-12T11:33:27Z</time>
      </trkpt>
      <trkpt lat="42.328408" lon="0.918532">
        <ele>974.9</ele>
        <time>2018-06-12T11:33:29Z</time>
      </trkpt>
      <trkpt lat="42.328433" lon="0.918471">
        <ele>975.0</ele>
        <time>2018-06-12T11:33:30Z</time>
      </trkpt>
      <trkpt lat="42.328399" lon="0.918439">
        <ele>976.3</ele>
        <time>2018-06-12T11:33:31Z</time>
      </trkpt>
      <trkpt lat="42.328334" lon="0.918453">
        <ele>977.8</ele>
        <time>2018-06-12T11:33:33Z</time>
      </trkpt>
      <trkpt lat="42.328270" lon="0.918488">
        <ele>978.9</ele>
        <time>2018-06-12T11:33:35Z</time>
      </trkpt>
      <trkpt lat="42.328171" lon="0.918589">
        <ele>979.8</ele>
        <time>2018-06-12T11:33:38Z</time>
      </trkpt>
      <trkpt lat="42.327974" lon="0.918884">
        <ele>980.8</ele>
        <time>2018-06-12T11:33:46Z</time>
      </trkpt>
      <trkpt lat="42.327877" lon="0.918985">
        <ele>981.8</ele>
        <time>2018-06-12T11:33:49Z</time>
      </trkpt>
      <trkpt lat="42.327805" lon="0.919020">
        <ele>983.7</ele>
        <time>2018-06-12T11:33:51Z</time>
      </trkpt>
      <trkpt lat="42.327700" lon="0.919021">
        <ele>987.1</ele>
        <time>2018-06-12T11:33:54Z</time>
      </trkpt>
      <trkpt lat="42.327637" lon="0.918998">
        <ele>989.2</ele>
        <time>2018-06-12T11:33:56Z</time>
      </trkpt>
      <trkpt lat="42.327545" lon="0.918980">
        <ele>991.8</ele>
        <time>2018-06-12T11:33:58Z</time>
      </trkpt>
      <trkpt lat="42.327479" lon="0.918977">
        <ele>993.5</ele>
        <time>2018-06-12T11:34:00Z</time>
      </trkpt>
      <trkpt lat="42.327406" lon="0.919000">
        <ele>995.1</ele>
        <time>2018-06-12T11:34:02Z</time>
      </trkpt>
      <trkpt lat="42.327335" lon="0.919072">
        <ele>997.6</ele>
        <time>2018-06-12T11:34:04Z</time>
      </trkpt>
      <trkpt lat="42.327285" lon="0.919155">
        <ele>1000.1</ele>
        <time>2018-06-12T11:34:07Z</time>
      </trkpt>
      <trkpt lat="42.327174" lon="0.919332">
        <ele>1002.4</ele>
        <time>2018-06-12T11:34:11Z</time>
      </trkpt>
      <trkpt lat="42.327144" lon="0.919402">
        <ele>1002.7</ele>
        <time>2018-06-12T11:34:13Z</time>
      </trkpt>
      <trkpt lat="42.327149" lon="0.919485">
        <ele>1002.9</ele>
        <time>2018-06-12T11:34:14Z</time>
      </trkpt>
      <trkpt lat="42.327177" lon="0.919547">
        <ele>1002.6</ele>
        <time>2018-06-12T11:34:16Z</time>
      </trkpt>
      <trkpt lat="42.327282" lon="0.919587">
        <ele>1000.0</ele>
        <time>2018-06-12T11:34:19Z</time>
      </trkpt>
      <trkpt lat="42.327345" lon="0.919605">
        <ele>998.4</ele>
        <time>2018-06-12T11:34:20Z</time>
      </trkpt>
      <trkpt lat="42.327395" lon="0.919639">
        <ele>996.8</ele>
        <time>2018-06-12T11:34:22Z</time>
      </trkpt>
      <trkpt lat="42.327430" lon="0.919697">
        <ele>995.5</ele>
        <time>2018-06-12T11:34:23Z</time>
      </trkpt>
      <trkpt lat="42.327460" lon="0.919818">
        <ele>994.6</ele>
        <time>2018-06-12T11:34:26Z</time>
      </trkpt>
      <trkpt lat="42.327511" lon="0.920073">
        <ele>995.5</ele>
        <time>2018-06-12T11:34:31Z</time>
      </trkpt>
      <trkpt lat="42.327547" lon="0.920503">
        <ele>994.6</ele>
        <time>2018-06-12T11:34:39Z</time>
      </trkpt>
      <trkpt lat="42.327538" lon="0.920615">
        <ele>994.9</ele>
        <time>2018-06-12T11:34:42Z</time>
      </trkpt>
      <trkpt lat="42.327519" lon="0.920758">
        <ele>996.3</ele>
        <time>2018-06-12T11:34:45Z</time>
      </trkpt>
      <trkpt lat="42.327455" lon="0.921073">
        <ele>1002.1</ele>
        <time>2018-06-12T11:34:51Z</time>
      </trkpt>
      <trkpt lat="42.327436" lon="0.921186">
        <ele>1004.2</ele>
        <time>2018-06-12T11:34:53Z</time>
      </trkpt>
      <trkpt lat="42.327422" lon="0.921313">
        <ele>1006.2</ele>
        <time>2018-06-12T11:34:56Z</time>
      </trkpt>
      <trkpt lat="42.327401" lon="0.921385">
        <ele>1007.5</ele>
        <time>2018-06-12T11:34:57Z</time>
      </trkpt>
      <trkpt lat="42.327355" lon="0.921438">
        <ele>1009.1</ele>
        <time>2018-06-12T11:34:59Z</time>
      </trkpt>
      <trkpt lat="42.327291" lon="0.921469">
        <ele>1010.7</ele>
        <time>2018-06-12T11:35:01Z</time>
      </trkpt>
      <trkpt lat="42.327197" lon="0.921453">
        <ele>1012.5</ele>
        <time>2018-06-12T11:35:03Z</time>
      </trkpt>
      <trkpt lat="42.327123" lon="0.921402">
        <ele>1013.7</ele>
        <time>2018-06-12T11:35:06Z</time>
      </trkpt>
      <trkpt lat="42.327045" lon="0.921290">
        <ele>1015.3</ele>
        <time>2018-06-12T11:35:09Z</time>
      </trkpt>
      <trkpt lat="42.327004" lon="0.921152">
        <ele>1015.0</ele>
        <time>2018-06-12T11:35:12Z</time>
      </trkpt>
      <trkpt lat="42.326992" lon="0.920978">
        <ele>1013.0</ele>
        <time>2018-06-12T11:35:15Z</time>
      </trkpt>
      <trkpt lat="42.327021" lon="0.920725">
        <ele>1012.5</ele>
        <time>2018-06-12T11:35:20Z</time>
      </trkpt>
      <trkpt lat="42.327042" lon="0.920560">
        <ele>1012.0</ele>
        <time>2018-06-12T11:35:23Z</time>
      </trkpt>
      <trkpt lat="42.327031" lon="0.920199">
        <ele>1009.9</ele>
        <time>2018-06-12T11:35:30Z</time>
      </trkpt>
      <trkpt lat="42.326995" lon="0.920073">
        <ele>1010.1</ele>
        <time>2018-06-12T11:35:33Z</time>
      </trkpt>
      <trkpt lat="42.326954" lon="0.920035">
        <ele>1010.9</ele>
        <time>2018-06-12T11:35:34Z</time>
      </trkpt>
      <trkpt lat="42.326919" lon="0.920043">
        <ele>1011.7</ele>
        <time>2018-06-12T11:35:35Z</time>
      </trkpt>
      <trkpt lat="42.326892" lon="0.920075">
        <ele>1012.5</ele>
        <time>2018-06-12T11:35:36Z</time>
      </trkpt>
      <trkpt lat="42.326886" lon="0.920120">
        <ele>1012.9</ele>
        <time>2018-06-12T11:35:37Z</time>
      </trkpt>
      <trkpt lat="42.326901" lon="0.920251">
        <ele>1013.5</ele>
        <time>2018-06-12T11:35:40Z</time>
      </trkpt>
      <trkpt lat="42.326914" lon="0.920383">
        <ele>1014.4</ele>
        <time>2018-06-12T11:35:42Z</time>
      </trkpt>
      <trkpt lat="42.326902" lon="0.920475">
        <ele>1015.1</ele>
        <time>2018-06-12T11:35:44Z</time>
      </trkpt>
      <trkpt lat="42.326875" lon="0.920557">
        <ele>1015.9</ele>
        <time>2018-06-12T11:35:46Z</time>
      </trkpt>
      <trkpt lat="42.326759" lon="0.920692">
        <ele>1019.2</ele>
        <time>2018-06-12T11:35:50Z</time>
      </trkpt>
      <trkpt lat="42.326646" lon="0.920829">
        <ele>1021.9</ele>
        <time>2018-06-12T11:35:54Z</time>
      </trkpt>
      <trkpt lat="42.326585" lon="0.920943">
        <ele>1023.0</ele>
        <time>2018-06-12T11:35:57Z</time>
      </trkpt>
      <trkpt lat="42.326540" lon="0.921083">
        <ele>1025.4</ele>
        <time>2018-06-12T11:36:00Z</time>
      </trkpt>
      <trkpt lat="42.326527" lon="0.921221">
        <ele>1027.6</ele>
        <time>2018-06-12T11:36:03Z</time>
      </trkpt>
      <trkpt lat="42.326553" lon="0.921334">
        <ele>1029.0</ele>
        <time>2018-06-12T11:36:05Z</time>
      </trkpt>
      <trkpt lat="42.326671" lon="0.921650">
        <ele>1031.9</ele>
        <time>2018-06-12T11:36:12Z</time>
      </trkpt>
      <trkpt lat="42.326755" lon="0.921816">
        <ele>1031.8</ele>
        <time>2018-06-12T11:36:16Z</time>
      </trkpt>
      <trkpt lat="42.326847" lon="0.921940">
        <ele>1034.3</ele>
        <time>2018-06-12T11:36:19Z</time>
      </trkpt>
      <trkpt lat="42.326935" lon="0.922045">
        <ele>1035.5</ele>
        <time>2018-06-12T11:36:22Z</time>
      </trkpt>
      <trkpt lat="42.327010" lon="0.922099">
        <ele>1035.0</ele>
        <time>2018-06-12T11:36:25Z</time>
      </trkpt>
      <trkpt lat="42.327090" lon="0.922187">
        <ele>1036.2</ele>
        <time>2018-06-12T11:36:27Z</time>
      </trkpt>
      <trkpt lat="42.327145" lon="0.922280">
        <ele>1037.7</ele>
        <time>2018-06-12T11:36:30Z</time>
      </trkpt>
      <trkpt lat="42.327184" lon="0.922363">
        <ele>1039.3</ele>
        <time>2018-06-12T11:36:32Z</time>
      </trkpt>
      <trkpt lat="42.327248" lon="0.922510">
        <ele>1038.8</ele>
        <time>2018-06-12T11:36:35Z</time>
      </trkpt>
      <trkpt lat="42.327339" lon="0.922678">
        <ele>1038.5</ele>
        <time>2018-06-12T11:36:39Z</time>
      </trkpt>
      <trkpt lat="42.327444" lon="0.922787">
        <ele>1038.3</ele>
        <time>2018-06-12T11:36:42Z</time>
      </trkpt>
      <trkpt lat="42.327555" lon="0.922860">
        <ele>1037.6</ele>
        <time>2018-06-12T11:36:46Z</time>
      </trkpt>
      <trkpt lat="42.327711" lon="0.922943">
        <ele>1037.3</ele>
        <time>2018-06-12T11:36:50Z</time>
      </trkpt>
      <trkpt lat="42.327799" lon="0.923052">
        <ele>1038.2</ele>
        <time>2018-06-12T11:36:53Z</time>
      </trkpt>
      <trkpt lat="42.327833" lon="0.923147">
        <ele>1038.9</ele>
        <time>2018-06-12T11:36:55Z</time>
      </trkpt>
      <trkpt lat="42.327843" lon="0.923297">
        <ele>1039.3</ele>
        <time>2018-06-12T11:36:58Z</time>
      </trkpt>
      <trkpt lat="42.327822" lon="0.923430">
        <ele>1039.6</ele>
        <time>2018-06-12T11:37:01Z</time>
      </trkpt>
      <trkpt lat="42.327728" lon="0.923687">
        <ele>1042.2</ele>
        <time>2018-06-12T11:37:06Z</time>
      </trkpt>
      <trkpt lat="42.327686" lon="0.923750">
        <ele>1043.6</ele>
        <time>2018-06-12T11:37:08Z</time>
      </trkpt>
      <trkpt lat="42.327648" lon="0.923763">
        <ele>1044.7</ele>
        <time>2018-06-12T11:37:09Z</time>
      </trkpt>
      <trkpt lat="42.327615" lon="0.923751">
        <ele>1045.1</ele>
        <time>2018-06-12T11:37:10Z</time>
      </trkpt>
      <trkpt lat="42.327583" lon="0.923711">
        <ele>1044.9</ele>
        <time>2018-06-12T11:37:11Z</time>
      </trkpt>
      <trkpt lat="42.327584" lon="0.923643">
        <ele>1044.5</ele>
        <time>2018-06-12T11:37:13Z</time>
      </trkpt>
      <trkpt lat="42.327604" lon="0.923589">
        <ele>1044.0</ele>
        <time>2018-06-12T11:37:14Z</time>
      </trkpt>
      <trkpt lat="42.327635" lon="0.923512">
        <ele>1043.3</ele>
        <time>2018-06-12T11:37:16Z</time>
      </trkpt>
      <trkpt lat="42.327649" lon="0.923420">
        <ele>1042.3</ele>
        <time>2018-06-12T11:37:17Z</time>
      </trkpt>
      <trkpt lat="42.327633" lon="0.923337">
        <ele>1041.6</ele>
        <time>2018-06-12T11:37:19Z</time>
      </trkpt>
      <trkpt lat="42.327591" lon="0.923284">
        <ele>1041.7</ele>
        <time>2018-06-12T11:37:21Z</time>
      </trkpt>
      <trkpt lat="42.327541" lon="0.923262">
        <ele>1042.2</ele>
        <time>2018-06-12T11:37:22Z</time>
      </trkpt>
      <trkpt lat="42.327474" lon="0.923255">
        <ele>1043.2</ele>
        <time>2018-06-12T11:37:24Z</time>
      </trkpt>
      <trkpt lat="42.327352" lon="0.923268">
        <ele>1045.2</ele>
        <time>2018-06-12T11:37:27Z</time>
      </trkpt>
      <trkpt lat="42.327297" lon="0.923270">
        <ele>1046.3</ele>
        <time>2018-06-12T11:37:28Z</time>
      </trkpt>
      <trkpt lat="42.327169" lon="0.923251">
        <ele>1049.0</ele>
        <time>2018-06-12T11:37:32Z</time>
      </trkpt>
      <trkpt lat="42.326963" lon="0.923212">
        <ele>1056.1</ele>
        <time>2018-06-12T11:37:38Z</time>
      </trkpt>
      <trkpt lat="42.326768" lon="0.923190">
        <ele>1064.4</ele>
        <time>2018-06-12T11:37:43Z</time>
      </trkpt>
      <trkpt lat="42.326640" lon="0.923165">
        <ele>1069.0</ele>
        <time>2018-06-12T11:37:47Z</time>
      </trkpt>
      <trkpt lat="42.326529" lon="0.923081">
        <ele>1071.5</ele>
        <time>2018-06-12T11:37:50Z</time>
      </trkpt>
      <trkpt lat="42.326440" lon="0.922970">
        <ele>1071.9</ele>
        <time>2018-06-12T11:37:53Z</time>
      </trkpt>
      <trkpt lat="42.326397" lon="0.922884">
        <ele>1071.5</ele>
        <time>2018-06-12T11:37:55Z</time>
      </trkpt>
      <trkpt lat="42.326328" lon="0.922737">
        <ele>1069.8</ele>
        <time>2018-06-12T11:37:59Z</time>
      </trkpt>
      <trkpt lat="42.326207" lon="0.922420">
        <ele>1058.5</ele>
        <time>2018-06-12T11:38:06Z</time>
      </trkpt>
      <trkpt lat="42.326118" lon="0.922230">
        <ele>1054.3</ele>
        <time>2018-06-12T11:38:11Z</time>
      </trkpt>
      <trkpt lat="42.326012" lon="0.922135">
        <ele>1053.7</ele>
        <time>2018-06-12T11:38:14Z</time>
      </trkpt>
      <trkpt lat="42.325905" lon="0.922059">
        <ele>1053.9</ele>
        <time>2018-06-12T11:38:17Z</time>
      </trkpt>
      <trkpt lat="42.325829" lon="0.922045">
        <ele>1055.3</ele>
        <time>2018-06-12T11:38:19Z</time>
      </trkpt>
      <trkpt lat="42.325732" lon="0.922055">
        <ele>1057.6</ele>
        <time>2018-06-12T11:38:22Z</time>
      </trkpt>
      <trkpt lat="42.325645" lon="0.922098">
        <ele>1059.5</ele>
        <time>2018-06-12T11:38:24Z</time>
      </trkpt>
      <trkpt lat="42.325561" lon="0.922171">
        <ele>1060.6</ele>
        <time>2018-06-12T11:38:27Z</time>
      </trkpt>
      <trkpt lat="42.325348" lon="0.922412">
        <ele>1062.4</ele>
        <time>2018-06-12T11:38:34Z</time>
      </trkpt>
      <trkpt lat="42.325295" lon="0.922455">
        <ele>1062.6</ele>
        <time>2018-06-12T11:38:36Z</time>
      </trkpt>
      <trkpt lat="42.325226" lon="0.922469">
        <ele>1062.8</ele>
        <time>2018-06-12T11:38:38Z</time>
      </trkpt>
      <trkpt lat="42.325122" lon="0.922461">
        <ele>1063.2</ele>
        <time>2018-06-12T11:38:41Z</time>
      </trkpt>
      <trkpt lat="42.324993" lon="0.922420">
        <ele>1063.4</ele>
        <time>2018-06-12T11:38:44Z</time>
      </trkpt>
      <trkpt lat="42.324867" lon="0.922353">
        <ele>1064.1</ele>
        <time>2018-06-12T11:38:48Z</time>
      </trkpt>
      <trkpt lat="42.324764" lon="0.922297">
        <ele>1065.0</ele>
        <time>2018-06-12T11:38:51Z</time>
      </trkpt>
      <trkpt lat="42.324675" lon="0.922218">
        <ele>1066.9</ele>
        <time>2018-06-12T11:38:53Z</time>
      </trkpt>
      <trkpt lat="42.324591" lon="0.922150">
        <ele>1069.2</ele>
        <time>2018-06-12T11:38:56Z</time>
      </trkpt>
      <trkpt lat="42.324504" lon="0.922110">
        <ele>1070.7</ele>
        <time>2018-06-12T11:38:58Z</time>
      </trkpt>
      <trkpt lat="42.324366" lon="0.922076">
        <ele>1072.8</ele>
        <time>2018-06-12T11:39:02Z</time>
      </trkpt>
      <trkpt lat="42.324254" lon="0.922045">
        <ele>1074.0</ele>
        <time>2018-06-12T11:39:05Z</time>
      </trkpt>
      <trkpt lat="42.324152" lon="0.922000">
        <ele>1074.7</ele>
        <time>2018-06-12T11:39:08Z</time>
      </trkpt>
      <trkpt lat="42.324075" lon="0.921947">
        <ele>1075.9</ele>
        <time>2018-06-12T11:39:10Z</time>
      </trkpt>
      <trkpt lat="42.323972" lon="0.921892">
        <ele>1076.3</ele>
        <time>2018-06-12T11:39:13Z</time>
      </trkpt>
      <trkpt lat="42.323788" lon="0.921762">
        <ele>1078.6</ele>
        <time>2018-06-12T11:39:19Z</time>
      </trkpt>
      <trkpt lat="42.323599" lon="0.921625">
        <ele>1082.7</ele>
        <time>2018-06-12T11:39:25Z</time>
      </trkpt>
      <trkpt lat="42.323485" lon="0.921565">
        <ele>1083.7</ele>
        <time>2018-06-12T11:39:28Z</time>
      </trkpt>
      <trkpt lat="42.323399" lon="0.921544">
        <ele>1085.2</ele>
        <time>2018-06-12T11:39:30Z</time>
      </trkpt>
      <trkpt lat="42.323321" lon="0.921532">
        <ele>1086.5</ele>
        <time>2018-06-12T11:39:32Z</time>
      </trkpt>
      <trkpt lat="42.323226" lon="0.921539">
        <ele>1087.2</ele>
        <time>2018-06-12T11:39:35Z</time>
      </trkpt>
      <trkpt lat="42.323145" lon="0.921531">
        <ele>1088.2</ele>
        <time>2018-06-12T11:39:37Z</time>
      </trkpt>
      <trkpt lat="42.323033" lon="0.921474">
        <ele>1090.6</ele>
        <time>2018-06-12T11:39:40Z</time>
      </trkpt>
      <trkpt lat="42.322952" lon="0.921389">
        <ele>1093.3</ele>
        <time>2018-06-12T11:39:43Z</time>
      </trkpt>
      <trkpt lat="42.322860" lon="0.921322">
        <ele>1093.6</ele>
        <time>2018-06-12T11:39:46Z</time>
      </trkpt>
      <trkpt lat="42.322766" lon="0.921262">
        <ele>1091.9</ele>
        <time>2018-06-12T11:39:48Z</time>
      </trkpt>
      <trkpt lat="42.322693" lon="0.921222">
        <ele>1090.2</ele>
        <time>2018-06-12T11:39:50Z</time>
      </trkpt>
      <trkpt lat="42.322579" lon="0.921163">
        <ele>1089.7</ele>
        <time>2018-06-12T11:39:54Z</time>
      </trkpt>
      <trkpt lat="42.322490" lon="0.921059">
        <ele>1092.2</ele>
        <time>2018-06-12T11:39:57Z</time>
      </trkpt>
      <trkpt lat="42.322472" lon="0.920980">
        <ele>1094.0</ele>
        <time>2018-06-12T11:39:58Z</time>
      </trkpt>
      <trkpt lat="42.322492" lon="0.920907">
        <ele>1095.8</ele>
        <time>2018-06-12T11:40:00Z</time>
      </trkpt>
      <trkpt lat="42.322546" lon="0.920858">
        <ele>1096.5</ele>
        <time>2018-06-12T11:40:02Z</time>
      </trkpt>
      <trkpt lat="42.322657" lon="0.920854">
        <ele>1095.9</ele>
        <time>2018-06-12T11:40:05Z</time>
      </trkpt>
      <trkpt lat="42.322821" lon="0.920876">
        <ele>1098.4</ele>
        <time>2018-06-12T11:40:09Z</time>
      </trkpt>
      <trkpt lat="42.322940" lon="0.920928">
        <ele>1099.5</ele>
        <time>2018-06-12T11:40:12Z</time>
      </trkpt>
      <trkpt lat="42.323067" lon="0.921006">
        <ele>1100.7</ele>
        <time>2018-06-12T11:40:16Z</time>
      </trkpt>
      <trkpt lat="42.323138" lon="0.921053">
        <ele>1100.9</ele>
        <time>2018-06-12T11:40:18Z</time>
      </trkpt>
      <trkpt lat="42.323174" lon="0.921058">
        <ele>1101.2</ele>
        <time>2018-06-12T11:40:19Z</time>
      </trkpt>
      <trkpt lat="42.323205" lon="0.921048">
        <ele>1101.7</ele>
        <time>2018-06-12T11:40:20Z</time>
      </trkpt>
      <trkpt lat="42.323224" lon="0.921012">
        <ele>1102.6</ele>
        <time>2018-06-12T11:40:21Z</time>
      </trkpt>
      <trkpt lat="42.323220" lon="0.920972">
        <ele>1103.7</ele>
        <time>2018-06-12T11:40:22Z</time>
      </trkpt>
      <trkpt lat="42.323192" lon="0.920917">
        <ele>1105.0</ele>
        <time>2018-06-12T11:40:23Z</time>
      </trkpt>
      <trkpt lat="42.323088" lon="0.920819">
        <ele>1104.7</ele>
        <time>2018-06-12T11:40:26Z</time>
      </trkpt>
      <trkpt lat="42.322953" lon="0.920666">
        <ele>1105.3</ele>
        <time>2018-06-12T11:40:31Z</time>
      </trkpt>
      <trkpt lat="42.322865" lon="0.920545">
        <ele>1106.3</ele>
        <time>2018-06-12T11:40:34Z</time>
      </trkpt>
      <trkpt lat="42.322784" lon="0.920455">
        <ele>1106.8</ele>
        <time>2018-06-12T11:40:37Z</time>
      </trkpt>
      <trkpt lat="42.322726" lon="0.920352">
        <ele>1107.9</ele>
        <time>2018-06-12T11:40:40Z</time>
      </trkpt>
      <trkpt lat="42.322687" lon="0.920215">
        <ele>1110.1</ele>
        <time>2018-06-12T11:40:42Z</time>
      </trkpt>
      <trkpt lat="42.322647" lon="0.920121">
        <ele>1111.3</ele>
        <time>2018-06-12T11:40:45Z</time>
      </trkpt>
      <trkpt lat="42.322607" lon="0.920080">
        <ele>1112.0</ele>
        <time>2018-06-12T11:40:46Z</time>
      </trkpt>
      <trkpt lat="42.322540" lon="0.920078">
        <ele>1112.7</ele>
        <time>2018-06-12T11:40:48Z</time>
      </trkpt>
      <trkpt lat="42.322462" lon="0.920126">
        <ele>1113.1</ele>
        <time>2018-06-12T11:40:50Z</time>
      </trkpt>
      <trkpt lat="42.322406" lon="0.920160">
        <ele>1113.1</ele>
        <time>2018-06-12T11:40:52Z</time>
      </trkpt>
      <trkpt lat="42.322352" lon="0.920143">
        <ele>1114.2</ele>
        <time>2018-06-12T11:40:53Z</time>
      </trkpt>
      <trkpt lat="42.322328" lon="0.920074">
        <ele>1115.8</ele>
        <time>2018-06-12T11:40:55Z</time>
      </trkpt>
      <trkpt lat="42.322335" lon="0.920002">
        <ele>1116.5</ele>
        <time>2018-06-12T11:40:56Z</time>
      </trkpt>
      <trkpt lat="42.322393" lon="0.919908">
        <ele>1116.1</ele>
        <time>2018-06-12T11:40:58Z</time>
      </trkpt>
      <trkpt lat="42.322476" lon="0.919834">
        <ele>1116.1</ele>
        <time>2018-06-12T11:41:01Z</time>
      </trkpt>
      <trkpt lat="42.322580" lon="0.919770">
        <ele>1115.9</ele>
        <time>2018-06-12T11:41:04Z</time>
      </trkpt>
      <trkpt lat="42.322703" lon="0.919766">
        <ele>1115.9</ele>
        <time>2018-06-12T11:41:07Z</time>
      </trkpt>
      <trkpt lat="42.322789" lon="0.919802">
        <ele>1116.2</ele>
        <time>2018-06-12T11:41:10Z</time>
      </trkpt>
      <trkpt lat="42.322855" lon="0.919867">
        <ele>1116.3</ele>
        <time>2018-06-12T11:41:12Z</time>
      </trkpt>
      <trkpt lat="42.322944" lon="0.919981">
        <ele>1116.1</ele>
        <time>2018-06-12T11:41:15Z</time>
      </trkpt>
      <trkpt lat="42.323012" lon="0.920050">
        <ele>1115.5</ele>
        <time>2018-06-12T11:41:17Z</time>
      </trkpt>
      <trkpt lat="42.323058" lon="0.920063">
        <ele>1115.4</ele>
        <time>2018-06-12T11:41:19Z</time>
      </trkpt>
      <trkpt lat="42.323100" lon="0.920039">
        <ele>1115.5</ele>
        <time>2018-06-12T11:41:20Z</time>
      </trkpt>
      <trkpt lat="42.323111" lon="0.919985">
        <ele>1115.7</ele>
        <time>2018-06-12T11:41:21Z</time>
      </trkpt>
      <trkpt lat="42.323101" lon="0.919923">
        <ele>1116.0</ele>
        <time>2018-06-12T11:41:22Z</time>
      </trkpt>
      <trkpt lat="42.323020" lon="0.919807">
        <ele>1116.9</ele>
        <time>2018-06-12T11:41:25Z</time>
      </trkpt>
      <trkpt lat="42.322985" lon="0.919699">
        <ele>1117.6</ele>
        <time>2018-06-12T11:41:27Z</time>
      </trkpt>
      <trkpt lat="42.322961" lon="0.919531">
        <ele>1118.8</ele>
        <time>2018-06-12T11:41:31Z</time>
      </trkpt>
      <trkpt lat="42.322943" lon="0.919372">
        <ele>1120.1</ele>
        <time>2018-06-12T11:41:34Z</time>
      </trkpt>
      <trkpt lat="42.322872" lon="0.919145">
        <ele>1121.9</ele>
        <time>2018-06-12T11:41:39Z</time>
      </trkpt>
      <trkpt lat="42.322804" lon="0.918944">
        <ele>1123.8</ele>
        <time>2018-06-12T11:41:43Z</time>
      </trkpt>
      <trkpt lat="42.322748" lon="0.918820">
        <ele>1125.3</ele>
        <time>2018-06-12T11:41:46Z</time>
      </trkpt>
      <trkpt lat="42.322616" lon="0.918585">
        <ele>1127.9</ele>
        <time>2018-06-12T11:41:52Z</time>
      </trkpt>
      <trkpt lat="42.322433" lon="0.918407">
        <ele>1132.1</ele>
        <time>2018-06-12T11:41:58Z</time>
      </trkpt>
      <trkpt lat="42.322320" lon="0.918259">
        <ele>1135.0</ele>
        <time>2018-06-12T11:42:02Z</time>
      </trkpt>
      <trkpt lat="42.322245" lon="0.918163">
        <ele>1136.4</ele>
        <time>2018-06-12T11:42:05Z</time>
      </trkpt>
      <trkpt lat="42.322101" lon="0.918110">
        <ele>1138.1</ele>
        <time>2018-06-12T11:42:09Z</time>
      </trkpt>
      <trkpt lat="42.322022" lon="0.918088">
        <ele>1139.0</ele>
        <time>2018-06-12T11:42:11Z</time>
      </trkpt>
      <trkpt lat="42.321969" lon="0.917980">
        <ele>1140.0</ele>
        <time>2018-06-12T11:42:13Z</time>
      </trkpt>
      <trkpt lat="42.321941" lon="0.917820">
        <ele>1141.4</ele>
        <time>2018-06-12T11:42:17Z</time>
      </trkpt>
      <trkpt lat="42.321902" lon="0.917634">
        <ele>1143.9</ele>
        <time>2018-06-12T11:42:20Z</time>
      </trkpt>
      <trkpt lat="42.321832" lon="0.917477">
        <ele>1144.8</ele>
        <time>2018-06-12T11:42:24Z</time>
      </trkpt>
      <trkpt lat="42.321757" lon="0.917437">
        <ele>1147.1</ele>
        <time>2018-06-12T11:42:26Z</time>
      </trkpt>
      <trkpt lat="42.321662" lon="0.917486">
        <ele>1150.4</ele>
        <time>2018-06-12T11:42:29Z</time>
      </trkpt>
      <trkpt lat="42.321546" lon="0.917579">
        <ele>1153.9</ele>
        <time>2018-06-12T11:42:33Z</time>
      </trkpt>
      <trkpt lat="42.321388" lon="0.917786">
        <ele>1154.7</ele>
        <time>2018-06-12T11:42:38Z</time>
      </trkpt>
      <trkpt lat="42.321248" lon="0.918045">
        <ele>1160.9</ele>
        <time>2018-06-12T11:42:45Z</time>
      </trkpt>
      <trkpt lat="42.321182" lon="0.918209">
        <ele>1165.6</ele>
        <time>2018-06-12T11:42:49Z</time>
      </trkpt>
      <trkpt lat="42.321158" lon="0.918466">
        <ele>1165.3</ele>
        <time>2018-06-12T11:42:54Z</time>
      </trkpt>
      <trkpt lat="42.321129" lon="0.918785">
        <ele>1163.5</ele>
        <time>2018-06-12T11:43:00Z</time>
      </trkpt>
      <trkpt lat="42.321098" lon="0.919042">
        <ele>1159.5</ele>
        <time>2018-06-12T11:43:05Z</time>
      </trkpt>
      <trkpt lat="42.321067" lon="0.919287">
        <ele>1157.5</ele>
        <time>2018-06-12T11:43:10Z</time>
      </trkpt>
      <trkpt lat="42.321037" lon="0.919492">
        <ele>1156.5</ele>
        <time>2018-06-12T11:43:14Z</time>
      </trkpt>
      <trkpt lat="42.320969" lon="0.919660">
        <ele>1157.3</ele>
        <time>2018-06-12T11:43:18Z</time>
      </trkpt>
      <trkpt lat="42.320881" lon="0.919808">
        <ele>1158.7</ele>
        <time>2018-06-12T11:43:21Z</time>
      </trkpt>
      <trkpt lat="42.320816" lon="0.919929">
        <ele>1158.1</ele>
        <time>2018-06-12T11:43:24Z</time>
      </trkpt>
      <trkpt lat="42.320660" lon="0.920154">
        <ele>1156.4</ele>
        <time>2018-06-12T11:43:30Z</time>
      </trkpt>
      <trkpt lat="42.320377" lon="0.920408">
        <ele>1158.7</ele>
        <time>2018-06-12T11:43:39Z</time>
      </trkpt>
      <trkpt lat="42.319991" lon="0.920638">
        <ele>1160.7</ele>
        <time>2018-06-12T11:43:50Z</time>
      </trkpt>
      <trkpt lat="42.319520" lon="0.920794">
        <ele>1168.8</ele>
        <time>2018-06-12T11:44:03Z</time>
      </trkpt>
      <trkpt lat="42.319446" lon="0.920816">
        <ele>1168.2</ele>
        <time>2018-06-12T11:44:05Z</time>
      </trkpt>
      <trkpt lat="42.319363" lon="0.920780">
        <ele>1169.2</ele>
        <time>2018-06-12T11:44:08Z</time>
      </trkpt>
      <trkpt lat="42.319282" lon="0.920724">
        <ele>1170.0</ele>
        <time>2018-06-12T11:44:10Z</time>
      </trkpt>
      <trkpt lat="42.319207" lon="0.920640">
        <ele>1171.5</ele>
        <time>2018-06-12T11:44:13Z</time>
      </trkpt>
      <trkpt lat="42.319110" lon="0.920565">
        <ele>1173.0</ele>
        <time>2018-06-12T11:44:16Z</time>
      </trkpt>
      <trkpt lat="42.319010" lon="0.920528">
        <ele>1173.4</ele>
        <time>2018-06-12T11:44:18Z</time>
      </trkpt>
      <trkpt lat="42.318851" lon="0.920512">
        <ele>1171.7</ele>
        <time>2018-06-12T11:44:23Z</time>
      </trkpt>
      <trkpt lat="42.318656" lon="0.920516">
        <ele>1169.7</ele>
        <time>2018-06-12T11:44:28Z</time>
      </trkpt>
      <trkpt lat="42.318546" lon="0.920491">
        <ele>1169.9</ele>
        <time>2018-06-12T11:44:31Z</time>
      </trkpt>
      <trkpt lat="42.318450" lon="0.920344">
        <ele>1173.8</ele>
        <time>2018-06-12T11:44:35Z</time>
      </trkpt>
      <trkpt lat="42.318248" lon="0.919857">
        <ele>1180.0</ele>
        <time>2018-06-12T11:44:46Z</time>
      </trkpt>
      <trkpt lat="42.318157" lon="0.919657">
        <ele>1177.9</ele>
        <time>2018-06-12T11:44:50Z</time>
      </trkpt>
      <trkpt lat="42.318053" lon="0.919496">
        <ele>1173.8</ele>
        <time>2018-06-12T11:44:54Z</time>
      </trkpt>
      <trkpt lat="42.317885" lon="0.919343">
        <ele>1167.3</ele>
        <time>2018-06-12T11:45:00Z</time>
      </trkpt>
      <trkpt lat="42.317776" lon="0.919219">
        <ele>1163.6</ele>
        <time>2018-06-12T11:45:04Z</time>
      </trkpt>
      <trkpt lat="42.317724" lon="0.919070">
        <ele>1161.3</ele>
        <time>2018-06-12T11:45:07Z</time>
      </trkpt>
      <trkpt lat="42.317720" lon="0.918856">
        <ele>1160.8</ele>
        <time>2018-06-12T11:45:11Z</time>
      </trkpt>
      <trkpt lat="42.317731" lon="0.918622">
        <ele>1163.0</ele>
        <time>2018-06-12T11:45:16Z</time>
      </trkpt>
      <trkpt lat="42.317701" lon="0.918439">
        <ele>1164.5</ele>
        <time>2018-06-12T11:45:20Z</time>
      </trkpt>
      <trkpt lat="42.317651" lon="0.918254">
        <ele>1167.7</ele>
        <time>2018-06-12T11:45:23Z</time>
      </trkpt>
      <trkpt lat="42.317536" lon="0.918069">
        <ele>1170.5</ele>
        <time>2018-06-12T11:45:28Z</time>
      </trkpt>
      <trkpt lat="42.317416" lon="0.917960">
        <ele>1172.8</ele>
        <time>2018-06-12T11:45:32Z</time>
      </trkpt>
      <trkpt lat="42.317276" lon="0.917871">
        <ele>1175.5</ele>
        <time>2018-06-12T11:45:36Z</time>
      </trkpt>
      <trkpt lat="42.317042" lon="0.917746">
        <ele>1178.3</ele>
        <time>2018-06-12T11:45:43Z</time>
      </trkpt>
      <trkpt lat="42.316782" lon="0.917476">
        <ele>1178.2</ele>
        <time>2018-06-12T11:45:51Z</time>
      </trkpt>
      <trkpt lat="42.316502" lon="0.917077">
        <ele>1176.4</ele>
        <time>2018-06-12T11:46:02Z</time>
      </trkpt>
      <trkpt lat="42.316413" lon="0.916944">
        <ele>1174.8</ele>
        <time>2018-06-12T11:46:06Z</time>
      </trkpt>
      <trkpt lat="42.316244" lon="0.916634">
        <ele>1172.5</ele>
        <time>2018-06-12T11:46:13Z</time>
      </trkpt>
      <trkpt lat="42.316031" lon="0.916355">
        <ele>1169.3</ele>
        <time>2018-06-12T11:46:21Z</time>
      </trkpt>
      <trkpt lat="42.315893" lon="0.916214">
        <ele>1170.1</ele>
        <time>2018-06-12T11:46:26Z</time>
      </trkpt>
      <trkpt lat="42.315761" lon="0.916151">
        <ele>1171.2</ele>
        <time>2018-06-12T11:46:29Z</time>
      </trkpt>
      <trkpt lat="42.315625" lon="0.916145">
        <ele>1172.8</ele>
        <time>2018-06-12T11:46:33Z</time>
      </trkpt>
      <trkpt lat="42.315409" lon="0.916174">
        <ele>1177.6</ele>
        <time>2018-06-12T11:46:39Z</time>
      </trkpt>
      <trkpt lat="42.315293" lon="0.916204">
        <ele>1177.4</ele>
        <time>2018-06-12T11:46:42Z</time>
      </trkpt>
      <trkpt lat="42.315140" lon="0.916250">
        <ele>1177.0</ele>
        <time>2018-06-12T11:46:46Z</time>
      </trkpt>
      <trkpt lat="42.315008" lon="0.916266">
        <ele>1176.3</ele>
        <time>2018-06-12T11:46:49Z</time>
      </trkpt>
      <trkpt lat="42.314909" lon="0.916300">
        <ele>1175.2</ele>
        <time>2018-06-12T11:46:52Z</time>
      </trkpt>
      <trkpt lat="42.314818" lon="0.916411">
        <ele>1173.0</ele>
        <time>2018-06-12T11:46:55Z</time>
      </trkpt>
      <trkpt lat="42.314699" lon="0.916568">
        <ele>1170.6</ele>
        <time>2018-06-12T11:47:00Z</time>
      </trkpt>
      <trkpt lat="42.314536" lon="0.916724">
        <ele>1169.6</ele>
        <time>2018-06-12T11:47:05Z</time>
      </trkpt>
      <trkpt lat="42.314358" lon="0.916854">
        <ele>1169.0</ele>
        <time>2018-06-12T11:47:10Z</time>
      </trkpt>
      <trkpt lat="42.314293" lon="0.916874">
        <ele>1169.1</ele>
        <time>2018-06-12T11:47:12Z</time>
      </trkpt>
      <trkpt lat="42.314149" lon="0.916888">
        <ele>1170.0</ele>
        <time>2018-06-12T11:47:16Z</time>
      </trkpt>
      <trkpt lat="42.313997" lon="0.916870">
        <ele>1171.6</ele>
        <time>2018-06-12T11:47:20Z</time>
      </trkpt>
      <trkpt lat="42.313816" lon="0.916824">
        <ele>1173.6</ele>
        <time>2018-06-12T11:47:25Z</time>
      </trkpt>
      <trkpt lat="42.313670" lon="0.916853">
        <ele>1174.6</ele>
        <time>2018-06-12T11:47:29Z</time>
      </trkpt>
      <trkpt lat="42.313492" lon="0.916904">
        <ele>1176.1</ele>
        <time>2018-06-12T11:47:34Z</time>
      </trkpt>
      <trkpt lat="42.313378" lon="0.916933">
        <ele>1177.7</ele>
        <time>2018-06-12T11:47:37Z</time>
      </trkpt>
      <trkpt lat="42.313323" lon="0.916987">
        <ele>1177.7</ele>
        <time>2018-06-12T11:47:38Z</time>
      </trkpt>
      <trkpt lat="42.313250" lon="0.917077">
        <ele>1176.7</ele>
        <time>2018-06-12T11:47:41Z</time>
      </trkpt>
      <trkpt lat="42.313182" lon="0.917094">
        <ele>1177.1</ele>
        <time>2018-06-12T11:47:43Z</time>
      </trkpt>
      <trkpt lat="42.313140" lon="0.917092">
        <ele>1177.7</ele>
        <time>2018-06-12T11:47:44Z</time>
      </trkpt>
      <trkpt lat="42.313098" lon="0.917062">
        <ele>1178.5</ele>
        <time>2018-06-12T11:47:45Z</time>
      </trkpt>
      <trkpt lat="42.313088" lon="0.917024">
        <ele>1178.8</ele>
        <time>2018-06-12T11:47:46Z</time>
      </trkpt>
      <trkpt lat="42.313103" lon="0.916979">
        <ele>1179.1</ele>
        <time>2018-06-12T11:47:47Z</time>
      </trkpt>
      <trkpt lat="42.313161" lon="0.916909">
        <ele>1180.7</ele>
        <time>2018-06-12T11:47:49Z</time>
      </trkpt>
      <trkpt lat="42.313212" lon="0.916875">
        <ele>1181.9</ele>
        <time>2018-06-12T11:47:51Z</time>
      </trkpt>
      <trkpt lat="42.313486" lon="0.916619">
        <ele>1185.4</ele>
        <time>2018-06-12T11:47:59Z</time>
      </trkpt>
      <trkpt lat="42.313615" lon="0.916466">
        <ele>1187.6</ele>
        <time>2018-06-12T11:48:04Z</time>
      </trkpt>
      <trkpt lat="42.314014" lon="0.916163">
        <ele>1190.6</ele>
        <time>2018-06-12T11:48:16Z</time>
      </trkpt>
      <trkpt lat="42.314127" lon="0.916087">
        <ele>1192.4</ele>
        <time>2018-06-12T11:48:19Z</time>
      </trkpt>
      <trkpt lat="42.314175" lon="0.916045">
        <ele>1193.5</ele>
        <time>2018-06-12T11:48:21Z</time>
      </trkpt>
      <trkpt lat="42.314175" lon="0.915983">
        <ele>1196.0</ele>
        <time>2018-06-12T11:48:22Z</time>
      </trkpt>
      <trkpt lat="42.314154" lon="0.915930">
        <ele>1197.7</ele>
        <time>2018-06-12T11:48:24Z</time>
      </trkpt>
      <trkpt lat="42.314094" lon="0.915903">
        <ele>1199.2</ele>
        <time>2018-06-12T11:48:25Z</time>
      </trkpt>
      <trkpt lat="42.314020" lon="0.915903">
        <ele>1200.0</ele>
        <time>2018-06-12T11:48:27Z</time>
      </trkpt>
      <trkpt lat="42.313582" lon="0.916078">
        <ele>1198.1</ele>
        <time>2018-06-12T11:48:39Z</time>
      </trkpt>
      <trkpt lat="42.313357" lon="0.916227">
        <ele>1195.6</ele>
        <time>2018-06-12T11:48:46Z</time>
      </trkpt>
      <trkpt lat="42.313279" lon="0.916281">
        <ele>1192.0</ele>
        <time>2018-06-12T11:48:48Z</time>
      </trkpt>
      <trkpt lat="42.313231" lon="0.916296">
        <ele>1190.3</ele>
        <time>2018-06-12T11:48:50Z</time>
      </trkpt>
      <trkpt lat="42.313197" lon="0.916292">
        <ele>1189.3</ele>
        <time>2018-06-12T11:48:51Z</time>
      </trkpt>
      <trkpt lat="42.313175" lon="0.916265">
        <ele>1188.8</ele>
        <time>2018-06-12T11:48:51Z</time>
      </trkpt>
      <trkpt lat="42.313171" lon="0.916219">
        <ele>1189.9</ele>
        <time>2018-06-12T11:48:52Z</time>
      </trkpt>
      <trkpt lat="42.313183" lon="0.916157">
        <ele>1192.5</ele>
        <time>2018-06-12T11:48:54Z</time>
      </trkpt>
      <trkpt lat="42.313211" lon="0.916114">
        <ele>1194.7</ele>
        <time>2018-06-12T11:48:55Z</time>
      </trkpt>
      <trkpt lat="42.313237" lon="0.916090">
        <ele>1195.9</ele>
        <time>2018-06-12T11:48:56Z</time>
      </trkpt>
      <trkpt lat="42.313353" lon="0.916018">
        <ele>1198.8</ele>
        <time>2018-06-12T11:48:59Z</time>
      </trkpt>
      <trkpt lat="42.313516" lon="0.915868">
        <ele>1202.6</ele>
        <time>2018-06-12T11:49:05Z</time>
      </trkpt>
      <trkpt lat="42.313614" lon="0.915741">
        <ele>1206.5</ele>
        <time>2018-06-12T11:49:08Z</time>
      </trkpt>
      <trkpt lat="42.313655" lon="0.915648">
        <ele>1209.6</ele>
        <time>2018-06-12T11:49:10Z</time>
      </trkpt>
      <trkpt lat="42.313708" lon="0.915521">
        <ele>1213.3</ele>
        <time>2018-06-12T11:49:13Z</time>
      </trkpt>
      <trkpt lat="42.313762" lon="0.915444">
        <ele>1215.2</ele>
        <time>2018-06-12T11:49:16Z</time>
      </trkpt>
      <trkpt lat="42.313824" lon="0.915388">
        <ele>1215.8</ele>
        <time>2018-06-12T11:49:18Z</time>
      </trkpt>
      <trkpt lat="42.313917" lon="0.915303">
        <ele>1216.7</ele>
        <time>2018-06-12T11:49:21Z</time>
      </trkpt>
      <trkpt lat="42.313966" lon="0.915265">
        <ele>1217.3</ele>
        <time>2018-06-12T11:49:22Z</time>
      </trkpt>
      <trkpt lat="42.314004" lon="0.915189">
        <ele>1218.9</ele>
        <time>2018-06-12T11:49:24Z</time>
      </trkpt>
      <trkpt lat="42.314022" lon="0.915082">
        <ele>1220.8</ele>
        <time>2018-06-12T11:49:26Z</time>
      </trkpt>
      <trkpt lat="42.314057" lon="0.914898">
        <ele>1223.1</ele>
        <time>2018-06-12T11:49:30Z</time>
      </trkpt>
      <trkpt lat="42.314106" lon="0.914785">
        <ele>1224.3</ele>
        <time>2018-06-12T11:49:32Z</time>
      </trkpt>
      <trkpt lat="42.314241" lon="0.914571">
        <ele>1224.4</ele>
        <time>2018-06-12T11:49:38Z</time>
      </trkpt>
      <trkpt lat="42.314407" lon="0.914341">
        <ele>1221.9</ele>
        <time>2018-06-12T11:49:44Z</time>
      </trkpt>
      <trkpt lat="42.314484" lon="0.914233">
        <ele>1222.0</ele>
        <time>2018-06-12T11:49:47Z</time>
      </trkpt>
      <trkpt lat="42.314548" lon="0.914177">
        <ele>1222.4</ele>
        <time>2018-06-12T11:49:49Z</time>
      </trkpt>
      <trkpt lat="42.314651" lon="0.914145">
        <ele>1222.4</ele>
        <time>2018-06-12T11:49:52Z</time>
      </trkpt>
      <trkpt lat="42.314742" lon="0.914137">
        <ele>1222.2</ele>
        <time>2018-06-12T11:49:54Z</time>
      </trkpt>
      <trkpt lat="42.314832" lon="0.914146">
        <ele>1221.6</ele>
        <time>2018-06-12T11:49:57Z</time>
      </trkpt>
      <trkpt lat="42.314984" lon="0.914139">
        <ele>1221.9</ele>
        <time>2018-06-12T11:50:01Z</time>
      </trkpt>
      <trkpt lat="42.315226" lon="0.914100">
        <ele>1223.2</ele>
        <time>2018-06-12T11:50:07Z</time>
      </trkpt>
      <trkpt lat="42.315399" lon="0.914078">
        <ele>1224.0</ele>
        <time>2018-06-12T11:50:12Z</time>
      </trkpt>
      <trkpt lat="42.315536" lon="0.914093">
        <ele>1223.4</ele>
        <time>2018-06-12T11:50:15Z</time>
      </trkpt>
      <trkpt lat="42.315658" lon="0.914148">
        <ele>1221.3</ele>
        <time>2018-06-12T11:50:19Z</time>
      </trkpt>
      <trkpt lat="42.315762" lon="0.914183">
        <ele>1219.9</ele>
        <time>2018-06-12T11:50:21Z</time>
      </trkpt>
      <trkpt lat="42.315849" lon="0.914191">
        <ele>1219.6</ele>
        <time>2018-06-12T11:50:24Z</time>
      </trkpt>
      <trkpt lat="42.315990" lon="0.914120">
        <ele>1222.4</ele>
        <time>2018-06-12T11:50:28Z</time>
      </trkpt>
      <trkpt lat="42.316079" lon="0.914076">
        <ele>1224.2</ele>
        <time>2018-06-12T11:50:30Z</time>
      </trkpt>
      <trkpt lat="42.316214" lon="0.914058">
        <ele>1225.0</ele>
        <time>2018-06-12T11:50:34Z</time>
      </trkpt>
      <trkpt lat="42.316380" lon="0.914071">
        <ele>1224.7</ele>
        <time>2018-06-12T11:50:38Z</time>
      </trkpt>
      <trkpt lat="42.316776" lon="0.914086">
        <ele>1224.7</ele>
        <time>2018-06-12T11:50:49Z</time>
      </trkpt>
      <trkpt lat="42.316889" lon="0.914070">
        <ele>1225.1</ele>
        <time>2018-06-12T11:50:52Z</time>
      </trkpt>
      <trkpt lat="42.316967" lon="0.914069">
        <ele>1225.2</ele>
        <time>2018-06-12T11:50:54Z</time>
      </trkpt>
      <trkpt lat="42.317057" lon="0.914125">
        <ele>1224.2</ele>
        <time>2018-06-12T11:50:56Z</time>
      </trkpt>
      <trkpt lat="42.317163" lon="0.914237">
        <ele>1224.5</ele>
        <time>2018-06-12T11:51:00Z</time>
      </trkpt>
      <trkpt lat="42.317240" lon="0.914343">
        <ele>1225.5</ele>
        <time>2018-06-12T11:51:03Z</time>
      </trkpt>
      <trkpt lat="42.317330" lon="0.914513">
        <ele>1227.0</ele>
        <time>2018-06-12T11:51:07Z</time>
      </trkpt>
      <trkpt lat="42.317407" lon="0.914650">
        <ele>1228.5</ele>
        <time>2018-06-12T11:51:10Z</time>
      </trkpt>
      <trkpt lat="42.317468" lon="0.914724">
        <ele>1230.1</ele>
        <time>2018-06-12T11:51:12Z</time>
      </trkpt>
      <trkpt lat="42.317551" lon="0.914812">
        <ele>1231.6</ele>
        <time>2018-06-12T11:51:15Z</time>
      </trkpt>
      <trkpt lat="42.317737" lon="0.914985">
        <ele>1234.4</ele>
        <time>2018-06-12T11:51:21Z</time>
      </trkpt>
      <trkpt lat="42.317808" lon="0.915107">
        <ele>1234.9</ele>
        <time>2018-06-12T11:51:24Z</time>
      </trkpt>
      <trkpt lat="42.317849" lon="0.915232">
        <ele>1235.1</ele>
        <time>2018-06-12T11:51:27Z</time>
      </trkpt>
      <trkpt lat="42.317882" lon="0.915435">
        <ele>1234.5</ele>
        <time>2018-06-12T11:51:31Z</time>
      </trkpt>
      <trkpt lat="42.317902" lon="0.915594">
        <ele>1233.1</ele>
        <time>2018-06-12T11:51:34Z</time>
      </trkpt>
      <trkpt lat="42.317950" lon="0.915768">
        <ele>1232.3</ele>
        <time>2018-06-12T11:51:38Z</time>
      </trkpt>
      <trkpt lat="42.318014" lon="0.915915">
        <ele>1233.0</ele>
        <time>2018-06-12T11:51:41Z</time>
      </trkpt>
      <trkpt lat="42.318141" lon="0.916094">
        <ele>1233.6</ele>
        <time>2018-06-12T11:51:46Z</time>
      </trkpt>
      <trkpt lat="42.318286" lon="0.916209">
        <ele>1234.1</ele>
        <time>2018-06-12T11:51:50Z</time>
      </trkpt>
      <trkpt lat="42.318488" lon="0.916285">
        <ele>1234.3</ele>
        <time>2018-06-12T11:51:56Z</time>
      </trkpt>
      <trkpt lat="42.318616" lon="0.916320">
        <ele>1231.8</ele>
        <time>2018-06-12T11:51:59Z</time>
      </trkpt>
      <trkpt lat="42.318754" lon="0.916298">
        <ele>1229.3</ele>
        <time>2018-06-12T11:52:03Z</time>
      </trkpt>
      <trkpt lat="42.318833" lon="0.916186">
        <ele>1228.3</ele>
        <time>2018-06-12T11:52:06Z</time>
      </trkpt>
      <trkpt lat="42.318871" lon="0.916053">
        <ele>1228.1</ele>
        <time>2018-06-12T11:52:09Z</time>
      </trkpt>
      <trkpt lat="42.318893" lon="0.915890">
        <ele>1229.1</ele>
        <time>2018-06-12T11:52:12Z</time>
      </trkpt>
      <trkpt lat="42.318957" lon="0.915616">
        <ele>1231.7</ele>
        <time>2018-06-12T11:52:18Z</time>
      </trkpt>
      <trkpt lat="42.319085" lon="0.915372">
        <ele>1232.7</ele>
        <time>2018-06-12T11:52:24Z</time>
      </trkpt>
      <trkpt lat="42.319261" lon="0.915123">
        <ele>1229.9</ele>
        <time>2018-06-12T11:52:30Z</time>
      </trkpt>
      <trkpt lat="42.319340" lon="0.915022">
        <ele>1228.4</ele>
        <time>2018-06-12T11:52:33Z</time>
      </trkpt>
      <trkpt lat="42.319388" lon="0.914845">
        <ele>1228.9</ele>
        <time>2018-06-12T11:52:37Z</time>
      </trkpt>
      <trkpt lat="42.319407" lon="0.914682">
        <ele>1229.2</ele>
        <time>2018-06-12T11:52:40Z</time>
      </trkpt>
      <trkpt lat="42.319414" lon="0.914459">
        <ele>1230.5</ele>
        <time>2018-06-12T11:52:44Z</time>
      </trkpt>
      <trkpt lat="42.319440" lon="0.914217">
        <ele>1232.7</ele>
        <time>2018-06-12T11:52:49Z</time>
      </trkpt>
      <trkpt lat="42.319474" lon="0.914090">
        <ele>1234.0</ele>
        <time>2018-06-12T11:52:52Z</time>
      </trkpt>
      <trkpt lat="42.319607" lon="0.913843">
        <ele>1235.9</ele>
        <time>2018-06-12T11:52:58Z</time>
      </trkpt>
      <trkpt lat="42.319673" lon="0.913677">
        <ele>1236.9</ele>
        <time>2018-06-12T11:53:02Z</time>
      </trkpt>
      <trkpt lat="42.319699" lon="0.913448">
        <ele>1237.2</ele>
        <time>2018-06-12T11:53:06Z</time>
      </trkpt>
      <trkpt lat="42.319714" lon="0.913220">
        <ele>1237.1</ele>
        <time>2018-06-12T11:53:11Z</time>
      </trkpt>
      <trkpt lat="42.319740" lon="0.913063">
        <ele>1237.1</ele>
        <time>2018-06-12T11:53:14Z</time>
      </trkpt>
      <trkpt lat="42.319729" lon="0.912911">
        <ele>1237.8</ele>
        <time>2018-06-12T11:53:17Z</time>
      </trkpt>
      <trkpt lat="42.319676" lon="0.912720">
        <ele>1238.0</ele>
        <time>2018-06-12T11:53:21Z</time>
      </trkpt>
      <trkpt lat="42.319620" lon="0.912590">
        <ele>1239.0</ele>
        <time>2018-06-12T11:53:24Z</time>
      </trkpt>
      <trkpt lat="42.319549" lon="0.912495">
        <ele>1239.8</ele>
        <time>2018-06-12T11:53:26Z</time>
      </trkpt>
      <trkpt lat="42.319430" lon="0.912386">
        <ele>1242.2</ele>
        <time>2018-06-12T11:53:30Z</time>
      </trkpt>
      <trkpt lat="42.319267" lon="0.912186">
        <ele>1244.5</ele>
        <time>2018-06-12T11:53:36Z</time>
      </trkpt>
      <trkpt lat="42.318948" lon="0.911743">
        <ele>1248.5</ele>
        <time>2018-06-12T11:53:48Z</time>
      </trkpt>
      <trkpt lat="42.318848" lon="0.911596">
        <ele>1248.2</ele>
        <time>2018-06-12T11:53:52Z</time>
      </trkpt>
      <trkpt lat="42.318774" lon="0.911405">
        <ele>1247.0</ele>
        <time>2018-06-12T11:53:56Z</time>
      </trkpt>
      <trkpt lat="42.318742" lon="0.911155">
        <ele>1246.5</ele>
        <time>2018-06-12T11:54:01Z</time>
      </trkpt>
      <trkpt lat="42.318718" lon="0.911007">
        <ele>1249.6</ele>
        <time>2018-06-12T11:54:04Z</time>
      </trkpt>
      <trkpt lat="42.318688" lon="0.910866">
        <ele>1255.7</ele>
        <time>2018-06-12T11:54:07Z</time>
      </trkpt>
      <trkpt lat="42.318719" lon="0.910616">
        <ele>1261.7</ele>
        <time>2018-06-12T11:54:12Z</time>
      </trkpt>
      <trkpt lat="42.318746" lon="0.910498">
        <ele>1261.6</ele>
        <time>2018-06-12T11:54:15Z</time>
      </trkpt>
      <trkpt lat="42.318803" lon="0.910375">
        <ele>1260.3</ele>
        <time>2018-06-12T11:54:18Z</time>
      </trkpt>
      <trkpt lat="42.318875" lon="0.910321">
        <ele>1257.9</ele>
        <time>2018-06-12T11:54:20Z</time>
      </trkpt>
      <trkpt lat="42.318975" lon="0.910229">
        <ele>1255.2</ele>
        <time>2018-06-12T11:54:23Z</time>
      </trkpt>
      <trkpt lat="42.319055" lon="0.910093">
        <ele>1254.3</ele>
        <time>2018-06-12T11:54:26Z</time>
      </trkpt>
      <trkpt lat="42.319107" lon="0.909918">
        <ele>1253.7</ele>
        <time>2018-06-12T11:54:30Z</time>
      </trkpt>
      <trkpt lat="42.319150" lon="0.909793">
        <ele>1252.8</ele>
        <time>2018-06-12T11:54:33Z</time>
      </trkpt>
      <trkpt lat="42.319161" lon="0.909706">
        <ele>1253.1</ele>
        <time>2018-06-12T11:54:35Z</time>
      </trkpt>
      <trkpt lat="42.319147" lon="0.909610">
        <ele>1254.4</ele>
        <time>2018-06-12T11:54:36Z</time>
      </trkpt>
      <trkpt lat="42.319069" lon="0.909326">
        <ele>1254.6</ele>
        <time>2018-06-12T11:54:42Z</time>
      </trkpt>
      <trkpt lat="42.318909" lon="0.908839">
        <ele>1261.7</ele>
        <time>2018-06-12T11:54:53Z</time>
      </trkpt>
      <trkpt lat="42.318821" lon="0.908489">
        <ele>1268.9</ele>
        <time>2018-06-12T11:55:00Z</time>
      </trkpt>
      <trkpt lat="42.318649" lon="0.907967">
        <ele>1277.2</ele>
        <time>2018-06-12T11:55:12Z</time>
      </trkpt>
      <trkpt lat="42.318436" lon="0.907491">
        <ele>1288.1</ele>
        <time>2018-06-12T11:55:23Z</time>
      </trkpt>
      <trkpt lat="42.318172" lon="0.907016">
        <ele>1294.6</ele>
        <time>2018-06-12T11:55:34Z</time>
      </trkpt>
      <trkpt lat="42.318171" lon="0.906875">
        <ele>1292.8</ele>
        <time>2018-06-12T11:55:37Z</time>
      </trkpt>
      <trkpt lat="42.318206" lon="0.906548">
        <ele>1293.4</ele>
        <time>2018-06-12T11:55:44Z</time>
      </trkpt>
      <trkpt lat="42.318261" lon="0.906319">
        <ele>1291.9</ele>
        <time>2018-06-12T11:55:48Z</time>
      </trkpt>
      <trkpt lat="42.318317" lon="0.906218">
        <ele>1290.9</ele>
        <time>2018-06-12T11:55:51Z</time>
      </trkpt>
      <trkpt lat="42.318575" lon="0.905783">
        <ele>1285.0</ele>
        <time>2018-06-12T11:56:02Z</time>
      </trkpt>
      <trkpt lat="42.318685" lon="0.905603">
        <ele>1282.0</ele>
        <time>2018-06-12T11:56:06Z</time>
      </trkpt>
      <trkpt lat="42.318782" lon="0.905469">
        <ele>1281.2</ele>
        <time>2018-06-12T11:56:10Z</time>
      </trkpt>
      <trkpt lat="42.318865" lon="0.905397">
        <ele>1280.6</ele>
        <time>2018-06-12T11:56:13Z</time>
      </trkpt>
      <trkpt lat="42.319010" lon="0.905337">
        <ele>1278.9</ele>
        <time>2018-06-12T11:56:17Z</time>
      </trkpt>
      <trkpt lat="42.319138" lon="0.905245">
        <ele>1277.6</ele>
        <time>2018-06-12T11:56:20Z</time>
      </trkpt>
      <trkpt lat="42.319180" lon="0.905162">
        <ele>1277.6</ele>
        <time>2018-06-12T11:56:22Z</time>
      </trkpt>
      <trkpt lat="42.319189" lon="0.905068">
        <ele>1278.1</ele>
        <time>2018-06-12T11:56:24Z</time>
      </trkpt>
      <trkpt lat="42.319156" lon="0.904988">
        <ele>1279.0</ele>
        <time>2018-06-12T11:56:26Z</time>
      </trkpt>
      <trkpt lat="42.319079" lon="0.904920">
        <ele>1280.2</ele>
        <time>2018-06-12T11:56:28Z</time>
      </trkpt>
      <trkpt lat="42.318985" lon="0.904798">
        <ele>1282.6</ele>
        <time>2018-06-12T11:56:32Z</time>
      </trkpt>
      <trkpt lat="42.318885" lon="0.904581">
        <ele>1286.6</ele>
        <time>2018-06-12T11:56:37Z</time>
      </trkpt>
      <trkpt lat="42.318802" lon="0.904443">
        <ele>1287.7</ele>
        <time>2018-06-12T11:56:40Z</time>
      </trkpt>
      <trkpt lat="42.318709" lon="0.904324">
        <ele>1289.5</ele>
        <time>2018-06-12T11:56:44Z</time>
      </trkpt>
      <trkpt lat="42.318630" lon="0.904141">
        <ele>1289.6</ele>
        <time>2018-06-12T11:56:48Z</time>
      </trkpt>
      <trkpt lat="42.318573" lon="0.903936">
        <ele>1288.7</ele>
        <time>2018-06-12T11:56:52Z</time>
      </trkpt>
      <trkpt lat="42.318507" lon="0.903704">
        <ele>1288.5</ele>
        <time>2018-06-12T11:56:57Z</time>
      </trkpt>
      <trkpt lat="42.318444" lon="0.903574">
        <ele>1288.4</ele>
        <time>2018-06-12T11:57:00Z</time>
      </trkpt>
      <trkpt lat="42.318322" lon="0.903375">
        <ele>1289.5</ele>
        <time>2018-06-12T11:57:05Z</time>
      </trkpt>
      <trkpt lat="42.318236" lon="0.903219">
        <ele>1291.9</ele>
        <time>2018-06-12T11:57:09Z</time>
      </trkpt>
      <trkpt lat="42.318170" lon="0.903089">
        <ele>1293.2</ele>
        <time>2018-06-12T11:57:12Z</time>
      </trkpt>
      <trkpt lat="42.318061" lon="0.902987">
        <ele>1294.1</ele>
        <time>2018-06-12T11:57:16Z</time>
      </trkpt>
      <trkpt lat="42.317913" lon="0.902878">
        <ele>1294.5</ele>
        <time>2018-06-12T11:57:20Z</time>
      </trkpt>
      <trkpt lat="42.317795" lon="0.902763">
        <ele>1296.5</ele>
        <time>2018-06-12T11:57:24Z</time>
      </trkpt>
      <trkpt lat="42.317542" lon="0.902368">
        <ele>1301.3</ele>
        <time>2018-06-12T11:57:34Z</time>
      </trkpt>
      <trkpt lat="42.317446" lon="0.902169">
        <ele>1300.0</ele>
        <time>2018-06-12T11:57:39Z</time>
      </trkpt>
      <trkpt lat="42.317389" lon="0.901764">
        <ele>1294.0</ele>
        <time>2018-06-12T11:57:47Z</time>
      </trkpt>
      <trkpt lat="42.317363" lon="0.901657">
        <ele>1293.8</ele>
        <time>2018-06-12T11:57:49Z</time>
      </trkpt>
      <trkpt lat="42.317307" lon="0.901591">
        <ele>1293.8</ele>
        <time>2018-06-12T11:57:51Z</time>
      </trkpt>
      <trkpt lat="42.317170" lon="0.901471">
        <ele>1294.0</ele>
        <time>2018-06-12T11:57:55Z</time>
      </trkpt>
      <trkpt lat="42.317093" lon="0.901350">
        <ele>1293.9</ele>
        <time>2018-06-12T11:57:58Z</time>
      </trkpt>
      <trkpt lat="42.317054" lon="0.901108">
        <ele>1293.5</ele>
        <time>2018-06-12T11:58:03Z</time>
      </trkpt>
      <trkpt lat="42.316998" lon="0.900902">
        <ele>1294.1</ele>
        <time>2018-06-12T11:58:08Z</time>
      </trkpt>
      <trkpt lat="42.316893" lon="0.900664">
        <ele>1294.7</ele>
        <time>2018-06-12T11:58:13Z</time>
      </trkpt>
      <trkpt lat="42.316805" lon="0.900367">
        <ele>1292.0</ele>
        <time>2018-06-12T11:58:19Z</time>
      </trkpt>
      <trkpt lat="42.316779" lon="0.900187">
        <ele>1293.8</ele>
        <time>2018-06-12T11:58:23Z</time>
      </trkpt>
      <trkpt lat="42.316780" lon="0.900085">
        <ele>1293.6</ele>
        <time>2018-06-12T11:58:25Z</time>
      </trkpt>
      <trkpt lat="42.316769" lon="0.899932">
        <ele>1294.0</ele>
        <time>2018-06-12T11:58:28Z</time>
      </trkpt>
      <trkpt lat="42.316700" lon="0.899444">
        <ele>1299.3</ele>
        <time>2018-06-12T11:58:38Z</time>
      </trkpt>
      <trkpt lat="42.316703" lon="0.899237">
        <ele>1299.3</ele>
        <time>2018-06-12T11:58:42Z</time>
      </trkpt>
      <trkpt lat="42.316677" lon="0.899127">
        <ele>1299.9</ele>
        <time>2018-06-12T11:58:44Z</time>
      </trkpt>
      <trkpt lat="42.316558" lon="0.898736">
        <ele>1301.7</ele>
        <time>2018-06-12T11:58:52Z</time>
      </trkpt>
      <trkpt lat="42.316498" lon="0.898597">
        <ele>1303.3</ele>
        <time>2018-06-12T11:58:55Z</time>
      </trkpt>
      <trkpt lat="42.316436" lon="0.898458">
        <ele>1305.3</ele>
        <time>2018-06-12T11:58:58Z</time>
      </trkpt>
      <trkpt lat="42.316401" lon="0.898233">
        <ele>1306.5</ele>
        <time>2018-06-12T11:59:03Z</time>
      </trkpt>
      <trkpt lat="42.316380" lon="0.897984">
        <ele>1306.2</ele>
        <time>2018-06-12T11:59:08Z</time>
      </trkpt>
      <trkpt lat="42.316398" lon="0.897868">
        <ele>1305.1</ele>
        <time>2018-06-12T11:59:10Z</time>
      </trkpt>
      <trkpt lat="42.316434" lon="0.897785">
        <ele>1303.7</ele>
        <time>2018-06-12T11:59:12Z</time>
      </trkpt>
      <trkpt lat="42.316481" lon="0.897758">
        <ele>1301.7</ele>
        <time>2018-06-12T11:59:14Z</time>
      </trkpt>
      <trkpt lat="42.316531" lon="0.897730">
        <ele>1299.6</ele>
        <time>2018-06-12T11:59:15Z</time>
      </trkpt>
      <trkpt lat="42.316576" lon="0.897666">
        <ele>1299.4</ele>
        <time>2018-06-12T11:59:17Z</time>
      </trkpt>
      <trkpt lat="42.316602" lon="0.897602">
        <ele>1299.6</ele>
        <time>2018-06-12T11:59:18Z</time>
      </trkpt>
      <trkpt lat="42.316625" lon="0.897471">
        <ele>1300.5</ele>
        <time>2018-06-12T11:59:21Z</time>
      </trkpt>
      <trkpt lat="42.316670" lon="0.897231">
        <ele>1301.4</ele>
        <time>2018-06-12T11:59:26Z</time>
      </trkpt>
      <trkpt lat="42.316699" lon="0.897069">
        <ele>1301.6</ele>
        <time>2018-06-12T11:59:29Z</time>
      </trkpt>
      <trkpt lat="42.316696" lon="0.896960">
        <ele>1301.8</ele>
        <time>2018-06-12T11:59:31Z</time>
      </trkpt>
      <trkpt lat="42.316662" lon="0.896827">
        <ele>1302.5</ele>
        <time>2018-06-12T11:59:34Z</time>
      </trkpt>
      <trkpt lat="42.316577" lon="0.896585">
        <ele>1304.3</ele>
        <time>2018-06-12T11:59:39Z</time>
      </trkpt>
      <trkpt lat="42.316519" lon="0.896357">
        <ele>1305.1</ele>
        <time>2018-06-12T11:59:44Z</time>
      </trkpt>
      <trkpt lat="42.316474" lon="0.896103">
        <ele>1306.5</ele>
        <time>2018-06-12T11:59:49Z</time>
      </trkpt>
      <trkpt lat="42.316458" lon="0.895950">
        <ele>1307.5</ele>
        <time>2018-06-12T11:59:52Z</time>
      </trkpt>
      <trkpt lat="42.316442" lon="0.895818">
        <ele>1308.1</ele>
        <time>2018-06-12T11:59:54Z</time>
      </trkpt>
      <trkpt lat="42.316433" lon="0.895690">
        <ele>1308.4</ele>
        <time>2018-06-12T11:59:57Z</time>
      </trkpt>
      <trkpt lat="42.316465" lon="0.895488">
        <ele>1308.2</ele>
        <time>2018-06-12T12:00:01Z</time>
      </trkpt>
      <trkpt lat="42.316470" lon="0.895294">
        <ele>1309.1</ele>
        <time>2018-06-12T12:00:05Z</time>
      </trkpt>
      <trkpt lat="42.316460" lon="0.895097">
        <ele>1311.0</ele>
        <time>2018-06-12T12:00:09Z</time>
      </trkpt>
      <trkpt lat="42.316439" lon="0.894947">
        <ele>1313.0</ele>
        <time>2018-06-12T12:00:12Z</time>
      </trkpt>
      <trkpt lat="42.316395" lon="0.894855">
        <ele>1314.5</ele>
        <time>2018-06-12T12:00:14Z</time>
      </trkpt>
      <trkpt lat="42.316234" lon="0.894570">
        <ele>1317.0</ele>
        <time>2018-06-12T12:00:21Z</time>
      </trkpt>
      <trkpt lat="42.316179" lon="0.894479">
        <ele>1316.1</ele>
        <time>2018-06-12T12:00:23Z</time>
      </trkpt>
      <trkpt lat="42.316101" lon="0.894416">
        <ele>1315.4</ele>
        <time>2018-06-12T12:00:25Z</time>
      </trkpt>
      <trkpt lat="42.316026" lon="0.894300">
        <ele>1312.9</ele>
        <time>2018-06-12T12:00:29Z</time>
      </trkpt>
      <trkpt lat="42.315968" lon="0.894169">
        <ele>1311.1</ele>
        <time>2018-06-12T12:00:32Z</time>
      </trkpt>
      <trkpt lat="42.315949" lon="0.894037">
        <ele>1309.5</ele>
        <time>2018-06-12T12:00:34Z</time>
      </trkpt>
      <trkpt lat="42.315934" lon="0.893893">
        <ele>1307.6</ele>
        <time>2018-06-12T12:00:37Z</time>
      </trkpt>
      <trkpt lat="42.315850" lon="0.893521">
        <ele>1305.5</ele>
        <time>2018-06-12T12:00:45Z</time>
      </trkpt>
      <trkpt lat="42.315804" lon="0.893339">
        <ele>1306.7</ele>
        <time>2018-06-12T12:00:48Z</time>
      </trkpt>
      <trkpt lat="42.315721" lon="0.892961">
        <ele>1313.5</ele>
        <time>2018-06-12T12:00:56Z</time>
      </trkpt>
      <trkpt lat="42.315689" lon="0.892686">
        <ele>1318.6</ele>
        <time>2018-06-12T12:01:02Z</time>
      </trkpt>
      <trkpt lat="42.315671" lon="0.892542">
        <ele>1319.5</ele>
        <time>2018-06-12T12:01:05Z</time>
      </trkpt>
      <trkpt lat="42.315688" lon="0.892383">
        <ele>1317.6</ele>
        <time>2018-06-12T12:01:08Z</time>
      </trkpt>
      <trkpt lat="42.315744" lon="0.892160">
        <ele>1319.3</ele>
        <time>2018-06-12T12:01:12Z</time>
      </trkpt>
      <trkpt lat="42.315775" lon="0.892039">
        <ele>1319.9</ele>
        <time>2018-06-12T12:01:15Z</time>
      </trkpt>
      <trkpt lat="42.315793" lon="0.891913">
        <ele>1320.2</ele>
        <time>2018-06-12T12:01:17Z</time>
      </trkpt>
      <trkpt lat="42.315792" lon="0.891887">
        <ele>1320.4</ele>
        <time>2018-06-12T12:01:18Z</time>
      </trkpt>
      <trkpt lat="42.315808" lon="0.891654">
        <ele>1322.2</ele>
        <time>2018-06-12T12:01:22Z</time>
      </trkpt>
      <trkpt lat="42.315827" lon="0.891577">
        <ele>1322.6</ele>
        <time>2018-06-12T12:01:24Z</time>
      </trkpt>
      <trkpt lat="42.315845" lon="0.891486">
        <ele>1322.7</ele>
        <time>2018-06-12T12:01:26Z</time>
      </trkpt>
      <trkpt lat="42.315845" lon="0.891370">
        <ele>1322.7</ele>
        <time>2018-06-12T12:01:28Z</time>
      </trkpt>
      <trkpt lat="42.315814" lon="0.891204">
        <ele>1323.8</ele>
        <time>2018-06-12T12:01:32Z</time>
      </trkpt>
      <trkpt lat="42.315794" lon="0.891109">
        <ele>1325.0</ele>
        <time>2018-06-12T12:01:33Z</time>
      </trkpt>
      <trkpt lat="42.315786" lon="0.890942">
        <ele>1326.5</ele>
        <time>2018-06-12T12:01:37Z</time>
      </trkpt>
      <trkpt lat="42.315796" lon="0.890820">
        <ele>1326.9</ele>
        <time>2018-06-12T12:01:39Z</time>
      </trkpt>
      <trkpt lat="42.315818" lon="0.890708">
        <ele>1326.8</ele>
        <time>2018-06-12T12:01:41Z</time>
      </trkpt>
      <trkpt lat="42.315850" lon="0.890592">
        <ele>1325.6</ele>
        <time>2018-06-12T12:01:44Z</time>
      </trkpt>
      <trkpt lat="42.315871" lon="0.890431">
        <ele>1324.3</ele>
        <time>2018-06-12T12:01:47Z</time>
      </trkpt>
      <trkpt lat="42.315875" lon="0.890243">
        <ele>1325.8</ele>
        <time>2018-06-12T12:01:51Z</time>
      </trkpt>
      <trkpt lat="42.315889" lon="0.890084">
        <ele>1325.9</ele>
        <time>2018-06-12T12:01:54Z</time>
      </trkpt>
      <trkpt lat="42.315902" lon="0.889794">
        <ele>1322.9</ele>
        <time>2018-06-12T12:02:00Z</time>
      </trkpt>
      <trkpt lat="42.315889" lon="0.889641">
        <ele>1322.8</ele>
        <time>2018-06-12T12:02:03Z</time>
      </trkpt>
      <trkpt lat="42.315835" lon="0.889445">
        <ele>1325.4</ele>
        <time>2018-06-12T12:02:07Z</time>
      </trkpt>
      <trkpt lat="42.315704" lon="0.889073">
        <ele>1332.5</ele>
        <time>2018-06-12T12:02:15Z</time>
      </trkpt>
      <trkpt lat="42.315649" lon="0.888844">
        <ele>1335.8</ele>
        <time>2018-06-12T12:02:20Z</time>
      </trkpt>
      <trkpt lat="42.315604" lon="0.888616">
        <ele>1338.7</ele>
        <time>2018-06-12T12:02:24Z</time>
      </trkpt>
      <trkpt lat="42.315612" lon="0.888348">
        <ele>1337.9</ele>
        <time>2018-06-12T12:02:29Z</time>
      </trkpt>
      <trkpt lat="42.315642" lon="0.888124">
        <ele>1335.6</ele>
        <time>2018-06-12T12:02:34Z</time>
      </trkpt>
      <trkpt lat="42.315680" lon="0.887896">
        <ele>1334.2</ele>
        <time>2018-06-12T12:02:38Z</time>
      </trkpt>
      <trkpt lat="42.315743" lon="0.887724">
        <ele>1335.4</ele>
        <time>2018-06-12T12:02:42Z</time>
      </trkpt>
      <trkpt lat="42.315891" lon="0.887467">
        <ele>1334.0</ele>
        <time>2018-06-12T12:02:49Z</time>
      </trkpt>
      <trkpt lat="42.315973" lon="0.887327">
        <ele>1333.2</ele>
        <time>2018-06-12T12:02:52Z</time>
      </trkpt>
      <trkpt lat="42.315996" lon="0.887229">
        <ele>1333.5</ele>
        <time>2018-06-12T12:02:54Z</time>
      </trkpt>
      <trkpt lat="42.315996" lon="0.887151">
        <ele>1334.1</ele>
        <time>2018-06-12T12:02:56Z</time>
      </trkpt>
      <trkpt lat="42.315959" lon="0.887090">
        <ele>1335.4</ele>
        <time>2018-06-12T12:02:57Z</time>
      </trkpt>
      <trkpt lat="42.315903" lon="0.887060">
        <ele>1337.5</ele>
        <time>2018-06-12T12:02:59Z</time>
      </trkpt>
      <trkpt lat="42.315768" lon="0.887035">
        <ele>1342.2</ele>
        <time>2018-06-12T12:03:03Z</time>
      </trkpt>
      <trkpt lat="42.315643" lon="0.886936">
        <ele>1346.0</ele>
        <time>2018-06-12T12:03:07Z</time>
      </trkpt>
      <trkpt lat="42.315547" lon="0.886776">
        <ele>1347.3</ele>
        <time>2018-06-12T12:03:11Z</time>
      </trkpt>
      <trkpt lat="42.315468" lon="0.886585">
        <ele>1345.5</ele>
        <time>2018-06-12T12:03:15Z</time>
      </trkpt>
      <trkpt lat="42.315342" lon="0.886165">
        <ele>1340.3</ele>
        <time>2018-06-12T12:03:24Z</time>
      </trkpt>
      <trkpt lat="42.315301" lon="0.886031">
        <ele>1340.9</ele>
        <time>2018-06-12T12:03:27Z</time>
      </trkpt>
      <trkpt lat="42.315245" lon="0.885936">
        <ele>1342.0</ele>
        <time>2018-06-12T12:03:29Z</time>
      </trkpt>
      <trkpt lat="42.315172" lon="0.885865">
        <ele>1343.0</ele>
        <time>2018-06-12T12:03:31Z</time>
      </trkpt>
      <trkpt lat="42.315111" lon="0.885800">
        <ele>1344.2</ele>
        <time>2018-06-12T12:03:33Z</time>
      </trkpt>
      <trkpt lat="42.315064" lon="0.885666">
        <ele>1345.7</ele>
        <time>2018-06-12T12:03:36Z</time>
      </trkpt>
      <trkpt lat="42.315039" lon="0.885524">
        <ele>1346.8</ele>
        <time>2018-06-12T12:03:39Z</time>
      </trkpt>
      <trkpt lat="42.315014" lon="0.885324">
        <ele>1348.6</ele>
        <time>2018-06-12T12:03:43Z</time>
      </trkpt>
      <trkpt lat="42.314979" lon="0.885136">
        <ele>1351.2</ele>
        <time>2018-06-12T12:03:47Z</time>
      </trkpt>
      <trkpt lat="42.314915" lon="0.884681">
        <ele>1352.1</ele>
        <time>2018-06-12T12:03:56Z</time>
      </trkpt>
      <trkpt lat="42.314821" lon="0.884348">
        <ele>1354.1</ele>
        <time>2018-06-12T12:04:03Z</time>
      </trkpt>
      <trkpt lat="42.314708" lon="0.884010">
        <ele>1357.0</ele>
        <time>2018-06-12T12:04:10Z</time>
      </trkpt>
      <trkpt lat="42.314619" lon="0.883803">
        <ele>1359.6</ele>
        <time>2018-06-12T12:04:15Z</time>
      </trkpt>
      <trkpt lat="42.314517" lon="0.883630">
        <ele>1362.8</ele>
        <time>2018-06-12T12:04:19Z</time>
      </trkpt>
      <trkpt lat="42.314434" lon="0.883450">
        <ele>1365.0</ele>
        <time>2018-06-12T12:04:23Z</time>
      </trkpt>
      <trkpt lat="42.314347" lon="0.883180">
        <ele>1368.8</ele>
        <time>2018-06-12T12:04:29Z</time>
      </trkpt>
      <trkpt lat="42.314320" lon="0.882927">
        <ele>1369.6</ele>
        <time>2018-06-12T12:04:34Z</time>
      </trkpt>
      <trkpt lat="42.314326" lon="0.882845">
        <ele>1368.9</ele>
        <time>2018-06-12T12:04:36Z</time>
      </trkpt>
      <trkpt lat="42.314296" lon="0.882737">
        <ele>1369.1</ele>
        <time>2018-06-12T12:04:38Z</time>
      </trkpt>
      <trkpt lat="42.314286" lon="0.882633">
        <ele>1368.7</ele>
        <time>2018-06-12T12:04:40Z</time>
      </trkpt>
      <trkpt lat="42.314275" lon="0.882504">
        <ele>1368.2</ele>
        <time>2018-06-12T12:04:43Z</time>
      </trkpt>
      <trkpt lat="42.314238" lon="0.882362">
        <ele>1368.7</ele>
        <time>2018-06-12T12:04:46Z</time>
      </trkpt>
      <trkpt lat="42.314211" lon="0.882227">
        <ele>1368.9</ele>
        <time>2018-06-12T12:04:48Z</time>
      </trkpt>
      <trkpt lat="42.314190" lon="0.882085">
        <ele>1369.0</ele>
        <time>2018-06-12T12:04:51Z</time>
      </trkpt>
      <trkpt lat="42.314193" lon="0.881991">
        <ele>1368.7</ele>
        <time>2018-06-12T12:04:53Z</time>
      </trkpt>
      <trkpt lat="42.314222" lon="0.881909">
        <ele>1367.4</ele>
        <time>2018-06-12T12:04:55Z</time>
      </trkpt>
      <trkpt lat="42.314243" lon="0.881792">
        <ele>1366.4</ele>
        <time>2018-06-12T12:04:57Z</time>
      </trkpt>
      <trkpt lat="42.314245" lon="0.881682">
        <ele>1365.8</ele>
        <time>2018-06-12T12:04:59Z</time>
      </trkpt>
      <trkpt lat="42.314198" lon="0.881509">
        <ele>1366.5</ele>
        <time>2018-06-12T12:05:03Z</time>
      </trkpt>
      <trkpt lat="42.314145" lon="0.881417">
        <ele>1368.0</ele>
        <time>2018-06-12T12:05:05Z</time>
      </trkpt>
      <trkpt lat="42.314076" lon="0.881258">
        <ele>1369.6</ele>
        <time>2018-06-12T12:05:09Z</time>
      </trkpt>
      <trkpt lat="42.314007" lon="0.881117">
        <ele>1371.7</ele>
        <time>2018-06-12T12:05:12Z</time>
      </trkpt>
      <trkpt lat="42.313939" lon="0.880911">
        <ele>1373.8</ele>
        <time>2018-06-12T12:05:17Z</time>
      </trkpt>
      <trkpt lat="42.313869" lon="0.880598">
        <ele>1373.3</ele>
        <time>2018-06-12T12:05:23Z</time>
      </trkpt>
      <trkpt lat="42.313791" lon="0.880291">
        <ele>1370.2</ele>
        <time>2018-06-12T12:05:29Z</time>
      </trkpt>
      <trkpt lat="42.313739" lon="0.880115">
        <ele>1367.4</ele>
        <time>2018-06-12T12:05:33Z</time>
      </trkpt>
      <trkpt lat="42.313665" lon="0.879980">
        <ele>1364.0</ele>
        <time>2018-06-12T12:05:36Z</time>
      </trkpt>
      <trkpt lat="42.313564" lon="0.879818">
        <ele>1359.2</ele>
        <time>2018-06-12T12:05:41Z</time>
      </trkpt>
      <trkpt lat="42.313290" lon="0.879566">
        <ele>1360.3</ele>
        <time>2018-06-12T12:05:49Z</time>
      </trkpt>
      <trkpt lat="42.313189" lon="0.879539">
        <ele>1363.4</ele>
        <time>2018-06-12T12:05:52Z</time>
      </trkpt>
      <trkpt lat="42.313108" lon="0.879546">
        <ele>1366.2</ele>
        <time>2018-06-12T12:05:54Z</time>
      </trkpt>
      <trkpt lat="42.313041" lon="0.879519">
        <ele>1368.2</ele>
        <time>2018-06-12T12:05:56Z</time>
      </trkpt>
      <trkpt lat="42.312942" lon="0.879445">
        <ele>1371.0</ele>
        <time>2018-06-12T12:05:59Z</time>
      </trkpt>
      <trkpt lat="42.312887" lon="0.879399">
        <ele>1373.2</ele>
        <time>2018-06-12T12:06:01Z</time>
      </trkpt>
      <trkpt lat="42.312864" lon="0.879338">
        <ele>1373.8</ele>
        <time>2018-06-12T12:06:02Z</time>
      </trkpt>
      <trkpt lat="42.312860" lon="0.879278">
        <ele>1373.5</ele>
        <time>2018-06-12T12:06:04Z</time>
      </trkpt>
      <trkpt lat="42.312901" lon="0.879180">
        <ele>1371.2</ele>
        <time>2018-06-12T12:06:06Z</time>
      </trkpt>
      <trkpt lat="42.312939" lon="0.879079">
        <ele>1369.3</ele>
        <time>2018-06-12T12:06:08Z</time>
      </trkpt>
      <trkpt lat="42.312972" lon="0.878984">
        <ele>1367.8</ele>
        <time>2018-06-12T12:06:10Z</time>
      </trkpt>
      <trkpt lat="42.312985" lon="0.878874">
        <ele>1367.3</ele>
        <time>2018-06-12T12:06:12Z</time>
      </trkpt>
      <trkpt lat="42.312967" lon="0.878779">
        <ele>1368.0</ele>
        <time>2018-06-12T12:06:14Z</time>
      </trkpt>
      <trkpt lat="42.312898" lon="0.878607">
        <ele>1370.6</ele>
        <time>2018-06-12T12:06:18Z</time>
      </trkpt>
      <trkpt lat="42.312835" lon="0.878470">
        <ele>1372.6</ele>
        <time>2018-06-12T12:06:21Z</time>
      </trkpt>
      <trkpt lat="42.312753" lon="0.878200">
        <ele>1376.1</ele>
        <time>2018-06-12T12:06:27Z</time>
      </trkpt>
      <trkpt lat="42.312696" lon="0.877998">
        <ele>1377.8</ele>
        <time>2018-06-12T12:06:31Z</time>
      </trkpt>
      <trkpt lat="42.312696" lon="0.877875">
        <ele>1377.8</ele>
        <time>2018-06-12T12:06:34Z</time>
      </trkpt>
      <trkpt lat="42.312716" lon="0.877729">
        <ele>1376.9</ele>
        <time>2018-06-12T12:06:37Z</time>
      </trkpt>
      <trkpt lat="42.312751" lon="0.877575">
        <ele>1375.1</ele>
        <time>2018-06-12T12:06:40Z</time>
      </trkpt>
      <trkpt lat="42.312755" lon="0.877426">
        <ele>1372.8</ele>
        <time>2018-06-12T12:06:43Z</time>
      </trkpt>
      <trkpt lat="42.312745" lon="0.877267">
        <ele>1370.2</ele>
        <time>2018-06-12T12:06:46Z</time>
      </trkpt>
      <trkpt lat="42.312699" lon="0.877182">
        <ele>1369.2</ele>
        <time>2018-06-12T12:06:48Z</time>
      </trkpt>
      <trkpt lat="42.312631" lon="0.877136">
        <ele>1369.2</ele>
        <time>2018-06-12T12:06:50Z</time>
      </trkpt>
      <trkpt lat="42.312372" lon="0.876927">
        <ele>1361.4</ele>
        <time>2018-06-12T12:06:58Z</time>
      </trkpt>
      <trkpt lat="42.312199" lon="0.876785">
        <ele>1351.8</ele>
        <time>2018-06-12T12:07:04Z</time>
      </trkpt>
      <trkpt lat="42.312073" lon="0.876717">
        <ele>1347.5</ele>
        <time>2018-06-12T12:07:08Z</time>
      </trkpt>
      <trkpt lat="42.311876" lon="0.876675">
        <ele>1346.8</ele>
        <time>2018-06-12T12:07:13Z</time>
      </trkpt>
      <trkpt lat="42.311763" lon="0.876703">
        <ele>1348.3</ele>
        <time>2018-06-12T12:07:16Z</time>
      </trkpt>
      <trkpt lat="42.311432" lon="0.876702">
        <ele>1352.6</ele>
        <time>2018-06-12T12:07:25Z</time>
      </trkpt>
      <trkpt lat="42.311353" lon="0.876670">
        <ele>1354.9</ele>
        <time>2018-06-12T12:07:27Z</time>
      </trkpt>
      <trkpt lat="42.311306" lon="0.876627">
        <ele>1356.0</ele>
        <time>2018-06-12T12:07:29Z</time>
      </trkpt>
      <trkpt lat="42.311282" lon="0.876566">
        <ele>1356.3</ele>
        <time>2018-06-12T12:07:30Z</time>
      </trkpt>
      <trkpt lat="42.311301" lon="0.876502">
        <ele>1356.5</ele>
        <time>2018-06-12T12:07:31Z</time>
      </trkpt>
      <trkpt lat="42.311362" lon="0.876424">
        <ele>1356.9</ele>
        <time>2018-06-12T12:07:33Z</time>
      </trkpt>
      <trkpt lat="42.311499" lon="0.876261">
        <ele>1353.6</ele>
        <time>2018-06-12T12:07:38Z</time>
      </trkpt>
      <trkpt lat="42.311569" lon="0.876159">
        <ele>1354.3</ele>
        <time>2018-06-12T12:07:41Z</time>
      </trkpt>
      <trkpt lat="42.311681" lon="0.875970">
        <ele>1356.8</ele>
        <time>2018-06-12T12:07:46Z</time>
      </trkpt>
      <trkpt lat="42.311713" lon="0.875885">
        <ele>1359.5</ele>
        <time>2018-06-12T12:07:48Z</time>
      </trkpt>
      <trkpt lat="42.311829" lon="0.875782">
        <ele>1360.0</ele>
        <time>2018-06-12T12:07:51Z</time>
      </trkpt>
      <trkpt lat="42.311930" lon="0.875694">
        <ele>1360.6</ele>
        <time>2018-06-12T12:07:55Z</time>
      </trkpt>
      <trkpt lat="42.312039" lon="0.875546">
        <ele>1361.1</ele>
        <time>2018-06-12T12:07:59Z</time>
      </trkpt>
      <trkpt lat="42.312121" lon="0.875472">
        <ele>1362.0</ele>
        <time>2018-06-12T12:08:01Z</time>
      </trkpt>
      <trkpt lat="42.312235" lon="0.875438">
        <ele>1361.3</ele>
        <time>2018-06-12T12:08:04Z</time>
      </trkpt>
      <trkpt lat="42.312375" lon="0.875419">
        <ele>1358.9</ele>
        <time>2018-06-12T12:08:08Z</time>
      </trkpt>
      <trkpt lat="42.312503" lon="0.875348">
        <ele>1353.1</ele>
        <time>2018-06-12T12:08:12Z</time>
      </trkpt>
      <trkpt lat="42.312606" lon="0.875240">
        <ele>1350.2</ele>
        <time>2018-06-12T12:08:15Z</time>
      </trkpt>
      <trkpt lat="42.312720" lon="0.875167">
        <ele>1346.5</ele>
        <time>2018-06-12T12:08:19Z</time>
      </trkpt>
      <trkpt lat="42.312838" lon="0.875123">
        <ele>1342.0</ele>
        <time>2018-06-12T12:08:22Z</time>
      </trkpt>
      <trkpt lat="42.312965" lon="0.875021">
        <ele>1341.4</ele>
        <time>2018-06-12T12:08:26Z</time>
      </trkpt>
      <trkpt lat="42.313089" lon="0.874865">
        <ele>1348.8</ele>
        <time>2018-06-12T12:08:31Z</time>
      </trkpt>
      <trkpt lat="42.313178" lon="0.874691">
        <ele>1352.7</ele>
        <time>2018-06-12T12:08:35Z</time>
      </trkpt>
      <trkpt lat="42.313416" lon="0.874157">
        <ele>1342.4</ele>
        <time>2018-06-12T12:08:48Z</time>
      </trkpt>
      <trkpt lat="42.313519" lon="0.873957">
        <ele>1337.5</ele>
        <time>2018-06-12T12:08:52Z</time>
      </trkpt>
      <trkpt lat="42.313583" lon="0.873776">
        <ele>1328.3</ele>
        <time>2018-06-12T12:08:57Z</time>
      </trkpt>
      <trkpt lat="42.313602" lon="0.873564">
        <ele>1322.8</ele>
        <time>2018-06-12T12:09:01Z</time>
      </trkpt>
      <trkpt lat="42.313619" lon="0.873295">
        <ele>1320.0</ele>
        <time>2018-06-12T12:09:07Z</time>
      </trkpt>
      <trkpt lat="42.313609" lon="0.873107">
        <ele>1318.6</ele>
        <time>2018-06-12T12:09:10Z</time>
      </trkpt>
      <trkpt lat="42.313564" lon="0.872893">
        <ele>1314.8</ele>
        <time>2018-06-12T12:09:15Z</time>
      </trkpt>
      <trkpt lat="42.313518" lon="0.872754">
        <ele>1310.1</ele>
        <time>2018-06-12T12:09:18Z</time>
      </trkpt>
      <trkpt lat="42.313460" lon="0.872696">
        <ele>1307.9</ele>
        <time>2018-06-12T12:09:20Z</time>
      </trkpt>
      <trkpt lat="42.313379" lon="0.872721">
        <ele>1307.9</ele>
        <time>2018-06-12T12:09:22Z</time>
      </trkpt>
      <trkpt lat="42.313235" lon="0.872784">
        <ele>1307.7</ele>
        <time>2018-06-12T12:09:26Z</time>
      </trkpt>
      <trkpt lat="42.313163" lon="0.872839">
        <ele>1308.3</ele>
        <time>2018-06-12T12:09:28Z</time>
      </trkpt>
      <trkpt lat="42.313041" lon="0.872891">
        <ele>1309.4</ele>
        <time>2018-06-12T12:09:32Z</time>
      </trkpt>
      <trkpt lat="42.312984" lon="0.872906">
        <ele>1309.7</ele>
        <time>2018-06-12T12:09:33Z</time>
      </trkpt>
      <trkpt lat="42.312924" lon="0.872896">
        <ele>1309.5</ele>
        <time>2018-06-12T12:09:35Z</time>
      </trkpt>
      <trkpt lat="42.312854" lon="0.872873">
        <ele>1309.6</ele>
        <time>2018-06-12T12:09:37Z</time>
      </trkpt>
      <trkpt lat="42.312759" lon="0.872849">
        <ele>1310.1</ele>
        <time>2018-06-12T12:09:39Z</time>
      </trkpt>
      <trkpt lat="42.312648" lon="0.872885">
        <ele>1312.2</ele>
        <time>2018-06-12T12:09:42Z</time>
      </trkpt>
      <trkpt lat="42.312566" lon="0.872925">
        <ele>1313.3</ele>
        <time>2018-06-12T12:09:44Z</time>
      </trkpt>
      <trkpt lat="42.312501" lon="0.872972">
        <ele>1314.9</ele>
        <time>2018-06-12T12:09:46Z</time>
      </trkpt>
      <trkpt lat="42.312449" lon="0.872980">
        <ele>1315.0</ele>
        <time>2018-06-12T12:09:48Z</time>
      </trkpt>
      <trkpt lat="42.312387" lon="0.872941">
        <ele>1313.7</ele>
        <time>2018-06-12T12:09:50Z</time>
      </trkpt>
      <trkpt lat="42.312324" lon="0.872904">
        <ele>1312.1</ele>
        <time>2018-06-12T12:09:52Z</time>
      </trkpt>
      <trkpt lat="42.312186" lon="0.872895">
        <ele>1309.1</ele>
        <time>2018-06-12T12:09:55Z</time>
      </trkpt>
      <trkpt lat="42.312088" lon="0.872912">
        <ele>1307.1</ele>
        <time>2018-06-12T12:09:58Z</time>
      </trkpt>
      <trkpt lat="42.312018" lon="0.872931">
        <ele>1307.4</ele>
        <time>2018-06-12T12:10:00Z</time>
      </trkpt>
      <trkpt lat="42.311947" lon="0.872981">
        <ele>1309.5</ele>
        <time>2018-06-12T12:10:02Z</time>
      </trkpt>
      <trkpt lat="42.311901" lon="0.872996">
        <ele>1310.1</ele>
        <time>2018-06-12T12:10:03Z</time>
      </trkpt>
      <trkpt lat="42.311851" lon="0.872962">
        <ele>1308.4</ele>
        <time>2018-06-12T12:10:05Z</time>
      </trkpt>
      <trkpt lat="42.311767" lon="0.872905">
        <ele>1306.0</ele>
        <time>2018-06-12T12:10:07Z</time>
      </trkpt>
      <trkpt lat="42.311699" lon="0.872907">
        <ele>1306.6</ele>
        <time>2018-06-12T12:10:09Z</time>
      </trkpt>
      <trkpt lat="42.311599" lon="0.872863">
        <ele>1306.8</ele>
        <time>2018-06-12T12:10:12Z</time>
      </trkpt>
      <trkpt lat="42.311455" lon="0.872832">
        <ele>1306.5</ele>
        <time>2018-06-12T12:10:16Z</time>
      </trkpt>
      <trkpt lat="42.311299" lon="0.872789">
        <ele>1304.6</ele>
        <time>2018-06-12T12:10:20Z</time>
      </trkpt>
      <trkpt lat="42.311132" lon="0.872757">
        <ele>1303.0</ele>
        <time>2018-06-12T12:10:24Z</time>
      </trkpt>
      <trkpt lat="42.310920" lon="0.872675">
        <ele>1303.4</ele>
        <time>2018-06-12T12:10:30Z</time>
      </trkpt>
      <trkpt lat="42.310826" lon="0.872593">
        <ele>1307.8</ele>
        <time>2018-06-12T12:10:33Z</time>
      </trkpt>
      <trkpt lat="42.310744" lon="0.872505">
        <ele>1313.3</ele>
        <time>2018-06-12T12:10:36Z</time>
      </trkpt>
      <trkpt lat="42.310769" lon="0.872398">
        <ele>1316.3</ele>
        <time>2018-06-12T12:10:39Z</time>
      </trkpt>
      <trkpt lat="42.310814" lon="0.872333">
        <ele>1317.5</ele>
        <time>2018-06-12T12:10:40Z</time>
      </trkpt>
      <trkpt lat="42.310863" lon="0.872274">
        <ele>1319.0</ele>
        <time>2018-06-12T12:10:42Z</time>
      </trkpt>
      <trkpt lat="42.311118" lon="0.872130">
        <ele>1319.2</ele>
        <time>2018-06-12T12:10:49Z</time>
      </trkpt>
      <trkpt lat="42.311393" lon="0.871974">
        <ele>1317.4</ele>
        <time>2018-06-12T12:10:57Z</time>
      </trkpt>
      <trkpt lat="42.311554" lon="0.871834">
        <ele>1317.8</ele>
        <time>2018-06-12T12:11:02Z</time>
      </trkpt>
      <trkpt lat="42.311702" lon="0.871662">
        <ele>1325.3</ele>
        <time>2018-06-12T12:11:08Z</time>
      </trkpt>
      <trkpt lat="42.311834" lon="0.871521">
        <ele>1326.6</ele>
        <time>2018-06-12T12:11:12Z</time>
      </trkpt>
      <trkpt lat="42.312015" lon="0.871383">
        <ele>1317.9</ele>
        <time>2018-06-12T12:11:18Z</time>
      </trkpt>
      <trkpt lat="42.312207" lon="0.871270">
        <ele>1311.1</ele>
        <time>2018-06-12T12:11:24Z</time>
      </trkpt>
      <trkpt lat="42.312380" lon="0.871026">
        <ele>1302.4</ele>
        <time>2018-06-12T12:11:31Z</time>
      </trkpt>
      <trkpt lat="42.312504" lon="0.870802">
        <ele>1288.7</ele>
        <time>2018-06-12T12:11:37Z</time>
      </trkpt>
      <trkpt lat="42.312561" lon="0.870671">
        <ele>1282.3</ele>
        <time>2018-06-12T12:11:40Z</time>
      </trkpt>
      <trkpt lat="42.312582" lon="0.870570">
        <ele>1278.5</ele>
        <time>2018-06-12T12:11:43Z</time>
      </trkpt>
      <trkpt lat="42.312576" lon="0.870477">
        <ele>1276.4</ele>
        <time>2018-06-12T12:11:44Z</time>
      </trkpt>
      <trkpt lat="42.312528" lon="0.870414">
        <ele>1277.8</ele>
        <time>2018-06-12T12:11:46Z</time>
      </trkpt>
      <trkpt lat="42.312449" lon="0.870379">
        <ele>1282.3</ele>
        <time>2018-06-12T12:11:49Z</time>
      </trkpt>
      <trkpt lat="42.312377" lon="0.870426">
        <ele>1287.2</ele>
        <time>2018-06-12T12:11:51Z</time>
      </trkpt>
      <trkpt lat="42.312279" lon="0.870454">
        <ele>1293.0</ele>
        <time>2018-06-12T12:11:54Z</time>
      </trkpt>
      <trkpt lat="42.312208" lon="0.870456">
        <ele>1296.8</ele>
        <time>2018-06-12T12:11:56Z</time>
      </trkpt>
      <trkpt lat="42.312168" lon="0.870371">
        <ele>1298.3</ele>
        <time>2018-06-12T12:11:58Z</time>
      </trkpt>
      <trkpt lat="42.312195" lon="0.870216">
        <ele>1296.1</ele>
        <time>2018-06-12T12:12:01Z</time>
      </trkpt>
      <trkpt lat="42.312235" lon="0.870099">
        <ele>1292.6</ele>
        <time>2018-06-12T12:12:04Z</time>
      </trkpt>
      <trkpt lat="42.312253" lon="0.869885">
        <ele>1288.5</ele>
        <time>2018-06-12T12:12:08Z</time>
      </trkpt>
      <trkpt lat="42.312250" lon="0.869698">
        <ele>1285.2</ele>
        <time>2018-06-12T12:12:12Z</time>
      </trkpt>
      <trkpt lat="42.312229" lon="0.869506">
        <ele>1282.9</ele>
        <time>2018-06-12T12:12:16Z</time>
      </trkpt>
      <trkpt lat="42.312226" lon="0.869372">
        <ele>1280.9</ele>
        <time>2018-06-12T12:12:18Z</time>
      </trkpt>
      <trkpt lat="42.312219" lon="0.869255">
        <ele>1279.5</ele>
        <time>2018-06-12T12:12:21Z</time>
      </trkpt>
      <trkpt lat="42.312212" lon="0.869181">
        <ele>1278.9</ele>
        <time>2018-06-12T12:12:22Z</time>
      </trkpt>
      <trkpt lat="42.312237" lon="0.869125">
        <ele>1277.6</ele>
        <time>2018-06-12T12:12:24Z</time>
      </trkpt>
      <trkpt lat="42.312279" lon="0.869120">
        <ele>1276.3</ele>
        <time>2018-06-12T12:12:25Z</time>
      </trkpt>
      <trkpt lat="42.312302" lon="0.869166">
        <ele>1276.2</ele>
        <time>2018-06-12T12:12:26Z</time>
      </trkpt>
      <trkpt lat="42.312340" lon="0.869282">
        <ele>1276.3</ele>
        <time>2018-06-12T12:12:28Z</time>
      </trkpt>
      <trkpt lat="42.312354" lon="0.869431">
        <ele>1276.7</ele>
        <time>2018-06-12T12:12:31Z</time>
      </trkpt>
      <trkpt lat="42.312396" lon="0.869547">
        <ele>1275.4</ele>
        <time>2018-06-12T12:12:34Z</time>
      </trkpt>
      <trkpt lat="42.312414" lon="0.869645">
        <ele>1275.7</ele>
        <time>2018-06-12T12:12:36Z</time>
      </trkpt>
      <trkpt lat="42.312438" lon="0.869776">
        <ele>1276.6</ele>
        <time>2018-06-12T12:12:38Z</time>
      </trkpt>
      <trkpt lat="42.312452" lon="0.869873">
        <ele>1277.2</ele>
        <time>2018-06-12T12:12:40Z</time>
      </trkpt>
      <trkpt lat="42.312494" lon="0.869907">
        <ele>1275.3</ele>
        <time>2018-06-12T12:12:42Z</time>
      </trkpt>
      <trkpt lat="42.312547" lon="0.869890">
        <ele>1272.3</ele>
        <time>2018-06-12T12:12:43Z</time>
      </trkpt>
      <trkpt lat="42.312579" lon="0.869798">
        <ele>1269.6</ele>
        <time>2018-06-12T12:12:45Z</time>
      </trkpt>
      <trkpt lat="42.312572" lon="0.869748">
        <ele>1269.5</ele>
        <time>2018-06-12T12:12:46Z</time>
      </trkpt>
      <trkpt lat="42.312637" lon="0.869306">
        <ele>1265.1</ele>
        <time>2018-06-12T12:12:55Z</time>
      </trkpt>
      <trkpt lat="42.312698" lon="0.869087">
        <ele>1265.9</ele>
        <time>2018-06-12T12:13:00Z</time>
      </trkpt>
      <trkpt lat="42.312744" lon="0.868953">
        <ele>1264.7</ele>
        <time>2018-06-12T12:13:03Z</time>
      </trkpt>
      <trkpt lat="42.312775" lon="0.868824">
        <ele>1262.7</ele>
        <time>2018-06-12T12:13:05Z</time>
      </trkpt>
      <trkpt lat="42.312769" lon="0.868694">
        <ele>1262.6</ele>
        <time>2018-06-12T12:13:08Z</time>
      </trkpt>
      <trkpt lat="42.312726" lon="0.868548">
        <ele>1264.7</ele>
        <time>2018-06-12T12:13:11Z</time>
      </trkpt>
      <trkpt lat="42.312672" lon="0.868467">
        <ele>1266.3</ele>
        <time>2018-06-12T12:13:13Z</time>
      </trkpt>
      <trkpt lat="42.312588" lon="0.868373">
        <ele>1269.3</ele>
        <time>2018-06-12T12:13:16Z</time>
      </trkpt>
      <trkpt lat="42.312493" lon="0.868347">
        <ele>1271.9</ele>
        <time>2018-06-12T12:13:19Z</time>
      </trkpt>
      <trkpt lat="42.312428" lon="0.868268">
        <ele>1275.2</ele>
        <time>2018-06-12T12:13:21Z</time>
      </trkpt>
      <trkpt lat="42.312407" lon="0.868141">
        <ele>1278.7</ele>
        <time>2018-06-12T12:13:24Z</time>
      </trkpt>
      <trkpt lat="42.312475" lon="0.868062">
        <ele>1277.7</ele>
        <time>2018-06-12T12:13:26Z</time>
      </trkpt>
      <trkpt lat="42.312598" lon="0.867979">
        <ele>1273.4</ele>
        <time>2018-06-12T12:13:30Z</time>
      </trkpt>
      <trkpt lat="42.312712" lon="0.867914">
        <ele>1271.8</ele>
        <time>2018-06-12T12:13:33Z</time>
      </trkpt>
      <trkpt lat="42.312797" lon="0.867780">
        <ele>1275.2</ele>
        <time>2018-06-12T12:13:37Z</time>
      </trkpt>
      <trkpt lat="42.312887" lon="0.867635">
        <ele>1277.6</ele>
        <time>2018-06-12T12:13:40Z</time>
      </trkpt>
      <trkpt lat="42.312991" lon="0.867527">
        <ele>1278.1</ele>
        <time>2018-06-12T12:13:44Z</time>
      </trkpt>
      <trkpt lat="42.313090" lon="0.867475">
        <ele>1277.0</ele>
        <time>2018-06-12T12:13:47Z</time>
      </trkpt>
      <trkpt lat="42.313197" lon="0.867362">
        <ele>1276.9</ele>
        <time>2018-06-12T12:13:50Z</time>
      </trkpt>
      <trkpt lat="42.313276" lon="0.867231">
        <ele>1275.0</ele>
        <time>2018-06-12T12:13:54Z</time>
      </trkpt>
      <trkpt lat="42.313307" lon="0.867102">
        <ele>1274.5</ele>
        <time>2018-06-12T12:13:56Z</time>
      </trkpt>
      <trkpt lat="42.313384" lon="0.866827">
        <ele>1273.7</ele>
        <time>2018-06-12T12:14:02Z</time>
      </trkpt>
      <trkpt lat="42.313629" lon="0.866263">
        <ele>1276.9</ele>
        <time>2018-06-12T12:14:15Z</time>
      </trkpt>
      <trkpt lat="42.313702" lon="0.866134">
        <ele>1278.0</ele>
        <time>2018-06-12T12:14:18Z</time>
      </trkpt>
      <trkpt lat="42.313904" lon="0.865800">
        <ele>1277.5</ele>
        <time>2018-06-12T12:14:26Z</time>
      </trkpt>
      <trkpt lat="42.314082" lon="0.865430">
        <ele>1274.3</ele>
        <time>2018-06-12T12:14:35Z</time>
      </trkpt>
      <trkpt lat="42.314160" lon="0.865303">
        <ele>1273.6</ele>
        <time>2018-06-12T12:14:38Z</time>
      </trkpt>
      <trkpt lat="42.314362" lon="0.865196">
        <ele>1269.6</ele>
        <time>2018-06-12T12:14:44Z</time>
      </trkpt>
      <trkpt lat="42.314633" lon="0.864981">
        <ele>1264.1</ele>
        <time>2018-06-12T12:14:52Z</time>
      </trkpt>
      <trkpt lat="42.314735" lon="0.864891">
        <ele>1262.6</ele>
        <time>2018-06-12T12:14:56Z</time>
      </trkpt>
      <trkpt lat="42.314785" lon="0.864807">
        <ele>1262.7</ele>
        <time>2018-06-12T12:14:58Z</time>
      </trkpt>
      <trkpt lat="42.314836" lon="0.864666">
        <ele>1264.1</ele>
        <time>2018-06-12T12:15:01Z</time>
      </trkpt>
      <trkpt lat="42.314859" lon="0.864474">
        <ele>1266.2</ele>
        <time>2018-06-12T12:15:05Z</time>
      </trkpt>
      <trkpt lat="42.314870" lon="0.864312">
        <ele>1267.7</ele>
        <time>2018-06-12T12:15:08Z</time>
      </trkpt>
      <trkpt lat="42.314914" lon="0.864230">
        <ele>1268.5</ele>
        <time>2018-06-12T12:15:10Z</time>
      </trkpt>
      <trkpt lat="42.314971" lon="0.864184">
        <ele>1268.9</ele>
        <time>2018-06-12T12:15:11Z</time>
      </trkpt>
      <trkpt lat="42.315063" lon="0.864188">
        <ele>1267.6</ele>
        <time>2018-06-12T12:15:14Z</time>
      </trkpt>
      <trkpt lat="42.315177" lon="0.864197">
        <ele>1265.9</ele>
        <time>2018-06-12T12:15:17Z</time>
      </trkpt>
      <trkpt lat="42.315269" lon="0.864229">
        <ele>1263.9</ele>
        <time>2018-06-12T12:15:19Z</time>
      </trkpt>
      <trkpt lat="42.315351" lon="0.864263">
        <ele>1261.9</ele>
        <time>2018-06-12T12:15:22Z</time>
      </trkpt>
      <trkpt lat="42.315445" lon="0.864280">
        <ele>1261.0</ele>
        <time>2018-06-12T12:15:24Z</time>
      </trkpt>
      <trkpt lat="42.315503" lon="0.864255">
        <ele>1262.2</ele>
        <time>2018-06-12T12:15:26Z</time>
      </trkpt>
      <trkpt lat="42.315553" lon="0.864173">
        <ele>1264.8</ele>
        <time>2018-06-12T12:15:28Z</time>
      </trkpt>
      <trkpt lat="42.315616" lon="0.864110">
        <ele>1266.8</ele>
        <time>2018-06-12T12:15:30Z</time>
      </trkpt>
      <trkpt lat="42.315756" lon="0.864053">
        <ele>1268.4</ele>
        <time>2018-06-12T12:15:34Z</time>
      </trkpt>
      <trkpt lat="42.315945" lon="0.863946">
        <ele>1270.9</ele>
        <time>2018-06-12T12:15:39Z</time>
      </trkpt>
      <trkpt lat="42.316066" lon="0.863852">
        <ele>1270.2</ele>
        <time>2018-06-12T12:15:43Z</time>
      </trkpt>
      <trkpt lat="42.316173" lon="0.863791">
        <ele>1268.0</ele>
        <time>2018-06-12T12:15:46Z</time>
      </trkpt>
      <trkpt lat="42.316221" lon="0.863729">
        <ele>1267.4</ele>
        <time>2018-06-12T12:15:48Z</time>
      </trkpt>
      <trkpt lat="42.316295" lon="0.863574">
        <ele>1267.9</ele>
        <time>2018-06-12T12:15:52Z</time>
      </trkpt>
      <trkpt lat="42.316396" lon="0.863405">
        <ele>1266.6</ele>
        <time>2018-06-12T12:15:56Z</time>
      </trkpt>
      <trkpt lat="42.316467" lon="0.863268">
        <ele>1265.4</ele>
        <time>2018-06-12T12:15:59Z</time>
      </trkpt>
      <trkpt lat="42.316534" lon="0.863132">
        <ele>1265.2</ele>
        <time>2018-06-12T12:16:02Z</time>
      </trkpt>
      <trkpt lat="42.316730" lon="0.862928">
        <ele>1262.8</ele>
        <time>2018-06-12T12:16:09Z</time>
      </trkpt>
      <trkpt lat="42.316938" lon="0.862717">
        <ele>1255.9</ele>
        <time>2018-06-12T12:16:16Z</time>
      </trkpt>
      <trkpt lat="42.317030" lon="0.862594">
        <ele>1253.7</ele>
        <time>2018-06-12T12:16:19Z</time>
      </trkpt>
      <trkpt lat="42.317104" lon="0.862434">
        <ele>1255.9</ele>
        <time>2018-06-12T12:16:23Z</time>
      </trkpt>
      <trkpt lat="42.317287" lon="0.862093">
        <ele>1258.5</ele>
        <time>2018-06-12T12:16:31Z</time>
      </trkpt>
      <trkpt lat="42.317379" lon="0.861990">
        <ele>1255.6</ele>
        <time>2018-06-12T12:16:34Z</time>
      </trkpt>
      <trkpt lat="42.317726" lon="0.861558">
        <ele>1248.2</ele>
        <time>2018-06-12T12:16:47Z</time>
      </trkpt>
      <trkpt lat="42.317829" lon="0.861361">
        <ele>1240.6</ele>
        <time>2018-06-12T12:16:52Z</time>
      </trkpt>
      <trkpt lat="42.317892" lon="0.861191">
        <ele>1237.5</ele>
        <time>2018-06-12T12:16:56Z</time>
      </trkpt>
      <trkpt lat="42.317939" lon="0.861096">
        <ele>1237.6</ele>
        <time>2018-06-12T12:16:58Z</time>
      </trkpt>
      <trkpt lat="42.317986" lon="0.861061">
        <ele>1236.6</ele>
        <time>2018-06-12T12:16:59Z</time>
      </trkpt>
      <trkpt lat="42.318038" lon="0.861087">
        <ele>1234.8</ele>
        <time>2018-06-12T12:17:01Z</time>
      </trkpt>
      <trkpt lat="42.318038" lon="0.861161">
        <ele>1233.9</ele>
        <time>2018-06-12T12:17:02Z</time>
      </trkpt>
      <trkpt lat="42.318001" lon="0.861304">
        <ele>1234.1</ele>
        <time>2018-06-12T12:17:05Z</time>
      </trkpt>
      <trkpt lat="42.317996" lon="0.861432">
        <ele>1234.9</ele>
        <time>2018-06-12T12:17:08Z</time>
      </trkpt>
      <trkpt lat="42.318009" lon="0.861562">
        <ele>1234.4</ele>
        <time>2018-06-12T12:17:10Z</time>
      </trkpt>
      <trkpt lat="42.318001" lon="0.861678">
        <ele>1234.1</ele>
        <time>2018-06-12T12:17:13Z</time>
      </trkpt>
      <trkpt lat="42.317965" lon="0.861804">
        <ele>1235.7</ele>
        <time>2018-06-12T12:17:15Z</time>
      </trkpt>
      <trkpt lat="42.317875" lon="0.861942">
        <ele>1240.7</ele>
        <time>2018-06-12T12:17:19Z</time>
      </trkpt>
      <trkpt lat="42.317792" lon="0.862111">
        <ele>1243.3</ele>
        <time>2018-06-12T12:17:23Z</time>
      </trkpt>
      <trkpt lat="42.317766" lon="0.862238">
        <ele>1243.3</ele>
        <time>2018-06-12T12:17:26Z</time>
      </trkpt>
      <trkpt lat="42.317780" lon="0.862349">
        <ele>1242.0</ele>
        <time>2018-06-12T12:17:28Z</time>
      </trkpt>
      <trkpt lat="42.317815" lon="0.862384">
        <ele>1240.3</ele>
        <time>2018-06-12T12:17:29Z</time>
      </trkpt>
      <trkpt lat="42.317876" lon="0.862387">
        <ele>1238.1</ele>
        <time>2018-06-12T12:17:31Z</time>
      </trkpt>
      <trkpt lat="42.317955" lon="0.862342">
        <ele>1236.5</ele>
        <time>2018-06-12T12:17:33Z</time>
      </trkpt>
      <trkpt lat="42.318046" lon="0.862240">
        <ele>1233.6</ele>
        <time>2018-06-12T12:17:36Z</time>
      </trkpt>
      <trkpt lat="42.318108" lon="0.862129">
        <ele>1229.0</ele>
        <time>2018-06-12T12:17:39Z</time>
      </trkpt>
      <trkpt lat="42.318272" lon="0.861866">
        <ele>1218.3</ele>
        <time>2018-06-12T12:17:46Z</time>
      </trkpt>
      <trkpt lat="42.318415" lon="0.861692">
        <ele>1214.2</ele>
        <time>2018-06-12T12:17:52Z</time>
      </trkpt>
      <trkpt lat="42.318462" lon="0.861599">
        <ele>1213.6</ele>
        <time>2018-06-12T12:17:54Z</time>
      </trkpt>
      <trkpt lat="42.318468" lon="0.861508">
        <ele>1214.4</ele>
        <time>2018-06-12T12:17:56Z</time>
      </trkpt>
      <trkpt lat="42.318435" lon="0.861442">
        <ele>1216.6</ele>
        <time>2018-06-12T12:17:57Z</time>
      </trkpt>
      <trkpt lat="42.318400" lon="0.861413">
        <ele>1218.3</ele>
        <time>2018-06-12T12:17:58Z</time>
      </trkpt>
      <trkpt lat="42.318379" lon="0.861354">
        <ele>1220.1</ele>
        <time>2018-06-12T12:18:00Z</time>
      </trkpt>
      <trkpt lat="42.318387" lon="0.861292">
        <ele>1220.7</ele>
        <time>2018-06-12T12:18:01Z</time>
      </trkpt>
      <trkpt lat="42.318432" lon="0.861199">
        <ele>1220.6</ele>
        <time>2018-06-12T12:18:03Z</time>
      </trkpt>
      <trkpt lat="42.318470" lon="0.861073">
        <ele>1221.9</ele>
        <time>2018-06-12T12:18:06Z</time>
      </trkpt>
      <trkpt lat="42.318528" lon="0.860838">
        <ele>1221.6</ele>
        <time>2018-06-12T12:18:11Z</time>
      </trkpt>
      <trkpt lat="42.318549" lon="0.860685">
        <ele>1220.0</ele>
        <time>2018-06-12T12:18:14Z</time>
      </trkpt>
      <trkpt lat="42.318581" lon="0.860502">
        <ele>1221.6</ele>
        <time>2018-06-12T12:18:17Z</time>
      </trkpt>
      <trkpt lat="42.318619" lon="0.860409">
        <ele>1221.8</ele>
        <time>2018-06-12T12:18:19Z</time>
      </trkpt>
      <trkpt lat="42.318760" lon="0.860109">
        <ele>1216.3</ele>
        <time>2018-06-12T12:18:26Z</time>
      </trkpt>
      <trkpt lat="42.318970" lon="0.859713">
        <ele>1202.0</ele>
        <time>2018-06-12T12:18:37Z</time>
      </trkpt>
      <trkpt lat="42.319206" lon="0.859345">
        <ele>1190.3</ele>
        <time>2018-06-12T12:18:46Z</time>
      </trkpt>
      <trkpt lat="42.319263" lon="0.859224">
        <ele>1188.7</ele>
        <time>2018-06-12T12:18:49Z</time>
      </trkpt>
      <trkpt lat="42.319295" lon="0.859101">
        <ele>1188.7</ele>
        <time>2018-06-12T12:18:52Z</time>
      </trkpt>
      <trkpt lat="42.319300" lon="0.858948">
        <ele>1189.7</ele>
        <time>2018-06-12T12:18:55Z</time>
      </trkpt>
      <trkpt lat="42.319283" lon="0.858823">
        <ele>1191.0</ele>
        <time>2018-06-12T12:18:57Z</time>
      </trkpt>
      <trkpt lat="42.319257" lon="0.858765">
        <ele>1192.1</ele>
        <time>2018-06-12T12:18:59Z</time>
      </trkpt>
      <trkpt lat="42.319212" lon="0.858697">
        <ele>1195.7</ele>
        <time>2018-06-12T12:19:01Z</time>
      </trkpt>
      <trkpt lat="42.319187" lon="0.858619">
        <ele>1199.6</ele>
        <time>2018-06-12T12:19:02Z</time>
      </trkpt>
      <trkpt lat="42.319199" lon="0.858550">
        <ele>1202.4</ele>
        <time>2018-06-12T12:19:04Z</time>
      </trkpt>
      <trkpt lat="42.319230" lon="0.858510">
        <ele>1203.8</ele>
        <time>2018-06-12T12:19:05Z</time>
      </trkpt>
      <trkpt lat="42.319302" lon="0.858485">
        <ele>1204.4</ele>
        <time>2018-06-12T12:19:07Z</time>
      </trkpt>
      <trkpt lat="42.319386" lon="0.858465">
        <ele>1203.5</ele>
        <time>2018-06-12T12:19:09Z</time>
      </trkpt>
      <trkpt lat="42.319478" lon="0.858421">
        <ele>1203.0</ele>
        <time>2018-06-12T12:19:12Z</time>
      </trkpt>
      <trkpt lat="42.319550" lon="0.858358">
        <ele>1203.1</ele>
        <time>2018-06-12T12:19:14Z</time>
      </trkpt>
      <trkpt lat="42.319608" lon="0.858264">
        <ele>1204.0</ele>
        <time>2018-06-12T12:19:17Z</time>
      </trkpt>
      <trkpt lat="42.319672" lon="0.858202">
        <ele>1202.7</ele>
        <time>2018-06-12T12:19:19Z</time>
      </trkpt>
      <trkpt lat="42.319725" lon="0.858190">
        <ele>1200.4</ele>
        <time>2018-06-12T12:19:20Z</time>
      </trkpt>
      <trkpt lat="42.319830" lon="0.858223">
        <ele>1195.2</ele>
        <time>2018-06-12T12:19:23Z</time>
      </trkpt>
      <trkpt lat="42.319908" lon="0.858245">
        <ele>1193.2</ele>
        <time>2018-06-12T12:19:25Z</time>
      </trkpt>
      <trkpt lat="42.320040" lon="0.858211">
        <ele>1192.0</ele>
        <time>2018-06-12T12:19:29Z</time>
      </trkpt>
      <trkpt lat="42.320177" lon="0.858112">
        <ele>1192.3</ele>
        <time>2018-06-12T12:19:33Z</time>
      </trkpt>
      <trkpt lat="42.320236" lon="0.858004">
        <ele>1194.1</ele>
        <time>2018-06-12T12:19:36Z</time>
      </trkpt>
      <trkpt lat="42.320275" lon="0.857854">
        <ele>1197.3</ele>
        <time>2018-06-12T12:19:39Z</time>
      </trkpt>
      <trkpt lat="42.320288" lon="0.857657">
        <ele>1203.0</ele>
        <time>2018-06-12T12:19:43Z</time>
      </trkpt>
      <trkpt lat="42.320297" lon="0.857378">
        <ele>1208.0</ele>
        <time>2018-06-12T12:19:49Z</time>
      </trkpt>
      <trkpt lat="42.320305" lon="0.857294">
        <ele>1210.0</ele>
        <time>2018-06-12T12:19:50Z</time>
      </trkpt>
      <trkpt lat="42.320335" lon="0.857206">
        <ele>1211.7</ele>
        <time>2018-06-12T12:19:52Z</time>
      </trkpt>
      <trkpt lat="42.320540" lon="0.856867">
        <ele>1217.2</ele>
        <time>2018-06-12T12:20:01Z</time>
      </trkpt>
      <trkpt lat="42.320628" lon="0.856655">
        <ele>1220.3</ele>
        <time>2018-06-12T12:20:06Z</time>
      </trkpt>
      <trkpt lat="42.320750" lon="0.856299">
        <ele>1223.5</ele>
        <time>2018-06-12T12:20:13Z</time>
      </trkpt>
      <trkpt lat="42.320793" lon="0.856103">
        <ele>1225.7</ele>
        <time>2018-06-12T12:20:17Z</time>
      </trkpt>
      <trkpt lat="42.320830" lon="0.855863">
        <ele>1229.1</ele>
        <time>2018-06-12T12:20:22Z</time>
      </trkpt>
      <trkpt lat="42.320879" lon="0.855632">
        <ele>1229.8</ele>
        <time>2018-06-12T12:20:27Z</time>
      </trkpt>
      <trkpt lat="42.320887" lon="0.855400">
        <ele>1231.8</ele>
        <time>2018-06-12T12:20:31Z</time>
      </trkpt>
      <trkpt lat="42.320938" lon="0.854907">
        <ele>1223.8</ele>
        <time>2018-06-12T12:20:41Z</time>
      </trkpt>
      <trkpt lat="42.320968" lon="0.854821">
        <ele>1222.2</ele>
        <time>2018-06-12T12:20:43Z</time>
      </trkpt>
      <trkpt lat="42.321025" lon="0.854762">
        <ele>1222.4</ele>
        <time>2018-06-12T12:20:45Z</time>
      </trkpt>
      <trkpt lat="42.321099" lon="0.854690">
        <ele>1222.6</ele>
        <time>2018-06-12T12:20:47Z</time>
      </trkpt>
      <trkpt lat="42.321164" lon="0.854580">
        <ele>1223.9</ele>
        <time>2018-06-12T12:20:50Z</time>
      </trkpt>
      <trkpt lat="42.321216" lon="0.854468">
        <ele>1224.8</ele>
        <time>2018-06-12T12:20:53Z</time>
      </trkpt>
      <trkpt lat="42.321337" lon="0.854283">
        <ele>1225.0</ele>
        <time>2018-06-12T12:20:58Z</time>
      </trkpt>
      <trkpt lat="42.321380" lon="0.854210">
        <ele>1226.1</ele>
        <time>2018-06-12T12:20:59Z</time>
      </trkpt>
      <trkpt lat="42.321478" lon="0.854066">
        <ele>1227.0</ele>
        <time>2018-06-12T12:21:03Z</time>
      </trkpt>
      <trkpt lat="42.321607" lon="0.853846">
        <ele>1224.3</ele>
        <time>2018-06-12T12:21:09Z</time>
      </trkpt>
      <trkpt lat="42.321668" lon="0.853684">
        <ele>1227.1</ele>
        <time>2018-06-12T12:21:12Z</time>
      </trkpt>
      <trkpt lat="42.321711" lon="0.853475">
        <ele>1235.3</ele>
        <time>2018-06-12T12:21:17Z</time>
      </trkpt>
      <trkpt lat="42.321713" lon="0.853352">
        <ele>1237.2</ele>
        <time>2018-06-12T12:21:19Z</time>
      </trkpt>
      <trkpt lat="42.321662" lon="0.853224">
        <ele>1240.7</ele>
        <time>2018-06-12T12:21:22Z</time>
      </trkpt>
      <trkpt lat="42.321621" lon="0.853164">
        <ele>1243.2</ele>
        <time>2018-06-12T12:21:24Z</time>
      </trkpt>
      <trkpt lat="42.321605" lon="0.853060">
        <ele>1246.4</ele>
        <time>2018-06-12T12:21:26Z</time>
      </trkpt>
      <trkpt lat="42.321650" lon="0.852978">
        <ele>1247.6</ele>
        <time>2018-06-12T12:21:28Z</time>
      </trkpt>
      <trkpt lat="42.321737" lon="0.852884">
        <ele>1248.4</ele>
        <time>2018-06-12T12:21:31Z</time>
      </trkpt>
      <trkpt lat="42.321904" lon="0.852722">
        <ele>1249.4</ele>
        <time>2018-06-12T12:21:37Z</time>
      </trkpt>
      <trkpt lat="42.321976" lon="0.852634">
        <ele>1250.4</ele>
        <time>2018-06-12T12:21:39Z</time>
      </trkpt>
      <trkpt lat="42.322055" lon="0.852378">
        <ele>1253.4</ele>
        <time>2018-06-12T12:21:45Z</time>
      </trkpt>
      <trkpt lat="42.322097" lon="0.852240">
        <ele>1254.4</ele>
        <time>2018-06-12T12:21:48Z</time>
      </trkpt>
      <trkpt lat="42.322188" lon="0.852108">
        <ele>1253.0</ele>
        <time>2018-06-12T12:21:51Z</time>
      </trkpt>
      <trkpt lat="42.322237" lon="0.851988">
        <ele>1253.4</ele>
        <time>2018-06-12T12:21:54Z</time>
      </trkpt>
      <trkpt lat="42.322245" lon="0.851892">
        <ele>1255.0</ele>
        <time>2018-06-12T12:21:56Z</time>
      </trkpt>
      <trkpt lat="42.322283" lon="0.851778">
        <ele>1256.4</ele>
        <time>2018-06-12T12:21:58Z</time>
      </trkpt>
      <trkpt lat="42.322359" lon="0.851670">
        <ele>1257.9</ele>
        <time>2018-06-12T12:22:01Z</time>
      </trkpt>
      <trkpt lat="42.322456" lon="0.851525">
        <ele>1260.0</ele>
        <time>2018-06-12T12:22:05Z</time>
      </trkpt>
      <trkpt lat="42.322508" lon="0.851412">
        <ele>1261.8</ele>
        <time>2018-06-12T12:22:08Z</time>
      </trkpt>
      <trkpt lat="42.322525" lon="0.851299">
        <ele>1264.8</ele>
        <time>2018-06-12T12:22:10Z</time>
      </trkpt>
      <trkpt lat="42.322527" lon="0.851200">
        <ele>1267.1</ele>
        <time>2018-06-12T12:22:12Z</time>
      </trkpt>
      <trkpt lat="42.322519" lon="0.851094">
        <ele>1269.3</ele>
        <time>2018-06-12T12:22:14Z</time>
      </trkpt>
      <trkpt lat="42.322532" lon="0.850988">
        <ele>1270.7</ele>
        <time>2018-06-12T12:22:16Z</time>
      </trkpt>
      <trkpt lat="42.322590" lon="0.850890">
        <ele>1270.7</ele>
        <time>2018-06-12T12:22:19Z</time>
      </trkpt>
      <trkpt lat="42.322691" lon="0.850760">
        <ele>1268.1</ele>
        <time>2018-06-12T12:22:22Z</time>
      </trkpt>
      <trkpt lat="42.322779" lon="0.850600">
        <ele>1264.3</ele>
        <time>2018-06-12T12:22:26Z</time>
      </trkpt>
      <trkpt lat="42.322885" lon="0.850329">
        <ele>1261.1</ele>
        <time>2018-06-12T12:22:32Z</time>
      </trkpt>
      <trkpt lat="42.323090" lon="0.849698">
        <ele>1252.4</ele>
        <time>2018-06-12T12:22:46Z</time>
      </trkpt>
      <trkpt lat="42.323200" lon="0.849292">
        <ele>1248.8</ele>
        <time>2018-06-12T12:22:54Z</time>
      </trkpt>
      <trkpt lat="42.323274" lon="0.848977">
        <ele>1248.1</ele>
        <time>2018-06-12T12:23:01Z</time>
      </trkpt>
      <trkpt lat="42.323315" lon="0.848889">
        <ele>1250.7</ele>
        <time>2018-06-12T12:23:03Z</time>
      </trkpt>
      <trkpt lat="42.323416" lon="0.848734">
        <ele>1251.1</ele>
        <time>2018-06-12T12:23:07Z</time>
      </trkpt>
      <trkpt lat="42.323497" lon="0.848630">
        <ele>1250.4</ele>
        <time>2018-06-12T12:23:10Z</time>
      </trkpt>
      <trkpt lat="42.323548" lon="0.848508">
        <ele>1252.5</ele>
        <time>2018-06-12T12:23:13Z</time>
      </trkpt>
      <trkpt lat="42.323654" lon="0.848236">
        <ele>1246.6</ele>
        <time>2018-06-12T12:23:19Z</time>
      </trkpt>
      <trkpt lat="42.323773" lon="0.847944">
        <ele>1243.3</ele>
        <time>2018-06-12T12:23:25Z</time>
      </trkpt>
      <trkpt lat="42.323833" lon="0.847739">
        <ele>1245.2</ele>
        <time>2018-06-12T12:23:30Z</time>
      </trkpt>
      <trkpt lat="42.323925" lon="0.847318">
        <ele>1247.8</ele>
        <time>2018-06-12T12:23:38Z</time>
      </trkpt>
      <trkpt lat="42.324032" lon="0.846608">
        <ele>1256.9</ele>
        <time>2018-06-12T12:23:53Z</time>
      </trkpt>
      <trkpt lat="42.324129" lon="0.846159">
        <ele>1255.8</ele>
        <time>2018-06-12T12:24:02Z</time>
      </trkpt>
      <trkpt lat="42.324226" lon="0.845720">
        <ele>1258.2</ele>
        <time>2018-06-12T12:24:11Z</time>
      </trkpt>
      <trkpt lat="42.324342" lon="0.845225">
        <ele>1258.5</ele>
        <time>2018-06-12T12:24:21Z</time>
      </trkpt>
      <trkpt lat="42.324435" lon="0.844902">
        <ele>1255.4</ele>
        <time>2018-06-12T12:24:28Z</time>
      </trkpt>
      <trkpt lat="42.324527" lon="0.844566">
        <ele>1255.6</ele>
        <time>2018-06-12T12:24:35Z</time>
      </trkpt>
      <trkpt lat="42.324627" lon="0.844118">
        <ele>1262.7</ele>
        <time>2018-06-12T12:24:44Z</time>
      </trkpt>
      <trkpt lat="42.324635" lon="0.843936">
        <ele>1266.1</ele>
        <time>2018-06-12T12:24:47Z</time>
      </trkpt>
      <trkpt lat="42.324678" lon="0.843821">
        <ele>1266.9</ele>
        <time>2018-06-12T12:24:50Z</time>
      </trkpt>
      <trkpt lat="42.324704" lon="0.843715">
        <ele>1267.9</ele>
        <time>2018-06-12T12:24:52Z</time>
      </trkpt>
      <trkpt lat="42.324697" lon="0.843626">
        <ele>1268.8</ele>
        <time>2018-06-12T12:24:54Z</time>
      </trkpt>
      <trkpt lat="42.324710" lon="0.843516">
        <ele>1269.0</ele>
        <time>2018-06-12T12:24:56Z</time>
      </trkpt>
      <trkpt lat="42.324743" lon="0.843398">
        <ele>1269.1</ele>
        <time>2018-06-12T12:24:59Z</time>
      </trkpt>
      <trkpt lat="42.324774" lon="0.843248">
        <ele>1269.7</ele>
        <time>2018-06-12T12:25:02Z</time>
      </trkpt>
      <trkpt lat="42.324775" lon="0.843080">
        <ele>1270.6</ele>
        <time>2018-06-12T12:25:05Z</time>
      </trkpt>
      <trkpt lat="42.324717" lon="0.842821">
        <ele>1273.0</ele>
        <time>2018-06-12T12:25:10Z</time>
      </trkpt>
      <trkpt lat="42.324627" lon="0.842541">
        <ele>1276.6</ele>
        <time>2018-06-12T12:25:16Z</time>
      </trkpt>
      <trkpt lat="42.324595" lon="0.842210">
        <ele>1278.1</ele>
        <time>2018-06-12T12:25:23Z</time>
      </trkpt>
      <trkpt lat="42.324576" lon="0.841950">
        <ele>1278.3</ele>
        <time>2018-06-12T12:25:28Z</time>
      </trkpt>
      <trkpt lat="42.324589" lon="0.841832">
        <ele>1277.9</ele>
        <time>2018-06-12T12:25:30Z</time>
      </trkpt>
      <trkpt lat="42.324604" lon="0.841700">
        <ele>1278.3</ele>
        <time>2018-06-12T12:25:33Z</time>
      </trkpt>
      <trkpt lat="42.324653" lon="0.841479">
        <ele>1276.9</ele>
        <time>2018-06-12T12:25:37Z</time>
      </trkpt>
      <trkpt lat="42.324718" lon="0.841297">
        <ele>1274.4</ele>
        <time>2018-06-12T12:25:41Z</time>
      </trkpt>
      <trkpt lat="42.324766" lon="0.841184">
        <ele>1274.0</ele>
        <time>2018-06-12T12:25:44Z</time>
      </trkpt>
      <trkpt lat="42.324783" lon="0.841118">
        <ele>1274.8</ele>
        <time>2018-06-12T12:25:45Z</time>
      </trkpt>
      <trkpt lat="42.324776" lon="0.841067">
        <ele>1276.3</ele>
        <time>2018-06-12T12:25:46Z</time>
      </trkpt>
      <trkpt lat="42.324744" lon="0.841041">
        <ele>1278.6</ele>
        <time>2018-06-12T12:25:47Z</time>
      </trkpt>
      <trkpt lat="42.324693" lon="0.841030">
        <ele>1281.6</ele>
        <time>2018-06-12T12:25:49Z</time>
      </trkpt>
      <trkpt lat="42.324647" lon="0.841050">
        <ele>1283.4</ele>
        <time>2018-06-12T12:25:50Z</time>
      </trkpt>
      <trkpt lat="42.324595" lon="0.841114">
        <ele>1284.3</ele>
        <time>2018-06-12T12:25:52Z</time>
      </trkpt>
      <trkpt lat="42.324540" lon="0.841211">
        <ele>1284.0</ele>
        <time>2018-06-12T12:25:54Z</time>
      </trkpt>
      <trkpt lat="42.324415" lon="0.841451">
        <ele>1286.2</ele>
        <time>2018-06-12T12:26:00Z</time>
      </trkpt>
      <trkpt lat="42.324384" lon="0.841562">
        <ele>1285.8</ele>
        <time>2018-06-12T12:26:02Z</time>
      </trkpt>
      <trkpt lat="42.324356" lon="0.841630">
        <ele>1286.2</ele>
        <time>2018-06-12T12:26:04Z</time>
      </trkpt>
      <trkpt lat="42.324323" lon="0.841665">
        <ele>1287.0</ele>
        <time>2018-06-12T12:26:05Z</time>
      </trkpt>
      <trkpt lat="42.324294" lon="0.841665">
        <ele>1287.9</ele>
        <time>2018-06-12T12:26:06Z</time>
      </trkpt>
      <trkpt lat="42.324253" lon="0.841634">
        <ele>1289.6</ele>
        <time>2018-06-12T12:26:07Z</time>
      </trkpt>
      <trkpt lat="42.324242" lon="0.841561">
        <ele>1290.3</ele>
        <time>2018-06-12T12:26:09Z</time>
      </trkpt>
      <trkpt lat="42.324257" lon="0.841497">
        <ele>1290.5</ele>
        <time>2018-06-12T12:26:10Z</time>
      </trkpt>
      <trkpt lat="42.324315" lon="0.841344">
        <ele>1291.6</ele>
        <time>2018-06-12T12:26:13Z</time>
      </trkpt>
      <trkpt lat="42.324375" lon="0.841176">
        <ele>1291.7</ele>
        <time>2018-06-12T12:26:17Z</time>
      </trkpt>
      <trkpt lat="42.324393" lon="0.841042">
        <ele>1292.8</ele>
        <time>2018-06-12T12:26:20Z</time>
      </trkpt>
      <trkpt lat="42.324414" lon="0.840909">
        <ele>1294.1</ele>
        <time>2018-06-12T12:26:22Z</time>
      </trkpt>
      <trkpt lat="42.324461" lon="0.840810">
        <ele>1294.1</ele>
        <time>2018-06-12T12:26:25Z</time>
      </trkpt>
      <trkpt lat="42.324511" lon="0.840735">
        <ele>1293.6</ele>
        <time>2018-06-12T12:26:27Z</time>
      </trkpt>
      <trkpt lat="42.324564" lon="0.840664">
        <ele>1292.5</ele>
        <time>2018-06-12T12:26:29Z</time>
      </trkpt>
      <trkpt lat="42.324646" lon="0.840599">
        <ele>1290.3</ele>
        <time>2018-06-12T12:26:31Z</time>
      </trkpt>
      <trkpt lat="42.324707" lon="0.840535">
        <ele>1289.7</ele>
        <time>2018-06-12T12:26:33Z</time>
      </trkpt>
      <trkpt lat="42.324756" lon="0.840462">
        <ele>1290.3</ele>
        <time>2018-06-12T12:26:35Z</time>
      </trkpt>
      <trkpt lat="42.324783" lon="0.840362">
        <ele>1291.4</ele>
        <time>2018-06-12T12:26:37Z</time>
      </trkpt>
      <trkpt lat="42.324824" lon="0.840125">
        <ele>1291.2</ele>
        <time>2018-06-12T12:26:42Z</time>
      </trkpt>
      <trkpt lat="42.324909" lon="0.839836">
        <ele>1284.9</ele>
        <time>2018-06-12T12:26:48Z</time>
      </trkpt>
      <trkpt lat="42.324929" lon="0.839662">
        <ele>1284.2</ele>
        <time>2018-06-12T12:26:52Z</time>
      </trkpt>
      <trkpt lat="42.324949" lon="0.839452">
        <ele>1284.9</ele>
        <time>2018-06-12T12:26:56Z</time>
      </trkpt>
      <trkpt lat="42.325004" lon="0.839178">
        <ele>1286.6</ele>
        <time>2018-06-12T12:27:01Z</time>
      </trkpt>
      <trkpt lat="42.325087" lon="0.838949">
        <ele>1286.1</ele>
        <time>2018-06-12T12:27:06Z</time>
      </trkpt>
      <trkpt lat="42.325105" lon="0.838853">
        <ele>1284.9</ele>
        <time>2018-06-12T12:27:08Z</time>
      </trkpt>
      <trkpt lat="42.325120" lon="0.838726">
        <ele>1283.8</ele>
        <time>2018-06-12T12:27:11Z</time>
      </trkpt>
      <trkpt lat="42.325120" lon="0.838507">
        <ele>1287.3</ele>
        <time>2018-06-12T12:27:15Z</time>
      </trkpt>
      <trkpt lat="42.325116" lon="0.838281">
        <ele>1289.5</ele>
        <time>2018-06-12T12:27:19Z</time>
      </trkpt>
      <trkpt lat="42.325129" lon="0.838111">
        <ele>1289.5</ele>
        <time>2018-06-12T12:27:23Z</time>
      </trkpt>
      <trkpt lat="42.325191" lon="0.837851">
        <ele>1289.5</ele>
        <time>2018-06-12T12:27:28Z</time>
      </trkpt>
      <trkpt lat="42.325233" lon="0.837565">
        <ele>1296.5</ele>
        <time>2018-06-12T12:27:34Z</time>
      </trkpt>
      <trkpt lat="42.325286" lon="0.837275">
        <ele>1303.7</ele>
        <time>2018-06-12T12:27:40Z</time>
      </trkpt>
      <trkpt lat="42.325356" lon="0.837008">
        <ele>1309.6</ele>
        <time>2018-06-12T12:27:46Z</time>
      </trkpt>
      <trkpt lat="42.325433" lon="0.836626">
        <ele>1309.6</ele>
        <time>2018-06-12T12:27:53Z</time>
      </trkpt>
      <trkpt lat="42.325456" lon="0.836356">
        <ele>1307.2</ele>
        <time>2018-06-12T12:27:59Z</time>
      </trkpt>
      <trkpt lat="42.325463" lon="0.836020">
        <ele>1308.9</ele>
        <time>2018-06-12T12:28:05Z</time>
      </trkpt>
      <trkpt lat="42.325467" lon="0.835872">
        <ele>1307.7</ele>
        <time>2018-06-12T12:28:08Z</time>
      </trkpt>
      <trkpt lat="42.325481" lon="0.835751">
        <ele>1306.0</ele>
        <time>2018-06-12T12:28:11Z</time>
      </trkpt>
      <trkpt lat="42.325588" lon="0.835433">
        <ele>1308.7</ele>
        <time>2018-06-12T12:28:17Z</time>
      </trkpt>
      <trkpt lat="42.325616" lon="0.835276">
        <ele>1306.4</ele>
        <time>2018-06-12T12:28:21Z</time>
      </trkpt>
      <trkpt lat="42.325622" lon="0.835043">
        <ele>1302.4</ele>
        <time>2018-06-12T12:28:25Z</time>
      </trkpt>
      <trkpt lat="42.325668" lon="0.834518">
        <ele>1297.6</ele>
        <time>2018-06-12T12:28:36Z</time>
      </trkpt>
      <trkpt lat="42.325673" lon="0.834286">
        <ele>1299.9</ele>
        <time>2018-06-12T12:28:40Z</time>
      </trkpt>
      <trkpt lat="42.325672" lon="0.834093">
        <ele>1304.0</ele>
        <time>2018-06-12T12:28:44Z</time>
      </trkpt>
      <trkpt lat="42.325707" lon="0.833890">
        <ele>1305.1</ele>
        <time>2018-06-12T12:28:48Z</time>
      </trkpt>
      <trkpt lat="42.325752" lon="0.833764">
        <ele>1305.6</ele>
        <time>2018-06-12T12:28:51Z</time>
      </trkpt>
      <trkpt lat="42.325867" lon="0.833398">
        <ele>1312.6</ele>
        <time>2018-06-12T12:28:59Z</time>
      </trkpt>
      <trkpt lat="42.325976" lon="0.833172">
        <ele>1314.3</ele>
        <time>2018-06-12T12:29:04Z</time>
      </trkpt>
      <trkpt lat="42.326086" lon="0.833029">
        <ele>1315.4</ele>
        <time>2018-06-12T12:29:08Z</time>
      </trkpt>
      <trkpt lat="42.326133" lon="0.832988">
        <ele>1315.3</ele>
        <time>2018-06-12T12:29:10Z</time>
      </trkpt>
      <trkpt lat="42.326277" lon="0.832946">
        <ele>1313.1</ele>
        <time>2018-06-12T12:29:13Z</time>
      </trkpt>
      <trkpt lat="42.326410" lon="0.832923">
        <ele>1308.8</ele>
        <time>2018-06-12T12:29:17Z</time>
      </trkpt>
      <trkpt lat="42.326549" lon="0.832904">
        <ele>1304.3</ele>
        <time>2018-06-12T12:29:21Z</time>
      </trkpt>
      <trkpt lat="42.326680" lon="0.832896">
        <ele>1300.0</ele>
        <time>2018-06-12T12:29:25Z</time>
      </trkpt>
      <trkpt lat="42.326746" lon="0.832889">
        <ele>1297.9</ele>
        <time>2018-06-12T12:29:26Z</time>
      </trkpt>
      <trkpt lat="42.326855" lon="0.832858">
        <ele>1294.1</ele>
        <time>2018-06-12T12:29:29Z</time>
      </trkpt>
      <trkpt lat="42.326977" lon="0.832820">
        <ele>1289.9</ele>
        <time>2018-06-12T12:29:33Z</time>
      </trkpt>
      <trkpt lat="42.327122" lon="0.832766">
        <ele>1284.8</ele>
        <time>2018-06-12T12:29:37Z</time>
      </trkpt>
      <trkpt lat="42.327190" lon="0.832759">
        <ele>1282.9</ele>
        <time>2018-06-12T12:29:39Z</time>
      </trkpt>
      <trkpt lat="42.327262" lon="0.832790">
        <ele>1281.3</ele>
        <time>2018-06-12T12:29:41Z</time>
      </trkpt>
      <trkpt lat="42.327370" lon="0.832871">
        <ele>1279.8</ele>
        <time>2018-06-12T12:29:44Z</time>
      </trkpt>
      <trkpt lat="42.327435" lon="0.832911">
        <ele>1278.0</ele>
        <time>2018-06-12T12:29:46Z</time>
      </trkpt>
      <trkpt lat="42.327629" lon="0.832980">
        <ele>1272.0</ele>
        <time>2018-06-12T12:29:52Z</time>
      </trkpt>
      <trkpt lat="42.327707" lon="0.832976">
        <ele>1269.3</ele>
        <time>2018-06-12T12:29:54Z</time>
      </trkpt>
      <trkpt lat="42.327824" lon="0.832975">
        <ele>1265.4</ele>
        <time>2018-06-12T12:29:57Z</time>
      </trkpt>
      <trkpt lat="42.327905" lon="0.833015">
        <ele>1263.1</ele>
        <time>2018-06-12T12:29:59Z</time>
      </trkpt>
      <trkpt lat="42.327918" lon="0.833103">
        <ele>1263.3</ele>
        <time>2018-06-12T12:30:01Z</time>
      </trkpt>
      <trkpt lat="42.327913" lon="0.833187">
        <ele>1264.1</ele>
        <time>2018-06-12T12:30:03Z</time>
      </trkpt>
      <trkpt lat="42.327909" lon="0.833251">
        <ele>1266.0</ele>
        <time>2018-06-12T12:30:04Z</time>
      </trkpt>
      <trkpt lat="42.327862" lon="0.833420">
        <ele>1273.3</ele>
        <time>2018-06-12T12:30:08Z</time>
      </trkpt>
      <trkpt lat="42.327766" lon="0.833777">
        <ele>1285.5</ele>
        <time>2018-06-12T12:30:16Z</time>
      </trkpt>
      <trkpt lat="42.327725" lon="0.833999">
        <ele>1285.9</ele>
        <time>2018-06-12T12:30:20Z</time>
      </trkpt>
      <trkpt lat="42.327711" lon="0.834112">
        <ele>1285.5</ele>
        <time>2018-06-12T12:30:23Z</time>
      </trkpt>
      <trkpt lat="42.327704" lon="0.834282">
        <ele>1284.2</ele>
        <time>2018-06-12T12:30:26Z</time>
      </trkpt>
      <trkpt lat="42.327724" lon="0.834372">
        <ele>1282.4</ele>
        <time>2018-06-12T12:30:28Z</time>
      </trkpt>
      <trkpt lat="42.327765" lon="0.834456">
        <ele>1280.0</ele>
        <time>2018-06-12T12:30:30Z</time>
      </trkpt>
      <trkpt lat="42.327829" lon="0.834500">
        <ele>1277.0</ele>
        <time>2018-06-12T12:30:32Z</time>
      </trkpt>
      <trkpt lat="42.327868" lon="0.834496">
        <ele>1275.4</ele>
        <time>2018-06-12T12:30:33Z</time>
      </trkpt>
      <trkpt lat="42.327940" lon="0.834422">
        <ele>1273.2</ele>
        <time>2018-06-12T12:30:35Z</time>
      </trkpt>
      <trkpt lat="42.328068" lon="0.834179">
        <ele>1270.9</ele>
        <time>2018-06-12T12:30:41Z</time>
      </trkpt>
      <trkpt lat="42.328220" lon="0.833916">
        <ele>1266.2</ele>
        <time>2018-06-12T12:30:48Z</time>
      </trkpt>
      <trkpt lat="42.328370" lon="0.833744">
        <ele>1262.8</ele>
        <time>2018-06-12T12:30:53Z</time>
      </trkpt>
      <trkpt lat="42.328489" lon="0.833635">
        <ele>1261.4</ele>
        <time>2018-06-12T12:30:57Z</time>
      </trkpt>
      <trkpt lat="42.328591" lon="0.833555">
        <ele>1262.4</ele>
        <time>2018-06-12T12:31:00Z</time>
      </trkpt>
      <trkpt lat="42.328699" lon="0.833473">
        <ele>1264.4</ele>
        <time>2018-06-12T12:31:03Z</time>
      </trkpt>
      <trkpt lat="42.328794" lon="0.833450">
        <ele>1264.5</ele>
        <time>2018-06-12T12:31:06Z</time>
      </trkpt>
      <trkpt lat="42.328887" lon="0.833415">
        <ele>1263.4</ele>
        <time>2018-06-12T12:31:08Z</time>
      </trkpt>
      <trkpt lat="42.329008" lon="0.833345">
        <ele>1262.6</ele>
        <time>2018-06-12T12:31:12Z</time>
      </trkpt>
      <trkpt lat="42.329126" lon="0.833260">
        <ele>1263.1</ele>
        <time>2018-06-12T12:31:15Z</time>
      </trkpt>
      <trkpt lat="42.329206" lon="0.833176">
        <ele>1263.3</ele>
        <time>2018-06-12T12:31:18Z</time>
      </trkpt>
      <trkpt lat="42.329278" lon="0.833032">
        <ele>1262.6</ele>
        <time>2018-06-12T12:31:21Z</time>
      </trkpt>
      <trkpt lat="42.329330" lon="0.832984">
        <ele>1262.4</ele>
        <time>2018-06-12T12:31:23Z</time>
      </trkpt>
      <trkpt lat="42.329380" lon="0.832977">
        <ele>1262.6</ele>
        <time>2018-06-12T12:31:24Z</time>
      </trkpt>
      <trkpt lat="42.329425" lon="0.833003">
        <ele>1262.8</ele>
        <time>2018-06-12T12:31:26Z</time>
      </trkpt>
      <trkpt lat="42.329467" lon="0.833061">
        <ele>1262.8</ele>
        <time>2018-06-12T12:31:27Z</time>
      </trkpt>
      <trkpt lat="42.329536" lon="0.833161">
        <ele>1262.3</ele>
        <time>2018-06-12T12:31:30Z</time>
      </trkpt>
      <trkpt lat="42.329629" lon="0.833258">
        <ele>1263.1</ele>
        <time>2018-06-12T12:31:33Z</time>
      </trkpt>
      <trkpt lat="42.329717" lon="0.833318">
        <ele>1264.6</ele>
        <time>2018-06-12T12:31:36Z</time>
      </trkpt>
      <trkpt lat="42.329829" lon="0.833382">
        <ele>1266.3</ele>
        <time>2018-06-12T12:31:39Z</time>
      </trkpt>
      <trkpt lat="42.329893" lon="0.833450">
        <ele>1266.6</ele>
        <time>2018-06-12T12:31:41Z</time>
      </trkpt>
      <trkpt lat="42.329955" lon="0.833550">
        <ele>1265.6</ele>
        <time>2018-06-12T12:31:44Z</time>
      </trkpt>
      <trkpt lat="42.330003" lon="0.833597">
        <ele>1265.0</ele>
        <time>2018-06-12T12:31:45Z</time>
      </trkpt>
      <trkpt lat="42.330057" lon="0.833628">
        <ele>1264.6</ele>
        <time>2018-06-12T12:31:47Z</time>
      </trkpt>
      <trkpt lat="42.330173" lon="0.833624">
        <ele>1263.1</ele>
        <time>2018-06-12T12:31:50Z</time>
      </trkpt>
      <trkpt lat="42.330302" lon="0.833596">
        <ele>1259.5</ele>
        <time>2018-06-12T12:31:53Z</time>
      </trkpt>
      <trkpt lat="42.330419" lon="0.833558">
        <ele>1256.3</ele>
        <time>2018-06-12T12:31:57Z</time>
      </trkpt>
      <trkpt lat="42.330538" lon="0.833520">
        <ele>1254.5</ele>
        <time>2018-06-12T12:32:00Z</time>
      </trkpt>
      <trkpt lat="42.330617" lon="0.833511">
        <ele>1253.3</ele>
        <time>2018-06-12T12:32:02Z</time>
      </trkpt>
      <trkpt lat="42.330723" lon="0.833530">
        <ele>1252.2</ele>
        <time>2018-06-12T12:32:05Z</time>
      </trkpt>
      <trkpt lat="42.330865" lon="0.833598">
        <ele>1251.6</ele>
        <time>2018-06-12T12:32:09Z</time>
      </trkpt>
      <trkpt lat="42.330943" lon="0.833626">
        <ele>1251.4</ele>
        <time>2018-06-12T12:32:11Z</time>
      </trkpt>
      <trkpt lat="42.331063" lon="0.833591">
        <ele>1251.0</ele>
        <time>2018-06-12T12:32:14Z</time>
      </trkpt>
      <trkpt lat="42.331131" lon="0.833544">
        <ele>1251.0</ele>
        <time>2018-06-12T12:32:16Z</time>
      </trkpt>
      <trkpt lat="42.331218" lon="0.833473">
        <ele>1251.7</ele>
        <time>2018-06-12T12:32:19Z</time>
      </trkpt>
      <trkpt lat="42.331327" lon="0.833423">
        <ele>1252.0</ele>
        <time>2018-06-12T12:32:22Z</time>
      </trkpt>
      <trkpt lat="42.331399" lon="0.833408">
        <ele>1252.1</ele>
        <time>2018-06-12T12:32:24Z</time>
      </trkpt>
      <trkpt lat="42.331481" lon="0.833415">
        <ele>1252.2</ele>
        <time>2018-06-12T12:32:26Z</time>
      </trkpt>
      <trkpt lat="42.331595" lon="0.833453">
        <ele>1252.1</ele>
        <time>2018-06-12T12:32:29Z</time>
      </trkpt>
      <trkpt lat="42.331755" lon="0.833517">
        <ele>1252.0</ele>
        <time>2018-06-12T12:32:33Z</time>
      </trkpt>
      <trkpt lat="42.331868" lon="0.833542">
        <ele>1251.3</ele>
        <time>2018-06-12T12:32:36Z</time>
      </trkpt>
      <trkpt lat="42.331938" lon="0.833575">
        <ele>1250.4</ele>
        <time>2018-06-12T12:32:38Z</time>
      </trkpt>
      <trkpt lat="42.332039" lon="0.833639">
        <ele>1249.0</ele>
        <time>2018-06-12T12:32:41Z</time>
      </trkpt>
      <trkpt lat="42.332115" lon="0.833693">
        <ele>1248.0</ele>
        <time>2018-06-12T12:32:44Z</time>
      </trkpt>
      <trkpt lat="42.332198" lon="0.833728">
        <ele>1247.2</ele>
        <time>2018-06-12T12:32:46Z</time>
      </trkpt>
      <trkpt lat="42.332339" lon="0.833762">
        <ele>1246.2</ele>
        <time>2018-06-12T12:32:50Z</time>
      </trkpt>
      <trkpt lat="42.332514" lon="0.833802">
        <ele>1244.4</ele>
        <time>2018-06-12T12:32:54Z</time>
      </trkpt>
      <trkpt lat="42.332765" lon="0.833875">
        <ele>1244.1</ele>
        <time>2018-06-12T12:33:01Z</time>
      </trkpt>
      <trkpt lat="42.332949" lon="0.833918">
        <ele>1245.4</ele>
        <time>2018-06-12T12:33:06Z</time>
      </trkpt>
      <trkpt lat="42.333023" lon="0.833916">
        <ele>1245.8</ele>
        <time>2018-06-12T12:33:08Z</time>
      </trkpt>
      <trkpt lat="42.333088" lon="0.833870">
        <ele>1245.7</ele>
        <time>2018-06-12T12:33:10Z</time>
      </trkpt>
      <trkpt lat="42.333131" lon="0.833814">
        <ele>1245.4</ele>
        <time>2018-06-12T12:33:12Z</time>
      </trkpt>
      <trkpt lat="42.333203" lon="0.833693">
        <ele>1244.1</ele>
        <time>2018-06-12T12:33:15Z</time>
      </trkpt>
      <trkpt lat="42.333275" lon="0.833634">
        <ele>1243.1</ele>
        <time>2018-06-12T12:33:17Z</time>
      </trkpt>
      <trkpt lat="42.333320" lon="0.833595">
        <ele>1242.6</ele>
        <time>2018-06-12T12:33:18Z</time>
      </trkpt>
      <trkpt lat="42.333385" lon="0.833588">
        <ele>1242.5</ele>
        <time>2018-06-12T12:33:20Z</time>
      </trkpt>
      <trkpt lat="42.333488" lon="0.833612">
        <ele>1242.3</ele>
        <time>2018-06-12T12:33:23Z</time>
      </trkpt>
      <trkpt lat="42.333572" lon="0.833632">
        <ele>1241.2</ele>
        <time>2018-06-12T12:33:25Z</time>
      </trkpt>
      <trkpt lat="42.333653" lon="0.833642">
        <ele>1240.1</ele>
        <time>2018-06-12T12:33:27Z</time>
      </trkpt>
      <trkpt lat="42.333701" lon="0.833643">
        <ele>1239.5</ele>
        <time>2018-06-12T12:33:28Z</time>
      </trkpt>
      <trkpt lat="42.333750" lon="0.833622">
        <ele>1238.6</ele>
        <time>2018-06-12T12:33:30Z</time>
      </trkpt>
      <trkpt lat="42.333792" lon="0.833592">
        <ele>1237.7</ele>
        <time>2018-06-12T12:33:31Z</time>
      </trkpt>
      <trkpt lat="42.333853" lon="0.833527">
        <ele>1236.6</ele>
        <time>2018-06-12T12:33:33Z</time>
      </trkpt>
      <trkpt lat="42.333931" lon="0.833472">
        <ele>1235.7</ele>
        <time>2018-06-12T12:33:35Z</time>
      </trkpt>
      <trkpt lat="42.334045" lon="0.833435">
        <ele>1235.6</ele>
        <time>2018-06-12T12:33:38Z</time>
      </trkpt>
      <trkpt lat="42.334145" lon="0.833376">
        <ele>1236.2</ele>
        <time>2018-06-12T12:33:41Z</time>
      </trkpt>
      <trkpt lat="42.334321" lon="0.833271">
        <ele>1237.0</ele>
        <time>2018-06-12T12:33:46Z</time>
      </trkpt>
      <trkpt lat="42.334373" lon="0.833233">
        <ele>1238.0</ele>
        <time>2018-06-12T12:33:48Z</time>
      </trkpt>
      <trkpt lat="42.334470" lon="0.833204">
        <ele>1239.1</ele>
        <time>2018-06-12T12:33:51Z</time>
      </trkpt>
      <trkpt lat="42.334593" lon="0.833234">
        <ele>1239.8</ele>
        <time>2018-06-12T12:33:54Z</time>
      </trkpt>
      <trkpt lat="42.334704" lon="0.833259">
        <ele>1240.6</ele>
        <time>2018-06-12T12:33:57Z</time>
      </trkpt>
      <trkpt lat="42.334770" lon="0.833301">
        <ele>1240.7</ele>
        <time>2018-06-12T12:33:59Z</time>
      </trkpt>
      <trkpt lat="42.334871" lon="0.833371">
        <ele>1240.3</ele>
        <time>2018-06-12T12:34:02Z</time>
      </trkpt>
      <trkpt lat="42.334954" lon="0.833414">
        <ele>1238.3</ele>
        <time>2018-06-12T12:34:04Z</time>
      </trkpt>
      <trkpt lat="42.335063" lon="0.833412">
        <ele>1236.5</ele>
        <time>2018-06-12T12:34:07Z</time>
      </trkpt>
      <trkpt lat="42.335205" lon="0.833363">
        <ele>1233.3</ele>
        <time>2018-06-12T12:34:11Z</time>
      </trkpt>
      <trkpt lat="42.335546" lon="0.833179">
        <ele>1229.1</ele>
        <time>2018-06-12T12:34:21Z</time>
      </trkpt>
      <trkpt lat="42.335962" lon="0.833020">
        <ele>1224.4</ele>
        <time>2018-06-12T12:34:32Z</time>
      </trkpt>
      <trkpt lat="42.336178" lon="0.832897">
        <ele>1227.0</ele>
        <time>2018-06-12T12:34:38Z</time>
      </trkpt>
      <trkpt lat="42.336497" lon="0.832667">
        <ele>1226.4</ele>
        <time>2018-06-12T12:34:48Z</time>
      </trkpt>
      <trkpt lat="42.336742" lon="0.832471">
        <ele>1225.3</ele>
        <time>2018-06-12T12:34:55Z</time>
      </trkpt>
      <trkpt lat="42.337052" lon="0.832259">
        <ele>1225.4</ele>
        <time>2018-06-12T12:35:05Z</time>
      </trkpt>
      <trkpt lat="42.337248" lon="0.832178">
        <ele>1227.9</ele>
        <time>2018-06-12T12:35:10Z</time>
      </trkpt>
      <trkpt lat="42.337522" lon="0.832161">
        <ele>1229.6</ele>
        <time>2018-06-12T12:35:17Z</time>
      </trkpt>
      <trkpt lat="42.337788" lon="0.832159">
        <ele>1232.7</ele>
        <time>2018-06-12T12:35:24Z</time>
      </trkpt>
      <trkpt lat="42.337996" lon="0.832209">
        <ele>1235.3</ele>
        <time>2018-06-12T12:35:30Z</time>
      </trkpt>
      <trkpt lat="42.338158" lon="0.832292">
        <ele>1235.4</ele>
        <time>2018-06-12T12:35:34Z</time>
      </trkpt>
      <trkpt lat="42.338300" lon="0.832332">
        <ele>1234.8</ele>
        <time>2018-06-12T12:35:38Z</time>
      </trkpt>
      <trkpt lat="42.338419" lon="0.832330">
        <ele>1234.4</ele>
        <time>2018-06-12T12:35:41Z</time>
      </trkpt>
      <trkpt lat="42.338520" lon="0.832309">
        <ele>1233.0</ele>
        <time>2018-06-12T12:35:44Z</time>
      </trkpt>
      <trkpt lat="42.338608" lon="0.832280">
        <ele>1230.8</ele>
        <time>2018-06-12T12:35:47Z</time>
      </trkpt>
      <trkpt lat="42.338772" lon="0.832216">
        <ele>1227.3</ele>
        <time>2018-06-12T12:35:51Z</time>
      </trkpt>
      <trkpt lat="42.339037" lon="0.832119">
        <ele>1221.9</ele>
        <time>2018-06-12T12:35:58Z</time>
      </trkpt>
      <trkpt lat="42.339207" lon="0.832100">
        <ele>1221.9</ele>
        <time>2018-06-12T12:36:03Z</time>
      </trkpt>
      <trkpt lat="42.339328" lon="0.832112">
        <ele>1222.7</ele>
        <time>2018-06-12T12:36:06Z</time>
      </trkpt>
      <trkpt lat="42.339429" lon="0.832147">
        <ele>1224.9</ele>
        <time>2018-06-12T12:36:09Z</time>
      </trkpt>
      <trkpt lat="42.339546" lon="0.832229">
        <ele>1227.9</ele>
        <time>2018-06-12T12:36:12Z</time>
      </trkpt>
      <trkpt lat="42.339613" lon="0.832331">
        <ele>1230.0</ele>
        <time>2018-06-12T12:36:15Z</time>
      </trkpt>
      <trkpt lat="42.339732" lon="0.832545">
        <ele>1232.3</ele>
        <time>2018-06-12T12:36:20Z</time>
      </trkpt>
      <trkpt lat="42.340069" lon="0.833037">
        <ele>1234.4</ele>
        <time>2018-06-12T12:36:33Z</time>
      </trkpt>
      <trkpt lat="42.340374" lon="0.833496">
        <ele>1228.1</ele>
        <time>2018-06-12T12:36:46Z</time>
      </trkpt>
      <trkpt lat="42.340486" lon="0.833631">
        <ele>1225.1</ele>
        <time>2018-06-12T12:36:50Z</time>
      </trkpt>
      <trkpt lat="42.340584" lon="0.833714">
        <ele>1223.2</ele>
        <time>2018-06-12T12:36:53Z</time>
      </trkpt>
      <trkpt lat="42.340756" lon="0.833812">
        <ele>1219.6</ele>
        <time>2018-06-12T12:36:58Z</time>
      </trkpt>
      <trkpt lat="42.340975" lon="0.833877">
        <ele>1216.5</ele>
        <time>2018-06-12T12:37:04Z</time>
      </trkpt>
      <trkpt lat="42.341209" lon="0.833886">
        <ele>1215.2</ele>
        <time>2018-06-12T12:37:10Z</time>
      </trkpt>
      <trkpt lat="42.341378" lon="0.833866">
        <ele>1215.1</ele>
        <time>2018-06-12T12:37:14Z</time>
      </trkpt>
      <trkpt lat="42.341470" lon="0.833819">
        <ele>1214.5</ele>
        <time>2018-06-12T12:37:17Z</time>
      </trkpt>
      <trkpt lat="42.341590" lon="0.833802">
        <ele>1212.9</ele>
        <time>2018-06-12T12:37:20Z</time>
      </trkpt>
      <trkpt lat="42.341709" lon="0.833818">
        <ele>1211.4</ele>
        <time>2018-06-12T12:37:23Z</time>
      </trkpt>
      <trkpt lat="42.341815" lon="0.833863">
        <ele>1211.2</ele>
        <time>2018-06-12T12:37:26Z</time>
      </trkpt>
      <trkpt lat="42.341924" lon="0.833907">
        <ele>1211.1</ele>
        <time>2018-06-12T12:37:29Z</time>
      </trkpt>
      <trkpt lat="42.342006" lon="0.833928">
        <ele>1210.0</ele>
        <time>2018-06-12T12:37:31Z</time>
      </trkpt>
      <trkpt lat="42.342119" lon="0.833920">
        <ele>1208.9</ele>
        <time>2018-06-12T12:37:34Z</time>
      </trkpt>
      <trkpt lat="42.342276" lon="0.833880">
        <ele>1209.3</ele>
        <time>2018-06-12T12:37:39Z</time>
      </trkpt>
      <trkpt lat="42.342361" lon="0.833882">
        <ele>1209.1</ele>
        <time>2018-06-12T12:37:41Z</time>
      </trkpt>
      <trkpt lat="42.342431" lon="0.833912">
        <ele>1209.3</ele>
        <time>2018-06-12T12:37:43Z</time>
      </trkpt>
      <trkpt lat="42.342510" lon="0.833976">
        <ele>1209.3</ele>
        <time>2018-06-12T12:37:45Z</time>
      </trkpt>
      <trkpt lat="42.342635" lon="0.834094">
        <ele>1210.7</ele>
        <time>2018-06-12T12:37:49Z</time>
      </trkpt>
      <trkpt lat="42.342811" lon="0.834194">
        <ele>1213.7</ele>
        <time>2018-06-12T12:37:54Z</time>
      </trkpt>
      <trkpt lat="42.342998" lon="0.834264">
        <ele>1214.6</ele>
        <time>2018-06-12T12:37:59Z</time>
      </trkpt>
      <trkpt lat="42.343126" lon="0.834267">
        <ele>1213.2</ele>
        <time>2018-06-12T12:38:03Z</time>
      </trkpt>
      <trkpt lat="42.343264" lon="0.834222">
        <ele>1213.1</ele>
        <time>2018-06-12T12:38:07Z</time>
      </trkpt>
      <trkpt lat="42.343498" lon="0.834062">
        <ele>1214.3</ele>
        <time>2018-06-12T12:38:13Z</time>
      </trkpt>
      <trkpt lat="42.343724" lon="0.833922">
        <ele>1215.1</ele>
        <time>2018-06-12T12:38:20Z</time>
      </trkpt>
      <trkpt lat="42.343869" lon="0.833876">
        <ele>1218.6</ele>
        <time>2018-06-12T12:38:24Z</time>
      </trkpt>
      <trkpt lat="42.344159" lon="0.833814">
        <ele>1223.5</ele>
        <time>2018-06-12T12:38:32Z</time>
      </trkpt>
      <trkpt lat="42.344295" lon="0.833768">
        <ele>1224.5</ele>
        <time>2018-06-12T12:38:36Z</time>
      </trkpt>
      <trkpt lat="42.344468" lon="0.833645">
        <ele>1224.8</ele>
        <time>2018-06-12T12:38:41Z</time>
      </trkpt>
      <trkpt lat="42.344609" lon="0.833491">
        <ele>1223.1</ele>
        <time>2018-06-12T12:38:45Z</time>
      </trkpt>
      <trkpt lat="42.344715" lon="0.833362">
        <ele>1219.9</ele>
        <time>2018-06-12T12:38:49Z</time>
      </trkpt>
      <trkpt lat="42.344867" lon="0.833265">
        <ele>1215.6</ele>
        <time>2018-06-12T12:38:54Z</time>
      </trkpt>
      <trkpt lat="42.345044" lon="0.833195">
        <ele>1212.7</ele>
        <time>2018-06-12T12:38:59Z</time>
      </trkpt>
      <trkpt lat="42.345156" lon="0.833129">
        <ele>1211.4</ele>
        <time>2018-06-12T12:39:02Z</time>
      </trkpt>
      <trkpt lat="42.345208" lon="0.833032">
        <ele>1211.8</ele>
        <time>2018-06-12T12:39:04Z</time>
      </trkpt>
      <trkpt lat="42.345249" lon="0.832897">
        <ele>1212.7</ele>
        <time>2018-06-12T12:39:07Z</time>
      </trkpt>
      <trkpt lat="42.345274" lon="0.832691">
        <ele>1213.7</ele>
        <time>2018-06-12T12:39:11Z</time>
      </trkpt>
      <trkpt lat="42.345339" lon="0.832243">
        <ele>1211.4</ele>
        <time>2018-06-12T12:39:20Z</time>
      </trkpt>
      <trkpt lat="42.345410" lon="0.831931">
        <ele>1209.0</ele>
        <time>2018-06-12T12:39:26Z</time>
      </trkpt>
      <trkpt lat="42.345434" lon="0.831731">
        <ele>1207.9</ele>
        <time>2018-06-12T12:39:30Z</time>
      </trkpt>
      <trkpt lat="42.345437" lon="0.831559">
        <ele>1207.8</ele>
        <time>2018-06-12T12:39:34Z</time>
      </trkpt>
      <trkpt lat="42.345453" lon="0.831388">
        <ele>1208.0</ele>
        <time>2018-06-12T12:39:37Z</time>
      </trkpt>
      <trkpt lat="42.345503" lon="0.831257">
        <ele>1207.4</ele>
        <time>2018-06-12T12:39:40Z</time>
      </trkpt>
      <trkpt lat="42.345579" lon="0.831170">
        <ele>1206.3</ele>
        <time>2018-06-12T12:39:43Z</time>
      </trkpt>
      <trkpt lat="42.345691" lon="0.831126">
        <ele>1204.9</ele>
        <time>2018-06-12T12:39:46Z</time>
      </trkpt>
      <trkpt lat="42.345850" lon="0.831120">
        <ele>1202.7</ele>
        <time>2018-06-12T12:39:50Z</time>
      </trkpt>
      <trkpt lat="42.345985" lon="0.831098">
        <ele>1201.0</ele>
        <time>2018-06-12T12:39:54Z</time>
      </trkpt>
      <trkpt lat="42.346141" lon="0.831018">
        <ele>1201.2</ele>
        <time>2018-06-12T12:39:58Z</time>
      </trkpt>
      <trkpt lat="42.346348" lon="0.830960">
        <ele>1201.0</ele>
        <time>2018-06-12T12:40:04Z</time>
      </trkpt>
      <trkpt lat="42.346533" lon="0.830953">
        <ele>1200.9</ele>
        <time>2018-06-12T12:40:08Z</time>
      </trkpt>
      <trkpt lat="42.346646" lon="0.830947">
        <ele>1199.7</ele>
        <time>2018-06-12T12:40:11Z</time>
      </trkpt>
      <trkpt lat="42.346737" lon="0.830894">
        <ele>1198.9</ele>
        <time>2018-06-12T12:40:14Z</time>
      </trkpt>
      <trkpt lat="42.346803" lon="0.830800">
        <ele>1198.6</ele>
        <time>2018-06-12T12:40:17Z</time>
      </trkpt>
      <trkpt lat="42.346966" lon="0.830569">
        <ele>1199.1</ele>
        <time>2018-06-12T12:40:23Z</time>
      </trkpt>
      <trkpt lat="42.347207" lon="0.830157">
        <ele>1199.4</ele>
        <time>2018-06-12T12:40:33Z</time>
      </trkpt>
      <trkpt lat="42.347302" lon="0.830021">
        <ele>1199.5</ele>
        <time>2018-06-12T12:40:37Z</time>
      </trkpt>
      <trkpt lat="42.347494" lon="0.829843">
        <ele>1199.4</ele>
        <time>2018-06-12T12:40:43Z</time>
      </trkpt>
      <trkpt lat="42.347699" lon="0.829759">
        <ele>1196.2</ele>
        <time>2018-06-12T12:40:48Z</time>
      </trkpt>
      <trkpt lat="42.347899" lon="0.829765">
        <ele>1195.7</ele>
        <time>2018-06-12T12:40:54Z</time>
      </trkpt>
      <trkpt lat="42.348089" lon="0.829768">
        <ele>1196.5</ele>
        <time>2018-06-12T12:40:59Z</time>
      </trkpt>
      <trkpt lat="42.348246" lon="0.829741">
        <ele>1196.2</ele>
        <time>2018-06-12T12:41:03Z</time>
      </trkpt>
      <trkpt lat="42.348389" lon="0.829641">
        <ele>1193.6</ele>
        <time>2018-06-12T12:41:07Z</time>
      </trkpt>
      <trkpt lat="42.348554" lon="0.829475">
        <ele>1193.9</ele>
        <time>2018-06-12T12:41:13Z</time>
      </trkpt>
      <trkpt lat="42.348699" lon="0.829378">
        <ele>1195.4</ele>
        <time>2018-06-12T12:41:17Z</time>
      </trkpt>
      <trkpt lat="42.349160" lon="0.829124">
        <ele>1197.4</ele>
        <time>2018-06-12T12:41:30Z</time>
      </trkpt>
      <trkpt lat="42.349338" lon="0.829014">
        <ele>1197.3</ele>
        <time>2018-06-12T12:41:35Z</time>
      </trkpt>
      <trkpt lat="42.349488" lon="0.828854">
        <ele>1199.7</ele>
        <time>2018-06-12T12:41:40Z</time>
      </trkpt>
      <trkpt lat="42.349583" lon="0.828669">
        <ele>1201.5</ele>
        <time>2018-06-12T12:41:45Z</time>
      </trkpt>
      <trkpt lat="42.349693" lon="0.828435">
        <ele>1204.5</ele>
        <time>2018-06-12T12:41:50Z</time>
      </trkpt>
      <trkpt lat="42.349798" lon="0.828241">
        <ele>1209.4</ele>
        <time>2018-06-12T12:41:55Z</time>
      </trkpt>
      <trkpt lat="42.349902" lon="0.828143">
        <ele>1209.3</ele>
        <time>2018-06-12T12:41:58Z</time>
      </trkpt>
      <trkpt lat="42.350044" lon="0.828112">
        <ele>1208.0</ele>
        <time>2018-06-12T12:42:02Z</time>
      </trkpt>
      <trkpt lat="42.350221" lon="0.828089">
        <ele>1205.7</ele>
        <time>2018-06-12T12:42:07Z</time>
      </trkpt>
      <trkpt lat="42.350330" lon="0.828020">
        <ele>1205.9</ele>
        <time>2018-06-12T12:42:10Z</time>
      </trkpt>
      <trkpt lat="42.350496" lon="0.827911">
        <ele>1205.5</ele>
        <time>2018-06-12T12:42:15Z</time>
      </trkpt>
      <trkpt lat="42.350772" lon="0.827792">
        <ele>1203.6</ele>
        <time>2018-06-12T12:42:22Z</time>
      </trkpt>
      <trkpt lat="42.351127" lon="0.827685">
        <ele>1201.4</ele>
        <time>2018-06-12T12:42:32Z</time>
      </trkpt>
      <trkpt lat="42.351444" lon="0.827615">
        <ele>1199.7</ele>
        <time>2018-06-12T12:42:40Z</time>
      </trkpt>
      <trkpt lat="42.351577" lon="0.827557">
        <ele>1199.8</ele>
        <time>2018-06-12T12:42:44Z</time>
      </trkpt>
      <trkpt lat="42.351747" lon="0.827400">
        <ele>1200.2</ele>
        <time>2018-06-12T12:42:50Z</time>
      </trkpt>
      <trkpt lat="42.351901" lon="0.827186">
        <ele>1201.8</ele>
        <time>2018-06-12T12:42:55Z</time>
      </trkpt>
      <trkpt lat="42.352020" lon="0.826956">
        <ele>1205.8</ele>
        <time>2018-06-12T12:43:01Z</time>
      </trkpt>
      <trkpt lat="42.352264" lon="0.826490">
        <ele>1208.2</ele>
        <time>2018-06-12T12:43:12Z</time>
      </trkpt>
      <trkpt lat="42.352311" lon="0.826333">
        <ele>1207.2</ele>
        <time>2018-06-12T12:43:15Z</time>
      </trkpt>
      <trkpt lat="42.352336" lon="0.826058">
        <ele>1204.0</ele>
        <time>2018-06-12T12:43:21Z</time>
      </trkpt>
      <trkpt lat="42.352377" lon="0.825667">
        <ele>1197.5</ele>
        <time>2018-06-12T12:43:29Z</time>
      </trkpt>
      <trkpt lat="42.352422" lon="0.825474">
        <ele>1195.8</ele>
        <time>2018-06-12T12:43:33Z</time>
      </trkpt>
      <trkpt lat="42.352512" lon="0.825305">
        <ele>1193.0</ele>
        <time>2018-06-12T12:43:37Z</time>
      </trkpt>
      <trkpt lat="42.352656" lon="0.825134">
        <ele>1190.0</ele>
        <time>2018-06-12T12:43:42Z</time>
      </trkpt>
      <trkpt lat="42.352728" lon="0.825024">
        <ele>1191.1</ele>
        <time>2018-06-12T12:43:45Z</time>
      </trkpt>
      <trkpt lat="42.352755" lon="0.824908">
        <ele>1192.4</ele>
        <time>2018-06-12T12:43:47Z</time>
      </trkpt>
      <trkpt lat="42.352747" lon="0.824801">
        <ele>1193.7</ele>
        <time>2018-06-12T12:43:49Z</time>
      </trkpt>
      <trkpt lat="42.352692" lon="0.824705">
        <ele>1195.0</ele>
        <time>2018-06-12T12:43:52Z</time>
      </trkpt>
      <trkpt lat="42.352630" lon="0.824599">
        <ele>1196.8</ele>
        <time>2018-06-12T12:43:54Z</time>
      </trkpt>
      <trkpt lat="42.352533" lon="0.824473">
        <ele>1197.7</ele>
        <time>2018-06-12T12:43:58Z</time>
      </trkpt>
      <trkpt lat="42.352412" lon="0.824311">
        <ele>1196.1</ele>
        <time>2018-06-12T12:44:02Z</time>
      </trkpt>
      <trkpt lat="42.352388" lon="0.824228">
        <ele>1196.1</ele>
        <time>2018-06-12T12:44:04Z</time>
      </trkpt>
      <trkpt lat="42.352394" lon="0.824119">
        <ele>1196.9</ele>
        <time>2018-06-12T12:44:06Z</time>
      </trkpt>
      <trkpt lat="42.352449" lon="0.824029">
        <ele>1198.3</ele>
        <time>2018-06-12T12:44:08Z</time>
      </trkpt>
      <trkpt lat="42.352523" lon="0.823921">
        <ele>1199.4</ele>
        <time>2018-06-12T12:44:11Z</time>
      </trkpt>
      <trkpt lat="42.352636" lon="0.823837">
        <ele>1200.3</ele>
        <time>2018-06-12T12:44:15Z</time>
      </trkpt>
      <trkpt lat="42.352821" lon="0.823765">
        <ele>1196.8</ele>
        <time>2018-06-12T12:44:20Z</time>
      </trkpt>
      <trkpt lat="42.352995" lon="0.823689">
        <ele>1192.8</ele>
        <time>2018-06-12T12:44:25Z</time>
      </trkpt>
      <trkpt lat="42.353252" lon="0.823513">
        <ele>1186.8</ele>
        <time>2018-06-12T12:44:33Z</time>
      </trkpt>
      <trkpt lat="42.353520" lon="0.823336">
        <ele>1184.4</ele>
        <time>2018-06-12T12:44:40Z</time>
      </trkpt>
      <trkpt lat="42.353627" lon="0.823296">
        <ele>1185.2</ele>
        <time>2018-06-12T12:44:43Z</time>
      </trkpt>
      <trkpt lat="42.354057" lon="0.823197">
        <ele>1182.0</ele>
        <time>2018-06-12T12:44:55Z</time>
      </trkpt>
      <trkpt lat="42.354271" lon="0.823111">
        <ele>1184.4</ele>
        <time>2018-06-12T12:45:01Z</time>
      </trkpt>
      <trkpt lat="42.354460" lon="0.822978">
        <ele>1185.1</ele>
        <time>2018-06-12T12:45:06Z</time>
      </trkpt>
      <trkpt lat="42.354613" lon="0.822824">
        <ele>1184.5</ele>
        <time>2018-06-12T12:45:11Z</time>
      </trkpt>
      <trkpt lat="42.354811" lon="0.822628">
        <ele>1184.9</ele>
        <time>2018-06-12T12:45:18Z</time>
      </trkpt>
      <trkpt lat="42.355093" lon="0.822480">
        <ele>1185.3</ele>
        <time>2018-06-12T12:45:26Z</time>
      </trkpt>
      <trkpt lat="42.355443" lon="0.822243">
        <ele>1185.5</ele>
        <time>2018-06-12T12:45:36Z</time>
      </trkpt>
      <trkpt lat="42.355638" lon="0.822108">
        <ele>1183.7</ele>
        <time>2018-06-12T12:45:42Z</time>
      </trkpt>
      <trkpt lat="42.355945" lon="0.822003">
        <ele>1181.2</ele>
        <time>2018-06-12T12:45:50Z</time>
      </trkpt>
      <trkpt lat="42.356144" lon="0.821919">
        <ele>1182.0</ele>
        <time>2018-06-12T12:45:56Z</time>
      </trkpt>
      <trkpt lat="42.356263" lon="0.821849">
        <ele>1182.8</ele>
        <time>2018-06-12T12:45:59Z</time>
      </trkpt>
      <trkpt lat="42.356393" lon="0.821717">
        <ele>1185.2</ele>
        <time>2018-06-12T12:46:03Z</time>
      </trkpt>
      <trkpt lat="42.356584" lon="0.821449">
        <ele>1186.8</ele>
        <time>2018-06-12T12:46:11Z</time>
      </trkpt>
      <trkpt lat="42.356796" lon="0.821195">
        <ele>1189.8</ele>
        <time>2018-06-12T12:46:18Z</time>
      </trkpt>
      <trkpt lat="42.357006" lon="0.820981">
        <ele>1191.4</ele>
        <time>2018-06-12T12:46:25Z</time>
      </trkpt>
      <trkpt lat="42.357322" lon="0.820715">
        <ele>1195.8</ele>
        <time>2018-06-12T12:46:35Z</time>
      </trkpt>
      <trkpt lat="42.357549" lon="0.820558">
        <ele>1195.9</ele>
        <time>2018-06-12T12:46:42Z</time>
      </trkpt>
      <trkpt lat="42.357857" lon="0.820366">
        <ele>1190.6</ele>
        <time>2018-06-12T12:46:51Z</time>
      </trkpt>
      <trkpt lat="42.358033" lon="0.820227">
        <ele>1190.7</ele>
        <time>2018-06-12T12:46:56Z</time>
      </trkpt>
      <trkpt lat="42.358083" lon="0.820190">
        <ele>1191.0</ele>
        <time>2018-06-12T12:46:58Z</time>
      </trkpt>
      <trkpt lat="42.358119" lon="0.820114">
        <ele>1191.6</ele>
        <time>2018-06-12T12:46:59Z</time>
      </trkpt>
      <trkpt lat="42.358170" lon="0.819971">
        <ele>1191.4</ele>
        <time>2018-06-12T12:47:02Z</time>
      </trkpt>
      <trkpt lat="42.358233" lon="0.819767">
        <ele>1192.0</ele>
        <time>2018-06-12T12:47:07Z</time>
      </trkpt>
      <trkpt lat="42.358361" lon="0.819432">
        <ele>1194.4</ele>
        <time>2018-06-12T12:47:14Z</time>
      </trkpt>
      <trkpt lat="42.358540" lon="0.819049">
        <ele>1197.1</ele>
        <time>2018-06-12T12:47:23Z</time>
      </trkpt>
      <trkpt lat="42.358628" lon="0.818929">
        <ele>1198.3</ele>
        <time>2018-06-12T12:47:26Z</time>
      </trkpt>
      <trkpt lat="42.358697" lon="0.818860">
        <ele>1197.8</ele>
        <time>2018-06-12T12:47:29Z</time>
      </trkpt>
      <trkpt lat="42.358814" lon="0.818792">
        <ele>1195.9</ele>
        <time>2018-06-12T12:47:32Z</time>
      </trkpt>
      <trkpt lat="42.359090" lon="0.818683">
        <ele>1194.4</ele>
        <time>2018-06-12T12:47:40Z</time>
      </trkpt>
      <trkpt lat="42.359242" lon="0.818618">
        <ele>1194.9</ele>
        <time>2018-06-12T12:47:44Z</time>
      </trkpt>
      <trkpt lat="42.359393" lon="0.818509">
        <ele>1195.9</ele>
        <time>2018-06-12T12:47:48Z</time>
      </trkpt>
      <trkpt lat="42.359543" lon="0.818358">
        <ele>1196.6</ele>
        <time>2018-06-12T12:47:53Z</time>
      </trkpt>
      <trkpt lat="42.359765" lon="0.818102">
        <ele>1197.9</ele>
        <time>2018-06-12T12:48:01Z</time>
      </trkpt>
      <trkpt lat="42.359998" lon="0.817971">
        <ele>1199.9</ele>
        <time>2018-06-12T12:48:08Z</time>
      </trkpt>
      <trkpt lat="42.360355" lon="0.817766">
        <ele>1204.8</ele>
        <time>2018-06-12T12:48:18Z</time>
      </trkpt>
      <trkpt lat="42.360507" lon="0.817669">
        <ele>1202.7</ele>
        <time>2018-06-12T12:48:22Z</time>
      </trkpt>
      <trkpt lat="42.360728" lon="0.817591">
        <ele>1200.0</ele>
        <time>2018-06-12T12:48:28Z</time>
      </trkpt>
      <trkpt lat="42.361072" lon="0.817536">
        <ele>1201.6</ele>
        <time>2018-06-12T12:48:37Z</time>
      </trkpt>
      <trkpt lat="42.361414" lon="0.817524">
        <ele>1204.2</ele>
        <time>2018-06-12T12:48:46Z</time>
      </trkpt>
      <trkpt lat="42.361594" lon="0.817500">
        <ele>1204.1</ele>
        <time>2018-06-12T12:48:51Z</time>
      </trkpt>
      <trkpt lat="42.361690" lon="0.817469">
        <ele>1203.3</ele>
        <time>2018-06-12T12:48:54Z</time>
      </trkpt>
      <trkpt lat="42.361787" lon="0.817416">
        <ele>1203.1</ele>
        <time>2018-06-12T12:48:57Z</time>
      </trkpt>
      <trkpt lat="42.361883" lon="0.817290">
        <ele>1205.0</ele>
        <time>2018-06-12T12:49:00Z</time>
      </trkpt>
      <trkpt lat="42.362020" lon="0.817143">
        <ele>1206.8</ele>
        <time>2018-06-12T12:49:05Z</time>
      </trkpt>
      <trkpt lat="42.362241" lon="0.816941">
        <ele>1205.6</ele>
        <time>2018-06-12T12:49:12Z</time>
      </trkpt>
      <trkpt lat="42.362763" lon="0.816639">
        <ele>1202.2</ele>
        <time>2018-06-12T12:49:27Z</time>
      </trkpt>
      <trkpt lat="42.363022" lon="0.816452">
        <ele>1200.8</ele>
        <time>2018-06-12T12:49:34Z</time>
      </trkpt>
      <trkpt lat="42.363133" lon="0.816341">
        <ele>1200.8</ele>
        <time>2018-06-12T12:49:38Z</time>
      </trkpt>
      <trkpt lat="42.363201" lon="0.816229">
        <ele>1202.0</ele>
        <time>2018-06-12T12:49:41Z</time>
      </trkpt>
      <trkpt lat="42.363243" lon="0.816065">
        <ele>1202.4</ele>
        <time>2018-06-12T12:49:44Z</time>
      </trkpt>
      <trkpt lat="42.363255" lon="0.815848">
        <ele>1202.7</ele>
        <time>2018-06-12T12:49:49Z</time>
      </trkpt>
      <trkpt lat="42.363282" lon="0.815600">
        <ele>1202.3</ele>
        <time>2018-06-12T12:49:53Z</time>
      </trkpt>
      <trkpt lat="42.363335" lon="0.815419">
        <ele>1201.9</ele>
        <time>2018-06-12T12:49:57Z</time>
      </trkpt>
      <trkpt lat="42.363433" lon="0.815283">
        <ele>1198.3</ele>
        <time>2018-06-12T12:50:01Z</time>
      </trkpt>
      <trkpt lat="42.363512" lon="0.815161">
        <ele>1195.9</ele>
        <time>2018-06-12T12:50:04Z</time>
      </trkpt>
      <trkpt lat="42.363582" lon="0.815000">
        <ele>1196.6</ele>
        <time>2018-06-12T12:50:08Z</time>
      </trkpt>
      <trkpt lat="42.363602" lon="0.814866">
        <ele>1197.2</ele>
        <time>2018-06-12T12:50:11Z</time>
      </trkpt>
      <trkpt lat="42.363611" lon="0.814665">
        <ele>1198.8</ele>
        <time>2018-06-12T12:50:14Z</time>
      </trkpt>
      <trkpt lat="42.363592" lon="0.814399">
        <ele>1200.7</ele>
        <time>2018-06-12T12:50:20Z</time>
      </trkpt>
      <trkpt lat="42.363600" lon="0.814011">
        <ele>1204.4</ele>
        <time>2018-06-12T12:50:27Z</time>
      </trkpt>
      <trkpt lat="42.363649" lon="0.813837">
        <ele>1206.0</ele>
        <time>2018-06-12T12:50:31Z</time>
      </trkpt>
      <trkpt lat="42.363789" lon="0.813449">
        <ele>1208.8</ele>
        <time>2018-06-12T12:50:39Z</time>
      </trkpt>
      <trkpt lat="42.363858" lon="0.813263">
        <ele>1207.9</ele>
        <time>2018-06-12T12:50:43Z</time>
      </trkpt>
      <trkpt lat="42.363986" lon="0.813104">
        <ele>1205.5</ele>
        <time>2018-06-12T12:50:48Z</time>
      </trkpt>
      <trkpt lat="42.364174" lon="0.812931">
        <ele>1204.2</ele>
        <time>2018-06-12T12:50:54Z</time>
      </trkpt>
      <trkpt lat="42.364458" lon="0.812725">
        <ele>1201.9</ele>
        <time>2018-06-12T12:51:03Z</time>
      </trkpt>
      <trkpt lat="42.364636" lon="0.812617">
        <ele>1202.6</ele>
        <time>2018-06-12T12:51:08Z</time>
      </trkpt>
      <trkpt lat="42.365108" lon="0.812490">
        <ele>1201.5</ele>
        <time>2018-06-12T12:51:20Z</time>
      </trkpt>
      <trkpt lat="42.365350" lon="0.812400">
        <ele>1198.6</ele>
        <time>2018-06-12T12:51:27Z</time>
      </trkpt>
      <trkpt lat="42.365477" lon="0.812309">
        <ele>1200.3</ele>
        <time>2018-06-12T12:51:31Z</time>
      </trkpt>
      <trkpt lat="42.365684" lon="0.812098">
        <ele>1204.0</ele>
        <time>2018-06-12T12:51:38Z</time>
      </trkpt>
      <trkpt lat="42.365927" lon="0.811810">
        <ele>1205.4</ele>
        <time>2018-06-12T12:51:46Z</time>
      </trkpt>
      <trkpt lat="42.366191" lon="0.811600">
        <ele>1204.8</ele>
        <time>2018-06-12T12:51:54Z</time>
      </trkpt>
      <trkpt lat="42.366278" lon="0.811509">
        <ele>1205.1</ele>
        <time>2018-06-12T12:51:57Z</time>
      </trkpt>
      <trkpt lat="42.366374" lon="0.811313">
        <ele>1208.0</ele>
        <time>2018-06-12T12:52:02Z</time>
      </trkpt>
      <trkpt lat="42.366534" lon="0.810763">
        <ele>1215.7</ele>
        <time>2018-06-12T12:52:13Z</time>
      </trkpt>
      <trkpt lat="42.366779" lon="0.810071">
        <ele>1220.2</ele>
        <time>2018-06-12T12:52:28Z</time>
      </trkpt>
      <trkpt lat="42.366901" lon="0.809905">
        <ele>1221.4</ele>
        <time>2018-06-12T12:52:33Z</time>
      </trkpt>
      <trkpt lat="42.367068" lon="0.809863">
        <ele>1222.0</ele>
        <time>2018-06-12T12:52:37Z</time>
      </trkpt>
      <trkpt lat="42.367219" lon="0.809950">
        <ele>1219.9</ele>
        <time>2018-06-12T12:52:42Z</time>
      </trkpt>
      <trkpt lat="42.367402" lon="0.810117">
        <ele>1214.6</ele>
        <time>2018-06-12T12:52:48Z</time>
      </trkpt>
      <trkpt lat="42.367555" lon="0.810182">
        <ele>1213.2</ele>
        <time>2018-06-12T12:52:52Z</time>
      </trkpt>
      <trkpt lat="42.367661" lon="0.810182">
        <ele>1213.2</ele>
        <time>2018-06-12T12:52:55Z</time>
      </trkpt>
      <trkpt lat="42.367814" lon="0.810141">
        <ele>1214.0</ele>
        <time>2018-06-12T12:52:59Z</time>
      </trkpt>
      <trkpt lat="42.368010" lon="0.810017">
        <ele>1218.5</ele>
        <time>2018-06-12T12:53:05Z</time>
      </trkpt>
      <trkpt lat="42.368206" lon="0.809898">
        <ele>1224.6</ele>
        <time>2018-06-12T12:53:11Z</time>
      </trkpt>
      <trkpt lat="42.368388" lon="0.809839">
        <ele>1225.2</ele>
        <time>2018-06-12T12:53:15Z</time>
      </trkpt>
      <trkpt lat="42.368766" lon="0.809863">
        <ele>1221.0</ele>
        <time>2018-06-12T12:53:25Z</time>
      </trkpt>
      <trkpt lat="42.369304" lon="0.809898">
        <ele>1225.2</ele>
        <time>2018-06-12T12:53:40Z</time>
      </trkpt>
      <trkpt lat="42.369545" lon="0.809917">
        <ele>1226.4</ele>
        <time>2018-06-12T12:53:46Z</time>
      </trkpt>
      <trkpt lat="42.369734" lon="0.809871">
        <ele>1226.8</ele>
        <time>2018-06-12T12:53:51Z</time>
      </trkpt>
      <trkpt lat="42.370018" lon="0.809717">
        <ele>1231.3</ele>
        <time>2018-06-12T12:53:59Z</time>
      </trkpt>
      <trkpt lat="42.370303" lon="0.809537">
        <ele>1234.2</ele>
        <time>2018-06-12T12:54:08Z</time>
      </trkpt>
      <trkpt lat="42.370532" lon="0.809359">
        <ele>1232.7</ele>
        <time>2018-06-12T12:54:15Z</time>
      </trkpt>
      <trkpt lat="42.370674" lon="0.809167">
        <ele>1231.0</ele>
        <time>2018-06-12T12:54:20Z</time>
      </trkpt>
      <trkpt lat="42.370808" lon="0.808969">
        <ele>1228.1</ele>
        <time>2018-06-12T12:54:25Z</time>
      </trkpt>
      <trkpt lat="42.370898" lon="0.808743">
        <ele>1227.6</ele>
        <time>2018-06-12T12:54:30Z</time>
      </trkpt>
      <trkpt lat="42.370976" lon="0.808427">
        <ele>1225.0</ele>
        <time>2018-06-12T12:54:37Z</time>
      </trkpt>
      <trkpt lat="42.371062" lon="0.808091">
        <ele>1223.0</ele>
        <time>2018-06-12T12:54:44Z</time>
      </trkpt>
      <trkpt lat="42.371095" lon="0.807837">
        <ele>1224.1</ele>
        <time>2018-06-12T12:54:49Z</time>
      </trkpt>
      <trkpt lat="42.371127" lon="0.807624">
        <ele>1226.2</ele>
        <time>2018-06-12T12:54:53Z</time>
      </trkpt>
      <trkpt lat="42.371094" lon="0.807416">
        <ele>1229.0</ele>
        <time>2018-06-12T12:54:57Z</time>
      </trkpt>
      <trkpt lat="42.371116" lon="0.807264">
        <ele>1231.8</ele>
        <time>2018-06-12T12:55:00Z</time>
      </trkpt>
      <trkpt lat="42.371170" lon="0.807096">
        <ele>1234.4</ele>
        <time>2018-06-12T12:55:04Z</time>
      </trkpt>
      <trkpt lat="42.371368" lon="0.806789">
        <ele>1225.6</ele>
        <time>2018-06-12T12:55:12Z</time>
      </trkpt>
      <trkpt lat="42.371488" lon="0.806575">
        <ele>1216.0</ele>
        <time>2018-06-12T12:55:18Z</time>
      </trkpt>
      <trkpt lat="42.371600" lon="0.806209">
        <ele>1210.9</ele>
        <time>2018-06-12T12:55:25Z</time>
      </trkpt>
      <trkpt lat="42.371688" lon="0.805871">
        <ele>1219.4</ele>
        <time>2018-06-12T12:55:33Z</time>
      </trkpt>
      <trkpt lat="42.371765" lon="0.805685">
        <ele>1222.5</ele>
        <time>2018-06-12T12:55:37Z</time>
      </trkpt>
      <trkpt lat="42.371887" lon="0.805553">
        <ele>1222.2</ele>
        <time>2018-06-12T12:55:41Z</time>
      </trkpt>
      <trkpt lat="42.372100" lon="0.805365">
        <ele>1220.4</ele>
        <time>2018-06-12T12:55:48Z</time>
      </trkpt>
      <trkpt lat="42.372392" lon="0.805287">
        <ele>1213.8</ele>
        <time>2018-06-12T12:55:56Z</time>
      </trkpt>
      <trkpt lat="42.372594" lon="0.805208">
        <ele>1206.0</ele>
        <time>2018-06-12T12:56:02Z</time>
      </trkpt>
      <trkpt lat="42.372718" lon="0.805150">
        <ele>1202.2</ele>
        <time>2018-06-12T12:56:05Z</time>
      </trkpt>
      <trkpt lat="42.372828" lon="0.805010">
        <ele>1201.0</ele>
        <time>2018-06-12T12:56:09Z</time>
      </trkpt>
      <trkpt lat="42.372962" lon="0.804734">
        <ele>1200.0</ele>
        <time>2018-06-12T12:56:16Z</time>
      </trkpt>
      <trkpt lat="42.373116" lon="0.804393">
        <ele>1199.5</ele>
        <time>2018-06-12T12:56:23Z</time>
      </trkpt>
      <trkpt lat="42.373250" lon="0.804069">
        <ele>1199.3</ele>
        <time>2018-06-12T12:56:31Z</time>
      </trkpt>
      <trkpt lat="42.373437" lon="0.803786">
        <ele>1190.8</ele>
        <time>2018-06-12T12:56:38Z</time>
      </trkpt>
      <trkpt lat="42.373505" lon="0.803619">
        <ele>1187.2</ele>
        <time>2018-06-12T12:56:42Z</time>
      </trkpt>
      <trkpt lat="42.373540" lon="0.803451">
        <ele>1185.3</ele>
        <time>2018-06-12T12:56:45Z</time>
      </trkpt>
      <trkpt lat="42.373538" lon="0.803324">
        <ele>1185.4</ele>
        <time>2018-06-12T12:56:48Z</time>
      </trkpt>
      <trkpt lat="42.373546" lon="0.802993">
        <ele>1184.2</ele>
        <time>2018-06-12T12:56:54Z</time>
      </trkpt>
      <trkpt lat="42.373583" lon="0.801785">
        <ele>1179.0</ele>
        <time>2018-06-12T12:57:18Z</time>
      </trkpt>
      <trkpt lat="42.373571" lon="0.801439">
        <ele>1174.8</ele>
        <time>2018-06-12T12:57:25Z</time>
      </trkpt>
      <trkpt lat="42.373545" lon="0.801276">
        <ele>1172.4</ele>
        <time>2018-06-12T12:57:28Z</time>
      </trkpt>
      <trkpt lat="42.373476" lon="0.801049">
        <ele>1170.9</ele>
        <time>2018-06-12T12:57:33Z</time>
      </trkpt>
      <trkpt lat="42.373373" lon="0.800864">
        <ele>1172.4</ele>
        <time>2018-06-12T12:57:37Z</time>
      </trkpt>
      <trkpt lat="42.373224" lon="0.800678">
        <ele>1174.8</ele>
        <time>2018-06-12T12:57:43Z</time>
      </trkpt>
      <trkpt lat="42.373072" lon="0.800459">
        <ele>1181.5</ele>
        <time>2018-06-12T12:57:49Z</time>
      </trkpt>
      <trkpt lat="42.372944" lon="0.800280">
        <ele>1188.0</ele>
        <time>2018-06-12T12:57:54Z</time>
      </trkpt>
      <trkpt lat="42.372896" lon="0.800197">
        <ele>1190.5</ele>
        <time>2018-06-12T12:57:56Z</time>
      </trkpt>
      <trkpt lat="42.372872" lon="0.800109">
        <ele>1192.5</ele>
        <time>2018-06-12T12:57:58Z</time>
      </trkpt>
      <trkpt lat="42.372869" lon="0.800027">
        <ele>1194.5</ele>
        <time>2018-06-12T12:58:00Z</time>
      </trkpt>
      <trkpt lat="42.372892" lon="0.799932">
        <ele>1195.1</ele>
        <time>2018-06-12T12:58:01Z</time>
      </trkpt>
      <trkpt lat="42.372941" lon="0.799879">
        <ele>1193.2</ele>
        <time>2018-06-12T12:58:03Z</time>
      </trkpt>
      <trkpt lat="42.373026" lon="0.799807">
        <ele>1190.6</ele>
        <time>2018-06-12T12:58:06Z</time>
      </trkpt>
      <trkpt lat="42.373222" lon="0.799640">
        <ele>1185.2</ele>
        <time>2018-06-12T12:58:12Z</time>
      </trkpt>
      <trkpt lat="42.373337" lon="0.799520">
        <ele>1185.8</ele>
        <time>2018-06-12T12:58:16Z</time>
      </trkpt>
      <trkpt lat="42.373454" lon="0.799365">
        <ele>1187.5</ele>
        <time>2018-06-12T12:58:20Z</time>
      </trkpt>
      <trkpt lat="42.373534" lon="0.799199">
        <ele>1190.3</ele>
        <time>2018-06-12T12:58:24Z</time>
      </trkpt>
      <trkpt lat="42.373591" lon="0.799015">
        <ele>1194.2</ele>
        <time>2018-06-12T12:58:28Z</time>
      </trkpt>
      <trkpt lat="42.373660" lon="0.798752">
        <ele>1200.9</ele>
        <time>2018-06-12T12:58:34Z</time>
      </trkpt>
      <trkpt lat="42.373725" lon="0.798469">
        <ele>1205.2</ele>
        <time>2018-06-12T12:58:40Z</time>
      </trkpt>
      <trkpt lat="42.373781" lon="0.798238">
        <ele>1197.7</ele>
        <time>2018-06-12T12:58:45Z</time>
      </trkpt>
      <trkpt lat="42.373865" lon="0.798092">
        <ele>1197.0</ele>
        <time>2018-06-12T12:58:48Z</time>
      </trkpt>
      <trkpt lat="42.374006" lon="0.797949">
        <ele>1201.3</ele>
        <time>2018-06-12T12:58:53Z</time>
      </trkpt>
      <trkpt lat="42.374146" lon="0.797854">
        <ele>1194.5</ele>
        <time>2018-06-12T12:58:58Z</time>
      </trkpt>
      <trkpt lat="42.374297" lon="0.797753">
        <ele>1186.3</ele>
        <time>2018-06-12T12:59:02Z</time>
      </trkpt>
      <trkpt lat="42.374483" lon="0.797595">
        <ele>1180.7</ele>
        <time>2018-06-12T12:59:08Z</time>
      </trkpt>
      <trkpt lat="42.374603" lon="0.797440">
        <ele>1179.5</ele>
        <time>2018-06-12T12:59:13Z</time>
      </trkpt>
      <trkpt lat="42.374696" lon="0.797306">
        <ele>1178.4</ele>
        <time>2018-06-12T12:59:16Z</time>
      </trkpt>
      <trkpt lat="42.374836" lon="0.797072">
        <ele>1176.3</ele>
        <time>2018-06-12T12:59:22Z</time>
      </trkpt>
      <trkpt lat="42.374997" lon="0.796811">
        <ele>1173.5</ele>
        <time>2018-06-12T12:59:29Z</time>
      </trkpt>
      <trkpt lat="42.375176" lon="0.796510">
        <ele>1171.3</ele>
        <time>2018-06-12T12:59:36Z</time>
      </trkpt>
      <trkpt lat="42.375364" lon="0.796155">
        <ele>1169.7</ele>
        <time>2018-06-12T12:59:45Z</time>
      </trkpt>
      <trkpt lat="42.375686" lon="0.795459">
        <ele>1168.6</ele>
        <time>2018-06-12T13:00:01Z</time>
      </trkpt>
      <trkpt lat="42.375953" lon="0.794849">
        <ele>1162.0</ele>
        <time>2018-06-12T13:00:15Z</time>
      </trkpt>
      <trkpt lat="42.376219" lon="0.794313">
        <ele>1151.4</ele>
        <time>2018-06-12T13:00:28Z</time>
      </trkpt>
      <trkpt lat="42.376293" lon="0.794182">
        <ele>1150.0</ele>
        <time>2018-06-12T13:00:31Z</time>
      </trkpt>
      <trkpt lat="42.376413" lon="0.793993">
        <ele>1149.7</ele>
        <time>2018-06-12T13:00:36Z</time>
      </trkpt>
      <trkpt lat="42.376515" lon="0.793868">
        <ele>1150.1</ele>
        <time>2018-06-12T13:00:39Z</time>
      </trkpt>
      <trkpt lat="42.376594" lon="0.793770">
        <ele>1149.0</ele>
        <time>2018-06-12T13:00:42Z</time>
      </trkpt>
      <trkpt lat="42.376726" lon="0.793681">
        <ele>1145.5</ele>
        <time>2018-06-12T13:00:46Z</time>
      </trkpt>
      <trkpt lat="42.376833" lon="0.793616">
        <ele>1142.7</ele>
        <time>2018-06-12T13:00:49Z</time>
      </trkpt>
      <trkpt lat="42.376944" lon="0.793539">
        <ele>1139.2</ele>
        <time>2018-06-12T13:00:53Z</time>
      </trkpt>
      <trkpt lat="42.377042" lon="0.793422">
        <ele>1136.2</ele>
        <time>2018-06-12T13:00:56Z</time>
      </trkpt>
      <trkpt lat="42.377083" lon="0.793332">
        <ele>1134.5</ele>
        <time>2018-06-12T13:00:58Z</time>
      </trkpt>
      <trkpt lat="42.377110" lon="0.793194">
        <ele>1134.1</ele>
        <time>2018-06-12T13:01:01Z</time>
      </trkpt>
      <trkpt lat="42.377115" lon="0.793058">
        <ele>1135.0</ele>
        <time>2018-06-12T13:01:04Z</time>
      </trkpt>
      <trkpt lat="42.377110" lon="0.792806">
        <ele>1137.8</ele>
        <time>2018-06-12T13:01:09Z</time>
      </trkpt>
      <trkpt lat="42.377114" lon="0.792669">
        <ele>1139.9</ele>
        <time>2018-06-12T13:01:11Z</time>
      </trkpt>
      <trkpt lat="42.377120" lon="0.792513">
        <ele>1143.0</ele>
        <time>2018-06-12T13:01:14Z</time>
      </trkpt>
      <trkpt lat="42.377139" lon="0.792401">
        <ele>1145.1</ele>
        <time>2018-06-12T13:01:17Z</time>
      </trkpt>
      <trkpt lat="42.377171" lon="0.792340">
        <ele>1145.8</ele>
        <time>2018-06-12T13:01:18Z</time>
      </trkpt>
      <trkpt lat="42.377222" lon="0.792296">
        <ele>1145.9</ele>
        <time>2018-06-12T13:01:20Z</time>
      </trkpt>
      <trkpt lat="42.377286" lon="0.792277">
        <ele>1145.5</ele>
        <time>2018-06-12T13:01:21Z</time>
      </trkpt>
      <trkpt lat="42.377351" lon="0.792294">
        <ele>1144.1</ele>
        <time>2018-06-12T13:01:23Z</time>
      </trkpt>
      <trkpt lat="42.377423" lon="0.792332">
        <ele>1141.5</ele>
        <time>2018-06-12T13:01:25Z</time>
      </trkpt>
      <trkpt lat="42.377494" lon="0.792384">
        <ele>1138.5</ele>
        <time>2018-06-12T13:01:28Z</time>
      </trkpt>
      <trkpt lat="42.377694" lon="0.792623">
        <ele>1130.0</ele>
        <time>2018-06-12T13:01:35Z</time>
      </trkpt>
      <trkpt lat="42.377851" lon="0.792836">
        <ele>1126.1</ele>
        <time>2018-06-12T13:01:41Z</time>
      </trkpt>
      <trkpt lat="42.377939" lon="0.792973">
        <ele>1123.2</ele>
        <time>2018-06-12T13:01:44Z</time>
      </trkpt>
      <trkpt lat="42.377980" lon="0.793055">
        <ele>1122.2</ele>
        <time>2018-06-12T13:01:46Z</time>
      </trkpt>
      <trkpt lat="42.378046" lon="0.793242">
        <ele>1120.5</ele>
        <time>2018-06-12T13:01:50Z</time>
      </trkpt>
      <trkpt lat="42.378115" lon="0.793517">
        <ele>1118.2</ele>
        <time>2018-06-12T13:01:56Z</time>
      </trkpt>
      <trkpt lat="42.378250" lon="0.793994">
        <ele>1104.1</ele>
        <time>2018-06-12T13:02:07Z</time>
      </trkpt>
      <trkpt lat="42.378353" lon="0.794182">
        <ele>1099.9</ele>
        <time>2018-06-12T13:02:11Z</time>
      </trkpt>
      <trkpt lat="42.378416" lon="0.794262">
        <ele>1098.4</ele>
        <time>2018-06-12T13:02:14Z</time>
      </trkpt>
      <trkpt lat="42.378488" lon="0.794338">
        <ele>1097.0</ele>
        <time>2018-06-12T13:02:16Z</time>
      </trkpt>
      <trkpt lat="42.378571" lon="0.794338">
        <ele>1097.5</ele>
        <time>2018-06-12T13:02:18Z</time>
      </trkpt>
      <trkpt lat="42.378666" lon="0.794284">
        <ele>1100.3</ele>
        <time>2018-06-12T13:02:21Z</time>
      </trkpt>
      <trkpt lat="42.378769" lon="0.794026">
        <ele>1112.6</ele>
        <time>2018-06-12T13:02:27Z</time>
      </trkpt>
      <trkpt lat="42.379078" lon="0.793340">
        <ele>1123.5</ele>
        <time>2018-06-12T13:02:43Z</time>
      </trkpt>
      <trkpt lat="42.379201" lon="0.793109">
        <ele>1129.2</ele>
        <time>2018-06-12T13:02:49Z</time>
      </trkpt>
      <trkpt lat="42.379268" lon="0.793029">
        <ele>1129.7</ele>
        <time>2018-06-12T13:02:51Z</time>
      </trkpt>
      <trkpt lat="42.379340" lon="0.792986">
        <ele>1127.5</ele>
        <time>2018-06-12T13:02:53Z</time>
      </trkpt>
      <trkpt lat="42.379566" lon="0.792975">
        <ele>1113.1</ele>
        <time>2018-06-12T13:03:00Z</time>
      </trkpt>
      <trkpt lat="42.379677" lon="0.792948">
        <ele>1107.4</ele>
        <time>2018-06-12T13:03:04Z</time>
      </trkpt>
      <trkpt lat="42.379724" lon="0.792889">
        <ele>1106.8</ele>
        <time>2018-06-12T13:03:05Z</time>
      </trkpt>
      <trkpt lat="42.379776" lon="0.792766">
        <ele>1107.8</ele>
        <time>2018-06-12T13:03:08Z</time>
      </trkpt>
      <trkpt lat="42.379851" lon="0.792460">
        <ele>1111.5</ele>
        <time>2018-06-12T13:03:14Z</time>
      </trkpt>
      <trkpt lat="42.380124" lon="0.792106">
        <ele>1103.5</ele>
        <time>2018-06-12T13:03:25Z</time>
      </trkpt>
      <trkpt lat="42.380370" lon="0.791698">
        <ele>1095.4</ele>
        <time>2018-06-12T13:03:35Z</time>
      </trkpt>
      <trkpt lat="42.380592" lon="0.791376">
        <ele>1092.4</ele>
        <time>2018-06-12T13:03:44Z</time>
      </trkpt>
      <trkpt lat="42.380763" lon="0.791205">
        <ele>1088.6</ele>
        <time>2018-06-12T13:03:49Z</time>
      </trkpt>
      <trkpt lat="42.380850" lon="0.791119">
        <ele>1086.6</ele>
        <time>2018-06-12T13:03:52Z</time>
      </trkpt>
      <trkpt lat="42.380996" lon="0.791038">
        <ele>1082.2</ele>
        <time>2018-06-12T13:03:56Z</time>
      </trkpt>
      <trkpt lat="42.381159" lon="0.790990">
        <ele>1082.9</ele>
        <time>2018-06-12T13:04:01Z</time>
      </trkpt>
      <trkpt lat="42.381305" lon="0.791044">
        <ele>1080.0</ele>
        <time>2018-06-12T13:04:05Z</time>
      </trkpt>
      <trkpt lat="42.381444" lon="0.791167">
        <ele>1075.6</ele>
        <time>2018-06-12T13:04:09Z</time>
      </trkpt>
      <trkpt lat="42.381603" lon="0.791296">
        <ele>1070.9</ele>
        <time>2018-06-12T13:04:14Z</time>
      </trkpt>
      <trkpt lat="42.381725" lon="0.791328">
        <ele>1068.5</ele>
        <time>2018-06-12T13:04:18Z</time>
      </trkpt>
      <trkpt lat="42.381884" lon="0.791339">
        <ele>1065.2</ele>
        <time>2018-06-12T13:04:22Z</time>
      </trkpt>
      <trkpt lat="42.382090" lon="0.791296">
        <ele>1062.4</ele>
        <time>2018-06-12T13:04:27Z</time>
      </trkpt>
      <trkpt lat="42.382252" lon="0.791156">
        <ele>1061.7</ele>
        <time>2018-06-12T13:04:32Z</time>
      </trkpt>
      <trkpt lat="42.382435" lon="0.790888">
        <ele>1066.8</ele>
        <time>2018-06-12T13:04:40Z</time>
      </trkpt>
      <trkpt lat="42.382538" lon="0.790781">
        <ele>1072.2</ele>
        <time>2018-06-12T13:04:43Z</time>
      </trkpt>
      <trkpt lat="42.382609" lon="0.790743">
        <ele>1073.7</ele>
        <time>2018-06-12T13:04:45Z</time>
      </trkpt>
      <trkpt lat="42.382839" lon="0.790690">
        <ele>1071.9</ele>
        <time>2018-06-12T13:04:52Z</time>
      </trkpt>
      <trkpt lat="42.382974" lon="0.790620">
        <ele>1071.8</ele>
        <time>2018-06-12T13:04:55Z</time>
      </trkpt>
      <trkpt lat="42.383137" lon="0.790497">
        <ele>1070.0</ele>
        <time>2018-06-12T13:05:00Z</time>
      </trkpt>
      <trkpt lat="42.383220" lon="0.790422">
        <ele>1068.2</ele>
        <time>2018-06-12T13:05:03Z</time>
      </trkpt>
      <trkpt lat="42.383299" lon="0.790277">
        <ele>1073.0</ele>
        <time>2018-06-12T13:05:07Z</time>
      </trkpt>
      <trkpt lat="42.383426" lon="0.789644">
        <ele>1080.3</ele>
        <time>2018-06-12T13:05:20Z</time>
      </trkpt>
      <trkpt lat="42.383469" lon="0.789510">
        <ele>1081.9</ele>
        <time>2018-06-12T13:05:22Z</time>
      </trkpt>
      <trkpt lat="42.383525" lon="0.789461">
        <ele>1082.1</ele>
        <time>2018-06-12T13:05:24Z</time>
      </trkpt>
      <trkpt lat="42.383592" lon="0.789445">
        <ele>1080.2</ele>
        <time>2018-06-12T13:05:26Z</time>
      </trkpt>
      <trkpt lat="42.383648" lon="0.789451">
        <ele>1077.8</ele>
        <time>2018-06-12T13:05:28Z</time>
      </trkpt>
      <trkpt lat="42.383735" lon="0.789547">
        <ele>1070.8</ele>
        <time>2018-06-12T13:05:31Z</time>
      </trkpt>
      <trkpt lat="42.383977" lon="0.789912">
        <ele>1064.3</ele>
        <time>2018-06-12T13:05:41Z</time>
      </trkpt>
      <trkpt lat="42.384163" lon="0.790041">
        <ele>1059.0</ele>
        <time>2018-06-12T13:05:46Z</time>
      </trkpt>
      <trkpt lat="42.384294" lon="0.790089">
        <ele>1056.7</ele>
        <time>2018-06-12T13:05:50Z</time>
      </trkpt>
      <trkpt lat="42.384385" lon="0.790105">
        <ele>1054.9</ele>
        <time>2018-06-12T13:05:52Z</time>
      </trkpt>
      <trkpt lat="42.384464" lon="0.790046">
        <ele>1055.4</ele>
        <time>2018-06-12T13:05:55Z</time>
      </trkpt>
      <trkpt lat="42.384531" lon="0.789987">
        <ele>1055.8</ele>
        <time>2018-06-12T13:05:57Z</time>
      </trkpt>
      <trkpt lat="42.384583" lon="0.789880">
        <ele>1057.5</ele>
        <time>2018-06-12T13:05:59Z</time>
      </trkpt>
      <trkpt lat="42.384694" lon="0.789590">
        <ele>1064.0</ele>
        <time>2018-06-12T13:06:06Z</time>
      </trkpt>
      <trkpt lat="42.384730" lon="0.789488">
        <ele>1068.6</ele>
        <time>2018-06-12T13:06:08Z</time>
      </trkpt>
      <trkpt lat="42.384769" lon="0.789418">
        <ele>1071.5</ele>
        <time>2018-06-12T13:06:10Z</time>
      </trkpt>
      <trkpt lat="42.384848" lon="0.789343">
        <ele>1073.9</ele>
        <time>2018-06-12T13:06:13Z</time>
      </trkpt>
      <trkpt lat="42.385150" lon="0.789091">
        <ele>1071.4</ele>
        <time>2018-06-12T13:06:22Z</time>
      </trkpt>
      <trkpt lat="42.385340" lon="0.788957">
        <ele>1070.3</ele>
        <time>2018-06-12T13:06:28Z</time>
      </trkpt>
      <trkpt lat="42.385502" lon="0.788919">
        <ele>1065.6</ele>
        <time>2018-06-12T13:06:32Z</time>
      </trkpt>
      <trkpt lat="42.385629" lon="0.788914">
        <ele>1060.8</ele>
        <time>2018-06-12T13:06:36Z</time>
      </trkpt>
      <trkpt lat="42.385744" lon="0.788903">
        <ele>1058.2</ele>
        <time>2018-06-12T13:06:39Z</time>
      </trkpt>
      <trkpt lat="42.385815" lon="0.788850">
        <ele>1059.8</ele>
        <time>2018-06-12T13:06:41Z</time>
      </trkpt>
      <trkpt lat="42.385938" lon="0.788705">
        <ele>1063.8</ele>
        <time>2018-06-12T13:06:45Z</time>
      </trkpt>
      <trkpt lat="42.386296" lon="0.788206">
        <ele>1079.6</ele>
        <time>2018-06-12T13:06:59Z</time>
      </trkpt>
      <trkpt lat="42.386391" lon="0.788091">
        <ele>1080.6</ele>
        <time>2018-06-12T13:07:03Z</time>
      </trkpt>
      <trkpt lat="42.386504" lon="0.788032">
        <ele>1078.6</ele>
        <time>2018-06-12T13:07:06Z</time>
      </trkpt>
      <trkpt lat="42.386659" lon="0.787975">
        <ele>1071.4</ele>
        <time>2018-06-12T13:07:11Z</time>
      </trkpt>
      <trkpt lat="42.386783" lon="0.787954">
        <ele>1064.6</ele>
        <time>2018-06-12T13:07:14Z</time>
      </trkpt>
      <trkpt lat="42.386879" lon="0.787932">
        <ele>1061.0</ele>
        <time>2018-06-12T13:07:17Z</time>
      </trkpt>
      <trkpt lat="42.386981" lon="0.787833">
        <ele>1060.9</ele>
        <time>2018-06-12T13:07:20Z</time>
      </trkpt>
      <trkpt lat="42.387148" lon="0.787675">
        <ele>1062.1</ele>
        <time>2018-06-12T13:07:26Z</time>
      </trkpt>
      <trkpt lat="42.387442" lon="0.787535">
        <ele>1060.9</ele>
        <time>2018-06-12T13:07:34Z</time>
      </trkpt>
      <trkpt lat="42.387701" lon="0.787452">
        <ele>1051.7</ele>
        <time>2018-06-12T13:07:41Z</time>
      </trkpt>
      <trkpt lat="42.388011" lon="0.787259">
        <ele>1037.4</ele>
        <time>2018-06-12T13:07:51Z</time>
      </trkpt>
      <trkpt lat="42.388276" lon="0.786964">
        <ele>1033.3</ele>
        <time>2018-06-12T13:08:00Z</time>
      </trkpt>
      <trkpt lat="42.388437" lon="0.786764">
        <ele>1030.6</ele>
        <time>2018-06-12T13:08:06Z</time>
      </trkpt>
      <trkpt lat="42.388543" lon="0.786730">
        <ele>1027.1</ele>
        <time>2018-06-12T13:08:09Z</time>
      </trkpt>
      <trkpt lat="42.388636" lon="0.786734">
        <ele>1022.7</ele>
        <time>2018-06-12T13:08:11Z</time>
      </trkpt>
      <trkpt lat="42.388699" lon="0.786773">
        <ele>1018.9</ele>
        <time>2018-06-12T13:08:13Z</time>
      </trkpt>
      <trkpt lat="42.388729" lon="0.786837">
        <ele>1016.1</ele>
        <time>2018-06-12T13:08:15Z</time>
      </trkpt>
      <trkpt lat="42.388744" lon="0.786876">
        <ele>1014.7</ele>
        <time>2018-06-12T13:08:16Z</time>
      </trkpt>
      <trkpt lat="42.388750" lon="0.786928">
        <ele>1013.4</ele>
        <time>2018-06-12T13:08:17Z</time>
      </trkpt>
      <trkpt lat="42.388731" lon="0.787019">
        <ele>1012.1</ele>
        <time>2018-06-12T13:08:19Z</time>
      </trkpt>
      <trkpt lat="42.388703" lon="0.787077">
        <ele>1011.8</ele>
        <time>2018-06-12T13:08:20Z</time>
      </trkpt>
      <trkpt lat="42.388666" lon="0.787109">
        <ele>1012.3</ele>
        <time>2018-06-12T13:08:21Z</time>
      </trkpt>
      <trkpt lat="42.388633" lon="0.787115">
        <ele>1013.2</ele>
        <time>2018-06-12T13:08:22Z</time>
      </trkpt>
      <trkpt lat="42.388558" lon="0.787152">
        <ele>1014.5</ele>
        <time>2018-06-12T13:08:24Z</time>
      </trkpt>
      <trkpt lat="42.388458" lon="0.787184">
        <ele>1016.8</ele>
        <time>2018-06-12T13:08:27Z</time>
      </trkpt>
      <trkpt lat="42.388363" lon="0.787221">
        <ele>1020.3</ele>
        <time>2018-06-12T13:08:30Z</time>
      </trkpt>
      <trkpt lat="42.388259" lon="0.787269">
        <ele>1023.6</ele>
        <time>2018-06-12T13:08:33Z</time>
      </trkpt>
      <trkpt lat="42.388152" lon="0.787361">
        <ele>1025.6</ele>
        <time>2018-06-12T13:08:36Z</time>
      </trkpt>
      <trkpt lat="42.388014" lon="0.787465">
        <ele>1031.1</ele>
        <time>2018-06-12T13:08:41Z</time>
      </trkpt>
      <trkpt lat="42.387686" lon="0.787844">
        <ele>1039.0</ele>
        <time>2018-06-12T13:08:52Z</time>
      </trkpt>
      <trkpt lat="42.387555" lon="0.787946">
        <ele>1039.5</ele>
        <time>2018-06-12T13:08:56Z</time>
      </trkpt>
      <trkpt lat="42.387413" lon="0.788058">
        <ele>1040.0</ele>
        <time>2018-06-12T13:09:00Z</time>
      </trkpt>
      <trkpt lat="42.387298" lon="0.788246">
        <ele>1038.8</ele>
        <time>2018-06-12T13:09:05Z</time>
      </trkpt>
      <trkpt lat="42.387215" lon="0.788375">
        <ele>1037.1</ele>
        <time>2018-06-12T13:09:09Z</time>
      </trkpt>
      <trkpt lat="42.387080" lon="0.788477">
        <ele>1037.0</ele>
        <time>2018-06-12T13:09:13Z</time>
      </trkpt>
      <trkpt lat="42.386913" lon="0.788573">
        <ele>1040.6</ele>
        <time>2018-06-12T13:09:17Z</time>
      </trkpt>
      <trkpt lat="42.386795" lon="0.788681">
        <ele>1040.9</ele>
        <time>2018-06-12T13:09:21Z</time>
      </trkpt>
      <trkpt lat="42.386668" lon="0.788809">
        <ele>1040.7</ele>
        <time>2018-06-12T13:09:25Z</time>
      </trkpt>
      <trkpt lat="42.386624" lon="0.788954">
        <ele>1031.9</ele>
        <time>2018-06-12T13:09:29Z</time>
      </trkpt>
      <trkpt lat="42.386636" lon="0.789040">
        <ele>1024.4</ele>
        <time>2018-06-12T13:09:32Z</time>
      </trkpt>
      <trkpt lat="42.386676" lon="0.789142">
        <ele>1015.2</ele>
        <time>2018-06-12T13:09:35Z</time>
      </trkpt>
      <trkpt lat="42.386727" lon="0.789223">
        <ele>1007.7</ele>
        <time>2018-06-12T13:09:37Z</time>
      </trkpt>
      <trkpt lat="42.386834" lon="0.789233">
        <ele>1001.8</ele>
        <time>2018-06-12T13:09:41Z</time>
      </trkpt>
      <trkpt lat="42.386929" lon="0.789190">
        <ele>999.0</ele>
        <time>2018-06-12T13:09:43Z</time>
      </trkpt>
      <trkpt lat="42.387024" lon="0.789099">
        <ele>1001.1</ele>
        <time>2018-06-12T13:09:46Z</time>
      </trkpt>
      <trkpt lat="42.387163" lon="0.788809">
        <ele>1017.4</ele>
        <time>2018-06-12T13:09:54Z</time>
      </trkpt>
      <trkpt lat="42.387294" lon="0.788767">
        <ele>1012.9</ele>
        <time>2018-06-12T13:09:58Z</time>
      </trkpt>
      <trkpt lat="42.387425" lon="0.788681">
        <ele>1011.4</ele>
        <time>2018-06-12T13:10:02Z</time>
      </trkpt>
      <trkpt lat="42.387666" lon="0.788413">
        <ele>1006.9</ele>
        <time>2018-06-12T13:10:10Z</time>
      </trkpt>
      <trkpt lat="42.387900" lon="0.788278">
        <ele>1003.7</ele>
        <time>2018-06-12T13:10:17Z</time>
      </trkpt>
      <trkpt lat="42.388067" lon="0.788235">
        <ele>1001.2</ele>
        <time>2018-06-12T13:10:21Z</time>
      </trkpt>
      <trkpt lat="42.388245" lon="0.788235">
        <ele>995.0</ele>
        <time>2018-06-12T13:10:26Z</time>
      </trkpt>
      <trkpt lat="42.388399" lon="0.788327">
        <ele>983.3</ele>
        <time>2018-06-12T13:10:31Z</time>
      </trkpt>
      <trkpt lat="42.388558" lon="0.788455">
        <ele>974.1</ele>
        <time>2018-06-12T13:10:37Z</time>
      </trkpt>
      <trkpt lat="42.388665" lon="0.788477">
        <ele>971.3</ele>
        <time>2018-06-12T13:10:40Z</time>
      </trkpt>
      <trkpt lat="42.388756" lon="0.788445">
        <ele>970.9</ele>
        <time>2018-06-12T13:10:42Z</time>
      </trkpt>
      <trkpt lat="42.388839" lon="0.788386">
        <ele>971.5</ele>
        <time>2018-06-12T13:10:45Z</time>
      </trkpt>
      <trkpt lat="42.389505" lon="0.787704">
        <ele>976.9</ele>
        <time>2018-06-12T13:11:07Z</time>
      </trkpt>
      <trkpt lat="42.389612" lon="0.787602">
        <ele>976.9</ele>
        <time>2018-06-12T13:11:10Z</time>
      </trkpt>
      <trkpt lat="42.389744" lon="0.787532">
        <ele>976.2</ele>
        <time>2018-06-12T13:11:14Z</time>
      </trkpt>
      <trkpt lat="42.389870" lon="0.787563">
        <ele>971.0</ele>
        <time>2018-06-12T13:11:17Z</time>
      </trkpt>
      <trkpt lat="42.389997" lon="0.787586">
        <ele>966.5</ele>
        <time>2018-06-12T13:11:21Z</time>
      </trkpt>
      <trkpt lat="42.390191" lon="0.787636">
        <ele>958.6</ele>
        <time>2018-06-12T13:11:26Z</time>
      </trkpt>
      <trkpt lat="42.390302" lon="0.787640">
        <ele>955.2</ele>
        <time>2018-06-12T13:11:30Z</time>
      </trkpt>
      <trkpt lat="42.390374" lon="0.787624">
        <ele>953.8</ele>
        <time>2018-06-12T13:11:31Z</time>
      </trkpt>
      <trkpt lat="42.390448" lon="0.787551">
        <ele>953.8</ele>
        <time>2018-06-12T13:11:34Z</time>
      </trkpt>
      <trkpt lat="42.390516" lon="0.787444">
        <ele>953.7</ele>
        <time>2018-06-12T13:11:37Z</time>
      </trkpt>
      <trkpt lat="42.390584" lon="0.787333">
        <ele>952.2</ele>
        <time>2018-06-12T13:11:39Z</time>
      </trkpt>
      <trkpt lat="42.390697" lon="0.787232">
        <ele>947.2</ele>
        <time>2018-06-12T13:11:43Z</time>
      </trkpt>
      <trkpt lat="42.391065" lon="0.787075">
        <ele>935.1</ele>
        <time>2018-06-12T13:11:54Z</time>
      </trkpt>
      <trkpt lat="42.391142" lon="0.787001">
        <ele>933.4</ele>
        <time>2018-06-12T13:11:56Z</time>
      </trkpt>
      <trkpt lat="42.391192" lon="0.786868">
        <ele>932.9</ele>
        <time>2018-06-12T13:11:59Z</time>
      </trkpt>
      <trkpt lat="42.391287" lon="0.786627">
        <ele>933.5</ele>
        <time>2018-06-12T13:12:04Z</time>
      </trkpt>
      <trkpt lat="42.391408" lon="0.786383">
        <ele>936.5</ele>
        <time>2018-06-12T13:12:10Z</time>
      </trkpt>
      <trkpt lat="42.391562" lon="0.786117">
        <ele>938.0</ele>
        <time>2018-06-12T13:12:17Z</time>
      </trkpt>
      <trkpt lat="42.391748" lon="0.785857">
        <ele>940.2</ele>
        <time>2018-06-12T13:12:24Z</time>
      </trkpt>
      <trkpt lat="42.391886" lon="0.785688">
        <ele>940.5</ele>
        <time>2018-06-12T13:12:29Z</time>
      </trkpt>
      <trkpt lat="42.392011" lon="0.785610">
        <ele>937.4</ele>
        <time>2018-06-12T13:12:33Z</time>
      </trkpt>
      <trkpt lat="42.392178" lon="0.785540">
        <ele>934.6</ele>
        <time>2018-06-12T13:12:37Z</time>
      </trkpt>
      <trkpt lat="42.392390" lon="0.785477">
        <ele>933.3</ele>
        <time>2018-06-12T13:12:43Z</time>
      </trkpt>
      <trkpt lat="42.392608" lon="0.785451">
        <ele>932.6</ele>
        <time>2018-06-12T13:12:49Z</time>
      </trkpt>
      <trkpt lat="42.393020" lon="0.785429">
        <ele>930.4</ele>
        <time>2018-06-12T13:13:00Z</time>
      </trkpt>
      <trkpt lat="42.393552" lon="0.785427">
        <ele>923.4</ele>
        <time>2018-06-12T13:13:14Z</time>
      </trkpt>
      <trkpt lat="42.393647" lon="0.785426">
        <ele>923.7</ele>
        <time>2018-06-12T13:13:16Z</time>
      </trkpt>
      <trkpt lat="42.393713" lon="0.785438">
        <ele>924.1</ele>
        <time>2018-06-12T13:13:18Z</time>
      </trkpt>
      <trkpt lat="42.393769" lon="0.785416">
        <ele>924.0</ele>
        <time>2018-06-12T13:13:19Z</time>
      </trkpt>
      <trkpt lat="42.393823" lon="0.785364">
        <ele>923.9</ele>
        <time>2018-06-12T13:13:21Z</time>
      </trkpt>
      <trkpt lat="42.393863" lon="0.785284">
        <ele>923.7</ele>
        <time>2018-06-12T13:13:23Z</time>
      </trkpt>
      <trkpt lat="42.393909" lon="0.785130">
        <ele>923.6</ele>
        <time>2018-06-12T13:13:26Z</time>
      </trkpt>
      <trkpt lat="42.393993" lon="0.784511">
        <ele>927.7</ele>
        <time>2018-06-12T13:13:39Z</time>
      </trkpt>
      <trkpt lat="42.394098" lon="0.783709">
        <ele>936.0</ele>
        <time>2018-06-12T13:13:55Z</time>
      </trkpt>
      <trkpt lat="42.394201" lon="0.783211">
        <ele>932.3</ele>
        <time>2018-06-12T13:14:05Z</time>
      </trkpt>
      <trkpt lat="42.394400" lon="0.782787">
        <ele>922.9</ele>
        <time>2018-06-12T13:14:15Z</time>
      </trkpt>
      <trkpt lat="42.394580" lon="0.782468">
        <ele>923.3</ele>
        <time>2018-06-12T13:14:22Z</time>
      </trkpt>
      <trkpt lat="42.394644" lon="0.782248">
        <ele>923.8</ele>
        <time>2018-06-12T13:14:27Z</time>
      </trkpt>
      <trkpt lat="42.394653" lon="0.781829">
        <ele>925.8</ele>
        <time>2018-06-12T13:14:35Z</time>
      </trkpt>
      <trkpt lat="42.394597" lon="0.780998">
        <ele>933.3</ele>
        <time>2018-06-12T13:14:52Z</time>
      </trkpt>
      <trkpt lat="42.394533" lon="0.779338">
        <ele>952.0</ele>
        <time>2018-06-12T13:15:24Z</time>
      </trkpt>
      <trkpt lat="42.394566" lon="0.778565">
        <ele>946.9</ele>
        <time>2018-06-12T13:15:39Z</time>
      </trkpt>
      <trkpt lat="42.394619" lon="0.777927">
        <ele>955.7</ele>
        <time>2018-06-12T13:15:52Z</time>
      </trkpt>
      <trkpt lat="42.394717" lon="0.777591">
        <ele>957.4</ele>
        <time>2018-06-12T13:15:59Z</time>
      </trkpt>
      <trkpt lat="42.394877" lon="0.777210">
        <ele>953.8</ele>
        <time>2018-06-12T13:16:08Z</time>
      </trkpt>
      <trkpt lat="42.394928" lon="0.776989">
        <ele>950.5</ele>
        <time>2018-06-12T13:16:12Z</time>
      </trkpt>
      <trkpt lat="42.394907" lon="0.776817">
        <ele>949.6</ele>
        <time>2018-06-12T13:16:16Z</time>
      </trkpt>
      <trkpt lat="42.394649" lon="0.776257">
        <ele>943.1</ele>
        <time>2018-06-12T13:16:28Z</time>
      </trkpt>
      <trkpt lat="42.394633" lon="0.776020">
        <ele>938.0</ele>
        <time>2018-06-12T13:16:33Z</time>
      </trkpt>
      <trkpt lat="42.394636" lon="0.775782">
        <ele>936.8</ele>
        <time>2018-06-12T13:16:38Z</time>
      </trkpt>
      <trkpt lat="42.394588" lon="0.775603">
        <ele>936.0</ele>
        <time>2018-06-12T13:16:42Z</time>
      </trkpt>
      <trkpt lat="42.394460" lon="0.775396">
        <ele>935.4</ele>
        <time>2018-06-12T13:16:47Z</time>
      </trkpt>
      <trkpt lat="42.394364" lon="0.775220">
        <ele>936.6</ele>
        <time>2018-06-12T13:16:51Z</time>
      </trkpt>
      <trkpt lat="42.394310" lon="0.775022">
        <ele>935.2</ele>
        <time>2018-06-12T13:16:55Z</time>
      </trkpt>
      <trkpt lat="42.394337" lon="0.774862">
        <ele>928.3</ele>
        <time>2018-06-12T13:16:59Z</time>
      </trkpt>
      <trkpt lat="42.394406" lon="0.774678">
        <ele>925.0</ele>
        <time>2018-06-12T13:17:03Z</time>
      </trkpt>
      <trkpt lat="42.394489" lon="0.774499">
        <ele>922.0</ele>
        <time>2018-06-12T13:17:07Z</time>
      </trkpt>
      <trkpt lat="42.394640" lon="0.773909">
        <ele>921.0</ele>
        <time>2018-06-12T13:17:19Z</time>
      </trkpt>
      <trkpt lat="42.394684" lon="0.773653">
        <ele>915.9</ele>
        <time>2018-06-12T13:17:24Z</time>
      </trkpt>
      <trkpt lat="42.394681" lon="0.773506">
        <ele>912.3</ele>
        <time>2018-06-12T13:17:27Z</time>
      </trkpt>
      <trkpt lat="42.394510" lon="0.772660">
        <ele>909.1</ele>
        <time>2018-06-12T13:17:45Z</time>
      </trkpt>
      <trkpt lat="42.394436" lon="0.772357">
        <ele>902.9</ele>
        <time>2018-06-12T13:17:51Z</time>
      </trkpt>
      <trkpt lat="42.394289" lon="0.772029">
        <ele>895.4</ele>
        <time>2018-06-12T13:17:59Z</time>
      </trkpt>
      <trkpt lat="42.394158" lon="0.771621">
        <ele>902.8</ele>
        <time>2018-06-12T13:18:07Z</time>
      </trkpt>
      <trkpt lat="42.394114" lon="0.771297">
        <ele>895.9</ele>
        <time>2018-06-12T13:18:14Z</time>
      </trkpt>
      <trkpt lat="42.394133" lon="0.771023">
        <ele>891.9</ele>
        <time>2018-06-12T13:18:19Z</time>
      </trkpt>
      <trkpt lat="42.394151" lon="0.770837">
        <ele>894.2</ele>
        <time>2018-06-12T13:18:23Z</time>
      </trkpt>
      <trkpt lat="42.394065" lon="0.770471">
        <ele>893.3</ele>
        <time>2018-06-12T13:18:31Z</time>
      </trkpt>
      <trkpt lat="42.393953" lon="0.770217">
        <ele>894.3</ele>
        <time>2018-06-12T13:18:36Z</time>
      </trkpt>
      <trkpt lat="42.393818" lon="0.770034">
        <ele>897.7</ele>
        <time>2018-06-12T13:18:41Z</time>
      </trkpt>
      <trkpt lat="42.393733" lon="0.769835">
        <ele>902.2</ele>
        <time>2018-06-12T13:18:46Z</time>
      </trkpt>
      <trkpt lat="42.393707" lon="0.769665">
        <ele>905.7</ele>
        <time>2018-06-12T13:18:50Z</time>
      </trkpt>
      <trkpt lat="42.393759" lon="0.769411">
        <ele>907.2</ele>
        <time>2018-06-12T13:18:55Z</time>
      </trkpt>
      <trkpt lat="42.393904" lon="0.768925">
        <ele>907.3</ele>
        <time>2018-06-12T13:19:05Z</time>
      </trkpt>
      <trkpt lat="42.393980" lon="0.768697">
        <ele>906.7</ele>
        <time>2018-06-12T13:19:10Z</time>
      </trkpt>
      <trkpt lat="42.394000" lon="0.768450">
        <ele>905.6</ele>
        <time>2018-06-12T13:19:15Z</time>
      </trkpt>
      <trkpt lat="42.393996" lon="0.768251">
        <ele>903.6</ele>
        <time>2018-06-12T13:19:18Z</time>
      </trkpt>
      <trkpt lat="42.393961" lon="0.768078">
        <ele>905.8</ele>
        <time>2018-06-12T13:19:22Z</time>
      </trkpt>
      <trkpt lat="42.393861" lon="0.767898">
        <ele>909.7</ele>
        <time>2018-06-12T13:19:26Z</time>
      </trkpt>
      <trkpt lat="42.393727" lon="0.767752">
        <ele>909.3</ele>
        <time>2018-06-12T13:19:31Z</time>
      </trkpt>
      <trkpt lat="42.393588" lon="0.767453">
        <ele>916.8</ele>
        <time>2018-06-12T13:19:38Z</time>
      </trkpt>
      <trkpt lat="42.393551" lon="0.767322">
        <ele>922.1</ele>
        <time>2018-06-12T13:19:41Z</time>
      </trkpt>
      <trkpt lat="42.393549" lon="0.767168">
        <ele>924.8</ele>
        <time>2018-06-12T13:19:44Z</time>
      </trkpt>
      <trkpt lat="42.393604" lon="0.766983">
        <ele>918.8</ele>
        <time>2018-06-12T13:19:48Z</time>
      </trkpt>
      <trkpt lat="42.393693" lon="0.766734">
        <ele>905.5</ele>
        <time>2018-06-12T13:19:55Z</time>
      </trkpt>
      <trkpt lat="42.393722" lon="0.766596">
        <ele>900.5</ele>
        <time>2018-06-12T13:19:58Z</time>
      </trkpt>
      <trkpt lat="42.393704" lon="0.766437">
        <ele>901.1</ele>
        <time>2018-06-12T13:20:01Z</time>
      </trkpt>
      <trkpt lat="42.393656" lon="0.766126">
        <ele>904.5</ele>
        <time>2018-06-12T13:20:07Z</time>
      </trkpt>
      <trkpt lat="42.393677" lon="0.765415">
        <ele>892.9</ele>
        <time>2018-06-12T13:20:21Z</time>
      </trkpt>
      <trkpt lat="42.393767" lon="0.765045">
        <ele>887.9</ele>
        <time>2018-06-12T13:20:29Z</time>
      </trkpt>
      <trkpt lat="42.393891" lon="0.764835">
        <ele>883.0</ele>
        <time>2018-06-12T13:20:34Z</time>
      </trkpt>
      <trkpt lat="42.394040" lon="0.764703">
        <ele>876.5</ele>
        <time>2018-06-12T13:20:39Z</time>
      </trkpt>
      <trkpt lat="42.394154" lon="0.764527">
        <ele>877.2</ele>
        <time>2018-06-12T13:20:44Z</time>
      </trkpt>
      <trkpt lat="42.394290" lon="0.764149">
        <ele>876.9</ele>
        <time>2018-06-12T13:20:52Z</time>
      </trkpt>
      <trkpt lat="42.394484" lon="0.763571">
        <ele>874.3</ele>
        <time>2018-06-12T13:21:04Z</time>
      </trkpt>
      <trkpt lat="42.394538" lon="0.763322">
        <ele>871.9</ele>
        <time>2018-06-12T13:21:09Z</time>
      </trkpt>
      <trkpt lat="42.394560" lon="0.763046">
        <ele>866.0</ele>
        <time>2018-06-12T13:21:15Z</time>
      </trkpt>
      <trkpt lat="42.394550" lon="0.762798">
        <ele>864.4</ele>
        <time>2018-06-12T13:21:20Z</time>
      </trkpt>
      <trkpt lat="42.394488" lon="0.762636">
        <ele>866.4</ele>
        <time>2018-06-12T13:21:23Z</time>
      </trkpt>
      <trkpt lat="42.394277" lon="0.762303">
        <ele>867.2</ele>
        <time>2018-06-12T13:21:32Z</time>
      </trkpt>
      <trkpt lat="42.393944" lon="0.761837">
        <ele>866.3</ele>
        <time>2018-06-12T13:21:44Z</time>
      </trkpt>
      <trkpt lat="42.393802" lon="0.761578">
        <ele>864.2</ele>
        <time>2018-06-12T13:21:51Z</time>
      </trkpt>
      <trkpt lat="42.393754" lon="0.761393">
        <ele>864.1</ele>
        <time>2018-06-12T13:21:54Z</time>
      </trkpt>
      <trkpt lat="42.393740" lon="0.761109">
        <ele>866.3</ele>
        <time>2018-06-12T13:22:00Z</time>
      </trkpt>
      <trkpt lat="42.393739" lon="0.760844">
        <ele>868.2</ele>
        <time>2018-06-12T13:22:05Z</time>
      </trkpt>
      <trkpt lat="42.393707" lon="0.760671">
        <ele>867.7</ele>
        <time>2018-06-12T13:22:09Z</time>
      </trkpt>
      <trkpt lat="42.393124" lon="0.758822">
        <ele>865.5</ele>
        <time>2018-06-12T13:22:48Z</time>
      </trkpt>
      <trkpt lat="42.393060" lon="0.758696">
        <ele>867.1</ele>
        <time>2018-06-12T13:22:51Z</time>
      </trkpt>
      <trkpt lat="42.392966" lon="0.758583">
        <ele>867.7</ele>
        <time>2018-06-12T13:22:54Z</time>
      </trkpt>
      <trkpt lat="42.392804" lon="0.758464">
        <ele>864.9</ele>
        <time>2018-06-12T13:22:59Z</time>
      </trkpt>
      <trkpt lat="42.392497" lon="0.758232">
        <ele>859.8</ele>
        <time>2018-06-12T13:23:08Z</time>
      </trkpt>
      <trkpt lat="42.392371" lon="0.758086">
        <ele>856.7</ele>
        <time>2018-06-12T13:23:13Z</time>
      </trkpt>
      <trkpt lat="42.392300" lon="0.757953">
        <ele>854.4</ele>
        <time>2018-06-12T13:23:16Z</time>
      </trkpt>
      <trkpt lat="42.391551" lon="0.756421">
        <ele>864.8</ele>
        <time>2018-06-12T13:23:52Z</time>
      </trkpt>
      <trkpt lat="42.391403" lon="0.756270">
        <ele>867.5</ele>
        <time>2018-06-12T13:23:57Z</time>
      </trkpt>
      <trkpt lat="42.391209" lon="0.756158">
        <ele>863.5</ele>
        <time>2018-06-12T13:24:02Z</time>
      </trkpt>
      <trkpt lat="42.391015" lon="0.756079">
        <ele>861.1</ele>
        <time>2018-06-12T13:24:08Z</time>
      </trkpt>
      <trkpt lat="42.390888" lon="0.756025">
        <ele>859.7</ele>
        <time>2018-06-12T13:24:11Z</time>
      </trkpt>
      <trkpt lat="42.390738" lon="0.756033">
        <ele>858.9</ele>
        <time>2018-06-12T13:24:15Z</time>
      </trkpt>
      <trkpt lat="42.390169" lon="0.756231">
        <ele>898.9</ele>
        <time>2018-06-12T13:24:33Z</time>
      </trkpt>
      <trkpt lat="42.389999" lon="0.756276">
        <ele>908.2</ele>
        <time>2018-06-12T13:24:38Z</time>
      </trkpt>
      <trkpt lat="42.389905" lon="0.756239">
        <ele>914.6</ele>
        <time>2018-06-12T13:24:41Z</time>
      </trkpt>
      <trkpt lat="42.389800" lon="0.756139">
        <ele>922.8</ele>
        <time>2018-06-12T13:24:45Z</time>
      </trkpt>
      <trkpt lat="42.389768" lon="0.756000">
        <ele>928.5</ele>
        <time>2018-06-12T13:24:48Z</time>
      </trkpt>
      <trkpt lat="42.389797" lon="0.755780">
        <ele>934.8</ele>
        <time>2018-06-12T13:24:53Z</time>
      </trkpt>
      <trkpt lat="42.389905" lon="0.755375">
        <ele>922.8</ele>
        <time>2018-06-12T13:25:02Z</time>
      </trkpt>
      <trkpt lat="42.389989" lon="0.755139">
        <ele>876.2</ele>
        <time>2018-06-12T13:25:14Z</time>
      </trkpt>
      <trkpt lat="42.390129" lon="0.754936">
        <ele>855.4</ele>
        <time>2018-06-12T13:25:21Z</time>
      </trkpt>
      <trkpt lat="42.390568" lon="0.754429">
        <ele>837.8</ele>
        <time>2018-06-12T13:25:37Z</time>
      </trkpt>
      <trkpt lat="42.390677" lon="0.754261">
        <ele>835.6</ele>
        <time>2018-06-12T13:25:42Z</time>
      </trkpt>
      <trkpt lat="42.390756" lon="0.754056">
        <ele>833.7</ele>
        <time>2018-06-12T13:25:46Z</time>
      </trkpt>
      <trkpt lat="42.390783" lon="0.753790">
        <ele>834.2</ele>
        <time>2018-06-12T13:25:51Z</time>
      </trkpt>
      <trkpt lat="42.390772" lon="0.753528">
        <ele>836.8</ele>
        <time>2018-06-12T13:25:56Z</time>
      </trkpt>
      <trkpt lat="42.390750" lon="0.753343">
        <ele>838.5</ele>
        <time>2018-06-12T13:26:00Z</time>
      </trkpt>
      <trkpt lat="42.390699" lon="0.753220">
        <ele>837.9</ele>
        <time>2018-06-12T13:26:03Z</time>
      </trkpt>
      <trkpt lat="42.390582" lon="0.753099">
        <ele>835.5</ele>
        <time>2018-06-12T13:26:07Z</time>
      </trkpt>
      <trkpt lat="42.390242" lon="0.752842">
        <ele>829.2</ele>
        <time>2018-06-12T13:26:17Z</time>
      </trkpt>
      <trkpt lat="42.389836" lon="0.752459">
        <ele>829.5</ele>
        <time>2018-06-12T13:26:30Z</time>
      </trkpt>
      <trkpt lat="42.389695" lon="0.752220">
        <ele>829.8</ele>
        <time>2018-06-12T13:26:36Z</time>
      </trkpt>
      <trkpt lat="42.389611" lon="0.751955">
        <ele>828.3</ele>
        <time>2018-06-12T13:26:42Z</time>
      </trkpt>
      <trkpt lat="42.389575" lon="0.751723">
        <ele>825.1</ele>
        <time>2018-06-12T13:26:46Z</time>
      </trkpt>
      <trkpt lat="42.389589" lon="0.751440">
        <ele>821.1</ele>
        <time>2018-06-12T13:26:52Z</time>
      </trkpt>
      <trkpt lat="42.389927" lon="0.750163">
        <ele>827.2</ele>
        <time>2018-06-12T13:27:18Z</time>
      </trkpt>
      <trkpt lat="42.389934" lon="0.749911">
        <ele>829.5</ele>
        <time>2018-06-12T13:27:23Z</time>
      </trkpt>
      <trkpt lat="42.389894" lon="0.749723">
        <ele>832.4</ele>
        <time>2018-06-12T13:27:27Z</time>
      </trkpt>
      <trkpt lat="42.389799" lon="0.749486">
        <ele>836.1</ele>
        <time>2018-06-12T13:27:33Z</time>
      </trkpt>
      <trkpt lat="42.389560" lon="0.749227">
        <ele>839.8</ele>
        <time>2018-06-12T13:27:41Z</time>
      </trkpt>
      <trkpt lat="42.389259" lon="0.748925">
        <ele>836.1</ele>
        <time>2018-06-12T13:27:51Z</time>
      </trkpt>
      <trkpt lat="42.389123" lon="0.748751">
        <ele>831.5</ele>
        <time>2018-06-12T13:27:56Z</time>
      </trkpt>
      <trkpt lat="42.389042" lon="0.748610">
        <ele>826.4</ele>
        <time>2018-06-12T13:27:59Z</time>
      </trkpt>
      <trkpt lat="42.388979" lon="0.748349">
        <ele>822.6</ele>
        <time>2018-06-12T13:28:05Z</time>
      </trkpt>
      <trkpt lat="42.388998" lon="0.747911">
        <ele>826.2</ele>
        <time>2018-06-12T13:28:13Z</time>
      </trkpt>
      <trkpt lat="42.389083" lon="0.746914">
        <ele>860.0</ele>
        <time>2018-06-12T13:28:34Z</time>
      </trkpt>
      <trkpt lat="42.389135" lon="0.746490">
        <ele>880.0</ele>
        <time>2018-06-12T13:28:44Z</time>
      </trkpt>
      <trkpt lat="42.389557" lon="0.745921">
        <ele>874.6</ele>
        <time>2018-06-12T13:29:00Z</time>
      </trkpt>
      <trkpt lat="42.390061" lon="0.745636">
        <ele>849.1</ele>
        <time>2018-06-12T13:29:15Z</time>
      </trkpt>
      <trkpt lat="42.390334" lon="0.745663">
        <ele>840.4</ele>
        <time>2018-06-12T13:29:23Z</time>
      </trkpt>
      <trkpt lat="42.390642" lon="0.745771">
        <ele>831.1</ele>
        <time>2018-06-12T13:29:31Z</time>
      </trkpt>
      <trkpt lat="42.391454" lon="0.746033">
        <ele>823.4</ele>
        <time>2018-06-12T13:29:54Z</time>
      </trkpt>
      <trkpt lat="42.391634" lon="0.746129">
        <ele>823.4</ele>
        <time>2018-06-12T13:29:59Z</time>
      </trkpt>
      <trkpt lat="42.392048" lon="0.746527">
        <ele>821.7</ele>
        <time>2018-06-12T13:30:12Z</time>
      </trkpt>
      <trkpt lat="42.392222" lon="0.746634">
        <ele>822.6</ele>
        <time>2018-06-12T13:30:17Z</time>
      </trkpt>
      <trkpt lat="42.392439" lon="0.746674">
        <ele>824.0</ele>
        <time>2018-06-12T13:30:23Z</time>
      </trkpt>
      <trkpt lat="42.393239" lon="0.746789">
        <ele>832.1</ele>
        <time>2018-06-12T13:30:44Z</time>
      </trkpt>
      <trkpt lat="42.394137" lon="0.746948">
        <ele>831.1</ele>
        <time>2018-06-12T13:31:08Z</time>
      </trkpt>
      <trkpt lat="42.394365" lon="0.746977">
        <ele>831.8</ele>
        <time>2018-06-12T13:31:14Z</time>
      </trkpt>
      <trkpt lat="42.394532" lon="0.746946">
        <ele>830.4</ele>
        <time>2018-06-12T13:31:18Z</time>
      </trkpt>
      <trkpt lat="42.394708" lon="0.746864">
        <ele>829.4</ele>
        <time>2018-06-12T13:31:23Z</time>
      </trkpt>
      <trkpt lat="42.395787" lon="0.746212">
        <ele>824.2</ele>
        <time>2018-06-12T13:31:54Z</time>
      </trkpt>
      <trkpt lat="42.396022" lon="0.746039">
        <ele>826.1</ele>
        <time>2018-06-12T13:32:02Z</time>
      </trkpt>
      <trkpt lat="42.396342" lon="0.745726">
        <ele>829.2</ele>
        <time>2018-06-12T13:32:12Z</time>
      </trkpt>
      <trkpt lat="42.396820" lon="0.745217">
        <ele>833.6</ele>
        <time>2018-06-12T13:32:28Z</time>
      </trkpt>
      <trkpt lat="42.397484" lon="0.744539">
        <ele>827.9</ele>
        <time>2018-06-12T13:32:50Z</time>
      </trkpt>
      <trkpt lat="42.398067" lon="0.743959">
        <ele>824.0</ele>
        <time>2018-06-12T13:33:09Z</time>
      </trkpt>
      <trkpt lat="42.398370" lon="0.743692">
        <ele>824.1</ele>
        <time>2018-06-12T13:33:19Z</time>
      </trkpt>
      <trkpt lat="42.398634" lon="0.743549">
        <ele>826.2</ele>
        <time>2018-06-12T13:33:26Z</time>
      </trkpt>
      <trkpt lat="42.399284" lon="0.743317">
        <ele>826.6</ele>
        <time>2018-06-12T13:33:44Z</time>
      </trkpt>
      <trkpt lat="42.399844" lon="0.743109">
        <ele>828.2</ele>
        <time>2018-06-12T13:33:59Z</time>
      </trkpt>
      <trkpt lat="42.400900" lon="0.742739">
        <ele>828.4</ele>
        <time>2018-06-12T13:34:28Z</time>
      </trkpt>
      <trkpt lat="42.401324" lon="0.742508">
        <ele>827.4</ele>
        <time>2018-06-12T13:34:40Z</time>
      </trkpt>
      <trkpt lat="42.401467" lon="0.742406">
        <ele>828.1</ele>
        <time>2018-06-12T13:34:44Z</time>
      </trkpt>
      <trkpt lat="42.401631" lon="0.742373">
        <ele>829.2</ele>
        <time>2018-06-12T13:34:48Z</time>
      </trkpt>
      <trkpt lat="42.402510" lon="0.742291">
        <ele>836.4</ele>
        <time>2018-06-12T13:35:12Z</time>
      </trkpt>
      <trkpt lat="42.403187" lon="0.742237">
        <ele>840.0</ele>
        <time>2018-06-12T13:35:30Z</time>
      </trkpt>
      <trkpt lat="42.403255" lon="0.742200">
        <ele>839.7</ele>
        <time>2018-06-12T13:35:32Z</time>
      </trkpt>
      <trkpt lat="42.403332" lon="0.742114">
        <ele>839.1</ele>
        <time>2018-06-12T13:35:34Z</time>
      </trkpt>
      <trkpt lat="42.403358" lon="0.742079">
        <ele>839.0</ele>
        <time>2018-06-12T13:35:35Z</time>
      </trkpt>
      <trkpt lat="42.403409" lon="0.742071">
        <ele>839.0</ele>
        <time>2018-06-12T13:35:36Z</time>
      </trkpt>
      <trkpt lat="42.403572" lon="0.742055">
        <ele>837.9</ele>
        <time>2018-06-12T13:35:41Z</time>
      </trkpt>
      <trkpt lat="42.403642" lon="0.742047">
        <ele>837.1</ele>
        <time>2018-06-12T13:35:43Z</time>
      </trkpt>
      <trkpt lat="42.403790" lon="0.742001">
        <ele>836.0</ele>
        <time>2018-06-12T13:35:47Z</time>
      </trkpt>
      <trkpt lat="42.403963" lon="0.741918">
        <ele>835.5</ele>
        <time>2018-06-12T13:35:52Z</time>
      </trkpt>
      <trkpt lat="42.404407" lon="0.741623">
        <ele>832.4</ele>
        <time>2018-06-12T13:36:05Z</time>
      </trkpt>
      <trkpt lat="42.406386" lon="0.739949">
        <ele>836.8</ele>
        <time>2018-06-12T13:37:06Z</time>
      </trkpt>
      <trkpt lat="42.406476" lon="0.739861">
        <ele>837.6</ele>
        <time>2018-06-12T13:37:09Z</time>
      </trkpt>
      <trkpt lat="42.406532" lon="0.739783">
        <ele>838.0</ele>
        <time>2018-06-12T13:37:11Z</time>
      </trkpt>
      <trkpt lat="42.406654" lon="0.739676">
        <ele>837.7</ele>
        <time>2018-06-12T13:37:15Z</time>
      </trkpt>
      <trkpt lat="42.406779" lon="0.739595">
        <ele>837.1</ele>
        <time>2018-06-12T13:37:19Z</time>
      </trkpt>
      <trkpt lat="42.406606" lon="0.739569">
        <ele>837.6</ele>
        <time>2018-06-13T06:00:00Z</time>
      </trkpt>
      <trkpt lat="42.406416" lon="0.739542">
        <ele>837.2</ele>
        <time>2018-06-13T06:00:05Z</time>
      </trkpt>
      <trkpt lat="42.406372" lon="0.739488">
        <ele>836.6</ele>
        <time>2018-06-13T06:00:06Z</time>
      </trkpt>
      <trkpt lat="42.406378" lon="0.739089">
        <ele>835.8</ele>
        <time>2018-06-13T06:00:14Z</time>
      </trkpt>
      <trkpt lat="42.406395" lon="0.738978">
        <ele>836.9</ele>
        <time>2018-06-13T06:00:16Z</time>
      </trkpt>
      <trkpt lat="42.406477" lon="0.738872">
        <ele>838.2</ele>
        <time>2018-06-13T06:00:19Z</time>
      </trkpt>
      <trkpt lat="42.406639" lon="0.738809">
        <ele>837.3</ele>
        <time>2018-06-13T06:00:24Z</time>
      </trkpt>
      <trkpt lat="42.406685" lon="0.738805">
        <ele>836.6</ele>
        <time>2018-06-13T06:00:25Z</time>
      </trkpt>
      <trkpt lat="42.406746" lon="0.738816">
        <ele>835.6</ele>
        <time>2018-06-13T06:00:26Z</time>
      </trkpt>
      <trkpt lat="42.406803" lon="0.738844">
        <ele>834.7</ele>
        <time>2018-06-13T06:00:28Z</time>
      </trkpt>
      <trkpt lat="42.406853" lon="0.738867">
        <ele>834.4</ele>
        <time>2018-06-13T06:00:29Z</time>
      </trkpt>
      <trkpt lat="42.406898" lon="0.738864">
        <ele>834.3</ele>
        <time>2018-06-13T06:00:31Z</time>
      </trkpt>
      <trkpt lat="42.406933" lon="0.738833">
        <ele>834.2</ele>
        <time>2018-06-13T06:00:32Z</time>
      </trkpt>
      <trkpt lat="42.406967" lon="0.738705">
        <ele>834.6</ele>
        <time>2018-06-13T06:00:34Z</time>
      </trkpt>
      <trkpt lat="42.406955" lon="0.738300">
        <ele>836.7</ele>
        <time>2018-06-13T06:00:42Z</time>
      </trkpt>
      <trkpt lat="42.406980" lon="0.736589">
        <ele>841.9</ele>
        <time>2018-06-13T06:01:16Z</time>
      </trkpt>
      <trkpt lat="42.406996" lon="0.736163">
        <ele>844.5</ele>
        <time>2018-06-13T06:01:24Z</time>
      </trkpt>
      <trkpt lat="42.406978" lon="0.735838">
        <ele>848.0</ele>
        <time>2018-06-13T06:01:30Z</time>
      </trkpt>
      <trkpt lat="42.406918" lon="0.734730">
        <ele>857.1</ele>
        <time>2018-06-13T06:01:52Z</time>
      </trkpt>
      <trkpt lat="42.406851" lon="0.733599">
        <ele>857.9</ele>
        <time>2018-06-13T06:02:14Z</time>
      </trkpt>
      <trkpt lat="42.406817" lon="0.732978">
        <ele>864.4</ele>
        <time>2018-06-13T06:02:27Z</time>
      </trkpt>
      <trkpt lat="42.406817" lon="0.732840">
        <ele>866.2</ele>
        <time>2018-06-13T06:02:29Z</time>
      </trkpt>
      <trkpt lat="42.406832" lon="0.732742">
        <ele>867.6</ele>
        <time>2018-06-13T06:02:31Z</time>
      </trkpt>
      <trkpt lat="42.406893" lon="0.732564">
        <ele>869.7</ele>
        <time>2018-06-13T06:02:35Z</time>
      </trkpt>
      <trkpt lat="42.407020" lon="0.732226">
        <ele>871.8</ele>
        <time>2018-06-13T06:02:43Z</time>
      </trkpt>
      <trkpt lat="42.407182" lon="0.731800">
        <ele>872.4</ele>
        <time>2018-06-13T06:02:52Z</time>
      </trkpt>
      <trkpt lat="42.407325" lon="0.731483">
        <ele>878.4</ele>
        <time>2018-06-13T06:02:59Z</time>
      </trkpt>
      <trkpt lat="42.407399" lon="0.731422">
        <ele>878.2</ele>
        <time>2018-06-13T06:03:02Z</time>
      </trkpt>
      <trkpt lat="42.407455" lon="0.731404">
        <ele>877.3</ele>
        <time>2018-06-13T06:03:03Z</time>
      </trkpt>
      <trkpt lat="42.407518" lon="0.731409">
        <ele>875.7</ele>
        <time>2018-06-13T06:03:05Z</time>
      </trkpt>
      <trkpt lat="42.407604" lon="0.731415">
        <ele>873.6</ele>
        <time>2018-06-13T06:03:07Z</time>
      </trkpt>
      <trkpt lat="42.407649" lon="0.731379">
        <ele>873.2</ele>
        <time>2018-06-13T06:03:09Z</time>
      </trkpt>
      <trkpt lat="42.407673" lon="0.731277">
        <ele>874.1</ele>
        <time>2018-06-13T06:03:11Z</time>
      </trkpt>
      <trkpt lat="42.407686" lon="0.731181">
        <ele>875.3</ele>
        <time>2018-06-13T06:03:13Z</time>
      </trkpt>
      <trkpt lat="42.407714" lon="0.730762">
        <ele>879.5</ele>
        <time>2018-06-13T06:03:21Z</time>
      </trkpt>
      <trkpt lat="42.407829" lon="0.729537">
        <ele>886.3</ele>
        <time>2018-06-13T06:03:45Z</time>
      </trkpt>
      <trkpt lat="42.407859" lon="0.729404">
        <ele>884.9</ele>
        <time>2018-06-13T06:03:48Z</time>
      </trkpt>
      <trkpt lat="42.407905" lon="0.729240">
        <ele>883.2</ele>
        <time>2018-06-13T06:03:51Z</time>
      </trkpt>
      <trkpt lat="42.407951" lon="0.729107">
        <ele>884.2</ele>
        <time>2018-06-13T06:03:54Z</time>
      </trkpt>
      <trkpt lat="42.407982" lon="0.728982">
        <ele>885.6</ele>
        <time>2018-06-13T06:03:57Z</time>
      </trkpt>
      <trkpt lat="42.407996" lon="0.728849">
        <ele>886.7</ele>
        <time>2018-06-13T06:03:59Z</time>
      </trkpt>
      <trkpt lat="42.408004" lon="0.728726">
        <ele>887.2</ele>
        <time>2018-06-13T06:04:02Z</time>
      </trkpt>
      <trkpt lat="42.408016" lon="0.728509">
        <ele>887.1</ele>
        <time>2018-06-13T06:04:06Z</time>
      </trkpt>
      <trkpt lat="42.408075" lon="0.728250">
        <ele>887.9</ele>
        <time>2018-06-13T06:04:11Z</time>
      </trkpt>
      <trkpt lat="42.408144" lon="0.727970">
        <ele>888.1</ele>
        <time>2018-06-13T06:04:17Z</time>
      </trkpt>
      <trkpt lat="42.408253" lon="0.727640">
        <ele>888.6</ele>
        <time>2018-06-13T06:04:24Z</time>
      </trkpt>
      <trkpt lat="42.408352" lon="0.727351">
        <ele>892.0</ele>
        <time>2018-06-13T06:04:30Z</time>
      </trkpt>
      <trkpt lat="42.408458" lon="0.727089">
        <ele>890.9</ele>
        <time>2018-06-13T06:04:36Z</time>
      </trkpt>
      <trkpt lat="42.408541" lon="0.726940">
        <ele>887.9</ele>
        <time>2018-06-13T06:04:40Z</time>
      </trkpt>
      <trkpt lat="42.408624" lon="0.726873">
        <ele>887.7</ele>
        <time>2018-06-13T06:04:42Z</time>
      </trkpt>
      <trkpt lat="42.408699" lon="0.726818">
        <ele>888.1</ele>
        <time>2018-06-13T06:04:45Z</time>
      </trkpt>
      <trkpt lat="42.408765" lon="0.726757">
        <ele>890.1</ele>
        <time>2018-06-13T06:04:47Z</time>
      </trkpt>
      <trkpt lat="42.408834" lon="0.726646">
        <ele>893.3</ele>
        <time>2018-06-13T06:04:50Z</time>
      </trkpt>
      <trkpt lat="42.408977" lon="0.726405">
        <ele>894.0</ele>
        <time>2018-06-13T06:04:56Z</time>
      </trkpt>
      <trkpt lat="42.409114" lon="0.726154">
        <ele>895.1</ele>
        <time>2018-06-13T06:05:02Z</time>
      </trkpt>
      <trkpt lat="42.409166" lon="0.726003">
        <ele>897.3</ele>
        <time>2018-06-13T06:05:05Z</time>
      </trkpt>
      <trkpt lat="42.409174" lon="0.725815">
        <ele>899.0</ele>
        <time>2018-06-13T06:05:09Z</time>
      </trkpt>
      <trkpt lat="42.409152" lon="0.725588">
        <ele>899.3</ele>
        <time>2018-06-13T06:05:13Z</time>
      </trkpt>
      <trkpt lat="42.409119" lon="0.725356">
        <ele>898.7</ele>
        <time>2018-06-13T06:05:18Z</time>
      </trkpt>
      <trkpt lat="42.409081" lon="0.725151">
        <ele>899.5</ele>
        <time>2018-06-13T06:05:22Z</time>
      </trkpt>
      <trkpt lat="42.409043" lon="0.724987">
        <ele>900.1</ele>
        <time>2018-06-13T06:05:25Z</time>
      </trkpt>
      <trkpt lat="42.409051" lon="0.724835">
        <ele>901.7</ele>
        <time>2018-06-13T06:05:28Z</time>
      </trkpt>
      <trkpt lat="42.409097" lon="0.724690">
        <ele>905.4</ele>
        <time>2018-06-13T06:05:32Z</time>
      </trkpt>
      <trkpt lat="42.409219" lon="0.724574">
        <ele>905.4</ele>
        <time>2018-06-13T06:05:35Z</time>
      </trkpt>
      <trkpt lat="42.409378" lon="0.724354">
        <ele>909.2</ele>
        <time>2018-06-13T06:05:42Z</time>
      </trkpt>
      <trkpt lat="42.409468" lon="0.724187">
        <ele>910.1</ele>
        <time>2018-06-13T06:05:46Z</time>
      </trkpt>
      <trkpt lat="42.409551" lon="0.723926">
        <ele>909.5</ele>
        <time>2018-06-13T06:05:51Z</time>
      </trkpt>
      <trkpt lat="42.409581" lon="0.723727">
        <ele>908.2</ele>
        <time>2018-06-13T06:05:55Z</time>
      </trkpt>
      <trkpt lat="42.409573" lon="0.723500">
        <ele>909.8</ele>
        <time>2018-06-13T06:06:00Z</time>
      </trkpt>
      <trkpt lat="42.409536" lon="0.723328">
        <ele>909.6</ele>
        <time>2018-06-13T06:06:03Z</time>
      </trkpt>
      <trkpt lat="42.409461" lon="0.723148">
        <ele>910.2</ele>
        <time>2018-06-13T06:06:07Z</time>
      </trkpt>
      <trkpt lat="42.409416" lon="0.723021">
        <ele>911.8</ele>
        <time>2018-06-13T06:06:10Z</time>
      </trkpt>
      <trkpt lat="42.409402" lon="0.722913">
        <ele>913.1</ele>
        <time>2018-06-13T06:06:12Z</time>
      </trkpt>
      <trkpt lat="42.409416" lon="0.722721">
        <ele>914.7</ele>
        <time>2018-06-13T06:06:16Z</time>
      </trkpt>
      <trkpt lat="42.409513" lon="0.722235">
        <ele>917.7</ele>
        <time>2018-06-13T06:06:26Z</time>
      </trkpt>
      <trkpt lat="42.409638" lon="0.721445">
        <ele>928.6</ele>
        <time>2018-06-13T06:06:42Z</time>
      </trkpt>
      <trkpt lat="42.409692" lon="0.721263">
        <ele>926.6</ele>
        <time>2018-06-13T06:06:45Z</time>
      </trkpt>
      <trkpt lat="42.409779" lon="0.721098">
        <ele>925.4</ele>
        <time>2018-06-13T06:06:49Z</time>
      </trkpt>
      <trkpt lat="42.409841" lon="0.721008">
        <ele>925.0</ele>
        <time>2018-06-13T06:06:52Z</time>
      </trkpt>
      <trkpt lat="42.409885" lon="0.720916">
        <ele>926.5</ele>
        <time>2018-06-13T06:06:54Z</time>
      </trkpt>
      <trkpt lat="42.409893" lon="0.720787">
        <ele>928.9</ele>
        <time>2018-06-13T06:06:57Z</time>
      </trkpt>
      <trkpt lat="42.409868" lon="0.720697">
        <ele>930.1</ele>
        <time>2018-06-13T06:06:58Z</time>
      </trkpt>
      <trkpt lat="42.409818" lon="0.720518">
        <ele>930.9</ele>
        <time>2018-06-13T06:07:02Z</time>
      </trkpt>
      <trkpt lat="42.409749" lon="0.720368">
        <ele>930.8</ele>
        <time>2018-06-13T06:07:06Z</time>
      </trkpt>
      <trkpt lat="42.409615" lon="0.720013">
        <ele>934.2</ele>
        <time>2018-06-13T06:07:13Z</time>
      </trkpt>
      <trkpt lat="42.409581" lon="0.719886">
        <ele>935.6</ele>
        <time>2018-06-13T06:07:16Z</time>
      </trkpt>
      <trkpt lat="42.409548" lon="0.719660">
        <ele>939.8</ele>
        <time>2018-06-13T06:07:21Z</time>
      </trkpt>
      <trkpt lat="42.409434" lon="0.719097">
        <ele>945.1</ele>
        <time>2018-06-13T06:07:32Z</time>
      </trkpt>
      <trkpt lat="42.409392" lon="0.718811">
        <ele>944.1</ele>
        <time>2018-06-13T06:07:38Z</time>
      </trkpt>
      <trkpt lat="42.409369" lon="0.718704">
        <ele>943.7</ele>
        <time>2018-06-13T06:07:40Z</time>
      </trkpt>
      <trkpt lat="42.409329" lon="0.718607">
        <ele>944.4</ele>
        <time>2018-06-13T06:07:42Z</time>
      </trkpt>
      <trkpt lat="42.409297" lon="0.718485">
        <ele>947.5</ele>
        <time>2018-06-13T06:07:45Z</time>
      </trkpt>
      <trkpt lat="42.409290" lon="0.718353">
        <ele>945.8</ele>
        <time>2018-06-13T06:07:47Z</time>
      </trkpt>
      <trkpt lat="42.409327" lon="0.718172">
        <ele>943.8</ele>
        <time>2018-06-13T06:07:51Z</time>
      </trkpt>
      <trkpt lat="42.409415" lon="0.717708">
        <ele>949.1</ele>
        <time>2018-06-13T06:08:01Z</time>
      </trkpt>
      <trkpt lat="42.409519" lon="0.717361">
        <ele>955.2</ele>
        <time>2018-06-13T06:08:08Z</time>
      </trkpt>
      <trkpt lat="42.409570" lon="0.716949">
        <ele>962.8</ele>
        <time>2018-06-13T06:08:16Z</time>
      </trkpt>
      <trkpt lat="42.409596" lon="0.716694">
        <ele>962.8</ele>
        <time>2018-06-13T06:08:21Z</time>
      </trkpt>
      <trkpt lat="42.409622" lon="0.716565">
        <ele>964.5</ele>
        <time>2018-06-13T06:08:24Z</time>
      </trkpt>
      <trkpt lat="42.409665" lon="0.716474">
        <ele>968.0</ele>
        <time>2018-06-13T06:08:26Z</time>
      </trkpt>
      <trkpt lat="42.409733" lon="0.716492">
        <ele>972.1</ele>
        <time>2018-06-13T06:08:28Z</time>
      </trkpt>
      <trkpt lat="42.409777" lon="0.716621">
        <ele>974.1</ele>
        <time>2018-06-13T06:08:31Z</time>
      </trkpt>
      <trkpt lat="42.409760" lon="0.716711">
        <ele>972.6</ele>
        <time>2018-06-13T06:08:33Z</time>
      </trkpt>
      <trkpt lat="42.409743" lon="0.716809">
        <ele>971.2</ele>
        <time>2018-06-13T06:08:35Z</time>
      </trkpt>
      <trkpt lat="42.409744" lon="0.716938">
        <ele>971.9</ele>
        <time>2018-06-13T06:08:37Z</time>
      </trkpt>
      <trkpt lat="42.409770" lon="0.717148">
        <ele>973.5</ele>
        <time>2018-06-13T06:08:42Z</time>
      </trkpt>
      <trkpt lat="42.409796" lon="0.717369">
        <ele>974.5</ele>
        <time>2018-06-13T06:08:46Z</time>
      </trkpt>
      <trkpt lat="42.409830" lon="0.717641">
        <ele>977.4</ele>
        <time>2018-06-13T06:08:51Z</time>
      </trkpt>
      <trkpt lat="42.409889" lon="0.717878">
        <ele>980.8</ele>
        <time>2018-06-13T06:08:56Z</time>
      </trkpt>
      <trkpt lat="42.410021" lon="0.718314">
        <ele>985.4</ele>
        <time>2018-06-13T06:09:06Z</time>
      </trkpt>
      <trkpt lat="42.410123" lon="0.718580">
        <ele>989.0</ele>
        <time>2018-06-13T06:09:12Z</time>
      </trkpt>
      <trkpt lat="42.410231" lon="0.718816">
        <ele>990.2</ele>
        <time>2018-06-13T06:09:17Z</time>
      </trkpt>
      <trkpt lat="42.410305" lon="0.718917">
        <ele>990.2</ele>
        <time>2018-06-13T06:09:20Z</time>
      </trkpt>
      <trkpt lat="42.410380" lon="0.718954">
        <ele>991.9</ele>
        <time>2018-06-13T06:09:22Z</time>
      </trkpt>
      <trkpt lat="42.410438" lon="0.718980">
        <ele>992.9</ele>
        <time>2018-06-13T06:09:23Z</time>
      </trkpt>
      <trkpt lat="42.410488" lon="0.718952">
        <ele>995.6</ele>
        <time>2018-06-13T06:09:25Z</time>
      </trkpt>
      <trkpt lat="42.410545" lon="0.718921">
        <ele>998.4</ele>
        <time>2018-06-13T06:09:27Z</time>
      </trkpt>
      <trkpt lat="42.410587" lon="0.718850">
        <ele>1001.7</ele>
        <time>2018-06-13T06:09:29Z</time>
      </trkpt>
      <trkpt lat="42.410596" lon="0.718787">
        <ele>1003.8</ele>
        <time>2018-06-13T06:09:30Z</time>
      </trkpt>
      <trkpt lat="42.410597" lon="0.718714">
        <ele>1005.6</ele>
        <time>2018-06-13T06:09:32Z</time>
      </trkpt>
      <trkpt lat="42.410589" lon="0.718640">
        <ele>1007.0</ele>
        <time>2018-06-13T06:09:33Z</time>
      </trkpt>
      <trkpt lat="42.410566" lon="0.718546">
        <ele>1008.6</ele>
        <time>2018-06-13T06:09:35Z</time>
      </trkpt>
      <trkpt lat="42.410543" lon="0.718440">
        <ele>1010.3</ele>
        <time>2018-06-13T06:09:37Z</time>
      </trkpt>
      <trkpt lat="42.410458" lon="0.718039">
        <ele>1012.8</ele>
        <time>2018-06-13T06:09:45Z</time>
      </trkpt>
      <trkpt lat="42.410452" lon="0.717945">
        <ele>1013.0</ele>
        <time>2018-06-13T06:09:47Z</time>
      </trkpt>
      <trkpt lat="42.410429" lon="0.717851">
        <ele>1012.9</ele>
        <time>2018-06-13T06:09:49Z</time>
      </trkpt>
      <trkpt lat="42.410471" lon="0.717805">
        <ele>1014.6</ele>
        <time>2018-06-13T06:09:51Z</time>
      </trkpt>
      <trkpt lat="42.410576" lon="0.717868">
        <ele>1017.2</ele>
        <time>2018-06-13T06:09:54Z</time>
      </trkpt>
      <trkpt lat="42.410608" lon="0.717953">
        <ele>1017.0</ele>
        <time>2018-06-13T06:09:56Z</time>
      </trkpt>
      <trkpt lat="42.410647" lon="0.718061">
        <ele>1016.1</ele>
        <time>2018-06-13T06:09:58Z</time>
      </trkpt>
      <trkpt lat="42.410759" lon="0.718269">
        <ele>1013.8</ele>
        <time>2018-06-13T06:10:03Z</time>
      </trkpt>
      <trkpt lat="42.410824" lon="0.718326">
        <ele>1013.8</ele>
        <time>2018-06-13T06:10:05Z</time>
      </trkpt>
      <trkpt lat="42.410873" lon="0.718329">
        <ele>1014.2</ele>
        <time>2018-06-13T06:10:06Z</time>
      </trkpt>
      <trkpt lat="42.410912" lon="0.718290">
        <ele>1015.1</ele>
        <time>2018-06-13T06:10:08Z</time>
      </trkpt>
      <trkpt lat="42.410921" lon="0.718219">
        <ele>1016.1</ele>
        <time>2018-06-13T06:10:09Z</time>
      </trkpt>
      <trkpt lat="42.410866" lon="0.718115">
        <ele>1017.6</ele>
        <time>2018-06-13T06:10:12Z</time>
      </trkpt>
      <trkpt lat="42.410826" lon="0.718051">
        <ele>1018.5</ele>
        <time>2018-06-13T06:10:13Z</time>
      </trkpt>
      <trkpt lat="42.410773" lon="0.717825">
        <ele>1022.6</ele>
        <time>2018-06-13T06:10:18Z</time>
      </trkpt>
      <trkpt lat="42.410633" lon="0.716914">
        <ele>1026.0</ele>
        <time>2018-06-13T06:10:36Z</time>
      </trkpt>
      <trkpt lat="42.410579" lon="0.716621">
        <ele>1023.5</ele>
        <time>2018-06-13T06:10:42Z</time>
      </trkpt>
      <trkpt lat="42.410572" lon="0.716528">
        <ele>1023.3</ele>
        <time>2018-06-13T06:10:44Z</time>
      </trkpt>
      <trkpt lat="42.410597" lon="0.716460">
        <ele>1023.9</ele>
        <time>2018-06-13T06:10:45Z</time>
      </trkpt>
      <trkpt lat="42.410645" lon="0.716434">
        <ele>1026.0</ele>
        <time>2018-06-13T06:10:47Z</time>
      </trkpt>
      <trkpt lat="42.410693" lon="0.716480">
        <ele>1028.6</ele>
        <time>2018-06-13T06:10:48Z</time>
      </trkpt>
      <trkpt lat="42.410709" lon="0.716545">
        <ele>1029.4</ele>
        <time>2018-06-13T06:10:50Z</time>
      </trkpt>
      <trkpt lat="42.410741" lon="0.716644">
        <ele>1030.3</ele>
        <time>2018-06-13T06:10:52Z</time>
      </trkpt>
      <trkpt lat="42.410757" lon="0.716802">
        <ele>1031.0</ele>
        <time>2018-06-13T06:10:55Z</time>
      </trkpt>
      <trkpt lat="42.410797" lon="0.716908">
        <ele>1031.8</ele>
        <time>2018-06-13T06:10:57Z</time>
      </trkpt>
      <trkpt lat="42.411029" lon="0.717263">
        <ele>1033.8</ele>
        <time>2018-06-13T06:11:07Z</time>
      </trkpt>
      <trkpt lat="42.411145" lon="0.717432">
        <ele>1034.8</ele>
        <time>2018-06-13T06:11:11Z</time>
      </trkpt>
      <trkpt lat="42.411215" lon="0.717488">
        <ele>1035.5</ele>
        <time>2018-06-13T06:11:13Z</time>
      </trkpt>
      <trkpt lat="42.411293" lon="0.717475">
        <ele>1037.8</ele>
        <time>2018-06-13T06:11:15Z</time>
      </trkpt>
      <trkpt lat="42.411324" lon="0.717429">
        <ele>1039.8</ele>
        <time>2018-06-13T06:11:17Z</time>
      </trkpt>
      <trkpt lat="42.411324" lon="0.717361">
        <ele>1041.4</ele>
        <time>2018-06-13T06:11:18Z</time>
      </trkpt>
      <trkpt lat="42.411279" lon="0.717259">
        <ele>1041.5</ele>
        <time>2018-06-13T06:11:20Z</time>
      </trkpt>
      <trkpt lat="42.411241" lon="0.717129">
        <ele>1042.1</ele>
        <time>2018-06-13T06:11:23Z</time>
      </trkpt>
      <trkpt lat="42.411166" lon="0.716927">
        <ele>1041.8</ele>
        <time>2018-06-13T06:11:28Z</time>
      </trkpt>
      <trkpt lat="42.411114" lon="0.716687">
        <ele>1041.4</ele>
        <time>2018-06-13T06:11:32Z</time>
      </trkpt>
      <trkpt lat="42.411107" lon="0.716420">
        <ele>1042.0</ele>
        <time>2018-06-13T06:11:38Z</time>
      </trkpt>
      <trkpt lat="42.411132" lon="0.716036">
        <ele>1046.2</ele>
        <time>2018-06-13T06:11:45Z</time>
      </trkpt>
      <trkpt lat="42.411140" lon="0.715847">
        <ele>1047.7</ele>
        <time>2018-06-13T06:11:49Z</time>
      </trkpt>
      <trkpt lat="42.411150" lon="0.715431">
        <ele>1054.1</ele>
        <time>2018-06-13T06:11:57Z</time>
      </trkpt>
      <trkpt lat="42.411181" lon="0.715237">
        <ele>1059.4</ele>
        <time>2018-06-13T06:12:01Z</time>
      </trkpt>
      <trkpt lat="42.411243" lon="0.715081">
        <ele>1064.8</ele>
        <time>2018-06-13T06:12:05Z</time>
      </trkpt>
      <trkpt lat="42.411243" lon="0.714951">
        <ele>1067.2</ele>
        <time>2018-06-13T06:12:08Z</time>
      </trkpt>
      <trkpt lat="42.411213" lon="0.714801">
        <ele>1068.1</ele>
        <time>2018-06-13T06:12:11Z</time>
      </trkpt>
      <trkpt lat="42.411154" lon="0.714659">
        <ele>1066.9</ele>
        <time>2018-06-13T06:12:14Z</time>
      </trkpt>
      <trkpt lat="42.411074" lon="0.714519">
        <ele>1065.2</ele>
        <time>2018-06-13T06:12:17Z</time>
      </trkpt>
      <trkpt lat="42.410973" lon="0.714312">
        <ele>1063.0</ele>
        <time>2018-06-13T06:12:22Z</time>
      </trkpt>
      <trkpt lat="42.410928" lon="0.714229">
        <ele>1061.8</ele>
        <time>2018-06-13T06:12:24Z</time>
      </trkpt>
      <trkpt lat="42.410928" lon="0.714031">
        <ele>1061.9</ele>
        <time>2018-06-13T06:12:28Z</time>
      </trkpt>
      <trkpt lat="42.410935" lon="0.713771">
        <ele>1061.1</ele>
        <time>2018-06-13T06:12:33Z</time>
      </trkpt>
      <trkpt lat="42.410979" lon="0.713509">
        <ele>1063.0</ele>
        <time>2018-06-13T06:12:38Z</time>
      </trkpt>
      <trkpt lat="42.410993" lon="0.713342">
        <ele>1062.3</ele>
        <time>2018-06-13T06:12:42Z</time>
      </trkpt>
      <trkpt lat="42.411022" lon="0.713241">
        <ele>1062.4</ele>
        <time>2018-06-13T06:12:44Z</time>
      </trkpt>
      <trkpt lat="42.411076" lon="0.713275">
        <ele>1064.6</ele>
        <time>2018-06-13T06:12:45Z</time>
      </trkpt>
      <trkpt lat="42.411099" lon="0.713364">
        <ele>1065.7</ele>
        <time>2018-06-13T06:12:47Z</time>
      </trkpt>
      <trkpt lat="42.411115" lon="0.713543">
        <ele>1066.5</ele>
        <time>2018-06-13T06:12:51Z</time>
      </trkpt>
      <trkpt lat="42.411101" lon="0.713768">
        <ele>1065.8</ele>
        <time>2018-06-13T06:12:55Z</time>
      </trkpt>
      <trkpt lat="42.411101" lon="0.713920">
        <ele>1066.0</ele>
        <time>2018-06-13T06:12:58Z</time>
      </trkpt>
      <trkpt lat="42.411124" lon="0.714044">
        <ele>1066.9</ele>
        <time>2018-06-13T06:13:01Z</time>
      </trkpt>
      <trkpt lat="42.411183" lon="0.714130">
        <ele>1068.6</ele>
        <time>2018-06-13T06:13:03Z</time>
      </trkpt>
      <trkpt lat="42.411249" lon="0.714156">
        <ele>1070.4</ele>
        <time>2018-06-13T06:13:05Z</time>
      </trkpt>
      <trkpt lat="42.411294" lon="0.714111">
        <ele>1072.5</ele>
        <time>2018-06-13T06:13:06Z</time>
      </trkpt>
      <trkpt lat="42.411308" lon="0.713923">
        <ele>1073.2</ele>
        <time>2018-06-13T06:13:10Z</time>
      </trkpt>
      <trkpt lat="42.411425" lon="0.713342">
        <ele>1081.2</ele>
        <time>2018-06-13T06:13:22Z</time>
      </trkpt>
      <trkpt lat="42.411548" lon="0.712729">
        <ele>1086.8</ele>
        <time>2018-06-13T06:13:34Z</time>
      </trkpt>
      <trkpt lat="42.411599" lon="0.712353">
        <ele>1082.9</ele>
        <time>2018-06-13T06:13:42Z</time>
      </trkpt>
      <trkpt lat="42.411715" lon="0.711846">
        <ele>1078.8</ele>
        <time>2018-06-13T06:13:52Z</time>
      </trkpt>
      <trkpt lat="42.411830" lon="0.711470">
        <ele>1082.2</ele>
        <time>2018-06-13T06:14:00Z</time>
      </trkpt>
      <trkpt lat="42.411932" lon="0.711156">
        <ele>1086.2</ele>
        <time>2018-06-13T06:14:07Z</time>
      </trkpt>
      <trkpt lat="42.412003" lon="0.710921">
        <ele>1087.8</ele>
        <time>2018-06-13T06:14:12Z</time>
      </trkpt>
      <trkpt lat="42.412032" lon="0.710669">
        <ele>1087.3</ele>
        <time>2018-06-13T06:14:17Z</time>
      </trkpt>
      <trkpt lat="42.412032" lon="0.710553">
        <ele>1086.1</ele>
        <time>2018-06-13T06:14:19Z</time>
      </trkpt>
      <trkpt lat="42.412054" lon="0.710324">
        <ele>1085.3</ele>
        <time>2018-06-13T06:14:24Z</time>
      </trkpt>
      <trkpt lat="42.412090" lon="0.710108">
        <ele>1085.9</ele>
        <time>2018-06-13T06:14:28Z</time>
      </trkpt>
      <trkpt lat="42.412126" lon="0.709943">
        <ele>1085.1</ele>
        <time>2018-06-13T06:14:31Z</time>
      </trkpt>
      <trkpt lat="42.412184" lon="0.709476">
        <ele>1081.2</ele>
        <time>2018-06-13T06:14:41Z</time>
      </trkpt>
      <trkpt lat="42.412270" lon="0.709060">
        <ele>1080.1</ele>
        <time>2018-06-13T06:14:49Z</time>
      </trkpt>
      <trkpt lat="42.412348" lon="0.708907">
        <ele>1081.7</ele>
        <time>2018-06-13T06:14:53Z</time>
      </trkpt>
      <trkpt lat="42.412428" lon="0.708841">
        <ele>1083.6</ele>
        <time>2018-06-13T06:14:55Z</time>
      </trkpt>
      <trkpt lat="42.412548" lon="0.708774">
        <ele>1086.6</ele>
        <time>2018-06-13T06:14:59Z</time>
      </trkpt>
      <trkpt lat="42.412649" lon="0.708751">
        <ele>1089.3</ele>
        <time>2018-06-13T06:15:02Z</time>
      </trkpt>
      <trkpt lat="42.412769" lon="0.708717">
        <ele>1092.5</ele>
        <time>2018-06-13T06:15:05Z</time>
      </trkpt>
      <trkpt lat="42.412849" lon="0.708680">
        <ele>1094.7</ele>
        <time>2018-06-13T06:15:07Z</time>
      </trkpt>
      <trkpt lat="42.412869" lon="0.708597">
        <ele>1095.8</ele>
        <time>2018-06-13T06:15:09Z</time>
      </trkpt>
      <trkpt lat="42.412869" lon="0.708505">
        <ele>1096.4</ele>
        <time>2018-06-13T06:15:11Z</time>
      </trkpt>
      <trkpt lat="42.412839" lon="0.708358">
        <ele>1096.7</ele>
        <time>2018-06-13T06:15:14Z</time>
      </trkpt>
      <trkpt lat="42.412790" lon="0.708211">
        <ele>1096.7</ele>
        <time>2018-06-13T06:15:17Z</time>
      </trkpt>
      <trkpt lat="42.412739" lon="0.708024">
        <ele>1095.9</ele>
        <time>2018-06-13T06:15:21Z</time>
      </trkpt>
      <trkpt lat="42.412756" lon="0.707846">
        <ele>1096.0</ele>
        <time>2018-06-13T06:15:24Z</time>
      </trkpt>
      <trkpt lat="42.412782" lon="0.707704">
        <ele>1095.8</ele>
        <time>2018-06-13T06:15:27Z</time>
      </trkpt>
      <trkpt lat="42.412812" lon="0.707592">
        <ele>1095.3</ele>
        <time>2018-06-13T06:15:29Z</time>
      </trkpt>
      <trkpt lat="42.412889" lon="0.707484">
        <ele>1094.8</ele>
        <time>2018-06-13T06:15:32Z</time>
      </trkpt>
      <trkpt lat="42.413088" lon="0.707278">
        <ele>1096.9</ele>
        <time>2018-06-13T06:15:39Z</time>
      </trkpt>
      <trkpt lat="42.413341" lon="0.707099">
        <ele>1101.9</ele>
        <time>2018-06-13T06:15:47Z</time>
      </trkpt>
      <trkpt lat="42.413496" lon="0.706906">
        <ele>1103.0</ele>
        <time>2018-06-13T06:15:52Z</time>
      </trkpt>
      <trkpt lat="42.413639" lon="0.706686">
        <ele>1101.9</ele>
        <time>2018-06-13T06:15:58Z</time>
      </trkpt>
      <trkpt lat="42.413766" lon="0.706541">
        <ele>1102.6</ele>
        <time>2018-06-13T06:16:02Z</time>
      </trkpt>
      <trkpt lat="42.413925" lon="0.706355">
        <ele>1108.8</ele>
        <time>2018-06-13T06:16:08Z</time>
      </trkpt>
      <trkpt lat="42.413997" lon="0.706284">
        <ele>1110.5</ele>
        <time>2018-06-13T06:16:10Z</time>
      </trkpt>
      <trkpt lat="42.414066" lon="0.706267">
        <ele>1112.1</ele>
        <time>2018-06-13T06:16:12Z</time>
      </trkpt>
      <trkpt lat="42.414109" lon="0.706277">
        <ele>1113.3</ele>
        <time>2018-06-13T06:16:13Z</time>
      </trkpt>
      <trkpt lat="42.414143" lon="0.706264">
        <ele>1114.3</ele>
        <time>2018-06-13T06:16:14Z</time>
      </trkpt>
      <trkpt lat="42.414175" lon="0.706238">
        <ele>1115.3</ele>
        <time>2018-06-13T06:16:15Z</time>
      </trkpt>
      <trkpt lat="42.414185" lon="0.706182">
        <ele>1116.0</ele>
        <time>2018-06-13T06:16:17Z</time>
      </trkpt>
      <trkpt lat="42.414182" lon="0.706128">
        <ele>1116.3</ele>
        <time>2018-06-13T06:16:18Z</time>
      </trkpt>
      <trkpt lat="42.414174" lon="0.706039">
        <ele>1116.7</ele>
        <time>2018-06-13T06:16:19Z</time>
      </trkpt>
      <trkpt lat="42.414160" lon="0.705986">
        <ele>1116.7</ele>
        <time>2018-06-13T06:16:21Z</time>
      </trkpt>
      <trkpt lat="42.414136" lon="0.705918">
        <ele>1116.8</ele>
        <time>2018-06-13T06:16:22Z</time>
      </trkpt>
      <trkpt lat="42.414109" lon="0.705874">
        <ele>1116.5</ele>
        <time>2018-06-13T06:16:23Z</time>
      </trkpt>
      <trkpt lat="42.414082" lon="0.705841">
        <ele>1116.1</ele>
        <time>2018-06-13T06:16:24Z</time>
      </trkpt>
      <trkpt lat="42.414052" lon="0.705813">
        <ele>1115.5</ele>
        <time>2018-06-13T06:16:25Z</time>
      </trkpt>
      <trkpt lat="42.414007" lon="0.705795">
        <ele>1114.6</ele>
        <time>2018-06-13T06:16:26Z</time>
      </trkpt>
      <trkpt lat="42.413962" lon="0.705781">
        <ele>1114.0</ele>
        <time>2018-06-13T06:16:28Z</time>
      </trkpt>
      <trkpt lat="42.413887" lon="0.705796">
        <ele>1112.6</ele>
        <time>2018-06-13T06:16:30Z</time>
      </trkpt>
      <trkpt lat="42.413816" lon="0.705802">
        <ele>1111.3</ele>
        <time>2018-06-13T06:16:31Z</time>
      </trkpt>
      <trkpt lat="42.413755" lon="0.705788">
        <ele>1110.4</ele>
        <time>2018-06-13T06:16:33Z</time>
      </trkpt>
      <trkpt lat="42.413700" lon="0.705780">
        <ele>1109.7</ele>
        <time>2018-06-13T06:16:35Z</time>
      </trkpt>
      <trkpt lat="42.413619" lon="0.705709">
        <ele>1109.0</ele>
        <time>2018-06-13T06:16:37Z</time>
      </trkpt>
      <trkpt lat="42.413563" lon="0.705613">
        <ele>1108.9</ele>
        <time>2018-06-13T06:16:40Z</time>
      </trkpt>
      <trkpt lat="42.413528" lon="0.705469">
        <ele>1109.4</ele>
        <time>2018-06-13T06:16:42Z</time>
      </trkpt>
      <trkpt lat="42.413507" lon="0.705264">
        <ele>1110.5</ele>
        <time>2018-06-13T06:16:46Z</time>
      </trkpt>
      <trkpt lat="42.413505" lon="0.705072">
        <ele>1110.9</ele>
        <time>2018-06-13T06:16:50Z</time>
      </trkpt>
      <trkpt lat="42.413526" lon="0.704874">
        <ele>1109.7</ele>
        <time>2018-06-13T06:16:54Z</time>
      </trkpt>
      <trkpt lat="42.413596" lon="0.704610">
        <ele>1109.3</ele>
        <time>2018-06-13T06:17:00Z</time>
      </trkpt>
      <trkpt lat="42.413693" lon="0.704343">
        <ele>1110.5</ele>
        <time>2018-06-13T06:17:05Z</time>
      </trkpt>
      <trkpt lat="42.413735" lon="0.704167">
        <ele>1111.3</ele>
        <time>2018-06-13T06:17:09Z</time>
      </trkpt>
      <trkpt lat="42.413769" lon="0.704105">
        <ele>1112.3</ele>
        <time>2018-06-13T06:17:11Z</time>
      </trkpt>
      <trkpt lat="42.413810" lon="0.704089">
        <ele>1113.6</ele>
        <time>2018-06-13T06:17:12Z</time>
      </trkpt>
      <trkpt lat="42.413920" lon="0.704079">
        <ele>1116.9</ele>
        <time>2018-06-13T06:17:15Z</time>
      </trkpt>
      <trkpt lat="42.413997" lon="0.704094">
        <ele>1119.3</ele>
        <time>2018-06-13T06:17:17Z</time>
      </trkpt>
      <trkpt lat="42.414074" lon="0.704147">
        <ele>1121.3</ele>
        <time>2018-06-13T06:17:19Z</time>
      </trkpt>
      <trkpt lat="42.414130" lon="0.704189">
        <ele>1122.4</ele>
        <time>2018-06-13T06:17:21Z</time>
      </trkpt>
      <trkpt lat="42.414192" lon="0.704250">
        <ele>1123.4</ele>
        <time>2018-06-13T06:17:23Z</time>
      </trkpt>
      <trkpt lat="42.414240" lon="0.704282">
        <ele>1124.1</ele>
        <time>2018-06-13T06:17:24Z</time>
      </trkpt>
      <trkpt lat="42.414261" lon="0.704387">
        <ele>1123.7</ele>
        <time>2018-06-13T06:17:27Z</time>
      </trkpt>
      <trkpt lat="42.414261" lon="0.704510">
        <ele>1122.8</ele>
        <time>2018-06-13T06:17:29Z</time>
      </trkpt>
      <trkpt lat="42.414261" lon="0.704698">
        <ele>1122.6</ele>
        <time>2018-06-13T06:17:33Z</time>
      </trkpt>
      <trkpt lat="42.414261" lon="0.704792">
        <ele>1122.9</ele>
        <time>2018-06-13T06:17:34Z</time>
      </trkpt>
      <trkpt lat="42.414255" lon="0.704915">
        <ele>1123.5</ele>
        <time>2018-06-13T06:17:37Z</time>
      </trkpt>
      <trkpt lat="42.414252" lon="0.704992">
        <ele>1123.9</ele>
        <time>2018-06-13T06:17:38Z</time>
      </trkpt>
      <trkpt lat="42.414269" lon="0.705057">
        <ele>1124.7</ele>
        <time>2018-06-13T06:17:40Z</time>
      </trkpt>
      <trkpt lat="42.414306" lon="0.705078">
        <ele>1125.6</ele>
        <time>2018-06-13T06:17:41Z</time>
      </trkpt>
      <trkpt lat="42.414340" lon="0.705041">
        <ele>1125.9</ele>
        <time>2018-06-13T06:17:42Z</time>
      </trkpt>
      <trkpt lat="42.414358" lon="0.704960">
        <ele>1125.7</ele>
        <time>2018-06-13T06:17:44Z</time>
      </trkpt>
      <trkpt lat="42.414379" lon="0.704913">
        <ele>1125.7</ele>
        <time>2018-06-13T06:17:45Z</time>
      </trkpt>
      <trkpt lat="42.414428" lon="0.704822">
        <ele>1126.1</ele>
        <time>2018-06-13T06:17:47Z</time>
      </trkpt>
      <trkpt lat="42.414439" lon="0.704813">
        <ele>1126.3</ele>
        <time>2018-06-13T06:17:47Z</time>
      </trkpt>
      <trkpt lat="42.414633" lon="0.704578">
        <ele>1130.5</ele>
        <time>2018-06-13T06:17:54Z</time>
      </trkpt>
      <trkpt lat="42.414837" lon="0.704316">
        <ele>1137.3</ele>
        <time>2018-06-13T06:18:02Z</time>
      </trkpt>
      <trkpt lat="42.414949" lon="0.704124">
        <ele>1139.5</ele>
        <time>2018-06-13T06:18:07Z</time>
      </trkpt>
      <trkpt lat="42.415069" lon="0.703824">
        <ele>1141.9</ele>
        <time>2018-06-13T06:18:13Z</time>
      </trkpt>
      <trkpt lat="42.415203" lon="0.703586">
        <ele>1143.9</ele>
        <time>2018-06-13T06:18:19Z</time>
      </trkpt>
      <trkpt lat="42.415243" lon="0.703418">
        <ele>1144.2</ele>
        <time>2018-06-13T06:18:22Z</time>
      </trkpt>
      <trkpt lat="42.415253" lon="0.703128">
        <ele>1143.1</ele>
        <time>2018-06-13T06:18:28Z</time>
      </trkpt>
      <trkpt lat="42.415275" lon="0.702847">
        <ele>1143.2</ele>
        <time>2018-06-13T06:18:34Z</time>
      </trkpt>
      <trkpt lat="42.415347" lon="0.702395">
        <ele>1142.6</ele>
        <time>2018-06-13T06:18:43Z</time>
      </trkpt>
      <trkpt lat="42.415431" lon="0.702160">
        <ele>1143.9</ele>
        <time>2018-06-13T06:18:48Z</time>
      </trkpt>
      <trkpt lat="42.415642" lon="0.701255">
        <ele>1148.1</ele>
        <time>2018-06-13T06:19:06Z</time>
      </trkpt>
      <trkpt lat="42.415792" lon="0.700678">
        <ele>1151.3</ele>
        <time>2018-06-13T06:19:18Z</time>
      </trkpt>
      <trkpt lat="42.416100" lon="0.700118">
        <ele>1153.8</ele>
        <time>2018-06-13T06:19:32Z</time>
      </trkpt>
      <trkpt lat="42.416260" lon="0.699777">
        <ele>1151.5</ele>
        <time>2018-06-13T06:19:40Z</time>
      </trkpt>
      <trkpt lat="42.416400" lon="0.699582">
        <ele>1155.3</ele>
        <time>2018-06-13T06:19:45Z</time>
      </trkpt>
      <trkpt lat="42.416479" lon="0.699528">
        <ele>1156.9</ele>
        <time>2018-06-13T06:19:48Z</time>
      </trkpt>
      <trkpt lat="42.416572" lon="0.699490">
        <ele>1158.5</ele>
        <time>2018-06-13T06:19:50Z</time>
      </trkpt>
      <trkpt lat="42.416654" lon="0.699477">
        <ele>1160.0</ele>
        <time>2018-06-13T06:19:52Z</time>
      </trkpt>
      <trkpt lat="42.416755" lon="0.699499">
        <ele>1161.7</ele>
        <time>2018-06-13T06:19:55Z</time>
      </trkpt>
      <trkpt lat="42.416840" lon="0.699489">
        <ele>1163.1</ele>
        <time>2018-06-13T06:19:57Z</time>
      </trkpt>
      <trkpt lat="42.416881" lon="0.699469">
        <ele>1163.7</ele>
        <time>2018-06-13T06:19:58Z</time>
      </trkpt>
      <trkpt lat="42.416914" lon="0.699430">
        <ele>1164.2</ele>
        <time>2018-06-13T06:20:00Z</time>
      </trkpt>
      <trkpt lat="42.416922" lon="0.699389">
        <ele>1164.5</ele>
        <time>2018-06-13T06:20:00Z</time>
      </trkpt>
      <trkpt lat="42.416922" lon="0.699328">
        <ele>1164.8</ele>
        <time>2018-06-13T06:20:02Z</time>
      </trkpt>
      <trkpt lat="42.416911" lon="0.699258">
        <ele>1165.1</ele>
        <time>2018-06-13T06:20:03Z</time>
      </trkpt>
      <trkpt lat="42.416877" lon="0.699145">
        <ele>1165.4</ele>
        <time>2018-06-13T06:20:05Z</time>
      </trkpt>
      <trkpt lat="42.416843" lon="0.698972">
        <ele>1165.9</ele>
        <time>2018-06-13T06:20:09Z</time>
      </trkpt>
      <trkpt lat="42.416788" lon="0.698823">
        <ele>1166.2</ele>
        <time>2018-06-13T06:20:12Z</time>
      </trkpt>
      <trkpt lat="42.416690" lon="0.698613">
        <ele>1165.5</ele>
        <time>2018-06-13T06:20:17Z</time>
      </trkpt>
      <trkpt lat="42.416576" lon="0.698425">
        <ele>1164.7</ele>
        <time>2018-06-13T06:20:22Z</time>
      </trkpt>
      <trkpt lat="42.416502" lon="0.698348">
        <ele>1164.1</ele>
        <time>2018-06-13T06:20:24Z</time>
      </trkpt>
      <trkpt lat="42.416461" lon="0.698227">
        <ele>1163.9</ele>
        <time>2018-06-13T06:20:27Z</time>
      </trkpt>
      <trkpt lat="42.416453" lon="0.698073">
        <ele>1164.9</ele>
        <time>2018-06-13T06:20:30Z</time>
      </trkpt>
      <trkpt lat="42.416454" lon="0.697842">
        <ele>1167.5</ele>
        <time>2018-06-13T06:20:34Z</time>
      </trkpt>
      <trkpt lat="42.416462" lon="0.697655">
        <ele>1171.4</ele>
        <time>2018-06-13T06:20:38Z</time>
      </trkpt>
      <trkpt lat="42.416503" lon="0.697392">
        <ele>1174.9</ele>
        <time>2018-06-13T06:20:43Z</time>
      </trkpt>
      <trkpt lat="42.416552" lon="0.697228">
        <ele>1176.4</ele>
        <time>2018-06-13T06:20:47Z</time>
      </trkpt>
      <trkpt lat="42.416633" lon="0.696956">
        <ele>1175.6</ele>
        <time>2018-06-13T06:20:53Z</time>
      </trkpt>
      <trkpt lat="42.416972" lon="0.695477">
        <ele>1180.1</ele>
        <time>2018-06-13T06:21:23Z</time>
      </trkpt>
      <trkpt lat="42.417067" lon="0.694874">
        <ele>1184.9</ele>
        <time>2018-06-13T06:21:35Z</time>
      </trkpt>
      <trkpt lat="42.417091" lon="0.694614">
        <ele>1184.1</ele>
        <time>2018-06-13T06:21:40Z</time>
      </trkpt>
      <trkpt lat="42.417115" lon="0.694408">
        <ele>1184.5</ele>
        <time>2018-06-13T06:21:44Z</time>
      </trkpt>
      <trkpt lat="42.417131" lon="0.694202">
        <ele>1184.4</ele>
        <time>2018-06-13T06:21:48Z</time>
      </trkpt>
      <trkpt lat="42.417091" lon="0.693894">
        <ele>1183.0</ele>
        <time>2018-06-13T06:21:54Z</time>
      </trkpt>
      <trkpt lat="42.417075" lon="0.693668">
        <ele>1182.4</ele>
        <time>2018-06-13T06:21:59Z</time>
      </trkpt>
      <trkpt lat="42.417043" lon="0.693452">
        <ele>1183.5</ele>
        <time>2018-06-13T06:22:03Z</time>
      </trkpt>
      <trkpt lat="42.416968" lon="0.693187">
        <ele>1185.7</ele>
        <time>2018-06-13T06:22:09Z</time>
      </trkpt>
      <trkpt lat="42.416932" lon="0.692902">
        <ele>1186.6</ele>
        <time>2018-06-13T06:22:14Z</time>
      </trkpt>
      <trkpt lat="42.416889" lon="0.692578">
        <ele>1185.6</ele>
        <time>2018-06-13T06:22:21Z</time>
      </trkpt>
      <trkpt lat="42.416804" lon="0.691924">
        <ele>1185.2</ele>
        <time>2018-06-13T06:22:34Z</time>
      </trkpt>
      <trkpt lat="42.416792" lon="0.691720">
        <ele>1186.4</ele>
        <time>2018-06-13T06:22:38Z</time>
      </trkpt>
      <trkpt lat="42.416794" lon="0.691506">
        <ele>1187.0</ele>
        <time>2018-06-13T06:22:42Z</time>
      </trkpt>
      <trkpt lat="42.416807" lon="0.691380">
        <ele>1186.5</ele>
        <time>2018-06-13T06:22:44Z</time>
      </trkpt>
      <trkpt lat="42.417059" lon="0.690573">
        <ele>1187.0</ele>
        <time>2018-06-13T06:23:01Z</time>
      </trkpt>
      <trkpt lat="42.417174" lon="0.690175">
        <ele>1187.3</ele>
        <time>2018-06-13T06:23:10Z</time>
      </trkpt>
      <trkpt lat="42.417219" lon="0.690002">
        <ele>1187.5</ele>
        <time>2018-06-13T06:23:13Z</time>
      </trkpt>
      <trkpt lat="42.417229" lon="0.689695">
        <ele>1189.3</ele>
        <time>2018-06-13T06:23:19Z</time>
      </trkpt>
      <trkpt lat="42.417255" lon="0.689450">
        <ele>1190.0</ele>
        <time>2018-06-13T06:23:24Z</time>
      </trkpt>
      <trkpt lat="42.417283" lon="0.689241">
        <ele>1189.4</ele>
        <time>2018-06-13T06:23:28Z</time>
      </trkpt>
      <trkpt lat="42.417287" lon="0.688868">
        <ele>1188.9</ele>
        <time>2018-06-13T06:23:35Z</time>
      </trkpt>
      <trkpt lat="42.417334" lon="0.688393">
        <ele>1188.5</ele>
        <time>2018-06-13T06:23:45Z</time>
      </trkpt>
      <trkpt lat="42.417536" lon="0.687642">
        <ele>1189.4</ele>
        <time>2018-06-13T06:24:00Z</time>
      </trkpt>
      <trkpt lat="42.417708" lon="0.686998">
        <ele>1192.2</ele>
        <time>2018-06-13T06:24:14Z</time>
      </trkpt>
      <trkpt lat="42.417880" lon="0.686578">
        <ele>1191.6</ele>
        <time>2018-06-13T06:24:23Z</time>
      </trkpt>
      <trkpt lat="42.418140" lon="0.686240">
        <ele>1193.3</ele>
        <time>2018-06-13T06:24:33Z</time>
      </trkpt>
      <trkpt lat="42.418463" lon="0.685696">
        <ele>1194.0</ele>
        <time>2018-06-13T06:24:46Z</time>
      </trkpt>
      <trkpt lat="42.418654" lon="0.685344">
        <ele>1196.4</ele>
        <time>2018-06-13T06:24:55Z</time>
      </trkpt>
      <trkpt lat="42.418712" lon="0.685204">
        <ele>1196.4</ele>
        <time>2018-06-13T06:24:58Z</time>
      </trkpt>
      <trkpt lat="42.418770" lon="0.685003">
        <ele>1195.0</ele>
        <time>2018-06-13T06:25:02Z</time>
      </trkpt>
      <trkpt lat="42.418769" lon="0.684872">
        <ele>1194.5</ele>
        <time>2018-06-13T06:25:05Z</time>
      </trkpt>
      <trkpt lat="42.418740" lon="0.684605">
        <ele>1192.3</ele>
        <time>2018-06-13T06:25:10Z</time>
      </trkpt>
      <trkpt lat="42.418651" lon="0.683995">
        <ele>1183.8</ele>
        <time>2018-06-13T06:25:22Z</time>
      </trkpt>
      <trkpt lat="42.418493" lon="0.682980">
        <ele>1182.9</ele>
        <time>2018-06-13T06:25:42Z</time>
      </trkpt>
      <trkpt lat="42.418375" lon="0.682436">
        <ele>1178.7</ele>
        <time>2018-06-13T06:25:54Z</time>
      </trkpt>
      <trkpt lat="42.418178" lon="0.681839">
        <ele>1175.4</ele>
        <time>2018-06-13T06:26:06Z</time>
      </trkpt>
      <trkpt lat="42.418023" lon="0.681431">
        <ele>1178.1</ele>
        <time>2018-06-13T06:26:15Z</time>
      </trkpt>
      <trkpt lat="42.417926" lon="0.681142">
        <ele>1180.2</ele>
        <time>2018-06-13T06:26:22Z</time>
      </trkpt>
      <trkpt lat="42.417897" lon="0.681010">
        <ele>1181.6</ele>
        <time>2018-06-13T06:26:24Z</time>
      </trkpt>
      <trkpt lat="42.417964" lon="0.680874">
        <ele>1180.9</ele>
        <time>2018-06-13T06:26:27Z</time>
      </trkpt>
      <trkpt lat="42.418069" lon="0.680682">
        <ele>1178.1</ele>
        <time>2018-06-13T06:26:32Z</time>
      </trkpt>
      <trkpt lat="42.418165" lon="0.680449">
        <ele>1176.9</ele>
        <time>2018-06-13T06:26:37Z</time>
      </trkpt>
      <trkpt lat="42.418205" lon="0.680170">
        <ele>1176.7</ele>
        <time>2018-06-13T06:26:43Z</time>
      </trkpt>
      <trkpt lat="42.418225" lon="0.679959">
        <ele>1175.8</ele>
        <time>2018-06-13T06:26:47Z</time>
      </trkpt>
      <trkpt lat="42.418225" lon="0.679723">
        <ele>1174.4</ele>
        <time>2018-06-13T06:26:52Z</time>
      </trkpt>
      <trkpt lat="42.418218" lon="0.679454">
        <ele>1173.0</ele>
        <time>2018-06-13T06:26:57Z</time>
      </trkpt>
      <trkpt lat="42.418199" lon="0.679351">
        <ele>1173.1</ele>
        <time>2018-06-13T06:26:59Z</time>
      </trkpt>
      <trkpt lat="42.418141" lon="0.679240">
        <ele>1174.6</ele>
        <time>2018-06-13T06:27:02Z</time>
      </trkpt>
      <trkpt lat="42.418114" lon="0.679114">
        <ele>1175.4</ele>
        <time>2018-06-13T06:27:04Z</time>
      </trkpt>
      <trkpt lat="42.418134" lon="0.678948">
        <ele>1174.8</ele>
        <time>2018-06-13T06:27:07Z</time>
      </trkpt>
      <trkpt lat="42.418222" lon="0.678869">
        <ele>1173.1</ele>
        <time>2018-06-13T06:27:10Z</time>
      </trkpt>
      <trkpt lat="42.418349" lon="0.678821">
        <ele>1172.0</ele>
        <time>2018-06-13T06:27:14Z</time>
      </trkpt>
      <trkpt lat="42.418506" lon="0.678790">
        <ele>1172.0</ele>
        <time>2018-06-13T06:27:18Z</time>
      </trkpt>
      <trkpt lat="42.418701" lon="0.678824">
        <ele>1175.1</ele>
        <time>2018-06-13T06:27:23Z</time>
      </trkpt>
      <trkpt lat="42.418875" lon="0.678908">
        <ele>1177.7</ele>
        <time>2018-06-13T06:27:28Z</time>
      </trkpt>
      <trkpt lat="42.419175" lon="0.679061">
        <ele>1182.6</ele>
        <time>2018-06-13T06:27:37Z</time>
      </trkpt>
      <trkpt lat="42.420088" lon="0.679525">
        <ele>1189.7</ele>
        <time>2018-06-13T06:28:02Z</time>
      </trkpt>
      <trkpt lat="42.420887" lon="0.679863">
        <ele>1191.9</ele>
        <time>2018-06-13T06:28:25Z</time>
      </trkpt>
      <trkpt lat="42.421237" lon="0.680014">
        <ele>1202.5</ele>
        <time>2018-06-13T06:28:35Z</time>
      </trkpt>
      <trkpt lat="42.421404" lon="0.680150">
        <ele>1201.7</ele>
        <time>2018-06-13T06:28:40Z</time>
      </trkpt>
      <trkpt lat="42.421616" lon="0.680333">
        <ele>1203.0</ele>
        <time>2018-06-13T06:28:46Z</time>
      </trkpt>
      <trkpt lat="42.421689" lon="0.680400">
        <ele>1203.0</ele>
        <time>2018-06-13T06:28:49Z</time>
      </trkpt>
      <trkpt lat="42.421738" lon="0.680435">
        <ele>1203.2</ele>
        <time>2018-06-13T06:28:50Z</time>
      </trkpt>
      <trkpt lat="42.421783" lon="0.680455">
        <ele>1203.5</ele>
        <time>2018-06-13T06:28:51Z</time>
      </trkpt>
      <trkpt lat="42.421825" lon="0.680448">
        <ele>1204.1</ele>
        <time>2018-06-13T06:28:53Z</time>
      </trkpt>
      <trkpt lat="42.421860" lon="0.680426">
        <ele>1204.7</ele>
        <time>2018-06-13T06:28:54Z</time>
      </trkpt>
      <trkpt lat="42.421880" lon="0.680399">
        <ele>1205.4</ele>
        <time>2018-06-13T06:28:54Z</time>
      </trkpt>
      <trkpt lat="42.421889" lon="0.680367">
        <ele>1206.0</ele>
        <time>2018-06-13T06:28:55Z</time>
      </trkpt>
      <trkpt lat="42.421887" lon="0.680315">
        <ele>1206.9</ele>
        <time>2018-06-13T06:28:56Z</time>
      </trkpt>
      <trkpt lat="42.421862" lon="0.680257">
        <ele>1207.4</ele>
        <time>2018-06-13T06:28:57Z</time>
      </trkpt>
      <trkpt lat="42.421819" lon="0.680159">
        <ele>1208.0</ele>
        <time>2018-06-13T06:29:00Z</time>
      </trkpt>
      <trkpt lat="42.421387" lon="0.678977">
        <ele>1213.7</ele>
        <time>2018-06-13T06:29:25Z</time>
      </trkpt>
      <trkpt lat="42.421238" lon="0.678672">
        <ele>1212.7</ele>
        <time>2018-06-13T06:29:32Z</time>
      </trkpt>
      <trkpt lat="42.421126" lon="0.678545">
        <ele>1212.4</ele>
        <time>2018-06-13T06:29:36Z</time>
      </trkpt>
      <trkpt lat="42.420906" lon="0.678369">
        <ele>1213.2</ele>
        <time>2018-06-13T06:29:43Z</time>
      </trkpt>
      <trkpt lat="42.420769" lon="0.678236">
        <ele>1213.8</ele>
        <time>2018-06-13T06:29:48Z</time>
      </trkpt>
      <trkpt lat="42.420668" lon="0.678104">
        <ele>1214.9</ele>
        <time>2018-06-13T06:29:51Z</time>
      </trkpt>
      <trkpt lat="42.420593" lon="0.677921">
        <ele>1216.9</ele>
        <time>2018-06-13T06:29:55Z</time>
      </trkpt>
      <trkpt lat="42.420419" lon="0.677490">
        <ele>1225.1</ele>
        <time>2018-06-13T06:30:05Z</time>
      </trkpt>
      <trkpt lat="42.420278" lon="0.677119">
        <ele>1227.0</ele>
        <time>2018-06-13T06:30:13Z</time>
      </trkpt>
      <trkpt lat="42.419540" lon="0.675746">
        <ele>1233.0</ele>
        <time>2018-06-13T06:30:46Z</time>
      </trkpt>
      <trkpt lat="42.419415" lon="0.675448">
        <ele>1232.9</ele>
        <time>2018-06-13T06:30:53Z</time>
      </trkpt>
      <trkpt lat="42.419339" lon="0.675218">
        <ele>1234.3</ele>
        <time>2018-06-13T06:30:58Z</time>
      </trkpt>
      <trkpt lat="42.419327" lon="0.675143">
        <ele>1234.9</ele>
        <time>2018-06-13T06:31:00Z</time>
      </trkpt>
      <trkpt lat="42.419346" lon="0.674916">
        <ele>1239.3</ele>
        <time>2018-06-13T06:31:04Z</time>
      </trkpt>
      <trkpt lat="42.419412" lon="0.674592">
        <ele>1238.9</ele>
        <time>2018-06-13T06:31:11Z</time>
      </trkpt>
      <trkpt lat="42.419468" lon="0.674360">
        <ele>1238.0</ele>
        <time>2018-06-13T06:31:15Z</time>
      </trkpt>
      <trkpt lat="42.419563" lon="0.674125">
        <ele>1236.1</ele>
        <time>2018-06-13T06:31:21Z</time>
      </trkpt>
      <trkpt lat="42.419657" lon="0.673913">
        <ele>1235.1</ele>
        <time>2018-06-13T06:31:25Z</time>
      </trkpt>
      <trkpt lat="42.419819" lon="0.673693">
        <ele>1231.5</ele>
        <time>2018-06-13T06:31:32Z</time>
      </trkpt>
      <trkpt lat="42.419938" lon="0.673572">
        <ele>1229.5</ele>
        <time>2018-06-13T06:31:36Z</time>
      </trkpt>
      <trkpt lat="42.420016" lon="0.673453">
        <ele>1228.9</ele>
        <time>2018-06-13T06:31:39Z</time>
      </trkpt>
      <trkpt lat="42.420077" lon="0.673312">
        <ele>1228.4</ele>
        <time>2018-06-13T06:31:42Z</time>
      </trkpt>
      <trkpt lat="42.420105" lon="0.673142">
        <ele>1227.8</ele>
        <time>2018-06-13T06:31:45Z</time>
      </trkpt>
      <trkpt lat="42.420089" lon="0.672998">
        <ele>1227.3</ele>
        <time>2018-06-13T06:31:48Z</time>
      </trkpt>
      <trkpt lat="42.420070" lon="0.672840">
        <ele>1226.6</ele>
        <time>2018-06-13T06:31:51Z</time>
      </trkpt>
      <trkpt lat="42.420023" lon="0.672595">
        <ele>1225.8</ele>
        <time>2018-06-13T06:31:56Z</time>
      </trkpt>
      <trkpt lat="42.419938" lon="0.672239">
        <ele>1225.7</ele>
        <time>2018-06-13T06:32:03Z</time>
      </trkpt>
      <trkpt lat="42.419769" lon="0.671727">
        <ele>1227.0</ele>
        <time>2018-06-13T06:32:14Z</time>
      </trkpt>
      <trkpt lat="42.419695" lon="0.671525">
        <ele>1227.4</ele>
        <time>2018-06-13T06:32:19Z</time>
      </trkpt>
      <trkpt lat="42.419664" lon="0.671411">
        <ele>1228.6</ele>
        <time>2018-06-13T06:32:21Z</time>
      </trkpt>
      <trkpt lat="42.419665" lon="0.671303">
        <ele>1229.7</ele>
        <time>2018-06-13T06:32:23Z</time>
      </trkpt>
      <trkpt lat="42.419688" lon="0.671230">
        <ele>1230.5</ele>
        <time>2018-06-13T06:32:25Z</time>
      </trkpt>
      <trkpt lat="42.419704" lon="0.671165">
        <ele>1230.9</ele>
        <time>2018-06-13T06:32:26Z</time>
      </trkpt>
      <trkpt lat="42.419759" lon="0.671113">
        <ele>1231.4</ele>
        <time>2018-06-13T06:32:28Z</time>
      </trkpt>
      <trkpt lat="42.419868" lon="0.671060">
        <ele>1232.4</ele>
        <time>2018-06-13T06:32:31Z</time>
      </trkpt>
      <trkpt lat="42.419993" lon="0.671064">
        <ele>1233.0</ele>
        <time>2018-06-13T06:32:34Z</time>
      </trkpt>
      <trkpt lat="42.420145" lon="0.671095">
        <ele>1233.6</ele>
        <time>2018-06-13T06:32:38Z</time>
      </trkpt>
      <trkpt lat="42.420637" lon="0.671202">
        <ele>1236.1</ele>
        <time>2018-06-13T06:32:52Z</time>
      </trkpt>
      <trkpt lat="42.420776" lon="0.671198">
        <ele>1235.6</ele>
        <time>2018-06-13T06:32:55Z</time>
      </trkpt>
      <trkpt lat="42.420871" lon="0.671175">
        <ele>1234.8</ele>
        <time>2018-06-13T06:32:58Z</time>
      </trkpt>
      <trkpt lat="42.420971" lon="0.671143">
        <ele>1234.3</ele>
        <time>2018-06-13T06:33:01Z</time>
      </trkpt>
      <trkpt lat="42.421038" lon="0.671107">
        <ele>1234.7</ele>
        <time>2018-06-13T06:33:02Z</time>
      </trkpt>
      <trkpt lat="42.421122" lon="0.671074">
        <ele>1234.8</ele>
        <time>2018-06-13T06:33:05Z</time>
      </trkpt>
      <trkpt lat="42.421301" lon="0.670889">
        <ele>1236.4</ele>
        <time>2018-06-13T06:33:11Z</time>
      </trkpt>
      <trkpt lat="42.421450" lon="0.670644">
        <ele>1239.1</ele>
        <time>2018-06-13T06:33:17Z</time>
      </trkpt>
      <trkpt lat="42.421587" lon="0.670310">
        <ele>1238.2</ele>
        <time>2018-06-13T06:33:24Z</time>
      </trkpt>
      <trkpt lat="42.421929" lon="0.669916">
        <ele>1235.0</ele>
        <time>2018-06-13T06:33:36Z</time>
      </trkpt>
      <trkpt lat="42.422088" lon="0.669739">
        <ele>1237.6</ele>
        <time>2018-06-13T06:33:42Z</time>
      </trkpt>
      <trkpt lat="42.422182" lon="0.669587">
        <ele>1239.5</ele>
        <time>2018-06-13T06:33:46Z</time>
      </trkpt>
      <trkpt lat="42.422204" lon="0.669387">
        <ele>1239.0</ele>
        <time>2018-06-13T06:33:50Z</time>
      </trkpt>
      <trkpt lat="42.422181" lon="0.669159">
        <ele>1237.7</ele>
        <time>2018-06-13T06:33:54Z</time>
      </trkpt>
      <trkpt lat="42.422146" lon="0.668962">
        <ele>1235.5</ele>
        <time>2018-06-13T06:33:58Z</time>
      </trkpt>
      <trkpt lat="42.422088" lon="0.668783">
        <ele>1233.4</ele>
        <time>2018-06-13T06:34:02Z</time>
      </trkpt>
      <trkpt lat="42.421986" lon="0.668605">
        <ele>1231.6</ele>
        <time>2018-06-13T06:34:06Z</time>
      </trkpt>
      <trkpt lat="42.421838" lon="0.668497">
        <ele>1229.6</ele>
        <time>2018-06-13T06:34:11Z</time>
      </trkpt>
      <trkpt lat="42.421600" lon="0.668400">
        <ele>1228.8</ele>
        <time>2018-06-13T06:34:17Z</time>
      </trkpt>
      <trkpt lat="42.421320" lon="0.668320">
        <ele>1230.7</ele>
        <time>2018-06-13T06:34:25Z</time>
      </trkpt>
      <trkpt lat="42.421047" lon="0.668308">
        <ele>1238.3</ele>
        <time>2018-06-13T06:34:32Z</time>
      </trkpt>
      <trkpt lat="42.420854" lon="0.668237">
        <ele>1243.1</ele>
        <time>2018-06-13T06:34:38Z</time>
      </trkpt>
      <trkpt lat="42.420674" lon="0.668149">
        <ele>1246.1</ele>
        <time>2018-06-13T06:34:43Z</time>
      </trkpt>
      <trkpt lat="42.420459" lon="0.667987">
        <ele>1247.8</ele>
        <time>2018-06-13T06:34:49Z</time>
      </trkpt>
      <trkpt lat="42.420223" lon="0.667745">
        <ele>1246.6</ele>
        <time>2018-06-13T06:34:57Z</time>
      </trkpt>
      <trkpt lat="42.420067" lon="0.667565">
        <ele>1247.0</ele>
        <time>2018-06-13T06:35:03Z</time>
      </trkpt>
      <trkpt lat="42.419955" lon="0.667354">
        <ele>1245.9</ele>
        <time>2018-06-13T06:35:08Z</time>
      </trkpt>
      <trkpt lat="42.419855" lon="0.667144">
        <ele>1242.3</ele>
        <time>2018-06-13T06:35:13Z</time>
      </trkpt>
      <trkpt lat="42.419699" lon="0.666890">
        <ele>1241.1</ele>
        <time>2018-06-13T06:35:19Z</time>
      </trkpt>
      <trkpt lat="42.419632" lon="0.666681">
        <ele>1239.6</ele>
        <time>2018-06-13T06:35:23Z</time>
      </trkpt>
      <trkpt lat="42.419643" lon="0.666530">
        <ele>1239.6</ele>
        <time>2018-06-13T06:35:26Z</time>
      </trkpt>
      <trkpt lat="42.419699" lon="0.666439">
        <ele>1240.6</ele>
        <time>2018-06-13T06:35:29Z</time>
      </trkpt>
      <trkpt lat="42.419810" lon="0.666347">
        <ele>1241.7</ele>
        <time>2018-06-13T06:35:32Z</time>
      </trkpt>
      <trkpt lat="42.419966" lon="0.666300">
        <ele>1241.7</ele>
        <time>2018-06-13T06:35:36Z</time>
      </trkpt>
      <trkpt lat="42.420122" lon="0.666327">
        <ele>1241.0</ele>
        <time>2018-06-13T06:35:41Z</time>
      </trkpt>
      <trkpt lat="42.420358" lon="0.666399">
        <ele>1242.6</ele>
        <time>2018-06-13T06:35:47Z</time>
      </trkpt>
      <trkpt lat="42.420606" lon="0.666547">
        <ele>1243.6</ele>
        <time>2018-06-13T06:35:54Z</time>
      </trkpt>
      <trkpt lat="42.420911" lon="0.666665">
        <ele>1244.8</ele>
        <time>2018-06-13T06:36:03Z</time>
      </trkpt>
      <trkpt lat="42.421048" lon="0.666693">
        <ele>1244.8</ele>
        <time>2018-06-13T06:36:06Z</time>
      </trkpt>
      <trkpt lat="42.421299" lon="0.666690">
        <ele>1244.9</ele>
        <time>2018-06-13T06:36:13Z</time>
      </trkpt>
      <trkpt lat="42.421483" lon="0.666642">
        <ele>1244.1</ele>
        <time>2018-06-13T06:36:18Z</time>
      </trkpt>
      <trkpt lat="42.421747" lon="0.666546">
        <ele>1247.1</ele>
        <time>2018-06-13T06:36:25Z</time>
      </trkpt>
      <trkpt lat="42.422282" lon="0.666554">
        <ele>1250.0</ele>
        <time>2018-06-13T06:36:39Z</time>
      </trkpt>
      <trkpt lat="42.422555" lon="0.666533">
        <ele>1251.3</ele>
        <time>2018-06-13T06:36:46Z</time>
      </trkpt>
      <trkpt lat="42.423034" lon="0.666508">
        <ele>1250.3</ele>
        <time>2018-06-13T06:36:59Z</time>
      </trkpt>
      <trkpt lat="42.423286" lon="0.666519">
        <ele>1248.6</ele>
        <time>2018-06-13T06:37:06Z</time>
      </trkpt>
      <trkpt lat="42.423504" lon="0.666515">
        <ele>1243.5</ele>
        <time>2018-06-13T06:37:12Z</time>
      </trkpt>
      <trkpt lat="42.423706" lon="0.666371">
        <ele>1241.9</ele>
        <time>2018-06-13T06:37:18Z</time>
      </trkpt>
      <trkpt lat="42.423831" lon="0.666153">
        <ele>1241.5</ele>
        <time>2018-06-13T06:37:23Z</time>
      </trkpt>
      <trkpt lat="42.423955" lon="0.665919">
        <ele>1240.5</ele>
        <time>2018-06-13T06:37:29Z</time>
      </trkpt>
      <trkpt lat="42.424020" lon="0.665686">
        <ele>1239.9</ele>
        <time>2018-06-13T06:37:33Z</time>
      </trkpt>
      <trkpt lat="42.424050" lon="0.665485">
        <ele>1235.7</ele>
        <time>2018-06-13T06:37:38Z</time>
      </trkpt>
      <trkpt lat="42.424054" lon="0.665258">
        <ele>1232.3</ele>
        <time>2018-06-13T06:37:42Z</time>
      </trkpt>
      <trkpt lat="42.424019" lon="0.665088">
        <ele>1230.9</ele>
        <time>2018-06-13T06:37:46Z</time>
      </trkpt>
      <trkpt lat="42.423985" lon="0.664980">
        <ele>1231.4</ele>
        <time>2018-06-13T06:37:48Z</time>
      </trkpt>
      <trkpt lat="42.423916" lon="0.664842">
        <ele>1232.9</ele>
        <time>2018-06-13T06:37:51Z</time>
      </trkpt>
      <trkpt lat="42.423847" lon="0.664751">
        <ele>1234.8</ele>
        <time>2018-06-13T06:37:54Z</time>
      </trkpt>
      <trkpt lat="42.423790" lon="0.664648">
        <ele>1236.1</ele>
        <time>2018-06-13T06:37:56Z</time>
      </trkpt>
      <trkpt lat="42.423752" lon="0.664508">
        <ele>1236.9</ele>
        <time>2018-06-13T06:37:59Z</time>
      </trkpt>
      <trkpt lat="42.423738" lon="0.664357">
        <ele>1237.4</ele>
        <time>2018-06-13T06:38:02Z</time>
      </trkpt>
      <trkpt lat="42.423740" lon="0.664229">
        <ele>1237.9</ele>
        <time>2018-06-13T06:38:05Z</time>
      </trkpt>
      <trkpt lat="42.423766" lon="0.664095">
        <ele>1238.0</ele>
        <time>2018-06-13T06:38:07Z</time>
      </trkpt>
      <trkpt lat="42.423823" lon="0.663945">
        <ele>1237.3</ele>
        <time>2018-06-13T06:38:11Z</time>
      </trkpt>
      <trkpt lat="42.423900" lon="0.663710">
        <ele>1237.4</ele>
        <time>2018-06-13T06:38:16Z</time>
      </trkpt>
      <trkpt lat="42.424110" lon="0.663009">
        <ele>1243.1</ele>
        <time>2018-06-13T06:38:30Z</time>
      </trkpt>
      <trkpt lat="42.424322" lon="0.662386">
        <ele>1245.0</ele>
        <time>2018-06-13T06:38:44Z</time>
      </trkpt>
      <trkpt lat="42.424534" lon="0.661745">
        <ele>1238.1</ele>
        <time>2018-06-13T06:38:58Z</time>
      </trkpt>
      <trkpt lat="42.424667" lon="0.661437">
        <ele>1235.3</ele>
        <time>2018-06-13T06:39:05Z</time>
      </trkpt>
      <trkpt lat="42.424823" lon="0.661191">
        <ele>1233.9</ele>
        <time>2018-06-13T06:39:11Z</time>
      </trkpt>
      <trkpt lat="42.424875" lon="0.661133">
        <ele>1234.0</ele>
        <time>2018-06-13T06:39:13Z</time>
      </trkpt>
      <trkpt lat="42.424954" lon="0.661084">
        <ele>1233.8</ele>
        <time>2018-06-13T06:39:15Z</time>
      </trkpt>
      <trkpt lat="42.425012" lon="0.661085">
        <ele>1233.1</ele>
        <time>2018-06-13T06:39:17Z</time>
      </trkpt>
      <trkpt lat="42.425110" lon="0.661109">
        <ele>1231.8</ele>
        <time>2018-06-13T06:39:19Z</time>
      </trkpt>
      <trkpt lat="42.425171" lon="0.661172">
        <ele>1231.4</ele>
        <time>2018-06-13T06:39:21Z</time>
      </trkpt>
      <trkpt lat="42.425206" lon="0.661259">
        <ele>1231.2</ele>
        <time>2018-06-13T06:39:23Z</time>
      </trkpt>
      <trkpt lat="42.425237" lon="0.661341">
        <ele>1231.1</ele>
        <time>2018-06-13T06:39:25Z</time>
      </trkpt>
      <trkpt lat="42.425246" lon="0.661426">
        <ele>1231.0</ele>
        <time>2018-06-13T06:39:27Z</time>
      </trkpt>
      <trkpt lat="42.425239" lon="0.661516">
        <ele>1230.7</ele>
        <time>2018-06-13T06:39:28Z</time>
      </trkpt>
      <trkpt lat="42.425211" lon="0.661665">
        <ele>1229.5</ele>
        <time>2018-06-13T06:39:31Z</time>
      </trkpt>
      <trkpt lat="42.425143" lon="0.661913">
        <ele>1227.3</ele>
        <time>2018-06-13T06:39:37Z</time>
      </trkpt>
      <trkpt lat="42.425089" lon="0.662183">
        <ele>1226.3</ele>
        <time>2018-06-13T06:39:42Z</time>
      </trkpt>
      <trkpt lat="42.425033" lon="0.662592">
        <ele>1227.4</ele>
        <time>2018-06-13T06:39:50Z</time>
      </trkpt>
      <trkpt lat="42.425008" lon="0.662939">
        <ele>1225.2</ele>
        <time>2018-06-13T06:39:57Z</time>
      </trkpt>
      <trkpt lat="42.425006" lon="0.663193">
        <ele>1225.7</ele>
        <time>2018-06-13T06:40:02Z</time>
      </trkpt>
      <trkpt lat="42.425020" lon="0.663399">
        <ele>1227.0</ele>
        <time>2018-06-13T06:40:06Z</time>
      </trkpt>
      <trkpt lat="42.425070" lon="0.663594">
        <ele>1229.0</ele>
        <time>2018-06-13T06:40:10Z</time>
      </trkpt>
      <trkpt lat="42.425124" lon="0.663741">
        <ele>1230.5</ele>
        <time>2018-06-13T06:40:13Z</time>
      </trkpt>
      <trkpt lat="42.425192" lon="0.663895">
        <ele>1233.1</ele>
        <time>2018-06-13T06:40:17Z</time>
      </trkpt>
      <trkpt lat="42.425256" lon="0.664012">
        <ele>1235.6</ele>
        <time>2018-06-13T06:40:20Z</time>
      </trkpt>
      <trkpt lat="42.425344" lon="0.664134">
        <ele>1238.5</ele>
        <time>2018-06-13T06:40:23Z</time>
      </trkpt>
      <trkpt lat="42.425439" lon="0.664198">
        <ele>1241.6</ele>
        <time>2018-06-13T06:40:26Z</time>
      </trkpt>
      <trkpt lat="42.425571" lon="0.664259">
        <ele>1245.5</ele>
        <time>2018-06-13T06:40:30Z</time>
      </trkpt>
      <trkpt lat="42.425716" lon="0.664309">
        <ele>1249.2</ele>
        <time>2018-06-13T06:40:34Z</time>
      </trkpt>
      <trkpt lat="42.425843" lon="0.664326">
        <ele>1250.2</ele>
        <time>2018-06-13T06:40:37Z</time>
      </trkpt>
      <trkpt lat="42.425968" lon="0.664315">
        <ele>1251.8</ele>
        <time>2018-06-13T06:40:40Z</time>
      </trkpt>
      <trkpt lat="42.426065" lon="0.664265">
        <ele>1251.3</ele>
        <time>2018-06-13T06:40:43Z</time>
      </trkpt>
      <trkpt lat="42.426259" lon="0.664120">
        <ele>1249.4</ele>
        <time>2018-06-13T06:40:49Z</time>
      </trkpt>
      <trkpt lat="42.426443" lon="0.663966">
        <ele>1245.2</ele>
        <time>2018-06-13T06:40:55Z</time>
      </trkpt>
      <trkpt lat="42.426511" lon="0.663923">
        <ele>1243.7</ele>
        <time>2018-06-13T06:40:57Z</time>
      </trkpt>
      <trkpt lat="42.426585" lon="0.663890">
        <ele>1242.8</ele>
        <time>2018-06-13T06:40:59Z</time>
      </trkpt>
      <trkpt lat="42.426677" lon="0.663883">
        <ele>1241.7</ele>
        <time>2018-06-13T06:41:01Z</time>
      </trkpt>
      <trkpt lat="42.426755" lon="0.663903">
        <ele>1240.5</ele>
        <time>2018-06-13T06:41:04Z</time>
      </trkpt>
      <trkpt lat="42.426812" lon="0.663925">
        <ele>1239.5</ele>
        <time>2018-06-13T06:41:05Z</time>
      </trkpt>
      <trkpt lat="42.426863" lon="0.663966">
        <ele>1238.8</ele>
        <time>2018-06-13T06:41:07Z</time>
      </trkpt>
      <trkpt lat="42.426900" lon="0.664043">
        <ele>1237.8</ele>
        <time>2018-06-13T06:41:09Z</time>
      </trkpt>
      <trkpt lat="42.426962" lon="0.664210">
        <ele>1235.4</ele>
        <time>2018-06-13T06:41:12Z</time>
      </trkpt>
      <trkpt lat="42.427320" lon="0.665096">
        <ele>1229.7</ele>
        <time>2018-06-13T06:41:32Z</time>
      </trkpt>
      <trkpt lat="42.427450" lon="0.665436">
        <ele>1230.5</ele>
        <time>2018-06-13T06:41:39Z</time>
      </trkpt>
      <trkpt lat="42.427495" lon="0.665510">
        <ele>1231.7</ele>
        <time>2018-06-13T06:41:41Z</time>
      </trkpt>
      <trkpt lat="42.427568" lon="0.665535">
        <ele>1233.7</ele>
        <time>2018-06-13T06:41:43Z</time>
      </trkpt>
      <trkpt lat="42.427676" lon="0.665499">
        <ele>1236.0</ele>
        <time>2018-06-13T06:41:46Z</time>
      </trkpt>
      <trkpt lat="42.427765" lon="0.665416">
        <ele>1236.5</ele>
        <time>2018-06-13T06:41:49Z</time>
      </trkpt>
      <trkpt lat="42.427854" lon="0.665320">
        <ele>1236.9</ele>
        <time>2018-06-13T06:41:52Z</time>
      </trkpt>
      <trkpt lat="42.427935" lon="0.665179">
        <ele>1238.5</ele>
        <time>2018-06-13T06:41:56Z</time>
      </trkpt>
      <trkpt lat="42.427999" lon="0.664974">
        <ele>1241.6</ele>
        <time>2018-06-13T06:42:00Z</time>
      </trkpt>
      <trkpt lat="42.428025" lon="0.664804">
        <ele>1243.6</ele>
        <time>2018-06-13T06:42:03Z</time>
      </trkpt>
      <trkpt lat="42.428026" lon="0.664498">
        <ele>1246.5</ele>
        <time>2018-06-13T06:42:09Z</time>
      </trkpt>
      <trkpt lat="42.428027" lon="0.664192">
        <ele>1247.4</ele>
        <time>2018-06-13T06:42:15Z</time>
      </trkpt>
      <trkpt lat="42.428027" lon="0.663971">
        <ele>1247.9</ele>
        <time>2018-06-13T06:42:20Z</time>
      </trkpt>
      <trkpt lat="42.427990" lon="0.663733">
        <ele>1249.1</ele>
        <time>2018-06-13T06:42:25Z</time>
      </trkpt>
      <trkpt lat="42.427939" lon="0.663426">
        <ele>1251.5</ele>
        <time>2018-06-13T06:42:31Z</time>
      </trkpt>
      <trkpt lat="42.427700" lon="0.662332">
        <ele>1256.7</ele>
        <time>2018-06-13T06:42:53Z</time>
      </trkpt>
      <trkpt lat="42.427636" lon="0.661978">
        <ele>1259.3</ele>
        <time>2018-06-13T06:43:00Z</time>
      </trkpt>
      <trkpt lat="42.427607" lon="0.661396">
        <ele>1263.8</ele>
        <time>2018-06-13T06:43:11Z</time>
      </trkpt>
      <trkpt lat="42.427578" lon="0.660752">
        <ele>1265.6</ele>
        <time>2018-06-13T06:43:24Z</time>
      </trkpt>
      <trkpt lat="42.427562" lon="0.660176">
        <ele>1274.0</ele>
        <time>2018-06-13T06:43:35Z</time>
      </trkpt>
      <trkpt lat="42.427582" lon="0.659633">
        <ele>1275.6</ele>
        <time>2018-06-13T06:43:46Z</time>
      </trkpt>
      <trkpt lat="42.427624" lon="0.659007">
        <ele>1280.8</ele>
        <time>2018-06-13T06:43:58Z</time>
      </trkpt>
      <trkpt lat="42.427641" lon="0.658564">
        <ele>1285.7</ele>
        <time>2018-06-13T06:44:07Z</time>
      </trkpt>
      <trkpt lat="42.427649" lon="0.658310">
        <ele>1289.5</ele>
        <time>2018-06-13T06:44:12Z</time>
      </trkpt>
      <trkpt lat="42.427611" lon="0.658119">
        <ele>1292.0</ele>
        <time>2018-06-13T06:44:16Z</time>
      </trkpt>
      <trkpt lat="42.427573" lon="0.657943">
        <ele>1294.6</ele>
        <time>2018-06-13T06:44:20Z</time>
      </trkpt>
      <trkpt lat="42.427523" lon="0.657782">
        <ele>1295.7</ele>
        <time>2018-06-13T06:44:23Z</time>
      </trkpt>
      <trkpt lat="42.427427" lon="0.657648">
        <ele>1294.6</ele>
        <time>2018-06-13T06:44:27Z</time>
      </trkpt>
      <trkpt lat="42.427332" lon="0.657638">
        <ele>1293.1</ele>
        <time>2018-06-13T06:44:29Z</time>
      </trkpt>
      <trkpt lat="42.427213" lon="0.657626">
        <ele>1293.6</ele>
        <time>2018-06-13T06:44:32Z</time>
      </trkpt>
      <trkpt lat="42.427056" lon="0.657628">
        <ele>1295.0</ele>
        <time>2018-06-13T06:44:37Z</time>
      </trkpt>
      <trkpt lat="42.426849" lon="0.657706">
        <ele>1301.3</ele>
        <time>2018-06-13T06:44:42Z</time>
      </trkpt>
      <trkpt lat="42.426677" lon="0.657725">
        <ele>1306.6</ele>
        <time>2018-06-13T06:44:47Z</time>
      </trkpt>
      <trkpt lat="42.426491" lon="0.657726">
        <ele>1311.3</ele>
        <time>2018-06-13T06:44:52Z</time>
      </trkpt>
      <trkpt lat="42.426317" lon="0.657669">
        <ele>1311.7</ele>
        <time>2018-06-13T06:44:57Z</time>
      </trkpt>
      <trkpt lat="42.426130" lon="0.657598">
        <ele>1311.8</ele>
        <time>2018-06-13T06:45:02Z</time>
      </trkpt>
      <trkpt lat="42.425918" lon="0.657476">
        <ele>1311.8</ele>
        <time>2018-06-13T06:45:08Z</time>
      </trkpt>
      <trkpt lat="42.425731" lon="0.657308">
        <ele>1312.9</ele>
        <time>2018-06-13T06:45:14Z</time>
      </trkpt>
      <trkpt lat="42.425556" lon="0.657107">
        <ele>1315.4</ele>
        <time>2018-06-13T06:45:20Z</time>
      </trkpt>
      <trkpt lat="42.425334" lon="0.656758">
        <ele>1318.6</ele>
        <time>2018-06-13T06:45:29Z</time>
      </trkpt>
      <trkpt lat="42.425085" lon="0.656390">
        <ele>1318.7</ele>
        <time>2018-06-13T06:45:39Z</time>
      </trkpt>
      <trkpt lat="42.424806" lon="0.655970">
        <ele>1317.7</ele>
        <time>2018-06-13T06:45:50Z</time>
      </trkpt>
      <trkpt lat="42.424554" lon="0.655425">
        <ele>1321.8</ele>
        <time>2018-06-13T06:46:03Z</time>
      </trkpt>
      <trkpt lat="42.424310" lon="0.654903">
        <ele>1329.1</ele>
        <time>2018-06-13T06:46:15Z</time>
      </trkpt>
      <trkpt lat="42.424141" lon="0.654481">
        <ele>1333.2</ele>
        <time>2018-06-13T06:46:24Z</time>
      </trkpt>
      <trkpt lat="42.423989" lon="0.654001">
        <ele>1333.3</ele>
        <time>2018-06-13T06:46:34Z</time>
      </trkpt>
      <trkpt lat="42.423786" lon="0.653011">
        <ele>1333.7</ele>
        <time>2018-06-13T06:46:54Z</time>
      </trkpt>
      <trkpt lat="42.423578" lon="0.652086">
        <ele>1342.0</ele>
        <time>2018-06-13T06:47:13Z</time>
      </trkpt>
      <trkpt lat="42.423424" lon="0.651376">
        <ele>1345.2</ele>
        <time>2018-06-13T06:47:28Z</time>
      </trkpt>
      <trkpt lat="42.423354" lon="0.650884">
        <ele>1347.8</ele>
        <time>2018-06-13T06:47:37Z</time>
      </trkpt>
      <trkpt lat="42.423285" lon="0.649957">
        <ele>1358.7</ele>
        <time>2018-06-13T06:47:56Z</time>
      </trkpt>
      <trkpt lat="42.423263" lon="0.649368">
        <ele>1362.2</ele>
        <time>2018-06-13T06:48:07Z</time>
      </trkpt>
      <trkpt lat="42.423264" lon="0.649091">
        <ele>1363.1</ele>
        <time>2018-06-13T06:48:13Z</time>
      </trkpt>
      <trkpt lat="42.423299" lon="0.648888">
        <ele>1362.6</ele>
        <time>2018-06-13T06:48:17Z</time>
      </trkpt>
      <trkpt lat="42.423368" lon="0.648668">
        <ele>1362.3</ele>
        <time>2018-06-13T06:48:21Z</time>
      </trkpt>
      <trkpt lat="42.424031" lon="0.646873">
        <ele>1357.3</ele>
        <time>2018-06-13T06:49:01Z</time>
      </trkpt>
      <trkpt lat="42.424856" lon="0.644817">
        <ele>1374.9</ele>
        <time>2018-06-13T06:49:46Z</time>
      </trkpt>
      <trkpt lat="42.424970" lon="0.644590">
        <ele>1374.6</ele>
        <time>2018-06-13T06:49:52Z</time>
      </trkpt>
      <trkpt lat="42.425070" lon="0.644487">
        <ele>1372.8</ele>
        <time>2018-06-13T06:49:55Z</time>
      </trkpt>
      <trkpt lat="42.425183" lon="0.644396">
        <ele>1369.7</ele>
        <time>2018-06-13T06:49:59Z</time>
      </trkpt>
      <trkpt lat="42.425308" lon="0.644409">
        <ele>1367.4</ele>
        <time>2018-06-13T06:50:02Z</time>
      </trkpt>
      <trkpt lat="42.425568" lon="0.644468">
        <ele>1364.5</ele>
        <time>2018-06-13T06:50:09Z</time>
      </trkpt>
      <trkpt lat="42.425788" lon="0.644575">
        <ele>1361.6</ele>
        <time>2018-06-13T06:50:15Z</time>
      </trkpt>
      <trkpt lat="42.426034" lon="0.644707">
        <ele>1355.2</ele>
        <time>2018-06-13T06:50:22Z</time>
      </trkpt>
      <trkpt lat="42.426196" lon="0.644795">
        <ele>1352.9</ele>
        <time>2018-06-13T06:50:27Z</time>
      </trkpt>
      <trkpt lat="42.426346" lon="0.644954">
        <ele>1348.4</ele>
        <time>2018-06-13T06:50:32Z</time>
      </trkpt>
      <trkpt lat="42.426470" lon="0.645257">
        <ele>1342.6</ele>
        <time>2018-06-13T06:50:39Z</time>
      </trkpt>
      <trkpt lat="42.426582" lon="0.645594">
        <ele>1339.9</ele>
        <time>2018-06-13T06:50:46Z</time>
      </trkpt>
      <trkpt lat="42.426616" lon="0.645989">
        <ele>1340.6</ele>
        <time>2018-06-13T06:50:54Z</time>
      </trkpt>
      <trkpt lat="42.426600" lon="0.646296">
        <ele>1343.5</ele>
        <time>2018-06-13T06:51:00Z</time>
      </trkpt>
      <trkpt lat="42.426622" lon="0.646633">
        <ele>1344.0</ele>
        <time>2018-06-13T06:51:07Z</time>
      </trkpt>
      <trkpt lat="42.426696" lon="0.646765">
        <ele>1341.8</ele>
        <time>2018-06-13T06:51:10Z</time>
      </trkpt>
      <trkpt lat="42.426821" lon="0.646847">
        <ele>1339.3</ele>
        <time>2018-06-13T06:51:14Z</time>
      </trkpt>
      <trkpt lat="42.427101" lon="0.646940">
        <ele>1336.0</ele>
        <time>2018-06-13T06:51:21Z</time>
      </trkpt>
      <trkpt lat="42.427345" lon="0.647003">
        <ele>1330.9</ele>
        <time>2018-06-13T06:51:28Z</time>
      </trkpt>
      <trkpt lat="42.427524" lon="0.647103">
        <ele>1325.1</ele>
        <time>2018-06-13T06:51:33Z</time>
      </trkpt>
      <trkpt lat="42.427711" lon="0.647272">
        <ele>1320.0</ele>
        <time>2018-06-13T06:51:39Z</time>
      </trkpt>
      <trkpt lat="42.427878" lon="0.647593">
        <ele>1321.9</ele>
        <time>2018-06-13T06:51:47Z</time>
      </trkpt>
      <trkpt lat="42.428064" lon="0.647671">
        <ele>1321.4</ele>
        <time>2018-06-13T06:51:52Z</time>
      </trkpt>
      <trkpt lat="42.428202" lon="0.647669">
        <ele>1319.9</ele>
        <time>2018-06-13T06:51:56Z</time>
      </trkpt>
      <trkpt lat="42.428328" lon="0.647544">
        <ele>1314.6</ele>
        <time>2018-06-13T06:52:00Z</time>
      </trkpt>
      <trkpt lat="42.428456" lon="0.647436">
        <ele>1307.9</ele>
        <time>2018-06-13T06:52:04Z</time>
      </trkpt>
      <trkpt lat="42.428700" lon="0.647186">
        <ele>1296.1</ele>
        <time>2018-06-13T06:52:13Z</time>
      </trkpt>
      <trkpt lat="42.428828" lon="0.647115">
        <ele>1291.9</ele>
        <time>2018-06-13T06:52:17Z</time>
      </trkpt>
      <trkpt lat="42.429042" lon="0.647116">
        <ele>1288.9</ele>
        <time>2018-06-13T06:52:22Z</time>
      </trkpt>
      <trkpt lat="42.429391" lon="0.647105">
        <ele>1290.7</ele>
        <time>2018-06-13T06:52:32Z</time>
      </trkpt>
      <trkpt lat="42.429914" lon="0.647121">
        <ele>1285.7</ele>
        <time>2018-06-13T06:52:46Z</time>
      </trkpt>
      <trkpt lat="42.430152" lon="0.647190">
        <ele>1283.8</ele>
        <time>2018-06-13T06:52:52Z</time>
      </trkpt>
      <trkpt lat="42.430307" lon="0.647239">
        <ele>1285.7</ele>
        <time>2018-06-13T06:52:56Z</time>
      </trkpt>
      <trkpt lat="42.430435" lon="0.647236">
        <ele>1286.2</ele>
        <time>2018-06-13T06:53:00Z</time>
      </trkpt>
      <trkpt lat="42.430532" lon="0.647199">
        <ele>1287.8</ele>
        <time>2018-06-13T06:53:02Z</time>
      </trkpt>
      <trkpt lat="42.430605" lon="0.647134">
        <ele>1287.7</ele>
        <time>2018-06-13T06:53:05Z</time>
      </trkpt>
      <trkpt lat="42.430712" lon="0.647060">
        <ele>1288.9</ele>
        <time>2018-06-13T06:53:08Z</time>
      </trkpt>
      <trkpt lat="42.430895" lon="0.646923">
        <ele>1292.1</ele>
        <time>2018-06-13T06:53:13Z</time>
      </trkpt>
      <trkpt lat="42.431254" lon="0.646547">
        <ele>1283.3</ele>
        <time>2018-06-13T06:53:25Z</time>
      </trkpt>
      <trkpt lat="42.431283" lon="0.646446">
        <ele>1280.0</ele>
        <time>2018-06-13T06:53:28Z</time>
      </trkpt>
      <trkpt lat="42.431284" lon="0.646350">
        <ele>1276.3</ele>
        <time>2018-06-13T06:53:30Z</time>
      </trkpt>
      <trkpt lat="42.431272" lon="0.646271">
        <ele>1272.8</ele>
        <time>2018-06-13T06:53:32Z</time>
      </trkpt>
      <trkpt lat="42.431224" lon="0.646162">
        <ele>1267.0</ele>
        <time>2018-06-13T06:53:34Z</time>
      </trkpt>
      <trkpt lat="42.431159" lon="0.646131">
        <ele>1263.1</ele>
        <time>2018-06-13T06:53:36Z</time>
      </trkpt>
      <trkpt lat="42.431110" lon="0.646110">
        <ele>1260.1</ele>
        <time>2018-06-13T06:53:38Z</time>
      </trkpt>
      <trkpt lat="42.431032" lon="0.646123">
        <ele>1257.1</ele>
        <time>2018-06-13T06:53:40Z</time>
      </trkpt>
      <trkpt lat="42.430966" lon="0.646155">
        <ele>1255.4</ele>
        <time>2018-06-13T06:53:42Z</time>
      </trkpt>
      <trkpt lat="42.430913" lon="0.646215">
        <ele>1256.1</ele>
        <time>2018-06-13T06:53:44Z</time>
      </trkpt>
      <trkpt lat="42.430872" lon="0.646284">
        <ele>1257.7</ele>
        <time>2018-06-13T06:53:46Z</time>
      </trkpt>
      <trkpt lat="42.430803" lon="0.646395">
        <ele>1260.6</ele>
        <time>2018-06-13T06:53:49Z</time>
      </trkpt>
      <trkpt lat="42.430740" lon="0.646524">
        <ele>1264.3</ele>
        <time>2018-06-13T06:53:52Z</time>
      </trkpt>
      <trkpt lat="42.430684" lon="0.646634">
        <ele>1267.7</ele>
        <time>2018-06-13T06:53:54Z</time>
      </trkpt>
      <trkpt lat="42.430594" lon="0.646776">
        <ele>1271.8</ele>
        <time>2018-06-13T06:53:58Z</time>
      </trkpt>
      <trkpt lat="42.430560" lon="0.646809">
        <ele>1272.3</ele>
        <time>2018-06-13T06:53:59Z</time>
      </trkpt>
      <trkpt lat="42.430502" lon="0.646850">
        <ele>1272.3</ele>
        <time>2018-06-13T06:54:01Z</time>
      </trkpt>
      <trkpt lat="42.430403" lon="0.646897">
        <ele>1271.6</ele>
        <time>2018-06-13T06:54:04Z</time>
      </trkpt>
      <trkpt lat="42.430265" lon="0.646918">
        <ele>1272.3</ele>
        <time>2018-06-13T06:54:08Z</time>
      </trkpt>
      <trkpt lat="42.430164" lon="0.646888">
        <ele>1270.9</ele>
        <time>2018-06-13T06:54:10Z</time>
      </trkpt>
      <trkpt lat="42.429902" lon="0.646816">
        <ele>1270.9</ele>
        <time>2018-06-13T06:54:17Z</time>
      </trkpt>
      <trkpt lat="42.429520" lon="0.646679">
        <ele>1266.7</ele>
        <time>2018-06-13T06:54:28Z</time>
      </trkpt>
      <trkpt lat="42.429381" lon="0.646632">
        <ele>1265.5</ele>
        <time>2018-06-13T06:54:32Z</time>
      </trkpt>
      <trkpt lat="42.429151" lon="0.646467">
        <ele>1261.3</ele>
        <time>2018-06-13T06:54:39Z</time>
      </trkpt>
      <trkpt lat="42.428950" lon="0.646328">
        <ele>1261.6</ele>
        <time>2018-06-13T06:54:44Z</time>
      </trkpt>
      <trkpt lat="42.428776" lon="0.646208">
        <ele>1263.2</ele>
        <time>2018-06-13T06:54:50Z</time>
      </trkpt>
      <trkpt lat="42.428504" lon="0.646027">
        <ele>1265.0</ele>
        <time>2018-06-13T06:54:58Z</time>
      </trkpt>
      <trkpt lat="42.428356" lon="0.645945">
        <ele>1267.7</ele>
        <time>2018-06-13T06:55:02Z</time>
      </trkpt>
      <trkpt lat="42.428225" lon="0.645872">
        <ele>1270.8</ele>
        <time>2018-06-13T06:55:06Z</time>
      </trkpt>
      <trkpt lat="42.428115" lon="0.645768">
        <ele>1274.8</ele>
        <time>2018-06-13T06:55:09Z</time>
      </trkpt>
      <trkpt lat="42.428025" lon="0.645558">
        <ele>1275.3</ele>
        <time>2018-06-13T06:55:14Z</time>
      </trkpt>
      <trkpt lat="42.427902" lon="0.645228">
        <ele>1276.9</ele>
        <time>2018-06-13T06:55:21Z</time>
      </trkpt>
      <trkpt lat="42.427801" lon="0.644957">
        <ele>1282.7</ele>
        <time>2018-06-13T06:55:27Z</time>
      </trkpt>
      <trkpt lat="42.427819" lon="0.644712">
        <ele>1279.7</ele>
        <time>2018-06-13T06:55:32Z</time>
      </trkpt>
      <trkpt lat="42.427852" lon="0.644546">
        <ele>1274.8</ele>
        <time>2018-06-13T06:55:36Z</time>
      </trkpt>
      <trkpt lat="42.427895" lon="0.644349">
        <ele>1266.0</ele>
        <time>2018-06-13T06:55:40Z</time>
      </trkpt>
      <trkpt lat="42.427939" lon="0.644212">
        <ele>1262.5</ele>
        <time>2018-06-13T06:55:43Z</time>
      </trkpt>
      <trkpt lat="42.427972" lon="0.644018">
        <ele>1261.6</ele>
        <time>2018-06-13T06:55:47Z</time>
      </trkpt>
      <trkpt lat="42.427940" lon="0.643749">
        <ele>1263.8</ele>
        <time>2018-06-13T06:55:53Z</time>
      </trkpt>
      <trkpt lat="42.427954" lon="0.643454">
        <ele>1269.3</ele>
        <time>2018-06-13T06:55:59Z</time>
      </trkpt>
      <trkpt lat="42.428005" lon="0.642886">
        <ele>1270.6</ele>
        <time>2018-06-13T06:56:10Z</time>
      </trkpt>
      <trkpt lat="42.428011" lon="0.642423">
        <ele>1267.8</ele>
        <time>2018-06-13T06:56:19Z</time>
      </trkpt>
      <trkpt lat="42.428010" lon="0.642001">
        <ele>1259.5</ele>
        <time>2018-06-13T06:56:27Z</time>
      </trkpt>
      <trkpt lat="42.427971" lon="0.641546">
        <ele>1247.7</ele>
        <time>2018-06-13T06:56:37Z</time>
      </trkpt>
      <trkpt lat="42.427894" lon="0.641143">
        <ele>1244.4</ele>
        <time>2018-06-13T06:56:45Z</time>
      </trkpt>
      <trkpt lat="42.427817" lon="0.640826">
        <ele>1245.6</ele>
        <time>2018-06-13T06:56:51Z</time>
      </trkpt>
      <trkpt lat="42.427739" lon="0.640476">
        <ele>1247.2</ele>
        <time>2018-06-13T06:56:58Z</time>
      </trkpt>
      <trkpt lat="42.427647" lon="0.640219">
        <ele>1250.8</ele>
        <time>2018-06-13T06:57:04Z</time>
      </trkpt>
      <trkpt lat="42.427633" lon="0.640141">
        <ele>1251.4</ele>
        <time>2018-06-13T06:57:06Z</time>
      </trkpt>
      <trkpt lat="42.427643" lon="0.640050">
        <ele>1249.5</ele>
        <time>2018-06-13T06:57:07Z</time>
      </trkpt>
      <trkpt lat="42.427711" lon="0.639801">
        <ele>1242.8</ele>
        <time>2018-06-13T06:57:13Z</time>
      </trkpt>
      <trkpt lat="42.427837" lon="0.639430">
        <ele>1234.6</ele>
        <time>2018-06-13T06:57:21Z</time>
      </trkpt>
      <trkpt lat="42.427857" lon="0.639296">
        <ele>1233.1</ele>
        <time>2018-06-13T06:57:24Z</time>
      </trkpt>
      <trkpt lat="42.427802" lon="0.638878">
        <ele>1231.4</ele>
        <time>2018-06-13T06:57:32Z</time>
      </trkpt>
      <trkpt lat="42.427750" lon="0.638351">
        <ele>1227.9</ele>
        <time>2018-06-13T06:57:42Z</time>
      </trkpt>
      <trkpt lat="42.427711" lon="0.636977">
        <ele>1217.3</ele>
        <time>2018-06-13T06:58:09Z</time>
      </trkpt>
      <trkpt lat="42.427723" lon="0.636428">
        <ele>1214.7</ele>
        <time>2018-06-13T06:58:20Z</time>
      </trkpt>
      <trkpt lat="42.427735" lon="0.636128">
        <ele>1212.6</ele>
        <time>2018-06-13T06:58:26Z</time>
      </trkpt>
      <trkpt lat="42.427813" lon="0.635922">
        <ele>1208.7</ele>
        <time>2018-06-13T06:58:30Z</time>
      </trkpt>
      <trkpt lat="42.427941" lon="0.635712">
        <ele>1201.3</ele>
        <time>2018-06-13T06:58:36Z</time>
      </trkpt>
      <trkpt lat="42.428168" lon="0.635505">
        <ele>1199.0</ele>
        <time>2018-06-13T06:58:43Z</time>
      </trkpt>
      <trkpt lat="42.428367" lon="0.635348">
        <ele>1198.7</ele>
        <time>2018-06-13T06:58:49Z</time>
      </trkpt>
      <trkpt lat="42.428479" lon="0.635161">
        <ele>1199.2</ele>
        <time>2018-06-13T06:58:54Z</time>
      </trkpt>
      <trkpt lat="42.428503" lon="0.634956">
        <ele>1201.9</ele>
        <time>2018-06-13T06:58:58Z</time>
      </trkpt>
      <trkpt lat="42.428491" lon="0.634759">
        <ele>1203.6</ele>
        <time>2018-06-13T06:59:02Z</time>
      </trkpt>
      <trkpt lat="42.428467" lon="0.634578">
        <ele>1205.0</ele>
        <time>2018-06-13T06:59:06Z</time>
      </trkpt>
      <trkpt lat="42.428394" lon="0.634404">
        <ele>1206.1</ele>
        <time>2018-06-13T06:59:10Z</time>
      </trkpt>
      <trkpt lat="42.428295" lon="0.634190">
        <ele>1206.0</ele>
        <time>2018-06-13T06:59:14Z</time>
      </trkpt>
      <trkpt lat="42.428106" lon="0.633832">
        <ele>1206.3</ele>
        <time>2018-06-13T06:59:23Z</time>
      </trkpt>
      <trkpt lat="42.427863" lon="0.633277">
        <ele>1202.6</ele>
        <time>2018-06-13T06:59:36Z</time>
      </trkpt>
      <trkpt lat="42.427759" lon="0.633010">
        <ele>1199.4</ele>
        <time>2018-06-13T06:59:42Z</time>
      </trkpt>
      <trkpt lat="42.427706" lon="0.632828">
        <ele>1198.7</ele>
        <time>2018-06-13T06:59:45Z</time>
      </trkpt>
      <trkpt lat="42.427706" lon="0.632631">
        <ele>1199.0</ele>
        <time>2018-06-13T06:59:49Z</time>
      </trkpt>
      <trkpt lat="42.427706" lon="0.632379">
        <ele>1198.8</ele>
        <time>2018-06-13T06:59:54Z</time>
      </trkpt>
      <trkpt lat="42.427758" lon="0.632167">
        <ele>1197.2</ele>
        <time>2018-06-13T06:59:59Z</time>
      </trkpt>
      <trkpt lat="42.427849" lon="0.631946">
        <ele>1195.8</ele>
        <time>2018-06-13T07:00:03Z</time>
      </trkpt>
      <trkpt lat="42.428120" lon="0.631319">
        <ele>1194.0</ele>
        <time>2018-06-13T07:00:18Z</time>
      </trkpt>
      <trkpt lat="42.428341" lon="0.630856">
        <ele>1192.3</ele>
        <time>2018-06-13T07:00:28Z</time>
      </trkpt>
      <trkpt lat="42.428522" lon="0.630376">
        <ele>1190.9</ele>
        <time>2018-06-13T07:00:39Z</time>
      </trkpt>
      <trkpt lat="42.428638" lon="0.629914">
        <ele>1189.8</ele>
        <time>2018-06-13T07:00:48Z</time>
      </trkpt>
      <trkpt lat="42.428689" lon="0.629459">
        <ele>1189.7</ele>
        <time>2018-06-13T07:00:57Z</time>
      </trkpt>
      <trkpt lat="42.428740" lon="0.628866">
        <ele>1189.5</ele>
        <time>2018-06-13T07:01:09Z</time>
      </trkpt>
      <trkpt lat="42.428778" lon="0.628119">
        <ele>1190.0</ele>
        <time>2018-06-13T07:01:24Z</time>
      </trkpt>
      <trkpt lat="42.428803" lon="0.627750">
        <ele>1189.1</ele>
        <time>2018-06-13T07:01:31Z</time>
      </trkpt>
      <trkpt lat="42.428777" lon="0.627473">
        <ele>1187.8</ele>
        <time>2018-06-13T07:01:36Z</time>
      </trkpt>
      <trkpt lat="42.428687" lon="0.627095">
        <ele>1187.0</ele>
        <time>2018-06-13T07:01:44Z</time>
      </trkpt>
      <trkpt lat="42.428570" lon="0.626777">
        <ele>1189.0</ele>
        <time>2018-06-13T07:01:51Z</time>
      </trkpt>
      <trkpt lat="42.428376" lon="0.626401">
        <ele>1193.5</ele>
        <time>2018-06-13T07:02:00Z</time>
      </trkpt>
      <trkpt lat="42.428236" lon="0.626039">
        <ele>1196.9</ele>
        <time>2018-06-13T07:02:08Z</time>
      </trkpt>
      <trkpt lat="42.428122" lon="0.625747">
        <ele>1196.6</ele>
        <time>2018-06-13T07:02:14Z</time>
      </trkpt>
      <trkpt lat="42.428071" lon="0.625424">
        <ele>1203.1</ele>
        <time>2018-06-13T07:02:21Z</time>
      </trkpt>
      <trkpt lat="42.428058" lon="0.625140">
        <ele>1204.9</ele>
        <time>2018-06-13T07:02:27Z</time>
      </trkpt>
      <trkpt lat="42.428070" lon="0.624826">
        <ele>1199.4</ele>
        <time>2018-06-13T07:02:33Z</time>
      </trkpt>
      <trkpt lat="42.428108" lon="0.624620">
        <ele>1195.4</ele>
        <time>2018-06-13T07:02:37Z</time>
      </trkpt>
      <trkpt lat="42.428182" lon="0.624441">
        <ele>1190.6</ele>
        <time>2018-06-13T07:02:41Z</time>
      </trkpt>
      <trkpt lat="42.428257" lon="0.624334">
        <ele>1188.9</ele>
        <time>2018-06-13T07:02:44Z</time>
      </trkpt>
      <trkpt lat="42.428318" lon="0.624162">
        <ele>1189.5</ele>
        <time>2018-06-13T07:02:48Z</time>
      </trkpt>
      <trkpt lat="42.428355" lon="0.623955">
        <ele>1190.5</ele>
        <time>2018-06-13T07:02:52Z</time>
      </trkpt>
      <trkpt lat="42.428367" lon="0.623659">
        <ele>1189.2</ele>
        <time>2018-06-13T07:02:58Z</time>
      </trkpt>
      <trkpt lat="42.428343" lon="0.623428">
        <ele>1188.2</ele>
        <time>2018-06-13T07:03:02Z</time>
      </trkpt>
      <trkpt lat="42.428307" lon="0.623228">
        <ele>1188.5</ele>
        <time>2018-06-13T07:03:06Z</time>
      </trkpt>
      <trkpt lat="42.428247" lon="0.622969">
        <ele>1188.4</ele>
        <time>2018-06-13T07:03:12Z</time>
      </trkpt>
      <trkpt lat="42.428250" lon="0.622587">
        <ele>1187.8</ele>
        <time>2018-06-13T07:03:19Z</time>
      </trkpt>
      <trkpt lat="42.428252" lon="0.622368">
        <ele>1187.9</ele>
        <time>2018-06-13T07:03:23Z</time>
      </trkpt>
      <trkpt lat="42.428231" lon="0.621997">
        <ele>1192.3</ele>
        <time>2018-06-13T07:03:31Z</time>
      </trkpt>
      <trkpt lat="42.428208" lon="0.621698">
        <ele>1185.1</ele>
        <time>2018-06-13T07:03:37Z</time>
      </trkpt>
      <trkpt lat="42.428235" lon="0.621482">
        <ele>1183.7</ele>
        <time>2018-06-13T07:03:41Z</time>
      </trkpt>
      <trkpt lat="42.428300" lon="0.621219">
        <ele>1180.6</ele>
        <time>2018-06-13T07:03:47Z</time>
      </trkpt>
      <trkpt lat="42.428441" lon="0.621063">
        <ele>1173.2</ele>
        <time>2018-06-13T07:03:52Z</time>
      </trkpt>
      <trkpt lat="42.428571" lon="0.620894">
        <ele>1170.2</ele>
        <time>2018-06-13T07:03:57Z</time>
      </trkpt>
      <trkpt lat="42.428710" lon="0.620697">
        <ele>1164.6</ele>
        <time>2018-06-13T07:04:02Z</time>
      </trkpt>
      <trkpt lat="42.428776" lon="0.620519">
        <ele>1162.2</ele>
        <time>2018-06-13T07:04:06Z</time>
      </trkpt>
      <trkpt lat="42.428794" lon="0.620287">
        <ele>1159.8</ele>
        <time>2018-06-13T07:04:11Z</time>
      </trkpt>
      <trkpt lat="42.428797" lon="0.619950">
        <ele>1155.4</ele>
        <time>2018-06-13T07:04:17Z</time>
      </trkpt>
      <trkpt lat="42.428856" lon="0.619535">
        <ele>1150.2</ele>
        <time>2018-06-13T07:04:25Z</time>
      </trkpt>
      <trkpt lat="42.428916" lon="0.619331">
        <ele>1149.7</ele>
        <time>2018-06-13T07:04:30Z</time>
      </trkpt>
      <trkpt lat="42.429085" lon="0.618982">
        <ele>1147.9</ele>
        <time>2018-06-13T07:04:38Z</time>
      </trkpt>
      <trkpt lat="42.429160" lon="0.618717">
        <ele>1147.1</ele>
        <time>2018-06-13T07:04:43Z</time>
      </trkpt>
      <trkpt lat="42.429172" lon="0.618430">
        <ele>1148.8</ele>
        <time>2018-06-13T07:04:49Z</time>
      </trkpt>
      <trkpt lat="42.429123" lon="0.618214">
        <ele>1152.6</ele>
        <time>2018-06-13T07:04:54Z</time>
      </trkpt>
      <trkpt lat="42.429059" lon="0.618052">
        <ele>1156.8</ele>
        <time>2018-06-13T07:04:57Z</time>
      </trkpt>
      <trkpt lat="42.428975" lon="0.617924">
        <ele>1161.9</ele>
        <time>2018-06-13T07:05:01Z</time>
      </trkpt>
      <trkpt lat="42.428942" lon="0.617844">
        <ele>1164.7</ele>
        <time>2018-06-13T07:05:03Z</time>
      </trkpt>
      <trkpt lat="42.428923" lon="0.617764">
        <ele>1167.2</ele>
        <time>2018-06-13T07:05:04Z</time>
      </trkpt>
      <trkpt lat="42.428923" lon="0.617665">
        <ele>1169.7</ele>
        <time>2018-06-13T07:05:06Z</time>
      </trkpt>
      <trkpt lat="42.428954" lon="0.617594">
        <ele>1170.6</ele>
        <time>2018-06-13T07:05:08Z</time>
      </trkpt>
      <trkpt lat="42.429040" lon="0.617487">
        <ele>1171.2</ele>
        <time>2018-06-13T07:05:11Z</time>
      </trkpt>
      <trkpt lat="42.429244" lon="0.617381">
        <ele>1172.0</ele>
        <time>2018-06-13T07:05:17Z</time>
      </trkpt>
      <trkpt lat="42.429689" lon="0.617176">
        <ele>1173.1</ele>
        <time>2018-06-13T07:05:29Z</time>
      </trkpt>
      <trkpt lat="42.430319" lon="0.616840">
        <ele>1169.0</ele>
        <time>2018-06-13T07:05:47Z</time>
      </trkpt>
      <trkpt lat="42.430506" lon="0.616708">
        <ele>1170.6</ele>
        <time>2018-06-13T07:05:53Z</time>
      </trkpt>
      <trkpt lat="42.430570" lon="0.616629">
        <ele>1172.5</ele>
        <time>2018-06-13T07:05:55Z</time>
      </trkpt>
      <trkpt lat="42.430577" lon="0.616514">
        <ele>1175.7</ele>
        <time>2018-06-13T07:05:58Z</time>
      </trkpt>
      <trkpt lat="42.430553" lon="0.616388">
        <ele>1179.8</ele>
        <time>2018-06-13T07:06:00Z</time>
      </trkpt>
      <trkpt lat="42.430463" lon="0.616308">
        <ele>1184.0</ele>
        <time>2018-06-13T07:06:03Z</time>
      </trkpt>
      <trkpt lat="42.430238" lon="0.616226">
        <ele>1193.1</ele>
        <time>2018-06-13T07:06:10Z</time>
      </trkpt>
      <trkpt lat="42.430108" lon="0.616206">
        <ele>1197.9</ele>
        <time>2018-06-13T07:06:13Z</time>
      </trkpt>
      <trkpt lat="42.429991" lon="0.616204">
        <ele>1201.7</ele>
        <time>2018-06-13T07:06:17Z</time>
      </trkpt>
      <trkpt lat="42.429817" lon="0.616309">
        <ele>1202.2</ele>
        <time>2018-06-13T07:06:22Z</time>
      </trkpt>
      <trkpt lat="42.429685" lon="0.616354">
        <ele>1202.9</ele>
        <time>2018-06-13T07:06:25Z</time>
      </trkpt>
      <trkpt lat="42.429554" lon="0.616426">
        <ele>1202.4</ele>
        <time>2018-06-13T07:06:29Z</time>
      </trkpt>
      <trkpt lat="42.429508" lon="0.616443">
        <ele>1202.5</ele>
        <time>2018-06-13T07:06:30Z</time>
      </trkpt>
      <trkpt lat="42.429482" lon="0.616372">
        <ele>1206.0</ele>
        <time>2018-06-13T07:06:32Z</time>
      </trkpt>
      <trkpt lat="42.429515" lon="0.616265">
        <ele>1210.1</ele>
        <time>2018-06-13T07:06:35Z</time>
      </trkpt>
      <trkpt lat="42.429666" lon="0.616105">
        <ele>1214.0</ele>
        <time>2018-06-13T07:06:40Z</time>
      </trkpt>
      <trkpt lat="42.429685" lon="0.616078">
        <ele>1214.6</ele>
        <time>2018-06-13T07:06:40Z</time>
      </trkpt>
      <trkpt lat="42.429960" lon="0.615795">
        <ele>1217.5</ele>
        <time>2018-06-13T07:06:50Z</time>
      </trkpt>
      <trkpt lat="42.430133" lon="0.615602">
        <ele>1218.1</ele>
        <time>2018-06-13T07:06:55Z</time>
      </trkpt>
      <trkpt lat="42.430245" lon="0.615577">
        <ele>1213.3</ele>
        <time>2018-06-13T07:06:59Z</time>
      </trkpt>
      <trkpt lat="42.430350" lon="0.615549">
        <ele>1208.9</ele>
        <time>2018-06-13T07:07:02Z</time>
      </trkpt>
      <trkpt lat="42.430409" lon="0.615496">
        <ele>1207.8</ele>
        <time>2018-06-13T07:07:04Z</time>
      </trkpt>
      <trkpt lat="42.430410" lon="0.615397">
        <ele>1210.5</ele>
        <time>2018-06-13T07:07:06Z</time>
      </trkpt>
      <trkpt lat="42.430364" lon="0.615343">
        <ele>1213.1</ele>
        <time>2018-06-13T07:07:07Z</time>
      </trkpt>
      <trkpt lat="42.430278" lon="0.615316">
        <ele>1217.5</ele>
        <time>2018-06-13T07:07:10Z</time>
      </trkpt>
      <trkpt lat="42.430069" lon="0.615362">
        <ele>1224.2</ele>
        <time>2018-06-13T07:07:16Z</time>
      </trkpt>
      <trkpt lat="42.429841" lon="0.615466">
        <ele>1226.4</ele>
        <time>2018-06-13T07:07:22Z</time>
      </trkpt>
      <trkpt lat="42.429434" lon="0.615718">
        <ele>1225.6</ele>
        <time>2018-06-13T07:07:34Z</time>
      </trkpt>
      <trkpt lat="42.429211" lon="0.615875">
        <ele>1225.1</ele>
        <time>2018-06-13T07:07:41Z</time>
      </trkpt>
      <trkpt lat="42.429008" lon="0.616079">
        <ele>1223.6</ele>
        <time>2018-06-13T07:07:47Z</time>
      </trkpt>
      <trkpt lat="42.428955" lon="0.616124">
        <ele>1222.4</ele>
        <time>2018-06-13T07:07:49Z</time>
      </trkpt>
      <trkpt lat="42.428858" lon="0.616115">
        <ele>1223.0</ele>
        <time>2018-06-13T07:07:51Z</time>
      </trkpt>
      <trkpt lat="42.428825" lon="0.616079">
        <ele>1224.1</ele>
        <time>2018-06-13T07:07:53Z</time>
      </trkpt>
      <trkpt lat="42.428844" lon="0.615992">
        <ele>1226.5</ele>
        <time>2018-06-13T07:07:54Z</time>
      </trkpt>
      <trkpt lat="42.428968" lon="0.615837">
        <ele>1230.0</ele>
        <time>2018-06-13T07:07:59Z</time>
      </trkpt>
      <trkpt lat="42.429150" lon="0.615581">
        <ele>1232.4</ele>
        <time>2018-06-13T07:08:06Z</time>
      </trkpt>
      <trkpt lat="42.429461" lon="0.615100">
        <ele>1236.0</ele>
        <time>2018-06-13T07:08:18Z</time>
      </trkpt>
      <trkpt lat="42.429517" lon="0.614931">
        <ele>1240.1</ele>
        <time>2018-06-13T07:08:22Z</time>
      </trkpt>
      <trkpt lat="42.429561" lon="0.614831">
        <ele>1242.0</ele>
        <time>2018-06-13T07:08:24Z</time>
      </trkpt>
      <trkpt lat="42.429572" lon="0.614758">
        <ele>1243.4</ele>
        <time>2018-06-13T07:08:26Z</time>
      </trkpt>
      <trkpt lat="42.429563" lon="0.614710">
        <ele>1244.7</ele>
        <time>2018-06-13T07:08:27Z</time>
      </trkpt>
      <trkpt lat="42.429517" lon="0.614633">
        <ele>1247.5</ele>
        <time>2018-06-13T07:08:29Z</time>
      </trkpt>
      <trkpt lat="42.429471" lon="0.614617">
        <ele>1249.0</ele>
        <time>2018-06-13T07:08:30Z</time>
      </trkpt>
      <trkpt lat="42.429344" lon="0.614736">
        <ele>1248.3</ele>
        <time>2018-06-13T07:08:34Z</time>
      </trkpt>
      <trkpt lat="42.429312" lon="0.614778">
        <ele>1247.6</ele>
        <time>2018-06-13T07:08:36Z</time>
      </trkpt>
      <trkpt lat="42.429196" lon="0.614922">
        <ele>1245.0</ele>
        <time>2018-06-13T07:08:40Z</time>
      </trkpt>
      <trkpt lat="42.429006" lon="0.615088">
        <ele>1246.1</ele>
        <time>2018-06-13T07:08:46Z</time>
      </trkpt>
      <trkpt lat="42.428851" lon="0.615192">
        <ele>1246.3</ele>
        <time>2018-06-13T07:08:50Z</time>
      </trkpt>
      <trkpt lat="42.428752" lon="0.615167">
        <ele>1248.3</ele>
        <time>2018-06-13T07:08:53Z</time>
      </trkpt>
      <trkpt lat="42.428571" lon="0.615092">
        <ele>1249.5</ele>
        <time>2018-06-13T07:08:58Z</time>
      </trkpt>
      <trkpt lat="42.428483" lon="0.615035">
        <ele>1249.8</ele>
        <time>2018-06-13T07:09:01Z</time>
      </trkpt>
      <trkpt lat="42.428463" lon="0.614945">
        <ele>1250.5</ele>
        <time>2018-06-13T07:09:02Z</time>
      </trkpt>
      <trkpt lat="42.428470" lon="0.614793">
        <ele>1253.5</ele>
        <time>2018-06-13T07:09:06Z</time>
      </trkpt>
      <trkpt lat="42.428526" lon="0.614702">
        <ele>1257.2</ele>
        <time>2018-06-13T07:09:08Z</time>
      </trkpt>
      <trkpt lat="42.428621" lon="0.614632">
        <ele>1260.4</ele>
        <time>2018-06-13T07:09:11Z</time>
      </trkpt>
      <trkpt lat="42.428915" lon="0.614449">
        <ele>1263.5</ele>
        <time>2018-06-13T07:09:20Z</time>
      </trkpt>
      <trkpt lat="42.429165" lon="0.614212">
        <ele>1265.4</ele>
        <time>2018-06-13T07:09:28Z</time>
      </trkpt>
      <trkpt lat="42.429260" lon="0.614022">
        <ele>1266.8</ele>
        <time>2018-06-13T07:09:32Z</time>
      </trkpt>
      <trkpt lat="42.429401" lon="0.613575">
        <ele>1275.0</ele>
        <time>2018-06-13T07:09:42Z</time>
      </trkpt>
      <trkpt lat="42.429639" lon="0.613018">
        <ele>1277.1</ele>
        <time>2018-06-13T07:09:54Z</time>
      </trkpt>
      <trkpt lat="42.429720" lon="0.612852">
        <ele>1276.7</ele>
        <time>2018-06-13T07:09:58Z</time>
      </trkpt>
      <trkpt lat="42.429779" lon="0.612625">
        <ele>1280.2</ele>
        <time>2018-06-13T07:10:03Z</time>
      </trkpt>
      <trkpt lat="42.429818" lon="0.612385">
        <ele>1289.5</ele>
        <time>2018-06-13T07:10:08Z</time>
      </trkpt>
      <trkpt lat="42.429849" lon="0.612264">
        <ele>1291.6</ele>
        <time>2018-06-13T07:10:11Z</time>
      </trkpt>
      <trkpt lat="42.429937" lon="0.612072">
        <ele>1289.7</ele>
        <time>2018-06-13T07:10:15Z</time>
      </trkpt>
      <trkpt lat="42.429972" lon="0.611895">
        <ele>1290.4</ele>
        <time>2018-06-13T07:10:19Z</time>
      </trkpt>
      <trkpt lat="42.430050" lon="0.611418">
        <ele>1297.1</ele>
        <time>2018-06-13T07:10:28Z</time>
      </trkpt>
      <trkpt lat="42.430150" lon="0.611021">
        <ele>1309.6</ele>
        <time>2018-06-13T07:10:37Z</time>
      </trkpt>
      <trkpt lat="42.430276" lon="0.610779">
        <ele>1299.1</ele>
        <time>2018-06-13T07:10:43Z</time>
      </trkpt>
      <trkpt lat="42.430452" lon="0.610498">
        <ele>1294.4</ele>
        <time>2018-06-13T07:10:51Z</time>
      </trkpt>
      <trkpt lat="42.430547" lon="0.610280">
        <ele>1289.1</ele>
        <time>2018-06-13T07:10:56Z</time>
      </trkpt>
      <trkpt lat="42.430739" lon="0.609951">
        <ele>1279.2</ele>
        <time>2018-06-13T07:11:04Z</time>
      </trkpt>
      <trkpt lat="42.430906" lon="0.609520">
        <ele>1281.5</ele>
        <time>2018-06-13T07:11:14Z</time>
      </trkpt>
      <trkpt lat="42.431163" lon="0.609016">
        <ele>1280.5</ele>
        <time>2018-06-13T07:11:26Z</time>
      </trkpt>
      <trkpt lat="42.431220" lon="0.608778">
        <ele>1284.2</ele>
        <time>2018-06-13T07:11:31Z</time>
      </trkpt>
      <trkpt lat="42.431287" lon="0.608504">
        <ele>1287.9</ele>
        <time>2018-06-13T07:11:36Z</time>
      </trkpt>
      <trkpt lat="42.431341" lon="0.608301">
        <ele>1292.2</ele>
        <time>2018-06-13T07:11:41Z</time>
      </trkpt>
      <trkpt lat="42.431422" lon="0.608096">
        <ele>1291.9</ele>
        <time>2018-06-13T07:11:45Z</time>
      </trkpt>
      <trkpt lat="42.431490" lon="0.607892">
        <ele>1285.0</ele>
        <time>2018-06-13T07:11:50Z</time>
      </trkpt>
      <trkpt lat="42.431571" lon="0.607633">
        <ele>1279.6</ele>
        <time>2018-06-13T07:11:55Z</time>
      </trkpt>
      <trkpt lat="42.431679" lon="0.607281">
        <ele>1273.7</ele>
        <time>2018-06-13T07:12:03Z</time>
      </trkpt>
      <trkpt lat="42.431897" lon="0.606775">
        <ele>1273.3</ele>
        <time>2018-06-13T07:12:14Z</time>
      </trkpt>
      <trkpt lat="42.432129" lon="0.606358">
        <ele>1269.8</ele>
        <time>2018-06-13T07:12:25Z</time>
      </trkpt>
      <trkpt lat="42.432389" lon="0.605970">
        <ele>1259.1</ele>
        <time>2018-06-13T07:12:35Z</time>
      </trkpt>
      <trkpt lat="42.432502" lon="0.605688">
        <ele>1258.0</ele>
        <time>2018-06-13T07:12:41Z</time>
      </trkpt>
      <trkpt lat="42.432626" lon="0.605318">
        <ele>1261.8</ele>
        <time>2018-06-13T07:12:49Z</time>
      </trkpt>
      <trkpt lat="42.432791" lon="0.604838">
        <ele>1268.5</ele>
        <time>2018-06-13T07:13:00Z</time>
      </trkpt>
      <trkpt lat="42.432968" lon="0.604394">
        <ele>1268.3</ele>
        <time>2018-06-13T07:13:10Z</time>
      </trkpt>
      <trkpt lat="42.433051" lon="0.603992">
        <ele>1265.8</ele>
        <time>2018-06-13T07:13:18Z</time>
      </trkpt>
      <trkpt lat="42.433161" lon="0.603191">
        <ele>1262.4</ele>
        <time>2018-06-13T07:13:34Z</time>
      </trkpt>
      <trkpt lat="42.433181" lon="0.602041">
        <ele>1261.9</ele>
        <time>2018-06-13T07:13:56Z</time>
      </trkpt>
      <trkpt lat="42.433167" lon="0.601319">
        <ele>1261.2</ele>
        <time>2018-06-13T07:14:10Z</time>
      </trkpt>
      <trkpt lat="42.433114" lon="0.601078">
        <ele>1268.9</ele>
        <time>2018-06-13T07:14:16Z</time>
      </trkpt>
      <trkpt lat="42.433114" lon="0.600614">
        <ele>1276.1</ele>
        <time>2018-06-13T07:14:25Z</time>
      </trkpt>
      <trkpt lat="42.433207" lon="0.599827">
        <ele>1264.0</ele>
        <time>2018-06-13T07:14:41Z</time>
      </trkpt>
      <trkpt lat="42.433234" lon="0.599376">
        <ele>1259.8</ele>
        <time>2018-06-13T07:14:49Z</time>
      </trkpt>
      <trkpt lat="42.433285" lon="0.598859">
        <ele>1251.5</ele>
        <time>2018-06-13T07:15:00Z</time>
      </trkpt>
      <trkpt lat="42.433286" lon="0.598611">
        <ele>1250.5</ele>
        <time>2018-06-13T07:15:05Z</time>
      </trkpt>
      <trkpt lat="42.433288" lon="0.598333">
        <ele>1252.6</ele>
        <time>2018-06-13T07:15:10Z</time>
      </trkpt>
      <trkpt lat="42.433236" lon="0.598166">
        <ele>1256.6</ele>
        <time>2018-06-13T07:15:14Z</time>
      </trkpt>
      <trkpt lat="42.433146" lon="0.597954">
        <ele>1265.8</ele>
        <time>2018-06-13T07:15:19Z</time>
      </trkpt>
      <trkpt lat="42.433029" lon="0.597781">
        <ele>1278.5</ele>
        <time>2018-06-13T07:15:24Z</time>
      </trkpt>
      <trkpt lat="42.432952" lon="0.597706">
        <ele>1286.1</ele>
        <time>2018-06-13T07:15:27Z</time>
      </trkpt>
      <trkpt lat="42.432877" lon="0.597583">
        <ele>1295.6</ele>
        <time>2018-06-13T07:15:31Z</time>
      </trkpt>
      <trkpt lat="42.432905" lon="0.597462">
        <ele>1299.2</ele>
        <time>2018-06-13T07:15:34Z</time>
      </trkpt>
      <trkpt lat="42.432989" lon="0.597401">
        <ele>1295.9</ele>
        <time>2018-06-13T07:15:37Z</time>
      </trkpt>
      <trkpt lat="42.433151" lon="0.597277">
        <ele>1288.4</ele>
        <time>2018-06-13T07:15:42Z</time>
      </trkpt>
      <trkpt lat="42.433266" lon="0.597170">
        <ele>1286.0</ele>
        <time>2018-06-13T07:15:46Z</time>
      </trkpt>
      <trkpt lat="42.433333" lon="0.596998">
        <ele>1288.9</ele>
        <time>2018-06-13T07:15:49Z</time>
      </trkpt>
      <trkpt lat="42.433400" lon="0.596675">
        <ele>1289.0</ele>
        <time>2018-06-13T07:15:56Z</time>
      </trkpt>
      <trkpt lat="42.433557" lon="0.595821">
        <ele>1288.8</ele>
        <time>2018-06-13T07:16:13Z</time>
      </trkpt>
      <trkpt lat="42.433676" lon="0.595144">
        <ele>1287.5</ele>
        <time>2018-06-13T07:16:27Z</time>
      </trkpt>
      <trkpt lat="42.433676" lon="0.594891">
        <ele>1286.1</ele>
        <time>2018-06-13T07:16:32Z</time>
      </trkpt>
      <trkpt lat="42.433689" lon="0.594554">
        <ele>1283.3</ele>
        <time>2018-06-13T07:16:38Z</time>
      </trkpt>
      <trkpt lat="42.433689" lon="0.594322">
        <ele>1284.2</ele>
        <time>2018-06-13T07:16:43Z</time>
      </trkpt>
      <trkpt lat="42.433664" lon="0.594161">
        <ele>1289.1</ele>
        <time>2018-06-13T07:16:46Z</time>
      </trkpt>
      <trkpt lat="42.433598" lon="0.594027">
        <ele>1296.8</ele>
        <time>2018-06-13T07:16:50Z</time>
      </trkpt>
      <trkpt lat="42.433579" lon="0.593810">
        <ele>1315.0</ele>
        <time>2018-06-13T07:16:56Z</time>
      </trkpt>
      <trkpt lat="42.433630" lon="0.593704">
        <ele>1318.8</ele>
        <time>2018-06-13T07:16:58Z</time>
      </trkpt>
      <trkpt lat="42.433818" lon="0.593525">
        <ele>1316.8</ele>
        <time>2018-06-13T07:17:05Z</time>
      </trkpt>
      <trkpt lat="42.433843" lon="0.593487">
        <ele>1316.9</ele>
        <time>2018-06-13T07:17:06Z</time>
      </trkpt>
      <trkpt lat="42.433933" lon="0.593321">
        <ele>1314.2</ele>
        <time>2018-06-13T07:17:10Z</time>
      </trkpt>
      <trkpt lat="42.434115" lon="0.592901">
        <ele>1310.7</ele>
        <time>2018-06-13T07:17:19Z</time>
      </trkpt>
      <trkpt lat="42.434190" lon="0.592601">
        <ele>1310.7</ele>
        <time>2018-06-13T07:17:25Z</time>
      </trkpt>
      <trkpt lat="42.434278" lon="0.592016">
        <ele>1307.3</ele>
        <time>2018-06-13T07:17:37Z</time>
      </trkpt>
      <trkpt lat="42.434327" lon="0.591678">
        <ele>1307.3</ele>
        <time>2018-06-13T07:17:44Z</time>
      </trkpt>
      <trkpt lat="42.434424" lon="0.591402">
        <ele>1304.1</ele>
        <time>2018-06-13T07:17:50Z</time>
      </trkpt>
      <trkpt lat="42.434584" lon="0.590975">
        <ele>1295.9</ele>
        <time>2018-06-13T07:17:59Z</time>
      </trkpt>
      <trkpt lat="42.434691" lon="0.590766">
        <ele>1295.5</ele>
        <time>2018-06-13T07:18:04Z</time>
      </trkpt>
      <trkpt lat="42.434742" lon="0.590515">
        <ele>1293.1</ele>
        <time>2018-06-13T07:18:09Z</time>
      </trkpt>
      <trkpt lat="42.434730" lon="0.590267">
        <ele>1292.7</ele>
        <time>2018-06-13T07:18:14Z</time>
      </trkpt>
      <trkpt lat="42.434706" lon="0.589738">
        <ele>1294.2</ele>
        <time>2018-06-13T07:18:24Z</time>
      </trkpt>
      <trkpt lat="42.434706" lon="0.589349">
        <ele>1298.5</ele>
        <time>2018-06-13T07:18:32Z</time>
      </trkpt>
      <trkpt lat="42.434674" lon="0.588991">
        <ele>1302.9</ele>
        <time>2018-06-13T07:18:39Z</time>
      </trkpt>
      <trkpt lat="42.434702" lon="0.588778">
        <ele>1301.3</ele>
        <time>2018-06-13T07:18:43Z</time>
      </trkpt>
      <trkpt lat="42.434765" lon="0.588475">
        <ele>1300.5</ele>
        <time>2018-06-13T07:18:50Z</time>
      </trkpt>
      <trkpt lat="42.434831" lon="0.588278">
        <ele>1299.7</ele>
        <time>2018-06-13T07:18:54Z</time>
      </trkpt>
      <trkpt lat="42.434948" lon="0.588201">
        <ele>1293.3</ele>
        <time>2018-06-13T07:18:58Z</time>
      </trkpt>
      <trkpt lat="42.435054" lon="0.588108">
        <ele>1288.4</ele>
        <time>2018-06-13T07:19:01Z</time>
      </trkpt>
      <trkpt lat="42.435131" lon="0.587997">
        <ele>1285.8</ele>
        <time>2018-06-13T07:19:04Z</time>
      </trkpt>
      <trkpt lat="42.435158" lon="0.587802">
        <ele>1286.9</ele>
        <time>2018-06-13T07:19:08Z</time>
      </trkpt>
      <trkpt lat="42.435197" lon="0.587503">
        <ele>1287.2</ele>
        <time>2018-06-13T07:19:14Z</time>
      </trkpt>
      <trkpt lat="42.435276" lon="0.587045">
        <ele>1287.4</ele>
        <time>2018-06-13T07:19:23Z</time>
      </trkpt>
      <trkpt lat="42.435354" lon="0.586606">
        <ele>1288.8</ele>
        <time>2018-06-13T07:19:32Z</time>
      </trkpt>
      <trkpt lat="42.435420" lon="0.586309">
        <ele>1289.3</ele>
        <time>2018-06-13T07:19:38Z</time>
      </trkpt>
      <trkpt lat="42.435525" lon="0.586095">
        <ele>1286.2</ele>
        <time>2018-06-13T07:19:43Z</time>
      </trkpt>
      <trkpt lat="42.435670" lon="0.585789">
        <ele>1283.1</ele>
        <time>2018-06-13T07:19:50Z</time>
      </trkpt>
      <trkpt lat="42.435801" lon="0.585346">
        <ele>1288.5</ele>
        <time>2018-06-13T07:19:59Z</time>
      </trkpt>
      <trkpt lat="42.435918" lon="0.584787">
        <ele>1287.4</ele>
        <time>2018-06-13T07:20:11Z</time>
      </trkpt>
      <trkpt lat="42.436048" lon="0.584313">
        <ele>1288.5</ele>
        <time>2018-06-13T07:20:21Z</time>
      </trkpt>
      <trkpt lat="42.436168" lon="0.584027">
        <ele>1284.3</ele>
        <time>2018-06-13T07:20:27Z</time>
      </trkpt>
      <trkpt lat="42.436401" lon="0.583786">
        <ele>1265.4</ele>
        <time>2018-06-13T07:20:36Z</time>
      </trkpt>
      <trkpt lat="42.436623" lon="0.583531">
        <ele>1258.0</ele>
        <time>2018-06-13T07:20:44Z</time>
      </trkpt>
      <trkpt lat="42.436808" lon="0.583385">
        <ele>1255.6</ele>
        <time>2018-06-13T07:20:50Z</time>
      </trkpt>
      <trkpt lat="42.436965" lon="0.583278">
        <ele>1257.2</ele>
        <time>2018-06-13T07:20:54Z</time>
      </trkpt>
      <trkpt lat="42.437054" lon="0.583236">
        <ele>1258.2</ele>
        <time>2018-06-13T07:20:57Z</time>
      </trkpt>
      <trkpt lat="42.437089" lon="0.583212">
        <ele>1258.9</ele>
        <time>2018-06-13T07:20:58Z</time>
      </trkpt>
      <trkpt lat="42.437097" lon="0.583142">
        <ele>1259.8</ele>
        <time>2018-06-13T07:20:59Z</time>
      </trkpt>
      <trkpt lat="42.437061" lon="0.583091">
        <ele>1260.0</ele>
        <time>2018-06-13T07:21:01Z</time>
      </trkpt>
      <trkpt lat="42.437012" lon="0.583056">
        <ele>1260.2</ele>
        <time>2018-06-13T07:21:02Z</time>
      </trkpt>
      <trkpt lat="42.436959" lon="0.583001">
        <ele>1260.8</ele>
        <time>2018-06-13T07:21:04Z</time>
      </trkpt>
      <trkpt lat="42.436889" lon="0.582901">
        <ele>1262.3</ele>
        <time>2018-06-13T07:21:07Z</time>
      </trkpt>
      <trkpt lat="42.436809" lon="0.582704">
        <ele>1266.6</ele>
        <time>2018-06-13T07:21:11Z</time>
      </trkpt>
      <trkpt lat="42.436721" lon="0.582495">
        <ele>1271.6</ele>
        <time>2018-06-13T07:21:16Z</time>
      </trkpt>
      <trkpt lat="42.436674" lon="0.582406">
        <ele>1274.2</ele>
        <time>2018-06-13T07:21:18Z</time>
      </trkpt>
      <trkpt lat="42.436675" lon="0.582308">
        <ele>1276.7</ele>
        <time>2018-06-13T07:21:20Z</time>
      </trkpt>
      <trkpt lat="42.436706" lon="0.582258">
        <ele>1277.7</ele>
        <time>2018-06-13T07:21:21Z</time>
      </trkpt>
      <trkpt lat="42.436760" lon="0.582248">
        <ele>1277.3</ele>
        <time>2018-06-13T07:21:23Z</time>
      </trkpt>
      <trkpt lat="42.436813" lon="0.582248">
        <ele>1276.8</ele>
        <time>2018-06-13T07:21:24Z</time>
      </trkpt>
      <trkpt lat="42.436866" lon="0.582273">
        <ele>1275.6</ele>
        <time>2018-06-13T07:21:26Z</time>
      </trkpt>
      <trkpt lat="42.437062" lon="0.582466">
        <ele>1269.3</ele>
        <time>2018-06-13T07:21:32Z</time>
      </trkpt>
      <trkpt lat="42.437141" lon="0.582592">
        <ele>1267.5</ele>
        <time>2018-06-13T07:21:36Z</time>
      </trkpt>
      <trkpt lat="42.437196" lon="0.582624">
        <ele>1267.5</ele>
        <time>2018-06-13T07:21:37Z</time>
      </trkpt>
      <trkpt lat="42.437250" lon="0.582608">
        <ele>1268.4</ele>
        <time>2018-06-13T07:21:39Z</time>
      </trkpt>
      <trkpt lat="42.437320" lon="0.582542">
        <ele>1270.3</ele>
        <time>2018-06-13T07:21:41Z</time>
      </trkpt>
      <trkpt lat="42.437396" lon="0.582407">
        <ele>1273.3</ele>
        <time>2018-06-13T07:21:44Z</time>
      </trkpt>
      <trkpt lat="42.437551" lon="0.582142">
        <ele>1279.9</ele>
        <time>2018-06-13T07:21:51Z</time>
      </trkpt>
      <trkpt lat="42.437642" lon="0.582005">
        <ele>1281.7</ele>
        <time>2018-06-13T07:21:55Z</time>
      </trkpt>
      <trkpt lat="42.437668" lon="0.581828">
        <ele>1285.2</ele>
        <time>2018-06-13T07:21:58Z</time>
      </trkpt>
      <trkpt lat="42.437685" lon="0.581702">
        <ele>1287.4</ele>
        <time>2018-06-13T07:22:01Z</time>
      </trkpt>
      <trkpt lat="42.437771" lon="0.581442">
        <ele>1290.5</ele>
        <time>2018-06-13T07:22:07Z</time>
      </trkpt>
      <trkpt lat="42.437834" lon="0.581233">
        <ele>1292.1</ele>
        <time>2018-06-13T07:22:11Z</time>
      </trkpt>
      <trkpt lat="42.437844" lon="0.581002">
        <ele>1295.4</ele>
        <time>2018-06-13T07:22:15Z</time>
      </trkpt>
      <trkpt lat="42.437873" lon="0.580836">
        <ele>1297.5</ele>
        <time>2018-06-13T07:22:19Z</time>
      </trkpt>
      <trkpt lat="42.437927" lon="0.580680">
        <ele>1299.2</ele>
        <time>2018-06-13T07:22:22Z</time>
      </trkpt>
      <trkpt lat="42.438087" lon="0.580398">
        <ele>1304.1</ele>
        <time>2018-06-13T07:22:29Z</time>
      </trkpt>
      <trkpt lat="42.438412" lon="0.580028">
        <ele>1304.9</ele>
        <time>2018-06-13T07:22:40Z</time>
      </trkpt>
      <trkpt lat="42.438613" lon="0.579707">
        <ele>1309.2</ele>
        <time>2018-06-13T07:22:49Z</time>
      </trkpt>
      <trkpt lat="42.438924" lon="0.579347">
        <ele>1320.0</ele>
        <time>2018-06-13T07:23:00Z</time>
      </trkpt>
      <trkpt lat="42.439076" lon="0.579094">
        <ele>1324.4</ele>
        <time>2018-06-13T07:23:06Z</time>
      </trkpt>
      <trkpt lat="42.439183" lon="0.578917">
        <ele>1325.1</ele>
        <time>2018-06-13T07:23:11Z</time>
      </trkpt>
      <trkpt lat="42.439301" lon="0.578631">
        <ele>1328.1</ele>
        <time>2018-06-13T07:23:17Z</time>
      </trkpt>
      <trkpt lat="42.439630" lon="0.578104">
        <ele>1328.0</ele>
        <time>2018-06-13T07:23:31Z</time>
      </trkpt>
      <trkpt lat="42.439760" lon="0.577844">
        <ele>1331.2</ele>
        <time>2018-06-13T07:23:37Z</time>
      </trkpt>
      <trkpt lat="42.439831" lon="0.577594">
        <ele>1330.3</ele>
        <time>2018-06-13T07:23:42Z</time>
      </trkpt>
      <trkpt lat="42.439902" lon="0.577359">
        <ele>1330.7</ele>
        <time>2018-06-13T07:23:47Z</time>
      </trkpt>
      <trkpt lat="42.439973" lon="0.577175">
        <ele>1333.1</ele>
        <time>2018-06-13T07:23:51Z</time>
      </trkpt>
      <trkpt lat="42.440092" lon="0.577076">
        <ele>1332.1</ele>
        <time>2018-06-13T07:23:55Z</time>
      </trkpt>
      <trkpt lat="42.440193" lon="0.576913">
        <ele>1332.4</ele>
        <time>2018-06-13T07:23:59Z</time>
      </trkpt>
      <trkpt lat="42.440203" lon="0.576741">
        <ele>1334.0</ele>
        <time>2018-06-13T07:24:02Z</time>
      </trkpt>
      <trkpt lat="42.440219" lon="0.576625">
        <ele>1334.5</ele>
        <time>2018-06-13T07:24:05Z</time>
      </trkpt>
      <trkpt lat="42.440234" lon="0.576487">
        <ele>1335.1</ele>
        <time>2018-06-13T07:24:07Z</time>
      </trkpt>
      <trkpt lat="42.440250" lon="0.576370">
        <ele>1335.1</ele>
        <time>2018-06-13T07:24:10Z</time>
      </trkpt>
      <trkpt lat="42.440260" lon="0.576254">
        <ele>1335.2</ele>
        <time>2018-06-13T07:24:12Z</time>
      </trkpt>
      <trkpt lat="42.440250" lon="0.576149">
        <ele>1334.8</ele>
        <time>2018-06-13T07:24:14Z</time>
      </trkpt>
      <trkpt lat="42.440190" lon="0.576081">
        <ele>1335.8</ele>
        <time>2018-06-13T07:24:16Z</time>
      </trkpt>
      <trkpt lat="42.440115" lon="0.576110">
        <ele>1337.7</ele>
        <time>2018-06-13T07:24:18Z</time>
      </trkpt>
      <trkpt lat="42.440069" lon="0.576209">
        <ele>1339.2</ele>
        <time>2018-06-13T07:24:20Z</time>
      </trkpt>
      <trkpt lat="42.440017" lon="0.576351">
        <ele>1340.6</ele>
        <time>2018-06-13T07:24:24Z</time>
      </trkpt>
      <trkpt lat="42.439979" lon="0.576480">
        <ele>1341.3</ele>
        <time>2018-06-13T07:24:26Z</time>
      </trkpt>
      <trkpt lat="42.439956" lon="0.576586">
        <ele>1341.1</ele>
        <time>2018-06-13T07:24:28Z</time>
      </trkpt>
      <trkpt lat="42.439890" lon="0.576645">
        <ele>1342.1</ele>
        <time>2018-06-13T07:24:31Z</time>
      </trkpt>
      <trkpt lat="42.439822" lon="0.576662">
        <ele>1342.5</ele>
        <time>2018-06-13T07:24:32Z</time>
      </trkpt>
      <trkpt lat="42.439787" lon="0.576572">
        <ele>1344.0</ele>
        <time>2018-06-13T07:24:34Z</time>
      </trkpt>
      <trkpt lat="42.439787" lon="0.576459">
        <ele>1344.9</ele>
        <time>2018-06-13T07:24:37Z</time>
      </trkpt>
      <trkpt lat="42.439794" lon="0.576282">
        <ele>1345.2</ele>
        <time>2018-06-13T07:24:40Z</time>
      </trkpt>
      <trkpt lat="42.439795" lon="0.576117">
        <ele>1345.7</ele>
        <time>2018-06-13T07:24:43Z</time>
      </trkpt>
      <trkpt lat="42.439797" lon="0.575931">
        <ele>1345.9</ele>
        <time>2018-06-13T07:24:47Z</time>
      </trkpt>
      <trkpt lat="42.439765" lon="0.575631">
        <ele>1345.8</ele>
        <time>2018-06-13T07:24:53Z</time>
      </trkpt>
      <trkpt lat="42.439693" lon="0.575411">
        <ele>1350.3</ele>
        <time>2018-06-13T07:24:58Z</time>
      </trkpt>
      <trkpt lat="42.439633" lon="0.575208">
        <ele>1355.4</ele>
        <time>2018-06-13T07:25:02Z</time>
      </trkpt>
      <trkpt lat="42.439584" lon="0.575108">
        <ele>1358.6</ele>
        <time>2018-06-13T07:25:04Z</time>
      </trkpt>
      <trkpt lat="42.439488" lon="0.575096">
        <ele>1361.3</ele>
        <time>2018-06-13T07:25:07Z</time>
      </trkpt>
      <trkpt lat="42.439331" lon="0.575293">
        <ele>1361.1</ele>
        <time>2018-06-13T07:25:13Z</time>
      </trkpt>
      <trkpt lat="42.439173" lon="0.575430">
        <ele>1363.1</ele>
        <time>2018-06-13T07:25:18Z</time>
      </trkpt>
      <trkpt lat="42.439041" lon="0.575513">
        <ele>1365.2</ele>
        <time>2018-06-13T07:25:22Z</time>
      </trkpt>
      <trkpt lat="42.438913" lon="0.575528">
        <ele>1370.7</ele>
        <time>2018-06-13T07:25:25Z</time>
      </trkpt>
      <trkpt lat="42.438758" lon="0.575546">
        <ele>1377.4</ele>
        <time>2018-06-13T07:25:30Z</time>
      </trkpt>
      <trkpt lat="42.438555" lon="0.575536">
        <ele>1383.8</ele>
        <time>2018-06-13T07:25:35Z</time>
      </trkpt>
      <trkpt lat="42.438230" lon="0.575658">
        <ele>1385.6</ele>
        <time>2018-06-13T07:25:44Z</time>
      </trkpt>
      <trkpt lat="42.437706" lon="0.575849">
        <ele>1386.7</ele>
        <time>2018-06-13T07:25:58Z</time>
      </trkpt>
      <trkpt lat="42.436802" lon="0.576285">
        <ele>1406.3</ele>
        <time>2018-06-13T07:26:24Z</time>
      </trkpt>
      <trkpt lat="42.436675" lon="0.576340">
        <ele>1408.0</ele>
        <time>2018-06-13T07:26:28Z</time>
      </trkpt>
      <trkpt lat="42.436538" lon="0.576367">
        <ele>1410.4</ele>
        <time>2018-06-13T07:26:31Z</time>
      </trkpt>
      <trkpt lat="42.436357" lon="0.576340">
        <ele>1413.5</ele>
        <time>2018-06-13T07:26:36Z</time>
      </trkpt>
      <trkpt lat="42.436093" lon="0.576243">
        <ele>1420.1</ele>
        <time>2018-06-13T07:26:44Z</time>
      </trkpt>
      <trkpt lat="42.435884" lon="0.576162">
        <ele>1426.9</ele>
        <time>2018-06-13T07:26:50Z</time>
      </trkpt>
      <trkpt lat="42.435694" lon="0.576050">
        <ele>1434.3</ele>
        <time>2018-06-13T07:26:55Z</time>
      </trkpt>
      <trkpt lat="42.435548" lon="0.576044">
        <ele>1433.8</ele>
        <time>2018-06-13T07:26:59Z</time>
      </trkpt>
      <trkpt lat="42.435433" lon="0.576120">
        <ele>1429.1</ele>
        <time>2018-06-13T07:27:03Z</time>
      </trkpt>
      <trkpt lat="42.435378" lon="0.576270">
        <ele>1421.5</ele>
        <time>2018-06-13T07:27:07Z</time>
      </trkpt>
      <trkpt lat="42.435306" lon="0.576388">
        <ele>1418.6</ele>
        <time>2018-06-13T07:27:10Z</time>
      </trkpt>
      <trkpt lat="42.435235" lon="0.576458">
        <ele>1418.1</ele>
        <time>2018-06-13T07:27:12Z</time>
      </trkpt>
      <trkpt lat="42.435164" lon="0.576447">
        <ele>1419.7</ele>
        <time>2018-06-13T07:27:14Z</time>
      </trkpt>
      <trkpt lat="42.435112" lon="0.576452">
        <ele>1420.9</ele>
        <time>2018-06-13T07:27:15Z</time>
      </trkpt>
      <trkpt lat="42.435075" lon="0.576490">
        <ele>1421.4</ele>
        <time>2018-06-13T07:27:17Z</time>
      </trkpt>
      <trkpt lat="42.435090" lon="0.576604">
        <ele>1419.5</ele>
        <time>2018-06-13T07:27:19Z</time>
      </trkpt>
      <trkpt lat="42.435107" lon="0.576967">
        <ele>1414.9</ele>
        <time>2018-06-13T07:27:26Z</time>
      </trkpt>
      <trkpt lat="42.435090" lon="0.577238">
        <ele>1410.8</ele>
        <time>2018-06-13T07:27:31Z</time>
      </trkpt>
      <trkpt lat="42.435052" lon="0.577649">
        <ele>1408.5</ele>
        <time>2018-06-13T07:27:39Z</time>
      </trkpt>
      <trkpt lat="42.435029" lon="0.577841">
        <ele>1411.1</ele>
        <time>2018-06-13T07:27:43Z</time>
      </trkpt>
      <trkpt lat="42.435016" lon="0.577893">
        <ele>1412.1</ele>
        <time>2018-06-13T07:27:44Z</time>
      </trkpt>
      <trkpt lat="42.434983" lon="0.577967">
        <ele>1414.8</ele>
        <time>2018-06-13T07:27:46Z</time>
      </trkpt>
      <trkpt lat="42.434951" lon="0.577972">
        <ele>1416.2</ele>
        <time>2018-06-13T07:27:47Z</time>
      </trkpt>
      <trkpt lat="42.434921" lon="0.577921">
        <ele>1416.5</ele>
        <time>2018-06-13T07:27:48Z</time>
      </trkpt>
      <trkpt lat="42.434893" lon="0.577818">
        <ele>1416.6</ele>
        <time>2018-06-13T07:27:51Z</time>
      </trkpt>
      <trkpt lat="42.434838" lon="0.577560">
        <ele>1416.8</ele>
        <time>2018-06-13T07:27:56Z</time>
      </trkpt>
      <trkpt lat="42.434740" lon="0.577152">
        <ele>1421.2</ele>
        <time>2018-06-13T07:28:04Z</time>
      </trkpt>
      <trkpt lat="42.434657" lon="0.576952">
        <ele>1425.2</ele>
        <time>2018-06-13T07:28:09Z</time>
      </trkpt>
      <trkpt lat="42.434435" lon="0.576695">
        <ele>1431.7</ele>
        <time>2018-06-13T07:28:17Z</time>
      </trkpt>
      <trkpt lat="42.434349" lon="0.576594">
        <ele>1433.9</ele>
        <time>2018-06-13T07:28:20Z</time>
      </trkpt>
      <trkpt lat="42.434250" lon="0.576538">
        <ele>1436.5</ele>
        <time>2018-06-13T07:28:23Z</time>
      </trkpt>
      <trkpt lat="42.434128" lon="0.576599">
        <ele>1439.2</ele>
        <time>2018-06-13T07:28:26Z</time>
      </trkpt>
      <trkpt lat="42.434050" lon="0.576673">
        <ele>1440.3</ele>
        <time>2018-06-13T07:28:29Z</time>
      </trkpt>
      <trkpt lat="42.433939" lon="0.576718">
        <ele>1441.6</ele>
        <time>2018-06-13T07:28:32Z</time>
      </trkpt>
      <trkpt lat="42.433808" lon="0.576661">
        <ele>1444.7</ele>
        <time>2018-06-13T07:28:35Z</time>
      </trkpt>
      <trkpt lat="42.433723" lon="0.576560">
        <ele>1447.9</ele>
        <time>2018-06-13T07:28:38Z</time>
      </trkpt>
      <trkpt lat="42.433685" lon="0.576387">
        <ele>1451.3</ele>
        <time>2018-06-13T07:28:42Z</time>
      </trkpt>
      <trkpt lat="42.433617" lon="0.576073">
        <ele>1457.1</ele>
        <time>2018-06-13T07:28:49Z</time>
      </trkpt>
      <trkpt lat="42.433613" lon="0.575889">
        <ele>1460.6</ele>
        <time>2018-06-13T07:28:52Z</time>
      </trkpt>
      <trkpt lat="42.433618" lon="0.575717">
        <ele>1464.9</ele>
        <time>2018-06-13T07:28:56Z</time>
      </trkpt>
      <trkpt lat="42.433633" lon="0.575546">
        <ele>1468.8</ele>
        <time>2018-06-13T07:28:59Z</time>
      </trkpt>
      <trkpt lat="42.433640" lon="0.575444">
        <ele>1471.1</ele>
        <time>2018-06-13T07:29:01Z</time>
      </trkpt>
      <trkpt lat="42.433628" lon="0.575340">
        <ele>1474.6</ele>
        <time>2018-06-13T07:29:04Z</time>
      </trkpt>
      <trkpt lat="42.433603" lon="0.575288">
        <ele>1476.8</ele>
        <time>2018-06-13T07:29:05Z</time>
      </trkpt>
      <trkpt lat="42.433546" lon="0.575283">
        <ele>1478.3</ele>
        <time>2018-06-13T07:29:06Z</time>
      </trkpt>
      <trkpt lat="42.433447" lon="0.575307">
        <ele>1478.6</ele>
        <time>2018-06-13T07:29:09Z</time>
      </trkpt>
      <trkpt lat="42.433378" lon="0.575325">
        <ele>1476.3</ele>
        <time>2018-06-13T07:29:11Z</time>
      </trkpt>
      <trkpt lat="42.433314" lon="0.575314">
        <ele>1475.0</ele>
        <time>2018-06-13T07:29:13Z</time>
      </trkpt>
      <trkpt lat="42.433287" lon="0.575276">
        <ele>1475.8</ele>
        <time>2018-06-13T07:29:14Z</time>
      </trkpt>
      <trkpt lat="42.433291" lon="0.575204">
        <ele>1478.4</ele>
        <time>2018-06-13T07:29:15Z</time>
      </trkpt>
      <trkpt lat="42.433346" lon="0.575006">
        <ele>1485.9</ele>
        <time>2018-06-13T07:29:20Z</time>
      </trkpt>
      <trkpt lat="42.433466" lon="0.574693">
        <ele>1490.4</ele>
        <time>2018-06-13T07:29:27Z</time>
      </trkpt>
      <trkpt lat="42.433585" lon="0.574457">
        <ele>1492.2</ele>
        <time>2018-06-13T07:29:32Z</time>
      </trkpt>
      <trkpt lat="42.433757" lon="0.574157">
        <ele>1496.5</ele>
        <time>2018-06-13T07:29:40Z</time>
      </trkpt>
      <trkpt lat="42.433823" lon="0.574022">
        <ele>1497.2</ele>
        <time>2018-06-13T07:29:43Z</time>
      </trkpt>
      <trkpt lat="42.433920" lon="0.573943">
        <ele>1495.9</ele>
        <time>2018-06-13T07:29:46Z</time>
      </trkpt>
      <trkpt lat="42.434029" lon="0.573934">
        <ele>1493.7</ele>
        <time>2018-06-13T07:29:49Z</time>
      </trkpt>
      <trkpt lat="42.434183" lon="0.573966">
        <ele>1492.6</ele>
        <time>2018-06-13T07:29:53Z</time>
      </trkpt>
      <trkpt lat="42.434393" lon="0.574038">
        <ele>1492.7</ele>
        <time>2018-06-13T07:29:59Z</time>
      </trkpt>
      <trkpt lat="42.434619" lon="0.574205">
        <ele>1493.9</ele>
        <time>2018-06-13T07:30:06Z</time>
      </trkpt>
      <trkpt lat="42.434748" lon="0.574215">
        <ele>1493.8</ele>
        <time>2018-06-13T07:30:09Z</time>
      </trkpt>
      <trkpt lat="42.434854" lon="0.574210">
        <ele>1494.0</ele>
        <time>2018-06-13T07:30:12Z</time>
      </trkpt>
      <trkpt lat="42.434919" lon="0.574161">
        <ele>1494.1</ele>
        <time>2018-06-13T07:30:14Z</time>
      </trkpt>
      <trkpt lat="42.434940" lon="0.574055">
        <ele>1494.9</ele>
        <time>2018-06-13T07:30:16Z</time>
      </trkpt>
      <trkpt lat="42.434940" lon="0.573951">
        <ele>1496.1</ele>
        <time>2018-06-13T07:30:18Z</time>
      </trkpt>
      <trkpt lat="42.434897" lon="0.573818">
        <ele>1498.0</ele>
        <time>2018-06-13T07:30:21Z</time>
      </trkpt>
      <trkpt lat="42.434820" lon="0.573628">
        <ele>1501.0</ele>
        <time>2018-06-13T07:30:25Z</time>
      </trkpt>
      <trkpt lat="42.434713" lon="0.573410">
        <ele>1501.4</ele>
        <time>2018-06-13T07:30:30Z</time>
      </trkpt>
      <trkpt lat="42.434615" lon="0.573297">
        <ele>1499.1</ele>
        <time>2018-06-13T07:30:34Z</time>
      </trkpt>
      <trkpt lat="42.434530" lon="0.573229">
        <ele>1497.9</ele>
        <time>2018-06-13T07:30:36Z</time>
      </trkpt>
      <trkpt lat="42.434435" lon="0.573236">
        <ele>1497.6</ele>
        <time>2018-06-13T07:30:39Z</time>
      </trkpt>
      <trkpt lat="42.434308" lon="0.573260">
        <ele>1497.2</ele>
        <time>2018-06-13T07:30:42Z</time>
      </trkpt>
      <trkpt lat="42.434182" lon="0.573342">
        <ele>1498.0</ele>
        <time>2018-06-13T07:30:46Z</time>
      </trkpt>
      <trkpt lat="42.434015" lon="0.573427">
        <ele>1499.0</ele>
        <time>2018-06-13T07:30:51Z</time>
      </trkpt>
      <trkpt lat="42.433902" lon="0.573464">
        <ele>1500.8</ele>
        <time>2018-06-13T07:30:54Z</time>
      </trkpt>
      <trkpt lat="42.433799" lon="0.573471">
        <ele>1502.3</ele>
        <time>2018-06-13T07:30:56Z</time>
      </trkpt>
      <trkpt lat="42.433717" lon="0.573477">
        <ele>1503.3</ele>
        <time>2018-06-13T07:30:59Z</time>
      </trkpt>
      <trkpt lat="42.433625" lon="0.573454">
        <ele>1504.2</ele>
        <time>2018-06-13T07:31:01Z</time>
      </trkpt>
      <trkpt lat="42.433533" lon="0.573375">
        <ele>1504.6</ele>
        <time>2018-06-13T07:31:04Z</time>
      </trkpt>
      <trkpt lat="42.433437" lon="0.573194">
        <ele>1505.1</ele>
        <time>2018-06-13T07:31:08Z</time>
      </trkpt>
      <trkpt lat="42.433352" lon="0.573029">
        <ele>1507.7</ele>
        <time>2018-06-13T07:31:12Z</time>
      </trkpt>
      <trkpt lat="42.433278" lon="0.572977">
        <ele>1511.2</ele>
        <time>2018-06-13T07:31:15Z</time>
      </trkpt>
      <trkpt lat="42.433163" lon="0.572844">
        <ele>1516.4</ele>
        <time>2018-06-13T07:31:19Z</time>
      </trkpt>
      <trkpt lat="42.433078" lon="0.572666">
        <ele>1518.4</ele>
        <time>2018-06-13T07:31:23Z</time>
      </trkpt>
      <trkpt lat="42.432994" lon="0.572431">
        <ele>1521.2</ele>
        <time>2018-06-13T07:31:28Z</time>
      </trkpt>
      <trkpt lat="42.432879" lon="0.572038">
        <ele>1525.2</ele>
        <time>2018-06-13T07:31:36Z</time>
      </trkpt>
      <trkpt lat="42.432731" lon="0.571448">
        <ele>1526.7</ele>
        <time>2018-06-13T07:31:49Z</time>
      </trkpt>
      <trkpt lat="42.432634" lon="0.570955">
        <ele>1522.0</ele>
        <time>2018-06-13T07:31:59Z</time>
      </trkpt>
      <trkpt lat="42.432581" lon="0.570737">
        <ele>1522.1</ele>
        <time>2018-06-13T07:32:03Z</time>
      </trkpt>
      <trkpt lat="42.432496" lon="0.570552">
        <ele>1522.8</ele>
        <time>2018-06-13T07:32:07Z</time>
      </trkpt>
      <trkpt lat="42.432412" lon="0.570395">
        <ele>1522.8</ele>
        <time>2018-06-13T07:32:11Z</time>
      </trkpt>
      <trkpt lat="42.432245" lon="0.570173">
        <ele>1528.2</ele>
        <time>2018-06-13T07:32:17Z</time>
      </trkpt>
      <trkpt lat="42.432092" lon="0.569880">
        <ele>1533.7</ele>
        <time>2018-06-13T07:32:24Z</time>
      </trkpt>
      <trkpt lat="42.431945" lon="0.569527">
        <ele>1540.2</ele>
        <time>2018-06-13T07:32:32Z</time>
      </trkpt>
      <trkpt lat="42.431819" lon="0.569095">
        <ele>1538.4</ele>
        <time>2018-06-13T07:32:42Z</time>
      </trkpt>
      <trkpt lat="42.431713" lon="0.568785">
        <ele>1535.6</ele>
        <time>2018-06-13T07:32:48Z</time>
      </trkpt>
      <trkpt lat="42.431536" lon="0.568518">
        <ele>1538.5</ele>
        <time>2018-06-13T07:32:55Z</time>
      </trkpt>
      <trkpt lat="42.431349" lon="0.568194">
        <ele>1538.5</ele>
        <time>2018-06-13T07:33:03Z</time>
      </trkpt>
      <trkpt lat="42.431266" lon="0.568030">
        <ele>1540.0</ele>
        <time>2018-06-13T07:33:07Z</time>
      </trkpt>
      <trkpt lat="42.431154" lon="0.567977">
        <ele>1541.9</ele>
        <time>2018-06-13T07:33:10Z</time>
      </trkpt>
      <trkpt lat="42.431083" lon="0.567946">
        <ele>1543.1</ele>
        <time>2018-06-13T07:33:12Z</time>
      </trkpt>
      <trkpt lat="42.430933" lon="0.567901">
        <ele>1547.0</ele>
        <time>2018-06-13T07:33:17Z</time>
      </trkpt>
      <trkpt lat="42.430803" lon="0.567794">
        <ele>1554.0</ele>
        <time>2018-06-13T07:33:21Z</time>
      </trkpt>
      <trkpt lat="42.430715" lon="0.567695">
        <ele>1558.7</ele>
        <time>2018-06-13T07:33:24Z</time>
      </trkpt>
      <trkpt lat="42.430615" lon="0.567576">
        <ele>1566.2</ele>
        <time>2018-06-13T07:33:28Z</time>
      </trkpt>
      <trkpt lat="42.430580" lon="0.567434">
        <ele>1570.2</ele>
        <time>2018-06-13T07:33:31Z</time>
      </trkpt>
      <trkpt lat="42.430612" lon="0.567316">
        <ele>1568.6</ele>
        <time>2018-06-13T07:33:34Z</time>
      </trkpt>
      <trkpt lat="42.430676" lon="0.567215">
        <ele>1563.8</ele>
        <time>2018-06-13T07:33:36Z</time>
      </trkpt>
      <trkpt lat="42.430746" lon="0.566997">
        <ele>1560.5</ele>
        <time>2018-06-13T07:33:41Z</time>
      </trkpt>
      <trkpt lat="42.430746" lon="0.566794">
        <ele>1561.6</ele>
        <time>2018-06-13T07:33:45Z</time>
      </trkpt>
      <trkpt lat="42.430704" lon="0.566595">
        <ele>1566.6</ele>
        <time>2018-06-13T07:33:49Z</time>
      </trkpt>
      <trkpt lat="42.430685" lon="0.566215">
        <ele>1565.7</ele>
        <time>2018-06-13T07:33:57Z</time>
      </trkpt>
      <trkpt lat="42.430651" lon="0.565664">
        <ele>1563.9</ele>
        <time>2018-06-13T07:34:07Z</time>
      </trkpt>
      <trkpt lat="42.430624" lon="0.565017">
        <ele>1564.3</ele>
        <time>2018-06-13T07:34:20Z</time>
      </trkpt>
      <trkpt lat="42.430620" lon="0.564700">
        <ele>1563.5</ele>
        <time>2018-06-13T07:34:26Z</time>
      </trkpt>
      <trkpt lat="42.430607" lon="0.564328">
        <ele>1566.6</ele>
        <time>2018-06-13T07:34:34Z</time>
      </trkpt>
      <trkpt lat="42.430611" lon="0.564162">
        <ele>1569.7</ele>
        <time>2018-06-13T07:34:37Z</time>
      </trkpt>
      <trkpt lat="42.430670" lon="0.564058">
        <ele>1567.2</ele>
        <time>2018-06-13T07:34:40Z</time>
      </trkpt>
      <trkpt lat="42.430756" lon="0.564045">
        <ele>1564.2</ele>
        <time>2018-06-13T07:34:42Z</time>
      </trkpt>
      <trkpt lat="42.430809" lon="0.564132">
        <ele>1560.7</ele>
        <time>2018-06-13T07:34:44Z</time>
      </trkpt>
      <trkpt lat="42.430896" lon="0.564218">
        <ele>1556.4</ele>
        <time>2018-06-13T07:34:47Z</time>
      </trkpt>
      <trkpt lat="42.431044" lon="0.564278">
        <ele>1555.4</ele>
        <time>2018-06-13T07:34:51Z</time>
      </trkpt>
      <trkpt lat="42.431178" lon="0.564330">
        <ele>1558.7</ele>
        <time>2018-06-13T07:34:55Z</time>
      </trkpt>
      <trkpt lat="42.431327" lon="0.564481">
        <ele>1560.3</ele>
        <time>2018-06-13T07:35:00Z</time>
      </trkpt>
      <trkpt lat="42.431394" lon="0.564638">
        <ele>1558.7</ele>
        <time>2018-06-13T07:35:04Z</time>
      </trkpt>
      <trkpt lat="42.431464" lon="0.564721">
        <ele>1558.8</ele>
        <time>2018-06-13T07:35:06Z</time>
      </trkpt>
      <trkpt lat="42.431571" lon="0.564703">
        <ele>1561.9</ele>
        <time>2018-06-13T07:35:09Z</time>
      </trkpt>
      <trkpt lat="42.431807" lon="0.564373">
        <ele>1568.7</ele>
        <time>2018-06-13T07:35:18Z</time>
      </trkpt>
      <trkpt lat="42.431968" lon="0.564043">
        <ele>1569.4</ele>
        <time>2018-06-13T07:35:26Z</time>
      </trkpt>
      <trkpt lat="42.432027" lon="0.563815">
        <ele>1571.4</ele>
        <time>2018-06-13T07:35:31Z</time>
      </trkpt>
      <trkpt lat="42.432064" lon="0.563555">
        <ele>1572.4</ele>
        <time>2018-06-13T07:35:36Z</time>
      </trkpt>
      <trkpt lat="42.432062" lon="0.563373">
        <ele>1574.2</ele>
        <time>2018-06-13T07:35:39Z</time>
      </trkpt>
      <trkpt lat="42.432049" lon="0.563170">
        <ele>1577.3</ele>
        <time>2018-06-13T07:35:43Z</time>
      </trkpt>
      <trkpt lat="42.432026" lon="0.562908">
        <ele>1579.2</ele>
        <time>2018-06-13T07:35:49Z</time>
      </trkpt>
      <trkpt lat="42.431994" lon="0.562675">
        <ele>1583.5</ele>
        <time>2018-06-13T07:35:53Z</time>
      </trkpt>
      <trkpt lat="42.431973" lon="0.562508">
        <ele>1587.1</ele>
        <time>2018-06-13T07:35:57Z</time>
      </trkpt>
      <trkpt lat="42.431990" lon="0.562226">
        <ele>1590.8</ele>
        <time>2018-06-13T07:36:02Z</time>
      </trkpt>
      <trkpt lat="42.432049" lon="0.561938">
        <ele>1591.3</ele>
        <time>2018-06-13T07:36:08Z</time>
      </trkpt>
      <trkpt lat="42.432181" lon="0.561461">
        <ele>1592.9</ele>
        <time>2018-06-13T07:36:18Z</time>
      </trkpt>
      <trkpt lat="42.432226" lon="0.561036">
        <ele>1596.2</ele>
        <time>2018-06-13T07:36:26Z</time>
      </trkpt>
      <trkpt lat="42.432268" lon="0.560786">
        <ele>1597.2</ele>
        <time>2018-06-13T07:36:31Z</time>
      </trkpt>
      <trkpt lat="42.432387" lon="0.560380">
        <ele>1597.7</ele>
        <time>2018-06-13T07:36:40Z</time>
      </trkpt>
      <trkpt lat="42.432494" lon="0.560032">
        <ele>1602.0</ele>
        <time>2018-06-13T07:36:47Z</time>
      </trkpt>
      <trkpt lat="42.432542" lon="0.559901">
        <ele>1605.2</ele>
        <time>2018-06-13T07:36:50Z</time>
      </trkpt>
      <trkpt lat="42.432628" lon="0.559867">
        <ele>1605.8</ele>
        <time>2018-06-13T07:36:53Z</time>
      </trkpt>
      <trkpt lat="42.432694" lon="0.559914">
        <ele>1602.5</ele>
        <time>2018-06-13T07:36:55Z</time>
      </trkpt>
      <trkpt lat="42.432722" lon="0.560013">
        <ele>1598.5</ele>
        <time>2018-06-13T07:36:57Z</time>
      </trkpt>
      <trkpt lat="42.432750" lon="0.560125">
        <ele>1594.4</ele>
        <time>2018-06-13T07:37:00Z</time>
      </trkpt>
      <trkpt lat="42.432817" lon="0.560210">
        <ele>1591.0</ele>
        <time>2018-06-13T07:37:02Z</time>
      </trkpt>
      <trkpt lat="42.432885" lon="0.560257">
        <ele>1588.6</ele>
        <time>2018-06-13T07:37:04Z</time>
      </trkpt>
      <trkpt lat="42.432982" lon="0.560240">
        <ele>1589.2</ele>
        <time>2018-06-13T07:37:07Z</time>
      </trkpt>
      <trkpt lat="42.433050" lon="0.560110">
        <ele>1592.8</ele>
        <time>2018-06-13T07:37:10Z</time>
      </trkpt>
      <trkpt lat="42.433060" lon="0.559983">
        <ele>1594.5</ele>
        <time>2018-06-13T07:37:13Z</time>
      </trkpt>
      <trkpt lat="42.433071" lon="0.559768">
        <ele>1596.4</ele>
        <time>2018-06-13T07:37:17Z</time>
      </trkpt>
      <trkpt lat="42.433072" lon="0.559629">
        <ele>1597.1</ele>
        <time>2018-06-13T07:37:19Z</time>
      </trkpt>
      <trkpt lat="42.433091" lon="0.559464">
        <ele>1597.3</ele>
        <time>2018-06-13T07:37:23Z</time>
      </trkpt>
      <trkpt lat="42.433121" lon="0.559375">
        <ele>1597.0</ele>
        <time>2018-06-13T07:37:25Z</time>
      </trkpt>
      <trkpt lat="42.433198" lon="0.559333">
        <ele>1596.1</ele>
        <time>2018-06-13T07:37:27Z</time>
      </trkpt>
      <trkpt lat="42.433345" lon="0.559333">
        <ele>1599.2</ele>
        <time>2018-06-13T07:37:31Z</time>
      </trkpt>
      <trkpt lat="42.433956" lon="0.559572">
        <ele>1614.1</ele>
        <time>2018-06-13T07:37:48Z</time>
      </trkpt>
      <trkpt lat="42.434702" lon="0.559783">
        <ele>1624.1</ele>
        <time>2018-06-13T07:38:08Z</time>
      </trkpt>
      <trkpt lat="42.434931" lon="0.559872">
        <ele>1620.3</ele>
        <time>2018-06-13T07:38:15Z</time>
      </trkpt>
      <trkpt lat="42.435087" lon="0.560001">
        <ele>1615.0</ele>
        <time>2018-06-13T07:38:20Z</time>
      </trkpt>
      <trkpt lat="42.435212" lon="0.560084">
        <ele>1612.0</ele>
        <time>2018-06-13T07:38:23Z</time>
      </trkpt>
      <trkpt lat="42.435338" lon="0.560142">
        <ele>1610.0</ele>
        <time>2018-06-13T07:38:27Z</time>
      </trkpt>
      <trkpt lat="42.435435" lon="0.560111">
        <ele>1610.9</ele>
        <time>2018-06-13T07:38:29Z</time>
      </trkpt>
      <trkpt lat="42.435578" lon="0.560001">
        <ele>1612.9</ele>
        <time>2018-06-13T07:38:34Z</time>
      </trkpt>
      <trkpt lat="42.435626" lon="0.559847">
        <ele>1615.9</ele>
        <time>2018-06-13T07:38:37Z</time>
      </trkpt>
      <trkpt lat="42.435664" lon="0.559704">
        <ele>1618.7</ele>
        <time>2018-06-13T07:38:40Z</time>
      </trkpt>
      <trkpt lat="42.435712" lon="0.559609">
        <ele>1619.7</ele>
        <time>2018-06-13T07:38:42Z</time>
      </trkpt>
      <trkpt lat="42.435799" lon="0.559574">
        <ele>1616.9</ele>
        <time>2018-06-13T07:38:45Z</time>
      </trkpt>
      <trkpt lat="42.435906" lon="0.559640">
        <ele>1611.7</ele>
        <time>2018-06-13T07:38:48Z</time>
      </trkpt>
      <trkpt lat="42.436034" lon="0.559850">
        <ele>1605.0</ele>
        <time>2018-06-13T07:38:54Z</time>
      </trkpt>
      <trkpt lat="42.436144" lon="0.560113">
        <ele>1603.3</ele>
        <time>2018-06-13T07:39:00Z</time>
      </trkpt>
      <trkpt lat="42.436215" lon="0.560250">
        <ele>1602.5</ele>
        <time>2018-06-13T07:39:03Z</time>
      </trkpt>
      <trkpt lat="42.436305" lon="0.560295">
        <ele>1601.1</ele>
        <time>2018-06-13T07:39:06Z</time>
      </trkpt>
      <trkpt lat="42.436396" lon="0.560289">
        <ele>1599.5</ele>
        <time>2018-06-13T07:39:08Z</time>
      </trkpt>
      <trkpt lat="42.436426" lon="0.560183">
        <ele>1597.7</ele>
        <time>2018-06-13T07:39:10Z</time>
      </trkpt>
      <trkpt lat="42.436445" lon="0.560076">
        <ele>1596.5</ele>
        <time>2018-06-13T07:39:12Z</time>
      </trkpt>
      <trkpt lat="42.436445" lon="0.559944">
        <ele>1595.8</ele>
        <time>2018-06-13T07:39:15Z</time>
      </trkpt>
      <trkpt lat="42.436435" lon="0.559825">
        <ele>1595.9</ele>
        <time>2018-06-13T07:39:17Z</time>
      </trkpt>
      <trkpt lat="42.436394" lon="0.559750">
        <ele>1597.6</ele>
        <time>2018-06-13T07:39:19Z</time>
      </trkpt>
      <trkpt lat="42.436394" lon="0.559657">
        <ele>1598.3</ele>
        <time>2018-06-13T07:39:21Z</time>
      </trkpt>
      <trkpt lat="42.436465" lon="0.559504">
        <ele>1596.9</ele>
        <time>2018-06-13T07:39:25Z</time>
      </trkpt>
      <trkpt lat="42.436587" lon="0.559398">
        <ele>1593.6</ele>
        <time>2018-06-13T07:39:28Z</time>
      </trkpt>
      <trkpt lat="42.436680" lon="0.559268">
        <ele>1591.3</ele>
        <time>2018-06-13T07:39:32Z</time>
      </trkpt>
      <trkpt lat="42.436763" lon="0.559071">
        <ele>1589.5</ele>
        <time>2018-06-13T07:39:36Z</time>
      </trkpt>
      <trkpt lat="42.436794" lon="0.558894">
        <ele>1589.4</ele>
        <time>2018-06-13T07:39:40Z</time>
      </trkpt>
      <trkpt lat="42.436851" lon="0.558745">
        <ele>1588.6</ele>
        <time>2018-06-13T07:39:43Z</time>
      </trkpt>
      <trkpt lat="42.436949" lon="0.558578">
        <ele>1586.0</ele>
        <time>2018-06-13T07:39:47Z</time>
      </trkpt>
      <trkpt lat="42.437059" lon="0.558481">
        <ele>1581.9</ele>
        <time>2018-06-13T07:39:51Z</time>
      </trkpt>
      <trkpt lat="42.437159" lon="0.558318">
        <ele>1579.7</ele>
        <time>2018-06-13T07:39:55Z</time>
      </trkpt>
      <trkpt lat="42.437198" lon="0.558102">
        <ele>1579.8</ele>
        <time>2018-06-13T07:40:00Z</time>
      </trkpt>
      <trkpt lat="42.437238" lon="0.557874">
        <ele>1578.7</ele>
        <time>2018-06-13T07:40:04Z</time>
      </trkpt>
      <trkpt lat="42.437238" lon="0.557621">
        <ele>1576.8</ele>
        <time>2018-06-13T07:40:09Z</time>
      </trkpt>
      <trkpt lat="42.437228" lon="0.557407">
        <ele>1575.1</ele>
        <time>2018-06-13T07:40:13Z</time>
      </trkpt>
      <trkpt lat="42.437238" lon="0.557166">
        <ele>1570.4</ele>
        <time>2018-06-13T07:40:18Z</time>
      </trkpt>
      <trkpt lat="42.437327" lon="0.557015">
        <ele>1564.5</ele>
        <time>2018-06-13T07:40:22Z</time>
      </trkpt>
      <trkpt lat="42.437427" lon="0.556838">
        <ele>1562.5</ele>
        <time>2018-06-13T07:40:27Z</time>
      </trkpt>
      <trkpt lat="42.437496" lon="0.556697">
        <ele>1562.0</ele>
        <time>2018-06-13T07:40:30Z</time>
      </trkpt>
      <trkpt lat="42.437526" lon="0.556540">
        <ele>1561.6</ele>
        <time>2018-06-13T07:40:33Z</time>
      </trkpt>
      <trkpt lat="42.437496" lon="0.556364">
        <ele>1561.8</ele>
        <time>2018-06-13T07:40:37Z</time>
      </trkpt>
      <trkpt lat="42.437456" lon="0.556173">
        <ele>1562.7</ele>
        <time>2018-06-13T07:40:40Z</time>
      </trkpt>
      <trkpt lat="42.437456" lon="0.555987">
        <ele>1562.2</ele>
        <time>2018-06-13T07:40:44Z</time>
      </trkpt>
      <trkpt lat="42.437554" lon="0.555745">
        <ele>1555.4</ele>
        <time>2018-06-13T07:40:50Z</time>
      </trkpt>
      <trkpt lat="42.437594" lon="0.555472">
        <ele>1551.5</ele>
        <time>2018-06-13T07:40:55Z</time>
      </trkpt>
      <trkpt lat="42.437603" lon="0.555314">
        <ele>1550.8</ele>
        <time>2018-06-13T07:40:58Z</time>
      </trkpt>
      <trkpt lat="42.437544" lon="0.555096">
        <ele>1554.2</ele>
        <time>2018-06-13T07:41:03Z</time>
      </trkpt>
      <trkpt lat="42.437535" lon="0.554883">
        <ele>1555.4</ele>
        <time>2018-06-13T07:41:07Z</time>
      </trkpt>
      <trkpt lat="42.437603" lon="0.554613">
        <ele>1551.8</ele>
        <time>2018-06-13T07:41:13Z</time>
      </trkpt>
      <trkpt lat="42.437772" lon="0.554133">
        <ele>1545.7</ele>
        <time>2018-06-13T07:41:23Z</time>
      </trkpt>
      <trkpt lat="42.437882" lon="0.553743">
        <ele>1543.8</ele>
        <time>2018-06-13T07:41:31Z</time>
      </trkpt>
      <trkpt lat="42.438031" lon="0.553447">
        <ele>1542.2</ele>
        <time>2018-06-13T07:41:38Z</time>
      </trkpt>
      <trkpt lat="42.438682" lon="0.552536">
        <ele>1526.2</ele>
        <time>2018-06-13T07:42:03Z</time>
      </trkpt>
      <trkpt lat="42.438960" lon="0.552178">
        <ele>1526.5</ele>
        <time>2018-06-13T07:42:13Z</time>
      </trkpt>
      <trkpt lat="42.439127" lon="0.552029">
        <ele>1522.2</ele>
        <time>2018-06-13T07:42:19Z</time>
      </trkpt>
      <trkpt lat="42.439413" lon="0.551832">
        <ele>1517.0</ele>
        <time>2018-06-13T07:42:27Z</time>
      </trkpt>
      <trkpt lat="42.439863" lon="0.551514">
        <ele>1519.0</ele>
        <time>2018-06-13T07:42:41Z</time>
      </trkpt>
      <trkpt lat="42.440115" lon="0.551294">
        <ele>1519.8</ele>
        <time>2018-06-13T07:42:49Z</time>
      </trkpt>
      <trkpt lat="42.440275" lon="0.551136">
        <ele>1518.8</ele>
        <time>2018-06-13T07:42:54Z</time>
      </trkpt>
      <trkpt lat="42.440355" lon="0.551035">
        <ele>1518.3</ele>
        <time>2018-06-13T07:42:57Z</time>
      </trkpt>
      <trkpt lat="42.440394" lon="0.550893">
        <ele>1517.2</ele>
        <time>2018-06-13T07:43:00Z</time>
      </trkpt>
      <trkpt lat="42.440424" lon="0.550665">
        <ele>1514.6</ele>
        <time>2018-06-13T07:43:04Z</time>
      </trkpt>
      <trkpt lat="42.440474" lon="0.550378">
        <ele>1512.3</ele>
        <time>2018-06-13T07:43:10Z</time>
      </trkpt>
      <trkpt lat="42.440545" lon="0.550205">
        <ele>1512.9</ele>
        <time>2018-06-13T07:43:14Z</time>
      </trkpt>
      <trkpt lat="42.440678" lon="0.549927">
        <ele>1510.8</ele>
        <time>2018-06-13T07:43:20Z</time>
      </trkpt>
      <trkpt lat="42.440977" lon="0.549407">
        <ele>1509.6</ele>
        <time>2018-06-13T07:43:33Z</time>
      </trkpt>
      <trkpt lat="42.441192" lon="0.549042">
        <ele>1507.6</ele>
        <time>2018-06-13T07:43:42Z</time>
      </trkpt>
      <trkpt lat="42.441284" lon="0.548830">
        <ele>1505.4</ele>
        <time>2018-06-13T07:43:47Z</time>
      </trkpt>
      <trkpt lat="42.441314" lon="0.548659">
        <ele>1504.1</ele>
        <time>2018-06-13T07:43:51Z</time>
      </trkpt>
      <trkpt lat="42.441335" lon="0.548517">
        <ele>1503.0</ele>
        <time>2018-06-13T07:43:53Z</time>
      </trkpt>
      <trkpt lat="42.441344" lon="0.548333">
        <ele>1502.5</ele>
        <time>2018-06-13T07:43:57Z</time>
      </trkpt>
      <trkpt lat="42.441335" lon="0.548162">
        <ele>1502.3</ele>
        <time>2018-06-13T07:44:00Z</time>
      </trkpt>
      <trkpt lat="42.441282" lon="0.547907">
        <ele>1502.2</ele>
        <time>2018-06-13T07:44:06Z</time>
      </trkpt>
      <trkpt lat="42.441261" lon="0.547595">
        <ele>1503.3</ele>
        <time>2018-06-13T07:44:12Z</time>
      </trkpt>
      <trkpt lat="42.441261" lon="0.547453">
        <ele>1504.3</ele>
        <time>2018-06-13T07:44:14Z</time>
      </trkpt>
      <trkpt lat="42.441281" lon="0.547282">
        <ele>1505.0</ele>
        <time>2018-06-13T07:44:18Z</time>
      </trkpt>
      <trkpt lat="42.441333" lon="0.547081">
        <ele>1504.8</ele>
        <time>2018-06-13T07:44:22Z</time>
      </trkpt>
      <trkpt lat="42.441448" lon="0.546853">
        <ele>1503.7</ele>
        <time>2018-06-13T07:44:27Z</time>
      </trkpt>
      <trkpt lat="42.441614" lon="0.546580">
        <ele>1502.9</ele>
        <time>2018-06-13T07:44:34Z</time>
      </trkpt>
      <trkpt lat="42.441709" lon="0.546436">
        <ele>1505.7</ele>
        <time>2018-06-13T07:44:38Z</time>
      </trkpt>
      <trkpt lat="42.441761" lon="0.546293">
        <ele>1508.3</ele>
        <time>2018-06-13T07:44:41Z</time>
      </trkpt>
      <trkpt lat="42.441771" lon="0.546164">
        <ele>1509.6</ele>
        <time>2018-06-13T07:44:44Z</time>
      </trkpt>
      <trkpt lat="42.441761" lon="0.546006">
        <ele>1510.5</ele>
        <time>2018-06-13T07:44:47Z</time>
      </trkpt>
      <trkpt lat="42.441720" lon="0.545848">
        <ele>1510.9</ele>
        <time>2018-06-13T07:44:50Z</time>
      </trkpt>
      <trkpt lat="42.441626" lon="0.545677">
        <ele>1508.9</ele>
        <time>2018-06-13T07:44:54Z</time>
      </trkpt>
      <trkpt lat="42.441349" lon="0.545348">
        <ele>1503.3</ele>
        <time>2018-06-13T07:45:04Z</time>
      </trkpt>
      <trkpt lat="42.440998" lon="0.544890">
        <ele>1501.0</ele>
        <time>2018-06-13T07:45:17Z</time>
      </trkpt>
      <trkpt lat="42.440795" lon="0.544577">
        <ele>1499.2</ele>
        <time>2018-06-13T07:45:25Z</time>
      </trkpt>
      <trkpt lat="42.440703" lon="0.544376">
        <ele>1499.2</ele>
        <time>2018-06-13T07:45:30Z</time>
      </trkpt>
      <trkpt lat="42.440633" lon="0.544195">
        <ele>1499.8</ele>
        <time>2018-06-13T07:45:34Z</time>
      </trkpt>
      <trkpt lat="42.440633" lon="0.544030">
        <ele>1499.7</ele>
        <time>2018-06-13T07:45:37Z</time>
      </trkpt>
      <trkpt lat="42.440674" lon="0.543863">
        <ele>1498.6</ele>
        <time>2018-06-13T07:45:40Z</time>
      </trkpt>
      <trkpt lat="42.440741" lon="0.543662">
        <ele>1497.5</ele>
        <time>2018-06-13T07:45:45Z</time>
      </trkpt>
      <trkpt lat="42.440864" lon="0.543317">
        <ele>1497.1</ele>
        <time>2018-06-13T07:45:52Z</time>
      </trkpt>
      <trkpt lat="42.440997" lon="0.542868">
        <ele>1497.8</ele>
        <time>2018-06-13T07:46:02Z</time>
      </trkpt>
      <trkpt lat="42.441172" lon="0.542565">
        <ele>1494.2</ele>
        <time>2018-06-13T07:46:09Z</time>
      </trkpt>
      <trkpt lat="42.441294" lon="0.542324">
        <ele>1490.7</ele>
        <time>2018-06-13T07:46:15Z</time>
      </trkpt>
      <trkpt lat="42.441335" lon="0.542195">
        <ele>1490.3</ele>
        <time>2018-06-13T07:46:18Z</time>
      </trkpt>
      <trkpt lat="42.441348" lon="0.542011">
        <ele>1490.2</ele>
        <time>2018-06-13T07:46:21Z</time>
      </trkpt>
      <trkpt lat="42.441347" lon="0.541789">
        <ele>1490.7</ele>
        <time>2018-06-13T07:46:26Z</time>
      </trkpt>
      <trkpt lat="42.441389" lon="0.541513">
        <ele>1491.1</ele>
        <time>2018-06-13T07:46:31Z</time>
      </trkpt>
      <trkpt lat="42.441496" lon="0.541118">
        <ele>1494.2</ele>
        <time>2018-06-13T07:46:39Z</time>
      </trkpt>
      <trkpt lat="42.441561" lon="0.540738">
        <ele>1497.0</ele>
        <time>2018-06-13T07:46:47Z</time>
      </trkpt>
      <trkpt lat="42.441629" lon="0.540626">
        <ele>1495.3</ele>
        <time>2018-06-13T07:46:50Z</time>
      </trkpt>
      <trkpt lat="42.441710" lon="0.540513">
        <ele>1493.4</ele>
        <time>2018-06-13T07:46:53Z</time>
      </trkpt>
      <trkpt lat="42.441860" lon="0.540399">
        <ele>1491.5</ele>
        <time>2018-06-13T07:46:57Z</time>
      </trkpt>
      <trkpt lat="42.442200" lon="0.540264">
        <ele>1488.3</ele>
        <time>2018-06-13T07:47:07Z</time>
      </trkpt>
      <trkpt lat="42.442543" lon="0.540149">
        <ele>1485.6</ele>
        <time>2018-06-13T07:47:16Z</time>
      </trkpt>
      <trkpt lat="42.442870" lon="0.539919">
        <ele>1484.3</ele>
        <time>2018-06-13T07:47:26Z</time>
      </trkpt>
      <trkpt lat="42.444366" lon="0.539123">
        <ele>1485.5</ele>
        <time>2018-06-13T07:48:08Z</time>
      </trkpt>
      <trkpt lat="42.444971" lon="0.538726">
        <ele>1480.3</ele>
        <time>2018-06-13T07:48:26Z</time>
      </trkpt>
      <trkpt lat="42.445120" lon="0.538652">
        <ele>1478.1</ele>
        <time>2018-06-13T07:48:30Z</time>
      </trkpt>
      <trkpt lat="42.445230" lon="0.538576">
        <ele>1477.7</ele>
        <time>2018-06-13T07:48:34Z</time>
      </trkpt>
      <trkpt lat="42.445326" lon="0.538557">
        <ele>1477.2</ele>
        <time>2018-06-13T07:48:36Z</time>
      </trkpt>
      <trkpt lat="42.445380" lon="0.538652">
        <ele>1476.5</ele>
        <time>2018-06-13T07:48:38Z</time>
      </trkpt>
      <trkpt lat="42.445381" lon="0.538841">
        <ele>1476.5</ele>
        <time>2018-06-13T07:48:42Z</time>
      </trkpt>
      <trkpt lat="42.445395" lon="0.539200">
        <ele>1477.2</ele>
        <time>2018-06-13T07:48:49Z</time>
      </trkpt>
      <trkpt lat="42.445463" lon="0.539391">
        <ele>1477.3</ele>
        <time>2018-06-13T07:48:53Z</time>
      </trkpt>
      <trkpt lat="42.445573" lon="0.539428">
        <ele>1477.9</ele>
        <time>2018-06-13T07:48:56Z</time>
      </trkpt>
      <trkpt lat="42.446052" lon="0.539383">
        <ele>1477.0</ele>
        <time>2018-06-13T07:49:09Z</time>
      </trkpt>
      <trkpt lat="42.446328" lon="0.539281">
        <ele>1470.8</ele>
        <time>2018-06-13T07:49:17Z</time>
      </trkpt>
      <trkpt lat="42.446480" lon="0.539144">
        <ele>1469.0</ele>
        <time>2018-06-13T07:49:22Z</time>
      </trkpt>
      <trkpt lat="42.446700" lon="0.538970">
        <ele>1469.7</ele>
        <time>2018-06-13T07:49:28Z</time>
      </trkpt>
      <trkpt lat="42.446819" lon="0.538785">
        <ele>1471.6</ele>
        <time>2018-06-13T07:49:33Z</time>
      </trkpt>
      <trkpt lat="42.446914" lon="0.538673">
        <ele>1472.7</ele>
        <time>2018-06-13T07:49:36Z</time>
      </trkpt>
      <trkpt lat="42.447077" lon="0.538613">
        <ele>1473.5</ele>
        <time>2018-06-13T07:49:41Z</time>
      </trkpt>
      <trkpt lat="42.447268" lon="0.538628">
        <ele>1473.4</ele>
        <time>2018-06-13T07:49:46Z</time>
      </trkpt>
      <trkpt lat="42.447532" lon="0.538704">
        <ele>1472.3</ele>
        <time>2018-06-13T07:49:53Z</time>
      </trkpt>
      <trkpt lat="42.447763" lon="0.538721">
        <ele>1471.8</ele>
        <time>2018-06-13T07:49:59Z</time>
      </trkpt>
      <trkpt lat="42.447971" lon="0.538681">
        <ele>1470.2</ele>
        <time>2018-06-13T07:50:05Z</time>
      </trkpt>
      <trkpt lat="42.448176" lon="0.538579">
        <ele>1468.6</ele>
        <time>2018-06-13T07:50:10Z</time>
      </trkpt>
      <trkpt lat="42.448412" lon="0.538455">
        <ele>1465.3</ele>
        <time>2018-06-13T07:50:17Z</time>
      </trkpt>
      <trkpt lat="42.448537" lon="0.538354">
        <ele>1463.2</ele>
        <time>2018-06-13T07:50:21Z</time>
      </trkpt>
      <trkpt lat="42.448597" lon="0.538275">
        <ele>1462.7</ele>
        <time>2018-06-13T07:50:23Z</time>
      </trkpt>
      <trkpt lat="42.448622" lon="0.538112">
        <ele>1462.7</ele>
        <time>2018-06-13T07:50:27Z</time>
      </trkpt>
      <trkpt lat="42.448613" lon="0.537975">
        <ele>1462.6</ele>
        <time>2018-06-13T07:50:29Z</time>
      </trkpt>
      <trkpt lat="42.448580" lon="0.537829">
        <ele>1462.2</ele>
        <time>2018-06-13T07:50:32Z</time>
      </trkpt>
      <trkpt lat="42.448546" lon="0.537704">
        <ele>1462.1</ele>
        <time>2018-06-13T07:50:35Z</time>
      </trkpt>
      <trkpt lat="42.448421" lon="0.537541">
        <ele>1462.6</ele>
        <time>2018-06-13T07:50:39Z</time>
      </trkpt>
      <trkpt lat="42.448282" lon="0.537378">
        <ele>1460.7</ele>
        <time>2018-06-13T07:50:44Z</time>
      </trkpt>
      <trkpt lat="42.448150" lon="0.537122">
        <ele>1455.7</ele>
        <time>2018-06-13T07:50:50Z</time>
      </trkpt>
      <trkpt lat="42.448018" lon="0.536877">
        <ele>1452.4</ele>
        <time>2018-06-13T07:50:56Z</time>
      </trkpt>
      <trkpt lat="42.447786" lon="0.536359">
        <ele>1450.2</ele>
        <time>2018-06-13T07:51:08Z</time>
      </trkpt>
      <trkpt lat="42.447583" lon="0.535769">
        <ele>1457.1</ele>
        <time>2018-06-13T07:51:21Z</time>
      </trkpt>
      <trkpt lat="42.447493" lon="0.535504">
        <ele>1462.1</ele>
        <time>2018-06-13T07:51:27Z</time>
      </trkpt>
      <trkpt lat="42.447450" lon="0.535319">
        <ele>1465.1</ele>
        <time>2018-06-13T07:51:31Z</time>
      </trkpt>
      <trkpt lat="42.447480" lon="0.535109">
        <ele>1465.9</ele>
        <time>2018-06-13T07:51:35Z</time>
      </trkpt>
      <trkpt lat="42.447526" lon="0.534918">
        <ele>1472.9</ele>
        <time>2018-06-13T07:51:39Z</time>
      </trkpt>
      <trkpt lat="42.447606" lon="0.534750">
        <ele>1479.5</ele>
        <time>2018-06-13T07:51:43Z</time>
      </trkpt>
      <trkpt lat="42.447732" lon="0.534657">
        <ele>1480.6</ele>
        <time>2018-06-13T07:51:47Z</time>
      </trkpt>
      <trkpt lat="42.447840" lon="0.534574">
        <ele>1481.3</ele>
        <time>2018-06-13T07:51:50Z</time>
      </trkpt>
      <trkpt lat="42.447935" lon="0.534568">
        <ele>1477.5</ele>
        <time>2018-06-13T07:51:53Z</time>
      </trkpt>
      <trkpt lat="42.447989" lon="0.534579">
        <ele>1474.0</ele>
        <time>2018-06-13T07:51:55Z</time>
      </trkpt>
      <trkpt lat="42.448002" lon="0.534645">
        <ele>1469.0</ele>
        <time>2018-06-13T07:51:56Z</time>
      </trkpt>
      <trkpt lat="42.447981" lon="0.534698">
        <ele>1466.6</ele>
        <time>2018-06-13T07:51:58Z</time>
      </trkpt>
      <trkpt lat="42.447913" lon="0.534803">
        <ele>1463.2</ele>
        <time>2018-06-13T07:52:01Z</time>
      </trkpt>
      <trkpt lat="42.447864" lon="0.534912">
        <ele>1458.5</ele>
        <time>2018-06-13T07:52:03Z</time>
      </trkpt>
      <trkpt lat="42.447824" lon="0.535053">
        <ele>1452.3</ele>
        <time>2018-06-13T07:52:07Z</time>
      </trkpt>
      <trkpt lat="42.447790" lon="0.535276">
        <ele>1446.9</ele>
        <time>2018-06-13T07:52:11Z</time>
      </trkpt>
      <trkpt lat="42.447824" lon="0.535420">
        <ele>1443.0</ele>
        <time>2018-06-13T07:52:14Z</time>
      </trkpt>
      <trkpt lat="42.447918" lon="0.535664">
        <ele>1437.1</ele>
        <time>2018-06-13T07:52:20Z</time>
      </trkpt>
      <trkpt lat="42.447974" lon="0.535792">
        <ele>1436.1</ele>
        <time>2018-06-13T07:52:23Z</time>
      </trkpt>
      <trkpt lat="42.448042" lon="0.535923">
        <ele>1433.8</ele>
        <time>2018-06-13T07:52:26Z</time>
      </trkpt>
      <trkpt lat="42.448111" lon="0.535987">
        <ele>1431.1</ele>
        <time>2018-06-13T07:52:28Z</time>
      </trkpt>
      <trkpt lat="42.448201" lon="0.536031">
        <ele>1427.9</ele>
        <time>2018-06-13T07:52:31Z</time>
      </trkpt>
      <trkpt lat="42.448255" lon="0.536021">
        <ele>1426.9</ele>
        <time>2018-06-13T07:52:32Z</time>
      </trkpt>
      <trkpt lat="42.448248" lon="0.535936">
        <ele>1427.7</ele>
        <time>2018-06-13T07:52:34Z</time>
      </trkpt>
      <trkpt lat="42.448222" lon="0.535869">
        <ele>1429.3</ele>
        <time>2018-06-13T07:52:36Z</time>
      </trkpt>
      <trkpt lat="42.448151" lon="0.535738">
        <ele>1433.0</ele>
        <time>2018-06-13T07:52:39Z</time>
      </trkpt>
      <trkpt lat="42.448104" lon="0.535618">
        <ele>1433.8</ele>
        <time>2018-06-13T07:52:42Z</time>
      </trkpt>
      <trkpt lat="42.448118" lon="0.535505">
        <ele>1432.8</ele>
        <time>2018-06-13T07:52:44Z</time>
      </trkpt>
      <trkpt lat="42.448194" lon="0.535380">
        <ele>1430.7</ele>
        <time>2018-06-13T07:52:47Z</time>
      </trkpt>
      <trkpt lat="42.448270" lon="0.535329">
        <ele>1431.1</ele>
        <time>2018-06-13T07:52:49Z</time>
      </trkpt>
      <trkpt lat="42.448382" lon="0.535322">
        <ele>1430.6</ele>
        <time>2018-06-13T07:52:52Z</time>
      </trkpt>
      <trkpt lat="42.448480" lon="0.535317">
        <ele>1430.0</ele>
        <time>2018-06-13T07:52:55Z</time>
      </trkpt>
      <trkpt lat="42.448556" lon="0.535273">
        <ele>1429.8</ele>
        <time>2018-06-13T07:52:57Z</time>
      </trkpt>
      <trkpt lat="42.448650" lon="0.535258">
        <ele>1429.2</ele>
        <time>2018-06-13T07:52:59Z</time>
      </trkpt>
      <trkpt lat="42.448713" lon="0.535197">
        <ele>1429.5</ele>
        <time>2018-06-13T07:53:01Z</time>
      </trkpt>
      <trkpt lat="42.448742" lon="0.535129">
        <ele>1430.2</ele>
        <time>2018-06-13T07:53:03Z</time>
      </trkpt>
      <trkpt lat="42.448798" lon="0.535021">
        <ele>1430.4</ele>
        <time>2018-06-13T07:53:06Z</time>
      </trkpt>
      <trkpt lat="42.448877" lon="0.534892">
        <ele>1429.5</ele>
        <time>2018-06-13T07:53:09Z</time>
      </trkpt>
      <trkpt lat="42.448964" lon="0.534840">
        <ele>1427.5</ele>
        <time>2018-06-13T07:53:11Z</time>
      </trkpt>
      <trkpt lat="42.449094" lon="0.534803">
        <ele>1423.6</ele>
        <time>2018-06-13T07:53:15Z</time>
      </trkpt>
      <trkpt lat="42.449275" lon="0.534716">
        <ele>1416.9</ele>
        <time>2018-06-13T07:53:20Z</time>
      </trkpt>
      <trkpt lat="42.449368" lon="0.534654">
        <ele>1414.3</ele>
        <time>2018-06-13T07:53:23Z</time>
      </trkpt>
      <trkpt lat="42.449440" lon="0.534560">
        <ele>1413.9</ele>
        <time>2018-06-13T07:53:26Z</time>
      </trkpt>
      <trkpt lat="42.449527" lon="0.534479">
        <ele>1414.5</ele>
        <time>2018-06-13T07:53:29Z</time>
      </trkpt>
      <trkpt lat="42.449634" lon="0.534396">
        <ele>1414.1</ele>
        <time>2018-06-13T07:53:32Z</time>
      </trkpt>
      <trkpt lat="42.449764" lon="0.534361">
        <ele>1411.4</ele>
        <time>2018-06-13T07:53:35Z</time>
      </trkpt>
      <trkpt lat="42.449900" lon="0.534249">
        <ele>1410.3</ele>
        <time>2018-06-13T07:53:40Z</time>
      </trkpt>
      <trkpt lat="42.450035" lon="0.534104">
        <ele>1409.6</ele>
        <time>2018-06-13T07:53:44Z</time>
      </trkpt>
      <trkpt lat="42.450180" lon="0.534056">
        <ele>1405.8</ele>
        <time>2018-06-13T07:53:48Z</time>
      </trkpt>
      <trkpt lat="42.450328" lon="0.534080">
        <ele>1399.5</ele>
        <time>2018-06-13T07:53:52Z</time>
      </trkpt>
      <trkpt lat="42.450432" lon="0.534146">
        <ele>1394.8</ele>
        <time>2018-06-13T07:53:56Z</time>
      </trkpt>
      <trkpt lat="42.450620" lon="0.534160">
        <ele>1393.1</ele>
        <time>2018-06-13T07:54:01Z</time>
      </trkpt>
      <trkpt lat="42.450776" lon="0.534124">
        <ele>1392.2</ele>
        <time>2018-06-13T07:54:05Z</time>
      </trkpt>
      <trkpt lat="42.451050" lon="0.533962">
        <ele>1391.6</ele>
        <time>2018-06-13T07:54:13Z</time>
      </trkpt>
      <trkpt lat="42.451187" lon="0.533835">
        <ele>1392.0</ele>
        <time>2018-06-13T07:54:17Z</time>
      </trkpt>
      <trkpt lat="42.451264" lon="0.533593">
        <ele>1393.0</ele>
        <time>2018-06-13T07:54:22Z</time>
      </trkpt>
      <trkpt lat="42.451293" lon="0.533388">
        <ele>1393.9</ele>
        <time>2018-06-13T07:54:26Z</time>
      </trkpt>
      <trkpt lat="42.451329" lon="0.533245">
        <ele>1394.3</ele>
        <time>2018-06-13T07:54:29Z</time>
      </trkpt>
      <trkpt lat="42.451402" lon="0.533109">
        <ele>1394.5</ele>
        <time>2018-06-13T07:54:33Z</time>
      </trkpt>
      <trkpt lat="42.451502" lon="0.533031">
        <ele>1393.8</ele>
        <time>2018-06-13T07:54:36Z</time>
      </trkpt>
      <trkpt lat="42.451626" lon="0.533017">
        <ele>1392.4</ele>
        <time>2018-06-13T07:54:39Z</time>
      </trkpt>
      <trkpt lat="42.451801" lon="0.533019">
        <ele>1390.3</ele>
        <time>2018-06-13T07:54:44Z</time>
      </trkpt>
      <trkpt lat="42.452119" lon="0.533104">
        <ele>1389.5</ele>
        <time>2018-06-13T07:54:52Z</time>
      </trkpt>
      <trkpt lat="42.452331" lon="0.533157">
        <ele>1392.4</ele>
        <time>2018-06-13T07:54:58Z</time>
      </trkpt>
      <trkpt lat="42.452518" lon="0.533156">
        <ele>1393.1</ele>
        <time>2018-06-13T07:55:03Z</time>
      </trkpt>
      <trkpt lat="42.452657" lon="0.533112">
        <ele>1393.4</ele>
        <time>2018-06-13T07:55:07Z</time>
      </trkpt>
      <trkpt lat="42.452798" lon="0.533007">
        <ele>1392.4</ele>
        <time>2018-06-13T07:55:11Z</time>
      </trkpt>
      <trkpt lat="42.452880" lon="0.532897">
        <ele>1391.6</ele>
        <time>2018-06-13T07:55:14Z</time>
      </trkpt>
      <trkpt lat="42.452940" lon="0.532779">
        <ele>1391.3</ele>
        <time>2018-06-13T07:55:17Z</time>
      </trkpt>
      <trkpt lat="42.453013" lon="0.532580">
        <ele>1391.4</ele>
        <time>2018-06-13T07:55:21Z</time>
      </trkpt>
      <trkpt lat="42.453072" lon="0.532287">
        <ele>1391.6</ele>
        <time>2018-06-13T07:55:27Z</time>
      </trkpt>
      <trkpt lat="42.453123" lon="0.532205">
        <ele>1391.1</ele>
        <time>2018-06-13T07:55:29Z</time>
      </trkpt>
      <trkpt lat="42.453198" lon="0.532091">
        <ele>1390.0</ele>
        <time>2018-06-13T07:55:32Z</time>
      </trkpt>
      <trkpt lat="42.453355" lon="0.532042">
        <ele>1389.0</ele>
        <time>2018-06-13T07:55:36Z</time>
      </trkpt>
      <trkpt lat="42.453643" lon="0.531986">
        <ele>1388.3</ele>
        <time>2018-06-13T07:55:44Z</time>
      </trkpt>
      <trkpt lat="42.453902" lon="0.531819">
        <ele>1387.7</ele>
        <time>2018-06-13T07:55:51Z</time>
      </trkpt>
      <trkpt lat="42.454170" lon="0.531609">
        <ele>1385.8</ele>
        <time>2018-06-13T07:56:00Z</time>
      </trkpt>
      <trkpt lat="42.454682" lon="0.531207">
        <ele>1387.7</ele>
        <time>2018-06-13T07:56:15Z</time>
      </trkpt>
      <trkpt lat="42.454839" lon="0.531103">
        <ele>1388.8</ele>
        <time>2018-06-13T07:56:20Z</time>
      </trkpt>
      <trkpt lat="42.455014" lon="0.531047">
        <ele>1389.6</ele>
        <time>2018-06-13T07:56:25Z</time>
      </trkpt>
      <trkpt lat="42.455213" lon="0.530952">
        <ele>1388.3</ele>
        <time>2018-06-13T07:56:30Z</time>
      </trkpt>
      <trkpt lat="42.455317" lon="0.530854">
        <ele>1387.0</ele>
        <time>2018-06-13T07:56:34Z</time>
      </trkpt>
      <trkpt lat="42.455387" lon="0.530748">
        <ele>1388.0</ele>
        <time>2018-06-13T07:56:36Z</time>
      </trkpt>
      <trkpt lat="42.455402" lon="0.530603">
        <ele>1391.3</ele>
        <time>2018-06-13T07:56:39Z</time>
      </trkpt>
      <trkpt lat="42.455423" lon="0.530411">
        <ele>1394.7</ele>
        <time>2018-06-13T07:56:43Z</time>
      </trkpt>
      <trkpt lat="42.455516" lon="0.530314">
        <ele>1390.4</ele>
        <time>2018-06-13T07:56:46Z</time>
      </trkpt>
      <trkpt lat="42.455617" lon="0.530195">
        <ele>1386.5</ele>
        <time>2018-06-13T07:56:50Z</time>
      </trkpt>
      <trkpt lat="42.455812" lon="0.529888">
        <ele>1383.4</ele>
        <time>2018-06-13T07:56:58Z</time>
      </trkpt>
      <trkpt lat="42.455942" lon="0.529729">
        <ele>1380.6</ele>
        <time>2018-06-13T07:57:03Z</time>
      </trkpt>
      <trkpt lat="42.456035" lon="0.529542">
        <ele>1380.3</ele>
        <time>2018-06-13T07:57:07Z</time>
      </trkpt>
      <trkpt lat="42.456165" lon="0.529234">
        <ele>1377.7</ele>
        <time>2018-06-13T07:57:14Z</time>
      </trkpt>
      <trkpt lat="42.456256" lon="0.528939">
        <ele>1374.4</ele>
        <time>2018-06-13T07:57:20Z</time>
      </trkpt>
      <trkpt lat="42.456371" lon="0.528662">
        <ele>1370.1</ele>
        <time>2018-06-13T07:57:27Z</time>
      </trkpt>
      <trkpt lat="42.456407" lon="0.528345">
        <ele>1370.6</ele>
        <time>2018-06-13T07:57:33Z</time>
      </trkpt>
      <trkpt lat="42.456419" lon="0.528140">
        <ele>1371.6</ele>
        <time>2018-06-13T07:57:37Z</time>
      </trkpt>
      <trkpt lat="42.456467" lon="0.527759">
        <ele>1374.7</ele>
        <time>2018-06-13T07:57:44Z</time>
      </trkpt>
      <trkpt lat="42.456563" lon="0.527393">
        <ele>1375.4</ele>
        <time>2018-06-13T07:57:52Z</time>
      </trkpt>
      <trkpt lat="42.456773" lon="0.526929">
        <ele>1377.1</ele>
        <time>2018-06-13T07:58:03Z</time>
      </trkpt>
      <trkpt lat="42.456919" lon="0.526353">
        <ele>1379.7</ele>
        <time>2018-06-13T07:58:15Z</time>
      </trkpt>
      <trkpt lat="42.457073" lon="0.525883">
        <ele>1379.6</ele>
        <time>2018-06-13T07:58:25Z</time>
      </trkpt>
      <trkpt lat="42.457120" lon="0.525698">
        <ele>1378.5</ele>
        <time>2018-06-13T07:58:28Z</time>
      </trkpt>
      <trkpt lat="42.457154" lon="0.525528">
        <ele>1378.3</ele>
        <time>2018-06-13T07:58:32Z</time>
      </trkpt>
      <trkpt lat="42.457153" lon="0.525392">
        <ele>1379.2</ele>
        <time>2018-06-13T07:58:34Z</time>
      </trkpt>
      <trkpt lat="42.457152" lon="0.525211">
        <ele>1380.7</ele>
        <time>2018-06-13T07:58:38Z</time>
      </trkpt>
      <trkpt lat="42.457139" lon="0.525092">
        <ele>1382.3</ele>
        <time>2018-06-13T07:58:40Z</time>
      </trkpt>
      <trkpt lat="42.457137" lon="0.524899">
        <ele>1384.3</ele>
        <time>2018-06-13T07:58:44Z</time>
      </trkpt>
      <trkpt lat="42.457159" lon="0.524674">
        <ele>1385.7</ele>
        <time>2018-06-13T07:58:49Z</time>
      </trkpt>
      <trkpt lat="42.457263" lon="0.524386">
        <ele>1381.1</ele>
        <time>2018-06-13T07:58:55Z</time>
      </trkpt>
      <trkpt lat="42.457338" lon="0.524079">
        <ele>1379.0</ele>
        <time>2018-06-13T07:59:01Z</time>
      </trkpt>
      <trkpt lat="42.457386" lon="0.523861">
        <ele>1378.2</ele>
        <time>2018-06-13T07:59:06Z</time>
      </trkpt>
      <trkpt lat="42.457399" lon="0.523676">
        <ele>1379.1</ele>
        <time>2018-06-13T07:59:09Z</time>
      </trkpt>
      <trkpt lat="42.457448" lon="0.523399">
        <ele>1379.3</ele>
        <time>2018-06-13T07:59:15Z</time>
      </trkpt>
      <trkpt lat="42.457508" lon="0.522986">
        <ele>1381.7</ele>
        <time>2018-06-13T07:59:23Z</time>
      </trkpt>
      <trkpt lat="42.457604" lon="0.522377">
        <ele>1388.4</ele>
        <time>2018-06-13T07:59:35Z</time>
      </trkpt>
      <trkpt lat="42.457836" lon="0.521735">
        <ele>1388.2</ele>
        <time>2018-06-13T07:59:49Z</time>
      </trkpt>
      <trkpt lat="42.457962" lon="0.521311">
        <ele>1392.3</ele>
        <time>2018-06-13T07:59:58Z</time>
      </trkpt>
      <trkpt lat="42.458101" lon="0.520852">
        <ele>1402.5</ele>
        <time>2018-06-13T08:00:08Z</time>
      </trkpt>
      <trkpt lat="42.458228" lon="0.520528">
        <ele>1405.6</ele>
        <time>2018-06-13T08:00:15Z</time>
      </trkpt>
      <trkpt lat="42.458427" lon="0.520276">
        <ele>1395.4</ele>
        <time>2018-06-13T08:00:23Z</time>
      </trkpt>
      <trkpt lat="42.458563" lon="0.519867">
        <ele>1390.4</ele>
        <time>2018-06-13T08:00:32Z</time>
      </trkpt>
      <trkpt lat="42.458714" lon="0.519489">
        <ele>1388.7</ele>
        <time>2018-06-13T08:00:40Z</time>
      </trkpt>
      <trkpt lat="42.458842" lon="0.519160">
        <ele>1387.4</ele>
        <time>2018-06-13T08:00:47Z</time>
      </trkpt>
      <trkpt lat="42.458951" lon="0.518980">
        <ele>1383.8</ele>
        <time>2018-06-13T08:00:52Z</time>
      </trkpt>
      <trkpt lat="42.459028" lon="0.518649">
        <ele>1384.8</ele>
        <time>2018-06-13T08:00:59Z</time>
      </trkpt>
      <trkpt lat="42.459062" lon="0.518399">
        <ele>1389.2</ele>
        <time>2018-06-13T08:01:04Z</time>
      </trkpt>
      <trkpt lat="42.459131" lon="0.518074">
        <ele>1398.7</ele>
        <time>2018-06-13T08:01:11Z</time>
      </trkpt>
      <trkpt lat="42.459270" lon="0.517954">
        <ele>1399.4</ele>
        <time>2018-06-13T08:01:15Z</time>
      </trkpt>
      <trkpt lat="42.459433" lon="0.517728">
        <ele>1398.4</ele>
        <time>2018-06-13T08:01:21Z</time>
      </trkpt>
      <trkpt lat="42.459629" lon="0.517765">
        <ele>1384.7</ele>
        <time>2018-06-13T08:01:27Z</time>
      </trkpt>
      <trkpt lat="42.459915" lon="0.517666">
        <ele>1373.1</ele>
        <time>2018-06-13T08:01:36Z</time>
      </trkpt>
      <trkpt lat="42.460165" lon="0.517434">
        <ele>1373.0</ele>
        <time>2018-06-13T08:01:44Z</time>
      </trkpt>
      <trkpt lat="42.460379" lon="0.517288">
        <ele>1374.1</ele>
        <time>2018-06-13T08:01:50Z</time>
      </trkpt>
      <trkpt lat="42.460551" lon="0.517045">
        <ele>1373.9</ele>
        <time>2018-06-13T08:01:57Z</time>
      </trkpt>
      <trkpt lat="42.460711" lon="0.516613">
        <ele>1373.8</ele>
        <time>2018-06-13T08:02:06Z</time>
      </trkpt>
      <trkpt lat="42.460970" lon="0.516582">
        <ele>1369.6</ele>
        <time>2018-06-13T08:02:13Z</time>
      </trkpt>
      <trkpt lat="42.461123" lon="0.516378">
        <ele>1365.3</ele>
        <time>2018-06-13T08:02:19Z</time>
      </trkpt>
      <trkpt lat="42.461229" lon="0.516045">
        <ele>1366.4</ele>
        <time>2018-06-13T08:02:26Z</time>
      </trkpt>
      <trkpt lat="42.461276" lon="0.515694">
        <ele>1372.7</ele>
        <time>2018-06-13T08:02:33Z</time>
      </trkpt>
      <trkpt lat="42.461410" lon="0.515451">
        <ele>1375.0</ele>
        <time>2018-06-13T08:02:39Z</time>
      </trkpt>
      <trkpt lat="42.462225" lon="0.514554">
        <ele>1369.4</ele>
        <time>2018-06-13T08:03:07Z</time>
      </trkpt>
      <trkpt lat="42.462777" lon="0.513849">
        <ele>1374.0</ele>
        <time>2018-06-13T08:03:27Z</time>
      </trkpt>
      <trkpt lat="42.463069" lon="0.513477">
        <ele>1369.1</ele>
        <time>2018-06-13T08:03:37Z</time>
      </trkpt>
      <trkpt lat="42.463368" lon="0.512994">
        <ele>1362.0</ele>
        <time>2018-06-13T08:03:50Z</time>
      </trkpt>
      <trkpt lat="42.464203" lon="0.511716">
        <ele>1355.3</ele>
        <time>2018-06-13T08:04:23Z</time>
      </trkpt>
      <trkpt lat="42.464508" lon="0.511308">
        <ele>1347.8</ele>
        <time>2018-06-13T08:04:34Z</time>
      </trkpt>
      <trkpt lat="42.464651" lon="0.511072">
        <ele>1342.5</ele>
        <time>2018-06-13T08:04:41Z</time>
      </trkpt>
      <trkpt lat="42.464815" lon="0.510698">
        <ele>1338.2</ele>
        <time>2018-06-13T08:04:49Z</time>
      </trkpt>
      <trkpt lat="42.465019" lon="0.510059">
        <ele>1341.8</ele>
        <time>2018-06-13T08:05:03Z</time>
      </trkpt>
      <trkpt lat="42.465114" lon="0.509798">
        <ele>1344.6</ele>
        <time>2018-06-13T08:05:08Z</time>
      </trkpt>
      <trkpt lat="42.465539" lon="0.509267">
        <ele>1335.9</ele>
        <time>2018-06-13T08:05:24Z</time>
      </trkpt>
      <trkpt lat="42.465792" lon="0.508943">
        <ele>1332.0</ele>
        <time>2018-06-13T08:05:33Z</time>
      </trkpt>
      <trkpt lat="42.465964" lon="0.508745">
        <ele>1329.6</ele>
        <time>2018-06-13T08:05:39Z</time>
      </trkpt>
      <trkpt lat="42.466077" lon="0.508584">
        <ele>1330.3</ele>
        <time>2018-06-13T08:05:43Z</time>
      </trkpt>
      <trkpt lat="42.466108" lon="0.508455">
        <ele>1333.6</ele>
        <time>2018-06-13T08:05:46Z</time>
      </trkpt>
      <trkpt lat="42.466109" lon="0.508330">
        <ele>1336.9</ele>
        <time>2018-06-13T08:05:49Z</time>
      </trkpt>
      <trkpt lat="42.466134" lon="0.508183">
        <ele>1339.8</ele>
        <time>2018-06-13T08:05:52Z</time>
      </trkpt>
      <trkpt lat="42.466163" lon="0.508044">
        <ele>1340.9</ele>
        <time>2018-06-13T08:05:54Z</time>
      </trkpt>
      <trkpt lat="42.466182" lon="0.507887">
        <ele>1342.7</ele>
        <time>2018-06-13T08:05:58Z</time>
      </trkpt>
      <trkpt lat="42.466213" lon="0.507725">
        <ele>1344.2</ele>
        <time>2018-06-13T08:06:01Z</time>
      </trkpt>
      <trkpt lat="42.466241" lon="0.507591">
        <ele>1344.6</ele>
        <time>2018-06-13T08:06:04Z</time>
      </trkpt>
      <trkpt lat="42.466279" lon="0.507440">
        <ele>1343.4</ele>
        <time>2018-06-13T08:06:07Z</time>
      </trkpt>
      <trkpt lat="42.466330" lon="0.507297">
        <ele>1341.8</ele>
        <time>2018-06-13T08:06:10Z</time>
      </trkpt>
      <trkpt lat="42.466369" lon="0.507153">
        <ele>1341.6</ele>
        <time>2018-06-13T08:06:13Z</time>
      </trkpt>
      <trkpt lat="42.466406" lon="0.506999">
        <ele>1341.9</ele>
        <time>2018-06-13T08:06:16Z</time>
      </trkpt>
      <trkpt lat="42.466408" lon="0.506835">
        <ele>1343.9</ele>
        <time>2018-06-13T08:06:19Z</time>
      </trkpt>
      <trkpt lat="42.466414" lon="0.506698">
        <ele>1346.1</ele>
        <time>2018-06-13T08:06:22Z</time>
      </trkpt>
      <trkpt lat="42.466418" lon="0.506558">
        <ele>1348.4</ele>
        <time>2018-06-13T08:06:25Z</time>
      </trkpt>
      <trkpt lat="42.466429" lon="0.506417">
        <ele>1350.8</ele>
        <time>2018-06-13T08:06:28Z</time>
      </trkpt>
      <trkpt lat="42.466455" lon="0.506271">
        <ele>1352.3</ele>
        <time>2018-06-13T08:06:30Z</time>
      </trkpt>
      <trkpt lat="42.466474" lon="0.506143">
        <ele>1353.8</ele>
        <time>2018-06-13T08:06:33Z</time>
      </trkpt>
      <trkpt lat="42.466496" lon="0.505998">
        <ele>1355.5</ele>
        <time>2018-06-13T08:06:36Z</time>
      </trkpt>
      <trkpt lat="42.466543" lon="0.505852">
        <ele>1356.1</ele>
        <time>2018-06-13T08:06:39Z</time>
      </trkpt>
      <trkpt lat="42.466573" lon="0.505727">
        <ele>1357.7</ele>
        <time>2018-06-13T08:06:42Z</time>
      </trkpt>
      <trkpt lat="42.466651" lon="0.505596">
        <ele>1357.2</ele>
        <time>2018-06-13T08:06:45Z</time>
      </trkpt>
      <trkpt lat="42.466726" lon="0.505461">
        <ele>1356.5</ele>
        <time>2018-06-13T08:06:48Z</time>
      </trkpt>
      <trkpt lat="42.466778" lon="0.505345">
        <ele>1356.4</ele>
        <time>2018-06-13T08:06:51Z</time>
      </trkpt>
      <trkpt lat="42.466809" lon="0.505215">
        <ele>1357.5</ele>
        <time>2018-06-13T08:06:54Z</time>
      </trkpt>
      <trkpt lat="42.466838" lon="0.505092">
        <ele>1358.9</ele>
        <time>2018-06-13T08:06:56Z</time>
      </trkpt>
      <trkpt lat="42.466869" lon="0.504938">
        <ele>1360.9</ele>
        <time>2018-06-13T08:06:59Z</time>
      </trkpt>
      <trkpt lat="42.466889" lon="0.504810">
        <ele>1361.5</ele>
        <time>2018-06-13T08:07:02Z</time>
      </trkpt>
      <trkpt lat="42.466918" lon="0.504675">
        <ele>1359.9</ele>
        <time>2018-06-13T08:07:05Z</time>
      </trkpt>
      <trkpt lat="42.466946" lon="0.504533">
        <ele>1358.7</ele>
        <time>2018-06-13T08:07:07Z</time>
      </trkpt>
      <trkpt lat="42.466958" lon="0.504404">
        <ele>1358.6</ele>
        <time>2018-06-13T08:07:10Z</time>
      </trkpt>
      <trkpt lat="42.466975" lon="0.504265">
        <ele>1358.1</ele>
        <time>2018-06-13T08:07:13Z</time>
      </trkpt>
      <trkpt lat="42.466998" lon="0.504121">
        <ele>1356.9</ele>
        <time>2018-06-13T08:07:16Z</time>
      </trkpt>
      <trkpt lat="42.467028" lon="0.503970">
        <ele>1355.6</ele>
        <time>2018-06-13T08:07:19Z</time>
      </trkpt>
      <trkpt lat="42.467037" lon="0.503841">
        <ele>1356.4</ele>
        <time>2018-06-13T08:07:21Z</time>
      </trkpt>
      <trkpt lat="42.467050" lon="0.503699">
        <ele>1356.7</ele>
        <time>2018-06-13T08:07:24Z</time>
      </trkpt>
      <trkpt lat="42.467074" lon="0.503547">
        <ele>1356.1</ele>
        <time>2018-06-13T08:07:27Z</time>
      </trkpt>
      <trkpt lat="42.467107" lon="0.503400">
        <ele>1356.6</ele>
        <time>2018-06-13T08:07:30Z</time>
      </trkpt>
      <trkpt lat="42.467114" lon="0.503276">
        <ele>1358.8</ele>
        <time>2018-06-13T08:07:32Z</time>
      </trkpt>
      <trkpt lat="42.467120" lon="0.503130">
        <ele>1361.7</ele>
        <time>2018-06-13T08:07:35Z</time>
      </trkpt>
      <trkpt lat="42.467155" lon="0.503015">
        <ele>1362.3</ele>
        <time>2018-06-13T08:07:38Z</time>
      </trkpt>
      <trkpt lat="42.467184" lon="0.502869">
        <ele>1362.9</ele>
        <time>2018-06-13T08:07:41Z</time>
      </trkpt>
      <trkpt lat="42.467229" lon="0.502726">
        <ele>1361.5</ele>
        <time>2018-06-13T08:07:44Z</time>
      </trkpt>
      <trkpt lat="42.467257" lon="0.502581">
        <ele>1361.6</ele>
        <time>2018-06-13T08:07:47Z</time>
      </trkpt>
      <trkpt lat="42.467273" lon="0.502455">
        <ele>1362.4</ele>
        <time>2018-06-13T08:07:49Z</time>
      </trkpt>
      <trkpt lat="42.467288" lon="0.502327">
        <ele>1363.4</ele>
        <time>2018-06-13T08:07:52Z</time>
      </trkpt>
      <trkpt lat="42.467310" lon="0.502198">
        <ele>1364.1</ele>
        <time>2018-06-13T08:07:54Z</time>
      </trkpt>
      <trkpt lat="42.467334" lon="0.502069">
        <ele>1364.8</ele>
        <time>2018-06-13T08:07:57Z</time>
      </trkpt>
      <trkpt lat="42.467358" lon="0.501944">
        <ele>1366.2</ele>
        <time>2018-06-13T08:07:59Z</time>
      </trkpt>
      <trkpt lat="42.467389" lon="0.501808">
        <ele>1367.8</ele>
        <time>2018-06-13T08:08:02Z</time>
      </trkpt>
      <trkpt lat="42.467423" lon="0.501681">
        <ele>1369.7</ele>
        <time>2018-06-13T08:08:05Z</time>
      </trkpt>
      <trkpt lat="42.467467" lon="0.501541">
        <ele>1371.5</ele>
        <time>2018-06-13T08:08:08Z</time>
      </trkpt>
      <trkpt lat="42.467495" lon="0.501408">
        <ele>1376.1</ele>
        <time>2018-06-13T08:08:11Z</time>
      </trkpt>
      <trkpt lat="42.467579" lon="0.501248">
        <ele>1380.2</ele>
        <time>2018-06-13T08:08:15Z</time>
      </trkpt>
      <trkpt lat="42.467612" lon="0.501100">
        <ele>1384.3</ele>
        <time>2018-06-13T08:08:18Z</time>
      </trkpt>
      <trkpt lat="42.467651" lon="0.500949">
        <ele>1388.2</ele>
        <time>2018-06-13T08:08:21Z</time>
      </trkpt>
      <trkpt lat="42.467690" lon="0.500826">
        <ele>1390.4</ele>
        <time>2018-06-13T08:08:24Z</time>
      </trkpt>
      <trkpt lat="42.467739" lon="0.500689">
        <ele>1392.4</ele>
        <time>2018-06-13T08:08:27Z</time>
      </trkpt>
      <trkpt lat="42.467819" lon="0.500579">
        <ele>1391.3</ele>
        <time>2018-06-13T08:08:30Z</time>
      </trkpt>
      <trkpt lat="42.467918" lon="0.500516">
        <ele>1389.1</ele>
        <time>2018-06-13T08:08:33Z</time>
      </trkpt>
      <trkpt lat="42.468026" lon="0.500445">
        <ele>1387.0</ele>
        <time>2018-06-13T08:08:36Z</time>
      </trkpt>
      <trkpt lat="42.468117" lon="0.500348">
        <ele>1384.7</ele>
        <time>2018-06-13T08:08:39Z</time>
      </trkpt>
      <trkpt lat="42.468209" lon="0.500242">
        <ele>1381.8</ele>
        <time>2018-06-13T08:08:42Z</time>
      </trkpt>
      <trkpt lat="42.468301" lon="0.500159">
        <ele>1379.4</ele>
        <time>2018-06-13T08:08:45Z</time>
      </trkpt>
      <trkpt lat="42.468379" lon="0.500041">
        <ele>1378.1</ele>
        <time>2018-06-13T08:08:48Z</time>
      </trkpt>
      <trkpt lat="42.468438" lon="0.499919">
        <ele>1377.5</ele>
        <time>2018-06-13T08:08:51Z</time>
      </trkpt>
      <trkpt lat="42.468482" lon="0.499786">
        <ele>1377.3</ele>
        <time>2018-06-13T08:08:54Z</time>
      </trkpt>
      <trkpt lat="42.468526" lon="0.499611">
        <ele>1377.4</ele>
        <time>2018-06-13T08:08:58Z</time>
      </trkpt>
      <trkpt lat="42.468549" lon="0.499468">
        <ele>1377.5</ele>
        <time>2018-06-13T08:09:01Z</time>
      </trkpt>
      <trkpt lat="42.468583" lon="0.499326">
        <ele>1377.7</ele>
        <time>2018-06-13T08:09:04Z</time>
      </trkpt>
      <trkpt lat="42.468588" lon="0.499167">
        <ele>1379.5</ele>
        <time>2018-06-13T08:09:07Z</time>
      </trkpt>
      <trkpt lat="42.468594" lon="0.499002">
        <ele>1381.5</ele>
        <time>2018-06-13T08:09:10Z</time>
      </trkpt>
      <trkpt lat="42.468687" lon="0.498830">
        <ele>1381.5</ele>
        <time>2018-06-13T08:09:14Z</time>
      </trkpt>
      <trkpt lat="42.468812" lon="0.498840">
        <ele>1378.9</ele>
        <time>2018-06-13T08:09:17Z</time>
      </trkpt>
      <trkpt lat="42.468935" lon="0.498862">
        <ele>1376.1</ele>
        <time>2018-06-13T08:09:21Z</time>
      </trkpt>
      <trkpt lat="42.469034" lon="0.498864">
        <ele>1373.9</ele>
        <time>2018-06-13T08:09:23Z</time>
      </trkpt>
      <trkpt lat="42.469137" lon="0.498867">
        <ele>1372.4</ele>
        <time>2018-06-13T08:09:26Z</time>
      </trkpt>
      <trkpt lat="42.469232" lon="0.498877">
        <ele>1371.1</ele>
        <time>2018-06-13T08:09:29Z</time>
      </trkpt>
      <trkpt lat="42.469331" lon="0.498908">
        <ele>1369.8</ele>
        <time>2018-06-13T08:09:31Z</time>
      </trkpt>
      <trkpt lat="42.469428" lon="0.498900">
        <ele>1369.1</ele>
        <time>2018-06-13T08:09:34Z</time>
      </trkpt>
      <trkpt lat="42.469506" lon="0.498831">
        <ele>1368.9</ele>
        <time>2018-06-13T08:09:36Z</time>
      </trkpt>
      <trkpt lat="42.469549" lon="0.498721">
        <ele>1369.3</ele>
        <time>2018-06-13T08:09:39Z</time>
      </trkpt>
      <trkpt lat="42.469556" lon="0.498566">
        <ele>1369.9</ele>
        <time>2018-06-13T08:09:42Z</time>
      </trkpt>
      <trkpt lat="42.469650" lon="0.498458">
        <ele>1370.0</ele>
        <time>2018-06-13T08:09:45Z</time>
      </trkpt>
      <trkpt lat="42.469782" lon="0.498409">
        <ele>1370.2</ele>
        <time>2018-06-13T08:09:49Z</time>
      </trkpt>
      <trkpt lat="42.469875" lon="0.498349">
        <ele>1370.5</ele>
        <time>2018-06-13T08:09:51Z</time>
      </trkpt>
      <trkpt lat="42.469970" lon="0.498267">
        <ele>1370.1</ele>
        <time>2018-06-13T08:09:54Z</time>
      </trkpt>
      <trkpt lat="42.470069" lon="0.498170">
        <ele>1369.8</ele>
        <time>2018-06-13T08:09:58Z</time>
      </trkpt>
      <trkpt lat="42.470169" lon="0.498069">
        <ele>1370.2</ele>
        <time>2018-06-13T08:10:01Z</time>
      </trkpt>
      <trkpt lat="42.470243" lon="0.497946">
        <ele>1371.5</ele>
        <time>2018-06-13T08:10:04Z</time>
      </trkpt>
      <trkpt lat="42.470301" lon="0.497830">
        <ele>1372.6</ele>
        <time>2018-06-13T08:10:07Z</time>
      </trkpt>
      <trkpt lat="42.470368" lon="0.497744">
        <ele>1372.6</ele>
        <time>2018-06-13T08:10:09Z</time>
      </trkpt>
      <trkpt lat="42.470445" lon="0.497676">
        <ele>1371.7</ele>
        <time>2018-06-13T08:10:12Z</time>
      </trkpt>
      <trkpt lat="42.470526" lon="0.497603">
        <ele>1371.1</ele>
        <time>2018-06-13T08:10:14Z</time>
      </trkpt>
      <trkpt lat="42.470602" lon="0.497517">
        <ele>1371.3</ele>
        <time>2018-06-13T08:10:17Z</time>
      </trkpt>
      <trkpt lat="42.470734" lon="0.497465">
        <ele>1369.6</ele>
        <time>2018-06-13T08:10:21Z</time>
      </trkpt>
      <trkpt lat="42.470843" lon="0.497417">
        <ele>1368.5</ele>
        <time>2018-06-13T08:10:24Z</time>
      </trkpt>
      <trkpt lat="42.470935" lon="0.497329">
        <ele>1368.3</ele>
        <time>2018-06-13T08:10:27Z</time>
      </trkpt>
      <trkpt lat="42.471033" lon="0.497317">
        <ele>1365.6</ele>
        <time>2018-06-13T08:10:29Z</time>
      </trkpt>
      <trkpt lat="42.471113" lon="0.497387">
        <ele>1362.0</ele>
        <time>2018-06-13T08:10:32Z</time>
      </trkpt>
      <trkpt lat="42.471191" lon="0.497464">
        <ele>1358.6</ele>
        <time>2018-06-13T08:10:35Z</time>
      </trkpt>
      <trkpt lat="42.471272" lon="0.497526">
        <ele>1355.9</ele>
        <time>2018-06-13T08:10:37Z</time>
      </trkpt>
      <trkpt lat="42.471386" lon="0.497592">
        <ele>1353.5</ele>
        <time>2018-06-13T08:10:40Z</time>
      </trkpt>
      <trkpt lat="42.471495" lon="0.497626">
        <ele>1351.6</ele>
        <time>2018-06-13T08:10:43Z</time>
      </trkpt>
      <trkpt lat="42.471583" lon="0.497730">
        <ele>1350.3</ele>
        <time>2018-06-13T08:10:46Z</time>
      </trkpt>
      <trkpt lat="42.471642" lon="0.497847">
        <ele>1349.7</ele>
        <time>2018-06-13T08:10:49Z</time>
      </trkpt>
      <trkpt lat="42.471737" lon="0.497874">
        <ele>1349.3</ele>
        <time>2018-06-13T08:10:52Z</time>
      </trkpt>
      <trkpt lat="42.471827" lon="0.497913">
        <ele>1348.8</ele>
        <time>2018-06-13T08:10:54Z</time>
      </trkpt>
      <trkpt lat="42.471954" lon="0.497955">
        <ele>1347.8</ele>
        <time>2018-06-13T08:10:58Z</time>
      </trkpt>
      <trkpt lat="42.472036" lon="0.498024">
        <ele>1347.0</ele>
        <time>2018-06-13T08:11:00Z</time>
      </trkpt>
      <trkpt lat="42.472111" lon="0.498109">
        <ele>1346.4</ele>
        <time>2018-06-13T08:11:03Z</time>
      </trkpt>
      <trkpt lat="42.472144" lon="0.498180">
        <ele>1346.3</ele>
        <time>2018-06-13T08:11:05Z</time>
      </trkpt>
      <trkpt lat="42.472151" lon="0.498185">
        <ele>1346.3</ele>
        <time>2018-06-13T08:11:05Z</time>
      </trkpt>
      <trkpt lat="42.472200" lon="0.498295">
        <ele>1346.1</ele>
        <time>2018-06-13T08:11:07Z</time>
      </trkpt>
      <trkpt lat="42.472292" lon="0.498284">
        <ele>1346.3</ele>
        <time>2018-06-13T08:11:10Z</time>
      </trkpt>
      <trkpt lat="42.472355" lon="0.498148">
        <ele>1347.0</ele>
        <time>2018-06-13T08:11:13Z</time>
      </trkpt>
      <trkpt lat="42.472409" lon="0.497979">
        <ele>1346.4</ele>
        <time>2018-06-13T08:11:16Z</time>
      </trkpt>
      <trkpt lat="42.472467" lon="0.497816">
        <ele>1346.1</ele>
        <time>2018-06-13T08:11:20Z</time>
      </trkpt>
      <trkpt lat="42.472538" lon="0.497701">
        <ele>1346.1</ele>
        <time>2018-06-13T08:11:23Z</time>
      </trkpt>
      <trkpt lat="42.472638" lon="0.497611">
        <ele>1345.9</ele>
        <time>2018-06-13T08:11:26Z</time>
      </trkpt>
      <trkpt lat="42.472720" lon="0.497548">
        <ele>1344.8</ele>
        <time>2018-06-13T08:11:29Z</time>
      </trkpt>
      <trkpt lat="42.472807" lon="0.497462">
        <ele>1344.1</ele>
        <time>2018-06-13T08:11:31Z</time>
      </trkpt>
      <trkpt lat="42.472889" lon="0.497369">
        <ele>1344.1</ele>
        <time>2018-06-13T08:11:34Z</time>
      </trkpt>
      <trkpt lat="42.472961" lon="0.497272">
        <ele>1343.3</ele>
        <time>2018-06-13T08:11:37Z</time>
      </trkpt>
      <trkpt lat="42.473027" lon="0.497168">
        <ele>1342.3</ele>
        <time>2018-06-13T08:11:40Z</time>
      </trkpt>
      <trkpt lat="42.473092" lon="0.497061">
        <ele>1341.3</ele>
        <time>2018-06-13T08:11:42Z</time>
      </trkpt>
      <trkpt lat="42.473160" lon="0.496949">
        <ele>1339.2</ele>
        <time>2018-06-13T08:11:45Z</time>
      </trkpt>
      <trkpt lat="42.473238" lon="0.496837">
        <ele>1336.7</ele>
        <time>2018-06-13T08:11:48Z</time>
      </trkpt>
      <trkpt lat="42.473325" lon="0.496725">
        <ele>1335.1</ele>
        <time>2018-06-13T08:11:51Z</time>
      </trkpt>
      <trkpt lat="42.473405" lon="0.496604">
        <ele>1333.6</ele>
        <time>2018-06-13T08:11:55Z</time>
      </trkpt>
      <trkpt lat="42.473470" lon="0.496477">
        <ele>1332.2</ele>
        <time>2018-06-13T08:11:58Z</time>
      </trkpt>
      <trkpt lat="42.473484" lon="0.496308">
        <ele>1332.7</ele>
        <time>2018-06-13T08:12:01Z</time>
      </trkpt>
      <trkpt lat="42.473422" lon="0.496232">
        <ele>1333.7</ele>
        <time>2018-06-13T08:12:03Z</time>
      </trkpt>
      <trkpt lat="42.473330" lon="0.496203">
        <ele>1334.9</ele>
        <time>2018-06-13T08:12:06Z</time>
      </trkpt>
      <trkpt lat="42.473240" lon="0.496200">
        <ele>1335.7</ele>
        <time>2018-06-13T08:12:08Z</time>
      </trkpt>
      <trkpt lat="42.473118" lon="0.496166">
        <ele>1337.9</ele>
        <time>2018-06-13T08:12:11Z</time>
      </trkpt>
      <trkpt lat="42.473040" lon="0.496021">
        <ele>1339.7</ele>
        <time>2018-06-13T08:12:15Z</time>
      </trkpt>
      <trkpt lat="42.473046" lon="0.495850">
        <ele>1339.4</ele>
        <time>2018-06-13T08:12:18Z</time>
      </trkpt>
      <trkpt lat="42.473086" lon="0.495723">
        <ele>1338.6</ele>
        <time>2018-06-13T08:12:21Z</time>
      </trkpt>
      <trkpt lat="42.473132" lon="0.495583">
        <ele>1338.0</ele>
        <time>2018-06-13T08:12:24Z</time>
      </trkpt>
      <trkpt lat="42.473159" lon="0.495459">
        <ele>1337.6</ele>
        <time>2018-06-13T08:12:26Z</time>
      </trkpt>
      <trkpt lat="42.473147" lon="0.495340">
        <ele>1338.0</ele>
        <time>2018-06-13T08:12:29Z</time>
      </trkpt>
      <trkpt lat="42.473061" lon="0.495270">
        <ele>1340.2</ele>
        <time>2018-06-13T08:12:31Z</time>
      </trkpt>
      <trkpt lat="42.472954" lon="0.495238">
        <ele>1343.0</ele>
        <time>2018-06-13T08:12:34Z</time>
      </trkpt>
      <trkpt lat="42.472857" lon="0.495223">
        <ele>1345.4</ele>
        <time>2018-06-13T08:12:37Z</time>
      </trkpt>
      <trkpt lat="42.472772" lon="0.495167">
        <ele>1347.8</ele>
        <time>2018-06-13T08:12:40Z</time>
      </trkpt>
      <trkpt lat="42.472699" lon="0.495088">
        <ele>1350.4</ele>
        <time>2018-06-13T08:12:42Z</time>
      </trkpt>
      <trkpt lat="42.472624" lon="0.495006">
        <ele>1353.3</ele>
        <time>2018-06-13T08:12:45Z</time>
      </trkpt>
      <trkpt lat="42.472579" lon="0.494894">
        <ele>1356.2</ele>
        <time>2018-06-13T08:12:47Z</time>
      </trkpt>
      <trkpt lat="42.472595" lon="0.494749">
        <ele>1357.2</ele>
        <time>2018-06-13T08:12:50Z</time>
      </trkpt>
      <trkpt lat="42.472622" lon="0.494607">
        <ele>1357.4</ele>
        <time>2018-06-13T08:12:53Z</time>
      </trkpt>
      <trkpt lat="42.472600" lon="0.494478">
        <ele>1360.4</ele>
        <time>2018-06-13T08:12:56Z</time>
      </trkpt>
      <trkpt lat="42.472519" lon="0.494483">
        <ele>1363.3</ele>
        <time>2018-06-13T08:12:58Z</time>
      </trkpt>
      <trkpt lat="42.472448" lon="0.494563">
        <ele>1364.3</ele>
        <time>2018-06-13T08:13:01Z</time>
      </trkpt>
      <trkpt lat="42.472362" lon="0.494632">
        <ele>1366.3</ele>
        <time>2018-06-13T08:13:03Z</time>
      </trkpt>
      <trkpt lat="42.472281" lon="0.494701">
        <ele>1368.7</ele>
        <time>2018-06-13T08:13:06Z</time>
      </trkpt>
      <trkpt lat="42.472201" lon="0.494769">
        <ele>1370.8</ele>
        <time>2018-06-13T08:13:08Z</time>
      </trkpt>
      <trkpt lat="42.472117" lon="0.494832">
        <ele>1373.2</ele>
        <time>2018-06-13T08:13:11Z</time>
      </trkpt>
      <trkpt lat="42.472019" lon="0.494817">
        <ele>1375.1</ele>
        <time>2018-06-13T08:13:14Z</time>
      </trkpt>
      <trkpt lat="42.472044" lon="0.494696">
        <ele>1376.8</ele>
        <time>2018-06-13T08:13:16Z</time>
      </trkpt>
      <trkpt lat="42.472093" lon="0.494572">
        <ele>1378.5</ele>
        <time>2018-06-13T08:13:19Z</time>
      </trkpt>
      <trkpt lat="42.472128" lon="0.494446">
        <ele>1377.1</ele>
        <time>2018-06-13T08:13:21Z</time>
      </trkpt>
      <trkpt lat="42.472160" lon="0.494315">
        <ele>1376.6</ele>
        <time>2018-06-13T08:13:24Z</time>
      </trkpt>
      <trkpt lat="42.472180" lon="0.494182">
        <ele>1376.0</ele>
        <time>2018-06-13T08:13:27Z</time>
      </trkpt>
      <trkpt lat="42.472186" lon="0.494059">
        <ele>1375.6</ele>
        <time>2018-06-13T08:13:29Z</time>
      </trkpt>
      <trkpt lat="42.472169" lon="0.493951">
        <ele>1375.3</ele>
        <time>2018-06-13T08:13:31Z</time>
      </trkpt>
      <trkpt lat="42.472165" lon="0.493818">
        <ele>1374.5</ele>
        <time>2018-06-13T08:13:34Z</time>
      </trkpt>
      <trkpt lat="42.472152" lon="0.493694">
        <ele>1374.1</ele>
        <time>2018-06-13T08:13:36Z</time>
      </trkpt>
      <trkpt lat="42.472135" lon="0.493565">
        <ele>1373.8</ele>
        <time>2018-06-13T08:13:39Z</time>
      </trkpt>
      <trkpt lat="42.472082" lon="0.493457">
        <ele>1374.1</ele>
        <time>2018-06-13T08:13:41Z</time>
      </trkpt>
      <trkpt lat="42.471993" lon="0.493471">
        <ele>1375.6</ele>
        <time>2018-06-13T08:13:44Z</time>
      </trkpt>
      <trkpt lat="42.471919" lon="0.493560">
        <ele>1376.3</ele>
        <time>2018-06-13T08:13:46Z</time>
      </trkpt>
      <trkpt lat="42.471882" lon="0.493681">
        <ele>1375.7</ele>
        <time>2018-06-13T08:13:49Z</time>
      </trkpt>
      <trkpt lat="42.471851" lon="0.493815">
        <ele>1375.3</ele>
        <time>2018-06-13T08:13:52Z</time>
      </trkpt>
      <trkpt lat="42.471768" lon="0.493887">
        <ele>1375.4</ele>
        <time>2018-06-13T08:13:54Z</time>
      </trkpt>
      <trkpt lat="42.471666" lon="0.493873">
        <ele>1375.0</ele>
        <time>2018-06-13T08:13:57Z</time>
      </trkpt>
      <trkpt lat="42.471602" lon="0.493769">
        <ele>1375.0</ele>
        <time>2018-06-13T08:14:00Z</time>
      </trkpt>
      <trkpt lat="42.471565" lon="0.493642">
        <ele>1376.2</ele>
        <time>2018-06-13T08:14:02Z</time>
      </trkpt>
      <trkpt lat="42.471531" lon="0.493528">
        <ele>1377.4</ele>
        <time>2018-06-13T08:14:05Z</time>
      </trkpt>
      <trkpt lat="42.471549" lon="0.493396">
        <ele>1379.2</ele>
        <time>2018-06-13T08:14:07Z</time>
      </trkpt>
      <trkpt lat="42.471590" lon="0.493264">
        <ele>1381.1</ele>
        <time>2018-06-13T08:14:10Z</time>
      </trkpt>
      <trkpt lat="42.471632" lon="0.493123">
        <ele>1382.6</ele>
        <time>2018-06-13T08:14:13Z</time>
      </trkpt>
      <trkpt lat="42.471661" lon="0.493003">
        <ele>1383.7</ele>
        <time>2018-06-13T08:14:16Z</time>
      </trkpt>
      <trkpt lat="42.471679" lon="0.492869">
        <ele>1385.2</ele>
        <time>2018-06-13T08:14:18Z</time>
      </trkpt>
      <trkpt lat="42.471702" lon="0.492726">
        <ele>1387.2</ele>
        <time>2018-06-13T08:14:21Z</time>
      </trkpt>
      <trkpt lat="42.471719" lon="0.492580">
        <ele>1389.3</ele>
        <time>2018-06-13T08:14:24Z</time>
      </trkpt>
      <trkpt lat="42.471700" lon="0.492448">
        <ele>1391.6</ele>
        <time>2018-06-13T08:14:27Z</time>
      </trkpt>
      <trkpt lat="42.471627" lon="0.492344">
        <ele>1394.2</ele>
        <time>2018-06-13T08:14:30Z</time>
      </trkpt>
      <trkpt lat="42.471535" lon="0.492304">
        <ele>1395.9</ele>
        <time>2018-06-13T08:14:32Z</time>
      </trkpt>
      <trkpt lat="42.471437" lon="0.492269">
        <ele>1395.3</ele>
        <time>2018-06-13T08:14:35Z</time>
      </trkpt>
      <trkpt lat="42.471331" lon="0.492242">
        <ele>1394.0</ele>
        <time>2018-06-13T08:14:38Z</time>
      </trkpt>
      <trkpt lat="42.471240" lon="0.492234">
        <ele>1392.7</ele>
        <time>2018-06-13T08:14:40Z</time>
      </trkpt>
      <trkpt lat="42.471146" lon="0.492215">
        <ele>1392.2</ele>
        <time>2018-06-13T08:14:43Z</time>
      </trkpt>
      <trkpt lat="42.471038" lon="0.492193">
        <ele>1391.4</ele>
        <time>2018-06-13T08:14:46Z</time>
      </trkpt>
      <trkpt lat="42.470939" lon="0.492138">
        <ele>1391.5</ele>
        <time>2018-06-13T08:14:49Z</time>
      </trkpt>
      <trkpt lat="42.470869" lon="0.492051">
        <ele>1392.4</ele>
        <time>2018-06-13T08:14:51Z</time>
      </trkpt>
      <trkpt lat="42.470855" lon="0.491949">
        <ele>1393.7</ele>
        <time>2018-06-13T08:14:53Z</time>
      </trkpt>
      <trkpt lat="42.470823" lon="0.491822">
        <ele>1395.3</ele>
        <time>2018-06-13T08:14:56Z</time>
      </trkpt>
      <trkpt lat="42.470842" lon="0.491688">
        <ele>1397.3</ele>
        <time>2018-06-13T08:14:58Z</time>
      </trkpt>
      <trkpt lat="42.470921" lon="0.491588">
        <ele>1399.4</ele>
        <time>2018-06-13T08:15:01Z</time>
      </trkpt>
      <trkpt lat="42.471023" lon="0.491564">
        <ele>1400.9</ele>
        <time>2018-06-13T08:15:04Z</time>
      </trkpt>
      <trkpt lat="42.471124" lon="0.491543">
        <ele>1402.4</ele>
        <time>2018-06-13T08:15:07Z</time>
      </trkpt>
      <trkpt lat="42.471223" lon="0.491521">
        <ele>1403.8</ele>
        <time>2018-06-13T08:15:09Z</time>
      </trkpt>
      <trkpt lat="42.471323" lon="0.491461">
        <ele>1405.7</ele>
        <time>2018-06-13T08:15:12Z</time>
      </trkpt>
      <trkpt lat="42.471420" lon="0.491383">
        <ele>1407.6</ele>
        <time>2018-06-13T08:15:15Z</time>
      </trkpt>
      <trkpt lat="42.471522" lon="0.491325">
        <ele>1409.1</ele>
        <time>2018-06-13T08:15:18Z</time>
      </trkpt>
      <trkpt lat="42.471608" lon="0.491279">
        <ele>1409.7</ele>
        <time>2018-06-13T08:15:21Z</time>
      </trkpt>
      <trkpt lat="42.471700" lon="0.491201">
        <ele>1410.6</ele>
        <time>2018-06-13T08:15:24Z</time>
      </trkpt>
      <trkpt lat="42.471796" lon="0.491148">
        <ele>1411.1</ele>
        <time>2018-06-13T08:15:26Z</time>
      </trkpt>
      <trkpt lat="42.471888" lon="0.491100">
        <ele>1410.6</ele>
        <time>2018-06-13T08:15:29Z</time>
      </trkpt>
      <trkpt lat="42.471983" lon="0.491045">
        <ele>1410.1</ele>
        <time>2018-06-13T08:15:32Z</time>
      </trkpt>
      <trkpt lat="42.472058" lon="0.490938">
        <ele>1410.9</ele>
        <time>2018-06-13T08:15:35Z</time>
      </trkpt>
      <trkpt lat="42.472066" lon="0.490815">
        <ele>1413.0</ele>
        <time>2018-06-13T08:15:37Z</time>
      </trkpt>
      <trkpt lat="42.471997" lon="0.490727">
        <ele>1415.1</ele>
        <time>2018-06-13T08:15:40Z</time>
      </trkpt>
      <trkpt lat="42.471910" lon="0.490679">
        <ele>1416.6</ele>
        <time>2018-06-13T08:15:42Z</time>
      </trkpt>
      <trkpt lat="42.471909" lon="0.490551">
        <ele>1419.3</ele>
        <time>2018-06-13T08:15:45Z</time>
      </trkpt>
      <trkpt lat="42.471985" lon="0.490476">
        <ele>1421.4</ele>
        <time>2018-06-13T08:15:47Z</time>
      </trkpt>
      <trkpt lat="42.472063" lon="0.490396">
        <ele>1424.3</ele>
        <time>2018-06-13T08:15:50Z</time>
      </trkpt>
      <trkpt lat="42.472157" lon="0.490323">
        <ele>1426.3</ele>
        <time>2018-06-13T08:15:53Z</time>
      </trkpt>
      <trkpt lat="42.472223" lon="0.490288">
        <ele>1427.0</ele>
        <time>2018-06-13T08:15:55Z</time>
      </trkpt>
      <trkpt lat="42.472292" lon="0.490186">
        <ele>1429.2</ele>
        <time>2018-06-13T08:15:57Z</time>
      </trkpt>
      <trkpt lat="42.472373" lon="0.490065">
        <ele>1430.9</ele>
        <time>2018-06-13T08:16:01Z</time>
      </trkpt>
      <trkpt lat="42.472442" lon="0.489959">
        <ele>1432.6</ele>
        <time>2018-06-13T08:16:03Z</time>
      </trkpt>
      <trkpt lat="42.472516" lon="0.489868">
        <ele>1434.1</ele>
        <time>2018-06-13T08:16:06Z</time>
      </trkpt>
      <trkpt lat="42.472608" lon="0.489836">
        <ele>1434.7</ele>
        <time>2018-06-13T08:16:09Z</time>
      </trkpt>
      <trkpt lat="42.472695" lon="0.489885">
        <ele>1434.2</ele>
        <time>2018-06-13T08:16:11Z</time>
      </trkpt>
      <trkpt lat="42.472792" lon="0.489918">
        <ele>1432.9</ele>
        <time>2018-06-13T08:16:14Z</time>
      </trkpt>
      <trkpt lat="42.472881" lon="0.489908">
        <ele>1432.1</ele>
        <time>2018-06-13T08:16:16Z</time>
      </trkpt>
      <trkpt lat="42.472978" lon="0.489857">
        <ele>1431.0</ele>
        <time>2018-06-13T08:16:19Z</time>
      </trkpt>
      <trkpt lat="42.473059" lon="0.489760">
        <ele>1431.1</ele>
        <time>2018-06-13T08:16:22Z</time>
      </trkpt>
      <trkpt lat="42.473121" lon="0.489662">
        <ele>1431.7</ele>
        <time>2018-06-13T08:16:24Z</time>
      </trkpt>
      <trkpt lat="42.473206" lon="0.489609">
        <ele>1431.4</ele>
        <time>2018-06-13T08:16:27Z</time>
      </trkpt>
      <trkpt lat="42.473294" lon="0.489633">
        <ele>1429.7</ele>
        <time>2018-06-13T08:16:29Z</time>
      </trkpt>
      <trkpt lat="42.473401" lon="0.489650">
        <ele>1427.8</ele>
        <time>2018-06-13T08:16:32Z</time>
      </trkpt>
      <trkpt lat="42.473504" lon="0.489588">
        <ele>1428.2</ele>
        <time>2018-06-13T08:16:35Z</time>
      </trkpt>
      <trkpt lat="42.473580" lon="0.489504">
        <ele>1430.2</ele>
        <time>2018-06-13T08:16:38Z</time>
      </trkpt>
      <trkpt lat="42.473666" lon="0.489473">
        <ele>1431.0</ele>
        <time>2018-06-13T08:16:40Z</time>
      </trkpt>
      <trkpt lat="42.473720" lon="0.489370">
        <ele>1432.3</ele>
        <time>2018-06-13T08:16:42Z</time>
      </trkpt>
      <trkpt lat="42.473762" lon="0.489257">
        <ele>1433.6</ele>
        <time>2018-06-13T08:16:45Z</time>
      </trkpt>
      <trkpt lat="42.473809" lon="0.489128">
        <ele>1435.3</ele>
        <time>2018-06-13T08:16:48Z</time>
      </trkpt>
      <trkpt lat="42.473864" lon="0.488999">
        <ele>1436.4</ele>
        <time>2018-06-13T08:16:51Z</time>
      </trkpt>
      <trkpt lat="42.473875" lon="0.488865">
        <ele>1436.5</ele>
        <time>2018-06-13T08:16:53Z</time>
      </trkpt>
      <trkpt lat="42.473782" lon="0.488828">
        <ele>1436.7</ele>
        <time>2018-06-13T08:16:56Z</time>
      </trkpt>
      <trkpt lat="42.473693" lon="0.488896">
        <ele>1436.8</ele>
        <time>2018-06-13T08:16:59Z</time>
      </trkpt>
      <trkpt lat="42.473605" lon="0.488864">
        <ele>1437.3</ele>
        <time>2018-06-13T08:17:01Z</time>
      </trkpt>
      <trkpt lat="42.473567" lon="0.488735">
        <ele>1437.7</ele>
        <time>2018-06-13T08:17:04Z</time>
      </trkpt>
      <trkpt lat="42.473563" lon="0.488602">
        <ele>1437.8</ele>
        <time>2018-06-13T08:17:06Z</time>
      </trkpt>
      <trkpt lat="42.473567" lon="0.488473">
        <ele>1438.0</ele>
        <time>2018-06-13T08:17:09Z</time>
      </trkpt>
      <trkpt lat="42.473582" lon="0.488333">
        <ele>1437.4</ele>
        <time>2018-06-13T08:17:12Z</time>
      </trkpt>
      <trkpt lat="42.473603" lon="0.488202">
        <ele>1437.0</ele>
        <time>2018-06-13T08:17:14Z</time>
      </trkpt>
      <trkpt lat="42.473635" lon="0.488065">
        <ele>1437.1</ele>
        <time>2018-06-13T08:17:17Z</time>
      </trkpt>
      <trkpt lat="42.473684" lon="0.487934">
        <ele>1437.0</ele>
        <time>2018-06-13T08:17:20Z</time>
      </trkpt>
      <trkpt lat="42.473738" lon="0.487827">
        <ele>1437.0</ele>
        <time>2018-06-13T08:17:22Z</time>
      </trkpt>
      <trkpt lat="42.473789" lon="0.487719">
        <ele>1437.6</ele>
        <time>2018-06-13T08:17:25Z</time>
      </trkpt>
      <trkpt lat="42.473832" lon="0.487608">
        <ele>1438.7</ele>
        <time>2018-06-13T08:17:27Z</time>
      </trkpt>
      <trkpt lat="42.473865" lon="0.487493">
        <ele>1440.0</ele>
        <time>2018-06-13T08:17:30Z</time>
      </trkpt>
      <trkpt lat="42.473884" lon="0.487372">
        <ele>1440.9</ele>
        <time>2018-06-13T08:17:32Z</time>
      </trkpt>
      <trkpt lat="42.473907" lon="0.487239">
        <ele>1442.9</ele>
        <time>2018-06-13T08:17:35Z</time>
      </trkpt>
      <trkpt lat="42.473972" lon="0.487123">
        <ele>1445.0</ele>
        <time>2018-06-13T08:17:38Z</time>
      </trkpt>
      <trkpt lat="42.474066" lon="0.487045">
        <ele>1446.9</ele>
        <time>2018-06-13T08:17:41Z</time>
      </trkpt>
      <trkpt lat="42.474155" lon="0.487030">
        <ele>1448.1</ele>
        <time>2018-06-13T08:17:43Z</time>
      </trkpt>
      <trkpt lat="42.474259" lon="0.487041">
        <ele>1449.0</ele>
        <time>2018-06-13T08:17:46Z</time>
      </trkpt>
      <trkpt lat="42.474361" lon="0.487042">
        <ele>1450.0</ele>
        <time>2018-06-13T08:17:49Z</time>
      </trkpt>
      <trkpt lat="42.474452" lon="0.486990">
        <ele>1451.4</ele>
        <time>2018-06-13T08:17:51Z</time>
      </trkpt>
      <trkpt lat="42.474517" lon="0.486888">
        <ele>1452.9</ele>
        <time>2018-06-13T08:17:54Z</time>
      </trkpt>
      <trkpt lat="42.474590" lon="0.486795">
        <ele>1454.3</ele>
        <time>2018-06-13T08:17:56Z</time>
      </trkpt>
      <trkpt lat="42.474604" lon="0.486655">
        <ele>1456.7</ele>
        <time>2018-06-13T08:17:59Z</time>
      </trkpt>
      <trkpt lat="42.474553" lon="0.486534">
        <ele>1457.4</ele>
        <time>2018-06-13T08:18:02Z</time>
      </trkpt>
      <trkpt lat="42.474518" lon="0.486399">
        <ele>1458.3</ele>
        <time>2018-06-13T08:18:05Z</time>
      </trkpt>
      <trkpt lat="42.474492" lon="0.486264">
        <ele>1459.5</ele>
        <time>2018-06-13T08:18:08Z</time>
      </trkpt>
      <trkpt lat="42.474462" lon="0.486132">
        <ele>1460.7</ele>
        <time>2018-06-13T08:18:10Z</time>
      </trkpt>
      <trkpt lat="42.474411" lon="0.486009">
        <ele>1461.7</ele>
        <time>2018-06-13T08:18:13Z</time>
      </trkpt>
      <trkpt lat="42.474362" lon="0.485894">
        <ele>1463.1</ele>
        <time>2018-06-13T08:18:16Z</time>
      </trkpt>
      <trkpt lat="42.474309" lon="0.485793">
        <ele>1464.9</ele>
        <time>2018-06-13T08:18:18Z</time>
      </trkpt>
      <trkpt lat="42.474267" lon="0.485681">
        <ele>1466.7</ele>
        <time>2018-06-13T08:18:21Z</time>
      </trkpt>
      <trkpt lat="42.474202" lon="0.485564">
        <ele>1468.3</ele>
        <time>2018-06-13T08:18:23Z</time>
      </trkpt>
      <trkpt lat="42.474131" lon="0.485467">
        <ele>1469.4</ele>
        <time>2018-06-13T08:18:26Z</time>
      </trkpt>
      <trkpt lat="42.474042" lon="0.485412">
        <ele>1469.4</ele>
        <time>2018-06-13T08:18:29Z</time>
      </trkpt>
      <trkpt lat="42.473951" lon="0.485368">
        <ele>1471.6</ele>
        <time>2018-06-13T08:18:31Z</time>
      </trkpt>
      <trkpt lat="42.473863" lon="0.485311">
        <ele>1474.6</ele>
        <time>2018-06-13T08:18:34Z</time>
      </trkpt>
      <trkpt lat="42.473780" lon="0.485257">
        <ele>1477.2</ele>
        <time>2018-06-13T08:18:36Z</time>
      </trkpt>
      <trkpt lat="42.473687" lon="0.485214">
        <ele>1479.2</ele>
        <time>2018-06-13T08:18:39Z</time>
      </trkpt>
      <trkpt lat="42.473602" lon="0.485179">
        <ele>1480.8</ele>
        <time>2018-06-13T08:18:41Z</time>
      </trkpt>
      <trkpt lat="42.473514" lon="0.485138">
        <ele>1482.7</ele>
        <time>2018-06-13T08:18:44Z</time>
      </trkpt>
      <trkpt lat="42.473415" lon="0.485094">
        <ele>1485.6</ele>
        <time>2018-06-13T08:18:47Z</time>
      </trkpt>
      <trkpt lat="42.473325" lon="0.485035">
        <ele>1489.4</ele>
        <time>2018-06-13T08:18:50Z</time>
      </trkpt>
      <trkpt lat="42.473224" lon="0.485024">
        <ele>1491.5</ele>
        <time>2018-06-13T08:18:52Z</time>
      </trkpt>
      <trkpt lat="42.473114" lon="0.485026">
        <ele>1492.4</ele>
        <time>2018-06-13T08:18:55Z</time>
      </trkpt>
      <trkpt lat="42.473001" lon="0.485025">
        <ele>1493.3</ele>
        <time>2018-06-13T08:18:58Z</time>
      </trkpt>
      <trkpt lat="42.472894" lon="0.485026">
        <ele>1493.6</ele>
        <time>2018-06-13T08:19:01Z</time>
      </trkpt>
      <trkpt lat="42.472786" lon="0.485036">
        <ele>1492.4</ele>
        <time>2018-06-13T08:19:04Z</time>
      </trkpt>
      <trkpt lat="42.472681" lon="0.485044">
        <ele>1491.1</ele>
        <time>2018-06-13T08:19:07Z</time>
      </trkpt>
      <trkpt lat="42.472600" lon="0.485032">
        <ele>1491.0</ele>
        <time>2018-06-13T08:19:09Z</time>
      </trkpt>
      <trkpt lat="42.472500" lon="0.485018">
        <ele>1491.2</ele>
        <time>2018-06-13T08:19:12Z</time>
      </trkpt>
      <trkpt lat="42.472409" lon="0.485003">
        <ele>1491.5</ele>
        <time>2018-06-13T08:19:14Z</time>
      </trkpt>
      <trkpt lat="42.472315" lon="0.484997">
        <ele>1491.1</ele>
        <time>2018-06-13T08:19:16Z</time>
      </trkpt>
      <trkpt lat="42.472224" lon="0.484989">
        <ele>1490.4</ele>
        <time>2018-06-13T08:19:19Z</time>
      </trkpt>
      <trkpt lat="42.472130" lon="0.484970">
        <ele>1489.8</ele>
        <time>2018-06-13T08:19:21Z</time>
      </trkpt>
      <trkpt lat="42.472032" lon="0.484960">
        <ele>1490.8</ele>
        <time>2018-06-13T08:19:24Z</time>
      </trkpt>
      <trkpt lat="42.471927" lon="0.484966">
        <ele>1493.3</ele>
        <time>2018-06-13T08:19:27Z</time>
      </trkpt>
      <trkpt lat="42.471823" lon="0.485008">
        <ele>1494.9</ele>
        <time>2018-06-13T08:19:30Z</time>
      </trkpt>
      <trkpt lat="42.471728" lon="0.485082">
        <ele>1497.4</ele>
        <time>2018-06-13T08:19:33Z</time>
      </trkpt>
      <trkpt lat="42.471640" lon="0.485169">
        <ele>1499.7</ele>
        <time>2018-06-13T08:19:36Z</time>
      </trkpt>
      <trkpt lat="42.471558" lon="0.485240">
        <ele>1502.6</ele>
        <time>2018-06-13T08:19:38Z</time>
      </trkpt>
      <trkpt lat="42.471476" lon="0.485320">
        <ele>1503.4</ele>
        <time>2018-06-13T08:19:41Z</time>
      </trkpt>
      <trkpt lat="42.471397" lon="0.485393">
        <ele>1502.9</ele>
        <time>2018-06-13T08:19:43Z</time>
      </trkpt>
      <trkpt lat="42.471313" lon="0.485463">
        <ele>1502.0</ele>
        <time>2018-06-13T08:19:46Z</time>
      </trkpt>
      <trkpt lat="42.471225" lon="0.485518">
        <ele>1501.5</ele>
        <time>2018-06-13T08:19:49Z</time>
      </trkpt>
      <trkpt lat="42.471141" lon="0.485600">
        <ele>1501.2</ele>
        <time>2018-06-13T08:19:51Z</time>
      </trkpt>
      <trkpt lat="42.471055" lon="0.485664">
        <ele>1502.1</ele>
        <time>2018-06-13T08:19:54Z</time>
      </trkpt>
      <trkpt lat="42.470893" lon="0.485790">
        <ele>1505.3</ele>
        <time>2018-06-13T08:19:59Z</time>
      </trkpt>
      <trkpt lat="42.470794" lon="0.485827">
        <ele>1507.9</ele>
        <time>2018-06-13T08:20:02Z</time>
      </trkpt>
      <trkpt lat="42.470702" lon="0.485888">
        <ele>1509.6</ele>
        <time>2018-06-13T08:20:04Z</time>
      </trkpt>
      <trkpt lat="42.470598" lon="0.485957">
        <ele>1511.5</ele>
        <time>2018-06-13T08:20:08Z</time>
      </trkpt>
      <trkpt lat="42.470499" lon="0.486015">
        <ele>1513.6</ele>
        <time>2018-06-13T08:20:10Z</time>
      </trkpt>
      <trkpt lat="42.470401" lon="0.486057">
        <ele>1516.2</ele>
        <time>2018-06-13T08:20:13Z</time>
      </trkpt>
      <trkpt lat="42.470315" lon="0.486089">
        <ele>1519.4</ele>
        <time>2018-06-13T08:20:16Z</time>
      </trkpt>
      <trkpt lat="42.470220" lon="0.486108">
        <ele>1523.1</ele>
        <time>2018-06-13T08:20:18Z</time>
      </trkpt>
      <trkpt lat="42.470115" lon="0.486114">
        <ele>1526.5</ele>
        <time>2018-06-13T08:20:21Z</time>
      </trkpt>
      <trkpt lat="42.470021" lon="0.486104">
        <ele>1527.4</ele>
        <time>2018-06-13T08:20:24Z</time>
      </trkpt>
      <trkpt lat="42.469925" lon="0.486096">
        <ele>1528.3</ele>
        <time>2018-06-13T08:20:26Z</time>
      </trkpt>
      <trkpt lat="42.469827" lon="0.486088">
        <ele>1528.9</ele>
        <time>2018-06-13T08:20:29Z</time>
      </trkpt>
      <trkpt lat="42.469719" lon="0.486077">
        <ele>1528.8</ele>
        <time>2018-06-13T08:20:32Z</time>
      </trkpt>
      <trkpt lat="42.469622" lon="0.486059">
        <ele>1529.1</ele>
        <time>2018-06-13T08:20:34Z</time>
      </trkpt>
      <trkpt lat="42.469525" lon="0.486033">
        <ele>1530.0</ele>
        <time>2018-06-13T08:20:37Z</time>
      </trkpt>
      <trkpt lat="42.469429" lon="0.486014">
        <ele>1530.8</ele>
        <time>2018-06-13T08:20:40Z</time>
      </trkpt>
      <trkpt lat="42.469333" lon="0.486002">
        <ele>1531.3</ele>
        <time>2018-06-13T08:20:42Z</time>
      </trkpt>
      <trkpt lat="42.469285" lon="0.485895">
        <ele>1533.8</ele>
        <time>2018-06-13T08:20:45Z</time>
      </trkpt>
      <trkpt lat="42.469350" lon="0.485839">
        <ele>1535.1</ele>
        <time>2018-06-13T08:20:47Z</time>
      </trkpt>
      <trkpt lat="42.469428" lon="0.485850">
        <ele>1535.2</ele>
        <time>2018-06-13T08:20:49Z</time>
      </trkpt>
      <trkpt lat="42.469527" lon="0.485860">
        <ele>1535.4</ele>
        <time>2018-06-13T08:20:51Z</time>
      </trkpt>
      <trkpt lat="42.469629" lon="0.485875">
        <ele>1535.3</ele>
        <time>2018-06-13T08:20:54Z</time>
      </trkpt>
      <trkpt lat="42.469735" lon="0.485869">
        <ele>1535.6</ele>
        <time>2018-06-13T08:20:57Z</time>
      </trkpt>
      <trkpt lat="42.469825" lon="0.485837">
        <ele>1536.4</ele>
        <time>2018-06-13T08:20:59Z</time>
      </trkpt>
      <trkpt lat="42.469912" lon="0.485782">
        <ele>1536.8</ele>
        <time>2018-06-13T08:21:02Z</time>
      </trkpt>
      <trkpt lat="42.469989" lon="0.485693">
        <ele>1537.2</ele>
        <time>2018-06-13T08:21:05Z</time>
      </trkpt>
      <trkpt lat="42.470054" lon="0.485594">
        <ele>1538.9</ele>
        <time>2018-06-13T08:21:07Z</time>
      </trkpt>
      <trkpt lat="42.470121" lon="0.485477">
        <ele>1541.4</ele>
        <time>2018-06-13T08:21:10Z</time>
      </trkpt>
      <trkpt lat="42.470171" lon="0.485350">
        <ele>1543.8</ele>
        <time>2018-06-13T08:21:13Z</time>
      </trkpt>
      <trkpt lat="42.470218" lon="0.485230">
        <ele>1545.9</ele>
        <time>2018-06-13T08:21:16Z</time>
      </trkpt>
      <trkpt lat="42.470267" lon="0.485115">
        <ele>1548.0</ele>
        <time>2018-06-13T08:21:18Z</time>
      </trkpt>
      <trkpt lat="42.470324" lon="0.484996">
        <ele>1550.1</ele>
        <time>2018-06-13T08:21:21Z</time>
      </trkpt>
      <trkpt lat="42.470382" lon="0.484892">
        <ele>1551.9</ele>
        <time>2018-06-13T08:21:24Z</time>
      </trkpt>
      <trkpt lat="42.470439" lon="0.484769">
        <ele>1552.8</ele>
        <time>2018-06-13T08:21:26Z</time>
      </trkpt>
      <trkpt lat="42.470482" lon="0.484643">
        <ele>1553.6</ele>
        <time>2018-06-13T08:21:29Z</time>
      </trkpt>
      <trkpt lat="42.470498" lon="0.484521">
        <ele>1555.9</ele>
        <time>2018-06-13T08:21:32Z</time>
      </trkpt>
      <trkpt lat="42.470523" lon="0.484393">
        <ele>1557.8</ele>
        <time>2018-06-13T08:21:34Z</time>
      </trkpt>
      <trkpt lat="42.470575" lon="0.484269">
        <ele>1558.3</ele>
        <time>2018-06-13T08:21:37Z</time>
      </trkpt>
      <trkpt lat="42.470607" lon="0.484146">
        <ele>1559.2</ele>
        <time>2018-06-13T08:21:40Z</time>
      </trkpt>
      <trkpt lat="42.470662" lon="0.484031">
        <ele>1559.2</ele>
        <time>2018-06-13T08:21:42Z</time>
      </trkpt>
      <trkpt lat="42.470726" lon="0.483923">
        <ele>1558.0</ele>
        <time>2018-06-13T08:21:45Z</time>
      </trkpt>
      <trkpt lat="42.470815" lon="0.483834">
        <ele>1555.0</ele>
        <time>2018-06-13T08:21:48Z</time>
      </trkpt>
      <trkpt lat="42.470894" lon="0.483746">
        <ele>1552.7</ele>
        <time>2018-06-13T08:21:51Z</time>
      </trkpt>
      <trkpt lat="42.470966" lon="0.483655">
        <ele>1550.6</ele>
        <time>2018-06-13T08:21:53Z</time>
      </trkpt>
      <trkpt lat="42.471029" lon="0.483554">
        <ele>1551.0</ele>
        <time>2018-06-13T08:21:56Z</time>
      </trkpt>
      <trkpt lat="42.471084" lon="0.483423">
        <ele>1552.3</ele>
        <time>2018-06-13T08:21:59Z</time>
      </trkpt>
      <trkpt lat="42.471131" lon="0.483294">
        <ele>1553.2</ele>
        <time>2018-06-13T08:22:02Z</time>
      </trkpt>
      <trkpt lat="42.471157" lon="0.483170">
        <ele>1554.3</ele>
        <time>2018-06-13T08:22:04Z</time>
      </trkpt>
      <trkpt lat="42.471204" lon="0.483046">
        <ele>1555.5</ele>
        <time>2018-06-13T08:22:07Z</time>
      </trkpt>
      <trkpt lat="42.471250" lon="0.482922">
        <ele>1556.9</ele>
        <time>2018-06-13T08:22:10Z</time>
      </trkpt>
      <trkpt lat="42.471269" lon="0.482799">
        <ele>1557.0</ele>
        <time>2018-06-13T08:22:12Z</time>
      </trkpt>
      <trkpt lat="42.471280" lon="0.482679">
        <ele>1557.4</ele>
        <time>2018-06-13T08:22:15Z</time>
      </trkpt>
      <trkpt lat="42.471278" lon="0.482538">
        <ele>1560.1</ele>
        <time>2018-06-13T08:22:17Z</time>
      </trkpt>
      <trkpt lat="42.471275" lon="0.482399">
        <ele>1563.6</ele>
        <time>2018-06-13T08:22:20Z</time>
      </trkpt>
      <trkpt lat="42.471243" lon="0.482266">
        <ele>1567.1</ele>
        <time>2018-06-13T08:22:23Z</time>
      </trkpt>
      <trkpt lat="42.471185" lon="0.482169">
        <ele>1569.2</ele>
        <time>2018-06-13T08:22:26Z</time>
      </trkpt>
      <trkpt lat="42.471112" lon="0.482090">
        <ele>1570.4</ele>
        <time>2018-06-13T08:22:28Z</time>
      </trkpt>
      <trkpt lat="42.471036" lon="0.482012">
        <ele>1570.5</ele>
        <time>2018-06-13T08:22:31Z</time>
      </trkpt>
      <trkpt lat="42.470960" lon="0.481919">
        <ele>1569.6</ele>
        <time>2018-06-13T08:22:33Z</time>
      </trkpt>
      <trkpt lat="42.470892" lon="0.481821">
        <ele>1567.7</ele>
        <time>2018-06-13T08:22:36Z</time>
      </trkpt>
      <trkpt lat="42.470826" lon="0.481706">
        <ele>1565.8</ele>
        <time>2018-06-13T08:22:39Z</time>
      </trkpt>
      <trkpt lat="42.470764" lon="0.481585">
        <ele>1564.4</ele>
        <time>2018-06-13T08:22:42Z</time>
      </trkpt>
      <trkpt lat="42.470727" lon="0.481462">
        <ele>1563.7</ele>
        <time>2018-06-13T08:22:44Z</time>
      </trkpt>
      <trkpt lat="42.470713" lon="0.481334">
        <ele>1563.4</ele>
        <time>2018-06-13T08:22:47Z</time>
      </trkpt>
      <trkpt lat="42.470704" lon="0.481206">
        <ele>1563.5</ele>
        <time>2018-06-13T08:22:49Z</time>
      </trkpt>
      <trkpt lat="42.470701" lon="0.481081">
        <ele>1564.3</ele>
        <time>2018-06-13T08:22:52Z</time>
      </trkpt>
      <trkpt lat="42.470703" lon="0.480957">
        <ele>1565.3</ele>
        <time>2018-06-13T08:22:54Z</time>
      </trkpt>
      <trkpt lat="42.470726" lon="0.480838">
        <ele>1567.2</ele>
        <time>2018-06-13T08:22:57Z</time>
      </trkpt>
      <trkpt lat="42.470748" lon="0.480693">
        <ele>1569.2</ele>
        <time>2018-06-13T08:23:00Z</time>
      </trkpt>
      <trkpt lat="42.470771" lon="0.480561">
        <ele>1571.1</ele>
        <time>2018-06-13T08:23:02Z</time>
      </trkpt>
      <trkpt lat="42.470760" lon="0.480414">
        <ele>1573.0</ele>
        <time>2018-06-13T08:23:05Z</time>
      </trkpt>
      <trkpt lat="42.470762" lon="0.480262">
        <ele>1574.4</ele>
        <time>2018-06-13T08:23:08Z</time>
      </trkpt>
      <trkpt lat="42.470771" lon="0.480129">
        <ele>1575.5</ele>
        <time>2018-06-13T08:23:11Z</time>
      </trkpt>
      <trkpt lat="42.470768" lon="0.479971">
        <ele>1576.1</ele>
        <time>2018-06-13T08:23:14Z</time>
      </trkpt>
      <trkpt lat="42.470735" lon="0.479817">
        <ele>1576.5</ele>
        <time>2018-06-13T08:23:17Z</time>
      </trkpt>
      <trkpt lat="42.470699" lon="0.479659">
        <ele>1575.5</ele>
        <time>2018-06-13T08:23:20Z</time>
      </trkpt>
      <trkpt lat="42.470657" lon="0.479535">
        <ele>1575.8</ele>
        <time>2018-06-13T08:23:23Z</time>
      </trkpt>
      <trkpt lat="42.470609" lon="0.479419">
        <ele>1576.8</ele>
        <time>2018-06-13T08:23:25Z</time>
      </trkpt>
      <trkpt lat="42.470562" lon="0.479297">
        <ele>1577.5</ele>
        <time>2018-06-13T08:23:28Z</time>
      </trkpt>
      <trkpt lat="42.470518" lon="0.479175">
        <ele>1578.9</ele>
        <time>2018-06-13T08:23:31Z</time>
      </trkpt>
      <trkpt lat="42.470480" lon="0.479051">
        <ele>1579.9</ele>
        <time>2018-06-13T08:23:33Z</time>
      </trkpt>
      <trkpt lat="42.470440" lon="0.478929">
        <ele>1580.7</ele>
        <time>2018-06-13T08:23:36Z</time>
      </trkpt>
      <trkpt lat="42.470400" lon="0.478805">
        <ele>1581.7</ele>
        <time>2018-06-13T08:23:39Z</time>
      </trkpt>
      <trkpt lat="42.470385" lon="0.478671">
        <ele>1582.9</ele>
        <time>2018-06-13T08:23:41Z</time>
      </trkpt>
      <trkpt lat="42.470402" lon="0.478541">
        <ele>1584.3</ele>
        <time>2018-06-13T08:23:44Z</time>
      </trkpt>
      <trkpt lat="42.470440" lon="0.478421">
        <ele>1585.8</ele>
        <time>2018-06-13T08:23:46Z</time>
      </trkpt>
      <trkpt lat="42.470453" lon="0.478304">
        <ele>1587.4</ele>
        <time>2018-06-13T08:23:49Z</time>
      </trkpt>
      <trkpt lat="42.470450" lon="0.478159">
        <ele>1589.3</ele>
        <time>2018-06-13T08:23:52Z</time>
      </trkpt>
      <trkpt lat="42.470419" lon="0.478040">
        <ele>1591.4</ele>
        <time>2018-06-13T08:23:54Z</time>
      </trkpt>
      <trkpt lat="42.470352" lon="0.477915">
        <ele>1592.9</ele>
        <time>2018-06-13T08:23:57Z</time>
      </trkpt>
      <trkpt lat="42.470282" lon="0.477807">
        <ele>1593.2</ele>
        <time>2018-06-13T08:24:00Z</time>
      </trkpt>
      <trkpt lat="42.470209" lon="0.477725">
        <ele>1593.0</ele>
        <time>2018-06-13T08:24:02Z</time>
      </trkpt>
      <trkpt lat="42.470123" lon="0.477663">
        <ele>1592.6</ele>
        <time>2018-06-13T08:24:05Z</time>
      </trkpt>
      <trkpt lat="42.470021" lon="0.477626">
        <ele>1592.7</ele>
        <time>2018-06-13T08:24:08Z</time>
      </trkpt>
      <trkpt lat="42.469925" lon="0.477567">
        <ele>1592.6</ele>
        <time>2018-06-13T08:24:11Z</time>
      </trkpt>
      <trkpt lat="42.469850" lon="0.477490">
        <ele>1592.4</ele>
        <time>2018-06-13T08:24:13Z</time>
      </trkpt>
      <trkpt lat="42.469781" lon="0.477398">
        <ele>1592.0</ele>
        <time>2018-06-13T08:24:16Z</time>
      </trkpt>
      <trkpt lat="42.469697" lon="0.477350">
        <ele>1591.3</ele>
        <time>2018-06-13T08:24:18Z</time>
      </trkpt>
      <trkpt lat="42.469610" lon="0.477290">
        <ele>1590.8</ele>
        <time>2018-06-13T08:24:21Z</time>
      </trkpt>
      <trkpt lat="42.469511" lon="0.477236">
        <ele>1590.8</ele>
        <time>2018-06-13T08:24:23Z</time>
      </trkpt>
      <trkpt lat="42.469402" lon="0.477178">
        <ele>1590.7</ele>
        <time>2018-06-13T08:24:27Z</time>
      </trkpt>
      <trkpt lat="42.469294" lon="0.477151">
        <ele>1590.4</ele>
        <time>2018-06-13T08:24:29Z</time>
      </trkpt>
      <trkpt lat="42.469207" lon="0.477199">
        <ele>1592.1</ele>
        <time>2018-06-13T08:24:32Z</time>
      </trkpt>
      <trkpt lat="42.469167" lon="0.477312">
        <ele>1593.6</ele>
        <time>2018-06-13T08:24:34Z</time>
      </trkpt>
      <trkpt lat="42.469140" lon="0.477436">
        <ele>1595.4</ele>
        <time>2018-06-13T08:24:37Z</time>
      </trkpt>
      <trkpt lat="42.469108" lon="0.477579">
        <ele>1598.0</ele>
        <time>2018-06-13T08:24:40Z</time>
      </trkpt>
      <trkpt lat="42.469081" lon="0.477720">
        <ele>1599.8</ele>
        <time>2018-06-13T08:24:43Z</time>
      </trkpt>
      <trkpt lat="42.469057" lon="0.477871">
        <ele>1600.8</ele>
        <time>2018-06-13T08:24:46Z</time>
      </trkpt>
      <trkpt lat="42.469036" lon="0.478027">
        <ele>1602.4</ele>
        <time>2018-06-13T08:24:49Z</time>
      </trkpt>
      <trkpt lat="42.468998" lon="0.478155">
        <ele>1605.3</ele>
        <time>2018-06-13T08:24:52Z</time>
      </trkpt>
      <trkpt lat="42.468969" lon="0.478282">
        <ele>1608.0</ele>
        <time>2018-06-13T08:24:54Z</time>
      </trkpt>
      <trkpt lat="42.468932" lon="0.478437">
        <ele>1611.2</ele>
        <time>2018-06-13T08:24:58Z</time>
      </trkpt>
      <trkpt lat="42.468917" lon="0.478589">
        <ele>1611.8</ele>
        <time>2018-06-13T08:25:01Z</time>
      </trkpt>
      <trkpt lat="42.468914" lon="0.478746">
        <ele>1611.3</ele>
        <time>2018-06-13T08:25:04Z</time>
      </trkpt>
      <trkpt lat="42.468912" lon="0.478907">
        <ele>1610.7</ele>
        <time>2018-06-13T08:25:07Z</time>
      </trkpt>
      <trkpt lat="42.468922" lon="0.479057">
        <ele>1609.6</ele>
        <time>2018-06-13T08:25:10Z</time>
      </trkpt>
      <trkpt lat="42.468924" lon="0.479186">
        <ele>1609.0</ele>
        <time>2018-06-13T08:25:12Z</time>
      </trkpt>
      <trkpt lat="42.468947" lon="0.479332">
        <ele>1607.5</ele>
        <time>2018-06-13T08:25:15Z</time>
      </trkpt>
      <trkpt lat="42.468962" lon="0.479480">
        <ele>1607.4</ele>
        <time>2018-06-13T08:25:18Z</time>
      </trkpt>
      <trkpt lat="42.468987" lon="0.479613">
        <ele>1606.6</ele>
        <time>2018-06-13T08:25:21Z</time>
      </trkpt>
      <trkpt lat="42.468994" lon="0.479751">
        <ele>1606.7</ele>
        <time>2018-06-13T08:25:24Z</time>
      </trkpt>
      <trkpt lat="42.468982" lon="0.479899">
        <ele>1608.0</ele>
        <time>2018-06-13T08:25:26Z</time>
      </trkpt>
      <trkpt lat="42.468953" lon="0.480042">
        <ele>1610.2</ele>
        <time>2018-06-13T08:25:29Z</time>
      </trkpt>
      <trkpt lat="42.468906" lon="0.480176">
        <ele>1612.4</ele>
        <time>2018-06-13T08:25:32Z</time>
      </trkpt>
      <trkpt lat="42.468827" lon="0.480280">
        <ele>1614.8</ele>
        <time>2018-06-13T08:25:35Z</time>
      </trkpt>
      <trkpt lat="42.468753" lon="0.480374">
        <ele>1616.5</ele>
        <time>2018-06-13T08:25:38Z</time>
      </trkpt>
      <trkpt lat="42.468689" lon="0.480467">
        <ele>1619.1</ele>
        <time>2018-06-13T08:25:41Z</time>
      </trkpt>
      <trkpt lat="42.468622" lon="0.480566">
        <ele>1622.1</ele>
        <time>2018-06-13T08:25:43Z</time>
      </trkpt>
      <trkpt lat="42.468555" lon="0.480677">
        <ele>1625.3</ele>
        <time>2018-06-13T08:25:46Z</time>
      </trkpt>
      <trkpt lat="42.468503" lon="0.480796">
        <ele>1626.8</ele>
        <time>2018-06-13T08:25:49Z</time>
      </trkpt>
      <trkpt lat="42.468463" lon="0.480938">
        <ele>1626.5</ele>
        <time>2018-06-13T08:25:52Z</time>
      </trkpt>
      <trkpt lat="42.468437" lon="0.481089">
        <ele>1625.8</ele>
        <time>2018-06-13T08:25:55Z</time>
      </trkpt>
      <trkpt lat="42.468410" lon="0.481224">
        <ele>1625.4</ele>
        <time>2018-06-13T08:25:58Z</time>
      </trkpt>
      <trkpt lat="42.468365" lon="0.481360">
        <ele>1626.2</ele>
        <time>2018-06-13T08:26:00Z</time>
      </trkpt>
      <trkpt lat="42.468315" lon="0.481491">
        <ele>1626.5</ele>
        <time>2018-06-13T08:26:03Z</time>
      </trkpt>
      <trkpt lat="42.468267" lon="0.481607">
        <ele>1626.3</ele>
        <time>2018-06-13T08:26:06Z</time>
      </trkpt>
      <trkpt lat="42.468224" lon="0.481727">
        <ele>1624.6</ele>
        <time>2018-06-13T08:26:09Z</time>
      </trkpt>
      <trkpt lat="42.468167" lon="0.481838">
        <ele>1625.4</ele>
        <time>2018-06-13T08:26:11Z</time>
      </trkpt>
      <trkpt lat="42.468116" lon="0.481966">
        <ele>1628.6</ele>
        <time>2018-06-13T08:26:14Z</time>
      </trkpt>
      <trkpt lat="42.468070" lon="0.482097">
        <ele>1631.1</ele>
        <time>2018-06-13T08:26:17Z</time>
      </trkpt>
      <trkpt lat="42.468008" lon="0.482214">
        <ele>1635.4</ele>
        <time>2018-06-13T08:26:20Z</time>
      </trkpt>
      <trkpt lat="42.467952" lon="0.482376">
        <ele>1636.5</ele>
        <time>2018-06-13T08:26:24Z</time>
      </trkpt>
      <trkpt lat="42.467881" lon="0.482460">
        <ele>1639.3</ele>
        <time>2018-06-13T08:26:26Z</time>
      </trkpt>
      <trkpt lat="42.467826" lon="0.482563">
        <ele>1640.8</ele>
        <time>2018-06-13T08:26:29Z</time>
      </trkpt>
      <trkpt lat="42.467767" lon="0.482664">
        <ele>1642.8</ele>
        <time>2018-06-13T08:26:31Z</time>
      </trkpt>
      <trkpt lat="42.467715" lon="0.482779">
        <ele>1643.5</ele>
        <time>2018-06-13T08:26:34Z</time>
      </trkpt>
      <trkpt lat="42.467656" lon="0.482894">
        <ele>1643.8</ele>
        <time>2018-06-13T08:26:37Z</time>
      </trkpt>
      <trkpt lat="42.467589" lon="0.483010">
        <ele>1644.6</ele>
        <time>2018-06-13T08:26:39Z</time>
      </trkpt>
      <trkpt lat="42.467531" lon="0.483105">
        <ele>1645.2</ele>
        <time>2018-06-13T08:26:42Z</time>
      </trkpt>
      <trkpt lat="42.467459" lon="0.483205">
        <ele>1645.8</ele>
        <time>2018-06-13T08:26:45Z</time>
      </trkpt>
      <trkpt lat="42.467402" lon="0.483314">
        <ele>1645.5</ele>
        <time>2018-06-13T08:26:47Z</time>
      </trkpt>
      <trkpt lat="42.467343" lon="0.483433">
        <ele>1645.2</ele>
        <time>2018-06-13T08:26:50Z</time>
      </trkpt>
      <trkpt lat="42.467286" lon="0.483546">
        <ele>1645.8</ele>
        <time>2018-06-13T08:26:53Z</time>
      </trkpt>
      <trkpt lat="42.467218" lon="0.483674">
        <ele>1647.1</ele>
        <time>2018-06-13T08:26:56Z</time>
      </trkpt>
      <trkpt lat="42.467141" lon="0.483800">
        <ele>1648.8</ele>
        <time>2018-06-13T08:26:59Z</time>
      </trkpt>
      <trkpt lat="42.467083" lon="0.483915">
        <ele>1648.1</ele>
        <time>2018-06-13T08:27:02Z</time>
      </trkpt>
      <trkpt lat="42.467027" lon="0.484036">
        <ele>1647.6</ele>
        <time>2018-06-13T08:27:04Z</time>
      </trkpt>
      <trkpt lat="42.466975" lon="0.484152">
        <ele>1648.0</ele>
        <time>2018-06-13T08:27:07Z</time>
      </trkpt>
      <trkpt lat="42.466922" lon="0.484281">
        <ele>1648.2</ele>
        <time>2018-06-13T08:27:10Z</time>
      </trkpt>
      <trkpt lat="42.466869" lon="0.484404">
        <ele>1649.4</ele>
        <time>2018-06-13T08:27:13Z</time>
      </trkpt>
      <trkpt lat="42.466811" lon="0.484552">
        <ele>1650.3</ele>
        <time>2018-06-13T08:27:16Z</time>
      </trkpt>
      <trkpt lat="42.466768" lon="0.484695">
        <ele>1649.7</ele>
        <time>2018-06-13T08:27:19Z</time>
      </trkpt>
      <trkpt lat="42.466745" lon="0.484830">
        <ele>1648.3</ele>
        <time>2018-06-13T08:27:22Z</time>
      </trkpt>
      <trkpt lat="42.466714" lon="0.484963">
        <ele>1647.3</ele>
        <time>2018-06-13T08:27:24Z</time>
      </trkpt>
      <trkpt lat="42.466668" lon="0.485085">
        <ele>1646.8</ele>
        <time>2018-06-13T08:27:27Z</time>
      </trkpt>
      <trkpt lat="42.466610" lon="0.485196">
        <ele>1646.5</ele>
        <time>2018-06-13T08:27:30Z</time>
      </trkpt>
      <trkpt lat="42.466528" lon="0.485317">
        <ele>1645.6</ele>
        <time>2018-06-13T08:27:33Z</time>
      </trkpt>
      <trkpt lat="42.466464" lon="0.485422">
        <ele>1643.3</ele>
        <time>2018-06-13T08:27:36Z</time>
      </trkpt>
      <trkpt lat="42.466398" lon="0.485547">
        <ele>1641.7</ele>
        <time>2018-06-13T08:27:39Z</time>
      </trkpt>
      <trkpt lat="42.466330" lon="0.485680">
        <ele>1640.3</ele>
        <time>2018-06-13T08:27:42Z</time>
      </trkpt>
      <trkpt lat="42.466252" lon="0.485812">
        <ele>1640.3</ele>
        <time>2018-06-13T08:27:45Z</time>
      </trkpt>
      <trkpt lat="42.466171" lon="0.485947">
        <ele>1640.1</ele>
        <time>2018-06-13T08:27:49Z</time>
      </trkpt>
      <trkpt lat="42.466097" lon="0.486080">
        <ele>1640.6</ele>
        <time>2018-06-13T08:27:52Z</time>
      </trkpt>
      <trkpt lat="42.466007" lon="0.486186">
        <ele>1642.3</ele>
        <time>2018-06-13T08:27:55Z</time>
      </trkpt>
      <trkpt lat="42.465912" lon="0.486273">
        <ele>1644.5</ele>
        <time>2018-06-13T08:27:58Z</time>
      </trkpt>
      <trkpt lat="42.465821" lon="0.486372">
        <ele>1645.3</ele>
        <time>2018-06-13T08:28:01Z</time>
      </trkpt>
      <trkpt lat="42.465745" lon="0.486484">
        <ele>1644.4</ele>
        <time>2018-06-13T08:28:04Z</time>
      </trkpt>
      <trkpt lat="42.465706" lon="0.486621">
        <ele>1641.2</ele>
        <time>2018-06-13T08:28:07Z</time>
      </trkpt>
      <trkpt lat="42.465677" lon="0.486785">
        <ele>1636.8</ele>
        <time>2018-06-13T08:28:11Z</time>
      </trkpt>
      <trkpt lat="42.465614" lon="0.486936">
        <ele>1632.5</ele>
        <time>2018-06-13T08:28:14Z</time>
      </trkpt>
      <trkpt lat="42.465543" lon="0.487095">
        <ele>1627.9</ele>
        <time>2018-06-13T08:28:18Z</time>
      </trkpt>
      <trkpt lat="42.465476" lon="0.487270">
        <ele>1624.7</ele>
        <time>2018-06-13T08:28:22Z</time>
      </trkpt>
      <trkpt lat="42.465406" lon="0.487437">
        <ele>1622.4</ele>
        <time>2018-06-13T08:28:26Z</time>
      </trkpt>
      <trkpt lat="42.465328" lon="0.487584">
        <ele>1622.2</ele>
        <time>2018-06-13T08:28:29Z</time>
      </trkpt>
      <trkpt lat="42.465245" lon="0.487719">
        <ele>1622.4</ele>
        <time>2018-06-13T08:28:32Z</time>
      </trkpt>
      <trkpt lat="42.465170" lon="0.487853">
        <ele>1622.8</ele>
        <time>2018-06-13T08:28:36Z</time>
      </trkpt>
      <trkpt lat="42.465096" lon="0.487980">
        <ele>1623.0</ele>
        <time>2018-06-13T08:28:39Z</time>
      </trkpt>
      <trkpt lat="42.465012" lon="0.488086">
        <ele>1623.3</ele>
        <time>2018-06-13T08:28:42Z</time>
      </trkpt>
      <trkpt lat="42.464933" lon="0.488172">
        <ele>1623.8</ele>
        <time>2018-06-13T08:28:45Z</time>
      </trkpt>
      <trkpt lat="42.464828" lon="0.488278">
        <ele>1624.1</ele>
        <time>2018-06-13T08:28:48Z</time>
      </trkpt>
      <trkpt lat="42.464723" lon="0.488333">
        <ele>1625.0</ele>
        <time>2018-06-13T08:28:51Z</time>
      </trkpt>
      <trkpt lat="42.464609" lon="0.488341">
        <ele>1626.9</ele>
        <time>2018-06-13T08:28:54Z</time>
      </trkpt>
      <trkpt lat="42.464486" lon="0.488372">
        <ele>1628.2</ele>
        <time>2018-06-13T08:28:57Z</time>
      </trkpt>
      <trkpt lat="42.464405" lon="0.488420">
        <ele>1628.8</ele>
        <time>2018-06-13T08:29:00Z</time>
      </trkpt>
      <trkpt lat="42.464322" lon="0.488553">
        <ele>1628.2</ele>
        <time>2018-06-13T08:29:03Z</time>
      </trkpt>
      <trkpt lat="42.464296" lon="0.488691">
        <ele>1625.9</ele>
        <time>2018-06-13T08:29:06Z</time>
      </trkpt>
      <trkpt lat="42.464296" lon="0.488865">
        <ele>1619.5</ele>
        <time>2018-06-13T08:29:10Z</time>
      </trkpt>
      <trkpt lat="42.464269" lon="0.489024">
        <ele>1612.2</ele>
        <time>2018-06-13T08:29:13Z</time>
      </trkpt>
      <trkpt lat="42.464187" lon="0.489123">
        <ele>1610.3</ele>
        <time>2018-06-13T08:29:16Z</time>
      </trkpt>
      <trkpt lat="42.464089" lon="0.489223">
        <ele>1608.1</ele>
        <time>2018-06-13T08:29:20Z</time>
      </trkpt>
      <trkpt lat="42.463996" lon="0.489329">
        <ele>1605.2</ele>
        <time>2018-06-13T08:29:23Z</time>
      </trkpt>
      <trkpt lat="42.463902" lon="0.489438">
        <ele>1602.3</ele>
        <time>2018-06-13T08:29:26Z</time>
      </trkpt>
      <trkpt lat="42.463812" lon="0.489556">
        <ele>1599.3</ele>
        <time>2018-06-13T08:29:30Z</time>
      </trkpt>
      <trkpt lat="42.463701" lon="0.489650">
        <ele>1596.6</ele>
        <time>2018-06-13T08:29:33Z</time>
      </trkpt>
      <trkpt lat="42.463580" lon="0.489728">
        <ele>1593.5</ele>
        <time>2018-06-13T08:29:37Z</time>
      </trkpt>
      <trkpt lat="42.463490" lon="0.489794">
        <ele>1591.4</ele>
        <time>2018-06-13T08:29:39Z</time>
      </trkpt>
      <trkpt lat="42.463397" lon="0.489866">
        <ele>1589.6</ele>
        <time>2018-06-13T08:29:42Z</time>
      </trkpt>
      <trkpt lat="42.463291" lon="0.489947">
        <ele>1587.6</ele>
        <time>2018-06-13T08:29:46Z</time>
      </trkpt>
      <trkpt lat="42.463170" lon="0.490022">
        <ele>1586.3</ele>
        <time>2018-06-13T08:29:49Z</time>
      </trkpt>
      <trkpt lat="42.463045" lon="0.490091">
        <ele>1587.7</ele>
        <time>2018-06-13T08:29:53Z</time>
      </trkpt>
      <trkpt lat="42.462931" lon="0.490177">
        <ele>1588.7</ele>
        <time>2018-06-13T08:29:56Z</time>
      </trkpt>
      <trkpt lat="42.462824" lon="0.490267">
        <ele>1590.1</ele>
        <time>2018-06-13T08:29:59Z</time>
      </trkpt>
      <trkpt lat="42.462728" lon="0.490327">
        <ele>1591.0</ele>
        <time>2018-06-13T08:30:02Z</time>
      </trkpt>
      <trkpt lat="42.462618" lon="0.490392">
        <ele>1591.8</ele>
        <time>2018-06-13T08:30:05Z</time>
      </trkpt>
      <trkpt lat="42.462523" lon="0.490460">
        <ele>1593.1</ele>
        <time>2018-06-13T08:30:08Z</time>
      </trkpt>
      <trkpt lat="42.462446" lon="0.490545">
        <ele>1593.6</ele>
        <time>2018-06-13T08:30:11Z</time>
      </trkpt>
      <trkpt lat="42.462363" lon="0.490642">
        <ele>1593.7</ele>
        <time>2018-06-13T08:30:14Z</time>
      </trkpt>
      <trkpt lat="42.462261" lon="0.490748">
        <ele>1596.0</ele>
        <time>2018-06-13T08:30:17Z</time>
      </trkpt>
      <trkpt lat="42.462178" lon="0.490882">
        <ele>1596.9</ele>
        <time>2018-06-13T08:30:21Z</time>
      </trkpt>
      <trkpt lat="42.462121" lon="0.491037">
        <ele>1597.1</ele>
        <time>2018-06-13T08:30:24Z</time>
      </trkpt>
      <trkpt lat="42.462079" lon="0.491188">
        <ele>1598.2</ele>
        <time>2018-06-13T08:30:27Z</time>
      </trkpt>
      <trkpt lat="42.462050" lon="0.491329">
        <ele>1599.6</ele>
        <time>2018-06-13T08:30:30Z</time>
      </trkpt>
      <trkpt lat="42.462063" lon="0.491498">
        <ele>1600.5</ele>
        <time>2018-06-13T08:30:33Z</time>
      </trkpt>
      <trkpt lat="42.462118" lon="0.491611">
        <ele>1599.5</ele>
        <time>2018-06-13T08:30:36Z</time>
      </trkpt>
      <trkpt lat="42.462206" lon="0.491707">
        <ele>1598.0</ele>
        <time>2018-06-13T08:30:39Z</time>
      </trkpt>
      <trkpt lat="42.462295" lon="0.491780">
        <ele>1596.3</ele>
        <time>2018-06-13T08:30:42Z</time>
      </trkpt>
      <trkpt lat="42.462376" lon="0.491882">
        <ele>1595.2</ele>
        <time>2018-06-13T08:30:45Z</time>
      </trkpt>
      <trkpt lat="42.462422" lon="0.491996">
        <ele>1595.2</ele>
        <time>2018-06-13T08:30:47Z</time>
      </trkpt>
      <trkpt lat="42.462395" lon="0.492112">
        <ele>1595.7</ele>
        <time>2018-06-13T08:30:50Z</time>
      </trkpt>
      <trkpt lat="42.462325" lon="0.492191">
        <ele>1597.1</ele>
        <time>2018-06-13T08:30:52Z</time>
      </trkpt>
      <trkpt lat="42.462254" lon="0.492306">
        <ele>1598.8</ele>
        <time>2018-06-13T08:30:55Z</time>
      </trkpt>
      <trkpt lat="42.462175" lon="0.492435">
        <ele>1599.7</ele>
        <time>2018-06-13T08:30:58Z</time>
      </trkpt>
      <trkpt lat="42.462110" lon="0.492579">
        <ele>1599.3</ele>
        <time>2018-06-13T08:31:02Z</time>
      </trkpt>
      <trkpt lat="42.462070" lon="0.492688">
        <ele>1598.5</ele>
        <time>2018-06-13T08:31:04Z</time>
      </trkpt>
      <trkpt lat="42.462018" lon="0.492789">
        <ele>1598.0</ele>
        <time>2018-06-13T08:31:06Z</time>
      </trkpt>
      <trkpt lat="42.461966" lon="0.492893">
        <ele>1597.5</ele>
        <time>2018-06-13T08:31:09Z</time>
      </trkpt>
      <trkpt lat="42.461900" lon="0.492994">
        <ele>1596.6</ele>
        <time>2018-06-13T08:31:11Z</time>
      </trkpt>
      <trkpt lat="42.461848" lon="0.493102">
        <ele>1594.9</ele>
        <time>2018-06-13T08:31:14Z</time>
      </trkpt>
      <trkpt lat="42.461796" lon="0.493227">
        <ele>1592.7</ele>
        <time>2018-06-13T08:31:17Z</time>
      </trkpt>
      <trkpt lat="42.461723" lon="0.493344">
        <ele>1592.2</ele>
        <time>2018-06-13T08:31:20Z</time>
      </trkpt>
      <trkpt lat="42.461641" lon="0.493459">
        <ele>1591.8</ele>
        <time>2018-06-13T08:31:23Z</time>
      </trkpt>
      <trkpt lat="42.461549" lon="0.493559">
        <ele>1592.0</ele>
        <time>2018-06-13T08:31:26Z</time>
      </trkpt>
      <trkpt lat="42.461462" lon="0.493660">
        <ele>1591.9</ele>
        <time>2018-06-13T08:31:29Z</time>
      </trkpt>
      <trkpt lat="42.461371" lon="0.493747">
        <ele>1591.9</ele>
        <time>2018-06-13T08:31:32Z</time>
      </trkpt>
      <trkpt lat="42.461278" lon="0.493829">
        <ele>1591.2</ele>
        <time>2018-06-13T08:31:35Z</time>
      </trkpt>
      <trkpt lat="42.461194" lon="0.493918">
        <ele>1589.1</ele>
        <time>2018-06-13T08:31:38Z</time>
      </trkpt>
      <trkpt lat="42.461096" lon="0.494015">
        <ele>1586.3</ele>
        <time>2018-06-13T08:31:41Z</time>
      </trkpt>
      <trkpt lat="42.460990" lon="0.494112">
        <ele>1582.4</ele>
        <time>2018-06-13T08:31:45Z</time>
      </trkpt>
      <trkpt lat="42.460865" lon="0.494208">
        <ele>1580.5</ele>
        <time>2018-06-13T08:31:48Z</time>
      </trkpt>
      <trkpt lat="42.460727" lon="0.494302">
        <ele>1579.5</ele>
        <time>2018-06-13T08:31:52Z</time>
      </trkpt>
      <trkpt lat="42.460600" lon="0.494403">
        <ele>1577.9</ele>
        <time>2018-06-13T08:31:56Z</time>
      </trkpt>
      <trkpt lat="42.460481" lon="0.494523">
        <ele>1575.8</ele>
        <time>2018-06-13T08:32:00Z</time>
      </trkpt>
      <trkpt lat="42.460379" lon="0.494676">
        <ele>1572.6</ele>
        <time>2018-06-13T08:32:04Z</time>
      </trkpt>
      <trkpt lat="42.460286" lon="0.494839">
        <ele>1570.0</ele>
        <time>2018-06-13T08:32:08Z</time>
      </trkpt>
      <trkpt lat="42.460190" lon="0.494992">
        <ele>1569.8</ele>
        <time>2018-06-13T08:32:12Z</time>
      </trkpt>
      <trkpt lat="42.460106" lon="0.495159">
        <ele>1569.2</ele>
        <time>2018-06-13T08:32:16Z</time>
      </trkpt>
      <trkpt lat="42.460031" lon="0.495321">
        <ele>1569.2</ele>
        <time>2018-06-13T08:32:20Z</time>
      </trkpt>
      <trkpt lat="42.459964" lon="0.495492">
        <ele>1568.3</ele>
        <time>2018-06-13T08:32:24Z</time>
      </trkpt>
      <trkpt lat="42.459906" lon="0.495682">
        <ele>1566.2</ele>
        <time>2018-06-13T08:32:28Z</time>
      </trkpt>
      <trkpt lat="42.459857" lon="0.495859">
        <ele>1564.6</ele>
        <time>2018-06-13T08:32:32Z</time>
      </trkpt>
      <trkpt lat="42.459812" lon="0.496010">
        <ele>1563.0</ele>
        <time>2018-06-13T08:32:35Z</time>
      </trkpt>
      <trkpt lat="42.459746" lon="0.496167">
        <ele>1562.6</ele>
        <time>2018-06-13T08:32:38Z</time>
      </trkpt>
      <trkpt lat="42.459670" lon="0.496270">
        <ele>1563.3</ele>
        <time>2018-06-13T08:32:41Z</time>
      </trkpt>
      <trkpt lat="42.459575" lon="0.496376">
        <ele>1564.9</ele>
        <time>2018-06-13T08:32:44Z</time>
      </trkpt>
      <trkpt lat="42.459485" lon="0.496433">
        <ele>1567.1</ele>
        <time>2018-06-13T08:32:47Z</time>
      </trkpt>
      <trkpt lat="42.459404" lon="0.496499">
        <ele>1568.6</ele>
        <time>2018-06-13T08:32:50Z</time>
      </trkpt>
      <trkpt lat="42.459330" lon="0.496586">
        <ele>1569.4</ele>
        <time>2018-06-13T08:32:52Z</time>
      </trkpt>
      <trkpt lat="42.459252" lon="0.496689">
        <ele>1571.4</ele>
        <time>2018-06-13T08:32:55Z</time>
      </trkpt>
      <trkpt lat="42.459186" lon="0.496807">
        <ele>1573.0</ele>
        <time>2018-06-13T08:32:58Z</time>
      </trkpt>
      <trkpt lat="42.459102" lon="0.496920">
        <ele>1574.8</ele>
        <time>2018-06-13T08:33:01Z</time>
      </trkpt>
      <trkpt lat="42.459021" lon="0.497004">
        <ele>1576.2</ele>
        <time>2018-06-13T08:33:04Z</time>
      </trkpt>
      <trkpt lat="42.458963" lon="0.497107">
        <ele>1575.9</ele>
        <time>2018-06-13T08:33:06Z</time>
      </trkpt>
      <trkpt lat="42.458893" lon="0.497204">
        <ele>1576.9</ele>
        <time>2018-06-13T08:33:09Z</time>
      </trkpt>
      <trkpt lat="42.458817" lon="0.497282">
        <ele>1578.5</ele>
        <time>2018-06-13T08:33:12Z</time>
      </trkpt>
      <trkpt lat="42.458725" lon="0.497343">
        <ele>1581.2</ele>
        <time>2018-06-13T08:33:14Z</time>
      </trkpt>
      <trkpt lat="42.458626" lon="0.497383">
        <ele>1584.1</ele>
        <time>2018-06-13T08:33:17Z</time>
      </trkpt>
      <trkpt lat="42.458514" lon="0.497382">
        <ele>1588.1</ele>
        <time>2018-06-13T08:33:20Z</time>
      </trkpt>
      <trkpt lat="42.458413" lon="0.497379">
        <ele>1590.9</ele>
        <time>2018-06-13T08:33:23Z</time>
      </trkpt>
      <trkpt lat="42.458312" lon="0.497399">
        <ele>1592.6</ele>
        <time>2018-06-13T08:33:26Z</time>
      </trkpt>
      <trkpt lat="42.458217" lon="0.497434">
        <ele>1593.7</ele>
        <time>2018-06-13T08:33:28Z</time>
      </trkpt>
      <trkpt lat="42.458115" lon="0.497481">
        <ele>1595.5</ele>
        <time>2018-06-13T08:33:31Z</time>
      </trkpt>
      <trkpt lat="42.458021" lon="0.497525">
        <ele>1597.0</ele>
        <time>2018-06-13T08:33:34Z</time>
      </trkpt>
      <trkpt lat="42.457909" lon="0.497573">
        <ele>1598.6</ele>
        <time>2018-06-13T08:33:37Z</time>
      </trkpt>
      <trkpt lat="42.457819" lon="0.497656">
        <ele>1598.3</ele>
        <time>2018-06-13T08:33:40Z</time>
      </trkpt>
      <trkpt lat="42.457775" lon="0.497793">
        <ele>1595.3</ele>
        <time>2018-06-13T08:33:43Z</time>
      </trkpt>
      <trkpt lat="42.457749" lon="0.497951">
        <ele>1591.3</ele>
        <time>2018-06-13T08:33:46Z</time>
      </trkpt>
      <trkpt lat="42.457725" lon="0.498094">
        <ele>1588.8</ele>
        <time>2018-06-13T08:33:49Z</time>
      </trkpt>
      <trkpt lat="42.457705" lon="0.498240">
        <ele>1586.6</ele>
        <time>2018-06-13T08:33:52Z</time>
      </trkpt>
      <trkpt lat="42.457687" lon="0.498383">
        <ele>1585.4</ele>
        <time>2018-06-13T08:33:55Z</time>
      </trkpt>
      <trkpt lat="42.457665" lon="0.498506">
        <ele>1584.8</ele>
        <time>2018-06-13T08:33:57Z</time>
      </trkpt>
      <trkpt lat="42.457669" lon="0.498655">
        <ele>1585.3</ele>
        <time>2018-06-13T08:34:00Z</time>
      </trkpt>
      <trkpt lat="42.457656" lon="0.498798">
        <ele>1586.2</ele>
        <time>2018-06-13T08:34:03Z</time>
      </trkpt>
      <trkpt lat="42.457758" lon="0.499032">
        <ele>1588.0</ele>
        <time>2018-06-13T08:34:08Z</time>
      </trkpt>
      <trkpt lat="42.457829" lon="0.499110">
        <ele>1589.0</ele>
        <time>2018-06-13T08:34:11Z</time>
      </trkpt>
      <trkpt lat="42.457905" lon="0.499196">
        <ele>1590.4</ele>
        <time>2018-06-13T08:34:13Z</time>
      </trkpt>
      <trkpt lat="42.457967" lon="0.499294">
        <ele>1591.6</ele>
        <time>2018-06-13T08:34:16Z</time>
      </trkpt>
      <trkpt lat="42.458043" lon="0.499374">
        <ele>1592.3</ele>
        <time>2018-06-13T08:34:19Z</time>
      </trkpt>
      <trkpt lat="42.458118" lon="0.499465">
        <ele>1593.2</ele>
        <time>2018-06-13T08:34:21Z</time>
      </trkpt>
      <trkpt lat="42.458174" lon="0.499578">
        <ele>1594.9</ele>
        <time>2018-06-13T08:34:24Z</time>
      </trkpt>
      <trkpt lat="42.458202" lon="0.499727">
        <ele>1595.5</ele>
        <time>2018-06-13T08:34:27Z</time>
      </trkpt>
      <trkpt lat="42.458208" lon="0.499884">
        <ele>1596.1</ele>
        <time>2018-06-13T08:34:30Z</time>
      </trkpt>
      <trkpt lat="42.458209" lon="0.500010">
        <ele>1596.6</ele>
        <time>2018-06-13T08:34:32Z</time>
      </trkpt>
      <trkpt lat="42.458175" lon="0.500172">
        <ele>1596.3</ele>
        <time>2018-06-13T08:34:36Z</time>
      </trkpt>
      <trkpt lat="42.458098" lon="0.500307">
        <ele>1592.9</ele>
        <time>2018-06-13T08:34:39Z</time>
      </trkpt>
      <trkpt lat="42.458009" lon="0.500391">
        <ele>1589.3</ele>
        <time>2018-06-13T08:34:42Z</time>
      </trkpt>
      <trkpt lat="42.457920" lon="0.500488">
        <ele>1586.1</ele>
        <time>2018-06-13T08:34:45Z</time>
      </trkpt>
      <trkpt lat="42.457847" lon="0.500603">
        <ele>1585.2</ele>
        <time>2018-06-13T08:34:48Z</time>
      </trkpt>
      <trkpt lat="42.457775" lon="0.500724">
        <ele>1584.6</ele>
        <time>2018-06-13T08:34:51Z</time>
      </trkpt>
      <trkpt lat="42.457709" lon="0.500858">
        <ele>1584.3</ele>
        <time>2018-06-13T08:34:54Z</time>
      </trkpt>
      <trkpt lat="42.457653" lon="0.500997">
        <ele>1584.2</ele>
        <time>2018-06-13T08:34:57Z</time>
      </trkpt>
      <trkpt lat="42.457599" lon="0.501139">
        <ele>1583.8</ele>
        <time>2018-06-13T08:35:01Z</time>
      </trkpt>
      <trkpt lat="42.457526" lon="0.501289">
        <ele>1583.2</ele>
        <time>2018-06-13T08:35:04Z</time>
      </trkpt>
      <trkpt lat="42.457474" lon="0.501392">
        <ele>1582.4</ele>
        <time>2018-06-13T08:35:06Z</time>
      </trkpt>
      <trkpt lat="42.457422" lon="0.501508">
        <ele>1581.2</ele>
        <time>2018-06-13T08:35:09Z</time>
      </trkpt>
      <trkpt lat="42.457367" lon="0.501625">
        <ele>1579.8</ele>
        <time>2018-06-13T08:35:12Z</time>
      </trkpt>
      <trkpt lat="42.457306" lon="0.501722">
        <ele>1578.4</ele>
        <time>2018-06-13T08:35:14Z</time>
      </trkpt>
      <trkpt lat="42.457235" lon="0.501808">
        <ele>1576.7</ele>
        <time>2018-06-13T08:35:17Z</time>
      </trkpt>
      <trkpt lat="42.457167" lon="0.501904">
        <ele>1574.8</ele>
        <time>2018-06-13T08:35:20Z</time>
      </trkpt>
      <trkpt lat="42.457098" lon="0.501999">
        <ele>1572.9</ele>
        <time>2018-06-13T08:35:22Z</time>
      </trkpt>
      <trkpt lat="42.456996" lon="0.502113">
        <ele>1572.7</ele>
        <time>2018-06-13T08:35:26Z</time>
      </trkpt>
      <trkpt lat="42.456898" lon="0.502204">
        <ele>1573.2</ele>
        <time>2018-06-13T08:35:29Z</time>
      </trkpt>
      <trkpt lat="42.456796" lon="0.502274">
        <ele>1573.5</ele>
        <time>2018-06-13T08:35:32Z</time>
      </trkpt>
      <trkpt lat="42.456716" lon="0.502362">
        <ele>1574.6</ele>
        <time>2018-06-13T08:35:35Z</time>
      </trkpt>
      <trkpt lat="42.456628" lon="0.502432">
        <ele>1576.3</ele>
        <time>2018-06-13T08:35:37Z</time>
      </trkpt>
      <trkpt lat="42.456537" lon="0.502509">
        <ele>1577.4</ele>
        <time>2018-06-13T08:35:40Z</time>
      </trkpt>
      <trkpt lat="42.456441" lon="0.502590">
        <ele>1577.2</ele>
        <time>2018-06-13T08:35:43Z</time>
      </trkpt>
      <trkpt lat="42.456335" lon="0.502681">
        <ele>1576.9</ele>
        <time>2018-06-13T08:35:46Z</time>
      </trkpt>
      <trkpt lat="42.456220" lon="0.502765">
        <ele>1576.4</ele>
        <time>2018-06-13T08:35:50Z</time>
      </trkpt>
      <trkpt lat="42.456137" lon="0.502839">
        <ele>1575.8</ele>
        <time>2018-06-13T08:35:52Z</time>
      </trkpt>
      <trkpt lat="42.456041" lon="0.502923">
        <ele>1575.2</ele>
        <time>2018-06-13T08:35:55Z</time>
      </trkpt>
      <trkpt lat="42.455941" lon="0.503017">
        <ele>1574.7</ele>
        <time>2018-06-13T08:35:59Z</time>
      </trkpt>
      <trkpt lat="42.455838" lon="0.503105">
        <ele>1574.6</ele>
        <time>2018-06-13T08:36:02Z</time>
      </trkpt>
      <trkpt lat="42.455742" lon="0.503208">
        <ele>1574.8</ele>
        <time>2018-06-13T08:36:05Z</time>
      </trkpt>
      <trkpt lat="42.455656" lon="0.503307">
        <ele>1574.2</ele>
        <time>2018-06-13T08:36:08Z</time>
      </trkpt>
      <trkpt lat="42.455584" lon="0.503389">
        <ele>1573.4</ele>
        <time>2018-06-13T08:36:11Z</time>
      </trkpt>
      <trkpt lat="42.455488" lon="0.503497">
        <ele>1572.6</ele>
        <time>2018-06-13T08:36:14Z</time>
      </trkpt>
      <trkpt lat="42.455387" lon="0.503598">
        <ele>1572.4</ele>
        <time>2018-06-13T08:36:17Z</time>
      </trkpt>
      <trkpt lat="42.455287" lon="0.503708">
        <ele>1573.2</ele>
        <time>2018-06-13T08:36:21Z</time>
      </trkpt>
      <trkpt lat="42.455193" lon="0.503816">
        <ele>1574.3</ele>
        <time>2018-06-13T08:36:24Z</time>
      </trkpt>
      <trkpt lat="42.455096" lon="0.503916">
        <ele>1574.9</ele>
        <time>2018-06-13T08:36:27Z</time>
      </trkpt>
      <trkpt lat="42.454999" lon="0.504019">
        <ele>1574.9</ele>
        <time>2018-06-13T08:36:30Z</time>
      </trkpt>
      <trkpt lat="42.454909" lon="0.504124">
        <ele>1574.4</ele>
        <time>2018-06-13T08:36:34Z</time>
      </trkpt>
      <trkpt lat="42.454843" lon="0.504245">
        <ele>1573.8</ele>
        <time>2018-06-13T08:36:36Z</time>
      </trkpt>
      <trkpt lat="42.454776" lon="0.504360">
        <ele>1573.2</ele>
        <time>2018-06-13T08:36:39Z</time>
      </trkpt>
      <trkpt lat="42.454710" lon="0.504468">
        <ele>1572.3</ele>
        <time>2018-06-13T08:36:42Z</time>
      </trkpt>
      <trkpt lat="42.454660" lon="0.504572">
        <ele>1571.6</ele>
        <time>2018-06-13T08:36:44Z</time>
      </trkpt>
      <trkpt lat="42.454606" lon="0.504678">
        <ele>1571.2</ele>
        <time>2018-06-13T08:36:47Z</time>
      </trkpt>
      <trkpt lat="42.454559" lon="0.504782">
        <ele>1570.5</ele>
        <time>2018-06-13T08:36:49Z</time>
      </trkpt>
      <trkpt lat="42.454489" lon="0.504943">
        <ele>1569.2</ele>
        <time>2018-06-13T08:36:53Z</time>
      </trkpt>
      <trkpt lat="42.454401" lon="0.505060">
        <ele>1568.0</ele>
        <time>2018-06-13T08:36:56Z</time>
      </trkpt>
      <trkpt lat="42.454311" lon="0.505155">
        <ele>1567.2</ele>
        <time>2018-06-13T08:36:59Z</time>
      </trkpt>
      <trkpt lat="42.454250" lon="0.505263">
        <ele>1567.3</ele>
        <time>2018-06-13T08:37:02Z</time>
      </trkpt>
      <trkpt lat="42.454226" lon="0.505413">
        <ele>1568.3</ele>
        <time>2018-06-13T08:37:05Z</time>
      </trkpt>
      <trkpt lat="42.454213" lon="0.505551">
        <ele>1568.7</ele>
        <time>2018-06-13T08:37:08Z</time>
      </trkpt>
      <trkpt lat="42.454209" lon="0.505685">
        <ele>1569.2</ele>
        <time>2018-06-13T08:37:10Z</time>
      </trkpt>
      <trkpt lat="42.454211" lon="0.505853">
        <ele>1570.1</ele>
        <time>2018-06-13T08:37:14Z</time>
      </trkpt>
      <trkpt lat="42.454219" lon="0.506003">
        <ele>1570.7</ele>
        <time>2018-06-13T08:37:17Z</time>
      </trkpt>
      <trkpt lat="42.454201" lon="0.506143">
        <ele>1570.5</ele>
        <time>2018-06-13T08:37:19Z</time>
      </trkpt>
      <trkpt lat="42.454158" lon="0.506270">
        <ele>1569.9</ele>
        <time>2018-06-13T08:37:22Z</time>
      </trkpt>
      <trkpt lat="42.454096" lon="0.506376">
        <ele>1568.8</ele>
        <time>2018-06-13T08:37:25Z</time>
      </trkpt>
      <trkpt lat="42.454011" lon="0.506463">
        <ele>1566.8</ele>
        <time>2018-06-13T08:37:27Z</time>
      </trkpt>
      <trkpt lat="42.453926" lon="0.506530">
        <ele>1564.4</ele>
        <time>2018-06-13T08:37:30Z</time>
      </trkpt>
      <trkpt lat="42.453860" lon="0.506613">
        <ele>1563.3</ele>
        <time>2018-06-13T08:37:33Z</time>
      </trkpt>
      <trkpt lat="42.453772" lon="0.506698">
        <ele>1561.7</ele>
        <time>2018-06-13T08:37:35Z</time>
      </trkpt>
      <trkpt lat="42.453692" lon="0.506789">
        <ele>1560.2</ele>
        <time>2018-06-13T08:37:38Z</time>
      </trkpt>
      <trkpt lat="42.453614" lon="0.506896">
        <ele>1558.7</ele>
        <time>2018-06-13T08:37:41Z</time>
      </trkpt>
      <trkpt lat="42.453545" lon="0.507004">
        <ele>1557.5</ele>
        <time>2018-06-13T08:37:44Z</time>
      </trkpt>
      <trkpt lat="42.453473" lon="0.507112">
        <ele>1556.3</ele>
        <time>2018-06-13T08:37:47Z</time>
      </trkpt>
      <trkpt lat="42.453415" lon="0.507222">
        <ele>1556.1</ele>
        <time>2018-06-13T08:37:49Z</time>
      </trkpt>
      <trkpt lat="42.453351" lon="0.507325">
        <ele>1555.5</ele>
        <time>2018-06-13T08:37:52Z</time>
      </trkpt>
      <trkpt lat="42.453267" lon="0.507423">
        <ele>1555.4</ele>
        <time>2018-06-13T08:37:55Z</time>
      </trkpt>
      <trkpt lat="42.453186" lon="0.507512">
        <ele>1555.7</ele>
        <time>2018-06-13T08:37:58Z</time>
      </trkpt>
      <trkpt lat="42.453104" lon="0.507599">
        <ele>1557.2</ele>
        <time>2018-06-13T08:38:01Z</time>
      </trkpt>
      <trkpt lat="42.453034" lon="0.507712">
        <ele>1559.2</ele>
        <time>2018-06-13T08:38:03Z</time>
      </trkpt>
      <trkpt lat="42.452960" lon="0.507824">
        <ele>1560.8</ele>
        <time>2018-06-13T08:38:06Z</time>
      </trkpt>
      <trkpt lat="42.452885" lon="0.507930">
        <ele>1562.1</ele>
        <time>2018-06-13T08:38:09Z</time>
      </trkpt>
      <trkpt lat="42.452824" lon="0.508040">
        <ele>1564.3</ele>
        <time>2018-06-13T08:38:12Z</time>
      </trkpt>
      <trkpt lat="42.452765" lon="0.508147">
        <ele>1565.7</ele>
        <time>2018-06-13T08:38:15Z</time>
      </trkpt>
      <trkpt lat="42.452705" lon="0.508234">
        <ele>1565.6</ele>
        <time>2018-06-13T08:38:17Z</time>
      </trkpt>
      <trkpt lat="42.452628" lon="0.508329">
        <ele>1564.0</ele>
        <time>2018-06-13T08:38:20Z</time>
      </trkpt>
      <trkpt lat="42.452543" lon="0.508419">
        <ele>1564.1</ele>
        <time>2018-06-13T08:38:23Z</time>
      </trkpt>
      <trkpt lat="42.452487" lon="0.508517">
        <ele>1564.5</ele>
        <time>2018-06-13T08:38:25Z</time>
      </trkpt>
      <trkpt lat="42.452412" lon="0.508617">
        <ele>1564.8</ele>
        <time>2018-06-13T08:38:28Z</time>
      </trkpt>
      <trkpt lat="42.452314" lon="0.508695">
        <ele>1566.0</ele>
        <time>2018-06-13T08:38:31Z</time>
      </trkpt>
      <trkpt lat="42.452225" lon="0.508741">
        <ele>1567.9</ele>
        <time>2018-06-13T08:38:33Z</time>
      </trkpt>
      <trkpt lat="42.452138" lon="0.508775">
        <ele>1569.7</ele>
        <time>2018-06-13T08:38:36Z</time>
      </trkpt>
      <trkpt lat="42.452048" lon="0.508829">
        <ele>1570.9</ele>
        <time>2018-06-13T08:38:38Z</time>
      </trkpt>
      <trkpt lat="42.451966" lon="0.508900">
        <ele>1571.6</ele>
        <time>2018-06-13T08:38:41Z</time>
      </trkpt>
      <trkpt lat="42.451882" lon="0.508998">
        <ele>1572.7</ele>
        <time>2018-06-13T08:38:44Z</time>
      </trkpt>
      <trkpt lat="42.451815" lon="0.509076">
        <ele>1573.7</ele>
        <time>2018-06-13T08:38:46Z</time>
      </trkpt>
      <trkpt lat="42.451738" lon="0.509157">
        <ele>1573.2</ele>
        <time>2018-06-13T08:38:49Z</time>
      </trkpt>
      <trkpt lat="42.451664" lon="0.509235">
        <ele>1572.6</ele>
        <time>2018-06-13T08:38:51Z</time>
      </trkpt>
      <trkpt lat="42.451574" lon="0.509329">
        <ele>1572.5</ele>
        <time>2018-06-13T08:38:54Z</time>
      </trkpt>
      <trkpt lat="42.451502" lon="0.509429">
        <ele>1573.2</ele>
        <time>2018-06-13T08:38:57Z</time>
      </trkpt>
      <trkpt lat="42.451421" lon="0.509518">
        <ele>1572.4</ele>
        <time>2018-06-13T08:39:00Z</time>
      </trkpt>
      <trkpt lat="42.451339" lon="0.509591">
        <ele>1570.7</ele>
        <time>2018-06-13T08:39:02Z</time>
      </trkpt>
      <trkpt lat="42.451245" lon="0.509621">
        <ele>1568.9</ele>
        <time>2018-06-13T08:39:05Z</time>
      </trkpt>
      <trkpt lat="42.451148" lon="0.509659">
        <ele>1568.7</ele>
        <time>2018-06-13T08:39:08Z</time>
      </trkpt>
      <trkpt lat="42.451043" lon="0.509723">
        <ele>1568.9</ele>
        <time>2018-06-13T08:39:11Z</time>
      </trkpt>
      <trkpt lat="42.450958" lon="0.509797">
        <ele>1569.5</ele>
        <time>2018-06-13T08:39:13Z</time>
      </trkpt>
      <trkpt lat="42.450878" lon="0.509876">
        <ele>1570.3</ele>
        <time>2018-06-13T08:39:16Z</time>
      </trkpt>
      <trkpt lat="42.450796" lon="0.509966">
        <ele>1571.3</ele>
        <time>2018-06-13T08:39:19Z</time>
      </trkpt>
      <trkpt lat="42.450720" lon="0.510054">
        <ele>1571.9</ele>
        <time>2018-06-13T08:39:21Z</time>
      </trkpt>
      <trkpt lat="42.450649" lon="0.510150">
        <ele>1572.5</ele>
        <time>2018-06-13T08:39:24Z</time>
      </trkpt>
      <trkpt lat="42.450583" lon="0.510249">
        <ele>1572.9</ele>
        <time>2018-06-13T08:39:27Z</time>
      </trkpt>
      <trkpt lat="42.450520" lon="0.510344">
        <ele>1572.8</ele>
        <time>2018-06-13T08:39:29Z</time>
      </trkpt>
      <trkpt lat="42.450433" lon="0.510415">
        <ele>1571.4</ele>
        <time>2018-06-13T08:39:32Z</time>
      </trkpt>
      <trkpt lat="42.450372" lon="0.510516">
        <ele>1573.0</ele>
        <time>2018-06-13T08:39:34Z</time>
      </trkpt>
      <trkpt lat="42.450299" lon="0.510598">
        <ele>1573.9</ele>
        <time>2018-06-13T08:39:37Z</time>
      </trkpt>
      <trkpt lat="42.450212" lon="0.510661">
        <ele>1573.7</ele>
        <time>2018-06-13T08:39:40Z</time>
      </trkpt>
      <trkpt lat="42.450125" lon="0.510598">
        <ele>1571.6</ele>
        <time>2018-06-13T08:39:42Z</time>
      </trkpt>
      <trkpt lat="42.450087" lon="0.510479">
        <ele>1570.0</ele>
        <time>2018-06-13T08:39:45Z</time>
      </trkpt>
      <trkpt lat="42.450058" lon="0.510402">
        <ele>1569.1</ele>
        <time>2018-06-13T08:39:46Z</time>
      </trkpt>
      <trkpt lat="42.450063" lon="0.510378">
        <ele>1568.7</ele>
        <time>2018-06-13T08:39:47Z</time>
      </trkpt>
      <trkpt lat="42.449703" lon="0.510358">
        <ele>1563.3</ele>
        <time>2018-06-13T08:39:57Z</time>
      </trkpt>
      <trkpt lat="42.449430" lon="0.510464">
        <ele>1553.1</ele>
        <time>2018-06-13T08:40:04Z</time>
      </trkpt>
      <trkpt lat="42.448901" lon="0.510830">
        <ele>1548.3</ele>
        <time>2018-06-13T08:40:20Z</time>
      </trkpt>
      <trkpt lat="42.448699" lon="0.510819">
        <ele>1545.5</ele>
        <time>2018-06-13T08:40:26Z</time>
      </trkpt>
      <trkpt lat="42.448425" lon="0.510955">
        <ele>1541.2</ele>
        <time>2018-06-13T08:40:33Z</time>
      </trkpt>
      <trkpt lat="42.448022" lon="0.510872">
        <ele>1529.1</ele>
        <time>2018-06-13T08:40:44Z</time>
      </trkpt>
      <trkpt lat="42.447734" lon="0.510734">
        <ele>1534.7</ele>
        <time>2018-06-13T08:40:53Z</time>
      </trkpt>
      <trkpt lat="42.447650" lon="0.510517">
        <ele>1533.5</ele>
        <time>2018-06-13T08:40:57Z</time>
      </trkpt>
      <trkpt lat="42.447702" lon="0.510307">
        <ele>1528.0</ele>
        <time>2018-06-13T08:41:02Z</time>
      </trkpt>
      <trkpt lat="42.447621" lon="0.509998">
        <ele>1522.8</ele>
        <time>2018-06-13T08:41:08Z</time>
      </trkpt>
      <trkpt lat="42.446788" lon="0.508523">
        <ele>1490.1</ele>
        <time>2018-06-13T08:41:45Z</time>
      </trkpt>
      <trkpt lat="42.446564" lon="0.508511">
        <ele>1483.1</ele>
        <time>2018-06-13T08:41:52Z</time>
      </trkpt>
      <trkpt lat="42.446038" lon="0.508785">
        <ele>1493.9</ele>
        <time>2018-06-13T08:42:07Z</time>
      </trkpt>
      <trkpt lat="42.445774" lon="0.508558">
        <ele>1496.7</ele>
        <time>2018-06-13T08:42:15Z</time>
      </trkpt>
      <trkpt lat="42.445668" lon="0.508370">
        <ele>1496.0</ele>
        <time>2018-06-13T08:42:20Z</time>
      </trkpt>
      <trkpt lat="42.445300" lon="0.507893">
        <ele>1497.5</ele>
        <time>2018-06-13T08:42:33Z</time>
      </trkpt>
      <trkpt lat="42.444994" lon="0.507572">
        <ele>1503.7</ele>
        <time>2018-06-13T08:42:43Z</time>
      </trkpt>
      <trkpt lat="42.444699" lon="0.506917">
        <ele>1492.3</ele>
        <time>2018-06-13T08:42:59Z</time>
      </trkpt>
      <trkpt lat="42.444640" lon="0.506641">
        <ele>1482.5</ele>
        <time>2018-06-13T08:43:05Z</time>
      </trkpt>
      <trkpt lat="42.444581" lon="0.506364">
        <ele>1471.9</ele>
        <time>2018-06-13T08:43:11Z</time>
      </trkpt>
      <trkpt lat="42.444406" lon="0.506202">
        <ele>1463.4</ele>
        <time>2018-06-13T08:43:17Z</time>
      </trkpt>
      <trkpt lat="42.444159" lon="0.506188">
        <ele>1463.8</ele>
        <time>2018-06-13T08:43:23Z</time>
      </trkpt>
      <trkpt lat="42.443827" lon="0.505987">
        <ele>1464.0</ele>
        <time>2018-06-13T08:43:33Z</time>
      </trkpt>
      <trkpt lat="42.443409" lon="0.505690">
        <ele>1466.8</ele>
        <time>2018-06-13T08:43:45Z</time>
      </trkpt>
      <trkpt lat="42.443371" lon="0.505445">
        <ele>1466.5</ele>
        <time>2018-06-13T08:43:50Z</time>
      </trkpt>
      <trkpt lat="42.443424" lon="0.505109">
        <ele>1462.0</ele>
        <time>2018-06-13T08:43:57Z</time>
      </trkpt>
      <trkpt lat="42.443455" lon="0.504903">
        <ele>1460.6</ele>
        <time>2018-06-13T08:44:01Z</time>
      </trkpt>
      <trkpt lat="42.443418" lon="0.504658">
        <ele>1461.7</ele>
        <time>2018-06-13T08:44:06Z</time>
      </trkpt>
      <trkpt lat="42.443426" lon="0.504384">
        <ele>1461.4</ele>
        <time>2018-06-13T08:44:11Z</time>
      </trkpt>
      <trkpt lat="42.443351" lon="0.503894">
        <ele>1456.2</ele>
        <time>2018-06-13T08:44:21Z</time>
      </trkpt>
      <trkpt lat="42.443375" lon="0.503105">
        <ele>1445.7</ele>
        <time>2018-06-13T08:44:37Z</time>
      </trkpt>
      <trkpt lat="42.443148" lon="0.502424">
        <ele>1438.0</ele>
        <time>2018-06-13T08:44:51Z</time>
      </trkpt>
      <trkpt lat="42.443151" lon="0.502333">
        <ele>1436.3</ele>
        <time>2018-06-13T08:44:53Z</time>
      </trkpt>
      <trkpt lat="42.443228" lon="0.502033">
        <ele>1432.8</ele>
        <time>2018-06-13T08:44:59Z</time>
      </trkpt>
      <trkpt lat="42.443298" lon="0.501946">
        <ele>1430.1</ele>
        <time>2018-06-13T08:45:02Z</time>
      </trkpt>
      <trkpt lat="42.443347" lon="0.501827">
        <ele>1426.9</ele>
        <time>2018-06-13T08:45:05Z</time>
      </trkpt>
      <trkpt lat="42.443282" lon="0.501732">
        <ele>1426.8</ele>
        <time>2018-06-13T08:45:07Z</time>
      </trkpt>
      <trkpt lat="42.443091" lon="0.501357">
        <ele>1424.9</ele>
        <time>2018-06-13T08:45:16Z</time>
      </trkpt>
      <trkpt lat="42.442877" lon="0.501011">
        <ele>1424.3</ele>
        <time>2018-06-13T08:45:25Z</time>
      </trkpt>
      <trkpt lat="42.442602" lon="0.500418">
        <ele>1409.0</ele>
        <time>2018-06-13T08:45:39Z</time>
      </trkpt>
      <trkpt lat="42.442282" lon="0.499853">
        <ele>1399.0</ele>
        <time>2018-06-13T08:45:53Z</time>
      </trkpt>
      <trkpt lat="42.441896" lon="0.499224">
        <ele>1395.5</ele>
        <time>2018-06-13T08:46:09Z</time>
      </trkpt>
      <trkpt lat="42.441286" lon="0.498551">
        <ele>1383.7</ele>
        <time>2018-06-13T08:46:30Z</time>
      </trkpt>
      <trkpt lat="42.441156" lon="0.498392">
        <ele>1383.0</ele>
        <time>2018-06-13T08:46:35Z</time>
      </trkpt>
      <trkpt lat="42.441013" lon="0.497898">
        <ele>1377.2</ele>
        <time>2018-06-13T08:46:45Z</time>
      </trkpt>
      <trkpt lat="42.440908" lon="0.497649">
        <ele>1373.6</ele>
        <time>2018-06-13T08:46:51Z</time>
      </trkpt>
      <trkpt lat="42.440650" lon="0.497270">
        <ele>1374.1</ele>
        <time>2018-06-13T08:47:01Z</time>
      </trkpt>
      <trkpt lat="42.440612" lon="0.497025">
        <ele>1372.3</ele>
        <time>2018-06-13T08:47:06Z</time>
      </trkpt>
      <trkpt lat="42.440511" lon="0.495925">
        <ele>1365.8</ele>
        <time>2018-06-13T08:47:27Z</time>
      </trkpt>
      <trkpt lat="42.440403" lon="0.495038">
        <ele>1347.2</ele>
        <time>2018-06-13T08:47:46Z</time>
      </trkpt>
      <trkpt lat="42.440118" lon="0.494049">
        <ele>1343.8</ele>
        <time>2018-06-13T08:48:06Z</time>
      </trkpt>
      <trkpt lat="42.439656" lon="0.492960">
        <ele>1328.4</ele>
        <time>2018-06-13T08:48:31Z</time>
      </trkpt>
      <trkpt lat="42.439317" lon="0.492273">
        <ele>1322.4</ele>
        <time>2018-06-13T08:48:47Z</time>
      </trkpt>
      <trkpt lat="42.439364" lon="0.492184">
        <ele>1322.0</ele>
        <time>2018-06-13T08:48:49Z</time>
      </trkpt>
      <trkpt lat="42.439942" lon="0.492429">
        <ele>1322.8</ele>
        <time>2018-06-13T08:49:05Z</time>
      </trkpt>
      <trkpt lat="42.441024" lon="0.493127">
        <ele>1310.0</ele>
        <time>2018-06-13T08:49:37Z</time>
      </trkpt>
      <trkpt lat="42.441269" lon="0.493202">
        <ele>1300.4</ele>
        <time>2018-06-13T08:49:44Z</time>
      </trkpt>
      <trkpt lat="42.441753" lon="0.493563">
        <ele>1296.3</ele>
        <time>2018-06-13T08:49:59Z</time>
      </trkpt>
      <trkpt lat="42.442011" lon="0.493972">
        <ele>1297.3</ele>
        <time>2018-06-13T08:50:09Z</time>
      </trkpt>
      <trkpt lat="42.442229" lon="0.494197">
        <ele>1296.7</ele>
        <time>2018-06-13T08:50:16Z</time>
      </trkpt>
      <trkpt lat="42.442338" lon="0.494325">
        <ele>1297.1</ele>
        <time>2018-06-13T08:50:20Z</time>
      </trkpt>
      <trkpt lat="42.442405" lon="0.494329">
        <ele>1295.2</ele>
        <time>2018-06-13T08:50:22Z</time>
      </trkpt>
      <trkpt lat="42.442455" lon="0.494179">
        <ele>1290.7</ele>
        <time>2018-06-13T08:50:25Z</time>
      </trkpt>
      <trkpt lat="42.442393" lon="0.494024">
        <ele>1291.0</ele>
        <time>2018-06-13T08:50:29Z</time>
      </trkpt>
      <trkpt lat="42.442252" lon="0.493469">
        <ele>1280.0</ele>
        <time>2018-06-13T08:50:41Z</time>
      </trkpt>
      <trkpt lat="42.442105" lon="0.492367">
        <ele>1263.6</ele>
        <time>2018-06-13T08:51:03Z</time>
      </trkpt>
      <trkpt lat="42.441987" lon="0.491813">
        <ele>1256.4</ele>
        <time>2018-06-13T08:51:14Z</time>
      </trkpt>
      <trkpt lat="42.441906" lon="0.491505">
        <ele>1249.1</ele>
        <time>2018-06-13T08:51:21Z</time>
      </trkpt>
      <trkpt lat="42.441600" lon="0.491214">
        <ele>1255.9</ele>
        <time>2018-06-13T08:51:31Z</time>
      </trkpt>
      <trkpt lat="42.441694" lon="0.491098">
        <ele>1250.0</ele>
        <time>2018-06-13T08:51:34Z</time>
      </trkpt>
      <trkpt lat="42.441877" lon="0.490986">
        <ele>1239.6</ele>
        <time>2018-06-13T08:51:40Z</time>
      </trkpt>
      <trkpt lat="42.442169" lon="0.491003">
        <ele>1228.8</ele>
        <time>2018-06-13T08:51:48Z</time>
      </trkpt>
      <trkpt lat="42.442564" lon="0.491359">
        <ele>1232.3</ele>
        <time>2018-06-13T08:52:01Z</time>
      </trkpt>
      <trkpt lat="42.442655" lon="0.491303">
        <ele>1228.7</ele>
        <time>2018-06-13T08:52:04Z</time>
      </trkpt>
      <trkpt lat="42.442681" lon="0.491183">
        <ele>1223.8</ele>
        <time>2018-06-13T08:52:06Z</time>
      </trkpt>
      <trkpt lat="42.442561" lon="0.490690">
        <ele>1212.4</ele>
        <time>2018-06-13T08:52:17Z</time>
      </trkpt>
      <trkpt lat="42.442282" lon="0.490249">
        <ele>1203.2</ele>
        <time>2018-06-13T08:52:28Z</time>
      </trkpt>
      <trkpt lat="42.442082" lon="0.490177">
        <ele>1207.9</ele>
        <time>2018-06-13T08:52:34Z</time>
      </trkpt>
      <trkpt lat="42.441994" lon="0.490112">
        <ele>1211.4</ele>
        <time>2018-06-13T08:52:37Z</time>
      </trkpt>
      <trkpt lat="42.441954" lon="0.489927">
        <ele>1210.6</ele>
        <time>2018-06-13T08:52:40Z</time>
      </trkpt>
      <trkpt lat="42.441707" lon="0.489184">
        <ele>1207.2</ele>
        <time>2018-06-13T08:52:56Z</time>
      </trkpt>
      <trkpt lat="42.441625" lon="0.488906">
        <ele>1200.4</ele>
        <time>2018-06-13T08:53:02Z</time>
      </trkpt>
      <trkpt lat="42.441570" lon="0.488508">
        <ele>1185.1</ele>
        <time>2018-06-13T08:53:11Z</time>
      </trkpt>
      <trkpt lat="42.441330" lon="0.488251">
        <ele>1177.4</ele>
        <time>2018-06-13T08:53:19Z</time>
      </trkpt>
      <trkpt lat="42.441020" lon="0.488082">
        <ele>1172.7</ele>
        <time>2018-06-13T08:53:28Z</time>
      </trkpt>
      <trkpt lat="42.440706" lon="0.488034">
        <ele>1175.2</ele>
        <time>2018-06-13T08:53:37Z</time>
      </trkpt>
      <trkpt lat="42.440574" lon="0.487966">
        <ele>1175.8</ele>
        <time>2018-06-13T08:53:40Z</time>
      </trkpt>
      <trkpt lat="42.440493" lon="0.487658">
        <ele>1167.7</ele>
        <time>2018-06-13T08:53:47Z</time>
      </trkpt>
      <trkpt lat="42.440293" lon="0.487555">
        <ele>1167.4</ele>
        <time>2018-06-13T08:53:53Z</time>
      </trkpt>
      <trkpt lat="42.440069" lon="0.487543">
        <ele>1168.9</ele>
        <time>2018-06-13T08:53:59Z</time>
      </trkpt>
      <trkpt lat="42.439660" lon="0.487642">
        <ele>1176.4</ele>
        <time>2018-06-13T08:54:10Z</time>
      </trkpt>
      <trkpt lat="42.439597" lon="0.487517">
        <ele>1176.8</ele>
        <time>2018-06-13T08:54:13Z</time>
      </trkpt>
      <trkpt lat="42.439615" lon="0.486910">
        <ele>1173.4</ele>
        <time>2018-06-13T08:54:25Z</time>
      </trkpt>
      <trkpt lat="42.439926" lon="0.485560">
        <ele>1149.4</ele>
        <time>2018-06-13T08:54:53Z</time>
      </trkpt>
      <trkpt lat="42.439934" lon="0.485317">
        <ele>1141.6</ele>
        <time>2018-06-13T08:54:58Z</time>
      </trkpt>
      <trkpt lat="42.439813" lon="0.484854">
        <ele>1129.8</ele>
        <time>2018-06-13T08:55:08Z</time>
      </trkpt>
      <trkpt lat="42.439596" lon="0.484569">
        <ele>1129.1</ele>
        <time>2018-06-13T08:55:16Z</time>
      </trkpt>
      <trkpt lat="42.439393" lon="0.484588">
        <ele>1133.5</ele>
        <time>2018-06-13T08:55:21Z</time>
      </trkpt>
      <trkpt lat="42.439156" lon="0.485000">
        <ele>1139.3</ele>
        <time>2018-06-13T08:55:31Z</time>
      </trkpt>
      <trkpt lat="42.439040" lon="0.485115">
        <ele>1138.9</ele>
        <time>2018-06-13T08:55:35Z</time>
      </trkpt>
      <trkpt lat="42.438863" lon="0.485014">
        <ele>1135.7</ele>
        <time>2018-06-13T08:55:40Z</time>
      </trkpt>
      <trkpt lat="42.438557" lon="0.484694">
        <ele>1126.1</ele>
        <time>2018-06-13T08:55:51Z</time>
      </trkpt>
      <trkpt lat="42.438160" lon="0.484428">
        <ele>1121.2</ele>
        <time>2018-06-13T08:56:03Z</time>
      </trkpt>
      <trkpt lat="42.437984" lon="0.484297">
        <ele>1118.3</ele>
        <time>2018-06-13T08:56:08Z</time>
      </trkpt>
      <trkpt lat="42.437854" lon="0.484138">
        <ele>1116.1</ele>
        <time>2018-06-13T08:56:13Z</time>
      </trkpt>
      <trkpt lat="42.437640" lon="0.483761">
        <ele>1110.3</ele>
        <time>2018-06-13T08:56:22Z</time>
      </trkpt>
      <trkpt lat="42.437450" lon="0.483356">
        <ele>1106.7</ele>
        <time>2018-06-13T08:56:31Z</time>
      </trkpt>
      <trkpt lat="42.436951" lon="0.482751">
        <ele>1106.1</ele>
        <time>2018-06-13T08:56:49Z</time>
      </trkpt>
      <trkpt lat="42.436782" lon="0.482377">
        <ele>1100.4</ele>
        <time>2018-06-13T08:56:58Z</time>
      </trkpt>
      <trkpt lat="42.436768" lon="0.482102">
        <ele>1092.0</ele>
        <time>2018-06-13T08:57:03Z</time>
      </trkpt>
      <trkpt lat="42.436796" lon="0.481922">
        <ele>1085.3</ele>
        <time>2018-06-13T08:57:07Z</time>
      </trkpt>
      <trkpt lat="42.436938" lon="0.481686">
        <ele>1078.6</ele>
        <time>2018-06-13T08:57:14Z</time>
      </trkpt>
      <trkpt lat="42.437169" lon="0.481486">
        <ele>1073.5</ele>
        <time>2018-06-13T08:57:21Z</time>
      </trkpt>
      <trkpt lat="42.437389" lon="0.481651">
        <ele>1085.1</ele>
        <time>2018-06-13T08:57:28Z</time>
      </trkpt>
      <trkpt lat="42.437931" lon="0.482349">
        <ele>1093.5</ele>
        <time>2018-06-13T08:57:48Z</time>
      </trkpt>
      <trkpt lat="42.438111" lon="0.482329">
        <ele>1088.8</ele>
        <time>2018-06-13T08:57:53Z</time>
      </trkpt>
      <trkpt lat="42.438253" lon="0.482124">
        <ele>1083.5</ele>
        <time>2018-06-13T08:57:58Z</time>
      </trkpt>
      <trkpt lat="42.438215" lon="0.481879">
        <ele>1080.4</ele>
        <time>2018-06-13T08:58:03Z</time>
      </trkpt>
      <trkpt lat="42.438065" lon="0.481627">
        <ele>1078.3</ele>
        <time>2018-06-13T08:58:10Z</time>
      </trkpt>
      <trkpt lat="42.438028" lon="0.481382">
        <ele>1072.8</ele>
        <time>2018-06-13T08:58:15Z</time>
      </trkpt>
      <trkpt lat="42.438044" lon="0.480836">
        <ele>1057.0</ele>
        <time>2018-06-13T08:58:26Z</time>
      </trkpt>
      <trkpt lat="42.438011" lon="0.480439">
        <ele>1049.1</ele>
        <time>2018-06-13T08:58:34Z</time>
      </trkpt>
      <trkpt lat="42.437883" lon="0.480219">
        <ele>1048.3</ele>
        <time>2018-06-13T08:58:39Z</time>
      </trkpt>
      <trkpt lat="42.437615" lon="0.480144">
        <ele>1050.7</ele>
        <time>2018-06-13T08:58:47Z</time>
      </trkpt>
      <trkpt lat="42.437345" lon="0.480159">
        <ele>1046.9</ele>
        <time>2018-06-13T08:58:54Z</time>
      </trkpt>
      <trkpt lat="42.437164" lon="0.480218">
        <ele>1043.3</ele>
        <time>2018-06-13T08:58:59Z</time>
      </trkpt>
      <trkpt lat="42.437032" lon="0.480470">
        <ele>1045.7</ele>
        <time>2018-06-13T08:59:05Z</time>
      </trkpt>
      <trkpt lat="42.436972" lon="0.480668">
        <ele>1050.1</ele>
        <time>2018-06-13T08:59:09Z</time>
      </trkpt>
      <trkpt lat="42.436899" lon="0.480857">
        <ele>1054.6</ele>
        <time>2018-06-13T08:59:14Z</time>
      </trkpt>
      <trkpt lat="42.436737" lon="0.480885">
        <ele>1059.2</ele>
        <time>2018-06-13T08:59:18Z</time>
      </trkpt>
      <trkpt lat="42.436651" lon="0.480759">
        <ele>1060.0</ele>
        <time>2018-06-13T08:59:21Z</time>
      </trkpt>
      <trkpt lat="42.436480" lon="0.480443">
        <ele>1058.3</ele>
        <time>2018-06-13T08:59:29Z</time>
      </trkpt>
      <trkpt lat="42.436148" lon="0.479669">
        <ele>1046.1</ele>
        <time>2018-06-13T08:59:47Z</time>
      </trkpt>
      <trkpt lat="42.436021" lon="0.479265">
        <ele>1036.0</ele>
        <time>2018-06-13T08:59:56Z</time>
      </trkpt>
      <trkpt lat="42.435805" lon="0.478980">
        <ele>1029.7</ele>
        <time>2018-06-13T09:00:04Z</time>
      </trkpt>
      <trkpt lat="42.435429" lon="0.478746">
        <ele>1025.8</ele>
        <time>2018-06-13T09:00:15Z</time>
      </trkpt>
      <trkpt lat="42.435072" lon="0.478624">
        <ele>1021.6</ele>
        <time>2018-06-13T09:00:24Z</time>
      </trkpt>
      <trkpt lat="42.434753" lon="0.478724">
        <ele>1027.6</ele>
        <time>2018-06-13T09:00:33Z</time>
      </trkpt>
      <trkpt lat="42.434480" lon="0.478967">
        <ele>1036.1</ele>
        <time>2018-06-13T09:00:42Z</time>
      </trkpt>
      <trkpt lat="42.434241" lon="0.479165">
        <ele>1047.1</ele>
        <time>2018-06-13T09:00:50Z</time>
      </trkpt>
      <trkpt lat="42.434102" lon="0.479102">
        <ele>1049.3</ele>
        <time>2018-06-13T09:00:54Z</time>
      </trkpt>
      <trkpt lat="42.433862" lon="0.478787">
        <ele>1057.8</ele>
        <time>2018-06-13T09:01:03Z</time>
      </trkpt>
      <trkpt lat="42.433750" lon="0.478607">
        <ele>1062.0</ele>
        <time>2018-06-13T09:01:08Z</time>
      </trkpt>
      <trkpt lat="42.433736" lon="0.478426">
        <ele>1058.8</ele>
        <time>2018-06-13T09:01:11Z</time>
      </trkpt>
      <trkpt lat="42.433776" lon="0.477985">
        <ele>1035.5</ele>
        <time>2018-06-13T09:01:21Z</time>
      </trkpt>
      <trkpt lat="42.433829" lon="0.477526">
        <ele>1025.5</ele>
        <time>2018-06-13T09:01:31Z</time>
      </trkpt>
      <trkpt lat="42.433769" lon="0.476824">
        <ele>1018.4</ele>
        <time>2018-06-13T09:01:45Z</time>
      </trkpt>
      <trkpt lat="42.433595" lon="0.476153">
        <ele>1017.5</ele>
        <time>2018-06-13T09:01:59Z</time>
      </trkpt>
      <trkpt lat="42.433402" lon="0.475838">
        <ele>1024.1</ele>
        <time>2018-06-13T09:02:07Z</time>
      </trkpt>
      <trkpt lat="42.433146" lon="0.475419">
        <ele>1018.7</ele>
        <time>2018-06-13T09:02:17Z</time>
      </trkpt>
      <trkpt lat="42.432962" lon="0.474801">
        <ele>990.2</ele>
        <time>2018-06-13T09:02:32Z</time>
      </trkpt>
      <trkpt lat="42.432642" lon="0.474236">
        <ele>975.1</ele>
        <time>2018-06-13T09:02:46Z</time>
      </trkpt>
      <trkpt lat="42.432317" lon="0.473823">
        <ele>976.9</ele>
        <time>2018-06-13T09:02:58Z</time>
      </trkpt>
      <trkpt lat="42.431920" lon="0.473558">
        <ele>975.5</ele>
        <time>2018-06-13T09:03:10Z</time>
      </trkpt>
      <trkpt lat="42.431475" lon="0.473382">
        <ele>979.0</ele>
        <time>2018-06-13T09:03:22Z</time>
      </trkpt>
      <trkpt lat="42.430922" lon="0.473047">
        <ele>990.9</ele>
        <time>2018-06-13T09:03:38Z</time>
      </trkpt>
      <trkpt lat="42.430860" lon="0.472862">
        <ele>991.1</ele>
        <time>2018-06-13T09:03:42Z</time>
      </trkpt>
      <trkpt lat="42.430956" lon="0.472684">
        <ele>986.8</ele>
        <time>2018-06-13T09:03:47Z</time>
      </trkpt>
      <trkpt lat="42.431214" lon="0.472334">
        <ele>974.0</ele>
        <time>2018-06-13T09:03:57Z</time>
      </trkpt>
      <trkpt lat="42.431406" lon="0.471950">
        <ele>971.6</ele>
        <time>2018-06-13T09:04:06Z</time>
      </trkpt>
      <trkpt lat="42.431379" lon="0.471340">
        <ele>966.4</ele>
        <time>2018-06-13T09:04:18Z</time>
      </trkpt>
      <trkpt lat="42.431275" lon="0.471061">
        <ele>961.6</ele>
        <time>2018-06-13T09:04:24Z</time>
      </trkpt>
      <trkpt lat="42.430989" lon="0.470833">
        <ele>960.3</ele>
        <time>2018-06-13T09:04:33Z</time>
      </trkpt>
      <trkpt lat="42.430882" lon="0.470675">
        <ele>958.3</ele>
        <time>2018-06-13T09:04:37Z</time>
      </trkpt>
      <trkpt lat="42.430758" lon="0.470303">
        <ele>952.8</ele>
        <time>2018-06-13T09:04:45Z</time>
      </trkpt>
      <trkpt lat="42.430648" lon="0.470206">
        <ele>952.1</ele>
        <time>2018-06-13T09:04:48Z</time>
      </trkpt>
      <trkpt lat="42.430447" lon="0.470165">
        <ele>954.0</ele>
        <time>2018-06-13T09:04:54Z</time>
      </trkpt>
      <trkpt lat="42.430319" lon="0.469945">
        <ele>949.9</ele>
        <time>2018-06-13T09:04:59Z</time>
      </trkpt>
      <trkpt lat="42.430326" lon="0.469702">
        <ele>945.7</ele>
        <time>2018-06-13T09:05:04Z</time>
      </trkpt>
      <trkpt lat="42.430419" lon="0.469616">
        <ele>944.4</ele>
        <time>2018-06-13T09:05:07Z</time>
      </trkpt>
      <trkpt lat="42.430729" lon="0.469755">
        <ele>947.1</ele>
        <time>2018-06-13T09:05:16Z</time>
      </trkpt>
      <trkpt lat="42.430862" lon="0.469823">
        <ele>946.7</ele>
        <time>2018-06-13T09:05:20Z</time>
      </trkpt>
      <trkpt lat="42.431046" lon="0.469712">
        <ele>945.2</ele>
        <time>2018-06-13T09:05:25Z</time>
      </trkpt>
      <trkpt lat="42.431096" lon="0.469532">
        <ele>942.9</ele>
        <time>2018-06-13T09:05:29Z</time>
      </trkpt>
      <trkpt lat="42.430971" lon="0.469221">
        <ele>940.5</ele>
        <time>2018-06-13T09:05:36Z</time>
      </trkpt>
      <trkpt lat="42.429322" lon="0.467915">
        <ele>928.7</ele>
        <time>2018-06-13T09:06:26Z</time>
      </trkpt>
      <trkpt lat="42.428686" lon="0.467363">
        <ele>924.0</ele>
        <time>2018-06-13T09:06:46Z</time>
      </trkpt>
      <trkpt lat="42.428537" lon="0.467081">
        <ele>921.0</ele>
        <time>2018-06-13T09:06:53Z</time>
      </trkpt>
      <trkpt lat="42.428275" lon="0.466064">
        <ele>912.1</ele>
        <time>2018-06-13T09:07:14Z</time>
      </trkpt>
      <trkpt lat="42.428150" lon="0.465753">
        <ele>909.8</ele>
        <time>2018-06-13T09:07:21Z</time>
      </trkpt>
      <trkpt lat="42.427259" lon="0.464671">
        <ele>894.0</ele>
        <time>2018-06-13T09:07:53Z</time>
      </trkpt>
      <trkpt lat="42.426273" lon="0.463796">
        <ele>888.7</ele>
        <time>2018-06-13T09:08:24Z</time>
      </trkpt>
      <trkpt lat="42.424718" lon="0.463103">
        <ele>879.2</ele>
        <time>2018-06-13T09:09:07Z</time>
      </trkpt>
      <trkpt lat="42.424283" lon="0.462623">
        <ele>885.8</ele>
        <time>2018-06-13T09:09:22Z</time>
      </trkpt>
      <trkpt lat="42.424061" lon="0.462617">
        <ele>879.6</ele>
        <time>2018-06-13T09:09:28Z</time>
      </trkpt>
      <trkpt lat="42.423511" lon="0.462824">
        <ele>878.1</ele>
        <time>2018-06-13T09:09:43Z</time>
      </trkpt>
      <trkpt lat="42.423235" lon="0.463021">
        <ele>875.2</ele>
        <time>2018-06-13T09:09:52Z</time>
      </trkpt>
      <trkpt lat="42.422782" lon="0.463118">
        <ele>870.3</ele>
        <time>2018-06-13T09:10:04Z</time>
      </trkpt>
      <trkpt lat="42.422141" lon="0.463477">
        <ele>866.0</ele>
        <time>2018-06-13T09:10:22Z</time>
      </trkpt>
      <trkpt lat="42.421895" lon="0.463434">
        <ele>866.0</ele>
        <time>2018-06-13T09:10:29Z</time>
      </trkpt>
      <trkpt lat="42.421694" lon="0.463362">
        <ele>865.5</ele>
        <time>2018-06-13T09:10:34Z</time>
      </trkpt>
      <trkpt lat="42.421212" lon="0.462940">
        <ele>863.4</ele>
        <time>2018-06-13T09:10:49Z</time>
      </trkpt>
      <trkpt lat="42.420992" lon="0.462776">
        <ele>868.0</ele>
        <time>2018-06-13T09:10:56Z</time>
      </trkpt>
      <trkpt lat="42.420825" lon="0.462342">
        <ele>865.5</ele>
        <time>2018-06-13T09:11:06Z</time>
      </trkpt>
      <trkpt lat="42.420832" lon="0.462099">
        <ele>863.2</ele>
        <time>2018-06-13T09:11:10Z</time>
      </trkpt>
      <trkpt lat="42.421010" lon="0.461410">
        <ele>861.7</ele>
        <time>2018-06-13T09:11:25Z</time>
      </trkpt>
      <trkpt lat="42.420952" lon="0.461103">
        <ele>864.2</ele>
        <time>2018-06-13T09:11:31Z</time>
      </trkpt>
      <trkpt lat="42.420738" lon="0.460757">
        <ele>864.3</ele>
        <time>2018-06-13T09:11:40Z</time>
      </trkpt>
      <trkpt lat="42.420430" lon="0.460497">
        <ele>855.9</ele>
        <time>2018-06-13T09:11:49Z</time>
      </trkpt>
      <trkpt lat="42.420119" lon="0.460358">
        <ele>850.8</ele>
        <time>2018-06-13T09:11:58Z</time>
      </trkpt>
      <trkpt lat="42.419923" lon="0.460165">
        <ele>850.1</ele>
        <time>2018-06-13T09:12:04Z</time>
      </trkpt>
      <trkpt lat="42.419160" lon="0.459333">
        <ele>841.9</ele>
        <time>2018-06-13T09:12:30Z</time>
      </trkpt>
      <trkpt lat="42.418954" lon="0.458684">
        <ele>835.5</ele>
        <time>2018-06-13T09:12:44Z</time>
      </trkpt>
      <trkpt lat="42.418703" lon="0.458062">
        <ele>834.2</ele>
        <time>2018-06-13T09:12:58Z</time>
      </trkpt>
      <trkpt lat="42.418577" lon="0.457782">
        <ele>838.4</ele>
        <time>2018-06-13T09:13:05Z</time>
      </trkpt>
      <trkpt lat="42.418468" lon="0.457655">
        <ele>839.4</ele>
        <time>2018-06-13T09:13:08Z</time>
      </trkpt>
      <trkpt lat="42.418049" lon="0.457358">
        <ele>827.3</ele>
        <time>2018-06-13T09:13:21Z</time>
      </trkpt>
      <trkpt lat="42.417591" lon="0.456877">
        <ele>823.3</ele>
        <time>2018-06-13T09:13:36Z</time>
      </trkpt>
      <trkpt lat="42.417498" lon="0.456234">
        <ele>814.9</ele>
        <time>2018-06-13T09:13:49Z</time>
      </trkpt>
      <trkpt lat="42.417605" lon="0.455663">
        <ele>810.7</ele>
        <time>2018-06-13T09:14:01Z</time>
      </trkpt>
      <trkpt lat="42.417354" lon="0.455041">
        <ele>809.5</ele>
        <time>2018-06-13T09:14:15Z</time>
      </trkpt>
      <trkpt lat="42.417377" lon="0.454277">
        <ele>810.7</ele>
        <time>2018-06-13T09:14:30Z</time>
      </trkpt>
      <trkpt lat="42.417310" lon="0.453872">
        <ele>816.4</ele>
        <time>2018-06-13T09:14:38Z</time>
      </trkpt>
      <trkpt lat="42.417202" lon="0.453523">
        <ele>823.2</ele>
        <time>2018-06-13T09:14:45Z</time>
      </trkpt>
      <trkpt lat="42.416962" lon="0.453310">
        <ele>824.9</ele>
        <time>2018-06-13T09:14:53Z</time>
      </trkpt>
      <trkpt lat="42.416380" lon="0.452983">
        <ele>826.1</ele>
        <time>2018-06-13T09:15:10Z</time>
      </trkpt>
      <trkpt lat="42.416076" lon="0.452632">
        <ele>821.3</ele>
        <time>2018-06-13T09:15:20Z</time>
      </trkpt>
      <trkpt lat="42.415785" lon="0.452585">
        <ele>810.6</ele>
        <time>2018-06-13T09:15:28Z</time>
      </trkpt>
      <trkpt lat="42.415567" lon="0.452421">
        <ele>805.4</ele>
        <time>2018-06-13T09:15:35Z</time>
      </trkpt>
      <trkpt lat="42.415369" lon="0.452198">
        <ele>801.5</ele>
        <time>2018-06-13T09:15:42Z</time>
      </trkpt>
      <trkpt lat="42.415170" lon="0.452066">
        <ele>796.0</ele>
        <time>2018-06-13T09:15:48Z</time>
      </trkpt>
      <trkpt lat="42.415110" lon="0.451819">
        <ele>794.2</ele>
        <time>2018-06-13T09:15:53Z</time>
      </trkpt>
      <trkpt lat="42.415143" lon="0.451421">
        <ele>795.4</ele>
        <time>2018-06-13T09:16:01Z</time>
      </trkpt>
      <trkpt lat="42.415094" lon="0.450858">
        <ele>802.2</ele>
        <time>2018-06-13T09:16:12Z</time>
      </trkpt>
      <trkpt lat="42.414930" lon="0.450321">
        <ele>804.3</ele>
        <time>2018-06-13T09:16:23Z</time>
      </trkpt>
      <trkpt lat="42.414846" lon="0.450134">
        <ele>803.7</ele>
        <time>2018-06-13T09:16:28Z</time>
      </trkpt>
      <trkpt lat="42.414670" lon="0.449972">
        <ele>801.5</ele>
        <time>2018-06-13T09:16:33Z</time>
      </trkpt>
      <trkpt lat="42.414361" lon="0.449773">
        <ele>795.6</ele>
        <time>2018-06-13T09:16:42Z</time>
      </trkpt>
      <trkpt lat="42.414165" lon="0.449580">
        <ele>794.1</ele>
        <time>2018-06-13T09:16:49Z</time>
      </trkpt>
      <trkpt lat="42.414015" lon="0.449329">
        <ele>796.2</ele>
        <time>2018-06-13T09:16:55Z</time>
      </trkpt>
      <trkpt lat="42.413885" lon="0.449139">
        <ele>797.0</ele>
        <time>2018-06-13T09:17:00Z</time>
      </trkpt>
      <trkpt lat="42.413422" lon="0.448810">
        <ele>789.8</ele>
        <time>2018-06-13T09:17:14Z</time>
      </trkpt>
      <trkpt lat="42.413262" lon="0.448163">
        <ele>796.5</ele>
        <time>2018-06-13T09:17:27Z</time>
      </trkpt>
      <trkpt lat="42.412977" lon="0.447878">
        <ele>793.3</ele>
        <time>2018-06-13T09:17:37Z</time>
      </trkpt>
      <trkpt lat="42.412849" lon="0.447596">
        <ele>792.9</ele>
        <time>2018-06-13T09:17:43Z</time>
      </trkpt>
      <trkpt lat="42.412594" lon="0.447096">
        <ele>801.0</ele>
        <time>2018-06-13T09:17:55Z</time>
      </trkpt>
      <trkpt lat="42.412420" lon="0.446904">
        <ele>806.8</ele>
        <time>2018-06-13T09:18:01Z</time>
      </trkpt>
      <trkpt lat="42.411886" lon="0.446693">
        <ele>802.1</ele>
        <time>2018-06-13T09:18:16Z</time>
      </trkpt>
      <trkpt lat="42.411357" lon="0.446299">
        <ele>793.8</ele>
        <time>2018-06-13T09:18:32Z</time>
      </trkpt>
      <trkpt lat="42.410831" lon="0.445845">
        <ele>793.4</ele>
        <time>2018-06-13T09:18:49Z</time>
      </trkpt>
      <trkpt lat="42.410527" lon="0.445652">
        <ele>791.1</ele>
        <time>2018-06-13T09:18:58Z</time>
      </trkpt>
      <trkpt lat="42.410164" lon="0.445565">
        <ele>783.5</ele>
        <time>2018-06-13T09:19:07Z</time>
      </trkpt>
      <trkpt lat="42.409899" lon="0.445369">
        <ele>781.1</ele>
        <time>2018-06-13T09:19:15Z</time>
      </trkpt>
      <trkpt lat="42.409595" lon="0.445018">
        <ele>778.0</ele>
        <time>2018-06-13T09:19:26Z</time>
      </trkpt>
      <trkpt lat="42.409180" lon="0.444600">
        <ele>773.2</ele>
        <time>2018-06-13T09:19:40Z</time>
      </trkpt>
      <trkpt lat="42.408898" lon="0.444220">
        <ele>768.7</ele>
        <time>2018-06-13T09:19:50Z</time>
      </trkpt>
      <trkpt lat="42.408686" lon="0.443783">
        <ele>765.9</ele>
        <time>2018-06-13T09:20:00Z</time>
      </trkpt>
      <trkpt lat="42.408427" lon="0.443077">
        <ele>763.8</ele>
        <time>2018-06-13T09:20:16Z</time>
      </trkpt>
      <trkpt lat="42.408239" lon="0.442179">
        <ele>764.2</ele>
        <time>2018-06-13T09:20:34Z</time>
      </trkpt>
      <trkpt lat="42.407379" lon="0.440856">
        <ele>760.8</ele>
        <time>2018-06-13T09:21:08Z</time>
      </trkpt>
      <trkpt lat="42.407015" lon="0.440468">
        <ele>751.0</ele>
        <time>2018-06-13T09:21:21Z</time>
      </trkpt>
      <trkpt lat="42.406832" lon="0.440175">
        <ele>749.3</ele>
        <time>2018-06-13T09:21:28Z</time>
      </trkpt>
      <trkpt lat="42.406633" lon="0.439703">
        <ele>746.3</ele>
        <time>2018-06-13T09:21:39Z</time>
      </trkpt>
      <trkpt lat="42.406268" lon="0.438938">
        <ele>745.7</ele>
        <time>2018-06-13T09:21:57Z</time>
      </trkpt>
      <trkpt lat="42.405719" lon="0.437667">
        <ele>746.4</ele>
        <time>2018-06-13T09:22:25Z</time>
      </trkpt>
      <trkpt lat="42.405068" lon="0.436842">
        <ele>746.2</ele>
        <time>2018-06-13T09:22:49Z</time>
      </trkpt>
      <trkpt lat="42.404807" lon="0.436524">
        <ele>741.8</ele>
        <time>2018-06-13T09:22:58Z</time>
      </trkpt>
      <trkpt lat="42.404723" lon="0.436337">
        <ele>739.3</ele>
        <time>2018-06-13T09:23:03Z</time>
      </trkpt>
      <trkpt lat="42.404648" lon="0.435847">
        <ele>736.4</ele>
        <time>2018-06-13T09:23:12Z</time>
      </trkpt>
      <trkpt lat="42.404633" lon="0.434844">
        <ele>731.4</ele>
        <time>2018-06-13T09:23:32Z</time>
      </trkpt>
      <trkpt lat="42.404772" lon="0.433940">
        <ele>727.5</ele>
        <time>2018-06-13T09:23:50Z</time>
      </trkpt>
      <trkpt lat="42.406750" lon="0.424297">
        <ele>708.1</ele>
        <time>2018-06-13T09:27:05Z</time>
      </trkpt>
      <trkpt lat="42.407506" lon="0.420845">
        <ele>701.1</ele>
        <time>2018-06-13T09:28:15Z</time>
      </trkpt>
      <trkpt lat="42.407622" lon="0.419971">
        <ele>701.9</ele>
        <time>2018-06-13T09:28:33Z</time>
      </trkpt>
      <trkpt lat="42.407596" lon="0.418888">
        <ele>700.5</ele>
        <time>2018-06-13T09:28:54Z</time>
      </trkpt>
      <trkpt lat="42.407497" lon="0.418111">
        <ele>699.4</ele>
        <time>2018-06-13T09:29:09Z</time>
      </trkpt>
      <trkpt lat="42.406770" lon="0.414578">
        <ele>697.3</ele>
        <time>2018-06-13T09:30:21Z</time>
      </trkpt>
      <trkpt lat="42.406676" lon="0.413935">
        <ele>695.1</ele>
        <time>2018-06-13T09:30:34Z</time>
      </trkpt>
      <trkpt lat="42.406633" lon="0.413113">
        <ele>690.8</ele>
        <time>2018-06-13T09:30:50Z</time>
      </trkpt>
      <trkpt lat="42.406644" lon="0.411990">
        <ele>688.5</ele>
        <time>2018-06-13T09:31:12Z</time>
      </trkpt>
      <trkpt lat="42.406857" lon="0.410148">
        <ele>691.8</ele>
        <time>2018-06-13T09:31:48Z</time>
      </trkpt>
      <trkpt lat="42.407249" lon="0.408316">
        <ele>692.2</ele>
        <time>2018-06-13T09:32:25Z</time>
      </trkpt>
      <trkpt lat="42.407479" lon="0.407387">
        <ele>695.9</ele>
        <time>2018-06-13T09:32:44Z</time>
      </trkpt>
      <trkpt lat="42.407871" lon="0.406315">
        <ele>698.5</ele>
        <time>2018-06-13T09:33:08Z</time>
      </trkpt>
      <trkpt lat="42.409611" lon="0.402308">
        <ele>700.1</ele>
        <time>2018-06-13T09:34:38Z</time>
      </trkpt>
      <trkpt lat="42.409666" lon="0.401977">
        <ele>699.9</ele>
        <time>2018-06-13T09:34:45Z</time>
      </trkpt>
      <trkpt lat="42.409829" lon="0.400285">
        <ele>693.1</ele>
        <time>2018-06-13T09:35:18Z</time>
      </trkpt>
      <trkpt lat="42.409794" lon="0.399949">
        <ele>691.4</ele>
        <time>2018-06-13T09:35:25Z</time>
      </trkpt>
      <trkpt lat="42.409773" lon="0.399887">
        <ele>691.4</ele>
        <time>2018-06-13T09:35:26Z</time>
      </trkpt>
      <trkpt lat="42.409908" lon="0.399894">
        <ele>690.3</ele>
        <time>2018-06-13T09:35:30Z</time>
      </trkpt>
      <trkpt lat="42.410022" lon="0.399840">
        <ele>690.6</ele>
        <time>2018-06-13T09:35:33Z</time>
      </trkpt>
      <trkpt lat="42.410070" lon="0.399751">
        <ele>690.6</ele>
        <time>2018-06-13T09:35:35Z</time>
      </trkpt>
      <trkpt lat="42.410051" lon="0.399629">
        <ele>690.4</ele>
        <time>2018-06-13T09:35:37Z</time>
      </trkpt>
      <trkpt lat="42.409946" lon="0.399380">
        <ele>690.2</ele>
        <time>2018-06-13T09:35:43Z</time>
      </trkpt>
      <trkpt lat="42.409842" lon="0.399070">
        <ele>690.1</ele>
        <time>2018-06-13T09:35:50Z</time>
      </trkpt>
      <trkpt lat="42.409823" lon="0.398978">
        <ele>690.3</ele>
        <time>2018-06-13T09:35:51Z</time>
      </trkpt>
      <trkpt lat="42.409829" lon="0.398766">
        <ele>690.3</ele>
        <time>2018-06-13T09:35:56Z</time>
      </trkpt>
      <trkpt lat="42.409879" lon="0.398586">
        <ele>690.5</ele>
        <time>2018-06-13T09:35:59Z</time>
      </trkpt>
      <trkpt lat="42.409885" lon="0.398404">
        <ele>691.5</ele>
        <time>2018-06-13T09:36:03Z</time>
      </trkpt>
      <trkpt lat="42.409937" lon="0.398164">
        <ele>693.2</ele>
        <time>2018-06-13T09:36:08Z</time>
      </trkpt>
      <trkpt lat="42.409963" lon="0.398044">
        <ele>693.8</ele>
        <time>2018-06-13T09:36:10Z</time>
      </trkpt>
      <trkpt lat="42.409948" lon="0.397800">
        <ele>695.6</ele>
        <time>2018-06-13T09:36:15Z</time>
      </trkpt>
      <trkpt lat="42.409908" lon="0.397616">
        <ele>696.6</ele>
        <time>2018-06-13T09:36:19Z</time>
      </trkpt>
      <trkpt lat="42.409776" lon="0.397518">
        <ele>696.0</ele>
        <time>2018-06-13T09:36:23Z</time>
      </trkpt>
      <trkpt lat="42.409685" lon="0.397543">
        <ele>695.4</ele>
        <time>2018-06-13T09:36:25Z</time>
      </trkpt>
      <trkpt lat="42.409594" lon="0.397569">
        <ele>694.8</ele>
        <time>2018-06-13T09:36:28Z</time>
      </trkpt>
      <trkpt lat="42.409555" lon="0.397384">
        <ele>694.0</ele>
        <time>2018-06-13T09:36:31Z</time>
      </trkpt>
      <trkpt lat="42.409410" lon="0.396192">
        <ele>690.7</ele>
        <time>2018-06-13T09:36:55Z</time>
      </trkpt>
      <trkpt lat="42.409373" lon="0.395916">
        <ele>687.5</ele>
        <time>2018-06-13T09:37:01Z</time>
      </trkpt>
      <trkpt lat="42.409361" lon="0.395829">
        <ele>687.6</ele>
        <time>2018-06-13T09:37:02Z</time>
      </trkpt>
      <trkpt lat="42.409602" lon="0.395777">
        <ele>686.0</ele>
        <time>2018-06-13T09:37:09Z</time>
      </trkpt>
      <trkpt lat="42.409920" lon="0.395703">
        <ele>685.2</ele>
        <time>2018-06-13T09:37:17Z</time>
      </trkpt>
      <trkpt lat="42.410108" lon="0.395652">
        <ele>682.2</ele>
        <time>2018-06-13T09:37:22Z</time>
      </trkpt>
      <trkpt lat="42.410202" lon="0.395293">
        <ele>679.0</ele>
        <time>2018-06-13T09:37:30Z</time>
      </trkpt>
      <trkpt lat="42.410320" lon="0.395117">
        <ele>676.6</ele>
        <time>2018-06-13T09:37:34Z</time>
      </trkpt>
      <trkpt lat="42.410389" lon="0.395060">
        <ele>675.1</ele>
        <time>2018-06-13T09:37:37Z</time>
      </trkpt>
      <trkpt lat="42.410372" lon="0.394877">
        <ele>674.6</ele>
        <time>2018-06-13T09:37:40Z</time>
      </trkpt>
      <trkpt lat="42.410352" lon="0.394784">
        <ele>674.2</ele>
        <time>2018-06-13T09:37:42Z</time>
      </trkpt>
      <trkpt lat="42.410324" lon="0.394700">
        <ele>673.8</ele>
        <time>2018-06-13T09:37:44Z</time>
      </trkpt>
      <trkpt lat="42.410356" lon="0.394694">
        <ele>673.7</ele>
        <time>2018-06-13T09:37:45Z</time>
      </trkpt>
      <trkpt lat="42.410377" lon="0.394603">
        <ele>673.1</ele>
        <time>2018-06-13T09:37:47Z</time>
      </trkpt>
      <trkpt lat="42.410401" lon="0.394590">
        <ele>673.0</ele>
        <time>2018-06-13T09:37:47Z</time>
      </trkpt>
      <trkpt lat="42.410764" lon="0.394694">
        <ele>672.6</ele>
        <time>2018-06-13T09:37:57Z</time>
      </trkpt>
      <trkpt lat="42.410878" lon="0.394729">
        <ele>673.2</ele>
        <time>2018-06-13T09:38:00Z</time>
      </trkpt>
      <trkpt lat="42.410898" lon="0.394721">
        <ele>673.2</ele>
        <time>2018-06-13T09:38:01Z</time>
      </trkpt>
      <trkpt lat="42.410919" lon="0.394697">
        <ele>673.2</ele>
        <time>2018-06-13T09:38:01Z</time>
      </trkpt>
      <trkpt lat="42.410934" lon="0.394641">
        <ele>673.1</ele>
        <time>2018-06-13T09:38:03Z</time>
      </trkpt>
      <trkpt lat="42.410954" lon="0.394418">
        <ele>673.0</ele>
        <time>2018-06-13T09:38:07Z</time>
      </trkpt>
      <trkpt lat="42.411064" lon="0.393547">
        <ele>674.0</ele>
        <time>2018-06-13T09:38:24Z</time>
      </trkpt>
      <trkpt lat="42.411180" lon="0.393432">
        <ele>672.5</ele>
        <time>2018-06-13T09:38:28Z</time>
      </trkpt>
      <trkpt lat="42.411361" lon="0.393411">
        <ele>673.6</ele>
        <time>2018-06-13T09:38:33Z</time>
      </trkpt>
      <trkpt lat="42.413389" lon="0.393338">
        <ele>676.8</ele>
        <time>2018-06-13T09:39:26Z</time>
      </trkpt>
      <trkpt lat="42.413481" lon="0.393282">
        <ele>676.4</ele>
        <time>2018-06-13T09:39:29Z</time>
      </trkpt>
      <trkpt lat="42.413553" lon="0.393134">
        <ele>676.6</ele>
        <time>2018-06-13T09:39:33Z</time>
      </trkpt>
      <trkpt lat="42.413498" lon="0.392706">
        <ele>680.2</ele>
        <time>2018-06-13T09:39:41Z</time>
      </trkpt>
      <trkpt lat="42.413525" lon="0.392556">
        <ele>682.1</ele>
        <time>2018-06-13T09:39:44Z</time>
      </trkpt>
      <trkpt lat="42.413757" lon="0.392325">
        <ele>686.0</ele>
        <time>2018-06-13T09:39:52Z</time>
      </trkpt>
      <trkpt lat="42.414119" lon="0.392254">
        <ele>685.5</ele>
        <time>2018-06-13T09:40:01Z</time>
      </trkpt>
      <trkpt lat="42.415123" lon="0.391791">
        <ele>686.1</ele>
        <time>2018-06-13T09:40:29Z</time>
      </trkpt>
      <trkpt lat="42.415114" lon="0.390606">
        <ele>692.2</ele>
        <time>2018-06-13T09:40:53Z</time>
      </trkpt>
      <trkpt lat="42.415205" lon="0.390405">
        <ele>694.6</ele>
        <time>2018-06-13T09:40:57Z</time>
      </trkpt>
      <trkpt lat="42.415289" lon="0.390286">
        <ele>696.0</ele>
        <time>2018-06-13T09:41:00Z</time>
      </trkpt>
      <trkpt lat="42.415316" lon="0.390125">
        <ele>697.3</ele>
        <time>2018-06-13T09:41:04Z</time>
      </trkpt>
      <trkpt lat="42.415371" lon="0.389758">
        <ele>698.1</ele>
        <time>2018-06-13T09:41:11Z</time>
      </trkpt>
      <trkpt lat="42.415419" lon="0.389407">
        <ele>699.3</ele>
        <time>2018-06-13T09:41:18Z</time>
      </trkpt>
      <trkpt lat="42.415409" lon="0.388672">
        <ele>707.7</ele>
        <time>2018-06-13T09:41:32Z</time>
      </trkpt>
      <trkpt lat="42.415422" lon="0.388527">
        <ele>710.8</ele>
        <time>2018-06-13T09:41:35Z</time>
      </trkpt>
      <trkpt lat="42.415479" lon="0.388468">
        <ele>712.1</ele>
        <time>2018-06-13T09:41:37Z</time>
      </trkpt>
      <trkpt lat="42.415611" lon="0.388592">
        <ele>710.0</ele>
        <time>2018-06-13T09:41:42Z</time>
      </trkpt>
      <trkpt lat="42.415744" lon="0.388647">
        <ele>709.4</ele>
        <time>2018-06-13T09:41:45Z</time>
      </trkpt>
      <trkpt lat="42.415835" lon="0.388624">
        <ele>709.6</ele>
        <time>2018-06-13T09:41:48Z</time>
      </trkpt>
      <trkpt lat="42.415916" lon="0.388550">
        <ele>710.3</ele>
        <time>2018-06-13T09:41:50Z</time>
      </trkpt>
      <trkpt lat="42.415986" lon="0.388496">
        <ele>710.9</ele>
        <time>2018-06-13T09:41:52Z</time>
      </trkpt>
      <trkpt lat="42.416167" lon="0.388475">
        <ele>713.8</ele>
        <time>2018-06-13T09:41:57Z</time>
      </trkpt>
      <trkpt lat="42.416256" lon="0.388511">
        <ele>714.6</ele>
        <time>2018-06-13T09:42:00Z</time>
      </trkpt>
      <trkpt lat="42.416503" lon="0.388554">
        <ele>719.9</ele>
        <time>2018-06-13T09:42:06Z</time>
      </trkpt>
      <trkpt lat="42.416858" lon="0.388725">
        <ele>721.4</ele>
        <time>2018-06-13T09:42:16Z</time>
      </trkpt>
      <trkpt lat="42.417166" lon="0.388955">
        <ele>715.4</ele>
        <time>2018-06-13T09:42:26Z</time>
      </trkpt>
      <trkpt lat="42.417322" lon="0.388993">
        <ele>712.5</ele>
        <time>2018-06-13T09:42:30Z</time>
      </trkpt>
      <trkpt lat="42.417386" lon="0.388982">
        <ele>712.3</ele>
        <time>2018-06-13T09:42:32Z</time>
      </trkpt>
      <trkpt lat="42.417437" lon="0.388909">
        <ele>714.4</ele>
        <time>2018-06-13T09:42:34Z</time>
      </trkpt>
      <trkpt lat="42.417475" lon="0.388774">
        <ele>718.3</ele>
        <time>2018-06-13T09:42:37Z</time>
      </trkpt>
      <trkpt lat="42.417796" lon="0.388958">
        <ele>712.6</ele>
        <time>2018-06-13T09:42:46Z</time>
      </trkpt>
      <trkpt lat="42.417952" lon="0.389027">
        <ele>711.9</ele>
        <time>2018-06-13T09:42:50Z</time>
      </trkpt>
      <trkpt lat="42.418712" lon="0.389190">
        <ele>724.6</ele>
        <time>2018-06-13T09:43:11Z</time>
      </trkpt>
      <trkpt lat="42.419344" lon="0.389133">
        <ele>722.3</ele>
        <time>2018-06-13T09:43:28Z</time>
      </trkpt>
      <trkpt lat="42.419575" lon="0.389022">
        <ele>723.3</ele>
        <time>2018-06-13T09:43:34Z</time>
      </trkpt>
      <trkpt lat="42.419902" lon="0.388614">
        <ele>731.2</ele>
        <time>2018-06-13T09:43:46Z</time>
      </trkpt>
      <trkpt lat="42.420358" lon="0.388396">
        <ele>723.4</ele>
        <time>2018-06-13T09:43:59Z</time>
      </trkpt>
      <trkpt lat="42.420728" lon="0.388082">
        <ele>720.6</ele>
        <time>2018-06-13T09:44:10Z</time>
      </trkpt>
      <trkpt lat="42.420953" lon="0.388063">
        <ele>710.3</ele>
        <time>2018-06-13T09:44:17Z</time>
      </trkpt>
      <trkpt lat="42.421018" lon="0.388158">
        <ele>706.9</ele>
        <time>2018-06-13T09:44:19Z</time>
      </trkpt>
      <trkpt lat="42.421061" lon="0.388221">
        <ele>704.7</ele>
        <time>2018-06-13T09:44:21Z</time>
      </trkpt>
      <trkpt lat="42.421130" lon="0.388194">
        <ele>702.9</ele>
        <time>2018-06-13T09:44:23Z</time>
      </trkpt>
      <trkpt lat="42.421182" lon="0.387954">
        <ele>704.5</ele>
        <time>2018-06-13T09:44:28Z</time>
      </trkpt>
      <trkpt lat="42.421406" lon="0.387997">
        <ele>700.4</ele>
        <time>2018-06-13T09:44:34Z</time>
      </trkpt>
      <trkpt lat="42.421474" lon="0.387970">
        <ele>700.3</ele>
        <time>2018-06-13T09:44:36Z</time>
      </trkpt>
      <trkpt lat="42.421500" lon="0.387850">
        <ele>702.4</ele>
        <time>2018-06-13T09:44:38Z</time>
      </trkpt>
      <trkpt lat="42.421370" lon="0.387691">
        <ele>706.2</ele>
        <time>2018-06-13T09:44:43Z</time>
      </trkpt>
      <trkpt lat="42.421421" lon="0.387481">
        <ele>711.7</ele>
        <time>2018-06-13T09:44:48Z</time>
      </trkpt>
      <trkpt lat="42.421559" lon="0.387367">
        <ele>714.7</ele>
        <time>2018-06-13T09:44:52Z</time>
      </trkpt>
      <trkpt lat="42.421765" lon="0.387256">
        <ele>718.0</ele>
        <time>2018-06-13T09:44:58Z</time>
      </trkpt>
      <trkpt lat="42.422153" lon="0.387065">
        <ele>724.8</ele>
        <time>2018-06-13T09:45:09Z</time>
      </trkpt>
      <trkpt lat="42.422473" lon="0.386930">
        <ele>732.4</ele>
        <time>2018-06-13T09:45:18Z</time>
      </trkpt>
      <trkpt lat="42.422838" lon="0.386767">
        <ele>738.4</ele>
        <time>2018-06-13T09:45:28Z</time>
      </trkpt>
      <trkpt lat="42.423152" lon="0.386784">
        <ele>736.5</ele>
        <time>2018-06-13T09:45:37Z</time>
      </trkpt>
      <trkpt lat="42.423311" lon="0.386732">
        <ele>736.9</ele>
        <time>2018-06-13T09:45:41Z</time>
      </trkpt>
      <trkpt lat="42.423496" lon="0.386620">
        <ele>737.7</ele>
        <time>2018-06-13T09:45:46Z</time>
      </trkpt>
      <trkpt lat="42.423612" lon="0.386444">
        <ele>740.4</ele>
        <time>2018-06-13T09:45:51Z</time>
      </trkpt>
      <trkpt lat="42.423851" lon="0.386001">
        <ele>745.1</ele>
        <time>2018-06-13T09:46:02Z</time>
      </trkpt>
      <trkpt lat="42.423839" lon="0.385929">
        <ele>746.9</ele>
        <time>2018-06-13T09:46:03Z</time>
      </trkpt>
      <trkpt lat="42.423736" lon="0.385942">
        <ele>749.3</ele>
        <time>2018-06-13T09:46:06Z</time>
      </trkpt>
      <trkpt lat="42.423452" lon="0.386055">
        <ele>752.0</ele>
        <time>2018-06-13T09:46:14Z</time>
      </trkpt>
      <trkpt lat="42.423411" lon="0.386098">
        <ele>750.9</ele>
        <time>2018-06-13T09:46:15Z</time>
      </trkpt>
      <trkpt lat="42.423319" lon="0.386113">
        <ele>751.6</ele>
        <time>2018-06-13T09:46:18Z</time>
      </trkpt>
      <trkpt lat="42.423269" lon="0.386078">
        <ele>753.8</ele>
        <time>2018-06-13T09:46:19Z</time>
      </trkpt>
      <trkpt lat="42.423229" lon="0.386012">
        <ele>756.9</ele>
        <time>2018-06-13T09:46:21Z</time>
      </trkpt>
      <trkpt lat="42.423228" lon="0.385927">
        <ele>760.6</ele>
        <time>2018-06-13T09:46:23Z</time>
      </trkpt>
      <trkpt lat="42.423265" lon="0.385837">
        <ele>764.0</ele>
        <time>2018-06-13T09:46:25Z</time>
      </trkpt>
      <trkpt lat="42.423340" lon="0.385738">
        <ele>766.6</ele>
        <time>2018-06-13T09:46:28Z</time>
      </trkpt>
      <trkpt lat="42.423459" lon="0.385634">
        <ele>766.9</ele>
        <time>2018-06-13T09:46:32Z</time>
      </trkpt>
      <trkpt lat="42.423640" lon="0.385465">
        <ele>764.9</ele>
        <time>2018-06-13T09:46:37Z</time>
      </trkpt>
      <trkpt lat="42.423747" lon="0.385277">
        <ele>763.6</ele>
        <time>2018-06-13T09:46:42Z</time>
      </trkpt>
      <trkpt lat="42.423846" lon="0.385132">
        <ele>762.0</ele>
        <time>2018-06-13T09:46:46Z</time>
      </trkpt>
      <trkpt lat="42.423945" lon="0.384951">
        <ele>762.1</ele>
        <time>2018-06-13T09:46:50Z</time>
      </trkpt>
      <trkpt lat="42.424124" lon="0.384819">
        <ele>762.5</ele>
        <time>2018-06-13T09:46:56Z</time>
      </trkpt>
      <trkpt lat="42.424348" lon="0.384643">
        <ele>766.6</ele>
        <time>2018-06-13T09:47:03Z</time>
      </trkpt>
      <trkpt lat="42.424653" lon="0.384487">
        <ele>772.5</ele>
        <time>2018-06-13T09:47:11Z</time>
      </trkpt>
      <trkpt lat="42.424961" lon="0.384299">
        <ele>779.7</ele>
        <time>2018-06-13T09:47:20Z</time>
      </trkpt>
      <trkpt lat="42.425280" lon="0.384159">
        <ele>786.0</ele>
        <time>2018-06-13T09:47:29Z</time>
      </trkpt>
      <trkpt lat="42.425725" lon="0.383998">
        <ele>787.3</ele>
        <time>2018-06-13T09:47:42Z</time>
      </trkpt>
      <trkpt lat="42.426160" lon="0.383903">
        <ele>789.8</ele>
        <time>2018-06-13T09:47:53Z</time>
      </trkpt>
      <trkpt lat="42.426427" lon="0.383831">
        <ele>783.1</ele>
        <time>2018-06-13T09:48:01Z</time>
      </trkpt>
      <trkpt lat="42.426535" lon="0.383780">
        <ele>779.0</ele>
        <time>2018-06-13T09:48:04Z</time>
      </trkpt>
      <trkpt lat="42.426600" lon="0.383695">
        <ele>774.2</ele>
        <time>2018-06-13T09:48:06Z</time>
      </trkpt>
      <trkpt lat="42.426625" lon="0.383580">
        <ele>771.1</ele>
        <time>2018-06-13T09:48:09Z</time>
      </trkpt>
      <trkpt lat="42.426627" lon="0.383508">
        <ele>770.2</ele>
        <time>2018-06-13T09:48:10Z</time>
      </trkpt>
      <trkpt lat="42.426597" lon="0.383416">
        <ele>771.3</ele>
        <time>2018-06-13T09:48:12Z</time>
      </trkpt>
      <trkpt lat="42.426551" lon="0.383326">
        <ele>773.3</ele>
        <time>2018-06-13T09:48:14Z</time>
      </trkpt>
      <trkpt lat="42.426483" lon="0.383238">
        <ele>775.9</ele>
        <time>2018-06-13T09:48:17Z</time>
      </trkpt>
      <trkpt lat="42.426393" lon="0.383112">
        <ele>777.0</ele>
        <time>2018-06-13T09:48:20Z</time>
      </trkpt>
      <trkpt lat="42.426201" lon="0.382805">
        <ele>775.5</ele>
        <time>2018-06-13T09:48:28Z</time>
      </trkpt>
      <trkpt lat="42.425952" lon="0.382426">
        <ele>779.2</ele>
        <time>2018-06-13T09:48:38Z</time>
      </trkpt>
      <trkpt lat="42.425874" lon="0.382198">
        <ele>781.3</ele>
        <time>2018-06-13T09:48:43Z</time>
      </trkpt>
      <trkpt lat="42.425787" lon="0.381942">
        <ele>784.7</ele>
        <time>2018-06-13T09:48:49Z</time>
      </trkpt>
      <trkpt lat="42.425778" lon="0.381669">
        <ele>784.3</ele>
        <time>2018-06-13T09:48:54Z</time>
      </trkpt>
      <trkpt lat="42.425763" lon="0.381406">
        <ele>785.2</ele>
        <time>2018-06-13T09:48:59Z</time>
      </trkpt>
      <trkpt lat="42.425747" lon="0.381161">
        <ele>784.5</ele>
        <time>2018-06-13T09:49:04Z</time>
      </trkpt>
      <trkpt lat="42.425695" lon="0.380836">
        <ele>784.0</ele>
        <time>2018-06-13T09:49:10Z</time>
      </trkpt>
      <trkpt lat="42.425625" lon="0.380623">
        <ele>786.3</ele>
        <time>2018-06-13T09:49:15Z</time>
      </trkpt>
      <trkpt lat="42.425554" lon="0.380431">
        <ele>789.0</ele>
        <time>2018-06-13T09:49:19Z</time>
      </trkpt>
      <trkpt lat="42.425456" lon="0.380267">
        <ele>793.0</ele>
        <time>2018-06-13T09:49:23Z</time>
      </trkpt>
      <trkpt lat="42.425350" lon="0.380195">
        <ele>795.6</ele>
        <time>2018-06-13T09:49:27Z</time>
      </trkpt>
      <trkpt lat="42.425257" lon="0.380142">
        <ele>797.3</ele>
        <time>2018-06-13T09:49:29Z</time>
      </trkpt>
      <trkpt lat="42.425169" lon="0.380149">
        <ele>798.5</ele>
        <time>2018-06-13T09:49:32Z</time>
      </trkpt>
      <trkpt lat="42.425081" lon="0.380205">
        <ele>798.6</ele>
        <time>2018-06-13T09:49:34Z</time>
      </trkpt>
      <trkpt lat="42.425014" lon="0.380240">
        <ele>798.4</ele>
        <time>2018-06-13T09:49:36Z</time>
      </trkpt>
      <trkpt lat="42.424939" lon="0.380252">
        <ele>798.2</ele>
        <time>2018-06-13T09:49:38Z</time>
      </trkpt>
      <trkpt lat="42.424865" lon="0.380202">
        <ele>798.0</ele>
        <time>2018-06-13T09:49:40Z</time>
      </trkpt>
      <trkpt lat="42.424764" lon="0.380092">
        <ele>800.0</ele>
        <time>2018-06-13T09:49:44Z</time>
      </trkpt>
      <trkpt lat="42.424684" lon="0.379885">
        <ele>802.4</ele>
        <time>2018-06-13T09:49:48Z</time>
      </trkpt>
      <trkpt lat="42.424614" lon="0.379704">
        <ele>805.2</ele>
        <time>2018-06-13T09:49:52Z</time>
      </trkpt>
      <trkpt lat="42.424599" lon="0.379571">
        <ele>806.9</ele>
        <time>2018-06-13T09:49:55Z</time>
      </trkpt>
      <trkpt lat="42.424631" lon="0.379413">
        <ele>808.6</ele>
        <time>2018-06-13T09:49:58Z</time>
      </trkpt>
      <trkpt lat="42.424725" lon="0.379280">
        <ele>809.1</ele>
        <time>2018-06-13T09:50:02Z</time>
      </trkpt>
      <trkpt lat="42.424828" lon="0.379193">
        <ele>809.4</ele>
        <time>2018-06-13T09:50:05Z</time>
      </trkpt>
      <trkpt lat="42.424894" lon="0.379085">
        <ele>810.5</ele>
        <time>2018-06-13T09:50:08Z</time>
      </trkpt>
      <trkpt lat="42.424951" lon="0.378938">
        <ele>810.7</ele>
        <time>2018-06-13T09:50:11Z</time>
      </trkpt>
      <trkpt lat="42.424953" lon="0.378771">
        <ele>812.5</ele>
        <time>2018-06-13T09:50:14Z</time>
      </trkpt>
      <trkpt lat="42.424919" lon="0.378591">
        <ele>815.6</ele>
        <time>2018-06-13T09:50:18Z</time>
      </trkpt>
      <trkpt lat="42.424876" lon="0.378400">
        <ele>819.3</ele>
        <time>2018-06-13T09:50:22Z</time>
      </trkpt>
      <trkpt lat="42.424843" lon="0.378185">
        <ele>822.5</ele>
        <time>2018-06-13T09:50:26Z</time>
      </trkpt>
      <trkpt lat="42.424846" lon="0.377995">
        <ele>821.2</ele>
        <time>2018-06-13T09:50:30Z</time>
      </trkpt>
      <trkpt lat="42.424952" lon="0.377632">
        <ele>819.1</ele>
        <time>2018-06-13T09:50:38Z</time>
      </trkpt>
      <trkpt lat="42.425055" lon="0.377434">
        <ele>819.7</ele>
        <time>2018-06-13T09:50:42Z</time>
      </trkpt>
      <trkpt lat="42.425162" lon="0.377200">
        <ele>822.4</ele>
        <time>2018-06-13T09:50:48Z</time>
      </trkpt>
      <trkpt lat="42.425193" lon="0.377048">
        <ele>824.7</ele>
        <time>2018-06-13T09:50:51Z</time>
      </trkpt>
      <trkpt lat="42.425194" lon="0.376943">
        <ele>826.1</ele>
        <time>2018-06-13T09:50:53Z</time>
      </trkpt>
      <trkpt lat="42.425150" lon="0.376848">
        <ele>827.4</ele>
        <time>2018-06-13T09:50:55Z</time>
      </trkpt>
      <trkpt lat="42.425125" lon="0.376718">
        <ele>829.2</ele>
        <time>2018-06-13T09:50:58Z</time>
      </trkpt>
      <trkpt lat="42.425128" lon="0.376558">
        <ele>831.6</ele>
        <time>2018-06-13T09:51:01Z</time>
      </trkpt>
      <trkpt lat="42.425149" lon="0.376430">
        <ele>832.6</ele>
        <time>2018-06-13T09:51:04Z</time>
      </trkpt>
      <trkpt lat="42.425213" lon="0.376326">
        <ele>832.7</ele>
        <time>2018-06-13T09:51:06Z</time>
      </trkpt>
      <trkpt lat="42.425311" lon="0.376288">
        <ele>832.0</ele>
        <time>2018-06-13T09:51:09Z</time>
      </trkpt>
      <trkpt lat="42.425410" lon="0.376230">
        <ele>831.3</ele>
        <time>2018-06-13T09:51:12Z</time>
      </trkpt>
      <trkpt lat="42.425517" lon="0.376158">
        <ele>830.7</ele>
        <time>2018-06-13T09:51:15Z</time>
      </trkpt>
      <trkpt lat="42.425589" lon="0.376016">
        <ele>830.6</ele>
        <time>2018-06-13T09:51:18Z</time>
      </trkpt>
      <trkpt lat="42.425599" lon="0.375875">
        <ele>831.4</ele>
        <time>2018-06-13T09:51:21Z</time>
      </trkpt>
      <trkpt lat="42.425582" lon="0.375735">
        <ele>832.7</ele>
        <time>2018-06-13T09:51:24Z</time>
      </trkpt>
      <trkpt lat="42.425550" lon="0.375616">
        <ele>835.0</ele>
        <time>2018-06-13T09:51:26Z</time>
      </trkpt>
      <trkpt lat="42.425516" lon="0.375553">
        <ele>836.6</ele>
        <time>2018-06-13T09:51:28Z</time>
      </trkpt>
      <trkpt lat="42.425448" lon="0.375515">
        <ele>838.2</ele>
        <time>2018-06-13T09:51:30Z</time>
      </trkpt>
      <trkpt lat="42.425353" lon="0.375488">
        <ele>840.1</ele>
        <time>2018-06-13T09:51:33Z</time>
      </trkpt>
      <trkpt lat="42.425285" lon="0.375462">
        <ele>841.7</ele>
        <time>2018-06-13T09:51:34Z</time>
      </trkpt>
      <trkpt lat="42.425183" lon="0.375425">
        <ele>844.1</ele>
        <time>2018-06-13T09:51:37Z</time>
      </trkpt>
      <trkpt lat="42.425093" lon="0.375314">
        <ele>846.4</ele>
        <time>2018-06-13T09:51:41Z</time>
      </trkpt>
      <trkpt lat="42.425053" lon="0.375231">
        <ele>847.6</ele>
        <time>2018-06-13T09:51:43Z</time>
      </trkpt>
      <trkpt lat="42.425040" lon="0.375094">
        <ele>849.4</ele>
        <time>2018-06-13T09:51:45Z</time>
      </trkpt>
      <trkpt lat="42.425087" lon="0.374975">
        <ele>850.7</ele>
        <time>2018-06-13T09:51:48Z</time>
      </trkpt>
      <trkpt lat="42.425192" lon="0.374874">
        <ele>852.0</ele>
        <time>2018-06-13T09:51:51Z</time>
      </trkpt>
      <trkpt lat="42.425322" lon="0.374789">
        <ele>854.3</ele>
        <time>2018-06-13T09:51:55Z</time>
      </trkpt>
      <trkpt lat="42.425486" lon="0.374693">
        <ele>857.8</ele>
        <time>2018-06-13T09:52:00Z</time>
      </trkpt>
      <trkpt lat="42.425580" lon="0.374674">
        <ele>859.1</ele>
        <time>2018-06-13T09:52:02Z</time>
      </trkpt>
      <trkpt lat="42.425691" lon="0.374709">
        <ele>858.9</ele>
        <time>2018-06-13T09:52:05Z</time>
      </trkpt>
      <trkpt lat="42.425731" lon="0.374830">
        <ele>854.6</ele>
        <time>2018-06-13T09:52:08Z</time>
      </trkpt>
      <trkpt lat="42.425782" lon="0.374889">
        <ele>852.1</ele>
        <time>2018-06-13T09:52:10Z</time>
      </trkpt>
      <trkpt lat="42.425859" lon="0.374915">
        <ele>850.3</ele>
        <time>2018-06-13T09:52:12Z</time>
      </trkpt>
      <trkpt lat="42.425920" lon="0.374921">
        <ele>849.4</ele>
        <time>2018-06-13T09:52:14Z</time>
      </trkpt>
      <trkpt lat="42.425990" lon="0.374852">
        <ele>851.3</ele>
        <time>2018-06-13T09:52:16Z</time>
      </trkpt>
      <trkpt lat="42.426044" lon="0.374720">
        <ele>856.1</ele>
        <time>2018-06-13T09:52:19Z</time>
      </trkpt>
      <trkpt lat="42.426168" lon="0.374469">
        <ele>866.2</ele>
        <time>2018-06-13T09:52:26Z</time>
      </trkpt>
      <trkpt lat="42.426335" lon="0.374181">
        <ele>877.5</ele>
        <time>2018-06-13T09:52:33Z</time>
      </trkpt>
      <trkpt lat="42.426556" lon="0.374019">
        <ele>876.6</ele>
        <time>2018-06-13T09:52:40Z</time>
      </trkpt>
      <trkpt lat="42.426653" lon="0.373904">
        <ele>876.6</ele>
        <time>2018-06-13T09:52:43Z</time>
      </trkpt>
      <trkpt lat="42.426760" lon="0.373755">
        <ele>874.9</ele>
        <time>2018-06-13T09:52:47Z</time>
      </trkpt>
      <trkpt lat="42.426845" lon="0.373489">
        <ele>876.6</ele>
        <time>2018-06-13T09:52:53Z</time>
      </trkpt>
      <trkpt lat="42.427139" lon="0.372757">
        <ele>884.9</ele>
        <time>2018-06-13T09:53:09Z</time>
      </trkpt>
      <trkpt lat="42.427202" lon="0.372632">
        <ele>887.4</ele>
        <time>2018-06-13T09:53:13Z</time>
      </trkpt>
      <trkpt lat="42.427305" lon="0.372512">
        <ele>892.8</ele>
        <time>2018-06-13T09:53:16Z</time>
      </trkpt>
      <trkpt lat="42.427389" lon="0.372486">
        <ele>893.8</ele>
        <time>2018-06-13T09:53:19Z</time>
      </trkpt>
      <trkpt lat="42.427945" lon="0.372411">
        <ele>889.0</ele>
        <time>2018-06-13T09:53:33Z</time>
      </trkpt>
      <trkpt lat="42.428133" lon="0.372404">
        <ele>883.6</ele>
        <time>2018-06-13T09:53:39Z</time>
      </trkpt>
      <trkpt lat="42.428227" lon="0.372358">
        <ele>882.8</ele>
        <time>2018-06-13T09:53:41Z</time>
      </trkpt>
      <trkpt lat="42.428320" lon="0.372263">
        <ele>884.7</ele>
        <time>2018-06-13T09:53:44Z</time>
      </trkpt>
      <trkpt lat="42.428506" lon="0.371946">
        <ele>890.0</ele>
        <time>2018-06-13T09:53:52Z</time>
      </trkpt>
      <trkpt lat="42.428689" lon="0.371593">
        <ele>891.1</ele>
        <time>2018-06-13T09:54:01Z</time>
      </trkpt>
      <trkpt lat="42.428927" lon="0.371263">
        <ele>895.5</ele>
        <time>2018-06-13T09:54:10Z</time>
      </trkpt>
      <trkpt lat="42.429148" lon="0.371033">
        <ele>894.9</ele>
        <time>2018-06-13T09:54:17Z</time>
      </trkpt>
      <trkpt lat="42.429342" lon="0.370908">
        <ele>893.9</ele>
        <time>2018-06-13T09:54:23Z</time>
      </trkpt>
      <trkpt lat="42.429421" lon="0.370802">
        <ele>896.6</ele>
        <time>2018-06-13T09:54:26Z</time>
      </trkpt>
      <trkpt lat="42.429473" lon="0.370664">
        <ele>900.5</ele>
        <time>2018-06-13T09:54:29Z</time>
      </trkpt>
      <trkpt lat="42.429538" lon="0.370470">
        <ele>908.6</ele>
        <time>2018-06-13T09:54:34Z</time>
      </trkpt>
      <trkpt lat="42.429628" lon="0.370431">
        <ele>909.1</ele>
        <time>2018-06-13T09:54:36Z</time>
      </trkpt>
      <trkpt lat="42.429731" lon="0.370425">
        <ele>906.4</ele>
        <time>2018-06-13T09:54:39Z</time>
      </trkpt>
      <trkpt lat="42.429873" lon="0.370453">
        <ele>901.5</ele>
        <time>2018-06-13T09:54:43Z</time>
      </trkpt>
      <trkpt lat="42.429989" lon="0.370448">
        <ele>897.2</ele>
        <time>2018-06-13T09:54:46Z</time>
      </trkpt>
      <trkpt lat="42.430133" lon="0.370319">
        <ele>894.7</ele>
        <time>2018-06-13T09:54:51Z</time>
      </trkpt>
      <trkpt lat="42.430237" lon="0.370177">
        <ele>895.1</ele>
        <time>2018-06-13T09:54:55Z</time>
      </trkpt>
      <trkpt lat="42.430316" lon="0.370069">
        <ele>894.4</ele>
        <time>2018-06-13T09:54:57Z</time>
      </trkpt>
      <trkpt lat="42.430381" lon="0.369909">
        <ele>894.6</ele>
        <time>2018-06-13T09:55:01Z</time>
      </trkpt>
      <trkpt lat="42.430446" lon="0.369675">
        <ele>896.7</ele>
        <time>2018-06-13T09:55:06Z</time>
      </trkpt>
      <trkpt lat="42.430471" lon="0.369427">
        <ele>899.0</ele>
        <time>2018-06-13T09:55:11Z</time>
      </trkpt>
      <trkpt lat="42.430523" lon="0.369089">
        <ele>898.7</ele>
        <time>2018-06-13T09:55:18Z</time>
      </trkpt>
      <trkpt lat="42.430549" lon="0.368791">
        <ele>899.9</ele>
        <time>2018-06-13T09:55:23Z</time>
      </trkpt>
      <trkpt lat="42.430536" lon="0.368619">
        <ele>901.9</ele>
        <time>2018-06-13T09:55:27Z</time>
      </trkpt>
      <trkpt lat="42.430547" lon="0.368478">
        <ele>902.8</ele>
        <time>2018-06-13T09:55:30Z</time>
      </trkpt>
      <trkpt lat="42.430632" lon="0.368410">
        <ele>900.0</ele>
        <time>2018-06-13T09:55:32Z</time>
      </trkpt>
      <trkpt lat="42.430718" lon="0.368408">
        <ele>897.0</ele>
        <time>2018-06-13T09:55:35Z</time>
      </trkpt>
      <trkpt lat="42.430813" lon="0.368405">
        <ele>894.3</ele>
        <time>2018-06-13T09:55:37Z</time>
      </trkpt>
      <trkpt lat="42.430908" lon="0.368377">
        <ele>891.9</ele>
        <time>2018-06-13T09:55:40Z</time>
      </trkpt>
      <trkpt lat="42.430994" lon="0.368259">
        <ele>890.7</ele>
        <time>2018-06-13T09:55:43Z</time>
      </trkpt>
      <trkpt lat="42.431051" lon="0.368054">
        <ele>890.9</ele>
        <time>2018-06-13T09:55:47Z</time>
      </trkpt>
      <trkpt lat="42.431080" lon="0.367876">
        <ele>891.8</ele>
        <time>2018-06-13T09:55:51Z</time>
      </trkpt>
      <trkpt lat="42.431128" lon="0.367737">
        <ele>892.4</ele>
        <time>2018-06-13T09:55:54Z</time>
      </trkpt>
      <trkpt lat="42.431166" lon="0.367585">
        <ele>893.5</ele>
        <time>2018-06-13T09:55:57Z</time>
      </trkpt>
      <trkpt lat="42.431242" lon="0.367495">
        <ele>893.2</ele>
        <time>2018-06-13T09:56:00Z</time>
      </trkpt>
      <trkpt lat="42.431338" lon="0.367509">
        <ele>892.2</ele>
        <time>2018-06-13T09:56:02Z</time>
      </trkpt>
      <trkpt lat="42.431462" lon="0.367598">
        <ele>890.1</ele>
        <time>2018-06-13T09:56:06Z</time>
      </trkpt>
      <trkpt lat="42.431529" lon="0.367675">
        <ele>888.5</ele>
        <time>2018-06-13T09:56:08Z</time>
      </trkpt>
      <trkpt lat="42.431643" lon="0.367702">
        <ele>888.1</ele>
        <time>2018-06-13T09:56:11Z</time>
      </trkpt>
      <trkpt lat="42.431738" lon="0.367715">
        <ele>887.9</ele>
        <time>2018-06-13T09:56:14Z</time>
      </trkpt>
      <trkpt lat="42.431814" lon="0.367638">
        <ele>889.0</ele>
        <time>2018-06-13T09:56:17Z</time>
      </trkpt>
      <trkpt lat="42.431871" lon="0.367561">
        <ele>889.8</ele>
        <time>2018-06-13T09:56:19Z</time>
      </trkpt>
      <trkpt lat="42.431919" lon="0.367380">
        <ele>891.9</ele>
        <time>2018-06-13T09:56:22Z</time>
      </trkpt>
      <trkpt lat="42.432003" lon="0.367092">
        <ele>895.5</ele>
        <time>2018-06-13T09:56:29Z</time>
      </trkpt>
      <trkpt lat="42.432059" lon="0.366994">
        <ele>896.5</ele>
        <time>2018-06-13T09:56:31Z</time>
      </trkpt>
      <trkpt lat="42.432124" lon="0.366871">
        <ele>897.8</ele>
        <time>2018-06-13T09:56:34Z</time>
      </trkpt>
      <trkpt lat="42.432237" lon="0.366852">
        <ele>897.3</ele>
        <time>2018-06-13T09:56:37Z</time>
      </trkpt>
      <trkpt lat="42.432329" lon="0.366896">
        <ele>896.2</ele>
        <time>2018-06-13T09:56:40Z</time>
      </trkpt>
      <trkpt lat="42.432413" lon="0.367016">
        <ele>895.1</ele>
        <time>2018-06-13T09:56:43Z</time>
      </trkpt>
      <trkpt lat="42.432460" lon="0.367171">
        <ele>893.4</ele>
        <time>2018-06-13T09:56:46Z</time>
      </trkpt>
      <trkpt lat="42.432480" lon="0.367527">
        <ele>889.7</ele>
        <time>2018-06-13T09:56:53Z</time>
      </trkpt>
      <trkpt lat="42.432556" lon="0.367810">
        <ele>889.3</ele>
        <time>2018-06-13T09:56:59Z</time>
      </trkpt>
      <trkpt lat="42.432630" lon="0.368004">
        <ele>888.9</ele>
        <time>2018-06-13T09:57:03Z</time>
      </trkpt>
      <trkpt lat="42.432722" lon="0.368122">
        <ele>890.5</ele>
        <time>2018-06-13T09:57:07Z</time>
      </trkpt>
      <trkpt lat="42.432851" lon="0.368242">
        <ele>894.0</ele>
        <time>2018-06-13T09:57:11Z</time>
      </trkpt>
      <trkpt lat="42.433008" lon="0.368313">
        <ele>898.7</ele>
        <time>2018-06-13T09:57:15Z</time>
      </trkpt>
      <trkpt lat="42.433187" lon="0.368333">
        <ele>904.7</ele>
        <time>2018-06-13T09:57:20Z</time>
      </trkpt>
      <trkpt lat="42.433346" lon="0.368309">
        <ele>906.1</ele>
        <time>2018-06-13T09:57:24Z</time>
      </trkpt>
      <trkpt lat="42.433458" lon="0.368240">
        <ele>908.0</ele>
        <time>2018-06-13T09:57:28Z</time>
      </trkpt>
      <trkpt lat="42.433588" lon="0.368111">
        <ele>909.1</ele>
        <time>2018-06-13T09:57:32Z</time>
      </trkpt>
      <trkpt lat="42.433744" lon="0.367900">
        <ele>910.0</ele>
        <time>2018-06-13T09:57:38Z</time>
      </trkpt>
      <trkpt lat="42.433845" lon="0.367769">
        <ele>908.8</ele>
        <time>2018-06-13T09:57:42Z</time>
      </trkpt>
      <trkpt lat="42.433926" lon="0.367630">
        <ele>908.1</ele>
        <time>2018-06-13T09:57:45Z</time>
      </trkpt>
      <trkpt lat="42.433971" lon="0.367504">
        <ele>908.0</ele>
        <time>2018-06-13T09:57:48Z</time>
      </trkpt>
      <trkpt lat="42.434015" lon="0.367308">
        <ele>908.1</ele>
        <time>2018-06-13T09:57:52Z</time>
      </trkpt>
      <trkpt lat="42.434022" lon="0.367091">
        <ele>908.0</ele>
        <time>2018-06-13T09:57:56Z</time>
      </trkpt>
      <trkpt lat="42.434011" lon="0.366944">
        <ele>908.5</ele>
        <time>2018-06-13T09:57:59Z</time>
      </trkpt>
      <trkpt lat="42.434046" lon="0.366678">
        <ele>909.9</ele>
        <time>2018-06-13T09:58:04Z</time>
      </trkpt>
      <trkpt lat="42.434116" lon="0.366519">
        <ele>911.1</ele>
        <time>2018-06-13T09:58:08Z</time>
      </trkpt>
      <trkpt lat="42.434150" lon="0.366345">
        <ele>912.2</ele>
        <time>2018-06-13T09:58:11Z</time>
      </trkpt>
      <trkpt lat="42.434167" lon="0.366146">
        <ele>913.6</ele>
        <time>2018-06-13T09:58:15Z</time>
      </trkpt>
      <trkpt lat="42.434148" lon="0.365931">
        <ele>914.4</ele>
        <time>2018-06-13T09:58:19Z</time>
      </trkpt>
      <trkpt lat="42.434103" lon="0.365737">
        <ele>914.1</ele>
        <time>2018-06-13T09:58:23Z</time>
      </trkpt>
      <trkpt lat="42.434040" lon="0.365485">
        <ele>914.0</ele>
        <time>2018-06-13T09:58:29Z</time>
      </trkpt>
      <trkpt lat="42.434039" lon="0.365306">
        <ele>915.4</ele>
        <time>2018-06-13T09:58:32Z</time>
      </trkpt>
      <trkpt lat="42.434065" lon="0.365108">
        <ele>917.6</ele>
        <time>2018-06-13T09:58:36Z</time>
      </trkpt>
      <trkpt lat="42.434133" lon="0.364891">
        <ele>919.2</ele>
        <time>2018-06-13T09:58:41Z</time>
      </trkpt>
      <trkpt lat="42.434235" lon="0.364550">
        <ele>919.6</ele>
        <time>2018-06-13T09:58:48Z</time>
      </trkpt>
      <trkpt lat="42.434277" lon="0.364367">
        <ele>919.4</ele>
        <time>2018-06-13T09:58:51Z</time>
      </trkpt>
      <trkpt lat="42.434438" lon="0.364100">
        <ele>920.4</ele>
        <time>2018-06-13T09:58:58Z</time>
      </trkpt>
      <trkpt lat="42.434567" lon="0.363822">
        <ele>924.8</ele>
        <time>2018-06-13T09:59:05Z</time>
      </trkpt>
      <trkpt lat="42.434722" lon="0.363616">
        <ele>928.9</ele>
        <time>2018-06-13T09:59:11Z</time>
      </trkpt>
      <trkpt lat="42.434858" lon="0.363528">
        <ele>931.4</ele>
        <time>2018-06-13T09:59:15Z</time>
      </trkpt>
      <trkpt lat="42.434918" lon="0.363437">
        <ele>933.1</ele>
        <time>2018-06-13T09:59:17Z</time>
      </trkpt>
      <trkpt lat="42.434960" lon="0.363322">
        <ele>934.5</ele>
        <time>2018-06-13T09:59:19Z</time>
      </trkpt>
      <trkpt lat="42.434960" lon="0.363229">
        <ele>935.2</ele>
        <time>2018-06-13T09:59:21Z</time>
      </trkpt>
      <trkpt lat="42.434926" lon="0.363110">
        <ele>935.8</ele>
        <time>2018-06-13T09:59:24Z</time>
      </trkpt>
      <trkpt lat="42.434883" lon="0.363049">
        <ele>935.8</ele>
        <time>2018-06-13T09:59:25Z</time>
      </trkpt>
      <trkpt lat="42.434807" lon="0.363042">
        <ele>935.1</ele>
        <time>2018-06-13T09:59:27Z</time>
      </trkpt>
      <trkpt lat="42.434739" lon="0.363106">
        <ele>933.6</ele>
        <time>2018-06-13T09:59:30Z</time>
      </trkpt>
      <trkpt lat="42.434688" lon="0.363149">
        <ele>932.6</ele>
        <time>2018-06-13T09:59:31Z</time>
      </trkpt>
      <trkpt lat="42.434629" lon="0.363157">
        <ele>931.9</ele>
        <time>2018-06-13T09:59:33Z</time>
      </trkpt>
      <trkpt lat="42.434567" lon="0.363142">
        <ele>931.5</ele>
        <time>2018-06-13T09:59:34Z</time>
      </trkpt>
      <trkpt lat="42.434506" lon="0.363091">
        <ele>931.7</ele>
        <time>2018-06-13T09:59:36Z</time>
      </trkpt>
      <trkpt lat="42.434480" lon="0.363006">
        <ele>932.5</ele>
        <time>2018-06-13T09:59:38Z</time>
      </trkpt>
      <trkpt lat="42.434471" lon="0.362888">
        <ele>933.8</ele>
        <time>2018-06-13T09:59:41Z</time>
      </trkpt>
      <trkpt lat="42.434471" lon="0.362747">
        <ele>935.1</ele>
        <time>2018-06-13T09:59:43Z</time>
      </trkpt>
      <trkpt lat="42.434471" lon="0.362630">
        <ele>936.1</ele>
        <time>2018-06-13T09:59:46Z</time>
      </trkpt>
      <trkpt lat="42.434496" lon="0.362515">
        <ele>937.2</ele>
        <time>2018-06-13T09:59:48Z</time>
      </trkpt>
      <trkpt lat="42.434487" lon="0.362423">
        <ele>938.1</ele>
        <time>2018-06-13T09:59:50Z</time>
      </trkpt>
      <trkpt lat="42.434469" lon="0.362285">
        <ele>939.1</ele>
        <time>2018-06-13T09:59:53Z</time>
      </trkpt>
      <trkpt lat="42.434460" lon="0.362159">
        <ele>940.0</ele>
        <time>2018-06-13T09:59:55Z</time>
      </trkpt>
      <trkpt lat="42.434425" lon="0.362033">
        <ele>940.8</ele>
        <time>2018-06-13T09:59:58Z</time>
      </trkpt>
      <trkpt lat="42.434381" lon="0.361859">
        <ele>941.9</ele>
        <time>2018-06-13T10:00:01Z</time>
      </trkpt>
      <trkpt lat="42.434337" lon="0.361684">
        <ele>942.2</ele>
        <time>2018-06-13T10:00:05Z</time>
      </trkpt>
      <trkpt lat="42.434302" lon="0.361520">
        <ele>942.0</ele>
        <time>2018-06-13T10:00:08Z</time>
      </trkpt>
      <trkpt lat="42.434301" lon="0.361384">
        <ele>942.0</ele>
        <time>2018-06-13T10:00:11Z</time>
      </trkpt>
      <trkpt lat="42.434344" lon="0.361299">
        <ele>942.4</ele>
        <time>2018-06-13T10:00:13Z</time>
      </trkpt>
      <trkpt lat="42.434421" lon="0.361287">
        <ele>943.2</ele>
        <time>2018-06-13T10:00:15Z</time>
      </trkpt>
      <trkpt lat="42.434490" lon="0.361319">
        <ele>943.8</ele>
        <time>2018-06-13T10:00:17Z</time>
      </trkpt>
      <trkpt lat="42.434533" lon="0.361437">
        <ele>943.9</ele>
        <time>2018-06-13T10:00:19Z</time>
      </trkpt>
      <trkpt lat="42.434594" lon="0.361554">
        <ele>944.1</ele>
        <time>2018-06-13T10:00:22Z</time>
      </trkpt>
      <trkpt lat="42.434654" lon="0.361671">
        <ele>944.6</ele>
        <time>2018-06-13T10:00:25Z</time>
      </trkpt>
      <trkpt lat="42.434730" lon="0.361740">
        <ele>945.5</ele>
        <time>2018-06-13T10:00:27Z</time>
      </trkpt>
      <trkpt lat="42.434815" lon="0.361843">
        <ele>946.1</ele>
        <time>2018-06-13T10:00:30Z</time>
      </trkpt>
      <trkpt lat="42.434947" lon="0.361890">
        <ele>950.5</ele>
        <time>2018-06-13T10:00:34Z</time>
      </trkpt>
      <trkpt lat="42.435037" lon="0.361894">
        <ele>954.6</ele>
        <time>2018-06-13T10:00:37Z</time>
      </trkpt>
      <trkpt lat="42.435135" lon="0.361933">
        <ele>958.2</ele>
        <time>2018-06-13T10:00:40Z</time>
      </trkpt>
      <trkpt lat="42.435209" lon="0.362030">
        <ele>957.7</ele>
        <time>2018-06-13T10:00:42Z</time>
      </trkpt>
      <trkpt lat="42.435283" lon="0.362096">
        <ele>958.4</ele>
        <time>2018-06-13T10:00:45Z</time>
      </trkpt>
      <trkpt lat="42.435355" lon="0.362115">
        <ele>960.2</ele>
        <time>2018-06-13T10:00:47Z</time>
      </trkpt>
      <trkpt lat="42.435409" lon="0.362086">
        <ele>962.7</ele>
        <time>2018-06-13T10:00:48Z</time>
      </trkpt>
      <trkpt lat="42.435460" lon="0.361960">
        <ele>967.4</ele>
        <time>2018-06-13T10:00:51Z</time>
      </trkpt>
      <trkpt lat="42.435433" lon="0.361841">
        <ele>969.0</ele>
        <time>2018-06-13T10:00:54Z</time>
      </trkpt>
      <trkpt lat="42.435384" lon="0.361760">
        <ele>970.2</ele>
        <time>2018-06-13T10:00:56Z</time>
      </trkpt>
      <trkpt lat="42.435248" lon="0.361662">
        <ele>969.3</ele>
        <time>2018-06-13T10:01:00Z</time>
      </trkpt>
      <trkpt lat="42.435136" lon="0.361609">
        <ele>966.1</ele>
        <time>2018-06-13T10:01:03Z</time>
      </trkpt>
      <trkpt lat="42.435063" lon="0.361529">
        <ele>962.8</ele>
        <time>2018-06-13T10:01:06Z</time>
      </trkpt>
      <trkpt lat="42.435022" lon="0.361432">
        <ele>961.9</ele>
        <time>2018-06-13T10:01:08Z</time>
      </trkpt>
      <trkpt lat="42.434988" lon="0.361316">
        <ele>961.9</ele>
        <time>2018-06-13T10:01:10Z</time>
      </trkpt>
      <trkpt lat="42.434987" lon="0.361198">
        <ele>964.2</ele>
        <time>2018-06-13T10:01:13Z</time>
      </trkpt>
      <trkpt lat="42.435034" lon="0.361089">
        <ele>970.0</ele>
        <time>2018-06-13T10:01:15Z</time>
      </trkpt>
      <trkpt lat="42.435088" lon="0.360906">
        <ele>976.7</ele>
        <time>2018-06-13T10:01:20Z</time>
      </trkpt>
      <trkpt lat="42.435102" lon="0.360736">
        <ele>978.4</ele>
        <time>2018-06-13T10:01:23Z</time>
      </trkpt>
      <trkpt lat="42.435077" lon="0.360566">
        <ele>976.7</ele>
        <time>2018-06-13T10:01:26Z</time>
      </trkpt>
      <trkpt lat="42.435060" lon="0.360408">
        <ele>975.4</ele>
        <time>2018-06-13T10:01:29Z</time>
      </trkpt>
      <trkpt lat="42.435059" lon="0.360168">
        <ele>972.6</ele>
        <time>2018-06-13T10:01:34Z</time>
      </trkpt>
      <trkpt lat="42.435105" lon="0.359963">
        <ele>970.5</ele>
        <time>2018-06-13T10:01:38Z</time>
      </trkpt>
      <trkpt lat="42.435183" lon="0.359727">
        <ele>969.3</ele>
        <time>2018-06-13T10:01:43Z</time>
      </trkpt>
      <trkpt lat="42.435284" lon="0.359581">
        <ele>971.8</ele>
        <time>2018-06-13T10:01:47Z</time>
      </trkpt>
      <trkpt lat="42.435456" lon="0.359446">
        <ele>976.5</ele>
        <time>2018-06-13T10:01:53Z</time>
      </trkpt>
      <trkpt lat="42.435641" lon="0.359247">
        <ele>979.6</ele>
        <time>2018-06-13T10:01:59Z</time>
      </trkpt>
      <trkpt lat="42.435820" lon="0.358913">
        <ele>984.3</ele>
        <time>2018-06-13T10:02:07Z</time>
      </trkpt>
      <trkpt lat="42.435957" lon="0.358668">
        <ele>988.3</ele>
        <time>2018-06-13T10:02:13Z</time>
      </trkpt>
      <trkpt lat="42.436169" lon="0.358348">
        <ele>997.9</ele>
        <time>2018-06-13T10:02:22Z</time>
      </trkpt>
      <trkpt lat="42.436318" lon="0.358147">
        <ele>1002.8</ele>
        <time>2018-06-13T10:02:28Z</time>
      </trkpt>
      <trkpt lat="42.436410" lon="0.358040">
        <ele>1004.5</ele>
        <time>2018-06-13T10:02:31Z</time>
      </trkpt>
      <trkpt lat="42.436535" lon="0.357840">
        <ele>1005.3</ele>
        <time>2018-06-13T10:02:36Z</time>
      </trkpt>
      <trkpt lat="42.436561" lon="0.357714">
        <ele>1005.8</ele>
        <time>2018-06-13T10:02:38Z</time>
      </trkpt>
      <trkpt lat="42.436586" lon="0.357610">
        <ele>1006.2</ele>
        <time>2018-06-13T10:02:41Z</time>
      </trkpt>
      <trkpt lat="42.436554" lon="0.357462">
        <ele>1007.7</ele>
        <time>2018-06-13T10:02:44Z</time>
      </trkpt>
      <trkpt lat="42.436514" lon="0.357359">
        <ele>1009.2</ele>
        <time>2018-06-13T10:02:46Z</time>
      </trkpt>
      <trkpt lat="42.436432" lon="0.357180">
        <ele>1012.1</ele>
        <time>2018-06-13T10:02:50Z</time>
      </trkpt>
      <trkpt lat="42.436391" lon="0.357000">
        <ele>1014.4</ele>
        <time>2018-06-13T10:02:54Z</time>
      </trkpt>
      <trkpt lat="42.436356" lon="0.356872">
        <ele>1016.1</ele>
        <time>2018-06-13T10:02:57Z</time>
      </trkpt>
      <trkpt lat="42.436354" lon="0.356734">
        <ele>1018.4</ele>
        <time>2018-06-13T10:02:59Z</time>
      </trkpt>
      <trkpt lat="42.436351" lon="0.356596">
        <ele>1021.4</ele>
        <time>2018-06-13T10:03:02Z</time>
      </trkpt>
      <trkpt lat="42.436375" lon="0.356501">
        <ele>1023.6</ele>
        <time>2018-06-13T10:03:04Z</time>
      </trkpt>
      <trkpt lat="42.436439" lon="0.356405">
        <ele>1026.1</ele>
        <time>2018-06-13T10:03:07Z</time>
      </trkpt>
      <trkpt lat="42.436520" lon="0.356305">
        <ele>1028.3</ele>
        <time>2018-06-13T10:03:10Z</time>
      </trkpt>
      <trkpt lat="42.436627" lon="0.356226">
        <ele>1028.2</ele>
        <time>2018-06-13T10:03:13Z</time>
      </trkpt>
      <trkpt lat="42.436734" lon="0.356201">
        <ele>1026.3</ele>
        <time>2018-06-13T10:03:16Z</time>
      </trkpt>
      <trkpt lat="42.436825" lon="0.356175">
        <ele>1024.6</ele>
        <time>2018-06-13T10:03:18Z</time>
      </trkpt>
      <trkpt lat="42.436916" lon="0.356150">
        <ele>1022.4</ele>
        <time>2018-06-13T10:03:21Z</time>
      </trkpt>
      <trkpt lat="42.436999" lon="0.356124">
        <ele>1020.7</ele>
        <time>2018-06-13T10:03:23Z</time>
      </trkpt>
      <trkpt lat="42.437074" lon="0.356066">
        <ele>1020.2</ele>
        <time>2018-06-13T10:03:25Z</time>
      </trkpt>
      <trkpt lat="42.437130" lon="0.355967">
        <ele>1022.4</ele>
        <time>2018-06-13T10:03:28Z</time>
      </trkpt>
      <trkpt lat="42.437195" lon="0.355847">
        <ele>1023.3</ele>
        <time>2018-06-13T10:03:31Z</time>
      </trkpt>
      <trkpt lat="42.437224" lon="0.355676">
        <ele>1025.2</ele>
        <time>2018-06-13T10:03:34Z</time>
      </trkpt>
      <trkpt lat="42.437222" lon="0.355440">
        <ele>1027.8</ele>
        <time>2018-06-13T10:03:39Z</time>
      </trkpt>
      <trkpt lat="42.437213" lon="0.355312">
        <ele>1027.8</ele>
        <time>2018-06-13T10:03:41Z</time>
      </trkpt>
      <trkpt lat="42.437196" lon="0.355142">
        <ele>1027.6</ele>
        <time>2018-06-13T10:03:45Z</time>
      </trkpt>
      <trkpt lat="42.437171" lon="0.355068">
        <ele>1028.3</ele>
        <time>2018-06-13T10:03:46Z</time>
      </trkpt>
      <trkpt lat="42.437097" lon="0.354975">
        <ele>1029.8</ele>
        <time>2018-06-13T10:03:49Z</time>
      </trkpt>
      <trkpt lat="42.437007" lon="0.354925">
        <ele>1032.5</ele>
        <time>2018-06-13T10:03:52Z</time>
      </trkpt>
      <trkpt lat="42.436950" lon="0.354842">
        <ele>1034.7</ele>
        <time>2018-06-13T10:03:54Z</time>
      </trkpt>
      <trkpt lat="42.436933" lon="0.354728">
        <ele>1037.4</ele>
        <time>2018-06-13T10:03:56Z</time>
      </trkpt>
      <trkpt lat="42.436965" lon="0.354675">
        <ele>1037.8</ele>
        <time>2018-06-13T10:03:57Z</time>
      </trkpt>
      <trkpt lat="42.437030" lon="0.354640">
        <ele>1037.3</ele>
        <time>2018-06-13T10:03:59Z</time>
      </trkpt>
      <trkpt lat="42.437159" lon="0.354612">
        <ele>1035.6</ele>
        <time>2018-06-13T10:04:03Z</time>
      </trkpt>
      <trkpt lat="42.437265" lon="0.354597">
        <ele>1033.8</ele>
        <time>2018-06-13T10:04:06Z</time>
      </trkpt>
      <trkpt lat="42.437324" lon="0.354616">
        <ele>1032.2</ele>
        <time>2018-06-13T10:04:07Z</time>
      </trkpt>
      <trkpt lat="42.437429" lon="0.354579">
        <ele>1030.7</ele>
        <time>2018-06-13T10:04:10Z</time>
      </trkpt>
      <trkpt lat="42.437502" lon="0.354500">
        <ele>1031.4</ele>
        <time>2018-06-13T10:04:13Z</time>
      </trkpt>
      <trkpt lat="42.437558" lon="0.354390">
        <ele>1033.3</ele>
        <time>2018-06-13T10:04:15Z</time>
      </trkpt>
      <trkpt lat="42.437599" lon="0.354271">
        <ele>1035.8</ele>
        <time>2018-06-13T10:04:18Z</time>
      </trkpt>
      <trkpt lat="42.437631" lon="0.354152">
        <ele>1038.6</ele>
        <time>2018-06-13T10:04:21Z</time>
      </trkpt>
      <trkpt lat="42.437671" lon="0.354054">
        <ele>1040.7</ele>
        <time>2018-06-13T10:04:23Z</time>
      </trkpt>
      <trkpt lat="42.437760" lon="0.354014">
        <ele>1040.1</ele>
        <time>2018-06-13T10:04:25Z</time>
      </trkpt>
      <trkpt lat="42.437842" lon="0.354007">
        <ele>1038.7</ele>
        <time>2018-06-13T10:04:27Z</time>
      </trkpt>
      <trkpt lat="42.437916" lon="0.354034">
        <ele>1036.9</ele>
        <time>2018-06-13T10:04:29Z</time>
      </trkpt>
      <trkpt lat="42.437991" lon="0.354069">
        <ele>1034.0</ele>
        <time>2018-06-13T10:04:32Z</time>
      </trkpt>
      <trkpt lat="42.438073" lon="0.354084">
        <ele>1031.4</ele>
        <time>2018-06-13T10:04:34Z</time>
      </trkpt>
      <trkpt lat="42.438156" lon="0.354110">
        <ele>1028.8</ele>
        <time>2018-06-13T10:04:36Z</time>
      </trkpt>
      <trkpt lat="42.438239" lon="0.354070">
        <ele>1025.7</ele>
        <time>2018-06-13T10:04:39Z</time>
      </trkpt>
      <trkpt lat="42.438305" lon="0.354011">
        <ele>1022.9</ele>
        <time>2018-06-13T10:04:41Z</time>
      </trkpt>
      <trkpt lat="42.438346" lon="0.353922">
        <ele>1021.7</ele>
        <time>2018-06-13T10:04:43Z</time>
      </trkpt>
      <trkpt lat="42.438394" lon="0.353747">
        <ele>1021.6</ele>
        <time>2018-06-13T10:04:47Z</time>
      </trkpt>
      <trkpt lat="42.438424" lon="0.353446">
        <ele>1022.4</ele>
        <time>2018-06-13T10:04:53Z</time>
      </trkpt>
      <trkpt lat="42.438459" lon="0.353171">
        <ele>1022.5</ele>
        <time>2018-06-13T10:04:58Z</time>
      </trkpt>
      <trkpt lat="42.438491" lon="0.353073">
        <ele>1023.2</ele>
        <time>2018-06-13T10:05:00Z</time>
      </trkpt>
      <trkpt lat="42.438548" lon="0.352943">
        <ele>1024.6</ele>
        <time>2018-06-13T10:05:03Z</time>
      </trkpt>
      <trkpt lat="42.438629" lon="0.352856">
        <ele>1026.8</ele>
        <time>2018-06-13T10:05:06Z</time>
      </trkpt>
      <trkpt lat="42.438703" lon="0.352821">
        <ele>1028.0</ele>
        <time>2018-06-13T10:05:08Z</time>
      </trkpt>
      <trkpt lat="42.438801" lon="0.352774">
        <ele>1030.6</ele>
        <time>2018-06-13T10:05:11Z</time>
      </trkpt>
      <trkpt lat="42.438907" lon="0.352769">
        <ele>1032.9</ele>
        <time>2018-06-13T10:05:14Z</time>
      </trkpt>
      <trkpt lat="42.439023" lon="0.352806">
        <ele>1034.1</ele>
        <time>2018-06-13T10:05:17Z</time>
      </trkpt>
      <trkpt lat="42.439132" lon="0.352832">
        <ele>1035.7</ele>
        <time>2018-06-13T10:05:20Z</time>
      </trkpt>
      <trkpt lat="42.439248" lon="0.352836">
        <ele>1038.2</ele>
        <time>2018-06-13T10:05:23Z</time>
      </trkpt>
      <trkpt lat="42.439323" lon="0.352821">
        <ele>1039.3</ele>
        <time>2018-06-13T10:05:25Z</time>
      </trkpt>
      <trkpt lat="42.439414" lon="0.352742">
        <ele>1037.8</ele>
        <time>2018-06-13T10:05:28Z</time>
      </trkpt>
      <trkpt lat="42.439461" lon="0.352602">
        <ele>1037.7</ele>
        <time>2018-06-13T10:05:31Z</time>
      </trkpt>
      <trkpt lat="42.439500" lon="0.352474">
        <ele>1037.2</ele>
        <time>2018-06-13T10:05:33Z</time>
      </trkpt>
      <trkpt lat="42.439507" lon="0.352368">
        <ele>1037.7</ele>
        <time>2018-06-13T10:05:35Z</time>
      </trkpt>
      <trkpt lat="42.439521" lon="0.352283">
        <ele>1037.2</ele>
        <time>2018-06-13T10:05:37Z</time>
      </trkpt>
      <trkpt lat="42.439560" lon="0.352155">
        <ele>1035.8</ele>
        <time>2018-06-13T10:05:40Z</time>
      </trkpt>
      <trkpt lat="42.439600" lon="0.352069">
        <ele>1033.4</ele>
        <time>2018-06-13T10:05:42Z</time>
      </trkpt>
      <trkpt lat="42.439607" lon="0.351986">
        <ele>1030.9</ele>
        <time>2018-06-13T10:05:44Z</time>
      </trkpt>
      <trkpt lat="42.439604" lon="0.351862">
        <ele>1028.0</ele>
        <time>2018-06-13T10:05:46Z</time>
      </trkpt>
      <trkpt lat="42.439550" lon="0.351702">
        <ele>1027.0</ele>
        <time>2018-06-13T10:05:50Z</time>
      </trkpt>
      <trkpt lat="42.439514" lon="0.351561">
        <ele>1025.3</ele>
        <time>2018-06-13T10:05:53Z</time>
      </trkpt>
      <trkpt lat="42.439478" lon="0.351408">
        <ele>1024.1</ele>
        <time>2018-06-13T10:05:56Z</time>
      </trkpt>
      <trkpt lat="42.439493" lon="0.351271">
        <ele>1020.9</ele>
        <time>2018-06-13T10:05:59Z</time>
      </trkpt>
      <trkpt lat="42.439564" lon="0.351077">
        <ele>1014.0</ele>
        <time>2018-06-13T10:06:03Z</time>
      </trkpt>
      <trkpt lat="42.439637" lon="0.350966">
        <ele>1008.2</ele>
        <time>2018-06-13T10:06:06Z</time>
      </trkpt>
      <trkpt lat="42.439659" lon="0.350798">
        <ele>1005.2</ele>
        <time>2018-06-13T10:06:10Z</time>
      </trkpt>
      <trkpt lat="42.439647" lon="0.350617">
        <ele>1003.7</ele>
        <time>2018-06-13T10:06:13Z</time>
      </trkpt>
      <trkpt lat="42.439658" lon="0.350487">
        <ele>1002.0</ele>
        <time>2018-06-13T10:06:16Z</time>
      </trkpt>
      <trkpt lat="42.439624" lon="0.350360">
        <ele>1002.9</ele>
        <time>2018-06-13T10:06:18Z</time>
      </trkpt>
      <trkpt lat="42.439614" lon="0.350228">
        <ele>1004.1</ele>
        <time>2018-06-13T10:06:21Z</time>
      </trkpt>
      <trkpt lat="42.439557" lon="0.349884">
        <ele>1012.8</ele>
        <time>2018-06-13T10:06:28Z</time>
      </trkpt>
      <trkpt lat="42.439591" lon="0.349594">
        <ele>1017.3</ele>
        <time>2018-06-13T10:06:34Z</time>
      </trkpt>
      <trkpt lat="42.439705" lon="0.349373">
        <ele>1015.5</ele>
        <time>2018-06-13T10:06:39Z</time>
      </trkpt>
      <trkpt lat="42.439759" lon="0.349298">
        <ele>1013.8</ele>
        <time>2018-06-13T10:06:41Z</time>
      </trkpt>
      <trkpt lat="42.439830" lon="0.349222">
        <ele>1011.9</ele>
        <time>2018-06-13T10:06:44Z</time>
      </trkpt>
      <trkpt lat="42.439925" lon="0.349173">
        <ele>1009.7</ele>
        <time>2018-06-13T10:06:47Z</time>
      </trkpt>
      <trkpt lat="42.440028" lon="0.349113">
        <ele>1008.8</ele>
        <time>2018-06-13T10:06:50Z</time>
      </trkpt>
      <trkpt lat="42.440212" lon="0.349072">
        <ele>1006.3</ele>
        <time>2018-06-13T10:06:54Z</time>
      </trkpt>
      <trkpt lat="42.440651" lon="0.348958">
        <ele>1012.9</ele>
        <time>2018-06-13T10:07:06Z</time>
      </trkpt>
      <trkpt lat="42.440931" lon="0.348866">
        <ele>1014.9</ele>
        <time>2018-06-13T10:07:14Z</time>
      </trkpt>
      <trkpt lat="42.441148" lon="0.348734">
        <ele>1018.1</ele>
        <time>2018-06-13T10:07:20Z</time>
      </trkpt>
      <trkpt lat="42.441269" lon="0.348601">
        <ele>1021.5</ele>
        <time>2018-06-13T10:07:25Z</time>
      </trkpt>
      <trkpt lat="42.441378" lon="0.348468">
        <ele>1024.4</ele>
        <time>2018-06-13T10:07:28Z</time>
      </trkpt>
      <trkpt lat="42.441622" lon="0.348364">
        <ele>1022.2</ele>
        <time>2018-06-13T10:07:35Z</time>
      </trkpt>
      <trkpt lat="42.441832" lon="0.348321">
        <ele>1017.3</ele>
        <time>2018-06-13T10:07:41Z</time>
      </trkpt>
      <trkpt lat="42.442018" lon="0.348230">
        <ele>1015.1</ele>
        <time>2018-06-13T10:07:46Z</time>
      </trkpt>
      <trkpt lat="42.442166" lon="0.348158">
        <ele>1015.3</ele>
        <time>2018-06-13T10:07:50Z</time>
      </trkpt>
      <trkpt lat="42.442324" lon="0.347977">
        <ele>1022.0</ele>
        <time>2018-06-13T10:07:56Z</time>
      </trkpt>
      <trkpt lat="42.442540" lon="0.347686">
        <ele>1031.5</ele>
        <time>2018-06-13T10:08:04Z</time>
      </trkpt>
      <trkpt lat="42.442898" lon="0.347262">
        <ele>1034.2</ele>
        <time>2018-06-13T10:08:17Z</time>
      </trkpt>
      <trkpt lat="42.443277" lon="0.346709">
        <ele>1038.1</ele>
        <time>2018-06-13T10:08:32Z</time>
      </trkpt>
      <trkpt lat="42.443464" lon="0.346377">
        <ele>1035.1</ele>
        <time>2018-06-13T10:08:40Z</time>
      </trkpt>
      <trkpt lat="42.443762" lon="0.345935">
        <ele>1032.9</ele>
        <time>2018-06-13T10:08:52Z</time>
      </trkpt>
      <trkpt lat="42.443918" lon="0.345793">
        <ele>1037.1</ele>
        <time>2018-06-13T10:08:57Z</time>
      </trkpt>
      <trkpt lat="42.444158" lon="0.345729">
        <ele>1039.6</ele>
        <time>2018-06-13T10:09:03Z</time>
      </trkpt>
      <trkpt lat="42.444528" lon="0.345623">
        <ele>1042.6</ele>
        <time>2018-06-13T10:09:13Z</time>
      </trkpt>
      <trkpt lat="42.444690" lon="0.345623">
        <ele>1041.7</ele>
        <time>2018-06-13T10:09:17Z</time>
      </trkpt>
      <trkpt lat="42.444909" lon="0.345644">
        <ele>1038.8</ele>
        <time>2018-06-13T10:09:23Z</time>
      </trkpt>
      <trkpt lat="42.445042" lon="0.345579">
        <ele>1036.8</ele>
        <time>2018-06-13T10:09:27Z</time>
      </trkpt>
      <trkpt lat="42.445178" lon="0.345466">
        <ele>1034.2</ele>
        <time>2018-06-13T10:09:31Z</time>
      </trkpt>
      <trkpt lat="42.445250" lon="0.345332">
        <ele>1033.8</ele>
        <time>2018-06-13T10:09:34Z</time>
      </trkpt>
      <trkpt lat="42.445311" lon="0.345045">
        <ele>1037.1</ele>
        <time>2018-06-13T10:09:40Z</time>
      </trkpt>
      <trkpt lat="42.445347" lon="0.344816">
        <ele>1040.1</ele>
        <time>2018-06-13T10:09:45Z</time>
      </trkpt>
      <trkpt lat="42.445390" lon="0.344579">
        <ele>1044.6</ele>
        <time>2018-06-13T10:09:50Z</time>
      </trkpt>
      <trkpt lat="42.445459" lon="0.344244">
        <ele>1050.4</ele>
        <time>2018-06-13T10:09:57Z</time>
      </trkpt>
      <trkpt lat="42.445546" lon="0.343989">
        <ele>1057.7</ele>
        <time>2018-06-13T10:10:03Z</time>
      </trkpt>
      <trkpt lat="42.445683" lon="0.343684">
        <ele>1064.9</ele>
        <time>2018-06-13T10:10:10Z</time>
      </trkpt>
      <trkpt lat="42.445833" lon="0.343432">
        <ele>1074.3</ele>
        <time>2018-06-13T10:10:16Z</time>
      </trkpt>
      <trkpt lat="42.446109" lon="0.343035">
        <ele>1081.0</ele>
        <time>2018-06-13T10:10:27Z</time>
      </trkpt>
      <trkpt lat="42.446427" lon="0.342674">
        <ele>1080.6</ele>
        <time>2018-06-13T10:10:38Z</time>
      </trkpt>
      <trkpt lat="42.446631" lon="0.342504">
        <ele>1077.4</ele>
        <time>2018-06-13T10:10:44Z</time>
      </trkpt>
      <trkpt lat="42.446777" lon="0.342455">
        <ele>1072.4</ele>
        <time>2018-06-13T10:10:49Z</time>
      </trkpt>
      <trkpt lat="42.446939" lon="0.342476">
        <ele>1065.5</ele>
        <time>2018-06-13T10:10:53Z</time>
      </trkpt>
      <trkpt lat="42.447137" lon="0.342525">
        <ele>1058.7</ele>
        <time>2018-06-13T10:10:59Z</time>
      </trkpt>
      <trkpt lat="42.447336" lon="0.342390">
        <ele>1059.9</ele>
        <time>2018-06-13T10:11:05Z</time>
      </trkpt>
      <trkpt lat="42.447485" lon="0.342157">
        <ele>1060.8</ele>
        <time>2018-06-13T10:11:11Z</time>
      </trkpt>
      <trkpt lat="42.447686" lon="0.341833">
        <ele>1057.2</ele>
        <time>2018-06-13T10:11:19Z</time>
      </trkpt>
      <trkpt lat="42.448300" lon="0.340999">
        <ele>1052.0</ele>
        <time>2018-06-13T10:11:42Z</time>
      </trkpt>
      <trkpt lat="42.448650" lon="0.340574">
        <ele>1050.7</ele>
        <time>2018-06-13T10:11:54Z</time>
      </trkpt>
      <trkpt lat="42.448796" lon="0.340404">
        <ele>1048.8</ele>
        <time>2018-06-13T10:11:59Z</time>
      </trkpt>
      <trkpt lat="42.448958" lon="0.340291">
        <ele>1048.4</ele>
        <time>2018-06-13T10:12:04Z</time>
      </trkpt>
      <trkpt lat="42.449162" lon="0.340234">
        <ele>1047.2</ele>
        <time>2018-06-13T10:12:10Z</time>
      </trkpt>
      <trkpt lat="42.449370" lon="0.340206">
        <ele>1045.8</ele>
        <time>2018-06-13T10:12:15Z</time>
      </trkpt>
      <trkpt lat="42.449537" lon="0.340107">
        <ele>1045.9</ele>
        <time>2018-06-13T10:12:20Z</time>
      </trkpt>
      <trkpt lat="42.449761" lon="0.339921">
        <ele>1046.8</ele>
        <time>2018-06-13T10:12:27Z</time>
      </trkpt>
      <trkpt lat="42.449884" lon="0.339867">
        <ele>1046.0</ele>
        <time>2018-06-13T10:12:30Z</time>
      </trkpt>
      <trkpt lat="42.449966" lon="0.339874">
        <ele>1045.9</ele>
        <time>2018-06-13T10:12:33Z</time>
      </trkpt>
      <trkpt lat="42.450052" lon="0.339943">
        <ele>1044.8</ele>
        <time>2018-06-13T10:12:35Z</time>
      </trkpt>
      <trkpt lat="42.450129" lon="0.340087">
        <ele>1042.0</ele>
        <time>2018-06-13T10:12:39Z</time>
      </trkpt>
      <trkpt lat="42.450231" lon="0.340286">
        <ele>1039.2</ele>
        <time>2018-06-13T10:12:44Z</time>
      </trkpt>
      <trkpt lat="42.450324" lon="0.340448">
        <ele>1036.8</ele>
        <time>2018-06-13T10:12:48Z</time>
      </trkpt>
      <trkpt lat="42.450447" lon="0.340593">
        <ele>1035.0</ele>
        <time>2018-06-13T10:12:52Z</time>
      </trkpt>
      <trkpt lat="42.450667" lon="0.340660">
        <ele>1034.6</ele>
        <time>2018-06-13T10:12:58Z</time>
      </trkpt>
      <trkpt lat="42.451115" lon="0.340704">
        <ele>1034.7</ele>
        <time>2018-06-13T10:13:10Z</time>
      </trkpt>
      <trkpt lat="42.451820" lon="0.340973">
        <ele>1023.8</ele>
        <time>2018-06-13T10:13:29Z</time>
      </trkpt>
      <trkpt lat="42.452093" lon="0.341155">
        <ele>1017.4</ele>
        <time>2018-06-13T10:13:37Z</time>
      </trkpt>
      <trkpt lat="42.452265" lon="0.341391">
        <ele>1015.1</ele>
        <time>2018-06-13T10:13:44Z</time>
      </trkpt>
      <trkpt lat="42.452370" lon="0.341458">
        <ele>1015.4</ele>
        <time>2018-06-13T10:13:47Z</time>
      </trkpt>
      <trkpt lat="42.452525" lon="0.341511">
        <ele>1018.0</ele>
        <time>2018-06-13T10:13:51Z</time>
      </trkpt>
      <trkpt lat="42.452667" lon="0.341505">
        <ele>1020.1</ele>
        <time>2018-06-13T10:13:55Z</time>
      </trkpt>
      <trkpt lat="42.452934" lon="0.341577">
        <ele>1018.5</ele>
        <time>2018-06-13T10:14:02Z</time>
      </trkpt>
      <trkpt lat="42.453047" lon="0.341606">
        <ele>1017.2</ele>
        <time>2018-06-13T10:14:05Z</time>
      </trkpt>
      <trkpt lat="42.453193" lon="0.341734">
        <ele>1014.0</ele>
        <time>2018-06-13T10:14:10Z</time>
      </trkpt>
      <trkpt lat="42.453292" lon="0.341874">
        <ele>1011.0</ele>
        <time>2018-06-13T10:14:14Z</time>
      </trkpt>
      <trkpt lat="42.453309" lon="0.342059">
        <ele>1007.5</ele>
        <time>2018-06-13T10:14:17Z</time>
      </trkpt>
      <trkpt lat="42.453372" lon="0.342222">
        <ele>1005.3</ele>
        <time>2018-06-13T10:14:21Z</time>
      </trkpt>
      <trkpt lat="42.453463" lon="0.342362">
        <ele>1004.9</ele>
        <time>2018-06-13T10:14:25Z</time>
      </trkpt>
      <trkpt lat="42.453664" lon="0.342456">
        <ele>1002.0</ele>
        <time>2018-06-13T10:14:30Z</time>
      </trkpt>
      <trkpt lat="42.453786" lon="0.342460">
        <ele>1001.8</ele>
        <time>2018-06-13T10:14:34Z</time>
      </trkpt>
      <trkpt lat="42.453917" lon="0.342482">
        <ele>1002.2</ele>
        <time>2018-06-13T10:14:37Z</time>
      </trkpt>
      <trkpt lat="42.454024" lon="0.342560">
        <ele>1001.4</ele>
        <time>2018-06-13T10:14:40Z</time>
      </trkpt>
      <trkpt lat="42.454073" lon="0.342683">
        <ele>999.7</ele>
        <time>2018-06-13T10:14:43Z</time>
      </trkpt>
      <trkpt lat="42.454091" lon="0.342939">
        <ele>997.3</ele>
        <time>2018-06-13T10:14:48Z</time>
      </trkpt>
      <trkpt lat="42.454093" lon="0.343140">
        <ele>996.1</ele>
        <time>2018-06-13T10:14:52Z</time>
      </trkpt>
      <trkpt lat="42.454109" lon="0.343288">
        <ele>995.2</ele>
        <time>2018-06-13T10:14:55Z</time>
      </trkpt>
      <trkpt lat="42.454155" lon="0.343416">
        <ele>994.8</ele>
        <time>2018-06-13T10:14:58Z</time>
      </trkpt>
      <trkpt lat="42.454463" lon="0.343709">
        <ele>999.0</ele>
        <time>2018-06-13T10:15:08Z</time>
      </trkpt>
      <trkpt lat="42.454491" lon="0.343768">
        <ele>999.4</ele>
        <time>2018-06-13T10:15:09Z</time>
      </trkpt>
      <trkpt lat="42.454509" lon="0.343993">
        <ele>999.9</ele>
        <time>2018-06-13T10:15:14Z</time>
      </trkpt>
      <trkpt lat="42.454521" lon="0.344074">
        <ele>1000.3</ele>
        <time>2018-06-13T10:15:15Z</time>
      </trkpt>
      <trkpt lat="42.454549" lon="0.344138">
        <ele>1000.9</ele>
        <time>2018-06-13T10:15:17Z</time>
      </trkpt>
      <trkpt lat="42.454594" lon="0.344167">
        <ele>1001.7</ele>
        <time>2018-06-13T10:15:18Z</time>
      </trkpt>
      <trkpt lat="42.454679" lon="0.344135">
        <ele>1003.4</ele>
        <time>2018-06-13T10:15:20Z</time>
      </trkpt>
      <trkpt lat="42.454782" lon="0.344063">
        <ele>1005.4</ele>
        <time>2018-06-13T10:15:23Z</time>
      </trkpt>
      <trkpt lat="42.455043" lon="0.343859">
        <ele>1010.7</ele>
        <time>2018-06-13T10:15:31Z</time>
      </trkpt>
      <trkpt lat="42.455287" lon="0.343679">
        <ele>1016.4</ele>
        <time>2018-06-13T10:15:39Z</time>
      </trkpt>
      <trkpt lat="42.455685" lon="0.343344">
        <ele>1025.8</ele>
        <time>2018-06-13T10:15:51Z</time>
      </trkpt>
      <trkpt lat="42.455891" lon="0.343154">
        <ele>1030.3</ele>
        <time>2018-06-13T10:15:58Z</time>
      </trkpt>
      <trkpt lat="42.456019" lon="0.342982">
        <ele>1033.6</ele>
        <time>2018-06-13T10:16:03Z</time>
      </trkpt>
      <trkpt lat="42.456077" lon="0.342853">
        <ele>1034.4</ele>
        <time>2018-06-13T10:16:06Z</time>
      </trkpt>
      <trkpt lat="42.456184" lon="0.342574">
        <ele>1037.7</ele>
        <time>2018-06-13T10:16:12Z</time>
      </trkpt>
      <trkpt lat="42.456441" lon="0.342070">
        <ele>1047.0</ele>
        <time>2018-06-13T10:16:24Z</time>
      </trkpt>
      <trkpt lat="42.456740" lon="0.341504">
        <ele>1057.9</ele>
        <time>2018-06-13T10:16:38Z</time>
      </trkpt>
      <trkpt lat="42.456842" lon="0.341270">
        <ele>1059.3</ele>
        <time>2018-06-13T10:16:43Z</time>
      </trkpt>
      <trkpt lat="42.457110" lon="0.340647">
        <ele>1049.7</ele>
        <time>2018-06-13T10:16:58Z</time>
      </trkpt>
      <trkpt lat="42.457222" lon="0.340296">
        <ele>1051.2</ele>
        <time>2018-06-13T10:17:05Z</time>
      </trkpt>
      <trkpt lat="42.457292" lon="0.339923">
        <ele>1054.2</ele>
        <time>2018-06-13T10:17:13Z</time>
      </trkpt>
      <trkpt lat="42.457332" lon="0.339630">
        <ele>1058.6</ele>
        <time>2018-06-13T10:17:18Z</time>
      </trkpt>
      <trkpt lat="42.457370" lon="0.339476">
        <ele>1061.4</ele>
        <time>2018-06-13T10:17:22Z</time>
      </trkpt>
      <trkpt lat="42.457418" lon="0.339384">
        <ele>1062.2</ele>
        <time>2018-06-13T10:17:24Z</time>
      </trkpt>
      <trkpt lat="42.457517" lon="0.339337">
        <ele>1058.9</ele>
        <time>2018-06-13T10:17:27Z</time>
      </trkpt>
      <trkpt lat="42.457599" lon="0.339367">
        <ele>1053.6</ele>
        <time>2018-06-13T10:17:29Z</time>
      </trkpt>
      <trkpt lat="42.457721" lon="0.339434">
        <ele>1047.4</ele>
        <time>2018-06-13T10:17:33Z</time>
      </trkpt>
      <trkpt lat="42.457866" lon="0.339451">
        <ele>1044.2</ele>
        <time>2018-06-13T10:17:37Z</time>
      </trkpt>
      <trkpt lat="42.457945" lon="0.339409">
        <ele>1044.1</ele>
        <time>2018-06-13T10:17:39Z</time>
      </trkpt>
      <trkpt lat="42.458081" lon="0.339312">
        <ele>1044.3</ele>
        <time>2018-06-13T10:17:43Z</time>
      </trkpt>
      <trkpt lat="42.458179" lon="0.339192">
        <ele>1046.5</ele>
        <time>2018-06-13T10:17:47Z</time>
      </trkpt>
      <trkpt lat="42.458216" lon="0.339101">
        <ele>1048.6</ele>
        <time>2018-06-13T10:17:49Z</time>
      </trkpt>
      <trkpt lat="42.458264" lon="0.338998">
        <ele>1049.9</ele>
        <time>2018-06-13T10:17:51Z</time>
      </trkpt>
      <trkpt lat="42.458297" lon="0.338808">
        <ele>1054.4</ele>
        <time>2018-06-13T10:17:55Z</time>
      </trkpt>
      <trkpt lat="42.458382" lon="0.338641">
        <ele>1054.2</ele>
        <time>2018-06-13T10:17:59Z</time>
      </trkpt>
      <trkpt lat="42.458489" lon="0.338520">
        <ele>1051.5</ele>
        <time>2018-06-13T10:18:03Z</time>
      </trkpt>
      <trkpt lat="42.458547" lon="0.338392">
        <ele>1051.9</ele>
        <time>2018-06-13T10:18:06Z</time>
      </trkpt>
      <trkpt lat="42.458594" lon="0.338228">
        <ele>1054.2</ele>
        <time>2018-06-13T10:18:09Z</time>
      </trkpt>
      <trkpt lat="42.458650" lon="0.338076">
        <ele>1056.7</ele>
        <time>2018-06-13T10:18:13Z</time>
      </trkpt>
      <trkpt lat="42.458729" lon="0.338033">
        <ele>1055.3</ele>
        <time>2018-06-13T10:18:15Z</time>
      </trkpt>
      <trkpt lat="42.458840" lon="0.338121">
        <ele>1049.8</ele>
        <time>2018-06-13T10:18:19Z</time>
      </trkpt>
      <trkpt lat="42.458930" lon="0.338113">
        <ele>1047.6</ele>
        <time>2018-06-13T10:18:21Z</time>
      </trkpt>
      <trkpt lat="42.459009" lon="0.338069">
        <ele>1046.7</ele>
        <time>2018-06-13T10:18:23Z</time>
      </trkpt>
      <trkpt lat="42.459088" lon="0.338000">
        <ele>1047.2</ele>
        <time>2018-06-13T10:18:26Z</time>
      </trkpt>
      <trkpt lat="42.459249" lon="0.337961">
        <ele>1046.1</ele>
        <time>2018-06-13T10:18:30Z</time>
      </trkpt>
      <trkpt lat="42.459409" lon="0.337886">
        <ele>1045.9</ele>
        <time>2018-06-13T10:18:35Z</time>
      </trkpt>
      <trkpt lat="42.459499" lon="0.337775">
        <ele>1047.5</ele>
        <time>2018-06-13T10:18:38Z</time>
      </trkpt>
      <trkpt lat="42.459607" lon="0.337627">
        <ele>1049.9</ele>
        <time>2018-06-13T10:18:42Z</time>
      </trkpt>
      <trkpt lat="42.459739" lon="0.337381">
        <ele>1053.3</ele>
        <time>2018-06-13T10:18:48Z</time>
      </trkpt>
      <trkpt lat="42.460004" lon="0.336914">
        <ele>1053.2</ele>
        <time>2018-06-13T10:18:59Z</time>
      </trkpt>
      <trkpt lat="42.460144" lon="0.336615">
        <ele>1051.5</ele>
        <time>2018-06-13T10:19:06Z</time>
      </trkpt>
      <trkpt lat="42.460194" lon="0.336447">
        <ele>1051.1</ele>
        <time>2018-06-13T10:19:10Z</time>
      </trkpt>
      <trkpt lat="42.460213" lon="0.336271">
        <ele>1052.8</ele>
        <time>2018-06-13T10:19:13Z</time>
      </trkpt>
      <trkpt lat="42.460234" lon="0.336033">
        <ele>1056.1</ele>
        <time>2018-06-13T10:19:18Z</time>
      </trkpt>
      <trkpt lat="42.460321" lon="0.335750">
        <ele>1058.3</ele>
        <time>2018-06-13T10:19:24Z</time>
      </trkpt>
      <trkpt lat="42.460428" lon="0.335540">
        <ele>1057.8</ele>
        <time>2018-06-13T10:19:29Z</time>
      </trkpt>
      <trkpt lat="42.460570" lon="0.335245">
        <ele>1058.2</ele>
        <time>2018-06-13T10:19:36Z</time>
      </trkpt>
      <trkpt lat="42.460743" lon="0.335006">
        <ele>1058.5</ele>
        <time>2018-06-13T10:19:42Z</time>
      </trkpt>
      <trkpt lat="42.460877" lon="0.334877">
        <ele>1057.4</ele>
        <time>2018-06-13T10:19:47Z</time>
      </trkpt>
      <trkpt lat="42.461004" lon="0.334642">
        <ele>1058.8</ele>
        <time>2018-06-13T10:19:52Z</time>
      </trkpt>
      <trkpt lat="42.461112" lon="0.334386">
        <ele>1060.9</ele>
        <time>2018-06-13T10:19:58Z</time>
      </trkpt>
      <trkpt lat="42.461255" lon="0.334151">
        <ele>1060.6</ele>
        <time>2018-06-13T10:20:04Z</time>
      </trkpt>
      <trkpt lat="42.461487" lon="0.333755">
        <ele>1062.1</ele>
        <time>2018-06-13T10:20:14Z</time>
      </trkpt>
      <trkpt lat="42.461701" lon="0.333549">
        <ele>1061.9</ele>
        <time>2018-06-13T10:20:21Z</time>
      </trkpt>
      <trkpt lat="42.461879" lon="0.333357">
        <ele>1061.1</ele>
        <time>2018-06-13T10:20:27Z</time>
      </trkpt>
      <trkpt lat="42.461985" lon="0.333168">
        <ele>1061.4</ele>
        <time>2018-06-13T10:20:32Z</time>
      </trkpt>
      <trkpt lat="42.462145" lon="0.332908">
        <ele>1060.0</ele>
        <time>2018-06-13T10:20:38Z</time>
      </trkpt>
      <trkpt lat="42.462268" lon="0.332627">
        <ele>1061.3</ele>
        <time>2018-06-13T10:20:45Z</time>
      </trkpt>
      <trkpt lat="42.462444" lon="0.332414">
        <ele>1065.4</ele>
        <time>2018-06-13T10:20:51Z</time>
      </trkpt>
      <trkpt lat="42.462656" lon="0.332199">
        <ele>1072.6</ele>
        <time>2018-06-13T10:20:58Z</time>
      </trkpt>
      <trkpt lat="42.462833" lon="0.332056">
        <ele>1074.2</ele>
        <time>2018-06-13T10:21:04Z</time>
      </trkpt>
      <trkpt lat="42.463133" lon="0.331890">
        <ele>1071.1</ele>
        <time>2018-06-13T10:21:12Z</time>
      </trkpt>
      <trkpt lat="42.463427" lon="0.331644">
        <ele>1065.2</ele>
        <time>2018-06-13T10:21:21Z</time>
      </trkpt>
      <trkpt lat="42.463588" lon="0.331546">
        <ele>1063.1</ele>
        <time>2018-06-13T10:21:26Z</time>
      </trkpt>
      <trkpt lat="42.463736" lon="0.331329">
        <ele>1064.6</ele>
        <time>2018-06-13T10:21:32Z</time>
      </trkpt>
      <trkpt lat="42.463850" lon="0.331106">
        <ele>1067.6</ele>
        <time>2018-06-13T10:21:37Z</time>
      </trkpt>
      <trkpt lat="42.463883" lon="0.330826">
        <ele>1074.4</ele>
        <time>2018-06-13T10:21:43Z</time>
      </trkpt>
      <trkpt lat="42.463899" lon="0.330590">
        <ele>1080.0</ele>
        <time>2018-06-13T10:21:48Z</time>
      </trkpt>
      <trkpt lat="42.464028" lon="0.330266">
        <ele>1083.3</ele>
        <time>2018-06-13T10:21:55Z</time>
      </trkpt>
      <trkpt lat="42.464061" lon="0.330094">
        <ele>1085.7</ele>
        <time>2018-06-13T10:21:58Z</time>
      </trkpt>
      <trkpt lat="42.464094" lon="0.329881">
        <ele>1088.3</ele>
        <time>2018-06-13T10:22:03Z</time>
      </trkpt>
      <trkpt lat="42.464121" lon="0.329850">
        <ele>1088.0</ele>
        <time>2018-06-13T10:22:04Z</time>
      </trkpt>
      <trkpt lat="42.464161" lon="0.329828">
        <ele>1087.0</ele>
        <time>2018-06-13T10:22:05Z</time>
      </trkpt>
      <trkpt lat="42.464246" lon="0.329820">
        <ele>1084.0</ele>
        <time>2018-06-13T10:22:07Z</time>
      </trkpt>
      <trkpt lat="42.464303" lon="0.329802">
        <ele>1082.1</ele>
        <time>2018-06-13T10:22:09Z</time>
      </trkpt>
      <trkpt lat="42.464347" lon="0.329745">
        <ele>1081.9</ele>
        <time>2018-06-13T10:22:10Z</time>
      </trkpt>
      <trkpt lat="42.464408" lon="0.329563">
        <ele>1083.4</ele>
        <time>2018-06-13T10:22:14Z</time>
      </trkpt>
      <trkpt lat="42.464482" lon="0.329296">
        <ele>1086.0</ele>
        <time>2018-06-13T10:22:20Z</time>
      </trkpt>
      <trkpt lat="42.464616" lon="0.329018">
        <ele>1090.7</ele>
        <time>2018-06-13T10:22:26Z</time>
      </trkpt>
      <trkpt lat="42.464776" lon="0.328777">
        <ele>1099.3</ele>
        <time>2018-06-13T10:22:33Z</time>
      </trkpt>
      <trkpt lat="42.465060" lon="0.328477">
        <ele>1105.2</ele>
        <time>2018-06-13T10:22:43Z</time>
      </trkpt>
      <trkpt lat="42.465318" lon="0.328281">
        <ele>1102.4</ele>
        <time>2018-06-13T10:22:50Z</time>
      </trkpt>
      <trkpt lat="42.465512" lon="0.328256">
        <ele>1097.8</ele>
        <time>2018-06-13T10:22:56Z</time>
      </trkpt>
      <trkpt lat="42.465673" lon="0.328168">
        <ele>1096.8</ele>
        <time>2018-06-13T10:23:00Z</time>
      </trkpt>
      <trkpt lat="42.465894" lon="0.328014">
        <ele>1093.6</ele>
        <time>2018-06-13T10:23:07Z</time>
      </trkpt>
      <trkpt lat="42.465975" lon="0.327843">
        <ele>1094.6</ele>
        <time>2018-06-13T10:23:11Z</time>
      </trkpt>
      <trkpt lat="42.466023" lon="0.327630">
        <ele>1098.6</ele>
        <time>2018-06-13T10:23:15Z</time>
      </trkpt>
      <trkpt lat="42.466055" lon="0.327397">
        <ele>1102.8</ele>
        <time>2018-06-13T10:23:20Z</time>
      </trkpt>
      <trkpt lat="42.466280" lon="0.327097">
        <ele>1104.0</ele>
        <time>2018-06-13T10:23:28Z</time>
      </trkpt>
      <trkpt lat="42.466586" lon="0.326604">
        <ele>1114.6</ele>
        <time>2018-06-13T10:23:41Z</time>
      </trkpt>
      <trkpt lat="42.466774" lon="0.326219">
        <ele>1121.4</ele>
        <time>2018-06-13T10:23:50Z</time>
      </trkpt>
      <trkpt lat="42.466896" lon="0.326158">
        <ele>1117.9</ele>
        <time>2018-06-13T10:23:54Z</time>
      </trkpt>
      <trkpt lat="42.467106" lon="0.325951">
        <ele>1112.5</ele>
        <time>2018-06-13T10:24:01Z</time>
      </trkpt>
      <trkpt lat="42.467171" lon="0.325776">
        <ele>1112.9</ele>
        <time>2018-06-13T10:24:05Z</time>
      </trkpt>
      <trkpt lat="42.467235" lon="0.325450">
        <ele>1117.3</ele>
        <time>2018-06-13T10:24:11Z</time>
      </trkpt>
      <trkpt lat="42.467244" lon="0.325202">
        <ele>1121.8</ele>
        <time>2018-06-13T10:24:16Z</time>
      </trkpt>
      <trkpt lat="42.467253" lon="0.325003">
        <ele>1126.5</ele>
        <time>2018-06-13T10:24:20Z</time>
      </trkpt>
      <trkpt lat="42.467295" lon="0.324804">
        <ele>1130.3</ele>
        <time>2018-06-13T10:24:24Z</time>
      </trkpt>
      <trkpt lat="42.467426" lon="0.324626">
        <ele>1131.8</ele>
        <time>2018-06-13T10:24:29Z</time>
      </trkpt>
      <trkpt lat="42.467657" lon="0.324356">
        <ele>1135.6</ele>
        <time>2018-06-13T10:24:37Z</time>
      </trkpt>
      <trkpt lat="42.467787" lon="0.324211">
        <ele>1135.6</ele>
        <time>2018-06-13T10:24:42Z</time>
      </trkpt>
      <trkpt lat="42.467898" lon="0.324085">
        <ele>1135.2</ele>
        <time>2018-06-13T10:24:46Z</time>
      </trkpt>
      <trkpt lat="42.467951" lon="0.323986">
        <ele>1135.8</ele>
        <time>2018-06-13T10:24:48Z</time>
      </trkpt>
      <trkpt lat="42.467989" lon="0.323782">
        <ele>1139.6</ele>
        <time>2018-06-13T10:24:52Z</time>
      </trkpt>
      <trkpt lat="42.468041" lon="0.323544">
        <ele>1144.6</ele>
        <time>2018-06-13T10:24:57Z</time>
      </trkpt>
      <trkpt lat="42.468149" lon="0.323227">
        <ele>1146.6</ele>
        <time>2018-06-13T10:25:04Z</time>
      </trkpt>
      <trkpt lat="42.468256" lon="0.322914">
        <ele>1147.5</ele>
        <time>2018-06-13T10:25:11Z</time>
      </trkpt>
      <trkpt lat="42.468309" lon="0.322778">
        <ele>1151.4</ele>
        <time>2018-06-13T10:25:14Z</time>
      </trkpt>
      <trkpt lat="42.468396" lon="0.322730">
        <ele>1150.8</ele>
        <time>2018-06-13T10:25:16Z</time>
      </trkpt>
      <trkpt lat="42.468560" lon="0.322672">
        <ele>1150.2</ele>
        <time>2018-06-13T10:25:21Z</time>
      </trkpt>
      <trkpt lat="42.468680" lon="0.322607">
        <ele>1151.6</ele>
        <time>2018-06-13T10:25:24Z</time>
      </trkpt>
      <trkpt lat="42.468778" lon="0.322519">
        <ele>1153.9</ele>
        <time>2018-06-13T10:25:28Z</time>
      </trkpt>
      <trkpt lat="42.468853" lon="0.322432">
        <ele>1156.3</ele>
        <time>2018-06-13T10:25:30Z</time>
      </trkpt>
      <trkpt lat="42.468885" lon="0.322322">
        <ele>1159.0</ele>
        <time>2018-06-13T10:25:33Z</time>
      </trkpt>
      <trkpt lat="42.468893" lon="0.322203">
        <ele>1161.9</ele>
        <time>2018-06-13T10:25:35Z</time>
      </trkpt>
      <trkpt lat="42.468891" lon="0.322098">
        <ele>1164.6</ele>
        <time>2018-06-13T10:25:37Z</time>
      </trkpt>
      <trkpt lat="42.468900" lon="0.321972">
        <ele>1167.8</ele>
        <time>2018-06-13T10:25:40Z</time>
      </trkpt>
      <trkpt lat="42.468920" lon="0.321876">
        <ele>1170.1</ele>
        <time>2018-06-13T10:25:42Z</time>
      </trkpt>
      <trkpt lat="42.468934" lon="0.321773">
        <ele>1172.5</ele>
        <time>2018-06-13T10:25:44Z</time>
      </trkpt>
      <trkpt lat="42.468973" lon="0.321676">
        <ele>1174.3</ele>
        <time>2018-06-13T10:25:46Z</time>
      </trkpt>
      <trkpt lat="42.469022" lon="0.321633">
        <ele>1174.5</ele>
        <time>2018-06-13T10:25:48Z</time>
      </trkpt>
      <trkpt lat="42.469065" lon="0.321669">
        <ele>1172.6</ele>
        <time>2018-06-13T10:25:49Z</time>
      </trkpt>
      <trkpt lat="42.469095" lon="0.321721">
        <ele>1170.6</ele>
        <time>2018-06-13T10:25:50Z</time>
      </trkpt>
      <trkpt lat="42.469151" lon="0.321719">
        <ele>1169.4</ele>
        <time>2018-06-13T10:25:52Z</time>
      </trkpt>
      <trkpt lat="42.469208" lon="0.321669">
        <ele>1169.2</ele>
        <time>2018-06-13T10:25:54Z</time>
      </trkpt>
      <trkpt lat="42.469280" lon="0.321549">
        <ele>1170.2</ele>
        <time>2018-06-13T10:25:57Z</time>
      </trkpt>
      <trkpt lat="42.469652" lon="0.320949">
        <ele>1181.5</ele>
        <time>2018-06-13T10:26:12Z</time>
      </trkpt>
      <trkpt lat="42.469763" lon="0.320705">
        <ele>1183.6</ele>
        <time>2018-06-13T10:26:18Z</time>
      </trkpt>
      <trkpt lat="42.469877" lon="0.320582">
        <ele>1181.5</ele>
        <time>2018-06-13T10:26:22Z</time>
      </trkpt>
      <trkpt lat="42.469944" lon="0.320421">
        <ele>1182.4</ele>
        <time>2018-06-13T10:26:25Z</time>
      </trkpt>
      <trkpt lat="42.469999" lon="0.320171">
        <ele>1184.9</ele>
        <time>2018-06-13T10:26:30Z</time>
      </trkpt>
      <trkpt lat="42.470006" lon="0.319836">
        <ele>1193.2</ele>
        <time>2018-06-13T10:26:37Z</time>
      </trkpt>
      <trkpt lat="42.470003" lon="0.319587">
        <ele>1199.7</ele>
        <time>2018-06-13T10:26:42Z</time>
      </trkpt>
      <trkpt lat="42.470006" lon="0.319498">
        <ele>1201.3</ele>
        <time>2018-06-13T10:26:44Z</time>
      </trkpt>
      <trkpt lat="42.470058" lon="0.319375">
        <ele>1200.5</ele>
        <time>2018-06-13T10:26:47Z</time>
      </trkpt>
      <trkpt lat="42.470153" lon="0.319241">
        <ele>1197.5</ele>
        <time>2018-06-13T10:26:51Z</time>
      </trkpt>
      <trkpt lat="42.470220" lon="0.319032">
        <ele>1198.7</ele>
        <time>2018-06-13T10:26:55Z</time>
      </trkpt>
      <trkpt lat="42.470294" lon="0.318763">
        <ele>1201.7</ele>
        <time>2018-06-13T10:27:01Z</time>
      </trkpt>
      <trkpt lat="42.470353" lon="0.318677">
        <ele>1202.0</ele>
        <time>2018-06-13T10:27:03Z</time>
      </trkpt>
      <trkpt lat="42.470442" lon="0.318624">
        <ele>1201.1</ele>
        <time>2018-06-13T10:27:05Z</time>
      </trkpt>
      <trkpt lat="42.470592" lon="0.318606">
        <ele>1198.3</ele>
        <time>2018-06-13T10:27:10Z</time>
      </trkpt>
      <trkpt lat="42.470718" lon="0.318597">
        <ele>1195.5</ele>
        <time>2018-06-13T10:27:13Z</time>
      </trkpt>
      <trkpt lat="42.470827" lon="0.318522">
        <ele>1193.6</ele>
        <time>2018-06-13T10:27:16Z</time>
      </trkpt>
      <trkpt lat="42.470876" lon="0.318400">
        <ele>1194.7</ele>
        <time>2018-06-13T10:27:19Z</time>
      </trkpt>
      <trkpt lat="42.470948" lon="0.318042">
        <ele>1200.8</ele>
        <time>2018-06-13T10:27:26Z</time>
      </trkpt>
      <trkpt lat="42.470974" lon="0.317901">
        <ele>1204.5</ele>
        <time>2018-06-13T10:27:29Z</time>
      </trkpt>
      <trkpt lat="42.471073" lon="0.317863">
        <ele>1204.9</ele>
        <time>2018-06-13T10:27:32Z</time>
      </trkpt>
      <trkpt lat="42.471235" lon="0.317822">
        <ele>1205.2</ele>
        <time>2018-06-13T10:27:36Z</time>
      </trkpt>
      <trkpt lat="42.471563" lon="0.317823">
        <ele>1202.9</ele>
        <time>2018-06-13T10:27:45Z</time>
      </trkpt>
      <trkpt lat="42.471808" lon="0.317697">
        <ele>1198.5</ele>
        <time>2018-06-13T10:27:52Z</time>
      </trkpt>
      <trkpt lat="42.471867" lon="0.317582">
        <ele>1199.6</ele>
        <time>2018-06-13T10:27:55Z</time>
      </trkpt>
      <trkpt lat="42.471867" lon="0.317459">
        <ele>1201.8</ele>
        <time>2018-06-13T10:27:57Z</time>
      </trkpt>
      <trkpt lat="42.471843" lon="0.317362">
        <ele>1204.0</ele>
        <time>2018-06-13T10:27:59Z</time>
      </trkpt>
      <trkpt lat="42.471795" lon="0.317263">
        <ele>1207.2</ele>
        <time>2018-06-13T10:28:02Z</time>
      </trkpt>
      <trkpt lat="42.471766" lon="0.317170">
        <ele>1210.0</ele>
        <time>2018-06-13T10:28:04Z</time>
      </trkpt>
      <trkpt lat="42.471754" lon="0.317091">
        <ele>1211.9</ele>
        <time>2018-06-13T10:28:05Z</time>
      </trkpt>
      <trkpt lat="42.471760" lon="0.317077">
        <ele>1212.0</ele>
        <time>2018-06-13T10:28:06Z</time>
      </trkpt>
      <trkpt lat="42.471772" lon="0.316985">
        <ele>1213.8</ele>
        <time>2018-06-13T10:28:08Z</time>
      </trkpt>
      <trkpt lat="42.471824" lon="0.316832">
        <ele>1216.1</ele>
        <time>2018-06-13T10:28:11Z</time>
      </trkpt>
      <trkpt lat="42.471911" lon="0.316786">
        <ele>1216.5</ele>
        <time>2018-06-13T10:28:13Z</time>
      </trkpt>
      <trkpt lat="42.472004" lon="0.316745">
        <ele>1216.9</ele>
        <time>2018-06-13T10:28:16Z</time>
      </trkpt>
      <trkpt lat="42.472102" lon="0.316676">
        <ele>1218.6</ele>
        <time>2018-06-13T10:28:19Z</time>
      </trkpt>
      <trkpt lat="42.472172" lon="0.316571">
        <ele>1222.4</ele>
        <time>2018-06-13T10:28:22Z</time>
      </trkpt>
      <trkpt lat="42.472223" lon="0.316436">
        <ele>1227.5</ele>
        <time>2018-06-13T10:28:25Z</time>
      </trkpt>
      <trkpt lat="42.472307" lon="0.316200">
        <ele>1236.3</ele>
        <time>2018-06-13T10:28:30Z</time>
      </trkpt>
      <trkpt lat="42.472394" lon="0.316123">
        <ele>1238.0</ele>
        <time>2018-06-13T10:28:33Z</time>
      </trkpt>
      <trkpt lat="42.472492" lon="0.315979">
        <ele>1240.9</ele>
        <time>2018-06-13T10:28:37Z</time>
      </trkpt>
      <trkpt lat="42.472763" lon="0.315596">
        <ele>1246.7</ele>
        <time>2018-06-13T10:28:48Z</time>
      </trkpt>
      <trkpt lat="42.473281" lon="0.314900">
        <ele>1242.9</ele>
        <time>2018-06-13T10:29:07Z</time>
      </trkpt>
      <trkpt lat="42.473362" lon="0.314726">
        <ele>1244.9</ele>
        <time>2018-06-13T10:29:11Z</time>
      </trkpt>
      <trkpt lat="42.473426" lon="0.314510">
        <ele>1248.6</ele>
        <time>2018-06-13T10:29:15Z</time>
      </trkpt>
      <trkpt lat="42.473477" lon="0.314305">
        <ele>1251.8</ele>
        <time>2018-06-13T10:29:20Z</time>
      </trkpt>
      <trkpt lat="42.473502" lon="0.314153">
        <ele>1255.3</ele>
        <time>2018-06-13T10:29:23Z</time>
      </trkpt>
      <trkpt lat="42.473593" lon="0.313854">
        <ele>1260.1</ele>
        <time>2018-06-13T10:29:29Z</time>
      </trkpt>
      <trkpt lat="42.473631" lon="0.313481">
        <ele>1265.5</ele>
        <time>2018-06-13T10:29:37Z</time>
      </trkpt>
      <trkpt lat="42.473667" lon="0.313115">
        <ele>1270.7</ele>
        <time>2018-06-13T10:29:44Z</time>
      </trkpt>
      <trkpt lat="42.473650" lon="0.312861">
        <ele>1279.3</ele>
        <time>2018-06-13T10:29:49Z</time>
      </trkpt>
      <trkpt lat="42.473621" lon="0.312551">
        <ele>1287.2</ele>
        <time>2018-06-13T10:29:56Z</time>
      </trkpt>
      <trkpt lat="42.473642" lon="0.312265">
        <ele>1296.3</ele>
        <time>2018-06-13T10:30:02Z</time>
      </trkpt>
      <trkpt lat="42.473698" lon="0.311976">
        <ele>1299.9</ele>
        <time>2018-06-13T10:30:08Z</time>
      </trkpt>
      <trkpt lat="42.473858" lon="0.311625">
        <ele>1304.6</ele>
        <time>2018-06-13T10:30:16Z</time>
      </trkpt>
      <trkpt lat="42.474063" lon="0.311336">
        <ele>1300.5</ele>
        <time>2018-06-13T10:30:24Z</time>
      </trkpt>
      <trkpt lat="42.474219" lon="0.311039">
        <ele>1303.3</ele>
        <time>2018-06-13T10:30:31Z</time>
      </trkpt>
      <trkpt lat="42.474452" lon="0.310463">
        <ele>1306.4</ele>
        <time>2018-06-13T10:30:44Z</time>
      </trkpt>
      <trkpt lat="42.474566" lon="0.309815">
        <ele>1324.0</ele>
        <time>2018-06-13T10:30:57Z</time>
      </trkpt>
      <trkpt lat="42.474689" lon="0.309477">
        <ele>1329.2</ele>
        <time>2018-06-13T10:31:05Z</time>
      </trkpt>
      <trkpt lat="42.474876" lon="0.309163">
        <ele>1332.6</ele>
        <time>2018-06-13T10:31:13Z</time>
      </trkpt>
      <trkpt lat="42.475060" lon="0.308741">
        <ele>1346.9</ele>
        <time>2018-06-13T10:31:23Z</time>
      </trkpt>
      <trkpt lat="42.475171" lon="0.308509">
        <ele>1351.0</ele>
        <time>2018-06-13T10:31:28Z</time>
      </trkpt>
      <trkpt lat="42.475218" lon="0.308372">
        <ele>1351.4</ele>
        <time>2018-06-13T10:31:31Z</time>
      </trkpt>
      <trkpt lat="42.475311" lon="0.308248">
        <ele>1348.7</ele>
        <time>2018-06-13T10:31:35Z</time>
      </trkpt>
      <trkpt lat="42.475432" lon="0.308167">
        <ele>1344.3</ele>
        <time>2018-06-13T10:31:38Z</time>
      </trkpt>
      <trkpt lat="42.475544" lon="0.308052">
        <ele>1344.5</ele>
        <time>2018-06-13T10:31:42Z</time>
      </trkpt>
      <trkpt lat="42.475670" lon="0.307910">
        <ele>1343.6</ele>
        <time>2018-06-13T10:31:46Z</time>
      </trkpt>
      <trkpt lat="42.475737" lon="0.307864">
        <ele>1343.9</ele>
        <time>2018-06-13T10:31:48Z</time>
      </trkpt>
      <trkpt lat="42.475798" lon="0.307872">
        <ele>1343.7</ele>
        <time>2018-06-13T10:31:50Z</time>
      </trkpt>
      <trkpt lat="42.475866" lon="0.307898">
        <ele>1343.3</ele>
        <time>2018-06-13T10:31:52Z</time>
      </trkpt>
      <trkpt lat="42.475888" lon="0.307961">
        <ele>1342.5</ele>
        <time>2018-06-13T10:31:53Z</time>
      </trkpt>
      <trkpt lat="42.475888" lon="0.308023">
        <ele>1341.7</ele>
        <time>2018-06-13T10:31:54Z</time>
      </trkpt>
      <trkpt lat="42.475843" lon="0.308113">
        <ele>1340.8</ele>
        <time>2018-06-13T10:31:57Z</time>
      </trkpt>
      <trkpt lat="42.475809" lon="0.308186">
        <ele>1340.3</ele>
        <time>2018-06-13T10:31:58Z</time>
      </trkpt>
      <trkpt lat="42.475758" lon="0.308355">
        <ele>1336.9</ele>
        <time>2018-06-13T10:32:02Z</time>
      </trkpt>
      <trkpt lat="42.475745" lon="0.308575">
        <ele>1334.6</ele>
        <time>2018-06-13T10:32:06Z</time>
      </trkpt>
      <trkpt lat="42.475739" lon="0.308786">
        <ele>1334.8</ele>
        <time>2018-06-13T10:32:10Z</time>
      </trkpt>
      <trkpt lat="42.475752" lon="0.308879">
        <ele>1333.8</ele>
        <time>2018-06-13T10:32:12Z</time>
      </trkpt>
      <trkpt lat="42.475812" lon="0.308916">
        <ele>1334.0</ele>
        <time>2018-06-13T10:32:14Z</time>
      </trkpt>
      <trkpt lat="42.475877" lon="0.308918">
        <ele>1334.7</ele>
        <time>2018-06-13T10:32:16Z</time>
      </trkpt>
      <trkpt lat="42.475936" lon="0.308873">
        <ele>1335.7</ele>
        <time>2018-06-13T10:32:17Z</time>
      </trkpt>
      <trkpt lat="42.475979" lon="0.308794">
        <ele>1336.8</ele>
        <time>2018-06-13T10:32:19Z</time>
      </trkpt>
      <trkpt lat="42.476201" lon="0.308433">
        <ele>1339.5</ele>
        <time>2018-06-13T10:32:29Z</time>
      </trkpt>
      <trkpt lat="42.476497" lon="0.307996">
        <ele>1345.3</ele>
        <time>2018-06-13T10:32:40Z</time>
      </trkpt>
      <trkpt lat="42.476656" lon="0.307820">
        <ele>1349.8</ele>
        <time>2018-06-13T10:32:46Z</time>
      </trkpt>
      <trkpt lat="42.476701" lon="0.307710">
        <ele>1351.4</ele>
        <time>2018-06-13T10:32:48Z</time>
      </trkpt>
      <trkpt lat="42.476730" lon="0.307467">
        <ele>1354.7</ele>
        <time>2018-06-13T10:32:53Z</time>
      </trkpt>
      <trkpt lat="42.476795" lon="0.307001">
        <ele>1360.0</ele>
        <time>2018-06-13T10:33:02Z</time>
      </trkpt>
      <trkpt lat="42.476863" lon="0.306709">
        <ele>1359.5</ele>
        <time>2018-06-13T10:33:08Z</time>
      </trkpt>
      <trkpt lat="42.476902" lon="0.306524">
        <ele>1361.1</ele>
        <time>2018-06-13T10:33:12Z</time>
      </trkpt>
      <trkpt lat="42.476909" lon="0.306243">
        <ele>1364.3</ele>
        <time>2018-06-13T10:33:18Z</time>
      </trkpt>
      <trkpt lat="42.476877" lon="0.306103">
        <ele>1365.0</ele>
        <time>2018-06-13T10:33:21Z</time>
      </trkpt>
      <trkpt lat="42.476875" lon="0.306035">
        <ele>1365.6</ele>
        <time>2018-06-13T10:33:22Z</time>
      </trkpt>
      <trkpt lat="42.476932" lon="0.305790">
        <ele>1372.9</ele>
        <time>2018-06-13T10:33:27Z</time>
      </trkpt>
      <trkpt lat="42.477181" lon="0.305138">
        <ele>1385.0</ele>
        <time>2018-06-13T10:33:42Z</time>
      </trkpt>
      <trkpt lat="42.477307" lon="0.304886">
        <ele>1385.3</ele>
        <time>2018-06-13T10:33:48Z</time>
      </trkpt>
      <trkpt lat="42.477582" lon="0.304530">
        <ele>1386.9</ele>
        <time>2018-06-13T10:33:58Z</time>
      </trkpt>
      <trkpt lat="42.477676" lon="0.304343">
        <ele>1390.2</ele>
        <time>2018-06-13T10:34:02Z</time>
      </trkpt>
      <trkpt lat="42.477843" lon="0.303880">
        <ele>1402.2</ele>
        <time>2018-06-13T10:34:13Z</time>
      </trkpt>
      <trkpt lat="42.478125" lon="0.303306">
        <ele>1412.0</ele>
        <time>2018-06-13T10:34:26Z</time>
      </trkpt>
      <trkpt lat="42.478193" lon="0.303162">
        <ele>1412.2</ele>
        <time>2018-06-13T10:34:30Z</time>
      </trkpt>
      <trkpt lat="42.478225" lon="0.303071">
        <ele>1413.1</ele>
        <time>2018-06-13T10:34:32Z</time>
      </trkpt>
      <trkpt lat="42.478218" lon="0.302910">
        <ele>1414.0</ele>
        <time>2018-06-13T10:34:35Z</time>
      </trkpt>
      <trkpt lat="42.478212" lon="0.302773">
        <ele>1415.0</ele>
        <time>2018-06-13T10:34:37Z</time>
      </trkpt>
      <trkpt lat="42.478197" lon="0.302673">
        <ele>1415.7</ele>
        <time>2018-06-13T10:34:39Z</time>
      </trkpt>
      <trkpt lat="42.478142" lon="0.302623">
        <ele>1417.5</ele>
        <time>2018-06-13T10:34:41Z</time>
      </trkpt>
      <trkpt lat="42.478095" lon="0.302657">
        <ele>1418.3</ele>
        <time>2018-06-13T10:34:43Z</time>
      </trkpt>
      <trkpt lat="42.478049" lon="0.302719">
        <ele>1418.8</ele>
        <time>2018-06-13T10:34:44Z</time>
      </trkpt>
      <trkpt lat="42.477960" lon="0.302788">
        <ele>1419.9</ele>
        <time>2018-06-13T10:34:47Z</time>
      </trkpt>
      <trkpt lat="42.477807" lon="0.302842">
        <ele>1422.7</ele>
        <time>2018-06-13T10:34:51Z</time>
      </trkpt>
      <trkpt lat="42.477713" lon="0.302870">
        <ele>1424.3</ele>
        <time>2018-06-13T10:34:54Z</time>
      </trkpt>
      <trkpt lat="42.477413" lon="0.303004">
        <ele>1429.9</ele>
        <time>2018-06-13T10:35:02Z</time>
      </trkpt>
      <trkpt lat="42.477178" lon="0.303207">
        <ele>1433.6</ele>
        <time>2018-06-13T10:35:10Z</time>
      </trkpt>
      <trkpt lat="42.477086" lon="0.303320">
        <ele>1432.8</ele>
        <time>2018-06-13T10:35:13Z</time>
      </trkpt>
      <trkpt lat="42.477024" lon="0.303396">
        <ele>1432.3</ele>
        <time>2018-06-13T10:35:15Z</time>
      </trkpt>
      <trkpt lat="42.476966" lon="0.303453">
        <ele>1432.1</ele>
        <time>2018-06-13T10:35:17Z</time>
      </trkpt>
      <trkpt lat="42.476917" lon="0.303462">
        <ele>1432.9</ele>
        <time>2018-06-13T10:35:18Z</time>
      </trkpt>
      <trkpt lat="42.476875" lon="0.303472">
        <ele>1433.5</ele>
        <time>2018-06-13T10:35:20Z</time>
      </trkpt>
      <trkpt lat="42.476833" lon="0.303426">
        <ele>1435.9</ele>
        <time>2018-06-13T10:35:21Z</time>
      </trkpt>
      <trkpt lat="42.476818" lon="0.303372">
        <ele>1437.9</ele>
        <time>2018-06-13T10:35:22Z</time>
      </trkpt>
      <trkpt lat="42.476839" lon="0.303308">
        <ele>1439.5</ele>
        <time>2018-06-13T10:35:24Z</time>
      </trkpt>
      <trkpt lat="42.476889" lon="0.303235">
        <ele>1440.4</ele>
        <time>2018-06-13T10:35:26Z</time>
      </trkpt>
      <trkpt lat="42.477047" lon="0.302814">
        <ele>1445.5</ele>
        <time>2018-06-13T10:35:35Z</time>
      </trkpt>
      <trkpt lat="42.477273" lon="0.302264">
        <ele>1450.3</ele>
        <time>2018-06-13T10:35:47Z</time>
      </trkpt>
      <trkpt lat="42.477344" lon="0.301789">
        <ele>1458.1</ele>
        <time>2018-06-13T10:35:57Z</time>
      </trkpt>
      <trkpt lat="42.477512" lon="0.301428">
        <ele>1455.4</ele>
        <time>2018-06-13T10:36:05Z</time>
      </trkpt>
      <trkpt lat="42.477592" lon="0.301246">
        <ele>1453.9</ele>
        <time>2018-06-13T10:36:09Z</time>
      </trkpt>
      <trkpt lat="42.477612" lon="0.301147">
        <ele>1454.9</ele>
        <time>2018-06-13T10:36:11Z</time>
      </trkpt>
      <trkpt lat="42.477555" lon="0.300653">
        <ele>1466.8</ele>
        <time>2018-06-13T10:36:21Z</time>
      </trkpt>
      <trkpt lat="42.477588" lon="0.300538">
        <ele>1465.2</ele>
        <time>2018-06-13T10:36:24Z</time>
      </trkpt>
      <trkpt lat="42.477655" lon="0.300464">
        <ele>1462.3</ele>
        <time>2018-06-13T10:36:26Z</time>
      </trkpt>
      <trkpt lat="42.477716" lon="0.300318">
        <ele>1460.7</ele>
        <time>2018-06-13T10:36:30Z</time>
      </trkpt>
      <trkpt lat="42.477780" lon="0.299928">
        <ele>1461.0</ele>
        <time>2018-06-13T10:36:37Z</time>
      </trkpt>
      <trkpt lat="42.477887" lon="0.299385">
        <ele>1462.4</ele>
        <time>2018-06-13T10:36:48Z</time>
      </trkpt>
      <trkpt lat="42.477946" lon="0.299186">
        <ele>1463.4</ele>
        <time>2018-06-13T10:36:52Z</time>
      </trkpt>
      <trkpt lat="42.478012" lon="0.299083">
        <ele>1464.2</ele>
        <time>2018-06-13T10:36:55Z</time>
      </trkpt>
      <trkpt lat="42.478080" lon="0.299007">
        <ele>1464.7</ele>
        <time>2018-06-13T10:36:57Z</time>
      </trkpt>
      <trkpt lat="42.478168" lon="0.298958">
        <ele>1464.8</ele>
        <time>2018-06-13T10:37:00Z</time>
      </trkpt>
      <trkpt lat="42.478235" lon="0.298946">
        <ele>1464.6</ele>
        <time>2018-06-13T10:37:02Z</time>
      </trkpt>
      <trkpt lat="42.478344" lon="0.298997">
        <ele>1463.1</ele>
        <time>2018-06-13T10:37:05Z</time>
      </trkpt>
      <trkpt lat="42.478552" lon="0.299111">
        <ele>1462.9</ele>
        <time>2018-06-13T10:37:11Z</time>
      </trkpt>
      <trkpt lat="42.478694" lon="0.299143">
        <ele>1464.8</ele>
        <time>2018-06-13T10:37:15Z</time>
      </trkpt>
      <trkpt lat="42.478783" lon="0.299107">
        <ele>1465.9</ele>
        <time>2018-06-13T10:37:17Z</time>
      </trkpt>
      <trkpt lat="42.478875" lon="0.298985">
        <ele>1466.3</ele>
        <time>2018-06-13T10:37:20Z</time>
      </trkpt>
      <trkpt lat="42.478926" lon="0.298861">
        <ele>1465.7</ele>
        <time>2018-06-13T10:37:23Z</time>
      </trkpt>
      <trkpt lat="42.478939" lon="0.298739">
        <ele>1464.9</ele>
        <time>2018-06-13T10:37:26Z</time>
      </trkpt>
      <trkpt lat="42.478951" lon="0.298616">
        <ele>1464.1</ele>
        <time>2018-06-13T10:37:28Z</time>
      </trkpt>
      <trkpt lat="42.478873" lon="0.298424">
        <ele>1465.4</ele>
        <time>2018-06-13T10:37:32Z</time>
      </trkpt>
      <trkpt lat="42.478808" lon="0.298251">
        <ele>1467.6</ele>
        <time>2018-06-13T10:37:36Z</time>
      </trkpt>
      <trkpt lat="42.478690" lon="0.298028">
        <ele>1472.4</ele>
        <time>2018-06-13T10:37:42Z</time>
      </trkpt>
      <trkpt lat="42.478587" lon="0.297894">
        <ele>1477.8</ele>
        <time>2018-06-13T10:37:46Z</time>
      </trkpt>
      <trkpt lat="42.478587" lon="0.297736">
        <ele>1478.9</ele>
        <time>2018-06-13T10:37:49Z</time>
      </trkpt>
      <trkpt lat="42.478586" lon="0.297300">
        <ele>1482.9</ele>
        <time>2018-06-13T10:37:57Z</time>
      </trkpt>
      <trkpt lat="42.478623" lon="0.297084">
        <ele>1482.9</ele>
        <time>2018-06-13T10:38:02Z</time>
      </trkpt>
      <trkpt lat="42.478714" lon="0.296688">
        <ele>1484.8</ele>
        <time>2018-06-13T10:38:10Z</time>
      </trkpt>
      <trkpt lat="42.478714" lon="0.296421">
        <ele>1489.1</ele>
        <time>2018-06-13T10:38:15Z</time>
      </trkpt>
      <trkpt lat="42.478596" lon="0.296247">
        <ele>1498.9</ele>
        <time>2018-06-13T10:38:20Z</time>
      </trkpt>
      <trkpt lat="42.478472" lon="0.296080">
        <ele>1506.6</ele>
        <time>2018-06-13T10:38:25Z</time>
      </trkpt>
      <trkpt lat="42.478430" lon="0.295943">
        <ele>1510.1</ele>
        <time>2018-06-13T10:38:28Z</time>
      </trkpt>
      <trkpt lat="42.478496" lon="0.295681">
        <ele>1510.0</ele>
        <time>2018-06-13T10:38:33Z</time>
      </trkpt>
      <trkpt lat="42.478601" lon="0.295449">
        <ele>1509.4</ele>
        <time>2018-06-13T10:38:39Z</time>
      </trkpt>
      <trkpt lat="42.478748" lon="0.295285">
        <ele>1503.5</ele>
        <time>2018-06-13T10:38:44Z</time>
      </trkpt>
      <trkpt lat="42.478814" lon="0.295107">
        <ele>1502.6</ele>
        <time>2018-06-13T10:38:48Z</time>
      </trkpt>
      <trkpt lat="42.478828" lon="0.294931">
        <ele>1503.8</ele>
        <time>2018-06-13T10:38:51Z</time>
      </trkpt>
      <trkpt lat="42.478826" lon="0.294669">
        <ele>1504.7</ele>
        <time>2018-06-13T10:38:56Z</time>
      </trkpt>
      <trkpt lat="42.478793" lon="0.294141">
        <ele>1506.8</ele>
        <time>2018-06-13T10:39:07Z</time>
      </trkpt>
      <trkpt lat="42.478756" lon="0.293758">
        <ele>1508.8</ele>
        <time>2018-06-13T10:39:14Z</time>
      </trkpt>
      <trkpt lat="42.478765" lon="0.293472">
        <ele>1511.3</ele>
        <time>2018-06-13T10:39:20Z</time>
      </trkpt>
      <trkpt lat="42.478748" lon="0.293224">
        <ele>1514.8</ele>
        <time>2018-06-13T10:39:25Z</time>
      </trkpt>
      <trkpt lat="42.478713" lon="0.292867">
        <ele>1516.9</ele>
        <time>2018-06-13T10:39:32Z</time>
      </trkpt>
      <trkpt lat="42.478665" lon="0.292583">
        <ele>1522.2</ele>
        <time>2018-06-13T10:39:38Z</time>
      </trkpt>
      <trkpt lat="42.478629" lon="0.292171">
        <ele>1534.8</ele>
        <time>2018-06-13T10:39:46Z</time>
      </trkpt>
      <trkpt lat="42.478640" lon="0.292007">
        <ele>1538.1</ele>
        <time>2018-06-13T10:39:50Z</time>
      </trkpt>
      <trkpt lat="42.478772" lon="0.291814">
        <ele>1532.2</ele>
        <time>2018-06-13T10:39:55Z</time>
      </trkpt>
      <trkpt lat="42.478918" lon="0.291631">
        <ele>1528.8</ele>
        <time>2018-06-13T10:40:00Z</time>
      </trkpt>
      <trkpt lat="42.479039" lon="0.291438">
        <ele>1529.7</ele>
        <time>2018-06-13T10:40:05Z</time>
      </trkpt>
      <trkpt lat="42.479130" lon="0.291169">
        <ele>1529.9</ele>
        <time>2018-06-13T10:40:11Z</time>
      </trkpt>
      <trkpt lat="42.479259" lon="0.290475">
        <ele>1527.9</ele>
        <time>2018-06-13T10:40:25Z</time>
      </trkpt>
      <trkpt lat="42.479425" lon="0.288743">
        <ele>1517.6</ele>
        <time>2018-06-13T10:40:59Z</time>
      </trkpt>
      <trkpt lat="42.479570" lon="0.288147">
        <ele>1501.8</ele>
        <time>2018-06-13T10:41:12Z</time>
      </trkpt>
      <trkpt lat="42.479711" lon="0.287867">
        <ele>1494.1</ele>
        <time>2018-06-13T10:41:19Z</time>
      </trkpt>
      <trkpt lat="42.479795" lon="0.287629">
        <ele>1490.0</ele>
        <time>2018-06-13T10:41:24Z</time>
      </trkpt>
      <trkpt lat="42.479707" lon="0.287525">
        <ele>1491.8</ele>
        <time>2018-06-13T10:41:27Z</time>
      </trkpt>
      <trkpt lat="42.479606" lon="0.287476">
        <ele>1495.0</ele>
        <time>2018-06-13T10:41:30Z</time>
      </trkpt>
      <trkpt lat="42.479631" lon="0.287147">
        <ele>1498.9</ele>
        <time>2018-06-13T10:41:36Z</time>
      </trkpt>
      <trkpt lat="42.479870" lon="0.286462">
        <ele>1507.7</ele>
        <time>2018-06-13T10:41:51Z</time>
      </trkpt>
      <trkpt lat="42.480029" lon="0.286128">
        <ele>1498.6</ele>
        <time>2018-06-13T10:41:59Z</time>
      </trkpt>
      <trkpt lat="42.480122" lon="0.285472">
        <ele>1490.7</ele>
        <time>2018-06-13T10:42:12Z</time>
      </trkpt>
      <trkpt lat="42.480219" lon="0.284659">
        <ele>1484.2</ele>
        <time>2018-06-13T10:42:29Z</time>
      </trkpt>
      <trkpt lat="42.480291" lon="0.284186">
        <ele>1493.9</ele>
        <time>2018-06-13T10:42:38Z</time>
      </trkpt>
      <trkpt lat="42.480411" lon="0.283812">
        <ele>1486.9</ele>
        <time>2018-06-13T10:42:46Z</time>
      </trkpt>
      <trkpt lat="42.480587" lon="0.283427">
        <ele>1477.7</ele>
        <time>2018-06-13T10:42:55Z</time>
      </trkpt>
      <trkpt lat="42.480653" lon="0.283178">
        <ele>1475.3</ele>
        <time>2018-06-13T10:43:01Z</time>
      </trkpt>
      <trkpt lat="42.480647" lon="0.282889">
        <ele>1478.5</ele>
        <time>2018-06-13T10:43:06Z</time>
      </trkpt>
      <trkpt lat="42.480628" lon="0.282689">
        <ele>1483.5</ele>
        <time>2018-06-13T10:43:10Z</time>
      </trkpt>
      <trkpt lat="42.480681" lon="0.282492">
        <ele>1489.7</ele>
        <time>2018-06-13T10:43:15Z</time>
      </trkpt>
      <trkpt lat="42.481064" lon="0.281495">
        <ele>1484.7</ele>
        <time>2018-06-13T10:43:37Z</time>
      </trkpt>
      <trkpt lat="42.481306" lon="0.280889">
        <ele>1476.1</ele>
        <time>2018-06-13T10:43:50Z</time>
      </trkpt>
      <trkpt lat="42.481428" lon="0.280402">
        <ele>1471.0</ele>
        <time>2018-06-13T10:44:00Z</time>
      </trkpt>
      <trkpt lat="42.481442" lon="0.280045">
        <ele>1473.4</ele>
        <time>2018-06-13T10:44:07Z</time>
      </trkpt>
      <trkpt lat="42.481379" lon="0.279728">
        <ele>1482.8</ele>
        <time>2018-06-13T10:44:14Z</time>
      </trkpt>
      <trkpt lat="42.481359" lon="0.279423">
        <ele>1491.8</ele>
        <time>2018-06-13T10:44:20Z</time>
      </trkpt>
      <trkpt lat="42.481342" lon="0.279221">
        <ele>1496.5</ele>
        <time>2018-06-13T10:44:25Z</time>
      </trkpt>
      <trkpt lat="42.481421" lon="0.278952">
        <ele>1494.1</ele>
        <time>2018-06-13T10:44:30Z</time>
      </trkpt>
      <trkpt lat="42.481474" lon="0.278739">
        <ele>1493.0</ele>
        <time>2018-06-13T10:44:35Z</time>
      </trkpt>
      <trkpt lat="42.481523" lon="0.278424">
        <ele>1494.4</ele>
        <time>2018-06-13T10:44:41Z</time>
      </trkpt>
      <trkpt lat="42.481531" lon="0.278034">
        <ele>1498.9</ele>
        <time>2018-06-13T10:44:49Z</time>
      </trkpt>
      <trkpt lat="42.481531" lon="0.277430">
        <ele>1508.6</ele>
        <time>2018-06-13T10:45:01Z</time>
      </trkpt>
      <trkpt lat="42.481558" lon="0.276902">
        <ele>1499.6</ele>
        <time>2018-06-13T10:45:11Z</time>
      </trkpt>
      <trkpt lat="42.481514" lon="0.276474">
        <ele>1494.1</ele>
        <time>2018-06-13T10:45:20Z</time>
      </trkpt>
      <trkpt lat="42.481457" lon="0.276238">
        <ele>1494.7</ele>
        <time>2018-06-13T10:45:24Z</time>
      </trkpt>
      <trkpt lat="42.481276" lon="0.276043">
        <ele>1503.9</ele>
        <time>2018-06-13T10:45:31Z</time>
      </trkpt>
      <trkpt lat="42.481151" lon="0.275962">
        <ele>1512.9</ele>
        <time>2018-06-13T10:45:35Z</time>
      </trkpt>
      <trkpt lat="42.481054" lon="0.275929">
        <ele>1520.4</ele>
        <time>2018-06-13T10:45:38Z</time>
      </trkpt>
      <trkpt lat="42.481012" lon="0.275817">
        <ele>1523.1</ele>
        <time>2018-06-13T10:45:41Z</time>
      </trkpt>
      <trkpt lat="42.481012" lon="0.275663">
        <ele>1522.4</ele>
        <time>2018-06-13T10:45:44Z</time>
      </trkpt>
      <trkpt lat="42.481093" lon="0.275492">
        <ele>1517.4</ele>
        <time>2018-06-13T10:45:48Z</time>
      </trkpt>
      <trkpt lat="42.481203" lon="0.275315">
        <ele>1511.4</ele>
        <time>2018-06-13T10:45:53Z</time>
      </trkpt>
      <trkpt lat="42.481244" lon="0.275168">
        <ele>1508.4</ele>
        <time>2018-06-13T10:45:56Z</time>
      </trkpt>
      <trkpt lat="42.481271" lon="0.274869">
        <ele>1504.5</ele>
        <time>2018-06-13T10:46:02Z</time>
      </trkpt>
      <trkpt lat="42.481285" lon="0.274591">
        <ele>1499.2</ele>
        <time>2018-06-13T10:46:07Z</time>
      </trkpt>
      <trkpt lat="42.481239" lon="0.274244">
        <ele>1492.0</ele>
        <time>2018-06-13T10:46:14Z</time>
      </trkpt>
      <trkpt lat="42.481152" lon="0.273832">
        <ele>1493.2</ele>
        <time>2018-06-13T10:46:23Z</time>
      </trkpt>
      <trkpt lat="42.481095" lon="0.273536">
        <ele>1499.7</ele>
        <time>2018-06-13T10:46:29Z</time>
      </trkpt>
      <trkpt lat="42.481095" lon="0.273365">
        <ele>1498.8</ele>
        <time>2018-06-13T10:46:32Z</time>
      </trkpt>
      <trkpt lat="42.481122" lon="0.273206">
        <ele>1494.5</ele>
        <time>2018-06-13T10:46:36Z</time>
      </trkpt>
      <trkpt lat="42.481134" lon="0.273049">
        <ele>1490.6</ele>
        <time>2018-06-13T10:46:39Z</time>
      </trkpt>
      <trkpt lat="42.481147" lon="0.272688">
        <ele>1483.4</ele>
        <time>2018-06-13T10:46:46Z</time>
      </trkpt>
      <trkpt lat="42.481118" lon="0.272474">
        <ele>1483.8</ele>
        <time>2018-06-13T10:46:50Z</time>
      </trkpt>
      <trkpt lat="42.481075" lon="0.272316">
        <ele>1485.5</ele>
        <time>2018-06-13T10:46:54Z</time>
      </trkpt>
      <trkpt lat="42.481018" lon="0.272080">
        <ele>1488.1</ele>
        <time>2018-06-13T10:46:58Z</time>
      </trkpt>
      <trkpt lat="42.481029" lon="0.271859">
        <ele>1490.6</ele>
        <time>2018-06-13T10:47:03Z</time>
      </trkpt>
      <trkpt lat="42.481055" lon="0.271650">
        <ele>1492.6</ele>
        <time>2018-06-13T10:47:07Z</time>
      </trkpt>
      <trkpt lat="42.481066" lon="0.271428">
        <ele>1495.7</ele>
        <time>2018-06-13T10:47:11Z</time>
      </trkpt>
      <trkpt lat="42.481037" lon="0.271252">
        <ele>1500.8</ele>
        <time>2018-06-13T10:47:15Z</time>
      </trkpt>
      <trkpt lat="42.481078" lon="0.271088">
        <ele>1502.2</ele>
        <time>2018-06-13T10:47:18Z</time>
      </trkpt>
      <trkpt lat="42.481188" lon="0.270816">
        <ele>1499.1</ele>
        <time>2018-06-13T10:47:25Z</time>
      </trkpt>
      <trkpt lat="42.481311" lon="0.270383">
        <ele>1496.8</ele>
        <time>2018-06-13T10:47:34Z</time>
      </trkpt>
      <trkpt lat="42.481436" lon="0.269908">
        <ele>1492.6</ele>
        <time>2018-06-13T10:47:44Z</time>
      </trkpt>
      <trkpt lat="42.481592" lon="0.269361">
        <ele>1481.7</ele>
        <time>2018-06-13T10:47:55Z</time>
      </trkpt>
      <trkpt lat="42.481636" lon="0.269052">
        <ele>1473.8</ele>
        <time>2018-06-13T10:48:02Z</time>
      </trkpt>
      <trkpt lat="42.481594" lon="0.268742">
        <ele>1472.4</ele>
        <time>2018-06-13T10:48:08Z</time>
      </trkpt>
      <trkpt lat="42.481540" lon="0.268296">
        <ele>1473.7</ele>
        <time>2018-06-13T10:48:17Z</time>
      </trkpt>
      <trkpt lat="42.481526" lon="0.268121">
        <ele>1476.2</ele>
        <time>2018-06-13T10:48:20Z</time>
      </trkpt>
      <trkpt lat="42.481646" lon="0.267863">
        <ele>1472.5</ele>
        <time>2018-06-13T10:48:26Z</time>
      </trkpt>
      <trkpt lat="42.481734" lon="0.267671">
        <ele>1468.4</ele>
        <time>2018-06-13T10:48:31Z</time>
      </trkpt>
      <trkpt lat="42.481837" lon="0.267302">
        <ele>1464.5</ele>
        <time>2018-06-13T10:48:38Z</time>
      </trkpt>
      <trkpt lat="42.481954" lon="0.267051">
        <ele>1458.5</ele>
        <time>2018-06-13T10:48:44Z</time>
      </trkpt>
      <trkpt lat="42.482058" lon="0.266784">
        <ele>1449.6</ele>
        <time>2018-06-13T10:48:51Z</time>
      </trkpt>
      <trkpt lat="42.482148" lon="0.266610">
        <ele>1444.1</ele>
        <time>2018-06-13T10:48:55Z</time>
      </trkpt>
      <trkpt lat="42.482148" lon="0.266465">
        <ele>1441.7</ele>
        <time>2018-06-13T10:48:58Z</time>
      </trkpt>
      <trkpt lat="42.482078" lon="0.266201">
        <ele>1440.1</ele>
        <time>2018-06-13T10:49:03Z</time>
      </trkpt>
      <trkpt lat="42.481882" lon="0.265588">
        <ele>1450.3</ele>
        <time>2018-06-13T10:49:16Z</time>
      </trkpt>
      <trkpt lat="42.481792" lon="0.264848">
        <ele>1446.8</ele>
        <time>2018-06-13T10:49:31Z</time>
      </trkpt>
      <trkpt lat="42.481656" lon="0.264282">
        <ele>1452.8</ele>
        <time>2018-06-13T10:49:43Z</time>
      </trkpt>
      <trkpt lat="42.481614" lon="0.264087">
        <ele>1456.3</ele>
        <time>2018-06-13T10:49:47Z</time>
      </trkpt>
      <trkpt lat="42.481589" lon="0.263891">
        <ele>1459.6</ele>
        <time>2018-06-13T10:49:51Z</time>
      </trkpt>
      <trkpt lat="42.481711" lon="0.263610">
        <ele>1451.3</ele>
        <time>2018-06-13T10:49:57Z</time>
      </trkpt>
      <trkpt lat="42.481788" lon="0.263352">
        <ele>1445.7</ele>
        <time>2018-06-13T10:50:03Z</time>
      </trkpt>
      <trkpt lat="42.481838" lon="0.263117">
        <ele>1442.7</ele>
        <time>2018-06-13T10:50:08Z</time>
      </trkpt>
      <trkpt lat="42.481810" lon="0.262953">
        <ele>1441.3</ele>
        <time>2018-06-13T10:50:11Z</time>
      </trkpt>
      <trkpt lat="42.481711" lon="0.262767">
        <ele>1441.8</ele>
        <time>2018-06-13T10:50:16Z</time>
      </trkpt>
      <trkpt lat="42.481611" lon="0.262601">
        <ele>1441.3</ele>
        <time>2018-06-13T10:50:20Z</time>
      </trkpt>
      <trkpt lat="42.481524" lon="0.262470">
        <ele>1440.9</ele>
        <time>2018-06-13T10:50:23Z</time>
      </trkpt>
      <trkpt lat="42.481316" lon="0.262220">
        <ele>1447.0</ele>
        <time>2018-06-13T10:50:31Z</time>
      </trkpt>
      <trkpt lat="42.481244" lon="0.262012">
        <ele>1447.1</ele>
        <time>2018-06-13T10:50:35Z</time>
      </trkpt>
      <trkpt lat="42.481191" lon="0.261654">
        <ele>1447.7</ele>
        <time>2018-06-13T10:50:42Z</time>
      </trkpt>
      <trkpt lat="42.481183" lon="0.261340">
        <ele>1445.5</ele>
        <time>2018-06-13T10:50:48Z</time>
      </trkpt>
      <trkpt lat="42.481220" lon="0.261014">
        <ele>1440.8</ele>
        <time>2018-06-13T10:50:55Z</time>
      </trkpt>
      <trkpt lat="42.481186" lon="0.260732">
        <ele>1437.4</ele>
        <time>2018-06-13T10:51:01Z</time>
      </trkpt>
      <trkpt lat="42.481121" lon="0.260515">
        <ele>1435.9</ele>
        <time>2018-06-13T10:51:05Z</time>
      </trkpt>
      <trkpt lat="42.481039" lon="0.260282">
        <ele>1433.7</ele>
        <time>2018-06-13T10:51:10Z</time>
      </trkpt>
      <trkpt lat="42.480882" lon="0.260147">
        <ele>1438.1</ele>
        <time>2018-06-13T10:51:15Z</time>
      </trkpt>
      <trkpt lat="42.480769" lon="0.260040">
        <ele>1443.0</ele>
        <time>2018-06-13T10:51:19Z</time>
      </trkpt>
      <trkpt lat="42.480628" lon="0.259884">
        <ele>1449.8</ele>
        <time>2018-06-13T10:51:24Z</time>
      </trkpt>
      <trkpt lat="42.480564" lon="0.259609">
        <ele>1450.8</ele>
        <time>2018-06-13T10:51:30Z</time>
      </trkpt>
      <trkpt lat="42.480532" lon="0.259207">
        <ele>1449.0</ele>
        <time>2018-06-13T10:51:38Z</time>
      </trkpt>
      <trkpt lat="42.480479" lon="0.258955">
        <ele>1448.5</ele>
        <time>2018-06-13T10:51:43Z</time>
      </trkpt>
      <trkpt lat="42.480392" lon="0.258758">
        <ele>1448.9</ele>
        <time>2018-06-13T10:51:47Z</time>
      </trkpt>
      <trkpt lat="42.480291" lon="0.258658">
        <ele>1451.1</ele>
        <time>2018-06-13T10:51:50Z</time>
      </trkpt>
      <trkpt lat="42.480093" lon="0.258438">
        <ele>1458.1</ele>
        <time>2018-06-13T10:51:57Z</time>
      </trkpt>
      <trkpt lat="42.479980" lon="0.258325">
        <ele>1466.5</ele>
        <time>2018-06-13T10:52:02Z</time>
      </trkpt>
      <trkpt lat="42.479885" lon="0.258064">
        <ele>1473.7</ele>
        <time>2018-06-13T10:52:08Z</time>
      </trkpt>
      <trkpt lat="42.479858" lon="0.257799">
        <ele>1473.5</ele>
        <time>2018-06-13T10:52:13Z</time>
      </trkpt>
      <trkpt lat="42.479902" lon="0.257544">
        <ele>1469.0</ele>
        <time>2018-06-13T10:52:18Z</time>
      </trkpt>
      <trkpt lat="42.480061" lon="0.257177">
        <ele>1459.2</ele>
        <time>2018-06-13T10:52:27Z</time>
      </trkpt>
      <trkpt lat="42.480161" lon="0.256983">
        <ele>1453.0</ele>
        <time>2018-06-13T10:52:31Z</time>
      </trkpt>
      <trkpt lat="42.480261" lon="0.256826">
        <ele>1449.5</ele>
        <time>2018-06-13T10:52:36Z</time>
      </trkpt>
      <trkpt lat="42.480333" lon="0.256674">
        <ele>1446.1</ele>
        <time>2018-06-13T10:52:39Z</time>
      </trkpt>
      <trkpt lat="42.480291" lon="0.256533">
        <ele>1446.1</ele>
        <time>2018-06-13T10:52:42Z</time>
      </trkpt>
      <trkpt lat="42.480113" lon="0.256239">
        <ele>1451.9</ele>
        <time>2018-06-13T10:52:50Z</time>
      </trkpt>
      <trkpt lat="42.479973" lon="0.255985">
        <ele>1456.1</ele>
        <time>2018-06-13T10:52:56Z</time>
      </trkpt>
      <trkpt lat="42.479844" lon="0.255611">
        <ele>1458.3</ele>
        <time>2018-06-13T10:53:04Z</time>
      </trkpt>
      <trkpt lat="42.479834" lon="0.255356">
        <ele>1456.0</ele>
        <time>2018-06-13T10:53:09Z</time>
      </trkpt>
      <trkpt lat="42.479837" lon="0.255134">
        <ele>1454.0</ele>
        <time>2018-06-13T10:53:13Z</time>
      </trkpt>
      <trkpt lat="42.479885" lon="0.254861">
        <ele>1451.3</ele>
        <time>2018-06-13T10:53:19Z</time>
      </trkpt>
      <trkpt lat="42.479966" lon="0.254444">
        <ele>1448.2</ele>
        <time>2018-06-13T10:53:27Z</time>
      </trkpt>
      <trkpt lat="42.479973" lon="0.253931">
        <ele>1441.0</ele>
        <time>2018-06-13T10:53:37Z</time>
      </trkpt>
      <trkpt lat="42.479980" lon="0.253606">
        <ele>1434.7</ele>
        <time>2018-06-13T10:53:44Z</time>
      </trkpt>
      <trkpt lat="42.479913" lon="0.253142">
        <ele>1430.3</ele>
        <time>2018-06-13T10:53:53Z</time>
      </trkpt>
      <trkpt lat="42.479726" lon="0.252734">
        <ele>1430.2</ele>
        <time>2018-06-13T10:54:03Z</time>
      </trkpt>
      <trkpt lat="42.479601" lon="0.252475">
        <ele>1430.6</ele>
        <time>2018-06-13T10:54:09Z</time>
      </trkpt>
      <trkpt lat="42.479504" lon="0.252285">
        <ele>1432.2</ele>
        <time>2018-06-13T10:54:13Z</time>
      </trkpt>
      <trkpt lat="42.479394" lon="0.252080">
        <ele>1434.1</ele>
        <time>2018-06-13T10:54:18Z</time>
      </trkpt>
      <trkpt lat="42.479257" lon="0.251807">
        <ele>1435.8</ele>
        <time>2018-06-13T10:54:24Z</time>
      </trkpt>
      <trkpt lat="42.479176" lon="0.251596">
        <ele>1436.7</ele>
        <time>2018-06-13T10:54:29Z</time>
      </trkpt>
      <trkpt lat="42.479123" lon="0.251417">
        <ele>1436.2</ele>
        <time>2018-06-13T10:54:33Z</time>
      </trkpt>
      <trkpt lat="42.479041" lon="0.251217">
        <ele>1435.9</ele>
        <time>2018-06-13T10:54:37Z</time>
      </trkpt>
      <trkpt lat="42.478973" lon="0.251018">
        <ele>1435.6</ele>
        <time>2018-06-13T10:54:42Z</time>
      </trkpt>
      <trkpt lat="42.478916" lon="0.250808">
        <ele>1436.4</ele>
        <time>2018-06-13T10:54:46Z</time>
      </trkpt>
      <trkpt lat="42.478917" lon="0.250575">
        <ele>1434.5</ele>
        <time>2018-06-13T10:54:51Z</time>
      </trkpt>
      <trkpt lat="42.478998" lon="0.250419">
        <ele>1430.1</ele>
        <time>2018-06-13T10:54:54Z</time>
      </trkpt>
      <trkpt lat="42.479071" lon="0.250287">
        <ele>1424.7</ele>
        <time>2018-06-13T10:54:58Z</time>
      </trkpt>
      <trkpt lat="42.479115" lon="0.250139">
        <ele>1420.2</ele>
        <time>2018-06-13T10:55:01Z</time>
      </trkpt>
      <trkpt lat="42.479107" lon="0.249979">
        <ele>1419.8</ele>
        <time>2018-06-13T10:55:04Z</time>
      </trkpt>
      <trkpt lat="42.479035" lon="0.249881">
        <ele>1422.7</ele>
        <time>2018-06-13T10:55:07Z</time>
      </trkpt>
      <trkpt lat="42.479000" lon="0.249752">
        <ele>1426.1</ele>
        <time>2018-06-13T10:55:10Z</time>
      </trkpt>
      <trkpt lat="42.479017" lon="0.249598">
        <ele>1426.7</ele>
        <time>2018-06-13T10:55:13Z</time>
      </trkpt>
      <trkpt lat="42.479090" lon="0.249253">
        <ele>1430.4</ele>
        <time>2018-06-13T10:55:20Z</time>
      </trkpt>
      <trkpt lat="42.479146" lon="0.249062">
        <ele>1430.7</ele>
        <time>2018-06-13T10:55:24Z</time>
      </trkpt>
      <trkpt lat="42.479191" lon="0.248907">
        <ele>1428.8</ele>
        <time>2018-06-13T10:55:27Z</time>
      </trkpt>
      <trkpt lat="42.479221" lon="0.248722">
        <ele>1427.7</ele>
        <time>2018-06-13T10:55:31Z</time>
      </trkpt>
      <trkpt lat="42.479249" lon="0.248500">
        <ele>1428.0</ele>
        <time>2018-06-13T10:55:35Z</time>
      </trkpt>
      <trkpt lat="42.479249" lon="0.248334">
        <ele>1429.4</ele>
        <time>2018-06-13T10:55:39Z</time>
      </trkpt>
      <trkpt lat="42.479333" lon="0.248153">
        <ele>1424.3</ele>
        <time>2018-06-13T10:55:43Z</time>
      </trkpt>
      <trkpt lat="42.479433" lon="0.247931">
        <ele>1420.1</ele>
        <time>2018-06-13T10:55:48Z</time>
      </trkpt>
      <trkpt lat="42.479506" lon="0.247730">
        <ele>1415.9</ele>
        <time>2018-06-13T10:55:52Z</time>
      </trkpt>
      <trkpt lat="42.479543" lon="0.247487">
        <ele>1412.1</ele>
        <time>2018-06-13T10:55:57Z</time>
      </trkpt>
      <trkpt lat="42.479543" lon="0.247310">
        <ele>1408.7</ele>
        <time>2018-06-13T10:56:01Z</time>
      </trkpt>
      <trkpt lat="42.479497" lon="0.247056">
        <ele>1403.6</ele>
        <time>2018-06-13T10:56:06Z</time>
      </trkpt>
      <trkpt lat="42.479354" lon="0.246635">
        <ele>1401.9</ele>
        <time>2018-06-13T10:56:15Z</time>
      </trkpt>
      <trkpt lat="42.479264" lon="0.246324">
        <ele>1398.5</ele>
        <time>2018-06-13T10:56:22Z</time>
      </trkpt>
      <trkpt lat="42.479211" lon="0.246128">
        <ele>1397.1</ele>
        <time>2018-06-13T10:56:26Z</time>
      </trkpt>
      <trkpt lat="42.479168" lon="0.245943">
        <ele>1396.1</ele>
        <time>2018-06-13T10:56:30Z</time>
      </trkpt>
      <trkpt lat="42.479186" lon="0.245727">
        <ele>1392.4</ele>
        <time>2018-06-13T10:56:34Z</time>
      </trkpt>
      <trkpt lat="42.479247" lon="0.245220">
        <ele>1388.6</ele>
        <time>2018-06-13T10:56:44Z</time>
      </trkpt>
      <trkpt lat="42.479301" lon="0.244974">
        <ele>1384.3</ele>
        <time>2018-06-13T10:56:49Z</time>
      </trkpt>
      <trkpt lat="42.479355" lon="0.244763">
        <ele>1381.5</ele>
        <time>2018-06-13T10:56:53Z</time>
      </trkpt>
      <trkpt lat="42.479362" lon="0.244401">
        <ele>1379.6</ele>
        <time>2018-06-13T10:57:01Z</time>
      </trkpt>
      <trkpt lat="42.479376" lon="0.244102">
        <ele>1380.8</ele>
        <time>2018-06-13T10:57:06Z</time>
      </trkpt>
      <trkpt lat="42.479420" lon="0.243921">
        <ele>1381.3</ele>
        <time>2018-06-13T10:57:10Z</time>
      </trkpt>
      <trkpt lat="42.479491" lon="0.243679">
        <ele>1381.2</ele>
        <time>2018-06-13T10:57:15Z</time>
      </trkpt>
      <trkpt lat="42.479491" lon="0.243479">
        <ele>1382.0</ele>
        <time>2018-06-13T10:57:19Z</time>
      </trkpt>
      <trkpt lat="42.479491" lon="0.243205">
        <ele>1382.6</ele>
        <time>2018-06-13T10:57:24Z</time>
      </trkpt>
      <trkpt lat="42.479635" lon="0.243161">
        <ele>1377.3</ele>
        <time>2018-06-13T10:57:29Z</time>
      </trkpt>
      <trkpt lat="42.479711" lon="0.243129">
        <ele>1374.9</ele>
        <time>2018-06-13T10:57:31Z</time>
      </trkpt>
      <trkpt lat="42.479770" lon="0.242986">
        <ele>1373.7</ele>
        <time>2018-06-13T10:57:34Z</time>
      </trkpt>
      <trkpt lat="42.479844" lon="0.242780">
        <ele>1372.4</ele>
        <time>2018-06-13T10:57:38Z</time>
      </trkpt>
      <trkpt lat="42.479903" lon="0.242516">
        <ele>1370.6</ele>
        <time>2018-06-13T10:57:44Z</time>
      </trkpt>
      <trkpt lat="42.480089" lon="0.242096">
        <ele>1365.3</ele>
        <time>2018-06-13T10:57:53Z</time>
      </trkpt>
      <trkpt lat="42.480234" lon="0.241842">
        <ele>1360.7</ele>
        <time>2018-06-13T10:58:00Z</time>
      </trkpt>
      <trkpt lat="42.480369" lon="0.241533">
        <ele>1354.3</ele>
        <time>2018-06-13T10:58:07Z</time>
      </trkpt>
      <trkpt lat="42.480435" lon="0.241323">
        <ele>1350.5</ele>
        <time>2018-06-13T10:58:11Z</time>
      </trkpt>
      <trkpt lat="42.480465" lon="0.241204">
        <ele>1348.8</ele>
        <time>2018-06-13T10:58:14Z</time>
      </trkpt>
      <trkpt lat="42.480415" lon="0.241089">
        <ele>1348.3</ele>
        <time>2018-06-13T10:58:17Z</time>
      </trkpt>
      <trkpt lat="42.480325" lon="0.241017">
        <ele>1349.2</ele>
        <time>2018-06-13T10:58:19Z</time>
      </trkpt>
      <trkpt lat="42.480178" lon="0.241000">
        <ele>1351.7</ele>
        <time>2018-06-13T10:58:23Z</time>
      </trkpt>
      <trkpt lat="42.480120" lon="0.240963">
        <ele>1352.7</ele>
        <time>2018-06-13T10:58:25Z</time>
      </trkpt>
      <trkpt lat="42.480070" lon="0.240850">
        <ele>1354.4</ele>
        <time>2018-06-13T10:58:28Z</time>
      </trkpt>
      <trkpt lat="42.480059" lon="0.240685">
        <ele>1354.6</ele>
        <time>2018-06-13T10:58:31Z</time>
      </trkpt>
      <trkpt lat="42.480059" lon="0.240516">
        <ele>1355.0</ele>
        <time>2018-06-13T10:58:34Z</time>
      </trkpt>
      <trkpt lat="42.480029" lon="0.240311">
        <ele>1357.1</ele>
        <time>2018-06-13T10:58:38Z</time>
      </trkpt>
      <trkpt lat="42.479998" lon="0.240145">
        <ele>1359.5</ele>
        <time>2018-06-13T10:58:42Z</time>
      </trkpt>
      <trkpt lat="42.479978" lon="0.240004">
        <ele>1361.7</ele>
        <time>2018-06-13T10:58:44Z</time>
      </trkpt>
      <trkpt lat="42.479960" lon="0.239902">
        <ele>1363.6</ele>
        <time>2018-06-13T10:58:46Z</time>
      </trkpt>
      <trkpt lat="42.479978" lon="0.239730">
        <ele>1364.0</ele>
        <time>2018-06-13T10:58:50Z</time>
      </trkpt>
      <trkpt lat="42.479998" lon="0.239569">
        <ele>1364.2</ele>
        <time>2018-06-13T10:58:53Z</time>
      </trkpt>
      <trkpt lat="42.480043" lon="0.239176">
        <ele>1365.2</ele>
        <time>2018-06-13T10:59:01Z</time>
      </trkpt>
      <trkpt lat="42.480050" lon="0.238919">
        <ele>1367.0</ele>
        <time>2018-06-13T10:59:06Z</time>
      </trkpt>
      <trkpt lat="42.480106" lon="0.238729">
        <ele>1366.5</ele>
        <time>2018-06-13T10:59:10Z</time>
      </trkpt>
      <trkpt lat="42.480142" lon="0.238579">
        <ele>1367.3</ele>
        <time>2018-06-13T10:59:13Z</time>
      </trkpt>
      <trkpt lat="42.480159" lon="0.238359">
        <ele>1369.2</ele>
        <time>2018-06-13T10:59:17Z</time>
      </trkpt>
      <trkpt lat="42.480174" lon="0.238060">
        <ele>1371.0</ele>
        <time>2018-06-13T10:59:23Z</time>
      </trkpt>
      <trkpt lat="42.480230" lon="0.237693">
        <ele>1372.6</ele>
        <time>2018-06-13T10:59:30Z</time>
      </trkpt>
      <trkpt lat="42.480284" lon="0.237452">
        <ele>1374.8</ele>
        <time>2018-06-13T10:59:35Z</time>
      </trkpt>
      <trkpt lat="42.480393" lon="0.237239">
        <ele>1373.5</ele>
        <time>2018-06-13T10:59:40Z</time>
      </trkpt>
      <trkpt lat="42.480487" lon="0.236992">
        <ele>1372.9</ele>
        <time>2018-06-13T10:59:46Z</time>
      </trkpt>
      <trkpt lat="42.480570" lon="0.236799">
        <ele>1369.9</ele>
        <time>2018-06-13T10:59:50Z</time>
      </trkpt>
      <trkpt lat="42.480596" lon="0.236581">
        <ele>1370.0</ele>
        <time>2018-06-13T10:59:54Z</time>
      </trkpt>
      <trkpt lat="42.480651" lon="0.236428">
        <ele>1366.2</ele>
        <time>2018-06-13T10:59:58Z</time>
      </trkpt>
      <trkpt lat="42.480787" lon="0.236083">
        <ele>1362.6</ele>
        <time>2018-06-13T11:00:06Z</time>
      </trkpt>
      <trkpt lat="42.480909" lon="0.235621">
        <ele>1363.1</ele>
        <time>2018-06-13T11:00:15Z</time>
      </trkpt>
      <trkpt lat="42.481044" lon="0.235280">
        <ele>1365.5</ele>
        <time>2018-06-13T11:00:23Z</time>
      </trkpt>
      <trkpt lat="42.481098" lon="0.235075">
        <ele>1367.0</ele>
        <time>2018-06-13T11:00:27Z</time>
      </trkpt>
      <trkpt lat="42.481095" lon="0.234750">
        <ele>1368.9</ele>
        <time>2018-06-13T11:00:33Z</time>
      </trkpt>
      <trkpt lat="42.481121" lon="0.234442">
        <ele>1370.5</ele>
        <time>2018-06-13T11:00:39Z</time>
      </trkpt>
      <trkpt lat="42.481159" lon="0.234116">
        <ele>1372.2</ele>
        <time>2018-06-13T11:00:46Z</time>
      </trkpt>
      <trkpt lat="42.481240" lon="0.233749">
        <ele>1374.3</ele>
        <time>2018-06-13T11:00:53Z</time>
      </trkpt>
      <trkpt lat="42.481418" lon="0.233478">
        <ele>1375.9</ele>
        <time>2018-06-13T11:01:00Z</time>
      </trkpt>
      <trkpt lat="42.481699" lon="0.232995">
        <ele>1378.3</ele>
        <time>2018-06-13T11:01:12Z</time>
      </trkpt>
      <trkpt lat="42.481870" lon="0.232765">
        <ele>1379.2</ele>
        <time>2018-06-13T11:01:19Z</time>
      </trkpt>
      <trkpt lat="42.481999" lon="0.232558">
        <ele>1380.3</ele>
        <time>2018-06-13T11:01:24Z</time>
      </trkpt>
      <trkpt lat="42.482069" lon="0.232306">
        <ele>1381.7</ele>
        <time>2018-06-13T11:01:29Z</time>
      </trkpt>
      <trkpt lat="42.482126" lon="0.232019">
        <ele>1383.7</ele>
        <time>2018-06-13T11:01:35Z</time>
      </trkpt>
      <trkpt lat="42.482146" lon="0.231549">
        <ele>1383.6</ele>
        <time>2018-06-13T11:01:44Z</time>
      </trkpt>
      <trkpt lat="42.482103" lon="0.231165">
        <ele>1386.7</ele>
        <time>2018-06-13T11:01:52Z</time>
      </trkpt>
      <trkpt lat="42.481992" lon="0.230850">
        <ele>1389.4</ele>
        <time>2018-06-13T11:01:59Z</time>
      </trkpt>
      <trkpt lat="42.481883" lon="0.230645">
        <ele>1390.6</ele>
        <time>2018-06-13T11:02:04Z</time>
      </trkpt>
      <trkpt lat="42.481747" lon="0.230415">
        <ele>1391.5</ele>
        <time>2018-06-13T11:02:09Z</time>
      </trkpt>
      <trkpt lat="42.481619" lon="0.230304">
        <ele>1395.6</ele>
        <time>2018-06-13T11:02:13Z</time>
      </trkpt>
      <trkpt lat="42.481560" lon="0.230200">
        <ele>1397.8</ele>
        <time>2018-06-13T11:02:16Z</time>
      </trkpt>
      <trkpt lat="42.481508" lon="0.230086">
        <ele>1401.0</ele>
        <time>2018-06-13T11:02:19Z</time>
      </trkpt>
      <trkpt lat="42.481518" lon="0.229976">
        <ele>1403.1</ele>
        <time>2018-06-13T11:02:21Z</time>
      </trkpt>
      <trkpt lat="42.481613" lon="0.229840">
        <ele>1404.2</ele>
        <time>2018-06-13T11:02:25Z</time>
      </trkpt>
      <trkpt lat="42.481717" lon="0.229752">
        <ele>1404.8</ele>
        <time>2018-06-13T11:02:28Z</time>
      </trkpt>
      <trkpt lat="42.481804" lon="0.229699">
        <ele>1403.1</ele>
        <time>2018-06-13T11:02:30Z</time>
      </trkpt>
      <trkpt lat="42.481838" lon="0.229612">
        <ele>1404.4</ele>
        <time>2018-06-13T11:02:32Z</time>
      </trkpt>
      <trkpt lat="42.481874" lon="0.229466">
        <ele>1407.7</ele>
        <time>2018-06-13T11:02:35Z</time>
      </trkpt>
      <trkpt lat="42.481950" lon="0.229243">
        <ele>1413.0</ele>
        <time>2018-06-13T11:02:40Z</time>
      </trkpt>
      <trkpt lat="42.482036" lon="0.229248">
        <ele>1409.9</ele>
        <time>2018-06-13T11:02:43Z</time>
      </trkpt>
      <trkpt lat="42.482107" lon="0.229325">
        <ele>1405.1</ele>
        <time>2018-06-13T11:02:45Z</time>
      </trkpt>
      <trkpt lat="42.482117" lon="0.229434">
        <ele>1401.8</ele>
        <time>2018-06-13T11:02:48Z</time>
      </trkpt>
      <trkpt lat="42.482171" lon="0.229547">
        <ele>1397.8</ele>
        <time>2018-06-13T11:02:51Z</time>
      </trkpt>
      <trkpt lat="42.482243" lon="0.229567">
        <ele>1396.2</ele>
        <time>2018-06-13T11:02:52Z</time>
      </trkpt>
      <trkpt lat="42.482342" lon="0.229561">
        <ele>1394.9</ele>
        <time>2018-06-13T11:02:55Z</time>
      </trkpt>
      <trkpt lat="42.482484" lon="0.229456">
        <ele>1400.0</ele>
        <time>2018-06-13T11:03:00Z</time>
      </trkpt>
      <trkpt lat="42.483029" lon="0.229000">
        <ele>1420.8</ele>
        <time>2018-06-13T11:03:17Z</time>
      </trkpt>
      <trkpt lat="42.483089" lon="0.228912">
        <ele>1420.0</ele>
        <time>2018-06-13T11:03:20Z</time>
      </trkpt>
      <trkpt lat="42.483118" lon="0.228803">
        <ele>1421.6</ele>
        <time>2018-06-13T11:03:22Z</time>
      </trkpt>
      <trkpt lat="42.483109" lon="0.228672">
        <ele>1422.9</ele>
        <time>2018-06-13T11:03:24Z</time>
      </trkpt>
      <trkpt lat="42.483059" lon="0.228483">
        <ele>1423.0</ele>
        <time>2018-06-13T11:03:28Z</time>
      </trkpt>
      <trkpt lat="42.482988" lon="0.228095">
        <ele>1425.8</ele>
        <time>2018-06-13T11:03:36Z</time>
      </trkpt>
      <trkpt lat="42.482877" lon="0.227672">
        <ele>1434.6</ele>
        <time>2018-06-13T11:03:45Z</time>
      </trkpt>
      <trkpt lat="42.482860" lon="0.227504">
        <ele>1440.0</ele>
        <time>2018-06-13T11:03:49Z</time>
      </trkpt>
      <trkpt lat="42.482858" lon="0.227353">
        <ele>1445.5</ele>
        <time>2018-06-13T11:03:52Z</time>
      </trkpt>
      <trkpt lat="42.482984" lon="0.227191">
        <ele>1454.1</ele>
        <time>2018-06-13T11:03:57Z</time>
      </trkpt>
      <trkpt lat="42.483250" lon="0.227024">
        <ele>1460.2</ele>
        <time>2018-06-13T11:04:05Z</time>
      </trkpt>
      <trkpt lat="42.483458" lon="0.226876">
        <ele>1464.7</ele>
        <time>2018-06-13T11:04:11Z</time>
      </trkpt>
      <trkpt lat="42.483633" lon="0.226684">
        <ele>1462.4</ele>
        <time>2018-06-13T11:04:17Z</time>
      </trkpt>
      <trkpt lat="42.483774" lon="0.226419">
        <ele>1472.1</ele>
        <time>2018-06-13T11:04:24Z</time>
      </trkpt>
      <trkpt lat="42.483919" lon="0.226292">
        <ele>1472.1</ele>
        <time>2018-06-13T11:04:28Z</time>
      </trkpt>
      <trkpt lat="42.484138" lon="0.226202">
        <ele>1465.4</ele>
        <time>2018-06-13T11:04:35Z</time>
      </trkpt>
      <trkpt lat="42.484340" lon="0.226134">
        <ele>1460.7</ele>
        <time>2018-06-13T11:04:40Z</time>
      </trkpt>
      <trkpt lat="42.484567" lon="0.226135">
        <ele>1457.0</ele>
        <time>2018-06-13T11:04:46Z</time>
      </trkpt>
      <trkpt lat="42.484771" lon="0.226190">
        <ele>1452.9</ele>
        <time>2018-06-13T11:04:52Z</time>
      </trkpt>
      <trkpt lat="42.485032" lon="0.226179">
        <ele>1455.4</ele>
        <time>2018-06-13T11:04:59Z</time>
      </trkpt>
      <trkpt lat="42.485345" lon="0.226178">
        <ele>1452.9</ele>
        <time>2018-06-13T11:05:07Z</time>
      </trkpt>
      <trkpt lat="42.485587" lon="0.226087">
        <ele>1459.3</ele>
        <time>2018-06-13T11:05:14Z</time>
      </trkpt>
      <trkpt lat="42.485802" lon="0.226066">
        <ele>1462.3</ele>
        <time>2018-06-13T11:05:20Z</time>
      </trkpt>
      <trkpt lat="42.486152" lon="0.225856">
        <ele>1471.7</ele>
        <time>2018-06-13T11:05:30Z</time>
      </trkpt>
      <trkpt lat="42.486348" lon="0.225696">
        <ele>1471.3</ele>
        <time>2018-06-13T11:05:36Z</time>
      </trkpt>
      <trkpt lat="42.486499" lon="0.225543">
        <ele>1469.5</ele>
        <time>2018-06-13T11:05:41Z</time>
      </trkpt>
      <trkpt lat="42.486585" lon="0.225308">
        <ele>1473.5</ele>
        <time>2018-06-13T11:05:46Z</time>
      </trkpt>
      <trkpt lat="42.486644" lon="0.225168">
        <ele>1476.3</ele>
        <time>2018-06-13T11:05:49Z</time>
      </trkpt>
      <trkpt lat="42.486843" lon="0.224964">
        <ele>1474.5</ele>
        <time>2018-06-13T11:05:56Z</time>
      </trkpt>
      <trkpt lat="42.487042" lon="0.224745">
        <ele>1471.7</ele>
        <time>2018-06-13T11:06:03Z</time>
      </trkpt>
      <trkpt lat="42.487242" lon="0.224543">
        <ele>1470.3</ele>
        <time>2018-06-13T11:06:09Z</time>
      </trkpt>
      <trkpt lat="42.487333" lon="0.224416">
        <ele>1470.2</ele>
        <time>2018-06-13T11:06:13Z</time>
      </trkpt>
      <trkpt lat="42.487391" lon="0.224197">
        <ele>1475.3</ele>
        <time>2018-06-13T11:06:17Z</time>
      </trkpt>
      <trkpt lat="42.487416" lon="0.223985">
        <ele>1484.2</ele>
        <time>2018-06-13T11:06:22Z</time>
      </trkpt>
      <trkpt lat="42.487445" lon="0.223572">
        <ele>1495.0</ele>
        <time>2018-06-13T11:06:31Z</time>
      </trkpt>
      <trkpt lat="42.487503" lon="0.223297">
        <ele>1493.5</ele>
        <time>2018-06-13T11:06:36Z</time>
      </trkpt>
      <trkpt lat="42.487577" lon="0.223058">
        <ele>1488.9</ele>
        <time>2018-06-13T11:06:41Z</time>
      </trkpt>
      <trkpt lat="42.487755" lon="0.222828">
        <ele>1476.7</ele>
        <time>2018-06-13T11:06:49Z</time>
      </trkpt>
      <trkpt lat="42.487873" lon="0.222587">
        <ele>1469.2</ele>
        <time>2018-06-13T11:06:54Z</time>
      </trkpt>
      <trkpt lat="42.487977" lon="0.222236">
        <ele>1469.4</ele>
        <time>2018-06-13T11:07:02Z</time>
      </trkpt>
      <trkpt lat="42.488034" lon="0.221759">
        <ele>1474.5</ele>
        <time>2018-06-13T11:07:11Z</time>
      </trkpt>
      <trkpt lat="42.488106" lon="0.221481">
        <ele>1477.1</ele>
        <time>2018-06-13T11:07:17Z</time>
      </trkpt>
      <trkpt lat="42.488312" lon="0.220859">
        <ele>1475.9</ele>
        <time>2018-06-13T11:07:30Z</time>
      </trkpt>
      <trkpt lat="42.488663" lon="0.219559">
        <ele>1456.6</ele>
        <time>2018-06-13T11:07:58Z</time>
      </trkpt>
      <trkpt lat="42.488767" lon="0.219130">
        <ele>1457.5</ele>
        <time>2018-06-13T11:08:06Z</time>
      </trkpt>
      <trkpt lat="42.489070" lon="0.218474">
        <ele>1457.3</ele>
        <time>2018-06-13T11:08:22Z</time>
      </trkpt>
      <trkpt lat="42.489505" lon="0.217604">
        <ele>1461.5</ele>
        <time>2018-06-13T11:08:42Z</time>
      </trkpt>
      <trkpt lat="42.489912" lon="0.217027">
        <ele>1470.6</ele>
        <time>2018-06-13T11:08:58Z</time>
      </trkpt>
      <trkpt lat="42.490122" lon="0.216678">
        <ele>1479.0</ele>
        <time>2018-06-13T11:09:07Z</time>
      </trkpt>
      <trkpt lat="42.490387" lon="0.216238">
        <ele>1482.9</ele>
        <time>2018-06-13T11:09:18Z</time>
      </trkpt>
      <trkpt lat="42.490855" lon="0.215932">
        <ele>1482.1</ele>
        <time>2018-06-13T11:09:32Z</time>
      </trkpt>
      <trkpt lat="42.490997" lon="0.215831">
        <ele>1480.8</ele>
        <time>2018-06-13T11:09:36Z</time>
      </trkpt>
      <trkpt lat="42.491193" lon="0.215589">
        <ele>1487.2</ele>
        <time>2018-06-13T11:09:43Z</time>
      </trkpt>
      <trkpt lat="42.491351" lon="0.215503">
        <ele>1488.1</ele>
        <time>2018-06-13T11:09:47Z</time>
      </trkpt>
      <trkpt lat="42.491536" lon="0.215518">
        <ele>1485.2</ele>
        <time>2018-06-13T11:09:52Z</time>
      </trkpt>
      <trkpt lat="42.491683" lon="0.215656">
        <ele>1484.4</ele>
        <time>2018-06-13T11:09:57Z</time>
      </trkpt>
      <trkpt lat="42.491820" lon="0.215727">
        <ele>1485.7</ele>
        <time>2018-06-13T11:10:01Z</time>
      </trkpt>
      <trkpt lat="42.491890" lon="0.215738">
        <ele>1485.4</ele>
        <time>2018-06-13T11:10:03Z</time>
      </trkpt>
      <trkpt lat="42.491989" lon="0.215694">
        <ele>1487.0</ele>
        <time>2018-06-13T11:10:06Z</time>
      </trkpt>
      <trkpt lat="42.492078" lon="0.215531">
        <ele>1492.3</ele>
        <time>2018-06-13T11:10:10Z</time>
      </trkpt>
      <trkpt lat="42.492155" lon="0.215235">
        <ele>1496.4</ele>
        <time>2018-06-13T11:10:16Z</time>
      </trkpt>
      <trkpt lat="42.492318" lon="0.214834">
        <ele>1498.1</ele>
        <time>2018-06-13T11:10:25Z</time>
      </trkpt>
      <trkpt lat="42.492549" lon="0.214411">
        <ele>1500.8</ele>
        <time>2018-06-13T11:10:35Z</time>
      </trkpt>
      <trkpt lat="42.492918" lon="0.213866">
        <ele>1501.5</ele>
        <time>2018-06-13T11:10:50Z</time>
      </trkpt>
      <trkpt lat="42.493659" lon="0.213099">
        <ele>1504.4</ele>
        <time>2018-06-13T11:11:14Z</time>
      </trkpt>
      <trkpt lat="42.494005" lon="0.212746">
        <ele>1506.1</ele>
        <time>2018-06-13T11:11:26Z</time>
      </trkpt>
      <trkpt lat="42.494517" lon="0.212353">
        <ele>1517.6</ele>
        <time>2018-06-13T11:11:41Z</time>
      </trkpt>
      <trkpt lat="42.494850" lon="0.212013">
        <ele>1518.7</ele>
        <time>2018-06-13T11:11:52Z</time>
      </trkpt>
      <trkpt lat="42.495152" lon="0.211625">
        <ele>1521.4</ele>
        <time>2018-06-13T11:12:03Z</time>
      </trkpt>
      <trkpt lat="42.495515" lon="0.211099">
        <ele>1523.4</ele>
        <time>2018-06-13T11:12:17Z</time>
      </trkpt>
      <trkpt lat="42.495769" lon="0.210591">
        <ele>1528.8</ele>
        <time>2018-06-13T11:12:29Z</time>
      </trkpt>
      <trkpt lat="42.495941" lon="0.210250">
        <ele>1530.2</ele>
        <time>2018-06-13T11:12:38Z</time>
      </trkpt>
      <trkpt lat="42.496153" lon="0.209985">
        <ele>1530.7</ele>
        <time>2018-06-13T11:12:45Z</time>
      </trkpt>
      <trkpt lat="42.496580" lon="0.209566">
        <ele>1537.0</ele>
        <time>2018-06-13T11:12:59Z</time>
      </trkpt>
      <trkpt lat="42.496994" lon="0.209203">
        <ele>1539.7</ele>
        <time>2018-06-13T11:13:12Z</time>
      </trkpt>
      <trkpt lat="42.497393" lon="0.208897">
        <ele>1533.4</ele>
        <time>2018-06-13T11:13:24Z</time>
      </trkpt>
      <trkpt lat="42.497701" lon="0.208566">
        <ele>1532.8</ele>
        <time>2018-06-13T11:13:35Z</time>
      </trkpt>
      <trkpt lat="42.498095" lon="0.208103">
        <ele>1545.7</ele>
        <time>2018-06-13T11:13:49Z</time>
      </trkpt>
      <trkpt lat="42.498608" lon="0.207347">
        <ele>1553.0</ele>
        <time>2018-06-13T11:14:09Z</time>
      </trkpt>
      <trkpt lat="42.498991" lon="0.206876">
        <ele>1547.3</ele>
        <time>2018-06-13T11:14:23Z</time>
      </trkpt>
      <trkpt lat="42.499444" lon="0.206459">
        <ele>1545.8</ele>
        <time>2018-06-13T11:14:37Z</time>
      </trkpt>
      <trkpt lat="42.499799" lon="0.206049">
        <ele>1552.2</ele>
        <time>2018-06-13T11:14:49Z</time>
      </trkpt>
      <trkpt lat="42.499987" lon="0.205861">
        <ele>1550.7</ele>
        <time>2018-06-13T11:14:56Z</time>
      </trkpt>
      <trkpt lat="42.500141" lon="0.205748">
        <ele>1549.2</ele>
        <time>2018-06-13T11:15:00Z</time>
      </trkpt>
      <trkpt lat="42.500287" lon="0.205577">
        <ele>1546.8</ele>
        <time>2018-06-13T11:15:05Z</time>
      </trkpt>
      <trkpt lat="42.500348" lon="0.205461">
        <ele>1545.5</ele>
        <time>2018-06-13T11:15:08Z</time>
      </trkpt>
      <trkpt lat="42.500392" lon="0.205346">
        <ele>1544.0</ele>
        <time>2018-06-13T11:15:11Z</time>
      </trkpt>
      <trkpt lat="42.500431" lon="0.205196">
        <ele>1542.2</ele>
        <time>2018-06-13T11:15:14Z</time>
      </trkpt>
      <trkpt lat="42.500439" lon="0.205110">
        <ele>1540.8</ele>
        <time>2018-06-13T11:15:16Z</time>
      </trkpt>
      <trkpt lat="42.500412" lon="0.205032">
        <ele>1539.0</ele>
        <time>2018-06-13T11:15:17Z</time>
      </trkpt>
      <trkpt lat="42.500354" lon="0.204973">
        <ele>1538.5</ele>
        <time>2018-06-13T11:15:19Z</time>
      </trkpt>
      <trkpt lat="42.500269" lon="0.204965">
        <ele>1540.0</ele>
        <time>2018-06-13T11:15:22Z</time>
      </trkpt>
      <trkpt lat="42.500143" lon="0.204965">
        <ele>1542.5</ele>
        <time>2018-06-13T11:15:25Z</time>
      </trkpt>
      <trkpt lat="42.500081" lon="0.204914">
        <ele>1542.5</ele>
        <time>2018-06-13T11:15:27Z</time>
      </trkpt>
      <trkpt lat="42.499949" lon="0.204772">
        <ele>1541.1</ele>
        <time>2018-06-13T11:15:31Z</time>
      </trkpt>
      <trkpt lat="42.499470" lon="0.204504">
        <ele>1538.9</ele>
        <time>2018-06-13T11:15:45Z</time>
      </trkpt>
      <trkpt lat="42.499207" lon="0.204370">
        <ele>1535.6</ele>
        <time>2018-06-13T11:15:52Z</time>
      </trkpt>
      <trkpt lat="42.499075" lon="0.204212">
        <ele>1531.9</ele>
        <time>2018-06-13T11:15:57Z</time>
      </trkpt>
      <trkpt lat="42.499010" lon="0.204055">
        <ele>1527.6</ele>
        <time>2018-06-13T11:16:01Z</time>
      </trkpt>
      <trkpt lat="42.498975" lon="0.203910">
        <ele>1524.9</ele>
        <time>2018-06-13T11:16:04Z</time>
      </trkpt>
      <trkpt lat="42.498889" lon="0.203651">
        <ele>1520.8</ele>
        <time>2018-06-13T11:16:09Z</time>
      </trkpt>
      <trkpt lat="42.498862" lon="0.203589">
        <ele>1519.5</ele>
        <time>2018-06-13T11:16:11Z</time>
      </trkpt>
      <trkpt lat="42.498779" lon="0.203541">
        <ele>1520.0</ele>
        <time>2018-06-13T11:16:13Z</time>
      </trkpt>
      <trkpt lat="42.498674" lon="0.203517">
        <ele>1523.0</ele>
        <time>2018-06-13T11:16:16Z</time>
      </trkpt>
      <trkpt lat="42.498630" lon="0.203477">
        <ele>1523.3</ele>
        <time>2018-06-13T11:16:18Z</time>
      </trkpt>
      <trkpt lat="42.498520" lon="0.203310">
        <ele>1522.3</ele>
        <time>2018-06-13T11:16:22Z</time>
      </trkpt>
      <trkpt lat="42.498490" lon="0.203208">
        <ele>1519.8</ele>
        <time>2018-06-13T11:16:24Z</time>
      </trkpt>
      <trkpt lat="42.498473" lon="0.203052">
        <ele>1516.9</ele>
        <time>2018-06-13T11:16:27Z</time>
      </trkpt>
      <trkpt lat="42.498472" lon="0.202901">
        <ele>1513.7</ele>
        <time>2018-06-13T11:16:30Z</time>
      </trkpt>
      <trkpt lat="42.498460" lon="0.202786">
        <ele>1512.0</ele>
        <time>2018-06-13T11:16:33Z</time>
      </trkpt>
      <trkpt lat="42.498449" lon="0.202723">
        <ele>1511.4</ele>
        <time>2018-06-13T11:16:34Z</time>
      </trkpt>
      <trkpt lat="42.498459" lon="0.202650">
        <ele>1509.1</ele>
        <time>2018-06-13T11:16:35Z</time>
      </trkpt>
      <trkpt lat="42.498508" lon="0.202524">
        <ele>1504.7</ele>
        <time>2018-06-13T11:16:38Z</time>
      </trkpt>
      <trkpt lat="42.498534" lon="0.202425">
        <ele>1502.3</ele>
        <time>2018-06-13T11:16:41Z</time>
      </trkpt>
      <trkpt lat="42.498539" lon="0.202327">
        <ele>1500.7</ele>
        <time>2018-06-13T11:16:42Z</time>
      </trkpt>
      <trkpt lat="42.498539" lon="0.202223">
        <ele>1499.4</ele>
        <time>2018-06-13T11:16:45Z</time>
      </trkpt>
      <trkpt lat="42.498514" lon="0.202051">
        <ele>1497.7</ele>
        <time>2018-06-13T11:16:48Z</time>
      </trkpt>
      <trkpt lat="42.498466" lon="0.201938">
        <ele>1496.1</ele>
        <time>2018-06-13T11:16:51Z</time>
      </trkpt>
      <trkpt lat="42.498382" lon="0.201778">
        <ele>1495.0</ele>
        <time>2018-06-13T11:16:54Z</time>
      </trkpt>
      <trkpt lat="42.498334" lon="0.201591">
        <ele>1492.8</ele>
        <time>2018-06-13T11:16:58Z</time>
      </trkpt>
      <trkpt lat="42.498374" lon="0.201454">
        <ele>1489.0</ele>
        <time>2018-06-13T11:17:01Z</time>
      </trkpt>
      <trkpt lat="42.498438" lon="0.201338">
        <ele>1485.3</ele>
        <time>2018-06-13T11:17:04Z</time>
      </trkpt>
      <trkpt lat="42.498545" lon="0.201206">
        <ele>1480.4</ele>
        <time>2018-06-13T11:17:08Z</time>
      </trkpt>
      <trkpt lat="42.498605" lon="0.201064">
        <ele>1476.6</ele>
        <time>2018-06-13T11:17:12Z</time>
      </trkpt>
      <trkpt lat="42.498617" lon="0.200931">
        <ele>1474.3</ele>
        <time>2018-06-13T11:17:14Z</time>
      </trkpt>
      <trkpt lat="42.498604" lon="0.200805">
        <ele>1472.7</ele>
        <time>2018-06-13T11:17:17Z</time>
      </trkpt>
      <trkpt lat="42.498567" lon="0.200628">
        <ele>1471.3</ele>
        <time>2018-06-13T11:17:20Z</time>
      </trkpt>
      <trkpt lat="42.498505" lon="0.200496">
        <ele>1471.2</ele>
        <time>2018-06-13T11:17:23Z</time>
      </trkpt>
      <trkpt lat="42.498395" lon="0.200389">
        <ele>1473.3</ele>
        <time>2018-06-13T11:17:27Z</time>
      </trkpt>
      <trkpt lat="42.498334" lon="0.200285">
        <ele>1474.8</ele>
        <time>2018-06-13T11:17:30Z</time>
      </trkpt>
      <trkpt lat="42.498321" lon="0.200129">
        <ele>1474.4</ele>
        <time>2018-06-13T11:17:33Z</time>
      </trkpt>
      <trkpt lat="42.498392" lon="0.199957">
        <ele>1471.3</ele>
        <time>2018-06-13T11:17:37Z</time>
      </trkpt>
      <trkpt lat="42.498453" lon="0.199788">
        <ele>1466.9</ele>
        <time>2018-06-13T11:17:40Z</time>
      </trkpt>
      <trkpt lat="42.498457" lon="0.199630">
        <ele>1464.6</ele>
        <time>2018-06-13T11:17:43Z</time>
      </trkpt>
      <trkpt lat="42.498486" lon="0.199439">
        <ele>1460.0</ele>
        <time>2018-06-13T11:17:47Z</time>
      </trkpt>
      <trkpt lat="42.498439" lon="0.199198">
        <ele>1459.8</ele>
        <time>2018-06-13T11:17:52Z</time>
      </trkpt>
      <trkpt lat="42.498404" lon="0.198984">
        <ele>1461.1</ele>
        <time>2018-06-13T11:17:57Z</time>
      </trkpt>
      <trkpt lat="42.498375" lon="0.198762">
        <ele>1461.7</ele>
        <time>2018-06-13T11:18:01Z</time>
      </trkpt>
      <trkpt lat="42.498378" lon="0.198569">
        <ele>1460.2</ele>
        <time>2018-06-13T11:18:05Z</time>
      </trkpt>
      <trkpt lat="42.498422" lon="0.198319">
        <ele>1457.5</ele>
        <time>2018-06-13T11:18:10Z</time>
      </trkpt>
      <trkpt lat="42.498438" lon="0.198105">
        <ele>1458.1</ele>
        <time>2018-06-13T11:18:14Z</time>
      </trkpt>
      <trkpt lat="42.498427" lon="0.197913">
        <ele>1460.2</ele>
        <time>2018-06-13T11:18:18Z</time>
      </trkpt>
      <trkpt lat="42.498391" lon="0.197582">
        <ele>1455.9</ele>
        <time>2018-06-13T11:18:24Z</time>
      </trkpt>
      <trkpt lat="42.498380" lon="0.197302">
        <ele>1454.0</ele>
        <time>2018-06-13T11:18:30Z</time>
      </trkpt>
      <trkpt lat="42.498318" lon="0.196747">
        <ele>1450.0</ele>
        <time>2018-06-13T11:18:41Z</time>
      </trkpt>
      <trkpt lat="42.498263" lon="0.196157">
        <ele>1445.6</ele>
        <time>2018-06-13T11:18:52Z</time>
      </trkpt>
      <trkpt lat="42.498223" lon="0.195899">
        <ele>1444.1</ele>
        <time>2018-06-13T11:18:58Z</time>
      </trkpt>
      <trkpt lat="42.498168" lon="0.195615">
        <ele>1442.8</ele>
        <time>2018-06-13T11:19:03Z</time>
      </trkpt>
      <trkpt lat="42.498172" lon="0.195454">
        <ele>1439.0</ele>
        <time>2018-06-13T11:19:07Z</time>
      </trkpt>
      <trkpt lat="42.498132" lon="0.195245">
        <ele>1439.3</ele>
        <time>2018-06-13T11:19:11Z</time>
      </trkpt>
      <trkpt lat="42.498077" lon="0.194987">
        <ele>1441.3</ele>
        <time>2018-06-13T11:19:16Z</time>
      </trkpt>
      <trkpt lat="42.497784" lon="0.193657">
        <ele>1449.6</ele>
        <time>2018-06-13T11:19:43Z</time>
      </trkpt>
      <trkpt lat="42.497574" lon="0.192508">
        <ele>1433.9</ele>
        <time>2018-06-13T11:20:06Z</time>
      </trkpt>
      <trkpt lat="42.497117" lon="0.191004">
        <ele>1417.2</ele>
        <time>2018-06-13T11:20:38Z</time>
      </trkpt>
      <trkpt lat="42.496973" lon="0.190638">
        <ele>1412.2</ele>
        <time>2018-06-13T11:20:47Z</time>
      </trkpt>
      <trkpt lat="42.496823" lon="0.190546">
        <ele>1410.6</ele>
        <time>2018-06-13T11:20:51Z</time>
      </trkpt>
      <trkpt lat="42.496725" lon="0.190519">
        <ele>1412.9</ele>
        <time>2018-06-13T11:20:54Z</time>
      </trkpt>
      <trkpt lat="42.496651" lon="0.190375">
        <ele>1411.0</ele>
        <time>2018-06-13T11:20:57Z</time>
      </trkpt>
      <trkpt lat="42.496516" lon="0.190104">
        <ele>1406.9</ele>
        <time>2018-06-13T11:21:03Z</time>
      </trkpt>
      <trkpt lat="42.496346" lon="0.189659">
        <ele>1402.3</ele>
        <time>2018-06-13T11:21:13Z</time>
      </trkpt>
      <trkpt lat="42.496200" lon="0.189498">
        <ele>1404.4</ele>
        <time>2018-06-13T11:21:18Z</time>
      </trkpt>
      <trkpt lat="42.496070" lon="0.189326">
        <ele>1406.3</ele>
        <time>2018-06-13T11:21:23Z</time>
      </trkpt>
      <trkpt lat="42.495835" lon="0.188981">
        <ele>1407.9</ele>
        <time>2018-06-13T11:21:32Z</time>
      </trkpt>
      <trkpt lat="42.495720" lon="0.188652">
        <ele>1398.6</ele>
        <time>2018-06-13T11:21:40Z</time>
      </trkpt>
      <trkpt lat="42.495623" lon="0.188440">
        <ele>1391.7</ele>
        <time>2018-06-13T11:21:45Z</time>
      </trkpt>
      <trkpt lat="42.495558" lon="0.188362">
        <ele>1391.2</ele>
        <time>2018-06-13T11:21:47Z</time>
      </trkpt>
      <trkpt lat="42.495399" lon="0.188143">
        <ele>1387.7</ele>
        <time>2018-06-13T11:21:53Z</time>
      </trkpt>
      <trkpt lat="42.495333" lon="0.188083">
        <ele>1388.0</ele>
        <time>2018-06-13T11:21:55Z</time>
      </trkpt>
      <trkpt lat="42.495293" lon="0.188057">
        <ele>1388.7</ele>
        <time>2018-06-13T11:21:56Z</time>
      </trkpt>
      <trkpt lat="42.495149" lon="0.188016">
        <ele>1393.1</ele>
        <time>2018-06-13T11:22:00Z</time>
      </trkpt>
      <trkpt lat="42.495119" lon="0.187944">
        <ele>1392.8</ele>
        <time>2018-06-13T11:22:02Z</time>
      </trkpt>
      <trkpt lat="42.495034" lon="0.187689">
        <ele>1390.6</ele>
        <time>2018-06-13T11:22:08Z</time>
      </trkpt>
      <trkpt lat="42.494781" lon="0.187308">
        <ele>1390.3</ele>
        <time>2018-06-13T11:22:17Z</time>
      </trkpt>
      <trkpt lat="42.494345" lon="0.186743">
        <ele>1378.1</ele>
        <time>2018-06-13T11:22:34Z</time>
      </trkpt>
      <trkpt lat="42.493947" lon="0.186246">
        <ele>1370.2</ele>
        <time>2018-06-13T11:22:48Z</time>
      </trkpt>
      <trkpt lat="42.493661" lon="0.185865">
        <ele>1379.5</ele>
        <time>2018-06-13T11:22:59Z</time>
      </trkpt>
      <trkpt lat="42.493502" lon="0.185596">
        <ele>1386.5</ele>
        <time>2018-06-13T11:23:06Z</time>
      </trkpt>
      <trkpt lat="42.493380" lon="0.185409">
        <ele>1389.9</ele>
        <time>2018-06-13T11:23:11Z</time>
      </trkpt>
      <trkpt lat="42.493295" lon="0.185285">
        <ele>1390.8</ele>
        <time>2018-06-13T11:23:14Z</time>
      </trkpt>
      <trkpt lat="42.493211" lon="0.185111">
        <ele>1391.1</ele>
        <time>2018-06-13T11:23:18Z</time>
      </trkpt>
      <trkpt lat="42.493202" lon="0.184811">
        <ele>1386.8</ele>
        <time>2018-06-13T11:23:24Z</time>
      </trkpt>
      <trkpt lat="42.493254" lon="0.184434">
        <ele>1378.8</ele>
        <time>2018-06-13T11:23:32Z</time>
      </trkpt>
      <trkpt lat="42.493255" lon="0.184085">
        <ele>1373.5</ele>
        <time>2018-06-13T11:23:39Z</time>
      </trkpt>
      <trkpt lat="42.492966" lon="0.183569">
        <ele>1373.2</ele>
        <time>2018-06-13T11:23:51Z</time>
      </trkpt>
      <trkpt lat="42.492841" lon="0.183384">
        <ele>1376.1</ele>
        <time>2018-06-13T11:23:56Z</time>
      </trkpt>
      <trkpt lat="42.492812" lon="0.183285">
        <ele>1375.2</ele>
        <time>2018-06-13T11:23:58Z</time>
      </trkpt>
      <trkpt lat="42.492770" lon="0.183237">
        <ele>1376.8</ele>
        <time>2018-06-13T11:24:00Z</time>
      </trkpt>
      <trkpt lat="42.492735" lon="0.183119">
        <ele>1376.3</ele>
        <time>2018-06-13T11:24:02Z</time>
      </trkpt>
      <trkpt lat="42.492696" lon="0.183007">
        <ele>1376.4</ele>
        <time>2018-06-13T11:24:05Z</time>
      </trkpt>
      <trkpt lat="42.492696" lon="0.182839">
        <ele>1372.3</ele>
        <time>2018-06-13T11:24:08Z</time>
      </trkpt>
      <trkpt lat="42.492720" lon="0.182666">
        <ele>1366.8</ele>
        <time>2018-06-13T11:24:12Z</time>
      </trkpt>
      <trkpt lat="42.492720" lon="0.182530">
        <ele>1364.2</ele>
        <time>2018-06-13T11:24:14Z</time>
      </trkpt>
      <trkpt lat="42.492660" lon="0.182350">
        <ele>1363.9</ele>
        <time>2018-06-13T11:24:18Z</time>
      </trkpt>
      <trkpt lat="42.492645" lon="0.181963">
        <ele>1362.7</ele>
        <time>2018-06-13T11:24:26Z</time>
      </trkpt>
      <trkpt lat="42.492729" lon="0.180568">
        <ele>1356.6</ele>
        <time>2018-06-13T11:24:53Z</time>
      </trkpt>
      <trkpt lat="42.492696" lon="0.180110">
        <ele>1352.7</ele>
        <time>2018-06-13T11:25:02Z</time>
      </trkpt>
      <trkpt lat="42.492661" lon="0.179743">
        <ele>1347.5</ele>
        <time>2018-06-13T11:25:09Z</time>
      </trkpt>
      <trkpt lat="42.492576" lon="0.179587">
        <ele>1343.4</ele>
        <time>2018-06-13T11:25:13Z</time>
      </trkpt>
      <trkpt lat="42.492558" lon="0.179404">
        <ele>1337.0</ele>
        <time>2018-06-13T11:25:17Z</time>
      </trkpt>
      <trkpt lat="42.492769" lon="0.179110">
        <ele>1333.5</ele>
        <time>2018-06-13T11:25:25Z</time>
      </trkpt>
      <trkpt lat="42.493014" lon="0.178392">
        <ele>1334.7</ele>
        <time>2018-06-13T11:25:41Z</time>
      </trkpt>
      <trkpt lat="42.493344" lon="0.177862">
        <ele>1335.2</ele>
        <time>2018-06-13T11:25:54Z</time>
      </trkpt>
      <trkpt lat="42.494067" lon="0.176955">
        <ele>1311.8</ele>
        <time>2018-06-13T11:26:21Z</time>
      </trkpt>
      <trkpt lat="42.494622" lon="0.176436">
        <ele>1290.9</ele>
        <time>2018-06-13T11:26:39Z</time>
      </trkpt>
      <trkpt lat="42.494830" lon="0.176233">
        <ele>1282.9</ele>
        <time>2018-06-13T11:26:46Z</time>
      </trkpt>
      <trkpt lat="42.495220" lon="0.175979">
        <ele>1276.5</ele>
        <time>2018-06-13T11:26:58Z</time>
      </trkpt>
      <trkpt lat="42.495293" lon="0.175770">
        <ele>1275.9</ele>
        <time>2018-06-13T11:27:02Z</time>
      </trkpt>
      <trkpt lat="42.495320" lon="0.175619">
        <ele>1276.0</ele>
        <time>2018-06-13T11:27:05Z</time>
      </trkpt>
      <trkpt lat="42.495236" lon="0.175402">
        <ele>1276.3</ele>
        <time>2018-06-13T11:27:10Z</time>
      </trkpt>
      <trkpt lat="42.495127" lon="0.175245">
        <ele>1275.5</ele>
        <time>2018-06-13T11:27:14Z</time>
      </trkpt>
      <trkpt lat="42.494859" lon="0.175170">
        <ele>1278.9</ele>
        <time>2018-06-13T11:27:22Z</time>
      </trkpt>
      <trkpt lat="42.494661" lon="0.175008">
        <ele>1278.6</ele>
        <time>2018-06-13T11:27:28Z</time>
      </trkpt>
      <trkpt lat="42.494558" lon="0.174955">
        <ele>1278.4</ele>
        <time>2018-06-13T11:27:31Z</time>
      </trkpt>
      <trkpt lat="42.494447" lon="0.174961">
        <ele>1277.4</ele>
        <time>2018-06-13T11:27:34Z</time>
      </trkpt>
      <trkpt lat="42.494372" lon="0.175022">
        <ele>1276.6</ele>
        <time>2018-06-13T11:27:36Z</time>
      </trkpt>
      <trkpt lat="42.494323" lon="0.175118">
        <ele>1276.1</ele>
        <time>2018-06-13T11:27:38Z</time>
      </trkpt>
      <trkpt lat="42.494265" lon="0.175297">
        <ele>1276.9</ele>
        <time>2018-06-13T11:27:42Z</time>
      </trkpt>
      <trkpt lat="42.494109" lon="0.175436">
        <ele>1279.4</ele>
        <time>2018-06-13T11:27:47Z</time>
      </trkpt>
      <trkpt lat="42.493904" lon="0.175517">
        <ele>1282.3</ele>
        <time>2018-06-13T11:27:53Z</time>
      </trkpt>
      <trkpt lat="42.493704" lon="0.175416">
        <ele>1281.0</ele>
        <time>2018-06-13T11:27:58Z</time>
      </trkpt>
      <trkpt lat="42.493300" lon="0.175179">
        <ele>1277.1</ele>
        <time>2018-06-13T11:28:10Z</time>
      </trkpt>
      <trkpt lat="42.493156" lon="0.175073">
        <ele>1277.0</ele>
        <time>2018-06-13T11:28:14Z</time>
      </trkpt>
      <trkpt lat="42.492787" lon="0.174865">
        <ele>1267.1</ele>
        <time>2018-06-13T11:28:25Z</time>
      </trkpt>
      <trkpt lat="42.492684" lon="0.174843">
        <ele>1260.5</ele>
        <time>2018-06-13T11:28:28Z</time>
      </trkpt>
      <trkpt lat="42.492601" lon="0.174865">
        <ele>1255.3</ele>
        <time>2018-06-13T11:28:31Z</time>
      </trkpt>
      <trkpt lat="42.492613" lon="0.174996">
        <ele>1258.0</ele>
        <time>2018-06-13T11:28:33Z</time>
      </trkpt>
      <trkpt lat="42.492786" lon="0.175248">
        <ele>1270.7</ele>
        <time>2018-06-13T11:28:41Z</time>
      </trkpt>
      <trkpt lat="42.492758" lon="0.175459">
        <ele>1269.5</ele>
        <time>2018-06-13T11:28:45Z</time>
      </trkpt>
      <trkpt lat="42.492664" lon="0.175606">
        <ele>1264.8</ele>
        <time>2018-06-13T11:28:49Z</time>
      </trkpt>
      <trkpt lat="42.492522" lon="0.175903">
        <ele>1255.2</ele>
        <time>2018-06-13T11:28:56Z</time>
      </trkpt>
      <trkpt lat="42.492425" lon="0.176113">
        <ele>1252.1</ele>
        <time>2018-06-13T11:29:01Z</time>
      </trkpt>
      <trkpt lat="42.492163" lon="0.176414">
        <ele>1246.3</ele>
        <time>2018-06-13T11:29:10Z</time>
      </trkpt>
      <trkpt lat="42.491947" lon="0.176700">
        <ele>1244.8</ele>
        <time>2018-06-13T11:29:18Z</time>
      </trkpt>
      <trkpt lat="42.491790" lon="0.177037">
        <ele>1244.8</ele>
        <time>2018-06-13T11:29:26Z</time>
      </trkpt>
      <trkpt lat="42.491583" lon="0.177250">
        <ele>1242.3</ele>
        <time>2018-06-13T11:29:33Z</time>
      </trkpt>
      <trkpt lat="42.491174" lon="0.177413">
        <ele>1230.9</ele>
        <time>2018-06-13T11:29:44Z</time>
      </trkpt>
      <trkpt lat="42.490756" lon="0.177537">
        <ele>1226.8</ele>
        <time>2018-06-13T11:29:56Z</time>
      </trkpt>
      <trkpt lat="42.490184" lon="0.177615">
        <ele>1218.9</ele>
        <time>2018-06-13T11:30:11Z</time>
      </trkpt>
      <trkpt lat="42.488959" lon="0.177700">
        <ele>1205.3</ele>
        <time>2018-06-13T11:30:44Z</time>
      </trkpt>
      <trkpt lat="42.487813" lon="0.178433">
        <ele>1199.5</ele>
        <time>2018-06-13T11:31:17Z</time>
      </trkpt>
      <trkpt lat="42.486813" lon="0.178778">
        <ele>1187.8</ele>
        <time>2018-06-13T11:31:44Z</time>
      </trkpt>
      <trkpt lat="42.486002" lon="0.178797">
        <ele>1179.7</ele>
        <time>2018-06-13T11:32:06Z</time>
      </trkpt>
      <trkpt lat="42.484970" lon="0.178684">
        <ele>1161.7</ele>
        <time>2018-06-13T11:32:34Z</time>
      </trkpt>
      <trkpt lat="42.484861" lon="0.178557">
        <ele>1154.0</ele>
        <time>2018-06-13T11:32:38Z</time>
      </trkpt>
      <trkpt lat="42.484635" lon="0.178576">
        <ele>1149.3</ele>
        <time>2018-06-13T11:32:44Z</time>
      </trkpt>
      <trkpt lat="42.484180" lon="0.178736">
        <ele>1141.5</ele>
        <time>2018-06-13T11:32:56Z</time>
      </trkpt>
      <trkpt lat="42.483640" lon="0.178739">
        <ele>1125.0</ele>
        <time>2018-06-13T11:33:11Z</time>
      </trkpt>
      <trkpt lat="42.483360" lon="0.178815">
        <ele>1119.5</ele>
        <time>2018-06-13T11:33:19Z</time>
      </trkpt>
      <trkpt lat="42.483301" lon="0.178845">
        <ele>1118.7</ele>
        <time>2018-06-13T11:33:21Z</time>
      </trkpt>
      <trkpt lat="42.483224" lon="0.178888">
        <ele>1117.6</ele>
        <time>2018-06-13T11:33:23Z</time>
      </trkpt>
      <trkpt lat="42.483041" lon="0.178893">
        <ele>1114.1</ele>
        <time>2018-06-13T11:33:28Z</time>
      </trkpt>
      <trkpt lat="42.482928" lon="0.178947">
        <ele>1113.6</ele>
        <time>2018-06-13T11:33:31Z</time>
      </trkpt>
      <trkpt lat="42.482871" lon="0.178928">
        <ele>1111.8</ele>
        <time>2018-06-13T11:33:32Z</time>
      </trkpt>
      <trkpt lat="42.482814" lon="0.178888">
        <ele>1109.1</ele>
        <time>2018-06-13T11:33:34Z</time>
      </trkpt>
      <trkpt lat="42.482725" lon="0.178882">
        <ele>1106.8</ele>
        <time>2018-06-13T11:33:37Z</time>
      </trkpt>
      <trkpt lat="42.482632" lon="0.178888">
        <ele>1104.6</ele>
        <time>2018-06-13T11:33:39Z</time>
      </trkpt>
      <trkpt lat="42.482577" lon="0.178906">
        <ele>1102.7</ele>
        <time>2018-06-13T11:33:41Z</time>
      </trkpt>
      <trkpt lat="42.482442" lon="0.178921">
        <ele>1096.9</ele>
        <time>2018-06-13T11:33:45Z</time>
      </trkpt>
      <trkpt lat="42.482360" lon="0.178965">
        <ele>1095.0</ele>
        <time>2018-06-13T11:33:47Z</time>
      </trkpt>
      <trkpt lat="42.482227" lon="0.179059">
        <ele>1091.2</ele>
        <time>2018-06-13T11:33:51Z</time>
      </trkpt>
      <trkpt lat="42.482125" lon="0.179099">
        <ele>1086.7</ele>
        <time>2018-06-13T11:33:54Z</time>
      </trkpt>
      <trkpt lat="42.481990" lon="0.179183">
        <ele>1084.6</ele>
        <time>2018-06-13T11:33:58Z</time>
      </trkpt>
      <trkpt lat="42.481899" lon="0.179242">
        <ele>1083.5</ele>
        <time>2018-06-13T11:34:01Z</time>
      </trkpt>
      <trkpt lat="42.481846" lon="0.179223">
        <ele>1081.0</ele>
        <time>2018-06-13T11:34:02Z</time>
      </trkpt>
      <trkpt lat="42.481793" lon="0.179231">
        <ele>1079.6</ele>
        <time>2018-06-13T11:34:04Z</time>
      </trkpt>
      <trkpt lat="42.481761" lon="0.179225">
        <ele>1078.8</ele>
        <time>2018-06-13T11:34:05Z</time>
      </trkpt>
      <trkpt lat="42.481684" lon="0.179247">
        <ele>1078.0</ele>
        <time>2018-06-13T11:34:07Z</time>
      </trkpt>
      <trkpt lat="42.481635" lon="0.179252">
        <ele>1077.3</ele>
        <time>2018-06-13T11:34:08Z</time>
      </trkpt>
      <trkpt lat="42.481524" lon="0.179183">
        <ele>1073.0</ele>
        <time>2018-06-13T11:34:11Z</time>
      </trkpt>
      <trkpt lat="42.481305" lon="0.179126">
        <ele>1067.2</ele>
        <time>2018-06-13T11:34:17Z</time>
      </trkpt>
      <trkpt lat="42.481047" lon="0.179081">
        <ele>1060.7</ele>
        <time>2018-06-13T11:34:24Z</time>
      </trkpt>
      <trkpt lat="42.480931" lon="0.179099">
        <ele>1059.8</ele>
        <time>2018-06-13T11:34:28Z</time>
      </trkpt>
      <trkpt lat="42.480785" lon="0.179153">
        <ele>1061.7</ele>
        <time>2018-06-13T11:34:32Z</time>
      </trkpt>
      <trkpt lat="42.480609" lon="0.179309">
        <ele>1064.4</ele>
        <time>2018-06-13T11:34:37Z</time>
      </trkpt>
      <trkpt lat="42.480566" lon="0.179429">
        <ele>1066.1</ele>
        <time>2018-06-13T11:34:40Z</time>
      </trkpt>
      <trkpt lat="42.480531" lon="0.179646">
        <ele>1068.2</ele>
        <time>2018-06-13T11:34:44Z</time>
      </trkpt>
      <trkpt lat="42.480506" lon="0.180076">
        <ele>1065.5</ele>
        <time>2018-06-13T11:34:53Z</time>
      </trkpt>
      <trkpt lat="42.480499" lon="0.180384">
        <ele>1061.8</ele>
        <time>2018-06-13T11:34:59Z</time>
      </trkpt>
      <trkpt lat="42.480497" lon="0.180738">
        <ele>1058.7</ele>
        <time>2018-06-13T11:35:06Z</time>
      </trkpt>
      <trkpt lat="42.480551" lon="0.181224">
        <ele>1062.2</ele>
        <time>2018-06-13T11:35:15Z</time>
      </trkpt>
      <trkpt lat="42.480551" lon="0.181264">
        <ele>1062.6</ele>
        <time>2018-06-13T11:35:16Z</time>
      </trkpt>
      <trkpt lat="42.480530" lon="0.181288">
        <ele>1062.6</ele>
        <time>2018-06-13T11:35:17Z</time>
      </trkpt>
      <trkpt lat="42.480468" lon="0.181285">
        <ele>1060.9</ele>
        <time>2018-06-13T11:35:18Z</time>
      </trkpt>
      <trkpt lat="42.480367" lon="0.181264">
        <ele>1057.1</ele>
        <time>2018-06-13T11:35:21Z</time>
      </trkpt>
      <trkpt lat="42.480272" lon="0.181157">
        <ele>1051.2</ele>
        <time>2018-06-13T11:35:25Z</time>
      </trkpt>
      <trkpt lat="42.480215" lon="0.181127">
        <ele>1048.2</ele>
        <time>2018-06-13T11:35:27Z</time>
      </trkpt>
      <trkpt lat="42.479994" lon="0.181063">
        <ele>1037.7</ele>
        <time>2018-06-13T11:35:33Z</time>
      </trkpt>
      <trkpt lat="42.479772" lon="0.181036">
        <ele>1031.7</ele>
        <time>2018-06-13T11:35:39Z</time>
      </trkpt>
      <trkpt lat="42.479523" lon="0.181085">
        <ele>1031.0</ele>
        <time>2018-06-13T11:35:46Z</time>
      </trkpt>
      <trkpt lat="42.479291" lon="0.181181">
        <ele>1029.2</ele>
        <time>2018-06-13T11:35:52Z</time>
      </trkpt>
      <trkpt lat="42.479166" lon="0.181242">
        <ele>1027.8</ele>
        <time>2018-06-13T11:35:56Z</time>
      </trkpt>
      <trkpt lat="42.479069" lon="0.181320">
        <ele>1028.2</ele>
        <time>2018-06-13T11:35:59Z</time>
      </trkpt>
      <trkpt lat="42.478929" lon="0.181395">
        <ele>1027.5</ele>
        <time>2018-06-13T11:36:03Z</time>
      </trkpt>
      <trkpt lat="42.478850" lon="0.181393">
        <ele>1025.3</ele>
        <time>2018-06-13T11:36:05Z</time>
      </trkpt>
      <trkpt lat="42.478791" lon="0.181360">
        <ele>1022.6</ele>
        <time>2018-06-13T11:36:07Z</time>
      </trkpt>
      <trkpt lat="42.478544" lon="0.181491">
        <ele>1012.0</ele>
        <time>2018-06-13T11:36:14Z</time>
      </trkpt>
      <trkpt lat="42.478425" lon="0.181629">
        <ele>1005.1</ele>
        <time>2018-06-13T11:36:18Z</time>
      </trkpt>
      <trkpt lat="42.478338" lon="0.181833">
        <ele>1000.7</ele>
        <time>2018-06-13T11:36:23Z</time>
      </trkpt>
      <trkpt lat="42.478253" lon="0.182058">
        <ele>997.3</ele>
        <time>2018-06-13T11:36:28Z</time>
      </trkpt>
      <trkpt lat="42.478174" lon="0.182074">
        <ele>992.3</ele>
        <time>2018-06-13T11:36:31Z</time>
      </trkpt>
      <trkpt lat="42.478135" lon="0.182130">
        <ele>992.1</ele>
        <time>2018-06-13T11:36:32Z</time>
      </trkpt>
      <trkpt lat="42.477908" lon="0.182493">
        <ele>994.6</ele>
        <time>2018-06-13T11:36:41Z</time>
      </trkpt>
      <trkpt lat="42.477840" lon="0.182520">
        <ele>997.3</ele>
        <time>2018-06-13T11:36:43Z</time>
      </trkpt>
      <trkpt lat="42.477809" lon="0.182527">
        <ele>998.5</ele>
        <time>2018-06-13T11:36:44Z</time>
      </trkpt>
      <trkpt lat="42.477687" lon="0.182227">
        <ele>994.4</ele>
        <time>2018-06-13T11:36:51Z</time>
      </trkpt>
      <trkpt lat="42.477561" lon="0.181996">
        <ele>993.5</ele>
        <time>2018-06-13T11:36:57Z</time>
      </trkpt>
      <trkpt lat="42.477387" lon="0.181806">
        <ele>994.0</ele>
        <time>2018-06-13T11:37:02Z</time>
      </trkpt>
      <trkpt lat="42.477058" lon="0.181477">
        <ele>995.4</ele>
        <time>2018-06-13T11:37:13Z</time>
      </trkpt>
      <trkpt lat="42.476947" lon="0.181318">
        <ele>991.3</ele>
        <time>2018-06-13T11:37:18Z</time>
      </trkpt>
      <trkpt lat="42.476799" lon="0.181202">
        <ele>990.1</ele>
        <time>2018-06-13T11:37:22Z</time>
      </trkpt>
      <trkpt lat="42.476665" lon="0.181061">
        <ele>988.9</ele>
        <time>2018-06-13T11:37:27Z</time>
      </trkpt>
      <trkpt lat="42.476481" lon="0.180907">
        <ele>986.9</ele>
        <time>2018-06-13T11:37:32Z</time>
      </trkpt>
      <trkpt lat="42.476275" lon="0.180816">
        <ele>982.7</ele>
        <time>2018-06-13T11:37:38Z</time>
      </trkpt>
      <trkpt lat="42.476043" lon="0.180756">
        <ele>977.3</ele>
        <time>2018-06-13T11:37:45Z</time>
      </trkpt>
      <trkpt lat="42.475630" lon="0.180564">
        <ele>975.7</ele>
        <time>2018-06-13T11:37:56Z</time>
      </trkpt>
      <trkpt lat="42.475443" lon="0.180467">
        <ele>976.0</ele>
        <time>2018-06-13T11:38:01Z</time>
      </trkpt>
      <trkpt lat="42.475214" lon="0.180301">
        <ele>975.5</ele>
        <time>2018-06-13T11:38:08Z</time>
      </trkpt>
      <trkpt lat="42.474663" lon="0.180169">
        <ele>982.2</ele>
        <time>2018-06-13T11:38:23Z</time>
      </trkpt>
      <trkpt lat="42.474418" lon="0.180096">
        <ele>983.8</ele>
        <time>2018-06-13T11:38:30Z</time>
      </trkpt>
      <trkpt lat="42.474220" lon="0.179934">
        <ele>980.8</ele>
        <time>2018-06-13T11:38:36Z</time>
      </trkpt>
      <trkpt lat="42.473911" lon="0.179705">
        <ele>975.3</ele>
        <time>2018-06-13T11:38:45Z</time>
      </trkpt>
      <trkpt lat="42.473717" lon="0.179622">
        <ele>973.0</ele>
        <time>2018-06-13T11:38:51Z</time>
      </trkpt>
      <trkpt lat="42.473658" lon="0.179606">
        <ele>973.1</ele>
        <time>2018-06-13T11:38:52Z</time>
      </trkpt>
      <trkpt lat="42.473588" lon="0.179630">
        <ele>976.2</ele>
        <time>2018-06-13T11:38:54Z</time>
      </trkpt>
      <trkpt lat="42.473533" lon="0.179588">
        <ele>974.2</ele>
        <time>2018-06-13T11:38:56Z</time>
      </trkpt>
      <trkpt lat="42.473480" lon="0.179510">
        <ele>970.1</ele>
        <time>2018-06-13T11:38:58Z</time>
      </trkpt>
      <trkpt lat="42.473424" lon="0.179437">
        <ele>966.4</ele>
        <time>2018-06-13T11:39:00Z</time>
      </trkpt>
      <trkpt lat="42.473331" lon="0.179408">
        <ele>966.3</ele>
        <time>2018-06-13T11:39:03Z</time>
      </trkpt>
      <trkpt lat="42.473222" lon="0.179346">
        <ele>964.7</ele>
        <time>2018-06-13T11:39:06Z</time>
      </trkpt>
      <trkpt lat="42.473036" lon="0.179303">
        <ele>964.0</ele>
        <time>2018-06-13T11:39:11Z</time>
      </trkpt>
      <trkpt lat="42.472917" lon="0.179248">
        <ele>962.7</ele>
        <time>2018-06-13T11:39:14Z</time>
      </trkpt>
      <trkpt lat="42.472770" lon="0.179209">
        <ele>960.8</ele>
        <time>2018-06-13T11:39:18Z</time>
      </trkpt>
      <trkpt lat="42.472668" lon="0.179118">
        <ele>957.3</ele>
        <time>2018-06-13T11:39:22Z</time>
      </trkpt>
      <trkpt lat="42.472592" lon="0.179102">
        <ele>956.4</ele>
        <time>2018-06-13T11:39:24Z</time>
      </trkpt>
      <trkpt lat="42.472542" lon="0.179129">
        <ele>957.2</ele>
        <time>2018-06-13T11:39:25Z</time>
      </trkpt>
      <trkpt lat="42.472445" lon="0.179220">
        <ele>959.7</ele>
        <time>2018-06-13T11:39:28Z</time>
      </trkpt>
      <trkpt lat="42.472356" lon="0.179207">
        <ele>958.8</ele>
        <time>2018-06-13T11:39:31Z</time>
      </trkpt>
      <trkpt lat="42.472261" lon="0.179113">
        <ele>955.4</ele>
        <time>2018-06-13T11:39:34Z</time>
      </trkpt>
      <trkpt lat="42.472152" lon="0.179008">
        <ele>951.6</ele>
        <time>2018-06-13T11:39:38Z</time>
      </trkpt>
      <trkpt lat="42.471951" lon="0.178937">
        <ele>946.5</ele>
        <time>2018-06-13T11:39:43Z</time>
      </trkpt>
      <trkpt lat="42.471853" lon="0.178893">
        <ele>943.1</ele>
        <time>2018-06-13T11:39:46Z</time>
      </trkpt>
      <trkpt lat="42.471717" lon="0.178869">
        <ele>937.9</ele>
        <time>2018-06-13T11:39:50Z</time>
      </trkpt>
      <trkpt lat="42.471636" lon="0.178901">
        <ele>935.6</ele>
        <time>2018-06-13T11:39:52Z</time>
      </trkpt>
      <trkpt lat="42.471591" lon="0.178949">
        <ele>935.0</ele>
        <time>2018-06-13T11:39:54Z</time>
      </trkpt>
      <trkpt lat="42.471533" lon="0.179191">
        <ele>938.4</ele>
        <time>2018-06-13T11:39:59Z</time>
      </trkpt>
      <trkpt lat="42.471471" lon="0.179471">
        <ele>941.2</ele>
        <time>2018-06-13T11:40:05Z</time>
      </trkpt>
      <trkpt lat="42.471413" lon="0.179722">
        <ele>941.9</ele>
        <time>2018-06-13T11:40:10Z</time>
      </trkpt>
      <trkpt lat="42.471401" lon="0.179918">
        <ele>943.6</ele>
        <time>2018-06-13T11:40:13Z</time>
      </trkpt>
      <trkpt lat="42.471368" lon="0.179990">
        <ele>943.3</ele>
        <time>2018-06-13T11:40:15Z</time>
      </trkpt>
      <trkpt lat="42.471306" lon="0.180025">
        <ele>941.4</ele>
        <time>2018-06-13T11:40:17Z</time>
      </trkpt>
      <trkpt lat="42.471224" lon="0.179995">
        <ele>938.4</ele>
        <time>2018-06-13T11:40:19Z</time>
      </trkpt>
      <trkpt lat="42.470978" lon="0.179952">
        <ele>933.1</ele>
        <time>2018-06-13T11:40:26Z</time>
      </trkpt>
      <trkpt lat="42.470886" lon="0.179974">
        <ele>931.8</ele>
        <time>2018-06-13T11:40:28Z</time>
      </trkpt>
      <trkpt lat="42.470795" lon="0.180058">
        <ele>931.4</ele>
        <time>2018-06-13T11:40:31Z</time>
      </trkpt>
      <trkpt lat="42.470654" lon="0.180270">
        <ele>932.6</ele>
        <time>2018-06-13T11:40:37Z</time>
      </trkpt>
      <trkpt lat="42.470556" lon="0.180421">
        <ele>933.5</ele>
        <time>2018-06-13T11:40:41Z</time>
      </trkpt>
      <trkpt lat="42.470490" lon="0.180532">
        <ele>933.4</ele>
        <time>2018-06-13T11:40:44Z</time>
      </trkpt>
      <trkpt lat="42.470490" lon="0.180711">
        <ele>934.3</ele>
        <time>2018-06-13T11:40:47Z</time>
      </trkpt>
      <trkpt lat="42.470437" lon="0.180873">
        <ele>932.8</ele>
        <time>2018-06-13T11:40:51Z</time>
      </trkpt>
      <trkpt lat="42.470437" lon="0.181052">
        <ele>933.3</ele>
        <time>2018-06-13T11:40:54Z</time>
      </trkpt>
      <trkpt lat="42.470404" lon="0.181175">
        <ele>934.1</ele>
        <time>2018-06-13T11:40:57Z</time>
      </trkpt>
      <trkpt lat="42.470358" lon="0.181281">
        <ele>934.7</ele>
        <time>2018-06-13T11:40:59Z</time>
      </trkpt>
      <trkpt lat="42.470358" lon="0.181404">
        <ele>935.8</ele>
        <time>2018-06-13T11:41:01Z</time>
      </trkpt>
      <trkpt lat="42.470404" lon="0.181555">
        <ele>937.3</ele>
        <time>2018-06-13T11:41:05Z</time>
      </trkpt>
      <trkpt lat="42.470420" lon="0.181667">
        <ele>938.5</ele>
        <time>2018-06-13T11:41:07Z</time>
      </trkpt>
      <trkpt lat="42.470383" lon="0.181773">
        <ele>939.4</ele>
        <time>2018-06-13T11:41:09Z</time>
      </trkpt>
      <trkpt lat="42.470301" lon="0.181801">
        <ele>939.1</ele>
        <time>2018-06-13T11:41:11Z</time>
      </trkpt>
      <trkpt lat="42.470197" lon="0.181767">
        <ele>938.2</ele>
        <time>2018-06-13T11:41:14Z</time>
      </trkpt>
      <trkpt lat="42.470069" lon="0.181883">
        <ele>938.5</ele>
        <time>2018-06-13T11:41:18Z</time>
      </trkpt>
      <trkpt lat="42.469983" lon="0.181902">
        <ele>938.3</ele>
        <time>2018-06-13T11:41:21Z</time>
      </trkpt>
      <trkpt lat="42.469909" lon="0.181963">
        <ele>938.4</ele>
        <time>2018-06-13T11:41:23Z</time>
      </trkpt>
      <trkpt lat="42.469831" lon="0.182114">
        <ele>938.6</ele>
        <time>2018-06-13T11:41:27Z</time>
      </trkpt>
      <trkpt lat="42.469777" lon="0.182181">
        <ele>937.9</ele>
        <time>2018-06-13T11:41:28Z</time>
      </trkpt>
      <trkpt lat="42.469686" lon="0.182119">
        <ele>935.0</ele>
        <time>2018-06-13T11:41:31Z</time>
      </trkpt>
      <trkpt lat="42.469587" lon="0.182170">
        <ele>933.0</ele>
        <time>2018-06-13T11:41:34Z</time>
      </trkpt>
      <trkpt lat="42.469439" lon="0.182254">
        <ele>932.8</ele>
        <time>2018-06-13T11:41:38Z</time>
      </trkpt>
      <trkpt lat="42.469365" lon="0.182321">
        <ele>933.0</ele>
        <time>2018-06-13T11:41:41Z</time>
      </trkpt>
      <trkpt lat="42.469320" lon="0.182438">
        <ele>934.2</ele>
        <time>2018-06-13T11:41:43Z</time>
      </trkpt>
      <trkpt lat="42.469192" lon="0.182455">
        <ele>932.7</ele>
        <time>2018-06-13T11:41:47Z</time>
      </trkpt>
      <trkpt lat="42.469035" lon="0.182539">
        <ele>931.7</ele>
        <time>2018-06-13T11:41:51Z</time>
      </trkpt>
      <trkpt lat="42.468825" lon="0.182689">
        <ele>930.7</ele>
        <time>2018-06-13T11:41:57Z</time>
      </trkpt>
      <trkpt lat="42.468541" lon="0.183013">
        <ele>931.3</ele>
        <time>2018-06-13T11:42:07Z</time>
      </trkpt>
      <trkpt lat="42.468388" lon="0.183097">
        <ele>930.2</ele>
        <time>2018-06-13T11:42:12Z</time>
      </trkpt>
      <trkpt lat="42.468308" lon="0.183168">
        <ele>929.9</ele>
        <time>2018-06-13T11:42:14Z</time>
      </trkpt>
      <trkpt lat="42.468253" lon="0.183144">
        <ele>929.0</ele>
        <time>2018-06-13T11:42:16Z</time>
      </trkpt>
      <trkpt lat="42.468172" lon="0.183112">
        <ele>927.6</ele>
        <time>2018-06-13T11:42:18Z</time>
      </trkpt>
      <trkpt lat="42.467872" lon="0.183170">
        <ele>925.1</ele>
        <time>2018-06-13T11:42:26Z</time>
      </trkpt>
      <trkpt lat="42.467510" lon="0.183270">
        <ele>921.4</ele>
        <time>2018-06-13T11:42:36Z</time>
      </trkpt>
      <trkpt lat="42.467397" lon="0.183270">
        <ele>920.2</ele>
        <time>2018-06-13T11:42:39Z</time>
      </trkpt>
      <trkpt lat="42.467308" lon="0.183259">
        <ele>919.4</ele>
        <time>2018-06-13T11:42:41Z</time>
      </trkpt>
      <trkpt lat="42.466970" lon="0.183353">
        <ele>918.9</ele>
        <time>2018-06-13T11:42:50Z</time>
      </trkpt>
      <trkpt lat="42.466739" lon="0.183447">
        <ele>919.8</ele>
        <time>2018-06-13T11:42:57Z</time>
      </trkpt>
      <trkpt lat="42.466669" lon="0.183501">
        <ele>919.9</ele>
        <time>2018-06-13T11:42:59Z</time>
      </trkpt>
      <trkpt lat="42.466614" lon="0.183517">
        <ele>919.5</ele>
        <time>2018-06-13T11:43:00Z</time>
      </trkpt>
      <trkpt lat="42.466575" lon="0.183466">
        <ele>918.4</ele>
        <time>2018-06-13T11:43:02Z</time>
      </trkpt>
      <trkpt lat="42.466500" lon="0.183463">
        <ele>917.0</ele>
        <time>2018-06-13T11:43:04Z</time>
      </trkpt>
      <trkpt lat="42.466274" lon="0.183544">
        <ele>911.0</ele>
        <time>2018-06-13T11:43:10Z</time>
      </trkpt>
      <trkpt lat="42.466144" lon="0.183546">
        <ele>908.6</ele>
        <time>2018-06-13T11:43:13Z</time>
      </trkpt>
      <trkpt lat="42.466033" lon="0.183552">
        <ele>906.9</ele>
        <time>2018-06-13T11:43:16Z</time>
      </trkpt>
      <trkpt lat="42.465849" lon="0.183603">
        <ele>904.0</ele>
        <time>2018-06-13T11:43:21Z</time>
      </trkpt>
      <trkpt lat="42.465738" lon="0.183710">
        <ele>903.2</ele>
        <time>2018-06-13T11:43:25Z</time>
      </trkpt>
      <trkpt lat="42.465691" lon="0.183758">
        <ele>903.0</ele>
        <time>2018-06-13T11:43:27Z</time>
      </trkpt>
      <trkpt lat="42.465584" lon="0.183721">
        <ele>900.3</ele>
        <time>2018-06-13T11:43:30Z</time>
      </trkpt>
      <trkpt lat="42.465396" lon="0.183707">
        <ele>896.7</ele>
        <time>2018-06-13T11:43:35Z</time>
      </trkpt>
      <trkpt lat="42.465214" lon="0.183785">
        <ele>897.6</ele>
        <time>2018-06-13T11:43:40Z</time>
      </trkpt>
      <trkpt lat="42.465064" lon="0.183852">
        <ele>897.9</ele>
        <time>2018-06-13T11:43:44Z</time>
      </trkpt>
      <trkpt lat="42.464953" lon="0.183855">
        <ele>897.2</ele>
        <time>2018-06-13T11:43:47Z</time>
      </trkpt>
      <trkpt lat="42.464884" lon="0.183882">
        <ele>897.1</ele>
        <time>2018-06-13T11:43:49Z</time>
      </trkpt>
      <trkpt lat="42.464779" lon="0.183871">
        <ele>896.3</ele>
        <time>2018-06-13T11:43:51Z</time>
      </trkpt>
      <trkpt lat="42.464630" lon="0.183836">
        <ele>895.1</ele>
        <time>2018-06-13T11:43:55Z</time>
      </trkpt>
      <trkpt lat="42.464454" lon="0.183848">
        <ele>894.0</ele>
        <time>2018-06-13T11:44:00Z</time>
      </trkpt>
      <trkpt lat="42.464286" lon="0.183909">
        <ele>892.9</ele>
        <time>2018-06-13T11:44:05Z</time>
      </trkpt>
      <trkpt lat="42.464130" lon="0.183960">
        <ele>890.8</ele>
        <time>2018-06-13T11:44:09Z</time>
      </trkpt>
      <trkpt lat="42.464065" lon="0.183976">
        <ele>889.8</ele>
        <time>2018-06-13T11:44:11Z</time>
      </trkpt>
      <trkpt lat="42.464023" lon="0.183981">
        <ele>889.1</ele>
        <time>2018-06-13T11:44:12Z</time>
      </trkpt>
      <trkpt lat="42.463977" lon="0.183997">
        <ele>888.6</ele>
        <time>2018-06-13T11:44:13Z</time>
      </trkpt>
      <trkpt lat="42.463738" lon="0.184148">
        <ele>884.6</ele>
        <time>2018-06-13T11:44:20Z</time>
      </trkpt>
      <trkpt lat="42.462860" lon="0.184690">
        <ele>880.4</ele>
        <time>2018-06-13T11:44:46Z</time>
      </trkpt>
      <trkpt lat="42.462638" lon="0.184891">
        <ele>881.1</ele>
        <time>2018-06-13T11:44:53Z</time>
      </trkpt>
      <trkpt lat="42.462506" lon="0.185087">
        <ele>881.7</ele>
        <time>2018-06-13T11:44:58Z</time>
      </trkpt>
      <trkpt lat="42.462048" lon="0.185489">
        <ele>882.1</ele>
        <time>2018-06-13T11:45:12Z</time>
      </trkpt>
      <trkpt lat="42.461714" lon="0.185925">
        <ele>880.7</ele>
        <time>2018-06-13T11:45:24Z</time>
      </trkpt>
      <trkpt lat="42.461591" lon="0.186159">
        <ele>881.4</ele>
        <time>2018-06-13T11:45:30Z</time>
      </trkpt>
      <trkpt lat="42.461467" lon="0.186562">
        <ele>883.0</ele>
        <time>2018-06-13T11:45:39Z</time>
      </trkpt>
      <trkpt lat="42.461253" lon="0.186908">
        <ele>882.0</ele>
        <time>2018-06-13T11:45:47Z</time>
      </trkpt>
      <trkpt lat="42.461042" lon="0.187109">
        <ele>882.7</ele>
        <time>2018-06-13T11:45:54Z</time>
      </trkpt>
      <trkpt lat="42.460633" lon="0.187668">
        <ele>883.7</ele>
        <time>2018-06-13T11:46:10Z</time>
      </trkpt>
      <trkpt lat="42.460317" lon="0.188166">
        <ele>882.7</ele>
        <time>2018-06-13T11:46:22Z</time>
      </trkpt>
      <trkpt lat="42.460199" lon="0.188407">
        <ele>883.7</ele>
        <time>2018-06-13T11:46:28Z</time>
      </trkpt>
      <trkpt lat="42.460100" lon="0.188257">
        <ele>882.5</ele>
        <time>2018-06-13T11:46:32Z</time>
      </trkpt>
      <trkpt lat="42.459905" lon="0.187982">
        <ele>884.4</ele>
        <time>2018-06-13T11:46:39Z</time>
      </trkpt>
      <trkpt lat="42.459708" lon="0.187728">
        <ele>888.3</ele>
        <time>2018-06-13T11:46:47Z</time>
      </trkpt>
      <trkpt lat="42.459629" lon="0.187662">
        <ele>889.5</ele>
        <time>2018-06-13T11:46:49Z</time>
      </trkpt>
      <trkpt lat="42.459512" lon="0.187634">
        <ele>890.3</ele>
        <time>2018-06-13T11:46:52Z</time>
      </trkpt>
      <trkpt lat="42.459420" lon="0.187621">
        <ele>890.6</ele>
        <time>2018-06-13T11:46:55Z</time>
      </trkpt>
      <trkpt lat="42.459264" lon="0.187597">
        <ele>891.0</ele>
        <time>2018-06-13T11:46:59Z</time>
      </trkpt>
      <trkpt lat="42.459144" lon="0.187565">
        <ele>891.0</ele>
        <time>2018-06-13T11:47:02Z</time>
      </trkpt>
      <trkpt lat="42.458997" lon="0.187419">
        <ele>891.1</ele>
        <time>2018-06-13T11:47:07Z</time>
      </trkpt>
      <trkpt lat="42.458810" lon="0.187162">
        <ele>892.3</ele>
        <time>2018-06-13T11:47:14Z</time>
      </trkpt>
      <trkpt lat="42.458643" lon="0.186861">
        <ele>893.5</ele>
        <time>2018-06-13T11:47:21Z</time>
      </trkpt>
      <trkpt lat="42.458584" lon="0.186714">
        <ele>895.3</ele>
        <time>2018-06-13T11:47:25Z</time>
      </trkpt>
      <trkpt lat="42.458564" lon="0.186618">
        <ele>896.7</ele>
        <time>2018-06-13T11:47:26Z</time>
      </trkpt>
      <trkpt lat="42.458459" lon="0.186595">
        <ele>899.0</ele>
        <time>2018-06-13T11:47:29Z</time>
      </trkpt>
      <trkpt lat="42.458342" lon="0.186616">
        <ele>898.3</ele>
        <time>2018-06-13T11:47:32Z</time>
      </trkpt>
      <trkpt lat="42.458238" lon="0.186637">
        <ele>897.6</ele>
        <time>2018-06-13T11:47:35Z</time>
      </trkpt>
      <trkpt lat="42.458103" lon="0.186668">
        <ele>896.0</ele>
        <time>2018-06-13T11:47:39Z</time>
      </trkpt>
      <trkpt lat="42.458021" lon="0.186623">
        <ele>895.6</ele>
        <time>2018-06-13T11:47:41Z</time>
      </trkpt>
      <trkpt lat="42.457950" lon="0.186472">
        <ele>896.5</ele>
        <time>2018-06-13T11:47:45Z</time>
      </trkpt>
      <trkpt lat="42.457816" lon="0.186237">
        <ele>898.1</ele>
        <time>2018-06-13T11:47:51Z</time>
      </trkpt>
      <trkpt lat="42.457659" lon="0.186133">
        <ele>895.8</ele>
        <time>2018-06-13T11:47:55Z</time>
      </trkpt>
      <trkpt lat="42.457505" lon="0.186096">
        <ele>895.2</ele>
        <time>2018-06-13T11:47:59Z</time>
      </trkpt>
      <trkpt lat="42.457390" lon="0.186100">
        <ele>894.7</ele>
        <time>2018-06-13T11:48:02Z</time>
      </trkpt>
      <trkpt lat="42.457266" lon="0.186132">
        <ele>894.1</ele>
        <time>2018-06-13T11:48:06Z</time>
      </trkpt>
      <trkpt lat="42.457101" lon="0.186182">
        <ele>893.5</ele>
        <time>2018-06-13T11:48:10Z</time>
      </trkpt>
      <trkpt lat="42.456973" lon="0.186260">
        <ele>893.8</ele>
        <time>2018-06-13T11:48:14Z</time>
      </trkpt>
      <trkpt lat="42.456796" lon="0.186266">
        <ele>895.1</ele>
        <time>2018-06-13T11:48:19Z</time>
      </trkpt>
      <trkpt lat="42.456734" lon="0.186288">
        <ele>895.4</ele>
        <time>2018-06-13T11:48:20Z</time>
      </trkpt>
      <trkpt lat="42.456675" lon="0.186325">
        <ele>895.7</ele>
        <time>2018-06-13T11:48:22Z</time>
      </trkpt>
      <trkpt lat="42.456530" lon="0.186430">
        <ele>895.7</ele>
        <time>2018-06-13T11:48:26Z</time>
      </trkpt>
      <trkpt lat="42.456420" lon="0.186451">
        <ele>896.4</ele>
        <time>2018-06-13T11:48:29Z</time>
      </trkpt>
      <trkpt lat="42.456307" lon="0.186459">
        <ele>897.3</ele>
        <time>2018-06-13T11:48:32Z</time>
      </trkpt>
      <trkpt lat="42.456230" lon="0.186416">
        <ele>898.4</ele>
        <time>2018-06-13T11:48:34Z</time>
      </trkpt>
      <trkpt lat="42.456143" lon="0.186355">
        <ele>900.3</ele>
        <time>2018-06-13T11:48:37Z</time>
      </trkpt>
      <trkpt lat="42.456093" lon="0.186347">
        <ele>901.2</ele>
        <time>2018-06-13T11:48:38Z</time>
      </trkpt>
      <trkpt lat="42.455858" lon="0.186354">
        <ele>905.1</ele>
        <time>2018-06-13T11:48:45Z</time>
      </trkpt>
      <trkpt lat="42.455775" lon="0.186347">
        <ele>907.1</ele>
        <time>2018-06-13T11:48:47Z</time>
      </trkpt>
      <trkpt lat="42.455691" lon="0.186351">
        <ele>908.8</ele>
        <time>2018-06-13T11:48:49Z</time>
      </trkpt>
      <trkpt lat="42.455610" lon="0.186358">
        <ele>910.0</ele>
        <time>2018-06-13T11:48:51Z</time>
      </trkpt>
      <trkpt lat="42.455511" lon="0.186424">
        <ele>909.8</ele>
        <time>2018-06-13T11:48:54Z</time>
      </trkpt>
      <trkpt lat="42.455393" lon="0.186498">
        <ele>909.4</ele>
        <time>2018-06-13T11:48:58Z</time>
      </trkpt>
      <trkpt lat="42.455292" lon="0.186521">
        <ele>907.4</ele>
        <time>2018-06-13T11:49:00Z</time>
      </trkpt>
      <trkpt lat="42.455178" lon="0.186561">
        <ele>904.5</ele>
        <time>2018-06-13T11:49:04Z</time>
      </trkpt>
      <trkpt lat="42.455121" lon="0.186569">
        <ele>903.2</ele>
        <time>2018-06-13T11:49:05Z</time>
      </trkpt>
      <trkpt lat="42.455012" lon="0.186601">
        <ele>898.7</ele>
        <time>2018-06-13T11:49:08Z</time>
      </trkpt>
      <trkpt lat="42.454928" lon="0.186608">
        <ele>895.8</ele>
        <time>2018-06-13T11:49:11Z</time>
      </trkpt>
      <trkpt lat="42.454851" lon="0.186546">
        <ele>894.2</ele>
        <time>2018-06-13T11:49:13Z</time>
      </trkpt>
      <trkpt lat="42.454786" lon="0.186467">
        <ele>891.6</ele>
        <time>2018-06-13T11:49:15Z</time>
      </trkpt>
      <trkpt lat="42.454721" lon="0.186285">
        <ele>889.6</ele>
        <time>2018-06-13T11:49:19Z</time>
      </trkpt>
      <trkpt lat="42.454662" lon="0.186102">
        <ele>887.6</ele>
        <time>2018-06-13T11:49:23Z</time>
      </trkpt>
      <trkpt lat="42.454636" lon="0.185910">
        <ele>887.1</ele>
        <time>2018-06-13T11:49:27Z</time>
      </trkpt>
      <trkpt lat="42.454647" lon="0.185629">
        <ele>887.2</ele>
        <time>2018-06-13T11:49:33Z</time>
      </trkpt>
      <trkpt lat="42.454662" lon="0.184916">
        <ele>878.9</ele>
        <time>2018-06-13T11:49:47Z</time>
      </trkpt>
      <trkpt lat="42.454698" lon="0.184108">
        <ele>869.3</ele>
        <time>2018-06-13T11:50:03Z</time>
      </trkpt>
      <trkpt lat="42.454779" lon="0.183097">
        <ele>857.7</ele>
        <time>2018-06-13T11:50:23Z</time>
      </trkpt>
      <trkpt lat="42.454784" lon="0.183013">
        <ele>856.8</ele>
        <time>2018-06-13T11:50:24Z</time>
      </trkpt>
      <trkpt lat="42.454836" lon="0.182913">
        <ele>857.1</ele>
        <time>2018-06-13T11:50:27Z</time>
      </trkpt>
      <trkpt lat="42.454859" lon="0.182841">
        <ele>856.8</ele>
        <time>2018-06-13T11:50:28Z</time>
      </trkpt>
      <trkpt lat="42.454871" lon="0.182731">
        <ele>855.7</ele>
        <time>2018-06-13T11:50:30Z</time>
      </trkpt>
      <trkpt lat="42.454859" lon="0.182587">
        <ele>853.0</ele>
        <time>2018-06-13T11:50:33Z</time>
      </trkpt>
      <trkpt lat="42.454842" lon="0.182333">
        <ele>848.3</ele>
        <time>2018-06-13T11:50:38Z</time>
      </trkpt>
      <trkpt lat="42.454840" lon="0.182191">
        <ele>846.9</ele>
        <time>2018-06-13T11:50:41Z</time>
      </trkpt>
      <trkpt lat="42.454797" lon="0.181998">
        <ele>845.3</ele>
        <time>2018-06-13T11:50:45Z</time>
      </trkpt>
      <trkpt lat="42.454728" lon="0.181907">
        <ele>844.6</ele>
        <time>2018-06-13T11:50:48Z</time>
      </trkpt>
      <trkpt lat="42.454652" lon="0.181871">
        <ele>843.7</ele>
        <time>2018-06-13T11:50:50Z</time>
      </trkpt>
      <trkpt lat="42.454568" lon="0.181804">
        <ele>842.9</ele>
        <time>2018-06-13T11:50:52Z</time>
      </trkpt>
      <trkpt lat="42.454518" lon="0.181713">
        <ele>842.5</ele>
        <time>2018-06-13T11:50:54Z</time>
      </trkpt>
      <trkpt lat="42.454488" lon="0.181614">
        <ele>842.3</ele>
        <time>2018-06-13T11:50:57Z</time>
      </trkpt>
      <trkpt lat="42.454477" lon="0.181362">
        <ele>841.4</ele>
        <time>2018-06-13T11:51:02Z</time>
      </trkpt>
      <trkpt lat="42.454475" lon="0.181256">
        <ele>840.9</ele>
        <time>2018-06-13T11:51:04Z</time>
      </trkpt>
      <trkpt lat="42.454491" lon="0.181000">
        <ele>840.1</ele>
        <time>2018-06-13T11:51:09Z</time>
      </trkpt>
      <trkpt lat="42.454539" lon="0.180607">
        <ele>839.8</ele>
        <time>2018-06-13T11:51:16Z</time>
      </trkpt>
      <trkpt lat="42.454524" lon="0.180215">
        <ele>837.6</ele>
        <time>2018-06-13T11:51:24Z</time>
      </trkpt>
      <trkpt lat="42.454506" lon="0.179944">
        <ele>837.3</ele>
        <time>2018-06-13T11:51:29Z</time>
      </trkpt>
      <trkpt lat="42.454450" lon="0.179794">
        <ele>835.8</ele>
        <time>2018-06-13T11:51:33Z</time>
      </trkpt>
      <trkpt lat="42.454349" lon="0.179566">
        <ele>833.4</ele>
        <time>2018-06-13T11:51:38Z</time>
      </trkpt>
      <trkpt lat="42.454280" lon="0.179320">
        <ele>834.3</ele>
        <time>2018-06-13T11:51:43Z</time>
      </trkpt>
      <trkpt lat="42.454088" lon="0.179136">
        <ele>832.5</ele>
        <time>2018-06-13T11:51:49Z</time>
      </trkpt>
      <trkpt lat="42.453919" lon="0.179041">
        <ele>832.4</ele>
        <time>2018-06-13T11:51:54Z</time>
      </trkpt>
      <trkpt lat="42.453725" lon="0.178895">
        <ele>834.0</ele>
        <time>2018-06-13T11:52:00Z</time>
      </trkpt>
      <trkpt lat="42.453465" lon="0.178767">
        <ele>836.9</ele>
        <time>2018-06-13T11:52:07Z</time>
      </trkpt>
      <trkpt lat="42.453158" lon="0.178576">
        <ele>842.7</ele>
        <time>2018-06-13T11:52:16Z</time>
      </trkpt>
      <trkpt lat="42.453043" lon="0.178493">
        <ele>843.4</ele>
        <time>2018-06-13T11:52:20Z</time>
      </trkpt>
      <trkpt lat="42.452889" lon="0.178357">
        <ele>844.1</ele>
        <time>2018-06-13T11:52:25Z</time>
      </trkpt>
      <trkpt lat="42.452723" lon="0.178085">
        <ele>843.8</ele>
        <time>2018-06-13T11:52:31Z</time>
      </trkpt>
      <trkpt lat="42.452544" lon="0.177871">
        <ele>842.9</ele>
        <time>2018-06-13T11:52:38Z</time>
      </trkpt>
      <trkpt lat="42.452478" lon="0.177782">
        <ele>840.6</ele>
        <time>2018-06-13T11:52:40Z</time>
      </trkpt>
      <trkpt lat="42.452435" lon="0.177761">
        <ele>839.5</ele>
        <time>2018-06-13T11:52:41Z</time>
      </trkpt>
      <trkpt lat="42.452371" lon="0.177753">
        <ele>838.4</ele>
        <time>2018-06-13T11:52:43Z</time>
      </trkpt>
      <trkpt lat="42.452229" lon="0.177809">
        <ele>841.2</ele>
        <time>2018-06-13T11:52:47Z</time>
      </trkpt>
      <trkpt lat="42.452185" lon="0.177841">
        <ele>842.9</ele>
        <time>2018-06-13T11:52:49Z</time>
      </trkpt>
      <trkpt lat="42.452051" lon="0.177900">
        <ele>847.4</ele>
        <time>2018-06-13T11:52:52Z</time>
      </trkpt>
      <trkpt lat="42.451689" lon="0.178059">
        <ele>853.6</ele>
        <time>2018-06-13T11:53:03Z</time>
      </trkpt>
      <trkpt lat="42.451584" lon="0.178096">
        <ele>854.5</ele>
        <time>2018-06-13T11:53:05Z</time>
      </trkpt>
      <trkpt lat="42.451438" lon="0.178083">
        <ele>853.7</ele>
        <time>2018-06-13T11:53:09Z</time>
      </trkpt>
      <trkpt lat="42.451318" lon="0.178059">
        <ele>852.5</ele>
        <time>2018-06-13T11:53:13Z</time>
      </trkpt>
      <trkpt lat="42.451185" lon="0.177967">
        <ele>850.7</ele>
        <time>2018-06-13T11:53:16Z</time>
      </trkpt>
      <trkpt lat="42.451066" lon="0.177933">
        <ele>852.3</ele>
        <time>2018-06-13T11:53:20Z</time>
      </trkpt>
      <trkpt lat="42.450812" lon="0.177785">
        <ele>852.8</ele>
        <time>2018-06-13T11:53:27Z</time>
      </trkpt>
      <trkpt lat="42.450455" lon="0.177364">
        <ele>846.4</ele>
        <time>2018-06-13T11:53:40Z</time>
      </trkpt>
      <trkpt lat="42.450168" lon="0.177160">
        <ele>844.1</ele>
        <time>2018-06-13T11:53:48Z</time>
      </trkpt>
      <trkpt lat="42.449991" lon="0.177018">
        <ele>846.8</ele>
        <time>2018-06-13T11:53:54Z</time>
      </trkpt>
      <trkpt lat="42.449806" lon="0.176743">
        <ele>846.6</ele>
        <time>2018-06-13T11:54:01Z</time>
      </trkpt>
      <trkpt lat="42.449632" lon="0.176374">
        <ele>840.4</ele>
        <time>2018-06-13T11:54:10Z</time>
      </trkpt>
      <trkpt lat="42.449510" lon="0.176125">
        <ele>836.1</ele>
        <time>2018-06-13T11:54:15Z</time>
      </trkpt>
      <trkpt lat="42.449409" lon="0.175932">
        <ele>833.2</ele>
        <time>2018-06-13T11:54:20Z</time>
      </trkpt>
      <trkpt lat="42.449284" lon="0.175736">
        <ele>830.7</ele>
        <time>2018-06-13T11:54:25Z</time>
      </trkpt>
      <trkpt lat="42.449129" lon="0.175543">
        <ele>819.0</ele>
        <time>2018-06-13T11:54:31Z</time>
      </trkpt>
      <trkpt lat="42.448960" lon="0.175395">
        <ele>810.0</ele>
        <time>2018-06-13T11:54:37Z</time>
      </trkpt>
      <trkpt lat="42.448838" lon="0.175438">
        <ele>805.8</ele>
        <time>2018-06-13T11:54:41Z</time>
      </trkpt>
      <trkpt lat="42.448768" lon="0.175554">
        <ele>803.9</ele>
        <time>2018-06-13T11:54:44Z</time>
      </trkpt>
      <trkpt lat="42.448703" lon="0.175773">
        <ele>802.7</ele>
        <time>2018-06-13T11:54:48Z</time>
      </trkpt>
      <trkpt lat="42.448687" lon="0.175969">
        <ele>802.7</ele>
        <time>2018-06-13T11:54:52Z</time>
      </trkpt>
      <trkpt lat="42.448673" lon="0.176343">
        <ele>806.9</ele>
        <time>2018-06-13T11:54:59Z</time>
      </trkpt>
      <trkpt lat="42.448695" lon="0.176624">
        <ele>810.7</ele>
        <time>2018-06-13T11:55:05Z</time>
      </trkpt>
      <trkpt lat="42.448709" lon="0.176755">
        <ele>811.3</ele>
        <time>2018-06-13T11:55:08Z</time>
      </trkpt>
      <trkpt lat="42.448721" lon="0.176892">
        <ele>812.3</ele>
        <time>2018-06-13T11:55:10Z</time>
      </trkpt>
      <trkpt lat="42.448709" lon="0.176932">
        <ele>812.4</ele>
        <time>2018-06-13T11:55:11Z</time>
      </trkpt>
      <trkpt lat="42.448689" lon="0.176951">
        <ele>812.4</ele>
        <time>2018-06-13T11:55:12Z</time>
      </trkpt>
      <trkpt lat="42.448616" lon="0.176951">
        <ele>811.6</ele>
        <time>2018-06-13T11:55:14Z</time>
      </trkpt>
      <trkpt lat="42.448475" lon="0.176916">
        <ele>809.6</ele>
        <time>2018-06-13T11:55:17Z</time>
      </trkpt>
      <trkpt lat="42.448414" lon="0.176895">
        <ele>809.8</ele>
        <time>2018-06-13T11:55:19Z</time>
      </trkpt>
      <trkpt lat="42.448324" lon="0.176931">
        <ele>811.1</ele>
        <time>2018-06-13T11:55:22Z</time>
      </trkpt>
      <trkpt lat="42.448199" lon="0.176929">
        <ele>812.2</ele>
        <time>2018-06-13T11:55:25Z</time>
      </trkpt>
      <trkpt lat="42.448072" lon="0.176833">
        <ele>810.5</ele>
        <time>2018-06-13T11:55:29Z</time>
      </trkpt>
      <trkpt lat="42.448003" lon="0.176708">
        <ele>806.7</ele>
        <time>2018-06-13T11:55:32Z</time>
      </trkpt>
      <trkpt lat="42.447690" lon="0.176388">
        <ele>790.3</ele>
        <time>2018-06-13T11:55:43Z</time>
      </trkpt>
      <trkpt lat="42.447449" lon="0.176229">
        <ele>783.5</ele>
        <time>2018-06-13T11:55:50Z</time>
      </trkpt>
      <trkpt lat="42.447310" lon="0.176232">
        <ele>783.2</ele>
        <time>2018-06-13T11:55:54Z</time>
      </trkpt>
      <trkpt lat="42.447193" lon="0.176203">
        <ele>781.4</ele>
        <time>2018-06-13T11:55:57Z</time>
      </trkpt>
      <trkpt lat="42.447033" lon="0.176188">
        <ele>778.5</ele>
        <time>2018-06-13T11:56:01Z</time>
      </trkpt>
      <trkpt lat="42.446908" lon="0.176114">
        <ele>772.7</ele>
        <time>2018-06-13T11:56:05Z</time>
      </trkpt>
      <trkpt lat="42.446751" lon="0.176084">
        <ele>767.6</ele>
        <time>2018-06-13T11:56:10Z</time>
      </trkpt>
      <trkpt lat="42.446436" lon="0.176092">
        <ele>759.5</ele>
        <time>2018-06-13T11:56:18Z</time>
      </trkpt>
      <trkpt lat="42.446186" lon="0.176158">
        <ele>755.7</ele>
        <time>2018-06-13T11:56:25Z</time>
      </trkpt>
      <trkpt lat="42.445991" lon="0.176307">
        <ele>757.1</ele>
        <time>2018-06-13T11:56:31Z</time>
      </trkpt>
      <trkpt lat="42.445850" lon="0.176423">
        <ele>759.2</ele>
        <time>2018-06-13T11:56:35Z</time>
      </trkpt>
      <trkpt lat="42.445713" lon="0.176624">
        <ele>762.7</ele>
        <time>2018-06-13T11:56:41Z</time>
      </trkpt>
      <trkpt lat="42.445598" lon="0.176828">
        <ele>767.8</ele>
        <time>2018-06-13T11:56:46Z</time>
      </trkpt>
      <trkpt lat="42.445543" lon="0.177026">
        <ele>772.3</ele>
        <time>2018-06-13T11:56:50Z</time>
      </trkpt>
      <trkpt lat="42.445532" lon="0.177139">
        <ele>774.5</ele>
        <time>2018-06-13T11:56:52Z</time>
      </trkpt>
      <trkpt lat="42.445541" lon="0.177259">
        <ele>776.4</ele>
        <time>2018-06-13T11:56:55Z</time>
      </trkpt>
      <trkpt lat="42.445543" lon="0.177339">
        <ele>777.6</ele>
        <time>2018-06-13T11:56:56Z</time>
      </trkpt>
      <trkpt lat="42.445512" lon="0.177383">
        <ele>778.4</ele>
        <time>2018-06-13T11:56:58Z</time>
      </trkpt>
      <trkpt lat="42.445474" lon="0.177375">
        <ele>778.2</ele>
        <time>2018-06-13T11:56:59Z</time>
      </trkpt>
      <trkpt lat="42.445417" lon="0.177330">
        <ele>777.5</ele>
        <time>2018-06-13T11:57:00Z</time>
      </trkpt>
      <trkpt lat="42.445333" lon="0.177238">
        <ele>775.0</ele>
        <time>2018-06-13T11:57:03Z</time>
      </trkpt>
      <trkpt lat="42.445272" lon="0.177129">
        <ele>772.6</ele>
        <time>2018-06-13T11:57:06Z</time>
      </trkpt>
      <trkpt lat="42.445217" lon="0.177028">
        <ele>770.2</ele>
        <time>2018-06-13T11:57:08Z</time>
      </trkpt>
      <trkpt lat="42.445160" lon="0.176902">
        <ele>767.6</ele>
        <time>2018-06-13T11:57:11Z</time>
      </trkpt>
      <trkpt lat="42.445079" lon="0.176554">
        <ele>759.6</ele>
        <time>2018-06-13T11:57:19Z</time>
      </trkpt>
      <trkpt lat="42.445015" lon="0.176322">
        <ele>754.3</ele>
        <time>2018-06-13T11:57:24Z</time>
      </trkpt>
      <trkpt lat="42.444927" lon="0.176080">
        <ele>747.6</ele>
        <time>2018-06-13T11:57:29Z</time>
      </trkpt>
      <trkpt lat="42.444849" lon="0.175885">
        <ele>742.6</ele>
        <time>2018-06-13T11:57:34Z</time>
      </trkpt>
      <trkpt lat="42.444740" lon="0.175801">
        <ele>740.4</ele>
        <time>2018-06-13T11:57:37Z</time>
      </trkpt>
      <trkpt lat="42.444631" lon="0.175742">
        <ele>738.3</ele>
        <time>2018-06-13T11:57:40Z</time>
      </trkpt>
      <trkpt lat="42.444563" lon="0.175677">
        <ele>736.9</ele>
        <time>2018-06-13T11:57:42Z</time>
      </trkpt>
      <trkpt lat="42.444527" lon="0.175704">
        <ele>737.3</ele>
        <time>2018-06-13T11:57:44Z</time>
      </trkpt>
      <trkpt lat="42.444482" lon="0.175819">
        <ele>739.1</ele>
        <time>2018-06-13T11:57:46Z</time>
      </trkpt>
      <trkpt lat="42.444444" lon="0.175929">
        <ele>740.5</ele>
        <time>2018-06-13T11:57:48Z</time>
      </trkpt>
      <trkpt lat="42.444353" lon="0.175967">
        <ele>740.3</ele>
        <time>2018-06-13T11:57:51Z</time>
      </trkpt>
      <trkpt lat="42.444252" lon="0.176031">
        <ele>741.6</ele>
        <time>2018-06-13T11:57:54Z</time>
      </trkpt>
      <trkpt lat="42.444193" lon="0.176074">
        <ele>743.0</ele>
        <time>2018-06-13T11:57:56Z</time>
      </trkpt>
      <trkpt lat="42.444116" lon="0.176079">
        <ele>744.0</ele>
        <time>2018-06-13T11:57:58Z</time>
      </trkpt>
      <trkpt lat="42.444078" lon="0.176087">
        <ele>744.5</ele>
        <time>2018-06-13T11:57:59Z</time>
      </trkpt>
      <trkpt lat="42.443961" lon="0.176240">
        <ele>749.0</ele>
        <time>2018-06-13T11:58:03Z</time>
      </trkpt>
      <trkpt lat="42.443934" lon="0.176283">
        <ele>750.1</ele>
        <time>2018-06-13T11:58:04Z</time>
      </trkpt>
      <trkpt lat="42.443918" lon="0.176272">
        <ele>750.3</ele>
        <time>2018-06-13T11:58:05Z</time>
      </trkpt>
      <trkpt lat="42.443906" lon="0.176240">
        <ele>750.0</ele>
        <time>2018-06-13T11:58:06Z</time>
      </trkpt>
      <trkpt lat="42.443916" lon="0.176154">
        <ele>748.4</ele>
        <time>2018-06-13T11:58:07Z</time>
      </trkpt>
      <trkpt lat="42.443924" lon="0.176063">
        <ele>746.7</ele>
        <time>2018-06-13T11:58:09Z</time>
      </trkpt>
      <trkpt lat="42.443922" lon="0.175870">
        <ele>743.2</ele>
        <time>2018-06-13T11:58:13Z</time>
      </trkpt>
      <trkpt lat="42.443888" lon="0.175725">
        <ele>740.7</ele>
        <time>2018-06-13T11:58:16Z</time>
      </trkpt>
      <trkpt lat="42.443811" lon="0.175556">
        <ele>736.6</ele>
        <time>2018-06-13T11:58:20Z</time>
      </trkpt>
      <trkpt lat="42.443710" lon="0.175454">
        <ele>733.0</ele>
        <time>2018-06-13T11:58:23Z</time>
      </trkpt>
      <trkpt lat="42.443605" lon="0.175393">
        <ele>730.1</ele>
        <time>2018-06-13T11:58:27Z</time>
      </trkpt>
      <trkpt lat="42.443553" lon="0.175357">
        <ele>728.4</ele>
        <time>2018-06-13T11:58:28Z</time>
      </trkpt>
      <trkpt lat="42.443489" lon="0.175232">
        <ele>722.9</ele>
        <time>2018-06-13T11:58:31Z</time>
      </trkpt>
      <trkpt lat="42.443451" lon="0.175183">
        <ele>720.8</ele>
        <time>2018-06-13T11:58:33Z</time>
      </trkpt>
      <trkpt lat="42.443388" lon="0.175143">
        <ele>719.2</ele>
        <time>2018-06-13T11:58:35Z</time>
      </trkpt>
      <trkpt lat="42.443145" lon="0.175105">
        <ele>718.6</ele>
        <time>2018-06-13T11:58:41Z</time>
      </trkpt>
      <trkpt lat="42.443012" lon="0.175087">
        <ele>719.3</ele>
        <time>2018-06-13T11:58:45Z</time>
      </trkpt>
      <trkpt lat="42.442935" lon="0.175052">
        <ele>719.3</ele>
        <time>2018-06-13T11:58:47Z</time>
      </trkpt>
      <trkpt lat="42.442873" lon="0.174886">
        <ele>716.4</ele>
        <time>2018-06-13T11:58:51Z</time>
      </trkpt>
      <trkpt lat="42.442838" lon="0.174786">
        <ele>714.9</ele>
        <time>2018-06-13T11:58:53Z</time>
      </trkpt>
      <trkpt lat="42.442688" lon="0.174539">
        <ele>711.6</ele>
        <time>2018-06-13T11:58:59Z</time>
      </trkpt>
      <trkpt lat="42.442584" lon="0.174443">
        <ele>710.7</ele>
        <time>2018-06-13T11:59:02Z</time>
      </trkpt>
      <trkpt lat="42.442499" lon="0.174427">
        <ele>710.8</ele>
        <time>2018-06-13T11:59:05Z</time>
      </trkpt>
      <trkpt lat="42.442448" lon="0.174333">
        <ele>710.0</ele>
        <time>2018-06-13T11:59:07Z</time>
      </trkpt>
      <trkpt lat="42.442390" lon="0.174157">
        <ele>708.8</ele>
        <time>2018-06-13T11:59:11Z</time>
      </trkpt>
      <trkpt lat="42.442291" lon="0.173918">
        <ele>706.1</ele>
        <time>2018-06-13T11:59:16Z</time>
      </trkpt>
      <trkpt lat="42.442084" lon="0.173397">
        <ele>701.7</ele>
        <time>2018-06-13T11:59:28Z</time>
      </trkpt>
      <trkpt lat="42.442058" lon="0.173327">
        <ele>701.0</ele>
        <time>2018-06-13T11:59:29Z</time>
      </trkpt>
      <trkpt lat="42.442044" lon="0.173268">
        <ele>700.6</ele>
        <time>2018-06-13T11:59:30Z</time>
      </trkpt>
      <trkpt lat="42.442020" lon="0.173217">
        <ele>699.9</ele>
        <time>2018-06-13T11:59:32Z</time>
      </trkpt>
      <trkpt lat="42.441959" lon="0.173150">
        <ele>698.4</ele>
        <time>2018-06-13T11:59:34Z</time>
      </trkpt>
      <trkpt lat="42.441893" lon="0.172970">
        <ele>695.4</ele>
        <time>2018-06-13T11:59:38Z</time>
      </trkpt>
      <trkpt lat="42.441854" lon="0.172858">
        <ele>693.8</ele>
        <time>2018-06-13T11:59:40Z</time>
      </trkpt>
      <trkpt lat="42.441823" lon="0.172710">
        <ele>692.5</ele>
        <time>2018-06-13T11:59:43Z</time>
      </trkpt>
      <trkpt lat="42.441813" lon="0.172601">
        <ele>692.0</ele>
        <time>2018-06-13T11:59:45Z</time>
      </trkpt>
      <trkpt lat="42.441819" lon="0.172536">
        <ele>691.8</ele>
        <time>2018-06-13T11:59:47Z</time>
      </trkpt>
      <trkpt lat="42.441805" lon="0.172281">
        <ele>689.8</ele>
        <time>2018-06-13T11:59:52Z</time>
      </trkpt>
      <trkpt lat="42.441803" lon="0.171938">
        <ele>685.4</ele>
        <time>2018-06-13T11:59:58Z</time>
      </trkpt>
      <trkpt lat="42.441815" lon="0.171680">
        <ele>683.1</ele>
        <time>2018-06-13T12:00:03Z</time>
      </trkpt>
      <trkpt lat="42.441841" lon="0.171385">
        <ele>681.9</ele>
        <time>2018-06-13T12:00:09Z</time>
      </trkpt>
      <trkpt lat="42.441841" lon="0.171243">
        <ele>681.8</ele>
        <time>2018-06-13T12:00:12Z</time>
      </trkpt>
      <trkpt lat="42.441822" lon="0.171087">
        <ele>681.4</ele>
        <time>2018-06-13T12:00:15Z</time>
      </trkpt>
      <trkpt lat="42.441759" lon="0.170719">
        <ele>679.3</ele>
        <time>2018-06-13T12:00:22Z</time>
      </trkpt>
      <trkpt lat="42.441651" lon="0.170344">
        <ele>676.9</ele>
        <time>2018-06-13T12:00:30Z</time>
      </trkpt>
      <trkpt lat="42.441546" lon="0.169978">
        <ele>674.3</ele>
        <time>2018-06-13T12:00:38Z</time>
      </trkpt>
      <trkpt lat="42.441463" lon="0.169854">
        <ele>674.1</ele>
        <time>2018-06-13T12:00:41Z</time>
      </trkpt>
      <trkpt lat="42.441318" lon="0.169674">
        <ele>674.7</ele>
        <time>2018-06-13T12:00:46Z</time>
      </trkpt>
      <trkpt lat="42.441219" lon="0.169473">
        <ele>672.2</ele>
        <time>2018-06-13T12:00:51Z</time>
      </trkpt>
      <trkpt lat="42.441164" lon="0.169266">
        <ele>667.9</ele>
        <time>2018-06-13T12:00:56Z</time>
      </trkpt>
      <trkpt lat="42.441166" lon="0.169167">
        <ele>666.6</ele>
        <time>2018-06-13T12:00:57Z</time>
      </trkpt>
      <trkpt lat="42.441162" lon="0.169130">
        <ele>666.1</ele>
        <time>2018-06-13T12:00:58Z</time>
      </trkpt>
      <trkpt lat="42.441050" lon="0.168984">
        <ele>662.7</ele>
        <time>2018-06-13T12:01:02Z</time>
      </trkpt>
      <trkpt lat="42.441028" lon="0.168942">
        <ele>661.9</ele>
        <time>2018-06-13T12:01:03Z</time>
      </trkpt>
      <trkpt lat="42.441069" lon="0.168845">
        <ele>661.4</ele>
        <time>2018-06-13T12:01:06Z</time>
      </trkpt>
      <trkpt lat="42.441079" lon="0.168794">
        <ele>661.0</ele>
        <time>2018-06-13T12:01:07Z</time>
      </trkpt>
      <trkpt lat="42.441067" lon="0.168759">
        <ele>660.5</ele>
        <time>2018-06-13T12:01:07Z</time>
      </trkpt>
      <trkpt lat="42.441045" lon="0.168725">
        <ele>660.1</ele>
        <time>2018-06-13T12:01:08Z</time>
      </trkpt>
      <trkpt lat="42.441004" lon="0.168725">
        <ele>659.5</ele>
        <time>2018-06-13T12:01:09Z</time>
      </trkpt>
      <trkpt lat="42.440958" lon="0.168735">
        <ele>658.7</ele>
        <time>2018-06-13T12:01:11Z</time>
      </trkpt>
      <trkpt lat="42.440958" lon="0.168711">
        <ele>658.8</ele>
        <time>2018-06-13T12:01:11Z</time>
      </trkpt>
      <trkpt lat="42.440946" lon="0.168644">
        <ele>658.7</ele>
        <time>2018-06-13T12:01:12Z</time>
      </trkpt>
      <trkpt lat="42.440935" lon="0.168349">
        <ele>660.7</ele>
        <time>2018-06-13T12:01:18Z</time>
      </trkpt>
      <trkpt lat="42.440916" lon="0.168239">
        <ele>661.6</ele>
        <time>2018-06-13T12:01:20Z</time>
      </trkpt>
      <trkpt lat="42.440883" lon="0.168126">
        <ele>662.7</ele>
        <time>2018-06-13T12:01:23Z</time>
      </trkpt>
      <trkpt lat="42.440891" lon="0.168051">
        <ele>664.6</ele>
        <time>2018-06-13T12:01:24Z</time>
      </trkpt>
      <trkpt lat="42.440960" lon="0.167673">
        <ele>669.9</ele>
        <time>2018-06-13T12:01:32Z</time>
      </trkpt>
      <trkpt lat="42.441008" lon="0.167440">
        <ele>668.0</ele>
        <time>2018-06-13T12:01:37Z</time>
      </trkpt>
      <trkpt lat="42.441085" lon="0.167209">
        <ele>664.2</ele>
        <time>2018-06-13T12:01:42Z</time>
      </trkpt>
      <trkpt lat="42.441196" lon="0.166987">
        <ele>658.5</ele>
        <time>2018-06-13T12:01:47Z</time>
      </trkpt>
      <trkpt lat="42.441352" lon="0.166726">
        <ele>652.0</ele>
        <time>2018-06-13T12:01:54Z</time>
      </trkpt>
      <trkpt lat="42.441424" lon="0.166563">
        <ele>649.4</ele>
        <time>2018-06-13T12:01:58Z</time>
      </trkpt>
      <trkpt lat="42.441455" lon="0.166362">
        <ele>646.9</ele>
        <time>2018-06-13T12:02:02Z</time>
      </trkpt>
      <trkpt lat="42.441468" lon="0.166062">
        <ele>645.1</ele>
        <time>2018-06-13T12:02:08Z</time>
      </trkpt>
      <trkpt lat="42.441485" lon="0.165753">
        <ele>644.5</ele>
        <time>2018-06-13T12:02:14Z</time>
      </trkpt>
      <trkpt lat="42.441468" lon="0.165498">
        <ele>643.7</ele>
        <time>2018-06-13T12:02:19Z</time>
      </trkpt>
      <trkpt lat="42.441450" lon="0.165192">
        <ele>640.8</ele>
        <time>2018-06-13T12:02:25Z</time>
      </trkpt>
      <trkpt lat="42.441452" lon="0.165017">
        <ele>639.4</ele>
        <time>2018-06-13T12:02:28Z</time>
      </trkpt>
      <trkpt lat="42.441484" lon="0.164842">
        <ele>639.2</ele>
        <time>2018-06-13T12:02:32Z</time>
      </trkpt>
      <trkpt lat="42.441550" lon="0.164648">
        <ele>639.4</ele>
        <time>2018-06-13T12:02:36Z</time>
      </trkpt>
      <trkpt lat="42.441616" lon="0.164430">
        <ele>639.3</ele>
        <time>2018-06-13T12:02:40Z</time>
      </trkpt>
      <trkpt lat="42.441677" lon="0.164280">
        <ele>639.9</ele>
        <time>2018-06-13T12:02:44Z</time>
      </trkpt>
      <trkpt lat="42.441699" lon="0.164216">
        <ele>640.6</ele>
        <time>2018-06-13T12:02:45Z</time>
      </trkpt>
      <trkpt lat="42.441701" lon="0.164127">
        <ele>640.9</ele>
        <time>2018-06-13T12:02:47Z</time>
      </trkpt>
      <trkpt lat="42.441677" lon="0.164009">
        <ele>641.3</ele>
        <time>2018-06-13T12:02:49Z</time>
      </trkpt>
      <trkpt lat="42.441713" lon="0.163932">
        <ele>642.1</ele>
        <time>2018-06-13T12:02:51Z</time>
      </trkpt>
      <trkpt lat="42.441761" lon="0.163883">
        <ele>642.5</ele>
        <time>2018-06-13T12:02:53Z</time>
      </trkpt>
      <trkpt lat="42.441767" lon="0.163840">
        <ele>642.8</ele>
        <time>2018-06-13T12:02:53Z</time>
      </trkpt>
      <trkpt lat="42.441755" lon="0.163771">
        <ele>643.2</ele>
        <time>2018-06-13T12:02:55Z</time>
      </trkpt>
      <trkpt lat="42.441701" lon="0.163586">
        <ele>646.8</ele>
        <time>2018-06-13T12:02:59Z</time>
      </trkpt>
      <trkpt lat="42.441736" lon="0.163513">
        <ele>647.6</ele>
        <time>2018-06-13T12:03:00Z</time>
      </trkpt>
      <trkpt lat="42.441757" lon="0.163467">
        <ele>648.0</ele>
        <time>2018-06-13T12:03:02Z</time>
      </trkpt>
      <trkpt lat="42.441752" lon="0.163406">
        <ele>649.5</ele>
        <time>2018-06-13T12:03:03Z</time>
      </trkpt>
      <trkpt lat="42.441716" lon="0.163354">
        <ele>651.6</ele>
        <time>2018-06-13T12:03:04Z</time>
      </trkpt>
      <trkpt lat="42.441670" lon="0.163349">
        <ele>652.8</ele>
        <time>2018-06-13T12:03:05Z</time>
      </trkpt>
      <trkpt lat="42.441546" lon="0.163420">
        <ele>653.3</ele>
        <time>2018-06-13T12:03:09Z</time>
      </trkpt>
      <trkpt lat="42.441466" lon="0.163466">
        <ele>654.4</ele>
        <time>2018-06-13T12:03:11Z</time>
      </trkpt>
      <trkpt lat="42.441377" lon="0.163469">
        <ele>657.5</ele>
        <time>2018-06-13T12:03:14Z</time>
      </trkpt>
      <trkpt lat="42.441349" lon="0.163411">
        <ele>660.3</ele>
        <time>2018-06-13T12:03:15Z</time>
      </trkpt>
      <trkpt lat="42.441339" lon="0.163331">
        <ele>663.0</ele>
        <time>2018-06-13T12:03:17Z</time>
      </trkpt>
      <trkpt lat="42.441365" lon="0.163269">
        <ele>664.0</ele>
        <time>2018-06-13T12:03:18Z</time>
      </trkpt>
      <trkpt lat="42.441401" lon="0.163222">
        <ele>664.3</ele>
        <time>2018-06-13T12:03:20Z</time>
      </trkpt>
      <trkpt lat="42.441518" lon="0.163132">
        <ele>662.9</ele>
        <time>2018-06-13T12:03:23Z</time>
      </trkpt>
      <trkpt lat="42.441651" lon="0.163035">
        <ele>661.7</ele>
        <time>2018-06-13T12:03:27Z</time>
      </trkpt>
      <trkpt lat="42.441794" lon="0.162759">
        <ele>668.0</ele>
        <time>2018-06-13T12:03:34Z</time>
      </trkpt>
      <trkpt lat="42.441922" lon="0.162481">
        <ele>674.4</ele>
        <time>2018-06-13T12:03:41Z</time>
      </trkpt>
      <trkpt lat="42.442165" lon="0.162118">
        <ele>673.6</ele>
        <time>2018-06-13T12:03:50Z</time>
      </trkpt>
      <trkpt lat="42.442353" lon="0.161737">
        <ele>670.7</ele>
        <time>2018-06-13T12:03:59Z</time>
      </trkpt>
      <trkpt lat="42.442394" lon="0.161562">
        <ele>672.7</ele>
        <time>2018-06-13T12:04:03Z</time>
      </trkpt>
      <trkpt lat="42.442489" lon="0.161212">
        <ele>674.3</ele>
        <time>2018-06-13T12:04:10Z</time>
      </trkpt>
      <trkpt lat="42.442538" lon="0.160952">
        <ele>675.6</ele>
        <time>2018-06-13T12:04:15Z</time>
      </trkpt>
      <trkpt lat="42.442545" lon="0.160651">
        <ele>675.5</ele>
        <time>2018-06-13T12:04:21Z</time>
      </trkpt>
      <trkpt lat="42.442536" lon="0.160359">
        <ele>674.2</ele>
        <time>2018-06-13T12:04:27Z</time>
      </trkpt>
      <trkpt lat="42.442504" lon="0.160144">
        <ele>673.5</ele>
        <time>2018-06-13T12:04:31Z</time>
      </trkpt>
      <trkpt lat="42.442458" lon="0.159789">
        <ele>672.2</ele>
        <time>2018-06-13T12:04:38Z</time>
      </trkpt>
      <trkpt lat="42.442458" lon="0.159672">
        <ele>672.7</ele>
        <time>2018-06-13T12:04:40Z</time>
      </trkpt>
      <trkpt lat="42.442444" lon="0.159518">
        <ele>673.4</ele>
        <time>2018-06-13T12:04:43Z</time>
      </trkpt>
      <trkpt lat="42.442424" lon="0.159460">
        <ele>673.7</ele>
        <time>2018-06-13T12:04:45Z</time>
      </trkpt>
      <trkpt lat="42.442375" lon="0.159404">
        <ele>673.7</ele>
        <time>2018-06-13T12:04:46Z</time>
      </trkpt>
      <trkpt lat="42.442322" lon="0.159373">
        <ele>673.4</ele>
        <time>2018-06-13T12:04:48Z</time>
      </trkpt>
      <trkpt lat="42.442191" lon="0.159311">
        <ele>672.2</ele>
        <time>2018-06-13T12:04:52Z</time>
      </trkpt>
      <trkpt lat="42.442083" lon="0.159235">
        <ele>670.0</ele>
        <time>2018-06-13T12:04:55Z</time>
      </trkpt>
      <trkpt lat="42.441935" lon="0.159175">
        <ele>667.5</ele>
        <time>2018-06-13T12:04:59Z</time>
      </trkpt>
      <trkpt lat="42.441715" lon="0.159150">
        <ele>664.6</ele>
        <time>2018-06-13T12:05:05Z</time>
      </trkpt>
      <trkpt lat="42.441527" lon="0.159181">
        <ele>662.6</ele>
        <time>2018-06-13T12:05:10Z</time>
      </trkpt>
      <trkpt lat="42.441311" lon="0.159273">
        <ele>660.6</ele>
        <time>2018-06-13T12:05:16Z</time>
      </trkpt>
      <trkpt lat="42.441028" lon="0.159458">
        <ele>659.4</ele>
        <time>2018-06-13T12:05:24Z</time>
      </trkpt>
      <trkpt lat="42.440794" lon="0.159672">
        <ele>658.7</ele>
        <time>2018-06-13T12:05:32Z</time>
      </trkpt>
      <trkpt lat="42.440623" lon="0.159876">
        <ele>657.9</ele>
        <time>2018-06-13T12:05:38Z</time>
      </trkpt>
      <trkpt lat="42.440468" lon="0.159995">
        <ele>656.0</ele>
        <time>2018-06-13T12:05:42Z</time>
      </trkpt>
      <trkpt lat="42.440269" lon="0.160081">
        <ele>653.3</ele>
        <time>2018-06-13T12:05:48Z</time>
      </trkpt>
      <trkpt lat="42.440137" lon="0.160107">
        <ele>651.6</ele>
        <time>2018-06-13T12:05:51Z</time>
      </trkpt>
      <trkpt lat="42.439983" lon="0.160069">
        <ele>650.4</ele>
        <time>2018-06-13T12:05:56Z</time>
      </trkpt>
      <trkpt lat="42.439839" lon="0.160031">
        <ele>649.5</ele>
        <time>2018-06-13T12:05:59Z</time>
      </trkpt>
      <trkpt lat="42.439673" lon="0.159945">
        <ele>648.4</ele>
        <time>2018-06-13T12:06:04Z</time>
      </trkpt>
      <trkpt lat="42.439573" lon="0.159909">
        <ele>647.9</ele>
        <time>2018-06-13T12:06:07Z</time>
      </trkpt>
      <trkpt lat="42.439483" lon="0.159905">
        <ele>647.0</ele>
        <time>2018-06-13T12:06:09Z</time>
      </trkpt>
      <trkpt lat="42.439404" lon="0.159949">
        <ele>646.5</ele>
        <time>2018-06-13T12:06:12Z</time>
      </trkpt>
      <trkpt lat="42.439303" lon="0.160009">
        <ele>646.0</ele>
        <time>2018-06-13T12:06:14Z</time>
      </trkpt>
      <trkpt lat="42.439133" lon="0.160272">
        <ele>645.1</ele>
        <time>2018-06-13T12:06:21Z</time>
      </trkpt>
      <trkpt lat="42.438816" lon="0.160852">
        <ele>643.0</ele>
        <time>2018-06-13T12:06:35Z</time>
      </trkpt>
      <trkpt lat="42.438658" lon="0.160969">
        <ele>642.7</ele>
        <time>2018-06-13T12:06:40Z</time>
      </trkpt>
      <trkpt lat="42.438540" lon="0.161004">
        <ele>642.3</ele>
        <time>2018-06-13T12:06:43Z</time>
      </trkpt>
      <trkpt lat="42.438392" lon="0.160976">
        <ele>640.8</ele>
        <time>2018-06-13T12:06:47Z</time>
      </trkpt>
      <trkpt lat="42.438204" lon="0.160853">
        <ele>638.5</ele>
        <time>2018-06-13T12:06:53Z</time>
      </trkpt>
      <trkpt lat="42.438037" lon="0.160703">
        <ele>639.6</ele>
        <time>2018-06-13T12:06:58Z</time>
      </trkpt>
      <trkpt lat="42.437891" lon="0.160489">
        <ele>638.5</ele>
        <time>2018-06-13T12:07:04Z</time>
      </trkpt>
      <trkpt lat="42.437835" lon="0.160263">
        <ele>634.9</ele>
        <time>2018-06-13T12:07:09Z</time>
      </trkpt>
      <trkpt lat="42.437801" lon="0.159977">
        <ele>632.0</ele>
        <time>2018-06-13T12:07:14Z</time>
      </trkpt>
      <trkpt lat="42.437778" lon="0.159769">
        <ele>630.7</ele>
        <time>2018-06-13T12:07:18Z</time>
      </trkpt>
      <trkpt lat="42.437731" lon="0.159594">
        <ele>629.7</ele>
        <time>2018-06-13T12:07:22Z</time>
      </trkpt>
      <trkpt lat="42.437673" lon="0.159466">
        <ele>628.3</ele>
        <time>2018-06-13T12:07:25Z</time>
      </trkpt>
      <trkpt lat="42.437592" lon="0.159401">
        <ele>627.2</ele>
        <time>2018-06-13T12:07:27Z</time>
      </trkpt>
      <trkpt lat="42.437505" lon="0.159408">
        <ele>626.3</ele>
        <time>2018-06-13T12:07:30Z</time>
      </trkpt>
      <trkpt lat="42.437266" lon="0.159401">
        <ele>623.9</ele>
        <time>2018-06-13T12:07:36Z</time>
      </trkpt>
      <trkpt lat="42.437056" lon="0.159442">
        <ele>622.3</ele>
        <time>2018-06-13T12:07:42Z</time>
      </trkpt>
      <trkpt lat="42.436868" lon="0.159442">
        <ele>620.9</ele>
        <time>2018-06-13T12:07:47Z</time>
      </trkpt>
      <trkpt lat="42.436711" lon="0.159439">
        <ele>620.0</ele>
        <time>2018-06-13T12:07:51Z</time>
      </trkpt>
      <trkpt lat="42.436586" lon="0.159394">
        <ele>619.6</ele>
        <time>2018-06-13T12:07:54Z</time>
      </trkpt>
      <trkpt lat="42.436459" lon="0.159284">
        <ele>620.9</ele>
        <time>2018-06-13T12:07:58Z</time>
      </trkpt>
      <trkpt lat="42.436308" lon="0.159018">
        <ele>625.3</ele>
        <time>2018-06-13T12:08:05Z</time>
      </trkpt>
      <trkpt lat="42.436093" lon="0.158735">
        <ele>630.2</ele>
        <time>2018-06-13T12:08:13Z</time>
      </trkpt>
      <trkpt lat="42.435947" lon="0.158607">
        <ele>633.3</ele>
        <time>2018-06-13T12:08:17Z</time>
      </trkpt>
      <trkpt lat="42.435756" lon="0.158530">
        <ele>640.2</ele>
        <time>2018-06-13T12:08:23Z</time>
      </trkpt>
      <trkpt lat="42.435668" lon="0.158432">
        <ele>644.3</ele>
        <time>2018-06-13T12:08:26Z</time>
      </trkpt>
      <trkpt lat="42.435604" lon="0.158299">
        <ele>647.4</ele>
        <time>2018-06-13T12:08:29Z</time>
      </trkpt>
      <trkpt lat="42.435597" lon="0.158155">
        <ele>648.5</ele>
        <time>2018-06-13T12:08:32Z</time>
      </trkpt>
      <trkpt lat="42.435596" lon="0.158005">
        <ele>649.8</ele>
        <time>2018-06-13T12:08:35Z</time>
      </trkpt>
      <trkpt lat="42.435674" lon="0.157760">
        <ele>649.0</ele>
        <time>2018-06-13T12:08:40Z</time>
      </trkpt>
      <trkpt lat="42.435729" lon="0.157502">
        <ele>646.9</ele>
        <time>2018-06-13T12:08:46Z</time>
      </trkpt>
      <trkpt lat="42.435807" lon="0.157229">
        <ele>643.6</ele>
        <time>2018-06-13T12:08:51Z</time>
      </trkpt>
      <trkpt lat="42.435882" lon="0.156793">
        <ele>644.8</ele>
        <time>2018-06-13T12:09:00Z</time>
      </trkpt>
      <trkpt lat="42.435949" lon="0.156643">
        <ele>647.9</ele>
        <time>2018-06-13T12:09:04Z</time>
      </trkpt>
      <trkpt lat="42.436119" lon="0.156423">
        <ele>652.5</ele>
        <time>2018-06-13T12:09:10Z</time>
      </trkpt>
      <trkpt lat="42.436261" lon="0.156160">
        <ele>660.0</ele>
        <time>2018-06-13T12:09:16Z</time>
      </trkpt>
      <trkpt lat="42.436269" lon="0.156063">
        <ele>662.2</ele>
        <time>2018-06-13T12:09:18Z</time>
      </trkpt>
      <trkpt lat="42.436234" lon="0.155972">
        <ele>664.6</ele>
        <time>2018-06-13T12:09:20Z</time>
      </trkpt>
      <trkpt lat="42.436154" lon="0.155934">
        <ele>662.8</ele>
        <time>2018-06-13T12:09:23Z</time>
      </trkpt>
      <trkpt lat="42.435830" lon="0.156204">
        <ele>651.3</ele>
        <time>2018-06-13T12:09:33Z</time>
      </trkpt>
      <trkpt lat="42.435414" lon="0.156522">
        <ele>640.0</ele>
        <time>2018-06-13T12:09:46Z</time>
      </trkpt>
      <trkpt lat="42.434953" lon="0.156904">
        <ele>640.9</ele>
        <time>2018-06-13T12:10:00Z</time>
      </trkpt>
      <trkpt lat="42.434432" lon="0.157431">
        <ele>640.9</ele>
        <time>2018-06-13T12:10:17Z</time>
      </trkpt>
      <trkpt lat="42.434358" lon="0.157428">
        <ele>638.2</ele>
        <time>2018-06-13T12:10:20Z</time>
      </trkpt>
      <trkpt lat="42.434311" lon="0.157353">
        <ele>635.0</ele>
        <time>2018-06-13T12:10:22Z</time>
      </trkpt>
      <trkpt lat="42.434319" lon="0.157235">
        <ele>632.7</ele>
        <time>2018-06-13T12:10:24Z</time>
      </trkpt>
      <trkpt lat="42.434398" lon="0.157096">
        <ele>631.6</ele>
        <time>2018-06-13T12:10:27Z</time>
      </trkpt>
      <trkpt lat="42.434588" lon="0.156860">
        <ele>630.5</ele>
        <time>2018-06-13T12:10:34Z</time>
      </trkpt>
      <trkpt lat="42.434738" lon="0.156549">
        <ele>628.8</ele>
        <time>2018-06-13T12:10:41Z</time>
      </trkpt>
      <trkpt lat="42.435118" lon="0.155326">
        <ele>618.9</ele>
        <time>2018-06-13T12:11:07Z</time>
      </trkpt>
      <trkpt lat="42.435172" lon="0.154939">
        <ele>618.7</ele>
        <time>2018-06-13T12:11:15Z</time>
      </trkpt>
      <trkpt lat="42.435110" lon="0.154682">
        <ele>617.5</ele>
        <time>2018-06-13T12:11:20Z</time>
      </trkpt>
      <trkpt lat="42.434303" lon="0.153416">
        <ele>604.4</ele>
        <time>2018-06-13T12:11:53Z</time>
      </trkpt>
      <trkpt lat="42.434206" lon="0.153351">
        <ele>604.6</ele>
        <time>2018-06-13T12:11:56Z</time>
      </trkpt>
      <trkpt lat="42.433256" lon="0.153716">
        <ele>591.5</ele>
        <time>2018-06-13T12:12:22Z</time>
      </trkpt>
      <trkpt lat="42.431437" lon="0.153705">
        <ele>593.0</ele>
        <time>2018-06-13T12:13:10Z</time>
      </trkpt>
      <trkpt lat="42.431120" lon="0.153663">
        <ele>596.1</ele>
        <time>2018-06-13T12:13:19Z</time>
      </trkpt>
      <trkpt lat="42.430675" lon="0.153523">
        <ele>598.2</ele>
        <time>2018-06-13T12:13:31Z</time>
      </trkpt>
      <trkpt lat="42.429979" lon="0.152676">
        <ele>601.4</ele>
        <time>2018-06-13T12:13:56Z</time>
      </trkpt>
      <trkpt lat="42.429940" lon="0.152472">
        <ele>601.5</ele>
        <time>2018-06-13T12:14:00Z</time>
      </trkpt>
      <trkpt lat="42.429940" lon="0.152300">
        <ele>601.4</ele>
        <time>2018-06-13T12:14:03Z</time>
      </trkpt>
      <trkpt lat="42.430146" lon="0.151281">
        <ele>597.2</ele>
        <time>2018-06-13T12:14:24Z</time>
      </trkpt>
      <trkpt lat="42.430168" lon="0.150991">
        <ele>596.9</ele>
        <time>2018-06-13T12:14:29Z</time>
      </trkpt>
      <trkpt lat="42.430106" lon="0.150733">
        <ele>597.1</ele>
        <time>2018-06-13T12:14:35Z</time>
      </trkpt>
      <trkpt lat="42.429978" lon="0.150583">
        <ele>598.4</ele>
        <time>2018-06-13T12:14:39Z</time>
      </trkpt>
      <trkpt lat="42.429484" lon="0.150262">
        <ele>600.4</ele>
        <time>2018-06-13T12:14:54Z</time>
      </trkpt>
      <trkpt lat="42.429011" lon="0.150007">
        <ele>598.6</ele>
        <time>2018-06-13T12:15:07Z</time>
      </trkpt>
      <trkpt lat="42.428815" lon="0.149942">
        <ele>598.7</ele>
        <time>2018-06-13T12:15:12Z</time>
      </trkpt>
      <trkpt lat="42.428619" lon="0.149862">
        <ele>599.4</ele>
        <time>2018-06-13T12:15:18Z</time>
      </trkpt>
      <trkpt lat="42.428542" lon="0.149798">
        <ele>599.6</ele>
        <time>2018-06-13T12:15:20Z</time>
      </trkpt>
      <trkpt lat="42.428328" lon="0.149575">
        <ele>596.9</ele>
        <time>2018-06-13T12:15:27Z</time>
      </trkpt>
      <trkpt lat="42.428039" lon="0.149213">
        <ele>595.0</ele>
        <time>2018-06-13T12:15:38Z</time>
      </trkpt>
      <trkpt lat="42.428033" lon="0.149108">
        <ele>595.0</ele>
        <time>2018-06-13T12:15:40Z</time>
      </trkpt>
      <trkpt lat="42.428017" lon="0.149009">
        <ele>595.0</ele>
        <time>2018-06-13T12:15:42Z</time>
      </trkpt>
      <trkpt lat="42.427996" lon="0.148924">
        <ele>595.0</ele>
        <time>2018-06-13T12:15:43Z</time>
      </trkpt>
      <trkpt lat="42.427869" lon="0.148617">
        <ele>593.6</ele>
        <time>2018-06-13T12:15:50Z</time>
      </trkpt>
      <trkpt lat="42.427837" lon="0.148526">
        <ele>592.6</ele>
        <time>2018-06-13T12:15:52Z</time>
      </trkpt>
      <trkpt lat="42.427821" lon="0.148427">
        <ele>590.9</ele>
        <time>2018-06-13T12:15:54Z</time>
      </trkpt>
      <trkpt lat="42.427824" lon="0.148336">
        <ele>588.6</ele>
        <time>2018-06-13T12:15:56Z</time>
      </trkpt>
      <trkpt lat="42.427871" lon="0.148183">
        <ele>584.7</ele>
        <time>2018-06-13T12:16:00Z</time>
      </trkpt>
      <trkpt lat="42.427964" lon="0.148051">
        <ele>581.5</ele>
        <time>2018-06-13T12:16:03Z</time>
      </trkpt>
      <trkpt lat="42.428132" lon="0.147776">
        <ele>578.3</ele>
        <time>2018-06-13T12:16:10Z</time>
      </trkpt>
      <trkpt lat="42.428546" lon="0.147093">
        <ele>573.4</ele>
        <time>2018-06-13T12:16:27Z</time>
      </trkpt>
      <trkpt lat="42.428616" lon="0.147019">
        <ele>572.8</ele>
        <time>2018-06-13T12:16:30Z</time>
      </trkpt>
      <trkpt lat="42.428679" lon="0.146954">
        <ele>572.6</ele>
        <time>2018-06-13T12:16:32Z</time>
      </trkpt>
      <trkpt lat="42.428748" lon="0.146917">
        <ele>572.8</ele>
        <time>2018-06-13T12:16:34Z</time>
      </trkpt>
      <trkpt lat="42.428818" lon="0.146874">
        <ele>572.3</ele>
        <time>2018-06-13T12:16:36Z</time>
      </trkpt>
      <trkpt lat="42.428997" lon="0.146784">
        <ele>571.0</ele>
        <time>2018-06-13T12:16:41Z</time>
      </trkpt>
      <trkpt lat="42.429059" lon="0.146745">
        <ele>571.7</ele>
        <time>2018-06-13T12:16:43Z</time>
      </trkpt>
      <trkpt lat="42.429088" lon="0.146673">
        <ele>572.2</ele>
        <time>2018-06-13T12:16:44Z</time>
      </trkpt>
      <trkpt lat="42.429083" lon="0.146536">
        <ele>571.4</ele>
        <time>2018-06-13T12:16:47Z</time>
      </trkpt>
      <trkpt lat="42.429046" lon="0.146440">
        <ele>569.6</ele>
        <time>2018-06-13T12:16:49Z</time>
      </trkpt>
      <trkpt lat="42.428857" lon="0.146173">
        <ele>562.4</ele>
        <time>2018-06-13T12:16:57Z</time>
      </trkpt>
      <trkpt lat="42.428850" lon="0.146101">
        <ele>560.3</ele>
        <time>2018-06-13T12:16:58Z</time>
      </trkpt>
      <trkpt lat="42.428854" lon="0.146015">
        <ele>558.1</ele>
        <time>2018-06-13T12:17:00Z</time>
      </trkpt>
      <trkpt lat="42.428873" lon="0.145967">
        <ele>557.1</ele>
        <time>2018-06-13T12:17:01Z</time>
      </trkpt>
      <trkpt lat="42.428956" lon="0.145855">
        <ele>554.8</ele>
        <time>2018-06-13T12:17:04Z</time>
      </trkpt>
      <trkpt lat="42.429700" lon="0.145204">
        <ele>547.2</ele>
        <time>2018-06-13T12:17:27Z</time>
      </trkpt>
      <trkpt lat="42.430648" lon="0.144427">
        <ele>543.0</ele>
        <time>2018-06-13T12:17:57Z</time>
      </trkpt>
      <trkpt lat="42.431617" lon="0.143797">
        <ele>531.7</ele>
        <time>2018-06-13T12:18:25Z</time>
      </trkpt>
      <trkpt lat="42.432189" lon="0.143624">
        <ele>535.9</ele>
        <time>2018-06-13T12:18:41Z</time>
      </trkpt>
      <trkpt lat="42.432986" lon="0.143479">
        <ele>536.3</ele>
        <time>2018-06-13T12:19:02Z</time>
      </trkpt>
      <trkpt lat="42.433488" lon="0.143386">
        <ele>535.5</ele>
        <time>2018-06-13T12:19:15Z</time>
      </trkpt>
      <trkpt lat="42.433793" lon="0.143045">
        <ele>539.2</ele>
        <time>2018-06-13T12:19:26Z</time>
      </trkpt>
      <trkpt lat="42.433863" lon="0.142952">
        <ele>540.5</ele>
        <time>2018-06-13T12:19:28Z</time>
      </trkpt>
      <trkpt lat="42.433904" lon="0.142777">
        <ele>541.5</ele>
        <time>2018-06-13T12:19:32Z</time>
      </trkpt>
      <trkpt lat="42.433882" lon="0.142620">
        <ele>541.5</ele>
        <time>2018-06-13T12:19:35Z</time>
      </trkpt>
      <trkpt lat="42.433836" lon="0.142523">
        <ele>541.0</ele>
        <time>2018-06-13T12:19:37Z</time>
      </trkpt>
      <trkpt lat="42.433586" lon="0.142420">
        <ele>538.1</ele>
        <time>2018-06-13T12:19:44Z</time>
      </trkpt>
      <trkpt lat="42.433016" lon="0.142242">
        <ele>535.6</ele>
        <time>2018-06-13T12:20:00Z</time>
      </trkpt>
      <trkpt lat="42.432710" lon="0.142133">
        <ele>535.8</ele>
        <time>2018-06-13T12:20:08Z</time>
      </trkpt>
      <trkpt lat="42.432275" lon="0.142142">
        <ele>535.9</ele>
        <time>2018-06-13T12:20:20Z</time>
      </trkpt>
      <trkpt lat="42.432045" lon="0.142148">
        <ele>533.9</ele>
        <time>2018-06-13T12:20:26Z</time>
      </trkpt>
      <trkpt lat="42.430996" lon="0.142067">
        <ele>534.9</ele>
        <time>2018-06-13T12:20:53Z</time>
      </trkpt>
      <trkpt lat="42.430882" lon="0.142047">
        <ele>535.1</ele>
        <time>2018-06-13T12:20:57Z</time>
      </trkpt>
      <trkpt lat="42.430544" lon="0.141773">
        <ele>533.1</ele>
        <time>2018-06-13T12:21:07Z</time>
      </trkpt>
      <trkpt lat="42.430422" lon="0.141729">
        <ele>531.2</ele>
        <time>2018-06-13T12:21:10Z</time>
      </trkpt>
      <trkpt lat="42.430287" lon="0.141719">
        <ele>530.6</ele>
        <time>2018-06-13T12:21:14Z</time>
      </trkpt>
      <trkpt lat="42.430161" lon="0.141735">
        <ele>530.3</ele>
        <time>2018-06-13T12:21:17Z</time>
      </trkpt>
      <trkpt lat="42.429837" lon="0.141883">
        <ele>534.6</ele>
        <time>2018-06-13T12:21:26Z</time>
      </trkpt>
      <trkpt lat="42.429602" lon="0.141923">
        <ele>534.3</ele>
        <time>2018-06-13T12:21:33Z</time>
      </trkpt>
      <trkpt lat="42.429579" lon="0.141923">
        <ele>534.3</ele>
        <time>2018-06-13T12:21:33Z</time>
      </trkpt>
      <trkpt lat="42.429392" lon="0.141883">
        <ele>533.3</ele>
        <time>2018-06-13T12:21:38Z</time>
      </trkpt>
      <trkpt lat="42.429325" lon="0.141831">
        <ele>532.4</ele>
        <time>2018-06-13T12:21:40Z</time>
      </trkpt>
      <trkpt lat="42.429281" lon="0.141775">
        <ele>531.5</ele>
        <time>2018-06-13T12:21:42Z</time>
      </trkpt>
      <trkpt lat="42.429215" lon="0.141772">
        <ele>531.1</ele>
        <time>2018-06-13T12:21:44Z</time>
      </trkpt>
      <trkpt lat="42.429001" lon="0.141826">
        <ele>530.1</ele>
        <time>2018-06-13T12:21:49Z</time>
      </trkpt>
      <trkpt lat="42.427980" lon="0.142120">
        <ele>525.3</ele>
        <time>2018-06-13T12:22:17Z</time>
      </trkpt>
      <trkpt lat="42.427417" lon="0.142314">
        <ele>523.1</ele>
        <time>2018-06-13T12:22:32Z</time>
      </trkpt>
      <trkpt lat="42.426982" lon="0.142148">
        <ele>532.3</ele>
        <time>2018-06-13T12:22:44Z</time>
      </trkpt>
      <trkpt lat="42.426048" lon="0.141695">
        <ele>531.7</ele>
        <time>2018-06-13T12:23:11Z</time>
      </trkpt>
      <trkpt lat="42.425385" lon="0.141300">
        <ele>523.0</ele>
        <time>2018-06-13T12:23:30Z</time>
      </trkpt>
      <trkpt lat="42.424624" lon="0.141026">
        <ele>505.3</ele>
        <time>2018-06-13T12:23:51Z</time>
      </trkpt>
      <trkpt lat="42.424158" lon="0.141019">
        <ele>502.2</ele>
        <time>2018-06-13T12:24:03Z</time>
      </trkpt>
      <trkpt lat="42.421987" lon="0.141204">
        <ele>514.5</ele>
        <time>2018-06-13T12:25:01Z</time>
      </trkpt>
      <trkpt lat="42.420945" lon="0.141263">
        <ele>513.2</ele>
        <time>2018-06-13T12:25:28Z</time>
      </trkpt>
      <trkpt lat="42.419599" lon="0.141423">
        <ele>512.8</ele>
        <time>2018-06-13T12:26:04Z</time>
      </trkpt>
      <trkpt lat="42.419207" lon="0.141509">
        <ele>515.4</ele>
        <time>2018-06-13T12:26:15Z</time>
      </trkpt>
      <trkpt lat="42.419074" lon="0.141547">
        <ele>515.4</ele>
        <time>2018-06-13T12:26:18Z</time>
      </trkpt>
      <trkpt lat="42.418856" lon="0.141681">
        <ele>516.2</ele>
        <time>2018-06-13T12:26:24Z</time>
      </trkpt>
      <trkpt lat="42.418726" lon="0.141799">
        <ele>516.8</ele>
        <time>2018-06-13T12:26:29Z</time>
      </trkpt>
      <trkpt lat="42.418433" lon="0.142057">
        <ele>518.5</ele>
        <time>2018-06-13T12:26:38Z</time>
      </trkpt>
      <trkpt lat="42.417684" lon="0.142757">
        <ele>519.5</ele>
        <time>2018-06-13T12:27:02Z</time>
      </trkpt>
      <trkpt lat="42.417085" lon="0.143170">
        <ele>517.8</ele>
        <time>2018-06-13T12:27:20Z</time>
      </trkpt>
      <trkpt lat="42.416652" lon="0.143358">
        <ele>517.2</ele>
        <time>2018-06-13T12:27:32Z</time>
      </trkpt>
      <trkpt lat="42.416422" lon="0.143417">
        <ele>517.3</ele>
        <time>2018-06-13T12:27:38Z</time>
      </trkpt>
      <trkpt lat="42.416032" lon="0.143486">
        <ele>517.1</ele>
        <time>2018-06-13T12:27:48Z</time>
      </trkpt>
      <trkpt lat="42.415988" lon="0.143510">
        <ele>517.3</ele>
        <time>2018-06-13T12:27:49Z</time>
      </trkpt>
      <trkpt lat="42.415951" lon="0.143564">
        <ele>517.6</ele>
        <time>2018-06-13T12:27:51Z</time>
      </trkpt>
      <trkpt lat="42.415947" lon="0.143669">
        <ele>518.3</ele>
        <time>2018-06-13T12:27:53Z</time>
      </trkpt>
      <trkpt lat="42.417290" lon="0.138648">
        <ele>586.2</ele>
        <time>2018-06-14T06:00:00Z</time>
      </trkpt>
      <trkpt lat="42.417480" lon="0.138262">
        <ele>581.8</ele>
        <time>2018-06-14T06:00:09Z</time>
      </trkpt>
      <trkpt lat="42.417535" lon="0.138010">
        <ele>578.5</ele>
        <time>2018-06-14T06:00:14Z</time>
      </trkpt>
      <trkpt lat="42.417650" lon="0.137500">
        <ele>577.2</ele>
        <time>2018-06-14T06:00:24Z</time>
      </trkpt>
      <trkpt lat="42.417662" lon="0.137420">
        <ele>577.4</ele>
        <time>2018-06-14T06:00:26Z</time>
      </trkpt>
      <trkpt lat="42.417623" lon="0.137337">
        <ele>576.0</ele>
        <time>2018-06-14T06:00:28Z</time>
      </trkpt>
      <trkpt lat="42.417571" lon="0.137361">
        <ele>573.6</ele>
        <time>2018-06-14T06:00:29Z</time>
      </trkpt>
      <trkpt lat="42.417522" lon="0.137392">
        <ele>571.5</ele>
        <time>2018-06-14T06:00:31Z</time>
      </trkpt>
      <trkpt lat="42.417385" lon="0.137611">
        <ele>570.0</ele>
        <time>2018-06-14T06:00:37Z</time>
      </trkpt>
      <trkpt lat="42.416488" lon="0.138672">
        <ele>562.3</ele>
        <time>2018-06-14T06:01:08Z</time>
      </trkpt>
      <trkpt lat="42.415728" lon="0.139302">
        <ele>558.5</ele>
        <time>2018-06-14T06:01:32Z</time>
      </trkpt>
      <trkpt lat="42.415531" lon="0.139504">
        <ele>558.5</ele>
        <time>2018-06-14T06:01:38Z</time>
      </trkpt>
      <trkpt lat="42.415278" lon="0.139806">
        <ele>554.4</ele>
        <time>2018-06-14T06:01:47Z</time>
      </trkpt>
      <trkpt lat="42.415157" lon="0.139868">
        <ele>551.4</ele>
        <time>2018-06-14T06:01:51Z</time>
      </trkpt>
      <trkpt lat="42.415050" lon="0.139840">
        <ele>548.7</ele>
        <time>2018-06-14T06:01:54Z</time>
      </trkpt>
      <trkpt lat="42.415005" lon="0.139683">
        <ele>546.7</ele>
        <time>2018-06-14T06:01:57Z</time>
      </trkpt>
      <trkpt lat="42.415035" lon="0.139463">
        <ele>545.3</ele>
        <time>2018-06-14T06:02:02Z</time>
      </trkpt>
      <trkpt lat="42.415120" lon="0.139302">
        <ele>545.4</ele>
        <time>2018-06-14T06:02:05Z</time>
      </trkpt>
      <trkpt lat="42.415492" lon="0.138865">
        <ele>545.4</ele>
        <time>2018-06-14T06:02:19Z</time>
      </trkpt>
      <trkpt lat="42.415914" lon="0.138278">
        <ele>536.1</ele>
        <time>2018-06-14T06:02:35Z</time>
      </trkpt>
      <trkpt lat="42.416585" lon="0.137583">
        <ele>538.1</ele>
        <time>2018-06-14T06:02:57Z</time>
      </trkpt>
      <trkpt lat="42.416801" lon="0.137107">
        <ele>544.9</ele>
        <time>2018-06-14T06:03:08Z</time>
      </trkpt>
      <trkpt lat="42.416828" lon="0.136884">
        <ele>545.4</ele>
        <time>2018-06-14T06:03:13Z</time>
      </trkpt>
      <trkpt lat="42.416797" lon="0.136754">
        <ele>544.3</ele>
        <time>2018-06-14T06:03:15Z</time>
      </trkpt>
      <trkpt lat="42.416701" lon="0.136767">
        <ele>540.6</ele>
        <time>2018-06-14T06:03:18Z</time>
      </trkpt>
      <trkpt lat="42.416640" lon="0.136877">
        <ele>538.5</ele>
        <time>2018-06-14T06:03:21Z</time>
      </trkpt>
      <trkpt lat="42.416605" lon="0.137097">
        <ele>537.1</ele>
        <time>2018-06-14T06:03:25Z</time>
      </trkpt>
      <trkpt lat="42.416488" lon="0.137344">
        <ele>533.0</ele>
        <time>2018-06-14T06:03:31Z</time>
      </trkpt>
      <trkpt lat="42.416386" lon="0.137451">
        <ele>531.1</ele>
        <time>2018-06-14T06:03:34Z</time>
      </trkpt>
      <trkpt lat="42.415421" lon="0.138193">
        <ele>528.0</ele>
        <time>2018-06-14T06:04:04Z</time>
      </trkpt>
      <trkpt lat="42.415098" lon="0.138481">
        <ele>530.0</ele>
        <time>2018-06-14T06:04:14Z</time>
      </trkpt>
      <trkpt lat="42.414817" lon="0.138862">
        <ele>532.5</ele>
        <time>2018-06-14T06:04:25Z</time>
      </trkpt>
      <trkpt lat="42.414533" lon="0.139364">
        <ele>531.5</ele>
        <time>2018-06-14T06:04:37Z</time>
      </trkpt>
      <trkpt lat="42.414480" lon="0.139665">
        <ele>533.3</ele>
        <time>2018-06-14T06:04:43Z</time>
      </trkpt>
      <trkpt lat="42.414539" lon="0.139936">
        <ele>537.2</ele>
        <time>2018-06-14T06:04:49Z</time>
      </trkpt>
      <trkpt lat="42.414569" lon="0.140170">
        <ele>538.6</ele>
        <time>2018-06-14T06:04:53Z</time>
      </trkpt>
      <trkpt lat="42.414518" lon="0.140231">
        <ele>537.2</ele>
        <time>2018-06-14T06:04:55Z</time>
      </trkpt>
      <trkpt lat="42.414346" lon="0.140300">
        <ele>532.8</ele>
        <time>2018-06-14T06:05:00Z</time>
      </trkpt>
      <trkpt lat="42.412687" lon="0.140426">
        <ele>531.8</ele>
        <time>2018-06-14T06:05:44Z</time>
      </trkpt>
      <trkpt lat="42.412620" lon="0.140386">
        <ele>533.0</ele>
        <time>2018-06-14T06:05:46Z</time>
      </trkpt>
      <trkpt lat="42.412557" lon="0.140285">
        <ele>532.9</ele>
        <time>2018-06-14T06:05:49Z</time>
      </trkpt>
      <trkpt lat="42.412538" lon="0.140241">
        <ele>532.8</ele>
        <time>2018-06-14T06:05:50Z</time>
      </trkpt>
      <trkpt lat="42.412517" lon="0.140208">
        <ele>532.8</ele>
        <time>2018-06-14T06:05:51Z</time>
      </trkpt>
      <trkpt lat="42.412476" lon="0.140193">
        <ele>533.1</ele>
        <time>2018-06-14T06:05:52Z</time>
      </trkpt>
      <trkpt lat="42.412427" lon="0.140192">
        <ele>533.7</ele>
        <time>2018-06-14T06:05:53Z</time>
      </trkpt>
      <trkpt lat="42.412386" lon="0.140241">
        <ele>534.5</ele>
        <time>2018-06-14T06:05:55Z</time>
      </trkpt>
      <trkpt lat="42.412340" lon="0.140251">
        <ele>535.0</ele>
        <time>2018-06-14T06:05:56Z</time>
      </trkpt>
      <trkpt lat="42.412293" lon="0.140230">
        <ele>535.1</ele>
        <time>2018-06-14T06:05:57Z</time>
      </trkpt>
      <trkpt lat="42.412261" lon="0.140195">
        <ele>535.1</ele>
        <time>2018-06-14T06:05:58Z</time>
      </trkpt>
      <trkpt lat="42.412223" lon="0.140136">
        <ele>535.0</ele>
        <time>2018-06-14T06:06:00Z</time>
      </trkpt>
      <trkpt lat="42.412172" lon="0.140002">
        <ele>534.1</ele>
        <time>2018-06-14T06:06:03Z</time>
      </trkpt>
      <trkpt lat="42.412164" lon="0.139927">
        <ele>533.4</ele>
        <time>2018-06-14T06:06:04Z</time>
      </trkpt>
      <trkpt lat="42.412184" lon="0.139871">
        <ele>532.6</ele>
        <time>2018-06-14T06:06:05Z</time>
      </trkpt>
      <trkpt lat="42.412251" lon="0.139813">
        <ele>531.0</ele>
        <time>2018-06-14T06:06:08Z</time>
      </trkpt>
      <trkpt lat="42.412314" lon="0.139754">
        <ele>529.2</ele>
        <time>2018-06-14T06:06:10Z</time>
      </trkpt>
      <trkpt lat="42.412379" lon="0.139688">
        <ele>527.4</ele>
        <time>2018-06-14T06:06:12Z</time>
      </trkpt>
      <trkpt lat="42.412414" lon="0.139662">
        <ele>526.9</ele>
        <time>2018-06-14T06:06:13Z</time>
      </trkpt>
      <trkpt lat="42.412470" lon="0.139639">
        <ele>526.3</ele>
        <time>2018-06-14T06:06:14Z</time>
      </trkpt>
      <trkpt lat="42.412535" lon="0.139620">
        <ele>525.8</ele>
        <time>2018-06-14T06:06:16Z</time>
      </trkpt>
      <trkpt lat="42.412602" lon="0.139576">
        <ele>525.1</ele>
        <time>2018-06-14T06:06:18Z</time>
      </trkpt>
      <trkpt lat="42.412659" lon="0.139490">
        <ele>524.9</ele>
        <time>2018-06-14T06:06:20Z</time>
      </trkpt>
      <trkpt lat="42.412702" lon="0.139353">
        <ele>524.5</ele>
        <time>2018-06-14T06:06:23Z</time>
      </trkpt>
      <trkpt lat="42.412719" lon="0.139174">
        <ele>524.9</ele>
        <time>2018-06-14T06:06:27Z</time>
      </trkpt>
      <trkpt lat="42.412710" lon="0.139087">
        <ele>525.3</ele>
        <time>2018-06-14T06:06:29Z</time>
      </trkpt>
      <trkpt lat="42.412733" lon="0.138656">
        <ele>525.3</ele>
        <time>2018-06-14T06:06:37Z</time>
      </trkpt>
      <trkpt lat="42.412766" lon="0.138351">
        <ele>524.9</ele>
        <time>2018-06-14T06:06:43Z</time>
      </trkpt>
      <trkpt lat="42.412834" lon="0.138016">
        <ele>524.6</ele>
        <time>2018-06-14T06:06:50Z</time>
      </trkpt>
      <trkpt lat="42.412991" lon="0.137498">
        <ele>526.6</ele>
        <time>2018-06-14T06:07:01Z</time>
      </trkpt>
      <trkpt lat="42.413126" lon="0.137207">
        <ele>526.0</ele>
        <time>2018-06-14T06:07:08Z</time>
      </trkpt>
      <trkpt lat="42.413418" lon="0.136612">
        <ele>525.5</ele>
        <time>2018-06-14T06:07:22Z</time>
      </trkpt>
      <trkpt lat="42.413766" lon="0.136006">
        <ele>525.7</ele>
        <time>2018-06-14T06:07:37Z</time>
      </trkpt>
      <trkpt lat="42.414106" lon="0.135311">
        <ele>523.3</ele>
        <time>2018-06-14T06:07:53Z</time>
      </trkpt>
      <trkpt lat="42.414263" lon="0.134886">
        <ele>523.9</ele>
        <time>2018-06-14T06:08:02Z</time>
      </trkpt>
      <trkpt lat="42.414387" lon="0.134449">
        <ele>525.7</ele>
        <time>2018-06-14T06:08:11Z</time>
      </trkpt>
      <trkpt lat="42.414488" lon="0.134086">
        <ele>528.4</ele>
        <time>2018-06-14T06:08:19Z</time>
      </trkpt>
      <trkpt lat="42.414566" lon="0.133585">
        <ele>533.2</ele>
        <time>2018-06-14T06:08:29Z</time>
      </trkpt>
      <trkpt lat="42.414645" lon="0.133159">
        <ele>533.1</ele>
        <time>2018-06-14T06:08:38Z</time>
      </trkpt>
      <trkpt lat="42.414678" lon="0.132961">
        <ele>530.9</ele>
        <time>2018-06-14T06:08:42Z</time>
      </trkpt>
      <trkpt lat="42.414678" lon="0.132839">
        <ele>530.1</ele>
        <time>2018-06-14T06:08:44Z</time>
      </trkpt>
      <trkpt lat="42.414678" lon="0.132702">
        <ele>529.1</ele>
        <time>2018-06-14T06:08:47Z</time>
      </trkpt>
      <trkpt lat="42.414656" lon="0.132458">
        <ele>527.8</ele>
        <time>2018-06-14T06:08:52Z</time>
      </trkpt>
      <trkpt lat="42.414634" lon="0.132215">
        <ele>527.2</ele>
        <time>2018-06-14T06:08:57Z</time>
      </trkpt>
      <trkpt lat="42.414600" lon="0.132034">
        <ele>527.4</ele>
        <time>2018-06-14T06:09:00Z</time>
      </trkpt>
      <trkpt lat="42.414517" lon="0.131620">
        <ele>529.7</ele>
        <time>2018-06-14T06:09:09Z</time>
      </trkpt>
      <trkpt lat="42.414270" lon="0.130392">
        <ele>533.9</ele>
        <time>2018-06-14T06:09:34Z</time>
      </trkpt>
      <trkpt lat="42.414153" lon="0.129636">
        <ele>539.3</ele>
        <time>2018-06-14T06:09:49Z</time>
      </trkpt>
      <trkpt lat="42.413986" lon="0.128570">
        <ele>539.6</ele>
        <time>2018-06-14T06:10:10Z</time>
      </trkpt>
      <trkpt lat="42.413832" lon="0.127766">
        <ele>538.8</ele>
        <time>2018-06-14T06:10:26Z</time>
      </trkpt>
      <trkpt lat="42.413794" lon="0.127472">
        <ele>538.1</ele>
        <time>2018-06-14T06:10:32Z</time>
      </trkpt>
      <trkpt lat="42.413756" lon="0.127264">
        <ele>537.1</ele>
        <time>2018-06-14T06:10:36Z</time>
      </trkpt>
      <trkpt lat="42.413700" lon="0.127087">
        <ele>536.8</ele>
        <time>2018-06-14T06:10:40Z</time>
      </trkpt>
      <trkpt lat="42.413655" lon="0.126942">
        <ele>537.3</ele>
        <time>2018-06-14T06:10:43Z</time>
      </trkpt>
      <trkpt lat="42.413634" lon="0.126846">
        <ele>537.8</ele>
        <time>2018-06-14T06:10:45Z</time>
      </trkpt>
      <trkpt lat="42.413756" lon="0.126567">
        <ele>539.8</ele>
        <time>2018-06-14T06:10:52Z</time>
      </trkpt>
      <trkpt lat="42.413971" lon="0.126295">
        <ele>541.0</ele>
        <time>2018-06-14T06:10:59Z</time>
      </trkpt>
      <trkpt lat="42.414011" lon="0.126250">
        <ele>541.0</ele>
        <time>2018-06-14T06:11:01Z</time>
      </trkpt>
      <trkpt lat="42.414058" lon="0.126250">
        <ele>541.0</ele>
        <time>2018-06-14T06:11:02Z</time>
      </trkpt>
      <trkpt lat="42.414115" lon="0.126341">
        <ele>541.2</ele>
        <time>2018-06-14T06:11:04Z</time>
      </trkpt>
      <trkpt lat="42.414141" lon="0.126499">
        <ele>541.7</ele>
        <time>2018-06-14T06:11:07Z</time>
      </trkpt>
      <trkpt lat="42.414168" lon="0.126678">
        <ele>542.5</ele>
        <time>2018-06-14T06:11:11Z</time>
      </trkpt>
      <trkpt lat="42.414245" lon="0.126990">
        <ele>544.7</ele>
        <time>2018-06-14T06:11:18Z</time>
      </trkpt>
      <trkpt lat="42.414323" lon="0.127271">
        <ele>545.2</ele>
        <time>2018-06-14T06:11:23Z</time>
      </trkpt>
      <trkpt lat="42.414426" lon="0.127516">
        <ele>543.6</ele>
        <time>2018-06-14T06:11:29Z</time>
      </trkpt>
      <trkpt lat="42.414504" lon="0.127657">
        <ele>542.4</ele>
        <time>2018-06-14T06:11:32Z</time>
      </trkpt>
      <trkpt lat="42.414634" lon="0.127763">
        <ele>539.7</ele>
        <time>2018-06-14T06:11:36Z</time>
      </trkpt>
      <trkpt lat="42.414763" lon="0.127798">
        <ele>537.1</ele>
        <time>2018-06-14T06:11:40Z</time>
      </trkpt>
      <trkpt lat="42.414969" lon="0.127782">
        <ele>533.7</ele>
        <time>2018-06-14T06:11:46Z</time>
      </trkpt>
      <trkpt lat="42.415126" lon="0.127783">
        <ele>531.2</ele>
        <time>2018-06-14T06:11:50Z</time>
      </trkpt>
      <trkpt lat="42.415255" lon="0.127853">
        <ele>530.7</ele>
        <time>2018-06-14T06:11:53Z</time>
      </trkpt>
      <trkpt lat="42.415449" lon="0.128116">
        <ele>531.4</ele>
        <time>2018-06-14T06:12:01Z</time>
      </trkpt>
      <trkpt lat="42.415695" lon="0.128327">
        <ele>531.0</ele>
        <time>2018-06-14T06:12:08Z</time>
      </trkpt>
      <trkpt lat="42.415967" lon="0.128484">
        <ele>534.8</ele>
        <time>2018-06-14T06:12:16Z</time>
      </trkpt>
      <trkpt lat="42.416148" lon="0.128554">
        <ele>536.3</ele>
        <time>2018-06-14T06:12:21Z</time>
      </trkpt>
      <trkpt lat="42.416537" lon="0.128746">
        <ele>539.0</ele>
        <time>2018-06-14T06:12:32Z</time>
      </trkpt>
      <trkpt lat="42.416718" lon="0.128816">
        <ele>537.9</ele>
        <time>2018-06-14T06:12:37Z</time>
      </trkpt>
      <trkpt lat="42.416833" lon="0.128866">
        <ele>537.4</ele>
        <time>2018-06-14T06:12:41Z</time>
      </trkpt>
      <trkpt lat="42.416924" lon="0.128852">
        <ele>536.9</ele>
        <time>2018-06-14T06:12:43Z</time>
      </trkpt>
      <trkpt lat="42.417020" lon="0.128749">
        <ele>537.2</ele>
        <time>2018-06-14T06:12:46Z</time>
      </trkpt>
      <trkpt lat="42.417170" lon="0.128395">
        <ele>537.7</ele>
        <time>2018-06-14T06:12:54Z</time>
      </trkpt>
      <trkpt lat="42.417274" lon="0.128080">
        <ele>536.0</ele>
        <time>2018-06-14T06:13:01Z</time>
      </trkpt>
      <trkpt lat="42.417390" lon="0.127818">
        <ele>534.7</ele>
        <time>2018-06-14T06:13:07Z</time>
      </trkpt>
      <trkpt lat="42.417608" lon="0.127521">
        <ele>532.4</ele>
        <time>2018-06-14T06:13:15Z</time>
      </trkpt>
      <trkpt lat="42.418023" lon="0.127070">
        <ele>528.0</ele>
        <time>2018-06-14T06:13:29Z</time>
      </trkpt>
      <trkpt lat="42.418243" lon="0.126687">
        <ele>528.9</ele>
        <time>2018-06-14T06:13:39Z</time>
      </trkpt>
      <trkpt lat="42.418541" lon="0.126282">
        <ele>532.8</ele>
        <time>2018-06-14T06:13:50Z</time>
      </trkpt>
      <trkpt lat="42.418800" lon="0.126017">
        <ele>533.7</ele>
        <time>2018-06-14T06:13:59Z</time>
      </trkpt>
      <trkpt lat="42.418929" lon="0.125913">
        <ele>533.4</ele>
        <time>2018-06-14T06:14:03Z</time>
      </trkpt>
      <trkpt lat="42.419045" lon="0.125913">
        <ele>532.9</ele>
        <time>2018-06-14T06:14:06Z</time>
      </trkpt>
      <trkpt lat="42.419174" lon="0.125860">
        <ele>532.1</ele>
        <time>2018-06-14T06:14:09Z</time>
      </trkpt>
      <trkpt lat="42.419277" lon="0.125740">
        <ele>532.6</ele>
        <time>2018-06-14T06:14:13Z</time>
      </trkpt>
      <trkpt lat="42.420021" lon="0.124392">
        <ele>532.5</ele>
        <time>2018-06-14T06:14:46Z</time>
      </trkpt>
      <trkpt lat="42.421159" lon="0.122464">
        <ele>541.7</ele>
        <time>2018-06-14T06:15:34Z</time>
      </trkpt>
      <trkpt lat="42.422604" lon="0.119986">
        <ele>534.8</ele>
        <time>2018-06-14T06:16:36Z</time>
      </trkpt>
      <trkpt lat="42.423193" lon="0.118938">
        <ele>531.7</ele>
        <time>2018-06-14T06:17:02Z</time>
      </trkpt>
      <trkpt lat="42.423388" lon="0.118639">
        <ele>532.5</ele>
        <time>2018-06-14T06:17:10Z</time>
      </trkpt>
      <trkpt lat="42.423530" lon="0.118447">
        <ele>533.3</ele>
        <time>2018-06-14T06:17:15Z</time>
      </trkpt>
      <trkpt lat="42.423697" lon="0.118290">
        <ele>533.9</ele>
        <time>2018-06-14T06:17:20Z</time>
      </trkpt>
      <trkpt lat="42.423941" lon="0.118048">
        <ele>533.5</ele>
        <time>2018-06-14T06:17:28Z</time>
      </trkpt>
      <trkpt lat="42.424748" lon="0.117295">
        <ele>539.3</ele>
        <time>2018-06-14T06:17:55Z</time>
      </trkpt>
      <trkpt lat="42.425322" lon="0.116699">
        <ele>537.6</ele>
        <time>2018-06-14T06:18:14Z</time>
      </trkpt>
      <trkpt lat="42.426408" lon="0.115515">
        <ele>537.8</ele>
        <time>2018-06-14T06:18:51Z</time>
      </trkpt>
      <trkpt lat="42.427443" lon="0.114318">
        <ele>539.2</ele>
        <time>2018-06-14T06:19:27Z</time>
      </trkpt>
      <trkpt lat="42.427713" lon="0.114021">
        <ele>540.5</ele>
        <time>2018-06-14T06:19:36Z</time>
      </trkpt>
      <trkpt lat="42.427970" lon="0.113638">
        <ele>542.0</ele>
        <time>2018-06-14T06:19:46Z</time>
      </trkpt>
      <trkpt lat="42.428137" lon="0.113325">
        <ele>544.3</ele>
        <time>2018-06-14T06:19:54Z</time>
      </trkpt>
      <trkpt lat="42.428333" lon="0.112941">
        <ele>546.9</ele>
        <time>2018-06-14T06:20:03Z</time>
      </trkpt>
      <trkpt lat="42.428525" lon="0.112316">
        <ele>549.1</ele>
        <time>2018-06-14T06:20:16Z</time>
      </trkpt>
      <trkpt lat="42.428678" lon="0.111709">
        <ele>549.3</ele>
        <time>2018-06-14T06:20:29Z</time>
      </trkpt>
      <trkpt lat="42.428768" lon="0.111274">
        <ele>549.8</ele>
        <time>2018-06-14T06:20:38Z</time>
      </trkpt>
      <trkpt lat="42.428806" lon="0.110947">
        <ele>552.2</ele>
        <time>2018-06-14T06:20:44Z</time>
      </trkpt>
      <trkpt lat="42.428805" lon="0.110695">
        <ele>554.0</ele>
        <time>2018-06-14T06:20:49Z</time>
      </trkpt>
      <trkpt lat="42.428741" lon="0.110470">
        <ele>554.8</ele>
        <time>2018-06-14T06:20:54Z</time>
      </trkpt>
      <trkpt lat="42.428587" lon="0.110056">
        <ele>554.4</ele>
        <time>2018-06-14T06:21:03Z</time>
      </trkpt>
      <trkpt lat="42.428482" lon="0.109849">
        <ele>553.1</ele>
        <time>2018-06-14T06:21:08Z</time>
      </trkpt>
      <trkpt lat="42.428419" lon="0.109400">
        <ele>551.6</ele>
        <time>2018-06-14T06:21:17Z</time>
      </trkpt>
      <trkpt lat="42.428354" lon="0.108673">
        <ele>551.0</ele>
        <time>2018-06-14T06:21:31Z</time>
      </trkpt>
      <trkpt lat="42.428303" lon="0.107567">
        <ele>551.7</ele>
        <time>2018-06-14T06:21:53Z</time>
      </trkpt>
      <trkpt lat="42.428315" lon="0.106670">
        <ele>551.4</ele>
        <time>2018-06-14T06:22:10Z</time>
      </trkpt>
      <trkpt lat="42.428315" lon="0.106220">
        <ele>551.6</ele>
        <time>2018-06-14T06:22:19Z</time>
      </trkpt>
      <trkpt lat="42.428364" lon="0.105481">
        <ele>552.2</ele>
        <time>2018-06-14T06:22:34Z</time>
      </trkpt>
      <trkpt lat="42.428528" lon="0.104305">
        <ele>556.4</ele>
        <time>2018-06-14T06:22:57Z</time>
      </trkpt>
      <trkpt lat="42.428655" lon="0.103263">
        <ele>554.4</ele>
        <time>2018-06-14T06:23:18Z</time>
      </trkpt>
      <trkpt lat="42.428731" lon="0.102760">
        <ele>553.1</ele>
        <time>2018-06-14T06:23:28Z</time>
      </trkpt>
      <trkpt lat="42.428731" lon="0.102502">
        <ele>553.6</ele>
        <time>2018-06-14T06:23:33Z</time>
      </trkpt>
      <trkpt lat="42.428705" lon="0.102348">
        <ele>554.4</ele>
        <time>2018-06-14T06:23:36Z</time>
      </trkpt>
      <trkpt lat="42.428653" lon="0.102195">
        <ele>555.5</ele>
        <time>2018-06-14T06:23:39Z</time>
      </trkpt>
      <trkpt lat="42.428591" lon="0.102113">
        <ele>556.5</ele>
        <time>2018-06-14T06:23:42Z</time>
      </trkpt>
      <trkpt lat="42.428536" lon="0.102010">
        <ele>557.5</ele>
        <time>2018-06-14T06:23:44Z</time>
      </trkpt>
      <trkpt lat="42.428532" lon="0.101829">
        <ele>558.1</ele>
        <time>2018-06-14T06:23:48Z</time>
      </trkpt>
      <trkpt lat="42.428558" lon="0.101625">
        <ele>558.2</ele>
        <time>2018-06-14T06:23:52Z</time>
      </trkpt>
      <trkpt lat="42.428556" lon="0.101547">
        <ele>558.4</ele>
        <time>2018-06-14T06:23:53Z</time>
      </trkpt>
      <trkpt lat="42.428534" lon="0.101456">
        <ele>558.9</ele>
        <time>2018-06-14T06:23:55Z</time>
      </trkpt>
      <trkpt lat="42.428457" lon="0.101343">
        <ele>560.1</ele>
        <time>2018-06-14T06:23:58Z</time>
      </trkpt>
      <trkpt lat="42.428328" lon="0.101239">
        <ele>561.5</ele>
        <time>2018-06-14T06:24:02Z</time>
      </trkpt>
      <trkpt lat="42.428230" lon="0.100972">
        <ele>561.7</ele>
        <time>2018-06-14T06:24:08Z</time>
      </trkpt>
      <trkpt lat="42.428166" lon="0.100404">
        <ele>561.0</ele>
        <time>2018-06-14T06:24:19Z</time>
      </trkpt>
      <trkpt lat="42.428230" lon="0.100110">
        <ele>560.8</ele>
        <time>2018-06-14T06:24:25Z</time>
      </trkpt>
      <trkpt lat="42.428229" lon="0.099817">
        <ele>561.8</ele>
        <time>2018-06-14T06:24:31Z</time>
      </trkpt>
      <trkpt lat="42.428203" lon="0.099525">
        <ele>562.2</ele>
        <time>2018-06-14T06:24:37Z</time>
      </trkpt>
      <trkpt lat="42.428190" lon="0.098962">
        <ele>563.0</ele>
        <time>2018-06-14T06:24:48Z</time>
      </trkpt>
      <trkpt lat="42.428164" lon="0.098055">
        <ele>562.4</ele>
        <time>2018-06-14T06:25:05Z</time>
      </trkpt>
      <trkpt lat="42.428161" lon="0.097953">
        <ele>562.0</ele>
        <time>2018-06-14T06:25:07Z</time>
      </trkpt>
      <trkpt lat="42.428110" lon="0.097760">
        <ele>561.5</ele>
        <time>2018-06-14T06:25:11Z</time>
      </trkpt>
      <trkpt lat="42.428070" lon="0.097626">
        <ele>561.1</ele>
        <time>2018-06-14T06:25:14Z</time>
      </trkpt>
      <trkpt lat="42.428084" lon="0.097553">
        <ele>561.5</ele>
        <time>2018-06-14T06:25:16Z</time>
      </trkpt>
      <trkpt lat="42.428143" lon="0.097390">
        <ele>562.9</ele>
        <time>2018-06-14T06:25:19Z</time>
      </trkpt>
      <trkpt lat="42.428197" lon="0.097197">
        <ele>565.2</ele>
        <time>2018-06-14T06:25:23Z</time>
      </trkpt>
      <trkpt lat="42.428195" lon="0.097111">
        <ele>565.8</ele>
        <time>2018-06-14T06:25:25Z</time>
      </trkpt>
      <trkpt lat="42.428177" lon="0.097030">
        <ele>566.1</ele>
        <time>2018-06-14T06:25:27Z</time>
      </trkpt>
      <trkpt lat="42.428111" lon="0.096856">
        <ele>566.4</ele>
        <time>2018-06-14T06:25:31Z</time>
      </trkpt>
      <trkpt lat="42.428056" lon="0.096655">
        <ele>566.8</ele>
        <time>2018-06-14T06:25:35Z</time>
      </trkpt>
      <trkpt lat="42.428024" lon="0.096470">
        <ele>567.4</ele>
        <time>2018-06-14T06:25:39Z</time>
      </trkpt>
      <trkpt lat="42.427991" lon="0.096344">
        <ele>567.5</ele>
        <time>2018-06-14T06:25:41Z</time>
      </trkpt>
      <trkpt lat="42.427913" lon="0.096192">
        <ele>567.2</ele>
        <time>2018-06-14T06:25:45Z</time>
      </trkpt>
      <trkpt lat="42.427876" lon="0.096108">
        <ele>566.9</ele>
        <time>2018-06-14T06:25:47Z</time>
      </trkpt>
      <trkpt lat="42.427860" lon="0.095999">
        <ele>566.9</ele>
        <time>2018-06-14T06:25:49Z</time>
      </trkpt>
      <trkpt lat="42.427854" lon="0.095771">
        <ele>568.3</ele>
        <time>2018-06-14T06:25:53Z</time>
      </trkpt>
      <trkpt lat="42.427806" lon="0.095505">
        <ele>568.0</ele>
        <time>2018-06-14T06:25:59Z</time>
      </trkpt>
      <trkpt lat="42.427670" lon="0.094802">
        <ele>565.8</ele>
        <time>2018-06-14T06:26:13Z</time>
      </trkpt>
      <trkpt lat="42.427644" lon="0.094487">
        <ele>566.4</ele>
        <time>2018-06-14T06:26:19Z</time>
      </trkpt>
      <trkpt lat="42.427631" lon="0.094028">
        <ele>568.2</ele>
        <time>2018-06-14T06:26:28Z</time>
      </trkpt>
      <trkpt lat="42.427646" lon="0.093648">
        <ele>569.4</ele>
        <time>2018-06-14T06:26:36Z</time>
      </trkpt>
      <trkpt lat="42.427689" lon="0.093314">
        <ele>570.3</ele>
        <time>2018-06-14T06:26:42Z</time>
      </trkpt>
      <trkpt lat="42.427788" lon="0.092942">
        <ele>570.3</ele>
        <time>2018-06-14T06:26:50Z</time>
      </trkpt>
      <trkpt lat="42.427892" lon="0.092710">
        <ele>567.8</ele>
        <time>2018-06-14T06:26:55Z</time>
      </trkpt>
      <trkpt lat="42.428039" lon="0.092459">
        <ele>566.8</ele>
        <time>2018-06-14T06:27:02Z</time>
      </trkpt>
      <trkpt lat="42.428320" lon="0.092070">
        <ele>564.0</ele>
        <time>2018-06-14T06:27:12Z</time>
      </trkpt>
      <trkpt lat="42.428807" lon="0.091396">
        <ele>562.8</ele>
        <time>2018-06-14T06:27:31Z</time>
      </trkpt>
      <trkpt lat="42.429347" lon="0.090819">
        <ele>562.1</ele>
        <time>2018-06-14T06:27:49Z</time>
      </trkpt>
      <trkpt lat="42.429991" lon="0.090015">
        <ele>563.5</ele>
        <time>2018-06-14T06:28:12Z</time>
      </trkpt>
      <trkpt lat="42.430216" lon="0.089554">
        <ele>563.3</ele>
        <time>2018-06-14T06:28:23Z</time>
      </trkpt>
      <trkpt lat="42.430502" lon="0.088890">
        <ele>567.8</ele>
        <time>2018-06-14T06:28:38Z</time>
      </trkpt>
      <trkpt lat="42.430663" lon="0.088553">
        <ele>572.8</ele>
        <time>2018-06-14T06:28:46Z</time>
      </trkpt>
      <trkpt lat="42.430788" lon="0.088383">
        <ele>574.2</ele>
        <time>2018-06-14T06:28:51Z</time>
      </trkpt>
      <trkpt lat="42.430926" lon="0.088279">
        <ele>573.1</ele>
        <time>2018-06-14T06:28:55Z</time>
      </trkpt>
      <trkpt lat="42.431076" lon="0.088025">
        <ele>569.7</ele>
        <time>2018-06-14T06:29:01Z</time>
      </trkpt>
      <trkpt lat="42.431226" lon="0.087786">
        <ele>566.8</ele>
        <time>2018-06-14T06:29:08Z</time>
      </trkpt>
      <trkpt lat="42.431351" lon="0.087650">
        <ele>565.3</ele>
        <time>2018-06-14T06:29:12Z</time>
      </trkpt>
      <trkpt lat="42.431501" lon="0.087564">
        <ele>564.7</ele>
        <time>2018-06-14T06:29:16Z</time>
      </trkpt>
      <trkpt lat="42.431727" lon="0.087461">
        <ele>564.1</ele>
        <time>2018-06-14T06:29:22Z</time>
      </trkpt>
      <trkpt lat="42.431852" lon="0.087376">
        <ele>564.0</ele>
        <time>2018-06-14T06:29:26Z</time>
      </trkpt>
      <trkpt lat="42.431976" lon="0.087137">
        <ele>564.9</ele>
        <time>2018-06-14T06:29:32Z</time>
      </trkpt>
      <trkpt lat="42.432527" lon="0.086050">
        <ele>565.4</ele>
        <time>2018-06-14T06:29:58Z</time>
      </trkpt>
      <trkpt lat="42.432940" lon="0.085303">
        <ele>567.3</ele>
        <time>2018-06-14T06:30:16Z</time>
      </trkpt>
      <trkpt lat="42.433505" lon="0.084576">
        <ele>565.9</ele>
        <time>2018-06-14T06:30:37Z</time>
      </trkpt>
      <trkpt lat="42.433631" lon="0.084405">
        <ele>566.4</ele>
        <time>2018-06-14T06:30:41Z</time>
      </trkpt>
      <trkpt lat="42.434132" lon="0.083659">
        <ele>569.1</ele>
        <time>2018-06-14T06:31:01Z</time>
      </trkpt>
      <trkpt lat="42.434333" lon="0.083364">
        <ele>570.1</ele>
        <time>2018-06-14T06:31:09Z</time>
      </trkpt>
      <trkpt lat="42.434397" lon="0.083268">
        <ele>569.8</ele>
        <time>2018-06-14T06:31:12Z</time>
      </trkpt>
      <trkpt lat="42.434428" lon="0.083183">
        <ele>569.7</ele>
        <time>2018-06-14T06:31:13Z</time>
      </trkpt>
      <trkpt lat="42.434428" lon="0.083087">
        <ele>570.1</ele>
        <time>2018-06-14T06:31:15Z</time>
      </trkpt>
      <trkpt lat="42.434420" lon="0.083002">
        <ele>570.5</ele>
        <time>2018-06-14T06:31:17Z</time>
      </trkpt>
      <trkpt lat="42.434389" lon="0.082896">
        <ele>571.1</ele>
        <time>2018-06-14T06:31:19Z</time>
      </trkpt>
      <trkpt lat="42.433981" lon="0.081755">
        <ele>570.4</ele>
        <time>2018-06-14T06:31:44Z</time>
      </trkpt>
      <trkpt lat="42.433925" lon="0.081575">
        <ele>571.1</ele>
        <time>2018-06-14T06:31:48Z</time>
      </trkpt>
      <trkpt lat="42.433890" lon="0.081398">
        <ele>572.2</ele>
        <time>2018-06-14T06:31:51Z</time>
      </trkpt>
      <trkpt lat="42.433858" lon="0.081125">
        <ele>573.6</ele>
        <time>2018-06-14T06:31:57Z</time>
      </trkpt>
      <trkpt lat="42.433818" lon="0.080256">
        <ele>574.0</ele>
        <time>2018-06-14T06:32:14Z</time>
      </trkpt>
      <trkpt lat="42.433807" lon="0.079880">
        <ele>573.3</ele>
        <time>2018-06-14T06:32:21Z</time>
      </trkpt>
      <trkpt lat="42.433838" lon="0.079757">
        <ele>573.3</ele>
        <time>2018-06-14T06:32:24Z</time>
      </trkpt>
      <trkpt lat="42.433942" lon="0.079568">
        <ele>573.7</ele>
        <time>2018-06-14T06:32:28Z</time>
      </trkpt>
      <trkpt lat="42.434848" lon="0.077869">
        <ele>574.7</ele>
        <time>2018-06-14T06:33:09Z</time>
      </trkpt>
      <trkpt lat="42.434892" lon="0.077772">
        <ele>574.2</ele>
        <time>2018-06-14T06:33:12Z</time>
      </trkpt>
      <trkpt lat="42.434975" lon="0.077692">
        <ele>574.5</ele>
        <time>2018-06-14T06:33:14Z</time>
      </trkpt>
      <trkpt lat="42.434995" lon="0.077675">
        <ele>574.6</ele>
        <time>2018-06-14T06:33:15Z</time>
      </trkpt>
      <trkpt lat="42.435046" lon="0.077273">
        <ele>573.0</ele>
        <time>2018-06-14T06:33:23Z</time>
      </trkpt>
      <trkpt lat="42.435145" lon="0.077070">
        <ele>573.1</ele>
        <time>2018-06-14T06:33:28Z</time>
      </trkpt>
      <trkpt lat="42.435390" lon="0.076736">
        <ele>572.8</ele>
        <time>2018-06-14T06:33:37Z</time>
      </trkpt>
      <trkpt lat="42.435545" lon="0.076565">
        <ele>572.5</ele>
        <time>2018-06-14T06:33:42Z</time>
      </trkpt>
      <trkpt lat="42.435622" lon="0.076401">
        <ele>573.2</ele>
        <time>2018-06-14T06:33:46Z</time>
      </trkpt>
      <trkpt lat="42.435602" lon="0.076445">
        <ele>573.0</ele>
        <time>2018-06-14T06:33:47Z</time>
      </trkpt>
      <trkpt lat="42.435634" lon="0.076325">
        <ele>573.5</ele>
        <time>2018-06-14T06:33:50Z</time>
      </trkpt>
      <trkpt lat="42.435654" lon="0.076197">
        <ele>574.0</ele>
        <time>2018-06-14T06:33:52Z</time>
      </trkpt>
      <trkpt lat="42.435667" lon="0.076074">
        <ele>574.4</ele>
        <time>2018-06-14T06:33:55Z</time>
      </trkpt>
      <trkpt lat="42.435679" lon="0.075967">
        <ele>574.9</ele>
        <time>2018-06-14T06:33:57Z</time>
      </trkpt>
      <trkpt lat="42.435689" lon="0.075881">
        <ele>575.3</ele>
        <time>2018-06-14T06:33:58Z</time>
      </trkpt>
      <trkpt lat="42.435740" lon="0.075809">
        <ele>575.8</ele>
        <time>2018-06-14T06:34:00Z</time>
      </trkpt>
      <trkpt lat="42.435827" lon="0.075780">
        <ele>576.5</ele>
        <time>2018-06-14T06:34:03Z</time>
      </trkpt>
      <trkpt lat="42.435877" lon="0.075695">
        <ele>577.3</ele>
        <time>2018-06-14T06:34:05Z</time>
      </trkpt>
      <trkpt lat="42.435892" lon="0.075625">
        <ele>577.9</ele>
        <time>2018-06-14T06:34:06Z</time>
      </trkpt>
      <trkpt lat="42.435910" lon="0.075537">
        <ele>578.7</ele>
        <time>2018-06-14T06:34:08Z</time>
      </trkpt>
      <trkpt lat="42.435925" lon="0.075440">
        <ele>579.5</ele>
        <time>2018-06-14T06:34:10Z</time>
      </trkpt>
      <trkpt lat="42.435944" lon="0.075337">
        <ele>579.6</ele>
        <time>2018-06-14T06:34:12Z</time>
      </trkpt>
      <trkpt lat="42.435964" lon="0.075230">
        <ele>579.3</ele>
        <time>2018-06-14T06:34:14Z</time>
      </trkpt>
      <trkpt lat="42.435982" lon="0.075123">
        <ele>579.0</ele>
        <time>2018-06-14T06:34:17Z</time>
      </trkpt>
      <trkpt lat="42.436000" lon="0.075018">
        <ele>579.3</ele>
        <time>2018-06-14T06:34:19Z</time>
      </trkpt>
      <trkpt lat="42.436020" lon="0.074913">
        <ele>579.6</ele>
        <time>2018-06-14T06:34:21Z</time>
      </trkpt>
      <trkpt lat="42.436036" lon="0.074804">
        <ele>580.3</ele>
        <time>2018-06-14T06:34:23Z</time>
      </trkpt>
      <trkpt lat="42.436054" lon="0.074690">
        <ele>581.2</ele>
        <time>2018-06-14T06:34:25Z</time>
      </trkpt>
      <trkpt lat="42.436070" lon="0.074572">
        <ele>582.1</ele>
        <time>2018-06-14T06:34:28Z</time>
      </trkpt>
      <trkpt lat="42.436089" lon="0.074452">
        <ele>583.3</ele>
        <time>2018-06-14T06:34:30Z</time>
      </trkpt>
      <trkpt lat="42.436102" lon="0.074333">
        <ele>584.4</ele>
        <time>2018-06-14T06:34:32Z</time>
      </trkpt>
      <trkpt lat="42.436112" lon="0.074220">
        <ele>585.5</ele>
        <time>2018-06-14T06:34:35Z</time>
      </trkpt>
      <trkpt lat="42.436120" lon="0.074117">
        <ele>586.6</ele>
        <time>2018-06-14T06:34:37Z</time>
      </trkpt>
      <trkpt lat="42.436133" lon="0.074012">
        <ele>587.5</ele>
        <time>2018-06-14T06:34:39Z</time>
      </trkpt>
      <trkpt lat="42.436147" lon="0.073904">
        <ele>589.1</ele>
        <time>2018-06-14T06:34:41Z</time>
      </trkpt>
      <trkpt lat="42.436165" lon="0.073797">
        <ele>590.5</ele>
        <time>2018-06-14T06:34:43Z</time>
      </trkpt>
      <trkpt lat="42.436192" lon="0.073697">
        <ele>591.3</ele>
        <time>2018-06-14T06:34:45Z</time>
      </trkpt>
      <trkpt lat="42.436229" lon="0.073599">
        <ele>591.6</ele>
        <time>2018-06-14T06:34:47Z</time>
      </trkpt>
      <trkpt lat="42.436264" lon="0.073482">
        <ele>592.2</ele>
        <time>2018-06-14T06:34:50Z</time>
      </trkpt>
      <trkpt lat="42.436300" lon="0.073360">
        <ele>592.8</ele>
        <time>2018-06-14T06:34:52Z</time>
      </trkpt>
      <trkpt lat="42.436334" lon="0.073245">
        <ele>593.2</ele>
        <time>2018-06-14T06:34:55Z</time>
      </trkpt>
      <trkpt lat="42.436361" lon="0.073130">
        <ele>594.1</ele>
        <time>2018-06-14T06:34:57Z</time>
      </trkpt>
      <trkpt lat="42.436388" lon="0.073012">
        <ele>595.2</ele>
        <time>2018-06-14T06:35:00Z</time>
      </trkpt>
      <trkpt lat="42.436417" lon="0.072893">
        <ele>595.7</ele>
        <time>2018-06-14T06:35:02Z</time>
      </trkpt>
      <trkpt lat="42.436444" lon="0.072784">
        <ele>595.5</ele>
        <time>2018-06-14T06:35:04Z</time>
      </trkpt>
      <trkpt lat="42.436469" lon="0.072673">
        <ele>595.4</ele>
        <time>2018-06-14T06:35:07Z</time>
      </trkpt>
      <trkpt lat="42.436484" lon="0.072560">
        <ele>596.0</ele>
        <time>2018-06-14T06:35:09Z</time>
      </trkpt>
      <trkpt lat="42.436490" lon="0.072442">
        <ele>597.3</ele>
        <time>2018-06-14T06:35:11Z</time>
      </trkpt>
      <trkpt lat="42.436507" lon="0.072332">
        <ele>597.7</ele>
        <time>2018-06-14T06:35:13Z</time>
      </trkpt>
      <trkpt lat="42.436527" lon="0.072227">
        <ele>597.9</ele>
        <time>2018-06-14T06:35:16Z</time>
      </trkpt>
      <trkpt lat="42.436540" lon="0.072132">
        <ele>598.6</ele>
        <time>2018-06-14T06:35:17Z</time>
      </trkpt>
      <trkpt lat="42.436559" lon="0.072035">
        <ele>598.9</ele>
        <time>2018-06-14T06:35:19Z</time>
      </trkpt>
      <trkpt lat="42.436590" lon="0.071934">
        <ele>598.4</ele>
        <time>2018-06-14T06:35:22Z</time>
      </trkpt>
      <trkpt lat="42.436622" lon="0.071835">
        <ele>597.5</ele>
        <time>2018-06-14T06:35:24Z</time>
      </trkpt>
      <trkpt lat="42.436649" lon="0.071729">
        <ele>595.9</ele>
        <time>2018-06-14T06:35:26Z</time>
      </trkpt>
      <trkpt lat="42.436669" lon="0.071619">
        <ele>594.7</ele>
        <time>2018-06-14T06:35:28Z</time>
      </trkpt>
      <trkpt lat="42.436680" lon="0.071516">
        <ele>594.0</ele>
        <time>2018-06-14T06:35:30Z</time>
      </trkpt>
      <trkpt lat="42.436686" lon="0.071425">
        <ele>593.4</ele>
        <time>2018-06-14T06:35:32Z</time>
      </trkpt>
      <trkpt lat="42.436690" lon="0.071354">
        <ele>592.9</ele>
        <time>2018-06-14T06:35:33Z</time>
      </trkpt>
      <trkpt lat="42.436679" lon="0.071284">
        <ele>593.6</ele>
        <time>2018-06-14T06:35:35Z</time>
      </trkpt>
      <trkpt lat="42.436669" lon="0.071219">
        <ele>594.3</ele>
        <time>2018-06-14T06:35:36Z</time>
      </trkpt>
      <trkpt lat="42.436654" lon="0.071159">
        <ele>595.4</ele>
        <time>2018-06-14T06:35:37Z</time>
      </trkpt>
      <trkpt lat="42.436640" lon="0.071100">
        <ele>596.5</ele>
        <time>2018-06-14T06:35:39Z</time>
      </trkpt>
      <trkpt lat="42.436632" lon="0.071039">
        <ele>597.1</ele>
        <time>2018-06-14T06:35:40Z</time>
      </trkpt>
      <trkpt lat="42.436627" lon="0.070976">
        <ele>597.5</ele>
        <time>2018-06-14T06:35:41Z</time>
      </trkpt>
      <trkpt lat="42.436624" lon="0.070915">
        <ele>597.9</ele>
        <time>2018-06-14T06:35:42Z</time>
      </trkpt>
      <trkpt lat="42.436622" lon="0.070849">
        <ele>598.3</ele>
        <time>2018-06-14T06:35:44Z</time>
      </trkpt>
      <trkpt lat="42.436615" lon="0.070787">
        <ele>599.0</ele>
        <time>2018-06-14T06:35:45Z</time>
      </trkpt>
      <trkpt lat="42.436607" lon="0.070717">
        <ele>599.8</ele>
        <time>2018-06-14T06:35:46Z</time>
      </trkpt>
      <trkpt lat="42.436604" lon="0.070644">
        <ele>600.6</ele>
        <time>2018-06-14T06:35:48Z</time>
      </trkpt>
      <trkpt lat="42.436609" lon="0.070567">
        <ele>601.2</ele>
        <time>2018-06-14T06:35:49Z</time>
      </trkpt>
      <trkpt lat="42.436617" lon="0.070489">
        <ele>601.7</ele>
        <time>2018-06-14T06:35:51Z</time>
      </trkpt>
      <trkpt lat="42.436632" lon="0.070411">
        <ele>601.8</ele>
        <time>2018-06-14T06:35:52Z</time>
      </trkpt>
      <trkpt lat="42.436649" lon="0.070330">
        <ele>601.8</ele>
        <time>2018-06-14T06:35:54Z</time>
      </trkpt>
      <trkpt lat="42.436669" lon="0.070244">
        <ele>601.8</ele>
        <time>2018-06-14T06:35:56Z</time>
      </trkpt>
      <trkpt lat="42.436685" lon="0.070149">
        <ele>602.1</ele>
        <time>2018-06-14T06:35:58Z</time>
      </trkpt>
      <trkpt lat="42.436685" lon="0.070149">
        <ele>602.1</ele>
        <time>2018-06-14T06:35:58Z</time>
      </trkpt>
      <trkpt lat="42.436693" lon="0.070044">
        <ele>603.0</ele>
        <time>2018-06-14T06:36:00Z</time>
      </trkpt>
      <trkpt lat="42.436700" lon="0.069932">
        <ele>603.9</ele>
        <time>2018-06-14T06:36:02Z</time>
      </trkpt>
      <trkpt lat="42.436704" lon="0.069827">
        <ele>604.7</ele>
        <time>2018-06-14T06:36:04Z</time>
      </trkpt>
      <trkpt lat="42.436707" lon="0.069724">
        <ele>605.4</ele>
        <time>2018-06-14T06:36:06Z</time>
      </trkpt>
      <trkpt lat="42.436710" lon="0.069628">
        <ele>605.9</ele>
        <time>2018-06-14T06:36:08Z</time>
      </trkpt>
      <trkpt lat="42.436719" lon="0.069524">
        <ele>605.5</ele>
        <time>2018-06-14T06:36:10Z</time>
      </trkpt>
      <trkpt lat="42.436734" lon="0.069420">
        <ele>604.0</ele>
        <time>2018-06-14T06:36:12Z</time>
      </trkpt>
      <trkpt lat="42.436752" lon="0.069317">
        <ele>602.0</ele>
        <time>2018-06-14T06:36:14Z</time>
      </trkpt>
      <trkpt lat="42.436769" lon="0.069213">
        <ele>600.7</ele>
        <time>2018-06-14T06:36:16Z</time>
      </trkpt>
      <trkpt lat="42.436784" lon="0.069120">
        <ele>599.8</ele>
        <time>2018-06-14T06:36:18Z</time>
      </trkpt>
      <trkpt lat="42.436807" lon="0.069029">
        <ele>597.9</ele>
        <time>2018-06-14T06:36:20Z</time>
      </trkpt>
      <trkpt lat="42.436842" lon="0.068936">
        <ele>596.5</ele>
        <time>2018-06-14T06:36:22Z</time>
      </trkpt>
      <trkpt lat="42.436880" lon="0.068835">
        <ele>594.6</ele>
        <time>2018-06-14T06:36:24Z</time>
      </trkpt>
      <trkpt lat="42.436915" lon="0.068730">
        <ele>592.9</ele>
        <time>2018-06-14T06:36:27Z</time>
      </trkpt>
      <trkpt lat="42.436949" lon="0.068621">
        <ele>592.2</ele>
        <time>2018-06-14T06:36:29Z</time>
      </trkpt>
      <trkpt lat="42.436989" lon="0.068514">
        <ele>590.3</ele>
        <time>2018-06-14T06:36:31Z</time>
      </trkpt>
      <trkpt lat="42.437035" lon="0.068419">
        <ele>587.6</ele>
        <time>2018-06-14T06:36:34Z</time>
      </trkpt>
      <trkpt lat="42.437084" lon="0.068327">
        <ele>585.1</ele>
        <time>2018-06-14T06:36:36Z</time>
      </trkpt>
      <trkpt lat="42.437134" lon="0.068235">
        <ele>584.9</ele>
        <time>2018-06-14T06:36:38Z</time>
      </trkpt>
      <trkpt lat="42.437190" lon="0.068142">
        <ele>584.0</ele>
        <time>2018-06-14T06:36:41Z</time>
      </trkpt>
      <trkpt lat="42.437251" lon="0.068050">
        <ele>582.6</ele>
        <time>2018-06-14T06:36:43Z</time>
      </trkpt>
      <trkpt lat="42.437325" lon="0.067963">
        <ele>580.2</ele>
        <time>2018-06-14T06:36:46Z</time>
      </trkpt>
      <trkpt lat="42.437404" lon="0.067889">
        <ele>579.4</ele>
        <time>2018-06-14T06:36:48Z</time>
      </trkpt>
      <trkpt lat="42.437480" lon="0.067824">
        <ele>580.2</ele>
        <time>2018-06-14T06:36:51Z</time>
      </trkpt>
      <trkpt lat="42.437564" lon="0.067779">
        <ele>580.1</ele>
        <time>2018-06-14T06:36:53Z</time>
      </trkpt>
      <trkpt lat="42.437642" lon="0.067742">
        <ele>579.5</ele>
        <time>2018-06-14T06:36:55Z</time>
      </trkpt>
      <trkpt lat="42.437715" lon="0.067712">
        <ele>579.7</ele>
        <time>2018-06-14T06:36:57Z</time>
      </trkpt>
      <trkpt lat="42.437781" lon="0.067677">
        <ele>579.9</ele>
        <time>2018-06-14T06:36:59Z</time>
      </trkpt>
      <trkpt lat="42.437835" lon="0.067625">
        <ele>580.6</ele>
        <time>2018-06-14T06:37:01Z</time>
      </trkpt>
      <trkpt lat="42.437874" lon="0.067562">
        <ele>581.6</ele>
        <time>2018-06-14T06:37:03Z</time>
      </trkpt>
      <trkpt lat="42.437902" lon="0.067494">
        <ele>582.7</ele>
        <time>2018-06-14T06:37:04Z</time>
      </trkpt>
      <trkpt lat="42.437921" lon="0.067420">
        <ele>583.9</ele>
        <time>2018-06-14T06:37:06Z</time>
      </trkpt>
      <trkpt lat="42.437940" lon="0.067354">
        <ele>584.9</ele>
        <time>2018-06-14T06:37:07Z</time>
      </trkpt>
      <trkpt lat="42.437957" lon="0.067287">
        <ele>586.1</ele>
        <time>2018-06-14T06:37:08Z</time>
      </trkpt>
      <trkpt lat="42.438002" lon="0.067182">
        <ele>587.6</ele>
        <time>2018-06-14T06:37:11Z</time>
      </trkpt>
      <trkpt lat="42.438067" lon="0.067120">
        <ele>587.6</ele>
        <time>2018-06-14T06:37:13Z</time>
      </trkpt>
      <trkpt lat="42.438129" lon="0.067149">
        <ele>586.1</ele>
        <time>2018-06-14T06:37:15Z</time>
      </trkpt>
      <trkpt lat="42.438162" lon="0.067207">
        <ele>584.7</ele>
        <time>2018-06-14T06:37:16Z</time>
      </trkpt>
      <trkpt lat="42.438192" lon="0.067264">
        <ele>583.4</ele>
        <time>2018-06-14T06:37:18Z</time>
      </trkpt>
      <trkpt lat="42.438232" lon="0.067357">
        <ele>581.9</ele>
        <time>2018-06-14T06:37:20Z</time>
      </trkpt>
      <trkpt lat="42.438294" lon="0.067412">
        <ele>581.0</ele>
        <time>2018-06-14T06:37:22Z</time>
      </trkpt>
      <trkpt lat="42.438371" lon="0.067402">
        <ele>580.9</ele>
        <time>2018-06-14T06:37:24Z</time>
      </trkpt>
      <trkpt lat="42.438425" lon="0.067394">
        <ele>580.8</ele>
        <time>2018-06-14T06:37:25Z</time>
      </trkpt>
      <trkpt lat="42.438477" lon="0.067379">
        <ele>580.8</ele>
        <time>2018-06-14T06:37:27Z</time>
      </trkpt>
      <trkpt lat="42.438534" lon="0.067364">
        <ele>581.2</ele>
        <time>2018-06-14T06:37:28Z</time>
      </trkpt>
      <trkpt lat="42.438595" lon="0.067350">
        <ele>581.6</ele>
        <time>2018-06-14T06:37:30Z</time>
      </trkpt>
      <trkpt lat="42.438659" lon="0.067337">
        <ele>582.1</ele>
        <time>2018-06-14T06:37:32Z</time>
      </trkpt>
      <trkpt lat="42.438727" lon="0.067322">
        <ele>582.5</ele>
        <time>2018-06-14T06:37:33Z</time>
      </trkpt>
      <trkpt lat="42.438804" lon="0.067303">
        <ele>582.1</ele>
        <time>2018-06-14T06:37:35Z</time>
      </trkpt>
      <trkpt lat="42.438879" lon="0.067287">
        <ele>581.3</ele>
        <time>2018-06-14T06:37:37Z</time>
      </trkpt>
      <trkpt lat="42.438952" lon="0.067270">
        <ele>580.6</ele>
        <time>2018-06-14T06:37:39Z</time>
      </trkpt>
      <trkpt lat="42.439019" lon="0.067257">
        <ele>580.0</ele>
        <time>2018-06-14T06:37:41Z</time>
      </trkpt>
      <trkpt lat="42.439079" lon="0.067250">
        <ele>580.1</ele>
        <time>2018-06-14T06:37:43Z</time>
      </trkpt>
      <trkpt lat="42.439162" lon="0.067252">
        <ele>580.4</ele>
        <time>2018-06-14T06:37:45Z</time>
      </trkpt>
      <trkpt lat="42.439246" lon="0.067234">
        <ele>580.8</ele>
        <time>2018-06-14T06:37:47Z</time>
      </trkpt>
      <trkpt lat="42.439324" lon="0.067212">
        <ele>581.1</ele>
        <time>2018-06-14T06:37:49Z</time>
      </trkpt>
      <trkpt lat="42.439387" lon="0.067190">
        <ele>581.5</ele>
        <time>2018-06-14T06:37:51Z</time>
      </trkpt>
      <trkpt lat="42.439459" lon="0.067162">
        <ele>582.0</ele>
        <time>2018-06-14T06:37:53Z</time>
      </trkpt>
      <trkpt lat="42.439502" lon="0.067144">
        <ele>582.3</ele>
        <time>2018-06-14T06:37:54Z</time>
      </trkpt>
      <trkpt lat="42.439554" lon="0.067132">
        <ele>582.5</ele>
        <time>2018-06-14T06:37:56Z</time>
      </trkpt>
      <trkpt lat="42.439615" lon="0.067107">
        <ele>582.9</ele>
        <time>2018-06-14T06:37:57Z</time>
      </trkpt>
      <trkpt lat="42.439677" lon="0.067072">
        <ele>583.5</ele>
        <time>2018-06-14T06:37:59Z</time>
      </trkpt>
      <trkpt lat="42.439740" lon="0.067027">
        <ele>584.3</ele>
        <time>2018-06-14T06:38:01Z</time>
      </trkpt>
      <trkpt lat="42.439799" lon="0.066975">
        <ele>585.3</ele>
        <time>2018-06-14T06:38:03Z</time>
      </trkpt>
      <trkpt lat="42.439850" lon="0.066924">
        <ele>586.2</ele>
        <time>2018-06-14T06:38:05Z</time>
      </trkpt>
      <trkpt lat="42.439902" lon="0.066885">
        <ele>587.0</ele>
        <time>2018-06-14T06:38:06Z</time>
      </trkpt>
      <trkpt lat="42.439949" lon="0.066862">
        <ele>587.4</ele>
        <time>2018-06-14T06:38:08Z</time>
      </trkpt>
      <trkpt lat="42.440004" lon="0.066857">
        <ele>587.5</ele>
        <time>2018-06-14T06:38:09Z</time>
      </trkpt>
      <trkpt lat="42.440063" lon="0.066862">
        <ele>587.6</ele>
        <time>2018-06-14T06:38:11Z</time>
      </trkpt>
      <trkpt lat="42.440122" lon="0.066875">
        <ele>587.7</ele>
        <time>2018-06-14T06:38:12Z</time>
      </trkpt>
      <trkpt lat="42.440180" lon="0.066885">
        <ele>588.0</ele>
        <time>2018-06-14T06:38:14Z</time>
      </trkpt>
      <trkpt lat="42.440242" lon="0.066892">
        <ele>588.3</ele>
        <time>2018-06-14T06:38:15Z</time>
      </trkpt>
      <trkpt lat="42.440307" lon="0.066887">
        <ele>588.8</ele>
        <time>2018-06-14T06:38:17Z</time>
      </trkpt>
      <trkpt lat="42.440371" lon="0.066889">
        <ele>589.2</ele>
        <time>2018-06-14T06:38:19Z</time>
      </trkpt>
      <trkpt lat="42.440434" lon="0.066887">
        <ele>589.6</ele>
        <time>2018-06-14T06:38:21Z</time>
      </trkpt>
      <trkpt lat="42.440502" lon="0.066882">
        <ele>590.1</ele>
        <time>2018-06-14T06:38:22Z</time>
      </trkpt>
      <trkpt lat="42.440579" lon="0.066875">
        <ele>590.6</ele>
        <time>2018-06-14T06:38:24Z</time>
      </trkpt>
      <trkpt lat="42.440655" lon="0.066867">
        <ele>591.1</ele>
        <time>2018-06-14T06:38:26Z</time>
      </trkpt>
      <trkpt lat="42.440734" lon="0.066859">
        <ele>591.7</ele>
        <time>2018-06-14T06:38:29Z</time>
      </trkpt>
      <trkpt lat="42.440810" lon="0.066855">
        <ele>592.4</ele>
        <time>2018-06-14T06:38:31Z</time>
      </trkpt>
      <trkpt lat="42.440884" lon="0.066859">
        <ele>592.9</ele>
        <time>2018-06-14T06:38:33Z</time>
      </trkpt>
      <trkpt lat="42.440957" lon="0.066865">
        <ele>593.5</ele>
        <time>2018-06-14T06:38:34Z</time>
      </trkpt>
      <trkpt lat="42.441029" lon="0.066875">
        <ele>592.5</ele>
        <time>2018-06-14T06:38:36Z</time>
      </trkpt>
      <trkpt lat="42.441100" lon="0.066882">
        <ele>591.1</ele>
        <time>2018-06-14T06:38:38Z</time>
      </trkpt>
      <trkpt lat="42.441177" lon="0.066882">
        <ele>589.8</ele>
        <time>2018-06-14T06:38:40Z</time>
      </trkpt>
      <trkpt lat="42.441259" lon="0.066872">
        <ele>588.4</ele>
        <time>2018-06-14T06:38:43Z</time>
      </trkpt>
      <trkpt lat="42.441347" lon="0.066859">
        <ele>587.8</ele>
        <time>2018-06-14T06:38:45Z</time>
      </trkpt>
      <trkpt lat="42.441445" lon="0.066847">
        <ele>587.1</ele>
        <time>2018-06-14T06:38:48Z</time>
      </trkpt>
      <trkpt lat="42.441544" lon="0.066836">
        <ele>586.5</ele>
        <time>2018-06-14T06:38:50Z</time>
      </trkpt>
      <trkpt lat="42.441644" lon="0.066819">
        <ele>586.3</ele>
        <time>2018-06-14T06:38:53Z</time>
      </trkpt>
      <trkpt lat="42.441749" lon="0.066792">
        <ele>586.4</ele>
        <time>2018-06-14T06:38:56Z</time>
      </trkpt>
      <trkpt lat="42.441854" lon="0.066763">
        <ele>586.5</ele>
        <time>2018-06-14T06:38:59Z</time>
      </trkpt>
      <trkpt lat="42.441967" lon="0.066731">
        <ele>586.8</ele>
        <time>2018-06-14T06:39:02Z</time>
      </trkpt>
      <trkpt lat="42.442077" lon="0.066684">
        <ele>587.3</ele>
        <time>2018-06-14T06:39:05Z</time>
      </trkpt>
      <trkpt lat="42.442185" lon="0.066610">
        <ele>587.7</ele>
        <time>2018-06-14T06:39:08Z</time>
      </trkpt>
      <trkpt lat="42.442285" lon="0.066520">
        <ele>588.2</ele>
        <time>2018-06-14T06:39:11Z</time>
      </trkpt>
      <trkpt lat="42.442382" lon="0.066430">
        <ele>587.4</ele>
        <time>2018-06-14T06:39:14Z</time>
      </trkpt>
      <trkpt lat="42.442479" lon="0.066339">
        <ele>586.5</ele>
        <time>2018-06-14T06:39:17Z</time>
      </trkpt>
      <trkpt lat="42.442569" lon="0.066251">
        <ele>586.2</ele>
        <time>2018-06-14T06:39:20Z</time>
      </trkpt>
      <trkpt lat="42.442652" lon="0.066169">
        <ele>586.5</ele>
        <time>2018-06-14T06:39:23Z</time>
      </trkpt>
      <trkpt lat="42.442730" lon="0.066092">
        <ele>586.5</ele>
        <time>2018-06-14T06:39:26Z</time>
      </trkpt>
      <trkpt lat="42.442807" lon="0.066027">
        <ele>586.4</ele>
        <time>2018-06-14T06:39:28Z</time>
      </trkpt>
      <trkpt lat="42.442880" lon="0.065965">
        <ele>586.4</ele>
        <time>2018-06-14T06:39:30Z</time>
      </trkpt>
      <trkpt lat="42.442949" lon="0.065904">
        <ele>587.1</ele>
        <time>2018-06-14T06:39:32Z</time>
      </trkpt>
      <trkpt lat="42.443014" lon="0.065840">
        <ele>587.6</ele>
        <time>2018-06-14T06:39:35Z</time>
      </trkpt>
      <trkpt lat="42.443077" lon="0.065779">
        <ele>588.0</ele>
        <time>2018-06-14T06:39:37Z</time>
      </trkpt>
      <trkpt lat="42.443139" lon="0.065726">
        <ele>588.2</ele>
        <time>2018-06-14T06:39:39Z</time>
      </trkpt>
      <trkpt lat="42.443207" lon="0.065687">
        <ele>588.0</ele>
        <time>2018-06-14T06:39:41Z</time>
      </trkpt>
      <trkpt lat="42.443282" lon="0.065643">
        <ele>588.0</ele>
        <time>2018-06-14T06:39:43Z</time>
      </trkpt>
      <trkpt lat="42.443364" lon="0.065600">
        <ele>588.0</ele>
        <time>2018-06-14T06:39:45Z</time>
      </trkpt>
      <trkpt lat="42.443445" lon="0.065559">
        <ele>587.8</ele>
        <time>2018-06-14T06:39:47Z</time>
      </trkpt>
      <trkpt lat="42.443527" lon="0.065518">
        <ele>588.0</ele>
        <time>2018-06-14T06:39:50Z</time>
      </trkpt>
      <trkpt lat="42.443602" lon="0.065479">
        <ele>588.2</ele>
        <time>2018-06-14T06:39:52Z</time>
      </trkpt>
      <trkpt lat="42.443672" lon="0.065450">
        <ele>588.2</ele>
        <time>2018-06-14T06:39:54Z</time>
      </trkpt>
      <trkpt lat="42.443739" lon="0.065437">
        <ele>587.8</ele>
        <time>2018-06-14T06:39:56Z</time>
      </trkpt>
      <trkpt lat="42.443802" lon="0.065440">
        <ele>587.6</ele>
        <time>2018-06-14T06:39:57Z</time>
      </trkpt>
      <trkpt lat="42.443855" lon="0.065471">
        <ele>587.2</ele>
        <time>2018-06-14T06:39:59Z</time>
      </trkpt>
      <trkpt lat="42.443904" lon="0.065525">
        <ele>586.5</ele>
        <time>2018-06-14T06:40:00Z</time>
      </trkpt>
      <trkpt lat="42.443952" lon="0.065599">
        <ele>585.7</ele>
        <time>2018-06-14T06:40:02Z</time>
      </trkpt>
      <trkpt lat="42.444000" lon="0.065680">
        <ele>585.0</ele>
        <time>2018-06-14T06:40:04Z</time>
      </trkpt>
      <trkpt lat="42.444049" lon="0.065767">
        <ele>583.8</ele>
        <time>2018-06-14T06:40:07Z</time>
      </trkpt>
      <trkpt lat="42.444093" lon="0.065850">
        <ele>582.3</ele>
        <time>2018-06-14T06:40:09Z</time>
      </trkpt>
      <trkpt lat="42.444134" lon="0.065924">
        <ele>581.2</ele>
        <time>2018-06-14T06:40:10Z</time>
      </trkpt>
      <trkpt lat="42.444176" lon="0.065999">
        <ele>580.7</ele>
        <time>2018-06-14T06:40:12Z</time>
      </trkpt>
      <trkpt lat="42.444220" lon="0.066078">
        <ele>581.3</ele>
        <time>2018-06-14T06:40:14Z</time>
      </trkpt>
      <trkpt lat="42.444259" lon="0.066151">
        <ele>582.0</ele>
        <time>2018-06-14T06:40:16Z</time>
      </trkpt>
      <trkpt lat="42.444300" lon="0.066210">
        <ele>582.6</ele>
        <time>2018-06-14T06:40:18Z</time>
      </trkpt>
      <trkpt lat="42.444369" lon="0.066280">
        <ele>583.2</ele>
        <time>2018-06-14T06:40:20Z</time>
      </trkpt>
      <trkpt lat="42.444425" lon="0.066285">
        <ele>583.3</ele>
        <time>2018-06-14T06:40:21Z</time>
      </trkpt>
      <trkpt lat="42.444475" lon="0.066265">
        <ele>583.1</ele>
        <time>2018-06-14T06:40:23Z</time>
      </trkpt>
      <trkpt lat="42.444530" lon="0.066217">
        <ele>582.8</ele>
        <time>2018-06-14T06:40:24Z</time>
      </trkpt>
      <trkpt lat="42.444584" lon="0.066144">
        <ele>582.6</ele>
        <time>2018-06-14T06:40:26Z</time>
      </trkpt>
      <trkpt lat="42.444642" lon="0.066056">
        <ele>583.2</ele>
        <time>2018-06-14T06:40:29Z</time>
      </trkpt>
      <trkpt lat="42.444709" lon="0.065954">
        <ele>583.3</ele>
        <time>2018-06-14T06:40:31Z</time>
      </trkpt>
      <trkpt lat="42.444780" lon="0.065842">
        <ele>583.5</ele>
        <time>2018-06-14T06:40:34Z</time>
      </trkpt>
      <trkpt lat="42.444862" lon="0.065718">
        <ele>584.1</ele>
        <time>2018-06-14T06:40:38Z</time>
      </trkpt>
      <trkpt lat="42.444955" lon="0.065577">
        <ele>584.2</ele>
        <time>2018-06-14T06:40:41Z</time>
      </trkpt>
      <trkpt lat="42.445055" lon="0.065427">
        <ele>584.0</ele>
        <time>2018-06-14T06:40:45Z</time>
      </trkpt>
      <trkpt lat="42.445157" lon="0.065270">
        <ele>584.8</ele>
        <time>2018-06-14T06:40:49Z</time>
      </trkpt>
      <trkpt lat="42.445264" lon="0.065105">
        <ele>585.9</ele>
        <time>2018-06-14T06:40:54Z</time>
      </trkpt>
      <trkpt lat="42.445374" lon="0.064934">
        <ele>586.2</ele>
        <time>2018-06-14T06:40:58Z</time>
      </trkpt>
      <trkpt lat="42.445487" lon="0.064757">
        <ele>586.2</ele>
        <time>2018-06-14T06:41:03Z</time>
      </trkpt>
      <trkpt lat="42.445604" lon="0.064574">
        <ele>585.3</ele>
        <time>2018-06-14T06:41:07Z</time>
      </trkpt>
      <trkpt lat="42.445721" lon="0.064386">
        <ele>584.4</ele>
        <time>2018-06-14T06:41:12Z</time>
      </trkpt>
      <trkpt lat="42.445844" lon="0.064197">
        <ele>584.5</ele>
        <time>2018-06-14T06:41:17Z</time>
      </trkpt>
      <trkpt lat="42.445968" lon="0.064005">
        <ele>584.9</ele>
        <time>2018-06-14T06:41:22Z</time>
      </trkpt>
      <trkpt lat="42.446087" lon="0.063817">
        <ele>584.2</ele>
        <time>2018-06-14T06:41:27Z</time>
      </trkpt>
      <trkpt lat="42.446207" lon="0.063627">
        <ele>583.6</ele>
        <time>2018-06-14T06:41:32Z</time>
      </trkpt>
      <trkpt lat="42.446325" lon="0.063439">
        <ele>583.4</ele>
        <time>2018-06-14T06:41:37Z</time>
      </trkpt>
      <trkpt lat="42.446445" lon="0.063249">
        <ele>583.9</ele>
        <time>2018-06-14T06:41:42Z</time>
      </trkpt>
      <trkpt lat="42.446567" lon="0.063058">
        <ele>585.4</ele>
        <time>2018-06-14T06:41:47Z</time>
      </trkpt>
      <trkpt lat="42.446690" lon="0.062869">
        <ele>587.3</ele>
        <time>2018-06-14T06:41:52Z</time>
      </trkpt>
      <trkpt lat="42.446812" lon="0.062679">
        <ele>588.9</ele>
        <time>2018-06-14T06:41:57Z</time>
      </trkpt>
      <trkpt lat="42.446934" lon="0.062490">
        <ele>589.4</ele>
        <time>2018-06-14T06:42:01Z</time>
      </trkpt>
      <trkpt lat="42.447055" lon="0.062295">
        <ele>590.0</ele>
        <time>2018-06-14T06:42:06Z</time>
      </trkpt>
      <trkpt lat="42.447174" lon="0.062102">
        <ele>591.3</ele>
        <time>2018-06-14T06:42:11Z</time>
      </trkpt>
      <trkpt lat="42.447295" lon="0.061907">
        <ele>591.9</ele>
        <time>2018-06-14T06:42:16Z</time>
      </trkpt>
      <trkpt lat="42.447415" lon="0.061715">
        <ele>591.8</ele>
        <time>2018-06-14T06:42:21Z</time>
      </trkpt>
      <trkpt lat="42.447537" lon="0.061522">
        <ele>591.0</ele>
        <time>2018-06-14T06:42:26Z</time>
      </trkpt>
      <trkpt lat="42.447656" lon="0.061329">
        <ele>590.3</ele>
        <time>2018-06-14T06:42:31Z</time>
      </trkpt>
      <trkpt lat="42.447778" lon="0.061139">
        <ele>590.1</ele>
        <time>2018-06-14T06:42:36Z</time>
      </trkpt>
      <trkpt lat="42.447899" lon="0.060947">
        <ele>589.9</ele>
        <time>2018-06-14T06:42:41Z</time>
      </trkpt>
      <trkpt lat="42.448019" lon="0.060754">
        <ele>589.6</ele>
        <time>2018-06-14T06:42:46Z</time>
      </trkpt>
      <trkpt lat="42.448140" lon="0.060559">
        <ele>589.0</ele>
        <time>2018-06-14T06:42:51Z</time>
      </trkpt>
      <trkpt lat="42.448262" lon="0.060364">
        <ele>588.4</ele>
        <time>2018-06-14T06:42:56Z</time>
      </trkpt>
      <trkpt lat="42.448386" lon="0.060170">
        <ele>588.8</ele>
        <time>2018-06-14T06:43:01Z</time>
      </trkpt>
      <trkpt lat="42.448509" lon="0.059975">
        <ele>589.3</ele>
        <time>2018-06-14T06:43:06Z</time>
      </trkpt>
      <trkpt lat="42.448633" lon="0.059780">
        <ele>590.2</ele>
        <time>2018-06-14T06:43:11Z</time>
      </trkpt>
      <trkpt lat="42.448759" lon="0.059585">
        <ele>591.1</ele>
        <time>2018-06-14T06:43:16Z</time>
      </trkpt>
      <trkpt lat="42.448883" lon="0.059390">
        <ele>591.7</ele>
        <time>2018-06-14T06:43:21Z</time>
      </trkpt>
      <trkpt lat="42.449010" lon="0.059197">
        <ele>593.2</ele>
        <time>2018-06-14T06:43:26Z</time>
      </trkpt>
      <trkpt lat="42.449137" lon="0.059007">
        <ele>594.2</ele>
        <time>2018-06-14T06:43:31Z</time>
      </trkpt>
      <trkpt lat="42.449264" lon="0.058820">
        <ele>593.9</ele>
        <time>2018-06-14T06:43:36Z</time>
      </trkpt>
      <trkpt lat="42.449389" lon="0.058632">
        <ele>594.4</ele>
        <time>2018-06-14T06:43:41Z</time>
      </trkpt>
      <trkpt lat="42.449519" lon="0.058449">
        <ele>594.1</ele>
        <time>2018-06-14T06:43:46Z</time>
      </trkpt>
      <trkpt lat="42.449651" lon="0.058272">
        <ele>593.9</ele>
        <time>2018-06-14T06:43:51Z</time>
      </trkpt>
      <trkpt lat="42.449790" lon="0.058102">
        <ele>593.6</ele>
        <time>2018-06-14T06:43:56Z</time>
      </trkpt>
      <trkpt lat="42.449930" lon="0.057940">
        <ele>592.2</ele>
        <time>2018-06-14T06:44:01Z</time>
      </trkpt>
      <trkpt lat="42.450079" lon="0.057789">
        <ele>592.1</ele>
        <time>2018-06-14T06:44:06Z</time>
      </trkpt>
      <trkpt lat="42.450232" lon="0.057649">
        <ele>592.2</ele>
        <time>2018-06-14T06:44:11Z</time>
      </trkpt>
      <trkpt lat="42.450394" lon="0.057515">
        <ele>592.9</ele>
        <time>2018-06-14T06:44:16Z</time>
      </trkpt>
      <trkpt lat="42.450561" lon="0.057395">
        <ele>594.8</ele>
        <time>2018-06-14T06:44:21Z</time>
      </trkpt>
      <trkpt lat="42.450734" lon="0.057285">
        <ele>594.8</ele>
        <time>2018-06-14T06:44:26Z</time>
      </trkpt>
      <trkpt lat="42.450912" lon="0.057189">
        <ele>594.8</ele>
        <time>2018-06-14T06:44:31Z</time>
      </trkpt>
      <trkpt lat="42.451091" lon="0.057104">
        <ele>593.9</ele>
        <time>2018-06-14T06:44:36Z</time>
      </trkpt>
      <trkpt lat="42.451274" lon="0.057028">
        <ele>590.6</ele>
        <time>2018-06-14T06:44:41Z</time>
      </trkpt>
      <trkpt lat="42.451457" lon="0.056962">
        <ele>590.3</ele>
        <time>2018-06-14T06:44:46Z</time>
      </trkpt>
      <trkpt lat="42.451639" lon="0.056903">
        <ele>589.6</ele>
        <time>2018-06-14T06:44:51Z</time>
      </trkpt>
      <trkpt lat="42.451825" lon="0.056847">
        <ele>589.4</ele>
        <time>2018-06-14T06:44:56Z</time>
      </trkpt>
      <trkpt lat="42.452010" lon="0.056789">
        <ele>589.9</ele>
        <time>2018-06-14T06:45:01Z</time>
      </trkpt>
      <trkpt lat="42.452196" lon="0.056730">
        <ele>591.0</ele>
        <time>2018-06-14T06:45:06Z</time>
      </trkpt>
      <trkpt lat="42.452382" lon="0.056661">
        <ele>591.5</ele>
        <time>2018-06-14T06:45:11Z</time>
      </trkpt>
      <trkpt lat="42.452565" lon="0.056580">
        <ele>590.8</ele>
        <time>2018-06-14T06:45:17Z</time>
      </trkpt>
      <trkpt lat="42.452747" lon="0.056489">
        <ele>590.3</ele>
        <time>2018-06-14T06:45:22Z</time>
      </trkpt>
      <trkpt lat="42.452927" lon="0.056384">
        <ele>590.0</ele>
        <time>2018-06-14T06:45:27Z</time>
      </trkpt>
      <trkpt lat="42.453105" lon="0.056270">
        <ele>589.0</ele>
        <time>2018-06-14T06:45:32Z</time>
      </trkpt>
      <trkpt lat="42.453280" lon="0.056145">
        <ele>589.2</ele>
        <time>2018-06-14T06:45:37Z</time>
      </trkpt>
      <trkpt lat="42.453451" lon="0.056014">
        <ele>590.9</ele>
        <time>2018-06-14T06:45:43Z</time>
      </trkpt>
      <trkpt lat="42.453620" lon="0.055874">
        <ele>592.6</ele>
        <time>2018-06-14T06:45:48Z</time>
      </trkpt>
      <trkpt lat="42.453787" lon="0.055734">
        <ele>594.0</ele>
        <time>2018-06-14T06:45:53Z</time>
      </trkpt>
      <trkpt lat="42.453950" lon="0.055592">
        <ele>594.5</ele>
        <time>2018-06-14T06:45:58Z</time>
      </trkpt>
      <trkpt lat="42.454111" lon="0.055450">
        <ele>594.5</ele>
        <time>2018-06-14T06:46:03Z</time>
      </trkpt>
      <trkpt lat="42.454269" lon="0.055312">
        <ele>594.9</ele>
        <time>2018-06-14T06:46:08Z</time>
      </trkpt>
      <trkpt lat="42.454424" lon="0.055175">
        <ele>595.6</ele>
        <time>2018-06-14T06:46:13Z</time>
      </trkpt>
      <trkpt lat="42.454577" lon="0.055039">
        <ele>594.9</ele>
        <time>2018-06-14T06:46:18Z</time>
      </trkpt>
      <trkpt lat="42.454727" lon="0.054903">
        <ele>596.2</ele>
        <time>2018-06-14T06:46:23Z</time>
      </trkpt>
      <trkpt lat="42.454876" lon="0.054766">
        <ele>596.1</ele>
        <time>2018-06-14T06:46:28Z</time>
      </trkpt>
      <trkpt lat="42.455021" lon="0.054632">
        <ele>596.6</ele>
        <time>2018-06-14T06:46:32Z</time>
      </trkpt>
      <trkpt lat="42.455170" lon="0.054495">
        <ele>596.4</ele>
        <time>2018-06-14T06:46:37Z</time>
      </trkpt>
      <trkpt lat="42.455319" lon="0.054360">
        <ele>596.8</ele>
        <time>2018-06-14T06:46:42Z</time>
      </trkpt>
      <trkpt lat="42.455465" lon="0.054225">
        <ele>596.7</ele>
        <time>2018-06-14T06:46:47Z</time>
      </trkpt>
      <trkpt lat="42.455609" lon="0.054084">
        <ele>596.3</ele>
        <time>2018-06-14T06:46:51Z</time>
      </trkpt>
      <trkpt lat="42.455747" lon="0.053932">
        <ele>595.6</ele>
        <time>2018-06-14T06:46:56Z</time>
      </trkpt>
      <trkpt lat="42.455881" lon="0.053771">
        <ele>594.7</ele>
        <time>2018-06-14T06:47:01Z</time>
      </trkpt>
      <trkpt lat="42.456012" lon="0.053600">
        <ele>595.2</ele>
        <time>2018-06-14T06:47:06Z</time>
      </trkpt>
      <trkpt lat="42.456137" lon="0.053423">
        <ele>596.1</ele>
        <time>2018-06-14T06:47:10Z</time>
      </trkpt>
      <trkpt lat="42.456262" lon="0.053240">
        <ele>596.7</ele>
        <time>2018-06-14T06:47:15Z</time>
      </trkpt>
      <trkpt lat="42.456382" lon="0.053050">
        <ele>597.8</ele>
        <time>2018-06-14T06:47:20Z</time>
      </trkpt>
      <trkpt lat="42.456500" lon="0.052854">
        <ele>598.1</ele>
        <time>2018-06-14T06:47:25Z</time>
      </trkpt>
      <trkpt lat="42.456619" lon="0.052660">
        <ele>600.5</ele>
        <time>2018-06-14T06:47:30Z</time>
      </trkpt>
      <trkpt lat="42.456737" lon="0.052463">
        <ele>602.0</ele>
        <time>2018-06-14T06:47:35Z</time>
      </trkpt>
      <trkpt lat="42.456859" lon="0.052272">
        <ele>602.3</ele>
        <time>2018-06-14T06:47:40Z</time>
      </trkpt>
      <trkpt lat="42.456989" lon="0.052086">
        <ele>602.7</ele>
        <time>2018-06-14T06:47:45Z</time>
      </trkpt>
      <trkpt lat="42.457124" lon="0.051914">
        <ele>603.3</ele>
        <time>2018-06-14T06:47:50Z</time>
      </trkpt>
      <trkpt lat="42.457268" lon="0.051754">
        <ele>605.1</ele>
        <time>2018-06-14T06:47:55Z</time>
      </trkpt>
      <trkpt lat="42.457417" lon="0.051604">
        <ele>605.6</ele>
        <time>2018-06-14T06:48:00Z</time>
      </trkpt>
      <trkpt lat="42.457574" lon="0.051469">
        <ele>604.9</ele>
        <time>2018-06-14T06:48:05Z</time>
      </trkpt>
      <trkpt lat="42.457737" lon="0.051352">
        <ele>604.3</ele>
        <time>2018-06-14T06:48:10Z</time>
      </trkpt>
      <trkpt lat="42.457907" lon="0.051252">
        <ele>603.9</ele>
        <time>2018-06-14T06:48:15Z</time>
      </trkpt>
      <trkpt lat="42.458082" lon="0.051169">
        <ele>601.9</ele>
        <time>2018-06-14T06:48:19Z</time>
      </trkpt>
      <trkpt lat="42.458260" lon="0.051105">
        <ele>600.3</ele>
        <time>2018-06-14T06:48:24Z</time>
      </trkpt>
      <trkpt lat="42.458444" lon="0.051057">
        <ele>600.9</ele>
        <time>2018-06-14T06:48:29Z</time>
      </trkpt>
      <trkpt lat="42.458629" lon="0.051029">
        <ele>603.0</ele>
        <time>2018-06-14T06:48:34Z</time>
      </trkpt>
      <trkpt lat="42.458816" lon="0.051015">
        <ele>604.9</ele>
        <time>2018-06-14T06:48:39Z</time>
      </trkpt>
      <trkpt lat="42.459004" lon="0.051020">
        <ele>606.4</ele>
        <time>2018-06-14T06:48:44Z</time>
      </trkpt>
      <trkpt lat="42.459190" lon="0.051042">
        <ele>607.7</ele>
        <time>2018-06-14T06:48:49Z</time>
      </trkpt>
      <trkpt lat="42.459373" lon="0.051080">
        <ele>608.8</ele>
        <time>2018-06-14T06:48:54Z</time>
      </trkpt>
      <trkpt lat="42.459557" lon="0.051130">
        <ele>610.2</ele>
        <time>2018-06-14T06:48:59Z</time>
      </trkpt>
      <trkpt lat="42.459738" lon="0.051190">
        <ele>609.9</ele>
        <time>2018-06-14T06:49:04Z</time>
      </trkpt>
      <trkpt lat="42.459918" lon="0.051259">
        <ele>608.9</ele>
        <time>2018-06-14T06:49:09Z</time>
      </trkpt>
      <trkpt lat="42.460095" lon="0.051330">
        <ele>609.5</ele>
        <time>2018-06-14T06:49:14Z</time>
      </trkpt>
      <trkpt lat="42.460272" lon="0.051405">
        <ele>611.7</ele>
        <time>2018-06-14T06:49:19Z</time>
      </trkpt>
      <trkpt lat="42.460449" lon="0.051480">
        <ele>614.4</ele>
        <time>2018-06-14T06:49:24Z</time>
      </trkpt>
      <trkpt lat="42.460625" lon="0.051555">
        <ele>617.0</ele>
        <time>2018-06-14T06:49:29Z</time>
      </trkpt>
      <trkpt lat="42.460801" lon="0.051632">
        <ele>617.6</ele>
        <time>2018-06-14T06:49:34Z</time>
      </trkpt>
      <trkpt lat="42.460977" lon="0.051709">
        <ele>616.5</ele>
        <time>2018-06-14T06:49:39Z</time>
      </trkpt>
      <trkpt lat="42.461155" lon="0.051785">
        <ele>613.8</ele>
        <time>2018-06-14T06:49:44Z</time>
      </trkpt>
      <trkpt lat="42.461334" lon="0.051861">
        <ele>611.8</ele>
        <time>2018-06-14T06:49:49Z</time>
      </trkpt>
      <trkpt lat="42.461512" lon="0.051939">
        <ele>609.7</ele>
        <time>2018-06-14T06:49:54Z</time>
      </trkpt>
      <trkpt lat="42.461689" lon="0.052019">
        <ele>609.2</ele>
        <time>2018-06-14T06:49:59Z</time>
      </trkpt>
      <trkpt lat="42.461865" lon="0.052097">
        <ele>609.4</ele>
        <time>2018-06-14T06:50:03Z</time>
      </trkpt>
      <trkpt lat="42.462041" lon="0.052174">
        <ele>611.8</ele>
        <time>2018-06-14T06:50:08Z</time>
      </trkpt>
      <trkpt lat="42.462219" lon="0.052244">
        <ele>614.6</ele>
        <time>2018-06-14T06:50:13Z</time>
      </trkpt>
      <trkpt lat="42.462397" lon="0.052305">
        <ele>616.7</ele>
        <time>2018-06-14T06:50:18Z</time>
      </trkpt>
      <trkpt lat="42.462577" lon="0.052352">
        <ele>617.1</ele>
        <time>2018-06-14T06:50:23Z</time>
      </trkpt>
      <trkpt lat="42.462760" lon="0.052392">
        <ele>615.7</ele>
        <time>2018-06-14T06:50:28Z</time>
      </trkpt>
      <trkpt lat="42.462942" lon="0.052417">
        <ele>613.6</ele>
        <time>2018-06-14T06:50:33Z</time>
      </trkpt>
      <trkpt lat="42.463125" lon="0.052425">
        <ele>612.7</ele>
        <time>2018-06-14T06:50:38Z</time>
      </trkpt>
      <trkpt lat="42.463309" lon="0.052417">
        <ele>611.6</ele>
        <time>2018-06-14T06:50:43Z</time>
      </trkpt>
      <trkpt lat="42.463491" lon="0.052389">
        <ele>609.5</ele>
        <time>2018-06-14T06:50:48Z</time>
      </trkpt>
      <trkpt lat="42.463674" lon="0.052352">
        <ele>606.2</ele>
        <time>2018-06-14T06:50:52Z</time>
      </trkpt>
      <trkpt lat="42.463855" lon="0.052297">
        <ele>605.0</ele>
        <time>2018-06-14T06:50:57Z</time>
      </trkpt>
      <trkpt lat="42.464031" lon="0.052223">
        <ele>604.6</ele>
        <time>2018-06-14T06:51:02Z</time>
      </trkpt>
      <trkpt lat="42.464203" lon="0.052130">
        <ele>605.1</ele>
        <time>2018-06-14T06:51:07Z</time>
      </trkpt>
      <trkpt lat="42.464374" lon="0.052025">
        <ele>606.6</ele>
        <time>2018-06-14T06:51:12Z</time>
      </trkpt>
      <trkpt lat="42.464540" lon="0.051904">
        <ele>608.6</ele>
        <time>2018-06-14T06:51:17Z</time>
      </trkpt>
      <trkpt lat="42.464694" lon="0.051765">
        <ele>611.8</ele>
        <time>2018-06-14T06:51:22Z</time>
      </trkpt>
      <trkpt lat="42.464843" lon="0.051614">
        <ele>613.4</ele>
        <time>2018-06-14T06:51:27Z</time>
      </trkpt>
      <trkpt lat="42.464987" lon="0.051445">
        <ele>614.7</ele>
        <time>2018-06-14T06:51:32Z</time>
      </trkpt>
      <trkpt lat="42.465122" lon="0.051267">
        <ele>613.3</ele>
        <time>2018-06-14T06:51:37Z</time>
      </trkpt>
      <trkpt lat="42.465249" lon="0.051081">
        <ele>615.8</ele>
        <time>2018-06-14T06:51:42Z</time>
      </trkpt>
      <trkpt lat="42.465364" lon="0.050880">
        <ele>615.6</ele>
        <time>2018-06-14T06:51:47Z</time>
      </trkpt>
      <trkpt lat="42.465470" lon="0.050669">
        <ele>615.5</ele>
        <time>2018-06-14T06:51:52Z</time>
      </trkpt>
      <trkpt lat="42.465564" lon="0.050449">
        <ele>616.9</ele>
        <time>2018-06-14T06:51:57Z</time>
      </trkpt>
      <trkpt lat="42.465645" lon="0.050213">
        <ele>618.4</ele>
        <time>2018-06-14T06:52:02Z</time>
      </trkpt>
      <trkpt lat="42.465711" lon="0.049972">
        <ele>618.4</ele>
        <time>2018-06-14T06:52:07Z</time>
      </trkpt>
      <trkpt lat="42.465765" lon="0.049734">
        <ele>616.2</ele>
        <time>2018-06-14T06:52:12Z</time>
      </trkpt>
      <trkpt lat="42.465810" lon="0.049507">
        <ele>614.6</ele>
        <time>2018-06-14T06:52:17Z</time>
      </trkpt>
      <trkpt lat="42.465847" lon="0.049281">
        <ele>614.0</ele>
        <time>2018-06-14T06:52:21Z</time>
      </trkpt>
      <trkpt lat="42.465866" lon="0.049054">
        <ele>614.6</ele>
        <time>2018-06-14T06:52:26Z</time>
      </trkpt>
      <trkpt lat="42.465875" lon="0.048835">
        <ele>615.1</ele>
        <time>2018-06-14T06:52:30Z</time>
      </trkpt>
      <trkpt lat="42.465872" lon="0.048625">
        <ele>615.6</ele>
        <time>2018-06-14T06:52:34Z</time>
      </trkpt>
      <trkpt lat="42.465863" lon="0.048425">
        <ele>615.9</ele>
        <time>2018-06-14T06:52:38Z</time>
      </trkpt>
      <trkpt lat="42.465850" lon="0.048225">
        <ele>615.9</ele>
        <time>2018-06-14T06:52:42Z</time>
      </trkpt>
      <trkpt lat="42.465828" lon="0.048019">
        <ele>615.7</ele>
        <time>2018-06-14T06:52:46Z</time>
      </trkpt>
      <trkpt lat="42.465799" lon="0.047814">
        <ele>615.5</ele>
        <time>2018-06-14T06:52:50Z</time>
      </trkpt>
      <trkpt lat="42.465763" lon="0.047607">
        <ele>615.2</ele>
        <time>2018-06-14T06:52:54Z</time>
      </trkpt>
      <trkpt lat="42.465715" lon="0.047399">
        <ele>615.0</ele>
        <time>2018-06-14T06:52:59Z</time>
      </trkpt>
      <trkpt lat="42.465655" lon="0.047190">
        <ele>615.8</ele>
        <time>2018-06-14T06:53:03Z</time>
      </trkpt>
      <trkpt lat="42.465587" lon="0.046982">
        <ele>617.0</ele>
        <time>2018-06-14T06:53:08Z</time>
      </trkpt>
      <trkpt lat="42.465517" lon="0.046772">
        <ele>618.1</ele>
        <time>2018-06-14T06:53:12Z</time>
      </trkpt>
      <trkpt lat="42.465447" lon="0.046559">
        <ele>618.3</ele>
        <time>2018-06-14T06:53:17Z</time>
      </trkpt>
      <trkpt lat="42.465374" lon="0.046344">
        <ele>619.3</ele>
        <time>2018-06-14T06:53:21Z</time>
      </trkpt>
      <trkpt lat="42.465305" lon="0.046129">
        <ele>621.2</ele>
        <time>2018-06-14T06:53:26Z</time>
      </trkpt>
      <trkpt lat="42.465234" lon="0.045914">
        <ele>622.9</ele>
        <time>2018-06-14T06:53:30Z</time>
      </trkpt>
      <trkpt lat="42.465162" lon="0.045696">
        <ele>623.2</ele>
        <time>2018-06-14T06:53:35Z</time>
      </trkpt>
      <trkpt lat="42.465088" lon="0.045482">
        <ele>624.2</ele>
        <time>2018-06-14T06:53:40Z</time>
      </trkpt>
      <trkpt lat="42.465015" lon="0.045265">
        <ele>624.8</ele>
        <time>2018-06-14T06:53:44Z</time>
      </trkpt>
      <trkpt lat="42.464942" lon="0.045048">
        <ele>624.6</ele>
        <time>2018-06-14T06:53:49Z</time>
      </trkpt>
      <trkpt lat="42.464870" lon="0.044829">
        <ele>622.9</ele>
        <time>2018-06-14T06:53:54Z</time>
      </trkpt>
      <trkpt lat="42.464800" lon="0.044608">
        <ele>623.3</ele>
        <time>2018-06-14T06:53:59Z</time>
      </trkpt>
      <trkpt lat="42.464727" lon="0.044390">
        <ele>623.8</ele>
        <time>2018-06-14T06:54:03Z</time>
      </trkpt>
      <trkpt lat="42.464652" lon="0.044172">
        <ele>623.1</ele>
        <time>2018-06-14T06:54:08Z</time>
      </trkpt>
      <trkpt lat="42.464577" lon="0.043951">
        <ele>622.3</ele>
        <time>2018-06-14T06:54:13Z</time>
      </trkpt>
      <trkpt lat="42.464502" lon="0.043730">
        <ele>623.9</ele>
        <time>2018-06-14T06:54:17Z</time>
      </trkpt>
      <trkpt lat="42.464428" lon="0.043508">
        <ele>623.9</ele>
        <time>2018-06-14T06:54:22Z</time>
      </trkpt>
      <trkpt lat="42.464357" lon="0.043288">
        <ele>624.5</ele>
        <time>2018-06-14T06:54:27Z</time>
      </trkpt>
      <trkpt lat="42.464284" lon="0.043065">
        <ele>624.3</ele>
        <time>2018-06-14T06:54:32Z</time>
      </trkpt>
      <trkpt lat="42.464207" lon="0.042842">
        <ele>625.2</ele>
        <time>2018-06-14T06:54:37Z</time>
      </trkpt>
      <trkpt lat="42.464130" lon="0.042618">
        <ele>625.5</ele>
        <time>2018-06-14T06:54:41Z</time>
      </trkpt>
      <trkpt lat="42.464054" lon="0.042395">
        <ele>623.6</ele>
        <time>2018-06-14T06:54:46Z</time>
      </trkpt>
      <trkpt lat="42.463980" lon="0.042172">
        <ele>623.1</ele>
        <time>2018-06-14T06:54:51Z</time>
      </trkpt>
      <trkpt lat="42.463904" lon="0.041947">
        <ele>623.3</ele>
        <time>2018-06-14T06:54:56Z</time>
      </trkpt>
      <trkpt lat="42.463829" lon="0.041720">
        <ele>622.0</ele>
        <time>2018-06-14T06:55:01Z</time>
      </trkpt>
      <trkpt lat="42.463755" lon="0.041494">
        <ele>619.4</ele>
        <time>2018-06-14T06:55:06Z</time>
      </trkpt>
      <trkpt lat="42.463682" lon="0.041265">
        <ele>618.8</ele>
        <time>2018-06-14T06:55:10Z</time>
      </trkpt>
      <trkpt lat="42.463614" lon="0.041037">
        <ele>620.5</ele>
        <time>2018-06-14T06:55:15Z</time>
      </trkpt>
      <trkpt lat="42.463552" lon="0.040805">
        <ele>621.6</ele>
        <time>2018-06-14T06:55:20Z</time>
      </trkpt>
      <trkpt lat="42.463496" lon="0.040569">
        <ele>621.1</ele>
        <time>2018-06-14T06:55:25Z</time>
      </trkpt>
      <trkpt lat="42.463449" lon="0.040334">
        <ele>620.1</ele>
        <time>2018-06-14T06:55:30Z</time>
      </trkpt>
      <trkpt lat="42.463407" lon="0.040094">
        <ele>620.5</ele>
        <time>2018-06-14T06:55:35Z</time>
      </trkpt>
      <trkpt lat="42.463374" lon="0.039854">
        <ele>621.6</ele>
        <time>2018-06-14T06:55:39Z</time>
      </trkpt>
      <trkpt lat="42.463351" lon="0.039612">
        <ele>621.6</ele>
        <time>2018-06-14T06:55:44Z</time>
      </trkpt>
      <trkpt lat="42.463334" lon="0.039367">
        <ele>621.9</ele>
        <time>2018-06-14T06:55:49Z</time>
      </trkpt>
      <trkpt lat="42.463324" lon="0.039120">
        <ele>622.6</ele>
        <time>2018-06-14T06:55:54Z</time>
      </trkpt>
      <trkpt lat="42.463324" lon="0.038872">
        <ele>623.2</ele>
        <time>2018-06-14T06:55:59Z</time>
      </trkpt>
      <trkpt lat="42.463332" lon="0.038624">
        <ele>623.0</ele>
        <time>2018-06-14T06:56:03Z</time>
      </trkpt>
      <trkpt lat="42.463347" lon="0.038375">
        <ele>622.6</ele>
        <time>2018-06-14T06:56:08Z</time>
      </trkpt>
      <trkpt lat="42.463369" lon="0.038130">
        <ele>622.7</ele>
        <time>2018-06-14T06:56:13Z</time>
      </trkpt>
      <trkpt lat="42.463398" lon="0.037889">
        <ele>623.1</ele>
        <time>2018-06-14T06:56:18Z</time>
      </trkpt>
      <trkpt lat="42.463435" lon="0.037647">
        <ele>624.0</ele>
        <time>2018-06-14T06:56:23Z</time>
      </trkpt>
      <trkpt lat="42.463471" lon="0.037405">
        <ele>624.0</ele>
        <time>2018-06-14T06:56:28Z</time>
      </trkpt>
      <trkpt lat="42.463509" lon="0.037164">
        <ele>625.9</ele>
        <time>2018-06-14T06:56:32Z</time>
      </trkpt>
      <trkpt lat="42.463545" lon="0.036924">
        <ele>627.8</ele>
        <time>2018-06-14T06:56:37Z</time>
      </trkpt>
      <trkpt lat="42.463584" lon="0.036688">
        <ele>628.7</ele>
        <time>2018-06-14T06:56:42Z</time>
      </trkpt>
      <trkpt lat="42.463622" lon="0.036455">
        <ele>628.6</ele>
        <time>2018-06-14T06:56:47Z</time>
      </trkpt>
      <trkpt lat="42.463672" lon="0.036228">
        <ele>629.4</ele>
        <time>2018-06-14T06:56:51Z</time>
      </trkpt>
      <trkpt lat="42.463730" lon="0.036008">
        <ele>638.7</ele>
        <time>2018-06-14T06:56:56Z</time>
      </trkpt>
      <trkpt lat="42.463797" lon="0.035795">
        <ele>645.7</ele>
        <time>2018-06-14T06:57:01Z</time>
      </trkpt>
      <trkpt lat="42.464435" lon="0.034434">
        <ele>696.7</ele>
        <time>2018-06-14T06:57:35Z</time>
      </trkpt>
      <trkpt lat="42.465083" lon="0.033277">
        <ele>653.9</ele>
        <time>2018-06-14T06:58:05Z</time>
      </trkpt>
      <trkpt lat="42.465742" lon="0.032027">
        <ele>627.5</ele>
        <time>2018-06-14T06:58:36Z</time>
      </trkpt>
      <trkpt lat="42.465875" lon="0.031659">
        <ele>629.9</ele>
        <time>2018-06-14T06:58:44Z</time>
      </trkpt>
      <trkpt lat="42.465956" lon="0.031270">
        <ele>629.7</ele>
        <time>2018-06-14T06:58:52Z</time>
      </trkpt>
      <trkpt lat="42.466051" lon="0.030309">
        <ele>630.9</ele>
        <time>2018-06-14T06:59:11Z</time>
      </trkpt>
      <trkpt lat="42.466136" lon="0.028376">
        <ele>628.9</ele>
        <time>2018-06-14T06:59:49Z</time>
      </trkpt>
      <trkpt lat="42.466146" lon="0.027767">
        <ele>628.4</ele>
        <time>2018-06-14T07:00:01Z</time>
      </trkpt>
      <trkpt lat="42.466206" lon="0.026713">
        <ele>630.7</ele>
        <time>2018-06-14T07:00:21Z</time>
      </trkpt>
      <trkpt lat="42.466295" lon="0.025104">
        <ele>635.5</ele>
        <time>2018-06-14T07:00:53Z</time>
      </trkpt>
      <trkpt lat="42.466405" lon="0.024501">
        <ele>635.0</ele>
        <time>2018-06-14T07:01:05Z</time>
      </trkpt>
      <trkpt lat="42.466493" lon="0.024042">
        <ele>636.0</ele>
        <time>2018-06-14T07:01:15Z</time>
      </trkpt>
      <trkpt lat="42.467283" lon="0.021637">
        <ele>636.0</ele>
        <time>2018-06-14T07:02:07Z</time>
      </trkpt>
      <trkpt lat="42.467533" lon="0.020995">
        <ele>637.0</ele>
        <time>2018-06-14T07:02:22Z</time>
      </trkpt>
      <trkpt lat="42.467682" lon="0.020496">
        <ele>635.6</ele>
        <time>2018-06-14T07:02:32Z</time>
      </trkpt>
      <trkpt lat="42.467744" lon="0.019847">
        <ele>635.8</ele>
        <time>2018-06-14T07:02:45Z</time>
      </trkpt>
      <trkpt lat="42.467769" lon="0.019475">
        <ele>635.7</ele>
        <time>2018-06-14T07:02:52Z</time>
      </trkpt>
      <trkpt lat="42.467769" lon="0.018740">
        <ele>635.4</ele>
        <time>2018-06-14T07:03:07Z</time>
      </trkpt>
      <trkpt lat="42.467677" lon="0.017750">
        <ele>637.4</ele>
        <time>2018-06-14T07:03:26Z</time>
      </trkpt>
      <trkpt lat="42.467607" lon="0.017497">
        <ele>637.8</ele>
        <time>2018-06-14T07:03:31Z</time>
      </trkpt>
      <trkpt lat="42.467540" lon="0.017247">
        <ele>640.8</ele>
        <time>2018-06-14T07:03:37Z</time>
      </trkpt>
      <trkpt lat="42.467477" lon="0.017004">
        <ele>643.2</ele>
        <time>2018-06-14T07:03:42Z</time>
      </trkpt>
      <trkpt lat="42.467420" lon="0.016769">
        <ele>644.7</ele>
        <time>2018-06-14T07:03:47Z</time>
      </trkpt>
      <trkpt lat="42.467369" lon="0.016542">
        <ele>644.4</ele>
        <time>2018-06-14T07:03:51Z</time>
      </trkpt>
      <trkpt lat="42.467325" lon="0.016319">
        <ele>643.6</ele>
        <time>2018-06-14T07:03:56Z</time>
      </trkpt>
      <trkpt lat="42.467295" lon="0.016100">
        <ele>643.3</ele>
        <time>2018-06-14T07:04:00Z</time>
      </trkpt>
      <trkpt lat="42.467280" lon="0.015877">
        <ele>643.6</ele>
        <time>2018-06-14T07:04:05Z</time>
      </trkpt>
      <trkpt lat="42.467315" lon="0.015659">
        <ele>645.7</ele>
        <time>2018-06-14T07:04:09Z</time>
      </trkpt>
      <trkpt lat="42.467360" lon="0.015439">
        <ele>647.9</ele>
        <time>2018-06-14T07:04:13Z</time>
      </trkpt>
      <trkpt lat="42.467404" lon="0.015213">
        <ele>650.2</ele>
        <time>2018-06-14T07:04:18Z</time>
      </trkpt>
      <trkpt lat="42.467432" lon="0.014984">
        <ele>651.8</ele>
        <time>2018-06-14T07:04:23Z</time>
      </trkpt>
      <trkpt lat="42.467440" lon="0.014752">
        <ele>653.4</ele>
        <time>2018-06-14T07:04:27Z</time>
      </trkpt>
      <trkpt lat="42.467437" lon="0.014517">
        <ele>655.1</ele>
        <time>2018-06-14T07:04:32Z</time>
      </trkpt>
      <trkpt lat="42.467423" lon="0.014284">
        <ele>656.9</ele>
        <time>2018-06-14T07:04:36Z</time>
      </trkpt>
      <trkpt lat="42.467407" lon="0.014049">
        <ele>658.0</ele>
        <time>2018-06-14T07:04:41Z</time>
      </trkpt>
      <trkpt lat="42.467392" lon="0.013810">
        <ele>658.4</ele>
        <time>2018-06-14T07:04:46Z</time>
      </trkpt>
      <trkpt lat="42.467382" lon="0.013570">
        <ele>657.8</ele>
        <time>2018-06-14T07:04:50Z</time>
      </trkpt>
      <trkpt lat="42.467379" lon="0.013328">
        <ele>655.9</ele>
        <time>2018-06-14T07:04:55Z</time>
      </trkpt>
      <trkpt lat="42.467387" lon="0.013089">
        <ele>653.4</ele>
        <time>2018-06-14T07:05:00Z</time>
      </trkpt>
      <trkpt lat="42.467419" lon="0.012854">
        <ele>651.5</ele>
        <time>2018-06-14T07:05:05Z</time>
      </trkpt>
      <trkpt lat="42.467474" lon="0.012627">
        <ele>650.7</ele>
        <time>2018-06-14T07:05:09Z</time>
      </trkpt>
      <trkpt lat="42.467540" lon="0.012407">
        <ele>650.4</ele>
        <time>2018-06-14T07:05:14Z</time>
      </trkpt>
      <trkpt lat="42.467609" lon="0.012189">
        <ele>650.9</ele>
        <time>2018-06-14T07:05:19Z</time>
      </trkpt>
      <trkpt lat="42.467680" lon="0.011971">
        <ele>652.0</ele>
        <time>2018-06-14T07:05:23Z</time>
      </trkpt>
      <trkpt lat="42.467744" lon="0.011759">
        <ele>652.3</ele>
        <time>2018-06-14T07:05:28Z</time>
      </trkpt>
      <trkpt lat="42.467800" lon="0.011548">
        <ele>651.9</ele>
        <time>2018-06-14T07:05:32Z</time>
      </trkpt>
      <trkpt lat="42.467847" lon="0.011342">
        <ele>650.3</ele>
        <time>2018-06-14T07:05:36Z</time>
      </trkpt>
      <trkpt lat="42.467900" lon="0.011155">
        <ele>649.5</ele>
        <time>2018-06-14T07:05:40Z</time>
      </trkpt>
      <trkpt lat="42.467964" lon="0.010982">
        <ele>651.1</ele>
        <time>2018-06-14T07:05:44Z</time>
      </trkpt>
      <trkpt lat="42.468155" lon="0.010894">
        <ele>664.9</ele>
        <time>2018-06-14T07:05:50Z</time>
      </trkpt>
      <trkpt lat="42.468274" lon="0.010801">
        <ele>673.2</ele>
        <time>2018-06-14T07:05:54Z</time>
      </trkpt>
      <trkpt lat="42.468324" lon="0.010598">
        <ele>674.4</ele>
        <time>2018-06-14T07:05:59Z</time>
      </trkpt>
      <trkpt lat="42.468305" lon="0.010210">
        <ele>667.1</ele>
        <time>2018-06-14T07:06:06Z</time>
      </trkpt>
      <trkpt lat="42.468334" lon="0.009810">
        <ele>668.9</ele>
        <time>2018-06-14T07:06:14Z</time>
      </trkpt>
      <trkpt lat="42.468360" lon="0.009617">
        <ele>670.7</ele>
        <time>2018-06-14T07:06:18Z</time>
      </trkpt>
      <trkpt lat="42.468389" lon="0.009420">
        <ele>673.6</ele>
        <time>2018-06-14T07:06:22Z</time>
      </trkpt>
      <trkpt lat="42.468409" lon="0.009224">
        <ele>676.5</ele>
        <time>2018-06-14T07:06:26Z</time>
      </trkpt>
      <trkpt lat="42.468410" lon="0.009027">
        <ele>678.0</ele>
        <time>2018-06-14T07:06:30Z</time>
      </trkpt>
      <trkpt lat="42.468395" lon="0.008829">
        <ele>680.6</ele>
        <time>2018-06-14T07:06:34Z</time>
      </trkpt>
      <trkpt lat="42.468379" lon="0.008631">
        <ele>683.8</ele>
        <time>2018-06-14T07:06:38Z</time>
      </trkpt>
      <trkpt lat="42.468369" lon="0.008435">
        <ele>687.8</ele>
        <time>2018-06-14T07:06:42Z</time>
      </trkpt>
      <trkpt lat="42.468359" lon="0.008287">
        <ele>690.4</ele>
        <time>2018-06-14T07:06:45Z</time>
      </trkpt>
      <trkpt lat="42.468291" lon="0.008072">
        <ele>690.9</ele>
        <time>2018-06-14T07:06:49Z</time>
      </trkpt>
      <trkpt lat="42.468173" lon="0.007831">
        <ele>689.6</ele>
        <time>2018-06-14T07:06:55Z</time>
      </trkpt>
      <trkpt lat="42.467979" lon="0.007546">
        <ele>690.6</ele>
        <time>2018-06-14T07:07:03Z</time>
      </trkpt>
      <trkpt lat="42.467757" lon="0.007230">
        <ele>687.7</ele>
        <time>2018-06-14T07:07:11Z</time>
      </trkpt>
      <trkpt lat="42.467710" lon="0.007053">
        <ele>688.8</ele>
        <time>2018-06-14T07:07:15Z</time>
      </trkpt>
      <trkpt lat="42.467701" lon="0.006760">
        <ele>689.9</ele>
        <time>2018-06-14T07:07:21Z</time>
      </trkpt>
      <trkpt lat="42.467695" lon="0.006569">
        <ele>689.3</ele>
        <time>2018-06-14T07:07:24Z</time>
      </trkpt>
      <trkpt lat="42.467695" lon="0.006369">
        <ele>689.2</ele>
        <time>2018-06-14T07:07:28Z</time>
      </trkpt>
      <trkpt lat="42.467697" lon="0.006171">
        <ele>689.3</ele>
        <time>2018-06-14T07:07:32Z</time>
      </trkpt>
      <trkpt lat="42.467702" lon="0.005989">
        <ele>689.3</ele>
        <time>2018-06-14T07:07:36Z</time>
      </trkpt>
      <trkpt lat="42.467714" lon="0.005819">
        <ele>690.2</ele>
        <time>2018-06-14T07:07:39Z</time>
      </trkpt>
      <trkpt lat="42.467763" lon="0.005616">
        <ele>692.8</ele>
        <time>2018-06-14T07:07:43Z</time>
      </trkpt>
      <trkpt lat="42.467797" lon="0.005487">
        <ele>694.2</ele>
        <time>2018-06-14T07:07:46Z</time>
      </trkpt>
      <trkpt lat="42.467788" lon="0.005388">
        <ele>695.0</ele>
        <time>2018-06-14T07:07:48Z</time>
      </trkpt>
      <trkpt lat="42.467688" lon="0.005269">
        <ele>695.6</ele>
        <time>2018-06-14T07:07:52Z</time>
      </trkpt>
      <trkpt lat="42.467570" lon="0.005193">
        <ele>695.5</ele>
        <time>2018-06-14T07:07:55Z</time>
      </trkpt>
      <trkpt lat="42.467321" lon="0.005193">
        <ele>692.5</ele>
        <time>2018-06-14T07:08:02Z</time>
      </trkpt>
      <trkpt lat="42.467034" lon="0.005134">
        <ele>681.2</ele>
        <time>2018-06-14T07:08:10Z</time>
      </trkpt>
      <trkpt lat="42.466897" lon="0.005016">
        <ele>681.1</ele>
        <time>2018-06-14T07:08:14Z</time>
      </trkpt>
      <trkpt lat="42.466691" lon="0.004712">
        <ele>681.6</ele>
        <time>2018-06-14T07:08:22Z</time>
      </trkpt>
      <trkpt lat="42.466681" lon="0.004601">
        <ele>685.2</ele>
        <time>2018-06-14T07:08:25Z</time>
      </trkpt>
      <trkpt lat="42.466679" lon="0.004484">
        <ele>687.9</ele>
        <time>2018-06-14T07:08:27Z</time>
      </trkpt>
      <trkpt lat="42.466754" lon="0.004264">
        <ele>698.3</ele>
        <time>2018-06-14T07:08:32Z</time>
      </trkpt>
      <trkpt lat="42.466748" lon="0.004108">
        <ele>700.0</ele>
        <time>2018-06-14T07:08:35Z</time>
      </trkpt>
      <trkpt lat="42.466704" lon="0.003960">
        <ele>699.0</ele>
        <time>2018-06-14T07:08:38Z</time>
      </trkpt>
      <trkpt lat="42.466567" lon="0.003707">
        <ele>691.7</ele>
        <time>2018-06-14T07:08:45Z</time>
      </trkpt>
      <trkpt lat="42.466442" lon="0.003572">
        <ele>682.9</ele>
        <time>2018-06-14T07:08:50Z</time>
      </trkpt>
      <trkpt lat="42.466443" lon="0.003421">
        <ele>683.0</ele>
        <time>2018-06-14T07:08:53Z</time>
      </trkpt>
      <trkpt lat="42.466461" lon="0.003276">
        <ele>683.6</ele>
        <time>2018-06-14T07:08:55Z</time>
      </trkpt>
      <trkpt lat="42.466536" lon="0.003040">
        <ele>684.1</ele>
        <time>2018-06-14T07:09:00Z</time>
      </trkpt>
      <trkpt lat="42.466779" lon="0.002643">
        <ele>689.5</ele>
        <time>2018-06-14T07:09:11Z</time>
      </trkpt>
      <trkpt lat="42.466897" lon="0.002313">
        <ele>687.1</ele>
        <time>2018-06-14T07:09:18Z</time>
      </trkpt>
      <trkpt lat="42.467040" lon="0.002119">
        <ele>689.6</ele>
        <time>2018-06-14T07:09:23Z</time>
      </trkpt>
      <trkpt lat="42.467165" lon="0.001950">
        <ele>690.2</ele>
        <time>2018-06-14T07:09:28Z</time>
      </trkpt>
      <trkpt lat="42.467177" lon="0.001663">
        <ele>680.7</ele>
        <time>2018-06-14T07:09:34Z</time>
      </trkpt>
      <trkpt lat="42.467195" lon="0.001544">
        <ele>677.0</ele>
        <time>2018-06-14T07:09:36Z</time>
      </trkpt>
      <trkpt lat="42.467233" lon="0.001452">
        <ele>676.0</ele>
        <time>2018-06-14T07:09:39Z</time>
      </trkpt>
      <trkpt lat="42.467383" lon="0.001359">
        <ele>680.2</ele>
        <time>2018-06-14T07:09:43Z</time>
      </trkpt>
      <trkpt lat="42.467638" lon="0.001207">
        <ele>686.9</ele>
        <time>2018-06-14T07:09:51Z</time>
      </trkpt>
      <trkpt lat="42.468106" lon="0.001224">
        <ele>685.5</ele>
        <time>2018-06-14T07:10:03Z</time>
      </trkpt>
      <trkpt lat="42.468311" lon="0.001232">
        <ele>682.2</ele>
        <time>2018-06-14T07:10:09Z</time>
      </trkpt>
      <trkpt lat="42.468567" lon="0.001156">
        <ele>677.4</ele>
        <time>2018-06-14T07:10:16Z</time>
      </trkpt>
      <trkpt lat="42.469015" lon="0.001021">
        <ele>672.4</ele>
        <time>2018-06-14T07:10:28Z</time>
      </trkpt>
      <trkpt lat="42.469414" lon="0.000903">
        <ele>671.9</ele>
        <time>2018-06-14T07:10:39Z</time>
      </trkpt>
      <trkpt lat="42.469588" lon="0.000802">
        <ele>671.2</ele>
        <time>2018-06-14T07:10:44Z</time>
      </trkpt>
      <trkpt lat="42.469632" lon="0.000616">
        <ele>668.9</ele>
        <time>2018-06-14T07:10:48Z</time>
      </trkpt>
      <trkpt lat="42.469630" lon="0.000472">
        <ele>668.0</ele>
        <time>2018-06-14T07:10:50Z</time>
      </trkpt>
      <trkpt lat="42.469610" lon="0.000380">
        <ele>667.5</ele>
        <time>2018-06-14T07:10:52Z</time>
      </trkpt>
      <trkpt lat="42.469560" lon="0.000309">
        <ele>667.1</ele>
        <time>2018-06-14T07:10:54Z</time>
      </trkpt>
      <trkpt lat="42.469499" lon="0.000257">
        <ele>666.7</ele>
        <time>2018-06-14T07:10:56Z</time>
      </trkpt>
      <trkpt lat="42.469435" lon="0.000220">
        <ele>666.1</ele>
        <time>2018-06-14T07:10:58Z</time>
      </trkpt>
      <trkpt lat="42.469364" lon="0.000197">
        <ele>665.4</ele>
        <time>2018-06-14T07:11:00Z</time>
      </trkpt>
      <trkpt lat="42.469279" lon="0.000195">
        <ele>664.6</ele>
        <time>2018-06-14T07:11:02Z</time>
      </trkpt>
      <trkpt lat="42.469190" lon="0.000214">
        <ele>663.9</ele>
        <time>2018-06-14T07:11:05Z</time>
      </trkpt>
      <trkpt lat="42.469100" lon="0.000227">
        <ele>663.2</ele>
        <time>2018-06-14T07:11:07Z</time>
      </trkpt>
      <trkpt lat="42.469005" lon="0.000222">
        <ele>662.6</ele>
        <time>2018-06-14T07:11:09Z</time>
      </trkpt>
      <trkpt lat="42.468920" lon="0.000214">
        <ele>662.0</ele>
        <time>2018-06-14T07:11:12Z</time>
      </trkpt>
      <trkpt lat="42.468840" lon="0.000202">
        <ele>661.4</ele>
        <time>2018-06-14T07:11:14Z</time>
      </trkpt>
      <trkpt lat="42.468759" lon="0.000187">
        <ele>660.6</ele>
        <time>2018-06-14T07:11:16Z</time>
      </trkpt>
      <trkpt lat="42.468677" lon="0.000169">
        <ele>661.3</ele>
        <time>2018-06-14T07:11:18Z</time>
      </trkpt>
      <trkpt lat="42.468595" lon="0.000150">
        <ele>662.3</ele>
        <time>2018-06-14T07:11:20Z</time>
      </trkpt>
      <trkpt lat="42.468507" lon="0.000139">
        <ele>663.5</ele>
        <time>2018-06-14T07:11:23Z</time>
      </trkpt>
      <trkpt lat="42.468420" lon="0.000132">
        <ele>662.8</ele>
        <time>2018-06-14T07:11:25Z</time>
      </trkpt>
      <trkpt lat="42.468334" lon="0.000124">
        <ele>661.1</ele>
        <time>2018-06-14T07:11:27Z</time>
      </trkpt>
      <trkpt lat="42.468249" lon="0.000117">
        <ele>659.5</ele>
        <time>2018-06-14T07:11:30Z</time>
      </trkpt>
      <trkpt lat="42.468162" lon="0.000104">
        <ele>658.4</ele>
        <time>2018-06-14T07:11:32Z</time>
      </trkpt>
      <trkpt lat="42.468072" lon="0.000090">
        <ele>657.8</ele>
        <time>2018-06-14T07:11:34Z</time>
      </trkpt>
      <trkpt lat="42.467982" lon="0.000080">
        <ele>657.4</ele>
        <time>2018-06-14T07:11:37Z</time>
      </trkpt>
      <trkpt lat="42.467892" lon="0.000074">
        <ele>657.5</ele>
        <time>2018-06-14T07:11:39Z</time>
      </trkpt>
      <trkpt lat="42.467805" lon="0.000069">
        <ele>658.9</ele>
        <time>2018-06-14T07:11:42Z</time>
      </trkpt>
      <trkpt lat="42.467722" lon="0.000062">
        <ele>660.2</ele>
        <time>2018-06-14T07:11:44Z</time>
      </trkpt>
      <trkpt lat="42.467645" lon="0.000055">
        <ele>661.4</ele>
        <time>2018-06-14T07:11:46Z</time>
      </trkpt>
      <trkpt lat="42.467579" lon="0.000048">
        <ele>660.9</ele>
        <time>2018-06-14T07:11:48Z</time>
      </trkpt>
      <trkpt lat="42.467520" lon="0.000052">
        <ele>660.6</ele>
        <time>2018-06-14T07:11:49Z</time>
      </trkpt>
      <trkpt lat="42.467465" lon="0.000079">
        <ele>660.4</ele>
        <time>2018-06-14T07:11:51Z</time>
      </trkpt>
      <trkpt lat="42.467419" lon="0.000132">
        <ele>660.6</ele>
        <time>2018-06-14T07:11:52Z</time>
      </trkpt>
      <trkpt lat="42.467382" lon="0.000217">
        <ele>660.3</ele>
        <time>2018-06-14T07:11:54Z</time>
      </trkpt>
      <trkpt lat="42.467339" lon="0.000302">
        <ele>659.5</ele>
        <time>2018-06-14T07:11:56Z</time>
      </trkpt>
      <trkpt lat="42.467287" lon="0.000365">
        <ele>658.4</ele>
        <time>2018-06-14T07:11:58Z</time>
      </trkpt>
      <trkpt lat="42.467232" lon="0.000400">
        <ele>657.2</ele>
        <time>2018-06-14T07:12:00Z</time>
      </trkpt>
      <trkpt lat="42.467171" lon="0.000424">
        <ele>656.0</ele>
        <time>2018-06-14T07:12:02Z</time>
      </trkpt>
      <trkpt lat="42.467117" lon="0.000459">
        <ele>655.1</ele>
        <time>2018-06-14T07:12:03Z</time>
      </trkpt>
      <trkpt lat="42.467068" lon="0.000517">
        <ele>654.5</ele>
        <time>2018-06-14T07:12:05Z</time>
      </trkpt>
      <trkpt lat="42.467025" lon="0.000587">
        <ele>654.4</ele>
        <time>2018-06-14T07:12:07Z</time>
      </trkpt>
      <trkpt lat="42.466985" lon="0.000659">
        <ele>654.1</ele>
        <time>2018-06-14T07:12:08Z</time>
      </trkpt>
      <trkpt lat="42.466944" lon="0.000732">
        <ele>653.7</ele>
        <time>2018-06-14T07:12:10Z</time>
      </trkpt>
      <trkpt lat="42.466900" lon="0.000814">
        <ele>653.4</ele>
        <time>2018-06-14T07:12:12Z</time>
      </trkpt>
      <trkpt lat="42.466850" lon="0.000904">
        <ele>653.2</ele>
        <time>2018-06-14T07:12:14Z</time>
      </trkpt>
      <trkpt lat="42.466807" lon="0.000992">
        <ele>653.3</ele>
        <time>2018-06-14T07:12:16Z</time>
      </trkpt>
      <trkpt lat="42.466762" lon="0.001065">
        <ele>654.1</ele>
        <time>2018-06-14T07:12:18Z</time>
      </trkpt>
      <trkpt lat="42.466712" lon="0.001119">
        <ele>654.4</ele>
        <time>2018-06-14T07:12:20Z</time>
      </trkpt>
      <trkpt lat="42.466652" lon="0.001147">
        <ele>654.3</ele>
        <time>2018-06-14T07:12:22Z</time>
      </trkpt>
      <trkpt lat="42.466587" lon="0.001155">
        <ele>653.8</ele>
        <time>2018-06-14T07:12:23Z</time>
      </trkpt>
      <trkpt lat="42.466524" lon="0.001151">
        <ele>653.2</ele>
        <time>2018-06-14T07:12:25Z</time>
      </trkpt>
      <trkpt lat="42.466462" lon="0.001151">
        <ele>651.7</ele>
        <time>2018-06-14T07:12:27Z</time>
      </trkpt>
      <trkpt lat="42.466410" lon="0.001168">
        <ele>650.4</ele>
        <time>2018-06-14T07:12:28Z</time>
      </trkpt>
      <trkpt lat="42.466359" lon="0.001195">
        <ele>649.1</ele>
        <time>2018-06-14T07:12:30Z</time>
      </trkpt>
      <trkpt lat="42.466308" lon="0.001242">
        <ele>647.7</ele>
        <time>2018-06-14T07:12:31Z</time>
      </trkpt>
      <trkpt lat="42.466279" lon="0.001302">
        <ele>647.0</ele>
        <time>2018-06-14T07:12:33Z</time>
      </trkpt>
      <trkpt lat="42.466252" lon="0.001417">
        <ele>646.7</ele>
        <time>2018-06-14T07:12:35Z</time>
      </trkpt>
      <trkpt lat="42.466245" lon="0.001479">
        <ele>646.8</ele>
        <time>2018-06-14T07:12:36Z</time>
      </trkpt>
      <trkpt lat="42.466240" lon="0.001544">
        <ele>647.1</ele>
        <time>2018-06-14T07:12:38Z</time>
      </trkpt>
      <trkpt lat="42.466210" lon="0.001654">
        <ele>647.5</ele>
        <time>2018-06-14T07:12:40Z</time>
      </trkpt>
      <trkpt lat="42.466149" lon="0.001732">
        <ele>647.6</ele>
        <time>2018-06-14T07:12:42Z</time>
      </trkpt>
      <trkpt lat="42.466076" lon="0.001774">
        <ele>647.4</ele>
        <time>2018-06-14T07:12:44Z</time>
      </trkpt>
      <trkpt lat="42.465997" lon="0.001806">
        <ele>647.1</ele>
        <time>2018-06-14T07:12:47Z</time>
      </trkpt>
      <trkpt lat="42.465951" lon="0.001804">
        <ele>646.9</ele>
        <time>2018-06-14T07:12:48Z</time>
      </trkpt>
      <trkpt lat="42.465907" lon="0.001792">
        <ele>646.6</ele>
        <time>2018-06-14T07:12:49Z</time>
      </trkpt>
      <trkpt lat="42.465863" lon="0.001780">
        <ele>646.4</ele>
        <time>2018-06-14T07:12:50Z</time>
      </trkpt>
      <trkpt lat="42.465816" lon="0.001772">
        <ele>646.1</ele>
        <time>2018-06-14T07:12:51Z</time>
      </trkpt>
      <trkpt lat="42.465728" lon="0.001755">
        <ele>645.7</ele>
        <time>2018-06-14T07:12:54Z</time>
      </trkpt>
      <trkpt lat="42.465685" lon="0.001747">
        <ele>645.7</ele>
        <time>2018-06-14T07:12:55Z</time>
      </trkpt>
      <trkpt lat="42.465635" lon="0.001739">
        <ele>645.8</ele>
        <time>2018-06-14T07:12:56Z</time>
      </trkpt>
      <trkpt lat="42.465582" lon="0.001730">
        <ele>646.0</ele>
        <time>2018-06-14T07:12:58Z</time>
      </trkpt>
      <trkpt lat="42.465530" lon="0.001718">
        <ele>646.2</ele>
        <time>2018-06-14T07:12:59Z</time>
      </trkpt>
      <trkpt lat="42.465477" lon="0.001708">
        <ele>646.3</ele>
        <time>2018-06-14T07:13:00Z</time>
      </trkpt>
      <trkpt lat="42.465423" lon="0.001699">
        <ele>646.4</ele>
        <time>2018-06-14T07:13:02Z</time>
      </trkpt>
      <trkpt lat="42.465379" lon="0.001679">
        <ele>647.7</ele>
        <time>2018-06-14T07:13:03Z</time>
      </trkpt>
      <trkpt lat="42.465339" lon="0.001632">
        <ele>649.1</ele>
        <time>2018-06-14T07:13:05Z</time>
      </trkpt>
      <trkpt lat="42.465296" lon="0.001569">
        <ele>650.2</ele>
        <time>2018-06-14T07:13:06Z</time>
      </trkpt>
      <trkpt lat="42.465244" lon="0.001515">
        <ele>651.3</ele>
        <time>2018-06-14T07:13:08Z</time>
      </trkpt>
      <trkpt lat="42.465188" lon="0.001459">
        <ele>652.4</ele>
        <time>2018-06-14T07:13:10Z</time>
      </trkpt>
      <trkpt lat="42.465142" lon="0.001402">
        <ele>653.0</ele>
        <time>2018-06-14T07:13:12Z</time>
      </trkpt>
      <trkpt lat="42.465104" lon="0.001350">
        <ele>653.8</ele>
        <time>2018-06-14T07:13:13Z</time>
      </trkpt>
      <trkpt lat="42.465075" lon="0.001294">
        <ele>654.0</ele>
        <time>2018-06-14T07:13:14Z</time>
      </trkpt>
      <trkpt lat="42.465050" lon="0.001234">
        <ele>653.6</ele>
        <time>2018-06-14T07:13:16Z</time>
      </trkpt>
      <trkpt lat="42.465019" lon="0.001172">
        <ele>653.2</ele>
        <time>2018-06-14T07:13:17Z</time>
      </trkpt>
      <trkpt lat="42.464992" lon="0.001109">
        <ele>652.6</ele>
        <time>2018-06-14T07:13:19Z</time>
      </trkpt>
      <trkpt lat="42.464960" lon="0.001045">
        <ele>652.0</ele>
        <time>2018-06-14T07:13:20Z</time>
      </trkpt>
      <trkpt lat="42.464897" lon="0.000984">
        <ele>651.7</ele>
        <time>2018-06-14T07:13:22Z</time>
      </trkpt>
      <trkpt lat="42.464819" lon="0.000927">
        <ele>652.8</ele>
        <time>2018-06-14T07:13:25Z</time>
      </trkpt>
      <trkpt lat="42.464735" lon="0.000889">
        <ele>654.9</ele>
        <time>2018-06-14T07:13:27Z</time>
      </trkpt>
      <trkpt lat="42.464645" lon="0.000845">
        <ele>656.9</ele>
        <time>2018-06-14T07:13:30Z</time>
      </trkpt>
      <trkpt lat="42.464554" lon="0.000787">
        <ele>658.3</ele>
        <time>2018-06-14T07:13:32Z</time>
      </trkpt>
      <trkpt lat="42.464469" lon="0.000719">
        <ele>659.0</ele>
        <time>2018-06-14T07:13:35Z</time>
      </trkpt>
      <trkpt lat="42.464385" lon="0.000640">
        <ele>659.9</ele>
        <time>2018-06-14T07:13:38Z</time>
      </trkpt>
      <trkpt lat="42.464305" lon="0.000562">
        <ele>660.6</ele>
        <time>2018-06-14T07:13:40Z</time>
      </trkpt>
      <trkpt lat="42.464232" lon="0.000491">
        <ele>660.1</ele>
        <time>2018-06-14T07:13:43Z</time>
      </trkpt>
      <trkpt lat="42.464169" lon="0.000429">
        <ele>659.3</ele>
        <time>2018-06-14T07:13:45Z</time>
      </trkpt>
      <trkpt lat="42.464115" lon="0.000370">
        <ele>659.0</ele>
        <time>2018-06-14T07:13:47Z</time>
      </trkpt>
      <trkpt lat="42.464070" lon="0.000310">
        <ele>658.7</ele>
        <time>2018-06-14T07:13:48Z</time>
      </trkpt>
      <trkpt lat="42.464037" lon="0.000239">
        <ele>658.1</ele>
        <time>2018-06-14T07:13:50Z</time>
      </trkpt>
      <trkpt lat="42.464019" lon="0.000148">
        <ele>657.1</ele>
        <time>2018-06-14T07:13:52Z</time>
      </trkpt>
      <trkpt lat="42.464022" lon="0.000047">
        <ele>657.0</ele>
        <time>2018-06-14T07:13:54Z</time>
      </trkpt>
      <trkpt lat="42.464035" lon="-0.000060">
        <ele>657.0</ele>
        <time>2018-06-14T07:13:56Z</time>
      </trkpt>
      <trkpt lat="42.464047" lon="-0.000178">
        <ele>656.8</ele>
        <time>2018-06-14T07:13:58Z</time>
      </trkpt>
      <trkpt lat="42.464050" lon="-0.000306">
        <ele>656.3</ele>
        <time>2018-06-14T07:14:01Z</time>
      </trkpt>
      <trkpt lat="42.464052" lon="-0.000441">
        <ele>655.9</ele>
        <time>2018-06-14T07:14:03Z</time>
      </trkpt>
      <trkpt lat="42.464054" lon="-0.000581">
        <ele>655.9</ele>
        <time>2018-06-14T07:14:06Z</time>
      </trkpt>
      <trkpt lat="42.464062" lon="-0.000715">
        <ele>655.7</ele>
        <time>2018-06-14T07:14:09Z</time>
      </trkpt>
      <trkpt lat="42.464074" lon="-0.000840">
        <ele>654.9</ele>
        <time>2018-06-14T07:14:11Z</time>
      </trkpt>
      <trkpt lat="42.464087" lon="-0.000955">
        <ele>654.1</ele>
        <time>2018-06-14T07:14:13Z</time>
      </trkpt>
      <trkpt lat="42.464105" lon="-0.001060">
        <ele>653.1</ele>
        <time>2018-06-14T07:14:16Z</time>
      </trkpt>
      <trkpt lat="42.464124" lon="-0.001156">
        <ele>652.0</ele>
        <time>2018-06-14T07:14:17Z</time>
      </trkpt>
      <trkpt lat="42.464142" lon="-0.001244">
        <ele>651.1</ele>
        <time>2018-06-14T07:14:19Z</time>
      </trkpt>
      <trkpt lat="42.464165" lon="-0.001323">
        <ele>650.2</ele>
        <time>2018-06-14T07:14:21Z</time>
      </trkpt>
      <trkpt lat="42.464195" lon="-0.001393">
        <ele>649.5</ele>
        <time>2018-06-14T07:14:23Z</time>
      </trkpt>
      <trkpt lat="42.464225" lon="-0.001456">
        <ele>648.8</ele>
        <time>2018-06-14T07:14:24Z</time>
      </trkpt>
      <trkpt lat="42.464259" lon="-0.001503">
        <ele>648.3</ele>
        <time>2018-06-14T07:14:25Z</time>
      </trkpt>
      <trkpt lat="42.464300" lon="-0.001534">
        <ele>648.0</ele>
        <time>2018-06-14T07:14:27Z</time>
      </trkpt>
      <trkpt lat="42.464352" lon="-0.001559">
        <ele>648.3</ele>
        <time>2018-06-14T07:14:28Z</time>
      </trkpt>
      <trkpt lat="42.464415" lon="-0.001573">
        <ele>648.8</ele>
        <time>2018-06-14T07:14:30Z</time>
      </trkpt>
      <trkpt lat="42.464485" lon="-0.001573">
        <ele>649.3</ele>
        <time>2018-06-14T07:14:32Z</time>
      </trkpt>
      <trkpt lat="42.464564" lon="-0.001563">
        <ele>649.9</ele>
        <time>2018-06-14T07:14:34Z</time>
      </trkpt>
      <trkpt lat="42.464639" lon="-0.001542">
        <ele>650.0</ele>
        <time>2018-06-14T07:14:36Z</time>
      </trkpt>
      <trkpt lat="42.464710" lon="-0.001524">
        <ele>650.0</ele>
        <time>2018-06-14T07:14:38Z</time>
      </trkpt>
      <trkpt lat="42.464784" lon="-0.001513">
        <ele>650.1</ele>
        <time>2018-06-14T07:14:40Z</time>
      </trkpt>
      <trkpt lat="42.464852" lon="-0.001501">
        <ele>650.1</ele>
        <time>2018-06-14T07:14:41Z</time>
      </trkpt>
      <trkpt lat="42.464919" lon="-0.001491">
        <ele>649.4</ele>
        <time>2018-06-14T07:14:43Z</time>
      </trkpt>
      <trkpt lat="42.464982" lon="-0.001481">
        <ele>648.6</ele>
        <time>2018-06-14T07:14:45Z</time>
      </trkpt>
      <trkpt lat="42.465044" lon="-0.001483">
        <ele>647.9</ele>
        <time>2018-06-14T07:14:47Z</time>
      </trkpt>
      <trkpt lat="42.465110" lon="-0.001482">
        <ele>647.0</ele>
        <time>2018-06-14T07:14:48Z</time>
      </trkpt>
      <trkpt lat="42.465142" lon="-0.001495">
        <ele>646.7</ele>
        <time>2018-06-14T07:14:49Z</time>
      </trkpt>
      <trkpt lat="42.465174" lon="-0.001519">
        <ele>646.6</ele>
        <time>2018-06-14T07:14:50Z</time>
      </trkpt>
      <trkpt lat="42.465203" lon="-0.001570">
        <ele>646.5</ele>
        <time>2018-06-14T07:14:51Z</time>
      </trkpt>
      <trkpt lat="42.465223" lon="-0.001662">
        <ele>646.7</ele>
        <time>2018-06-14T07:14:53Z</time>
      </trkpt>
      <trkpt lat="42.465235" lon="-0.001774">
        <ele>647.2</ele>
        <time>2018-06-14T07:14:56Z</time>
      </trkpt>
      <trkpt lat="42.465306" lon="-0.001882">
        <ele>647.6</ele>
        <time>2018-06-14T07:14:58Z</time>
      </trkpt>
      <trkpt lat="42.465409" lon="-0.002064">
        <ele>648.8</ele>
        <time>2018-06-14T07:15:03Z</time>
      </trkpt>
      <trkpt lat="42.465425" lon="-0.002115">
        <ele>649.0</ele>
        <time>2018-06-14T07:15:04Z</time>
      </trkpt>
      <trkpt lat="42.465429" lon="-0.002155">
        <ele>649.1</ele>
        <time>2018-06-14T07:15:05Z</time>
      </trkpt>
      <trkpt lat="42.465402" lon="-0.002196">
        <ele>649.5</ele>
        <time>2018-06-14T07:15:06Z</time>
      </trkpt>
      <trkpt lat="42.465225" lon="-0.002445">
        <ele>652.4</ele>
        <time>2018-06-14T07:15:13Z</time>
      </trkpt>
      <trkpt lat="42.465180" lon="-0.002515">
        <ele>653.1</ele>
        <time>2018-06-14T07:15:14Z</time>
      </trkpt>
      <trkpt lat="42.465185" lon="-0.002552">
        <ele>653.2</ele>
        <time>2018-06-14T07:15:15Z</time>
      </trkpt>
      <trkpt lat="42.465253" lon="-0.002635">
        <ele>652.8</ele>
        <time>2018-06-14T07:15:18Z</time>
      </trkpt>
      <trkpt lat="42.465411" lon="-0.002852">
        <ele>651.1</ele>
        <time>2018-06-14T07:15:24Z</time>
      </trkpt>
      <trkpt lat="42.465550" lon="-0.003102">
        <ele>649.1</ele>
        <time>2018-06-14T07:15:30Z</time>
      </trkpt>
      <trkpt lat="42.465561" lon="-0.003150">
        <ele>649.0</ele>
        <time>2018-06-14T07:15:31Z</time>
      </trkpt>
      <trkpt lat="42.465579" lon="-0.003228">
        <ele>648.8</ele>
        <time>2018-06-14T07:15:32Z</time>
      </trkpt>
      <trkpt lat="42.465560" lon="-0.003314">
        <ele>649.0</ele>
        <time>2018-06-14T07:15:34Z</time>
      </trkpt>
      <trkpt lat="42.465522" lon="-0.003376">
        <ele>649.2</ele>
        <time>2018-06-14T07:15:36Z</time>
      </trkpt>
      <trkpt lat="42.465492" lon="-0.003480">
        <ele>649.4</ele>
        <time>2018-06-14T07:15:38Z</time>
      </trkpt>
      <trkpt lat="42.465486" lon="-0.003595">
        <ele>649.2</ele>
        <time>2018-06-14T07:15:40Z</time>
      </trkpt>
      <trkpt lat="42.465471" lon="-0.003644">
        <ele>649.1</ele>
        <time>2018-06-14T07:15:41Z</time>
      </trkpt>
      <trkpt lat="42.465447" lon="-0.003692">
        <ele>649.1</ele>
        <time>2018-06-14T07:15:42Z</time>
      </trkpt>
      <trkpt lat="42.465364" lon="-0.003754">
        <ele>649.6</ele>
        <time>2018-06-14T07:15:45Z</time>
      </trkpt>
      <trkpt lat="42.465251" lon="-0.003818">
        <ele>651.1</ele>
        <time>2018-06-14T07:15:48Z</time>
      </trkpt>
      <trkpt lat="42.465154" lon="-0.003866">
        <ele>652.6</ele>
        <time>2018-06-14T07:15:51Z</time>
      </trkpt>
      <trkpt lat="42.465086" lon="-0.003923">
        <ele>653.9</ele>
        <time>2018-06-14T07:15:53Z</time>
      </trkpt>
      <trkpt lat="42.465039" lon="-0.003958">
        <ele>654.8</ele>
        <time>2018-06-14T07:15:54Z</time>
      </trkpt>
      <trkpt lat="42.464994" lon="-0.003995">
        <ele>655.8</ele>
        <time>2018-06-14T07:15:56Z</time>
      </trkpt>
      <trkpt lat="42.464946" lon="-0.004028">
        <ele>656.8</ele>
        <time>2018-06-14T07:15:57Z</time>
      </trkpt>
      <trkpt lat="42.464897" lon="-0.004061">
        <ele>657.8</ele>
        <time>2018-06-14T07:15:59Z</time>
      </trkpt>
      <trkpt lat="42.464840" lon="-0.004102">
        <ele>658.9</ele>
        <time>2018-06-14T07:16:00Z</time>
      </trkpt>
      <trkpt lat="42.464782" lon="-0.004149">
        <ele>659.7</ele>
        <time>2018-06-14T07:16:02Z</time>
      </trkpt>
      <trkpt lat="42.464722" lon="-0.004201">
        <ele>660.7</ele>
        <time>2018-06-14T07:16:04Z</time>
      </trkpt>
      <trkpt lat="42.464664" lon="-0.004253">
        <ele>661.7</ele>
        <time>2018-06-14T07:16:06Z</time>
      </trkpt>
      <trkpt lat="42.464604" lon="-0.004301">
        <ele>662.8</ele>
        <time>2018-06-14T07:16:08Z</time>
      </trkpt>
      <trkpt lat="42.464540" lon="-0.004343">
        <ele>663.5</ele>
        <time>2018-06-14T07:16:10Z</time>
      </trkpt>
      <trkpt lat="42.464485" lon="-0.004380">
        <ele>664.1</ele>
        <time>2018-06-14T07:16:11Z</time>
      </trkpt>
      <trkpt lat="42.464432" lon="-0.004408">
        <ele>664.5</ele>
        <time>2018-06-14T07:16:13Z</time>
      </trkpt>
      <trkpt lat="42.464384" lon="-0.004435">
        <ele>664.9</ele>
        <time>2018-06-14T07:16:14Z</time>
      </trkpt>
      <trkpt lat="42.464337" lon="-0.004471">
        <ele>665.4</ele>
        <time>2018-06-14T07:16:16Z</time>
      </trkpt>
      <trkpt lat="42.464297" lon="-0.004521">
        <ele>666.0</ele>
        <time>2018-06-14T07:16:17Z</time>
      </trkpt>
      <trkpt lat="42.464262" lon="-0.004583">
        <ele>666.5</ele>
        <time>2018-06-14T07:16:19Z</time>
      </trkpt>
      <trkpt lat="42.464232" lon="-0.004650">
        <ele>666.9</ele>
        <time>2018-06-14T07:16:20Z</time>
      </trkpt>
      <trkpt lat="42.464209" lon="-0.004720">
        <ele>667.6</ele>
        <time>2018-06-14T07:16:22Z</time>
      </trkpt>
      <trkpt lat="42.464187" lon="-0.004787">
        <ele>668.4</ele>
        <time>2018-06-14T07:16:23Z</time>
      </trkpt>
      <trkpt lat="42.464162" lon="-0.004856">
        <ele>669.4</ele>
        <time>2018-06-14T07:16:25Z</time>
      </trkpt>
      <trkpt lat="42.464137" lon="-0.004925">
        <ele>671.4</ele>
        <time>2018-06-14T07:16:26Z</time>
      </trkpt>
      <trkpt lat="42.464112" lon="-0.004990">
        <ele>673.5</ele>
        <time>2018-06-14T07:16:28Z</time>
      </trkpt>
      <trkpt lat="42.464100" lon="-0.005053">
        <ele>675.4</ele>
        <time>2018-06-14T07:16:29Z</time>
      </trkpt>
      <trkpt lat="42.464101" lon="-0.005113">
        <ele>677.2</ele>
        <time>2018-06-14T07:16:30Z</time>
      </trkpt>
      <trkpt lat="42.464163" lon="-0.005198">
        <ele>679.5</ele>
        <time>2018-06-14T07:16:33Z</time>
      </trkpt>
      <trkpt lat="42.464228" lon="-0.005210">
        <ele>678.9</ele>
        <time>2018-06-14T07:16:35Z</time>
      </trkpt>
      <trkpt lat="42.464300" lon="-0.005204">
        <ele>677.4</ele>
        <time>2018-06-14T07:16:37Z</time>
      </trkpt>
      <trkpt lat="42.464400" lon="-0.005263">
        <ele>677.7</ele>
        <time>2018-06-14T07:16:39Z</time>
      </trkpt>
      <trkpt lat="42.464487" lon="-0.005366">
        <ele>678.6</ele>
        <time>2018-06-14T07:16:43Z</time>
      </trkpt>
      <trkpt lat="42.464595" lon="-0.005550">
        <ele>679.8</ele>
        <time>2018-06-14T07:16:47Z</time>
      </trkpt>
      <trkpt lat="42.464650" lon="-0.005753">
        <ele>681.6</ele>
        <time>2018-06-14T07:16:51Z</time>
      </trkpt>
      <trkpt lat="42.464698" lon="-0.005914">
        <ele>681.7</ele>
        <time>2018-06-14T07:16:55Z</time>
      </trkpt>
      <trkpt lat="42.464766" lon="-0.006322">
        <ele>682.3</ele>
        <time>2018-06-14T07:17:03Z</time>
      </trkpt>
      <trkpt lat="42.464960" lon="-0.007019">
        <ele>679.0</ele>
        <time>2018-06-14T07:17:18Z</time>
      </trkpt>
      <trkpt lat="42.465100" lon="-0.007404">
        <ele>673.8</ele>
        <time>2018-06-14T07:17:26Z</time>
      </trkpt>
      <trkpt lat="42.465207" lon="-0.007992">
        <ele>678.0</ele>
        <time>2018-06-14T07:17:38Z</time>
      </trkpt>
      <trkpt lat="42.465242" lon="-0.008159">
        <ele>678.4</ele>
        <time>2018-06-14T07:17:41Z</time>
      </trkpt>
      <trkpt lat="42.465295" lon="-0.008268">
        <ele>676.5</ele>
        <time>2018-06-14T07:17:44Z</time>
      </trkpt>
      <trkpt lat="42.465393" lon="-0.008377">
        <ele>671.9</ele>
        <time>2018-06-14T07:17:47Z</time>
      </trkpt>
      <trkpt lat="42.465507" lon="-0.008581">
        <ele>671.8</ele>
        <time>2018-06-14T07:17:52Z</time>
      </trkpt>
      <trkpt lat="42.465658" lon="-0.008941">
        <ele>674.4</ele>
        <time>2018-06-14T07:18:01Z</time>
      </trkpt>
      <trkpt lat="42.465799" lon="-0.009361">
        <ele>679.9</ele>
        <time>2018-06-14T07:18:10Z</time>
      </trkpt>
      <trkpt lat="42.465868" lon="-0.009685">
        <ele>680.7</ele>
        <time>2018-06-14T07:18:16Z</time>
      </trkpt>
      <trkpt lat="42.466000" lon="-0.010128">
        <ele>677.9</ele>
        <time>2018-06-14T07:18:26Z</time>
      </trkpt>
      <trkpt lat="42.466081" lon="-0.010332">
        <ele>674.1</ele>
        <time>2018-06-14T07:18:30Z</time>
      </trkpt>
      <trkpt lat="42.466167" lon="-0.010461">
        <ele>668.4</ele>
        <time>2018-06-14T07:18:34Z</time>
      </trkpt>
      <trkpt lat="42.466259" lon="-0.010518">
        <ele>662.2</ele>
        <time>2018-06-14T07:18:37Z</time>
      </trkpt>
      <trkpt lat="42.466398" lon="-0.010531">
        <ele>659.5</ele>
        <time>2018-06-14T07:18:41Z</time>
      </trkpt>
      <trkpt lat="42.466557" lon="-0.010471">
        <ele>657.2</ele>
        <time>2018-06-14T07:18:45Z</time>
      </trkpt>
      <trkpt lat="42.466646" lon="-0.010446">
        <ele>657.8</ele>
        <time>2018-06-14T07:18:48Z</time>
      </trkpt>
      <trkpt lat="42.466716" lon="-0.010421">
        <ele>658.3</ele>
        <time>2018-06-14T07:18:50Z</time>
      </trkpt>
      <trkpt lat="42.466786" lon="-0.010465">
        <ele>658.7</ele>
        <time>2018-06-14T07:18:52Z</time>
      </trkpt>
      <trkpt lat="42.466811" lon="-0.010582">
        <ele>658.5</ele>
        <time>2018-06-14T07:18:54Z</time>
      </trkpt>
      <trkpt lat="42.466809" lon="-0.010710">
        <ele>658.2</ele>
        <time>2018-06-14T07:18:57Z</time>
      </trkpt>
      <trkpt lat="42.466798" lon="-0.010841">
        <ele>659.1</ele>
        <time>2018-06-14T07:18:59Z</time>
      </trkpt>
      <trkpt lat="42.466772" lon="-0.010947">
        <ele>659.9</ele>
        <time>2018-06-14T07:19:01Z</time>
      </trkpt>
      <trkpt lat="42.466710" lon="-0.010994">
        <ele>660.7</ele>
        <time>2018-06-14T07:19:03Z</time>
      </trkpt>
      <trkpt lat="42.466613" lon="-0.010993">
        <ele>661.0</ele>
        <time>2018-06-14T07:19:06Z</time>
      </trkpt>
      <trkpt lat="42.466516" lon="-0.010993">
        <ele>661.4</ele>
        <time>2018-06-14T07:19:08Z</time>
      </trkpt>
      <trkpt lat="42.466446" lon="-0.011003">
        <ele>662.2</ele>
        <time>2018-06-14T07:19:10Z</time>
      </trkpt>
      <trkpt lat="42.466384" lon="-0.011039">
        <ele>663.1</ele>
        <time>2018-06-14T07:19:12Z</time>
      </trkpt>
      <trkpt lat="42.466367" lon="-0.011120">
        <ele>663.9</ele>
        <time>2018-06-14T07:19:14Z</time>
      </trkpt>
      <trkpt lat="42.466411" lon="-0.011213">
        <ele>664.6</ele>
        <time>2018-06-14T07:19:16Z</time>
      </trkpt>
      <trkpt lat="42.466499" lon="-0.011238">
        <ele>664.8</ele>
        <time>2018-06-14T07:19:18Z</time>
      </trkpt>
      <trkpt lat="42.466684" lon="-0.011273">
        <ele>664.7</ele>
        <time>2018-06-14T07:19:23Z</time>
      </trkpt>
      <trkpt lat="42.466816" lon="-0.011343">
        <ele>665.3</ele>
        <time>2018-06-14T07:19:27Z</time>
      </trkpt>
      <trkpt lat="42.466886" lon="-0.011438">
        <ele>666.0</ele>
        <time>2018-06-14T07:19:30Z</time>
      </trkpt>
      <trkpt lat="42.466930" lon="-0.011579">
        <ele>667.4</ele>
        <time>2018-06-14T07:19:33Z</time>
      </trkpt>
      <trkpt lat="42.466955" lon="-0.011804">
        <ele>670.4</ele>
        <time>2018-06-14T07:19:37Z</time>
      </trkpt>
      <trkpt lat="42.466991" lon="-0.011945">
        <ele>673.2</ele>
        <time>2018-06-14T07:19:40Z</time>
      </trkpt>
      <trkpt lat="42.467023" lon="-0.012053">
        <ele>675.5</ele>
        <time>2018-06-14T07:19:42Z</time>
      </trkpt>
      <trkpt lat="42.467079" lon="-0.012090">
        <ele>676.2</ele>
        <time>2018-06-14T07:19:44Z</time>
      </trkpt>
      <trkpt lat="42.467227" lon="-0.012115">
        <ele>675.7</ele>
        <time>2018-06-14T07:19:48Z</time>
      </trkpt>
      <trkpt lat="42.467472" lon="-0.012264">
        <ele>676.6</ele>
        <time>2018-06-14T07:19:55Z</time>
      </trkpt>
      <trkpt lat="42.467604" lon="-0.012384">
        <ele>676.7</ele>
        <time>2018-06-14T07:19:59Z</time>
      </trkpt>
      <trkpt lat="42.467710" lon="-0.012517">
        <ele>675.3</ele>
        <time>2018-06-14T07:20:03Z</time>
      </trkpt>
      <trkpt lat="42.467841" lon="-0.012729">
        <ele>673.6</ele>
        <time>2018-06-14T07:20:09Z</time>
      </trkpt>
      <trkpt lat="42.468130" lon="-0.013372">
        <ele>675.0</ele>
        <time>2018-06-14T07:20:23Z</time>
      </trkpt>
      <trkpt lat="42.468472" lon="-0.014010">
        <ele>678.5</ele>
        <time>2018-06-14T07:20:39Z</time>
      </trkpt>
      <trkpt lat="42.468953" lon="-0.015049">
        <ele>684.1</ele>
        <time>2018-06-14T07:21:03Z</time>
      </trkpt>
      <trkpt lat="42.469049" lon="-0.015279">
        <ele>683.3</ele>
        <time>2018-06-14T07:21:08Z</time>
      </trkpt>
      <trkpt lat="42.469096" lon="-0.015507">
        <ele>682.6</ele>
        <time>2018-06-14T07:21:13Z</time>
      </trkpt>
      <trkpt lat="42.469157" lon="-0.015849">
        <ele>679.6</ele>
        <time>2018-06-14T07:21:20Z</time>
      </trkpt>
      <trkpt lat="42.469181" lon="-0.016077">
        <ele>677.7</ele>
        <time>2018-06-14T07:21:24Z</time>
      </trkpt>
      <trkpt lat="42.469181" lon="-0.016255">
        <ele>677.1</ele>
        <time>2018-06-14T07:21:28Z</time>
      </trkpt>
      <trkpt lat="42.469132" lon="-0.016659">
        <ele>681.1</ele>
        <time>2018-06-14T07:21:36Z</time>
      </trkpt>
      <trkpt lat="42.469130" lon="-0.017048">
        <ele>680.3</ele>
        <time>2018-06-14T07:21:43Z</time>
      </trkpt>
      <trkpt lat="42.469167" lon="-0.017436">
        <ele>674.7</ele>
        <time>2018-06-14T07:21:51Z</time>
      </trkpt>
      <trkpt lat="42.469287" lon="-0.017826">
        <ele>671.2</ele>
        <time>2018-06-14T07:21:59Z</time>
      </trkpt>
      <trkpt lat="42.469324" lon="-0.018188">
        <ele>671.6</ele>
        <time>2018-06-14T07:22:07Z</time>
      </trkpt>
      <trkpt lat="42.469316" lon="-0.018474">
        <ele>673.7</ele>
        <time>2018-06-14T07:22:12Z</time>
      </trkpt>
      <trkpt lat="42.469288" lon="-0.018841">
        <ele>676.7</ele>
        <time>2018-06-14T07:22:19Z</time>
      </trkpt>
      <trkpt lat="42.469260" lon="-0.019226">
        <ele>681.4</ele>
        <time>2018-06-14T07:22:27Z</time>
      </trkpt>
      <trkpt lat="42.469284" lon="-0.019662">
        <ele>682.1</ele>
        <time>2018-06-14T07:22:36Z</time>
      </trkpt>
      <trkpt lat="42.469331" lon="-0.020131">
        <ele>684.2</ele>
        <time>2018-06-14T07:22:45Z</time>
      </trkpt>
      <trkpt lat="42.469342" lon="-0.020630">
        <ele>689.7</ele>
        <time>2018-06-14T07:22:55Z</time>
      </trkpt>
      <trkpt lat="42.469436" lon="-0.021098">
        <ele>689.9</ele>
        <time>2018-06-14T07:23:04Z</time>
      </trkpt>
      <trkpt lat="42.469533" lon="-0.021359">
        <ele>686.8</ele>
        <time>2018-06-14T07:23:10Z</time>
      </trkpt>
      <trkpt lat="42.469568" lon="-0.021554">
        <ele>686.8</ele>
        <time>2018-06-14T07:23:14Z</time>
      </trkpt>
      <trkpt lat="42.469580" lon="-0.021748">
        <ele>686.9</ele>
        <time>2018-06-14T07:23:18Z</time>
      </trkpt>
      <trkpt lat="42.469626" lon="-0.022261">
        <ele>687.0</ele>
        <time>2018-06-14T07:23:28Z</time>
      </trkpt>
      <trkpt lat="42.469924" lon="-0.023373">
        <ele>690.0</ele>
        <time>2018-06-14T07:23:51Z</time>
      </trkpt>
      <trkpt lat="42.470067" lon="-0.023743">
        <ele>687.0</ele>
        <time>2018-06-14T07:23:59Z</time>
      </trkpt>
      <trkpt lat="42.472213" lon="-0.027594">
        <ele>674.1</ele>
        <time>2018-06-14T07:25:34Z</time>
      </trkpt>
      <trkpt lat="42.472314" lon="-0.027812">
        <ele>676.4</ele>
        <time>2018-06-14T07:25:39Z</time>
      </trkpt>
      <trkpt lat="42.472362" lon="-0.027904">
        <ele>677.9</ele>
        <time>2018-06-14T07:25:41Z</time>
      </trkpt>
      <trkpt lat="42.472362" lon="-0.027977">
        <ele>677.6</ele>
        <time>2018-06-14T07:25:42Z</time>
      </trkpt>
      <trkpt lat="42.472355" lon="-0.028087">
        <ele>676.7</ele>
        <time>2018-06-14T07:25:45Z</time>
      </trkpt>
      <trkpt lat="42.472353" lon="-0.028178">
        <ele>676.1</ele>
        <time>2018-06-14T07:25:46Z</time>
      </trkpt>
      <trkpt lat="42.472368" lon="-0.028260">
        <ele>676.6</ele>
        <time>2018-06-14T07:25:48Z</time>
      </trkpt>
      <trkpt lat="42.472360" lon="-0.028324">
        <ele>676.9</ele>
        <time>2018-06-14T07:25:49Z</time>
      </trkpt>
      <trkpt lat="42.472340" lon="-0.028424">
        <ele>677.4</ele>
        <time>2018-06-14T07:25:51Z</time>
      </trkpt>
      <trkpt lat="42.472293" lon="-0.028469">
        <ele>677.2</ele>
        <time>2018-06-14T07:25:53Z</time>
      </trkpt>
      <trkpt lat="42.472246" lon="-0.028471">
        <ele>676.8</ele>
        <time>2018-06-14T07:25:54Z</time>
      </trkpt>
      <trkpt lat="42.472185" lon="-0.028462">
        <ele>676.1</ele>
        <time>2018-06-14T07:25:56Z</time>
      </trkpt>
      <trkpt lat="42.472097" lon="-0.028417">
        <ele>674.9</ele>
        <time>2018-06-14T07:25:58Z</time>
      </trkpt>
      <trkpt lat="42.471935" lon="-0.028279">
        <ele>674.7</ele>
        <time>2018-06-14T07:26:03Z</time>
      </trkpt>
      <trkpt lat="42.471596" lon="-0.027993">
        <ele>673.7</ele>
        <time>2018-06-14T07:26:14Z</time>
      </trkpt>
      <trkpt lat="42.471362" lon="-0.027780">
        <ele>673.5</ele>
        <time>2018-06-14T07:26:21Z</time>
      </trkpt>
      <trkpt lat="42.471199" lon="-0.027668">
        <ele>674.3</ele>
        <time>2018-06-14T07:26:26Z</time>
      </trkpt>
      <trkpt lat="42.471003" lon="-0.027547">
        <ele>677.3</ele>
        <time>2018-06-14T07:26:32Z</time>
      </trkpt>
      <trkpt lat="42.470841" lon="-0.027489">
        <ele>681.3</ele>
        <time>2018-06-14T07:26:37Z</time>
      </trkpt>
      <trkpt lat="42.470700" lon="-0.027470">
        <ele>684.5</ele>
        <time>2018-06-14T07:26:40Z</time>
      </trkpt>
      <trkpt lat="42.470512" lon="-0.027449">
        <ele>689.4</ele>
        <time>2018-06-14T07:26:45Z</time>
      </trkpt>
      <trkpt lat="42.470304" lon="-0.027428">
        <ele>695.5</ele>
        <time>2018-06-14T07:26:51Z</time>
      </trkpt>
      <trkpt lat="42.469950" lon="-0.027422">
        <ele>705.8</ele>
        <time>2018-06-14T07:27:01Z</time>
      </trkpt>
      <trkpt lat="42.469671" lon="-0.027499">
        <ele>711.5</ele>
        <time>2018-06-14T07:27:09Z</time>
      </trkpt>
      <trkpt lat="42.469358" lon="-0.027589">
        <ele>720.1</ele>
        <time>2018-06-14T07:27:17Z</time>
      </trkpt>
      <trkpt lat="42.469194" lon="-0.027705">
        <ele>722.2</ele>
        <time>2018-06-14T07:27:22Z</time>
      </trkpt>
      <trkpt lat="42.468762" lon="-0.028357">
        <ele>725.4</ele>
        <time>2018-06-14T07:27:39Z</time>
      </trkpt>
      <trkpt lat="42.468508" lon="-0.028772">
        <ele>727.6</ele>
        <time>2018-06-14T07:27:50Z</time>
      </trkpt>
      <trkpt lat="42.468055" lon="-0.029332">
        <ele>730.0</ele>
        <time>2018-06-14T07:28:06Z</time>
      </trkpt>
      <trkpt lat="42.467855" lon="-0.029550">
        <ele>727.6</ele>
        <time>2018-06-14T07:28:13Z</time>
      </trkpt>
      <trkpt lat="42.467802" lon="-0.029690">
        <ele>725.7</ele>
        <time>2018-06-14T07:28:16Z</time>
      </trkpt>
      <trkpt lat="42.467785" lon="-0.029902">
        <ele>724.6</ele>
        <time>2018-06-14T07:28:20Z</time>
      </trkpt>
      <trkpt lat="42.467766" lon="-0.030278">
        <ele>725.0</ele>
        <time>2018-06-14T07:28:28Z</time>
      </trkpt>
      <trkpt lat="42.467768" lon="-0.031076">
        <ele>729.1</ele>
        <time>2018-06-14T07:28:43Z</time>
      </trkpt>
      <trkpt lat="42.467755" lon="-0.031352">
        <ele>730.3</ele>
        <time>2018-06-14T07:28:49Z</time>
      </trkpt>
      <trkpt lat="42.467756" lon="-0.031523">
        <ele>730.6</ele>
        <time>2018-06-14T07:28:52Z</time>
      </trkpt>
      <trkpt lat="42.467672" lon="-0.031994">
        <ele>730.3</ele>
        <time>2018-06-14T07:29:02Z</time>
      </trkpt>
      <trkpt lat="42.467589" lon="-0.032531">
        <ele>729.3</ele>
        <time>2018-06-14T07:29:12Z</time>
      </trkpt>
      <trkpt lat="42.467579" lon="-0.032957">
        <ele>726.3</ele>
        <time>2018-06-14T07:29:21Z</time>
      </trkpt>
      <trkpt lat="42.467569" lon="-0.033328">
        <ele>723.0</ele>
        <time>2018-06-14T07:29:28Z</time>
      </trkpt>
      <trkpt lat="42.467533" lon="-0.033565">
        <ele>720.8</ele>
        <time>2018-06-14T07:29:33Z</time>
      </trkpt>
      <trkpt lat="42.467421" lon="-0.033780">
        <ele>718.3</ele>
        <time>2018-06-14T07:29:38Z</time>
      </trkpt>
      <trkpt lat="42.467311" lon="-0.033960">
        <ele>717.1</ele>
        <time>2018-06-14T07:29:43Z</time>
      </trkpt>
      <trkpt lat="42.467286" lon="-0.034039">
        <ele>716.8</ele>
        <time>2018-06-14T07:29:44Z</time>
      </trkpt>
      <trkpt lat="42.467268" lon="-0.034136">
        <ele>717.2</ele>
        <time>2018-06-14T07:29:46Z</time>
      </trkpt>
      <trkpt lat="42.467282" lon="-0.034277">
        <ele>717.9</ele>
        <time>2018-06-14T07:29:49Z</time>
      </trkpt>
      <trkpt lat="42.467319" lon="-0.034365">
        <ele>718.5</ele>
        <time>2018-06-14T07:29:51Z</time>
      </trkpt>
      <trkpt lat="42.467405" lon="-0.034473">
        <ele>719.6</ele>
        <time>2018-06-14T07:29:54Z</time>
      </trkpt>
      <trkpt lat="42.467780" lon="-0.034835">
        <ele>723.0</ele>
        <time>2018-06-14T07:30:06Z</time>
      </trkpt>
      <trkpt lat="42.467848" lon="-0.034919">
        <ele>723.2</ele>
        <time>2018-06-14T07:30:09Z</time>
      </trkpt>
      <trkpt lat="42.467900" lon="-0.034995">
        <ele>723.1</ele>
        <time>2018-06-14T07:30:11Z</time>
      </trkpt>
      <trkpt lat="42.467926" lon="-0.035070">
        <ele>723.1</ele>
        <time>2018-06-14T07:30:12Z</time>
      </trkpt>
      <trkpt lat="42.467922" lon="-0.035156">
        <ele>723.3</ele>
        <time>2018-06-14T07:30:14Z</time>
      </trkpt>
      <trkpt lat="42.467884" lon="-0.035220">
        <ele>724.2</ele>
        <time>2018-06-14T07:30:16Z</time>
      </trkpt>
      <trkpt lat="42.467805" lon="-0.035327">
        <ele>726.0</ele>
        <time>2018-06-14T07:30:19Z</time>
      </trkpt>
      <trkpt lat="42.467516" lon="-0.035717">
        <ele>730.6</ele>
        <time>2018-06-14T07:30:30Z</time>
      </trkpt>
      <trkpt lat="42.467286" lon="-0.036062">
        <ele>731.4</ele>
        <time>2018-06-14T07:30:39Z</time>
      </trkpt>
      <trkpt lat="42.467081" lon="-0.036534">
        <ele>736.0</ele>
        <time>2018-06-14T07:30:49Z</time>
      </trkpt>
      <trkpt lat="42.466844" lon="-0.037094">
        <ele>737.8</ele>
        <time>2018-06-14T07:31:02Z</time>
      </trkpt>
      <trkpt lat="42.466706" lon="-0.037308">
        <ele>740.3</ele>
        <time>2018-06-14T07:31:08Z</time>
      </trkpt>
      <trkpt lat="42.466463" lon="-0.037681">
        <ele>744.0</ele>
        <time>2018-06-14T07:31:17Z</time>
      </trkpt>
      <trkpt lat="42.466201" lon="-0.038056">
        <ele>747.1</ele>
        <time>2018-06-14T07:31:28Z</time>
      </trkpt>
      <trkpt lat="42.465892" lon="-0.038371">
        <ele>745.3</ele>
        <time>2018-06-14T07:31:38Z</time>
      </trkpt>
      <trkpt lat="42.465754" lon="-0.038508">
        <ele>745.7</ele>
        <time>2018-06-14T07:31:42Z</time>
      </trkpt>
      <trkpt lat="42.465724" lon="-0.038553">
        <ele>745.6</ele>
        <time>2018-06-14T07:31:44Z</time>
      </trkpt>
      <trkpt lat="42.465713" lon="-0.038615">
        <ele>745.4</ele>
        <time>2018-06-14T07:31:45Z</time>
      </trkpt>
      <trkpt lat="42.465736" lon="-0.038703">
        <ele>745.0</ele>
        <time>2018-06-14T07:31:47Z</time>
      </trkpt>
      <trkpt lat="42.465811" lon="-0.038797">
        <ele>744.5</ele>
        <time>2018-06-14T07:31:49Z</time>
      </trkpt>
      <trkpt lat="42.466433" lon="-0.039561">
        <ele>737.4</ele>
        <time>2018-06-14T07:32:12Z</time>
      </trkpt>
      <trkpt lat="42.466747" lon="-0.039918">
        <ele>733.3</ele>
        <time>2018-06-14T07:32:23Z</time>
      </trkpt>
      <trkpt lat="42.466932" lon="-0.040136">
        <ele>731.0</ele>
        <time>2018-06-14T07:32:29Z</time>
      </trkpt>
      <trkpt lat="42.467076" lon="-0.040429">
        <ele>729.1</ele>
        <time>2018-06-14T07:32:36Z</time>
      </trkpt>
      <trkpt lat="42.467205" lon="-0.040685">
        <ele>730.5</ele>
        <time>2018-06-14T07:32:42Z</time>
      </trkpt>
      <trkpt lat="42.467435" lon="-0.040894">
        <ele>729.9</ele>
        <time>2018-06-14T07:32:49Z</time>
      </trkpt>
      <trkpt lat="42.467924" lon="-0.041211">
        <ele>727.0</ele>
        <time>2018-06-14T07:33:04Z</time>
      </trkpt>
      <trkpt lat="42.468407" lon="-0.041479">
        <ele>726.3</ele>
        <time>2018-06-14T07:33:18Z</time>
      </trkpt>
      <trkpt lat="42.468537" lon="-0.041562">
        <ele>726.5</ele>
        <time>2018-06-14T07:33:22Z</time>
      </trkpt>
      <trkpt lat="42.468696" lon="-0.041590">
        <ele>727.5</ele>
        <time>2018-06-14T07:33:26Z</time>
      </trkpt>
      <trkpt lat="42.468840" lon="-0.041697">
        <ele>727.7</ele>
        <time>2018-06-14T07:33:30Z</time>
      </trkpt>
      <trkpt lat="42.468942" lon="-0.041842">
        <ele>727.6</ele>
        <time>2018-06-14T07:33:34Z</time>
      </trkpt>
      <trkpt lat="42.469175" lon="-0.041957">
        <ele>725.8</ele>
        <time>2018-06-14T07:33:41Z</time>
      </trkpt>
      <trkpt lat="42.469381" lon="-0.041989">
        <ele>723.1</ele>
        <time>2018-06-14T07:33:46Z</time>
      </trkpt>
      <trkpt lat="42.469548" lon="-0.041980">
        <ele>721.9</ele>
        <time>2018-06-14T07:33:51Z</time>
      </trkpt>
      <trkpt lat="42.469702" lon="-0.041967">
        <ele>720.5</ele>
        <time>2018-06-14T07:33:55Z</time>
      </trkpt>
      <trkpt lat="42.469849" lon="-0.041869">
        <ele>720.8</ele>
        <time>2018-06-14T07:33:59Z</time>
      </trkpt>
      <trkpt lat="42.469973" lon="-0.041703">
        <ele>722.1</ele>
        <time>2018-06-14T07:34:04Z</time>
      </trkpt>
      <trkpt lat="42.470162" lon="-0.041442">
        <ele>721.4</ele>
        <time>2018-06-14T07:34:11Z</time>
      </trkpt>
      <trkpt lat="42.470224" lon="-0.041312">
        <ele>721.1</ele>
        <time>2018-06-14T07:34:14Z</time>
      </trkpt>
      <trkpt lat="42.470268" lon="-0.041266">
        <ele>720.2</ele>
        <time>2018-06-14T07:34:15Z</time>
      </trkpt>
      <trkpt lat="42.470347" lon="-0.041258">
        <ele>718.0</ele>
        <time>2018-06-14T07:34:18Z</time>
      </trkpt>
      <trkpt lat="42.470436" lon="-0.041309">
        <ele>715.4</ele>
        <time>2018-06-14T07:34:20Z</time>
      </trkpt>
      <trkpt lat="42.470516" lon="-0.041430">
        <ele>713.2</ele>
        <time>2018-06-14T07:34:23Z</time>
      </trkpt>
      <trkpt lat="42.470587" lon="-0.041586">
        <ele>711.1</ele>
        <time>2018-06-14T07:34:27Z</time>
      </trkpt>
      <trkpt lat="42.470649" lon="-0.041720">
        <ele>708.5</ele>
        <time>2018-06-14T07:34:30Z</time>
      </trkpt>
      <trkpt lat="42.470694" lon="-0.041887">
        <ele>705.2</ele>
        <time>2018-06-14T07:34:34Z</time>
      </trkpt>
      <trkpt lat="42.470685" lon="-0.042031">
        <ele>702.3</ele>
        <time>2018-06-14T07:34:37Z</time>
      </trkpt>
      <trkpt lat="42.470658" lon="-0.042126">
        <ele>700.6</ele>
        <time>2018-06-14T07:34:39Z</time>
      </trkpt>
      <trkpt lat="42.470596" lon="-0.042304">
        <ele>697.4</ele>
        <time>2018-06-14T07:34:43Z</time>
      </trkpt>
      <trkpt lat="42.470497" lon="-0.042408">
        <ele>696.5</ele>
        <time>2018-06-14T07:34:46Z</time>
      </trkpt>
      <trkpt lat="42.470409" lon="-0.042476">
        <ele>696.5</ele>
        <time>2018-06-14T07:34:49Z</time>
      </trkpt>
      <trkpt lat="42.470015" lon="-0.042838">
        <ele>703.2</ele>
        <time>2018-06-14T07:35:01Z</time>
      </trkpt>
      <trkpt lat="42.469963" lon="-0.042954">
        <ele>704.7</ele>
        <time>2018-06-14T07:35:04Z</time>
      </trkpt>
      <trkpt lat="42.469946" lon="-0.043106">
        <ele>705.5</ele>
        <time>2018-06-14T07:35:07Z</time>
      </trkpt>
      <trkpt lat="42.469964" lon="-0.043283">
        <ele>704.2</ele>
        <time>2018-06-14T07:35:11Z</time>
      </trkpt>
      <trkpt lat="42.470025" lon="-0.043474">
        <ele>700.7</ele>
        <time>2018-06-14T07:35:15Z</time>
      </trkpt>
      <trkpt lat="42.470311" lon="-0.043853">
        <ele>700.2</ele>
        <time>2018-06-14T07:35:25Z</time>
      </trkpt>
      <trkpt lat="42.470491" lon="-0.044127">
        <ele>703.3</ele>
        <time>2018-06-14T07:35:33Z</time>
      </trkpt>
      <trkpt lat="42.470746" lon="-0.044459">
        <ele>705.2</ele>
        <time>2018-06-14T07:35:42Z</time>
      </trkpt>
      <trkpt lat="42.470932" lon="-0.044767">
        <ele>701.4</ele>
        <time>2018-06-14T07:35:50Z</time>
      </trkpt>
      <trkpt lat="42.471133" lon="-0.045132">
        <ele>698.1</ele>
        <time>2018-06-14T07:35:59Z</time>
      </trkpt>
      <trkpt lat="42.471364" lon="-0.045706">
        <ele>698.0</ele>
        <time>2018-06-14T07:36:12Z</time>
      </trkpt>
      <trkpt lat="42.471556" lon="-0.046119">
        <ele>697.8</ele>
        <time>2018-06-14T07:36:21Z</time>
      </trkpt>
      <trkpt lat="42.471720" lon="-0.046432">
        <ele>698.5</ele>
        <time>2018-06-14T07:36:29Z</time>
      </trkpt>
      <trkpt lat="42.471832" lon="-0.046815">
        <ele>703.4</ele>
        <time>2018-06-14T07:36:37Z</time>
      </trkpt>
      <trkpt lat="42.471876" lon="-0.047021">
        <ele>705.7</ele>
        <time>2018-06-14T07:36:41Z</time>
      </trkpt>
      <trkpt lat="42.471886" lon="-0.047190">
        <ele>707.2</ele>
        <time>2018-06-14T07:36:44Z</time>
      </trkpt>
      <trkpt lat="42.471917" lon="-0.047331">
        <ele>708.4</ele>
        <time>2018-06-14T07:36:47Z</time>
      </trkpt>
      <trkpt lat="42.471968" lon="-0.047500">
        <ele>709.4</ele>
        <time>2018-06-14T07:36:51Z</time>
      </trkpt>
      <trkpt lat="42.472040" lon="-0.047571">
        <ele>709.7</ele>
        <time>2018-06-14T07:36:53Z</time>
      </trkpt>
      <trkpt lat="42.472133" lon="-0.047655">
        <ele>709.3</ele>
        <time>2018-06-14T07:36:56Z</time>
      </trkpt>
      <trkpt lat="42.472216" lon="-0.047782">
        <ele>707.5</ele>
        <time>2018-06-14T07:36:59Z</time>
      </trkpt>
      <trkpt lat="42.472258" lon="-0.048019">
        <ele>705.2</ele>
        <time>2018-06-14T07:37:04Z</time>
      </trkpt>
      <trkpt lat="42.472279" lon="-0.048621">
        <ele>701.0</ele>
        <time>2018-06-14T07:37:16Z</time>
      </trkpt>
      <trkpt lat="42.472326" lon="-0.049029">
        <ele>699.5</ele>
        <time>2018-06-14T07:37:24Z</time>
      </trkpt>
      <trkpt lat="42.472335" lon="-0.049368">
        <ele>698.5</ele>
        <time>2018-06-14T07:37:31Z</time>
      </trkpt>
      <trkpt lat="42.472237" lon="-0.049627">
        <ele>697.0</ele>
        <time>2018-06-14T07:37:36Z</time>
      </trkpt>
      <trkpt lat="42.472146" lon="-0.049946">
        <ele>696.4</ele>
        <time>2018-06-14T07:37:43Z</time>
      </trkpt>
      <trkpt lat="42.472062" lon="-0.050269">
        <ele>696.1</ele>
        <time>2018-06-14T07:37:50Z</time>
      </trkpt>
      <trkpt lat="42.472014" lon="-0.050464">
        <ele>694.8</ele>
        <time>2018-06-14T07:37:54Z</time>
      </trkpt>
      <trkpt lat="42.471995" lon="-0.050674">
        <ele>692.8</ele>
        <time>2018-06-14T07:37:58Z</time>
      </trkpt>
      <trkpt lat="42.472003" lon="-0.050847">
        <ele>692.0</ele>
        <time>2018-06-14T07:38:01Z</time>
      </trkpt>
      <trkpt lat="42.472062" lon="-0.050960">
        <ele>691.2</ele>
        <time>2018-06-14T07:38:04Z</time>
      </trkpt>
      <trkpt lat="42.472145" lon="-0.051044">
        <ele>690.1</ele>
        <time>2018-06-14T07:38:07Z</time>
      </trkpt>
      <trkpt lat="42.472247" lon="-0.051129">
        <ele>688.7</ele>
        <time>2018-06-14T07:38:10Z</time>
      </trkpt>
      <trkpt lat="42.472319" lon="-0.051227">
        <ele>687.5</ele>
        <time>2018-06-14T07:38:13Z</time>
      </trkpt>
      <trkpt lat="42.472370" lon="-0.051354">
        <ele>686.9</ele>
        <time>2018-06-14T07:38:16Z</time>
      </trkpt>
      <trkpt lat="42.472401" lon="-0.051494">
        <ele>686.5</ele>
        <time>2018-06-14T07:38:19Z</time>
      </trkpt>
      <trkpt lat="42.472377" lon="-0.051791">
        <ele>686.0</ele>
        <time>2018-06-14T07:38:24Z</time>
      </trkpt>
      <trkpt lat="42.472381" lon="-0.052115">
        <ele>685.9</ele>
        <time>2018-06-14T07:38:31Z</time>
      </trkpt>
      <trkpt lat="42.472429" lon="-0.052439">
        <ele>686.5</ele>
        <time>2018-06-14T07:38:37Z</time>
      </trkpt>
      <trkpt lat="42.472433" lon="-0.052663">
        <ele>687.8</ele>
        <time>2018-06-14T07:38:42Z</time>
      </trkpt>
      <trkpt lat="42.472384" lon="-0.053722">
        <ele>687.1</ele>
        <time>2018-06-14T07:39:02Z</time>
      </trkpt>
      <trkpt lat="42.472375" lon="-0.054430">
        <ele>686.0</ele>
        <time>2018-06-14T07:39:16Z</time>
      </trkpt>
      <trkpt lat="42.472427" lon="-0.054737">
        <ele>686.6</ele>
        <time>2018-06-14T07:39:22Z</time>
      </trkpt>
      <trkpt lat="42.472418" lon="-0.055040">
        <ele>687.8</ele>
        <time>2018-06-14T07:39:28Z</time>
      </trkpt>
      <trkpt lat="42.472396" lon="-0.055359">
        <ele>687.4</ele>
        <time>2018-06-14T07:39:35Z</time>
      </trkpt>
      <trkpt lat="42.472431" lon="-0.055783">
        <ele>686.9</ele>
        <time>2018-06-14T07:39:43Z</time>
      </trkpt>
      <trkpt lat="42.472517" lon="-0.056345">
        <ele>687.4</ele>
        <time>2018-06-14T07:39:54Z</time>
      </trkpt>
      <trkpt lat="42.472550" lon="-0.056759">
        <ele>688.2</ele>
        <time>2018-06-14T07:40:02Z</time>
      </trkpt>
      <trkpt lat="42.472531" lon="-0.057006">
        <ele>690.1</ele>
        <time>2018-06-14T07:40:07Z</time>
      </trkpt>
      <trkpt lat="42.472502" lon="-0.057389">
        <ele>693.1</ele>
        <time>2018-06-14T07:40:15Z</time>
      </trkpt>
      <trkpt lat="42.472514" lon="-0.057649">
        <ele>693.8</ele>
        <time>2018-06-14T07:40:20Z</time>
      </trkpt>
      <trkpt lat="42.472614" lon="-0.058053">
        <ele>692.3</ele>
        <time>2018-06-14T07:40:28Z</time>
      </trkpt>
      <trkpt lat="42.472721" lon="-0.058514">
        <ele>691.1</ele>
        <time>2018-06-14T07:40:38Z</time>
      </trkpt>
      <trkpt lat="42.472740" lon="-0.058879">
        <ele>691.4</ele>
        <time>2018-06-14T07:40:45Z</time>
      </trkpt>
      <trkpt lat="42.472754" lon="-0.059410">
        <ele>694.3</ele>
        <time>2018-06-14T07:40:55Z</time>
      </trkpt>
      <trkpt lat="42.472754" lon="-0.060297">
        <ele>693.2</ele>
        <time>2018-06-14T07:41:13Z</time>
      </trkpt>
      <trkpt lat="42.472805" lon="-0.061128">
        <ele>690.7</ele>
        <time>2018-06-14T07:41:29Z</time>
      </trkpt>
      <trkpt lat="42.472805" lon="-0.061889">
        <ele>692.8</ele>
        <time>2018-06-14T07:41:44Z</time>
      </trkpt>
      <trkpt lat="42.472837" lon="-0.062149">
        <ele>694.3</ele>
        <time>2018-06-14T07:41:49Z</time>
      </trkpt>
      <trkpt lat="42.472969" lon="-0.062838">
        <ele>696.4</ele>
        <time>2018-06-14T07:42:03Z</time>
      </trkpt>
      <trkpt lat="42.473120" lon="-0.063493">
        <ele>696.0</ele>
        <time>2018-06-14T07:42:16Z</time>
      </trkpt>
      <trkpt lat="42.473238" lon="-0.064022">
        <ele>697.0</ele>
        <time>2018-06-14T07:42:27Z</time>
      </trkpt>
      <trkpt lat="42.473270" lon="-0.064270">
        <ele>697.6</ele>
        <time>2018-06-14T07:42:32Z</time>
      </trkpt>
      <trkpt lat="42.473270" lon="-0.064545">
        <ele>700.1</ele>
        <time>2018-06-14T07:42:37Z</time>
      </trkpt>
      <trkpt lat="42.473241" lon="-0.064805">
        <ele>702.9</ele>
        <time>2018-06-14T07:42:43Z</time>
      </trkpt>
      <trkpt lat="42.473188" lon="-0.065117">
        <ele>706.8</ele>
        <time>2018-06-14T07:42:49Z</time>
      </trkpt>
      <trkpt lat="42.473071" lon="-0.065498">
        <ele>711.2</ele>
        <time>2018-06-14T07:42:57Z</time>
      </trkpt>
      <trkpt lat="42.472822" lon="-0.066000">
        <ele>713.0</ele>
        <time>2018-06-14T07:43:09Z</time>
      </trkpt>
      <trkpt lat="42.472697" lon="-0.066308">
        <ele>713.6</ele>
        <time>2018-06-14T07:43:16Z</time>
      </trkpt>
      <trkpt lat="42.472550" lon="-0.066779">
        <ele>713.7</ele>
        <time>2018-06-14T07:43:26Z</time>
      </trkpt>
      <trkpt lat="42.472436" lon="-0.067095">
        <ele>714.1</ele>
        <time>2018-06-14T07:43:33Z</time>
      </trkpt>
      <trkpt lat="42.472382" lon="-0.067242">
        <ele>714.6</ele>
        <time>2018-06-14T07:43:36Z</time>
      </trkpt>
      <trkpt lat="42.472330" lon="-0.067359">
        <ele>715.5</ele>
        <time>2018-06-14T07:43:39Z</time>
      </trkpt>
      <trkpt lat="42.472233" lon="-0.067414">
        <ele>717.1</ele>
        <time>2018-06-14T07:43:41Z</time>
      </trkpt>
      <trkpt lat="42.472145" lon="-0.067442">
        <ele>718.9</ele>
        <time>2018-06-14T07:43:44Z</time>
      </trkpt>
      <trkpt lat="42.472070" lon="-0.067462">
        <ele>720.9</ele>
        <time>2018-06-14T07:43:46Z</time>
      </trkpt>
      <trkpt lat="42.471969" lon="-0.067479">
        <ele>725.1</ele>
        <time>2018-06-14T07:43:49Z</time>
      </trkpt>
      <trkpt lat="42.471903" lon="-0.067481">
        <ele>727.8</ele>
        <time>2018-06-14T07:43:51Z</time>
      </trkpt>
      <trkpt lat="42.471841" lon="-0.067528">
        <ele>730.7</ele>
        <time>2018-06-14T07:43:53Z</time>
      </trkpt>
      <trkpt lat="42.471808" lon="-0.067608">
        <ele>732.7</ele>
        <time>2018-06-14T07:43:55Z</time>
      </trkpt>
      <trkpt lat="42.471818" lon="-0.067701">
        <ele>732.7</ele>
        <time>2018-06-14T07:43:56Z</time>
      </trkpt>
      <trkpt lat="42.471871" lon="-0.067754">
        <ele>730.6</ele>
        <time>2018-06-14T07:43:58Z</time>
      </trkpt>
      <trkpt lat="42.472007" lon="-0.067827">
        <ele>725.0</ele>
        <time>2018-06-14T07:44:02Z</time>
      </trkpt>
      <trkpt lat="42.472112" lon="-0.067895">
        <ele>720.8</ele>
        <time>2018-06-14T07:44:06Z</time>
      </trkpt>
      <trkpt lat="42.472194" lon="-0.067935">
        <ele>717.7</ele>
        <time>2018-06-14T07:44:08Z</time>
      </trkpt>
      <trkpt lat="42.472256" lon="-0.068047">
        <ele>716.1</ele>
        <time>2018-06-14T07:44:11Z</time>
      </trkpt>
      <trkpt lat="42.472294" lon="-0.068213">
        <ele>715.9</ele>
        <time>2018-06-14T07:44:14Z</time>
      </trkpt>
      <trkpt lat="42.472271" lon="-0.068594">
        <ele>720.7</ele>
        <time>2018-06-14T07:44:22Z</time>
      </trkpt>
      <trkpt lat="42.472253" lon="-0.068948">
        <ele>724.1</ele>
        <time>2018-06-14T07:44:29Z</time>
      </trkpt>
      <trkpt lat="42.472287" lon="-0.069325">
        <ele>726.4</ele>
        <time>2018-06-14T07:44:36Z</time>
      </trkpt>
      <trkpt lat="42.472370" lon="-0.069693">
        <ele>731.2</ele>
        <time>2018-06-14T07:44:44Z</time>
      </trkpt>
      <trkpt lat="42.472500" lon="-0.070172">
        <ele>731.2</ele>
        <time>2018-06-14T07:44:54Z</time>
      </trkpt>
      <trkpt lat="42.472683" lon="-0.070609">
        <ele>723.5</ele>
        <time>2018-06-14T07:45:04Z</time>
      </trkpt>
      <trkpt lat="42.472734" lon="-0.070794">
        <ele>719.9</ele>
        <time>2018-06-14T07:45:08Z</time>
      </trkpt>
      <trkpt lat="42.472776" lon="-0.070934">
        <ele>717.1</ele>
        <time>2018-06-14T07:45:11Z</time>
      </trkpt>
      <trkpt lat="42.472778" lon="-0.071087">
        <ele>716.6</ele>
        <time>2018-06-14T07:45:14Z</time>
      </trkpt>
      <trkpt lat="42.472781" lon="-0.071267">
        <ele>715.7</ele>
        <time>2018-06-14T07:45:17Z</time>
      </trkpt>
      <trkpt lat="42.472774" lon="-0.071488">
        <ele>714.0</ele>
        <time>2018-06-14T07:45:22Z</time>
      </trkpt>
      <trkpt lat="42.472747" lon="-0.071680">
        <ele>713.8</ele>
        <time>2018-06-14T07:45:25Z</time>
      </trkpt>
      <trkpt lat="42.472759" lon="-0.071860">
        <ele>712.9</ele>
        <time>2018-06-14T07:45:29Z</time>
      </trkpt>
      <trkpt lat="42.472832" lon="-0.072138">
        <ele>711.5</ele>
        <time>2018-06-14T07:45:35Z</time>
      </trkpt>
      <trkpt lat="42.472927" lon="-0.072609">
        <ele>712.0</ele>
        <time>2018-06-14T07:45:44Z</time>
      </trkpt>
      <trkpt lat="42.472971" lon="-0.072966">
        <ele>714.8</ele>
        <time>2018-06-14T07:45:51Z</time>
      </trkpt>
      <trkpt lat="42.473045" lon="-0.073257">
        <ele>714.8</ele>
        <time>2018-06-14T07:45:57Z</time>
      </trkpt>
      <trkpt lat="42.473137" lon="-0.073522">
        <ele>712.8</ele>
        <time>2018-06-14T07:46:03Z</time>
      </trkpt>
      <trkpt lat="42.473291" lon="-0.073815">
        <ele>709.7</ele>
        <time>2018-06-14T07:46:10Z</time>
      </trkpt>
      <trkpt lat="42.473537" lon="-0.074124">
        <ele>706.6</ele>
        <time>2018-06-14T07:46:19Z</time>
      </trkpt>
      <trkpt lat="42.473700" lon="-0.074364">
        <ele>705.1</ele>
        <time>2018-06-14T07:46:26Z</time>
      </trkpt>
      <trkpt lat="42.473793" lon="-0.074546">
        <ele>705.8</ele>
        <time>2018-06-14T07:46:30Z</time>
      </trkpt>
      <trkpt lat="42.473874" lon="-0.074724">
        <ele>707.2</ele>
        <time>2018-06-14T07:46:34Z</time>
      </trkpt>
      <trkpt lat="42.473956" lon="-0.074809">
        <ele>707.3</ele>
        <time>2018-06-14T07:46:37Z</time>
      </trkpt>
      <trkpt lat="42.474067" lon="-0.074813">
        <ele>706.3</ele>
        <time>2018-06-14T07:46:40Z</time>
      </trkpt>
      <trkpt lat="42.474170" lon="-0.074871">
        <ele>707.2</ele>
        <time>2018-06-14T07:46:43Z</time>
      </trkpt>
      <trkpt lat="42.474272" lon="-0.074971">
        <ele>708.9</ele>
        <time>2018-06-14T07:46:46Z</time>
      </trkpt>
      <trkpt lat="42.474363" lon="-0.075071">
        <ele>710.8</ele>
        <time>2018-06-14T07:46:49Z</time>
      </trkpt>
      <trkpt lat="42.474446" lon="-0.075171">
        <ele>712.4</ele>
        <time>2018-06-14T07:46:52Z</time>
      </trkpt>
      <trkpt lat="42.474548" lon="-0.075257">
        <ele>713.3</ele>
        <time>2018-06-14T07:46:55Z</time>
      </trkpt>
      <trkpt lat="42.474640" lon="-0.075246">
        <ele>712.9</ele>
        <time>2018-06-14T07:46:58Z</time>
      </trkpt>
      <trkpt lat="42.474762" lon="-0.075194">
        <ele>711.8</ele>
        <time>2018-06-14T07:47:01Z</time>
      </trkpt>
      <trkpt lat="42.474885" lon="-0.075129">
        <ele>710.7</ele>
        <time>2018-06-14T07:47:05Z</time>
      </trkpt>
      <trkpt lat="42.474967" lon="-0.074979">
        <ele>708.1</ele>
        <time>2018-06-14T07:47:08Z</time>
      </trkpt>
      <trkpt lat="42.475048" lon="-0.074857">
        <ele>707.0</ele>
        <time>2018-06-14T07:47:12Z</time>
      </trkpt>
      <trkpt lat="42.475130" lon="-0.074748">
        <ele>706.7</ele>
        <time>2018-06-14T07:47:15Z</time>
      </trkpt>
      <trkpt lat="42.475166" lon="-0.074697">
        <ele>706.3</ele>
        <time>2018-06-14T07:47:16Z</time>
      </trkpt>
      <trkpt lat="42.475244" lon="-0.074709">
        <ele>706.6</ele>
        <time>2018-06-14T07:47:18Z</time>
      </trkpt>
      <trkpt lat="42.475279" lon="-0.074721">
        <ele>706.7</ele>
        <time>2018-06-14T07:47:19Z</time>
      </trkpt>
      <trkpt lat="42.475304" lon="-0.074751">
        <ele>707.0</ele>
        <time>2018-06-14T07:47:20Z</time>
      </trkpt>
      <trkpt lat="42.475312" lon="-0.074805">
        <ele>707.5</ele>
        <time>2018-06-14T07:47:21Z</time>
      </trkpt>
      <trkpt lat="42.475328" lon="-0.075030">
        <ele>708.8</ele>
        <time>2018-06-14T07:47:26Z</time>
      </trkpt>
      <trkpt lat="42.475288" lon="-0.075169">
        <ele>709.5</ele>
        <time>2018-06-14T07:47:28Z</time>
      </trkpt>
      <trkpt lat="42.475221" lon="-0.075220">
        <ele>709.7</ele>
        <time>2018-06-14T07:47:31Z</time>
      </trkpt>
      <trkpt lat="42.475225" lon="-0.075330">
        <ele>709.7</ele>
        <time>2018-06-14T07:47:33Z</time>
      </trkpt>
      <trkpt lat="42.475278" lon="-0.075707">
        <ele>709.0</ele>
        <time>2018-06-14T07:47:40Z</time>
      </trkpt>
      <trkpt lat="42.475401" lon="-0.075975">
        <ele>708.0</ele>
        <time>2018-06-14T07:47:46Z</time>
      </trkpt>
      <trkpt lat="42.475399" lon="-0.076189">
        <ele>707.3</ele>
        <time>2018-06-14T07:47:51Z</time>
      </trkpt>
      <trkpt lat="42.475375" lon="-0.076382">
        <ele>707.3</ele>
        <time>2018-06-14T07:47:54Z</time>
      </trkpt>
      <trkpt lat="42.475320" lon="-0.076532">
        <ele>708.1</ele>
        <time>2018-06-14T07:47:58Z</time>
      </trkpt>
      <trkpt lat="42.475201" lon="-0.076747">
        <ele>712.7</ele>
        <time>2018-06-14T07:48:03Z</time>
      </trkpt>
      <trkpt lat="42.475177" lon="-0.076854">
        <ele>714.6</ele>
        <time>2018-06-14T07:48:05Z</time>
      </trkpt>
      <trkpt lat="42.475230" lon="-0.076972">
        <ele>716.5</ele>
        <time>2018-06-14T07:48:08Z</time>
      </trkpt>
      <trkpt lat="42.475250" lon="-0.077098">
        <ele>718.8</ele>
        <time>2018-06-14T07:48:11Z</time>
      </trkpt>
      <trkpt lat="42.475297" lon="-0.077240">
        <ele>720.7</ele>
        <time>2018-06-14T07:48:14Z</time>
      </trkpt>
      <trkpt lat="42.475269" lon="-0.077468">
        <ele>723.3</ele>
        <time>2018-06-14T07:48:18Z</time>
      </trkpt>
      <trkpt lat="42.475267" lon="-0.077557">
        <ele>724.0</ele>
        <time>2018-06-14T07:48:20Z</time>
      </trkpt>
      <trkpt lat="42.475283" lon="-0.077637">
        <ele>724.4</ele>
        <time>2018-06-14T07:48:22Z</time>
      </trkpt>
      <trkpt lat="42.475279" lon="-0.077680">
        <ele>724.3</ele>
        <time>2018-06-14T07:48:22Z</time>
      </trkpt>
      <trkpt lat="42.475259" lon="-0.077718">
        <ele>724.4</ele>
        <time>2018-06-14T07:48:23Z</time>
      </trkpt>
      <trkpt lat="42.474828" lon="-0.077999">
        <ele>729.2</ele>
        <time>2018-06-14T07:48:36Z</time>
      </trkpt>
      <trkpt lat="42.474739" lon="-0.078131">
        <ele>730.3</ele>
        <time>2018-06-14T07:48:40Z</time>
      </trkpt>
      <trkpt lat="42.474658" lon="-0.078374">
        <ele>730.4</ele>
        <time>2018-06-14T07:48:45Z</time>
      </trkpt>
      <trkpt lat="42.474597" lon="-0.078620">
        <ele>729.7</ele>
        <time>2018-06-14T07:48:50Z</time>
      </trkpt>
      <trkpt lat="42.474579" lon="-0.078742">
        <ele>729.2</ele>
        <time>2018-06-14T07:48:52Z</time>
      </trkpt>
      <trkpt lat="42.474578" lon="-0.078849">
        <ele>728.1</ele>
        <time>2018-06-14T07:48:54Z</time>
      </trkpt>
      <trkpt lat="42.474602" lon="-0.079081">
        <ele>725.2</ele>
        <time>2018-06-14T07:48:59Z</time>
      </trkpt>
      <trkpt lat="42.474686" lon="-0.079295">
        <ele>722.7</ele>
        <time>2018-06-14T07:49:04Z</time>
      </trkpt>
      <trkpt lat="42.474801" lon="-0.079553">
        <ele>721.3</ele>
        <time>2018-06-14T07:49:10Z</time>
      </trkpt>
      <trkpt lat="42.475203" lon="-0.080360">
        <ele>722.2</ele>
        <time>2018-06-14T07:49:29Z</time>
      </trkpt>
      <trkpt lat="42.475346" lon="-0.080592">
        <ele>720.9</ele>
        <time>2018-06-14T07:49:35Z</time>
      </trkpt>
      <trkpt lat="42.475577" lon="-0.080786">
        <ele>720.6</ele>
        <time>2018-06-14T07:49:42Z</time>
      </trkpt>
      <trkpt lat="42.475712" lon="-0.080878">
        <ele>722.1</ele>
        <time>2018-06-14T07:49:46Z</time>
      </trkpt>
      <trkpt lat="42.475800" lon="-0.080959">
        <ele>723.3</ele>
        <time>2018-06-14T07:49:49Z</time>
      </trkpt>
      <trkpt lat="42.476722" lon="-0.081867">
        <ele>718.9</ele>
        <time>2018-06-14T07:50:19Z</time>
      </trkpt>
      <trkpt lat="42.476896" lon="-0.082028">
        <ele>717.3</ele>
        <time>2018-06-14T07:50:25Z</time>
      </trkpt>
      <trkpt lat="42.477078" lon="-0.082092">
        <ele>716.1</ele>
        <time>2018-06-14T07:50:30Z</time>
      </trkpt>
      <trkpt lat="42.477371" lon="-0.082371">
        <ele>717.1</ele>
        <time>2018-06-14T07:50:39Z</time>
      </trkpt>
      <trkpt lat="42.477727" lon="-0.082650">
        <ele>718.7</ele>
        <time>2018-06-14T07:50:50Z</time>
      </trkpt>
      <trkpt lat="42.477878" lon="-0.082897">
        <ele>720.0</ele>
        <time>2018-06-14T07:50:56Z</time>
      </trkpt>
      <trkpt lat="42.478242" lon="-0.083294">
        <ele>719.1</ele>
        <time>2018-06-14T07:51:09Z</time>
      </trkpt>
      <trkpt lat="42.478803" lon="-0.083809">
        <ele>721.8</ele>
        <time>2018-06-14T07:51:27Z</time>
      </trkpt>
      <trkpt lat="42.478890" lon="-0.083959">
        <ele>723.4</ele>
        <time>2018-06-14T07:51:30Z</time>
      </trkpt>
      <trkpt lat="42.479026" lon="-0.084558">
        <ele>723.0</ele>
        <time>2018-06-14T07:51:43Z</time>
      </trkpt>
      <trkpt lat="42.479089" lon="-0.084676">
        <ele>722.0</ele>
        <time>2018-06-14T07:51:46Z</time>
      </trkpt>
      <trkpt lat="42.479215" lon="-0.084817">
        <ele>720.1</ele>
        <time>2018-06-14T07:51:50Z</time>
      </trkpt>
      <trkpt lat="42.479370" lon="-0.085255">
        <ele>716.9</ele>
        <time>2018-06-14T07:51:59Z</time>
      </trkpt>
      <trkpt lat="42.479532" lon="-0.085558">
        <ele>713.3</ele>
        <time>2018-06-14T07:52:07Z</time>
      </trkpt>
      <trkpt lat="42.479667" lon="-0.085776">
        <ele>712.1</ele>
        <time>2018-06-14T07:52:12Z</time>
      </trkpt>
      <trkpt lat="42.479809" lon="-0.085941">
        <ele>712.7</ele>
        <time>2018-06-14T07:52:17Z</time>
      </trkpt>
      <trkpt lat="42.479967" lon="-0.086083">
        <ele>714.0</ele>
        <time>2018-06-14T07:52:22Z</time>
      </trkpt>
      <trkpt lat="42.480283" lon="-0.086405">
        <ele>718.0</ele>
        <time>2018-06-14T07:52:33Z</time>
      </trkpt>
      <trkpt lat="42.480457" lon="-0.086695">
        <ele>719.9</ele>
        <time>2018-06-14T07:52:40Z</time>
      </trkpt>
      <trkpt lat="42.480647" lon="-0.086909">
        <ele>716.9</ele>
        <time>2018-06-14T07:52:47Z</time>
      </trkpt>
      <trkpt lat="42.481375" lon="-0.087339">
        <ele>710.8</ele>
        <time>2018-06-14T07:53:08Z</time>
      </trkpt>
      <trkpt lat="42.482135" lon="-0.087714">
        <ele>711.0</ele>
        <time>2018-06-14T07:53:29Z</time>
      </trkpt>
      <trkpt lat="42.482452" lon="-0.087800">
        <ele>711.6</ele>
        <time>2018-06-14T07:53:38Z</time>
      </trkpt>
      <trkpt lat="42.482855" lon="-0.087864">
        <ele>712.3</ele>
        <time>2018-06-14T07:53:49Z</time>
      </trkpt>
      <trkpt lat="42.483599" lon="-0.088261">
        <ele>715.4</ele>
        <time>2018-06-14T07:54:10Z</time>
      </trkpt>
      <trkpt lat="42.484485" lon="-0.088991">
        <ele>720.3</ele>
        <time>2018-06-14T07:54:37Z</time>
      </trkpt>
      <trkpt lat="42.484703" lon="-0.089295">
        <ele>721.1</ele>
        <time>2018-06-14T07:54:46Z</time>
      </trkpt>
      <trkpt lat="42.485363" lon="-0.090364">
        <ele>717.9</ele>
        <time>2018-06-14T07:55:13Z</time>
      </trkpt>
      <trkpt lat="42.485624" lon="-0.090911">
        <ele>718.7</ele>
        <time>2018-06-14T07:55:26Z</time>
      </trkpt>
      <trkpt lat="42.485847" lon="-0.091462">
        <ele>721.2</ele>
        <time>2018-06-14T07:55:38Z</time>
      </trkpt>
      <trkpt lat="42.486041" lon="-0.091977">
        <ele>721.4</ele>
        <time>2018-06-14T07:55:49Z</time>
      </trkpt>
      <trkpt lat="42.486072" lon="-0.092116">
        <ele>721.9</ele>
        <time>2018-06-14T07:55:52Z</time>
      </trkpt>
      <trkpt lat="42.486147" lon="-0.092317">
        <ele>723.0</ele>
        <time>2018-06-14T07:55:57Z</time>
      </trkpt>
      <trkpt lat="42.486249" lon="-0.092510">
        <ele>723.6</ele>
        <time>2018-06-14T07:56:01Z</time>
      </trkpt>
      <trkpt lat="42.486254" lon="-0.092599">
        <ele>724.5</ele>
        <time>2018-06-14T07:56:03Z</time>
      </trkpt>
      <trkpt lat="42.486242" lon="-0.092682">
        <ele>725.1</ele>
        <time>2018-06-14T07:56:05Z</time>
      </trkpt>
      <trkpt lat="42.486155" lon="-0.092789">
        <ele>725.9</ele>
        <time>2018-06-14T07:56:08Z</time>
      </trkpt>
      <trkpt lat="42.485537" lon="-0.093100">
        <ele>729.6</ele>
        <time>2018-06-14T07:56:25Z</time>
      </trkpt>
      <trkpt lat="42.485332" lon="-0.093272">
        <ele>731.8</ele>
        <time>2018-06-14T07:56:32Z</time>
      </trkpt>
      <trkpt lat="42.485317" lon="-0.093382">
        <ele>733.3</ele>
        <time>2018-06-14T07:56:34Z</time>
      </trkpt>
      <trkpt lat="42.485380" lon="-0.093769">
        <ele>736.9</ele>
        <time>2018-06-14T07:56:42Z</time>
      </trkpt>
      <trkpt lat="42.485419" lon="-0.094141">
        <ele>739.8</ele>
        <time>2018-06-14T07:56:49Z</time>
      </trkpt>
      <trkpt lat="42.485387" lon="-0.094269">
        <ele>741.2</ele>
        <time>2018-06-14T07:56:52Z</time>
      </trkpt>
      <trkpt lat="42.485297" lon="-0.094359">
        <ele>742.7</ele>
        <time>2018-06-14T07:56:55Z</time>
      </trkpt>
      <trkpt lat="42.484811" lon="-0.094831">
        <ele>742.9</ele>
        <time>2018-06-14T07:57:11Z</time>
      </trkpt>
      <trkpt lat="42.484754" lon="-0.094999">
        <ele>742.4</ele>
        <time>2018-06-14T07:57:14Z</time>
      </trkpt>
      <trkpt lat="42.484715" lon="-0.095192">
        <ele>741.5</ele>
        <time>2018-06-14T07:57:18Z</time>
      </trkpt>
      <trkpt lat="42.484666" lon="-0.095306">
        <ele>740.2</ele>
        <time>2018-06-14T07:57:21Z</time>
      </trkpt>
      <trkpt lat="42.484568" lon="-0.095485">
        <ele>738.7</ele>
        <time>2018-06-14T07:57:25Z</time>
      </trkpt>
      <trkpt lat="42.484509" lon="-0.095643">
        <ele>738.1</ele>
        <time>2018-06-14T07:57:29Z</time>
      </trkpt>
      <trkpt lat="42.484488" lon="-0.095700">
        <ele>738.0</ele>
        <time>2018-06-14T07:57:30Z</time>
      </trkpt>
      <trkpt lat="42.484438" lon="-0.095739">
        <ele>737.9</ele>
        <time>2018-06-14T07:57:31Z</time>
      </trkpt>
      <trkpt lat="42.484395" lon="-0.095756">
        <ele>737.9</ele>
        <time>2018-06-14T07:57:33Z</time>
      </trkpt>
      <trkpt lat="42.484348" lon="-0.095756">
        <ele>738.0</ele>
        <time>2018-06-14T07:57:34Z</time>
      </trkpt>
      <trkpt lat="42.484298" lon="-0.095740">
        <ele>738.1</ele>
        <time>2018-06-14T07:57:35Z</time>
      </trkpt>
      <trkpt lat="42.484243" lon="-0.095705">
        <ele>738.9</ele>
        <time>2018-06-14T07:57:37Z</time>
      </trkpt>
      <trkpt lat="42.484146" lon="-0.095676">
        <ele>740.3</ele>
        <time>2018-06-14T07:57:40Z</time>
      </trkpt>
      <trkpt lat="42.484026" lon="-0.095668">
        <ele>742.0</ele>
        <time>2018-06-14T07:57:43Z</time>
      </trkpt>
      <trkpt lat="42.483984" lon="-0.095713">
        <ele>742.5</ele>
        <time>2018-06-14T07:57:44Z</time>
      </trkpt>
      <trkpt lat="42.483970" lon="-0.095810">
        <ele>742.6</ele>
        <time>2018-06-14T07:57:46Z</time>
      </trkpt>
      <trkpt lat="42.484000" lon="-0.096035">
        <ele>742.3</ele>
        <time>2018-06-14T07:57:51Z</time>
      </trkpt>
      <trkpt lat="42.483996" lon="-0.096152">
        <ele>742.3</ele>
        <time>2018-06-14T07:57:53Z</time>
      </trkpt>
      <trkpt lat="42.483994" lon="-0.096298">
        <ele>742.4</ele>
        <time>2018-06-14T07:57:56Z</time>
      </trkpt>
      <trkpt lat="42.483994" lon="-0.096333">
        <ele>742.6</ele>
        <time>2018-06-14T07:57:56Z</time>
      </trkpt>
      <trkpt lat="42.483927" lon="-0.096416">
        <ele>743.5</ele>
        <time>2018-06-14T07:57:59Z</time>
      </trkpt>
      <trkpt lat="42.483913" lon="-0.096470">
        <ele>743.9</ele>
        <time>2018-06-14T07:58:00Z</time>
      </trkpt>
      <trkpt lat="42.483899" lon="-0.096553">
        <ele>744.5</ele>
        <time>2018-06-14T07:58:02Z</time>
      </trkpt>
      <trkpt lat="42.483829" lon="-0.096694">
        <ele>746.2</ele>
        <time>2018-06-14T07:58:05Z</time>
      </trkpt>
      <trkpt lat="42.483812" lon="-0.096810">
        <ele>747.1</ele>
        <time>2018-06-14T07:58:07Z</time>
      </trkpt>
      <trkpt lat="42.483842" lon="-0.097033">
        <ele>747.5</ele>
        <time>2018-06-14T07:58:12Z</time>
      </trkpt>
      <trkpt lat="42.483860" lon="-0.097284">
        <ele>747.8</ele>
        <time>2018-06-14T07:58:17Z</time>
      </trkpt>
      <trkpt lat="42.483891" lon="-0.097438">
        <ele>748.3</ele>
        <time>2018-06-14T07:58:20Z</time>
      </trkpt>
      <trkpt lat="42.483955" lon="-0.097585">
        <ele>748.7</ele>
        <time>2018-06-14T07:58:23Z</time>
      </trkpt>
      <trkpt lat="42.483986" lon="-0.097706">
        <ele>748.6</ele>
        <time>2018-06-14T07:58:26Z</time>
      </trkpt>
      <trkpt lat="42.484161" lon="-0.098711">
        <ele>748.9</ele>
        <time>2018-06-14T07:58:46Z</time>
      </trkpt>
      <trkpt lat="42.484280" lon="-0.099612">
        <ele>747.8</ele>
        <time>2018-06-14T07:59:04Z</time>
      </trkpt>
      <trkpt lat="42.484280" lon="-0.099902">
        <ele>747.9</ele>
        <time>2018-06-14T07:59:09Z</time>
      </trkpt>
      <trkpt lat="42.484282" lon="-0.099975">
        <ele>748.1</ele>
        <time>2018-06-14T07:59:11Z</time>
      </trkpt>
      <trkpt lat="42.484398" lon="-0.100439">
        <ele>749.1</ele>
        <time>2018-06-14T07:59:20Z</time>
      </trkpt>
      <trkpt lat="42.484596" lon="-0.101029">
        <ele>748.0</ele>
        <time>2018-06-14T07:59:33Z</time>
      </trkpt>
      <trkpt lat="42.484644" lon="-0.101155">
        <ele>747.8</ele>
        <time>2018-06-14T07:59:36Z</time>
      </trkpt>
      <trkpt lat="42.484681" lon="-0.101196">
        <ele>747.6</ele>
        <time>2018-06-14T07:59:37Z</time>
      </trkpt>
      <trkpt lat="42.484784" lon="-0.101204">
        <ele>747.3</ele>
        <time>2018-06-14T07:59:40Z</time>
      </trkpt>
      <trkpt lat="42.484845" lon="-0.101231">
        <ele>747.1</ele>
        <time>2018-06-14T07:59:42Z</time>
      </trkpt>
      <trkpt lat="42.484899" lon="-0.101271">
        <ele>746.8</ele>
        <time>2018-06-14T07:59:43Z</time>
      </trkpt>
      <trkpt lat="42.485144" lon="-0.101539">
        <ele>745.1</ele>
        <time>2018-06-14T07:59:52Z</time>
      </trkpt>
      <trkpt lat="42.485267" lon="-0.101657">
        <ele>746.6</ele>
        <time>2018-06-14T07:59:56Z</time>
      </trkpt>
      <trkpt lat="42.485372" lon="-0.101732">
        <ele>747.6</ele>
        <time>2018-06-14T07:59:59Z</time>
      </trkpt>
      <trkpt lat="42.485530" lon="-0.101917">
        <ele>748.1</ele>
        <time>2018-06-14T08:00:04Z</time>
      </trkpt>
      <trkpt lat="42.485623" lon="-0.102033">
        <ele>747.7</ele>
        <time>2018-06-14T08:00:08Z</time>
      </trkpt>
      <trkpt lat="42.485664" lon="-0.102069">
        <ele>747.3</ele>
        <time>2018-06-14T08:00:09Z</time>
      </trkpt>
      <trkpt lat="42.485710" lon="-0.102102">
        <ele>746.6</ele>
        <time>2018-06-14T08:00:10Z</time>
      </trkpt>
      <trkpt lat="42.485878" lon="-0.102185">
        <ele>742.9</ele>
        <time>2018-06-14T08:00:15Z</time>
      </trkpt>
      <trkpt lat="42.485981" lon="-0.102262">
        <ele>740.8</ele>
        <time>2018-06-14T08:00:18Z</time>
      </trkpt>
      <trkpt lat="42.486495" lon="-0.102895">
        <ele>732.4</ele>
        <time>2018-06-14T08:00:37Z</time>
      </trkpt>
      <trkpt lat="42.486693" lon="-0.103099">
        <ele>730.3</ele>
        <time>2018-06-14T08:00:43Z</time>
      </trkpt>
      <trkpt lat="42.486978" lon="-0.103604">
        <ele>730.7</ele>
        <time>2018-06-14T08:00:56Z</time>
      </trkpt>
      <trkpt lat="42.487137" lon="-0.103910">
        <ele>730.2</ele>
        <time>2018-06-14T08:01:03Z</time>
      </trkpt>
      <trkpt lat="42.487429" lon="-0.104237">
        <ele>728.2</ele>
        <time>2018-06-14T08:01:13Z</time>
      </trkpt>
      <trkpt lat="42.487632" lon="-0.104412">
        <ele>729.9</ele>
        <time>2018-06-14T08:01:20Z</time>
      </trkpt>
      <trkpt lat="42.487697" lon="-0.104524">
        <ele>734.2</ele>
        <time>2018-06-14T08:01:23Z</time>
      </trkpt>
      <trkpt lat="42.487711" lon="-0.104556">
        <ele>735.3</ele>
        <time>2018-06-14T08:01:23Z</time>
      </trkpt>
      <trkpt lat="42.487713" lon="-0.104624">
        <ele>737.4</ele>
        <time>2018-06-14T08:01:25Z</time>
      </trkpt>
      <trkpt lat="42.487681" lon="-0.104787">
        <ele>742.3</ele>
        <time>2018-06-14T08:01:28Z</time>
      </trkpt>
      <trkpt lat="42.487677" lon="-0.104827">
        <ele>743.5</ele>
        <time>2018-06-14T08:01:29Z</time>
      </trkpt>
      <trkpt lat="42.487693" lon="-0.104862">
        <ele>744.4</ele>
        <time>2018-06-14T08:01:30Z</time>
      </trkpt>
      <trkpt lat="42.487721" lon="-0.104880">
        <ele>744.4</ele>
        <time>2018-06-14T08:01:31Z</time>
      </trkpt>
      <trkpt lat="42.487911" lon="-0.104912">
        <ele>742.6</ele>
        <time>2018-06-14T08:01:36Z</time>
      </trkpt>
      <trkpt lat="42.488042" lon="-0.104988">
        <ele>743.0</ele>
        <time>2018-06-14T08:01:40Z</time>
      </trkpt>
      <trkpt lat="42.488180" lon="-0.105227">
        <ele>743.1</ele>
        <time>2018-06-14T08:01:46Z</time>
      </trkpt>
      <trkpt lat="42.488700" lon="-0.106442">
        <ele>742.6</ele>
        <time>2018-06-14T08:02:13Z</time>
      </trkpt>
      <trkpt lat="42.488746" lon="-0.106598">
        <ele>742.1</ele>
        <time>2018-06-14T08:02:16Z</time>
      </trkpt>
      <trkpt lat="42.488797" lon="-0.106693">
        <ele>741.4</ele>
        <time>2018-06-14T08:02:19Z</time>
      </trkpt>
      <trkpt lat="42.488922" lon="-0.106962">
        <ele>741.3</ele>
        <time>2018-06-14T08:02:25Z</time>
      </trkpt>
      <trkpt lat="42.489009" lon="-0.107180">
        <ele>741.9</ele>
        <time>2018-06-14T08:02:30Z</time>
      </trkpt>
      <trkpt lat="42.489217" lon="-0.107616">
        <ele>742.2</ele>
        <time>2018-06-14T08:02:40Z</time>
      </trkpt>
      <trkpt lat="42.489308" lon="-0.107786">
        <ele>741.5</ele>
        <time>2018-06-14T08:02:44Z</time>
      </trkpt>
      <trkpt lat="42.489403" lon="-0.107917">
        <ele>741.7</ele>
        <time>2018-06-14T08:02:48Z</time>
      </trkpt>
      <trkpt lat="42.489470" lon="-0.107992">
        <ele>741.8</ele>
        <time>2018-06-14T08:02:50Z</time>
      </trkpt>
      <trkpt lat="42.489579" lon="-0.108113">
        <ele>741.7</ele>
        <time>2018-06-14T08:02:54Z</time>
      </trkpt>
      <trkpt lat="42.489683" lon="-0.108238">
        <ele>741.4</ele>
        <time>2018-06-14T08:02:57Z</time>
      </trkpt>
      <trkpt lat="42.489727" lon="-0.108301">
        <ele>741.4</ele>
        <time>2018-06-14T08:02:59Z</time>
      </trkpt>
      <trkpt lat="42.489797" lon="-0.108464">
        <ele>742.0</ele>
        <time>2018-06-14T08:03:03Z</time>
      </trkpt>
      <trkpt lat="42.489865" lon="-0.108625">
        <ele>743.1</ele>
        <time>2018-06-14T08:03:06Z</time>
      </trkpt>
      <trkpt lat="42.489937" lon="-0.108743">
        <ele>743.1</ele>
        <time>2018-06-14T08:03:09Z</time>
      </trkpt>
      <trkpt lat="42.490269" lon="-0.109150">
        <ele>742.9</ele>
        <time>2018-06-14T08:03:21Z</time>
      </trkpt>
      <trkpt lat="42.490585" lon="-0.109783">
        <ele>748.7</ele>
        <time>2018-06-14T08:03:36Z</time>
      </trkpt>
      <trkpt lat="42.490736" lon="-0.110019">
        <ele>750.9</ele>
        <time>2018-06-14T08:03:42Z</time>
      </trkpt>
      <trkpt lat="42.491416" lon="-0.110878">
        <ele>751.8</ele>
        <time>2018-06-14T08:04:07Z</time>
      </trkpt>
      <trkpt lat="42.491470" lon="-0.110975">
        <ele>752.4</ele>
        <time>2018-06-14T08:04:09Z</time>
      </trkpt>
      <trkpt lat="42.491741" lon="-0.111650">
        <ele>754.9</ele>
        <time>2018-06-14T08:04:24Z</time>
      </trkpt>
      <trkpt lat="42.491883" lon="-0.112294">
        <ele>756.5</ele>
        <time>2018-06-14T08:04:38Z</time>
      </trkpt>
      <trkpt lat="42.491906" lon="-0.112504">
        <ele>758.5</ele>
        <time>2018-06-14T08:04:42Z</time>
      </trkpt>
      <trkpt lat="42.491894" lon="-0.112767">
        <ele>760.8</ele>
        <time>2018-06-14T08:04:47Z</time>
      </trkpt>
      <trkpt lat="42.491851" lon="-0.113066">
        <ele>760.2</ele>
        <time>2018-06-14T08:04:53Z</time>
      </trkpt>
      <trkpt lat="42.491855" lon="-0.113150">
        <ele>759.3</ele>
        <time>2018-06-14T08:04:55Z</time>
      </trkpt>
      <trkpt lat="42.491872" lon="-0.113241">
        <ele>758.4</ele>
        <time>2018-06-14T08:04:56Z</time>
      </trkpt>
      <trkpt lat="42.491890" lon="-0.113279">
        <ele>758.0</ele>
        <time>2018-06-14T08:04:57Z</time>
      </trkpt>
      <trkpt lat="42.491928" lon="-0.113295">
        <ele>757.7</ele>
        <time>2018-06-14T08:04:58Z</time>
      </trkpt>
      <trkpt lat="42.491986" lon="-0.113292">
        <ele>757.4</ele>
        <time>2018-06-14T08:05:00Z</time>
      </trkpt>
      <trkpt lat="42.492033" lon="-0.113298">
        <ele>757.1</ele>
        <time>2018-06-14T08:05:01Z</time>
      </trkpt>
      <trkpt lat="42.492086" lon="-0.113322">
        <ele>756.6</ele>
        <time>2018-06-14T08:05:03Z</time>
      </trkpt>
      <trkpt lat="42.492181" lon="-0.113392">
        <ele>755.4</ele>
        <time>2018-06-14T08:05:06Z</time>
      </trkpt>
      <trkpt lat="42.492260" lon="-0.113486">
        <ele>754.4</ele>
        <time>2018-06-14T08:05:08Z</time>
      </trkpt>
      <trkpt lat="42.492304" lon="-0.113579">
        <ele>754.8</ele>
        <time>2018-06-14T08:05:10Z</time>
      </trkpt>
      <trkpt lat="42.492373" lon="-0.113699">
        <ele>755.6</ele>
        <time>2018-06-14T08:05:13Z</time>
      </trkpt>
      <trkpt lat="42.492488" lon="-0.113872">
        <ele>755.3</ele>
        <time>2018-06-14T08:05:18Z</time>
      </trkpt>
      <trkpt lat="42.492598" lon="-0.114156">
        <ele>754.8</ele>
        <time>2018-06-14T08:05:24Z</time>
      </trkpt>
      <trkpt lat="42.492690" lon="-0.114418">
        <ele>755.8</ele>
        <time>2018-06-14T08:05:30Z</time>
      </trkpt>
      <trkpt lat="42.492714" lon="-0.114708">
        <ele>757.2</ele>
        <time>2018-06-14T08:05:36Z</time>
      </trkpt>
      <trkpt lat="42.492699" lon="-0.115076">
        <ele>758.2</ele>
        <time>2018-06-14T08:05:43Z</time>
      </trkpt>
      <trkpt lat="42.492714" lon="-0.115201">
        <ele>758.2</ele>
        <time>2018-06-14T08:05:45Z</time>
      </trkpt>
      <trkpt lat="42.493022" lon="-0.115910">
        <ele>752.8</ele>
        <time>2018-06-14T08:06:02Z</time>
      </trkpt>
      <trkpt lat="42.493228" lon="-0.116339">
        <ele>753.2</ele>
        <time>2018-06-14T08:06:12Z</time>
      </trkpt>
      <trkpt lat="42.493705" lon="-0.117109">
        <ele>756.1</ele>
        <time>2018-06-14T08:06:31Z</time>
      </trkpt>
      <trkpt lat="42.493783" lon="-0.117284">
        <ele>756.5</ele>
        <time>2018-06-14T08:06:35Z</time>
      </trkpt>
      <trkpt lat="42.493861" lon="-0.117465">
        <ele>755.0</ele>
        <time>2018-06-14T08:06:39Z</time>
      </trkpt>
      <trkpt lat="42.494090" lon="-0.117937">
        <ele>752.8</ele>
        <time>2018-06-14T08:06:50Z</time>
      </trkpt>
      <trkpt lat="42.494201" lon="-0.118066">
        <ele>753.4</ele>
        <time>2018-06-14T08:06:54Z</time>
      </trkpt>
      <trkpt lat="42.494268" lon="-0.118139">
        <ele>754.2</ele>
        <time>2018-06-14T08:06:57Z</time>
      </trkpt>
      <trkpt lat="42.494365" lon="-0.118212">
        <ele>755.4</ele>
        <time>2018-06-14T08:07:00Z</time>
      </trkpt>
      <trkpt lat="42.494450" lon="-0.118281">
        <ele>756.3</ele>
        <time>2018-06-14T08:07:02Z</time>
      </trkpt>
      <trkpt lat="42.494494" lon="-0.118366">
        <ele>757.1</ele>
        <time>2018-06-14T08:07:04Z</time>
      </trkpt>
      <trkpt lat="42.494641" lon="-0.118708">
        <ele>759.8</ele>
        <time>2018-06-14T08:07:12Z</time>
      </trkpt>
      <trkpt lat="42.494854" lon="-0.119159">
        <ele>761.0</ele>
        <time>2018-06-14T08:07:22Z</time>
      </trkpt>
      <trkpt lat="42.495120" lon="-0.119573">
        <ele>762.8</ele>
        <time>2018-06-14T08:07:33Z</time>
      </trkpt>
      <trkpt lat="42.495343" lon="-0.119906">
        <ele>765.5</ele>
        <time>2018-06-14T08:07:42Z</time>
      </trkpt>
      <trkpt lat="42.495562" lon="-0.120178">
        <ele>764.8</ele>
        <time>2018-06-14T08:07:50Z</time>
      </trkpt>
      <trkpt lat="42.495681" lon="-0.120261">
        <ele>763.7</ele>
        <time>2018-06-14T08:07:53Z</time>
      </trkpt>
      <trkpt lat="42.495784" lon="-0.120288">
        <ele>764.1</ele>
        <time>2018-06-14T08:07:56Z</time>
      </trkpt>
      <trkpt lat="42.495873" lon="-0.120269">
        <ele>764.9</ele>
        <time>2018-06-14T08:07:59Z</time>
      </trkpt>
      <trkpt lat="42.495962" lon="-0.120288">
        <ele>765.3</ele>
        <time>2018-06-14T08:08:01Z</time>
      </trkpt>
      <trkpt lat="42.495992" lon="-0.120304">
        <ele>765.1</ele>
        <time>2018-06-14T08:08:02Z</time>
      </trkpt>
      <trkpt lat="42.496019" lon="-0.120351">
        <ele>764.5</ele>
        <time>2018-06-14T08:08:03Z</time>
      </trkpt>
      <trkpt lat="42.496039" lon="-0.120387">
        <ele>764.1</ele>
        <time>2018-06-14T08:08:04Z</time>
      </trkpt>
      <trkpt lat="42.496044" lon="-0.120429">
        <ele>763.7</ele>
        <time>2018-06-14T08:08:05Z</time>
      </trkpt>
      <trkpt lat="42.496008" lon="-0.120547">
        <ele>763.5</ele>
        <time>2018-06-14T08:08:07Z</time>
      </trkpt>
      <trkpt lat="42.495962" lon="-0.120690">
        <ele>763.0</ele>
        <time>2018-06-14T08:08:10Z</time>
      </trkpt>
      <trkpt lat="42.495952" lon="-0.120805">
        <ele>763.4</ele>
        <time>2018-06-14T08:08:13Z</time>
      </trkpt>
      <trkpt lat="42.495957" lon="-0.120902">
        <ele>763.7</ele>
        <time>2018-06-14T08:08:14Z</time>
      </trkpt>
      <trkpt lat="42.496004" lon="-0.121047">
        <ele>763.7</ele>
        <time>2018-06-14T08:08:18Z</time>
      </trkpt>
      <trkpt lat="42.496037" lon="-0.121245">
        <ele>763.3</ele>
        <time>2018-06-14T08:08:22Z</time>
      </trkpt>
      <trkpt lat="42.496048" lon="-0.121353">
        <ele>763.1</ele>
        <time>2018-06-14T08:08:24Z</time>
      </trkpt>
      <trkpt lat="42.496080" lon="-0.122014">
        <ele>763.1</ele>
        <time>2018-06-14T08:08:37Z</time>
      </trkpt>
      <trkpt lat="42.496068" lon="-0.122213">
        <ele>765.3</ele>
        <time>2018-06-14T08:08:41Z</time>
      </trkpt>
      <trkpt lat="42.495977" lon="-0.122702">
        <ele>771.2</ele>
        <time>2018-06-14T08:08:51Z</time>
      </trkpt>
      <trkpt lat="42.495866" lon="-0.123099">
        <ele>773.4</ele>
        <time>2018-06-14T08:08:59Z</time>
      </trkpt>
      <trkpt lat="42.495822" lon="-0.123266">
        <ele>773.7</ele>
        <time>2018-06-14T08:09:02Z</time>
      </trkpt>
      <trkpt lat="42.495814" lon="-0.123427">
        <ele>773.0</ele>
        <time>2018-06-14T08:09:05Z</time>
      </trkpt>
      <trkpt lat="42.495866" lon="-0.123508">
        <ele>773.3</ele>
        <time>2018-06-14T08:09:08Z</time>
      </trkpt>
      <trkpt lat="42.495977" lon="-0.123637">
        <ele>774.7</ele>
        <time>2018-06-14T08:09:11Z</time>
      </trkpt>
      <trkpt lat="42.496012" lon="-0.123728">
        <ele>775.6</ele>
        <time>2018-06-14T08:09:14Z</time>
      </trkpt>
      <trkpt lat="42.496008" lon="-0.123916">
        <ele>776.3</ele>
        <time>2018-06-14T08:09:17Z</time>
      </trkpt>
      <trkpt lat="42.495874" lon="-0.124582">
        <ele>780.2</ele>
        <time>2018-06-14T08:09:31Z</time>
      </trkpt>
      <trkpt lat="42.495552" lon="-0.125389">
        <ele>781.2</ele>
        <time>2018-06-14T08:09:49Z</time>
      </trkpt>
      <trkpt lat="42.495405" lon="-0.125816">
        <ele>784.6</ele>
        <time>2018-06-14T08:09:58Z</time>
      </trkpt>
      <trkpt lat="42.495255" lon="-0.126325">
        <ele>785.6</ele>
        <time>2018-06-14T08:10:09Z</time>
      </trkpt>
      <trkpt lat="42.495218" lon="-0.126486">
        <ele>785.1</ele>
        <time>2018-06-14T08:10:12Z</time>
      </trkpt>
      <trkpt lat="42.495192" lon="-0.126677">
        <ele>784.4</ele>
        <time>2018-06-14T08:10:16Z</time>
      </trkpt>
      <trkpt lat="42.495204" lon="-0.126862">
        <ele>784.8</ele>
        <time>2018-06-14T08:10:19Z</time>
      </trkpt>
      <trkpt lat="42.495268" lon="-0.127360">
        <ele>786.8</ele>
        <time>2018-06-14T08:10:29Z</time>
      </trkpt>
      <trkpt lat="42.495269" lon="-0.127637">
        <ele>786.8</ele>
        <time>2018-06-14T08:10:35Z</time>
      </trkpt>
      <trkpt lat="42.495264" lon="-0.127876">
        <ele>787.2</ele>
        <time>2018-06-14T08:10:39Z</time>
      </trkpt>
      <trkpt lat="42.495210" lon="-0.128377">
        <ele>788.2</ele>
        <time>2018-06-14T08:10:49Z</time>
      </trkpt>
      <trkpt lat="42.495202" lon="-0.128557">
        <ele>788.4</ele>
        <time>2018-06-14T08:10:53Z</time>
      </trkpt>
      <trkpt lat="42.495228" lon="-0.128714">
        <ele>788.9</ele>
        <time>2018-06-14T08:10:56Z</time>
      </trkpt>
      <trkpt lat="42.495264" lon="-0.128956">
        <ele>789.5</ele>
        <time>2018-06-14T08:11:01Z</time>
      </trkpt>
      <trkpt lat="42.495311" lon="-0.129112">
        <ele>790.2</ele>
        <time>2018-06-14T08:11:04Z</time>
      </trkpt>
      <trkpt lat="42.495379" lon="-0.129198">
        <ele>791.2</ele>
        <time>2018-06-14T08:11:07Z</time>
      </trkpt>
      <trkpt lat="42.495442" lon="-0.129310">
        <ele>793.1</ele>
        <time>2018-06-14T08:11:09Z</time>
      </trkpt>
      <trkpt lat="42.495449" lon="-0.129372">
        <ele>793.6</ele>
        <time>2018-06-14T08:11:11Z</time>
      </trkpt>
      <trkpt lat="42.495446" lon="-0.129434">
        <ele>793.7</ele>
        <time>2018-06-14T08:11:12Z</time>
      </trkpt>
      <trkpt lat="42.495398" lon="-0.129531">
        <ele>792.6</ele>
        <time>2018-06-14T08:11:14Z</time>
      </trkpt>
      <trkpt lat="42.495335" lon="-0.129670">
        <ele>792.3</ele>
        <time>2018-06-14T08:11:17Z</time>
      </trkpt>
      <trkpt lat="42.495313" lon="-0.129804">
        <ele>792.1</ele>
        <time>2018-06-14T08:11:20Z</time>
      </trkpt>
      <trkpt lat="42.495319" lon="-0.129918">
        <ele>791.9</ele>
        <time>2018-06-14T08:11:22Z</time>
      </trkpt>
      <trkpt lat="42.495386" lon="-0.130261">
        <ele>791.6</ele>
        <time>2018-06-14T08:11:29Z</time>
      </trkpt>
      <trkpt lat="42.495474" lon="-0.130820">
        <ele>793.3</ele>
        <time>2018-06-14T08:11:40Z</time>
      </trkpt>
      <trkpt lat="42.495565" lon="-0.131057">
        <ele>798.3</ele>
        <time>2018-06-14T08:11:46Z</time>
      </trkpt>
      <trkpt lat="42.495604" lon="-0.131218">
        <ele>801.9</ele>
        <time>2018-06-14T08:11:49Z</time>
      </trkpt>
      <trkpt lat="42.495608" lon="-0.131301">
        <ele>802.9</ele>
        <time>2018-06-14T08:11:51Z</time>
      </trkpt>
      <trkpt lat="42.495596" lon="-0.131379">
        <ele>803.5</ele>
        <time>2018-06-14T08:11:52Z</time>
      </trkpt>
      <trkpt lat="42.495529" lon="-0.131578">
        <ele>805.1</ele>
        <time>2018-06-14T08:11:57Z</time>
      </trkpt>
      <trkpt lat="42.495458" lon="-0.131728">
        <ele>806.9</ele>
        <time>2018-06-14T08:12:00Z</time>
      </trkpt>
      <trkpt lat="42.495379" lon="-0.131970">
        <ele>809.4</ele>
        <time>2018-06-14T08:12:05Z</time>
      </trkpt>
      <trkpt lat="42.495295" lon="-0.132292">
        <ele>811.0</ele>
        <time>2018-06-14T08:12:12Z</time>
      </trkpt>
      <trkpt lat="42.495153" lon="-0.132878">
        <ele>815.9</ele>
        <time>2018-06-14T08:12:24Z</time>
      </trkpt>
      <trkpt lat="42.495097" lon="-0.133184">
        <ele>816.1</ele>
        <time>2018-06-14T08:12:30Z</time>
      </trkpt>
      <trkpt lat="42.495006" lon="-0.133760">
        <ele>817.7</ele>
        <time>2018-06-14T08:12:42Z</time>
      </trkpt>
      <trkpt lat="42.494974" lon="-0.134067">
        <ele>817.5</ele>
        <time>2018-06-14T08:12:48Z</time>
      </trkpt>
      <trkpt lat="42.495026" lon="-0.134834">
        <ele>817.0</ele>
        <time>2018-06-14T08:13:03Z</time>
      </trkpt>
      <trkpt lat="42.495066" lon="-0.135564">
        <ele>820.8</ele>
        <time>2018-06-14T08:13:17Z</time>
      </trkpt>
      <trkpt lat="42.495184" lon="-0.136107">
        <ele>822.7</ele>
        <time>2018-06-14T08:13:28Z</time>
      </trkpt>
      <trkpt lat="42.495402" lon="-0.137080">
        <ele>825.7</ele>
        <time>2018-06-14T08:13:48Z</time>
      </trkpt>
      <trkpt lat="42.495537" lon="-0.137547">
        <ele>827.5</ele>
        <time>2018-06-14T08:13:58Z</time>
      </trkpt>
      <trkpt lat="42.495569" lon="-0.137692">
        <ele>828.1</ele>
        <time>2018-06-14T08:14:01Z</time>
      </trkpt>
      <trkpt lat="42.495588" lon="-0.137821">
        <ele>828.0</ele>
        <time>2018-06-14T08:14:04Z</time>
      </trkpt>
      <trkpt lat="42.495573" lon="-0.138020">
        <ele>828.1</ele>
        <time>2018-06-14T08:14:08Z</time>
      </trkpt>
      <trkpt lat="42.495546" lon="-0.138331">
        <ele>828.6</ele>
        <time>2018-06-14T08:14:14Z</time>
      </trkpt>
      <trkpt lat="42.495521" lon="-0.138761">
        <ele>827.2</ele>
        <time>2018-06-14T08:14:22Z</time>
      </trkpt>
      <trkpt lat="42.495525" lon="-0.138987">
        <ele>829.1</ele>
        <time>2018-06-14T08:14:27Z</time>
      </trkpt>
      <trkpt lat="42.495549" lon="-0.139084">
        <ele>829.9</ele>
        <time>2018-06-14T08:14:29Z</time>
      </trkpt>
      <trkpt lat="42.495585" lon="-0.139245">
        <ele>831.0</ele>
        <time>2018-06-14T08:14:32Z</time>
      </trkpt>
      <trkpt lat="42.495573" lon="-0.139320">
        <ele>831.6</ele>
        <time>2018-06-14T08:14:33Z</time>
      </trkpt>
      <trkpt lat="42.495533" lon="-0.139401">
        <ele>832.5</ele>
        <time>2018-06-14T08:14:35Z</time>
      </trkpt>
      <trkpt lat="42.495485" lon="-0.139481">
        <ele>833.5</ele>
        <time>2018-06-14T08:14:37Z</time>
      </trkpt>
      <trkpt lat="42.495470" lon="-0.139583">
        <ele>834.6</ele>
        <time>2018-06-14T08:14:39Z</time>
      </trkpt>
      <trkpt lat="42.495485" lon="-0.139857">
        <ele>835.7</ele>
        <time>2018-06-14T08:14:45Z</time>
      </trkpt>
      <trkpt lat="42.495553" lon="-0.140497">
        <ele>839.9</ele>
        <time>2018-06-14T08:14:57Z</time>
      </trkpt>
      <trkpt lat="42.495546" lon="-0.141147">
        <ele>842.6</ele>
        <time>2018-06-14T08:15:10Z</time>
      </trkpt>
      <trkpt lat="42.495581" lon="-0.141690">
        <ele>844.9</ele>
        <time>2018-06-14T08:15:21Z</time>
      </trkpt>
      <trkpt lat="42.495578" lon="-0.141753">
        <ele>845.3</ele>
        <time>2018-06-14T08:15:22Z</time>
      </trkpt>
      <trkpt lat="42.495565" lon="-0.141802">
        <ele>845.5</ele>
        <time>2018-06-14T08:15:23Z</time>
      </trkpt>
      <trkpt lat="42.495544" lon="-0.141858">
        <ele>845.7</ele>
        <time>2018-06-14T08:15:24Z</time>
      </trkpt>
      <trkpt lat="42.495513" lon="-0.141894">
        <ele>845.9</ele>
        <time>2018-06-14T08:15:25Z</time>
      </trkpt>
      <trkpt lat="42.495398" lon="-0.141958">
        <ele>846.1</ele>
        <time>2018-06-14T08:15:29Z</time>
      </trkpt>
      <trkpt lat="42.495165" lon="-0.142135">
        <ele>848.5</ele>
        <time>2018-06-14T08:15:36Z</time>
      </trkpt>
      <trkpt lat="42.494954" lon="-0.142270">
        <ele>849.1</ele>
        <time>2018-06-14T08:15:42Z</time>
      </trkpt>
      <trkpt lat="42.494743" lon="-0.142561">
        <ele>854.0</ele>
        <time>2018-06-14T08:15:50Z</time>
      </trkpt>
      <trkpt lat="42.494602" lon="-0.142788">
        <ele>857.4</ele>
        <time>2018-06-14T08:15:56Z</time>
      </trkpt>
      <trkpt lat="42.494466" lon="-0.142893">
        <ele>857.8</ele>
        <time>2018-06-14T08:16:00Z</time>
      </trkpt>
      <trkpt lat="42.494179" lon="-0.143098">
        <ele>861.0</ele>
        <time>2018-06-14T08:16:09Z</time>
      </trkpt>
      <trkpt lat="42.493821" lon="-0.143362">
        <ele>866.1</ele>
        <time>2018-06-14T08:16:20Z</time>
      </trkpt>
      <trkpt lat="42.493547" lon="-0.143521">
        <ele>868.8</ele>
        <time>2018-06-14T08:16:28Z</time>
      </trkpt>
      <trkpt lat="42.493367" lon="-0.143669">
        <ele>870.5</ele>
        <time>2018-06-14T08:16:33Z</time>
      </trkpt>
      <trkpt lat="42.493282" lon="-0.143793">
        <ele>871.0</ele>
        <time>2018-06-14T08:16:36Z</time>
      </trkpt>
      <trkpt lat="42.493197" lon="-0.144034">
        <ele>872.2</ele>
        <time>2018-06-14T08:16:42Z</time>
      </trkpt>
      <trkpt lat="42.493114" lon="-0.144317">
        <ele>877.1</ele>
        <time>2018-06-14T08:16:48Z</time>
      </trkpt>
      <trkpt lat="42.493042" lon="-0.144415">
        <ele>877.5</ele>
        <time>2018-06-14T08:16:50Z</time>
      </trkpt>
      <trkpt lat="42.492938" lon="-0.144561">
        <ele>877.3</ele>
        <time>2018-06-14T08:16:54Z</time>
      </trkpt>
      <trkpt lat="42.492805" lon="-0.144734">
        <ele>881.0</ele>
        <time>2018-06-14T08:16:59Z</time>
      </trkpt>
      <trkpt lat="42.492730" lon="-0.144885">
        <ele>883.8</ele>
        <time>2018-06-14T08:17:03Z</time>
      </trkpt>
      <trkpt lat="42.492645" lon="-0.145011">
        <ele>885.8</ele>
        <time>2018-06-14T08:17:06Z</time>
      </trkpt>
      <trkpt lat="42.492560" lon="-0.145096">
        <ele>887.7</ele>
        <time>2018-06-14T08:17:09Z</time>
      </trkpt>
      <trkpt lat="42.492445" lon="-0.145143">
        <ele>888.7</ele>
        <time>2018-06-14T08:17:12Z</time>
      </trkpt>
      <trkpt lat="42.492345" lon="-0.145203">
        <ele>889.0</ele>
        <time>2018-06-14T08:17:15Z</time>
      </trkpt>
      <trkpt lat="42.492283" lon="-0.145283">
        <ele>889.5</ele>
        <time>2018-06-14T08:17:18Z</time>
      </trkpt>
      <trkpt lat="42.492258" lon="-0.145387">
        <ele>889.3</ele>
        <time>2018-06-14T08:17:20Z</time>
      </trkpt>
      <trkpt lat="42.492262" lon="-0.145571">
        <ele>888.7</ele>
        <time>2018-06-14T08:17:23Z</time>
      </trkpt>
      <trkpt lat="42.492303" lon="-0.145837">
        <ele>888.6</ele>
        <time>2018-06-14T08:17:29Z</time>
      </trkpt>
      <trkpt lat="42.492287" lon="-0.145988">
        <ele>889.7</ele>
        <time>2018-06-14T08:17:32Z</time>
      </trkpt>
      <trkpt lat="42.492244" lon="-0.146238">
        <ele>892.3</ele>
        <time>2018-06-14T08:17:37Z</time>
      </trkpt>
      <trkpt lat="42.492171" lon="-0.146496">
        <ele>894.4</ele>
        <time>2018-06-14T08:17:42Z</time>
      </trkpt>
      <trkpt lat="42.492107" lon="-0.146704">
        <ele>895.7</ele>
        <time>2018-06-14T08:17:47Z</time>
      </trkpt>
      <trkpt lat="42.492058" lon="-0.146921">
        <ele>898.1</ele>
        <time>2018-06-14T08:17:51Z</time>
      </trkpt>
      <trkpt lat="42.491955" lon="-0.147072">
        <ele>901.7</ele>
        <time>2018-06-14T08:17:55Z</time>
      </trkpt>
      <trkpt lat="42.491811" lon="-0.147204">
        <ele>904.4</ele>
        <time>2018-06-14T08:18:00Z</time>
      </trkpt>
      <trkpt lat="42.491672" lon="-0.147327">
        <ele>906.0</ele>
        <time>2018-06-14T08:18:04Z</time>
      </trkpt>
      <trkpt lat="42.491550" lon="-0.147580">
        <ele>904.9</ele>
        <time>2018-06-14T08:18:10Z</time>
      </trkpt>
      <trkpt lat="42.491366" lon="-0.147915">
        <ele>905.8</ele>
        <time>2018-06-14T08:18:18Z</time>
      </trkpt>
      <trkpt lat="42.491253" lon="-0.148142">
        <ele>905.1</ele>
        <time>2018-06-14T08:18:24Z</time>
      </trkpt>
      <trkpt lat="42.491176" lon="-0.148318">
        <ele>905.6</ele>
        <time>2018-06-14T08:18:28Z</time>
      </trkpt>
      <trkpt lat="42.491100" lon="-0.148418">
        <ele>905.9</ele>
        <time>2018-06-14T08:18:30Z</time>
      </trkpt>
      <trkpt lat="42.491028" lon="-0.148458">
        <ele>906.0</ele>
        <time>2018-06-14T08:18:33Z</time>
      </trkpt>
      <trkpt lat="42.490929" lon="-0.148420">
        <ele>907.3</ele>
        <time>2018-06-14T08:18:35Z</time>
      </trkpt>
      <trkpt lat="42.490860" lon="-0.148310">
        <ele>909.7</ele>
        <time>2018-06-14T08:18:38Z</time>
      </trkpt>
      <trkpt lat="42.490847" lon="-0.148186">
        <ele>910.6</ele>
        <time>2018-06-14T08:18:41Z</time>
      </trkpt>
      <trkpt lat="42.490836" lon="-0.147975">
        <ele>912.9</ele>
        <time>2018-06-14T08:18:45Z</time>
      </trkpt>
      <trkpt lat="42.490860" lon="-0.147790">
        <ele>914.5</ele>
        <time>2018-06-14T08:18:48Z</time>
      </trkpt>
      <trkpt lat="42.491202" lon="-0.147075">
        <ele>915.6</ele>
        <time>2018-06-14T08:19:05Z</time>
      </trkpt>
      <trkpt lat="42.491184" lon="-0.146938">
        <ele>916.9</ele>
        <time>2018-06-14T08:19:08Z</time>
      </trkpt>
      <trkpt lat="42.491087" lon="-0.146958">
        <ele>920.2</ele>
        <time>2018-06-14T08:19:11Z</time>
      </trkpt>
      <trkpt lat="42.490393" lon="-0.148024">
        <ele>933.5</ele>
        <time>2018-06-14T08:19:39Z</time>
      </trkpt>
      <trkpt lat="42.489988" lon="-0.148925">
        <ele>935.5</ele>
        <time>2018-06-14T08:19:59Z</time>
      </trkpt>
      <trkpt lat="42.489387" lon="-0.149821">
        <ele>943.6</ele>
        <time>2018-06-14T08:20:23Z</time>
      </trkpt>
      <trkpt lat="42.489249" lon="-0.150075">
        <ele>943.6</ele>
        <time>2018-06-14T08:20:29Z</time>
      </trkpt>
      <trkpt lat="42.489165" lon="-0.150410">
        <ele>944.6</ele>
        <time>2018-06-14T08:20:36Z</time>
      </trkpt>
      <trkpt lat="42.489096" lon="-0.150670">
        <ele>948.2</ele>
        <time>2018-06-14T08:20:42Z</time>
      </trkpt>
      <trkpt lat="42.488948" lon="-0.150964">
        <ele>951.2</ele>
        <time>2018-06-14T08:20:49Z</time>
      </trkpt>
      <trkpt lat="42.488784" lon="-0.151200">
        <ele>952.9</ele>
        <time>2018-06-14T08:20:55Z</time>
      </trkpt>
      <trkpt lat="42.487806" lon="-0.151731">
        <ele>966.7</ele>
        <time>2018-06-14T08:21:23Z</time>
      </trkpt>
      <trkpt lat="42.487588" lon="-0.151860">
        <ele>972.1</ele>
        <time>2018-06-14T08:21:29Z</time>
      </trkpt>
      <trkpt lat="42.487514" lon="-0.151987">
        <ele>976.6</ele>
        <time>2018-06-14T08:21:33Z</time>
      </trkpt>
      <trkpt lat="42.487514" lon="-0.152107">
        <ele>978.3</ele>
        <time>2018-06-14T08:21:35Z</time>
      </trkpt>
      <trkpt lat="42.487677" lon="-0.152221">
        <ele>975.2</ele>
        <time>2018-06-14T08:21:40Z</time>
      </trkpt>
      <trkpt lat="42.487820" lon="-0.152347">
        <ele>972.1</ele>
        <time>2018-06-14T08:21:45Z</time>
      </trkpt>
      <trkpt lat="42.487864" lon="-0.152434">
        <ele>972.7</ele>
        <time>2018-06-14T08:21:47Z</time>
      </trkpt>
      <trkpt lat="42.487864" lon="-0.152615">
        <ele>978.4</ele>
        <time>2018-06-14T08:21:51Z</time>
      </trkpt>
      <trkpt lat="42.487849" lon="-0.152942">
        <ele>991.1</ele>
        <time>2018-06-14T08:21:58Z</time>
      </trkpt>
      <trkpt lat="42.487874" lon="-0.153123">
        <ele>994.6</ele>
        <time>2018-06-14T08:22:01Z</time>
      </trkpt>
      <trkpt lat="42.488007" lon="-0.153403">
        <ele>993.2</ele>
        <time>2018-06-14T08:22:08Z</time>
      </trkpt>
      <trkpt lat="42.488032" lon="-0.153637">
        <ele>996.8</ele>
        <time>2018-06-14T08:22:13Z</time>
      </trkpt>
      <trkpt lat="42.487958" lon="-0.154533">
        <ele>1002.8</ele>
        <time>2018-06-14T08:22:30Z</time>
      </trkpt>
      <trkpt lat="42.487879" lon="-0.155194">
        <ele>1001.1</ele>
        <time>2018-06-14T08:22:43Z</time>
      </trkpt>
      <trkpt lat="42.487800" lon="-0.155595">
        <ele>1004.7</ele>
        <time>2018-06-14T08:22:52Z</time>
      </trkpt>
      <trkpt lat="42.487775" lon="-0.155809">
        <ele>1005.2</ele>
        <time>2018-06-14T08:22:56Z</time>
      </trkpt>
      <trkpt lat="42.487785" lon="-0.156070">
        <ele>1004.4</ele>
        <time>2018-06-14T08:23:01Z</time>
      </trkpt>
      <trkpt lat="42.487815" lon="-0.156627">
        <ele>1008.8</ele>
        <time>2018-06-14T08:23:12Z</time>
      </trkpt>
      <trkpt lat="42.487790" lon="-0.156985">
        <ele>1016.6</ele>
        <time>2018-06-14T08:23:19Z</time>
      </trkpt>
      <trkpt lat="42.487716" lon="-0.157172">
        <ele>1024.4</ele>
        <time>2018-06-14T08:23:24Z</time>
      </trkpt>
      <trkpt lat="42.487672" lon="-0.157460">
        <ele>1029.9</ele>
        <time>2018-06-14T08:23:30Z</time>
      </trkpt>
      <trkpt lat="42.487780" lon="-0.157827">
        <ele>1024.5</ele>
        <time>2018-06-14T08:23:37Z</time>
      </trkpt>
      <trkpt lat="42.487908" lon="-0.158502">
        <ele>1021.0</ele>
        <time>2018-06-14T08:23:51Z</time>
      </trkpt>
      <trkpt lat="42.487997" lon="-0.159397">
        <ele>1033.2</ele>
        <time>2018-06-14T08:24:09Z</time>
      </trkpt>
      <trkpt lat="42.487971" lon="-0.160179">
        <ele>1039.5</ele>
        <time>2018-06-14T08:24:24Z</time>
      </trkpt>
      <trkpt lat="42.487854" lon="-0.160487">
        <ele>1040.4</ele>
        <time>2018-06-14T08:24:31Z</time>
      </trkpt>
      <trkpt lat="42.487692" lon="-0.160708">
        <ele>1042.7</ele>
        <time>2018-06-14T08:24:37Z</time>
      </trkpt>
      <trkpt lat="42.487534" lon="-0.160827">
        <ele>1047.4</ele>
        <time>2018-06-14T08:24:42Z</time>
      </trkpt>
      <trkpt lat="42.487357" lon="-0.160954">
        <ele>1049.8</ele>
        <time>2018-06-14T08:24:48Z</time>
      </trkpt>
      <trkpt lat="42.487194" lon="-0.161088">
        <ele>1052.5</ele>
        <time>2018-06-14T08:24:53Z</time>
      </trkpt>
      <trkpt lat="42.487105" lon="-0.161241">
        <ele>1048.1</ele>
        <time>2018-06-14T08:24:57Z</time>
      </trkpt>
      <trkpt lat="42.486966" lon="-0.161410">
        <ele>1049.7</ele>
        <time>2018-06-14T08:25:02Z</time>
      </trkpt>
      <trkpt lat="42.486746" lon="-0.161669">
        <ele>1050.4</ele>
        <time>2018-06-14T08:25:09Z</time>
      </trkpt>
      <trkpt lat="42.486578" lon="-0.161863">
        <ele>1050.8</ele>
        <time>2018-06-14T08:25:15Z</time>
      </trkpt>
      <trkpt lat="42.486405" lon="-0.161930">
        <ele>1053.8</ele>
        <time>2018-06-14T08:25:20Z</time>
      </trkpt>
      <trkpt lat="42.486152" lon="-0.162147">
        <ele>1054.1</ele>
        <time>2018-06-14T08:25:28Z</time>
      </trkpt>
      <trkpt lat="42.485385" lon="-0.163002">
        <ele>1059.1</ele>
        <time>2018-06-14T08:25:54Z</time>
      </trkpt>
      <trkpt lat="42.485262" lon="-0.163126">
        <ele>1064.0</ele>
        <time>2018-06-14T08:25:58Z</time>
      </trkpt>
      <trkpt lat="42.484940" lon="-0.163235">
        <ele>1072.2</ele>
        <time>2018-06-14T08:26:07Z</time>
      </trkpt>
      <trkpt lat="42.484898" lon="-0.163329">
        <ele>1074.4</ele>
        <time>2018-06-14T08:26:10Z</time>
      </trkpt>
      <trkpt lat="42.484945" lon="-0.163418">
        <ele>1075.2</ele>
        <time>2018-06-14T08:26:12Z</time>
      </trkpt>
      <trkpt lat="42.485134" lon="-0.163507">
        <ele>1075.4</ele>
        <time>2018-06-14T08:26:17Z</time>
      </trkpt>
      <trkpt lat="42.485435" lon="-0.163534">
        <ele>1075.4</ele>
        <time>2018-06-14T08:26:25Z</time>
      </trkpt>
      <trkpt lat="42.485667" lon="-0.163476">
        <ele>1071.4</ele>
        <time>2018-06-14T08:26:31Z</time>
      </trkpt>
      <trkpt lat="42.485713" lon="-0.163535">
        <ele>1074.6</ele>
        <time>2018-06-14T08:26:33Z</time>
      </trkpt>
      <trkpt lat="42.485694" lon="-0.163658">
        <ele>1081.7</ele>
        <time>2018-06-14T08:26:36Z</time>
      </trkpt>
      <trkpt lat="42.485135" lon="-0.163805">
        <ele>1086.2</ele>
        <time>2018-06-14T08:26:51Z</time>
      </trkpt>
      <trkpt lat="42.484819" lon="-0.164035">
        <ele>1093.0</ele>
        <time>2018-06-14T08:27:01Z</time>
      </trkpt>
      <trkpt lat="42.484513" lon="-0.164137">
        <ele>1095.9</ele>
        <time>2018-06-14T08:27:09Z</time>
      </trkpt>
      <trkpt lat="42.484359" lon="-0.164296">
        <ele>1100.8</ele>
        <time>2018-06-14T08:27:15Z</time>
      </trkpt>
      <trkpt lat="42.484339" lon="-0.164418">
        <ele>1104.3</ele>
        <time>2018-06-14T08:27:17Z</time>
      </trkpt>
      <trkpt lat="42.484454" lon="-0.164504">
        <ele>1109.8</ele>
        <time>2018-06-14T08:27:21Z</time>
      </trkpt>
      <trkpt lat="42.484658" lon="-0.164556">
        <ele>1114.8</ele>
        <time>2018-06-14T08:27:27Z</time>
      </trkpt>
      <trkpt lat="42.485124" lon="-0.164637">
        <ele>1107.1</ele>
        <time>2018-06-14T08:27:39Z</time>
      </trkpt>
      <trkpt lat="42.485233" lon="-0.164663">
        <ele>1106.6</ele>
        <time>2018-06-14T08:27:42Z</time>
      </trkpt>
      <trkpt lat="42.485282" lon="-0.164743">
        <ele>1109.3</ele>
        <time>2018-06-14T08:27:44Z</time>
      </trkpt>
      <trkpt lat="42.485321" lon="-0.164877">
        <ele>1114.4</ele>
        <time>2018-06-14T08:27:47Z</time>
      </trkpt>
      <trkpt lat="42.485311" lon="-0.165077">
        <ele>1126.6</ele>
        <time>2018-06-14T08:27:52Z</time>
      </trkpt>
      <trkpt lat="42.485351" lon="-0.165255">
        <ele>1135.1</ele>
        <time>2018-06-14T08:27:56Z</time>
      </trkpt>
      <trkpt lat="42.485464" lon="-0.165605">
        <ele>1146.8</ele>
        <time>2018-06-14T08:28:04Z</time>
      </trkpt>
      <trkpt lat="42.485569" lon="-0.165883">
        <ele>1153.6</ele>
        <time>2018-06-14T08:28:11Z</time>
      </trkpt>
      <trkpt lat="42.485707" lon="-0.166029">
        <ele>1154.3</ele>
        <time>2018-06-14T08:28:15Z</time>
      </trkpt>
      <trkpt lat="42.485866" lon="-0.166053">
        <ele>1153.2</ele>
        <time>2018-06-14T08:28:20Z</time>
      </trkpt>
      <trkpt lat="42.486333" lon="-0.165819">
        <ele>1137.9</ele>
        <time>2018-06-14T08:28:33Z</time>
      </trkpt>
      <trkpt lat="42.486686" lon="-0.165652">
        <ele>1126.5</ele>
        <time>2018-06-14T08:28:44Z</time>
      </trkpt>
      <trkpt lat="42.487061" lon="-0.165572">
        <ele>1128.6</ele>
        <time>2018-06-14T08:28:54Z</time>
      </trkpt>
      <trkpt lat="42.487283" lon="-0.165619">
        <ele>1136.9</ele>
        <time>2018-06-14T08:29:00Z</time>
      </trkpt>
      <trkpt lat="42.487565" lon="-0.165611">
        <ele>1144.3</ele>
        <time>2018-06-14T08:29:08Z</time>
      </trkpt>
      <trkpt lat="42.488005" lon="-0.165195">
        <ele>1140.5</ele>
        <time>2018-06-14T08:29:22Z</time>
      </trkpt>
      <trkpt lat="42.488137" lon="-0.165131">
        <ele>1141.6</ele>
        <time>2018-06-14T08:29:26Z</time>
      </trkpt>
      <trkpt lat="42.488192" lon="-0.165148">
        <ele>1143.2</ele>
        <time>2018-06-14T08:29:27Z</time>
      </trkpt>
      <trkpt lat="42.488216" lon="-0.165228">
        <ele>1145.3</ele>
        <time>2018-06-14T08:29:29Z</time>
      </trkpt>
      <trkpt lat="42.488200" lon="-0.165341">
        <ele>1148.8</ele>
        <time>2018-06-14T08:29:31Z</time>
      </trkpt>
      <trkpt lat="42.487868" lon="-0.166023">
        <ele>1165.7</ele>
        <time>2018-06-14T08:29:48Z</time>
      </trkpt>
      <trkpt lat="42.487899" lon="-0.166076">
        <ele>1167.2</ele>
        <time>2018-06-14T08:29:49Z</time>
      </trkpt>
      <trkpt lat="42.487943" lon="-0.166140">
        <ele>1168.5</ele>
        <time>2018-06-14T08:29:51Z</time>
      </trkpt>
      <trkpt lat="42.488042" lon="-0.166127">
        <ele>1168.0</ele>
        <time>2018-06-14T08:29:54Z</time>
      </trkpt>
      <trkpt lat="42.488135" lon="-0.166033">
        <ele>1167.0</ele>
        <time>2018-06-14T08:29:57Z</time>
      </trkpt>
      <trkpt lat="42.488248" lon="-0.165914">
        <ele>1165.3</ele>
        <time>2018-06-14T08:30:01Z</time>
      </trkpt>
      <trkpt lat="42.488364" lon="-0.166031">
        <ele>1167.3</ele>
        <time>2018-06-14T08:30:04Z</time>
      </trkpt>
      <trkpt lat="42.488398" lon="-0.166183">
        <ele>1169.8</ele>
        <time>2018-06-14T08:30:08Z</time>
      </trkpt>
      <trkpt lat="42.488335" lon="-0.166499">
        <ele>1179.0</ele>
        <time>2018-06-14T08:30:14Z</time>
      </trkpt>
      <trkpt lat="42.488221" lon="-0.166646">
        <ele>1185.7</ele>
        <time>2018-06-14T08:30:19Z</time>
      </trkpt>
      <trkpt lat="42.488001" lon="-0.166838">
        <ele>1191.2</ele>
        <time>2018-06-14T08:30:26Z</time>
      </trkpt>
      <trkpt lat="42.487781" lon="-0.166945">
        <ele>1195.5</ele>
        <time>2018-06-14T08:30:32Z</time>
      </trkpt>
      <trkpt lat="42.487539" lon="-0.166971">
        <ele>1197.5</ele>
        <time>2018-06-14T08:30:39Z</time>
      </trkpt>
      <trkpt lat="42.487251" lon="-0.166907">
        <ele>1192.6</ele>
        <time>2018-06-14T08:30:46Z</time>
      </trkpt>
      <trkpt lat="42.487058" lon="-0.166941">
        <ele>1189.1</ele>
        <time>2018-06-14T08:30:52Z</time>
      </trkpt>
      <trkpt lat="42.486878" lon="-0.167162">
        <ele>1196.1</ele>
        <time>2018-06-14T08:30:58Z</time>
      </trkpt>
      <trkpt lat="42.486706" lon="-0.167296">
        <ele>1200.7</ele>
        <time>2018-06-14T08:31:04Z</time>
      </trkpt>
      <trkpt lat="42.486514" lon="-0.167336">
        <ele>1198.4</ele>
        <time>2018-06-14T08:31:09Z</time>
      </trkpt>
      <trkpt lat="42.486487" lon="-0.167385">
        <ele>1201.6</ele>
        <time>2018-06-14T08:31:10Z</time>
      </trkpt>
      <trkpt lat="42.486474" lon="-0.167443">
        <ele>1205.6</ele>
        <time>2018-06-14T08:31:12Z</time>
      </trkpt>
      <trkpt lat="42.486523" lon="-0.167492">
        <ele>1209.9</ele>
        <time>2018-06-14T08:31:14Z</time>
      </trkpt>
      <trkpt lat="42.486573" lon="-0.167503">
        <ele>1211.7</ele>
        <time>2018-06-14T08:31:15Z</time>
      </trkpt>
      <trkpt lat="42.486755" lon="-0.167442">
        <ele>1211.4</ele>
        <time>2018-06-14T08:31:20Z</time>
      </trkpt>
      <trkpt lat="42.487194" lon="-0.167383">
        <ele>1210.8</ele>
        <time>2018-06-14T08:31:32Z</time>
      </trkpt>
      <trkpt lat="42.487282" lon="-0.167374">
        <ele>1210.5</ele>
        <time>2018-06-14T08:31:34Z</time>
      </trkpt>
      <trkpt lat="42.487366" lon="-0.167383">
        <ele>1211.4</ele>
        <time>2018-06-14T08:31:36Z</time>
      </trkpt>
      <trkpt lat="42.487453" lon="-0.167441">
        <ele>1216.0</ele>
        <time>2018-06-14T08:31:39Z</time>
      </trkpt>
      <trkpt lat="42.487632" lon="-0.167577">
        <ele>1225.0</ele>
        <time>2018-06-14T08:31:45Z</time>
      </trkpt>
      <trkpt lat="42.487841" lon="-0.167666">
        <ele>1230.6</ele>
        <time>2018-06-14T08:31:51Z</time>
      </trkpt>
      <trkpt lat="42.488114" lon="-0.167776">
        <ele>1238.8</ele>
        <time>2018-06-14T08:31:59Z</time>
      </trkpt>
      <trkpt lat="42.488384" lon="-0.167764">
        <ele>1235.1</ele>
        <time>2018-06-14T08:32:06Z</time>
      </trkpt>
      <trkpt lat="42.488518" lon="-0.167727">
        <ele>1231.9</ele>
        <time>2018-06-14T08:32:10Z</time>
      </trkpt>
      <trkpt lat="42.488625" lon="-0.167509">
        <ele>1225.6</ele>
        <time>2018-06-14T08:32:15Z</time>
      </trkpt>
      <trkpt lat="42.488737" lon="-0.167474">
        <ele>1224.7</ele>
        <time>2018-06-14T08:32:18Z</time>
      </trkpt>
      <trkpt lat="42.488808" lon="-0.167592">
        <ele>1226.1</ele>
        <time>2018-06-14T08:32:21Z</time>
      </trkpt>
      <trkpt lat="42.488899" lon="-0.167797">
        <ele>1229.3</ele>
        <time>2018-06-14T08:32:26Z</time>
      </trkpt>
      <trkpt lat="42.489061" lon="-0.168111">
        <ele>1233.2</ele>
        <time>2018-06-14T08:32:33Z</time>
      </trkpt>
      <trkpt lat="42.489209" lon="-0.168365">
        <ele>1234.0</ele>
        <time>2018-06-14T08:32:40Z</time>
      </trkpt>
      <trkpt lat="42.489269" lon="-0.168971">
        <ele>1248.5</ele>
        <time>2018-06-14T08:32:52Z</time>
      </trkpt>
      <trkpt lat="42.489255" lon="-0.169306">
        <ele>1258.9</ele>
        <time>2018-06-14T08:32:59Z</time>
      </trkpt>
      <trkpt lat="42.489132" lon="-0.169737">
        <ele>1273.6</ele>
        <time>2018-06-14T08:33:09Z</time>
      </trkpt>
      <trkpt lat="42.489094" lon="-0.170074">
        <ele>1279.2</ele>
        <time>2018-06-14T08:33:16Z</time>
      </trkpt>
      <trkpt lat="42.489180" lon="-0.170830">
        <ele>1289.3</ele>
        <time>2018-06-14T08:33:31Z</time>
      </trkpt>
      <trkpt lat="42.489278" lon="-0.171160">
        <ele>1291.5</ele>
        <time>2018-06-14T08:33:38Z</time>
      </trkpt>
      <trkpt lat="42.489373" lon="-0.171338">
        <ele>1291.8</ele>
        <time>2018-06-14T08:33:42Z</time>
      </trkpt>
      <trkpt lat="42.489717" lon="-0.171967">
        <ele>1299.2</ele>
        <time>2018-06-14T08:33:58Z</time>
      </trkpt>
      <trkpt lat="42.489846" lon="-0.172260">
        <ele>1304.3</ele>
        <time>2018-06-14T08:34:04Z</time>
      </trkpt>
      <trkpt lat="42.489939" lon="-0.172408">
        <ele>1305.0</ele>
        <time>2018-06-14T08:34:08Z</time>
      </trkpt>
      <trkpt lat="42.491011" lon="-0.172938">
        <ele>1316.1</ele>
        <time>2018-06-14T08:34:38Z</time>
      </trkpt>
      <trkpt lat="42.491471" lon="-0.173373">
        <ele>1316.5</ele>
        <time>2018-06-14T08:34:53Z</time>
      </trkpt>
      <trkpt lat="42.491623" lon="-0.173816">
        <ele>1320.6</ele>
        <time>2018-06-14T08:35:03Z</time>
      </trkpt>
      <trkpt lat="42.491744" lon="-0.174365">
        <ele>1331.0</ele>
        <time>2018-06-14T08:35:14Z</time>
      </trkpt>
      <trkpt lat="42.491793" lon="-0.174525">
        <ele>1334.3</ele>
        <time>2018-06-14T08:35:18Z</time>
      </trkpt>
      <trkpt lat="42.491895" lon="-0.174653">
        <ele>1335.1</ele>
        <time>2018-06-14T08:35:22Z</time>
      </trkpt>
      <trkpt lat="42.492014" lon="-0.174820">
        <ele>1336.5</ele>
        <time>2018-06-14T08:35:26Z</time>
      </trkpt>
      <trkpt lat="42.492149" lon="-0.175136">
        <ele>1341.8</ele>
        <time>2018-06-14T08:35:33Z</time>
      </trkpt>
      <trkpt lat="42.492180" lon="-0.175227">
        <ele>1342.4</ele>
        <time>2018-06-14T08:35:35Z</time>
      </trkpt>
      <trkpt lat="42.492239" lon="-0.175285">
        <ele>1341.6</ele>
        <time>2018-06-14T08:35:37Z</time>
      </trkpt>
      <trkpt lat="42.492402" lon="-0.175292">
        <ele>1336.8</ele>
        <time>2018-06-14T08:35:42Z</time>
      </trkpt>
      <trkpt lat="42.492580" lon="-0.175217">
        <ele>1329.1</ele>
        <time>2018-06-14T08:35:47Z</time>
      </trkpt>
      <trkpt lat="42.492706" lon="-0.175190">
        <ele>1325.5</ele>
        <time>2018-06-14T08:35:51Z</time>
      </trkpt>
      <trkpt lat="42.492823" lon="-0.175228">
        <ele>1323.8</ele>
        <time>2018-06-14T08:35:54Z</time>
      </trkpt>
      <trkpt lat="42.493008" lon="-0.175302">
        <ele>1322.6</ele>
        <time>2018-06-14T08:35:59Z</time>
      </trkpt>
      <trkpt lat="42.493176" lon="-0.175555">
        <ele>1325.1</ele>
        <time>2018-06-14T08:36:06Z</time>
      </trkpt>
      <trkpt lat="42.493260" lon="-0.175876">
        <ele>1327.0</ele>
        <time>2018-06-14T08:36:12Z</time>
      </trkpt>
      <trkpt lat="42.493250" lon="-0.176117">
        <ele>1328.3</ele>
        <time>2018-06-14T08:36:17Z</time>
      </trkpt>
      <trkpt lat="42.493189" lon="-0.176368">
        <ele>1330.4</ele>
        <time>2018-06-14T08:36:22Z</time>
      </trkpt>
      <trkpt lat="42.493214" lon="-0.177401">
        <ele>1343.1</ele>
        <time>2018-06-14T08:36:43Z</time>
      </trkpt>
      <trkpt lat="42.493330" lon="-0.178460">
        <ele>1332.6</ele>
        <time>2018-06-14T08:37:04Z</time>
      </trkpt>
      <trkpt lat="42.493189" lon="-0.179136">
        <ele>1335.2</ele>
        <time>2018-06-14T08:37:17Z</time>
      </trkpt>
      <trkpt lat="42.493193" lon="-0.180200">
        <ele>1330.0</ele>
        <time>2018-06-14T08:37:38Z</time>
      </trkpt>
      <trkpt lat="42.493099" lon="-0.180965">
        <ele>1335.1</ele>
        <time>2018-06-14T08:37:54Z</time>
      </trkpt>
      <trkpt lat="42.493006" lon="-0.181760">
        <ele>1340.5</ele>
        <time>2018-06-14T08:38:09Z</time>
      </trkpt>
      <trkpt lat="42.493018" lon="-0.182216">
        <ele>1339.8</ele>
        <time>2018-06-14T08:38:18Z</time>
      </trkpt>
      <trkpt lat="42.493247" lon="-0.183300">
        <ele>1318.6</ele>
        <time>2018-06-14T08:38:41Z</time>
      </trkpt>
      <trkpt lat="42.493222" lon="-0.184123">
        <ele>1312.3</ele>
        <time>2018-06-14T08:38:57Z</time>
      </trkpt>
      <trkpt lat="42.493147" lon="-0.184735">
        <ele>1307.9</ele>
        <time>2018-06-14T08:39:09Z</time>
      </trkpt>
      <trkpt lat="42.493167" lon="-0.185555">
        <ele>1295.2</ele>
        <time>2018-06-14T08:39:26Z</time>
      </trkpt>
      <trkpt lat="42.492910" lon="-0.186084">
        <ele>1294.5</ele>
        <time>2018-06-14T08:39:38Z</time>
      </trkpt>
      <trkpt lat="42.492930" lon="-0.186201">
        <ele>1291.0</ele>
        <time>2018-06-14T08:39:40Z</time>
      </trkpt>
      <trkpt lat="42.493025" lon="-0.186170">
        <ele>1289.8</ele>
        <time>2018-06-14T08:39:43Z</time>
      </trkpt>
      <trkpt lat="42.493352" lon="-0.185729">
        <ele>1287.3</ele>
        <time>2018-06-14T08:39:55Z</time>
      </trkpt>
      <trkpt lat="42.493575" lon="-0.185158">
        <ele>1284.2</ele>
        <time>2018-06-14T08:40:08Z</time>
      </trkpt>
      <trkpt lat="42.493644" lon="-0.185045">
        <ele>1283.1</ele>
        <time>2018-06-14T08:40:11Z</time>
      </trkpt>
      <trkpt lat="42.493698" lon="-0.185091">
        <ele>1280.6</ele>
        <time>2018-06-14T08:40:13Z</time>
      </trkpt>
      <trkpt lat="42.493748" lon="-0.185185">
        <ele>1278.1</ele>
        <time>2018-06-14T08:40:15Z</time>
      </trkpt>
      <trkpt lat="42.493701" lon="-0.185288">
        <ele>1279.7</ele>
        <time>2018-06-14T08:40:17Z</time>
      </trkpt>
      <trkpt lat="42.493663" lon="-0.185593">
        <ele>1278.5</ele>
        <time>2018-06-14T08:40:23Z</time>
      </trkpt>
      <trkpt lat="42.493564" lon="-0.186115">
        <ele>1277.8</ele>
        <time>2018-06-14T08:40:34Z</time>
      </trkpt>
      <trkpt lat="42.493506" lon="-0.186194">
        <ele>1278.8</ele>
        <time>2018-06-14T08:40:36Z</time>
      </trkpt>
      <trkpt lat="42.493467" lon="-0.186341">
        <ele>1276.5</ele>
        <time>2018-06-14T08:40:39Z</time>
      </trkpt>
      <trkpt lat="42.493482" lon="-0.186414">
        <ele>1274.0</ele>
        <time>2018-06-14T08:40:41Z</time>
      </trkpt>
      <trkpt lat="42.493575" lon="-0.186354">
        <ele>1272.9</ele>
        <time>2018-06-14T08:40:44Z</time>
      </trkpt>
      <trkpt lat="42.493807" lon="-0.185952">
        <ele>1270.1</ele>
        <time>2018-06-14T08:40:54Z</time>
      </trkpt>
      <trkpt lat="42.494044" lon="-0.185516">
        <ele>1266.1</ele>
        <time>2018-06-14T08:41:04Z</time>
      </trkpt>
      <trkpt lat="42.494237" lon="-0.185142">
        <ele>1265.9</ele>
        <time>2018-06-14T08:41:13Z</time>
      </trkpt>
      <trkpt lat="42.494513" lon="-0.184460">
        <ele>1261.6</ele>
        <time>2018-06-14T08:41:28Z</time>
      </trkpt>
      <trkpt lat="42.494478" lon="-0.183945">
        <ele>1258.4</ele>
        <time>2018-06-14T08:41:39Z</time>
      </trkpt>
      <trkpt lat="42.494636" lon="-0.183968">
        <ele>1253.1</ele>
        <time>2018-06-14T08:41:43Z</time>
      </trkpt>
      <trkpt lat="42.494731" lon="-0.184146">
        <ele>1254.0</ele>
        <time>2018-06-14T08:41:47Z</time>
      </trkpt>
      <trkpt lat="42.494698" lon="-0.185547">
        <ele>1250.5</ele>
        <time>2018-06-14T08:42:15Z</time>
      </trkpt>
      <trkpt lat="42.494739" lon="-0.186306">
        <ele>1240.2</ele>
        <time>2018-06-14T08:42:30Z</time>
      </trkpt>
      <trkpt lat="42.494826" lon="-0.187123">
        <ele>1233.3</ele>
        <time>2018-06-14T08:42:46Z</time>
      </trkpt>
      <trkpt lat="42.494997" lon="-0.187663">
        <ele>1225.2</ele>
        <time>2018-06-14T08:42:58Z</time>
      </trkpt>
      <trkpt lat="42.495083" lon="-0.187978">
        <ele>1221.4</ele>
        <time>2018-06-14T08:43:04Z</time>
      </trkpt>
      <trkpt lat="42.495170" lon="-0.188089">
        <ele>1219.9</ele>
        <time>2018-06-14T08:43:07Z</time>
      </trkpt>
      <trkpt lat="42.495544" lon="-0.188650">
        <ele>1211.1</ele>
        <time>2018-06-14T08:43:22Z</time>
      </trkpt>
      <trkpt lat="42.495985" lon="-0.189208">
        <ele>1211.8</ele>
        <time>2018-06-14T08:43:38Z</time>
      </trkpt>
      <trkpt lat="42.496556" lon="-0.190430">
        <ele>1202.6</ele>
        <time>2018-06-14T08:44:07Z</time>
      </trkpt>
      <trkpt lat="42.496738" lon="-0.190845">
        <ele>1203.5</ele>
        <time>2018-06-14T08:44:16Z</time>
      </trkpt>
      <trkpt lat="42.496910" lon="-0.191114">
        <ele>1206.7</ele>
        <time>2018-06-14T08:44:23Z</time>
      </trkpt>
      <trkpt lat="42.497068" lon="-0.191137">
        <ele>1208.4</ele>
        <time>2018-06-14T08:44:27Z</time>
      </trkpt>
      <trkpt lat="42.497313" lon="-0.191005">
        <ele>1212.2</ele>
        <time>2018-06-14T08:44:35Z</time>
      </trkpt>
      <trkpt lat="42.497446" lon="-0.190938">
        <ele>1212.1</ele>
        <time>2018-06-14T08:44:38Z</time>
      </trkpt>
      <trkpt lat="42.497669" lon="-0.190867">
        <ele>1209.7</ele>
        <time>2018-06-14T08:44:44Z</time>
      </trkpt>
      <trkpt lat="42.497872" lon="-0.190858">
        <ele>1203.0</ele>
        <time>2018-06-14T08:44:50Z</time>
      </trkpt>
      <trkpt lat="42.498123" lon="-0.190999">
        <ele>1195.0</ele>
        <time>2018-06-14T08:44:57Z</time>
      </trkpt>
      <trkpt lat="42.498310" lon="-0.191264">
        <ele>1191.8</ele>
        <time>2018-06-14T08:45:05Z</time>
      </trkpt>
      <trkpt lat="42.498561" lon="-0.191435">
        <ele>1192.5</ele>
        <time>2018-06-14T08:45:12Z</time>
      </trkpt>
      <trkpt lat="42.498857" lon="-0.191574">
        <ele>1193.3</ele>
        <time>2018-06-14T08:45:20Z</time>
      </trkpt>
      <trkpt lat="42.499086" lon="-0.191716">
        <ele>1193.6</ele>
        <time>2018-06-14T08:45:27Z</time>
      </trkpt>
      <trkpt lat="42.499468" lon="-0.192215">
        <ele>1193.9</ele>
        <time>2018-06-14T08:45:41Z</time>
      </trkpt>
      <trkpt lat="42.499642" lon="-0.192361">
        <ele>1193.6</ele>
        <time>2018-06-14T08:45:47Z</time>
      </trkpt>
      <trkpt lat="42.499826" lon="-0.192504">
        <ele>1195.2</ele>
        <time>2018-06-14T08:45:52Z</time>
      </trkpt>
      <trkpt lat="42.499873" lon="-0.192594">
        <ele>1195.1</ele>
        <time>2018-06-14T08:45:54Z</time>
      </trkpt>
      <trkpt lat="42.499830" lon="-0.192687">
        <ele>1194.8</ele>
        <time>2018-06-14T08:45:57Z</time>
      </trkpt>
      <trkpt lat="42.499697" lon="-0.192784">
        <ele>1194.7</ele>
        <time>2018-06-14T08:46:01Z</time>
      </trkpt>
      <trkpt lat="42.499542" lon="-0.192852">
        <ele>1195.2</ele>
        <time>2018-06-14T08:46:05Z</time>
      </trkpt>
      <trkpt lat="42.499255" lon="-0.193108">
        <ele>1199.3</ele>
        <time>2018-06-14T08:46:14Z</time>
      </trkpt>
      <trkpt lat="42.499077" lon="-0.193177">
        <ele>1201.4</ele>
        <time>2018-06-14T08:46:19Z</time>
      </trkpt>
      <trkpt lat="42.498963" lon="-0.193121">
        <ele>1201.4</ele>
        <time>2018-06-14T08:46:22Z</time>
      </trkpt>
      <trkpt lat="42.498621" lon="-0.192954">
        <ele>1205.3</ele>
        <time>2018-06-14T08:46:32Z</time>
      </trkpt>
      <trkpt lat="42.498344" lon="-0.192662">
        <ele>1205.7</ele>
        <time>2018-06-14T08:46:41Z</time>
      </trkpt>
      <trkpt lat="42.498161" lon="-0.192549">
        <ele>1208.1</ele>
        <time>2018-06-14T08:46:47Z</time>
      </trkpt>
      <trkpt lat="42.497984" lon="-0.192678">
        <ele>1215.4</ele>
        <time>2018-06-14T08:46:52Z</time>
      </trkpt>
      <trkpt lat="42.497899" lon="-0.192865">
        <ele>1215.9</ele>
        <time>2018-06-14T08:46:56Z</time>
      </trkpt>
      <trkpt lat="42.497451" lon="-0.193888">
        <ele>1216.5</ele>
        <time>2018-06-14T08:47:20Z</time>
      </trkpt>
      <trkpt lat="42.496947" lon="-0.194459">
        <ele>1223.1</ele>
        <time>2018-06-14T08:47:37Z</time>
      </trkpt>
      <trkpt lat="42.496431" lon="-0.194512">
        <ele>1226.0</ele>
        <time>2018-06-14T08:47:51Z</time>
      </trkpt>
      <trkpt lat="42.495835" lon="-0.195025">
        <ele>1232.7</ele>
        <time>2018-06-14T08:48:10Z</time>
      </trkpt>
      <trkpt lat="42.495260" lon="-0.195416">
        <ele>1245.6</ele>
        <time>2018-06-14T08:48:27Z</time>
      </trkpt>
      <trkpt lat="42.495063" lon="-0.195663">
        <ele>1246.4</ele>
        <time>2018-06-14T08:48:34Z</time>
      </trkpt>
      <trkpt lat="42.494969" lon="-0.195877">
        <ele>1245.2</ele>
        <time>2018-06-14T08:48:39Z</time>
      </trkpt>
      <trkpt lat="42.494984" lon="-0.196044">
        <ele>1241.1</ele>
        <time>2018-06-14T08:48:42Z</time>
      </trkpt>
      <trkpt lat="42.494987" lon="-0.196219">
        <ele>1238.8</ele>
        <time>2018-06-14T08:48:46Z</time>
      </trkpt>
      <trkpt lat="42.494926" lon="-0.196496">
        <ele>1240.5</ele>
        <time>2018-06-14T08:48:52Z</time>
      </trkpt>
      <trkpt lat="42.494930" lon="-0.196648">
        <ele>1242.9</ele>
        <time>2018-06-14T08:48:55Z</time>
      </trkpt>
      <trkpt lat="42.494999" lon="-0.196706">
        <ele>1242.9</ele>
        <time>2018-06-14T08:48:57Z</time>
      </trkpt>
      <trkpt lat="42.495172" lon="-0.196454">
        <ele>1235.7</ele>
        <time>2018-06-14T08:49:04Z</time>
      </trkpt>
      <trkpt lat="42.495284" lon="-0.196419">
        <ele>1236.3</ele>
        <time>2018-06-14T08:49:07Z</time>
      </trkpt>
      <trkpt lat="42.495581" lon="-0.196645">
        <ele>1239.8</ele>
        <time>2018-06-14T08:49:16Z</time>
      </trkpt>
      <trkpt lat="42.495812" lon="-0.196820">
        <ele>1245.5</ele>
        <time>2018-06-14T08:49:23Z</time>
      </trkpt>
      <trkpt lat="42.495950" lon="-0.196967">
        <ele>1253.9</ele>
        <time>2018-06-14T08:49:28Z</time>
      </trkpt>
      <trkpt lat="42.496109" lon="-0.197021">
        <ele>1256.8</ele>
        <time>2018-06-14T08:49:32Z</time>
      </trkpt>
      <trkpt lat="42.496421" lon="-0.196885">
        <ele>1256.3</ele>
        <time>2018-06-14T08:49:41Z</time>
      </trkpt>
      <trkpt lat="42.496462" lon="-0.196701">
        <ele>1253.1</ele>
        <time>2018-06-14T08:49:45Z</time>
      </trkpt>
      <trkpt lat="42.496504" lon="-0.196577">
        <ele>1251.5</ele>
        <time>2018-06-14T08:49:48Z</time>
      </trkpt>
      <trkpt lat="42.496547" lon="-0.196515">
        <ele>1251.8</ele>
        <time>2018-06-14T08:49:49Z</time>
      </trkpt>
      <trkpt lat="42.496616" lon="-0.196572">
        <ele>1255.5</ele>
        <time>2018-06-14T08:49:52Z</time>
      </trkpt>
      <trkpt lat="42.496659" lon="-0.197146">
        <ele>1266.1</ele>
        <time>2018-06-14T08:50:03Z</time>
      </trkpt>
      <trkpt lat="42.496714" lon="-0.197461">
        <ele>1270.8</ele>
        <time>2018-06-14T08:50:10Z</time>
      </trkpt>
      <trkpt lat="42.496651" lon="-0.198001">
        <ele>1278.2</ele>
        <time>2018-06-14T08:50:21Z</time>
      </trkpt>
      <trkpt lat="42.496694" lon="-0.198176">
        <ele>1281.0</ele>
        <time>2018-06-14T08:50:24Z</time>
      </trkpt>
      <trkpt lat="42.496910" lon="-0.198445">
        <ele>1281.2</ele>
        <time>2018-06-14T08:50:32Z</time>
      </trkpt>
      <trkpt lat="42.497077" lon="-0.198864">
        <ele>1286.1</ele>
        <time>2018-06-14T08:50:41Z</time>
      </trkpt>
      <trkpt lat="42.497095" lon="-0.199593">
        <ele>1300.2</ele>
        <time>2018-06-14T08:50:56Z</time>
      </trkpt>
      <trkpt lat="42.497269" lon="-0.200255">
        <ele>1309.4</ele>
        <time>2018-06-14T08:51:10Z</time>
      </trkpt>
      <trkpt lat="42.497366" lon="-0.200554">
        <ele>1311.4</ele>
        <time>2018-06-14T08:51:16Z</time>
      </trkpt>
      <trkpt lat="42.497257" lon="-0.200681">
        <ele>1313.6</ele>
        <time>2018-06-14T08:51:20Z</time>
      </trkpt>
      <trkpt lat="42.497144" lon="-0.200656">
        <ele>1314.3</ele>
        <time>2018-06-14T08:51:23Z</time>
      </trkpt>
      <trkpt lat="42.496762" lon="-0.199790">
        <ele>1307.0</ele>
        <time>2018-06-14T08:51:43Z</time>
      </trkpt>
      <trkpt lat="42.496623" lon="-0.199614">
        <ele>1304.0</ele>
        <time>2018-06-14T08:51:48Z</time>
      </trkpt>
      <trkpt lat="42.496352" lon="-0.199596">
        <ele>1305.0</ele>
        <time>2018-06-14T08:51:55Z</time>
      </trkpt>
      <trkpt lat="42.496127" lon="-0.199552">
        <ele>1302.3</ele>
        <time>2018-06-14T08:52:01Z</time>
      </trkpt>
      <trkpt lat="42.496049" lon="-0.199766">
        <ele>1304.9</ele>
        <time>2018-06-14T08:52:06Z</time>
      </trkpt>
      <trkpt lat="42.495968" lon="-0.200465">
        <ele>1314.7</ele>
        <time>2018-06-14T08:52:20Z</time>
      </trkpt>
      <trkpt lat="42.495699" lon="-0.200853">
        <ele>1315.1</ele>
        <time>2018-06-14T08:52:31Z</time>
      </trkpt>
      <trkpt lat="42.495633" lon="-0.200939">
        <ele>1315.7</ele>
        <time>2018-06-14T08:52:33Z</time>
      </trkpt>
      <trkpt lat="42.495611" lon="-0.200993">
        <ele>1316.4</ele>
        <time>2018-06-14T08:52:34Z</time>
      </trkpt>
      <trkpt lat="42.495608" lon="-0.201082">
        <ele>1318.2</ele>
        <time>2018-06-14T08:52:36Z</time>
      </trkpt>
      <trkpt lat="42.495646" lon="-0.201123">
        <ele>1320.3</ele>
        <time>2018-06-14T08:52:37Z</time>
      </trkpt>
      <trkpt lat="42.495726" lon="-0.201092">
        <ele>1321.7</ele>
        <time>2018-06-14T08:52:40Z</time>
      </trkpt>
      <trkpt lat="42.495910" lon="-0.200959">
        <ele>1322.4</ele>
        <time>2018-06-14T08:52:45Z</time>
      </trkpt>
      <trkpt lat="42.496112" lon="-0.200793">
        <ele>1323.0</ele>
        <time>2018-06-14T08:52:51Z</time>
      </trkpt>
      <trkpt lat="42.496291" lon="-0.200785">
        <ele>1324.8</ele>
        <time>2018-06-14T08:52:56Z</time>
      </trkpt>
      <trkpt lat="42.496439" lon="-0.200874">
        <ele>1326.2</ele>
        <time>2018-06-14T08:53:00Z</time>
      </trkpt>
      <trkpt lat="42.496524" lon="-0.201109">
        <ele>1331.0</ele>
        <time>2018-06-14T08:53:06Z</time>
      </trkpt>
      <trkpt lat="42.496615" lon="-0.201495">
        <ele>1335.5</ele>
        <time>2018-06-14T08:53:14Z</time>
      </trkpt>
      <trkpt lat="42.496786" lon="-0.202588">
        <ele>1343.4</ele>
        <time>2018-06-14T08:53:36Z</time>
      </trkpt>
      <trkpt lat="42.497081" lon="-0.203780">
        <ele>1363.4</ele>
        <time>2018-06-14T08:54:01Z</time>
      </trkpt>
      <trkpt lat="42.497170" lon="-0.204273">
        <ele>1365.9</ele>
        <time>2018-06-14T08:54:11Z</time>
      </trkpt>
      <trkpt lat="42.497237" lon="-0.204454">
        <ele>1365.4</ele>
        <time>2018-06-14T08:54:15Z</time>
      </trkpt>
      <trkpt lat="42.497395" lon="-0.204508">
        <ele>1362.5</ele>
        <time>2018-06-14T08:54:19Z</time>
      </trkpt>
      <trkpt lat="42.497530" lon="-0.204379">
        <ele>1360.8</ele>
        <time>2018-06-14T08:54:23Z</time>
      </trkpt>
      <trkpt lat="42.497643" lon="-0.204140">
        <ele>1357.3</ele>
        <time>2018-06-14T08:54:29Z</time>
      </trkpt>
      <trkpt lat="42.497888" lon="-0.203482">
        <ele>1355.5</ele>
        <time>2018-06-14T08:54:43Z</time>
      </trkpt>
      <trkpt lat="42.497971" lon="-0.203204">
        <ele>1352.9</ele>
        <time>2018-06-14T08:54:49Z</time>
      </trkpt>
      <trkpt lat="42.498082" lon="-0.203108">
        <ele>1353.2</ele>
        <time>2018-06-14T08:54:53Z</time>
      </trkpt>
      <trkpt lat="42.498219" lon="-0.203193">
        <ele>1355.6</ele>
        <time>2018-06-14T08:54:57Z</time>
      </trkpt>
      <trkpt lat="42.498459" lon="-0.203822">
        <ele>1362.6</ele>
        <time>2018-06-14T08:55:11Z</time>
      </trkpt>
      <trkpt lat="42.498727" lon="-0.204278">
        <ele>1371.6</ele>
        <time>2018-06-14T08:55:22Z</time>
      </trkpt>
      <trkpt lat="42.498852" lon="-0.204650">
        <ele>1377.6</ele>
        <time>2018-06-14T08:55:31Z</time>
      </trkpt>
      <trkpt lat="42.499153" lon="-0.205494">
        <ele>1388.0</ele>
        <time>2018-06-14T08:55:49Z</time>
      </trkpt>
      <trkpt lat="42.499423" lon="-0.206395">
        <ele>1399.5</ele>
        <time>2018-06-14T08:56:08Z</time>
      </trkpt>
      <trkpt lat="42.499664" lon="-0.207053">
        <ele>1403.2</ele>
        <time>2018-06-14T08:56:23Z</time>
      </trkpt>
      <trkpt lat="42.499840" lon="-0.207836">
        <ele>1410.6</ele>
        <time>2018-06-14T08:56:39Z</time>
      </trkpt>
      <trkpt lat="42.500157" lon="-0.207883">
        <ele>1406.8</ele>
        <time>2018-06-14T08:56:47Z</time>
      </trkpt>
      <trkpt lat="42.500250" lon="-0.208031">
        <ele>1408.1</ele>
        <time>2018-06-14T08:56:51Z</time>
      </trkpt>
      <trkpt lat="42.499949" lon="-0.208592">
        <ele>1411.4</ele>
        <time>2018-06-14T08:57:05Z</time>
      </trkpt>
      <trkpt lat="42.499698" lon="-0.209394">
        <ele>1401.6</ele>
        <time>2018-06-14T08:57:22Z</time>
      </trkpt>
      <trkpt lat="42.499521" lon="-0.209494">
        <ele>1398.0</ele>
        <time>2018-06-14T08:57:27Z</time>
      </trkpt>
      <trkpt lat="42.499454" lon="-0.209527">
        <ele>1397.2</ele>
        <time>2018-06-14T08:57:29Z</time>
      </trkpt>
      <trkpt lat="42.498486" lon="-0.209540">
        <ele>1398.7</ele>
        <time>2018-06-14T08:57:55Z</time>
      </trkpt>
      <trkpt lat="42.497875" lon="-0.209384">
        <ele>1412.5</ele>
        <time>2018-06-14T08:58:11Z</time>
      </trkpt>
      <trkpt lat="42.497479" lon="-0.209767">
        <ele>1421.7</ele>
        <time>2018-06-14T08:58:24Z</time>
      </trkpt>
      <trkpt lat="42.497371" lon="-0.209985">
        <ele>1422.4</ele>
        <time>2018-06-14T08:58:30Z</time>
      </trkpt>
      <trkpt lat="42.497335" lon="-0.210321">
        <ele>1422.8</ele>
        <time>2018-06-14T08:58:36Z</time>
      </trkpt>
      <trkpt lat="42.497363" lon="-0.210563">
        <ele>1422.4</ele>
        <time>2018-06-14T08:58:41Z</time>
      </trkpt>
      <trkpt lat="42.497442" lon="-0.211016">
        <ele>1423.0</ele>
        <time>2018-06-14T08:58:50Z</time>
      </trkpt>
      <trkpt lat="42.497454" lon="-0.211532">
        <ele>1428.4</ele>
        <time>2018-06-14T08:59:00Z</time>
      </trkpt>
      <trkpt lat="42.497709" lon="-0.212768">
        <ele>1432.8</ele>
        <time>2018-06-14T08:59:25Z</time>
      </trkpt>
      <trkpt lat="42.498186" lon="-0.213842">
        <ele>1430.8</ele>
        <time>2018-06-14T08:59:50Z</time>
      </trkpt>
      <trkpt lat="42.498502" lon="-0.214832">
        <ele>1427.6</ele>
        <time>2018-06-14T09:00:11Z</time>
      </trkpt>
      <trkpt lat="42.498540" lon="-0.215469">
        <ele>1428.2</ele>
        <time>2018-06-14T09:00:24Z</time>
      </trkpt>
      <trkpt lat="42.498483" lon="-0.215867">
        <ele>1426.2</ele>
        <time>2018-06-14T09:00:31Z</time>
      </trkpt>
      <trkpt lat="42.497990" lon="-0.216893">
        <ele>1429.8</ele>
        <time>2018-06-14T09:00:55Z</time>
      </trkpt>
      <trkpt lat="42.497204" lon="-0.217902">
        <ele>1425.0</ele>
        <time>2018-06-14T09:01:24Z</time>
      </trkpt>
      <trkpt lat="42.496585" lon="-0.218355">
        <ele>1414.1</ele>
        <time>2018-06-14T09:01:43Z</time>
      </trkpt>
      <trkpt lat="42.496284" lon="-0.218946">
        <ele>1415.2</ele>
        <time>2018-06-14T09:01:57Z</time>
      </trkpt>
      <trkpt lat="42.496178" lon="-0.219225">
        <ele>1418.2</ele>
        <time>2018-06-14T09:02:03Z</time>
      </trkpt>
      <trkpt lat="42.496701" lon="-0.220358">
        <ele>1415.4</ele>
        <time>2018-06-14T09:02:29Z</time>
      </trkpt>
      <trkpt lat="42.498077" lon="-0.222335">
        <ele>1435.3</ele>
        <time>2018-06-14T09:03:23Z</time>
      </trkpt>
      <trkpt lat="42.498558" lon="-0.222679">
        <ele>1437.9</ele>
        <time>2018-06-14T09:03:37Z</time>
      </trkpt>
      <trkpt lat="42.498923" lon="-0.222875">
        <ele>1440.4</ele>
        <time>2018-06-14T09:03:48Z</time>
      </trkpt>
      <trkpt lat="42.498993" lon="-0.222994">
        <ele>1441.3</ele>
        <time>2018-06-14T09:03:51Z</time>
      </trkpt>
      <trkpt lat="42.499043" lon="-0.223174">
        <ele>1442.8</ele>
        <time>2018-06-14T09:03:54Z</time>
      </trkpt>
      <trkpt lat="42.499031" lon="-0.223601">
        <ele>1444.9</ele>
        <time>2018-06-14T09:04:03Z</time>
      </trkpt>
      <trkpt lat="42.499016" lon="-0.224849">
        <ele>1452.4</ele>
        <time>2018-06-14T09:04:27Z</time>
      </trkpt>
      <trkpt lat="42.499231" lon="-0.225356">
        <ele>1455.5</ele>
        <time>2018-06-14T09:04:39Z</time>
      </trkpt>
      <trkpt lat="42.499509" lon="-0.225709">
        <ele>1450.5</ele>
        <time>2018-06-14T09:04:49Z</time>
      </trkpt>
      <trkpt lat="42.499786" lon="-0.225971">
        <ele>1447.2</ele>
        <time>2018-06-14T09:04:58Z</time>
      </trkpt>
      <trkpt lat="42.500277" lon="-0.226740">
        <ele>1453.3</ele>
        <time>2018-06-14T09:05:18Z</time>
      </trkpt>
      <trkpt lat="42.500698" lon="-0.228303">
        <ele>1465.0</ele>
        <time>2018-06-14T09:05:50Z</time>
      </trkpt>
      <trkpt lat="42.501004" lon="-0.229811">
        <ele>1465.2</ele>
        <time>2018-06-14T09:06:21Z</time>
      </trkpt>
      <trkpt lat="42.501105" lon="-0.230263">
        <ele>1470.4</ele>
        <time>2018-06-14T09:06:30Z</time>
      </trkpt>
      <trkpt lat="42.501658" lon="-0.231573">
        <ele>1475.9</ele>
        <time>2018-06-14T09:07:00Z</time>
      </trkpt>
      <trkpt lat="42.502198" lon="-0.232492">
        <ele>1476.7</ele>
        <time>2018-06-14T09:07:23Z</time>
      </trkpt>
      <trkpt lat="42.502891" lon="-0.234166">
        <ele>1492.4</ele>
        <time>2018-06-14T09:08:01Z</time>
      </trkpt>
      <trkpt lat="42.502962" lon="-0.234315">
        <ele>1492.6</ele>
        <time>2018-06-14T09:08:04Z</time>
      </trkpt>
      <trkpt lat="42.502920" lon="-0.234438">
        <ele>1495.3</ele>
        <time>2018-06-14T09:08:07Z</time>
      </trkpt>
      <trkpt lat="42.502853" lon="-0.234441">
        <ele>1496.9</ele>
        <time>2018-06-14T09:08:09Z</time>
      </trkpt>
      <trkpt lat="42.502737" lon="-0.234325">
        <ele>1497.6</ele>
        <time>2018-06-14T09:08:12Z</time>
      </trkpt>
      <trkpt lat="42.500914" lon="-0.231671">
        <ele>1501.6</ele>
        <time>2018-06-14T09:09:23Z</time>
      </trkpt>
      <trkpt lat="42.500770" lon="-0.231529">
        <ele>1501.7</ele>
        <time>2018-06-14T09:09:28Z</time>
      </trkpt>
      <trkpt lat="42.500594" lon="-0.231472">
        <ele>1502.6</ele>
        <time>2018-06-14T09:09:33Z</time>
      </trkpt>
      <trkpt lat="42.500469" lon="-0.231438">
        <ele>1503.6</ele>
        <time>2018-06-14T09:09:36Z</time>
      </trkpt>
      <trkpt lat="42.500323" lon="-0.231470">
        <ele>1503.0</ele>
        <time>2018-06-14T09:09:40Z</time>
      </trkpt>
      <trkpt lat="42.500173" lon="-0.231598">
        <ele>1500.0</ele>
        <time>2018-06-14T09:09:45Z</time>
      </trkpt>
      <trkpt lat="42.500061" lon="-0.231769">
        <ele>1498.2</ele>
        <time>2018-06-14T09:09:49Z</time>
      </trkpt>
      <trkpt lat="42.499927" lon="-0.232253">
        <ele>1491.1</ele>
        <time>2018-06-14T09:10:00Z</time>
      </trkpt>
      <trkpt lat="42.499856" lon="-0.232600">
        <ele>1487.2</ele>
        <time>2018-06-14T09:10:07Z</time>
      </trkpt>
      <trkpt lat="42.499877" lon="-0.233450">
        <ele>1492.1</ele>
        <time>2018-06-14T09:10:23Z</time>
      </trkpt>
      <trkpt lat="42.500099" lon="-0.234262">
        <ele>1505.8</ele>
        <time>2018-06-14T09:10:41Z</time>
      </trkpt>
      <trkpt lat="42.500189" lon="-0.235201">
        <ele>1499.8</ele>
        <time>2018-06-14T09:10:59Z</time>
      </trkpt>
      <trkpt lat="42.500409" lon="-0.235922">
        <ele>1506.5</ele>
        <time>2018-06-14T09:11:15Z</time>
      </trkpt>
      <trkpt lat="42.500363" lon="-0.236806">
        <ele>1499.5</ele>
        <time>2018-06-14T09:11:32Z</time>
      </trkpt>
      <trkpt lat="42.500512" lon="-0.237377">
        <ele>1495.9</ele>
        <time>2018-06-14T09:11:44Z</time>
      </trkpt>
      <trkpt lat="42.500483" lon="-0.238048">
        <ele>1486.0</ele>
        <time>2018-06-14T09:11:57Z</time>
      </trkpt>
      <trkpt lat="42.500609" lon="-0.238620">
        <ele>1488.6</ele>
        <time>2018-06-14T09:12:09Z</time>
      </trkpt>
      <trkpt lat="42.500827" lon="-0.239250">
        <ele>1489.0</ele>
        <time>2018-06-14T09:12:23Z</time>
      </trkpt>
      <trkpt lat="42.500909" lon="-0.239855">
        <ele>1486.4</ele>
        <time>2018-06-14T09:12:35Z</time>
      </trkpt>
      <trkpt lat="42.500851" lon="-0.241165">
        <ele>1466.8</ele>
        <time>2018-06-14T09:13:01Z</time>
      </trkpt>
      <trkpt lat="42.501090" lon="-0.241763">
        <ele>1470.1</ele>
        <time>2018-06-14T09:13:14Z</time>
      </trkpt>
      <trkpt lat="42.501101" lon="-0.242219">
        <ele>1461.0</ele>
        <time>2018-06-14T09:13:23Z</time>
      </trkpt>
      <trkpt lat="42.501427" lon="-0.242661">
        <ele>1462.9</ele>
        <time>2018-06-14T09:13:35Z</time>
      </trkpt>
      <trkpt lat="42.502027" lon="-0.244061">
        <ele>1457.7</ele>
        <time>2018-06-14T09:14:07Z</time>
      </trkpt>
      <trkpt lat="42.502452" lon="-0.244894">
        <ele>1447.8</ele>
        <time>2018-06-14T09:14:27Z</time>
      </trkpt>
      <trkpt lat="42.503140" lon="-0.245412">
        <ele>1455.1</ele>
        <time>2018-06-14T09:14:48Z</time>
      </trkpt>
      <trkpt lat="42.503948" lon="-0.246259">
        <ele>1455.4</ele>
        <time>2018-06-14T09:15:15Z</time>
      </trkpt>
      <trkpt lat="42.504682" lon="-0.246413">
        <ele>1462.0</ele>
        <time>2018-06-14T09:15:35Z</time>
      </trkpt>
      <trkpt lat="42.505108" lon="-0.246568">
        <ele>1465.6</ele>
        <time>2018-06-14T09:15:47Z</time>
      </trkpt>
      <trkpt lat="42.505535" lon="-0.246737">
        <ele>1472.8</ele>
        <time>2018-06-14T09:15:59Z</time>
      </trkpt>
      <trkpt lat="42.505937" lon="-0.246597">
        <ele>1477.8</ele>
        <time>2018-06-14T09:16:10Z</time>
      </trkpt>
      <trkpt lat="42.506386" lon="-0.246547">
        <ele>1479.6</ele>
        <time>2018-06-14T09:16:22Z</time>
      </trkpt>
      <trkpt lat="42.506549" lon="-0.246702">
        <ele>1478.7</ele>
        <time>2018-06-14T09:16:27Z</time>
      </trkpt>
      <trkpt lat="42.506660" lon="-0.246774">
        <ele>1479.3</ele>
        <time>2018-06-14T09:16:30Z</time>
      </trkpt>
      <trkpt lat="42.506921" lon="-0.246656">
        <ele>1483.5</ele>
        <time>2018-06-14T09:16:37Z</time>
      </trkpt>
      <trkpt lat="42.507016" lon="-0.246619">
        <ele>1484.9</ele>
        <time>2018-06-14T09:16:40Z</time>
      </trkpt>
      <trkpt lat="42.507109" lon="-0.246637">
        <ele>1485.8</ele>
        <time>2018-06-14T09:16:43Z</time>
      </trkpt>
      <trkpt lat="42.507194" lon="-0.246672">
        <ele>1486.1</ele>
        <time>2018-06-14T09:16:45Z</time>
      </trkpt>
      <trkpt lat="42.507269" lon="-0.246752">
        <ele>1486.0</ele>
        <time>2018-06-14T09:16:47Z</time>
      </trkpt>
      <trkpt lat="42.507364" lon="-0.246930">
        <ele>1486.1</ele>
        <time>2018-06-14T09:16:52Z</time>
      </trkpt>
      <trkpt lat="42.507610" lon="-0.247832">
        <ele>1497.3</ele>
        <time>2018-06-14T09:17:11Z</time>
      </trkpt>
      <trkpt lat="42.507901" lon="-0.248702">
        <ele>1489.4</ele>
        <time>2018-06-14T09:17:30Z</time>
      </trkpt>
      <trkpt lat="42.509175" lon="-0.250167">
        <ele>1495.9</ele>
        <time>2018-06-14T09:18:14Z</time>
      </trkpt>
      <trkpt lat="42.509494" lon="-0.250336">
        <ele>1500.1</ele>
        <time>2018-06-14T09:18:23Z</time>
      </trkpt>
      <trkpt lat="42.509626" lon="-0.250358">
        <ele>1502.3</ele>
        <time>2018-06-14T09:18:27Z</time>
      </trkpt>
      <trkpt lat="42.509768" lon="-0.250358">
        <ele>1505.4</ele>
        <time>2018-06-14T09:18:30Z</time>
      </trkpt>
      <trkpt lat="42.509927" lon="-0.250310">
        <ele>1508.9</ele>
        <time>2018-06-14T09:18:35Z</time>
      </trkpt>
      <trkpt lat="42.510120" lon="-0.250218">
        <ele>1513.5</ele>
        <time>2018-06-14T09:18:40Z</time>
      </trkpt>
      <trkpt lat="42.510972" lon="-0.250028">
        <ele>1515.8</ele>
        <time>2018-06-14T09:19:03Z</time>
      </trkpt>
      <trkpt lat="42.511097" lon="-0.250031">
        <ele>1515.7</ele>
        <time>2018-06-14T09:19:07Z</time>
      </trkpt>
      <trkpt lat="42.511222" lon="-0.250108">
        <ele>1518.6</ele>
        <time>2018-06-14T09:19:10Z</time>
      </trkpt>
      <trkpt lat="42.512143" lon="-0.250950">
        <ele>1519.5</ele>
        <time>2018-06-14T09:19:40Z</time>
      </trkpt>
      <trkpt lat="42.512610" lon="-0.251254">
        <ele>1512.5</ele>
        <time>2018-06-14T09:19:54Z</time>
      </trkpt>
      <trkpt lat="42.512766" lon="-0.251288">
        <ele>1511.6</ele>
        <time>2018-06-14T09:19:58Z</time>
      </trkpt>
      <trkpt lat="42.512912" lon="-0.251317">
        <ele>1510.8</ele>
        <time>2018-06-14T09:20:02Z</time>
      </trkpt>
      <trkpt lat="42.512974" lon="-0.251381">
        <ele>1510.8</ele>
        <time>2018-06-14T09:20:04Z</time>
      </trkpt>
      <trkpt lat="42.512984" lon="-0.251474">
        <ele>1511.8</ele>
        <time>2018-06-14T09:20:06Z</time>
      </trkpt>
      <trkpt lat="42.512947" lon="-0.251554">
        <ele>1513.2</ele>
        <time>2018-06-14T09:20:07Z</time>
      </trkpt>
      <trkpt lat="42.512878" lon="-0.251668">
        <ele>1515.9</ele>
        <time>2018-06-14T09:20:10Z</time>
      </trkpt>
      <trkpt lat="42.512779" lon="-0.251727">
        <ele>1518.1</ele>
        <time>2018-06-14T09:20:13Z</time>
      </trkpt>
      <trkpt lat="42.512673" lon="-0.251807">
        <ele>1520.6</ele>
        <time>2018-06-14T09:20:17Z</time>
      </trkpt>
      <trkpt lat="42.512586" lon="-0.251891">
        <ele>1522.5</ele>
        <time>2018-06-14T09:20:20Z</time>
      </trkpt>
      <trkpt lat="42.512489" lon="-0.252018">
        <ele>1525.3</ele>
        <time>2018-06-14T09:20:23Z</time>
      </trkpt>
      <trkpt lat="42.512293" lon="-0.252267">
        <ele>1527.9</ele>
        <time>2018-06-14T09:20:30Z</time>
      </trkpt>
      <trkpt lat="42.512165" lon="-0.252533">
        <ele>1528.4</ele>
        <time>2018-06-14T09:20:36Z</time>
      </trkpt>
      <trkpt lat="42.511864" lon="-0.253010">
        <ele>1531.2</ele>
        <time>2018-06-14T09:20:49Z</time>
      </trkpt>
      <trkpt lat="42.511518" lon="-0.253622">
        <ele>1520.6</ele>
        <time>2018-06-14T09:21:04Z</time>
      </trkpt>
      <trkpt lat="42.511357" lon="-0.253934">
        <ele>1512.6</ele>
        <time>2018-06-14T09:21:12Z</time>
      </trkpt>
      <trkpt lat="42.511241" lon="-0.254255">
        <ele>1508.3</ele>
        <time>2018-06-14T09:21:19Z</time>
      </trkpt>
      <trkpt lat="42.511173" lon="-0.254441">
        <ele>1503.1</ele>
        <time>2018-06-14T09:21:23Z</time>
      </trkpt>
      <trkpt lat="42.511148" lon="-0.254643">
        <ele>1499.6</ele>
        <time>2018-06-14T09:21:27Z</time>
      </trkpt>
      <trkpt lat="42.511188" lon="-0.254783">
        <ele>1499.9</ele>
        <time>2018-06-14T09:21:30Z</time>
      </trkpt>
      <trkpt lat="42.511295" lon="-0.255087">
        <ele>1498.0</ele>
        <time>2018-06-14T09:21:37Z</time>
      </trkpt>
      <trkpt lat="42.511364" lon="-0.255372">
        <ele>1497.1</ele>
        <time>2018-06-14T09:21:43Z</time>
      </trkpt>
      <trkpt lat="42.511404" lon="-0.255671">
        <ele>1496.5</ele>
        <time>2018-06-14T09:21:49Z</time>
      </trkpt>
      <trkpt lat="42.511446" lon="-0.256034">
        <ele>1498.3</ele>
        <time>2018-06-14T09:21:56Z</time>
      </trkpt>
      <trkpt lat="42.511494" lon="-0.256365">
        <ele>1500.8</ele>
        <time>2018-06-14T09:22:02Z</time>
      </trkpt>
      <trkpt lat="42.511511" lon="-0.256605">
        <ele>1501.6</ele>
        <time>2018-06-14T09:22:07Z</time>
      </trkpt>
      <trkpt lat="42.511502" lon="-0.256805">
        <ele>1503.0</ele>
        <time>2018-06-14T09:22:11Z</time>
      </trkpt>
      <trkpt lat="42.511518" lon="-0.256960">
        <ele>1502.4</ele>
        <time>2018-06-14T09:22:14Z</time>
      </trkpt>
      <trkpt lat="42.511575" lon="-0.257067">
        <ele>1501.5</ele>
        <time>2018-06-14T09:22:17Z</time>
      </trkpt>
      <trkpt lat="42.511633" lon="-0.257172">
        <ele>1501.1</ele>
        <time>2018-06-14T09:22:19Z</time>
      </trkpt>
      <trkpt lat="42.511747" lon="-0.257287">
        <ele>1501.8</ele>
        <time>2018-06-14T09:22:23Z</time>
      </trkpt>
      <trkpt lat="42.511926" lon="-0.257506">
        <ele>1505.1</ele>
        <time>2018-06-14T09:22:29Z</time>
      </trkpt>
      <trkpt lat="42.512201" lon="-0.257762">
        <ele>1510.6</ele>
        <time>2018-06-14T09:22:38Z</time>
      </trkpt>
      <trkpt lat="42.512379" lon="-0.257892">
        <ele>1513.8</ele>
        <time>2018-06-14T09:22:44Z</time>
      </trkpt>
      <trkpt lat="42.512531" lon="-0.258060">
        <ele>1515.1</ele>
        <time>2018-06-14T09:22:49Z</time>
      </trkpt>
      <trkpt lat="42.512670" lon="-0.258271">
        <ele>1517.4</ele>
        <time>2018-06-14T09:22:55Z</time>
      </trkpt>
      <trkpt lat="42.512783" lon="-0.258518">
        <ele>1517.4</ele>
        <time>2018-06-14T09:23:00Z</time>
      </trkpt>
      <trkpt lat="42.512871" lon="-0.258730">
        <ele>1518.5</ele>
        <time>2018-06-14T09:23:05Z</time>
      </trkpt>
      <trkpt lat="42.512951" lon="-0.258965">
        <ele>1520.3</ele>
        <time>2018-06-14T09:23:10Z</time>
      </trkpt>
      <trkpt lat="42.513015" lon="-0.259196">
        <ele>1521.1</ele>
        <time>2018-06-14T09:23:15Z</time>
      </trkpt>
      <trkpt lat="42.513078" lon="-0.259271">
        <ele>1521.4</ele>
        <time>2018-06-14T09:23:17Z</time>
      </trkpt>
      <trkpt lat="42.513182" lon="-0.259285">
        <ele>1521.8</ele>
        <time>2018-06-14T09:23:20Z</time>
      </trkpt>
      <trkpt lat="42.513270" lon="-0.259248">
        <ele>1522.2</ele>
        <time>2018-06-14T09:23:22Z</time>
      </trkpt>
      <trkpt lat="42.513370" lon="-0.259197">
        <ele>1523.0</ele>
        <time>2018-06-14T09:23:25Z</time>
      </trkpt>
      <trkpt lat="42.513472" lon="-0.259130">
        <ele>1524.0</ele>
        <time>2018-06-14T09:23:28Z</time>
      </trkpt>
      <trkpt lat="42.513712" lon="-0.258918">
        <ele>1525.2</ele>
        <time>2018-06-14T09:23:36Z</time>
      </trkpt>
      <trkpt lat="42.514031" lon="-0.258652">
        <ele>1528.0</ele>
        <time>2018-06-14T09:23:46Z</time>
      </trkpt>
      <trkpt lat="42.514136" lon="-0.258554">
        <ele>1527.4</ele>
        <time>2018-06-14T09:23:49Z</time>
      </trkpt>
      <trkpt lat="42.514250" lon="-0.258540">
        <ele>1527.9</ele>
        <time>2018-06-14T09:23:52Z</time>
      </trkpt>
      <trkpt lat="42.514379" lon="-0.258588">
        <ele>1528.7</ele>
        <time>2018-06-14T09:23:56Z</time>
      </trkpt>
      <trkpt lat="42.514487" lon="-0.258689">
        <ele>1529.4</ele>
        <time>2018-06-14T09:23:59Z</time>
      </trkpt>
      <trkpt lat="42.514555" lon="-0.258838">
        <ele>1530.2</ele>
        <time>2018-06-14T09:24:03Z</time>
      </trkpt>
      <trkpt lat="42.514663" lon="-0.259053">
        <ele>1531.3</ele>
        <time>2018-06-14T09:24:08Z</time>
      </trkpt>
      <trkpt lat="42.514827" lon="-0.259262">
        <ele>1532.6</ele>
        <time>2018-06-14T09:24:14Z</time>
      </trkpt>
      <trkpt lat="42.515025" lon="-0.259446">
        <ele>1536.1</ele>
        <time>2018-06-14T09:24:20Z</time>
      </trkpt>
      <trkpt lat="42.515309" lon="-0.259613">
        <ele>1538.9</ele>
        <time>2018-06-14T09:24:28Z</time>
      </trkpt>
      <trkpt lat="42.515472" lon="-0.259725">
        <ele>1540.2</ele>
        <time>2018-06-14T09:24:33Z</time>
      </trkpt>
      <trkpt lat="42.515591" lon="-0.259889">
        <ele>1541.0</ele>
        <time>2018-06-14T09:24:38Z</time>
      </trkpt>
      <trkpt lat="42.515733" lon="-0.260074">
        <ele>1542.3</ele>
        <time>2018-06-14T09:24:43Z</time>
      </trkpt>
      <trkpt lat="42.515896" lon="-0.260220">
        <ele>1543.1</ele>
        <time>2018-06-14T09:24:48Z</time>
      </trkpt>
      <trkpt lat="42.516091" lon="-0.260346">
        <ele>1545.1</ele>
        <time>2018-06-14T09:24:54Z</time>
      </trkpt>
      <trkpt lat="42.516288" lon="-0.260505">
        <ele>1548.8</ele>
        <time>2018-06-14T09:25:00Z</time>
      </trkpt>
      <trkpt lat="42.516581" lon="-0.260750">
        <ele>1552.5</ele>
        <time>2018-06-14T09:25:09Z</time>
      </trkpt>
      <trkpt lat="42.516804" lon="-0.261005">
        <ele>1556.4</ele>
        <time>2018-06-14T09:25:17Z</time>
      </trkpt>
      <trkpt lat="42.516936" lon="-0.261211">
        <ele>1558.0</ele>
        <time>2018-06-14T09:25:22Z</time>
      </trkpt>
      <trkpt lat="42.516986" lon="-0.261361">
        <ele>1560.3</ele>
        <time>2018-06-14T09:25:26Z</time>
      </trkpt>
      <trkpt lat="42.517036" lon="-0.261582">
        <ele>1564.1</ele>
        <time>2018-06-14T09:25:30Z</time>
      </trkpt>
      <trkpt lat="42.517101" lon="-0.261770">
        <ele>1567.2</ele>
        <time>2018-06-14T09:25:34Z</time>
      </trkpt>
      <trkpt lat="42.517271" lon="-0.262088">
        <ele>1569.0</ele>
        <time>2018-06-14T09:25:42Z</time>
      </trkpt>
      <trkpt lat="42.517352" lon="-0.262197">
        <ele>1569.3</ele>
        <time>2018-06-14T09:25:45Z</time>
      </trkpt>
      <trkpt lat="42.517560" lon="-0.262405">
        <ele>1569.9</ele>
        <time>2018-06-14T09:25:52Z</time>
      </trkpt>
      <trkpt lat="42.517728" lon="-0.262550">
        <ele>1569.3</ele>
        <time>2018-06-14T09:25:57Z</time>
      </trkpt>
      <trkpt lat="42.517803" lon="-0.262666">
        <ele>1569.2</ele>
        <time>2018-06-14T09:26:00Z</time>
      </trkpt>
      <trkpt lat="42.517862" lon="-0.262800">
        <ele>1568.6</ele>
        <time>2018-06-14T09:26:03Z</time>
      </trkpt>
      <trkpt lat="42.517913" lon="-0.262911">
        <ele>1568.0</ele>
        <time>2018-06-14T09:26:06Z</time>
      </trkpt>
      <trkpt lat="42.518012" lon="-0.263022">
        <ele>1567.2</ele>
        <time>2018-06-14T09:26:09Z</time>
      </trkpt>
      <trkpt lat="42.518244" lon="-0.263210">
        <ele>1567.2</ele>
        <time>2018-06-14T09:26:16Z</time>
      </trkpt>
      <trkpt lat="42.518316" lon="-0.263286">
        <ele>1567.0</ele>
        <time>2018-06-14T09:26:19Z</time>
      </trkpt>
      <trkpt lat="42.518358" lon="-0.263359">
        <ele>1567.4</ele>
        <time>2018-06-14T09:26:21Z</time>
      </trkpt>
      <trkpt lat="42.518437" lon="-0.263466">
        <ele>1567.6</ele>
        <time>2018-06-14T09:26:24Z</time>
      </trkpt>
      <trkpt lat="42.518628" lon="-0.263573">
        <ele>1566.8</ele>
        <time>2018-06-14T09:26:29Z</time>
      </trkpt>
      <trkpt lat="42.518764" lon="-0.263638">
        <ele>1567.0</ele>
        <time>2018-06-14T09:26:33Z</time>
      </trkpt>
      <trkpt lat="42.518892" lon="-0.263761">
        <ele>1567.2</ele>
        <time>2018-06-14T09:26:37Z</time>
      </trkpt>
      <trkpt lat="42.519013" lon="-0.263893">
        <ele>1568.0</ele>
        <time>2018-06-14T09:26:41Z</time>
      </trkpt>
      <trkpt lat="42.519085" lon="-0.264039">
        <ele>1571.2</ele>
        <time>2018-06-14T09:26:45Z</time>
      </trkpt>
      <trkpt lat="42.519178" lon="-0.264273">
        <ele>1575.0</ele>
        <time>2018-06-14T09:26:50Z</time>
      </trkpt>
      <trkpt lat="42.519254" lon="-0.264533">
        <ele>1574.6</ele>
        <time>2018-06-14T09:26:55Z</time>
      </trkpt>
      <trkpt lat="42.519378" lon="-0.264827">
        <ele>1572.4</ele>
        <time>2018-06-14T09:27:02Z</time>
      </trkpt>
      <trkpt lat="42.519424" lon="-0.265031">
        <ele>1573.6</ele>
        <time>2018-06-14T09:27:06Z</time>
      </trkpt>
      <trkpt lat="42.519502" lon="-0.265220">
        <ele>1574.8</ele>
        <time>2018-06-14T09:27:11Z</time>
      </trkpt>
      <trkpt lat="42.519633" lon="-0.265499">
        <ele>1574.6</ele>
        <time>2018-06-14T09:27:17Z</time>
      </trkpt>
      <trkpt lat="42.519741" lon="-0.265692">
        <ele>1575.1</ele>
        <time>2018-06-14T09:27:22Z</time>
      </trkpt>
      <trkpt lat="42.519923" lon="-0.265861">
        <ele>1578.1</ele>
        <time>2018-06-14T09:27:28Z</time>
      </trkpt>
      <trkpt lat="42.520195" lon="-0.266027">
        <ele>1582.7</ele>
        <time>2018-06-14T09:27:36Z</time>
      </trkpt>
      <trkpt lat="42.520270" lon="-0.266132">
        <ele>1584.5</ele>
        <time>2018-06-14T09:27:38Z</time>
      </trkpt>
      <trkpt lat="42.520346" lon="-0.266266">
        <ele>1586.8</ele>
        <time>2018-06-14T09:27:42Z</time>
      </trkpt>
      <trkpt lat="42.520401" lon="-0.266481">
        <ele>1588.7</ele>
        <time>2018-06-14T09:27:46Z</time>
      </trkpt>
      <trkpt lat="42.520415" lon="-0.266633">
        <ele>1590.5</ele>
        <time>2018-06-14T09:27:49Z</time>
      </trkpt>
      <trkpt lat="42.520469" lon="-0.266787">
        <ele>1589.2</ele>
        <time>2018-06-14T09:27:53Z</time>
      </trkpt>
      <trkpt lat="42.520569" lon="-0.266889">
        <ele>1583.6</ele>
        <time>2018-06-14T09:27:56Z</time>
      </trkpt>
      <trkpt lat="42.520718" lon="-0.266885">
        <ele>1574.9</ele>
        <time>2018-06-14T09:28:01Z</time>
      </trkpt>
      <trkpt lat="42.520869" lon="-0.266907">
        <ele>1571.7</ele>
        <time>2018-06-14T09:28:05Z</time>
      </trkpt>
      <trkpt lat="42.521011" lon="-0.266958">
        <ele>1570.2</ele>
        <time>2018-06-14T09:28:09Z</time>
      </trkpt>
      <trkpt lat="42.521151" lon="-0.267102">
        <ele>1572.8</ele>
        <time>2018-06-14T09:28:13Z</time>
      </trkpt>
      <trkpt lat="42.521398" lon="-0.267388">
        <ele>1574.6</ele>
        <time>2018-06-14T09:28:22Z</time>
      </trkpt>
      <trkpt lat="42.521616" lon="-0.267658">
        <ele>1571.7</ele>
        <time>2018-06-14T09:28:30Z</time>
      </trkpt>
      <trkpt lat="42.521799" lon="-0.267971">
        <ele>1570.8</ele>
        <time>2018-06-14T09:28:38Z</time>
      </trkpt>
      <trkpt lat="42.521972" lon="-0.268275">
        <ele>1572.1</ele>
        <time>2018-06-14T09:28:45Z</time>
      </trkpt>
      <trkpt lat="42.522058" lon="-0.268545">
        <ele>1573.9</ele>
        <time>2018-06-14T09:28:51Z</time>
      </trkpt>
      <trkpt lat="42.522186" lon="-0.268868">
        <ele>1576.6</ele>
        <time>2018-06-14T09:28:58Z</time>
      </trkpt>
      <trkpt lat="42.522293" lon="-0.269172">
        <ele>1577.9</ele>
        <time>2018-06-14T09:29:05Z</time>
      </trkpt>
      <trkpt lat="42.522356" lon="-0.269460">
        <ele>1578.1</ele>
        <time>2018-06-14T09:29:11Z</time>
      </trkpt>
      <trkpt lat="42.522440" lon="-0.270000">
        <ele>1573.6</ele>
        <time>2018-06-14T09:29:22Z</time>
      </trkpt>
      <trkpt lat="42.522540" lon="-0.270732">
        <ele>1573.2</ele>
        <time>2018-06-14T09:29:36Z</time>
      </trkpt>
      <trkpt lat="42.522545" lon="-0.270907">
        <ele>1573.5</ele>
        <time>2018-06-14T09:29:39Z</time>
      </trkpt>
      <trkpt lat="42.522523" lon="-0.271079">
        <ele>1573.8</ele>
        <time>2018-06-14T09:29:43Z</time>
      </trkpt>
      <trkpt lat="42.522522" lon="-0.271193">
        <ele>1573.8</ele>
        <time>2018-06-14T09:29:45Z</time>
      </trkpt>
      <trkpt lat="42.522550" lon="-0.271343">
        <ele>1574.1</ele>
        <time>2018-06-14T09:29:48Z</time>
      </trkpt>
      <trkpt lat="42.522616" lon="-0.271540">
        <ele>1574.3</ele>
        <time>2018-06-14T09:29:52Z</time>
      </trkpt>
      <trkpt lat="42.522659" lon="-0.271655">
        <ele>1574.2</ele>
        <time>2018-06-14T09:29:55Z</time>
      </trkpt>
      <trkpt lat="42.522661" lon="-0.271802">
        <ele>1574.8</ele>
        <time>2018-06-14T09:29:58Z</time>
      </trkpt>
      <trkpt lat="42.522621" lon="-0.272007">
        <ele>1575.0</ele>
        <time>2018-06-14T09:30:02Z</time>
      </trkpt>
      <trkpt lat="42.522587" lon="-0.272164">
        <ele>1575.3</ele>
        <time>2018-06-14T09:30:05Z</time>
      </trkpt>
      <trkpt lat="42.521910" lon="-0.273439">
        <ele>1573.1</ele>
        <time>2018-06-14T09:30:36Z</time>
      </trkpt>
      <trkpt lat="42.521764" lon="-0.273901">
        <ele>1566.7</ele>
        <time>2018-06-14T09:30:46Z</time>
      </trkpt>
      <trkpt lat="42.521055" lon="-0.274928">
        <ele>1557.5</ele>
        <time>2018-06-14T09:31:13Z</time>
      </trkpt>
      <trkpt lat="42.520439" lon="-0.275245">
        <ele>1558.0</ele>
        <time>2018-06-14T09:31:31Z</time>
      </trkpt>
      <trkpt lat="42.519779" lon="-0.275383">
        <ele>1554.8</ele>
        <time>2018-06-14T09:31:49Z</time>
      </trkpt>
      <trkpt lat="42.518905" lon="-0.275442">
        <ele>1552.6</ele>
        <time>2018-06-14T09:32:12Z</time>
      </trkpt>
      <trkpt lat="42.518498" lon="-0.275613">
        <ele>1553.4</ele>
        <time>2018-06-14T09:32:23Z</time>
      </trkpt>
      <trkpt lat="42.518293" lon="-0.275817">
        <ele>1550.1</ele>
        <time>2018-06-14T09:32:30Z</time>
      </trkpt>
      <trkpt lat="42.518020" lon="-0.276174">
        <ele>1544.1</ele>
        <time>2018-06-14T09:32:40Z</time>
      </trkpt>
      <trkpt lat="42.517983" lon="-0.276220">
        <ele>1543.7</ele>
        <time>2018-06-14T09:32:41Z</time>
      </trkpt>
      <trkpt lat="42.517917" lon="-0.276255">
        <ele>1543.1</ele>
        <time>2018-06-14T09:32:43Z</time>
      </trkpt>
      <trkpt lat="42.517838" lon="-0.276268">
        <ele>1543.0</ele>
        <time>2018-06-14T09:32:45Z</time>
      </trkpt>
      <trkpt lat="42.517493" lon="-0.276328">
        <ele>1542.4</ele>
        <time>2018-06-14T09:32:55Z</time>
      </trkpt>
      <trkpt lat="42.517422" lon="-0.276317">
        <ele>1541.6</ele>
        <time>2018-06-14T09:32:57Z</time>
      </trkpt>
      <trkpt lat="42.517249" lon="-0.276276">
        <ele>1540.5</ele>
        <time>2018-06-14T09:33:01Z</time>
      </trkpt>
      <trkpt lat="42.516755" lon="-0.276093">
        <ele>1536.2</ele>
        <time>2018-06-14T09:33:15Z</time>
      </trkpt>
      <trkpt lat="42.516611" lon="-0.276032">
        <ele>1536.0</ele>
        <time>2018-06-14T09:33:19Z</time>
      </trkpt>
      <trkpt lat="42.516235" lon="-0.275915">
        <ele>1535.4</ele>
        <time>2018-06-14T09:33:29Z</time>
      </trkpt>
      <trkpt lat="42.516071" lon="-0.275902">
        <ele>1535.2</ele>
        <time>2018-06-14T09:33:33Z</time>
      </trkpt>
      <trkpt lat="42.515917" lon="-0.275885">
        <ele>1534.9</ele>
        <time>2018-06-14T09:33:37Z</time>
      </trkpt>
      <trkpt lat="42.515841" lon="-0.275859">
        <ele>1534.3</ele>
        <time>2018-06-14T09:33:40Z</time>
      </trkpt>
      <trkpt lat="42.515455" lon="-0.275651">
        <ele>1529.8</ele>
        <time>2018-06-14T09:33:51Z</time>
      </trkpt>
      <trkpt lat="42.515366" lon="-0.275620">
        <ele>1528.5</ele>
        <time>2018-06-14T09:33:53Z</time>
      </trkpt>
      <trkpt lat="42.514980" lon="-0.275569">
        <ele>1524.4</ele>
        <time>2018-06-14T09:34:03Z</time>
      </trkpt>
      <trkpt lat="42.514881" lon="-0.275565">
        <ele>1524.2</ele>
        <time>2018-06-14T09:34:06Z</time>
      </trkpt>
      <trkpt lat="42.514781" lon="-0.275549">
        <ele>1523.9</ele>
        <time>2018-06-14T09:34:09Z</time>
      </trkpt>
      <trkpt lat="42.514684" lon="-0.275521">
        <ele>1523.7</ele>
        <time>2018-06-14T09:34:11Z</time>
      </trkpt>
      <trkpt lat="42.514588" lon="-0.275483">
        <ele>1523.5</ele>
        <time>2018-06-14T09:34:14Z</time>
      </trkpt>
      <trkpt lat="42.514307" lon="-0.275337">
        <ele>1525.5</ele>
        <time>2018-06-14T09:34:22Z</time>
      </trkpt>
      <trkpt lat="42.514215" lon="-0.275276">
        <ele>1525.6</ele>
        <time>2018-06-14T09:34:25Z</time>
      </trkpt>
      <trkpt lat="42.514125" lon="-0.275205">
        <ele>1525.6</ele>
        <time>2018-06-14T09:34:27Z</time>
      </trkpt>
      <trkpt lat="42.513868" lon="-0.274968">
        <ele>1524.6</ele>
        <time>2018-06-14T09:34:36Z</time>
      </trkpt>
      <trkpt lat="42.513434" lon="-0.274632">
        <ele>1518.8</ele>
        <time>2018-06-14T09:34:49Z</time>
      </trkpt>
      <trkpt lat="42.513158" lon="-0.274447">
        <ele>1517.0</ele>
        <time>2018-06-14T09:34:57Z</time>
      </trkpt>
      <trkpt lat="42.512690" lon="-0.274090">
        <ele>1518.3</ele>
        <time>2018-06-14T09:35:11Z</time>
      </trkpt>
      <trkpt lat="42.512606" lon="-0.274012">
        <ele>1517.7</ele>
        <time>2018-06-14T09:35:14Z</time>
      </trkpt>
      <trkpt lat="42.512287" lon="-0.273712">
        <ele>1514.6</ele>
        <time>2018-06-14T09:35:24Z</time>
      </trkpt>
      <trkpt lat="42.512207" lon="-0.273648">
        <ele>1513.5</ele>
        <time>2018-06-14T09:35:27Z</time>
      </trkpt>
      <trkpt lat="42.512122" lon="-0.273594">
        <ele>1512.0</ele>
        <time>2018-06-14T09:35:29Z</time>
      </trkpt>
      <trkpt lat="42.512033" lon="-0.273553">
        <ele>1511.4</ele>
        <time>2018-06-14T09:35:32Z</time>
      </trkpt>
      <trkpt lat="42.511939" lon="-0.273527">
        <ele>1512.1</ele>
        <time>2018-06-14T09:35:35Z</time>
      </trkpt>
      <trkpt lat="42.511845" lon="-0.273514">
        <ele>1513.1</ele>
        <time>2018-06-14T09:35:37Z</time>
      </trkpt>
      <trkpt lat="42.511751" lon="-0.273514">
        <ele>1514.1</ele>
        <time>2018-06-14T09:35:40Z</time>
      </trkpt>
      <trkpt lat="42.511656" lon="-0.273528">
        <ele>1515.2</ele>
        <time>2018-06-14T09:35:42Z</time>
      </trkpt>
      <trkpt lat="42.511559" lon="-0.273550">
        <ele>1516.3</ele>
        <time>2018-06-14T09:35:45Z</time>
      </trkpt>
      <trkpt lat="42.511358" lon="-0.273573">
        <ele>1515.3</ele>
        <time>2018-06-14T09:35:50Z</time>
      </trkpt>
      <trkpt lat="42.511250" lon="-0.273565">
        <ele>1514.3</ele>
        <time>2018-06-14T09:35:53Z</time>
      </trkpt>
      <trkpt lat="42.511140" lon="-0.273544">
        <ele>1514.9</ele>
        <time>2018-06-14T09:35:56Z</time>
      </trkpt>
      <trkpt lat="42.510842" lon="-0.273468">
        <ele>1514.9</ele>
        <time>2018-06-14T09:36:04Z</time>
      </trkpt>
      <trkpt lat="42.510768" lon="-0.273411">
        <ele>1513.7</ele>
        <time>2018-06-14T09:36:06Z</time>
      </trkpt>
      <trkpt lat="42.510710" lon="-0.273331">
        <ele>1512.0</ele>
        <time>2018-06-14T09:36:08Z</time>
      </trkpt>
      <trkpt lat="42.510675" lon="-0.273235">
        <ele>1509.9</ele>
        <time>2018-06-14T09:36:11Z</time>
      </trkpt>
      <trkpt lat="42.510664" lon="-0.273130">
        <ele>1507.8</ele>
        <time>2018-06-14T09:36:13Z</time>
      </trkpt>
      <trkpt lat="42.510682" lon="-0.273029">
        <ele>1506.0</ele>
        <time>2018-06-14T09:36:15Z</time>
      </trkpt>
      <trkpt lat="42.510730" lon="-0.272947">
        <ele>1504.8</ele>
        <time>2018-06-14T09:36:17Z</time>
      </trkpt>
      <trkpt lat="42.510808" lon="-0.272889">
        <ele>1504.5</ele>
        <time>2018-06-14T09:36:19Z</time>
      </trkpt>
      <trkpt lat="42.510910" lon="-0.272847">
        <ele>1504.8</ele>
        <time>2018-06-14T09:36:22Z</time>
      </trkpt>
      <trkpt lat="42.511023" lon="-0.272815">
        <ele>1505.0</ele>
        <time>2018-06-14T09:36:25Z</time>
      </trkpt>
      <trkpt lat="42.511146" lon="-0.272790">
        <ele>1505.0</ele>
        <time>2018-06-14T09:36:28Z</time>
      </trkpt>
      <trkpt lat="42.512172" lon="-0.272627">
        <ele>1505.8</ele>
        <time>2018-06-14T09:36:56Z</time>
      </trkpt>
      <trkpt lat="42.512260" lon="-0.272577">
        <ele>1505.2</ele>
        <time>2018-06-14T09:36:58Z</time>
      </trkpt>
      <trkpt lat="42.512325" lon="-0.272511">
        <ele>1504.8</ele>
        <time>2018-06-14T09:37:01Z</time>
      </trkpt>
      <trkpt lat="42.512361" lon="-0.272426">
        <ele>1504.5</ele>
        <time>2018-06-14T09:37:02Z</time>
      </trkpt>
      <trkpt lat="42.512359" lon="-0.272332">
        <ele>1503.6</ele>
        <time>2018-06-14T09:37:04Z</time>
      </trkpt>
      <trkpt lat="42.512321" lon="-0.272234">
        <ele>1501.6</ele>
        <time>2018-06-14T09:37:07Z</time>
      </trkpt>
      <trkpt lat="42.512248" lon="-0.272138">
        <ele>1499.2</ele>
        <time>2018-06-14T09:37:09Z</time>
      </trkpt>
      <trkpt lat="42.512153" lon="-0.272038">
        <ele>1496.7</ele>
        <time>2018-06-14T09:37:13Z</time>
      </trkpt>
      <trkpt lat="42.512047" lon="-0.271934">
        <ele>1494.6</ele>
        <time>2018-06-14T09:37:16Z</time>
      </trkpt>
      <trkpt lat="42.511714" lon="-0.271656">
        <ele>1489.3</ele>
        <time>2018-06-14T09:37:26Z</time>
      </trkpt>
      <trkpt lat="42.511599" lon="-0.271612">
        <ele>1487.6</ele>
        <time>2018-06-14T09:37:30Z</time>
      </trkpt>
      <trkpt lat="42.511482" lon="-0.271590">
        <ele>1486.7</ele>
        <time>2018-06-14T09:37:33Z</time>
      </trkpt>
      <trkpt lat="42.511370" lon="-0.271564">
        <ele>1486.9</ele>
        <time>2018-06-14T09:37:36Z</time>
      </trkpt>
      <trkpt lat="42.511262" lon="-0.271520">
        <ele>1487.0</ele>
        <time>2018-06-14T09:37:39Z</time>
      </trkpt>
      <trkpt lat="42.511165" lon="-0.271447">
        <ele>1488.3</ele>
        <time>2018-06-14T09:37:42Z</time>
      </trkpt>
      <trkpt lat="42.511086" lon="-0.271342">
        <ele>1489.2</ele>
        <time>2018-06-14T09:37:45Z</time>
      </trkpt>
      <trkpt lat="42.511026" lon="-0.271213">
        <ele>1489.6</ele>
        <time>2018-06-14T09:37:48Z</time>
      </trkpt>
      <trkpt lat="42.510983" lon="-0.271063">
        <ele>1489.3</ele>
        <time>2018-06-14T09:37:51Z</time>
      </trkpt>
      <trkpt lat="42.510953" lon="-0.270903">
        <ele>1488.9</ele>
        <time>2018-06-14T09:37:54Z</time>
      </trkpt>
      <trkpt lat="42.510927" lon="-0.270749">
        <ele>1488.6</ele>
        <time>2018-06-14T09:37:57Z</time>
      </trkpt>
      <trkpt lat="42.510862" lon="-0.270496">
        <ele>1487.0</ele>
        <time>2018-06-14T09:38:02Z</time>
      </trkpt>
      <trkpt lat="42.510805" lon="-0.270416">
        <ele>1485.4</ele>
        <time>2018-06-14T09:38:05Z</time>
      </trkpt>
      <trkpt lat="42.510728" lon="-0.270381">
        <ele>1484.1</ele>
        <time>2018-06-14T09:38:07Z</time>
      </trkpt>
      <trkpt lat="42.510638" lon="-0.270392">
        <ele>1482.8</ele>
        <time>2018-06-14T09:38:09Z</time>
      </trkpt>
      <trkpt lat="42.510536" lon="-0.270421">
        <ele>1481.9</ele>
        <time>2018-06-14T09:38:12Z</time>
      </trkpt>
      <trkpt lat="42.510423" lon="-0.270436">
        <ele>1481.1</ele>
        <time>2018-06-14T09:38:15Z</time>
      </trkpt>
      <trkpt lat="42.510304" lon="-0.270417">
        <ele>1480.2</ele>
        <time>2018-06-14T09:38:18Z</time>
      </trkpt>
      <trkpt lat="42.510188" lon="-0.270362">
        <ele>1479.0</ele>
        <time>2018-06-14T09:38:21Z</time>
      </trkpt>
      <trkpt lat="42.510090" lon="-0.270268">
        <ele>1478.3</ele>
        <time>2018-06-14T09:38:25Z</time>
      </trkpt>
      <trkpt lat="42.510010" lon="-0.270144">
        <ele>1478.0</ele>
        <time>2018-06-14T09:38:28Z</time>
      </trkpt>
      <trkpt lat="42.509946" lon="-0.269996">
        <ele>1478.4</ele>
        <time>2018-06-14T09:38:31Z</time>
      </trkpt>
      <trkpt lat="42.509892" lon="-0.269832">
        <ele>1478.7</ele>
        <time>2018-06-14T09:38:35Z</time>
      </trkpt>
      <trkpt lat="42.509847" lon="-0.269655">
        <ele>1478.2</ele>
        <time>2018-06-14T09:38:38Z</time>
      </trkpt>
      <trkpt lat="42.509775" lon="-0.269295">
        <ele>1474.0</ele>
        <time>2018-06-14T09:38:46Z</time>
      </trkpt>
      <trkpt lat="42.509723" lon="-0.268959">
        <ele>1472.6</ele>
        <time>2018-06-14T09:38:52Z</time>
      </trkpt>
      <trkpt lat="42.509672" lon="-0.268801">
        <ele>1471.3</ele>
        <time>2018-06-14T09:38:56Z</time>
      </trkpt>
      <trkpt lat="42.509602" lon="-0.268651">
        <ele>1469.9</ele>
        <time>2018-06-14T09:38:59Z</time>
      </trkpt>
      <trkpt lat="42.509283" lon="-0.268056">
        <ele>1461.4</ele>
        <time>2018-06-14T09:39:14Z</time>
      </trkpt>
      <trkpt lat="42.509208" lon="-0.267893">
        <ele>1459.9</ele>
        <time>2018-06-14T09:39:18Z</time>
      </trkpt>
      <trkpt lat="42.508989" lon="-0.267426">
        <ele>1456.3</ele>
        <time>2018-06-14T09:39:28Z</time>
      </trkpt>
      <trkpt lat="42.508903" lon="-0.267292">
        <ele>1455.0</ele>
        <time>2018-06-14T09:39:32Z</time>
      </trkpt>
      <trkpt lat="42.508827" lon="-0.267146">
        <ele>1453.8</ele>
        <time>2018-06-14T09:39:35Z</time>
      </trkpt>
      <trkpt lat="42.508768" lon="-0.266999">
        <ele>1452.8</ele>
        <time>2018-06-14T09:39:39Z</time>
      </trkpt>
      <trkpt lat="42.508734" lon="-0.266852">
        <ele>1452.2</ele>
        <time>2018-06-14T09:39:42Z</time>
      </trkpt>
      <trkpt lat="42.508731" lon="-0.266701">
        <ele>1451.9</ele>
        <time>2018-06-14T09:39:45Z</time>
      </trkpt>
      <trkpt lat="42.508751" lon="-0.266549">
        <ele>1452.1</ele>
        <time>2018-06-14T09:39:48Z</time>
      </trkpt>
      <trkpt lat="42.508773" lon="-0.266402">
        <ele>1452.2</ele>
        <time>2018-06-14T09:39:51Z</time>
      </trkpt>
      <trkpt lat="42.508775" lon="-0.266261">
        <ele>1451.8</ele>
        <time>2018-06-14T09:39:53Z</time>
      </trkpt>
      <trkpt lat="42.508751" lon="-0.266123">
        <ele>1451.0</ele>
        <time>2018-06-14T09:39:56Z</time>
      </trkpt>
      <trkpt lat="42.508703" lon="-0.265992">
        <ele>1449.7</ele>
        <time>2018-06-14T09:39:59Z</time>
      </trkpt>
      <trkpt lat="42.508624" lon="-0.265884">
        <ele>1447.4</ele>
        <time>2018-06-14T09:40:02Z</time>
      </trkpt>
      <trkpt lat="42.508534" lon="-0.265782">
        <ele>1444.8</ele>
        <time>2018-06-14T09:40:05Z</time>
      </trkpt>
      <trkpt lat="42.508447" lon="-0.265663">
        <ele>1442.8</ele>
        <time>2018-06-14T09:40:09Z</time>
      </trkpt>
      <trkpt lat="42.508361" lon="-0.265524">
        <ele>1442.4</ele>
        <time>2018-06-14T09:40:12Z</time>
      </trkpt>
      <trkpt lat="42.508275" lon="-0.265371">
        <ele>1441.8</ele>
        <time>2018-06-14T09:40:16Z</time>
      </trkpt>
      <trkpt lat="42.507892" lon="-0.264520">
        <ele>1439.0</ele>
        <time>2018-06-14T09:40:35Z</time>
      </trkpt>
      <trkpt lat="42.507800" lon="-0.264194">
        <ele>1438.4</ele>
        <time>2018-06-14T09:40:42Z</time>
      </trkpt>
      <trkpt lat="42.507782" lon="-0.264023">
        <ele>1438.6</ele>
        <time>2018-06-14T09:40:46Z</time>
      </trkpt>
      <trkpt lat="42.507783" lon="-0.263831">
        <ele>1438.0</ele>
        <time>2018-06-14T09:40:49Z</time>
      </trkpt>
      <trkpt lat="42.507797" lon="-0.263625">
        <ele>1438.1</ele>
        <time>2018-06-14T09:40:53Z</time>
      </trkpt>
      <trkpt lat="42.507819" lon="-0.263417">
        <ele>1439.4</ele>
        <time>2018-06-14T09:40:58Z</time>
      </trkpt>
      <trkpt lat="42.507892" lon="-0.262880">
        <ele>1442.6</ele>
        <time>2018-06-14T09:41:08Z</time>
      </trkpt>
      <trkpt lat="42.507883" lon="-0.262701">
        <ele>1440.3</ele>
        <time>2018-06-14T09:41:12Z</time>
      </trkpt>
      <trkpt lat="42.507851" lon="-0.262510">
        <ele>1437.6</ele>
        <time>2018-06-14T09:41:16Z</time>
      </trkpt>
      <trkpt lat="42.507603" lon="-0.261495">
        <ele>1424.1</ele>
        <time>2018-06-14T09:41:37Z</time>
      </trkpt>
      <trkpt lat="42.507462" lon="-0.260964">
        <ele>1417.9</ele>
        <time>2018-06-14T09:41:48Z</time>
      </trkpt>
      <trkpt lat="42.507391" lon="-0.260818">
        <ele>1416.8</ele>
        <time>2018-06-14T09:41:51Z</time>
      </trkpt>
      <trkpt lat="42.507305" lon="-0.260692">
        <ele>1415.6</ele>
        <time>2018-06-14T09:41:55Z</time>
      </trkpt>
      <trkpt lat="42.507201" lon="-0.260585">
        <ele>1415.7</ele>
        <time>2018-06-14T09:41:58Z</time>
      </trkpt>
      <trkpt lat="42.507084" lon="-0.260496">
        <ele>1414.7</ele>
        <time>2018-06-14T09:42:02Z</time>
      </trkpt>
      <trkpt lat="42.506956" lon="-0.260417">
        <ele>1413.2</ele>
        <time>2018-06-14T09:42:06Z</time>
      </trkpt>
      <trkpt lat="42.506441" lon="-0.260134">
        <ele>1413.7</ele>
        <time>2018-06-14T09:42:20Z</time>
      </trkpt>
      <trkpt lat="42.506307" lon="-0.260107">
        <ele>1415.0</ele>
        <time>2018-06-14T09:42:24Z</time>
      </trkpt>
      <trkpt lat="42.506167" lon="-0.260107">
        <ele>1415.1</ele>
        <time>2018-06-14T09:42:28Z</time>
      </trkpt>
      <trkpt lat="42.506023" lon="-0.260125">
        <ele>1414.4</ele>
        <time>2018-06-14T09:42:31Z</time>
      </trkpt>
      <trkpt lat="42.505880" lon="-0.260152">
        <ele>1413.4</ele>
        <time>2018-06-14T09:42:35Z</time>
      </trkpt>
      <trkpt lat="42.505591" lon="-0.260167">
        <ele>1414.4</ele>
        <time>2018-06-14T09:42:43Z</time>
      </trkpt>
      <trkpt lat="42.505302" lon="-0.260146">
        <ele>1417.9</ele>
        <time>2018-06-14T09:42:51Z</time>
      </trkpt>
      <trkpt lat="42.505160" lon="-0.260166">
        <ele>1417.5</ele>
        <time>2018-06-14T09:42:54Z</time>
      </trkpt>
      <trkpt lat="42.505028" lon="-0.260222">
        <ele>1418.2</ele>
        <time>2018-06-14T09:42:58Z</time>
      </trkpt>
      <trkpt lat="42.504762" lon="-0.260352">
        <ele>1418.5</ele>
        <time>2018-06-14T09:43:06Z</time>
      </trkpt>
      <trkpt lat="42.504622" lon="-0.260396">
        <ele>1418.4</ele>
        <time>2018-06-14T09:43:09Z</time>
      </trkpt>
      <trkpt lat="42.504477" lon="-0.260437">
        <ele>1417.3</ele>
        <time>2018-06-14T09:43:13Z</time>
      </trkpt>
      <trkpt lat="42.504191" lon="-0.260538">
        <ele>1415.4</ele>
        <time>2018-06-14T09:43:21Z</time>
      </trkpt>
      <trkpt lat="42.504078" lon="-0.260603">
        <ele>1414.9</ele>
        <time>2018-06-14T09:43:24Z</time>
      </trkpt>
      <trkpt lat="42.503981" lon="-0.260658">
        <ele>1414.3</ele>
        <time>2018-06-14T09:43:27Z</time>
      </trkpt>
      <trkpt lat="42.503882" lon="-0.260686">
        <ele>1413.6</ele>
        <time>2018-06-14T09:43:30Z</time>
      </trkpt>
      <trkpt lat="42.503775" lon="-0.260670">
        <ele>1413.5</ele>
        <time>2018-06-14T09:43:33Z</time>
      </trkpt>
      <trkpt lat="42.503671" lon="-0.260611">
        <ele>1415.0</ele>
        <time>2018-06-14T09:43:36Z</time>
      </trkpt>
      <trkpt lat="42.503568" lon="-0.260553">
        <ele>1416.5</ele>
        <time>2018-06-14T09:43:39Z</time>
      </trkpt>
      <trkpt lat="42.503467" lon="-0.260533">
        <ele>1417.3</ele>
        <time>2018-06-14T09:43:42Z</time>
      </trkpt>
      <trkpt lat="42.503366" lon="-0.260564">
        <ele>1415.5</ele>
        <time>2018-06-14T09:43:44Z</time>
      </trkpt>
      <trkpt lat="42.503264" lon="-0.260629">
        <ele>1413.1</ele>
        <time>2018-06-14T09:43:47Z</time>
      </trkpt>
      <trkpt lat="42.503149" lon="-0.260695">
        <ele>1410.5</ele>
        <time>2018-06-14T09:43:51Z</time>
      </trkpt>
      <trkpt lat="42.503019" lon="-0.260738">
        <ele>1408.6</ele>
        <time>2018-06-14T09:43:54Z</time>
      </trkpt>
      <trkpt lat="42.502878" lon="-0.260755">
        <ele>1407.6</ele>
        <time>2018-06-14T09:43:58Z</time>
      </trkpt>
      <trkpt lat="42.502739" lon="-0.260747">
        <ele>1408.7</ele>
        <time>2018-06-14T09:44:02Z</time>
      </trkpt>
      <trkpt lat="42.502616" lon="-0.260728">
        <ele>1409.7</ele>
        <time>2018-06-14T09:44:05Z</time>
      </trkpt>
      <trkpt lat="42.502407" lon="-0.260657">
        <ele>1411.2</ele>
        <time>2018-06-14T09:44:11Z</time>
      </trkpt>
      <trkpt lat="42.502326" lon="-0.260580">
        <ele>1412.3</ele>
        <time>2018-06-14T09:44:13Z</time>
      </trkpt>
      <trkpt lat="42.502270" lon="-0.260470">
        <ele>1413.3</ele>
        <time>2018-06-14T09:44:16Z</time>
      </trkpt>
      <trkpt lat="42.502242" lon="-0.260332">
        <ele>1413.6</ele>
        <time>2018-06-14T09:44:19Z</time>
      </trkpt>
      <trkpt lat="42.502237" lon="-0.260172">
        <ele>1413.7</ele>
        <time>2018-06-14T09:44:22Z</time>
      </trkpt>
      <trkpt lat="42.502246" lon="-0.259994">
        <ele>1413.1</ele>
        <time>2018-06-14T09:44:25Z</time>
      </trkpt>
      <trkpt lat="42.502252" lon="-0.259811">
        <ele>1412.4</ele>
        <time>2018-06-14T09:44:29Z</time>
      </trkpt>
      <trkpt lat="42.502251" lon="-0.259648">
        <ele>1411.6</ele>
        <time>2018-06-14T09:44:32Z</time>
      </trkpt>
      <trkpt lat="42.502229" lon="-0.259502">
        <ele>1410.1</ele>
        <time>2018-06-14T09:44:35Z</time>
      </trkpt>
      <trkpt lat="42.502175" lon="-0.259366">
        <ele>1407.5</ele>
        <time>2018-06-14T09:44:38Z</time>
      </trkpt>
      <trkpt lat="42.502117" lon="-0.259226">
        <ele>1404.8</ele>
        <time>2018-06-14T09:44:41Z</time>
      </trkpt>
      <trkpt lat="42.502083" lon="-0.259068">
        <ele>1403.1</ele>
        <time>2018-06-14T09:44:45Z</time>
      </trkpt>
      <trkpt lat="42.502078" lon="-0.258891">
        <ele>1402.9</ele>
        <time>2018-06-14T09:44:48Z</time>
      </trkpt>
      <trkpt lat="42.502096" lon="-0.258691">
        <ele>1402.9</ele>
        <time>2018-06-14T09:44:52Z</time>
      </trkpt>
      <trkpt lat="42.502125" lon="-0.258467">
        <ele>1401.7</ele>
        <time>2018-06-14T09:44:57Z</time>
      </trkpt>
      <trkpt lat="42.502168" lon="-0.257736">
        <ele>1393.8</ele>
        <time>2018-06-14T09:45:11Z</time>
      </trkpt>
      <trkpt lat="42.502167" lon="-0.257022">
        <ele>1391.9</ele>
        <time>2018-06-14T09:45:25Z</time>
      </trkpt>
      <trkpt lat="42.502167" lon="-0.256600">
        <ele>1390.7</ele>
        <time>2018-06-14T09:45:33Z</time>
      </trkpt>
      <trkpt lat="42.502196" lon="-0.256056">
        <ele>1386.2</ele>
        <time>2018-06-14T09:45:44Z</time>
      </trkpt>
      <trkpt lat="42.502216" lon="-0.255808">
        <ele>1383.2</ele>
        <time>2018-06-14T09:45:49Z</time>
      </trkpt>
      <trkpt lat="42.502202" lon="-0.255724">
        <ele>1381.6</ele>
        <time>2018-06-14T09:45:51Z</time>
      </trkpt>
      <trkpt lat="42.502169" lon="-0.255675">
        <ele>1380.5</ele>
        <time>2018-06-14T09:45:52Z</time>
      </trkpt>
      <trkpt lat="42.502119" lon="-0.255673">
        <ele>1379.6</ele>
        <time>2018-06-14T09:45:53Z</time>
      </trkpt>
      <trkpt lat="42.502070" lon="-0.255722">
        <ele>1378.8</ele>
        <time>2018-06-14T09:45:55Z</time>
      </trkpt>
      <trkpt lat="42.502028" lon="-0.255813">
        <ele>1378.1</ele>
        <time>2018-06-14T09:45:57Z</time>
      </trkpt>
      <trkpt lat="42.501992" lon="-0.255946">
        <ele>1378.6</ele>
        <time>2018-06-14T09:46:00Z</time>
      </trkpt>
      <trkpt lat="42.501950" lon="-0.256112">
        <ele>1379.0</ele>
        <time>2018-06-14T09:46:03Z</time>
      </trkpt>
      <trkpt lat="42.501892" lon="-0.256292">
        <ele>1379.4</ele>
        <time>2018-06-14T09:46:07Z</time>
      </trkpt>
      <trkpt lat="42.501743" lon="-0.256668">
        <ele>1381.0</ele>
        <time>2018-06-14T09:46:15Z</time>
      </trkpt>
      <trkpt lat="42.501619" lon="-0.257039">
        <ele>1383.3</ele>
        <time>2018-06-14T09:46:23Z</time>
      </trkpt>
      <trkpt lat="42.501574" lon="-0.257223">
        <ele>1383.6</ele>
        <time>2018-06-14T09:46:27Z</time>
      </trkpt>
      <trkpt lat="42.501540" lon="-0.257395">
        <ele>1384.2</ele>
        <time>2018-06-14T09:46:31Z</time>
      </trkpt>
      <trkpt lat="42.501468" lon="-0.257673">
        <ele>1384.8</ele>
        <time>2018-06-14T09:46:36Z</time>
      </trkpt>
      <trkpt lat="42.501406" lon="-0.257770">
        <ele>1385.4</ele>
        <time>2018-06-14T09:46:39Z</time>
      </trkpt>
      <trkpt lat="42.501321" lon="-0.257824">
        <ele>1384.9</ele>
        <time>2018-06-14T09:46:41Z</time>
      </trkpt>
      <trkpt lat="42.501221" lon="-0.257832">
        <ele>1384.1</ele>
        <time>2018-06-14T09:46:44Z</time>
      </trkpt>
      <trkpt lat="42.501122" lon="-0.257785">
        <ele>1383.6</ele>
        <time>2018-06-14T09:46:47Z</time>
      </trkpt>
      <trkpt lat="42.501037" lon="-0.257686">
        <ele>1382.5</ele>
        <time>2018-06-14T09:46:50Z</time>
      </trkpt>
      <trkpt lat="42.500961" lon="-0.257551">
        <ele>1380.9</ele>
        <time>2018-06-14T09:46:53Z</time>
      </trkpt>
      <trkpt lat="42.500882" lon="-0.257399">
        <ele>1378.4</ele>
        <time>2018-06-14T09:46:57Z</time>
      </trkpt>
      <trkpt lat="42.500484" lon="-0.256710">
        <ele>1372.2</ele>
        <time>2018-06-14T09:47:14Z</time>
      </trkpt>
      <trkpt lat="42.500414" lon="-0.256642">
        <ele>1373.0</ele>
        <time>2018-06-14T09:47:16Z</time>
      </trkpt>
      <trkpt lat="42.500331" lon="-0.256607">
        <ele>1372.2</ele>
        <time>2018-06-14T09:47:19Z</time>
      </trkpt>
      <trkpt lat="42.500232" lon="-0.256597">
        <ele>1371.2</ele>
        <time>2018-06-14T09:47:21Z</time>
      </trkpt>
      <trkpt lat="42.500122" lon="-0.256601">
        <ele>1370.4</ele>
        <time>2018-06-14T09:47:24Z</time>
      </trkpt>
      <trkpt lat="42.500011" lon="-0.256598">
        <ele>1371.4</ele>
        <time>2018-06-14T09:47:27Z</time>
      </trkpt>
      <trkpt lat="42.499908" lon="-0.256559">
        <ele>1372.0</ele>
        <time>2018-06-14T09:47:30Z</time>
      </trkpt>
      <trkpt lat="42.499813" lon="-0.256481">
        <ele>1371.3</ele>
        <time>2018-06-14T09:47:33Z</time>
      </trkpt>
      <trkpt lat="42.499721" lon="-0.256370">
        <ele>1369.3</ele>
        <time>2018-06-14T09:47:36Z</time>
      </trkpt>
      <trkpt lat="42.499625" lon="-0.256229">
        <ele>1366.4</ele>
        <time>2018-06-14T09:47:40Z</time>
      </trkpt>
      <trkpt lat="42.499527" lon="-0.256075">
        <ele>1362.9</ele>
        <time>2018-06-14T09:47:44Z</time>
      </trkpt>
      <trkpt lat="42.499283" lon="-0.255710">
        <ele>1356.3</ele>
        <time>2018-06-14T09:47:54Z</time>
      </trkpt>
      <trkpt lat="42.499202" lon="-0.255652">
        <ele>1354.7</ele>
        <time>2018-06-14T09:47:56Z</time>
      </trkpt>
      <trkpt lat="42.499110" lon="-0.255627">
        <ele>1353.8</ele>
        <time>2018-06-14T09:47:59Z</time>
      </trkpt>
      <trkpt lat="42.499022" lon="-0.255626">
        <ele>1353.5</ele>
        <time>2018-06-14T09:48:01Z</time>
      </trkpt>
      <trkpt lat="42.498944" lon="-0.255645">
        <ele>1353.5</ele>
        <time>2018-06-14T09:48:03Z</time>
      </trkpt>
      <trkpt lat="42.498870" lon="-0.255673">
        <ele>1353.9</ele>
        <time>2018-06-14T09:48:05Z</time>
      </trkpt>
      <trkpt lat="42.498710" lon="-0.255734">
        <ele>1353.5</ele>
        <time>2018-06-14T09:48:10Z</time>
      </trkpt>
      <trkpt lat="42.498503" lon="-0.255868">
        <ele>1348.7</ele>
        <time>2018-06-14T09:48:16Z</time>
      </trkpt>
      <trkpt lat="42.498453" lon="-0.255929">
        <ele>1348.2</ele>
        <time>2018-06-14T09:48:18Z</time>
      </trkpt>
      <trkpt lat="42.498376" lon="-0.256052">
        <ele>1349.3</ele>
        <time>2018-06-14T09:48:21Z</time>
      </trkpt>
      <trkpt lat="42.498308" lon="-0.256163">
        <ele>1350.7</ele>
        <time>2018-06-14T09:48:24Z</time>
      </trkpt>
      <trkpt lat="42.498255" lon="-0.256220">
        <ele>1350.5</ele>
        <time>2018-06-14T09:48:26Z</time>
      </trkpt>
      <trkpt lat="42.498183" lon="-0.256286">
        <ele>1349.9</ele>
        <time>2018-06-14T09:48:28Z</time>
      </trkpt>
      <trkpt lat="42.498097" lon="-0.256354">
        <ele>1348.2</ele>
        <time>2018-06-14T09:48:31Z</time>
      </trkpt>
      <trkpt lat="42.498000" lon="-0.256416">
        <ele>1345.1</ele>
        <time>2018-06-14T09:48:34Z</time>
      </trkpt>
      <trkpt lat="42.497899" lon="-0.256467">
        <ele>1340.9</ele>
        <time>2018-06-14T09:48:37Z</time>
      </trkpt>
      <trkpt lat="42.497804" lon="-0.256505">
        <ele>1337.0</ele>
        <time>2018-06-14T09:48:39Z</time>
      </trkpt>
      <trkpt lat="42.497723" lon="-0.256549">
        <ele>1333.8</ele>
        <time>2018-06-14T09:48:42Z</time>
      </trkpt>
      <trkpt lat="42.497653" lon="-0.256622">
        <ele>1332.1</ele>
        <time>2018-06-14T09:48:44Z</time>
      </trkpt>
      <trkpt lat="42.497597" lon="-0.256733">
        <ele>1331.9</ele>
        <time>2018-06-14T09:48:47Z</time>
      </trkpt>
      <trkpt lat="42.497553" lon="-0.256882">
        <ele>1332.1</ele>
        <time>2018-06-14T09:48:50Z</time>
      </trkpt>
      <trkpt lat="42.497505" lon="-0.257051">
        <ele>1331.8</ele>
        <time>2018-06-14T09:48:53Z</time>
      </trkpt>
      <trkpt lat="42.497431" lon="-0.257226">
        <ele>1332.4</ele>
        <time>2018-06-14T09:48:57Z</time>
      </trkpt>
      <trkpt lat="42.497333" lon="-0.257405">
        <ele>1333.9</ele>
        <time>2018-06-14T09:49:02Z</time>
      </trkpt>
      <trkpt lat="42.497228" lon="-0.257579">
        <ele>1334.5</ele>
        <time>2018-06-14T09:49:06Z</time>
      </trkpt>
      <trkpt lat="42.497006" lon="-0.257904">
        <ele>1332.7</ele>
        <time>2018-06-14T09:49:15Z</time>
      </trkpt>
      <trkpt lat="42.496887" lon="-0.258038">
        <ele>1329.4</ele>
        <time>2018-06-14T09:49:19Z</time>
      </trkpt>
      <trkpt lat="42.496771" lon="-0.258142">
        <ele>1326.5</ele>
        <time>2018-06-14T09:49:23Z</time>
      </trkpt>
      <trkpt lat="42.496661" lon="-0.258226">
        <ele>1325.3</ele>
        <time>2018-06-14T09:49:26Z</time>
      </trkpt>
      <trkpt lat="42.496564" lon="-0.258292">
        <ele>1325.0</ele>
        <time>2018-06-14T09:49:29Z</time>
      </trkpt>
      <trkpt lat="42.496495" lon="-0.258351">
        <ele>1324.6</ele>
        <time>2018-06-14T09:49:31Z</time>
      </trkpt>
      <trkpt lat="42.496458" lon="-0.258425">
        <ele>1324.2</ele>
        <time>2018-06-14T09:49:33Z</time>
      </trkpt>
      <trkpt lat="42.496458" lon="-0.258512">
        <ele>1323.7</ele>
        <time>2018-06-14T09:49:35Z</time>
      </trkpt>
      <trkpt lat="42.496492" lon="-0.258602">
        <ele>1322.7</ele>
        <time>2018-06-14T09:49:37Z</time>
      </trkpt>
      <trkpt lat="42.496563" lon="-0.258684">
        <ele>1321.5</ele>
        <time>2018-06-14T09:49:39Z</time>
      </trkpt>
      <trkpt lat="42.496663" lon="-0.258761">
        <ele>1318.8</ele>
        <time>2018-06-14T09:49:42Z</time>
      </trkpt>
      <trkpt lat="42.496782" lon="-0.258834">
        <ele>1315.5</ele>
        <time>2018-06-14T09:49:46Z</time>
      </trkpt>
      <trkpt lat="42.496916" lon="-0.258910">
        <ele>1314.5</ele>
        <time>2018-06-14T09:49:50Z</time>
      </trkpt>
      <trkpt lat="42.497050" lon="-0.259004">
        <ele>1313.3</ele>
        <time>2018-06-14T09:49:54Z</time>
      </trkpt>
      <trkpt lat="42.497175" lon="-0.259115">
        <ele>1313.2</ele>
        <time>2018-06-14T09:49:58Z</time>
      </trkpt>
      <trkpt lat="42.497286" lon="-0.259239">
        <ele>1313.3</ele>
        <time>2018-06-14T09:50:01Z</time>
      </trkpt>
      <trkpt lat="42.497381" lon="-0.259372">
        <ele>1314.7</ele>
        <time>2018-06-14T09:50:05Z</time>
      </trkpt>
      <trkpt lat="42.497454" lon="-0.259514">
        <ele>1317.8</ele>
        <time>2018-06-14T09:50:09Z</time>
      </trkpt>
      <trkpt lat="42.497500" lon="-0.259666">
        <ele>1319.0</ele>
        <time>2018-06-14T09:50:12Z</time>
      </trkpt>
      <trkpt lat="42.497519" lon="-0.259822">
        <ele>1318.1</ele>
        <time>2018-06-14T09:50:15Z</time>
      </trkpt>
      <trkpt lat="42.497527" lon="-0.259976">
        <ele>1315.6</ele>
        <time>2018-06-14T09:50:18Z</time>
      </trkpt>
      <trkpt lat="42.497547" lon="-0.260119">
        <ele>1313.8</ele>
        <time>2018-06-14T09:50:21Z</time>
      </trkpt>
      <trkpt lat="42.497593" lon="-0.260241">
        <ele>1312.8</ele>
        <time>2018-06-14T09:50:24Z</time>
      </trkpt>
      <trkpt lat="42.497670" lon="-0.260344">
        <ele>1312.9</ele>
        <time>2018-06-14T09:50:26Z</time>
      </trkpt>
      <trkpt lat="42.497777" lon="-0.260438">
        <ele>1312.2</ele>
        <time>2018-06-14T09:50:30Z</time>
      </trkpt>
      <trkpt lat="42.497897" lon="-0.260542">
        <ele>1311.0</ele>
        <time>2018-06-14T09:50:34Z</time>
      </trkpt>
      <trkpt lat="42.498009" lon="-0.260659">
        <ele>1308.0</ele>
        <time>2018-06-14T09:50:37Z</time>
      </trkpt>
      <trkpt lat="42.498112" lon="-0.260781">
        <ele>1305.2</ele>
        <time>2018-06-14T09:50:41Z</time>
      </trkpt>
      <trkpt lat="42.498202" lon="-0.260905">
        <ele>1303.7</ele>
        <time>2018-06-14T09:50:44Z</time>
      </trkpt>
      <trkpt lat="42.498280" lon="-0.261019">
        <ele>1304.0</ele>
        <time>2018-06-14T09:50:48Z</time>
      </trkpt>
      <trkpt lat="42.498381" lon="-0.261189">
        <ele>1305.2</ele>
        <time>2018-06-14T09:50:52Z</time>
      </trkpt>
      <trkpt lat="42.498398" lon="-0.261264">
        <ele>1304.9</ele>
        <time>2018-06-14T09:50:53Z</time>
      </trkpt>
      <trkpt lat="42.498385" lon="-0.261332">
        <ele>1303.2</ele>
        <time>2018-06-14T09:50:55Z</time>
      </trkpt>
      <trkpt lat="42.498348" lon="-0.261359">
        <ele>1301.0</ele>
        <time>2018-06-14T09:50:56Z</time>
      </trkpt>
      <trkpt lat="42.498303" lon="-0.261336">
        <ele>1299.4</ele>
        <time>2018-06-14T09:50:57Z</time>
      </trkpt>
      <trkpt lat="42.498251" lon="-0.261263">
        <ele>1298.9</ele>
        <time>2018-06-14T09:50:59Z</time>
      </trkpt>
      <trkpt lat="42.498192" lon="-0.261160">
        <ele>1298.5</ele>
        <time>2018-06-14T09:51:02Z</time>
      </trkpt>
      <trkpt lat="42.498120" lon="-0.261051">
        <ele>1298.5</ele>
        <time>2018-06-14T09:51:05Z</time>
      </trkpt>
      <trkpt lat="42.497731" lon="-0.260635">
        <ele>1304.1</ele>
        <time>2018-06-14T09:51:18Z</time>
      </trkpt>
      <trkpt lat="42.497618" lon="-0.260580">
        <ele>1303.0</ele>
        <time>2018-06-14T09:51:21Z</time>
      </trkpt>
      <trkpt lat="42.497419" lon="-0.260496">
        <ele>1296.2</ele>
        <time>2018-06-14T09:51:27Z</time>
      </trkpt>
      <trkpt lat="42.497347" lon="-0.260430">
        <ele>1295.7</ele>
        <time>2018-06-14T09:51:29Z</time>
      </trkpt>
      <trkpt lat="42.497291" lon="-0.260332">
        <ele>1295.6</ele>
        <time>2018-06-14T09:51:32Z</time>
      </trkpt>
      <trkpt lat="42.497251" lon="-0.260207">
        <ele>1296.8</ele>
        <time>2018-06-14T09:51:34Z</time>
      </trkpt>
      <trkpt lat="42.497225" lon="-0.260060">
        <ele>1298.3</ele>
        <time>2018-06-14T09:51:37Z</time>
      </trkpt>
      <trkpt lat="42.497207" lon="-0.259916">
        <ele>1299.3</ele>
        <time>2018-06-14T09:51:40Z</time>
      </trkpt>
      <trkpt lat="42.497185" lon="-0.259799">
        <ele>1299.8</ele>
        <time>2018-06-14T09:51:43Z</time>
      </trkpt>
      <trkpt lat="42.497153" lon="-0.259707">
        <ele>1299.5</ele>
        <time>2018-06-14T09:51:44Z</time>
      </trkpt>
      <trkpt lat="42.497114" lon="-0.259633">
        <ele>1298.7</ele>
        <time>2018-06-14T09:51:46Z</time>
      </trkpt>
      <trkpt lat="42.497067" lon="-0.259570">
        <ele>1298.1</ele>
        <time>2018-06-14T09:51:48Z</time>
      </trkpt>
      <trkpt lat="42.497016" lon="-0.259514">
        <ele>1298.9</ele>
        <time>2018-06-14T09:51:50Z</time>
      </trkpt>
      <trkpt lat="42.496956" lon="-0.259469">
        <ele>1299.4</ele>
        <time>2018-06-14T09:51:52Z</time>
      </trkpt>
      <trkpt lat="42.496888" lon="-0.259435">
        <ele>1299.5</ele>
        <time>2018-06-14T09:51:54Z</time>
      </trkpt>
      <trkpt lat="42.496809" lon="-0.259404">
        <ele>1299.5</ele>
        <time>2018-06-14T09:51:56Z</time>
      </trkpt>
      <trkpt lat="42.496468" lon="-0.259309">
        <ele>1302.5</ele>
        <time>2018-06-14T09:52:05Z</time>
      </trkpt>
      <trkpt lat="42.496330" lon="-0.259300">
        <ele>1302.5</ele>
        <time>2018-06-14T09:52:09Z</time>
      </trkpt>
      <trkpt lat="42.496180" lon="-0.259311">
        <ele>1301.5</ele>
        <time>2018-06-14T09:52:13Z</time>
      </trkpt>
      <trkpt lat="42.496021" lon="-0.259343">
        <ele>1299.6</ele>
        <time>2018-06-14T09:52:17Z</time>
      </trkpt>
      <trkpt lat="42.495382" lon="-0.259498">
        <ele>1289.4</ele>
        <time>2018-06-14T09:52:34Z</time>
      </trkpt>
      <trkpt lat="42.494989" lon="-0.259665">
        <ele>1282.4</ele>
        <time>2018-06-14T09:52:45Z</time>
      </trkpt>
      <trkpt lat="42.494874" lon="-0.259760">
        <ele>1280.2</ele>
        <time>2018-06-14T09:52:49Z</time>
      </trkpt>
      <trkpt lat="42.494538" lon="-0.260040">
        <ele>1270.6</ele>
        <time>2018-06-14T09:53:00Z</time>
      </trkpt>
      <trkpt lat="42.494322" lon="-0.260156">
        <ele>1268.8</ele>
        <time>2018-06-14T09:53:06Z</time>
      </trkpt>
      <trkpt lat="42.494222" lon="-0.260172">
        <ele>1268.5</ele>
        <time>2018-06-14T09:53:09Z</time>
      </trkpt>
      <trkpt lat="42.494125" lon="-0.260149">
        <ele>1268.9</ele>
        <time>2018-06-14T09:53:11Z</time>
      </trkpt>
      <trkpt lat="42.494034" lon="-0.260088">
        <ele>1269.5</ele>
        <time>2018-06-14T09:53:14Z</time>
      </trkpt>
      <trkpt lat="42.493953" lon="-0.259994">
        <ele>1267.9</ele>
        <time>2018-06-14T09:53:17Z</time>
      </trkpt>
      <trkpt lat="42.493887" lon="-0.259877">
        <ele>1266.8</ele>
        <time>2018-06-14T09:53:20Z</time>
      </trkpt>
      <trkpt lat="42.493834" lon="-0.259743">
        <ele>1266.2</ele>
        <time>2018-06-14T09:53:23Z</time>
      </trkpt>
      <trkpt lat="42.493799" lon="-0.259607">
        <ele>1265.9</ele>
        <time>2018-06-14T09:53:25Z</time>
      </trkpt>
      <trkpt lat="42.493793" lon="-0.259476">
        <ele>1265.9</ele>
        <time>2018-06-14T09:53:28Z</time>
      </trkpt>
      <trkpt lat="42.493811" lon="-0.259358">
        <ele>1266.6</ele>
        <time>2018-06-14T09:53:30Z</time>
      </trkpt>
      <trkpt lat="42.493836" lon="-0.259259">
        <ele>1267.2</ele>
        <time>2018-06-14T09:53:32Z</time>
      </trkpt>
      <trkpt lat="42.493850" lon="-0.259175">
        <ele>1266.7</ele>
        <time>2018-06-14T09:53:34Z</time>
      </trkpt>
      <trkpt lat="42.493836" lon="-0.259108">
        <ele>1265.4</ele>
        <time>2018-06-14T09:53:35Z</time>
      </trkpt>
      <trkpt lat="42.493797" lon="-0.259078">
        <ele>1263.5</ele>
        <time>2018-06-14T09:53:37Z</time>
      </trkpt>
      <trkpt lat="42.493750" lon="-0.259094">
        <ele>1261.7</ele>
        <time>2018-06-14T09:53:38Z</time>
      </trkpt>
      <trkpt lat="42.493710" lon="-0.259151">
        <ele>1259.2</ele>
        <time>2018-06-14T09:53:40Z</time>
      </trkpt>
      <trkpt lat="42.493679" lon="-0.259250">
        <ele>1257.9</ele>
        <time>2018-06-14T09:53:42Z</time>
      </trkpt>
      <trkpt lat="42.493665" lon="-0.259390">
        <ele>1257.2</ele>
        <time>2018-06-14T09:53:45Z</time>
      </trkpt>
      <trkpt lat="42.493669" lon="-0.259547">
        <ele>1257.4</ele>
        <time>2018-06-14T09:53:48Z</time>
      </trkpt>
      <trkpt lat="42.493682" lon="-0.259700">
        <ele>1257.4</ele>
        <time>2018-06-14T09:53:51Z</time>
      </trkpt>
      <trkpt lat="42.493709" lon="-0.259852">
        <ele>1258.4</ele>
        <time>2018-06-14T09:53:54Z</time>
      </trkpt>
      <trkpt lat="42.493749" lon="-0.259999">
        <ele>1260.4</ele>
        <time>2018-06-14T09:53:57Z</time>
      </trkpt>
      <trkpt lat="42.493801" lon="-0.260148">
        <ele>1260.6</ele>
        <time>2018-06-14T09:54:00Z</time>
      </trkpt>
      <trkpt lat="42.493956" lon="-0.260549">
        <ele>1257.6</ele>
        <time>2018-06-14T09:54:09Z</time>
      </trkpt>
      <trkpt lat="42.494006" lon="-0.260650">
        <ele>1257.1</ele>
        <time>2018-06-14T09:54:11Z</time>
      </trkpt>
      <trkpt lat="42.494061" lon="-0.260725">
        <ele>1255.3</ele>
        <time>2018-06-14T09:54:13Z</time>
      </trkpt>
      <trkpt lat="42.494128" lon="-0.260770">
        <ele>1252.9</ele>
        <time>2018-06-14T09:54:16Z</time>
      </trkpt>
      <trkpt lat="42.494207" lon="-0.260778">
        <ele>1252.6</ele>
        <time>2018-06-14T09:54:18Z</time>
      </trkpt>
      <trkpt lat="42.494305" lon="-0.260755">
        <ele>1253.6</ele>
        <time>2018-06-14T09:54:20Z</time>
      </trkpt>
      <trkpt lat="42.494419" lon="-0.260701">
        <ele>1254.9</ele>
        <time>2018-06-14T09:54:23Z</time>
      </trkpt>
      <trkpt lat="42.494547" lon="-0.260626">
        <ele>1256.9</ele>
        <time>2018-06-14T09:54:27Z</time>
      </trkpt>
      <trkpt lat="42.494832" lon="-0.260472">
        <ele>1262.5</ele>
        <time>2018-06-14T09:54:35Z</time>
      </trkpt>
      <trkpt lat="42.495280" lon="-0.260335">
        <ele>1256.0</ele>
        <time>2018-06-14T09:54:48Z</time>
      </trkpt>
      <trkpt lat="42.496084" lon="-0.260227">
        <ele>1256.0</ele>
        <time>2018-06-14T09:55:09Z</time>
      </trkpt>
      <trkpt lat="42.496248" lon="-0.260220">
        <ele>1255.1</ele>
        <time>2018-06-14T09:55:14Z</time>
      </trkpt>
      <trkpt lat="42.496310" lon="-0.260237">
        <ele>1254.8</ele>
        <time>2018-06-14T09:55:15Z</time>
      </trkpt>
      <trkpt lat="42.496353" lon="-0.260279">
        <ele>1253.5</ele>
        <time>2018-06-14T09:55:17Z</time>
      </trkpt>
      <trkpt lat="42.496367" lon="-0.260340">
        <ele>1251.5</ele>
        <time>2018-06-14T09:55:18Z</time>
      </trkpt>
      <trkpt lat="42.496339" lon="-0.260401">
        <ele>1249.2</ele>
        <time>2018-06-14T09:55:19Z</time>
      </trkpt>
      <trkpt lat="42.496281" lon="-0.260437">
        <ele>1247.6</ele>
        <time>2018-06-14T09:55:21Z</time>
      </trkpt>
      <trkpt lat="42.496198" lon="-0.260449">
        <ele>1247.2</ele>
        <time>2018-06-14T09:55:23Z</time>
      </trkpt>
      <trkpt lat="42.496092" lon="-0.260454">
        <ele>1247.6</ele>
        <time>2018-06-14T09:55:26Z</time>
      </trkpt>
      <trkpt lat="42.495968" lon="-0.260475">
        <ele>1247.3</ele>
        <time>2018-06-14T09:55:30Z</time>
      </trkpt>
      <trkpt lat="42.495836" lon="-0.260515">
        <ele>1245.2</ele>
        <time>2018-06-14T09:55:33Z</time>
      </trkpt>
      <trkpt lat="42.495433" lon="-0.260691">
        <ele>1238.0</ele>
        <time>2018-06-14T09:55:45Z</time>
      </trkpt>
      <trkpt lat="42.495048" lon="-0.260974">
        <ele>1236.6</ele>
        <time>2018-06-14T09:55:56Z</time>
      </trkpt>
      <trkpt lat="42.494589" lon="-0.261453">
        <ele>1224.7</ele>
        <time>2018-06-14T09:56:12Z</time>
      </trkpt>
      <trkpt lat="42.494235" lon="-0.261693">
        <ele>1215.9</ele>
        <time>2018-06-14T09:56:22Z</time>
      </trkpt>
      <trkpt lat="42.494128" lon="-0.261739">
        <ele>1212.3</ele>
        <time>2018-06-14T09:56:26Z</time>
      </trkpt>
      <trkpt lat="42.494023" lon="-0.261763">
        <ele>1209.9</ele>
        <time>2018-06-14T09:56:28Z</time>
      </trkpt>
      <trkpt lat="42.493913" lon="-0.261752">
        <ele>1206.4</ele>
        <time>2018-06-14T09:56:32Z</time>
      </trkpt>
      <trkpt lat="42.493797" lon="-0.261707">
        <ele>1204.1</ele>
        <time>2018-06-14T09:56:35Z</time>
      </trkpt>
      <trkpt lat="42.493682" lon="-0.261637">
        <ele>1202.3</ele>
        <time>2018-06-14T09:56:38Z</time>
      </trkpt>
      <trkpt lat="42.493568" lon="-0.261552">
        <ele>1200.9</ele>
        <time>2018-06-14T09:56:42Z</time>
      </trkpt>
      <trkpt lat="42.493461" lon="-0.261455">
        <ele>1198.9</ele>
        <time>2018-06-14T09:56:45Z</time>
      </trkpt>
      <trkpt lat="42.493367" lon="-0.261338">
        <ele>1196.7</ele>
        <time>2018-06-14T09:56:48Z</time>
      </trkpt>
      <trkpt lat="42.493276" lon="-0.261205">
        <ele>1195.8</ele>
        <time>2018-06-14T09:56:52Z</time>
      </trkpt>
      <trkpt lat="42.493196" lon="-0.261057">
        <ele>1195.9</ele>
        <time>2018-06-14T09:56:56Z</time>
      </trkpt>
      <trkpt lat="42.493126" lon="-0.260900">
        <ele>1194.4</ele>
        <time>2018-06-14T09:56:59Z</time>
      </trkpt>
      <trkpt lat="42.493061" lon="-0.260730">
        <ele>1193.2</ele>
        <time>2018-06-14T09:57:03Z</time>
      </trkpt>
      <trkpt lat="42.492998" lon="-0.260546">
        <ele>1192.1</ele>
        <time>2018-06-14T09:57:07Z</time>
      </trkpt>
      <trkpt lat="42.492808" lon="-0.259686">
        <ele>1190.6</ele>
        <time>2018-06-14T09:57:25Z</time>
      </trkpt>
      <trkpt lat="42.492735" lon="-0.259278">
        <ele>1189.3</ele>
        <time>2018-06-14T09:57:33Z</time>
      </trkpt>
      <trkpt lat="42.492672" lon="-0.258935">
        <ele>1190.1</ele>
        <time>2018-06-14T09:57:40Z</time>
      </trkpt>
      <trkpt lat="42.492661" lon="-0.258769">
        <ele>1191.2</ele>
        <time>2018-06-14T09:57:43Z</time>
      </trkpt>
      <trkpt lat="42.492661" lon="-0.258616">
        <ele>1193.1</ele>
        <time>2018-06-14T09:57:46Z</time>
      </trkpt>
      <trkpt lat="42.492678" lon="-0.258477">
        <ele>1195.6</ele>
        <time>2018-06-14T09:57:49Z</time>
      </trkpt>
      <trkpt lat="42.492720" lon="-0.258345">
        <ele>1197.7</ele>
        <time>2018-06-14T09:57:52Z</time>
      </trkpt>
      <trkpt lat="42.492787" lon="-0.258212">
        <ele>1200.4</ele>
        <time>2018-06-14T09:57:55Z</time>
      </trkpt>
      <trkpt lat="42.492864" lon="-0.258076">
        <ele>1200.7</ele>
        <time>2018-06-14T09:57:58Z</time>
      </trkpt>
      <trkpt lat="42.492941" lon="-0.257947">
        <ele>1200.5</ele>
        <time>2018-06-14T09:58:01Z</time>
      </trkpt>
      <trkpt lat="42.493082" lon="-0.257729">
        <ele>1201.7</ele>
        <time>2018-06-14T09:58:07Z</time>
      </trkpt>
      <trkpt lat="42.493181" lon="-0.257586">
        <ele>1202.6</ele>
        <time>2018-06-14T09:58:11Z</time>
      </trkpt>
      <trkpt lat="42.493188" lon="-0.257518">
        <ele>1201.6</ele>
        <time>2018-06-14T09:58:12Z</time>
      </trkpt>
      <trkpt lat="42.493161" lon="-0.257466">
        <ele>1199.6</ele>
        <time>2018-06-14T09:58:14Z</time>
      </trkpt>
      <trkpt lat="42.493108" lon="-0.257460">
        <ele>1197.4</ele>
        <time>2018-06-14T09:58:15Z</time>
      </trkpt>
      <trkpt lat="42.493043" lon="-0.257513">
        <ele>1196.1</ele>
        <time>2018-06-14T09:58:17Z</time>
      </trkpt>
      <trkpt lat="42.492975" lon="-0.257617">
        <ele>1196.3</ele>
        <time>2018-06-14T09:58:20Z</time>
      </trkpt>
      <trkpt lat="42.492902" lon="-0.257748">
        <ele>1196.1</ele>
        <time>2018-06-14T09:58:23Z</time>
      </trkpt>
      <trkpt lat="42.492809" lon="-0.257878">
        <ele>1194.9</ele>
        <time>2018-06-14T09:58:27Z</time>
      </trkpt>
      <trkpt lat="42.492703" lon="-0.258006">
        <ele>1193.8</ele>
        <time>2018-06-14T09:58:30Z</time>
      </trkpt>
      <trkpt lat="42.492594" lon="-0.258142">
        <ele>1191.6</ele>
        <time>2018-06-14T09:58:34Z</time>
      </trkpt>
      <trkpt lat="42.492408" lon="-0.258381">
        <ele>1181.0</ele>
        <time>2018-06-14T09:58:42Z</time>
      </trkpt>
      <trkpt lat="42.492346" lon="-0.258492">
        <ele>1176.8</ele>
        <time>2018-06-14T09:58:45Z</time>
      </trkpt>
      <trkpt lat="42.492306" lon="-0.258614">
        <ele>1173.0</ele>
        <time>2018-06-14T09:58:47Z</time>
      </trkpt>
      <trkpt lat="42.492287" lon="-0.258755">
        <ele>1170.4</ele>
        <time>2018-06-14T09:58:50Z</time>
      </trkpt>
      <trkpt lat="42.492289" lon="-0.258912">
        <ele>1169.0</ele>
        <time>2018-06-14T09:58:53Z</time>
      </trkpt>
      <trkpt lat="42.492303" lon="-0.259085">
        <ele>1167.9</ele>
        <time>2018-06-14T09:58:57Z</time>
      </trkpt>
      <trkpt lat="42.492342" lon="-0.259465">
        <ele>1166.0</ele>
        <time>2018-06-14T09:59:04Z</time>
      </trkpt>
      <trkpt lat="42.492421" lon="-0.260214">
        <ele>1167.8</ele>
        <time>2018-06-14T09:59:19Z</time>
      </trkpt>
      <trkpt lat="42.492427" lon="-0.260397">
        <ele>1167.7</ele>
        <time>2018-06-14T09:59:23Z</time>
      </trkpt>
      <trkpt lat="42.492436" lon="-0.260774">
        <ele>1166.9</ele>
        <time>2018-06-14T09:59:30Z</time>
      </trkpt>
      <trkpt lat="42.492515" lon="-0.261471">
        <ele>1156.6</ele>
        <time>2018-06-14T09:59:44Z</time>
      </trkpt>
      <trkpt lat="42.492702" lon="-0.262076">
        <ele>1149.8</ele>
        <time>2018-06-14T09:59:57Z</time>
      </trkpt>
      <trkpt lat="42.492826" lon="-0.262375">
        <ele>1146.8</ele>
        <time>2018-06-14T10:00:04Z</time>
      </trkpt>
      <trkpt lat="42.493087" lon="-0.262801">
        <ele>1142.4</ele>
        <time>2018-06-14T10:00:15Z</time>
      </trkpt>
      <trkpt lat="42.493184" lon="-0.262935">
        <ele>1141.5</ele>
        <time>2018-06-14T10:00:18Z</time>
      </trkpt>
      <trkpt lat="42.493477" lon="-0.263272">
        <ele>1139.2</ele>
        <time>2018-06-14T10:00:28Z</time>
      </trkpt>
      <trkpt lat="42.493572" lon="-0.263362">
        <ele>1138.7</ele>
        <time>2018-06-14T10:00:31Z</time>
      </trkpt>
      <trkpt lat="42.493874" lon="-0.263555">
        <ele>1136.6</ele>
        <time>2018-06-14T10:00:40Z</time>
      </trkpt>
      <trkpt lat="42.493988" lon="-0.263598">
        <ele>1136.1</ele>
        <time>2018-06-14T10:00:43Z</time>
      </trkpt>
      <trkpt lat="42.494109" lon="-0.263632">
        <ele>1136.1</ele>
        <time>2018-06-14T10:00:47Z</time>
      </trkpt>
      <trkpt lat="42.494235" lon="-0.263658">
        <ele>1136.3</ele>
        <time>2018-06-14T10:00:50Z</time>
      </trkpt>
      <trkpt lat="42.494372" lon="-0.263679">
        <ele>1136.0</ele>
        <time>2018-06-14T10:00:54Z</time>
      </trkpt>
      <trkpt lat="42.494786" lon="-0.263684">
        <ele>1137.6</ele>
        <time>2018-06-14T10:01:05Z</time>
      </trkpt>
      <trkpt lat="42.494916" lon="-0.263651">
        <ele>1139.4</ele>
        <time>2018-06-14T10:01:08Z</time>
      </trkpt>
      <trkpt lat="42.495041" lon="-0.263598">
        <ele>1141.3</ele>
        <time>2018-06-14T10:01:12Z</time>
      </trkpt>
      <trkpt lat="42.495154" lon="-0.263532">
        <ele>1144.6</ele>
        <time>2018-06-14T10:01:15Z</time>
      </trkpt>
      <trkpt lat="42.495249" lon="-0.263460">
        <ele>1148.1</ele>
        <time>2018-06-14T10:01:18Z</time>
      </trkpt>
      <trkpt lat="42.495332" lon="-0.263398">
        <ele>1150.0</ele>
        <time>2018-06-14T10:01:21Z</time>
      </trkpt>
      <trkpt lat="42.495407" lon="-0.263357">
        <ele>1151.1</ele>
        <time>2018-06-14T10:01:23Z</time>
      </trkpt>
      <trkpt lat="42.495473" lon="-0.263354">
        <ele>1151.3</ele>
        <time>2018-06-14T10:01:25Z</time>
      </trkpt>
      <trkpt lat="42.495523" lon="-0.263389">
        <ele>1150.9</ele>
        <time>2018-06-14T10:01:26Z</time>
      </trkpt>
      <trkpt lat="42.495552" lon="-0.263459">
        <ele>1149.7</ele>
        <time>2018-06-14T10:01:28Z</time>
      </trkpt>
      <trkpt lat="42.495556" lon="-0.263557">
        <ele>1148.1</ele>
        <time>2018-06-14T10:01:30Z</time>
      </trkpt>
      <trkpt lat="42.495527" lon="-0.263676">
        <ele>1145.9</ele>
        <time>2018-06-14T10:01:32Z</time>
      </trkpt>
      <trkpt lat="42.495474" lon="-0.263809">
        <ele>1142.6</ele>
        <time>2018-06-14T10:01:35Z</time>
      </trkpt>
      <trkpt lat="42.495408" lon="-0.263961">
        <ele>1137.5</ele>
        <time>2018-06-14T10:01:39Z</time>
      </trkpt>
      <trkpt lat="42.495342" lon="-0.264130">
        <ele>1134.0</ele>
        <time>2018-06-14T10:01:43Z</time>
      </trkpt>
      <trkpt lat="42.495054" lon="-0.264880">
        <ele>1127.1</ele>
        <time>2018-06-14T10:01:59Z</time>
      </trkpt>
      <trkpt lat="42.495000" lon="-0.265080">
        <ele>1124.3</ele>
        <time>2018-06-14T10:02:04Z</time>
      </trkpt>
      <trkpt lat="42.494921" lon="-0.265443">
        <ele>1120.4</ele>
        <time>2018-06-14T10:02:11Z</time>
      </trkpt>
      <trkpt lat="42.494900" lon="-0.265607">
        <ele>1118.9</ele>
        <time>2018-06-14T10:02:14Z</time>
      </trkpt>
      <trkpt lat="42.494899" lon="-0.265769">
        <ele>1117.7</ele>
        <time>2018-06-14T10:02:18Z</time>
      </trkpt>
      <trkpt lat="42.494924" lon="-0.265930">
        <ele>1116.6</ele>
        <time>2018-06-14T10:02:21Z</time>
      </trkpt>
      <trkpt lat="42.494972" lon="-0.266085">
        <ele>1114.7</ele>
        <time>2018-06-14T10:02:24Z</time>
      </trkpt>
      <trkpt lat="42.495035" lon="-0.266241">
        <ele>1112.0</ele>
        <time>2018-06-14T10:02:28Z</time>
      </trkpt>
      <trkpt lat="42.495187" lon="-0.266557">
        <ele>1103.8</ele>
        <time>2018-06-14T10:02:35Z</time>
      </trkpt>
      <trkpt lat="42.495538" lon="-0.267093">
        <ele>1094.4</ele>
        <time>2018-06-14T10:02:49Z</time>
      </trkpt>
      <trkpt lat="42.495821" lon="-0.267479">
        <ele>1091.2</ele>
        <time>2018-06-14T10:03:00Z</time>
      </trkpt>
      <trkpt lat="42.496182" lon="-0.267928">
        <ele>1101.0</ele>
        <time>2018-06-14T10:03:13Z</time>
      </trkpt>
      <trkpt lat="42.496337" lon="-0.268100">
        <ele>1107.3</ele>
        <time>2018-06-14T10:03:19Z</time>
      </trkpt>
      <trkpt lat="42.496387" lon="-0.268191">
        <ele>1108.5</ele>
        <time>2018-06-14T10:03:21Z</time>
      </trkpt>
      <trkpt lat="42.496412" lon="-0.268297">
        <ele>1108.4</ele>
        <time>2018-06-14T10:03:23Z</time>
      </trkpt>
      <trkpt lat="42.496399" lon="-0.268403">
        <ele>1108.1</ele>
        <time>2018-06-14T10:03:25Z</time>
      </trkpt>
      <trkpt lat="42.496354" lon="-0.268490">
        <ele>1108.0</ele>
        <time>2018-06-14T10:03:27Z</time>
      </trkpt>
      <trkpt lat="42.496290" lon="-0.268546">
        <ele>1107.8</ele>
        <time>2018-06-14T10:03:29Z</time>
      </trkpt>
      <trkpt lat="42.496218" lon="-0.268560">
        <ele>1107.5</ele>
        <time>2018-06-14T10:03:31Z</time>
      </trkpt>
      <trkpt lat="42.496148" lon="-0.268527">
        <ele>1106.4</ele>
        <time>2018-06-14T10:03:33Z</time>
      </trkpt>
      <trkpt lat="42.496086" lon="-0.268441">
        <ele>1104.3</ele>
        <time>2018-06-14T10:03:36Z</time>
      </trkpt>
      <trkpt lat="42.496028" lon="-0.268323">
        <ele>1099.8</ele>
        <time>2018-06-14T10:03:39Z</time>
      </trkpt>
      <trkpt lat="42.495964" lon="-0.268177">
        <ele>1093.4</ele>
        <time>2018-06-14T10:03:42Z</time>
      </trkpt>
      <trkpt lat="42.495882" lon="-0.268031">
        <ele>1087.3</ele>
        <time>2018-06-14T10:03:46Z</time>
      </trkpt>
      <trkpt lat="42.495780" lon="-0.267894">
        <ele>1081.5</ele>
        <time>2018-06-14T10:03:50Z</time>
      </trkpt>
      <trkpt lat="42.495659" lon="-0.267772">
        <ele>1077.0</ele>
        <time>2018-06-14T10:03:54Z</time>
      </trkpt>
      <trkpt lat="42.495525" lon="-0.267663">
        <ele>1073.9</ele>
        <time>2018-06-14T10:03:59Z</time>
      </trkpt>
      <trkpt lat="42.495387" lon="-0.267565">
        <ele>1073.2</ele>
        <time>2018-06-14T10:04:03Z</time>
      </trkpt>
      <trkpt lat="42.495241" lon="-0.267485">
        <ele>1074.3</ele>
        <time>2018-06-14T10:04:07Z</time>
      </trkpt>
      <trkpt lat="42.495089" lon="-0.267418">
        <ele>1074.7</ele>
        <time>2018-06-14T10:04:11Z</time>
      </trkpt>
      <trkpt lat="42.494572" lon="-0.267153">
        <ele>1087.3</ele>
        <time>2018-06-14T10:04:26Z</time>
      </trkpt>
      <trkpt lat="42.494460" lon="-0.267119">
        <ele>1088.7</ele>
        <time>2018-06-14T10:04:29Z</time>
      </trkpt>
      <trkpt lat="42.494348" lon="-0.267119">
        <ele>1089.2</ele>
        <time>2018-06-14T10:04:32Z</time>
      </trkpt>
      <trkpt lat="42.494236" lon="-0.267153">
        <ele>1087.6</ele>
        <time>2018-06-14T10:04:35Z</time>
      </trkpt>
      <trkpt lat="42.494127" lon="-0.267215">
        <ele>1085.3</ele>
        <time>2018-06-14T10:04:38Z</time>
      </trkpt>
      <trkpt lat="42.494022" lon="-0.267308">
        <ele>1084.0</ele>
        <time>2018-06-14T10:04:42Z</time>
      </trkpt>
      <trkpt lat="42.493917" lon="-0.267438">
        <ele>1083.9</ele>
        <time>2018-06-14T10:04:46Z</time>
      </trkpt>
      <trkpt lat="42.493815" lon="-0.267590">
        <ele>1085.1</ele>
        <time>2018-06-14T10:04:50Z</time>
      </trkpt>
      <trkpt lat="42.493719" lon="-0.267739">
        <ele>1087.3</ele>
        <time>2018-06-14T10:04:54Z</time>
      </trkpt>
      <trkpt lat="42.493567" lon="-0.267964">
        <ele>1089.6</ele>
        <time>2018-06-14T10:04:59Z</time>
      </trkpt>
      <trkpt lat="42.493505" lon="-0.268030">
        <ele>1089.7</ele>
        <time>2018-06-14T10:05:02Z</time>
      </trkpt>
      <trkpt lat="42.493452" lon="-0.268058">
        <ele>1089.2</ele>
        <time>2018-06-14T10:05:03Z</time>
      </trkpt>
      <trkpt lat="42.493384" lon="-0.267981">
        <ele>1086.4</ele>
        <time>2018-06-14T10:05:06Z</time>
      </trkpt>
      <trkpt lat="42.493384" lon="-0.267888">
        <ele>1085.7</ele>
        <time>2018-06-14T10:05:07Z</time>
      </trkpt>
      <trkpt lat="42.493409" lon="-0.267783">
        <ele>1084.7</ele>
        <time>2018-06-14T10:05:10Z</time>
      </trkpt>
      <trkpt lat="42.493441" lon="-0.267653">
        <ele>1083.3</ele>
        <time>2018-06-14T10:05:12Z</time>
      </trkpt>
      <trkpt lat="42.493469" lon="-0.267495">
        <ele>1081.3</ele>
        <time>2018-06-14T10:05:15Z</time>
      </trkpt>
      <trkpt lat="42.493492" lon="-0.267308">
        <ele>1078.7</ele>
        <time>2018-06-14T10:05:19Z</time>
      </trkpt>
      <trkpt lat="42.493504" lon="-0.267108">
        <ele>1076.7</ele>
        <time>2018-06-14T10:05:23Z</time>
      </trkpt>
      <trkpt lat="42.493513" lon="-0.266914">
        <ele>1075.4</ele>
        <time>2018-06-14T10:05:27Z</time>
      </trkpt>
      <trkpt lat="42.493526" lon="-0.266561">
        <ele>1074.8</ele>
        <time>2018-06-14T10:05:34Z</time>
      </trkpt>
      <trkpt lat="42.493513" lon="-0.266136">
        <ele>1078.8</ele>
        <time>2018-06-14T10:05:42Z</time>
      </trkpt>
      <trkpt lat="42.493494" lon="-0.266027">
        <ele>1080.2</ele>
        <time>2018-06-14T10:05:44Z</time>
      </trkpt>
      <trkpt lat="42.493447" lon="-0.265947">
        <ele>1081.2</ele>
        <time>2018-06-14T10:05:47Z</time>
      </trkpt>
      <trkpt lat="42.493376" lon="-0.265914">
        <ele>1081.1</ele>
        <time>2018-06-14T10:05:48Z</time>
      </trkpt>
      <trkpt lat="42.493293" lon="-0.265944">
        <ele>1080.1</ele>
        <time>2018-06-14T10:05:51Z</time>
      </trkpt>
      <trkpt lat="42.493212" lon="-0.266033">
        <ele>1078.9</ele>
        <time>2018-06-14T10:05:54Z</time>
      </trkpt>
      <trkpt lat="42.493141" lon="-0.266158">
        <ele>1078.1</ele>
        <time>2018-06-14T10:05:57Z</time>
      </trkpt>
      <trkpt lat="42.493082" lon="-0.266323">
        <ele>1077.4</ele>
        <time>2018-06-14T10:06:00Z</time>
      </trkpt>
      <trkpt lat="42.493035" lon="-0.266506">
        <ele>1077.0</ele>
        <time>2018-06-14T10:06:04Z</time>
      </trkpt>
      <trkpt lat="42.492975" lon="-0.266687">
        <ele>1076.9</ele>
        <time>2018-06-14T10:06:08Z</time>
      </trkpt>
      <trkpt lat="42.492896" lon="-0.266865">
        <ele>1076.8</ele>
        <time>2018-06-14T10:06:12Z</time>
      </trkpt>
      <trkpt lat="42.492801" lon="-0.267040">
        <ele>1075.8</ele>
        <time>2018-06-14T10:06:16Z</time>
      </trkpt>
      <trkpt lat="42.492501" lon="-0.267451">
        <ele>1067.9</ele>
        <time>2018-06-14T10:06:28Z</time>
      </trkpt>
      <trkpt lat="42.492395" lon="-0.267543">
        <ele>1064.4</ele>
        <time>2018-06-14T10:06:31Z</time>
      </trkpt>
      <trkpt lat="42.492290" lon="-0.267609">
        <ele>1060.2</ele>
        <time>2018-06-14T10:06:34Z</time>
      </trkpt>
      <trkpt lat="42.492096" lon="-0.267708">
        <ele>1052.3</ele>
        <time>2018-06-14T10:06:40Z</time>
      </trkpt>
      <trkpt lat="42.492011" lon="-0.267773">
        <ele>1049.2</ele>
        <time>2018-06-14T10:06:43Z</time>
      </trkpt>
      <trkpt lat="42.491946" lon="-0.267858">
        <ele>1046.4</ele>
        <time>2018-06-14T10:06:45Z</time>
      </trkpt>
      <trkpt lat="42.491910" lon="-0.267970">
        <ele>1043.6</ele>
        <time>2018-06-14T10:06:48Z</time>
      </trkpt>
      <trkpt lat="42.491915" lon="-0.268094">
        <ele>1041.0</ele>
        <time>2018-06-14T10:06:50Z</time>
      </trkpt>
      <trkpt lat="42.491954" lon="-0.268217">
        <ele>1038.8</ele>
        <time>2018-06-14T10:06:53Z</time>
      </trkpt>
      <trkpt lat="42.491996" lon="-0.268328">
        <ele>1037.6</ele>
        <time>2018-06-14T10:06:55Z</time>
      </trkpt>
      <trkpt lat="42.492017" lon="-0.268422">
        <ele>1036.2</ele>
        <time>2018-06-14T10:06:57Z</time>
      </trkpt>
      <trkpt lat="42.492010" lon="-0.268501">
        <ele>1035.0</ele>
        <time>2018-06-14T10:06:59Z</time>
      </trkpt>
      <trkpt lat="42.491971" lon="-0.268566">
        <ele>1034.1</ele>
        <time>2018-06-14T10:07:01Z</time>
      </trkpt>
      <trkpt lat="42.491900" lon="-0.268615">
        <ele>1033.7</ele>
        <time>2018-06-14T10:07:03Z</time>
      </trkpt>
      <trkpt lat="42.491802" lon="-0.268651">
        <ele>1033.8</ele>
        <time>2018-06-14T10:07:05Z</time>
      </trkpt>
      <trkpt lat="42.491698" lon="-0.268692">
        <ele>1033.4</ele>
        <time>2018-06-14T10:07:08Z</time>
      </trkpt>
      <trkpt lat="42.491609" lon="-0.268757">
        <ele>1032.6</ele>
        <time>2018-06-14T10:07:11Z</time>
      </trkpt>
      <trkpt lat="42.491546" lon="-0.268853">
        <ele>1032.1</ele>
        <time>2018-06-14T10:07:14Z</time>
      </trkpt>
      <trkpt lat="42.491508" lon="-0.268976">
        <ele>1031.7</ele>
        <time>2018-06-14T10:07:16Z</time>
      </trkpt>
      <trkpt lat="42.491466" lon="-0.269104">
        <ele>1030.2</ele>
        <time>2018-06-14T10:07:19Z</time>
      </trkpt>
      <trkpt lat="42.491398" lon="-0.269215">
        <ele>1028.8</ele>
        <time>2018-06-14T10:07:22Z</time>
      </trkpt>
      <trkpt lat="42.491304" lon="-0.269304">
        <ele>1028.2</ele>
        <time>2018-06-14T10:07:25Z</time>
      </trkpt>
      <trkpt lat="42.491202" lon="-0.269382">
        <ele>1028.5</ele>
        <time>2018-06-14T10:07:28Z</time>
      </trkpt>
      <trkpt lat="42.491102" lon="-0.269470">
        <ele>1029.6</ele>
        <time>2018-06-14T10:07:31Z</time>
      </trkpt>
      <trkpt lat="42.491013" lon="-0.269580">
        <ele>1030.7</ele>
        <time>2018-06-14T10:07:34Z</time>
      </trkpt>
      <trkpt lat="42.490934" lon="-0.269719">
        <ele>1029.7</ele>
        <time>2018-06-14T10:07:38Z</time>
      </trkpt>
      <trkpt lat="42.490679" lon="-0.270177">
        <ele>1028.3</ele>
        <time>2018-06-14T10:07:49Z</time>
      </trkpt>
      <trkpt lat="42.490373" lon="-0.270625">
        <ele>1021.6</ele>
        <time>2018-06-14T10:08:01Z</time>
      </trkpt>
      <trkpt lat="42.490254" lon="-0.270755">
        <ele>1017.7</ele>
        <time>2018-06-14T10:08:05Z</time>
      </trkpt>
      <trkpt lat="42.490126" lon="-0.270871">
        <ele>1015.7</ele>
        <time>2018-06-14T10:08:09Z</time>
      </trkpt>
      <trkpt lat="42.489731" lon="-0.271190">
        <ele>1013.6</ele>
        <time>2018-06-14T10:08:21Z</time>
      </trkpt>
      <trkpt lat="42.489384" lon="-0.271448">
        <ele>1005.4</ele>
        <time>2018-06-14T10:08:32Z</time>
      </trkpt>
      <trkpt lat="42.489282" lon="-0.271495">
        <ele>1002.1</ele>
        <time>2018-06-14T10:08:35Z</time>
      </trkpt>
      <trkpt lat="42.489173" lon="-0.271514">
        <ele>998.9</ele>
        <time>2018-06-14T10:08:38Z</time>
      </trkpt>
      <trkpt lat="42.489061" lon="-0.271498">
        <ele>996.3</ele>
        <time>2018-06-14T10:08:41Z</time>
      </trkpt>
      <trkpt lat="42.488958" lon="-0.271444">
        <ele>995.5</ele>
        <time>2018-06-14T10:08:44Z</time>
      </trkpt>
      <trkpt lat="42.488873" lon="-0.271353">
        <ele>995.9</ele>
        <time>2018-06-14T10:08:47Z</time>
      </trkpt>
      <trkpt lat="42.488807" lon="-0.271251">
        <ele>996.6</ele>
        <time>2018-06-14T10:08:50Z</time>
      </trkpt>
      <trkpt lat="42.488754" lon="-0.271157">
        <ele>997.4</ele>
        <time>2018-06-14T10:08:52Z</time>
      </trkpt>
      <trkpt lat="42.488373" lon="-0.270554">
        <ele>999.8</ele>
        <time>2018-06-14T10:09:08Z</time>
      </trkpt>
      <trkpt lat="42.488306" lon="-0.270481">
        <ele>1000.1</ele>
        <time>2018-06-14T10:09:10Z</time>
      </trkpt>
      <trkpt lat="42.488225" lon="-0.270425">
        <ele>1000.1</ele>
        <time>2018-06-14T10:09:12Z</time>
      </trkpt>
      <trkpt lat="42.488133" lon="-0.270406">
        <ele>1000.2</ele>
        <time>2018-06-14T10:09:15Z</time>
      </trkpt>
      <trkpt lat="42.488033" lon="-0.270429">
        <ele>1000.6</ele>
        <time>2018-06-14T10:09:17Z</time>
      </trkpt>
      <trkpt lat="42.487926" lon="-0.270488">
        <ele>1001.0</ele>
        <time>2018-06-14T10:09:20Z</time>
      </trkpt>
      <trkpt lat="42.487818" lon="-0.270561">
        <ele>1000.8</ele>
        <time>2018-06-14T10:09:24Z</time>
      </trkpt>
      <trkpt lat="42.487401" lon="-0.270766">
        <ele>999.8</ele>
        <time>2018-06-14T10:09:35Z</time>
      </trkpt>
      <trkpt lat="42.487318" lon="-0.270821">
        <ele>1000.2</ele>
        <time>2018-06-14T10:09:38Z</time>
      </trkpt>
      <trkpt lat="42.487248" lon="-0.270895">
        <ele>1001.1</ele>
        <time>2018-06-14T10:09:40Z</time>
      </trkpt>
      <trkpt lat="42.487197" lon="-0.271000">
        <ele>1001.6</ele>
        <time>2018-06-14T10:09:43Z</time>
      </trkpt>
      <trkpt lat="42.487175" lon="-0.271134">
        <ele>1000.6</ele>
        <time>2018-06-14T10:09:45Z</time>
      </trkpt>
      <trkpt lat="42.487179" lon="-0.271295">
        <ele>999.0</ele>
        <time>2018-06-14T10:09:49Z</time>
      </trkpt>
      <trkpt lat="42.487198" lon="-0.271474">
        <ele>997.5</ele>
        <time>2018-06-14T10:09:52Z</time>
      </trkpt>
      <trkpt lat="42.487227" lon="-0.271665">
        <ele>995.4</ele>
        <time>2018-06-14T10:09:56Z</time>
      </trkpt>
      <trkpt lat="42.487366" lon="-0.272567">
        <ele>997.0</ele>
        <time>2018-06-14T10:10:14Z</time>
      </trkpt>
      <trkpt lat="42.487416" lon="-0.272721">
        <ele>994.8</ele>
        <time>2018-06-14T10:10:17Z</time>
      </trkpt>
      <trkpt lat="42.487485" lon="-0.272856">
        <ele>990.9</ele>
        <time>2018-06-14T10:10:21Z</time>
      </trkpt>
      <trkpt lat="42.487570" lon="-0.272968">
        <ele>986.6</ele>
        <time>2018-06-14T10:10:24Z</time>
      </trkpt>
      <trkpt lat="42.487649" lon="-0.273081">
        <ele>983.3</ele>
        <time>2018-06-14T10:10:27Z</time>
      </trkpt>
      <trkpt lat="42.487711" lon="-0.273213">
        <ele>982.3</ele>
        <time>2018-06-14T10:10:30Z</time>
      </trkpt>
      <trkpt lat="42.487758" lon="-0.273367">
        <ele>982.0</ele>
        <time>2018-06-14T10:10:33Z</time>
      </trkpt>
      <trkpt lat="42.487789" lon="-0.273536">
        <ele>982.3</ele>
        <time>2018-06-14T10:10:37Z</time>
      </trkpt>
      <trkpt lat="42.487811" lon="-0.273717">
        <ele>983.7</ele>
        <time>2018-06-14T10:10:40Z</time>
      </trkpt>
      <trkpt lat="42.487839" lon="-0.273906">
        <ele>984.2</ele>
        <time>2018-06-14T10:10:44Z</time>
      </trkpt>
      <trkpt lat="42.487886" lon="-0.274085">
        <ele>983.8</ele>
        <time>2018-06-14T10:10:48Z</time>
      </trkpt>
      <trkpt lat="42.487948" lon="-0.274251">
        <ele>982.1</ele>
        <time>2018-06-14T10:10:52Z</time>
      </trkpt>
      <trkpt lat="42.488005" lon="-0.274415">
        <ele>980.8</ele>
        <time>2018-06-14T10:10:55Z</time>
      </trkpt>
      <trkpt lat="42.488046" lon="-0.274585">
        <ele>980.4</ele>
        <time>2018-06-14T10:10:59Z</time>
      </trkpt>
      <trkpt lat="42.488079" lon="-0.274756">
        <ele>980.6</ele>
        <time>2018-06-14T10:11:02Z</time>
      </trkpt>
      <trkpt lat="42.488123" lon="-0.274920">
        <ele>981.3</ele>
        <time>2018-06-14T10:11:06Z</time>
      </trkpt>
      <trkpt lat="42.488185" lon="-0.275069">
        <ele>980.8</ele>
        <time>2018-06-14T10:11:09Z</time>
      </trkpt>
      <trkpt lat="42.488262" lon="-0.275188">
        <ele>979.7</ele>
        <time>2018-06-14T10:11:12Z</time>
      </trkpt>
      <trkpt lat="42.488339" lon="-0.275279">
        <ele>977.4</ele>
        <time>2018-06-14T10:11:15Z</time>
      </trkpt>
      <trkpt lat="42.488409" lon="-0.275356">
        <ele>973.7</ele>
        <time>2018-06-14T10:11:17Z</time>
      </trkpt>
      <trkpt lat="42.488535" lon="-0.275510">
        <ele>971.7</ele>
        <time>2018-06-14T10:11:22Z</time>
      </trkpt>
      <trkpt lat="42.488591" lon="-0.275601">
        <ele>973.1</ele>
        <time>2018-06-14T10:11:24Z</time>
      </trkpt>
      <trkpt lat="42.488650" lon="-0.275697">
        <ele>973.4</ele>
        <time>2018-06-14T10:11:27Z</time>
      </trkpt>
      <trkpt lat="42.488722" lon="-0.275797">
        <ele>972.0</ele>
        <time>2018-06-14T10:11:29Z</time>
      </trkpt>
      <trkpt lat="42.488803" lon="-0.275899">
        <ele>971.8</ele>
        <time>2018-06-14T10:11:32Z</time>
      </trkpt>
      <trkpt lat="42.488887" lon="-0.276010">
        <ele>971.9</ele>
        <time>2018-06-14T10:11:35Z</time>
      </trkpt>
      <trkpt lat="42.488965" lon="-0.276142">
        <ele>973.2</ele>
        <time>2018-06-14T10:11:39Z</time>
      </trkpt>
      <trkpt lat="42.489034" lon="-0.276298">
        <ele>974.9</ele>
        <time>2018-06-14T10:11:42Z</time>
      </trkpt>
      <trkpt lat="42.489100" lon="-0.276469">
        <ele>975.2</ele>
        <time>2018-06-14T10:11:46Z</time>
      </trkpt>
      <trkpt lat="42.489159" lon="-0.276647">
        <ele>976.4</ele>
        <time>2018-06-14T10:11:50Z</time>
      </trkpt>
      <trkpt lat="42.489209" lon="-0.276832">
        <ele>978.4</ele>
        <time>2018-06-14T10:11:54Z</time>
      </trkpt>
      <trkpt lat="42.489250" lon="-0.277016">
        <ele>977.7</ele>
        <time>2018-06-14T10:11:58Z</time>
      </trkpt>
      <trkpt lat="42.489384" lon="-0.277559">
        <ele>971.7</ele>
        <time>2018-06-14T10:12:09Z</time>
      </trkpt>
      <trkpt lat="42.489493" lon="-0.277916">
        <ele>968.8</ele>
        <time>2018-06-14T10:12:16Z</time>
      </trkpt>
      <trkpt lat="42.489722" lon="-0.278455">
        <ele>958.7</ele>
        <time>2018-06-14T10:12:29Z</time>
      </trkpt>
      <trkpt lat="42.489980" lon="-0.279013">
        <ele>953.9</ele>
        <time>2018-06-14T10:12:42Z</time>
      </trkpt>
      <trkpt lat="42.490236" lon="-0.279580">
        <ele>946.2</ele>
        <time>2018-06-14T10:12:55Z</time>
      </trkpt>
      <trkpt lat="42.490443" lon="-0.280071">
        <ele>936.0</ele>
        <time>2018-06-14T10:13:06Z</time>
      </trkpt>
      <trkpt lat="42.490546" lon="-0.280388">
        <ele>925.6</ele>
        <time>2018-06-14T10:13:13Z</time>
      </trkpt>
      <trkpt lat="42.490580" lon="-0.280441">
        <ele>922.5</ele>
        <time>2018-06-14T10:13:15Z</time>
      </trkpt>
      <trkpt lat="42.490628" lon="-0.280449">
        <ele>920.1</ele>
        <time>2018-06-14T10:13:16Z</time>
      </trkpt>
      <trkpt lat="42.490668" lon="-0.280407">
        <ele>919.4</ele>
        <time>2018-06-14T10:13:18Z</time>
      </trkpt>
      <trkpt lat="42.490680" lon="-0.280334">
        <ele>920.4</ele>
        <time>2018-06-14T10:13:19Z</time>
      </trkpt>
      <trkpt lat="42.490669" lon="-0.280240">
        <ele>923.0</ele>
        <time>2018-06-14T10:13:21Z</time>
      </trkpt>
      <trkpt lat="42.490638" lon="-0.280125">
        <ele>926.6</ele>
        <time>2018-06-14T10:13:24Z</time>
      </trkpt>
      <trkpt lat="42.490598" lon="-0.279990">
        <ele>928.0</ele>
        <time>2018-06-14T10:13:27Z</time>
      </trkpt>
      <trkpt lat="42.490463" lon="-0.279496">
        <ele>927.2</ele>
        <time>2018-06-14T10:13:37Z</time>
      </trkpt>
      <trkpt lat="42.490241" lon="-0.278621">
        <ele>926.1</ele>
        <time>2018-06-14T10:13:55Z</time>
      </trkpt>
      <trkpt lat="42.490236" lon="-0.278562">
        <ele>925.5</ele>
        <time>2018-06-14T10:13:56Z</time>
      </trkpt>
      <trkpt lat="42.490239" lon="-0.278534">
        <ele>924.8</ele>
        <time>2018-06-14T10:13:57Z</time>
      </trkpt>
      <trkpt lat="42.490233" lon="-0.278443">
        <ele>924.0</ele>
        <time>2018-06-14T10:13:59Z</time>
      </trkpt>
      <trkpt lat="42.490199" lon="-0.278002">
        <ele>923.7</ele>
        <time>2018-06-14T10:14:07Z</time>
      </trkpt>
      <trkpt lat="42.490211" lon="-0.277907">
        <ele>923.1</ele>
        <time>2018-06-14T10:14:09Z</time>
      </trkpt>
      <trkpt lat="42.490242" lon="-0.277836">
        <ele>921.8</ele>
        <time>2018-06-14T10:14:11Z</time>
      </trkpt>
      <trkpt lat="42.490293" lon="-0.277798">
        <ele>919.9</ele>
        <time>2018-06-14T10:14:12Z</time>
      </trkpt>
      <trkpt lat="42.490357" lon="-0.277791">
        <ele>917.6</ele>
        <time>2018-06-14T10:14:14Z</time>
      </trkpt>
      <trkpt lat="42.490428" lon="-0.277823">
        <ele>915.1</ele>
        <time>2018-06-14T10:14:16Z</time>
      </trkpt>
      <trkpt lat="42.490501" lon="-0.277894">
        <ele>913.6</ele>
        <time>2018-06-14T10:14:19Z</time>
      </trkpt>
      <trkpt lat="42.490572" lon="-0.277997">
        <ele>911.6</ele>
        <time>2018-06-14T10:14:21Z</time>
      </trkpt>
      <trkpt lat="42.490642" lon="-0.278126">
        <ele>909.4</ele>
        <time>2018-06-14T10:14:25Z</time>
      </trkpt>
      <trkpt lat="42.490709" lon="-0.278270">
        <ele>907.0</ele>
        <time>2018-06-14T10:14:28Z</time>
      </trkpt>
      <trkpt lat="42.490847" lon="-0.278577">
        <ele>904.1</ele>
        <time>2018-06-14T10:14:35Z</time>
      </trkpt>
      <trkpt lat="42.491060" lon="-0.279029">
        <ele>900.0</ele>
        <time>2018-06-14T10:14:46Z</time>
      </trkpt>
      <trkpt lat="42.491267" lon="-0.279438">
        <ele>898.9</ele>
        <time>2018-06-14T10:14:55Z</time>
      </trkpt>
      <trkpt lat="42.491315" lon="-0.279563">
        <ele>898.3</ele>
        <time>2018-06-14T10:14:58Z</time>
      </trkpt>
      <trkpt lat="42.491348" lon="-0.279687">
        <ele>898.3</ele>
        <time>2018-06-14T10:15:01Z</time>
      </trkpt>
      <trkpt lat="42.491362" lon="-0.279816">
        <ele>898.6</ele>
        <time>2018-06-14T10:15:03Z</time>
      </trkpt>
      <trkpt lat="42.491354" lon="-0.279954">
        <ele>899.3</ele>
        <time>2018-06-14T10:15:06Z</time>
      </trkpt>
      <trkpt lat="42.491335" lon="-0.280095">
        <ele>900.3</ele>
        <time>2018-06-14T10:15:09Z</time>
      </trkpt>
      <trkpt lat="42.491254" lon="-0.280643">
        <ele>900.4</ele>
        <time>2018-06-14T10:15:20Z</time>
      </trkpt>
      <trkpt lat="42.491255" lon="-0.280767">
        <ele>898.0</ele>
        <time>2018-06-14T10:15:22Z</time>
      </trkpt>
      <trkpt lat="42.491263" lon="-0.280879">
        <ele>895.1</ele>
        <time>2018-06-14T10:15:24Z</time>
      </trkpt>
      <trkpt lat="42.491259" lon="-0.280980">
        <ele>892.7</ele>
        <time>2018-06-14T10:15:26Z</time>
      </trkpt>
      <trkpt lat="42.491230" lon="-0.281065">
        <ele>892.3</ele>
        <time>2018-06-14T10:15:28Z</time>
      </trkpt>
      <trkpt lat="42.491173" lon="-0.281126">
        <ele>892.5</ele>
        <time>2018-06-14T10:15:30Z</time>
      </trkpt>
      <trkpt lat="42.491094" lon="-0.281173">
        <ele>893.0</ele>
        <time>2018-06-14T10:15:33Z</time>
      </trkpt>
      <trkpt lat="42.491002" lon="-0.281228">
        <ele>893.1</ele>
        <time>2018-06-14T10:15:35Z</time>
      </trkpt>
      <trkpt lat="42.490805" lon="-0.281344">
        <ele>889.4</ele>
        <time>2018-06-14T10:15:41Z</time>
      </trkpt>
      <trkpt lat="42.490620" lon="-0.281430">
        <ele>885.7</ele>
        <time>2018-06-14T10:15:46Z</time>
      </trkpt>
      <trkpt lat="42.490541" lon="-0.281488">
        <ele>884.5</ele>
        <time>2018-06-14T10:15:49Z</time>
      </trkpt>
      <trkpt lat="42.490479" lon="-0.281572">
        <ele>883.4</ele>
        <time>2018-06-14T10:15:51Z</time>
      </trkpt>
      <trkpt lat="42.490440" lon="-0.281681">
        <ele>882.4</ele>
        <time>2018-06-14T10:15:53Z</time>
      </trkpt>
      <trkpt lat="42.490421" lon="-0.281801">
        <ele>881.1</ele>
        <time>2018-06-14T10:15:56Z</time>
      </trkpt>
      <trkpt lat="42.490410" lon="-0.281922">
        <ele>879.8</ele>
        <time>2018-06-14T10:15:58Z</time>
      </trkpt>
      <trkpt lat="42.490387" lon="-0.282035">
        <ele>878.9</ele>
        <time>2018-06-14T10:16:00Z</time>
      </trkpt>
      <trkpt lat="42.490344" lon="-0.282127">
        <ele>879.1</ele>
        <time>2018-06-14T10:16:03Z</time>
      </trkpt>
      <trkpt lat="42.490280" lon="-0.282196">
        <ele>879.7</ele>
        <time>2018-06-14T10:16:05Z</time>
      </trkpt>
      <trkpt lat="42.490200" lon="-0.282248">
        <ele>879.8</ele>
        <time>2018-06-14T10:16:07Z</time>
      </trkpt>
      <trkpt lat="42.490107" lon="-0.282293">
        <ele>879.7</ele>
        <time>2018-06-14T10:16:10Z</time>
      </trkpt>
      <trkpt lat="42.490004" lon="-0.282331">
        <ele>879.5</ele>
        <time>2018-06-14T10:16:13Z</time>
      </trkpt>
      <trkpt lat="42.489893" lon="-0.282364">
        <ele>879.0</ele>
        <time>2018-06-14T10:16:16Z</time>
      </trkpt>
      <trkpt lat="42.489779" lon="-0.282388">
        <ele>879.1</ele>
        <time>2018-06-14T10:16:19Z</time>
      </trkpt>
      <trkpt lat="42.489309" lon="-0.282468">
        <ele>879.4</ele>
        <time>2018-06-14T10:16:31Z</time>
      </trkpt>
      <trkpt lat="42.489233" lon="-0.282465">
        <ele>879.0</ele>
        <time>2018-06-14T10:16:33Z</time>
      </trkpt>
      <trkpt lat="42.489093" lon="-0.282435">
        <ele>878.4</ele>
        <time>2018-06-14T10:16:37Z</time>
      </trkpt>
      <trkpt lat="42.489024" lon="-0.282441">
        <ele>877.8</ele>
        <time>2018-06-14T10:16:39Z</time>
      </trkpt>
      <trkpt lat="42.488959" lon="-0.282468">
        <ele>876.2</ele>
        <time>2018-06-14T10:16:41Z</time>
      </trkpt>
      <trkpt lat="42.488904" lon="-0.282517">
        <ele>874.5</ele>
        <time>2018-06-14T10:16:42Z</time>
      </trkpt>
      <trkpt lat="42.488860" lon="-0.282580">
        <ele>872.8</ele>
        <time>2018-06-14T10:16:44Z</time>
      </trkpt>
      <trkpt lat="42.488814" lon="-0.282637">
        <ele>871.2</ele>
        <time>2018-06-14T10:16:46Z</time>
      </trkpt>
      <trkpt lat="42.488760" lon="-0.282681">
        <ele>869.7</ele>
        <time>2018-06-14T10:16:48Z</time>
      </trkpt>
      <trkpt lat="42.488698" lon="-0.282711">
        <ele>868.8</ele>
        <time>2018-06-14T10:16:49Z</time>
      </trkpt>
      <trkpt lat="42.488634" lon="-0.282730">
        <ele>868.2</ele>
        <time>2018-06-14T10:16:51Z</time>
      </trkpt>
      <trkpt lat="42.488567" lon="-0.282747">
        <ele>867.5</ele>
        <time>2018-06-14T10:16:53Z</time>
      </trkpt>
      <trkpt lat="42.487834" lon="-0.282849">
        <ele>864.6</ele>
        <time>2018-06-14T10:17:13Z</time>
      </trkpt>
      <trkpt lat="42.487599" lon="-0.282801">
        <ele>866.3</ele>
        <time>2018-06-14T10:17:19Z</time>
      </trkpt>
      <trkpt lat="42.487106" lon="-0.282578">
        <ele>869.8</ele>
        <time>2018-06-14T10:17:33Z</time>
      </trkpt>
      <trkpt lat="42.487045" lon="-0.282544">
        <ele>869.7</ele>
        <time>2018-06-14T10:17:34Z</time>
      </trkpt>
      <trkpt lat="42.486790" lon="-0.282463">
        <ele>868.6</ele>
        <time>2018-06-14T10:17:41Z</time>
      </trkpt>
      <trkpt lat="42.486726" lon="-0.282464">
        <ele>868.8</ele>
        <time>2018-06-14T10:17:43Z</time>
      </trkpt>
      <trkpt lat="42.486658" lon="-0.282480">
        <ele>869.0</ele>
        <time>2018-06-14T10:17:45Z</time>
      </trkpt>
      <trkpt lat="42.486589" lon="-0.282504">
        <ele>869.1</ele>
        <time>2018-06-14T10:17:47Z</time>
      </trkpt>
      <trkpt lat="42.486525" lon="-0.282536">
        <ele>869.4</ele>
        <time>2018-06-14T10:17:49Z</time>
      </trkpt>
      <trkpt lat="42.486459" lon="-0.282571">
        <ele>869.8</ele>
        <time>2018-06-14T10:17:50Z</time>
      </trkpt>
      <trkpt lat="42.486264" lon="-0.282689">
        <ele>870.6</ele>
        <time>2018-06-14T10:17:56Z</time>
      </trkpt>
      <trkpt lat="42.486209" lon="-0.282741">
        <ele>869.8</ele>
        <time>2018-06-14T10:17:58Z</time>
      </trkpt>
      <trkpt lat="42.486167" lon="-0.282804">
        <ele>868.7</ele>
        <time>2018-06-14T10:18:00Z</time>
      </trkpt>
      <trkpt lat="42.486133" lon="-0.282865">
        <ele>867.8</ele>
        <time>2018-06-14T10:18:01Z</time>
      </trkpt>
      <trkpt lat="42.486054" lon="-0.283056">
        <ele>864.7</ele>
        <time>2018-06-14T10:18:05Z</time>
      </trkpt>
      <trkpt lat="42.486038" lon="-0.283180">
        <ele>863.1</ele>
        <time>2018-06-14T10:18:08Z</time>
      </trkpt>
      <trkpt lat="42.486090" lon="-0.283306">
        <ele>862.2</ele>
        <time>2018-06-14T10:18:11Z</time>
      </trkpt>
      <trkpt lat="42.486125" lon="-0.283373">
        <ele>861.5</ele>
        <time>2018-06-14T10:18:12Z</time>
      </trkpt>
      <trkpt lat="42.486147" lon="-0.283381">
        <ele>861.5</ele>
        <time>2018-06-14T10:18:13Z</time>
      </trkpt>
      <trkpt lat="42.486244" lon="-0.283317">
        <ele>863.3</ele>
        <time>2018-06-14T10:18:16Z</time>
      </trkpt>
      <trkpt lat="42.486275" lon="-0.283306">
        <ele>863.8</ele>
        <time>2018-06-14T10:18:17Z</time>
      </trkpt>
      <trkpt lat="42.486317" lon="-0.283341">
        <ele>863.6</ele>
        <time>2018-06-14T10:18:18Z</time>
      </trkpt>
      <trkpt lat="42.486370" lon="-0.283443">
        <ele>862.3</ele>
        <time>2018-06-14T10:18:20Z</time>
      </trkpt>
      <trkpt lat="42.486461" lon="-0.283696">
        <ele>860.6</ele>
        <time>2018-06-14T10:18:26Z</time>
      </trkpt>
      <trkpt lat="42.486489" lon="-0.283737">
        <ele>860.6</ele>
        <time>2018-06-14T10:18:27Z</time>
      </trkpt>
      <trkpt lat="42.486599" lon="-0.283919">
        <ele>860.5</ele>
        <time>2018-06-14T10:18:32Z</time>
      </trkpt>
      <trkpt lat="42.486644" lon="-0.283973">
        <ele>860.3</ele>
        <time>2018-06-14T10:18:33Z</time>
      </trkpt>
      <trkpt lat="42.486732" lon="-0.284059">
        <ele>859.9</ele>
        <time>2018-06-14T10:18:36Z</time>
      </trkpt>
      <trkpt lat="42.486782" lon="-0.284088">
        <ele>859.6</ele>
        <time>2018-06-14T10:18:38Z</time>
      </trkpt>
      <trkpt lat="42.486872" lon="-0.284166">
        <ele>858.5</ele>
        <time>2018-06-14T10:18:40Z</time>
      </trkpt>
      <trkpt lat="42.486870" lon="-0.284193">
        <ele>858.3</ele>
        <time>2018-06-14T10:18:41Z</time>
      </trkpt>
      <trkpt lat="42.486866" lon="-0.284223">
        <ele>858.2</ele>
        <time>2018-06-14T10:18:42Z</time>
      </trkpt>
      <trkpt lat="42.486865" lon="-0.284256">
        <ele>857.9</ele>
        <time>2018-06-14T10:18:42Z</time>
      </trkpt>
      <trkpt lat="42.486868" lon="-0.284288">
        <ele>857.7</ele>
        <time>2018-06-14T10:18:43Z</time>
      </trkpt>
      <trkpt lat="42.486874" lon="-0.284312">
        <ele>857.5</ele>
        <time>2018-06-14T10:18:43Z</time>
      </trkpt>
      <trkpt lat="42.486879" lon="-0.284333">
        <ele>857.4</ele>
        <time>2018-06-14T10:18:44Z</time>
      </trkpt>
      <trkpt lat="42.486889" lon="-0.284390">
        <ele>857.3</ele>
        <time>2018-06-14T10:18:45Z</time>
      </trkpt>
      <trkpt lat="42.486942" lon="-0.284751">
        <ele>856.8</ele>
        <time>2018-06-14T10:18:52Z</time>
      </trkpt>
      <trkpt lat="42.487093" lon="-0.284996">
        <ele>855.6</ele>
        <time>2018-06-14T10:18:58Z</time>
      </trkpt>
      <trkpt lat="42.487165" lon="-0.285137">
        <ele>856.9</ele>
        <time>2018-06-14T10:19:02Z</time>
      </trkpt>
      <trkpt lat="42.487238" lon="-0.285294">
        <ele>857.4</ele>
        <time>2018-06-14T10:19:05Z</time>
      </trkpt>
      <trkpt lat="42.487266" lon="-0.285416">
        <ele>857.3</ele>
        <time>2018-06-14T10:19:08Z</time>
      </trkpt>
      <trkpt lat="42.487304" lon="-0.285637">
        <ele>857.9</ele>
        <time>2018-06-14T10:19:12Z</time>
      </trkpt>
      <trkpt lat="42.487377" lon="-0.285808">
        <ele>859.5</ele>
        <time>2018-06-14T10:19:16Z</time>
      </trkpt>
      <trkpt lat="42.487485" lon="-0.285986">
        <ele>862.9</ele>
        <time>2018-06-14T10:19:21Z</time>
      </trkpt>
      <trkpt lat="42.487693" lon="-0.286315">
        <ele>867.6</ele>
        <time>2018-06-14T10:19:29Z</time>
      </trkpt>
      <trkpt lat="42.487708" lon="-0.286355">
        <ele>867.7</ele>
        <time>2018-06-14T10:19:30Z</time>
      </trkpt>
      <trkpt lat="42.487711" lon="-0.286406">
        <ele>867.8</ele>
        <time>2018-06-14T10:19:31Z</time>
      </trkpt>
      <trkpt lat="42.487692" lon="-0.286474">
        <ele>867.6</ele>
        <time>2018-06-14T10:19:33Z</time>
      </trkpt>
      <trkpt lat="42.487662" lon="-0.286574">
        <ele>867.2</ele>
        <time>2018-06-14T10:19:35Z</time>
      </trkpt>
      <trkpt lat="42.487631" lon="-0.286695">
        <ele>866.9</ele>
        <time>2018-06-14T10:19:37Z</time>
      </trkpt>
      <trkpt lat="42.487506" lon="-0.287214">
        <ele>868.2</ele>
        <time>2018-06-14T10:19:48Z</time>
      </trkpt>
      <trkpt lat="42.487487" lon="-0.287327">
        <ele>869.2</ele>
        <time>2018-06-14T10:19:50Z</time>
      </trkpt>
      <trkpt lat="42.487469" lon="-0.287493">
        <ele>870.4</ele>
        <time>2018-06-14T10:19:54Z</time>
      </trkpt>
      <trkpt lat="42.487471" lon="-0.288039">
        <ele>871.4</ele>
        <time>2018-06-14T10:20:04Z</time>
      </trkpt>
      <trkpt lat="42.487468" lon="-0.289727">
        <ele>864.8</ele>
        <time>2018-06-14T10:20:37Z</time>
      </trkpt>
      <trkpt lat="42.487474" lon="-0.290331">
        <ele>859.6</ele>
        <time>2018-06-14T10:20:49Z</time>
      </trkpt>
      <trkpt lat="42.487465" lon="-0.291551">
        <ele>853.9</ele>
        <time>2018-06-14T10:21:13Z</time>
      </trkpt>
      <trkpt lat="42.487466" lon="-0.292567">
        <ele>857.2</ele>
        <time>2018-06-14T10:21:33Z</time>
      </trkpt>
      <trkpt lat="42.487465" lon="-0.293393">
        <ele>854.6</ele>
        <time>2018-06-14T10:21:49Z</time>
      </trkpt>
      <trkpt lat="42.487457" lon="-0.293965">
        <ele>851.6</ele>
        <time>2018-06-14T10:22:00Z</time>
      </trkpt>
      <trkpt lat="42.487412" lon="-0.294439">
        <ele>849.3</ele>
        <time>2018-06-14T10:22:10Z</time>
      </trkpt>
      <trkpt lat="42.487291" lon="-0.295276">
        <ele>852.0</ele>
        <time>2018-06-14T10:22:26Z</time>
      </trkpt>
      <trkpt lat="42.487150" lon="-0.296132">
        <ele>846.7</ele>
        <time>2018-06-14T10:22:44Z</time>
      </trkpt>
      <trkpt lat="42.486986" lon="-0.296920">
        <ele>841.3</ele>
        <time>2018-06-14T10:23:00Z</time>
      </trkpt>
      <trkpt lat="42.486935" lon="-0.297093">
        <ele>839.9</ele>
        <time>2018-06-14T10:23:03Z</time>
      </trkpt>
      <trkpt lat="42.486850" lon="-0.297436">
        <ele>835.6</ele>
        <time>2018-06-14T10:23:10Z</time>
      </trkpt>
      <trkpt lat="42.486836" lon="-0.297584">
        <ele>833.6</ele>
        <time>2018-06-14T10:23:13Z</time>
      </trkpt>
      <trkpt lat="42.486849" lon="-0.297731">
        <ele>831.7</ele>
        <time>2018-06-14T10:23:16Z</time>
      </trkpt>
      <trkpt lat="42.486894" lon="-0.297872">
        <ele>830.1</ele>
        <time>2018-06-14T10:23:19Z</time>
      </trkpt>
      <trkpt lat="42.486957" lon="-0.298008">
        <ele>829.3</ele>
        <time>2018-06-14T10:23:23Z</time>
      </trkpt>
      <trkpt lat="42.487029" lon="-0.298146">
        <ele>829.5</ele>
        <time>2018-06-14T10:23:26Z</time>
      </trkpt>
      <trkpt lat="42.487824" lon="-0.299724">
        <ele>843.8</ele>
        <time>2018-06-14T10:24:03Z</time>
      </trkpt>
      <trkpt lat="42.487856" lon="-0.299890">
        <ele>844.6</ele>
        <time>2018-06-14T10:24:07Z</time>
      </trkpt>
      <trkpt lat="42.487850" lon="-0.300060">
        <ele>844.7</ele>
        <time>2018-06-14T10:24:10Z</time>
      </trkpt>
      <trkpt lat="42.487811" lon="-0.300230">
        <ele>844.5</ele>
        <time>2018-06-14T10:24:14Z</time>
      </trkpt>
      <trkpt lat="42.487749" lon="-0.300404">
        <ele>843.8</ele>
        <time>2018-06-14T10:24:17Z</time>
      </trkpt>
      <trkpt lat="42.487674" lon="-0.300584">
        <ele>841.0</ele>
        <time>2018-06-14T10:24:21Z</time>
      </trkpt>
      <trkpt lat="42.487323" lon="-0.301453">
        <ele>828.4</ele>
        <time>2018-06-14T10:24:41Z</time>
      </trkpt>
      <trkpt lat="42.487290" lon="-0.301597">
        <ele>827.7</ele>
        <time>2018-06-14T10:24:44Z</time>
      </trkpt>
      <trkpt lat="42.487280" lon="-0.301748">
        <ele>827.5</ele>
        <time>2018-06-14T10:24:47Z</time>
      </trkpt>
      <trkpt lat="42.487294" lon="-0.301900">
        <ele>828.2</ele>
        <time>2018-06-14T10:24:50Z</time>
      </trkpt>
      <trkpt lat="42.487329" lon="-0.302048">
        <ele>829.9</ele>
        <time>2018-06-14T10:24:53Z</time>
      </trkpt>
      <trkpt lat="42.487369" lon="-0.302196">
        <ele>831.2</ele>
        <time>2018-06-14T10:24:56Z</time>
      </trkpt>
      <trkpt lat="42.487478" lon="-0.302605">
        <ele>831.3</ele>
        <time>2018-06-14T10:25:05Z</time>
      </trkpt>
      <trkpt lat="42.487568" lon="-0.302999">
        <ele>828.3</ele>
        <time>2018-06-14T10:25:13Z</time>
      </trkpt>
      <trkpt lat="42.487590" lon="-0.303119">
        <ele>827.1</ele>
        <time>2018-06-14T10:25:15Z</time>
      </trkpt>
      <trkpt lat="42.487588" lon="-0.303117">
        <ele>827.1</ele>
        <time>2018-06-14T10:25:15Z</time>
      </trkpt>
      <trkpt lat="42.487588" lon="-0.303134">
        <ele>826.8</ele>
        <time>2018-06-14T10:25:16Z</time>
      </trkpt>
      <trkpt lat="42.487593" lon="-0.303153">
        <ele>826.7</ele>
        <time>2018-06-14T10:25:16Z</time>
      </trkpt>
      <trkpt lat="42.487701" lon="-0.303567">
        <ele>820.1</ele>
        <time>2018-06-14T10:25:25Z</time>
      </trkpt>
      <trkpt lat="42.487856" lon="-0.304076">
        <ele>814.7</ele>
        <time>2018-06-14T10:25:36Z</time>
      </trkpt>
      <trkpt lat="42.487903" lon="-0.304167">
        <ele>813.9</ele>
        <time>2018-06-14T10:25:38Z</time>
      </trkpt>
      <trkpt lat="42.488587" lon="-0.305277">
        <ele>810.0</ele>
        <time>2018-06-14T10:26:06Z</time>
      </trkpt>
      <trkpt lat="42.488946" lon="-0.305877">
        <ele>809.6</ele>
        <time>2018-06-14T10:26:21Z</time>
      </trkpt>
      <trkpt lat="42.489759" lon="-0.307196">
        <ele>809.0</ele>
        <time>2018-06-14T10:26:55Z</time>
      </trkpt>
      <trkpt lat="42.489998" lon="-0.307585">
        <ele>811.0</ele>
        <time>2018-06-14T10:27:05Z</time>
      </trkpt>
      <trkpt lat="42.490053" lon="-0.307720">
        <ele>811.5</ele>
        <time>2018-06-14T10:27:08Z</time>
      </trkpt>
      <trkpt lat="42.490121" lon="-0.307851">
        <ele>811.9</ele>
        <time>2018-06-14T10:27:11Z</time>
      </trkpt>
      <trkpt lat="42.490184" lon="-0.307894">
        <ele>812.7</ele>
        <time>2018-06-14T10:27:13Z</time>
      </trkpt>
      <trkpt lat="42.490243" lon="-0.307937">
        <ele>813.5</ele>
        <time>2018-06-14T10:27:14Z</time>
      </trkpt>
      <trkpt lat="42.490289" lon="-0.308019">
        <ele>814.1</ele>
        <time>2018-06-14T10:27:16Z</time>
      </trkpt>
      <trkpt lat="42.490549" lon="-0.308459">
        <ele>815.5</ele>
        <time>2018-06-14T10:27:28Z</time>
      </trkpt>
      <trkpt lat="42.490572" lon="-0.308550">
        <ele>815.2</ele>
        <time>2018-06-14T10:27:29Z</time>
      </trkpt>
      <trkpt lat="42.490582" lon="-0.308645">
        <ele>814.8</ele>
        <time>2018-06-14T10:27:31Z</time>
      </trkpt>
      <trkpt lat="42.490583" lon="-0.308736">
        <ele>814.3</ele>
        <time>2018-06-14T10:27:33Z</time>
      </trkpt>
      <trkpt lat="42.490576" lon="-0.308821">
        <ele>813.9</ele>
        <time>2018-06-14T10:27:35Z</time>
      </trkpt>
      <trkpt lat="42.490560" lon="-0.308904">
        <ele>813.5</ele>
        <time>2018-06-14T10:27:36Z</time>
      </trkpt>
      <trkpt lat="42.490510" lon="-0.309255">
        <ele>811.9</ele>
        <time>2018-06-14T10:27:43Z</time>
      </trkpt>
      <trkpt lat="42.490508" lon="-0.310073">
        <ele>811.9</ele>
        <time>2018-06-14T10:27:59Z</time>
      </trkpt>
      <trkpt lat="42.490501" lon="-0.310104">
        <ele>812.1</ele>
        <time>2018-06-14T10:28:00Z</time>
      </trkpt>
      <trkpt lat="42.490487" lon="-0.310108">
        <ele>812.3</ele>
        <time>2018-06-14T10:28:00Z</time>
      </trkpt>
      <trkpt lat="42.490479" lon="-0.310111">
        <ele>812.3</ele>
        <time>2018-06-14T10:28:01Z</time>
      </trkpt>
      <trkpt lat="42.490468" lon="-0.310152">
        <ele>812.8</ele>
        <time>2018-06-14T10:28:02Z</time>
      </trkpt>
      <trkpt lat="42.490475" lon="-0.310193">
        <ele>813.4</ele>
        <time>2018-06-14T10:28:02Z</time>
      </trkpt>
      <trkpt lat="42.490488" lon="-0.310242">
        <ele>814.1</ele>
        <time>2018-06-14T10:28:03Z</time>
      </trkpt>
      <trkpt lat="42.490495" lon="-0.310285">
        <ele>814.7</ele>
        <time>2018-06-14T10:28:04Z</time>
      </trkpt>
      <trkpt lat="42.490502" lon="-0.310322">
        <ele>815.2</ele>
        <time>2018-06-14T10:28:05Z</time>
      </trkpt>
      <trkpt lat="42.490521" lon="-0.310334">
        <ele>815.3</ele>
        <time>2018-06-14T10:28:06Z</time>
      </trkpt>
      <trkpt lat="42.490530" lon="-0.310359">
        <ele>815.7</ele>
        <time>2018-06-14T10:28:06Z</time>
      </trkpt>
      <trkpt lat="42.490547" lon="-0.310391">
        <ele>816.1</ele>
        <time>2018-06-14T10:28:07Z</time>
      </trkpt>
      <trkpt lat="42.490572" lon="-0.310423">
        <ele>816.5</ele>
        <time>2018-06-14T10:28:08Z</time>
      </trkpt>
      <trkpt lat="42.490603" lon="-0.310456">
        <ele>816.7</ele>
        <time>2018-06-14T10:28:09Z</time>
      </trkpt>
      <trkpt lat="42.490752" lon="-0.310684">
        <ele>818.5</ele>
        <time>2018-06-14T10:28:15Z</time>
      </trkpt>
      <trkpt lat="42.490908" lon="-0.310933">
        <ele>820.7</ele>
        <time>2018-06-14T10:28:21Z</time>
      </trkpt>
      <trkpt lat="42.491129" lon="-0.311265">
        <ele>822.5</ele>
        <time>2018-06-14T10:28:30Z</time>
      </trkpt>
      <trkpt lat="42.491318" lon="-0.311694">
        <ele>826.4</ele>
        <time>2018-06-14T10:28:40Z</time>
      </trkpt>
      <trkpt lat="42.491337" lon="-0.311725">
        <ele>826.6</ele>
        <time>2018-06-14T10:28:41Z</time>
      </trkpt>
      <trkpt lat="42.491458" lon="-0.311955">
        <ele>829.2</ele>
        <time>2018-06-14T10:28:46Z</time>
      </trkpt>
      <trkpt lat="42.491590" lon="-0.312081">
        <ele>831.3</ele>
        <time>2018-06-14T10:28:50Z</time>
      </trkpt>
      <trkpt lat="42.491639" lon="-0.312248">
        <ele>832.3</ele>
        <time>2018-06-14T10:28:54Z</time>
      </trkpt>
      <trkpt lat="42.491693" lon="-0.312427">
        <ele>833.2</ele>
        <time>2018-06-14T10:28:58Z</time>
      </trkpt>
      <trkpt lat="42.491724" lon="-0.312533">
        <ele>833.8</ele>
        <time>2018-06-14T10:29:00Z</time>
      </trkpt>
      <trkpt lat="42.491774" lon="-0.312745">
        <ele>835.8</ele>
        <time>2018-06-14T10:29:04Z</time>
      </trkpt>
      <trkpt lat="42.491910" lon="-0.312932">
        <ele>835.9</ele>
        <time>2018-06-14T10:29:10Z</time>
      </trkpt>
      <trkpt lat="42.492021" lon="-0.313078">
        <ele>834.2</ele>
        <time>2018-06-14T10:29:14Z</time>
      </trkpt>
      <trkpt lat="42.492117" lon="-0.313363">
        <ele>834.3</ele>
        <time>2018-06-14T10:29:20Z</time>
      </trkpt>
      <trkpt lat="42.492161" lon="-0.313425">
        <ele>834.7</ele>
        <time>2018-06-14T10:29:21Z</time>
      </trkpt>
      <trkpt lat="42.492313" lon="-0.313757">
        <ele>840.1</ele>
        <time>2018-06-14T10:29:29Z</time>
      </trkpt>
      <trkpt lat="42.492351" lon="-0.313831">
        <ele>842.5</ele>
        <time>2018-06-14T10:29:31Z</time>
      </trkpt>
      <trkpt lat="42.492414" lon="-0.314052">
        <ele>847.5</ele>
        <time>2018-06-14T10:29:36Z</time>
      </trkpt>
      <trkpt lat="42.492587" lon="-0.314489">
        <ele>851.9</ele>
        <time>2018-06-14T10:29:46Z</time>
      </trkpt>
      <trkpt lat="42.492612" lon="-0.314547">
        <ele>852.0</ele>
        <time>2018-06-14T10:29:47Z</time>
      </trkpt>
      <trkpt lat="42.492752" lon="-0.314899">
        <ele>849.7</ele>
        <time>2018-06-14T10:29:55Z</time>
      </trkpt>
      <trkpt lat="42.492837" lon="-0.315042">
        <ele>848.1</ele>
        <time>2018-06-14T10:29:58Z</time>
      </trkpt>
      <trkpt lat="42.492833" lon="-0.315218">
        <ele>848.7</ele>
        <time>2018-06-14T10:30:02Z</time>
      </trkpt>
      <trkpt lat="42.492886" lon="-0.315794">
        <ele>847.7</ele>
        <time>2018-06-14T10:30:13Z</time>
      </trkpt>
      <trkpt lat="42.492999" lon="-0.316061">
        <ele>845.3</ele>
        <time>2018-06-14T10:30:19Z</time>
      </trkpt>
      <trkpt lat="42.493044" lon="-0.316152">
        <ele>844.6</ele>
        <time>2018-06-14T10:30:21Z</time>
      </trkpt>
      <trkpt lat="42.493172" lon="-0.316422">
        <ele>842.0</ele>
        <time>2018-06-14T10:30:28Z</time>
      </trkpt>
      <trkpt lat="42.493265" lon="-0.316641">
        <ele>840.4</ele>
        <time>2018-06-14T10:30:33Z</time>
      </trkpt>
      <trkpt lat="42.493333" lon="-0.316795">
        <ele>839.5</ele>
        <time>2018-06-14T10:30:36Z</time>
      </trkpt>
      <trkpt lat="42.493349" lon="-0.316941">
        <ele>839.0</ele>
        <time>2018-06-14T10:30:39Z</time>
      </trkpt>
      <trkpt lat="42.493399" lon="-0.317020">
        <ele>837.8</ele>
        <time>2018-06-14T10:30:41Z</time>
      </trkpt>
      <trkpt lat="42.493454" lon="-0.317124">
        <ele>836.6</ele>
        <time>2018-06-14T10:30:44Z</time>
      </trkpt>
      <trkpt lat="42.493482" lon="-0.317282">
        <ele>836.6</ele>
        <time>2018-06-14T10:30:47Z</time>
      </trkpt>
      <trkpt lat="42.493625" lon="-0.317759">
        <ele>835.0</ele>
        <time>2018-06-14T10:30:57Z</time>
      </trkpt>
      <trkpt lat="42.493644" lon="-0.317850">
        <ele>833.9</ele>
        <time>2018-06-14T10:30:59Z</time>
      </trkpt>
      <trkpt lat="42.493660" lon="-0.317968">
        <ele>832.7</ele>
        <time>2018-06-14T10:31:01Z</time>
      </trkpt>
      <trkpt lat="42.493721" lon="-0.318100">
        <ele>831.2</ele>
        <time>2018-06-14T10:31:04Z</time>
      </trkpt>
      <trkpt lat="42.493751" lon="-0.318176">
        <ele>830.9</ele>
        <time>2018-06-14T10:31:06Z</time>
      </trkpt>
      <trkpt lat="42.493813" lon="-0.318365">
        <ele>829.0</ele>
        <time>2018-06-14T10:31:10Z</time>
      </trkpt>
      <trkpt lat="42.493846" lon="-0.318526">
        <ele>827.9</ele>
        <time>2018-06-14T10:31:13Z</time>
      </trkpt>
      <trkpt lat="42.493884" lon="-0.318658">
        <ele>827.7</ele>
        <time>2018-06-14T10:31:16Z</time>
      </trkpt>
      <trkpt lat="42.493931" lon="-0.318879">
        <ele>828.7</ele>
        <time>2018-06-14T10:31:21Z</time>
      </trkpt>
      <trkpt lat="42.494062" lon="-0.318907">
        <ele>828.7</ele>
        <time>2018-06-14T10:31:24Z</time>
      </trkpt>
      <trkpt lat="42.494135" lon="-0.318904">
        <ele>827.8</ele>
        <time>2018-06-14T10:31:26Z</time>
      </trkpt>
      <trkpt lat="42.494226" lon="-0.318904">
        <ele>826.7</ele>
        <time>2018-06-14T10:31:28Z</time>
      </trkpt>
      <trkpt lat="42.494272" lon="-0.318935">
        <ele>825.8</ele>
        <time>2018-06-14T10:31:30Z</time>
      </trkpt>
      <trkpt lat="42.494444" lon="-0.319212">
        <ele>820.2</ele>
        <time>2018-06-14T10:31:37Z</time>
      </trkpt>
      <trkpt lat="42.494475" lon="-0.319295">
        <ele>818.9</ele>
        <time>2018-06-14T10:31:39Z</time>
      </trkpt>
      <trkpt lat="42.494560" lon="-0.319509">
        <ele>816.9</ele>
        <time>2018-06-14T10:31:44Z</time>
      </trkpt>
      <trkpt lat="42.494621" lon="-0.319650">
        <ele>816.1</ele>
        <time>2018-06-14T10:31:47Z</time>
      </trkpt>
      <trkpt lat="42.494855" lon="-0.320105">
        <ele>817.9</ele>
        <time>2018-06-14T10:31:58Z</time>
      </trkpt>
      <trkpt lat="42.494913" lon="-0.320306">
        <ele>817.9</ele>
        <time>2018-06-14T10:32:02Z</time>
      </trkpt>
      <trkpt lat="42.495089" lon="-0.320588">
        <ele>820.2</ele>
        <time>2018-06-14T10:32:09Z</time>
      </trkpt>
      <trkpt lat="42.495305" lon="-0.320836">
        <ele>821.7</ele>
        <time>2018-06-14T10:32:17Z</time>
      </trkpt>
      <trkpt lat="42.495377" lon="-0.320981">
        <ele>823.1</ele>
        <time>2018-06-14T10:32:20Z</time>
      </trkpt>
      <trkpt lat="42.495393" lon="-0.321023">
        <ele>823.6</ele>
        <time>2018-06-14T10:32:21Z</time>
      </trkpt>
      <trkpt lat="42.495468" lon="-0.321170">
        <ele>823.2</ele>
        <time>2018-06-14T10:32:25Z</time>
      </trkpt>
      <trkpt lat="42.495513" lon="-0.321369">
        <ele>823.8</ele>
        <time>2018-06-14T10:32:29Z</time>
      </trkpt>
      <trkpt lat="42.495594" lon="-0.321751">
        <ele>827.8</ele>
        <time>2018-06-14T10:32:36Z</time>
      </trkpt>
      <trkpt lat="42.495613" lon="-0.321938">
        <ele>829.8</ele>
        <time>2018-06-14T10:32:40Z</time>
      </trkpt>
      <trkpt lat="42.495724" lon="-0.322167">
        <ele>829.9</ele>
        <time>2018-06-14T10:32:46Z</time>
      </trkpt>
      <trkpt lat="42.495832" lon="-0.322354">
        <ele>829.5</ele>
        <time>2018-06-14T10:32:50Z</time>
      </trkpt>
      <trkpt lat="42.495879" lon="-0.322493">
        <ele>829.6</ele>
        <time>2018-06-14T10:32:53Z</time>
      </trkpt>
      <trkpt lat="42.495966" lon="-0.322735">
        <ele>829.1</ele>
        <time>2018-06-14T10:32:58Z</time>
      </trkpt>
      <trkpt lat="42.496063" lon="-0.323015">
        <ele>826.8</ele>
        <time>2018-06-14T10:33:04Z</time>
      </trkpt>
      <trkpt lat="42.496222" lon="-0.323382">
        <ele>821.2</ele>
        <time>2018-06-14T10:33:13Z</time>
      </trkpt>
      <trkpt lat="42.496329" lon="-0.323538">
        <ele>816.4</ele>
        <time>2018-06-14T10:33:17Z</time>
      </trkpt>
      <trkpt lat="42.496425" lon="-0.323809">
        <ele>811.8</ele>
        <time>2018-06-14T10:33:23Z</time>
      </trkpt>
      <trkpt lat="42.496438" lon="-0.323847">
        <ele>811.1</ele>
        <time>2018-06-14T10:33:24Z</time>
      </trkpt>
      <trkpt lat="42.496481" lon="-0.323884">
        <ele>809.5</ele>
        <time>2018-06-14T10:33:25Z</time>
      </trkpt>
      <trkpt lat="42.496628" lon="-0.323907">
        <ele>807.9</ele>
        <time>2018-06-14T10:33:29Z</time>
      </trkpt>
      <trkpt lat="42.496688" lon="-0.323986">
        <ele>807.1</ele>
        <time>2018-06-14T10:33:32Z</time>
      </trkpt>
      <trkpt lat="42.496704" lon="-0.324032">
        <ele>806.6</ele>
        <time>2018-06-14T10:33:33Z</time>
      </trkpt>
      <trkpt lat="42.496727" lon="-0.324149">
        <ele>805.8</ele>
        <time>2018-06-14T10:33:35Z</time>
      </trkpt>
      <trkpt lat="42.496769" lon="-0.324306">
        <ele>804.3</ele>
        <time>2018-06-14T10:33:38Z</time>
      </trkpt>
      <trkpt lat="42.496818" lon="-0.324527">
        <ele>802.3</ele>
        <time>2018-06-14T10:33:43Z</time>
      </trkpt>
      <trkpt lat="42.496844" lon="-0.324703">
        <ele>801.5</ele>
        <time>2018-06-14T10:33:46Z</time>
      </trkpt>
      <trkpt lat="42.496890" lon="-0.324757">
        <ele>801.3</ele>
        <time>2018-06-14T10:33:48Z</time>
      </trkpt>
      <trkpt lat="42.496939" lon="-0.324824">
        <ele>801.1</ele>
        <time>2018-06-14T10:33:50Z</time>
      </trkpt>
      <trkpt lat="42.496966" lon="-0.324926">
        <ele>800.9</ele>
        <time>2018-06-14T10:33:52Z</time>
      </trkpt>
      <trkpt lat="42.496982" lon="-0.325231">
        <ele>800.5</ele>
        <time>2018-06-14T10:33:58Z</time>
      </trkpt>
      <trkpt lat="42.497010" lon="-0.325505">
        <ele>800.7</ele>
        <time>2018-06-14T10:34:03Z</time>
      </trkpt>
      <trkpt lat="42.496990" lon="-0.325714">
        <ele>800.6</ele>
        <time>2018-06-14T10:34:07Z</time>
      </trkpt>
      <trkpt lat="42.496915" lon="-0.325913">
        <ele>800.1</ele>
        <time>2018-06-14T10:34:12Z</time>
      </trkpt>
      <trkpt lat="42.496891" lon="-0.325999">
        <ele>800.0</ele>
        <time>2018-06-14T10:34:14Z</time>
      </trkpt>
      <trkpt lat="42.496832" lon="-0.326149">
        <ele>799.9</ele>
        <time>2018-06-14T10:34:17Z</time>
      </trkpt>
      <trkpt lat="42.496571" lon="-0.326481">
        <ele>798.2</ele>
        <time>2018-06-14T10:34:26Z</time>
      </trkpt>
      <trkpt lat="42.496531" lon="-0.326621">
        <ele>799.7</ele>
        <time>2018-06-14T10:34:29Z</time>
      </trkpt>
      <trkpt lat="42.496476" lon="-0.326750">
        <ele>801.6</ele>
        <time>2018-06-14T10:34:32Z</time>
      </trkpt>
      <trkpt lat="42.496425" lon="-0.326755">
        <ele>801.3</ele>
        <time>2018-06-14T10:34:34Z</time>
      </trkpt>
      <trkpt lat="42.496282" lon="-0.326852">
        <ele>802.3</ele>
        <time>2018-06-14T10:34:38Z</time>
      </trkpt>
      <trkpt lat="42.496156" lon="-0.326975">
        <ele>804.8</ele>
        <time>2018-06-14T10:34:42Z</time>
      </trkpt>
      <trkpt lat="42.495859" lon="-0.327055">
        <ele>805.8</ele>
        <time>2018-06-14T10:34:50Z</time>
      </trkpt>
      <trkpt lat="42.495812" lon="-0.327088">
        <ele>806.2</ele>
        <time>2018-06-14T10:34:52Z</time>
      </trkpt>
      <trkpt lat="42.495618" lon="-0.327383">
        <ele>809.7</ele>
        <time>2018-06-14T10:34:59Z</time>
      </trkpt>
      <trkpt lat="42.495456" lon="-0.327640">
        <ele>810.4</ele>
        <time>2018-06-14T10:35:06Z</time>
      </trkpt>
      <trkpt lat="42.495416" lon="-0.327645">
        <ele>810.0</ele>
        <time>2018-06-14T10:35:07Z</time>
      </trkpt>
      <trkpt lat="42.495317" lon="-0.327769">
        <ele>809.0</ele>
        <time>2018-06-14T10:35:11Z</time>
      </trkpt>
      <trkpt lat="42.495045" lon="-0.327983">
        <ele>804.4</ele>
        <time>2018-06-14T10:35:19Z</time>
      </trkpt>
      <trkpt lat="42.494977" lon="-0.328150">
        <ele>801.5</ele>
        <time>2018-06-14T10:35:23Z</time>
      </trkpt>
      <trkpt lat="42.494950" lon="-0.328187">
        <ele>800.7</ele>
        <time>2018-06-14T10:35:24Z</time>
      </trkpt>
      <trkpt lat="42.494875" lon="-0.328193">
        <ele>800.1</ele>
        <time>2018-06-14T10:35:26Z</time>
      </trkpt>
      <trkpt lat="42.494654" lon="-0.328413">
        <ele>795.2</ele>
        <time>2018-06-14T10:35:33Z</time>
      </trkpt>
      <trkpt lat="42.494610" lon="-0.328439">
        <ele>794.6</ele>
        <time>2018-06-14T10:35:34Z</time>
      </trkpt>
      <trkpt lat="42.494511" lon="-0.328584">
        <ele>793.4</ele>
        <time>2018-06-14T10:35:38Z</time>
      </trkpt>
      <trkpt lat="42.494451" lon="-0.328708">
        <ele>793.1</ele>
        <time>2018-06-14T10:35:41Z</time>
      </trkpt>
      <trkpt lat="42.494404" lon="-0.328783">
        <ele>792.9</ele>
        <time>2018-06-14T10:35:43Z</time>
      </trkpt>
      <trkpt lat="42.494329" lon="-0.328938">
        <ele>792.3</ele>
        <time>2018-06-14T10:35:47Z</time>
      </trkpt>
      <trkpt lat="42.494313" lon="-0.329008">
        <ele>792.1</ele>
        <time>2018-06-14T10:35:48Z</time>
      </trkpt>
      <trkpt lat="42.494378" lon="-0.329351">
        <ele>788.9</ele>
        <time>2018-06-14T10:35:55Z</time>
      </trkpt>
      <trkpt lat="42.494402" lon="-0.330145">
        <ele>789.0</ele>
        <time>2018-06-14T10:36:11Z</time>
      </trkpt>
      <trkpt lat="42.494436" lon="-0.330387">
        <ele>788.5</ele>
        <time>2018-06-14T10:36:16Z</time>
      </trkpt>
      <trkpt lat="42.494529" lon="-0.330725">
        <ele>787.7</ele>
        <time>2018-06-14T10:36:23Z</time>
      </trkpt>
      <trkpt lat="42.494474" lon="-0.330794">
        <ele>787.1</ele>
        <time>2018-06-14T10:36:25Z</time>
      </trkpt>
      <trkpt lat="42.494547" lon="-0.330974">
        <ele>786.7</ele>
        <time>2018-06-14T10:36:29Z</time>
      </trkpt>
      <trkpt lat="42.494655" lon="-0.331484">
        <ele>784.2</ele>
        <time>2018-06-14T10:36:39Z</time>
      </trkpt>
      <trkpt lat="42.494746" lon="-0.331830">
        <ele>780.5</ele>
        <time>2018-06-14T10:36:46Z</time>
      </trkpt>
      <trkpt lat="42.494910" lon="-0.332152">
        <ele>778.9</ele>
        <time>2018-06-14T10:36:54Z</time>
      </trkpt>
      <trkpt lat="42.495137" lon="-0.332479">
        <ele>778.8</ele>
        <time>2018-06-14T10:37:03Z</time>
      </trkpt>
      <trkpt lat="42.495412" lon="-0.332723">
        <ele>780.3</ele>
        <time>2018-06-14T10:37:11Z</time>
      </trkpt>
      <trkpt lat="42.495600" lon="-0.332833">
        <ele>784.3</ele>
        <time>2018-06-14T10:37:17Z</time>
      </trkpt>
      <trkpt lat="42.495723" lon="-0.333120">
        <ele>785.4</ele>
        <time>2018-06-14T10:37:23Z</time>
      </trkpt>
      <trkpt lat="42.495826" lon="-0.333511">
        <ele>784.3</ele>
        <time>2018-06-14T10:37:32Z</time>
      </trkpt>
      <trkpt lat="42.495940" lon="-0.333876">
        <ele>784.5</ele>
        <time>2018-06-14T10:37:39Z</time>
      </trkpt>
      <trkpt lat="42.495999" lon="-0.334204">
        <ele>782.3</ele>
        <time>2018-06-14T10:37:46Z</time>
      </trkpt>
      <trkpt lat="42.496046" lon="-0.334708">
        <ele>779.9</ele>
        <time>2018-06-14T10:37:56Z</time>
      </trkpt>
      <trkpt lat="42.496069" lon="-0.335172">
        <ele>778.5</ele>
        <time>2018-06-14T10:38:05Z</time>
      </trkpt>
      <trkpt lat="42.496223" lon="-0.335604">
        <ele>776.5</ele>
        <time>2018-06-14T10:38:14Z</time>
      </trkpt>
      <trkpt lat="42.496360" lon="-0.335931">
        <ele>775.1</ele>
        <time>2018-06-14T10:38:22Z</time>
      </trkpt>
      <trkpt lat="42.496411" lon="-0.335966">
        <ele>775.2</ele>
        <time>2018-06-14T10:38:23Z</time>
      </trkpt>
      <trkpt lat="42.496567" lon="-0.336261">
        <ele>774.9</ele>
        <time>2018-06-14T10:38:30Z</time>
      </trkpt>
      <trkpt lat="42.496635" lon="-0.336494">
        <ele>773.2</ele>
        <time>2018-06-14T10:38:35Z</time>
      </trkpt>
      <trkpt lat="42.496813" lon="-0.336897">
        <ele>773.4</ele>
        <time>2018-06-14T10:38:44Z</time>
      </trkpt>
      <trkpt lat="42.496980" lon="-0.337079">
        <ele>775.2</ele>
        <time>2018-06-14T10:38:50Z</time>
      </trkpt>
      <trkpt lat="42.497351" lon="-0.337712">
        <ele>780.1</ele>
        <time>2018-06-14T10:39:06Z</time>
      </trkpt>
      <trkpt lat="42.497375" lon="-0.337806">
        <ele>780.3</ele>
        <time>2018-06-14T10:39:08Z</time>
      </trkpt>
      <trkpt lat="42.497386" lon="-0.337932">
        <ele>780.4</ele>
        <time>2018-06-14T10:39:10Z</time>
      </trkpt>
      <trkpt lat="42.497446" lon="-0.338485">
        <ele>779.8</ele>
        <time>2018-06-14T10:39:21Z</time>
      </trkpt>
      <trkpt lat="42.497684" lon="-0.338978">
        <ele>780.5</ele>
        <time>2018-06-14T10:39:33Z</time>
      </trkpt>
      <trkpt lat="42.497810" lon="-0.339150">
        <ele>778.7</ele>
        <time>2018-06-14T10:39:38Z</time>
      </trkpt>
      <trkpt lat="42.497922" lon="-0.339260">
        <ele>777.3</ele>
        <time>2018-06-14T10:39:41Z</time>
      </trkpt>
      <trkpt lat="42.497984" lon="-0.339332">
        <ele>776.4</ele>
        <time>2018-06-14T10:39:44Z</time>
      </trkpt>
      <trkpt lat="42.498293" lon="-0.339997">
        <ele>768.9</ele>
        <time>2018-06-14T10:39:59Z</time>
      </trkpt>
      <trkpt lat="42.498577" lon="-0.340405">
        <ele>773.4</ele>
        <time>2018-06-14T10:40:10Z</time>
      </trkpt>
      <trkpt lat="42.498902" lon="-0.340630">
        <ele>775.3</ele>
        <time>2018-06-14T10:40:20Z</time>
      </trkpt>
      <trkpt lat="42.499036" lon="-0.340641">
        <ele>774.7</ele>
        <time>2018-06-14T10:40:23Z</time>
      </trkpt>
      <trkpt lat="42.499558" lon="-0.340555">
        <ele>772.9</ele>
        <time>2018-06-14T10:40:37Z</time>
      </trkpt>
      <trkpt lat="42.499717" lon="-0.340555">
        <ele>774.2</ele>
        <time>2018-06-14T10:40:41Z</time>
      </trkpt>
      <trkpt lat="42.499752" lon="-0.340595">
        <ele>774.3</ele>
        <time>2018-06-14T10:40:43Z</time>
      </trkpt>
      <trkpt lat="42.499770" lon="-0.340654">
        <ele>774.2</ele>
        <time>2018-06-14T10:40:44Z</time>
      </trkpt>
      <trkpt lat="42.499855" lon="-0.340957">
        <ele>772.1</ele>
        <time>2018-06-14T10:40:50Z</time>
      </trkpt>
      <trkpt lat="42.500080" lon="-0.341571">
        <ele>771.8</ele>
        <time>2018-06-14T10:41:04Z</time>
      </trkpt>
      <trkpt lat="42.500297" lon="-0.342317">
        <ele>771.1</ele>
        <time>2018-06-14T10:41:19Z</time>
      </trkpt>
      <trkpt lat="42.500475" lon="-0.343014">
        <ele>773.5</ele>
        <time>2018-06-14T10:41:34Z</time>
      </trkpt>
      <trkpt lat="42.500642" lon="-0.343535">
        <ele>775.7</ele>
        <time>2018-06-14T10:41:45Z</time>
      </trkpt>
      <trkpt lat="42.500788" lon="-0.343867">
        <ele>777.7</ele>
        <time>2018-06-14T10:41:52Z</time>
      </trkpt>
      <trkpt lat="42.500922" lon="-0.344146">
        <ele>775.8</ele>
        <time>2018-06-14T10:41:59Z</time>
      </trkpt>
      <trkpt lat="42.500942" lon="-0.344211">
        <ele>775.5</ele>
        <time>2018-06-14T10:42:00Z</time>
      </trkpt>
      <trkpt lat="42.500848" lon="-0.344278">
        <ele>776.8</ele>
        <time>2018-06-14T10:42:03Z</time>
      </trkpt>
      <trkpt lat="42.500838" lon="-0.344308">
        <ele>776.9</ele>
        <time>2018-06-14T10:42:04Z</time>
      </trkpt>
      <trkpt lat="42.500859" lon="-0.344398">
        <ele>777.0</ele>
        <time>2018-06-14T10:42:06Z</time>
      </trkpt>
      <trkpt lat="42.501016" lon="-0.344847">
        <ele>775.8</ele>
        <time>2018-06-14T10:42:15Z</time>
      </trkpt>
      <trkpt lat="42.501304" lon="-0.345532">
        <ele>773.4</ele>
        <time>2018-06-14T10:42:31Z</time>
      </trkpt>
      <trkpt lat="42.501407" lon="-0.345796">
        <ele>772.7</ele>
        <time>2018-06-14T10:42:37Z</time>
      </trkpt>
      <trkpt lat="42.501525" lon="-0.346147">
        <ele>771.6</ele>
        <time>2018-06-14T10:42:44Z</time>
      </trkpt>
      <trkpt lat="42.501621" lon="-0.346618">
        <ele>774.4</ele>
        <time>2018-06-14T10:42:54Z</time>
      </trkpt>
      <trkpt lat="42.501637" lon="-0.346700">
        <ele>775.4</ele>
        <time>2018-06-14T10:42:56Z</time>
      </trkpt>
      <trkpt lat="42.501636" lon="-0.346804">
        <ele>776.6</ele>
        <time>2018-06-14T10:42:58Z</time>
      </trkpt>
      <trkpt lat="42.501594" lon="-0.346902">
        <ele>777.0</ele>
        <time>2018-06-14T10:43:00Z</time>
      </trkpt>
      <trkpt lat="42.501403" lon="-0.347125">
        <ele>776.4</ele>
        <time>2018-06-14T10:43:06Z</time>
      </trkpt>
      <trkpt lat="42.501159" lon="-0.347431">
        <ele>774.5</ele>
        <time>2018-06-14T10:43:15Z</time>
      </trkpt>
      <trkpt lat="42.501060" lon="-0.347534">
        <ele>774.1</ele>
        <time>2018-06-14T10:43:19Z</time>
      </trkpt>
      <trkpt lat="42.500919" lon="-0.347575">
        <ele>774.5</ele>
        <time>2018-06-14T10:43:22Z</time>
      </trkpt>
      <trkpt lat="42.500831" lon="-0.347746">
        <ele>775.3</ele>
        <time>2018-06-14T10:43:27Z</time>
      </trkpt>
      <trkpt lat="42.500755" lon="-0.347886">
        <ele>776.1</ele>
        <time>2018-06-14T10:43:30Z</time>
      </trkpt>
      <trkpt lat="42.500339" lon="-0.348300">
        <ele>774.5</ele>
        <time>2018-06-14T10:43:44Z</time>
      </trkpt>
      <trkpt lat="42.500080" lon="-0.348651">
        <ele>770.2</ele>
        <time>2018-06-14T10:43:53Z</time>
      </trkpt>
      <trkpt lat="42.499952" lon="-0.348931">
        <ele>768.4</ele>
        <time>2018-06-14T10:44:00Z</time>
      </trkpt>
      <trkpt lat="42.499938" lon="-0.349327">
        <ele>764.6</ele>
        <time>2018-06-14T10:44:08Z</time>
      </trkpt>
      <trkpt lat="42.500085" lon="-0.349687">
        <ele>762.8</ele>
        <time>2018-06-14T10:44:16Z</time>
      </trkpt>
      <trkpt lat="42.500598" lon="-0.350969">
        <ele>760.0</ele>
        <time>2018-06-14T10:44:44Z</time>
      </trkpt>
      <trkpt lat="42.500667" lon="-0.351119">
        <ele>759.9</ele>
        <time>2018-06-14T10:44:48Z</time>
      </trkpt>
      <trkpt lat="42.500812" lon="-0.351228">
        <ele>761.2</ele>
        <time>2018-06-14T10:44:52Z</time>
      </trkpt>
      <trkpt lat="42.501068" lon="-0.351456">
        <ele>765.6</ele>
        <time>2018-06-14T10:45:00Z</time>
      </trkpt>
      <trkpt lat="42.501141" lon="-0.351559">
        <ele>767.7</ele>
        <time>2018-06-14T10:45:03Z</time>
      </trkpt>
      <trkpt lat="42.501178" lon="-0.351735">
        <ele>768.0</ele>
        <time>2018-06-14T10:45:07Z</time>
      </trkpt>
      <trkpt lat="42.501210" lon="-0.352590">
        <ele>768.4</ele>
        <time>2018-06-14T10:45:23Z</time>
      </trkpt>
      <trkpt lat="42.501117" lon="-0.353416">
        <ele>769.5</ele>
        <time>2018-06-14T10:45:40Z</time>
      </trkpt>
      <trkpt lat="42.501045" lon="-0.353991">
        <ele>769.7</ele>
        <time>2018-06-14T10:45:51Z</time>
      </trkpt>
      <trkpt lat="42.501049" lon="-0.354580">
        <ele>772.1</ele>
        <time>2018-06-14T10:46:03Z</time>
      </trkpt>
      <trkpt lat="42.501056" lon="-0.354839">
        <ele>774.7</ele>
        <time>2018-06-14T10:46:08Z</time>
      </trkpt>
      <trkpt lat="42.501046" lon="-0.354910">
        <ele>775.4</ele>
        <time>2018-06-14T10:46:09Z</time>
      </trkpt>
      <trkpt lat="42.501026" lon="-0.354980">
        <ele>776.1</ele>
        <time>2018-06-14T10:46:11Z</time>
      </trkpt>
      <trkpt lat="42.500926" lon="-0.355128">
        <ele>777.8</ele>
        <time>2018-06-14T10:46:15Z</time>
      </trkpt>
      <trkpt lat="42.500730" lon="-0.355356">
        <ele>779.6</ele>
        <time>2018-06-14T10:46:22Z</time>
      </trkpt>
      <trkpt lat="42.500427" lon="-0.355678">
        <ele>784.5</ele>
        <time>2018-06-14T10:46:32Z</time>
      </trkpt>
      <trkpt lat="42.500358" lon="-0.355718">
        <ele>784.1</ele>
        <time>2018-06-14T10:46:34Z</time>
      </trkpt>
      <trkpt lat="42.500277" lon="-0.355747">
        <ele>782.9</ele>
        <time>2018-06-14T10:46:36Z</time>
      </trkpt>
      <trkpt lat="42.500226" lon="-0.355820">
        <ele>781.9</ele>
        <time>2018-06-14T10:46:38Z</time>
      </trkpt>
      <trkpt lat="42.500114" lon="-0.355993">
        <ele>780.4</ele>
        <time>2018-06-14T10:46:43Z</time>
      </trkpt>
      <trkpt lat="42.499977" lon="-0.356220">
        <ele>781.4</ele>
        <time>2018-06-14T10:46:48Z</time>
      </trkpt>
      <trkpt lat="42.499206" lon="-0.357121">
        <ele>779.1</ele>
        <time>2018-06-14T10:47:15Z</time>
      </trkpt>
      <trkpt lat="42.498592" lon="-0.357809">
        <ele>774.7</ele>
        <time>2018-06-14T10:47:36Z</time>
      </trkpt>
      <trkpt lat="42.498020" lon="-0.358616">
        <ele>762.3</ele>
        <time>2018-06-14T10:47:58Z</time>
      </trkpt>
      <trkpt lat="42.497715" lon="-0.359092">
        <ele>755.1</ele>
        <time>2018-06-14T10:48:11Z</time>
      </trkpt>
      <trkpt lat="42.497518" lon="-0.359406">
        <ele>758.6</ele>
        <time>2018-06-14T10:48:19Z</time>
      </trkpt>
      <trkpt lat="42.497505" lon="-0.359604">
        <ele>759.5</ele>
        <time>2018-06-14T10:48:23Z</time>
      </trkpt>
      <trkpt lat="42.497525" lon="-0.359710">
        <ele>759.5</ele>
        <time>2018-06-14T10:48:25Z</time>
      </trkpt>
      <trkpt lat="42.497719" lon="-0.360007">
        <ele>757.3</ele>
        <time>2018-06-14T10:48:33Z</time>
      </trkpt>
      <trkpt lat="42.497841" lon="-0.360168">
        <ele>758.1</ele>
        <time>2018-06-14T10:48:37Z</time>
      </trkpt>
      <trkpt lat="42.497875" lon="-0.360266">
        <ele>758.4</ele>
        <time>2018-06-14T10:48:40Z</time>
      </trkpt>
      <trkpt lat="42.497871" lon="-0.360468">
        <ele>759.3</ele>
        <time>2018-06-14T10:48:43Z</time>
      </trkpt>
      <trkpt lat="42.497742" lon="-0.361151">
        <ele>762.1</ele>
        <time>2018-06-14T10:48:57Z</time>
      </trkpt>
      <trkpt lat="42.497684" lon="-0.361594">
        <ele>762.2</ele>
        <time>2018-06-14T10:49:06Z</time>
      </trkpt>
      <trkpt lat="42.497410" lon="-0.362513">
        <ele>768.6</ele>
        <time>2018-06-14T10:49:26Z</time>
      </trkpt>
      <trkpt lat="42.497281" lon="-0.362954">
        <ele>777.2</ele>
        <time>2018-06-14T10:49:35Z</time>
      </trkpt>
      <trkpt lat="42.497271" lon="-0.363024">
        <ele>778.2</ele>
        <time>2018-06-14T10:49:36Z</time>
      </trkpt>
      <trkpt lat="42.497275" lon="-0.363096">
        <ele>779.0</ele>
        <time>2018-06-14T10:49:38Z</time>
      </trkpt>
      <trkpt lat="42.497294" lon="-0.363147">
        <ele>779.4</ele>
        <time>2018-06-14T10:49:39Z</time>
      </trkpt>
      <trkpt lat="42.497324" lon="-0.363188">
        <ele>779.5</ele>
        <time>2018-06-14T10:49:40Z</time>
      </trkpt>
      <trkpt lat="42.497368" lon="-0.363231">
        <ele>778.5</ele>
        <time>2018-06-14T10:49:42Z</time>
      </trkpt>
      <trkpt lat="42.497413" lon="-0.363260">
        <ele>776.6</ele>
        <time>2018-06-14T10:49:43Z</time>
      </trkpt>
      <trkpt lat="42.497431" lon="-0.363290">
        <ele>775.9</ele>
        <time>2018-06-14T10:49:44Z</time>
      </trkpt>
      <trkpt lat="42.497419" lon="-0.363365">
        <ele>776.2</ele>
        <time>2018-06-14T10:49:45Z</time>
      </trkpt>
      <trkpt lat="42.497373" lon="-0.363442">
        <ele>777.7</ele>
        <time>2018-06-14T10:49:47Z</time>
      </trkpt>
      <trkpt lat="42.496857" lon="-0.363836">
        <ele>787.9</ele>
        <time>2018-06-14T10:50:03Z</time>
      </trkpt>
      <trkpt lat="42.496655" lon="-0.364028">
        <ele>784.9</ele>
        <time>2018-06-14T10:50:10Z</time>
      </trkpt>
      <trkpt lat="42.496288" lon="-0.364346">
        <ele>772.8</ele>
        <time>2018-06-14T10:50:22Z</time>
      </trkpt>
      <trkpt lat="42.495548" lon="-0.365025">
        <ele>776.7</ele>
        <time>2018-06-14T10:50:45Z</time>
      </trkpt>
      <trkpt lat="42.494868" lon="-0.365642">
        <ele>786.3</ele>
        <time>2018-06-14T10:51:07Z</time>
      </trkpt>
      <trkpt lat="42.494445" lon="-0.366020">
        <ele>789.1</ele>
        <time>2018-06-14T10:51:21Z</time>
      </trkpt>
      <trkpt lat="42.494085" lon="-0.366326">
        <ele>778.8</ele>
        <time>2018-06-14T10:51:32Z</time>
      </trkpt>
      <trkpt lat="42.493761" lon="-0.366546">
        <ele>766.8</ele>
        <time>2018-06-14T10:51:42Z</time>
      </trkpt>
      <trkpt lat="42.493529" lon="-0.366680">
        <ele>761.5</ele>
        <time>2018-06-14T10:51:49Z</time>
      </trkpt>
      <trkpt lat="42.493427" lon="-0.366763">
        <ele>759.6</ele>
        <time>2018-06-14T10:51:52Z</time>
      </trkpt>
      <trkpt lat="42.492912" lon="-0.366981">
        <ele>762.7</ele>
        <time>2018-06-14T10:52:06Z</time>
      </trkpt>
      <trkpt lat="42.492723" lon="-0.367117">
        <ele>762.4</ele>
        <time>2018-06-14T10:52:12Z</time>
      </trkpt>
      <trkpt lat="42.492523" lon="-0.367275">
        <ele>763.3</ele>
        <time>2018-06-14T10:52:18Z</time>
      </trkpt>
      <trkpt lat="42.492199" lon="-0.367616">
        <ele>761.8</ele>
        <time>2018-06-14T10:52:29Z</time>
      </trkpt>
      <trkpt lat="42.491886" lon="-0.368038">
        <ele>766.3</ele>
        <time>2018-06-14T10:52:41Z</time>
      </trkpt>
      <trkpt lat="42.491348" lon="-0.368957">
        <ele>768.1</ele>
        <time>2018-06-14T10:53:04Z</time>
      </trkpt>
      <trkpt lat="42.491241" lon="-0.369129">
        <ele>764.1</ele>
        <time>2018-06-14T10:53:08Z</time>
      </trkpt>
      <trkpt lat="42.491052" lon="-0.369389">
        <ele>759.5</ele>
        <time>2018-06-14T10:53:16Z</time>
      </trkpt>
      <trkpt lat="42.490963" lon="-0.369531">
        <ele>758.7</ele>
        <time>2018-06-14T10:53:19Z</time>
      </trkpt>
      <trkpt lat="42.490914" lon="-0.369657">
        <ele>758.4</ele>
        <time>2018-06-14T10:53:22Z</time>
      </trkpt>
      <trkpt lat="42.490875" lon="-0.369785">
        <ele>758.2</ele>
        <time>2018-06-14T10:53:25Z</time>
      </trkpt>
      <trkpt lat="42.490723" lon="-0.370432">
        <ele>756.2</ele>
        <time>2018-06-14T10:53:38Z</time>
      </trkpt>
      <trkpt lat="42.490673" lon="-0.370613">
        <ele>753.8</ele>
        <time>2018-06-14T10:53:42Z</time>
      </trkpt>
      <trkpt lat="42.490501" lon="-0.371409">
        <ele>746.7</ele>
        <time>2018-06-14T10:53:58Z</time>
      </trkpt>
      <trkpt lat="42.490465" lon="-0.371586">
        <ele>746.6</ele>
        <time>2018-06-14T10:54:02Z</time>
      </trkpt>
      <trkpt lat="42.490224" lon="-0.372194">
        <ele>747.1</ele>
        <time>2018-06-14T10:54:15Z</time>
      </trkpt>
      <trkpt lat="42.490131" lon="-0.372385">
        <ele>745.7</ele>
        <time>2018-06-14T10:54:20Z</time>
      </trkpt>
      <trkpt lat="42.490014" lon="-0.372554">
        <ele>743.0</ele>
        <time>2018-06-14T10:54:24Z</time>
      </trkpt>
      <trkpt lat="42.489891" lon="-0.372675">
        <ele>740.6</ele>
        <time>2018-06-14T10:54:28Z</time>
      </trkpt>
      <trkpt lat="42.489792" lon="-0.372786">
        <ele>737.5</ele>
        <time>2018-06-14T10:54:32Z</time>
      </trkpt>
      <trkpt lat="42.489777" lon="-0.372836">
        <ele>736.5</ele>
        <time>2018-06-14T10:54:33Z</time>
      </trkpt>
      <trkpt lat="42.489758" lon="-0.372903">
        <ele>735.1</ele>
        <time>2018-06-14T10:54:34Z</time>
      </trkpt>
      <trkpt lat="42.489788" lon="-0.373091">
        <ele>734.3</ele>
        <time>2018-06-14T10:54:38Z</time>
      </trkpt>
      <trkpt lat="42.489956" lon="-0.373580">
        <ele>739.7</ele>
        <time>2018-06-14T10:54:49Z</time>
      </trkpt>
      <trkpt lat="42.489982" lon="-0.373707">
        <ele>740.9</ele>
        <time>2018-06-14T10:54:51Z</time>
      </trkpt>
      <trkpt lat="42.489966" lon="-0.373788">
        <ele>740.6</ele>
        <time>2018-06-14T10:54:53Z</time>
      </trkpt>
      <trkpt lat="42.489929" lon="-0.373831">
        <ele>739.7</ele>
        <time>2018-06-14T10:54:54Z</time>
      </trkpt>
      <trkpt lat="42.489888" lon="-0.373860">
        <ele>738.6</ele>
        <time>2018-06-14T10:54:56Z</time>
      </trkpt>
      <trkpt lat="42.489662" lon="-0.373876">
        <ele>737.6</ele>
        <time>2018-06-14T10:55:02Z</time>
      </trkpt>
      <trkpt lat="42.489003" lon="-0.373847">
        <ele>745.8</ele>
        <time>2018-06-14T10:55:19Z</time>
      </trkpt>
      <trkpt lat="42.488931" lon="-0.373890">
        <ele>746.4</ele>
        <time>2018-06-14T10:55:21Z</time>
      </trkpt>
      <trkpt lat="42.488887" lon="-0.373955">
        <ele>747.2</ele>
        <time>2018-06-14T10:55:23Z</time>
      </trkpt>
      <trkpt lat="42.488639" lon="-0.374374">
        <ele>755.3</ele>
        <time>2018-06-14T10:55:34Z</time>
      </trkpt>
      <trkpt lat="42.488523" lon="-0.374506">
        <ele>758.6</ele>
        <time>2018-06-14T10:55:38Z</time>
      </trkpt>
      <trkpt lat="42.488397" lon="-0.374619">
        <ele>758.6</ele>
        <time>2018-06-14T10:55:42Z</time>
      </trkpt>
      <trkpt lat="42.487936" lon="-0.375287">
        <ele>752.7</ele>
        <time>2018-06-14T10:56:00Z</time>
      </trkpt>
      <trkpt lat="42.487841" lon="-0.375467">
        <ele>751.2</ele>
        <time>2018-06-14T10:56:04Z</time>
      </trkpt>
      <trkpt lat="42.487629" lon="-0.375791">
        <ele>747.0</ele>
        <time>2018-06-14T10:56:13Z</time>
      </trkpt>
      <trkpt lat="42.487604" lon="-0.375864">
        <ele>747.8</ele>
        <time>2018-06-14T10:56:14Z</time>
      </trkpt>
      <trkpt lat="42.487588" lon="-0.375944">
        <ele>748.7</ele>
        <time>2018-06-14T10:56:16Z</time>
      </trkpt>
      <trkpt lat="42.487574" lon="-0.376062">
        <ele>750.8</ele>
        <time>2018-06-14T10:56:18Z</time>
      </trkpt>
      <trkpt lat="42.487579" lon="-0.376149">
        <ele>752.6</ele>
        <time>2018-06-14T10:56:20Z</time>
      </trkpt>
      <trkpt lat="42.487614" lon="-0.376425">
        <ele>756.2</ele>
        <time>2018-06-14T10:56:26Z</time>
      </trkpt>
      <trkpt lat="42.487663" lon="-0.376593">
        <ele>758.7</ele>
        <time>2018-06-14T10:56:29Z</time>
      </trkpt>
      <trkpt lat="42.487762" lon="-0.376809">
        <ele>762.6</ele>
        <time>2018-06-14T10:56:34Z</time>
      </trkpt>
      <trkpt lat="42.487827" lon="-0.376939">
        <ele>765.4</ele>
        <time>2018-06-14T10:56:37Z</time>
      </trkpt>
      <trkpt lat="42.487892" lon="-0.377014">
        <ele>766.7</ele>
        <time>2018-06-14T10:56:40Z</time>
      </trkpt>
      <trkpt lat="42.487990" lon="-0.377047">
        <ele>767.4</ele>
        <time>2018-06-14T10:56:42Z</time>
      </trkpt>
      <trkpt lat="42.488106" lon="-0.377098">
        <ele>767.9</ele>
        <time>2018-06-14T10:56:46Z</time>
      </trkpt>
      <trkpt lat="42.488231" lon="-0.377237">
        <ele>766.4</ele>
        <time>2018-06-14T10:56:50Z</time>
      </trkpt>
      <trkpt lat="42.488274" lon="-0.377268">
        <ele>765.6</ele>
        <time>2018-06-14T10:56:51Z</time>
      </trkpt>
      <trkpt lat="42.488342" lon="-0.377275">
        <ele>764.7</ele>
        <time>2018-06-14T10:56:53Z</time>
      </trkpt>
      <trkpt lat="42.488411" lon="-0.377235">
        <ele>763.9</ele>
        <time>2018-06-14T10:56:55Z</time>
      </trkpt>
      <trkpt lat="42.488463" lon="-0.377092">
        <ele>763.2</ele>
        <time>2018-06-14T10:56:58Z</time>
      </trkpt>
      <trkpt lat="42.488498" lon="-0.376985">
        <ele>766.1</ele>
        <time>2018-06-14T10:57:00Z</time>
      </trkpt>
      <trkpt lat="42.488546" lon="-0.376894">
        <ele>769.0</ele>
        <time>2018-06-14T10:57:03Z</time>
      </trkpt>
      <trkpt lat="42.489285" lon="-0.376170">
        <ele>769.9</ele>
        <time>2018-06-14T10:57:27Z</time>
      </trkpt>
      <trkpt lat="42.489433" lon="-0.376007">
        <ele>767.6</ele>
        <time>2018-06-14T10:57:32Z</time>
      </trkpt>
      <trkpt lat="42.489501" lon="-0.375942">
        <ele>765.8</ele>
        <time>2018-06-14T10:57:34Z</time>
      </trkpt>
      <trkpt lat="42.489563" lon="-0.375923">
        <ele>764.1</ele>
        <time>2018-06-14T10:57:36Z</time>
      </trkpt>
      <trkpt lat="42.489624" lon="-0.375915">
        <ele>762.5</ele>
        <time>2018-06-14T10:57:38Z</time>
      </trkpt>
      <trkpt lat="42.489660" lon="-0.375928">
        <ele>761.4</ele>
        <time>2018-06-14T10:57:39Z</time>
      </trkpt>
      <trkpt lat="42.489700" lon="-0.375969">
        <ele>760.1</ele>
        <time>2018-06-14T10:57:40Z</time>
      </trkpt>
      <trkpt lat="42.489733" lon="-0.376052">
        <ele>759.1</ele>
        <time>2018-06-14T10:57:42Z</time>
      </trkpt>
      <trkpt lat="42.489781" lon="-0.376219">
        <ele>757.8</ele>
        <time>2018-06-14T10:57:45Z</time>
      </trkpt>
      <trkpt lat="42.490090" lon="-0.376692">
        <ele>757.5</ele>
        <time>2018-06-14T10:57:58Z</time>
      </trkpt>
      <trkpt lat="42.490267" lon="-0.376927">
        <ele>761.5</ele>
        <time>2018-06-14T10:58:04Z</time>
      </trkpt>
      <trkpt lat="42.490366" lon="-0.377063">
        <ele>765.0</ele>
        <time>2018-06-14T10:58:08Z</time>
      </trkpt>
      <trkpt lat="42.490532" lon="-0.377202">
        <ele>768.2</ele>
        <time>2018-06-14T10:58:14Z</time>
      </trkpt>
      <trkpt lat="42.490867" lon="-0.377388">
        <ele>770.0</ele>
        <time>2018-06-14T10:58:23Z</time>
      </trkpt>
      <trkpt lat="42.491090" lon="-0.377468">
        <ele>767.1</ele>
        <time>2018-06-14T10:58:29Z</time>
      </trkpt>
      <trkpt lat="42.491176" lon="-0.377513">
        <ele>765.4</ele>
        <time>2018-06-14T10:58:32Z</time>
      </trkpt>
      <trkpt lat="42.491229" lon="-0.377567">
        <ele>764.9</ele>
        <time>2018-06-14T10:58:34Z</time>
      </trkpt>
      <trkpt lat="42.491274" lon="-0.377646">
        <ele>765.6</ele>
        <time>2018-06-14T10:58:35Z</time>
      </trkpt>
      <trkpt lat="42.491456" lon="-0.378122">
        <ele>774.1</ele>
        <time>2018-06-14T10:58:46Z</time>
      </trkpt>
      <trkpt lat="42.491550" lon="-0.378311">
        <ele>778.0</ele>
        <time>2018-06-14T10:58:51Z</time>
      </trkpt>
      <trkpt lat="42.491652" lon="-0.378460">
        <ele>780.1</ele>
        <time>2018-06-14T10:58:55Z</time>
      </trkpt>
      <trkpt lat="42.491627" lon="-0.378529">
        <ele>782.6</ele>
        <time>2018-06-14T10:58:56Z</time>
      </trkpt>
      <trkpt lat="42.491608" lon="-0.378575">
        <ele>784.4</ele>
        <time>2018-06-14T10:58:57Z</time>
      </trkpt>
      <trkpt lat="42.491634" lon="-0.378771">
        <ele>787.2</ele>
        <time>2018-06-14T10:59:01Z</time>
      </trkpt>
      <trkpt lat="42.491638" lon="-0.378989">
        <ele>788.4</ele>
        <time>2018-06-14T10:59:06Z</time>
      </trkpt>
      <trkpt lat="42.491604" lon="-0.379336">
        <ele>793.2</ele>
        <time>2018-06-14T10:59:13Z</time>
      </trkpt>
      <trkpt lat="42.491493" lon="-0.379615">
        <ele>798.2</ele>
        <time>2018-06-14T10:59:19Z</time>
      </trkpt>
      <trkpt lat="42.491431" lon="-0.379793">
        <ele>799.6</ele>
        <time>2018-06-14T10:59:23Z</time>
      </trkpt>
      <trkpt lat="42.491390" lon="-0.380448">
        <ele>797.1</ele>
        <time>2018-06-14T10:59:36Z</time>
      </trkpt>
      <trkpt lat="42.491411" lon="-0.380712">
        <ele>794.3</ele>
        <time>2018-06-14T10:59:41Z</time>
      </trkpt>
      <trkpt lat="42.491373" lon="-0.380963">
        <ele>795.6</ele>
        <time>2018-06-14T10:59:46Z</time>
      </trkpt>
      <trkpt lat="42.491346" lon="-0.381089">
        <ele>797.4</ele>
        <time>2018-06-14T10:59:49Z</time>
      </trkpt>
      <trkpt lat="42.491326" lon="-0.381199">
        <ele>799.0</ele>
        <time>2018-06-14T10:59:51Z</time>
      </trkpt>
      <trkpt lat="42.491344" lon="-0.381271">
        <ele>799.6</ele>
        <time>2018-06-14T10:59:52Z</time>
      </trkpt>
      <trkpt lat="42.491482" lon="-0.381767">
        <ele>803.9</ele>
        <time>2018-06-14T11:00:03Z</time>
      </trkpt>
      <trkpt lat="42.491577" lon="-0.382073">
        <ele>806.0</ele>
        <time>2018-06-14T11:00:09Z</time>
      </trkpt>
      <trkpt lat="42.491617" lon="-0.382218">
        <ele>807.2</ele>
        <time>2018-06-14T11:00:12Z</time>
      </trkpt>
      <trkpt lat="42.491619" lon="-0.382325">
        <ele>808.6</ele>
        <time>2018-06-14T11:00:14Z</time>
      </trkpt>
      <trkpt lat="42.491593" lon="-0.382449">
        <ele>809.9</ele>
        <time>2018-06-14T11:00:17Z</time>
      </trkpt>
      <trkpt lat="42.491575" lon="-0.382537">
        <ele>810.4</ele>
        <time>2018-06-14T11:00:19Z</time>
      </trkpt>
      <trkpt lat="42.491591" lon="-0.382623">
        <ele>810.5</ele>
        <time>2018-06-14T11:00:20Z</time>
      </trkpt>
      <trkpt lat="42.491605" lon="-0.382682">
        <ele>810.6</ele>
        <time>2018-06-14T11:00:22Z</time>
      </trkpt>
      <trkpt lat="42.491652" lon="-0.382741">
        <ele>810.8</ele>
        <time>2018-06-14T11:00:23Z</time>
      </trkpt>
      <trkpt lat="42.491773" lon="-0.382846">
        <ele>811.9</ele>
        <time>2018-06-14T11:00:27Z</time>
      </trkpt>
      <trkpt lat="42.491800" lon="-0.382947">
        <ele>813.5</ele>
        <time>2018-06-14T11:00:29Z</time>
      </trkpt>
      <trkpt lat="42.491946" lon="-0.383427">
        <ele>824.7</ele>
        <time>2018-06-14T11:00:40Z</time>
      </trkpt>
      <trkpt lat="42.491963" lon="-0.383543">
        <ele>827.1</ele>
        <time>2018-06-14T11:00:42Z</time>
      </trkpt>
      <trkpt lat="42.491952" lon="-0.383671">
        <ele>828.9</ele>
        <time>2018-06-14T11:00:45Z</time>
      </trkpt>
      <trkpt lat="42.491945" lon="-0.383854">
        <ele>831.3</ele>
        <time>2018-06-14T11:00:48Z</time>
      </trkpt>
      <trkpt lat="42.491928" lon="-0.384047">
        <ele>833.3</ele>
        <time>2018-06-14T11:00:52Z</time>
      </trkpt>
      <trkpt lat="42.491868" lon="-0.384243">
        <ele>833.7</ele>
        <time>2018-06-14T11:00:56Z</time>
      </trkpt>
      <trkpt lat="42.491874" lon="-0.384283">
        <ele>834.3</ele>
        <time>2018-06-14T11:00:57Z</time>
      </trkpt>
      <trkpt lat="42.491894" lon="-0.384334">
        <ele>834.6</ele>
        <time>2018-06-14T11:00:58Z</time>
      </trkpt>
      <trkpt lat="42.491949" lon="-0.384425">
        <ele>835.0</ele>
        <time>2018-06-14T11:01:01Z</time>
      </trkpt>
      <trkpt lat="42.492003" lon="-0.384475">
        <ele>835.9</ele>
        <time>2018-06-14T11:01:02Z</time>
      </trkpt>
      <trkpt lat="42.492037" lon="-0.384570">
        <ele>836.0</ele>
        <time>2018-06-14T11:01:04Z</time>
      </trkpt>
      <trkpt lat="42.492048" lon="-0.384691">
        <ele>834.2</ele>
        <time>2018-06-14T11:01:07Z</time>
      </trkpt>
      <trkpt lat="42.492024" lon="-0.384838">
        <ele>831.1</ele>
        <time>2018-06-14T11:01:10Z</time>
      </trkpt>
      <trkpt lat="42.492028" lon="-0.384889">
        <ele>830.5</ele>
        <time>2018-06-14T11:01:11Z</time>
      </trkpt>
      <trkpt lat="42.492054" lon="-0.384934">
        <ele>830.5</ele>
        <time>2018-06-14T11:01:12Z</time>
      </trkpt>
      <trkpt lat="42.492173" lon="-0.385134">
        <ele>829.4</ele>
        <time>2018-06-14T11:01:17Z</time>
      </trkpt>
      <trkpt lat="42.492397" lon="-0.385509">
        <ele>824.3</ele>
        <time>2018-06-14T11:01:27Z</time>
      </trkpt>
      <trkpt lat="42.492702" lon="-0.385951">
        <ele>818.6</ele>
        <time>2018-06-14T11:01:38Z</time>
      </trkpt>
      <trkpt lat="42.492894" lon="-0.386374">
        <ele>813.8</ele>
        <time>2018-06-14T11:01:48Z</time>
      </trkpt>
      <trkpt lat="42.493144" lon="-0.386602">
        <ele>808.8</ele>
        <time>2018-06-14T11:01:56Z</time>
      </trkpt>
      <trkpt lat="42.493283" lon="-0.386779">
        <ele>808.6</ele>
        <time>2018-06-14T11:02:01Z</time>
      </trkpt>
      <trkpt lat="42.493374" lon="-0.386837">
        <ele>808.4</ele>
        <time>2018-06-14T11:02:04Z</time>
      </trkpt>
      <trkpt lat="42.493477" lon="-0.386843">
        <ele>808.2</ele>
        <time>2018-06-14T11:02:07Z</time>
      </trkpt>
      <trkpt lat="42.493549" lon="-0.386781">
        <ele>808.2</ele>
        <time>2018-06-14T11:02:09Z</time>
      </trkpt>
      <trkpt lat="42.493599" lon="-0.386786">
        <ele>808.4</ele>
        <time>2018-06-14T11:02:10Z</time>
      </trkpt>
      <trkpt lat="42.493649" lon="-0.386806">
        <ele>808.6</ele>
        <time>2018-06-14T11:02:12Z</time>
      </trkpt>
      <trkpt lat="42.493805" lon="-0.387029">
        <ele>809.4</ele>
        <time>2018-06-14T11:02:18Z</time>
      </trkpt>
      <trkpt lat="42.494132" lon="-0.387473">
        <ele>812.5</ele>
        <time>2018-06-14T11:02:30Z</time>
      </trkpt>
      <trkpt lat="42.494250" lon="-0.387628">
        <ele>813.6</ele>
        <time>2018-06-14T11:02:34Z</time>
      </trkpt>
      <trkpt lat="42.494423" lon="-0.387741">
        <ele>813.7</ele>
        <time>2018-06-14T11:02:40Z</time>
      </trkpt>
      <trkpt lat="42.494522" lon="-0.387794">
        <ele>812.8</ele>
        <time>2018-06-14T11:02:42Z</time>
      </trkpt>
      <trkpt lat="42.494633" lon="-0.387794">
        <ele>812.7</ele>
        <time>2018-06-14T11:02:45Z</time>
      </trkpt>
      <trkpt lat="42.494690" lon="-0.387805">
        <ele>813.1</ele>
        <time>2018-06-14T11:02:47Z</time>
      </trkpt>
      <trkpt lat="42.494732" lon="-0.387845">
        <ele>813.1</ele>
        <time>2018-06-14T11:02:48Z</time>
      </trkpt>
      <trkpt lat="42.494784" lon="-0.387918">
        <ele>813.2</ele>
        <time>2018-06-14T11:02:50Z</time>
      </trkpt>
      <trkpt lat="42.494823" lon="-0.388022">
        <ele>812.9</ele>
        <time>2018-06-14T11:02:52Z</time>
      </trkpt>
      <trkpt lat="42.494968" lon="-0.388553">
        <ele>810.8</ele>
        <time>2018-06-14T11:03:04Z</time>
      </trkpt>
      <trkpt lat="42.495258" lon="-0.389275">
        <ele>808.7</ele>
        <time>2018-06-14T11:03:20Z</time>
      </trkpt>
      <trkpt lat="42.495571" lon="-0.390156">
        <ele>817.3</ele>
        <time>2018-06-14T11:03:39Z</time>
      </trkpt>
      <trkpt lat="42.495956" lon="-0.390925">
        <ele>815.4</ele>
        <time>2018-06-14T11:03:57Z</time>
      </trkpt>
      <trkpt lat="42.496216" lon="-0.391313">
        <ele>814.0</ele>
        <time>2018-06-14T11:04:07Z</time>
      </trkpt>
      <trkpt lat="42.496590" lon="-0.391928">
        <ele>814.4</ele>
        <time>2018-06-14T11:04:23Z</time>
      </trkpt>
      <trkpt lat="42.496651" lon="-0.392035">
        <ele>814.2</ele>
        <time>2018-06-14T11:04:26Z</time>
      </trkpt>
      <trkpt lat="42.496774" lon="-0.392196">
        <ele>814.0</ele>
        <time>2018-06-14T11:04:30Z</time>
      </trkpt>
      <trkpt lat="42.496969" lon="-0.392435">
        <ele>816.6</ele>
        <time>2018-06-14T11:04:37Z</time>
      </trkpt>
      <trkpt lat="42.497196" lon="-0.392634">
        <ele>822.0</ele>
        <time>2018-06-14T11:04:44Z</time>
      </trkpt>
      <trkpt lat="42.497326" lon="-0.392723">
        <ele>825.7</ele>
        <time>2018-06-14T11:04:48Z</time>
      </trkpt>
      <trkpt lat="42.497403" lon="-0.392799">
        <ele>827.0</ele>
        <time>2018-06-14T11:04:51Z</time>
      </trkpt>
      <trkpt lat="42.497430" lon="-0.392873">
        <ele>827.7</ele>
        <time>2018-06-14T11:04:52Z</time>
      </trkpt>
      <trkpt lat="42.497427" lon="-0.392987">
        <ele>828.6</ele>
        <time>2018-06-14T11:04:55Z</time>
      </trkpt>
      <trkpt lat="42.497379" lon="-0.393092">
        <ele>829.5</ele>
        <time>2018-06-14T11:04:57Z</time>
      </trkpt>
      <trkpt lat="42.497333" lon="-0.393185">
        <ele>829.8</ele>
        <time>2018-06-14T11:04:59Z</time>
      </trkpt>
      <trkpt lat="42.497330" lon="-0.393294">
        <ele>829.8</ele>
        <time>2018-06-14T11:05:01Z</time>
      </trkpt>
      <trkpt lat="42.497360" lon="-0.393397">
        <ele>830.0</ele>
        <time>2018-06-14T11:05:04Z</time>
      </trkpt>
      <trkpt lat="42.497417" lon="-0.393444">
        <ele>830.0</ele>
        <time>2018-06-14T11:05:05Z</time>
      </trkpt>
      <trkpt lat="42.497494" lon="-0.393452">
        <ele>829.9</ele>
        <time>2018-06-14T11:05:07Z</time>
      </trkpt>
      <trkpt lat="42.497696" lon="-0.393474">
        <ele>829.8</ele>
        <time>2018-06-14T11:05:13Z</time>
      </trkpt>
      <trkpt lat="42.497929" lon="-0.393534">
        <ele>829.7</ele>
        <time>2018-06-14T11:05:19Z</time>
      </trkpt>
      <trkpt lat="42.498016" lon="-0.393573">
        <ele>830.3</ele>
        <time>2018-06-14T11:05:22Z</time>
      </trkpt>
      <trkpt lat="42.498060" lon="-0.393598">
        <ele>830.5</ele>
        <time>2018-06-14T11:05:23Z</time>
      </trkpt>
      <trkpt lat="42.498077" lon="-0.393637">
        <ele>830.6</ele>
        <time>2018-06-14T11:05:24Z</time>
      </trkpt>
      <trkpt lat="42.498091" lon="-0.393700">
        <ele>830.7</ele>
        <time>2018-06-14T11:05:25Z</time>
      </trkpt>
      <trkpt lat="42.498077" lon="-0.393888">
        <ele>830.6</ele>
        <time>2018-06-14T11:05:29Z</time>
      </trkpt>
      <trkpt lat="42.498119" lon="-0.393956">
        <ele>830.0</ele>
        <time>2018-06-14T11:05:30Z</time>
      </trkpt>
      <trkpt lat="42.498260" lon="-0.394068">
        <ele>829.4</ele>
        <time>2018-06-14T11:05:35Z</time>
      </trkpt>
      <trkpt lat="42.498264" lon="-0.394081">
        <ele>829.4</ele>
        <time>2018-06-14T11:05:35Z</time>
      </trkpt>
      <trkpt lat="42.498299" lon="-0.394114">
        <ele>829.5</ele>
        <time>2018-06-14T11:05:36Z</time>
      </trkpt>
      <trkpt lat="42.498299" lon="-0.394114">
        <ele>829.5</ele>
        <time>2018-06-14T11:05:36Z</time>
      </trkpt>
      <trkpt lat="42.498379" lon="-0.394329">
        <ele>828.8</ele>
        <time>2018-06-14T11:05:41Z</time>
      </trkpt>
      <trkpt lat="42.498413" lon="-0.394578">
        <ele>827.2</ele>
        <time>2018-06-14T11:05:46Z</time>
      </trkpt>
      <trkpt lat="42.498314" lon="-0.395117">
        <ele>821.8</ele>
        <time>2018-06-14T11:05:57Z</time>
      </trkpt>
      <trkpt lat="42.498272" lon="-0.395294">
        <ele>821.3</ele>
        <time>2018-06-14T11:06:00Z</time>
      </trkpt>
      <trkpt lat="42.498209" lon="-0.395487">
        <ele>821.0</ele>
        <time>2018-06-14T11:06:05Z</time>
      </trkpt>
      <trkpt lat="42.498177" lon="-0.395602">
        <ele>822.0</ele>
        <time>2018-06-14T11:06:07Z</time>
      </trkpt>
      <trkpt lat="42.498173" lon="-0.395824">
        <ele>823.8</ele>
        <time>2018-06-14T11:06:11Z</time>
      </trkpt>
      <trkpt lat="42.498196" lon="-0.395884">
        <ele>824.4</ele>
        <time>2018-06-14T11:06:13Z</time>
      </trkpt>
      <trkpt lat="42.498226" lon="-0.396057">
        <ele>825.9</ele>
        <time>2018-06-14T11:06:16Z</time>
      </trkpt>
      <trkpt lat="42.498203" lon="-0.396210">
        <ele>826.8</ele>
        <time>2018-06-14T11:06:19Z</time>
      </trkpt>
      <trkpt lat="42.498217" lon="-0.396358">
        <ele>826.7</ele>
        <time>2018-06-14T11:06:22Z</time>
      </trkpt>
      <trkpt lat="42.498274" lon="-0.396514">
        <ele>826.1</ele>
        <time>2018-06-14T11:06:26Z</time>
      </trkpt>
      <trkpt lat="42.498365" lon="-0.396600">
        <ele>826.0</ele>
        <time>2018-06-14T11:06:28Z</time>
      </trkpt>
      <trkpt lat="42.498452" lon="-0.396627">
        <ele>826.0</ele>
        <time>2018-06-14T11:06:31Z</time>
      </trkpt>
      <trkpt lat="42.498525" lon="-0.396661">
        <ele>826.2</ele>
        <time>2018-06-14T11:06:33Z</time>
      </trkpt>
      <trkpt lat="42.498586" lon="-0.396774">
        <ele>826.1</ele>
        <time>2018-06-14T11:06:36Z</time>
      </trkpt>
      <trkpt lat="42.498707" lon="-0.396840">
        <ele>826.3</ele>
        <time>2018-06-14T11:06:39Z</time>
      </trkpt>
      <trkpt lat="42.498806" lon="-0.396886">
        <ele>827.0</ele>
        <time>2018-06-14T11:06:42Z</time>
      </trkpt>
      <trkpt lat="42.498985" lon="-0.396960">
        <ele>827.8</ele>
        <time>2018-06-14T11:06:47Z</time>
      </trkpt>
      <trkpt lat="42.499221" lon="-0.397019">
        <ele>830.1</ele>
        <time>2018-06-14T11:06:53Z</time>
      </trkpt>
      <trkpt lat="42.499302" lon="-0.396967">
        <ele>831.4</ele>
        <time>2018-06-14T11:06:56Z</time>
      </trkpt>
      <trkpt lat="42.499458" lon="-0.397036">
        <ele>833.8</ele>
        <time>2018-06-14T11:07:00Z</time>
      </trkpt>
      <trkpt lat="42.499565" lon="-0.397099">
        <ele>834.6</ele>
        <time>2018-06-14T11:07:03Z</time>
      </trkpt>
      <trkpt lat="42.499728" lon="-0.397182">
        <ele>836.7</ele>
        <time>2018-06-14T11:07:08Z</time>
      </trkpt>
      <trkpt lat="42.499787" lon="-0.397300">
        <ele>836.5</ele>
        <time>2018-06-14T11:07:11Z</time>
      </trkpt>
      <trkpt lat="42.499779" lon="-0.397403">
        <ele>835.7</ele>
        <time>2018-06-14T11:07:13Z</time>
      </trkpt>
      <trkpt lat="42.499688" lon="-0.397579">
        <ele>834.2</ele>
        <time>2018-06-14T11:07:17Z</time>
      </trkpt>
      <trkpt lat="42.499638" lon="-0.397761">
        <ele>834.0</ele>
        <time>2018-06-14T11:07:21Z</time>
      </trkpt>
      <trkpt lat="42.499603" lon="-0.397935">
        <ele>834.0</ele>
        <time>2018-06-14T11:07:24Z</time>
      </trkpt>
      <trkpt lat="42.499649" lon="-0.398078">
        <ele>833.5</ele>
        <time>2018-06-14T11:07:27Z</time>
      </trkpt>
      <trkpt lat="42.499762" lon="-0.398292">
        <ele>834.0</ele>
        <time>2018-06-14T11:07:32Z</time>
      </trkpt>
      <trkpt lat="42.499801" lon="-0.398431">
        <ele>834.8</ele>
        <time>2018-06-14T11:07:35Z</time>
      </trkpt>
      <trkpt lat="42.499802" lon="-0.398617">
        <ele>835.1</ele>
        <time>2018-06-14T11:07:39Z</time>
      </trkpt>
      <trkpt lat="42.499922" lon="-0.399078">
        <ele>837.0</ele>
        <time>2018-06-14T11:07:48Z</time>
      </trkpt>
      <trkpt lat="42.499973" lon="-0.399180">
        <ele>837.9</ele>
        <time>2018-06-14T11:07:51Z</time>
      </trkpt>
      <trkpt lat="42.500003" lon="-0.399250">
        <ele>838.4</ele>
        <time>2018-06-14T11:07:52Z</time>
      </trkpt>
      <trkpt lat="42.500033" lon="-0.399432">
        <ele>839.9</ele>
        <time>2018-06-14T11:07:56Z</time>
      </trkpt>
      <trkpt lat="42.500038" lon="-0.399683">
        <ele>841.5</ele>
        <time>2018-06-14T11:08:01Z</time>
      </trkpt>
      <trkpt lat="42.500031" lon="-0.399943">
        <ele>842.5</ele>
        <time>2018-06-14T11:08:06Z</time>
      </trkpt>
      <trkpt lat="42.499962" lon="-0.400352">
        <ele>840.5</ele>
        <time>2018-06-14T11:08:14Z</time>
      </trkpt>
      <trkpt lat="42.499901" lon="-0.400498">
        <ele>837.6</ele>
        <time>2018-06-14T11:08:18Z</time>
      </trkpt>
      <trkpt lat="42.499809" lon="-0.400653">
        <ele>836.1</ele>
        <time>2018-06-14T11:08:22Z</time>
      </trkpt>
      <trkpt lat="42.499636" lon="-0.400812">
        <ele>834.7</ele>
        <time>2018-06-14T11:08:27Z</time>
      </trkpt>
      <trkpt lat="42.499602" lon="-0.401300">
        <ele>834.1</ele>
        <time>2018-06-14T11:08:37Z</time>
      </trkpt>
      <trkpt lat="42.499634" lon="-0.401516">
        <ele>833.7</ele>
        <time>2018-06-14T11:08:41Z</time>
      </trkpt>
      <trkpt lat="42.499612" lon="-0.401726">
        <ele>832.1</ele>
        <time>2018-06-14T11:08:45Z</time>
      </trkpt>
      <trkpt lat="42.499512" lon="-0.401813">
        <ele>830.5</ele>
        <time>2018-06-14T11:08:48Z</time>
      </trkpt>
      <trkpt lat="42.499512" lon="-0.401812">
        <ele>830.5</ele>
        <time>2018-06-14T11:08:48Z</time>
      </trkpt>
      <trkpt lat="42.499084" lon="-0.402133">
        <ele>825.7</ele>
        <time>2018-06-14T11:09:01Z</time>
      </trkpt>
      <trkpt lat="42.498676" lon="-0.402422">
        <ele>824.0</ele>
        <time>2018-06-14T11:09:14Z</time>
      </trkpt>
      <trkpt lat="42.498639" lon="-0.402463">
        <ele>824.1</ele>
        <time>2018-06-14T11:09:15Z</time>
      </trkpt>
      <trkpt lat="42.498708" lon="-0.402750">
        <ele>825.9</ele>
        <time>2018-06-14T11:09:21Z</time>
      </trkpt>
      <trkpt lat="42.498764" lon="-0.402951">
        <ele>826.1</ele>
        <time>2018-06-14T11:09:25Z</time>
      </trkpt>
      <trkpt lat="42.498793" lon="-0.403153">
        <ele>826.2</ele>
        <time>2018-06-14T11:09:29Z</time>
      </trkpt>
      <trkpt lat="42.498817" lon="-0.403161">
        <ele>826.2</ele>
        <time>2018-06-14T11:09:30Z</time>
      </trkpt>
      <trkpt lat="42.498779" lon="-0.403405">
        <ele>826.0</ele>
        <time>2018-06-14T11:09:35Z</time>
      </trkpt>
      <trkpt lat="42.498738" lon="-0.403713">
        <ele>825.0</ele>
        <time>2018-06-14T11:09:41Z</time>
      </trkpt>
      <trkpt lat="42.498688" lon="-0.403934">
        <ele>824.5</ele>
        <time>2018-06-14T11:09:45Z</time>
      </trkpt>
      <trkpt lat="42.498596" lon="-0.404146">
        <ele>824.6</ele>
        <time>2018-06-14T11:09:50Z</time>
      </trkpt>
      <trkpt lat="42.498499" lon="-0.404267">
        <ele>824.8</ele>
        <time>2018-06-14T11:09:54Z</time>
      </trkpt>
      <trkpt lat="42.498365" lon="-0.404333">
        <ele>825.0</ele>
        <time>2018-06-14T11:09:57Z</time>
      </trkpt>
      <trkpt lat="42.498341" lon="-0.404413">
        <ele>825.0</ele>
        <time>2018-06-14T11:09:59Z</time>
      </trkpt>
      <trkpt lat="42.498279" lon="-0.404519">
        <ele>824.7</ele>
        <time>2018-06-14T11:10:02Z</time>
      </trkpt>
      <trkpt lat="42.498305" lon="-0.404670">
        <ele>824.7</ele>
        <time>2018-06-14T11:10:05Z</time>
      </trkpt>
      <trkpt lat="42.498256" lon="-0.405494">
        <ele>818.6</ele>
        <time>2018-06-14T11:10:21Z</time>
      </trkpt>
      <trkpt lat="42.498212" lon="-0.405757">
        <ele>814.6</ele>
        <time>2018-06-14T11:10:26Z</time>
      </trkpt>
      <trkpt lat="42.498173" lon="-0.405929">
        <ele>812.6</ele>
        <time>2018-06-14T11:10:30Z</time>
      </trkpt>
      <trkpt lat="42.498127" lon="-0.406078">
        <ele>812.1</ele>
        <time>2018-06-14T11:10:33Z</time>
      </trkpt>
      <trkpt lat="42.498080" lon="-0.406191">
        <ele>812.0</ele>
        <time>2018-06-14T11:10:36Z</time>
      </trkpt>
      <trkpt lat="42.497937" lon="-0.406298">
        <ele>812.7</ele>
        <time>2018-06-14T11:10:40Z</time>
      </trkpt>
      <trkpt lat="42.497867" lon="-0.406209">
        <ele>812.9</ele>
        <time>2018-06-14T11:10:42Z</time>
      </trkpt>
      <trkpt lat="42.497810" lon="-0.406151">
        <ele>812.6</ele>
        <time>2018-06-14T11:10:44Z</time>
      </trkpt>
      <trkpt lat="42.497785" lon="-0.406181">
        <ele>812.4</ele>
        <time>2018-06-14T11:10:45Z</time>
      </trkpt>
      <trkpt lat="42.497821" lon="-0.406288">
        <ele>812.5</ele>
        <time>2018-06-14T11:10:48Z</time>
      </trkpt>
      <trkpt lat="42.497866" lon="-0.406449">
        <ele>812.1</ele>
        <time>2018-06-14T11:10:51Z</time>
      </trkpt>
      <trkpt lat="42.497900" lon="-0.406634">
        <ele>811.5</ele>
        <time>2018-06-14T11:10:55Z</time>
      </trkpt>
      <trkpt lat="42.497948" lon="-0.406784">
        <ele>811.1</ele>
        <time>2018-06-14T11:10:58Z</time>
      </trkpt>
      <trkpt lat="42.497973" lon="-0.406905">
        <ele>810.6</ele>
        <time>2018-06-14T11:11:00Z</time>
      </trkpt>
      <trkpt lat="42.498068" lon="-0.407114">
        <ele>809.6</ele>
        <time>2018-06-14T11:11:05Z</time>
      </trkpt>
      <trkpt lat="42.498141" lon="-0.407354">
        <ele>806.9</ele>
        <time>2018-06-14T11:11:10Z</time>
      </trkpt>
      <trkpt lat="42.498216" lon="-0.407686">
        <ele>803.5</ele>
        <time>2018-06-14T11:11:17Z</time>
      </trkpt>
      <trkpt lat="42.498264" lon="-0.407805">
        <ele>802.6</ele>
        <time>2018-06-14T11:11:20Z</time>
      </trkpt>
      <trkpt lat="42.498272" lon="-0.408077">
        <ele>801.2</ele>
        <time>2018-06-14T11:11:25Z</time>
      </trkpt>
      <trkpt lat="42.498302" lon="-0.408292">
        <ele>801.3</ele>
        <time>2018-06-14T11:11:29Z</time>
      </trkpt>
      <trkpt lat="42.498325" lon="-0.408439">
        <ele>801.4</ele>
        <time>2018-06-14T11:11:32Z</time>
      </trkpt>
      <trkpt lat="42.498367" lon="-0.408637">
        <ele>802.7</ele>
        <time>2018-06-14T11:11:36Z</time>
      </trkpt>
      <trkpt lat="42.498417" lon="-0.408831">
        <ele>804.3</ele>
        <time>2018-06-14T11:11:40Z</time>
      </trkpt>
      <trkpt lat="42.498459" lon="-0.409029">
        <ele>805.8</ele>
        <time>2018-06-14T11:11:44Z</time>
      </trkpt>
      <trkpt lat="42.498585" lon="-0.409579">
        <ele>806.9</ele>
        <time>2018-06-14T11:11:56Z</time>
      </trkpt>
      <trkpt lat="42.498627" lon="-0.409718">
        <ele>807.8</ele>
        <time>2018-06-14T11:11:59Z</time>
      </trkpt>
      <trkpt lat="42.498876" lon="-0.410634">
        <ele>808.6</ele>
        <time>2018-06-14T11:12:18Z</time>
      </trkpt>
      <trkpt lat="42.498940" lon="-0.410886">
        <ele>808.3</ele>
        <time>2018-06-14T11:12:23Z</time>
      </trkpt>
      <trkpt lat="42.499039" lon="-0.411241">
        <ele>808.1</ele>
        <time>2018-06-14T11:12:30Z</time>
      </trkpt>
      <trkpt lat="42.499058" lon="-0.411465">
        <ele>809.8</ele>
        <time>2018-06-14T11:12:35Z</time>
      </trkpt>
      <trkpt lat="42.499111" lon="-0.411799">
        <ele>811.3</ele>
        <time>2018-06-14T11:12:41Z</time>
      </trkpt>
      <trkpt lat="42.499187" lon="-0.412361">
        <ele>811.1</ele>
        <time>2018-06-14T11:12:53Z</time>
      </trkpt>
      <trkpt lat="42.499191" lon="-0.412524">
        <ele>810.1</ele>
        <time>2018-06-14T11:12:56Z</time>
      </trkpt>
      <trkpt lat="42.499355" lon="-0.413049">
        <ele>807.5</ele>
        <time>2018-06-14T11:13:07Z</time>
      </trkpt>
      <trkpt lat="42.499367" lon="-0.413082">
        <ele>807.3</ele>
        <time>2018-06-14T11:13:08Z</time>
      </trkpt>
      <trkpt lat="42.499374" lon="-0.413144">
        <ele>806.9</ele>
        <time>2018-06-14T11:13:09Z</time>
      </trkpt>
      <trkpt lat="42.499346" lon="-0.413224">
        <ele>806.4</ele>
        <time>2018-06-14T11:13:11Z</time>
      </trkpt>
      <trkpt lat="42.499241" lon="-0.413312">
        <ele>805.6</ele>
        <time>2018-06-14T11:13:14Z</time>
      </trkpt>
      <trkpt lat="42.499176" lon="-0.413367">
        <ele>805.1</ele>
        <time>2018-06-14T11:13:16Z</time>
      </trkpt>
      <trkpt lat="42.499158" lon="-0.413409">
        <ele>805.1</ele>
        <time>2018-06-14T11:13:17Z</time>
      </trkpt>
      <trkpt lat="42.499157" lon="-0.413457">
        <ele>805.3</ele>
        <time>2018-06-14T11:13:18Z</time>
      </trkpt>
      <trkpt lat="42.499183" lon="-0.413608">
        <ele>807.0</ele>
        <time>2018-06-14T11:13:21Z</time>
      </trkpt>
      <trkpt lat="42.499191" lon="-0.413946">
        <ele>810.1</ele>
        <time>2018-06-14T11:13:28Z</time>
      </trkpt>
      <trkpt lat="42.499229" lon="-0.414349">
        <ele>814.3</ele>
        <time>2018-06-14T11:13:36Z</time>
      </trkpt>
      <trkpt lat="42.499226" lon="-0.414642">
        <ele>817.1</ele>
        <time>2018-06-14T11:13:41Z</time>
      </trkpt>
      <trkpt lat="42.499279" lon="-0.415362">
        <ele>816.7</ele>
        <time>2018-06-14T11:13:55Z</time>
      </trkpt>
      <trkpt lat="42.499405" lon="-0.415883">
        <ele>818.6</ele>
        <time>2018-06-14T11:14:06Z</time>
      </trkpt>
      <trkpt lat="42.499462" lon="-0.416164">
        <ele>819.9</ele>
        <time>2018-06-14T11:14:12Z</time>
      </trkpt>
      <trkpt lat="42.499474" lon="-0.416454">
        <ele>821.5</ele>
        <time>2018-06-14T11:14:18Z</time>
      </trkpt>
      <trkpt lat="42.499496" lon="-0.416684">
        <ele>823.2</ele>
        <time>2018-06-14T11:14:22Z</time>
      </trkpt>
      <trkpt lat="42.499626" lon="-0.417144">
        <ele>829.1</ele>
        <time>2018-06-14T11:14:32Z</time>
      </trkpt>
      <trkpt lat="42.499615" lon="-0.417651">
        <ele>832.2</ele>
        <time>2018-06-14T11:14:42Z</time>
      </trkpt>
      <trkpt lat="42.499577" lon="-0.417970">
        <ele>832.1</ele>
        <time>2018-06-14T11:14:48Z</time>
      </trkpt>
      <trkpt lat="42.499561" lon="-0.418124">
        <ele>832.3</ele>
        <time>2018-06-14T11:14:51Z</time>
      </trkpt>
      <trkpt lat="42.499584" lon="-0.418836">
        <ele>833.4</ele>
        <time>2018-06-14T11:15:05Z</time>
      </trkpt>
      <trkpt lat="42.499649" lon="-0.419330">
        <ele>830.5</ele>
        <time>2018-06-14T11:15:15Z</time>
      </trkpt>
      <trkpt lat="42.499683" lon="-0.419477">
        <ele>830.5</ele>
        <time>2018-06-14T11:15:18Z</time>
      </trkpt>
      <trkpt lat="42.499656" lon="-0.419612">
        <ele>830.9</ele>
        <time>2018-06-14T11:15:21Z</time>
      </trkpt>
      <trkpt lat="42.499557" lon="-0.419940">
        <ele>833.2</ele>
        <time>2018-06-14T11:15:28Z</time>
      </trkpt>
      <trkpt lat="42.499519" lon="-0.420063">
        <ele>833.3</ele>
        <time>2018-06-14T11:15:30Z</time>
      </trkpt>
      <trkpt lat="42.499420" lon="-0.420288">
        <ele>831.2</ele>
        <time>2018-06-14T11:15:35Z</time>
      </trkpt>
      <trkpt lat="42.499318" lon="-0.420600">
        <ele>827.1</ele>
        <time>2018-06-14T11:15:42Z</time>
      </trkpt>
      <trkpt lat="42.499309" lon="-0.420734">
        <ele>826.1</ele>
        <time>2018-06-14T11:15:45Z</time>
      </trkpt>
      <trkpt lat="42.499313" lon="-0.420965">
        <ele>826.2</ele>
        <time>2018-06-14T11:15:49Z</time>
      </trkpt>
      <trkpt lat="42.499352" lon="-0.421360">
        <ele>827.9</ele>
        <time>2018-06-14T11:15:57Z</time>
      </trkpt>
      <trkpt lat="42.499500" lon="-0.422289">
        <ele>830.0</ele>
        <time>2018-06-14T11:16:16Z</time>
      </trkpt>
      <trkpt lat="42.499698" lon="-0.422975">
        <ele>834.4</ele>
        <time>2018-06-14T11:16:30Z</time>
      </trkpt>
      <trkpt lat="42.499844" lon="-0.423669">
        <ele>834.7</ele>
        <time>2018-06-14T11:16:44Z</time>
      </trkpt>
      <trkpt lat="42.500107" lon="-0.424762">
        <ele>834.5</ele>
        <time>2018-06-14T11:17:07Z</time>
      </trkpt>
      <trkpt lat="42.500366" lon="-0.425643">
        <ele>842.9</ele>
        <time>2018-06-14T11:17:25Z</time>
      </trkpt>
      <trkpt lat="42.500469" lon="-0.426032">
        <ele>847.1</ele>
        <time>2018-06-14T11:17:34Z</time>
      </trkpt>
      <trkpt lat="42.500507" lon="-0.426349">
        <ele>847.6</ele>
        <time>2018-06-14T11:17:40Z</time>
      </trkpt>
      <trkpt lat="42.500553" lon="-0.427209">
        <ele>850.5</ele>
        <time>2018-06-14T11:17:57Z</time>
      </trkpt>
      <trkpt lat="42.500600" lon="-0.427618">
        <ele>851.6</ele>
        <time>2018-06-14T11:18:05Z</time>
      </trkpt>
      <trkpt lat="42.501114" lon="-0.429282">
        <ele>856.8</ele>
        <time>2018-06-14T11:18:40Z</time>
      </trkpt>
      <trkpt lat="42.501194" lon="-0.429642">
        <ele>860.9</ele>
        <time>2018-06-14T11:18:48Z</time>
      </trkpt>
      <trkpt lat="42.501243" lon="-0.429799">
        <ele>862.5</ele>
        <time>2018-06-14T11:18:51Z</time>
      </trkpt>
      <trkpt lat="42.501263" lon="-0.429999">
        <ele>863.0</ele>
        <time>2018-06-14T11:18:55Z</time>
      </trkpt>
      <trkpt lat="42.501328" lon="-0.430987">
        <ele>863.6</ele>
        <time>2018-06-14T11:19:14Z</time>
      </trkpt>
      <trkpt lat="42.501316" lon="-0.431190">
        <ele>863.5</ele>
        <time>2018-06-14T11:19:18Z</time>
      </trkpt>
      <trkpt lat="42.501221" lon="-0.431469">
        <ele>862.7</ele>
        <time>2018-06-14T11:19:24Z</time>
      </trkpt>
      <trkpt lat="42.501167" lon="-0.431687">
        <ele>862.5</ele>
        <time>2018-06-14T11:19:29Z</time>
      </trkpt>
      <trkpt lat="42.501136" lon="-0.431920">
        <ele>862.5</ele>
        <time>2018-06-14T11:19:33Z</time>
      </trkpt>
      <trkpt lat="42.501076" lon="-0.432201">
        <ele>862.4</ele>
        <time>2018-06-14T11:19:39Z</time>
      </trkpt>
      <trkpt lat="42.500938" lon="-0.432759">
        <ele>860.2</ele>
        <time>2018-06-14T11:19:51Z</time>
      </trkpt>
      <trkpt lat="42.500888" lon="-0.433115">
        <ele>854.8</ele>
        <time>2018-06-14T11:19:58Z</time>
      </trkpt>
      <trkpt lat="42.500862" lon="-0.433239">
        <ele>853.5</ele>
        <time>2018-06-14T11:20:00Z</time>
      </trkpt>
      <trkpt lat="42.500770" lon="-0.433317">
        <ele>853.2</ele>
        <time>2018-06-14T11:20:03Z</time>
      </trkpt>
      <trkpt lat="42.500583" lon="-0.433410">
        <ele>852.0</ele>
        <time>2018-06-14T11:20:09Z</time>
      </trkpt>
      <trkpt lat="42.500493" lon="-0.433555">
        <ele>850.7</ele>
        <time>2018-06-14T11:20:12Z</time>
      </trkpt>
      <trkpt lat="42.500450" lon="-0.433703">
        <ele>850.2</ele>
        <time>2018-06-14T11:20:15Z</time>
      </trkpt>
      <trkpt lat="42.500393" lon="-0.433836">
        <ele>849.3</ele>
        <time>2018-06-14T11:20:18Z</time>
      </trkpt>
      <trkpt lat="42.500282" lon="-0.434131">
        <ele>846.9</ele>
        <time>2018-06-14T11:20:25Z</time>
      </trkpt>
      <trkpt lat="42.500138" lon="-0.434370">
        <ele>843.3</ele>
        <time>2018-06-14T11:20:31Z</time>
      </trkpt>
      <trkpt lat="42.500024" lon="-0.434489">
        <ele>842.7</ele>
        <time>2018-06-14T11:20:35Z</time>
      </trkpt>
      <trkpt lat="42.499763" lon="-0.434665">
        <ele>841.7</ele>
        <time>2018-06-14T11:20:43Z</time>
      </trkpt>
      <trkpt lat="42.499573" lon="-0.434810">
        <ele>841.0</ele>
        <time>2018-06-14T11:20:48Z</time>
      </trkpt>
      <trkpt lat="42.499276" lon="-0.435395">
        <ele>839.8</ele>
        <time>2018-06-14T11:21:02Z</time>
      </trkpt>
      <trkpt lat="42.499217" lon="-0.435529">
        <ele>838.5</ele>
        <time>2018-06-14T11:21:05Z</time>
      </trkpt>
      <trkpt lat="42.499003" lon="-0.435610">
        <ele>838.2</ele>
        <time>2018-06-14T11:21:11Z</time>
      </trkpt>
      <trkpt lat="42.498857" lon="-0.435776">
        <ele>840.5</ele>
        <time>2018-06-14T11:21:16Z</time>
      </trkpt>
      <trkpt lat="42.498663" lon="-0.435942">
        <ele>844.6</ele>
        <time>2018-06-14T11:21:22Z</time>
      </trkpt>
      <trkpt lat="42.498477" lon="-0.436028">
        <ele>847.9</ele>
        <time>2018-06-14T11:21:28Z</time>
      </trkpt>
      <trkpt lat="42.498212" lon="-0.436092">
        <ele>852.2</ele>
        <time>2018-06-14T11:21:35Z</time>
      </trkpt>
      <trkpt lat="42.498050" lon="-0.436146">
        <ele>853.6</ele>
        <time>2018-06-14T11:21:39Z</time>
      </trkpt>
      <trkpt lat="42.497939" lon="-0.436237">
        <ele>854.9</ele>
        <time>2018-06-14T11:21:43Z</time>
      </trkpt>
      <trkpt lat="42.497797" lon="-0.436479">
        <ele>855.7</ele>
        <time>2018-06-14T11:21:49Z</time>
      </trkpt>
      <trkpt lat="42.497695" lon="-0.436720">
        <ele>856.1</ele>
        <time>2018-06-14T11:21:54Z</time>
      </trkpt>
      <trkpt lat="42.497662" lon="-0.436849">
        <ele>856.3</ele>
        <time>2018-06-14T11:21:57Z</time>
      </trkpt>
      <trkpt lat="42.497793" lon="-0.437509">
        <ele>859.0</ele>
        <time>2018-06-14T11:22:10Z</time>
      </trkpt>
      <trkpt lat="42.497939" lon="-0.437828">
        <ele>861.6</ele>
        <time>2018-06-14T11:22:18Z</time>
      </trkpt>
      <trkpt lat="42.498039" lon="-0.437965">
        <ele>863.9</ele>
        <time>2018-06-14T11:22:21Z</time>
      </trkpt>
      <trkpt lat="42.498331" lon="-0.438222">
        <ele>867.6</ele>
        <time>2018-06-14T11:22:31Z</time>
      </trkpt>
      <trkpt lat="42.498533" lon="-0.438490">
        <ele>868.5</ele>
        <time>2018-06-14T11:22:38Z</time>
      </trkpt>
      <trkpt lat="42.498834" lon="-0.438775">
        <ele>871.3</ele>
        <time>2018-06-14T11:22:48Z</time>
      </trkpt>
      <trkpt lat="42.499059" lon="-0.439375">
        <ele>876.6</ele>
        <time>2018-06-14T11:23:01Z</time>
      </trkpt>
      <trkpt lat="42.499178" lon="-0.439622">
        <ele>875.4</ele>
        <time>2018-06-14T11:23:07Z</time>
      </trkpt>
      <trkpt lat="42.499407" lon="-0.439933">
        <ele>875.6</ele>
        <time>2018-06-14T11:23:16Z</time>
      </trkpt>
      <trkpt lat="42.499490" lon="-0.440084">
        <ele>874.4</ele>
        <time>2018-06-14T11:23:19Z</time>
      </trkpt>
      <trkpt lat="42.499522" lon="-0.440255">
        <ele>872.6</ele>
        <time>2018-06-14T11:23:23Z</time>
      </trkpt>
      <trkpt lat="42.499514" lon="-0.440529">
        <ele>868.7</ele>
        <time>2018-06-14T11:23:28Z</time>
      </trkpt>
      <trkpt lat="42.499566" lon="-0.440647">
        <ele>866.8</ele>
        <time>2018-06-14T11:23:31Z</time>
      </trkpt>
      <trkpt lat="42.499676" lon="-0.440792">
        <ele>866.1</ele>
        <time>2018-06-14T11:23:35Z</time>
      </trkpt>
      <trkpt lat="42.499771" lon="-0.441067">
        <ele>865.1</ele>
        <time>2018-06-14T11:23:41Z</time>
      </trkpt>
      <trkpt lat="42.499851" lon="-0.441222">
        <ele>865.8</ele>
        <time>2018-06-14T11:23:45Z</time>
      </trkpt>
      <trkpt lat="42.499966" lon="-0.441505">
        <ele>865.5</ele>
        <time>2018-06-14T11:23:51Z</time>
      </trkpt>
      <trkpt lat="42.500141" lon="-0.441847">
        <ele>860.8</ele>
        <time>2018-06-14T11:23:59Z</time>
      </trkpt>
      <trkpt lat="42.500381" lon="-0.442355">
        <ele>860.6</ele>
        <time>2018-06-14T11:24:11Z</time>
      </trkpt>
      <trkpt lat="42.500656" lon="-0.442774">
        <ele>863.0</ele>
        <time>2018-06-14T11:24:22Z</time>
      </trkpt>
      <trkpt lat="42.500892" lon="-0.443084">
        <ele>865.3</ele>
        <time>2018-06-14T11:24:31Z</time>
      </trkpt>
      <trkpt lat="42.501106" lon="-0.443307">
        <ele>867.1</ele>
        <time>2018-06-14T11:24:38Z</time>
      </trkpt>
      <trkpt lat="42.501667" lon="-0.444184">
        <ele>871.4</ele>
        <time>2018-06-14T11:25:01Z</time>
      </trkpt>
      <trkpt lat="42.502083" lon="-0.444800">
        <ele>869.9</ele>
        <time>2018-06-14T11:25:17Z</time>
      </trkpt>
      <trkpt lat="42.502637" lon="-0.445511">
        <ele>875.9</ele>
        <time>2018-06-14T11:25:37Z</time>
      </trkpt>
      <trkpt lat="42.502769" lon="-0.445694">
        <ele>877.3</ele>
        <time>2018-06-14T11:25:42Z</time>
      </trkpt>
      <trkpt lat="42.503189" lon="-0.446561">
        <ele>879.5</ele>
        <time>2018-06-14T11:26:03Z</time>
      </trkpt>
      <trkpt lat="42.503494" lon="-0.447297">
        <ele>878.2</ele>
        <time>2018-06-14T11:26:19Z</time>
      </trkpt>
      <trkpt lat="42.503605" lon="-0.447550">
        <ele>877.6</ele>
        <time>2018-06-14T11:26:25Z</time>
      </trkpt>
      <trkpt lat="42.504314" lon="-0.449206">
        <ele>879.3</ele>
        <time>2018-06-14T11:27:02Z</time>
      </trkpt>
      <trkpt lat="42.504537" lon="-0.449722">
        <ele>880.7</ele>
        <time>2018-06-14T11:27:14Z</time>
      </trkpt>
      <trkpt lat="42.504620" lon="-0.449925">
        <ele>881.1</ele>
        <time>2018-06-14T11:27:18Z</time>
      </trkpt>
      <trkpt lat="42.504748" lon="-0.450203">
        <ele>883.3</ele>
        <time>2018-06-14T11:27:25Z</time>
      </trkpt>
      <trkpt lat="42.504951" lon="-0.450359">
        <ele>888.8</ele>
        <time>2018-06-14T11:27:31Z</time>
      </trkpt>
      <trkpt lat="42.505436" lon="-0.450544">
        <ele>897.7</ele>
        <time>2018-06-14T11:27:45Z</time>
      </trkpt>
      <trkpt lat="42.506378" lon="-0.451038">
        <ele>897.5</ele>
        <time>2018-06-14T11:28:12Z</time>
      </trkpt>
      <trkpt lat="42.506451" lon="-0.451088">
        <ele>897.5</ele>
        <time>2018-06-14T11:28:14Z</time>
      </trkpt>
      <trkpt lat="42.506505" lon="-0.451246">
        <ele>897.1</ele>
        <time>2018-06-14T11:28:17Z</time>
      </trkpt>
      <trkpt lat="42.506500" lon="-0.451398">
        <ele>897.2</ele>
        <time>2018-06-14T11:28:20Z</time>
      </trkpt>
      <trkpt lat="42.506388" lon="-0.451755">
        <ele>898.1</ele>
        <time>2018-06-14T11:28:28Z</time>
      </trkpt>
      <trkpt lat="42.506335" lon="-0.452019">
        <ele>898.1</ele>
        <time>2018-06-14T11:28:33Z</time>
      </trkpt>
      <trkpt lat="42.506306" lon="-0.452312">
        <ele>895.7</ele>
        <time>2018-06-14T11:28:39Z</time>
      </trkpt>
      <trkpt lat="42.506241" lon="-0.452657">
        <ele>893.8</ele>
        <time>2018-06-14T11:28:46Z</time>
      </trkpt>
      <trkpt lat="42.506191" lon="-0.452913">
        <ele>890.3</ele>
        <time>2018-06-14T11:28:51Z</time>
      </trkpt>
      <trkpt lat="42.506133" lon="-0.453131">
        <ele>886.9</ele>
        <time>2018-06-14T11:28:56Z</time>
      </trkpt>
      <trkpt lat="42.506058" lon="-0.453270">
        <ele>886.6</ele>
        <time>2018-06-14T11:28:59Z</time>
      </trkpt>
      <trkpt lat="42.505961" lon="-0.453359">
        <ele>887.6</ele>
        <time>2018-06-14T11:29:02Z</time>
      </trkpt>
      <trkpt lat="42.505904" lon="-0.453473">
        <ele>888.3</ele>
        <time>2018-06-14T11:29:05Z</time>
      </trkpt>
      <trkpt lat="42.505900" lon="-0.453613">
        <ele>890.5</ele>
        <time>2018-06-14T11:29:08Z</time>
      </trkpt>
      <trkpt lat="42.505935" lon="-0.453737">
        <ele>892.7</ele>
        <time>2018-06-14T11:29:10Z</time>
      </trkpt>
      <trkpt lat="42.506070" lon="-0.453843">
        <ele>891.8</ele>
        <time>2018-06-14T11:29:14Z</time>
      </trkpt>
      <trkpt lat="42.506274" lon="-0.453949">
        <ele>890.2</ele>
        <time>2018-06-14T11:29:20Z</time>
      </trkpt>
      <trkpt lat="42.506447" lon="-0.454074">
        <ele>889.9</ele>
        <time>2018-06-14T11:29:25Z</time>
      </trkpt>
      <trkpt lat="42.506691" lon="-0.454422">
        <ele>888.9</ele>
        <time>2018-06-14T11:29:35Z</time>
      </trkpt>
      <trkpt lat="42.506861" lon="-0.454616">
        <ele>885.2</ele>
        <time>2018-06-14T11:29:41Z</time>
      </trkpt>
      <trkpt lat="42.507182" lon="-0.454813">
        <ele>888.4</ele>
        <time>2018-06-14T11:29:50Z</time>
      </trkpt>
      <trkpt lat="42.507441" lon="-0.454973">
        <ele>890.3</ele>
        <time>2018-06-14T11:29:58Z</time>
      </trkpt>
      <trkpt lat="42.507582" lon="-0.455149">
        <ele>888.2</ele>
        <time>2018-06-14T11:30:03Z</time>
      </trkpt>
      <trkpt lat="42.507713" lon="-0.455434">
        <ele>887.0</ele>
        <time>2018-06-14T11:30:09Z</time>
      </trkpt>
      <trkpt lat="42.508114" lon="-0.456517">
        <ele>890.4</ele>
        <time>2018-06-14T11:30:33Z</time>
      </trkpt>
      <trkpt lat="42.508518" lon="-0.457368">
        <ele>892.5</ele>
        <time>2018-06-14T11:30:53Z</time>
      </trkpt>
      <trkpt lat="42.508820" lon="-0.457988">
        <ele>893.1</ele>
        <time>2018-06-14T11:31:07Z</time>
      </trkpt>
      <trkpt lat="42.508911" lon="-0.458163">
        <ele>893.3</ele>
        <time>2018-06-14T11:31:12Z</time>
      </trkpt>
      <trkpt lat="42.509119" lon="-0.458486">
        <ele>890.4</ele>
        <time>2018-06-14T11:31:20Z</time>
      </trkpt>
      <trkpt lat="42.509384" lon="-0.458742">
        <ele>891.7</ele>
        <time>2018-06-14T11:31:29Z</time>
      </trkpt>
      <trkpt lat="42.510178" lon="-0.459975">
        <ele>904.1</ele>
        <time>2018-06-14T11:32:01Z</time>
      </trkpt>
      <trkpt lat="42.510834" lon="-0.460612">
        <ele>917.0</ele>
        <time>2018-06-14T11:32:22Z</time>
      </trkpt>
      <trkpt lat="42.511337" lon="-0.461056">
        <ele>918.3</ele>
        <time>2018-06-14T11:32:38Z</time>
      </trkpt>
      <trkpt lat="42.511497" lon="-0.461220">
        <ele>914.3</ele>
        <time>2018-06-14T11:32:44Z</time>
      </trkpt>
      <trkpt lat="42.511971" lon="-0.461731">
        <ele>911.3</ele>
        <time>2018-06-14T11:33:00Z</time>
      </trkpt>
      <trkpt lat="42.512287" lon="-0.462030">
        <ele>913.9</ele>
        <time>2018-06-14T11:33:10Z</time>
      </trkpt>
      <trkpt lat="42.512447" lon="-0.462159">
        <ele>915.1</ele>
        <time>2018-06-14T11:33:15Z</time>
      </trkpt>
      <trkpt lat="42.512772" lon="-0.462348">
        <ele>916.7</ele>
        <time>2018-06-14T11:33:24Z</time>
      </trkpt>
      <trkpt lat="42.513020" lon="-0.462444">
        <ele>924.4</ele>
        <time>2018-06-14T11:33:31Z</time>
      </trkpt>
      <trkpt lat="42.513187" lon="-0.462412">
        <ele>933.7</ele>
        <time>2018-06-14T11:33:36Z</time>
      </trkpt>
      <trkpt lat="42.513268" lon="-0.462385">
        <ele>935.9</ele>
        <time>2018-06-14T11:33:39Z</time>
      </trkpt>
      <trkpt lat="42.513374" lon="-0.462314">
        <ele>938.4</ele>
        <time>2018-06-14T11:33:42Z</time>
      </trkpt>
      <trkpt lat="42.513474" lon="-0.462299">
        <ele>940.7</ele>
        <time>2018-06-14T11:33:45Z</time>
      </trkpt>
      <trkpt lat="42.513619" lon="-0.462361">
        <ele>941.1</ele>
        <time>2018-06-14T11:33:49Z</time>
      </trkpt>
      <trkpt lat="42.513772" lon="-0.462490">
        <ele>940.0</ele>
        <time>2018-06-14T11:33:53Z</time>
      </trkpt>
      <trkpt lat="42.513970" lon="-0.462661">
        <ele>939.9</ele>
        <time>2018-06-14T11:34:00Z</time>
      </trkpt>
      <trkpt lat="42.514157" lon="-0.462754">
        <ele>942.3</ele>
        <time>2018-06-14T11:34:05Z</time>
      </trkpt>
      <trkpt lat="42.514370" lon="-0.462837">
        <ele>945.1</ele>
        <time>2018-06-14T11:34:11Z</time>
      </trkpt>
      <trkpt lat="42.514641" lon="-0.462992">
        <ele>949.5</ele>
        <time>2018-06-14T11:34:19Z</time>
      </trkpt>
      <trkpt lat="42.514889" lon="-0.463044">
        <ele>957.7</ele>
        <time>2018-06-14T11:34:26Z</time>
      </trkpt>
      <trkpt lat="42.515042" lon="-0.463008">
        <ele>968.2</ele>
        <time>2018-06-14T11:34:31Z</time>
      </trkpt>
      <trkpt lat="42.515152" lon="-0.462956">
        <ele>976.2</ele>
        <time>2018-06-14T11:34:34Z</time>
      </trkpt>
      <trkpt lat="42.515240" lon="-0.463004">
        <ele>975.3</ele>
        <time>2018-06-14T11:34:37Z</time>
      </trkpt>
      <trkpt lat="42.515308" lon="-0.463102">
        <ele>973.8</ele>
        <time>2018-06-14T11:34:39Z</time>
      </trkpt>
      <trkpt lat="42.515366" lon="-0.463300">
        <ele>969.9</ele>
        <time>2018-06-14T11:34:44Z</time>
      </trkpt>
      <trkpt lat="42.515366" lon="-0.463498">
        <ele>965.1</ele>
        <time>2018-06-14T11:34:48Z</time>
      </trkpt>
      <trkpt lat="42.515358" lon="-0.463757">
        <ele>961.7</ele>
        <time>2018-06-14T11:34:53Z</time>
      </trkpt>
      <trkpt lat="42.515350" lon="-0.463978">
        <ele>957.9</ele>
        <time>2018-06-14T11:34:57Z</time>
      </trkpt>
      <trkpt lat="42.515347" lon="-0.464234">
        <ele>954.4</ele>
        <time>2018-06-14T11:35:02Z</time>
      </trkpt>
      <trkpt lat="42.515350" lon="-0.464306">
        <ele>953.6</ele>
        <time>2018-06-14T11:35:04Z</time>
      </trkpt>
      <trkpt lat="42.515389" lon="-0.464487">
        <ele>953.0</ele>
        <time>2018-06-14T11:35:07Z</time>
      </trkpt>
      <trkpt lat="42.515488" lon="-0.464632">
        <ele>954.1</ele>
        <time>2018-06-14T11:35:11Z</time>
      </trkpt>
      <trkpt lat="42.515621" lon="-0.464705">
        <ele>956.8</ele>
        <time>2018-06-14T11:35:15Z</time>
      </trkpt>
      <trkpt lat="42.516014" lon="-0.465068">
        <ele>968.8</ele>
        <time>2018-06-14T11:35:28Z</time>
      </trkpt>
      <trkpt lat="42.516136" lon="-0.465181">
        <ele>973.8</ele>
        <time>2018-06-14T11:35:32Z</time>
      </trkpt>
      <trkpt lat="42.516233" lon="-0.465278">
        <ele>975.5</ele>
        <time>2018-06-14T11:35:35Z</time>
      </trkpt>
      <trkpt lat="42.516346" lon="-0.465459">
        <ele>977.8</ele>
        <time>2018-06-14T11:35:40Z</time>
      </trkpt>
      <trkpt lat="42.516380" lon="-0.465574">
        <ele>980.2</ele>
        <time>2018-06-14T11:35:43Z</time>
      </trkpt>
      <trkpt lat="42.516372" lon="-0.465726">
        <ele>980.8</ele>
        <time>2018-06-14T11:35:46Z</time>
      </trkpt>
      <trkpt lat="42.516170" lon="-0.465900">
        <ele>976.5</ele>
        <time>2018-06-14T11:35:52Z</time>
      </trkpt>
      <trkpt lat="42.515964" lon="-0.466060">
        <ele>974.4</ele>
        <time>2018-06-14T11:35:58Z</time>
      </trkpt>
      <trkpt lat="42.515774" lon="-0.466308">
        <ele>972.3</ele>
        <time>2018-06-14T11:36:05Z</time>
      </trkpt>
      <trkpt lat="42.515747" lon="-0.466510">
        <ele>971.5</ele>
        <time>2018-06-14T11:36:09Z</time>
      </trkpt>
      <trkpt lat="42.515797" lon="-0.466800">
        <ele>971.6</ele>
        <time>2018-06-14T11:36:15Z</time>
      </trkpt>
      <trkpt lat="42.516041" lon="-0.468176">
        <ele>969.6</ele>
        <time>2018-06-14T11:36:43Z</time>
      </trkpt>
      <trkpt lat="42.516159" lon="-0.468792">
        <ele>966.4</ele>
        <time>2018-06-14T11:36:55Z</time>
      </trkpt>
      <trkpt lat="42.516262" lon="-0.469609">
        <ele>970.6</ele>
        <time>2018-06-14T11:37:11Z</time>
      </trkpt>
      <trkpt lat="42.516323" lon="-0.470209">
        <ele>973.4</ele>
        <time>2018-06-14T11:37:23Z</time>
      </trkpt>
      <trkpt lat="42.516373" lon="-0.470514">
        <ele>976.1</ele>
        <time>2018-06-14T11:37:29Z</time>
      </trkpt>
      <trkpt lat="42.516540" lon="-0.470928">
        <ele>979.5</ele>
        <time>2018-06-14T11:37:39Z</time>
      </trkpt>
      <trkpt lat="42.516705" lon="-0.471193">
        <ele>981.4</ele>
        <time>2018-06-14T11:37:46Z</time>
      </trkpt>
      <trkpt lat="42.516872" lon="-0.471471">
        <ele>984.8</ele>
        <time>2018-06-14T11:37:53Z</time>
      </trkpt>
      <trkpt lat="42.517128" lon="-0.471609">
        <ele>988.5</ele>
        <time>2018-06-14T11:38:00Z</time>
      </trkpt>
      <trkpt lat="42.517303" lon="-0.471671">
        <ele>988.7</ele>
        <time>2018-06-14T11:38:05Z</time>
      </trkpt>
      <trkpt lat="42.517681" lon="-0.471767">
        <ele>990.4</ele>
        <time>2018-06-14T11:38:15Z</time>
      </trkpt>
      <trkpt lat="42.517780" lon="-0.471796">
        <ele>991.0</ele>
        <time>2018-06-14T11:38:18Z</time>
      </trkpt>
      <trkpt lat="42.518059" lon="-0.471907">
        <ele>994.4</ele>
        <time>2018-06-14T11:38:25Z</time>
      </trkpt>
      <trkpt lat="42.518215" lon="-0.471981">
        <ele>996.0</ele>
        <time>2018-06-14T11:38:30Z</time>
      </trkpt>
      <trkpt lat="42.518440" lon="-0.472104">
        <ele>1003.3</ele>
        <time>2018-06-14T11:38:36Z</time>
      </trkpt>
      <trkpt lat="42.518509" lon="-0.472180">
        <ele>1004.8</ele>
        <time>2018-06-14T11:38:39Z</time>
      </trkpt>
      <trkpt lat="42.518551" lon="-0.472289">
        <ele>1004.6</ele>
        <time>2018-06-14T11:38:41Z</time>
      </trkpt>
      <trkpt lat="42.518555" lon="-0.472416">
        <ele>1003.8</ele>
        <time>2018-06-14T11:38:44Z</time>
      </trkpt>
      <trkpt lat="42.518532" lon="-0.472554">
        <ele>1003.3</ele>
        <time>2018-06-14T11:38:47Z</time>
      </trkpt>
      <trkpt lat="42.518467" lon="-0.472716">
        <ele>1002.4</ele>
        <time>2018-06-14T11:38:50Z</time>
      </trkpt>
      <trkpt lat="42.518360" lon="-0.472958">
        <ele>1001.7</ele>
        <time>2018-06-14T11:38:56Z</time>
      </trkpt>
      <trkpt lat="42.518326" lon="-0.473049">
        <ele>1000.4</ele>
        <time>2018-06-14T11:38:58Z</time>
      </trkpt>
      <trkpt lat="42.518246" lon="-0.473290">
        <ele>996.8</ele>
        <time>2018-06-14T11:39:03Z</time>
      </trkpt>
      <trkpt lat="42.518227" lon="-0.473443">
        <ele>996.6</ele>
        <time>2018-06-14T11:39:06Z</time>
      </trkpt>
      <trkpt lat="42.518246" lon="-0.473584">
        <ele>1000.2</ele>
        <time>2018-06-14T11:39:09Z</time>
      </trkpt>
      <trkpt lat="42.518295" lon="-0.473701">
        <ele>1003.2</ele>
        <time>2018-06-14T11:39:12Z</time>
      </trkpt>
      <trkpt lat="42.518383" lon="-0.473813">
        <ele>1003.3</ele>
        <time>2018-06-14T11:39:15Z</time>
      </trkpt>
      <trkpt lat="42.518536" lon="-0.473946">
        <ele>1001.1</ele>
        <time>2018-06-14T11:39:20Z</time>
      </trkpt>
      <trkpt lat="42.518616" lon="-0.474038">
        <ele>999.4</ele>
        <time>2018-06-14T11:39:22Z</time>
      </trkpt>
      <trkpt lat="42.518711" lon="-0.474197">
        <ele>998.8</ele>
        <time>2018-06-14T11:39:26Z</time>
      </trkpt>
      <trkpt lat="42.518826" lon="-0.474336">
        <ele>999.8</ele>
        <time>2018-06-14T11:39:31Z</time>
      </trkpt>
      <trkpt lat="42.519070" lon="-0.474532">
        <ele>1001.6</ele>
        <time>2018-06-14T11:39:38Z</time>
      </trkpt>
      <trkpt lat="42.519215" lon="-0.474643">
        <ele>1005.2</ele>
        <time>2018-06-14T11:39:43Z</time>
      </trkpt>
      <trkpt lat="42.519291" lon="-0.474703">
        <ele>1006.8</ele>
        <time>2018-06-14T11:39:45Z</time>
      </trkpt>
      <trkpt lat="42.519470" lon="-0.474893">
        <ele>1011.8</ele>
        <time>2018-06-14T11:39:51Z</time>
      </trkpt>
      <trkpt lat="42.519629" lon="-0.475057">
        <ele>1015.4</ele>
        <time>2018-06-14T11:39:56Z</time>
      </trkpt>
      <trkpt lat="42.519778" lon="-0.475481">
        <ele>1019.7</ele>
        <time>2018-06-14T11:40:06Z</time>
      </trkpt>
      <trkpt lat="42.519831" lon="-0.475885">
        <ele>1022.8</ele>
        <time>2018-06-14T11:40:14Z</time>
      </trkpt>
      <trkpt lat="42.519707" lon="-0.477065">
        <ele>1027.0</ele>
        <time>2018-06-14T11:40:37Z</time>
      </trkpt>
      <trkpt lat="42.519473" lon="-0.477783">
        <ele>1030.1</ele>
        <time>2018-06-14T11:40:52Z</time>
      </trkpt>
      <trkpt lat="42.519396" lon="-0.478347">
        <ele>1040.4</ele>
        <time>2018-06-14T11:41:04Z</time>
      </trkpt>
      <trkpt lat="42.519408" lon="-0.478844">
        <ele>1040.5</ele>
        <time>2018-06-14T11:41:14Z</time>
      </trkpt>
      <trkpt lat="42.519579" lon="-0.479361">
        <ele>1043.3</ele>
        <time>2018-06-14T11:41:25Z</time>
      </trkpt>
      <trkpt lat="42.519817" lon="-0.479987">
        <ele>1050.3</ele>
        <time>2018-06-14T11:41:39Z</time>
      </trkpt>
      <trkpt lat="42.519917" lon="-0.480213">
        <ele>1052.5</ele>
        <time>2018-06-14T11:41:44Z</time>
      </trkpt>
      <trkpt lat="42.520107" lon="-0.480553">
        <ele>1053.7</ele>
        <time>2018-06-14T11:41:52Z</time>
      </trkpt>
      <trkpt lat="42.520519" lon="-0.481027">
        <ele>1053.7</ele>
        <time>2018-06-14T11:42:06Z</time>
      </trkpt>
      <trkpt lat="42.521065" lon="-0.481595">
        <ele>1053.8</ele>
        <time>2018-06-14T11:42:25Z</time>
      </trkpt>
      <trkpt lat="42.521139" lon="-0.481715">
        <ele>1053.6</ele>
        <time>2018-06-14T11:42:28Z</time>
      </trkpt>
      <trkpt lat="42.521181" lon="-0.481813">
        <ele>1052.0</ele>
        <time>2018-06-14T11:42:30Z</time>
      </trkpt>
      <trkpt lat="42.521204" lon="-0.481938">
        <ele>1051.9</ele>
        <time>2018-06-14T11:42:33Z</time>
      </trkpt>
      <trkpt lat="42.521204" lon="-0.482113">
        <ele>1052.2</ele>
        <time>2018-06-14T11:42:36Z</time>
      </trkpt>
      <trkpt lat="42.521181" lon="-0.482336">
        <ele>1054.7</ele>
        <time>2018-06-14T11:42:40Z</time>
      </trkpt>
      <trkpt lat="42.521112" lon="-0.482502">
        <ele>1059.1</ele>
        <time>2018-06-14T11:42:44Z</time>
      </trkpt>
      <trkpt lat="42.520996" lon="-0.482668">
        <ele>1064.7</ele>
        <time>2018-06-14T11:42:49Z</time>
      </trkpt>
      <trkpt lat="42.520809" lon="-0.482936">
        <ele>1075.0</ele>
        <time>2018-06-14T11:42:57Z</time>
      </trkpt>
      <trkpt lat="42.520735" lon="-0.483164">
        <ele>1078.9</ele>
        <time>2018-06-14T11:43:02Z</time>
      </trkpt>
      <trkpt lat="42.520743" lon="-0.483345">
        <ele>1079.9</ele>
        <time>2018-06-14T11:43:05Z</time>
      </trkpt>
      <trkpt lat="42.520824" lon="-0.483610">
        <ele>1078.7</ele>
        <time>2018-06-14T11:43:11Z</time>
      </trkpt>
      <trkpt lat="42.520885" lon="-0.483702">
        <ele>1077.3</ele>
        <time>2018-06-14T11:43:13Z</time>
      </trkpt>
      <trkpt lat="42.521101" lon="-0.483867">
        <ele>1075.2</ele>
        <time>2018-06-14T11:43:20Z</time>
      </trkpt>
      <trkpt lat="42.521261" lon="-0.484012">
        <ele>1074.7</ele>
        <time>2018-06-14T11:43:25Z</time>
      </trkpt>
      <trkpt lat="42.521366" lon="-0.484250">
        <ele>1077.8</ele>
        <time>2018-06-14T11:43:30Z</time>
      </trkpt>
      <trkpt lat="42.521412" lon="-0.484515">
        <ele>1082.3</ele>
        <time>2018-06-14T11:43:36Z</time>
      </trkpt>
      <trkpt lat="42.521671" lon="-0.485137">
        <ele>1088.4</ele>
        <time>2018-06-14T11:43:50Z</time>
      </trkpt>
      <trkpt lat="42.521755" lon="-0.485277">
        <ele>1090.4</ele>
        <time>2018-06-14T11:43:53Z</time>
      </trkpt>
      <trkpt lat="42.521824" lon="-0.485363">
        <ele>1091.4</ele>
        <time>2018-06-14T11:43:56Z</time>
      </trkpt>
      <trkpt lat="42.521893" lon="-0.485410">
        <ele>1091.8</ele>
        <time>2018-06-14T11:43:58Z</time>
      </trkpt>
      <trkpt lat="42.521976" lon="-0.485442">
        <ele>1091.8</ele>
        <time>2018-06-14T11:44:00Z</time>
      </trkpt>
      <trkpt lat="42.522171" lon="-0.485448">
        <ele>1090.2</ele>
        <time>2018-06-14T11:44:05Z</time>
      </trkpt>
      <trkpt lat="42.522346" lon="-0.485480">
        <ele>1089.7</ele>
        <time>2018-06-14T11:44:10Z</time>
      </trkpt>
      <trkpt lat="42.522531" lon="-0.485716">
        <ele>1096.2</ele>
        <time>2018-06-14T11:44:17Z</time>
      </trkpt>
      <trkpt lat="42.522556" lon="-0.485837">
        <ele>1099.3</ele>
        <time>2018-06-14T11:44:20Z</time>
      </trkpt>
      <trkpt lat="42.522515" lon="-0.485991">
        <ele>1102.8</ele>
        <time>2018-06-14T11:44:23Z</time>
      </trkpt>
      <trkpt lat="42.522449" lon="-0.486085">
        <ele>1104.5</ele>
        <time>2018-06-14T11:44:25Z</time>
      </trkpt>
      <trkpt lat="42.522336" lon="-0.486059">
        <ele>1104.0</ele>
        <time>2018-06-14T11:44:28Z</time>
      </trkpt>
      <trkpt lat="42.522105" lon="-0.485764">
        <ele>1098.8</ele>
        <time>2018-06-14T11:44:37Z</time>
      </trkpt>
      <trkpt lat="42.522014" lon="-0.485737">
        <ele>1098.5</ele>
        <time>2018-06-14T11:44:39Z</time>
      </trkpt>
      <trkpt lat="42.521970" lon="-0.485800">
        <ele>1099.1</ele>
        <time>2018-06-14T11:44:41Z</time>
      </trkpt>
      <trkpt lat="42.521972" lon="-0.485861">
        <ele>1099.7</ele>
        <time>2018-06-14T11:44:42Z</time>
      </trkpt>
      <trkpt lat="42.521996" lon="-0.485951">
        <ele>1100.8</ele>
        <time>2018-06-14T11:44:44Z</time>
      </trkpt>
      <trkpt lat="42.522088" lon="-0.486039">
        <ele>1102.3</ele>
        <time>2018-06-14T11:44:47Z</time>
      </trkpt>
      <trkpt lat="42.522137" lon="-0.486219">
        <ele>1103.9</ele>
        <time>2018-06-14T11:44:51Z</time>
      </trkpt>
      <trkpt lat="42.522162" lon="-0.486340">
        <ele>1107.4</ele>
        <time>2018-06-14T11:44:54Z</time>
      </trkpt>
      <trkpt lat="42.522170" lon="-0.486705">
        <ele>1116.2</ele>
        <time>2018-06-14T11:45:01Z</time>
      </trkpt>
      <trkpt lat="42.522107" lon="-0.486890">
        <ele>1118.5</ele>
        <time>2018-06-14T11:45:05Z</time>
      </trkpt>
      <trkpt lat="42.522109" lon="-0.486981">
        <ele>1118.3</ele>
        <time>2018-06-14T11:45:07Z</time>
      </trkpt>
      <trkpt lat="42.522180" lon="-0.487161">
        <ele>1117.6</ele>
        <time>2018-06-14T11:45:11Z</time>
      </trkpt>
      <trkpt lat="42.522234" lon="-0.487554">
        <ele>1115.3</ele>
        <time>2018-06-14T11:45:19Z</time>
      </trkpt>
      <trkpt lat="42.522213" lon="-0.487616">
        <ele>1114.7</ele>
        <time>2018-06-14T11:45:20Z</time>
      </trkpt>
      <trkpt lat="42.522169" lon="-0.487679">
        <ele>1114.1</ele>
        <time>2018-06-14T11:45:22Z</time>
      </trkpt>
      <trkpt lat="42.521988" lon="-0.487656">
        <ele>1114.6</ele>
        <time>2018-06-14T11:45:27Z</time>
      </trkpt>
      <trkpt lat="42.521601" lon="-0.487428">
        <ele>1118.3</ele>
        <time>2018-06-14T11:45:38Z</time>
      </trkpt>
      <trkpt lat="42.521370" lon="-0.487163">
        <ele>1118.7</ele>
        <time>2018-06-14T11:45:46Z</time>
      </trkpt>
      <trkpt lat="42.521279" lon="-0.487136">
        <ele>1119.7</ele>
        <time>2018-06-14T11:45:48Z</time>
      </trkpt>
      <trkpt lat="42.521212" lon="-0.487169">
        <ele>1121.1</ele>
        <time>2018-06-14T11:45:50Z</time>
      </trkpt>
      <trkpt lat="42.521192" lon="-0.487292">
        <ele>1123.7</ele>
        <time>2018-06-14T11:45:53Z</time>
      </trkpt>
      <trkpt lat="42.521500" lon="-0.487980">
        <ele>1116.8</ele>
        <time>2018-06-14T11:46:09Z</time>
      </trkpt>
      <trkpt lat="42.521506" lon="-0.488253">
        <ele>1124.1</ele>
        <time>2018-06-14T11:46:14Z</time>
      </trkpt>
      <trkpt lat="42.521418" lon="-0.488348">
        <ele>1126.6</ele>
        <time>2018-06-14T11:46:17Z</time>
      </trkpt>
      <trkpt lat="42.521260" lon="-0.488324">
        <ele>1128.2</ele>
        <time>2018-06-14T11:46:21Z</time>
      </trkpt>
      <trkpt lat="42.520939" lon="-0.488063">
        <ele>1125.7</ele>
        <time>2018-06-14T11:46:31Z</time>
      </trkpt>
      <trkpt lat="42.520802" lon="-0.487977">
        <ele>1129.0</ele>
        <time>2018-06-14T11:46:35Z</time>
      </trkpt>
      <trkpt lat="42.520690" lon="-0.487982">
        <ele>1131.4</ele>
        <time>2018-06-14T11:46:38Z</time>
      </trkpt>
      <trkpt lat="42.520669" lon="-0.488043">
        <ele>1130.8</ele>
        <time>2018-06-14T11:46:40Z</time>
      </trkpt>
      <trkpt lat="42.520809" lon="-0.488281">
        <ele>1129.0</ele>
        <time>2018-06-14T11:46:46Z</time>
      </trkpt>
      <trkpt lat="42.520857" lon="-0.488401">
        <ele>1129.7</ele>
        <time>2018-06-14T11:46:48Z</time>
      </trkpt>
      <trkpt lat="42.520902" lon="-0.489434">
        <ele>1134.9</ele>
        <time>2018-06-14T11:47:09Z</time>
      </trkpt>
      <trkpt lat="42.520943" lon="-0.490581">
        <ele>1139.5</ele>
        <time>2018-06-14T11:47:31Z</time>
      </trkpt>
      <trkpt lat="42.520985" lon="-0.491215">
        <ele>1141.5</ele>
        <time>2018-06-14T11:47:44Z</time>
      </trkpt>
      <trkpt lat="42.520870" lon="-0.491817">
        <ele>1153.5</ele>
        <time>2018-06-14T11:47:56Z</time>
      </trkpt>
      <trkpt lat="42.520941" lon="-0.492232">
        <ele>1152.3</ele>
        <time>2018-06-14T11:48:04Z</time>
      </trkpt>
      <trkpt lat="42.521402" lon="-0.493294">
        <ele>1143.2</ele>
        <time>2018-06-14T11:48:29Z</time>
      </trkpt>
      <trkpt lat="42.521597" lon="-0.493630">
        <ele>1134.4</ele>
        <time>2018-06-14T11:48:37Z</time>
      </trkpt>
      <trkpt lat="42.521890" lon="-0.493904">
        <ele>1135.6</ele>
        <time>2018-06-14T11:48:47Z</time>
      </trkpt>
      <trkpt lat="42.522039" lon="-0.493961">
        <ele>1134.6</ele>
        <time>2018-06-14T11:48:51Z</time>
      </trkpt>
      <trkpt lat="42.522222" lon="-0.493883">
        <ele>1133.4</ele>
        <time>2018-06-14T11:48:56Z</time>
      </trkpt>
      <trkpt lat="42.522374" lon="-0.493749">
        <ele>1131.0</ele>
        <time>2018-06-14T11:49:01Z</time>
      </trkpt>
      <trkpt lat="42.522526" lon="-0.493633">
        <ele>1128.7</ele>
        <time>2018-06-14T11:49:05Z</time>
      </trkpt>
      <trkpt lat="42.522942" lon="-0.493654">
        <ele>1135.3</ele>
        <time>2018-06-14T11:49:17Z</time>
      </trkpt>
      <trkpt lat="42.523019" lon="-0.493754">
        <ele>1136.0</ele>
        <time>2018-06-14T11:49:19Z</time>
      </trkpt>
      <trkpt lat="42.523141" lon="-0.494013">
        <ele>1141.2</ele>
        <time>2018-06-14T11:49:26Z</time>
      </trkpt>
      <trkpt lat="42.523553" lon="-0.494887">
        <ele>1140.4</ele>
        <time>2018-06-14T11:49:46Z</time>
      </trkpt>
      <trkpt lat="42.523983" lon="-0.495622">
        <ele>1118.6</ele>
        <time>2018-06-14T11:50:05Z</time>
      </trkpt>
      <trkpt lat="42.524441" lon="-0.496175">
        <ele>1134.9</ele>
        <time>2018-06-14T11:50:22Z</time>
      </trkpt>
      <trkpt lat="42.524853" lon="-0.496666">
        <ele>1133.0</ele>
        <time>2018-06-14T11:50:36Z</time>
      </trkpt>
      <trkpt lat="42.524906" lon="-0.496757">
        <ele>1132.7</ele>
        <time>2018-06-14T11:50:38Z</time>
      </trkpt>
      <trkpt lat="42.524983" lon="-0.496910">
        <ele>1130.8</ele>
        <time>2018-06-14T11:50:42Z</time>
      </trkpt>
      <trkpt lat="42.525009" lon="-0.497061">
        <ele>1129.4</ele>
        <time>2018-06-14T11:50:45Z</time>
      </trkpt>
      <trkpt lat="42.524971" lon="-0.497205">
        <ele>1128.6</ele>
        <time>2018-06-14T11:50:48Z</time>
      </trkpt>
      <trkpt lat="42.525036" lon="-0.497207">
        <ele>1127.2</ele>
        <time>2018-06-14T11:50:50Z</time>
      </trkpt>
      <trkpt lat="42.525118" lon="-0.497130">
        <ele>1126.1</ele>
        <time>2018-06-14T11:50:53Z</time>
      </trkpt>
      <trkpt lat="42.525205" lon="-0.497072">
        <ele>1126.3</ele>
        <time>2018-06-14T11:50:55Z</time>
      </trkpt>
      <trkpt lat="42.525314" lon="-0.497047">
        <ele>1126.6</ele>
        <time>2018-06-14T11:50:58Z</time>
      </trkpt>
      <trkpt lat="42.525421" lon="-0.497049">
        <ele>1126.8</ele>
        <time>2018-06-14T11:51:01Z</time>
      </trkpt>
      <trkpt lat="42.525508" lon="-0.496991">
        <ele>1127.0</ele>
        <time>2018-06-14T11:51:03Z</time>
      </trkpt>
      <trkpt lat="42.525599" lon="-0.497018">
        <ele>1127.8</ele>
        <time>2018-06-14T11:51:06Z</time>
      </trkpt>
      <trkpt lat="42.525672" lon="-0.497100">
        <ele>1128.7</ele>
        <time>2018-06-14T11:51:08Z</time>
      </trkpt>
      <trkpt lat="42.525731" lon="-0.497198">
        <ele>1128.9</ele>
        <time>2018-06-14T11:51:11Z</time>
      </trkpt>
      <trkpt lat="42.525772" lon="-0.497307">
        <ele>1128.7</ele>
        <time>2018-06-14T11:51:13Z</time>
      </trkpt>
      <trkpt lat="42.525816" lon="-0.497423">
        <ele>1127.9</ele>
        <time>2018-06-14T11:51:16Z</time>
      </trkpt>
      <trkpt lat="42.525916" lon="-0.497508">
        <ele>1128.2</ele>
        <time>2018-06-14T11:51:19Z</time>
      </trkpt>
      <trkpt lat="42.526005" lon="-0.497561">
        <ele>1129.6</ele>
        <time>2018-06-14T11:51:22Z</time>
      </trkpt>
      <trkpt lat="42.526093" lon="-0.497612">
        <ele>1133.1</ele>
        <time>2018-06-14T11:51:24Z</time>
      </trkpt>
      <trkpt lat="42.526180" lon="-0.497661">
        <ele>1136.9</ele>
        <time>2018-06-14T11:51:27Z</time>
      </trkpt>
      <trkpt lat="42.526295" lon="-0.497674">
        <ele>1140.9</ele>
        <time>2018-06-14T11:51:30Z</time>
      </trkpt>
      <trkpt lat="42.526409" lon="-0.497706">
        <ele>1141.6</ele>
        <time>2018-06-14T11:51:33Z</time>
      </trkpt>
      <trkpt lat="42.526518" lon="-0.497702">
        <ele>1142.7</ele>
        <time>2018-06-14T11:51:36Z</time>
      </trkpt>
      <trkpt lat="42.526651" lon="-0.497742">
        <ele>1146.2</ele>
        <time>2018-06-14T11:51:40Z</time>
      </trkpt>
      <trkpt lat="42.526760" lon="-0.497759">
        <ele>1149.3</ele>
        <time>2018-06-14T11:51:43Z</time>
      </trkpt>
      <trkpt lat="42.526855" lon="-0.497812">
        <ele>1151.7</ele>
        <time>2018-06-14T11:51:46Z</time>
      </trkpt>
      <trkpt lat="42.526937" lon="-0.497878">
        <ele>1153.5</ele>
        <time>2018-06-14T11:51:48Z</time>
      </trkpt>
      <trkpt lat="42.527020" lon="-0.497985">
        <ele>1155.0</ele>
        <time>2018-06-14T11:51:51Z</time>
      </trkpt>
      <trkpt lat="42.527116" lon="-0.498082">
        <ele>1157.2</ele>
        <time>2018-06-14T11:51:54Z</time>
      </trkpt>
      <trkpt lat="42.527222" lon="-0.498151">
        <ele>1159.7</ele>
        <time>2018-06-14T11:51:58Z</time>
      </trkpt>
      <trkpt lat="42.527322" lon="-0.498239">
        <ele>1161.7</ele>
        <time>2018-06-14T11:52:01Z</time>
      </trkpt>
      <trkpt lat="42.527432" lon="-0.498317">
        <ele>1162.4</ele>
        <time>2018-06-14T11:52:04Z</time>
      </trkpt>
      <trkpt lat="42.527524" lon="-0.498408">
        <ele>1162.0</ele>
        <time>2018-06-14T11:52:07Z</time>
      </trkpt>
      <trkpt lat="42.527607" lon="-0.498516">
        <ele>1161.0</ele>
        <time>2018-06-14T11:52:10Z</time>
      </trkpt>
      <trkpt lat="42.527701" lon="-0.498612">
        <ele>1159.8</ele>
        <time>2018-06-14T11:52:13Z</time>
      </trkpt>
      <trkpt lat="42.527763" lon="-0.498708">
        <ele>1158.9</ele>
        <time>2018-06-14T11:52:16Z</time>
      </trkpt>
      <trkpt lat="42.527853" lon="-0.498794">
        <ele>1159.0</ele>
        <time>2018-06-14T11:52:19Z</time>
      </trkpt>
      <trkpt lat="42.527926" lon="-0.498879">
        <ele>1159.0</ele>
        <time>2018-06-14T11:52:21Z</time>
      </trkpt>
      <trkpt lat="42.527991" lon="-0.498966">
        <ele>1159.9</ele>
        <time>2018-06-14T11:52:24Z</time>
      </trkpt>
      <trkpt lat="42.528043" lon="-0.499063">
        <ele>1160.5</ele>
        <time>2018-06-14T11:52:26Z</time>
      </trkpt>
      <trkpt lat="42.528110" lon="-0.499158">
        <ele>1162.1</ele>
        <time>2018-06-14T11:52:29Z</time>
      </trkpt>
      <trkpt lat="42.528190" lon="-0.499258">
        <ele>1165.1</ele>
        <time>2018-06-14T11:52:32Z</time>
      </trkpt>
      <trkpt lat="42.528264" lon="-0.499342">
        <ele>1168.0</ele>
        <time>2018-06-14T11:52:34Z</time>
      </trkpt>
      <trkpt lat="42.528353" lon="-0.499430">
        <ele>1171.5</ele>
        <time>2018-06-14T11:52:37Z</time>
      </trkpt>
      <trkpt lat="42.528395" lon="-0.499476">
        <ele>1173.2</ele>
        <time>2018-06-14T11:52:39Z</time>
      </trkpt>
      <trkpt lat="42.528436" lon="-0.499651">
        <ele>1173.7</ele>
        <time>2018-06-14T11:52:42Z</time>
      </trkpt>
      <trkpt lat="42.528478" lon="-0.499775">
        <ele>1174.8</ele>
        <time>2018-06-14T11:52:45Z</time>
      </trkpt>
      <trkpt lat="42.528489" lon="-0.499916">
        <ele>1173.5</ele>
        <time>2018-06-14T11:52:48Z</time>
      </trkpt>
      <trkpt lat="42.528514" lon="-0.500030">
        <ele>1172.3</ele>
        <time>2018-06-14T11:52:50Z</time>
      </trkpt>
      <trkpt lat="42.528520" lon="-0.500192">
        <ele>1169.8</ele>
        <time>2018-06-14T11:52:53Z</time>
      </trkpt>
      <trkpt lat="42.528532" lon="-0.500349">
        <ele>1168.2</ele>
        <time>2018-06-14T11:52:57Z</time>
      </trkpt>
      <trkpt lat="42.528543" lon="-0.500489">
        <ele>1166.6</ele>
        <time>2018-06-14T11:52:59Z</time>
      </trkpt>
      <trkpt lat="42.528558" lon="-0.500612">
        <ele>1165.3</ele>
        <time>2018-06-14T11:53:02Z</time>
      </trkpt>
      <trkpt lat="42.528575" lon="-0.500755">
        <ele>1163.2</ele>
        <time>2018-06-14T11:53:05Z</time>
      </trkpt>
      <trkpt lat="42.528581" lon="-0.500878">
        <ele>1160.2</ele>
        <time>2018-06-14T11:53:07Z</time>
      </trkpt>
      <trkpt lat="42.528594" lon="-0.500992">
        <ele>1158.0</ele>
        <time>2018-06-14T11:53:10Z</time>
      </trkpt>
      <trkpt lat="42.528592" lon="-0.501113">
        <ele>1155.5</ele>
        <time>2018-06-14T11:53:12Z</time>
      </trkpt>
      <trkpt lat="42.528615" lon="-0.501252">
        <ele>1154.2</ele>
        <time>2018-06-14T11:53:15Z</time>
      </trkpt>
      <trkpt lat="42.528637" lon="-0.501392">
        <ele>1152.7</ele>
        <time>2018-06-14T11:53:18Z</time>
      </trkpt>
      <trkpt lat="42.528655" lon="-0.501550">
        <ele>1150.5</ele>
        <time>2018-06-14T11:53:21Z</time>
      </trkpt>
      <trkpt lat="42.528673" lon="-0.501677">
        <ele>1147.9</ele>
        <time>2018-06-14T11:53:23Z</time>
      </trkpt>
      <trkpt lat="42.528700" lon="-0.501828">
        <ele>1144.9</ele>
        <time>2018-06-14T11:53:26Z</time>
      </trkpt>
      <trkpt lat="42.528738" lon="-0.502003">
        <ele>1141.0</ele>
        <time>2018-06-14T11:53:30Z</time>
      </trkpt>
      <trkpt lat="42.528770" lon="-0.502150">
        <ele>1137.2</ele>
        <time>2018-06-14T11:53:33Z</time>
      </trkpt>
      <trkpt lat="42.528778" lon="-0.502297">
        <ele>1131.5</ele>
        <time>2018-06-14T11:53:36Z</time>
      </trkpt>
      <trkpt lat="42.528834" lon="-0.502428">
        <ele>1130.2</ele>
        <time>2018-06-14T11:53:39Z</time>
      </trkpt>
      <trkpt lat="42.528870" lon="-0.502566">
        <ele>1127.5</ele>
        <time>2018-06-14T11:53:42Z</time>
      </trkpt>
      <trkpt lat="42.528898" lon="-0.502697">
        <ele>1124.6</ele>
        <time>2018-06-14T11:53:45Z</time>
      </trkpt>
      <trkpt lat="42.528943" lon="-0.502835">
        <ele>1122.3</ele>
        <time>2018-06-14T11:53:48Z</time>
      </trkpt>
      <trkpt lat="42.528964" lon="-0.502975">
        <ele>1119.4</ele>
        <time>2018-06-14T11:53:51Z</time>
      </trkpt>
      <trkpt lat="42.529007" lon="-0.503112">
        <ele>1118.8</ele>
        <time>2018-06-14T11:53:54Z</time>
      </trkpt>
      <trkpt lat="42.529054" lon="-0.503234">
        <ele>1117.6</ele>
        <time>2018-06-14T11:53:57Z</time>
      </trkpt>
      <trkpt lat="42.529078" lon="-0.503352">
        <ele>1115.2</ele>
        <time>2018-06-14T11:53:59Z</time>
      </trkpt>
      <trkpt lat="42.529119" lon="-0.503477">
        <ele>1112.8</ele>
        <time>2018-06-14T11:54:02Z</time>
      </trkpt>
      <trkpt lat="42.529148" lon="-0.503594">
        <ele>1110.3</ele>
        <time>2018-06-14T11:54:04Z</time>
      </trkpt>
      <trkpt lat="42.529198" lon="-0.503715">
        <ele>1108.2</ele>
        <time>2018-06-14T11:54:07Z</time>
      </trkpt>
      <trkpt lat="42.529243" lon="-0.503835">
        <ele>1106.2</ele>
        <time>2018-06-14T11:54:10Z</time>
      </trkpt>
      <trkpt lat="42.529320" lon="-0.503924">
        <ele>1106.0</ele>
        <time>2018-06-14T11:54:12Z</time>
      </trkpt>
      <trkpt lat="42.529399" lon="-0.504018">
        <ele>1105.3</ele>
        <time>2018-06-14T11:54:15Z</time>
      </trkpt>
      <trkpt lat="42.529463" lon="-0.504155">
        <ele>1102.5</ele>
        <time>2018-06-14T11:54:18Z</time>
      </trkpt>
      <trkpt lat="42.529557" lon="-0.504222">
        <ele>1102.2</ele>
        <time>2018-06-14T11:54:21Z</time>
      </trkpt>
      <trkpt lat="42.529625" lon="-0.504356">
        <ele>1098.1</ele>
        <time>2018-06-14T11:54:25Z</time>
      </trkpt>
      <trkpt lat="42.529711" lon="-0.504472">
        <ele>1094.1</ele>
        <time>2018-06-14T11:54:28Z</time>
      </trkpt>
      <trkpt lat="42.529797" lon="-0.504541">
        <ele>1092.6</ele>
        <time>2018-06-14T11:54:31Z</time>
      </trkpt>
      <trkpt lat="42.529913" lon="-0.504601">
        <ele>1092.9</ele>
        <time>2018-06-14T11:54:34Z</time>
      </trkpt>
      <trkpt lat="42.530002" lon="-0.504664">
        <ele>1092.9</ele>
        <time>2018-06-14T11:54:37Z</time>
      </trkpt>
      <trkpt lat="42.530079" lon="-0.504743">
        <ele>1091.4</ele>
        <time>2018-06-14T11:54:39Z</time>
      </trkpt>
      <trkpt lat="42.530200" lon="-0.504789">
        <ele>1091.8</ele>
        <time>2018-06-14T11:54:42Z</time>
      </trkpt>
      <trkpt lat="42.530313" lon="-0.504860">
        <ele>1091.4</ele>
        <time>2018-06-14T11:54:46Z</time>
      </trkpt>
      <trkpt lat="42.530404" lon="-0.504907">
        <ele>1091.7</ele>
        <time>2018-06-14T11:54:48Z</time>
      </trkpt>
      <trkpt lat="42.530508" lon="-0.504921">
        <ele>1089.8</ele>
        <time>2018-06-14T11:54:51Z</time>
      </trkpt>
      <trkpt lat="42.530616" lon="-0.504848">
        <ele>1090.9</ele>
        <time>2018-06-14T11:54:54Z</time>
      </trkpt>
      <trkpt lat="42.530716" lon="-0.504717">
        <ele>1094.3</ele>
        <time>2018-06-14T11:54:58Z</time>
      </trkpt>
      <trkpt lat="42.530788" lon="-0.504613">
        <ele>1097.4</ele>
        <time>2018-06-14T11:55:01Z</time>
      </trkpt>
      <trkpt lat="42.530871" lon="-0.504518">
        <ele>1099.6</ele>
        <time>2018-06-14T11:55:04Z</time>
      </trkpt>
      <trkpt lat="42.530959" lon="-0.504485">
        <ele>1099.4</ele>
        <time>2018-06-14T11:55:06Z</time>
      </trkpt>
      <trkpt lat="42.531070" lon="-0.504587">
        <ele>1093.4</ele>
        <time>2018-06-14T11:55:10Z</time>
      </trkpt>
      <trkpt lat="42.531228" lon="-0.504648">
        <ele>1087.4</ele>
        <time>2018-06-14T11:55:15Z</time>
      </trkpt>
      <trkpt lat="42.531363" lon="-0.504664">
        <ele>1085.2</ele>
        <time>2018-06-14T11:55:18Z</time>
      </trkpt>
      <trkpt lat="42.531475" lon="-0.504673">
        <ele>1083.7</ele>
        <time>2018-06-14T11:55:21Z</time>
      </trkpt>
      <trkpt lat="42.531596" lon="-0.504621">
        <ele>1083.7</ele>
        <time>2018-06-14T11:55:25Z</time>
      </trkpt>
      <trkpt lat="42.531687" lon="-0.504539">
        <ele>1084.9</ele>
        <time>2018-06-14T11:55:28Z</time>
      </trkpt>
      <trkpt lat="42.531761" lon="-0.504441">
        <ele>1086.9</ele>
        <time>2018-06-14T11:55:31Z</time>
      </trkpt>
      <trkpt lat="42.531865" lon="-0.504322">
        <ele>1088.2</ele>
        <time>2018-06-14T11:55:34Z</time>
      </trkpt>
      <trkpt lat="42.531948" lon="-0.504241">
        <ele>1088.4</ele>
        <time>2018-06-14T11:55:37Z</time>
      </trkpt>
      <trkpt lat="42.532015" lon="-0.504102">
        <ele>1091.1</ele>
        <time>2018-06-14T11:55:40Z</time>
      </trkpt>
      <trkpt lat="42.532087" lon="-0.503975">
        <ele>1092.5</ele>
        <time>2018-06-14T11:55:43Z</time>
      </trkpt>
      <trkpt lat="42.532158" lon="-0.503838">
        <ele>1093.6</ele>
        <time>2018-06-14T11:55:47Z</time>
      </trkpt>
      <trkpt lat="42.532233" lon="-0.503751">
        <ele>1092.4</ele>
        <time>2018-06-14T11:55:49Z</time>
      </trkpt>
      <trkpt lat="42.532313" lon="-0.503646">
        <ele>1090.2</ele>
        <time>2018-06-14T11:55:52Z</time>
      </trkpt>
      <trkpt lat="42.532435" lon="-0.503647">
        <ele>1084.7</ele>
        <time>2018-06-14T11:55:56Z</time>
      </trkpt>
      <trkpt lat="42.532530" lon="-0.503597">
        <ele>1081.4</ele>
        <time>2018-06-14T11:55:59Z</time>
      </trkpt>
      <trkpt lat="42.532576" lon="-0.503440">
        <ele>1082.2</ele>
        <time>2018-06-14T11:56:02Z</time>
      </trkpt>
      <trkpt lat="42.532612" lon="-0.503279">
        <ele>1083.0</ele>
        <time>2018-06-14T11:56:05Z</time>
      </trkpt>
      <trkpt lat="42.532659" lon="-0.503141">
        <ele>1082.9</ele>
        <time>2018-06-14T11:56:08Z</time>
      </trkpt>
      <trkpt lat="42.532692" lon="-0.503017">
        <ele>1083.5</ele>
        <time>2018-06-14T11:56:11Z</time>
      </trkpt>
      <trkpt lat="42.532752" lon="-0.502888">
        <ele>1081.9</ele>
        <time>2018-06-14T11:56:14Z</time>
      </trkpt>
      <trkpt lat="42.532802" lon="-0.502774">
        <ele>1080.0</ele>
        <time>2018-06-14T11:56:16Z</time>
      </trkpt>
      <trkpt lat="42.532867" lon="-0.502676">
        <ele>1078.3</ele>
        <time>2018-06-14T11:56:19Z</time>
      </trkpt>
      <trkpt lat="42.532923" lon="-0.502568">
        <ele>1078.7</ele>
        <time>2018-06-14T11:56:22Z</time>
      </trkpt>
      <trkpt lat="42.532993" lon="-0.502452">
        <ele>1078.3</ele>
        <time>2018-06-14T11:56:24Z</time>
      </trkpt>
      <trkpt lat="42.533064" lon="-0.502334">
        <ele>1078.2</ele>
        <time>2018-06-14T11:56:27Z</time>
      </trkpt>
      <trkpt lat="42.533139" lon="-0.502254">
        <ele>1076.3</ele>
        <time>2018-06-14T11:56:30Z</time>
      </trkpt>
      <trkpt lat="42.533232" lon="-0.502146">
        <ele>1074.2</ele>
        <time>2018-06-14T11:56:33Z</time>
      </trkpt>
      <trkpt lat="42.533325" lon="-0.502022">
        <ele>1071.3</ele>
        <time>2018-06-14T11:56:37Z</time>
      </trkpt>
      <trkpt lat="42.533426" lon="-0.501947">
        <ele>1066.5</ele>
        <time>2018-06-14T11:56:40Z</time>
      </trkpt>
      <trkpt lat="42.533500" lon="-0.501862">
        <ele>1063.6</ele>
        <time>2018-06-14T11:56:43Z</time>
      </trkpt>
      <trkpt lat="42.533606" lon="-0.501792">
        <ele>1058.4</ele>
        <time>2018-06-14T11:56:46Z</time>
      </trkpt>
      <trkpt lat="42.533710" lon="-0.501686">
        <ele>1053.7</ele>
        <time>2018-06-14T11:56:50Z</time>
      </trkpt>
      <trkpt lat="42.533786" lon="-0.501592">
        <ele>1050.2</ele>
        <time>2018-06-14T11:56:53Z</time>
      </trkpt>
      <trkpt lat="42.533857" lon="-0.501673">
        <ele>1045.3</ele>
        <time>2018-06-14T11:56:55Z</time>
      </trkpt>
      <trkpt lat="42.533942" lon="-0.501769">
        <ele>1039.8</ele>
        <time>2018-06-14T11:56:58Z</time>
      </trkpt>
      <trkpt lat="42.533969" lon="-0.501907">
        <ele>1038.2</ele>
        <time>2018-06-14T11:57:01Z</time>
      </trkpt>
      <trkpt lat="42.533983" lon="-0.502041">
        <ele>1037.7</ele>
        <time>2018-06-14T11:57:04Z</time>
      </trkpt>
      <trkpt lat="42.534022" lon="-0.502165">
        <ele>1035.6</ele>
        <time>2018-06-14T11:57:07Z</time>
      </trkpt>
      <trkpt lat="42.534118" lon="-0.502098">
        <ele>1031.7</ele>
        <time>2018-06-14T11:57:10Z</time>
      </trkpt>
      <trkpt lat="42.534221" lon="-0.502082">
        <ele>1027.0</ele>
        <time>2018-06-14T11:57:13Z</time>
      </trkpt>
      <trkpt lat="42.534307" lon="-0.502183">
        <ele>1021.9</ele>
        <time>2018-06-14T11:57:16Z</time>
      </trkpt>
      <trkpt lat="42.534392" lon="-0.502146">
        <ele>1019.4</ele>
        <time>2018-06-14T11:57:18Z</time>
      </trkpt>
      <trkpt lat="42.534489" lon="-0.502065">
        <ele>1017.3</ele>
        <time>2018-06-14T11:57:21Z</time>
      </trkpt>
      <trkpt lat="42.534597" lon="-0.502022">
        <ele>1014.8</ele>
        <time>2018-06-14T11:57:24Z</time>
      </trkpt>
      <trkpt lat="42.534696" lon="-0.501964">
        <ele>1013.5</ele>
        <time>2018-06-14T11:57:27Z</time>
      </trkpt>
      <trkpt lat="42.534812" lon="-0.501963">
        <ele>1010.9</ele>
        <time>2018-06-14T11:57:30Z</time>
      </trkpt>
      <trkpt lat="42.534913" lon="-0.501917">
        <ele>1009.1</ele>
        <time>2018-06-14T11:57:33Z</time>
      </trkpt>
      <trkpt lat="42.535023" lon="-0.501853">
        <ele>1007.2</ele>
        <time>2018-06-14T11:57:36Z</time>
      </trkpt>
      <trkpt lat="42.535112" lon="-0.501809">
        <ele>1005.6</ele>
        <time>2018-06-14T11:57:39Z</time>
      </trkpt>
      <trkpt lat="42.535219" lon="-0.501787">
        <ele>1002.8</ele>
        <time>2018-06-14T11:57:42Z</time>
      </trkpt>
      <trkpt lat="42.535328" lon="-0.501828">
        <ele>999.0</ele>
        <time>2018-06-14T11:57:45Z</time>
      </trkpt>
      <trkpt lat="42.535443" lon="-0.501817">
        <ele>995.6</ele>
        <time>2018-06-14T11:57:48Z</time>
      </trkpt>
      <trkpt lat="42.535570" lon="-0.501817">
        <ele>990.6</ele>
        <time>2018-06-14T11:57:52Z</time>
      </trkpt>
      <trkpt lat="42.535696" lon="-0.501764">
        <ele>986.8</ele>
        <time>2018-06-14T11:57:55Z</time>
      </trkpt>
      <trkpt lat="42.535819" lon="-0.501740">
        <ele>982.7</ele>
        <time>2018-06-14T11:57:59Z</time>
      </trkpt>
      <trkpt lat="42.535922" lon="-0.501701">
        <ele>979.0</ele>
        <time>2018-06-14T11:58:02Z</time>
      </trkpt>
      <trkpt lat="42.536028" lon="-0.501677">
        <ele>975.0</ele>
        <time>2018-06-14T11:58:05Z</time>
      </trkpt>
      <trkpt lat="42.536145" lon="-0.501659">
        <ele>970.8</ele>
        <time>2018-06-14T11:58:08Z</time>
      </trkpt>
      <trkpt lat="42.536285" lon="-0.501699">
        <ele>966.1</ele>
        <time>2018-06-14T11:58:12Z</time>
      </trkpt>
      <trkpt lat="42.536369" lon="-0.501783">
        <ele>963.3</ele>
        <time>2018-06-14T11:58:15Z</time>
      </trkpt>
      <trkpt lat="42.536469" lon="-0.501794">
        <ele>959.4</ele>
        <time>2018-06-14T11:58:18Z</time>
      </trkpt>
      <trkpt lat="42.536579" lon="-0.501762">
        <ele>956.5</ele>
        <time>2018-06-14T11:58:21Z</time>
      </trkpt>
      <trkpt lat="42.536708" lon="-0.501734">
        <ele>954.4</ele>
        <time>2018-06-14T11:58:24Z</time>
      </trkpt>
      <trkpt lat="42.536853" lon="-0.501696">
        <ele>953.0</ele>
        <time>2018-06-14T11:58:28Z</time>
      </trkpt>
      <trkpt lat="42.537007" lon="-0.501656">
        <ele>952.4</ele>
        <time>2018-06-14T11:58:32Z</time>
      </trkpt>
      <trkpt lat="42.537359" lon="-0.501494">
        <ele>951.9</ele>
        <time>2018-06-14T11:58:42Z</time>
      </trkpt>
      <trkpt lat="42.537492" lon="-0.501451">
        <ele>952.2</ele>
        <time>2018-06-14T11:58:46Z</time>
      </trkpt>
      <trkpt lat="42.537632" lon="-0.501435">
        <ele>952.6</ele>
        <time>2018-06-14T11:58:50Z</time>
      </trkpt>
      <trkpt lat="42.537769" lon="-0.501403">
        <ele>951.3</ele>
        <time>2018-06-14T11:58:53Z</time>
      </trkpt>
      <trkpt lat="42.537900" lon="-0.501355">
        <ele>950.4</ele>
        <time>2018-06-14T11:58:57Z</time>
      </trkpt>
      <trkpt lat="42.538028" lon="-0.501315">
        <ele>951.4</ele>
        <time>2018-06-14T11:59:00Z</time>
      </trkpt>
      <trkpt lat="42.538147" lon="-0.501265">
        <ele>952.6</ele>
        <time>2018-06-14T11:59:04Z</time>
      </trkpt>
      <trkpt lat="42.538264" lon="-0.501191">
        <ele>952.3</ele>
        <time>2018-06-14T11:59:07Z</time>
      </trkpt>
      <trkpt lat="42.538389" lon="-0.501112">
        <ele>951.1</ele>
        <time>2018-06-14T11:59:11Z</time>
      </trkpt>
      <trkpt lat="42.538522" lon="-0.501043">
        <ele>949.3</ele>
        <time>2018-06-14T11:59:15Z</time>
      </trkpt>
      <trkpt lat="42.538661" lon="-0.500977">
        <ele>947.2</ele>
        <time>2018-06-14T11:59:19Z</time>
      </trkpt>
      <trkpt lat="42.538804" lon="-0.500898">
        <ele>948.0</ele>
        <time>2018-06-14T11:59:23Z</time>
      </trkpt>
      <trkpt lat="42.538942" lon="-0.500834">
        <ele>949.7</ele>
        <time>2018-06-14T11:59:27Z</time>
      </trkpt>
      <trkpt lat="42.539035" lon="-0.500816">
        <ele>950.0</ele>
        <time>2018-06-14T11:59:29Z</time>
      </trkpt>
      <trkpt lat="42.539111" lon="-0.500854">
        <ele>949.0</ele>
        <time>2018-06-14T11:59:31Z</time>
      </trkpt>
      <trkpt lat="42.539214" lon="-0.500901">
        <ele>947.8</ele>
        <time>2018-06-14T11:59:34Z</time>
      </trkpt>
      <trkpt lat="42.539304" lon="-0.500898">
        <ele>947.0</ele>
        <time>2018-06-14T11:59:37Z</time>
      </trkpt>
      <trkpt lat="42.539415" lon="-0.500879">
        <ele>944.6</ele>
        <time>2018-06-14T11:59:40Z</time>
      </trkpt>
      <trkpt lat="42.539529" lon="-0.500836">
        <ele>942.6</ele>
        <time>2018-06-14T11:59:43Z</time>
      </trkpt>
      <trkpt lat="42.539638" lon="-0.500788">
        <ele>941.1</ele>
        <time>2018-06-14T11:59:46Z</time>
      </trkpt>
      <trkpt lat="42.539733" lon="-0.500729">
        <ele>940.4</ele>
        <time>2018-06-14T11:59:49Z</time>
      </trkpt>
      <trkpt lat="42.539791" lon="-0.500592">
        <ele>941.6</ele>
        <time>2018-06-14T11:59:52Z</time>
      </trkpt>
      <trkpt lat="42.539871" lon="-0.500526">
        <ele>942.1</ele>
        <time>2018-06-14T11:59:54Z</time>
      </trkpt>
      <trkpt lat="42.539999" lon="-0.500543">
        <ele>943.2</ele>
        <time>2018-06-14T11:59:58Z</time>
      </trkpt>
      <trkpt lat="42.540101" lon="-0.500576">
        <ele>943.8</ele>
        <time>2018-06-14T12:00:00Z</time>
      </trkpt>
      <trkpt lat="42.540205" lon="-0.500616">
        <ele>943.2</ele>
        <time>2018-06-14T12:00:03Z</time>
      </trkpt>
      <trkpt lat="42.540317" lon="-0.500641">
        <ele>942.0</ele>
        <time>2018-06-14T12:00:06Z</time>
      </trkpt>
      <trkpt lat="42.540434" lon="-0.500643">
        <ele>941.2</ele>
        <time>2018-06-14T12:00:09Z</time>
      </trkpt>
      <trkpt lat="42.540554" lon="-0.500635">
        <ele>941.4</ele>
        <time>2018-06-14T12:00:13Z</time>
      </trkpt>
      <trkpt lat="42.540677" lon="-0.500615">
        <ele>941.4</ele>
        <time>2018-06-14T12:00:16Z</time>
      </trkpt>
      <trkpt lat="42.540807" lon="-0.500611">
        <ele>938.7</ele>
        <time>2018-06-14T12:00:19Z</time>
      </trkpt>
      <trkpt lat="42.540938" lon="-0.500608">
        <ele>935.5</ele>
        <time>2018-06-14T12:00:23Z</time>
      </trkpt>
      <trkpt lat="42.541075" lon="-0.500631">
        <ele>934.2</ele>
        <time>2018-06-14T12:00:27Z</time>
      </trkpt>
      <trkpt lat="42.541216" lon="-0.500661">
        <ele>933.3</ele>
        <time>2018-06-14T12:00:30Z</time>
      </trkpt>
      <trkpt lat="42.541369" lon="-0.500698">
        <ele>932.1</ele>
        <time>2018-06-14T12:00:34Z</time>
      </trkpt>
      <trkpt lat="42.541531" lon="-0.500703">
        <ele>930.8</ele>
        <time>2018-06-14T12:00:39Z</time>
      </trkpt>
      <trkpt lat="42.541681" lon="-0.500656">
        <ele>930.9</ele>
        <time>2018-06-14T12:00:43Z</time>
      </trkpt>
      <trkpt lat="42.541815" lon="-0.500606">
        <ele>930.9</ele>
        <time>2018-06-14T12:00:47Z</time>
      </trkpt>
      <trkpt lat="42.541940" lon="-0.500584">
        <ele>930.7</ele>
        <time>2018-06-14T12:00:50Z</time>
      </trkpt>
      <trkpt lat="42.542065" lon="-0.500579">
        <ele>930.3</ele>
        <time>2018-06-14T12:00:53Z</time>
      </trkpt>
      <trkpt lat="42.542188" lon="-0.500578">
        <ele>929.8</ele>
        <time>2018-06-14T12:00:56Z</time>
      </trkpt>
      <trkpt lat="42.542300" lon="-0.500567">
        <ele>929.5</ele>
        <time>2018-06-14T12:00:59Z</time>
      </trkpt>
      <trkpt lat="42.542391" lon="-0.500566">
        <ele>929.0</ele>
        <time>2018-06-14T12:01:02Z</time>
      </trkpt>
      <trkpt lat="42.542469" lon="-0.500573">
        <ele>928.2</ele>
        <time>2018-06-14T12:01:04Z</time>
      </trkpt>
      <trkpt lat="42.542450" lon="-0.500635">
        <ele>927.4</ele>
        <time>2018-06-14T12:01:05Z</time>
      </trkpt>
      <trkpt lat="42.542346" lon="-0.500649">
        <ele>927.9</ele>
        <time>2018-06-14T12:01:08Z</time>
      </trkpt>
      <trkpt lat="42.542254" lon="-0.500655">
        <ele>928.4</ele>
        <time>2018-06-14T12:01:11Z</time>
      </trkpt>
      <trkpt lat="42.542162" lon="-0.500668">
        <ele>928.8</ele>
        <time>2018-06-14T12:01:13Z</time>
      </trkpt>
      <trkpt lat="42.542062" lon="-0.500692">
        <ele>929.1</ele>
        <time>2018-06-14T12:01:16Z</time>
      </trkpt>
      <trkpt lat="42.541944" lon="-0.500719">
        <ele>928.9</ele>
        <time>2018-06-14T12:01:19Z</time>
      </trkpt>
      <trkpt lat="42.541836" lon="-0.500763">
        <ele>928.2</ele>
        <time>2018-06-14T12:01:22Z</time>
      </trkpt>
      <trkpt lat="42.541720" lon="-0.500836">
        <ele>926.9</ele>
        <time>2018-06-14T12:01:25Z</time>
      </trkpt>
      <trkpt lat="42.541640" lon="-0.500907">
        <ele>925.7</ele>
        <time>2018-06-14T12:01:28Z</time>
      </trkpt>
      <trkpt lat="42.541557" lon="-0.500991">
        <ele>924.9</ele>
        <time>2018-06-14T12:01:31Z</time>
      </trkpt>
      <trkpt lat="42.541479" lon="-0.501066">
        <ele>926.8</ele>
        <time>2018-06-14T12:01:33Z</time>
      </trkpt>
      <trkpt lat="42.541390" lon="-0.501113">
        <ele>929.0</ele>
        <time>2018-06-14T12:01:36Z</time>
      </trkpt>
      <trkpt lat="42.541277" lon="-0.501155">
        <ele>931.2</ele>
        <time>2018-06-14T12:01:39Z</time>
      </trkpt>
      <trkpt lat="42.541153" lon="-0.501185">
        <ele>932.9</ele>
        <time>2018-06-14T12:01:42Z</time>
      </trkpt>
      <trkpt lat="42.541040" lon="-0.501211">
        <ele>934.4</ele>
        <time>2018-06-14T12:01:45Z</time>
      </trkpt>
      <trkpt lat="42.540934" lon="-0.501240">
        <ele>935.5</ele>
        <time>2018-06-14T12:01:48Z</time>
      </trkpt>
      <trkpt lat="42.540836" lon="-0.501278">
        <ele>936.0</ele>
        <time>2018-06-14T12:01:51Z</time>
      </trkpt>
      <trkpt lat="42.540741" lon="-0.501341">
        <ele>935.9</ele>
        <time>2018-06-14T12:01:54Z</time>
      </trkpt>
      <trkpt lat="42.540648" lon="-0.501428">
        <ele>934.2</ele>
        <time>2018-06-14T12:01:57Z</time>
      </trkpt>
      <trkpt lat="42.540582" lon="-0.501541">
        <ele>931.1</ele>
        <time>2018-06-14T12:02:00Z</time>
      </trkpt>
      <trkpt lat="42.540546" lon="-0.501688">
        <ele>928.4</ele>
        <time>2018-06-14T12:02:03Z</time>
      </trkpt>
      <trkpt lat="42.540581" lon="-0.501850">
        <ele>925.3</ele>
        <time>2018-06-14T12:02:06Z</time>
      </trkpt>
      <trkpt lat="42.540651" lon="-0.502013">
        <ele>921.3</ele>
        <time>2018-06-14T12:02:10Z</time>
      </trkpt>
      <trkpt lat="42.540701" lon="-0.502161">
        <ele>919.3</ele>
        <time>2018-06-14T12:02:13Z</time>
      </trkpt>
      <trkpt lat="42.540733" lon="-0.502286">
        <ele>918.5</ele>
        <time>2018-06-14T12:02:16Z</time>
      </trkpt>
      <trkpt lat="42.540794" lon="-0.502388">
        <ele>918.4</ele>
        <time>2018-06-14T12:02:18Z</time>
      </trkpt>
      <trkpt lat="42.540886" lon="-0.502506">
        <ele>918.0</ele>
        <time>2018-06-14T12:02:22Z</time>
      </trkpt>
      <trkpt lat="42.540970" lon="-0.502528">
        <ele>919.0</ele>
        <time>2018-06-14T12:02:24Z</time>
      </trkpt>
      <trkpt lat="42.541070" lon="-0.502492">
        <ele>921.7</ele>
        <time>2018-06-14T12:02:27Z</time>
      </trkpt>
      <trkpt lat="42.541200" lon="-0.502471">
        <ele>924.9</ele>
        <time>2018-06-14T12:02:30Z</time>
      </trkpt>
      <trkpt lat="42.541307" lon="-0.502430">
        <ele>927.1</ele>
        <time>2018-06-14T12:02:33Z</time>
      </trkpt>
      <trkpt lat="42.541417" lon="-0.502419">
        <ele>927.9</ele>
        <time>2018-06-14T12:02:36Z</time>
      </trkpt>
      <trkpt lat="42.541585" lon="-0.502425">
        <ele>927.1</ele>
        <time>2018-06-14T12:02:41Z</time>
      </trkpt>
      <trkpt lat="42.541697" lon="-0.502453">
        <ele>924.0</ele>
        <time>2018-06-14T12:02:44Z</time>
      </trkpt>
      <trkpt lat="42.541744" lon="-0.502542">
        <ele>920.7</ele>
        <time>2018-06-14T12:02:46Z</time>
      </trkpt>
      <trkpt lat="42.541802" lon="-0.502813">
        <ele>913.3</ele>
        <time>2018-06-14T12:02:52Z</time>
      </trkpt>
      <trkpt lat="42.541844" lon="-0.503025">
        <ele>908.9</ele>
        <time>2018-06-14T12:02:56Z</time>
      </trkpt>
      <trkpt lat="42.542098" lon="-0.503319">
        <ele>904.1</ele>
        <time>2018-06-14T12:03:05Z</time>
      </trkpt>
      <trkpt lat="42.542305" lon="-0.503494">
        <ele>901.0</ele>
        <time>2018-06-14T12:03:12Z</time>
      </trkpt>
      <trkpt lat="42.542487" lon="-0.503578">
        <ele>900.6</ele>
        <time>2018-06-14T12:03:17Z</time>
      </trkpt>
      <trkpt lat="42.542556" lon="-0.503666">
        <ele>899.5</ele>
        <time>2018-06-14T12:03:19Z</time>
      </trkpt>
      <trkpt lat="42.542631" lon="-0.503998">
        <ele>897.2</ele>
        <time>2018-06-14T12:03:26Z</time>
      </trkpt>
      <trkpt lat="42.542714" lon="-0.504106">
        <ele>898.7</ele>
        <time>2018-06-14T12:03:29Z</time>
      </trkpt>
      <trkpt lat="42.542820" lon="-0.504132">
        <ele>898.9</ele>
        <time>2018-06-14T12:03:32Z</time>
      </trkpt>
      <trkpt lat="42.542925" lon="-0.504078">
        <ele>897.8</ele>
        <time>2018-06-14T12:03:35Z</time>
      </trkpt>
      <trkpt lat="42.543080" lon="-0.503950">
        <ele>897.1</ele>
        <time>2018-06-14T12:03:40Z</time>
      </trkpt>
      <trkpt lat="42.543214" lon="-0.503914">
        <ele>897.5</ele>
        <time>2018-06-14T12:03:44Z</time>
      </trkpt>
      <trkpt lat="42.543314" lon="-0.503961">
        <ele>898.8</ele>
        <time>2018-06-14T12:03:46Z</time>
      </trkpt>
      <trkpt lat="42.543398" lon="-0.504059">
        <ele>899.7</ele>
        <time>2018-06-14T12:03:49Z</time>
      </trkpt>
      <trkpt lat="42.543584" lon="-0.504356">
        <ele>899.6</ele>
        <time>2018-06-14T12:03:57Z</time>
      </trkpt>
      <trkpt lat="42.543729" lon="-0.504777">
        <ele>901.1</ele>
        <time>2018-06-14T12:04:06Z</time>
      </trkpt>
      <trkpt lat="42.543934" lon="-0.504921">
        <ele>894.6</ele>
        <time>2018-06-14T12:04:12Z</time>
      </trkpt>
      <trkpt lat="42.544046" lon="-0.505098">
        <ele>891.5</ele>
        <time>2018-06-14T12:04:17Z</time>
      </trkpt>
      <trkpt lat="42.544239" lon="-0.505532">
        <ele>890.5</ele>
        <time>2018-06-14T12:04:27Z</time>
      </trkpt>
      <trkpt lat="42.544413" lon="-0.505849">
        <ele>890.1</ele>
        <time>2018-06-14T12:04:35Z</time>
      </trkpt>
      <trkpt lat="42.544429" lon="-0.506144">
        <ele>888.3</ele>
        <time>2018-06-14T12:04:40Z</time>
      </trkpt>
      <trkpt lat="42.544603" lon="-0.506396">
        <ele>884.4</ele>
        <time>2018-06-14T12:04:47Z</time>
      </trkpt>
      <trkpt lat="42.545038" lon="-0.506713">
        <ele>883.6</ele>
        <time>2018-06-14T12:05:00Z</time>
      </trkpt>
      <trkpt lat="42.545252" lon="-0.506915">
        <ele>883.7</ele>
        <time>2018-06-14T12:05:07Z</time>
      </trkpt>
      <trkpt lat="42.545319" lon="-0.506943">
        <ele>884.3</ele>
        <time>2018-06-14T12:05:09Z</time>
      </trkpt>
      <trkpt lat="42.545378" lon="-0.506949">
        <ele>885.0</ele>
        <time>2018-06-14T12:05:11Z</time>
      </trkpt>
      <trkpt lat="42.545477" lon="-0.507142">
        <ele>884.7</ele>
        <time>2018-06-14T12:05:15Z</time>
      </trkpt>
      <trkpt lat="42.545548" lon="-0.507458">
        <ele>882.7</ele>
        <time>2018-06-14T12:05:22Z</time>
      </trkpt>
      <trkpt lat="42.545618" lon="-0.507536">
        <ele>882.6</ele>
        <time>2018-06-14T12:05:24Z</time>
      </trkpt>
      <trkpt lat="42.545732" lon="-0.507640">
        <ele>882.3</ele>
        <time>2018-06-14T12:05:28Z</time>
      </trkpt>
      <trkpt lat="42.546003" lon="-0.507913">
        <ele>880.0</ele>
        <time>2018-06-14T12:05:37Z</time>
      </trkpt>
      <trkpt lat="42.546256" lon="-0.508494">
        <ele>880.1</ele>
        <time>2018-06-14T12:05:50Z</time>
      </trkpt>
      <trkpt lat="42.546430" lon="-0.508925">
        <ele>880.6</ele>
        <time>2018-06-14T12:05:59Z</time>
      </trkpt>
      <trkpt lat="42.546446" lon="-0.509022">
        <ele>880.3</ele>
        <time>2018-06-14T12:06:01Z</time>
      </trkpt>
      <trkpt lat="42.546475" lon="-0.509052">
        <ele>880.0</ele>
        <time>2018-06-14T12:06:02Z</time>
      </trkpt>
      <trkpt lat="42.546493" lon="-0.509030">
        <ele>880.1</ele>
        <time>2018-06-14T12:06:03Z</time>
      </trkpt>
      <trkpt lat="42.546499" lon="-0.508987">
        <ele>880.2</ele>
        <time>2018-06-14T12:06:04Z</time>
      </trkpt>
      <trkpt lat="42.546520" lon="-0.508897">
        <ele>880.5</ele>
        <time>2018-06-14T12:06:06Z</time>
      </trkpt>
      <trkpt lat="42.546537" lon="-0.508907">
        <ele>880.5</ele>
        <time>2018-06-14T12:06:06Z</time>
      </trkpt>
      <trkpt lat="42.546543" lon="-0.508927">
        <ele>880.5</ele>
        <time>2018-06-14T12:06:07Z</time>
      </trkpt>
      <trkpt lat="42.546570" lon="-0.509065">
        <ele>880.2</ele>
        <time>2018-06-14T12:06:09Z</time>
      </trkpt>
      <trkpt lat="42.546617" lon="-0.509229">
        <ele>880.2</ele>
        <time>2018-06-14T12:06:13Z</time>
      </trkpt>
      <trkpt lat="42.546732" lon="-0.509315">
        <ele>882.4</ele>
        <time>2018-06-14T12:06:16Z</time>
      </trkpt>
      <trkpt lat="42.546824" lon="-0.509403">
        <ele>884.4</ele>
        <time>2018-06-14T12:06:19Z</time>
      </trkpt>
      <trkpt lat="42.546808" lon="-0.510056">
        <ele>879.0</ele>
        <time>2018-06-14T12:06:32Z</time>
      </trkpt>
      <trkpt lat="42.546792" lon="-0.510307">
        <ele>875.9</ele>
        <time>2018-06-14T12:06:37Z</time>
      </trkpt>
      <trkpt lat="42.546837" lon="-0.510975">
        <ele>869.9</ele>
        <time>2018-06-14T12:06:50Z</time>
      </trkpt>
      <trkpt lat="42.546973" lon="-0.511688">
        <ele>864.3</ele>
        <time>2018-06-14T12:07:05Z</time>
      </trkpt>
      <trkpt lat="42.547090" lon="-0.512315">
        <ele>860.6</ele>
        <time>2018-06-14T12:07:18Z</time>
      </trkpt>
      <trkpt lat="42.547265" lon="-0.512965">
        <ele>857.0</ele>
        <time>2018-06-14T12:07:31Z</time>
      </trkpt>
      <trkpt lat="42.547617" lon="-0.513817">
        <ele>851.6</ele>
        <time>2018-06-14T12:07:50Z</time>
      </trkpt>
      <trkpt lat="42.548238" lon="-0.514971">
        <ele>860.8</ele>
        <time>2018-06-14T12:08:18Z</time>
      </trkpt>
      <trkpt lat="42.548765" lon="-0.515842">
        <ele>857.1</ele>
        <time>2018-06-14T12:08:40Z</time>
      </trkpt>
      <trkpt lat="42.549682" lon="-0.519408">
        <ele>860.1</ele>
        <time>2018-06-14T12:09:54Z</time>
      </trkpt>
      <trkpt lat="42.549859" lon="-0.519910">
        <ele>866.1</ele>
        <time>2018-06-14T12:10:05Z</time>
      </trkpt>
      <trkpt lat="42.550081" lon="-0.520240">
        <ele>873.7</ele>
        <time>2018-06-14T12:10:14Z</time>
      </trkpt>
      <trkpt lat="42.550487" lon="-0.520461">
        <ele>879.3</ele>
        <time>2018-06-14T12:10:26Z</time>
      </trkpt>
      <trkpt lat="42.551010" lon="-0.520746">
        <ele>875.6</ele>
        <time>2018-06-14T12:10:41Z</time>
      </trkpt>
      <trkpt lat="42.551475" lon="-0.521428">
        <ele>879.4</ele>
        <time>2018-06-14T12:10:59Z</time>
      </trkpt>
      <trkpt lat="42.551712" lon="-0.521967">
        <ele>883.1</ele>
        <time>2018-06-14T12:11:11Z</time>
      </trkpt>
      <trkpt lat="42.551903" lon="-0.522569">
        <ele>882.1</ele>
        <time>2018-06-14T12:11:24Z</time>
      </trkpt>
      <trkpt lat="42.552530" lon="-0.527599">
        <ele>880.9</ele>
        <time>2018-06-14T12:13:04Z</time>
      </trkpt>
      <trkpt lat="42.552448" lon="-0.529033">
        <ele>884.4</ele>
        <time>2018-06-14T12:13:32Z</time>
      </trkpt>
      <trkpt lat="42.552409" lon="-0.529385">
        <ele>884.2</ele>
        <time>2018-06-14T12:13:39Z</time>
      </trkpt>
      <trkpt lat="42.552467" lon="-0.529826">
        <ele>881.5</ele>
        <time>2018-06-14T12:13:47Z</time>
      </trkpt>
      <trkpt lat="42.552652" lon="-0.530152">
        <ele>880.6</ele>
        <time>2018-06-14T12:13:55Z</time>
      </trkpt>
      <trkpt lat="42.555738" lon="-0.533349">
        <ele>843.6</ele>
        <time>2018-06-14T12:15:39Z</time>
      </trkpt>
      <trkpt lat="42.556108" lon="-0.534037">
        <ele>840.9</ele>
        <time>2018-06-14T12:15:55Z</time>
      </trkpt>
      <trkpt lat="42.556483" lon="-0.534477">
        <ele>841.7</ele>
        <time>2018-06-14T12:16:09Z</time>
      </trkpt>
      <trkpt lat="42.556849" lon="-0.534767">
        <ele>839.8</ele>
        <time>2018-06-14T12:16:20Z</time>
      </trkpt>
      <trkpt lat="42.557578" lon="-0.535090">
        <ele>842.4</ele>
        <time>2018-06-14T12:16:40Z</time>
      </trkpt>
      <trkpt lat="42.557932" lon="-0.535330">
        <ele>834.9</ele>
        <time>2018-06-14T12:16:51Z</time>
      </trkpt>
      <trkpt lat="42.558213" lon="-0.535731">
        <ele>818.3</ele>
        <time>2018-06-14T12:17:02Z</time>
      </trkpt>
      <trkpt lat="42.558500" lon="-0.536133">
        <ele>818.6</ele>
        <time>2018-06-14T12:17:13Z</time>
      </trkpt>
      <trkpt lat="42.559180" lon="-0.537205">
        <ele>811.2</ele>
        <time>2018-06-14T12:17:41Z</time>
      </trkpt>
      <trkpt lat="42.559845" lon="-0.537997">
        <ele>812.4</ele>
        <time>2018-06-14T12:18:04Z</time>
      </trkpt>
      <trkpt lat="42.560857" lon="-0.539100">
        <ele>803.9</ele>
        <time>2018-06-14T12:18:39Z</time>
      </trkpt>
      <trkpt lat="42.561285" lon="-0.539361">
        <ele>798.4</ele>
        <time>2018-06-14T12:18:51Z</time>
      </trkpt>
      <trkpt lat="42.561868" lon="-0.539531">
        <ele>795.6</ele>
        <time>2018-06-14T12:19:07Z</time>
      </trkpt>
      <trkpt lat="42.562313" lon="-0.539698">
        <ele>790.9</ele>
        <time>2018-06-14T12:19:20Z</time>
      </trkpt>
      <trkpt lat="42.562930" lon="-0.540101">
        <ele>789.0</ele>
        <time>2018-06-14T12:19:38Z</time>
      </trkpt>
      <trkpt lat="42.563183" lon="-0.540334">
        <ele>785.2</ele>
        <time>2018-06-14T12:19:46Z</time>
      </trkpt>
      <trkpt lat="42.563825" lon="-0.541386">
        <ele>778.7</ele>
        <time>2018-06-14T12:20:13Z</time>
      </trkpt>
      <trkpt lat="42.564259" lon="-0.542180">
        <ele>777.3</ele>
        <time>2018-06-14T12:20:32Z</time>
      </trkpt>
      <trkpt lat="42.564441" lon="-0.542405">
        <ele>779.5</ele>
        <time>2018-06-14T12:20:38Z</time>
      </trkpt>
      <trkpt lat="42.564601" lon="-0.542555">
        <ele>782.8</ele>
        <time>2018-06-14T12:20:44Z</time>
      </trkpt>
      <trkpt lat="42.564749" lon="-0.542617">
        <ele>783.2</ele>
        <time>2018-06-14T12:20:48Z</time>
      </trkpt>
      <trkpt lat="42.565122" lon="-0.542745">
        <ele>784.9</ele>
        <time>2018-06-14T12:20:58Z</time>
      </trkpt>
      <trkpt lat="42.565298" lon="-0.542799">
        <ele>784.4</ele>
        <time>2018-06-14T12:21:03Z</time>
      </trkpt>
      <trkpt lat="42.565407" lon="-0.542853">
        <ele>784.0</ele>
        <time>2018-06-14T12:21:06Z</time>
      </trkpt>
      <trkpt lat="42.565590" lon="-0.543041">
        <ele>787.2</ele>
        <time>2018-06-14T12:21:12Z</time>
      </trkpt>
      <trkpt lat="42.565730" lon="-0.543250">
        <ele>788.3</ele>
        <time>2018-06-14T12:21:18Z</time>
      </trkpt>
      <trkpt lat="42.565810" lon="-0.543456">
        <ele>788.1</ele>
        <time>2018-06-14T12:21:22Z</time>
      </trkpt>
      <trkpt lat="42.566363" lon="-0.544054">
        <ele>788.1</ele>
        <time>2018-06-14T12:21:41Z</time>
      </trkpt>
      <trkpt lat="42.566468" lon="-0.544111">
        <ele>788.3</ele>
        <time>2018-06-14T12:21:44Z</time>
      </trkpt>
      <trkpt lat="42.566573" lon="-0.544099">
        <ele>788.5</ele>
        <time>2018-06-14T12:21:47Z</time>
      </trkpt>
      <trkpt lat="42.566646" lon="-0.544073">
        <ele>788.8</ele>
        <time>2018-06-14T12:21:49Z</time>
      </trkpt>
      <trkpt lat="42.566723" lon="-0.544095">
        <ele>789.1</ele>
        <time>2018-06-14T12:21:51Z</time>
      </trkpt>
      <trkpt lat="42.566777" lon="-0.544152">
        <ele>789.0</ele>
        <time>2018-06-14T12:21:53Z</time>
      </trkpt>
      <trkpt lat="42.566806" lon="-0.544207">
        <ele>788.7</ele>
        <time>2018-06-14T12:21:54Z</time>
      </trkpt>
      <trkpt lat="42.566824" lon="-0.544272">
        <ele>788.6</ele>
        <time>2018-06-14T12:21:55Z</time>
      </trkpt>
      <trkpt lat="42.566837" lon="-0.544494">
        <ele>787.8</ele>
        <time>2018-06-14T12:22:00Z</time>
      </trkpt>
      <trkpt lat="42.566876" lon="-0.544575">
        <ele>788.1</ele>
        <time>2018-06-14T12:22:01Z</time>
      </trkpt>
      <trkpt lat="42.567011" lon="-0.544703">
        <ele>789.4</ele>
        <time>2018-06-14T12:22:06Z</time>
      </trkpt>
      <trkpt lat="42.567112" lon="-0.544755">
        <ele>790.8</ele>
        <time>2018-06-14T12:22:09Z</time>
      </trkpt>
      <trkpt lat="42.567266" lon="-0.544776">
        <ele>793.1</ele>
        <time>2018-06-14T12:22:13Z</time>
      </trkpt>
      <trkpt lat="42.567362" lon="-0.544755">
        <ele>794.8</ele>
        <time>2018-06-14T12:22:15Z</time>
      </trkpt>
      <trkpt lat="42.567614" lon="-0.544655">
        <ele>797.3</ele>
        <time>2018-06-14T12:22:22Z</time>
      </trkpt>
      <trkpt lat="42.568221" lon="-0.544309">
        <ele>814.9</ele>
        <time>2018-06-14T12:22:40Z</time>
      </trkpt>
      <trkpt lat="42.569842" lon="-0.543435">
        <ele>803.3</ele>
        <time>2018-06-14T12:23:27Z</time>
      </trkpt>
      <trkpt lat="42.570151" lon="-0.543226">
        <ele>805.9</ele>
        <time>2018-06-14T12:23:36Z</time>
      </trkpt>
      <trkpt lat="42.570301" lon="-0.543169">
        <ele>808.6</ele>
        <time>2018-06-14T12:23:40Z</time>
      </trkpt>
      <trkpt lat="42.570390" lon="-0.543172">
        <ele>809.8</ele>
        <time>2018-06-14T12:23:42Z</time>
      </trkpt>
      <trkpt lat="42.570485" lon="-0.543226">
        <ele>809.9</ele>
        <time>2018-06-14T12:23:45Z</time>
      </trkpt>
      <trkpt lat="42.570550" lon="-0.543309">
        <ele>809.0</ele>
        <time>2018-06-14T12:23:48Z</time>
      </trkpt>
      <trkpt lat="42.570631" lon="-0.543499">
        <ele>807.0</ele>
        <time>2018-06-14T12:23:52Z</time>
      </trkpt>
      <trkpt lat="42.570684" lon="-0.543660">
        <ele>807.0</ele>
        <time>2018-06-14T12:23:55Z</time>
      </trkpt>
      <trkpt lat="42.570732" lon="-0.543845">
        <ele>807.8</ele>
        <time>2018-06-14T12:23:59Z</time>
      </trkpt>
      <trkpt lat="42.570761" lon="-0.544019">
        <ele>808.9</ele>
        <time>2018-06-14T12:24:03Z</time>
      </trkpt>
      <trkpt lat="42.570793" lon="-0.544196">
        <ele>809.0</ele>
        <time>2018-06-14T12:24:06Z</time>
      </trkpt>
      <trkpt lat="42.570789" lon="-0.544360">
        <ele>808.2</ele>
        <time>2018-06-14T12:24:09Z</time>
      </trkpt>
      <trkpt lat="42.570781" lon="-0.544524">
        <ele>806.5</ele>
        <time>2018-06-14T12:24:13Z</time>
      </trkpt>
      <trkpt lat="42.570734" lon="-0.544760">
        <ele>809.1</ele>
        <time>2018-06-14T12:24:17Z</time>
      </trkpt>
      <trkpt lat="42.570682" lon="-0.544947">
        <ele>812.6</ele>
        <time>2018-06-14T12:24:21Z</time>
      </trkpt>
      <trkpt lat="42.570603" lon="-0.545160">
        <ele>814.6</ele>
        <time>2018-06-14T12:24:26Z</time>
      </trkpt>
      <trkpt lat="42.570481" lon="-0.545377">
        <ele>817.4</ele>
        <time>2018-06-14T12:24:32Z</time>
      </trkpt>
      <trkpt lat="42.570342" lon="-0.545566">
        <ele>820.6</ele>
        <time>2018-06-14T12:24:37Z</time>
      </trkpt>
      <trkpt lat="42.570088" lon="-0.545787">
        <ele>817.3</ele>
        <time>2018-06-14T12:24:45Z</time>
      </trkpt>
      <trkpt lat="42.569669" lon="-0.546042">
        <ele>818.8</ele>
        <time>2018-06-14T12:24:57Z</time>
      </trkpt>
      <trkpt lat="42.569357" lon="-0.546205">
        <ele>824.6</ele>
        <time>2018-06-14T12:25:06Z</time>
      </trkpt>
      <trkpt lat="42.569202" lon="-0.546246">
        <ele>825.4</ele>
        <time>2018-06-14T12:25:10Z</time>
      </trkpt>
      <trkpt lat="42.569127" lon="-0.546296">
        <ele>824.0</ele>
        <time>2018-06-14T12:25:12Z</time>
      </trkpt>
      <trkpt lat="42.569114" lon="-0.546340">
        <ele>823.5</ele>
        <time>2018-06-14T12:25:13Z</time>
      </trkpt>
      <trkpt lat="42.569118" lon="-0.546377">
        <ele>823.2</ele>
        <time>2018-06-14T12:25:14Z</time>
      </trkpt>
      <trkpt lat="42.569130" lon="-0.546398">
        <ele>823.2</ele>
        <time>2018-06-14T12:25:15Z</time>
      </trkpt>
      <trkpt lat="42.569167" lon="-0.546412">
        <ele>823.2</ele>
        <time>2018-06-14T12:25:16Z</time>
      </trkpt>
      <trkpt lat="42.569193" lon="-0.546418">
        <ele>823.3</ele>
        <time>2018-06-14T12:25:16Z</time>
      </trkpt>
      <trkpt lat="42.569450" lon="-0.546345">
        <ele>824.8</ele>
        <time>2018-06-14T12:25:23Z</time>
      </trkpt>
      <trkpt lat="42.569845" lon="-0.546218">
        <ele>820.6</ele>
        <time>2018-06-14T12:25:34Z</time>
      </trkpt>
      <trkpt lat="42.569967" lon="-0.546203">
        <ele>821.8</ele>
        <time>2018-06-14T12:25:37Z</time>
      </trkpt>
      <trkpt lat="42.570063" lon="-0.546216">
        <ele>823.5</ele>
        <time>2018-06-14T12:25:40Z</time>
      </trkpt>
      <trkpt lat="42.570151" lon="-0.546246">
        <ele>825.3</ele>
        <time>2018-06-14T12:25:42Z</time>
      </trkpt>
      <trkpt lat="42.570426" lon="-0.546455">
        <ele>831.6</ele>
        <time>2018-06-14T12:25:51Z</time>
      </trkpt>
      <trkpt lat="42.570653" lon="-0.546664">
        <ele>830.4</ele>
        <time>2018-06-14T12:25:58Z</time>
      </trkpt>
      <trkpt lat="42.570953" lon="-0.547093">
        <ele>828.8</ele>
        <time>2018-06-14T12:26:10Z</time>
      </trkpt>
      <trkpt lat="42.571241" lon="-0.547549">
        <ele>823.8</ele>
        <time>2018-06-14T12:26:22Z</time>
      </trkpt>
      <trkpt lat="42.571299" lon="-0.547689">
        <ele>825.4</ele>
        <time>2018-06-14T12:26:25Z</time>
      </trkpt>
      <trkpt lat="42.571382" lon="-0.547895">
        <ele>832.3</ele>
        <time>2018-06-14T12:26:30Z</time>
      </trkpt>
      <trkpt lat="42.571400" lon="-0.548009">
        <ele>834.3</ele>
        <time>2018-06-14T12:26:32Z</time>
      </trkpt>
      <trkpt lat="42.571471" lon="-0.548518">
        <ele>837.5</ele>
        <time>2018-06-14T12:26:42Z</time>
      </trkpt>
      <trkpt lat="42.571510" lon="-0.548936">
        <ele>834.3</ele>
        <time>2018-06-14T12:26:50Z</time>
      </trkpt>
      <trkpt lat="42.571518" lon="-0.549478">
        <ele>833.6</ele>
        <time>2018-06-14T12:27:01Z</time>
      </trkpt>
      <trkpt lat="42.571510" lon="-0.549676">
        <ele>834.3</ele>
        <time>2018-06-14T12:27:05Z</time>
      </trkpt>
      <trkpt lat="42.571514" lon="-0.549701">
        <ele>834.4</ele>
        <time>2018-06-14T12:27:05Z</time>
      </trkpt>
      <trkpt lat="42.571530" lon="-0.549711">
        <ele>834.4</ele>
        <time>2018-06-14T12:27:06Z</time>
      </trkpt>
      <trkpt lat="42.571656" lon="-0.549706">
        <ele>833.0</ele>
        <time>2018-06-14T12:27:09Z</time>
      </trkpt>
      <trkpt lat="42.571777" lon="-0.549709">
        <ele>831.7</ele>
        <time>2018-06-14T12:27:12Z</time>
      </trkpt>
      <trkpt lat="42.571805" lon="-0.549781">
        <ele>832.1</ele>
        <time>2018-06-14T12:27:14Z</time>
      </trkpt>
      <trkpt lat="42.571810" lon="-0.549813">
        <ele>832.3</ele>
        <time>2018-06-14T12:27:15Z</time>
      </trkpt>
      <trkpt lat="42.571801" lon="-0.549851">
        <ele>832.9</ele>
        <time>2018-06-14T12:27:15Z</time>
      </trkpt>
      <trkpt lat="42.571498" lon="-0.550312">
        <ele>837.7</ele>
        <time>2018-06-14T12:27:27Z</time>
      </trkpt>
      <trkpt lat="42.571315" lon="-0.550556">
        <ele>838.1</ele>
        <time>2018-06-14T12:27:34Z</time>
      </trkpt>
      <trkpt lat="42.571050" lon="-0.550784">
        <ele>835.8</ele>
        <time>2018-06-14T12:27:43Z</time>
      </trkpt>
      <trkpt lat="42.571036" lon="-0.550816">
        <ele>836.2</ele>
        <time>2018-06-14T12:27:43Z</time>
      </trkpt>
      <trkpt lat="42.571038" lon="-0.550851">
        <ele>836.8</ele>
        <time>2018-06-14T12:27:44Z</time>
      </trkpt>
      <trkpt lat="42.571260" lon="-0.551240">
        <ele>832.1</ele>
        <time>2018-06-14T12:27:54Z</time>
      </trkpt>
      <trkpt lat="42.571315" lon="-0.551259">
        <ele>831.1</ele>
        <time>2018-06-14T12:27:55Z</time>
      </trkpt>
      <trkpt lat="42.571453" lon="-0.551237">
        <ele>830.0</ele>
        <time>2018-06-14T12:27:59Z</time>
      </trkpt>
      <trkpt lat="42.571605" lon="-0.551267">
        <ele>827.3</ele>
        <time>2018-06-14T12:28:03Z</time>
      </trkpt>
      <trkpt lat="42.571688" lon="-0.551353">
        <ele>824.8</ele>
        <time>2018-06-14T12:28:06Z</time>
      </trkpt>
      <trkpt lat="42.572111" lon="-0.551881">
        <ele>825.5</ele>
        <time>2018-06-14T12:28:21Z</time>
      </trkpt>
      <trkpt lat="42.572147" lon="-0.551975">
        <ele>824.8</ele>
        <time>2018-06-14T12:28:23Z</time>
      </trkpt>
      <trkpt lat="42.572119" lon="-0.552239">
        <ele>821.4</ele>
        <time>2018-06-14T12:28:28Z</time>
      </trkpt>
      <trkpt lat="42.572129" lon="-0.552367">
        <ele>819.4</ele>
        <time>2018-06-14T12:28:31Z</time>
      </trkpt>
      <trkpt lat="42.572200" lon="-0.552566">
        <ele>817.4</ele>
        <time>2018-06-14T12:28:35Z</time>
      </trkpt>
      <trkpt lat="42.5726180" lon="-0.5526250">
        <ele>819.000000</ele>
        <time>2018-06-15T06:00:00.000Z</time>
      </trkpt>
      <trkpt lat="42.5727520" lon="-0.5524970">
        <ele>820.200012</ele>
        <time>2018-06-15T06:00:04.000Z</time>
      </trkpt>
      <trkpt lat="42.5727760" lon="-0.5521210">
        <ele>821.399963</ele>
        <time>2018-06-15T06:00:11.000Z</time>
      </trkpt>
      <trkpt lat="42.5727050" lon="-0.5519710">
        <ele>821.399963</ele>
        <time>2018-06-15T06:00:15.000Z</time>
      </trkpt>
      <trkpt lat="42.5723970" lon="-0.5518420">
        <ele>825.099976</ele>
        <time>2018-06-15T06:00:23.000Z</time>
      </trkpt>
      <trkpt lat="42.5722070" lon="-0.5519710">
        <ele>824.800049</ele>
        <time>2018-06-15T06:00:29.000Z</time>
      </trkpt>
      <trkpt lat="42.5719780" lon="-0.5517890">
        <ele>824.800049</ele>
        <time>2018-06-15T06:00:36.000Z</time>
      </trkpt>
      <trkpt lat="42.5716700" lon="-0.5513270">
        <ele>825.300049</ele>
        <time>2018-06-15T06:00:48.000Z</time>
      </trkpt>
      <trkpt lat="42.5713150" lon="-0.5512740">
        <ele>830.700012</ele>
        <time>2018-06-15T06:00:58.000Z</time>
      </trkpt>
      <trkpt lat="42.5710220" lon="-0.5508440">
        <ele>836.600037</ele>
        <time>2018-06-15T06:01:09.000Z</time>
      </trkpt>
      <trkpt lat="42.5696080" lon="-0.5518310">
        <ele>833.899963</ele>
        <time>2018-06-15T06:01:51.000Z</time>
      </trkpt>
      <trkpt lat="42.5695690" lon="-0.5518960">
        <ele>833.100037</ele>
        <time>2018-06-15T06:01:53.000Z</time>
      </trkpt>
      <trkpt lat="42.5695680" lon="-0.5519820">
        <ele>832.200012</ele>
        <time>2018-06-15T06:01:55.000Z</time>
      </trkpt>
      <trkpt lat="42.5696600" lon="-0.5524220">
        <ele>830.100037</ele>
        <time>2018-06-15T06:02:04.000Z</time>
      </trkpt>
      <trkpt lat="42.5698920" lon="-0.5533540">
        <ele>814.400024</ele>
        <time>2018-06-15T06:02:23.000Z</time>
      </trkpt>
      <trkpt lat="42.5701540" lon="-0.5547550">
        <ele>814.099976</ele>
        <time>2018-06-15T06:02:51.000Z</time>
      </trkpt>
      <trkpt lat="42.5705190" lon="-0.5564630">
        <ele>822.400024</ele>
        <time>2018-06-15T06:03:26.000Z</time>
      </trkpt>
      <trkpt lat="42.5705600" lon="-0.5565430">
        <ele>821.200012</ele>
        <time>2018-06-15T06:03:28.000Z</time>
      </trkpt>
      <trkpt lat="42.5706010" lon="-0.5565560">
        <ele>820.200012</ele>
        <time>2018-06-15T06:03:29.000Z</time>
      </trkpt>
      <trkpt lat="42.5706600" lon="-0.5565250">
        <ele>819.700012</ele>
        <time>2018-06-15T06:03:31.000Z</time>
      </trkpt>
      <trkpt lat="42.5707140" lon="-0.5564750">
        <ele>818.899963</ele>
        <time>2018-06-15T06:03:33.000Z</time>
      </trkpt>
      <trkpt lat="42.5707590" lon="-0.5564380">
        <ele>817.899963</ele>
        <time>2018-06-15T06:03:34.000Z</time>
      </trkpt>
      <trkpt lat="42.5708090" lon="-0.5564190">
        <ele>816.599976</ele>
        <time>2018-06-15T06:03:36.000Z</time>
      </trkpt>
      <trkpt lat="42.5708410" lon="-0.5564690">
        <ele>815.000000</ele>
        <time>2018-06-15T06:03:37.000Z</time>
      </trkpt>
      <trkpt lat="42.5708180" lon="-0.5565310">
        <ele>815.000000</ele>
        <time>2018-06-15T06:03:38.000Z</time>
      </trkpt>
      <trkpt lat="42.5707230" lon="-0.5566240">
        <ele>816.499939</ele>
        <time>2018-06-15T06:03:41.000Z</time>
      </trkpt>
      <trkpt lat="42.5706150" lon="-0.5566990">
        <ele>817.500000</ele>
        <time>2018-06-15T06:03:45.000Z</time>
      </trkpt>
      <trkpt lat="42.5705790" lon="-0.5567300">
        <ele>817.699951</ele>
        <time>2018-06-15T06:03:46.000Z</time>
      </trkpt>
      <trkpt lat="42.5705560" lon="-0.5567860">
        <ele>817.299988</ele>
        <time>2018-06-15T06:03:47.000Z</time>
      </trkpt>
      <trkpt lat="42.5705610" lon="-0.5568490">
        <ele>816.000000</ele>
        <time>2018-06-15T06:03:48.000Z</time>
      </trkpt>
      <trkpt lat="42.5705970" lon="-0.5568930">
        <ele>814.500000</ele>
        <time>2018-06-15T06:03:50.000Z</time>
      </trkpt>
      <trkpt lat="42.5706560" lon="-0.5568740">
        <ele>813.700012</ele>
        <time>2018-06-15T06:03:51.000Z</time>
      </trkpt>
      <trkpt lat="42.5706690" lon="-0.5568740">
        <ele>813.499939</ele>
        <time>2018-06-15T06:03:52.000Z</time>
      </trkpt>
      <trkpt lat="42.5707920" lon="-0.5567740">
        <ele>812.599976</ele>
        <time>2018-06-15T06:03:55.000Z</time>
      </trkpt>
      <trkpt lat="42.5710140" lon="-0.5566810">
        <ele>807.900024</ele>
        <time>2018-06-15T06:04:02.000Z</time>
      </trkpt>
      <trkpt lat="42.5714180" lon="-0.5565340">
        <ele>799.399963</ele>
        <time>2018-06-15T06:04:13.000Z</time>
      </trkpt>
      <trkpt lat="42.5716430" lon="-0.5564850">
        <ele>796.399963</ele>
        <time>2018-06-15T06:04:19.000Z</time>
      </trkpt>
      <trkpt lat="42.5718960" lon="-0.5564450">
        <ele>793.399963</ele>
        <time>2018-06-15T06:04:26.000Z</time>
      </trkpt>
      <trkpt lat="42.5721600" lon="-0.5564180">
        <ele>793.800049</ele>
        <time>2018-06-15T06:04:33.000Z</time>
      </trkpt>
      <trkpt lat="42.5724310" lon="-0.5564490">
        <ele>793.399963</ele>
        <time>2018-06-15T06:04:40.000Z</time>
      </trkpt>
      <trkpt lat="42.5726740" lon="-0.5565830">
        <ele>785.799988</ele>
        <time>2018-06-15T06:04:47.000Z</time>
      </trkpt>
      <trkpt lat="42.5728030" lon="-0.5566870">
        <ele>777.299988</ele>
        <time>2018-06-15T06:04:52.000Z</time>
      </trkpt>
      <trkpt lat="42.5730510" lon="-0.5568710">
        <ele>772.500000</ele>
        <time>2018-06-15T06:04:59.000Z</time>
      </trkpt>
      <trkpt lat="42.5731700" lon="-0.5569490">
        <ele>772.599976</ele>
        <time>2018-06-15T06:05:03.000Z</time>
      </trkpt>
      <trkpt lat="42.5732160" lon="-0.5569970">
        <ele>773.000061</ele>
        <time>2018-06-15T06:05:04.000Z</time>
      </trkpt>
      <trkpt lat="42.5732380" lon="-0.5570990">
        <ele>773.500000</ele>
        <time>2018-06-15T06:05:06.000Z</time>
      </trkpt>
      <trkpt lat="42.5733370" lon="-0.5575980">
        <ele>773.500000</ele>
        <time>2018-06-15T06:05:16.000Z</time>
      </trkpt>
      <trkpt lat="42.5735340" lon="-0.5585930">
        <ele>775.599976</ele>
        <time>2018-06-15T06:05:37.000Z</time>
      </trkpt>
      <trkpt lat="42.5739070" lon="-0.5606840">
        <ele>760.700012</ele>
        <time>2018-06-15T06:06:19.000Z</time>
      </trkpt>
      <trkpt lat="42.5739860" lon="-0.5612110">
        <ele>765.100037</ele>
        <time>2018-06-15T06:06:29.000Z</time>
      </trkpt>
      <trkpt lat="42.5741070" lon="-0.5616900">
        <ele>767.199951</ele>
        <time>2018-06-15T06:06:39.000Z</time>
      </trkpt>
      <trkpt lat="42.5743210" lon="-0.5623860">
        <ele>777.500000</ele>
        <time>2018-06-15T06:06:54.000Z</time>
      </trkpt>
      <trkpt lat="42.5743280" lon="-0.5624980">
        <ele>779.200012</ele>
        <time>2018-06-15T06:06:56.000Z</time>
      </trkpt>
      <trkpt lat="42.5742630" lon="-0.5626220">
        <ele>780.700012</ele>
        <time>2018-06-15T06:06:59.000Z</time>
      </trkpt>
      <trkpt lat="42.5740650" lon="-0.5628430">
        <ele>783.799988</ele>
        <time>2018-06-15T06:07:06.000Z</time>
      </trkpt>
      <trkpt lat="42.5737370" lon="-0.5633130">
        <ele>786.899963</ele>
        <time>2018-06-15T06:07:19.000Z</time>
      </trkpt>
      <trkpt lat="42.5736070" lon="-0.5635310">
        <ele>784.399963</ele>
        <time>2018-06-15T06:07:24.000Z</time>
      </trkpt>
      <trkpt lat="42.5734990" lon="-0.5637540">
        <ele>781.300049</ele>
        <time>2018-06-15T06:07:30.000Z</time>
      </trkpt>
      <trkpt lat="42.5734390" lon="-0.5639610">
        <ele>780.399963</ele>
        <time>2018-06-15T06:07:34.000Z</time>
      </trkpt>
      <trkpt lat="42.5734160" lon="-0.5644460">
        <ele>781.399963</ele>
        <time>2018-06-15T06:07:44.000Z</time>
      </trkpt>
      <trkpt lat="42.5732730" lon="-0.5650070">
        <ele>779.299988</ele>
        <time>2018-06-15T06:07:55.000Z</time>
      </trkpt>
      <trkpt lat="42.5732170" lon="-0.5653130">
        <ele>778.700012</ele>
        <time>2018-06-15T06:08:01.000Z</time>
      </trkpt>
      <trkpt lat="42.5731080" lon="-0.5654690">
        <ele>776.799988</ele>
        <time>2018-06-15T06:08:05.000Z</time>
      </trkpt>
      <trkpt lat="42.5727980" lon="-0.5656950">
        <ele>771.600037</ele>
        <time>2018-06-15T06:08:15.000Z</time>
      </trkpt>
      <trkpt lat="42.5726180" lon="-0.5658250">
        <ele>771.200012</ele>
        <time>2018-06-15T06:08:20.000Z</time>
      </trkpt>
      <trkpt lat="42.5724820" lon="-0.5658940">
        <ele>769.599976</ele>
        <time>2018-06-15T06:08:24.000Z</time>
      </trkpt>
      <trkpt lat="42.5723670" lon="-0.5659400">
        <ele>768.100037</ele>
        <time>2018-06-15T06:08:27.000Z</time>
      </trkpt>
      <trkpt lat="42.5722330" lon="-0.5659130">
        <ele>767.500000</ele>
        <time>2018-06-15T06:08:31.000Z</time>
      </trkpt>
      <trkpt lat="42.5721460" lon="-0.5658760">
        <ele>767.199951</ele>
        <time>2018-06-15T06:08:33.000Z</time>
      </trkpt>
      <trkpt lat="42.5720710" lon="-0.5658600">
        <ele>766.900024</ele>
        <time>2018-06-15T06:08:35.000Z</time>
      </trkpt>
      <trkpt lat="42.5719920" lon="-0.5659090">
        <ele>766.499939</ele>
        <time>2018-06-15T06:08:38.000Z</time>
      </trkpt>
      <trkpt lat="42.5718370" lon="-0.5660670">
        <ele>766.700012</ele>
        <time>2018-06-15T06:08:43.000Z</time>
      </trkpt>
      <trkpt lat="42.5717060" lon="-0.5662550">
        <ele>767.000000</ele>
        <time>2018-06-15T06:08:48.000Z</time>
      </trkpt>
      <trkpt lat="42.5716430" lon="-0.5664400">
        <ele>768.100037</ele>
        <time>2018-06-15T06:08:52.000Z</time>
      </trkpt>
      <trkpt lat="42.5715990" lon="-0.5666320">
        <ele>768.899963</ele>
        <time>2018-06-15T06:08:56.000Z</time>
      </trkpt>
      <trkpt lat="42.5715440" lon="-0.5667610">
        <ele>768.299988</ele>
        <time>2018-06-15T06:08:59.000Z</time>
      </trkpt>
      <trkpt lat="42.5714450" lon="-0.5668900">
        <ele>767.099976</ele>
        <time>2018-06-15T06:09:02.000Z</time>
      </trkpt>
      <trkpt lat="42.5712980" lon="-0.5670400">
        <ele>766.700012</ele>
        <time>2018-06-15T06:09:07.000Z</time>
      </trkpt>
      <trkpt lat="42.5711040" lon="-0.5671580">
        <ele>763.200012</ele>
        <time>2018-06-15T06:09:13.000Z</time>
      </trkpt>
      <trkpt lat="42.5709980" lon="-0.5672330">
        <ele>760.400024</ele>
        <time>2018-06-15T06:09:16.000Z</time>
      </trkpt>
      <trkpt lat="42.5709500" lon="-0.5673780">
        <ele>759.200012</ele>
        <time>2018-06-15T06:09:19.000Z</time>
      </trkpt>
      <trkpt lat="42.5706990" lon="-0.5686700">
        <ele>763.599976</ele>
        <time>2018-06-15T06:09:45.000Z</time>
      </trkpt>
      <trkpt lat="42.5704800" lon="-0.5695770">
        <ele>754.900024</ele>
        <time>2018-06-15T06:10:04.000Z</time>
      </trkpt>
      <trkpt lat="42.5704520" lon="-0.5697450">
        <ele>753.200012</ele>
        <time>2018-06-15T06:10:08.000Z</time>
      </trkpt>
      <trkpt lat="42.5704450" lon="-0.5698990">
        <ele>752.299988</ele>
        <time>2018-06-15T06:10:11.000Z</time>
      </trkpt>
      <trkpt lat="42.5705360" lon="-0.5701990">
        <ele>751.799988</ele>
        <time>2018-06-15T06:10:17.000Z</time>
      </trkpt>
      <trkpt lat="42.5707700" lon="-0.5709510">
        <ele>754.799988</ele>
        <time>2018-06-15T06:10:33.000Z</time>
      </trkpt>
      <trkpt lat="42.5707890" lon="-0.5712240">
        <ele>759.000000</ele>
        <time>2018-06-15T06:10:38.000Z</time>
      </trkpt>
      <trkpt lat="42.5707850" lon="-0.5716210">
        <ele>765.599976</ele>
        <time>2018-06-15T06:10:46.000Z</time>
      </trkpt>
      <trkpt lat="42.5707250" lon="-0.5718620">
        <ele>767.000000</ele>
        <time>2018-06-15T06:10:51.000Z</time>
      </trkpt>
      <trkpt lat="42.5706590" lon="-0.5720520">
        <ele>766.000000</ele>
        <time>2018-06-15T06:10:55.000Z</time>
      </trkpt>
      <trkpt lat="42.5705290" lon="-0.5723310">
        <ele>767.600037</ele>
        <time>2018-06-15T06:11:02.000Z</time>
      </trkpt>
      <trkpt lat="42.5702550" lon="-0.5725970">
        <ele>763.299988</ele>
        <time>2018-06-15T06:11:11.000Z</time>
      </trkpt>
      <trkpt lat="42.5701370" lon="-0.5727050">
        <ele>761.500000</ele>
        <time>2018-06-15T06:11:15.000Z</time>
      </trkpt>
      <trkpt lat="42.5699990" lon="-0.5727900">
        <ele>759.100037</ele>
        <time>2018-06-15T06:11:19.000Z</time>
      </trkpt>
      <trkpt lat="42.5698920" lon="-0.5728390">
        <ele>757.099976</ele>
        <time>2018-06-15T06:11:22.000Z</time>
      </trkpt>
      <trkpt lat="42.5697700" lon="-0.5728600">
        <ele>754.599976</ele>
        <time>2018-06-15T06:11:25.000Z</time>
      </trkpt>
      <trkpt lat="42.5696620" lon="-0.5728520">
        <ele>752.100037</ele>
        <time>2018-06-15T06:11:28.000Z</time>
      </trkpt>
      <trkpt lat="42.5695560" lon="-0.5728170">
        <ele>749.399963</ele>
        <time>2018-06-15T06:11:31.000Z</time>
      </trkpt>
      <trkpt lat="42.5694220" lon="-0.5727260">
        <ele>745.000061</ele>
        <time>2018-06-15T06:11:35.000Z</time>
      </trkpt>
      <trkpt lat="42.5693270" lon="-0.5727100">
        <ele>742.899963</ele>
        <time>2018-06-15T06:11:38.000Z</time>
      </trkpt>
      <trkpt lat="42.5692680" lon="-0.5728330">
        <ele>748.799988</ele>
        <time>2018-06-15T06:11:41.000Z</time>
      </trkpt>
      <trkpt lat="42.5691180" lon="-0.5732140">
        <ele>764.299988</ele>
        <time>2018-06-15T06:11:50.000Z</time>
      </trkpt>
      <trkpt lat="42.5689480" lon="-0.5735630">
        <ele>763.499939</ele>
        <time>2018-06-15T06:11:58.000Z</time>
      </trkpt>
      <trkpt lat="42.5688710" lon="-0.5737660">
        <ele>761.700012</ele>
        <time>2018-06-15T06:12:03.000Z</time>
      </trkpt>
      <trkpt lat="42.5687880" lon="-0.5740740">
        <ele>760.000000</ele>
        <time>2018-06-15T06:12:09.000Z</time>
      </trkpt>
      <trkpt lat="42.5687070" lon="-0.5748020">
        <ele>756.200012</ele>
        <time>2018-06-15T06:12:23.000Z</time>
      </trkpt>
      <trkpt lat="42.5686600" lon="-0.5750760">
        <ele>753.399963</ele>
        <time>2018-06-15T06:12:29.000Z</time>
      </trkpt>
      <trkpt lat="42.5685960" lon="-0.5753380">
        <ele>751.400024</ele>
        <time>2018-06-15T06:12:34.000Z</time>
      </trkpt>
      <trkpt lat="42.5685530" lon="-0.5757730">
        <ele>748.000061</ele>
        <time>2018-06-15T06:12:43.000Z</time>
      </trkpt>
      <trkpt lat="42.5685530" lon="-0.5761060">
        <ele>750.399963</ele>
        <time>2018-06-15T06:12:50.000Z</time>
      </trkpt>
      <trkpt lat="42.5684860" lon="-0.5766040">
        <ele>757.400024</ele>
        <time>2018-06-15T06:13:00.000Z</time>
      </trkpt>
      <trkpt lat="42.5684310" lon="-0.5769960">
        <ele>758.799988</ele>
        <time>2018-06-15T06:13:07.000Z</time>
      </trkpt>
      <trkpt lat="42.5683370" lon="-0.5772290">
        <ele>758.600037</ele>
        <time>2018-06-15T06:13:13.000Z</time>
      </trkpt>
      <trkpt lat="42.5681660" lon="-0.5775540">
        <ele>757.799988</ele>
        <time>2018-06-15T06:13:20.000Z</time>
      </trkpt>
      <trkpt lat="42.5679300" lon="-0.5780370">
        <ele>757.799988</ele>
        <time>2018-06-15T06:13:32.000Z</time>
      </trkpt>
      <trkpt lat="42.5678650" lon="-0.5781600">
        <ele>759.000000</ele>
        <time>2018-06-15T06:13:35.000Z</time>
      </trkpt>
      <trkpt lat="42.5677620" lon="-0.5783960">
        <ele>756.900024</ele>
        <time>2018-06-15T06:13:40.000Z</time>
      </trkpt>
      <trkpt lat="42.5677110" lon="-0.5785320">
        <ele>755.600037</ele>
        <time>2018-06-15T06:13:43.000Z</time>
      </trkpt>
      <trkpt lat="42.5675750" lon="-0.5788490">
        <ele>754.900024</ele>
        <time>2018-06-15T06:13:50.000Z</time>
      </trkpt>
      <trkpt lat="42.5673440" lon="-0.5792470">
        <ele>751.200012</ele>
        <time>2018-06-15T06:14:00.000Z</time>
      </trkpt>
      <trkpt lat="42.5672390" lon="-0.5796160">
        <ele>747.799988</ele>
        <time>2018-06-15T06:14:08.000Z</time>
      </trkpt>
      <trkpt lat="42.5671500" lon="-0.5798820">
        <ele>745.200012</ele>
        <time>2018-06-15T06:14:14.000Z</time>
      </trkpt>
      <trkpt lat="42.5670440" lon="-0.5800750">
        <ele>745.299988</ele>
        <time>2018-06-15T06:14:18.000Z</time>
      </trkpt>
      <trkpt lat="42.5669920" lon="-0.5801930">
        <ele>744.799988</ele>
        <time>2018-06-15T06:14:21.000Z</time>
      </trkpt>
      <trkpt lat="42.5669400" lon="-0.5803890">
        <ele>744.400024</ele>
        <time>2018-06-15T06:14:25.000Z</time>
      </trkpt>
      <trkpt lat="42.5669210" lon="-0.5804940">
        <ele>744.700012</ele>
        <time>2018-06-15T06:14:27.000Z</time>
      </trkpt>
      <trkpt lat="42.5668660" lon="-0.5805900">
        <ele>744.799988</ele>
        <time>2018-06-15T06:14:30.000Z</time>
      </trkpt>
      <trkpt lat="42.5668420" lon="-0.5806550">
        <ele>745.000061</ele>
        <time>2018-06-15T06:14:31.000Z</time>
      </trkpt>
      <trkpt lat="42.5668230" lon="-0.5807240">
        <ele>745.400024</ele>
        <time>2018-06-15T06:14:32.000Z</time>
      </trkpt>
      <trkpt lat="42.5668300" lon="-0.5808480">
        <ele>746.700012</ele>
        <time>2018-06-15T06:14:35.000Z</time>
      </trkpt>
      <trkpt lat="42.5668340" lon="-0.5809870">
        <ele>747.799988</ele>
        <time>2018-06-15T06:14:38.000Z</time>
      </trkpt>
      <trkpt lat="42.5667280" lon="-0.5821190">
        <ele>746.100037</ele>
        <time>2018-06-15T06:15:00.000Z</time>
      </trkpt>
      <trkpt lat="42.5665940" lon="-0.5828380">
        <ele>747.200012</ele>
        <time>2018-06-15T06:15:14.000Z</time>
      </trkpt>
      <trkpt lat="42.5662850" lon="-0.5838790">
        <ele>745.900024</ele>
        <time>2018-06-15T06:15:36.000Z</time>
      </trkpt>
      <trkpt lat="42.5661590" lon="-0.5843130">
        <ele>746.399963</ele>
        <time>2018-06-15T06:15:45.000Z</time>
      </trkpt>
      <trkpt lat="42.5659930" lon="-0.5846940">
        <ele>744.799988</ele>
        <time>2018-06-15T06:15:54.000Z</time>
      </trkpt>
      <trkpt lat="42.5659550" lon="-0.5849050">
        <ele>745.099976</ele>
        <time>2018-06-15T06:15:58.000Z</time>
      </trkpt>
      <trkpt lat="42.5659100" lon="-0.5850000">
        <ele>745.500000</ele>
        <time>2018-06-15T06:16:01.000Z</time>
      </trkpt>
      <trkpt lat="42.5656570" lon="-0.5854240">
        <ele>749.399963</ele>
        <time>2018-06-15T06:16:11.000Z</time>
      </trkpt>
      <trkpt lat="42.5654240" lon="-0.5858900">
        <ele>750.799988</ele>
        <time>2018-06-15T06:16:22.000Z</time>
      </trkpt>
      <trkpt lat="42.5653100" lon="-0.5862010">
        <ele>749.000000</ele>
        <time>2018-06-15T06:16:29.000Z</time>
      </trkpt>
      <trkpt lat="42.5651990" lon="-0.5866840">
        <ele>742.699951</ele>
        <time>2018-06-15T06:16:39.000Z</time>
      </trkpt>
      <trkpt lat="42.5649720" lon="-0.5874090">
        <ele>738.900024</ele>
        <time>2018-06-15T06:16:54.000Z</time>
      </trkpt>
      <trkpt lat="42.5648910" lon="-0.5876070">
        <ele>740.800049</ele>
        <time>2018-06-15T06:16:59.000Z</time>
      </trkpt>
      <trkpt lat="42.5647650" lon="-0.5878640">
        <ele>739.099976</ele>
        <time>2018-06-15T06:17:05.000Z</time>
      </trkpt>
      <trkpt lat="42.5646090" lon="-0.5883370">
        <ele>737.000000</ele>
        <time>2018-06-15T06:17:15.000Z</time>
      </trkpt>
      <trkpt lat="42.5641340" lon="-0.5893300">
        <ele>734.500000</ele>
        <time>2018-06-15T06:17:38.000Z</time>
      </trkpt>
      <trkpt lat="42.5640810" lon="-0.5894470">
        <ele>735.900024</ele>
        <time>2018-06-15T06:17:41.000Z</time>
      </trkpt>
      <trkpt lat="42.5639830" lon="-0.5895330">
        <ele>737.100037</ele>
        <time>2018-06-15T06:17:44.000Z</time>
      </trkpt>
      <trkpt lat="42.5639230" lon="-0.5896940">
        <ele>739.000000</ele>
        <time>2018-06-15T06:17:48.000Z</time>
      </trkpt>
      <trkpt lat="42.5636350" lon="-0.5905730">
        <ele>737.100037</ele>
        <time>2018-06-15T06:18:06.000Z</time>
      </trkpt>
      <trkpt lat="42.5636020" lon="-0.5907820">
        <ele>735.900024</ele>
        <time>2018-06-15T06:18:11.000Z</time>
      </trkpt>
      <trkpt lat="42.5635530" lon="-0.5916360">
        <ele>734.700012</ele>
        <time>2018-06-15T06:18:27.000Z</time>
      </trkpt>
      <trkpt lat="42.5635430" lon="-0.5922460">
        <ele>735.799988</ele>
        <time>2018-06-15T06:18:39.000Z</time>
      </trkpt>
      <trkpt lat="42.5635050" lon="-0.5924300">
        <ele>735.799988</ele>
        <time>2018-06-15T06:18:43.000Z</time>
      </trkpt>
      <trkpt lat="42.5634180" lon="-0.5927080">
        <ele>733.700012</ele>
        <time>2018-06-15T06:18:49.000Z</time>
      </trkpt>
      <trkpt lat="42.5633780" lon="-0.5929530">
        <ele>731.700012</ele>
        <time>2018-06-15T06:18:54.000Z</time>
      </trkpt>
      <trkpt lat="42.5633640" lon="-0.5930930">
        <ele>731.900024</ele>
        <time>2018-06-15T06:18:57.000Z</time>
      </trkpt>
      <trkpt lat="42.5633830" lon="-0.5931960">
        <ele>732.400024</ele>
        <time>2018-06-15T06:18:59.000Z</time>
      </trkpt>
      <trkpt lat="42.5634010" lon="-0.5932670">
        <ele>732.599976</ele>
        <time>2018-06-15T06:19:00.000Z</time>
      </trkpt>
      <trkpt lat="42.5634370" lon="-0.5933050">
        <ele>733.000000</ele>
        <time>2018-06-15T06:19:01.000Z</time>
      </trkpt>
      <trkpt lat="42.5634880" lon="-0.5933430">
        <ele>733.700012</ele>
        <time>2018-06-15T06:19:03.000Z</time>
      </trkpt>
      <trkpt lat="42.5635350" lon="-0.5933690">
        <ele>734.200012</ele>
        <time>2018-06-15T06:19:04.000Z</time>
      </trkpt>
      <trkpt lat="42.5636380" lon="-0.5933820">
        <ele>735.000000</ele>
        <time>2018-06-15T06:19:07.000Z</time>
      </trkpt>
      <trkpt lat="42.5637700" lon="-0.5933950">
        <ele>735.700012</ele>
        <time>2018-06-15T06:19:10.000Z</time>
      </trkpt>
      <trkpt lat="42.5638120" lon="-0.5934100">
        <ele>735.200012</ele>
        <time>2018-06-15T06:19:12.000Z</time>
      </trkpt>
      <trkpt lat="42.5638440" lon="-0.5934360">
        <ele>734.700012</ele>
        <time>2018-06-15T06:19:13.000Z</time>
      </trkpt>
      <trkpt lat="42.5638710" lon="-0.5934750">
        <ele>734.100037</ele>
        <time>2018-06-15T06:19:14.000Z</time>
      </trkpt>
      <trkpt lat="42.5638970" lon="-0.5935430">
        <ele>733.799988</ele>
        <time>2018-06-15T06:19:15.000Z</time>
      </trkpt>
      <trkpt lat="42.5639120" lon="-0.5937240">
        <ele>733.600037</ele>
        <time>2018-06-15T06:19:19.000Z</time>
      </trkpt>
      <trkpt lat="42.5639030" lon="-0.5940180">
        <ele>736.000000</ele>
        <time>2018-06-15T06:19:25.000Z</time>
      </trkpt>
      <trkpt lat="42.5639230" lon="-0.5942410">
        <ele>738.000000</ele>
        <time>2018-06-15T06:19:29.000Z</time>
      </trkpt>
      <trkpt lat="42.5639900" lon="-0.5946730">
        <ele>744.900024</ele>
        <time>2018-06-15T06:19:38.000Z</time>
      </trkpt>
      <trkpt lat="42.5640790" lon="-0.5950320">
        <ele>752.500000</ele>
        <time>2018-06-15T06:19:45.000Z</time>
      </trkpt>
      <trkpt lat="42.5640960" lon="-0.5950460">
        <ele>753.300049</ele>
        <time>2018-06-15T06:19:46.000Z</time>
      </trkpt>
      <trkpt lat="42.5641270" lon="-0.5950510">
        <ele>754.400024</ele>
        <time>2018-06-15T06:19:47.000Z</time>
      </trkpt>
      <trkpt lat="42.5641650" lon="-0.5950300">
        <ele>755.399963</ele>
        <time>2018-06-15T06:19:48.000Z</time>
      </trkpt>
      <trkpt lat="42.5641900" lon="-0.5950050">
        <ele>755.899963</ele>
        <time>2018-06-15T06:19:49.000Z</time>
      </trkpt>
      <trkpt lat="42.5644570" lon="-0.5945730">
        <ele>754.699951</ele>
        <time>2018-06-15T06:20:00.000Z</time>
      </trkpt>
      <trkpt lat="42.5645080" lon="-0.5945060">
        <ele>754.699951</ele>
        <time>2018-06-15T06:20:02.000Z</time>
      </trkpt>
      <trkpt lat="42.5645470" lon="-0.5944790">
        <ele>755.000000</ele>
        <time>2018-06-15T06:20:03.000Z</time>
      </trkpt>
      <trkpt lat="42.5646050" lon="-0.5945170">
        <ele>757.099976</ele>
        <time>2018-06-15T06:20:05.000Z</time>
      </trkpt>
      <trkpt lat="42.5646240" lon="-0.5945650">
        <ele>758.799988</ele>
        <time>2018-06-15T06:20:06.000Z</time>
      </trkpt>
      <trkpt lat="42.5646280" lon="-0.5946190">
        <ele>760.299988</ele>
        <time>2018-06-15T06:20:07.000Z</time>
      </trkpt>
      <trkpt lat="42.5644980" lon="-0.5948280">
        <ele>762.399963</ele>
        <time>2018-06-15T06:20:12.000Z</time>
      </trkpt>
      <trkpt lat="42.5644330" lon="-0.5950430">
        <ele>764.699951</ele>
        <time>2018-06-15T06:20:17.000Z</time>
      </trkpt>
      <trkpt lat="42.5643600" lon="-0.5954210">
        <ele>765.500000</ele>
        <time>2018-06-15T06:20:24.000Z</time>
      </trkpt>
      <trkpt lat="42.5643740" lon="-0.5958420">
        <ele>766.099976</ele>
        <time>2018-06-15T06:20:33.000Z</time>
      </trkpt>
      <trkpt lat="42.5644700" lon="-0.5964210">
        <ele>771.000000</ele>
        <time>2018-06-15T06:20:44.000Z</time>
      </trkpt>
      <trkpt lat="42.5645570" lon="-0.5967810">
        <ele>773.099976</ele>
        <time>2018-06-15T06:20:52.000Z</time>
      </trkpt>
      <trkpt lat="42.5645650" lon="-0.5971350">
        <ele>774.600037</ele>
        <time>2018-06-15T06:20:59.000Z</time>
      </trkpt>
      <trkpt lat="42.5646050" lon="-0.5973490">
        <ele>772.900024</ele>
        <time>2018-06-15T06:21:03.000Z</time>
      </trkpt>
      <trkpt lat="42.5655800" lon="-0.6013340">
        <ele>773.099976</ele>
        <time>2018-06-15T06:22:25.000Z</time>
      </trkpt>
      <trkpt lat="42.5656600" lon="-0.6019410">
        <ele>767.199951</ele>
        <time>2018-06-15T06:22:37.000Z</time>
      </trkpt>
      <trkpt lat="42.5658720" lon="-0.6024930">
        <ele>768.600037</ele>
        <time>2018-06-15T06:22:49.000Z</time>
      </trkpt>
      <trkpt lat="42.5660260" lon="-0.6032760">
        <ele>772.400024</ele>
        <time>2018-06-15T06:23:05.000Z</time>
      </trkpt>
      <trkpt lat="42.5662440" lon="-0.6040500">
        <ele>771.899963</ele>
        <time>2018-06-15T06:23:21.000Z</time>
      </trkpt>
      <trkpt lat="42.5666310" lon="-0.6053150">
        <ele>770.400024</ele>
        <time>2018-06-15T06:23:48.000Z</time>
      </trkpt>
      <trkpt lat="42.5666700" lon="-0.6053790">
        <ele>770.900024</ele>
        <time>2018-06-15T06:23:50.000Z</time>
      </trkpt>
      <trkpt lat="42.5668640" lon="-0.6055350">
        <ele>770.799988</ele>
        <time>2018-06-15T06:23:56.000Z</time>
      </trkpt>
      <trkpt lat="42.5675550" lon="-0.6061840">
        <ele>774.600037</ele>
        <time>2018-06-15T06:24:18.000Z</time>
      </trkpt>
      <trkpt lat="42.5685910" lon="-0.6075240">
        <ele>770.099976</ele>
        <time>2018-06-15T06:24:56.000Z</time>
      </trkpt>
      <trkpt lat="42.5687370" lon="-0.6077400">
        <ele>770.400024</ele>
        <time>2018-06-15T06:25:02.000Z</time>
      </trkpt>
      <trkpt lat="42.5691630" lon="-0.6082060">
        <ele>773.000061</ele>
        <time>2018-06-15T06:25:16.000Z</time>
      </trkpt>
      <trkpt lat="42.5694030" lon="-0.6086810">
        <ele>776.500000</ele>
        <time>2018-06-15T06:25:27.000Z</time>
      </trkpt>
      <trkpt lat="42.5694490" lon="-0.6087400">
        <ele>776.900024</ele>
        <time>2018-06-15T06:25:29.000Z</time>
      </trkpt>
      <trkpt lat="42.5695630" lon="-0.6087660">
        <ele>777.100037</ele>
        <time>2018-06-15T06:25:32.000Z</time>
      </trkpt>
      <trkpt lat="42.5696600" lon="-0.6088000">
        <ele>778.000000</ele>
        <time>2018-06-15T06:25:35.000Z</time>
      </trkpt>
      <trkpt lat="42.5698520" lon="-0.6089710">
        <ele>781.300049</ele>
        <time>2018-06-15T06:25:41.000Z</time>
      </trkpt>
      <trkpt lat="42.5699740" lon="-0.6090040">
        <ele>782.099976</ele>
        <time>2018-06-15T06:25:44.000Z</time>
      </trkpt>
      <trkpt lat="42.5700430" lon="-0.6090330">
        <ele>782.700012</ele>
        <time>2018-06-15T06:25:46.000Z</time>
      </trkpt>
      <trkpt lat="42.5700610" lon="-0.6090730">
        <ele>782.799988</ele>
        <time>2018-06-15T06:25:47.000Z</time>
      </trkpt>
      <trkpt lat="42.5700730" lon="-0.6091190">
        <ele>783.000000</ele>
        <time>2018-06-15T06:25:48.000Z</time>
      </trkpt>
      <trkpt lat="42.5701120" lon="-0.6092660">
        <ele>783.700012</ele>
        <time>2018-06-15T06:25:51.000Z</time>
      </trkpt>
      <trkpt lat="42.5703400" lon="-0.6095290">
        <ele>781.800049</ele>
        <time>2018-06-15T06:25:59.000Z</time>
      </trkpt>
      <trkpt lat="42.5703510" lon="-0.6096660">
        <ele>780.100037</ele>
        <time>2018-06-15T06:26:02.000Z</time>
      </trkpt>
      <trkpt lat="42.5703280" lon="-0.6098650">
        <ele>777.600037</ele>
        <time>2018-06-15T06:26:06.000Z</time>
      </trkpt>
      <trkpt lat="42.5700830" lon="-0.6106590">
        <ele>776.200012</ele>
        <time>2018-06-15T06:26:23.000Z</time>
      </trkpt>
      <trkpt lat="42.5700510" lon="-0.6109430">
        <ele>773.600037</ele>
        <time>2018-06-15T06:26:28.000Z</time>
      </trkpt>
      <trkpt lat="42.5699920" lon="-0.6124260">
        <ele>766.200012</ele>
        <time>2018-06-15T06:26:57.000Z</time>
      </trkpt>
      <trkpt lat="42.5699290" lon="-0.6144480">
        <ele>758.600037</ele>
        <time>2018-06-15T06:27:37.000Z</time>
      </trkpt>
      <trkpt lat="42.5699570" lon="-0.6147210">
        <ele>760.500061</ele>
        <time>2018-06-15T06:27:42.000Z</time>
      </trkpt>
      <trkpt lat="42.5702110" lon="-0.6161120">
        <ele>756.900024</ele>
        <time>2018-06-15T06:28:10.000Z</time>
      </trkpt>
      <trkpt lat="42.5710530" lon="-0.6201690">
        <ele>738.099976</ele>
        <time>2018-06-15T06:29:33.000Z</time>
      </trkpt>
      <trkpt lat="42.5714610" lon="-0.6220960">
        <ele>745.799988</ele>
        <time>2018-06-15T06:30:12.000Z</time>
      </trkpt>
      <trkpt lat="42.5718700" lon="-0.6229910">
        <ele>744.200012</ele>
        <time>2018-06-15T06:30:32.000Z</time>
      </trkpt>
      <trkpt lat="42.5726150" lon="-0.6245190">
        <ele>746.000000</ele>
        <time>2018-06-15T06:31:08.000Z</time>
      </trkpt>
      <trkpt lat="42.5726730" lon="-0.6245950">
        <ele>748.099976</ele>
        <time>2018-06-15T06:31:10.000Z</time>
      </trkpt>
      <trkpt lat="42.5728230" lon="-0.6247820">
        <ele>746.700012</ele>
        <time>2018-06-15T06:31:16.000Z</time>
      </trkpt>
      <trkpt lat="42.5729400" lon="-0.6249940">
        <ele>744.799988</ele>
        <time>2018-06-15T06:31:21.000Z</time>
      </trkpt>
      <trkpt lat="42.5730140" lon="-0.6253260">
        <ele>741.900024</ele>
        <time>2018-06-15T06:31:28.000Z</time>
      </trkpt>
      <trkpt lat="42.5731030" lon="-0.6263590">
        <ele>736.799988</ele>
        <time>2018-06-15T06:31:48.000Z</time>
      </trkpt>
      <trkpt lat="42.5732740" lon="-0.6270220">
        <ele>741.599976</ele>
        <time>2018-06-15T06:32:02.000Z</time>
      </trkpt>
      <trkpt lat="42.5732950" lon="-0.6280270">
        <ele>739.600037</ele>
        <time>2018-06-15T06:32:22.000Z</time>
      </trkpt>
      <trkpt lat="42.5732760" lon="-0.6282100">
        <ele>741.599976</ele>
        <time>2018-06-15T06:32:25.000Z</time>
      </trkpt>
      <trkpt lat="42.5731590" lon="-0.6288160">
        <ele>736.699951</ele>
        <time>2018-06-15T06:32:38.000Z</time>
      </trkpt>
      <trkpt lat="42.5730010" lon="-0.6298460">
        <ele>734.700012</ele>
        <time>2018-06-15T06:32:58.000Z</time>
      </trkpt>
      <trkpt lat="42.5727360" lon="-0.6307310">
        <ele>726.500000</ele>
        <time>2018-06-15T06:33:17.000Z</time>
      </trkpt>
      <trkpt lat="42.5726450" lon="-0.6309350">
        <ele>726.099976</ele>
        <time>2018-06-15T06:33:21.000Z</time>
      </trkpt>
      <trkpt lat="42.5726130" lon="-0.6310910">
        <ele>725.000000</ele>
        <time>2018-06-15T06:33:25.000Z</time>
      </trkpt>
      <trkpt lat="42.5725780" lon="-0.6313000">
        <ele>723.699951</ele>
        <time>2018-06-15T06:33:29.000Z</time>
      </trkpt>
      <trkpt lat="42.5727200" lon="-0.6326630">
        <ele>716.200012</ele>
        <time>2018-06-15T06:33:56.000Z</time>
      </trkpt>
      <trkpt lat="42.5727760" lon="-0.6328450">
        <ele>715.399963</ele>
        <time>2018-06-15T06:34:00.000Z</time>
      </trkpt>
      <trkpt lat="42.5728600" lon="-0.6330990">
        <ele>714.299988</ele>
        <time>2018-06-15T06:34:05.000Z</time>
      </trkpt>
      <trkpt lat="42.5728640" lon="-0.6333120">
        <ele>714.199951</ele>
        <time>2018-06-15T06:34:09.000Z</time>
      </trkpt>
      <trkpt lat="42.5728590" lon="-0.6336660">
        <ele>714.600037</ele>
        <time>2018-06-15T06:34:16.000Z</time>
      </trkpt>
      <trkpt lat="42.5728230" lon="-0.6341700">
        <ele>714.699951</ele>
        <time>2018-06-15T06:34:26.000Z</time>
      </trkpt>
      <trkpt lat="42.5728710" lon="-0.6347130">
        <ele>715.800049</ele>
        <time>2018-06-15T06:34:37.000Z</time>
      </trkpt>
      <trkpt lat="42.5730520" lon="-0.6358640">
        <ele>720.200012</ele>
        <time>2018-06-15T06:35:00.000Z</time>
      </trkpt>
      <trkpt lat="42.5731040" lon="-0.6371200">
        <ele>729.400024</ele>
        <time>2018-06-15T06:35:24.000Z</time>
      </trkpt>
      <trkpt lat="42.5732310" lon="-0.6380200">
        <ele>732.900024</ele>
        <time>2018-06-15T06:35:42.000Z</time>
      </trkpt>
      <trkpt lat="42.5732850" lon="-0.6384140">
        <ele>730.899963</ele>
        <time>2018-06-15T06:35:50.000Z</time>
      </trkpt>
      <trkpt lat="42.5734060" lon="-0.6388360">
        <ele>731.000000</ele>
        <time>2018-06-15T06:35:59.000Z</time>
      </trkpt>
      <trkpt lat="42.5740470" lon="-0.6404260">
        <ele>742.000000</ele>
        <time>2018-06-15T06:36:35.000Z</time>
      </trkpt>
      <trkpt lat="42.5740960" lon="-0.6405760">
        <ele>742.400024</ele>
        <time>2018-06-15T06:36:38.000Z</time>
      </trkpt>
      <trkpt lat="42.5741720" lon="-0.6408830">
        <ele>742.799988</ele>
        <time>2018-06-15T06:36:44.000Z</time>
      </trkpt>
      <trkpt lat="42.5742170" lon="-0.6412420">
        <ele>743.299988</ele>
        <time>2018-06-15T06:36:51.000Z</time>
      </trkpt>
      <trkpt lat="42.5742090" lon="-0.6419300">
        <ele>739.500000</ele>
        <time>2018-06-15T06:37:05.000Z</time>
      </trkpt>
      <trkpt lat="42.5741400" lon="-0.6427680">
        <ele>730.400024</ele>
        <time>2018-06-15T06:37:21.000Z</time>
      </trkpt>
      <trkpt lat="42.5739750" lon="-0.6435350">
        <ele>732.900024</ele>
        <time>2018-06-15T06:37:37.000Z</time>
      </trkpt>
      <trkpt lat="42.5738480" lon="-0.6439060">
        <ele>735.200012</ele>
        <time>2018-06-15T06:37:45.000Z</time>
      </trkpt>
      <trkpt lat="42.5735620" lon="-0.6442550">
        <ele>736.199951</ele>
        <time>2018-06-15T06:37:55.000Z</time>
      </trkpt>
      <trkpt lat="42.5734040" lon="-0.6444970">
        <ele>736.199951</ele>
        <time>2018-06-15T06:38:01.000Z</time>
      </trkpt>
      <trkpt lat="42.5732400" lon="-0.6448900">
        <ele>736.000000</ele>
        <time>2018-06-15T06:38:10.000Z</time>
      </trkpt>
      <trkpt lat="42.5730170" lon="-0.6453440">
        <ele>736.100037</ele>
        <time>2018-06-15T06:38:21.000Z</time>
      </trkpt>
      <trkpt lat="42.5726750" lon="-0.6459600">
        <ele>735.900024</ele>
        <time>2018-06-15T06:38:36.000Z</time>
      </trkpt>
      <trkpt lat="42.5724560" lon="-0.6462730">
        <ele>738.499939</ele>
        <time>2018-06-15T06:38:44.000Z</time>
      </trkpt>
      <trkpt lat="42.5716870" lon="-0.6471850">
        <ele>726.500000</ele>
        <time>2018-06-15T06:39:12.000Z</time>
      </trkpt>
      <trkpt lat="42.5714810" lon="-0.6475010">
        <ele>724.500000</ele>
        <time>2018-06-15T06:39:20.000Z</time>
      </trkpt>
      <trkpt lat="42.5709400" lon="-0.6485410">
        <ele>731.300049</ele>
        <time>2018-06-15T06:39:45.000Z</time>
      </trkpt>
      <trkpt lat="42.5704910" lon="-0.6492710">
        <ele>731.200012</ele>
        <time>2018-06-15T06:40:03.000Z</time>
      </trkpt>
      <trkpt lat="42.5703630" lon="-0.6494160">
        <ele>728.599976</ele>
        <time>2018-06-15T06:40:08.000Z</time>
      </trkpt>
      <trkpt lat="42.5700250" lon="-0.6495060">
        <ele>727.199951</ele>
        <time>2018-06-15T06:40:17.000Z</time>
      </trkpt>
      <trkpt lat="42.5699010" lon="-0.6495610">
        <ele>727.000000</ele>
        <time>2018-06-15T06:40:20.000Z</time>
      </trkpt>
      <trkpt lat="42.5698240" lon="-0.6496920">
        <ele>727.899963</ele>
        <time>2018-06-15T06:40:24.000Z</time>
      </trkpt>
      <trkpt lat="42.5694780" lon="-0.6503750">
        <ele>728.599976</ele>
        <time>2018-06-15T06:40:40.000Z</time>
      </trkpt>
      <trkpt lat="42.5693070" lon="-0.6508080">
        <ele>727.600037</ele>
        <time>2018-06-15T06:40:49.000Z</time>
      </trkpt>
      <trkpt lat="42.5691660" lon="-0.6512700">
        <ele>725.599976</ele>
        <time>2018-06-15T06:40:59.000Z</time>
      </trkpt>
      <trkpt lat="42.5691220" lon="-0.6515190">
        <ele>726.299988</ele>
        <time>2018-06-15T06:41:04.000Z</time>
      </trkpt>
      <trkpt lat="42.5690100" lon="-0.6517020">
        <ele>725.599976</ele>
        <time>2018-06-15T06:41:09.000Z</time>
      </trkpt>
      <trkpt lat="42.5689000" lon="-0.6517980">
        <ele>726.400024</ele>
        <time>2018-06-15T06:41:12.000Z</time>
      </trkpt>
      <trkpt lat="42.5677620" lon="-0.6522980">
        <ele>731.300049</ele>
        <time>2018-06-15T06:41:44.000Z</time>
      </trkpt>
      <trkpt lat="42.5675460" lon="-0.6524090">
        <ele>728.599976</ele>
        <time>2018-06-15T06:41:50.000Z</time>
      </trkpt>
      <trkpt lat="42.5672660" lon="-0.6525860">
        <ele>728.000000</ele>
        <time>2018-06-15T06:41:58.000Z</time>
      </trkpt>
      <trkpt lat="42.5670960" lon="-0.6528250">
        <ele>731.000000</ele>
        <time>2018-06-15T06:42:05.000Z</time>
      </trkpt>
      <trkpt lat="42.5669460" lon="-0.6531390">
        <ele>730.799988</ele>
        <time>2018-06-15T06:42:12.000Z</time>
      </trkpt>
      <trkpt lat="42.5668790" lon="-0.6533210">
        <ele>730.299988</ele>
        <time>2018-06-15T06:42:16.000Z</time>
      </trkpt>
      <trkpt lat="42.5668630" lon="-0.6534870">
        <ele>730.700012</ele>
        <time>2018-06-15T06:42:20.000Z</time>
      </trkpt>
      <trkpt lat="42.5668710" lon="-0.6537230">
        <ele>732.000000</ele>
        <time>2018-06-15T06:42:24.000Z</time>
      </trkpt>
      <trkpt lat="42.5669160" lon="-0.6538830">
        <ele>732.299988</ele>
        <time>2018-06-15T06:42:28.000Z</time>
      </trkpt>
      <trkpt lat="42.5670800" lon="-0.6542110">
        <ele>730.700012</ele>
        <time>2018-06-15T06:42:35.000Z</time>
      </trkpt>
      <trkpt lat="42.5671300" lon="-0.6544230">
        <ele>728.599976</ele>
        <time>2018-06-15T06:42:40.000Z</time>
      </trkpt>
      <trkpt lat="42.5671770" lon="-0.6545120">
        <ele>727.700012</ele>
        <time>2018-06-15T06:42:42.000Z</time>
      </trkpt>
      <trkpt lat="42.5673150" lon="-0.6546900">
        <ele>724.899963</ele>
        <time>2018-06-15T06:42:47.000Z</time>
      </trkpt>
      <trkpt lat="42.5676620" lon="-0.6551340">
        <ele>720.099976</ele>
        <time>2018-06-15T06:43:00.000Z</time>
      </trkpt>
      <trkpt lat="42.5677860" lon="-0.6552870">
        <ele>717.900024</ele>
        <time>2018-06-15T06:43:04.000Z</time>
      </trkpt>
      <trkpt lat="42.5679110" lon="-0.6554470">
        <ele>716.599976</ele>
        <time>2018-06-15T06:43:09.000Z</time>
      </trkpt>
      <trkpt lat="42.5680430" lon="-0.6558060">
        <ele>713.700012</ele>
        <time>2018-06-15T06:43:16.000Z</time>
      </trkpt>
      <trkpt lat="42.5681370" lon="-0.6563340">
        <ele>713.599976</ele>
        <time>2018-06-15T06:43:27.000Z</time>
      </trkpt>
      <trkpt lat="42.5681960" lon="-0.6570330">
        <ele>709.200012</ele>
        <time>2018-06-15T06:43:41.000Z</time>
      </trkpt>
      <trkpt lat="42.5682580" lon="-0.6575050">
        <ele>711.899963</ele>
        <time>2018-06-15T06:43:50.000Z</time>
      </trkpt>
      <trkpt lat="42.5682410" lon="-0.6581270">
        <ele>712.200012</ele>
        <time>2018-06-15T06:44:02.000Z</time>
      </trkpt>
      <trkpt lat="42.5681000" lon="-0.6600210">
        <ele>712.899963</ele>
        <time>2018-06-15T06:44:40.000Z</time>
      </trkpt>
      <trkpt lat="42.5680800" lon="-0.6601740">
        <ele>713.700012</ele>
        <time>2018-06-15T06:44:43.000Z</time>
      </trkpt>
      <trkpt lat="42.5678900" lon="-0.6607900">
        <ele>706.800049</ele>
        <time>2018-06-15T06:44:56.000Z</time>
      </trkpt>
      <trkpt lat="42.5678280" lon="-0.6610360">
        <ele>704.500061</ele>
        <time>2018-06-15T06:45:01.000Z</time>
      </trkpt>
      <trkpt lat="42.5678150" lon="-0.6615240">
        <ele>702.700012</ele>
        <time>2018-06-15T06:45:10.000Z</time>
      </trkpt>
      <trkpt lat="42.5678470" lon="-0.6619800">
        <ele>705.100037</ele>
        <time>2018-06-15T06:45:19.000Z</time>
      </trkpt>
      <trkpt lat="42.5679180" lon="-0.6622100">
        <ele>706.900024</ele>
        <time>2018-06-15T06:45:24.000Z</time>
      </trkpt>
      <trkpt lat="42.5680680" lon="-0.6623390">
        <ele>707.900024</ele>
        <time>2018-06-15T06:45:29.000Z</time>
      </trkpt>
      <trkpt lat="42.5682560" lon="-0.6623350">
        <ele>706.399963</ele>
        <time>2018-06-15T06:45:34.000Z</time>
      </trkpt>
      <trkpt lat="42.5687750" lon="-0.6621580">
        <ele>697.799988</ele>
        <time>2018-06-15T06:45:48.000Z</time>
      </trkpt>
      <trkpt lat="42.5690800" lon="-0.6620970">
        <ele>698.699951</ele>
        <time>2018-06-15T06:45:57.000Z</time>
      </trkpt>
      <trkpt lat="42.5699000" lon="-0.6621770">
        <ele>697.400024</ele>
        <time>2018-06-15T06:46:18.000Z</time>
      </trkpt>
      <trkpt lat="42.5700130" lon="-0.6622030">
        <ele>698.900024</ele>
        <time>2018-06-15T06:46:21.000Z</time>
      </trkpt>
      <trkpt lat="42.5700370" lon="-0.6622940">
        <ele>700.500000</ele>
        <time>2018-06-15T06:46:23.000Z</time>
      </trkpt>
      <trkpt lat="42.5700220" lon="-0.6637560">
        <ele>703.599976</ele>
        <time>2018-06-15T06:46:52.000Z</time>
      </trkpt>
      <trkpt lat="42.5700760" lon="-0.6641810">
        <ele>705.100037</ele>
        <time>2018-06-15T06:47:00.000Z</time>
      </trkpt>
      <trkpt lat="42.5701230" lon="-0.6643010">
        <ele>706.000000</ele>
        <time>2018-06-15T06:47:03.000Z</time>
      </trkpt>
      <trkpt lat="42.5701700" lon="-0.6643230">
        <ele>705.899963</ele>
        <time>2018-06-15T06:47:04.000Z</time>
      </trkpt>
      <trkpt lat="42.5703320" lon="-0.6643400">
        <ele>706.000000</ele>
        <time>2018-06-15T06:47:09.000Z</time>
      </trkpt>
      <trkpt lat="42.5704180" lon="-0.6643810">
        <ele>706.000000</ele>
        <time>2018-06-15T06:47:11.000Z</time>
      </trkpt>
      <trkpt lat="42.5705100" lon="-0.6645000">
        <ele>707.900024</ele>
        <time>2018-06-15T06:47:14.000Z</time>
      </trkpt>
      <trkpt lat="42.5707460" lon="-0.6650390">
        <ele>710.000000</ele>
        <time>2018-06-15T06:47:27.000Z</time>
      </trkpt>
      <trkpt lat="42.5708440" lon="-0.6654010">
        <ele>710.599976</ele>
        <time>2018-06-15T06:47:34.000Z</time>
      </trkpt>
      <trkpt lat="42.5708110" lon="-0.6660110">
        <ele>712.599976</ele>
        <time>2018-06-15T06:47:46.000Z</time>
      </trkpt>
      <trkpt lat="42.5708260" lon="-0.6661370">
        <ele>712.100037</ele>
        <time>2018-06-15T06:47:49.000Z</time>
      </trkpt>
      <trkpt lat="42.5709040" lon="-0.6661600">
        <ele>712.299988</ele>
        <time>2018-06-15T06:47:51.000Z</time>
      </trkpt>
      <trkpt lat="42.5712520" lon="-0.6661380">
        <ele>712.000000</ele>
        <time>2018-06-15T06:48:00.000Z</time>
      </trkpt>
      <trkpt lat="42.5713920" lon="-0.6661960">
        <ele>712.000000</ele>
        <time>2018-06-15T06:48:04.000Z</time>
      </trkpt>
      <trkpt lat="42.5715110" lon="-0.6663060">
        <ele>712.599976</ele>
        <time>2018-06-15T06:48:08.000Z</time>
      </trkpt>
      <trkpt lat="42.5717220" lon="-0.6666090">
        <ele>720.000061</ele>
        <time>2018-06-15T06:48:16.000Z</time>
      </trkpt>
      <trkpt lat="42.5719100" lon="-0.6668560">
        <ele>719.799988</ele>
        <time>2018-06-15T06:48:23.000Z</time>
      </trkpt>
      <trkpt lat="42.5719740" lon="-0.6669420">
        <ele>720.500000</ele>
        <time>2018-06-15T06:48:25.000Z</time>
      </trkpt>
      <trkpt lat="42.5720030" lon="-0.6670630">
        <ele>721.100037</ele>
        <time>2018-06-15T06:48:28.000Z</time>
      </trkpt>
      <trkpt lat="42.5719530" lon="-0.6671740">
        <ele>723.200012</ele>
        <time>2018-06-15T06:48:30.000Z</time>
      </trkpt>
      <trkpt lat="42.5719080" lon="-0.6672310">
        <ele>724.700012</ele>
        <time>2018-06-15T06:48:32.000Z</time>
      </trkpt>
      <trkpt lat="42.5718280" lon="-0.6672830">
        <ele>726.200012</ele>
        <time>2018-06-15T06:48:34.000Z</time>
      </trkpt>
      <trkpt lat="42.5710760" lon="-0.6679200">
        <ele>739.299988</ele>
        <time>2018-06-15T06:48:58.000Z</time>
      </trkpt>
      <trkpt lat="42.5709730" lon="-0.6679820">
        <ele>739.099976</ele>
        <time>2018-06-15T06:49:01.000Z</time>
      </trkpt>
      <trkpt lat="42.5709210" lon="-0.6680780">
        <ele>741.200012</ele>
        <time>2018-06-15T06:49:04.000Z</time>
      </trkpt>
      <trkpt lat="42.5708590" lon="-0.6682200">
        <ele>742.299988</ele>
        <time>2018-06-15T06:49:07.000Z</time>
      </trkpt>
      <trkpt lat="42.5707740" lon="-0.6686020">
        <ele>742.400024</ele>
        <time>2018-06-15T06:49:15.000Z</time>
      </trkpt>
      <trkpt lat="42.5704910" lon="-0.6691000">
        <ele>740.899963</ele>
        <time>2018-06-15T06:49:27.000Z</time>
      </trkpt>
      <trkpt lat="42.5701860" lon="-0.6695980">
        <ele>740.700012</ele>
        <time>2018-06-15T06:49:40.000Z</time>
      </trkpt>
      <trkpt lat="42.5701460" lon="-0.6698130">
        <ele>741.700012</ele>
        <time>2018-06-15T06:49:44.000Z</time>
      </trkpt>
      <trkpt lat="42.5701580" lon="-0.6698720">
        <ele>742.400024</ele>
        <time>2018-06-15T06:49:45.000Z</time>
      </trkpt>
      <trkpt lat="42.5702060" lon="-0.6699050">
        <ele>743.299988</ele>
        <time>2018-06-15T06:49:47.000Z</time>
      </trkpt>
      <trkpt lat="42.5702750" lon="-0.6698960">
        <ele>744.799988</ele>
        <time>2018-06-15T06:49:48.000Z</time>
      </trkpt>
      <trkpt lat="42.5703290" lon="-0.6698440">
        <ele>746.000000</ele>
        <time>2018-06-15T06:49:50.000Z</time>
      </trkpt>
      <trkpt lat="42.5704140" lon="-0.6697420">
        <ele>747.900024</ele>
        <time>2018-06-15T06:49:53.000Z</time>
      </trkpt>
      <trkpt lat="42.5705890" lon="-0.6694920">
        <ele>747.099976</ele>
        <time>2018-06-15T06:50:00.000Z</time>
      </trkpt>
      <trkpt lat="42.5708100" lon="-0.6692710">
        <ele>747.500000</ele>
        <time>2018-06-15T06:50:07.000Z</time>
      </trkpt>
      <trkpt lat="42.5710480" lon="-0.6690300">
        <ele>749.299988</ele>
        <time>2018-06-15T06:50:15.000Z</time>
      </trkpt>
      <trkpt lat="42.5712580" lon="-0.6688590">
        <ele>749.299988</ele>
        <time>2018-06-15T06:50:22.000Z</time>
      </trkpt>
      <trkpt lat="42.5714590" lon="-0.6687710">
        <ele>747.599976</ele>
        <time>2018-06-15T06:50:27.000Z</time>
      </trkpt>
      <trkpt lat="42.5718770" lon="-0.6686220">
        <ele>746.700012</ele>
        <time>2018-06-15T06:50:39.000Z</time>
      </trkpt>
      <trkpt lat="42.5721650" lon="-0.6683980">
        <ele>746.399963</ele>
        <time>2018-06-15T06:50:47.000Z</time>
      </trkpt>
      <trkpt lat="42.5724540" lon="-0.6682600">
        <ele>747.599976</ele>
        <time>2018-06-15T06:50:56.000Z</time>
      </trkpt>
      <trkpt lat="42.5728370" lon="-0.6682280">
        <ele>746.399963</ele>
        <time>2018-06-15T06:51:06.000Z</time>
      </trkpt>
      <trkpt lat="42.5730470" lon="-0.6681300">
        <ele>747.400024</ele>
        <time>2018-06-15T06:51:12.000Z</time>
      </trkpt>
      <trkpt lat="42.5732300" lon="-0.6679230">
        <ele>747.300049</ele>
        <time>2018-06-15T06:51:18.000Z</time>
      </trkpt>
      <trkpt lat="42.5735260" lon="-0.6677520">
        <ele>753.500000</ele>
        <time>2018-06-15T06:51:27.000Z</time>
      </trkpt>
      <trkpt lat="42.5738200" lon="-0.6674670">
        <ele>753.000000</ele>
        <time>2018-06-15T06:51:36.000Z</time>
      </trkpt>
      <trkpt lat="42.5738920" lon="-0.6674130">
        <ele>754.400024</ele>
        <time>2018-06-15T06:51:38.000Z</time>
      </trkpt>
      <trkpt lat="42.5743230" lon="-0.6670990">
        <ele>756.100037</ele>
        <time>2018-06-15T06:51:51.000Z</time>
      </trkpt>
      <trkpt lat="42.5746980" lon="-0.6668690">
        <ele>750.399963</ele>
        <time>2018-06-15T06:52:02.000Z</time>
      </trkpt>
      <trkpt lat="42.5748540" lon="-0.6666980">
        <ele>749.200012</ele>
        <time>2018-06-15T06:52:08.000Z</time>
      </trkpt>
      <trkpt lat="42.5751000" lon="-0.6665820">
        <ele>746.800049</ele>
        <time>2018-06-15T06:52:15.000Z</time>
      </trkpt>
      <trkpt lat="42.5753040" lon="-0.6666360">
        <ele>744.000000</ele>
        <time>2018-06-15T06:52:20.000Z</time>
      </trkpt>
      <trkpt lat="42.5755080" lon="-0.6667200">
        <ele>745.099976</ele>
        <time>2018-06-15T06:52:26.000Z</time>
      </trkpt>
      <trkpt lat="42.5758430" lon="-0.6671130">
        <ele>748.400024</ele>
        <time>2018-06-15T06:52:38.000Z</time>
      </trkpt>
      <trkpt lat="42.5760820" lon="-0.6673520">
        <ele>752.700012</ele>
        <time>2018-06-15T06:52:46.000Z</time>
      </trkpt>
      <trkpt lat="42.5762730" lon="-0.6675200">
        <ele>755.199951</ele>
        <time>2018-06-15T06:52:52.000Z</time>
      </trkpt>
      <trkpt lat="42.5763550" lon="-0.6677030">
        <ele>755.000000</ele>
        <time>2018-06-15T06:52:56.000Z</time>
      </trkpt>
      <trkpt lat="42.5765820" lon="-0.6685990">
        <ele>754.900024</ele>
        <time>2018-06-15T06:53:14.000Z</time>
      </trkpt>
      <trkpt lat="42.5768160" lon="-0.6688720">
        <ele>752.700012</ele>
        <time>2018-06-15T06:53:23.000Z</time>
      </trkpt>
      <trkpt lat="42.5771450" lon="-0.6694010">
        <ele>752.399963</ele>
        <time>2018-06-15T06:53:36.000Z</time>
      </trkpt>
      <trkpt lat="42.5781320" lon="-0.6706430">
        <ele>759.000000</ele>
        <time>2018-06-15T06:54:12.000Z</time>
      </trkpt>
      <trkpt lat="42.5785270" lon="-0.6711600">
        <ele>764.799988</ele>
        <time>2018-06-15T06:54:26.000Z</time>
      </trkpt>
      <trkpt lat="42.5791460" lon="-0.6717930">
        <ele>767.899963</ele>
        <time>2018-06-15T06:54:47.000Z</time>
      </trkpt>
      <trkpt lat="42.5793130" lon="-0.6719990">
        <ele>769.099976</ele>
        <time>2018-06-15T06:54:53.000Z</time>
      </trkpt>
      <trkpt lat="42.5794020" lon="-0.6722100">
        <ele>769.900024</ele>
        <time>2018-06-15T06:54:58.000Z</time>
      </trkpt>
      <trkpt lat="42.5798890" lon="-0.6729700">
        <ele>771.899963</ele>
        <time>2018-06-15T06:55:17.000Z</time>
      </trkpt>
      <trkpt lat="42.5801960" lon="-0.6732500">
        <ele>774.500000</ele>
        <time>2018-06-15T06:55:27.000Z</time>
      </trkpt>
      <trkpt lat="42.5804660" lon="-0.6733770">
        <ele>776.599976</ele>
        <time>2018-06-15T06:55:35.000Z</time>
      </trkpt>
      <trkpt lat="42.5806190" lon="-0.6734270">
        <ele>779.799988</ele>
        <time>2018-06-15T06:55:39.000Z</time>
      </trkpt>
      <trkpt lat="42.5807240" lon="-0.6734480">
        <ele>782.299988</ele>
        <time>2018-06-15T06:55:42.000Z</time>
      </trkpt>
      <trkpt lat="42.5807560" lon="-0.6734790">
        <ele>783.000000</ele>
        <time>2018-06-15T06:55:43.000Z</time>
      </trkpt>
      <trkpt lat="42.5807760" lon="-0.6735530">
        <ele>782.900024</ele>
        <time>2018-06-15T06:55:44.000Z</time>
      </trkpt>
      <trkpt lat="42.5807730" lon="-0.6736710">
        <ele>781.800049</ele>
        <time>2018-06-15T06:55:47.000Z</time>
      </trkpt>
      <trkpt lat="42.5807650" lon="-0.6738500">
        <ele>780.700012</ele>
        <time>2018-06-15T06:55:50.000Z</time>
      </trkpt>
      <trkpt lat="42.5807890" lon="-0.6739560">
        <ele>780.899963</ele>
        <time>2018-06-15T06:55:52.000Z</time>
      </trkpt>
      <trkpt lat="42.5808810" lon="-0.6740430">
        <ele>782.299988</ele>
        <time>2018-06-15T06:55:55.000Z</time>
      </trkpt>
      <trkpt lat="42.5809370" lon="-0.6741950">
        <ele>782.799988</ele>
        <time>2018-06-15T06:55:59.000Z</time>
      </trkpt>
      <trkpt lat="42.5809970" lon="-0.6743220">
        <ele>783.400024</ele>
        <time>2018-06-15T06:56:02.000Z</time>
      </trkpt>
      <trkpt lat="42.5811880" lon="-0.6744950">
        <ele>786.600037</ele>
        <time>2018-06-15T06:56:08.000Z</time>
      </trkpt>
      <trkpt lat="42.5815980" lon="-0.6749920">
        <ele>797.000000</ele>
        <time>2018-06-15T06:56:23.000Z</time>
      </trkpt>
      <trkpt lat="42.5816480" lon="-0.6751010">
        <ele>799.200012</ele>
        <time>2018-06-15T06:56:25.000Z</time>
      </trkpt>
      <trkpt lat="42.5816790" lon="-0.6752220">
        <ele>800.799988</ele>
        <time>2018-06-15T06:56:28.000Z</time>
      </trkpt>
      <trkpt lat="42.5817200" lon="-0.6757150">
        <ele>804.099976</ele>
        <time>2018-06-15T06:56:37.000Z</time>
      </trkpt>
      <trkpt lat="42.5817310" lon="-0.6761220">
        <ele>801.799988</ele>
        <time>2018-06-15T06:56:45.000Z</time>
      </trkpt>
      <trkpt lat="42.5817650" lon="-0.6762900">
        <ele>800.700012</ele>
        <time>2018-06-15T06:56:49.000Z</time>
      </trkpt>
      <trkpt lat="42.5818550" lon="-0.6764320">
        <ele>799.000000</ele>
        <time>2018-06-15T06:56:53.000Z</time>
      </trkpt>
      <trkpt lat="42.5820840" lon="-0.6767710">
        <ele>794.400024</ele>
        <time>2018-06-15T06:57:02.000Z</time>
      </trkpt>
      <trkpt lat="42.5825710" lon="-0.6774540">
        <ele>786.400024</ele>
        <time>2018-06-15T06:57:20.000Z</time>
      </trkpt>
      <trkpt lat="42.5828410" lon="-0.6777860">
        <ele>785.400024</ele>
        <time>2018-06-15T06:57:30.000Z</time>
      </trkpt>
      <trkpt lat="42.5833940" lon="-0.6780930">
        <ele>791.900024</ele>
        <time>2018-06-15T06:57:46.000Z</time>
      </trkpt>
      <trkpt lat="42.5833980" lon="-0.6781450">
        <ele>791.700012</ele>
        <time>2018-06-15T06:57:47.000Z</time>
      </trkpt>
      <trkpt lat="42.5833960" lon="-0.6781930">
        <ele>791.499939</ele>
        <time>2018-06-15T06:57:48.000Z</time>
      </trkpt>
      <trkpt lat="42.5833710" lon="-0.6782900">
        <ele>791.400024</ele>
        <time>2018-06-15T06:57:50.000Z</time>
      </trkpt>
      <trkpt lat="42.5833800" lon="-0.6784240">
        <ele>791.599976</ele>
        <time>2018-06-15T06:57:52.000Z</time>
      </trkpt>
      <trkpt lat="42.5834500" lon="-0.6786130">
        <ele>792.299988</ele>
        <time>2018-06-15T06:57:57.000Z</time>
      </trkpt>
      <trkpt lat="42.5834960" lon="-0.6790040">
        <ele>791.599976</ele>
        <time>2018-06-15T06:58:04.000Z</time>
      </trkpt>
      <trkpt lat="42.5834870" lon="-0.6792320">
        <ele>789.099976</ele>
        <time>2018-06-15T06:58:09.000Z</time>
      </trkpt>
      <trkpt lat="42.5835480" lon="-0.6794400">
        <ele>787.599976</ele>
        <time>2018-06-15T06:58:13.000Z</time>
      </trkpt>
      <trkpt lat="42.5835430" lon="-0.6797940">
        <ele>778.999939</ele>
        <time>2018-06-15T06:58:20.000Z</time>
      </trkpt>
      <trkpt lat="42.5835750" lon="-0.6799820">
        <ele>776.099976</ele>
        <time>2018-06-15T06:58:24.000Z</time>
      </trkpt>
      <trkpt lat="42.5836340" lon="-0.6801160">
        <ele>775.500000</ele>
        <time>2018-06-15T06:58:27.000Z</time>
      </trkpt>
      <trkpt lat="42.5836870" lon="-0.6803070">
        <ele>775.000000</ele>
        <time>2018-06-15T06:58:31.000Z</time>
      </trkpt>
      <trkpt lat="42.5836910" lon="-0.6808420">
        <ele>771.000000</ele>
        <time>2018-06-15T06:58:42.000Z</time>
      </trkpt>
      <trkpt lat="42.5836960" lon="-0.6810690">
        <ele>770.900024</ele>
        <time>2018-06-15T06:58:46.000Z</time>
      </trkpt>
      <trkpt lat="42.5838660" lon="-0.6813660">
        <ele>772.300049</ele>
        <time>2018-06-15T06:58:54.000Z</time>
      </trkpt>
      <trkpt lat="42.5839570" lon="-0.6816250">
        <ele>774.500000</ele>
        <time>2018-06-15T06:58:59.000Z</time>
      </trkpt>
      <trkpt lat="42.5840990" lon="-0.6817840">
        <ele>775.999939</ele>
        <time>2018-06-15T06:59:04.000Z</time>
      </trkpt>
      <trkpt lat="42.5847830" lon="-0.6824070">
        <ele>782.200012</ele>
        <time>2018-06-15T06:59:26.000Z</time>
      </trkpt>
      <trkpt lat="42.5850990" lon="-0.6827770">
        <ele>785.099976</ele>
        <time>2018-06-15T06:59:37.000Z</time>
      </trkpt>
      <trkpt lat="42.5853170" lon="-0.6830830">
        <ele>796.800049</ele>
        <time>2018-06-15T06:59:46.000Z</time>
      </trkpt>
      <trkpt lat="42.5856190" lon="-0.6834340">
        <ele>807.299988</ele>
        <time>2018-06-15T06:59:57.000Z</time>
      </trkpt>
      <trkpt lat="42.5857430" lon="-0.6835870">
        <ele>808.000000</ele>
        <time>2018-06-15T07:00:01.000Z</time>
      </trkpt>
      <trkpt lat="42.5858050" lon="-0.6837620">
        <ele>807.500061</ele>
        <time>2018-06-15T07:00:05.000Z</time>
      </trkpt>
      <trkpt lat="42.5859280" lon="-0.6841500">
        <ele>806.099976</ele>
        <time>2018-06-15T07:00:13.000Z</time>
      </trkpt>
      <trkpt lat="42.5863730" lon="-0.6851120">
        <ele>800.799988</ele>
        <time>2018-06-15T07:00:35.000Z</time>
      </trkpt>
      <trkpt lat="42.5865260" lon="-0.6855400">
        <ele>797.000000</ele>
        <time>2018-06-15T07:00:45.000Z</time>
      </trkpt>
      <trkpt lat="42.5867780" lon="-0.6860330">
        <ele>799.600037</ele>
        <time>2018-06-15T07:00:56.000Z</time>
      </trkpt>
      <trkpt lat="42.5871660" lon="-0.6869080">
        <ele>805.799988</ele>
        <time>2018-06-15T07:01:16.000Z</time>
      </trkpt>
      <trkpt lat="42.5872690" lon="-0.6873020">
        <ele>798.699951</ele>
        <time>2018-06-15T07:01:25.000Z</time>
      </trkpt>
      <trkpt lat="42.5872960" lon="-0.6874070">
        <ele>797.300049</ele>
        <time>2018-06-15T07:01:27.000Z</time>
      </trkpt>
      <trkpt lat="42.5872940" lon="-0.6875850">
        <ele>796.700012</ele>
        <time>2018-06-15T07:01:30.000Z</time>
      </trkpt>
      <trkpt lat="42.5872900" lon="-0.6877930">
        <ele>796.899963</ele>
        <time>2018-06-15T07:01:34.000Z</time>
      </trkpt>
      <trkpt lat="42.5873590" lon="-0.6880650">
        <ele>797.500000</ele>
        <time>2018-06-15T07:01:40.000Z</time>
      </trkpt>
      <trkpt lat="42.5874430" lon="-0.6884750">
        <ele>797.000000</ele>
        <time>2018-06-15T07:01:48.000Z</time>
      </trkpt>
      <trkpt lat="42.5874240" lon="-0.6887780">
        <ele>792.400024</ele>
        <time>2018-06-15T07:01:54.000Z</time>
      </trkpt>
      <trkpt lat="42.5874480" lon="-0.6890310">
        <ele>787.399963</ele>
        <time>2018-06-15T07:02:00.000Z</time>
      </trkpt>
      <trkpt lat="42.5876150" lon="-0.6895870">
        <ele>779.599976</ele>
        <time>2018-06-15T07:02:11.000Z</time>
      </trkpt>
      <trkpt lat="42.5876710" lon="-0.6898770">
        <ele>783.199951</ele>
        <time>2018-06-15T07:02:17.000Z</time>
      </trkpt>
      <trkpt lat="42.5877640" lon="-0.6900850">
        <ele>789.299988</ele>
        <time>2018-06-15T07:02:22.000Z</time>
      </trkpt>
      <trkpt lat="42.5879030" lon="-0.6902310">
        <ele>794.300049</ele>
        <time>2018-06-15T07:02:27.000Z</time>
      </trkpt>
      <trkpt lat="42.5879360" lon="-0.6904070">
        <ele>796.299988</ele>
        <time>2018-06-15T07:02:31.000Z</time>
      </trkpt>
      <trkpt lat="42.5879820" lon="-0.6912380">
        <ele>799.399963</ele>
        <time>2018-06-15T07:02:47.000Z</time>
      </trkpt>
      <trkpt lat="42.5879020" lon="-0.6917590">
        <ele>802.899963</ele>
        <time>2018-06-15T07:02:57.000Z</time>
      </trkpt>
      <trkpt lat="42.5876240" lon="-0.6924390">
        <ele>802.199951</ele>
        <time>2018-06-15T07:03:13.000Z</time>
      </trkpt>
      <trkpt lat="42.5876570" lon="-0.6926300">
        <ele>804.099976</ele>
        <time>2018-06-15T07:03:16.000Z</time>
      </trkpt>
      <trkpt lat="42.5877190" lon="-0.6927100">
        <ele>806.399963</ele>
        <time>2018-06-15T07:03:19.000Z</time>
      </trkpt>
      <trkpt lat="42.5878810" lon="-0.6929170">
        <ele>811.000000</ele>
        <time>2018-06-15T07:03:25.000Z</time>
      </trkpt>
      <trkpt lat="42.5884380" lon="-0.6934000">
        <ele>808.000000</ele>
        <time>2018-06-15T07:03:42.000Z</time>
      </trkpt>
      <trkpt lat="42.5888980" lon="-0.6937410">
        <ele>804.500000</ele>
        <time>2018-06-15T07:03:56.000Z</time>
      </trkpt>
      <trkpt lat="42.5892750" lon="-0.6939560">
        <ele>805.500000</ele>
        <time>2018-06-15T07:04:07.000Z</time>
      </trkpt>
      <trkpt lat="42.5894470" lon="-0.6943030">
        <ele>807.599976</ele>
        <time>2018-06-15T07:04:15.000Z</time>
      </trkpt>
      <trkpt lat="42.5895160" lon="-0.6944820">
        <ele>809.900024</ele>
        <time>2018-06-15T07:04:19.000Z</time>
      </trkpt>
      <trkpt lat="42.5895380" lon="-0.6947140">
        <ele>812.100037</ele>
        <time>2018-06-15T07:04:24.000Z</time>
      </trkpt>
      <trkpt lat="42.5893300" lon="-0.6955750">
        <ele>820.699951</ele>
        <time>2018-06-15T07:04:42.000Z</time>
      </trkpt>
      <trkpt lat="42.5891020" lon="-0.6963680">
        <ele>821.200012</ele>
        <time>2018-06-15T07:04:58.000Z</time>
      </trkpt>
      <trkpt lat="42.5889260" lon="-0.6968350">
        <ele>821.500000</ele>
        <time>2018-06-15T07:05:09.000Z</time>
      </trkpt>
      <trkpt lat="42.5888420" lon="-0.6970680">
        <ele>822.200012</ele>
        <time>2018-06-15T07:05:14.000Z</time>
      </trkpt>
      <trkpt lat="42.5888520" lon="-0.6973650">
        <ele>826.900024</ele>
        <time>2018-06-15T07:05:20.000Z</time>
      </trkpt>
      <trkpt lat="42.5889070" lon="-0.6976180">
        <ele>829.299988</ele>
        <time>2018-06-15T07:05:25.000Z</time>
      </trkpt>
      <trkpt lat="42.5889320" lon="-0.6976900">
        <ele>830.100037</ele>
        <time>2018-06-15T07:05:26.000Z</time>
      </trkpt>
      <trkpt lat="42.5889210" lon="-0.6978010">
        <ele>830.299988</ele>
        <time>2018-06-15T07:05:28.000Z</time>
      </trkpt>
      <trkpt lat="42.5888650" lon="-0.6980660">
        <ele>828.799988</ele>
        <time>2018-06-15T07:05:34.000Z</time>
      </trkpt>
      <trkpt lat="42.5886940" lon="-0.6986450">
        <ele>823.400024</ele>
        <time>2018-06-15T07:05:46.000Z</time>
      </trkpt>
      <trkpt lat="42.5885230" lon="-0.6990780">
        <ele>827.600037</ele>
        <time>2018-06-15T07:05:56.000Z</time>
      </trkpt>
      <trkpt lat="42.5883470" lon="-0.6993280">
        <ele>827.500000</ele>
        <time>2018-06-15T07:06:03.000Z</time>
      </trkpt>
      <trkpt lat="42.5872800" lon="-0.7004080">
        <ele>815.000000</ele>
        <time>2018-06-15T07:06:38.000Z</time>
      </trkpt>
      <trkpt lat="42.5873050" lon="-0.7004690">
        <ele>814.400024</ele>
        <time>2018-06-15T07:06:39.000Z</time>
      </trkpt>
      <trkpt lat="42.5873920" lon="-0.7004960">
        <ele>814.799988</ele>
        <time>2018-06-15T07:06:42.000Z</time>
      </trkpt>
      <trkpt lat="42.5874700" lon="-0.7004880">
        <ele>814.099976</ele>
        <time>2018-06-15T07:06:44.000Z</time>
      </trkpt>
      <trkpt lat="42.5883150" lon="-0.6999390">
        <ele>811.000000</ele>
        <time>2018-06-15T07:07:09.000Z</time>
      </trkpt>
      <trkpt lat="42.5884710" lon="-0.6998720">
        <ele>811.899963</ele>
        <time>2018-06-15T07:07:13.000Z</time>
      </trkpt>
      <trkpt lat="42.5885290" lon="-0.6998900">
        <ele>812.700012</ele>
        <time>2018-06-15T07:07:15.000Z</time>
      </trkpt>
      <trkpt lat="42.5885630" lon="-0.6999600">
        <ele>813.200012</ele>
        <time>2018-06-15T07:07:16.000Z</time>
      </trkpt>
      <trkpt lat="42.5885480" lon="-0.7003260">
        <ele>814.099976</ele>
        <time>2018-06-15T07:07:23.000Z</time>
      </trkpt>
      <trkpt lat="42.5881030" lon="-0.7017130">
        <ele>819.099976</ele>
        <time>2018-06-15T07:07:53.000Z</time>
      </trkpt>
      <trkpt lat="42.5869910" lon="-0.7046790">
        <ele>786.899963</ele>
        <time>2018-06-15T07:08:58.000Z</time>
      </trkpt>
      <trkpt lat="42.5869380" lon="-0.7049320">
        <ele>784.900024</ele>
        <time>2018-06-15T07:09:03.000Z</time>
      </trkpt>
      <trkpt lat="42.5869080" lon="-0.7051630">
        <ele>783.299988</ele>
        <time>2018-06-15T07:09:08.000Z</time>
      </trkpt>
      <trkpt lat="42.5869040" lon="-0.7058510">
        <ele>780.100037</ele>
        <time>2018-06-15T07:09:22.000Z</time>
      </trkpt>
      <trkpt lat="42.5869410" lon="-0.7082380">
        <ele>764.799988</ele>
        <time>2018-06-15T07:10:08.000Z</time>
      </trkpt>
      <trkpt lat="42.5869870" lon="-0.7085530">
        <ele>760.299988</ele>
        <time>2018-06-15T07:10:15.000Z</time>
      </trkpt>
      <trkpt lat="42.5871600" lon="-0.7089200">
        <ele>760.099976</ele>
        <time>2018-06-15T07:10:23.000Z</time>
      </trkpt>
      <trkpt lat="42.5872930" lon="-0.7091700">
        <ele>761.899963</ele>
        <time>2018-06-15T07:10:29.000Z</time>
      </trkpt>
      <trkpt lat="42.5873270" lon="-0.7092920">
        <ele>762.599976</ele>
        <time>2018-06-15T07:10:32.000Z</time>
      </trkpt>
      <trkpt lat="42.5873500" lon="-0.7094690">
        <ele>763.499939</ele>
        <time>2018-06-15T07:10:35.000Z</time>
      </trkpt>
      <trkpt lat="42.5873690" lon="-0.7111850">
        <ele>753.700012</ele>
        <time>2018-06-15T07:11:09.000Z</time>
      </trkpt>
      <trkpt lat="42.5874150" lon="-0.7114830">
        <ele>750.799988</ele>
        <time>2018-06-15T07:11:15.000Z</time>
      </trkpt>
      <trkpt lat="42.5876430" lon="-0.7120380">
        <ele>740.700012</ele>
        <time>2018-06-15T07:11:27.000Z</time>
      </trkpt>
      <trkpt lat="42.5881030" lon="-0.7128910">
        <ele>747.400024</ele>
        <time>2018-06-15T07:11:48.000Z</time>
      </trkpt>
      <trkpt lat="42.5883570" lon="-0.7133110">
        <ele>754.699951</ele>
        <time>2018-06-15T07:11:59.000Z</time>
      </trkpt>
      <trkpt lat="42.5883820" lon="-0.7134320">
        <ele>756.000000</ele>
        <time>2018-06-15T07:12:01.000Z</time>
      </trkpt>
      <trkpt lat="42.5883170" lon="-0.7135570">
        <ele>756.500000</ele>
        <time>2018-06-15T07:12:04.000Z</time>
      </trkpt>
      <trkpt lat="42.5879090" lon="-0.7138910">
        <ele>758.600037</ele>
        <time>2018-06-15T07:12:17.000Z</time>
      </trkpt>
      <trkpt lat="42.5880000" lon="-0.7139660">
        <ele>758.600037</ele>
        <time>2018-06-15T07:12:20.000Z</time>
      </trkpt>
      <trkpt lat="42.5881170" lon="-0.7140520">
        <ele>759.399963</ele>
        <time>2018-06-15T07:12:23.000Z</time>
      </trkpt>
      <trkpt lat="42.5882220" lon="-0.7141140">
        <ele>760.900024</ele>
        <time>2018-06-15T07:12:26.000Z</time>
      </trkpt>
      <trkpt lat="42.5883030" lon="-0.7141350">
        <ele>762.299988</ele>
        <time>2018-06-15T07:12:29.000Z</time>
      </trkpt>
      <trkpt lat="42.5883660" lon="-0.7141300">
        <ele>762.899963</ele>
        <time>2018-06-15T07:12:30.000Z</time>
      </trkpt>
      <trkpt lat="42.5884410" lon="-0.7141140">
        <ele>763.499939</ele>
        <time>2018-06-15T07:12:32.000Z</time>
      </trkpt>
      <trkpt lat="42.5885630" lon="-0.7141030">
        <ele>762.700012</ele>
        <time>2018-06-15T07:12:36.000Z</time>
      </trkpt>
      <trkpt lat="42.5886110" lon="-0.7141190">
        <ele>762.500000</ele>
        <time>2018-06-15T07:12:37.000Z</time>
      </trkpt>
      <trkpt lat="42.5886440" lon="-0.7141010">
        <ele>761.899963</ele>
        <time>2018-06-15T07:12:38.000Z</time>
      </trkpt>
      <trkpt lat="42.5886700" lon="-0.7140680">
        <ele>761.100037</ele>
        <time>2018-06-15T07:12:39.000Z</time>
      </trkpt>
      <trkpt lat="42.5887050" lon="-0.7140680">
        <ele>760.799988</ele>
        <time>2018-06-15T07:12:40.000Z</time>
      </trkpt>
      <trkpt lat="42.5887530" lon="-0.7141330">
        <ele>761.100037</ele>
        <time>2018-06-15T07:12:42.000Z</time>
      </trkpt>
      <trkpt lat="42.5888610" lon="-0.7143180">
        <ele>759.399963</ele>
        <time>2018-06-15T07:12:46.000Z</time>
      </trkpt>
      <trkpt lat="42.5888890" lon="-0.7144360">
        <ele>758.500000</ele>
        <time>2018-06-15T07:12:49.000Z</time>
      </trkpt>
      <trkpt lat="42.5888750" lon="-0.7148760">
        <ele>756.599976</ele>
        <time>2018-06-15T07:12:57.000Z</time>
      </trkpt>
      <trkpt lat="42.5888510" lon="-0.7149720">
        <ele>757.299988</ele>
        <time>2018-06-15T07:12:59.000Z</time>
      </trkpt>
      <trkpt lat="42.5888440" lon="-0.7150370">
        <ele>757.500061</ele>
        <time>2018-06-15T07:13:00.000Z</time>
      </trkpt>
      <trkpt lat="42.5888440" lon="-0.7151410">
        <ele>757.200012</ele>
        <time>2018-06-15T07:13:03.000Z</time>
      </trkpt>
      <trkpt lat="42.5888570" lon="-0.7154200">
        <ele>756.000000</ele>
        <time>2018-06-15T07:13:08.000Z</time>
      </trkpt>
      <trkpt lat="42.5888220" lon="-0.7160690">
        <ele>753.900024</ele>
        <time>2018-06-15T07:13:21.000Z</time>
      </trkpt>
      <trkpt lat="42.5888120" lon="-0.7162330">
        <ele>751.299988</ele>
        <time>2018-06-15T07:13:24.000Z</time>
      </trkpt>
      <trkpt lat="42.5887100" lon="-0.7167880">
        <ele>746.800049</ele>
        <time>2018-06-15T07:13:35.000Z</time>
      </trkpt>
      <trkpt lat="42.5886440" lon="-0.7170480">
        <ele>744.000000</ele>
        <time>2018-06-15T07:13:41.000Z</time>
      </trkpt>
      <trkpt lat="42.5884230" lon="-0.7177620">
        <ele>742.099976</ele>
        <time>2018-06-15T07:13:56.000Z</time>
      </trkpt>
      <trkpt lat="42.5884020" lon="-0.7178370">
        <ele>741.299988</ele>
        <time>2018-06-15T07:13:57.000Z</time>
      </trkpt>
      <trkpt lat="42.5882950" lon="-0.7184620">
        <ele>733.299988</ele>
        <time>2018-06-15T07:14:10.000Z</time>
      </trkpt>
      <trkpt lat="42.5882240" lon="-0.7186710">
        <ele>731.800049</ele>
        <time>2018-06-15T07:14:14.000Z</time>
      </trkpt>
      <trkpt lat="42.5881850" lon="-0.7188210">
        <ele>730.400024</ele>
        <time>2018-06-15T07:14:18.000Z</time>
      </trkpt>
      <trkpt lat="42.5881770" lon="-0.7189580">
        <ele>728.700012</ele>
        <time>2018-06-15T07:14:20.000Z</time>
      </trkpt>
      <trkpt lat="42.5881080" lon="-0.7191990">
        <ele>728.900024</ele>
        <time>2018-06-15T07:14:25.000Z</time>
      </trkpt>
      <trkpt lat="42.5880720" lon="-0.7193950">
        <ele>728.799988</ele>
        <time>2018-06-15T07:14:29.000Z</time>
      </trkpt>
      <trkpt lat="42.5880740" lon="-0.7194810">
        <ele>728.200012</ele>
        <time>2018-06-15T07:14:31.000Z</time>
      </trkpt>
      <trkpt lat="42.5880490" lon="-0.7196390">
        <ele>728.500000</ele>
        <time>2018-06-15T07:14:34.000Z</time>
      </trkpt>
      <trkpt lat="42.5880250" lon="-0.7197440">
        <ele>728.999939</ele>
        <time>2018-06-15T07:14:36.000Z</time>
      </trkpt>
      <trkpt lat="42.5880050" lon="-0.7199400">
        <ele>728.200012</ele>
        <time>2018-06-15T07:14:40.000Z</time>
      </trkpt>
      <trkpt lat="42.5879970" lon="-0.7203050">
        <ele>725.799988</ele>
        <time>2018-06-15T07:14:47.000Z</time>
      </trkpt>
      <trkpt lat="42.5879990" lon="-0.7204920">
        <ele>725.099976</ele>
        <time>2018-06-15T07:14:51.000Z</time>
      </trkpt>
      <trkpt lat="42.5879660" lon="-0.7207280">
        <ele>724.100037</ele>
        <time>2018-06-15T07:14:56.000Z</time>
      </trkpt>
      <trkpt lat="42.5879700" lon="-0.7208790">
        <ele>723.200012</ele>
        <time>2018-06-15T07:14:59.000Z</time>
      </trkpt>
      <trkpt lat="42.5879560" lon="-0.7210260">
        <ele>722.599976</ele>
        <time>2018-06-15T07:15:02.000Z</time>
      </trkpt>
      <trkpt lat="42.5878710" lon="-0.7215280">
        <ele>723.799988</ele>
        <time>2018-06-15T07:15:12.000Z</time>
      </trkpt>
      <trkpt lat="42.5878380" lon="-0.7216240">
        <ele>723.299988</ele>
        <time>2018-06-15T07:15:14.000Z</time>
      </trkpt>
      <trkpt lat="42.5877740" lon="-0.7217660">
        <ele>722.099976</ele>
        <time>2018-06-15T07:15:17.000Z</time>
      </trkpt>
      <trkpt lat="42.5877230" lon="-0.7218840">
        <ele>720.600037</ele>
        <time>2018-06-15T07:15:20.000Z</time>
      </trkpt>
      <trkpt lat="42.5877150" lon="-0.7219490">
        <ele>719.799988</ele>
        <time>2018-06-15T07:15:21.000Z</time>
      </trkpt>
      <trkpt lat="42.5876990" lon="-0.7220720">
        <ele>718.200012</ele>
        <time>2018-06-15T07:15:23.000Z</time>
      </trkpt>
      <trkpt lat="42.5876680" lon="-0.7221610">
        <ele>716.599976</ele>
        <time>2018-06-15T07:15:25.000Z</time>
      </trkpt>
      <trkpt lat="42.5876130" lon="-0.7222440">
        <ele>715.599976</ele>
        <time>2018-06-15T07:15:28.000Z</time>
      </trkpt>
      <trkpt lat="42.5875970" lon="-0.7222970">
        <ele>715.000000</ele>
        <time>2018-06-15T07:15:29.000Z</time>
      </trkpt>
      <trkpt lat="42.5876010" lon="-0.7224020">
        <ele>713.400024</ele>
        <time>2018-06-15T07:15:31.000Z</time>
      </trkpt>
      <trkpt lat="42.5876380" lon="-0.7225200">
        <ele>710.700012</ele>
        <time>2018-06-15T07:15:33.000Z</time>
      </trkpt>
      <trkpt lat="42.5876820" lon="-0.7225950">
        <ele>709.900024</ele>
        <time>2018-06-15T07:15:35.000Z</time>
      </trkpt>
      <trkpt lat="42.5876960" lon="-0.7226620">
        <ele>709.399963</ele>
        <time>2018-06-15T07:15:37.000Z</time>
      </trkpt>
      <trkpt lat="42.5876940" lon="-0.7227400">
        <ele>709.399963</ele>
        <time>2018-06-15T07:15:38.000Z</time>
      </trkpt>
      <trkpt lat="42.5876150" lon="-0.7229140">
        <ele>709.300049</ele>
        <time>2018-06-15T07:15:42.000Z</time>
      </trkpt>
      <trkpt lat="42.5874370" lon="-0.7234990">
        <ele>709.500000</ele>
        <time>2018-06-15T07:15:54.000Z</time>
      </trkpt>
      <trkpt lat="42.5873640" lon="-0.7238560">
        <ele>709.800049</ele>
        <time>2018-06-15T07:16:02.000Z</time>
      </trkpt>
      <trkpt lat="42.5873160" lon="-0.7240410">
        <ele>709.900024</ele>
        <time>2018-06-15T07:16:06.000Z</time>
      </trkpt>
      <trkpt lat="42.5872790" lon="-0.7243060">
        <ele>709.500000</ele>
        <time>2018-06-15T07:16:11.000Z</time>
      </trkpt>
      <trkpt lat="42.5870380" lon="-0.7252050">
        <ele>704.900024</ele>
        <time>2018-06-15T07:16:29.000Z</time>
      </trkpt>
      <trkpt lat="42.5869490" lon="-0.7254680">
        <ele>702.299988</ele>
        <time>2018-06-15T07:16:35.000Z</time>
      </trkpt>
      <trkpt lat="42.5869140" lon="-0.7256210">
        <ele>700.700012</ele>
        <time>2018-06-15T07:16:38.000Z</time>
      </trkpt>
      <trkpt lat="42.5868620" lon="-0.7262110">
        <ele>695.299988</ele>
        <time>2018-06-15T07:16:50.000Z</time>
      </trkpt>
      <trkpt lat="42.5868030" lon="-0.7266510">
        <ele>691.099976</ele>
        <time>2018-06-15T07:16:59.000Z</time>
      </trkpt>
      <trkpt lat="42.5868050" lon="-0.7267310">
        <ele>690.500000</ele>
        <time>2018-06-15T07:17:00.000Z</time>
      </trkpt>
      <trkpt lat="42.5868470" lon="-0.7268410">
        <ele>690.100037</ele>
        <time>2018-06-15T07:17:03.000Z</time>
      </trkpt>
      <trkpt lat="42.5868680" lon="-0.7269620">
        <ele>689.799988</ele>
        <time>2018-06-15T07:17:05.000Z</time>
      </trkpt>
      <trkpt lat="42.5868840" lon="-0.7270640">
        <ele>689.400024</ele>
        <time>2018-06-15T07:17:07.000Z</time>
      </trkpt>
      <trkpt lat="42.5868680" lon="-0.7271680">
        <ele>688.900024</ele>
        <time>2018-06-15T07:17:09.000Z</time>
      </trkpt>
      <trkpt lat="42.5868150" lon="-0.7272810">
        <ele>688.299988</ele>
        <time>2018-06-15T07:17:12.000Z</time>
      </trkpt>
      <trkpt lat="42.5867950" lon="-0.7273430">
        <ele>687.899963</ele>
        <time>2018-06-15T07:17:13.000Z</time>
      </trkpt>
      <trkpt lat="42.5867970" lon="-0.7274230">
        <ele>688.099976</ele>
        <time>2018-06-15T07:17:15.000Z</time>
      </trkpt>
      <trkpt lat="42.5869120" lon="-0.7281690">
        <ele>684.800049</ele>
        <time>2018-06-15T07:17:30.000Z</time>
      </trkpt>
      <trkpt lat="42.5870280" lon="-0.7286860">
        <ele>685.099976</ele>
        <time>2018-06-15T07:17:40.000Z</time>
      </trkpt>
      <trkpt lat="42.5871170" lon="-0.7291480">
        <ele>683.500000</ele>
        <time>2018-06-15T07:17:50.000Z</time>
      </trkpt>
      <trkpt lat="42.5872220" lon="-0.7295470">
        <ele>682.099976</ele>
        <time>2018-06-15T07:17:58.000Z</time>
      </trkpt>
      <trkpt lat="42.5872950" lon="-0.7299600">
        <ele>684.200012</ele>
        <time>2018-06-15T07:18:06.000Z</time>
      </trkpt>
      <trkpt lat="42.5874510" lon="-0.7305180">
        <ele>688.200012</ele>
        <time>2018-06-15T07:18:18.000Z</time>
      </trkpt>
      <trkpt lat="42.5874770" lon="-0.7307030">
        <ele>691.599976</ele>
        <time>2018-06-15T07:18:22.000Z</time>
      </trkpt>
      <trkpt lat="42.5874760" lon="-0.7307940">
        <ele>693.100037</ele>
        <time>2018-06-15T07:18:23.000Z</time>
      </trkpt>
      <trkpt lat="42.5874530" lon="-0.7309070">
        <ele>694.900024</ele>
        <time>2018-06-15T07:18:26.000Z</time>
      </trkpt>
      <trkpt lat="42.5874610" lon="-0.7313180">
        <ele>701.299988</ele>
        <time>2018-06-15T07:18:34.000Z</time>
      </trkpt>
      <trkpt lat="42.5874910" lon="-0.7314140">
        <ele>702.600037</ele>
        <time>2018-06-15T07:18:36.000Z</time>
      </trkpt>
      <trkpt lat="42.5875440" lon="-0.7315320">
        <ele>704.099976</ele>
        <time>2018-06-15T07:18:39.000Z</time>
      </trkpt>
      <trkpt lat="42.5875360" lon="-0.7315890">
        <ele>704.699951</ele>
        <time>2018-06-15T07:18:40.000Z</time>
      </trkpt>
      <trkpt lat="42.5874670" lon="-0.7317680">
        <ele>706.399963</ele>
        <time>2018-06-15T07:18:44.000Z</time>
      </trkpt>
      <trkpt lat="42.5874850" lon="-0.7320230">
        <ele>708.100037</ele>
        <time>2018-06-15T07:18:49.000Z</time>
      </trkpt>
      <trkpt lat="42.5875240" lon="-0.7322160">
        <ele>707.799988</ele>
        <time>2018-06-15T07:18:53.000Z</time>
      </trkpt>
      <trkpt lat="42.5876050" lon="-0.7328760">
        <ele>700.999939</ele>
        <time>2018-06-15T07:19:06.000Z</time>
      </trkpt>
      <trkpt lat="42.5877100" lon="-0.7340560">
        <ele>697.900024</ele>
        <time>2018-06-15T07:19:29.000Z</time>
      </trkpt>
      <trkpt lat="42.5877260" lon="-0.7340700">
        <ele>697.700012</ele>
        <time>2018-06-15T07:19:30.000Z</time>
      </trkpt>
      <trkpt lat="42.5877500" lon="-0.7340700">
        <ele>697.400024</ele>
        <time>2018-06-15T07:19:30.000Z</time>
      </trkpt>
      <trkpt lat="42.5880700" lon="-0.7338850">
        <ele>692.600037</ele>
        <time>2018-06-15T07:19:40.000Z</time>
      </trkpt>
      <trkpt lat="42.5882140" lon="-0.7338520">
        <ele>688.900024</ele>
        <time>2018-06-15T07:19:44.000Z</time>
      </trkpt>
      <trkpt lat="42.5882570" lon="-0.7338660">
        <ele>687.399963</ele>
        <time>2018-06-15T07:19:45.000Z</time>
      </trkpt>
      <trkpt lat="42.5882970" lon="-0.7338950">
        <ele>685.700012</ele>
        <time>2018-06-15T07:19:46.000Z</time>
      </trkpt>
      <trkpt lat="42.5883540" lon="-0.7339360">
        <ele>683.299988</ele>
        <time>2018-06-15T07:19:48.000Z</time>
      </trkpt>
      <trkpt lat="42.5886340" lon="-0.7340480">
        <ele>681.300049</ele>
        <time>2018-06-15T07:19:56.000Z</time>
      </trkpt>
      <trkpt lat="42.5887420" lon="-0.7340270">
        <ele>683.799988</ele>
        <time>2018-06-15T07:19:59.000Z</time>
      </trkpt>
      <trkpt lat="42.5890540" lon="-0.7340640">
        <ele>689.199951</ele>
        <time>2018-06-15T07:20:07.000Z</time>
      </trkpt>
      <trkpt lat="42.5891810" lon="-0.7341020">
        <ele>687.100037</ele>
        <time>2018-06-15T07:20:10.000Z</time>
      </trkpt>
      <trkpt lat="42.5894810" lon="-0.7340370">
        <ele>684.700012</ele>
        <time>2018-06-15T07:20:19.000Z</time>
      </trkpt>
      <trkpt lat="42.5895830" lon="-0.7340270">
        <ele>684.000000</ele>
        <time>2018-06-15T07:20:21.000Z</time>
      </trkpt>
      <trkpt lat="42.5898600" lon="-0.7338870">
        <ele>672.599976</ele>
        <time>2018-06-15T07:20:30.000Z</time>
      </trkpt>
      <trkpt lat="42.5899550" lon="-0.7338500">
        <ele>670.699951</ele>
        <time>2018-06-15T07:20:32.000Z</time>
      </trkpt>
      <trkpt lat="42.5903930" lon="-0.7339410">
        <ele>662.299988</ele>
        <time>2018-06-15T07:20:44.000Z</time>
      </trkpt>
      <trkpt lat="42.5907150" lon="-0.7340390">
        <ele>658.100037</ele>
        <time>2018-06-15T07:20:53.000Z</time>
      </trkpt>
      <trkpt lat="42.5908500" lon="-0.7340560">
        <ele>659.100037</ele>
        <time>2018-06-15T07:20:57.000Z</time>
      </trkpt>
      <trkpt lat="42.5910050" lon="-0.7340480">
        <ele>660.400024</ele>
        <time>2018-06-15T07:21:01.000Z</time>
      </trkpt>
      <trkpt lat="42.5911520" lon="-0.7340800">
        <ele>662.100037</ele>
        <time>2018-06-15T07:21:05.000Z</time>
      </trkpt>
      <trkpt lat="42.5914950" lon="-0.7343220">
        <ele>666.000000</ele>
        <time>2018-06-15T07:21:15.000Z</time>
      </trkpt>
      <trkpt lat="42.5916680" lon="-0.7344720">
        <ele>668.299988</ele>
        <time>2018-06-15T07:21:20.000Z</time>
      </trkpt>
      <trkpt lat="42.5922130" lon="-0.7341180">
        <ele>667.299988</ele>
        <time>2018-06-15T07:21:36.000Z</time>
      </trkpt>
      <trkpt lat="42.5922920" lon="-0.7341130">
        <ele>667.600037</ele>
        <time>2018-06-15T07:21:39.000Z</time>
      </trkpt>
      <trkpt lat="42.5923600" lon="-0.7341770">
        <ele>666.799988</ele>
        <time>2018-06-15T07:21:41.000Z</time>
      </trkpt>
      <trkpt lat="42.5925930" lon="-0.7347830">
        <ele>660.499939</ele>
        <time>2018-06-15T07:21:54.000Z</time>
      </trkpt>
      <trkpt lat="42.5928030" lon="-0.7349490">
        <ele>658.199951</ele>
        <time>2018-06-15T07:22:01.000Z</time>
      </trkpt>
      <trkpt lat="42.5935380" lon="-0.7360650">
        <ele>654.500061</ele>
        <time>2018-06-15T07:22:30.000Z</time>
      </trkpt>
      <trkpt lat="42.5934670" lon="-0.7365910">
        <ele>663.000000</ele>
        <time>2018-06-15T07:22:41.000Z</time>
      </trkpt>
      <trkpt lat="42.5933480" lon="-0.7369130">
        <ele>666.499939</ele>
        <time>2018-06-15T07:22:48.000Z</time>
      </trkpt>
      <trkpt lat="42.5931430" lon="-0.7372880">
        <ele>664.899963</ele>
        <time>2018-06-15T07:22:57.000Z</time>
      </trkpt>
      <trkpt lat="42.5930010" lon="-0.7374600">
        <ele>659.500000</ele>
        <time>2018-06-15T07:23:02.000Z</time>
      </trkpt>
      <trkpt lat="42.5929310" lon="-0.7376870">
        <ele>653.999939</ele>
        <time>2018-06-15T07:23:07.000Z</time>
      </trkpt>
      <trkpt lat="42.5928900" lon="-0.7379000">
        <ele>650.599976</ele>
        <time>2018-06-15T07:23:11.000Z</time>
      </trkpt>
      <trkpt lat="42.5929370" lon="-0.7381900">
        <ele>654.400024</ele>
        <time>2018-06-15T07:23:17.000Z</time>
      </trkpt>
      <trkpt lat="42.5929470" lon="-0.7382560">
        <ele>655.400024</ele>
        <time>2018-06-15T07:23:18.000Z</time>
      </trkpt>
      <trkpt lat="42.5929220" lon="-0.7383400">
        <ele>655.700012</ele>
        <time>2018-06-15T07:23:20.000Z</time>
      </trkpt>
      <trkpt lat="42.5924710" lon="-0.7391230">
        <ele>669.400024</ele>
        <time>2018-06-15T07:23:40.000Z</time>
      </trkpt>
      <trkpt lat="42.5919740" lon="-0.7393700">
        <ele>669.599976</ele>
        <time>2018-06-15T07:23:54.000Z</time>
      </trkpt>
      <trkpt lat="42.5915950" lon="-0.7394770">
        <ele>670.900024</ele>
        <time>2018-06-15T07:24:04.000Z</time>
      </trkpt>
      <trkpt lat="42.5913420" lon="-0.7395630">
        <ele>669.799988</ele>
        <time>2018-06-15T07:24:11.000Z</time>
      </trkpt>
      <trkpt lat="42.5911600" lon="-0.7397020">
        <ele>668.899963</ele>
        <time>2018-06-15T07:24:17.000Z</time>
      </trkpt>
      <trkpt lat="42.5910260" lon="-0.7398630">
        <ele>669.200012</ele>
        <time>2018-06-15T07:24:21.000Z</time>
      </trkpt>
      <trkpt lat="42.5907580" lon="-0.7402490">
        <ele>660.200012</ele>
        <time>2018-06-15T07:24:32.000Z</time>
      </trkpt>
      <trkpt lat="42.5906310" lon="-0.7403670">
        <ele>657.000000</ele>
        <time>2018-06-15T07:24:36.000Z</time>
      </trkpt>
      <trkpt lat="42.5905440" lon="-0.7405500">
        <ele>657.400024</ele>
        <time>2018-06-15T07:24:40.000Z</time>
      </trkpt>
      <trkpt lat="42.5905520" lon="-0.7408290">
        <ele>658.799988</ele>
        <time>2018-06-15T07:24:46.000Z</time>
      </trkpt>
      <trkpt lat="42.5905130" lon="-0.7409900">
        <ele>659.399963</ele>
        <time>2018-06-15T07:24:49.000Z</time>
      </trkpt>
      <trkpt lat="42.5905300" lon="-0.7410880">
        <ele>659.599976</ele>
        <time>2018-06-15T07:24:51.000Z</time>
      </trkpt>
      <trkpt lat="42.5905680" lon="-0.7411610">
        <ele>659.300049</ele>
        <time>2018-06-15T07:24:53.000Z</time>
      </trkpt>
      <trkpt lat="42.5914450" lon="-0.7423630">
        <ele>660.900024</ele>
        <time>2018-06-15T07:25:26.000Z</time>
      </trkpt>
      <trkpt lat="42.5916820" lon="-0.7428030">
        <ele>668.500000</ele>
        <time>2018-06-15T07:25:37.000Z</time>
      </trkpt>
      <trkpt lat="42.5918810" lon="-0.7431270">
        <ele>669.000000</ele>
        <time>2018-06-15T07:25:45.000Z</time>
      </trkpt>
      <trkpt lat="42.5920450" lon="-0.7434470">
        <ele>675.099976</ele>
        <time>2018-06-15T07:25:53.000Z</time>
      </trkpt>
      <trkpt lat="42.5921380" lon="-0.7437710">
        <ele>681.500000</ele>
        <time>2018-06-15T07:26:00.000Z</time>
      </trkpt>
      <trkpt lat="42.5922760" lon="-0.7441350">
        <ele>686.000000</ele>
        <time>2018-06-15T07:26:08.000Z</time>
      </trkpt>
      <trkpt lat="42.5924070" lon="-0.7443980">
        <ele>692.000061</ele>
        <time>2018-06-15T07:26:14.000Z</time>
      </trkpt>
      <trkpt lat="42.5924820" lon="-0.7446450">
        <ele>693.500000</ele>
        <time>2018-06-15T07:26:19.000Z</time>
      </trkpt>
      <trkpt lat="42.5924970" lon="-0.7447790">
        <ele>691.799988</ele>
        <time>2018-06-15T07:26:22.000Z</time>
      </trkpt>
      <trkpt lat="42.5926160" lon="-0.7450100">
        <ele>689.500000</ele>
        <time>2018-06-15T07:26:28.000Z</time>
      </trkpt>
      <trkpt lat="42.5929640" lon="-0.7455780">
        <ele>688.000000</ele>
        <time>2018-06-15T07:26:42.000Z</time>
      </trkpt>
      <trkpt lat="42.5930580" lon="-0.7457880">
        <ele>688.900024</ele>
        <time>2018-06-15T07:26:47.000Z</time>
      </trkpt>
      <trkpt lat="42.5931770" lon="-0.7460180">
        <ele>692.000061</ele>
        <time>2018-06-15T07:26:52.000Z</time>
      </trkpt>
      <trkpt lat="42.5933330" lon="-0.7464080">
        <ele>698.099976</ele>
        <time>2018-06-15T07:27:01.000Z</time>
      </trkpt>
      <trkpt lat="42.5935700" lon="-0.7471800">
        <ele>702.600037</ele>
        <time>2018-06-15T07:27:17.000Z</time>
      </trkpt>
      <trkpt lat="42.5939510" lon="-0.7482390">
        <ele>704.400024</ele>
        <time>2018-06-15T07:27:40.000Z</time>
      </trkpt>
      <trkpt lat="42.5939790" lon="-0.7483620">
        <ele>704.400024</ele>
        <time>2018-06-15T07:27:43.000Z</time>
      </trkpt>
      <trkpt lat="42.5940970" lon="-0.7485770">
        <ele>705.199951</ele>
        <time>2018-06-15T07:27:48.000Z</time>
      </trkpt>
      <trkpt lat="42.5943620" lon="-0.7487380">
        <ele>710.900024</ele>
        <time>2018-06-15T07:27:56.000Z</time>
      </trkpt>
      <trkpt lat="42.5943580" lon="-0.7487650">
        <ele>711.100037</ele>
        <time>2018-06-15T07:27:57.000Z</time>
      </trkpt>
      <trkpt lat="42.5942910" lon="-0.7487970">
        <ele>709.500000</ele>
        <time>2018-06-15T07:27:59.000Z</time>
      </trkpt>
      <trkpt lat="42.5942600" lon="-0.7488830">
        <ele>710.599976</ele>
        <time>2018-06-15T07:28:00.000Z</time>
      </trkpt>
      <trkpt lat="42.5942360" lon="-0.7490700">
        <ele>713.299988</ele>
        <time>2018-06-15T07:28:04.000Z</time>
      </trkpt>
      <trkpt lat="42.5942200" lon="-0.7491990">
        <ele>714.799988</ele>
        <time>2018-06-15T07:28:07.000Z</time>
      </trkpt>
      <trkpt lat="42.5941650" lon="-0.7492420">
        <ele>714.799988</ele>
        <time>2018-06-15T07:28:08.000Z</time>
      </trkpt>
      <trkpt lat="42.5941210" lon="-0.7493550">
        <ele>715.200012</ele>
        <time>2018-06-15T07:28:11.000Z</time>
      </trkpt>
      <trkpt lat="42.5941250" lon="-0.7494410">
        <ele>715.700012</ele>
        <time>2018-06-15T07:28:13.000Z</time>
      </trkpt>
      <trkpt lat="42.5942080" lon="-0.7497040">
        <ele>716.099976</ele>
        <time>2018-06-15T07:28:18.000Z</time>
      </trkpt>
      <trkpt lat="42.5942960" lon="-0.7500130">
        <ele>715.299988</ele>
        <time>2018-06-15T07:28:25.000Z</time>
      </trkpt>
      <trkpt lat="42.5944190" lon="-0.7502000">
        <ele>717.900024</ele>
        <time>2018-06-15T07:28:30.000Z</time>
      </trkpt>
      <trkpt lat="42.5945670" lon="-0.7505830">
        <ele>720.099976</ele>
        <time>2018-06-15T07:28:38.000Z</time>
      </trkpt>
      <trkpt lat="42.5946420" lon="-0.7506850">
        <ele>720.699951</ele>
        <time>2018-06-15T07:28:41.000Z</time>
      </trkpt>
      <trkpt lat="42.5948260" lon="-0.7511390">
        <ele>716.599976</ele>
        <time>2018-06-15T07:28:51.000Z</time>
      </trkpt>
      <trkpt lat="42.5948360" lon="-0.7512650">
        <ele>714.899963</ele>
        <time>2018-06-15T07:28:54.000Z</time>
      </trkpt>
      <trkpt lat="42.5948180" lon="-0.7513860">
        <ele>714.400024</ele>
        <time>2018-06-15T07:28:56.000Z</time>
      </trkpt>
      <trkpt lat="42.5947150" lon="-0.7515900">
        <ele>712.599976</ele>
        <time>2018-06-15T07:29:01.000Z</time>
      </trkpt>
      <trkpt lat="42.5946130" lon="-0.7517290">
        <ele>710.299988</ele>
        <time>2018-06-15T07:29:05.000Z</time>
      </trkpt>
      <trkpt lat="42.5942850" lon="-0.7520510">
        <ele>701.299988</ele>
        <time>2018-06-15T07:29:16.000Z</time>
      </trkpt>
      <trkpt lat="42.5940250" lon="-0.7522970">
        <ele>692.900024</ele>
        <time>2018-06-15T07:29:24.000Z</time>
      </trkpt>
      <trkpt lat="42.5938750" lon="-0.7523950">
        <ele>690.599976</ele>
        <time>2018-06-15T07:29:29.000Z</time>
      </trkpt>
      <trkpt lat="42.5935470" lon="-0.7526510">
        <ele>697.900024</ele>
        <time>2018-06-15T07:29:39.000Z</time>
      </trkpt>
      <trkpt lat="42.5934560" lon="-0.7527580">
        <ele>702.299988</ele>
        <time>2018-06-15T07:29:42.000Z</time>
      </trkpt>
      <trkpt lat="42.5933100" lon="-0.7528600">
        <ele>707.400024</ele>
        <time>2018-06-15T07:29:47.000Z</time>
      </trkpt>
      <trkpt lat="42.5932470" lon="-0.7530270">
        <ele>710.500061</ele>
        <time>2018-06-15T07:29:51.000Z</time>
      </trkpt>
      <trkpt lat="42.5932270" lon="-0.7531880">
        <ele>711.500000</ele>
        <time>2018-06-15T07:29:54.000Z</time>
      </trkpt>
      <trkpt lat="42.5932510" lon="-0.7533280">
        <ele>711.199951</ele>
        <time>2018-06-15T07:29:57.000Z</time>
      </trkpt>
      <trkpt lat="42.5932740" lon="-0.7538470">
        <ele>709.500000</ele>
        <time>2018-06-15T07:30:07.000Z</time>
      </trkpt>
      <trkpt lat="42.5933060" lon="-0.7540620">
        <ele>710.000000</ele>
        <time>2018-06-15T07:30:11.000Z</time>
      </trkpt>
      <trkpt lat="42.5933300" lon="-0.7541420">
        <ele>710.400024</ele>
        <time>2018-06-15T07:30:13.000Z</time>
      </trkpt>
      <trkpt lat="42.5933370" lon="-0.7543090">
        <ele>711.400024</ele>
        <time>2018-06-15T07:30:16.000Z</time>
      </trkpt>
      <trkpt lat="42.5933020" lon="-0.7544050">
        <ele>711.500000</ele>
        <time>2018-06-15T07:30:18.000Z</time>
      </trkpt>
      <trkpt lat="42.5932350" lon="-0.7545460">
        <ele>711.699951</ele>
        <time>2018-06-15T07:30:21.000Z</time>
      </trkpt>
      <trkpt lat="42.5932110" lon="-0.7549320">
        <ele>713.700012</ele>
        <time>2018-06-15T07:30:29.000Z</time>
      </trkpt>
      <trkpt lat="42.5930140" lon="-0.7556190">
        <ele>716.200012</ele>
        <time>2018-06-15T07:30:43.000Z</time>
      </trkpt>
      <trkpt lat="42.5928720" lon="-0.7563800">
        <ele>720.500000</ele>
        <time>2018-06-15T07:30:59.000Z</time>
      </trkpt>
      <trkpt lat="42.5928840" lon="-0.7565630">
        <ele>724.100037</ele>
        <time>2018-06-15T07:31:02.000Z</time>
      </trkpt>
      <trkpt lat="42.5927530" lon="-0.7569860">
        <ele>727.299988</ele>
        <time>2018-06-15T07:31:11.000Z</time>
      </trkpt>
      <trkpt lat="42.5926150" lon="-0.7573140">
        <ele>728.200012</ele>
        <time>2018-06-15T07:31:19.000Z</time>
      </trkpt>
      <trkpt lat="42.5925920" lon="-0.7574370">
        <ele>728.300049</ele>
        <time>2018-06-15T07:31:21.000Z</time>
      </trkpt>
      <trkpt lat="42.5925920" lon="-0.7575870">
        <ele>727.700012</ele>
        <time>2018-06-15T07:31:24.000Z</time>
      </trkpt>
      <trkpt lat="42.5928170" lon="-0.7581930">
        <ele>724.299988</ele>
        <time>2018-06-15T07:31:37.000Z</time>
      </trkpt>
      <trkpt lat="42.5931720" lon="-0.7588100">
        <ele>728.500000</ele>
        <time>2018-06-15T07:31:53.000Z</time>
      </trkpt>
      <trkpt lat="42.5934050" lon="-0.7591110">
        <ele>724.100037</ele>
        <time>2018-06-15T07:32:01.000Z</time>
      </trkpt>
      <trkpt lat="42.5936900" lon="-0.7594920">
        <ele>723.600037</ele>
        <time>2018-06-15T07:32:12.000Z</time>
      </trkpt>
      <trkpt lat="42.5937840" lon="-0.7596470">
        <ele>723.699951</ele>
        <time>2018-06-15T07:32:16.000Z</time>
      </trkpt>
      <trkpt lat="42.5940370" lon="-0.7599210">
        <ele>727.700012</ele>
        <time>2018-06-15T07:32:24.000Z</time>
      </trkpt>
      <trkpt lat="42.5942110" lon="-0.7601940">
        <ele>731.900024</ele>
        <time>2018-06-15T07:32:32.000Z</time>
      </trkpt>
      <trkpt lat="42.5943410" lon="-0.7605430">
        <ele>742.000000</ele>
        <time>2018-06-15T07:32:40.000Z</time>
      </trkpt>
      <trkpt lat="42.5943230" lon="-0.7606310">
        <ele>744.200012</ele>
        <time>2018-06-15T07:32:41.000Z</time>
      </trkpt>
      <trkpt lat="42.5942320" lon="-0.7607380">
        <ele>747.599976</ele>
        <time>2018-06-15T07:32:45.000Z</time>
      </trkpt>
      <trkpt lat="42.5937170" lon="-0.7612250">
        <ele>746.399963</ele>
        <time>2018-06-15T07:33:01.000Z</time>
      </trkpt>
      <trkpt lat="42.5920350" lon="-0.7627470">
        <ele>729.699951</ele>
        <time>2018-06-15T07:33:55.000Z</time>
      </trkpt>
      <trkpt lat="42.5915000" lon="-0.7629800">
        <ele>718.299988</ele>
        <time>2018-06-15T07:34:10.000Z</time>
      </trkpt>
      <trkpt lat="42.5900460" lon="-0.7634580">
        <ele>702.799988</ele>
        <time>2018-06-15T07:34:50.000Z</time>
      </trkpt>
      <trkpt lat="42.5897270" lon="-0.7635280">
        <ele>703.700012</ele>
        <time>2018-06-15T07:34:59.000Z</time>
      </trkpt>
      <trkpt lat="42.5896830" lon="-0.7635760">
        <ele>704.200012</ele>
        <time>2018-06-15T07:35:00.000Z</time>
      </trkpt>
      <trkpt lat="42.5896710" lon="-0.7636460">
        <ele>704.099976</ele>
        <time>2018-06-15T07:35:02.000Z</time>
      </trkpt>
      <trkpt lat="42.5898690" lon="-0.7638280">
        <ele>702.500000</ele>
        <time>2018-06-15T07:35:08.000Z</time>
      </trkpt>
      <trkpt lat="42.5898810" lon="-0.7638760">
        <ele>703.500000</ele>
        <time>2018-06-15T07:35:09.000Z</time>
      </trkpt>
      <trkpt lat="42.5898750" lon="-0.7639220">
        <ele>704.299988</ele>
        <time>2018-06-15T07:35:10.000Z</time>
      </trkpt>
      <trkpt lat="42.5896480" lon="-0.7641820">
        <ele>702.600037</ele>
        <time>2018-06-15T07:35:18.000Z</time>
      </trkpt>
      <trkpt lat="42.5895650" lon="-0.7642680">
        <ele>700.999939</ele>
        <time>2018-06-15T07:35:21.000Z</time>
      </trkpt>
      <trkpt lat="42.5894790" lon="-0.7644230">
        <ele>700.700012</ele>
        <time>2018-06-15T07:35:24.000Z</time>
      </trkpt>
      <trkpt lat="42.5894540" lon="-0.7646220">
        <ele>700.700012</ele>
        <time>2018-06-15T07:35:28.000Z</time>
      </trkpt>
      <trkpt lat="42.5894800" lon="-0.7656420">
        <ele>693.700012</ele>
        <time>2018-06-15T07:35:48.000Z</time>
      </trkpt>
      <trkpt lat="42.5896560" lon="-0.7661940">
        <ele>693.100037</ele>
        <time>2018-06-15T07:36:00.000Z</time>
      </trkpt>
      <trkpt lat="42.5896600" lon="-0.7662960">
        <ele>693.500000</ele>
        <time>2018-06-15T07:36:02.000Z</time>
      </trkpt>
      <trkpt lat="42.5896160" lon="-0.7666820">
        <ele>693.700012</ele>
        <time>2018-06-15T07:36:10.000Z</time>
      </trkpt>
      <trkpt lat="42.5896400" lon="-0.7669160">
        <ele>696.500000</ele>
        <time>2018-06-15T07:36:14.000Z</time>
      </trkpt>
      <trkpt lat="42.5897710" lon="-0.7678550">
        <ele>703.399963</ele>
        <time>2018-06-15T07:36:33.000Z</time>
      </trkpt>
      <trkpt lat="42.5898140" lon="-0.7680440">
        <ele>702.700012</ele>
        <time>2018-06-15T07:36:37.000Z</time>
      </trkpt>
      <trkpt lat="42.5899760" lon="-0.7685270">
        <ele>699.700012</ele>
        <time>2018-06-15T07:36:47.000Z</time>
      </trkpt>
      <trkpt lat="42.5902820" lon="-0.7709450">
        <ele>691.700012</ele>
        <time>2018-06-15T07:37:35.000Z</time>
      </trkpt>
      <trkpt lat="42.5903080" lon="-0.7711130">
        <ele>692.400024</ele>
        <time>2018-06-15T07:37:39.000Z</time>
      </trkpt>
      <trkpt lat="42.5903670" lon="-0.7713330">
        <ele>693.000000</ele>
        <time>2018-06-15T07:37:43.000Z</time>
      </trkpt>
      <trkpt lat="42.5907970" lon="-0.7719620">
        <ele>693.100037</ele>
        <time>2018-06-15T07:38:00.000Z</time>
      </trkpt>
      <trkpt lat="42.5910150" lon="-0.7721970">
        <ele>695.000061</ele>
        <time>2018-06-15T07:38:07.000Z</time>
      </trkpt>
      <trkpt lat="42.5911210" lon="-0.7725400">
        <ele>697.200012</ele>
        <time>2018-06-15T07:38:15.000Z</time>
      </trkpt>
      <trkpt lat="42.5911610" lon="-0.7726040">
        <ele>697.300049</ele>
        <time>2018-06-15T07:38:16.000Z</time>
      </trkpt>
      <trkpt lat="42.5912150" lon="-0.7726480">
        <ele>697.200012</ele>
        <time>2018-06-15T07:38:18.000Z</time>
      </trkpt>
      <trkpt lat="42.5915600" lon="-0.7724970">
        <ele>697.900024</ele>
        <time>2018-06-15T07:38:28.000Z</time>
      </trkpt>
      <trkpt lat="42.5916230" lon="-0.7725020">
        <ele>697.799988</ele>
        <time>2018-06-15T07:38:29.000Z</time>
      </trkpt>
      <trkpt lat="42.5917650" lon="-0.7725990">
        <ele>697.300049</ele>
        <time>2018-06-15T07:38:33.000Z</time>
      </trkpt>
      <trkpt lat="42.5925150" lon="-0.7733980">
        <ele>694.300049</ele>
        <time>2018-06-15T07:38:59.000Z</time>
      </trkpt>
      <trkpt lat="42.5925830" lon="-0.7735160">
        <ele>693.399963</ele>
        <time>2018-06-15T07:39:02.000Z</time>
      </trkpt>
      <trkpt lat="42.5928230" lon="-0.7740040">
        <ele>688.299988</ele>
        <time>2018-06-15T07:39:13.000Z</time>
      </trkpt>
      <trkpt lat="42.5929100" lon="-0.7741110">
        <ele>688.000000</ele>
        <time>2018-06-15T07:39:16.000Z</time>
      </trkpt>
      <trkpt lat="42.5930050" lon="-0.7741920">
        <ele>687.899963</ele>
        <time>2018-06-15T07:39:19.000Z</time>
      </trkpt>
      <trkpt lat="42.5933290" lon="-0.7744010">
        <ele>690.599976</ele>
        <time>2018-06-15T07:39:29.000Z</time>
      </trkpt>
      <trkpt lat="42.5934550" lon="-0.7745350">
        <ele>692.000061</ele>
        <time>2018-06-15T07:39:33.000Z</time>
      </trkpt>
      <trkpt lat="42.5935840" lon="-0.7746890">
        <ele>693.899963</ele>
        <time>2018-06-15T07:39:38.000Z</time>
      </trkpt>
      <trkpt lat="42.5939670" lon="-0.7759390">
        <ele>696.100037</ele>
        <time>2018-06-15T07:40:04.000Z</time>
      </trkpt>
      <trkpt lat="42.5941360" lon="-0.7765020">
        <ele>695.500000</ele>
        <time>2018-06-15T07:40:16.000Z</time>
      </trkpt>
      <trkpt lat="42.5942770" lon="-0.7768150">
        <ele>694.300049</ele>
        <time>2018-06-15T07:40:23.000Z</time>
      </trkpt>
      <trkpt lat="42.5945120" lon="-0.7772000">
        <ele>696.600037</ele>
        <time>2018-06-15T07:40:33.000Z</time>
      </trkpt>
      <trkpt lat="42.5947170" lon="-0.7775110">
        <ele>702.100037</ele>
        <time>2018-06-15T07:40:41.000Z</time>
      </trkpt>
      <trkpt lat="42.5948870" lon="-0.7776770">
        <ele>703.900024</ele>
        <time>2018-06-15T07:40:47.000Z</time>
      </trkpt>
      <trkpt lat="42.5951710" lon="-0.7778540">
        <ele>709.900024</ele>
        <time>2018-06-15T07:40:55.000Z</time>
      </trkpt>
      <trkpt lat="42.5952740" lon="-0.7779350">
        <ele>710.900024</ele>
        <time>2018-06-15T07:40:58.000Z</time>
      </trkpt>
      <trkpt lat="42.5953570" lon="-0.7780690">
        <ele>711.000000</ele>
        <time>2018-06-15T07:41:02.000Z</time>
      </trkpt>
      <trkpt lat="42.5958420" lon="-0.7795170">
        <ele>713.000000</ele>
        <time>2018-06-15T07:41:33.000Z</time>
      </trkpt>
      <trkpt lat="42.5960530" lon="-0.7799760">
        <ele>711.600037</ele>
        <time>2018-06-15T07:41:43.000Z</time>
      </trkpt>
      <trkpt lat="42.5964960" lon="-0.7810590">
        <ele>709.700012</ele>
        <time>2018-06-15T07:42:07.000Z</time>
      </trkpt>
      <trkpt lat="42.5966580" lon="-0.7817140">
        <ele>709.000000</ele>
        <time>2018-06-15T07:42:21.000Z</time>
      </trkpt>
      <trkpt lat="42.5969380" lon="-0.7825830">
        <ele>706.500000</ele>
        <time>2018-06-15T07:42:39.000Z</time>
      </trkpt>
      <trkpt lat="42.5972200" lon="-0.7836500">
        <ele>707.900024</ele>
        <time>2018-06-15T07:43:02.000Z</time>
      </trkpt>
      <trkpt lat="42.5972770" lon="-0.7838270">
        <ele>709.500000</ele>
        <time>2018-06-15T07:43:05.000Z</time>
      </trkpt>
      <trkpt lat="42.5973170" lon="-0.7838750">
        <ele>710.000000</ele>
        <time>2018-06-15T07:43:07.000Z</time>
      </trkpt>
      <trkpt lat="42.5973670" lon="-0.7839070">
        <ele>710.500061</ele>
        <time>2018-06-15T07:43:08.000Z</time>
      </trkpt>
      <trkpt lat="42.5973800" lon="-0.7839850">
        <ele>710.299988</ele>
        <time>2018-06-15T07:43:10.000Z</time>
      </trkpt>
      <trkpt lat="42.5973750" lon="-0.7842880">
        <ele>709.100037</ele>
        <time>2018-06-15T07:43:16.000Z</time>
      </trkpt>
      <trkpt lat="42.5973530" lon="-0.7846950">
        <ele>706.300049</ele>
        <time>2018-06-15T07:43:24.000Z</time>
      </trkpt>
      <trkpt lat="42.5973750" lon="-0.7848910">
        <ele>705.199951</ele>
        <time>2018-06-15T07:43:28.000Z</time>
      </trkpt>
      <trkpt lat="42.5974640" lon="-0.7852430">
        <ele>706.200012</ele>
        <time>2018-06-15T07:43:35.000Z</time>
      </trkpt>
      <trkpt lat="42.5975130" lon="-0.7854840">
        <ele>707.200012</ele>
        <time>2018-06-15T07:43:40.000Z</time>
      </trkpt>
      <trkpt lat="42.5974910" lon="-0.7855210">
        <ele>706.900024</ele>
        <time>2018-06-15T07:43:41.000Z</time>
      </trkpt>
      <trkpt lat="42.5974580" lon="-0.7855480">
        <ele>706.399963</ele>
        <time>2018-06-15T07:43:42.000Z</time>
      </trkpt>
      <trkpt lat="42.5973530" lon="-0.7855830">
        <ele>705.000000</ele>
        <time>2018-06-15T07:43:45.000Z</time>
      </trkpt>
      <trkpt lat="42.5973350" lon="-0.7856100">
        <ele>704.900024</ele>
        <time>2018-06-15T07:43:45.000Z</time>
      </trkpt>
      <trkpt lat="42.5973470" lon="-0.7856960">
        <ele>705.000000</ele>
        <time>2018-06-15T07:43:47.000Z</time>
      </trkpt>
      <trkpt lat="42.5974640" lon="-0.7859290">
        <ele>706.399963</ele>
        <time>2018-06-15T07:43:53.000Z</time>
      </trkpt>
      <trkpt lat="42.5976290" lon="-0.7861950">
        <ele>700.700012</ele>
        <time>2018-06-15T07:44:00.000Z</time>
      </trkpt>
      <trkpt lat="42.5977080" lon="-0.7862830">
        <ele>697.599976</ele>
        <time>2018-06-15T07:44:02.000Z</time>
      </trkpt>
      <trkpt lat="42.5978090" lon="-0.7863050">
        <ele>696.299988</ele>
        <time>2018-06-15T07:44:05.000Z</time>
      </trkpt>
      <trkpt lat="42.5979090" lon="-0.7862970">
        <ele>695.600037</ele>
        <time>2018-06-15T07:44:08.000Z</time>
      </trkpt>
      <trkpt lat="42.5980280" lon="-0.7862970">
        <ele>694.799988</ele>
        <time>2018-06-15T07:44:11.000Z</time>
      </trkpt>
      <trkpt lat="42.5980900" lon="-0.7863150">
        <ele>694.300049</ele>
        <time>2018-06-15T07:44:13.000Z</time>
      </trkpt>
      <trkpt lat="42.5981410" lon="-0.7863690">
        <ele>693.800049</ele>
        <time>2018-06-15T07:44:14.000Z</time>
      </trkpt>
      <trkpt lat="42.5982000" lon="-0.7864640">
        <ele>693.299988</ele>
        <time>2018-06-15T07:44:17.000Z</time>
      </trkpt>
      <trkpt lat="42.5983380" lon="-0.7866950">
        <ele>695.200012</ele>
        <time>2018-06-15T07:44:23.000Z</time>
      </trkpt>
      <trkpt lat="42.5985120" lon="-0.7869140">
        <ele>697.700012</ele>
        <time>2018-06-15T07:44:29.000Z</time>
      </trkpt>
      <trkpt lat="42.5991200" lon="-0.7878760">
        <ele>699.100037</ele>
        <time>2018-06-15T07:44:54.000Z</time>
      </trkpt>
      <trkpt lat="42.5994240" lon="-0.7884750">
        <ele>700.399963</ele>
        <time>2018-06-15T07:45:08.000Z</time>
      </trkpt>
      <trkpt lat="42.5997790" lon="-0.7893460">
        <ele>698.599976</ele>
        <time>2018-06-15T07:45:27.000Z</time>
      </trkpt>
      <trkpt lat="42.5999200" lon="-0.7897200">
        <ele>698.500000</ele>
        <time>2018-06-15T07:45:35.000Z</time>
      </trkpt>
      <trkpt lat="42.6000350" lon="-0.7899510">
        <ele>698.299988</ele>
        <time>2018-06-15T07:45:41.000Z</time>
      </trkpt>
      <trkpt lat="42.6002010" lon="-0.7901510">
        <ele>697.700012</ele>
        <time>2018-06-15T07:45:47.000Z</time>
      </trkpt>
      <trkpt lat="42.6004220" lon="-0.7903260">
        <ele>696.299988</ele>
        <time>2018-06-15T07:45:54.000Z</time>
      </trkpt>
      <trkpt lat="42.6008770" lon="-0.7907630">
        <ele>698.400024</ele>
        <time>2018-06-15T07:46:08.000Z</time>
      </trkpt>
      <trkpt lat="42.6015810" lon="-0.7915260">
        <ele>693.600037</ele>
        <time>2018-06-15T07:46:32.000Z</time>
      </trkpt>
      <trkpt lat="42.6018610" lon="-0.7918170">
        <ele>702.100037</ele>
        <time>2018-06-15T07:46:42.000Z</time>
      </trkpt>
      <trkpt lat="42.6021610" lon="-0.7920960">
        <ele>708.700012</ele>
        <time>2018-06-15T07:46:52.000Z</time>
      </trkpt>
      <trkpt lat="42.6030250" lon="-0.7930710">
        <ele>713.000000</ele>
        <time>2018-06-15T07:47:21.000Z</time>
      </trkpt>
      <trkpt lat="42.6031640" lon="-0.7932120">
        <ele>715.500000</ele>
        <time>2018-06-15T07:47:26.000Z</time>
      </trkpt>
      <trkpt lat="42.6032510" lon="-0.7932810">
        <ele>716.599976</ele>
        <time>2018-06-15T07:47:29.000Z</time>
      </trkpt>
      <trkpt lat="42.6033570" lon="-0.7932510">
        <ele>717.900024</ele>
        <time>2018-06-15T07:47:32.000Z</time>
      </trkpt>
      <trkpt lat="42.6034440" lon="-0.7931960">
        <ele>719.599976</ele>
        <time>2018-06-15T07:47:34.000Z</time>
      </trkpt>
      <trkpt lat="42.6035350" lon="-0.7932010">
        <ele>719.200012</ele>
        <time>2018-06-15T07:47:37.000Z</time>
      </trkpt>
      <trkpt lat="42.6036470" lon="-0.7933140">
        <ele>716.900024</ele>
        <time>2018-06-15T07:47:40.000Z</time>
      </trkpt>
      <trkpt lat="42.6036930" lon="-0.7934420">
        <ele>715.500000</ele>
        <time>2018-06-15T07:47:43.000Z</time>
      </trkpt>
      <trkpt lat="42.6037430" lon="-0.7937390">
        <ele>716.900024</ele>
        <time>2018-06-15T07:47:49.000Z</time>
      </trkpt>
      <trkpt lat="42.6039000" lon="-0.7940760">
        <ele>714.299988</ele>
        <time>2018-06-15T07:47:57.000Z</time>
      </trkpt>
      <trkpt lat="42.6040700" lon="-0.7944010">
        <ele>709.800049</ele>
        <time>2018-06-15T07:48:05.000Z</time>
      </trkpt>
      <trkpt lat="42.6045740" lon="-0.7951490">
        <ele>703.200012</ele>
        <time>2018-06-15T07:48:25.000Z</time>
      </trkpt>
      <trkpt lat="42.6047160" lon="-0.7954270">
        <ele>706.100037</ele>
        <time>2018-06-15T07:48:31.000Z</time>
      </trkpt>
      <trkpt lat="42.6050130" lon="-0.7957430">
        <ele>709.399963</ele>
        <time>2018-06-15T07:48:41.000Z</time>
      </trkpt>
      <trkpt lat="42.6056110" lon="-0.7963930">
        <ele>706.399963</ele>
        <time>2018-06-15T07:49:02.000Z</time>
      </trkpt>
      <trkpt lat="42.6063200" lon="-0.7969770">
        <ele>701.299988</ele>
        <time>2018-06-15T07:49:24.000Z</time>
      </trkpt>
      <trkpt lat="42.6070490" lon="-0.7974390">
        <ele>713.900024</ele>
        <time>2018-06-15T07:49:45.000Z</time>
      </trkpt>
      <trkpt lat="42.6074370" lon="-0.7977000">
        <ele>720.799988</ele>
        <time>2018-06-15T07:49:57.000Z</time>
      </trkpt>
      <trkpt lat="42.6077990" lon="-0.7977780">
        <ele>724.299988</ele>
        <time>2018-06-15T07:50:07.000Z</time>
      </trkpt>
      <trkpt lat="42.6080670" lon="-0.7976770">
        <ele>725.700012</ele>
        <time>2018-06-15T07:50:14.000Z</time>
      </trkpt>
      <trkpt lat="42.6085990" lon="-0.7972620">
        <ele>727.100037</ele>
        <time>2018-06-15T07:50:30.000Z</time>
      </trkpt>
      <trkpt lat="42.6086660" lon="-0.7972390">
        <ele>725.500000</ele>
        <time>2018-06-15T07:50:32.000Z</time>
      </trkpt>
      <trkpt lat="42.6087480" lon="-0.7972520">
        <ele>722.799988</ele>
        <time>2018-06-15T07:50:34.000Z</time>
      </trkpt>
      <trkpt lat="42.6088230" lon="-0.7973380">
        <ele>718.399963</ele>
        <time>2018-06-15T07:50:37.000Z</time>
      </trkpt>
      <trkpt lat="42.6089050" lon="-0.7974590">
        <ele>712.800049</ele>
        <time>2018-06-15T07:50:41.000Z</time>
      </trkpt>
      <trkpt lat="42.6089190" lon="-0.7975170">
        <ele>711.000000</ele>
        <time>2018-06-15T07:50:42.000Z</time>
      </trkpt>
      <trkpt lat="42.6089100" lon="-0.7976060">
        <ele>708.700012</ele>
        <time>2018-06-15T07:50:44.000Z</time>
      </trkpt>
      <trkpt lat="42.6088700" lon="-0.7976700">
        <ele>707.900024</ele>
        <time>2018-06-15T07:50:45.000Z</time>
      </trkpt>
      <trkpt lat="42.6088470" lon="-0.7977810">
        <ele>707.099976</ele>
        <time>2018-06-15T07:50:48.000Z</time>
      </trkpt>
      <trkpt lat="42.6088840" lon="-0.7979340">
        <ele>705.500000</ele>
        <time>2018-06-15T07:50:51.000Z</time>
      </trkpt>
      <trkpt lat="42.6089710" lon="-0.7981000">
        <ele>706.200012</ele>
        <time>2018-06-15T07:50:55.000Z</time>
      </trkpt>
      <trkpt lat="42.6092270" lon="-0.7984660">
        <ele>712.800049</ele>
        <time>2018-06-15T07:51:05.000Z</time>
      </trkpt>
      <trkpt lat="42.6093440" lon="-0.7985840">
        <ele>715.800049</ele>
        <time>2018-06-15T07:51:09.000Z</time>
      </trkpt>
      <trkpt lat="42.6094890" lon="-0.7986000">
        <ele>719.500000</ele>
        <time>2018-06-15T07:51:13.000Z</time>
      </trkpt>
      <trkpt lat="42.6095860" lon="-0.7985620">
        <ele>721.700012</ele>
        <time>2018-06-15T07:51:15.000Z</time>
      </trkpt>
      <trkpt lat="42.6096630" lon="-0.7985690">
        <ele>723.900024</ele>
        <time>2018-06-15T07:51:18.000Z</time>
      </trkpt>
      <trkpt lat="42.6097010" lon="-0.7986320">
        <ele>725.599976</ele>
        <time>2018-06-15T07:51:19.000Z</time>
      </trkpt>
      <trkpt lat="42.6097080" lon="-0.7987470">
        <ele>727.000000</ele>
        <time>2018-06-15T07:51:21.000Z</time>
      </trkpt>
      <trkpt lat="42.6096820" lon="-0.7988810">
        <ele>725.700012</ele>
        <time>2018-06-15T07:51:24.000Z</time>
      </trkpt>
      <trkpt lat="42.6096230" lon="-0.7990630">
        <ele>723.400024</ele>
        <time>2018-06-15T07:51:28.000Z</time>
      </trkpt>
      <trkpt lat="42.6094800" lon="-0.7993140">
        <ele>718.399963</ele>
        <time>2018-06-15T07:51:34.000Z</time>
      </trkpt>
      <trkpt lat="42.6094000" lon="-0.7994160">
        <ele>715.800049</ele>
        <time>2018-06-15T07:51:37.000Z</time>
      </trkpt>
      <trkpt lat="42.6093410" lon="-0.7995520">
        <ele>712.100037</ele>
        <time>2018-06-15T07:51:41.000Z</time>
      </trkpt>
      <trkpt lat="42.6093200" lon="-0.7997220">
        <ele>709.599976</ele>
        <time>2018-06-15T07:51:44.000Z</time>
      </trkpt>
      <trkpt lat="42.6093510" lon="-0.7998340">
        <ele>708.299988</ele>
        <time>2018-06-15T07:51:46.000Z</time>
      </trkpt>
      <trkpt lat="42.6094160" lon="-0.7999460">
        <ele>706.900024</ele>
        <time>2018-06-15T07:51:49.000Z</time>
      </trkpt>
      <trkpt lat="42.6094960" lon="-0.8001150">
        <ele>705.000000</ele>
        <time>2018-06-15T07:51:53.000Z</time>
      </trkpt>
      <trkpt lat="42.6099490" lon="-0.8007200">
        <ele>711.699951</ele>
        <time>2018-06-15T07:52:10.000Z</time>
      </trkpt>
      <trkpt lat="42.6102410" lon="-0.8012300">
        <ele>714.099976</ele>
        <time>2018-06-15T07:52:23.000Z</time>
      </trkpt>
      <trkpt lat="42.6104120" lon="-0.8014040">
        <ele>716.000000</ele>
        <time>2018-06-15T07:52:28.000Z</time>
      </trkpt>
      <trkpt lat="42.6112530" lon="-0.8018010">
        <ele>725.000000</ele>
        <time>2018-06-15T07:52:52.000Z</time>
      </trkpt>
      <trkpt lat="42.6113430" lon="-0.8017980">
        <ele>725.000000</ele>
        <time>2018-06-15T07:52:54.000Z</time>
      </trkpt>
      <trkpt lat="42.6113860" lon="-0.8016750">
        <ele>724.299988</ele>
        <time>2018-06-15T07:52:57.000Z</time>
      </trkpt>
      <trkpt lat="42.6116300" lon="-0.8003560">
        <ele>728.399963</ele>
        <time>2018-06-15T07:53:24.000Z</time>
      </trkpt>
      <trkpt lat="42.6117010" lon="-0.8000730">
        <ele>730.799988</ele>
        <time>2018-06-15T07:53:29.000Z</time>
      </trkpt>
      <trkpt lat="42.6120580" lon="-0.7991520">
        <ele>740.100037</ele>
        <time>2018-06-15T07:53:50.000Z</time>
      </trkpt>
      <trkpt lat="42.6121350" lon="-0.7989780">
        <ele>740.599976</ele>
        <time>2018-06-15T07:53:54.000Z</time>
      </trkpt>
      <trkpt lat="42.6122580" lon="-0.7988700">
        <ele>739.299988</ele>
        <time>2018-06-15T07:53:58.000Z</time>
      </trkpt>
      <trkpt lat="42.6124120" lon="-0.7988350">
        <ele>737.299988</ele>
        <time>2018-06-15T07:54:02.000Z</time>
      </trkpt>
      <trkpt lat="42.6144420" lon="-0.7990380">
        <ele>753.700012</ele>
        <time>2018-06-15T07:54:56.000Z</time>
      </trkpt>
      <trkpt lat="42.6147490" lon="-0.7990540">
        <ele>757.200012</ele>
        <time>2018-06-15T07:55:04.000Z</time>
      </trkpt>
      <trkpt lat="42.6148680" lon="-0.7989620">
        <ele>758.000000</ele>
        <time>2018-06-15T07:55:08.000Z</time>
      </trkpt>
      <trkpt lat="42.6149790" lon="-0.7988660">
        <ele>756.599976</ele>
        <time>2018-06-15T07:55:11.000Z</time>
      </trkpt>
      <trkpt lat="42.6150450" lon="-0.7988160">
        <ele>756.100037</ele>
        <time>2018-06-15T07:55:13.000Z</time>
      </trkpt>
      <trkpt lat="42.6151130" lon="-0.7988310">
        <ele>756.300049</ele>
        <time>2018-06-15T07:55:15.000Z</time>
      </trkpt>
      <trkpt lat="42.6151600" lon="-0.7989210">
        <ele>756.700012</ele>
        <time>2018-06-15T07:55:17.000Z</time>
      </trkpt>
      <trkpt lat="42.6152090" lon="-0.7991020">
        <ele>756.500000</ele>
        <time>2018-06-15T07:55:21.000Z</time>
      </trkpt>
      <trkpt lat="42.6152670" lon="-0.7991650">
        <ele>756.300049</ele>
        <time>2018-06-15T07:55:23.000Z</time>
      </trkpt>
      <trkpt lat="42.6153500" lon="-0.7992310">
        <ele>756.100037</ele>
        <time>2018-06-15T07:55:26.000Z</time>
      </trkpt>
      <trkpt lat="42.6154840" lon="-0.7993000">
        <ele>756.000000</ele>
        <time>2018-06-15T07:55:29.000Z</time>
      </trkpt>
      <trkpt lat="42.6155710" lon="-0.7993750">
        <ele>755.100037</ele>
        <time>2018-06-15T07:55:32.000Z</time>
      </trkpt>
      <trkpt lat="42.6157580" lon="-0.7996010">
        <ele>753.599976</ele>
        <time>2018-06-15T07:55:39.000Z</time>
      </trkpt>
      <trkpt lat="42.6158310" lon="-0.7997190">
        <ele>753.500000</ele>
        <time>2018-06-15T07:55:42.000Z</time>
      </trkpt>
      <trkpt lat="42.6159810" lon="-0.7997990">
        <ele>754.099976</ele>
        <time>2018-06-15T07:55:46.000Z</time>
      </trkpt>
      <trkpt lat="42.6160360" lon="-0.7998780">
        <ele>754.099976</ele>
        <time>2018-06-15T07:55:48.000Z</time>
      </trkpt>
      <trkpt lat="42.6162110" lon="-0.8000710">
        <ele>752.700012</ele>
        <time>2018-06-15T07:55:54.000Z</time>
      </trkpt>
      <trkpt lat="42.6164240" lon="-0.8002480">
        <ele>758.500000</ele>
        <time>2018-06-15T07:56:01.000Z</time>
      </trkpt>
      <trkpt lat="42.6165170" lon="-0.8003970">
        <ele>760.099976</ele>
        <time>2018-06-15T07:56:05.000Z</time>
      </trkpt>
      <trkpt lat="42.6165650" lon="-0.8005780">
        <ele>761.100037</ele>
        <time>2018-06-15T07:56:09.000Z</time>
      </trkpt>
      <trkpt lat="42.6165800" lon="-0.8009550">
        <ele>762.100037</ele>
        <time>2018-06-15T07:56:16.000Z</time>
      </trkpt>
      <trkpt lat="42.6165870" lon="-0.8012250">
        <ele>757.200012</ele>
        <time>2018-06-15T07:56:21.000Z</time>
      </trkpt>
      <trkpt lat="42.6166520" lon="-0.8014210">
        <ele>755.299988</ele>
        <time>2018-06-15T07:56:26.000Z</time>
      </trkpt>
      <trkpt lat="42.6167450" lon="-0.8015990">
        <ele>754.299988</ele>
        <time>2018-06-15T07:56:30.000Z</time>
      </trkpt>
      <trkpt lat="42.6169480" lon="-0.8018610">
        <ele>753.300049</ele>
        <time>2018-06-15T07:56:37.000Z</time>
      </trkpt>
      <trkpt lat="42.6170580" lon="-0.8020580">
        <ele>752.199951</ele>
        <time>2018-06-15T07:56:42.000Z</time>
      </trkpt>
      <trkpt lat="42.6171760" lon="-0.8022740">
        <ele>750.000000</ele>
        <time>2018-06-15T07:56:47.000Z</time>
      </trkpt>
      <trkpt lat="42.6173280" lon="-0.8024480">
        <ele>747.000000</ele>
        <time>2018-06-15T07:56:53.000Z</time>
      </trkpt>
      <trkpt lat="42.6173890" lon="-0.8025080">
        <ele>745.500000</ele>
        <time>2018-06-15T07:56:55.000Z</time>
      </trkpt>
      <trkpt lat="42.6175130" lon="-0.8025900">
        <ele>743.100037</ele>
        <time>2018-06-15T07:56:58.000Z</time>
      </trkpt>
      <trkpt lat="42.6176410" lon="-0.8025970">
        <ele>741.099976</ele>
        <time>2018-06-15T07:57:02.000Z</time>
      </trkpt>
      <trkpt lat="42.6177060" lon="-0.8025870">
        <ele>739.600037</ele>
        <time>2018-06-15T07:57:04.000Z</time>
      </trkpt>
      <trkpt lat="42.6177970" lon="-0.8026090">
        <ele>737.200012</ele>
        <time>2018-06-15T07:57:06.000Z</time>
      </trkpt>
      <trkpt lat="42.6179460" lon="-0.8026790">
        <ele>734.100037</ele>
        <time>2018-06-15T07:57:10.000Z</time>
      </trkpt>
      <trkpt lat="42.6181940" lon="-0.8028600">
        <ele>734.000000</ele>
        <time>2018-06-15T07:57:18.000Z</time>
      </trkpt>
      <trkpt lat="42.6183800" lon="-0.8030050">
        <ele>732.500061</ele>
        <time>2018-06-15T07:57:24.000Z</time>
      </trkpt>
      <trkpt lat="42.6184830" lon="-0.8031320">
        <ele>731.100037</ele>
        <time>2018-06-15T07:57:27.000Z</time>
      </trkpt>
      <trkpt lat="42.6186060" lon="-0.8033350">
        <ele>731.599976</ele>
        <time>2018-06-15T07:57:32.000Z</time>
      </trkpt>
      <trkpt lat="42.6186670" lon="-0.8034680">
        <ele>731.599976</ele>
        <time>2018-06-15T07:57:35.000Z</time>
      </trkpt>
      <trkpt lat="42.6186830" lon="-0.8035890">
        <ele>730.700012</ele>
        <time>2018-06-15T07:57:38.000Z</time>
      </trkpt>
      <trkpt lat="42.6186960" lon="-0.8036730">
        <ele>730.100037</ele>
        <time>2018-06-15T07:57:40.000Z</time>
      </trkpt>
      <trkpt lat="42.6187920" lon="-0.8040050">
        <ele>729.200012</ele>
        <time>2018-06-15T07:57:47.000Z</time>
      </trkpt>
      <trkpt lat="42.6188470" lon="-0.8045210">
        <ele>727.600037</ele>
        <time>2018-06-15T07:57:57.000Z</time>
      </trkpt>
      <trkpt lat="42.6189120" lon="-0.8048020">
        <ele>727.700012</ele>
        <time>2018-06-15T07:58:02.000Z</time>
      </trkpt>
      <trkpt lat="42.6190170" lon="-0.8050590">
        <ele>726.500000</ele>
        <time>2018-06-15T07:58:08.000Z</time>
      </trkpt>
      <trkpt lat="42.6191170" lon="-0.8052240">
        <ele>724.199951</ele>
        <time>2018-06-15T07:58:12.000Z</time>
      </trkpt>
      <trkpt lat="42.6193030" lon="-0.8053890">
        <ele>721.000000</ele>
        <time>2018-06-15T07:58:18.000Z</time>
      </trkpt>
      <trkpt lat="42.6194480" lon="-0.8055500">
        <ele>722.000000</ele>
        <time>2018-06-15T07:58:23.000Z</time>
      </trkpt>
      <trkpt lat="42.6195440" lon="-0.8057370">
        <ele>723.000061</ele>
        <time>2018-06-15T07:58:28.000Z</time>
      </trkpt>
      <trkpt lat="42.6195730" lon="-0.8059890">
        <ele>722.900024</ele>
        <time>2018-06-15T07:58:33.000Z</time>
      </trkpt>
      <trkpt lat="42.6195460" lon="-0.8062890">
        <ele>721.700012</ele>
        <time>2018-06-15T07:58:39.000Z</time>
      </trkpt>
      <trkpt lat="42.6195020" lon="-0.8066500">
        <ele>720.699951</ele>
        <time>2018-06-15T07:58:46.000Z</time>
      </trkpt>
      <trkpt lat="42.6194810" lon="-0.8070590">
        <ele>716.299988</ele>
        <time>2018-06-15T07:58:54.000Z</time>
      </trkpt>
      <trkpt lat="42.6194710" lon="-0.8073090">
        <ele>712.700012</ele>
        <time>2018-06-15T07:58:59.000Z</time>
      </trkpt>
      <trkpt lat="42.6194990" lon="-0.8074700">
        <ele>711.199951</ele>
        <time>2018-06-15T07:59:02.000Z</time>
      </trkpt>
      <trkpt lat="42.6195460" lon="-0.8076200">
        <ele>710.099976</ele>
        <time>2018-06-15T07:59:05.000Z</time>
      </trkpt>
      <trkpt lat="42.6197860" lon="-0.8080760">
        <ele>709.900024</ele>
        <time>2018-06-15T07:59:16.000Z</time>
      </trkpt>
      <trkpt lat="42.6198440" lon="-0.8082470">
        <ele>709.100037</ele>
        <time>2018-06-15T07:59:20.000Z</time>
      </trkpt>
      <trkpt lat="42.6199190" lon="-0.8085890">
        <ele>706.200012</ele>
        <time>2018-06-15T07:59:27.000Z</time>
      </trkpt>
      <trkpt lat="42.6199630" lon="-0.8089000">
        <ele>704.599976</ele>
        <time>2018-06-15T07:59:33.000Z</time>
      </trkpt>
      <trkpt lat="42.6200160" lon="-0.8091440">
        <ele>703.000000</ele>
        <time>2018-06-15T07:59:38.000Z</time>
      </trkpt>
      <trkpt lat="42.6202900" lon="-0.8096700">
        <ele>703.900024</ele>
        <time>2018-06-15T07:59:51.000Z</time>
      </trkpt>
      <trkpt lat="42.6205310" lon="-0.8101320">
        <ele>710.000000</ele>
        <time>2018-06-15T08:00:02.000Z</time>
      </trkpt>
      <trkpt lat="42.6205930" lon="-0.8103290">
        <ele>708.600037</ele>
        <time>2018-06-15T08:00:06.000Z</time>
      </trkpt>
      <trkpt lat="42.6206680" lon="-0.8106680">
        <ele>706.399963</ele>
        <time>2018-06-15T08:00:13.000Z</time>
      </trkpt>
      <trkpt lat="42.6207470" lon="-0.8108840">
        <ele>703.000000</ele>
        <time>2018-06-15T08:00:18.000Z</time>
      </trkpt>
      <trkpt lat="42.6208190" lon="-0.8110390">
        <ele>700.300049</ele>
        <time>2018-06-15T08:00:21.000Z</time>
      </trkpt>
      <trkpt lat="42.6213250" lon="-0.8116580">
        <ele>691.900024</ele>
        <time>2018-06-15T08:00:39.000Z</time>
      </trkpt>
      <trkpt lat="42.6215190" lon="-0.8119550">
        <ele>691.099976</ele>
        <time>2018-06-15T08:00:47.000Z</time>
      </trkpt>
      <trkpt lat="42.6216520" lon="-0.8122570">
        <ele>691.400024</ele>
        <time>2018-06-15T08:00:54.000Z</time>
      </trkpt>
      <trkpt lat="42.6219320" lon="-0.8127950">
        <ele>687.399963</ele>
        <time>2018-06-15T08:01:07.000Z</time>
      </trkpt>
      <trkpt lat="42.6220570" lon="-0.8129560">
        <ele>686.099976</ele>
        <time>2018-06-15T08:01:12.000Z</time>
      </trkpt>
      <trkpt lat="42.6222910" lon="-0.8131210">
        <ele>683.899963</ele>
        <time>2018-06-15T08:01:19.000Z</time>
      </trkpt>
      <trkpt lat="42.6225040" lon="-0.8132630">
        <ele>683.600037</ele>
        <time>2018-06-15T08:01:25.000Z</time>
      </trkpt>
      <trkpt lat="42.6226430" lon="-0.8134720">
        <ele>686.000000</ele>
        <time>2018-06-15T08:01:30.000Z</time>
      </trkpt>
      <trkpt lat="42.6227150" lon="-0.8136820">
        <ele>687.700012</ele>
        <time>2018-06-15T08:01:35.000Z</time>
      </trkpt>
      <trkpt lat="42.6227650" lon="-0.8139550">
        <ele>688.099976</ele>
        <time>2018-06-15T08:01:40.000Z</time>
      </trkpt>
      <trkpt lat="42.6227490" lon="-0.8143210">
        <ele>686.299988</ele>
        <time>2018-06-15T08:01:48.000Z</time>
      </trkpt>
      <trkpt lat="42.6226480" lon="-0.8149040">
        <ele>680.799988</ele>
        <time>2018-06-15T08:01:59.000Z</time>
      </trkpt>
      <trkpt lat="42.6225910" lon="-0.8154850">
        <ele>677.299988</ele>
        <time>2018-06-15T08:02:11.000Z</time>
      </trkpt>
      <trkpt lat="42.6224930" lon="-0.8162200">
        <ele>678.200012</ele>
        <time>2018-06-15T08:02:25.000Z</time>
      </trkpt>
      <trkpt lat="42.6224090" lon="-0.8165590">
        <ele>678.799988</ele>
        <time>2018-06-15T08:02:32.000Z</time>
      </trkpt>
      <trkpt lat="42.6223690" lon="-0.8167020">
        <ele>678.799988</ele>
        <time>2018-06-15T08:02:35.000Z</time>
      </trkpt>
      <trkpt lat="42.6222740" lon="-0.8168040">
        <ele>678.399963</ele>
        <time>2018-06-15T08:02:39.000Z</time>
      </trkpt>
      <trkpt lat="42.6222130" lon="-0.8169010">
        <ele>678.099976</ele>
        <time>2018-06-15T08:02:41.000Z</time>
      </trkpt>
      <trkpt lat="42.6221360" lon="-0.8170240">
        <ele>677.500000</ele>
        <time>2018-06-15T08:02:44.000Z</time>
      </trkpt>
      <trkpt lat="42.6220640" lon="-0.8171960">
        <ele>677.199951</ele>
        <time>2018-06-15T08:02:48.000Z</time>
      </trkpt>
      <trkpt lat="42.6220480" lon="-0.8173040">
        <ele>677.399963</ele>
        <time>2018-06-15T08:02:50.000Z</time>
      </trkpt>
      <trkpt lat="42.6220500" lon="-0.8173800">
        <ele>677.600037</ele>
        <time>2018-06-15T08:02:52.000Z</time>
      </trkpt>
      <trkpt lat="42.6221580" lon="-0.8174720">
        <ele>678.900024</ele>
        <time>2018-06-15T08:02:55.000Z</time>
      </trkpt>
      <trkpt lat="42.6222940" lon="-0.8175680">
        <ele>680.799988</ele>
        <time>2018-06-15T08:02:59.000Z</time>
      </trkpt>
      <trkpt lat="42.6225030" lon="-0.8178960">
        <ele>684.500000</ele>
        <time>2018-06-15T08:03:08.000Z</time>
      </trkpt>
      <trkpt lat="42.6227550" lon="-0.8181620">
        <ele>684.100037</ele>
        <time>2018-06-15T08:03:16.000Z</time>
      </trkpt>
      <trkpt lat="42.6229590" lon="-0.8182160">
        <ele>680.199951</ele>
        <time>2018-06-15T08:03:22.000Z</time>
      </trkpt>
      <trkpt lat="42.6231140" lon="-0.8181190">
        <ele>677.100037</ele>
        <time>2018-06-15T08:03:26.000Z</time>
      </trkpt>
      <trkpt lat="42.6232380" lon="-0.8178660">
        <ele>677.299988</ele>
        <time>2018-06-15T08:03:32.000Z</time>
      </trkpt>
      <trkpt lat="42.6233680" lon="-0.8175070">
        <ele>677.199951</ele>
        <time>2018-06-15T08:03:40.000Z</time>
      </trkpt>
      <trkpt lat="42.6234390" lon="-0.8172550">
        <ele>678.599976</ele>
        <time>2018-06-15T08:03:45.000Z</time>
      </trkpt>
      <trkpt lat="42.6234150" lon="-0.8170780">
        <ele>680.600037</ele>
        <time>2018-06-15T08:03:49.000Z</time>
      </trkpt>
      <trkpt lat="42.6232510" lon="-0.8170170">
        <ele>682.400024</ele>
        <time>2018-06-15T08:03:53.000Z</time>
      </trkpt>
      <trkpt lat="42.6226180" lon="-0.8168560">
        <ele>682.900024</ele>
        <time>2018-06-15T08:04:10.000Z</time>
      </trkpt>
      <trkpt lat="42.6225870" lon="-0.8168030">
        <ele>682.200012</ele>
        <time>2018-06-15T08:04:12.000Z</time>
      </trkpt>
      <trkpt lat="42.6225820" lon="-0.8167080">
        <ele>681.800049</ele>
        <time>2018-06-15T08:04:14.000Z</time>
      </trkpt>
      <trkpt lat="42.6226130" lon="-0.8166120">
        <ele>681.900024</ele>
        <time>2018-06-15T08:04:16.000Z</time>
      </trkpt>
      <trkpt lat="42.6229020" lon="-0.8163290">
        <ele>682.000000</ele>
        <time>2018-06-15T08:04:25.000Z</time>
      </trkpt>
      <trkpt lat="42.6230400" lon="-0.8161440">
        <ele>681.599976</ele>
        <time>2018-06-15T08:04:30.000Z</time>
      </trkpt>
      <trkpt lat="42.6233180" lon="-0.8159030">
        <ele>680.000000</ele>
        <time>2018-06-15T08:04:39.000Z</time>
      </trkpt>
      <trkpt lat="42.6233710" lon="-0.8158360">
        <ele>679.299988</ele>
        <time>2018-06-15T08:04:41.000Z</time>
      </trkpt>
      <trkpt lat="42.6233950" lon="-0.8157260">
        <ele>678.500000</ele>
        <time>2018-06-15T08:04:43.000Z</time>
      </trkpt>
      <trkpt lat="42.6233060" lon="-0.8153080">
        <ele>678.599976</ele>
        <time>2018-06-15T08:04:52.000Z</time>
      </trkpt>
      <trkpt lat="42.6232580" lon="-0.8150050">
        <ele>678.399963</ele>
        <time>2018-06-15T08:04:58.000Z</time>
      </trkpt>
      <trkpt lat="42.6232190" lon="-0.8147760">
        <ele>678.300049</ele>
        <time>2018-06-15T08:05:02.000Z</time>
      </trkpt>
      <trkpt lat="42.6232250" lon="-0.8145300">
        <ele>676.400024</ele>
        <time>2018-06-15T08:05:07.000Z</time>
      </trkpt>
      <trkpt lat="42.6232550" lon="-0.8143310">
        <ele>674.500000</ele>
        <time>2018-06-15T08:05:11.000Z</time>
      </trkpt>
      <trkpt lat="42.6232840" lon="-0.8141940">
        <ele>673.099976</ele>
        <time>2018-06-15T08:05:14.000Z</time>
      </trkpt>
      <trkpt lat="42.6232820" lon="-0.8141270">
        <ele>673.400024</ele>
        <time>2018-06-15T08:05:15.000Z</time>
      </trkpt>
      <trkpt lat="42.6232760" lon="-0.8140360">
        <ele>674.000000</ele>
        <time>2018-06-15T08:05:17.000Z</time>
      </trkpt>
      <trkpt lat="42.6233100" lon="-0.8140040">
        <ele>671.899963</ele>
        <time>2018-06-15T08:05:18.000Z</time>
      </trkpt>
      <trkpt lat="42.6233410" lon="-0.8139990">
        <ele>670.000061</ele>
        <time>2018-06-15T08:05:19.000Z</time>
      </trkpt>
      <trkpt lat="42.6233930" lon="-0.8140600">
        <ele>666.799988</ele>
        <time>2018-06-15T08:05:21.000Z</time>
      </trkpt>
      <trkpt lat="42.6235740" lon="-0.8144300">
        <ele>655.199951</ele>
        <time>2018-06-15T08:05:30.000Z</time>
      </trkpt>
      <trkpt lat="42.6237740" lon="-0.8148410">
        <ele>642.799988</ele>
        <time>2018-06-15T08:05:40.000Z</time>
      </trkpt>
      <trkpt lat="42.6241660" lon="-0.8154300">
        <ele>639.699951</ele>
        <time>2018-06-15T08:05:56.000Z</time>
      </trkpt>
      <trkpt lat="42.6243720" lon="-0.8156060">
        <ele>631.000000</ele>
        <time>2018-06-15T08:06:03.000Z</time>
      </trkpt>
      <trkpt lat="42.6245320" lon="-0.8156920">
        <ele>624.399963</ele>
        <time>2018-06-15T08:06:07.000Z</time>
      </trkpt>
      <trkpt lat="42.6247770" lon="-0.8155610">
        <ele>618.099976</ele>
        <time>2018-06-15T08:06:15.000Z</time>
      </trkpt>
      <trkpt lat="42.6248960" lon="-0.8154870">
        <ele>617.200012</ele>
        <time>2018-06-15T08:06:18.000Z</time>
      </trkpt>
      <trkpt lat="42.6249240" lon="-0.8154790">
        <ele>617.100037</ele>
        <time>2018-06-15T08:06:19.000Z</time>
      </trkpt>
      <trkpt lat="42.6249470" lon="-0.8155440">
        <ele>617.000000</ele>
        <time>2018-06-15T08:06:20.000Z</time>
      </trkpt>
      <trkpt lat="42.6250660" lon="-0.8157070">
        <ele>615.700012</ele>
        <time>2018-06-15T08:06:25.000Z</time>
      </trkpt>
      <trkpt lat="42.6250290" lon="-0.8159020">
        <ele>615.100037</ele>
        <time>2018-06-15T08:06:29.000Z</time>
      </trkpt>
      <trkpt lat="42.6250670" lon="-0.8160480">
        <ele>614.599976</ele>
        <time>2018-06-15T08:06:32.000Z</time>
      </trkpt>
      <trkpt lat="42.6251560" lon="-0.8161820">
        <ele>614.899963</ele>
        <time>2018-06-15T08:06:35.000Z</time>
      </trkpt>
      <trkpt lat="42.6252630" lon="-0.8162450">
        <ele>615.900024</ele>
        <time>2018-06-15T08:06:38.000Z</time>
      </trkpt>
      <trkpt lat="42.6255120" lon="-0.8163590">
        <ele>617.200012</ele>
        <time>2018-06-15T08:06:45.000Z</time>
      </trkpt>
      <trkpt lat="42.6256260" lon="-0.8164160">
        <ele>616.400024</ele>
        <time>2018-06-15T08:06:49.000Z</time>
      </trkpt>
      <trkpt lat="42.6256780" lon="-0.8164890">
        <ele>615.500000</ele>
        <time>2018-06-15T08:06:51.000Z</time>
      </trkpt>
      <trkpt lat="42.6257080" lon="-0.8166980">
        <ele>614.299988</ele>
        <time>2018-06-15T08:06:55.000Z</time>
      </trkpt>
      <trkpt lat="42.6258500" lon="-0.8175360">
        <ele>609.400024</ele>
        <time>2018-06-15T08:07:12.000Z</time>
      </trkpt>
      <trkpt lat="42.6258880" lon="-0.8177990">
        <ele>608.200012</ele>
        <time>2018-06-15T08:07:17.000Z</time>
      </trkpt>
      <trkpt lat="42.6258520" lon="-0.8179620">
        <ele>606.900024</ele>
        <time>2018-06-15T08:07:20.000Z</time>
      </trkpt>
      <trkpt lat="42.6250580" lon="-0.8188130">
        <ele>606.299988</ele>
        <time>2018-06-15T08:07:47.000Z</time>
      </trkpt>
      <trkpt lat="42.6250290" lon="-0.8188760">
        <ele>605.700012</ele>
        <time>2018-06-15T08:07:48.000Z</time>
      </trkpt>
      <trkpt lat="42.6250260" lon="-0.8189630">
        <ele>605.099976</ele>
        <time>2018-06-15T08:07:50.000Z</time>
      </trkpt>
      <trkpt lat="42.6251480" lon="-0.8191440">
        <ele>604.099976</ele>
        <time>2018-06-15T08:07:55.000Z</time>
      </trkpt>
      <trkpt lat="42.6259030" lon="-0.8203850">
        <ele>623.900024</ele>
        <time>2018-06-15T08:08:27.000Z</time>
      </trkpt>
      <trkpt lat="42.6259860" lon="-0.8204990">
        <ele>627.000000</ele>
        <time>2018-06-15T08:08:30.000Z</time>
      </trkpt>
      <trkpt lat="42.6259980" lon="-0.8205660">
        <ele>627.799988</ele>
        <time>2018-06-15T08:08:31.000Z</time>
      </trkpt>
      <trkpt lat="42.6259950" lon="-0.8206370">
        <ele>628.099976</ele>
        <time>2018-06-15T08:08:33.000Z</time>
      </trkpt>
      <trkpt lat="42.6259520" lon="-0.8206920">
        <ele>627.600037</ele>
        <time>2018-06-15T08:08:34.000Z</time>
      </trkpt>
      <trkpt lat="42.6258710" lon="-0.8207110">
        <ele>626.200012</ele>
        <time>2018-06-15T08:08:36.000Z</time>
      </trkpt>
      <trkpt lat="42.6258000" lon="-0.8207990">
        <ele>624.299988</ele>
        <time>2018-06-15T08:08:39.000Z</time>
      </trkpt>
      <trkpt lat="42.6257340" lon="-0.8208930">
        <ele>622.000000</ele>
        <time>2018-06-15T08:08:42.000Z</time>
      </trkpt>
      <trkpt lat="42.6256570" lon="-0.8211910">
        <ele>615.700012</ele>
        <time>2018-06-15T08:08:48.000Z</time>
      </trkpt>
      <trkpt lat="42.6255910" lon="-0.8216900">
        <ele>608.200012</ele>
        <time>2018-06-15T08:08:58.000Z</time>
      </trkpt>
      <trkpt lat="42.6255030" lon="-0.8219770">
        <ele>608.899963</ele>
        <time>2018-06-15T08:09:04.000Z</time>
      </trkpt>
      <trkpt lat="42.6253790" lon="-0.8222520">
        <ele>610.700012</ele>
        <time>2018-06-15T08:09:10.000Z</time>
      </trkpt>
      <trkpt lat="42.6251160" lon="-0.8225430">
        <ele>615.100037</ele>
        <time>2018-06-15T08:09:19.000Z</time>
      </trkpt>
      <trkpt lat="42.6249580" lon="-0.8226880">
        <ele>615.100037</ele>
        <time>2018-06-15T08:09:24.000Z</time>
      </trkpt>
      <trkpt lat="42.6247140" lon="-0.8229100">
        <ele>613.299988</ele>
        <time>2018-06-15T08:09:32.000Z</time>
      </trkpt>
      <trkpt lat="42.6244950" lon="-0.8232220">
        <ele>613.500000</ele>
        <time>2018-06-15T08:09:41.000Z</time>
      </trkpt>
      <trkpt lat="42.6242590" lon="-0.8238400">
        <ele>619.799988</ele>
        <time>2018-06-15T08:09:54.000Z</time>
      </trkpt>
      <trkpt lat="42.6239160" lon="-0.8244250">
        <ele>620.000000</ele>
        <time>2018-06-15T08:10:09.000Z</time>
      </trkpt>
      <trkpt lat="42.6237710" lon="-0.8246790">
        <ele>618.700012</ele>
        <time>2018-06-15T08:10:15.000Z</time>
      </trkpt>
      <trkpt lat="42.6233870" lon="-0.8253340">
        <ele>623.799988</ele>
        <time>2018-06-15T08:10:32.000Z</time>
      </trkpt>
      <trkpt lat="42.6228890" lon="-0.8258240">
        <ele>618.600037</ele>
        <time>2018-06-15T08:10:48.000Z</time>
      </trkpt>
      <trkpt lat="42.6224490" lon="-0.8262620">
        <ele>603.500000</ele>
        <time>2018-06-15T08:11:03.000Z</time>
      </trkpt>
      <trkpt lat="42.6223740" lon="-0.8263740">
        <ele>601.799988</ele>
        <time>2018-06-15T08:11:06.000Z</time>
      </trkpt>
      <trkpt lat="42.6223620" lon="-0.8265410">
        <ele>601.000000</ele>
        <time>2018-06-15T08:11:09.000Z</time>
      </trkpt>
      <trkpt lat="42.6223740" lon="-0.8268520">
        <ele>601.400024</ele>
        <time>2018-06-15T08:11:15.000Z</time>
      </trkpt>
      <trkpt lat="42.6223390" lon="-0.8270770">
        <ele>602.099976</ele>
        <time>2018-06-15T08:11:20.000Z</time>
      </trkpt>
      <trkpt lat="42.6222600" lon="-0.8273560">
        <ele>606.700012</ele>
        <time>2018-06-15T08:11:26.000Z</time>
      </trkpt>
      <trkpt lat="42.6220700" lon="-0.8277210">
        <ele>609.700012</ele>
        <time>2018-06-15T08:11:34.000Z</time>
      </trkpt>
      <trkpt lat="42.6219720" lon="-0.8279890">
        <ele>611.599976</ele>
        <time>2018-06-15T08:11:40.000Z</time>
      </trkpt>
      <trkpt lat="42.6218890" lon="-0.8282820">
        <ele>610.299988</ele>
        <time>2018-06-15T08:11:46.000Z</time>
      </trkpt>
      <trkpt lat="42.6218240" lon="-0.8295640">
        <ele>604.600037</ele>
        <time>2018-06-15T08:12:11.000Z</time>
      </trkpt>
      <trkpt lat="42.6218380" lon="-0.8299470">
        <ele>608.200012</ele>
        <time>2018-06-15T08:12:19.000Z</time>
      </trkpt>
      <trkpt lat="42.6218850" lon="-0.8303820">
        <ele>610.200012</ele>
        <time>2018-06-15T08:12:28.000Z</time>
      </trkpt>
      <trkpt lat="42.6218650" lon="-0.8305380">
        <ele>608.299988</ele>
        <time>2018-06-15T08:12:31.000Z</time>
      </trkpt>
      <trkpt lat="42.6216660" lon="-0.8307280">
        <ele>604.600037</ele>
        <time>2018-06-15T08:12:37.000Z</time>
      </trkpt>
      <trkpt lat="42.6216200" lon="-0.8308270">
        <ele>604.299988</ele>
        <time>2018-06-15T08:12:39.000Z</time>
      </trkpt>
      <trkpt lat="42.6215800" lon="-0.8309440">
        <ele>603.400024</ele>
        <time>2018-06-15T08:12:42.000Z</time>
      </trkpt>
      <trkpt lat="42.6213380" lon="-0.8324470">
        <ele>602.900024</ele>
        <time>2018-06-15T08:13:12.000Z</time>
      </trkpt>
      <trkpt lat="42.6212590" lon="-0.8330280">
        <ele>602.500000</ele>
        <time>2018-06-15T08:13:24.000Z</time>
      </trkpt>
      <trkpt lat="42.6212170" lon="-0.8332130">
        <ele>602.099976</ele>
        <time>2018-06-15T08:13:27.000Z</time>
      </trkpt>
      <trkpt lat="42.6210870" lon="-0.8334610">
        <ele>602.600037</ele>
        <time>2018-06-15T08:13:33.000Z</time>
      </trkpt>
      <trkpt lat="42.6210120" lon="-0.8336750">
        <ele>602.099976</ele>
        <time>2018-06-15T08:13:38.000Z</time>
      </trkpt>
      <trkpt lat="42.6210160" lon="-0.8339500">
        <ele>599.900024</ele>
        <time>2018-06-15T08:13:43.000Z</time>
      </trkpt>
      <trkpt lat="42.6210390" lon="-0.8340620">
        <ele>599.000000</ele>
        <time>2018-06-15T08:13:46.000Z</time>
      </trkpt>
      <trkpt lat="42.6210640" lon="-0.8342710">
        <ele>597.599976</ele>
        <time>2018-06-15T08:13:50.000Z</time>
      </trkpt>
      <trkpt lat="42.6210940" lon="-0.8347480">
        <ele>594.599976</ele>
        <time>2018-06-15T08:13:59.000Z</time>
      </trkpt>
      <trkpt lat="42.6211390" lon="-0.8348310">
        <ele>594.200012</ele>
        <time>2018-06-15T08:14:01.000Z</time>
      </trkpt>
      <trkpt lat="42.6211550" lon="-0.8349580">
        <ele>593.500000</ele>
        <time>2018-06-15T08:14:04.000Z</time>
      </trkpt>
      <trkpt lat="42.6211490" lon="-0.8350790">
        <ele>592.900024</ele>
        <time>2018-06-15T08:14:06.000Z</time>
      </trkpt>
      <trkpt lat="42.6211490" lon="-0.8351900">
        <ele>592.900024</ele>
        <time>2018-06-15T08:14:08.000Z</time>
      </trkpt>
      <trkpt lat="42.6211270" lon="-0.8354080">
        <ele>594.099976</ele>
        <time>2018-06-15T08:14:12.000Z</time>
      </trkpt>
      <trkpt lat="42.6211960" lon="-0.8354050">
        <ele>594.500000</ele>
        <time>2018-06-15T08:14:14.000Z</time>
      </trkpt>
      <trkpt lat="42.6213580" lon="-0.8355690">
        <ele>595.799988</ele>
        <time>2018-06-15T08:14:20.000Z</time>
      </trkpt>
      <trkpt lat="42.6215020" lon="-0.8355820">
        <ele>596.799988</ele>
        <time>2018-06-15T08:14:24.000Z</time>
      </trkpt>
      <trkpt lat="42.6215970" lon="-0.8356760">
        <ele>598.400024</ele>
        <time>2018-06-15T08:14:27.000Z</time>
      </trkpt>
      <trkpt lat="42.6216180" lon="-0.8357270">
        <ele>598.900024</ele>
        <time>2018-06-15T08:14:28.000Z</time>
      </trkpt>
      <trkpt lat="42.6216100" lon="-0.8357780">
        <ele>598.799988</ele>
        <time>2018-06-15T08:14:29.000Z</time>
      </trkpt>
      <trkpt lat="42.6215530" lon="-0.8358080">
        <ele>597.500000</ele>
        <time>2018-06-15T08:14:30.000Z</time>
      </trkpt>
      <trkpt lat="42.6215020" lon="-0.8359150">
        <ele>596.700012</ele>
        <time>2018-06-15T08:14:33.000Z</time>
      </trkpt>
      <trkpt lat="42.6215020" lon="-0.8359660">
        <ele>596.700012</ele>
        <time>2018-06-15T08:14:34.000Z</time>
      </trkpt>
      <trkpt lat="42.6215410" lon="-0.8360670">
        <ele>597.299988</ele>
        <time>2018-06-15T08:14:36.000Z</time>
      </trkpt>
      <trkpt lat="42.6216260" lon="-0.8363360">
        <ele>599.000000</ele>
        <time>2018-06-15T08:14:42.000Z</time>
      </trkpt>
      <trkpt lat="42.6216360" lon="-0.8364030">
        <ele>599.099976</ele>
        <time>2018-06-15T08:14:43.000Z</time>
      </trkpt>
      <trkpt lat="42.6215510" lon="-0.8365850">
        <ele>597.799988</ele>
        <time>2018-06-15T08:14:47.000Z</time>
      </trkpt>
      <trkpt lat="42.6215300" lon="-0.8366460">
        <ele>597.899963</ele>
        <time>2018-06-15T08:14:49.000Z</time>
      </trkpt>
      <trkpt lat="42.6215260" lon="-0.8367250">
        <ele>598.400024</ele>
        <time>2018-06-15T08:14:50.000Z</time>
      </trkpt>
      <trkpt lat="42.6215510" lon="-0.8368190">
        <ele>599.399963</ele>
        <time>2018-06-15T08:14:52.000Z</time>
      </trkpt>
      <trkpt lat="42.6215930" lon="-0.8369210">
        <ele>601.000000</ele>
        <time>2018-06-15T08:14:55.000Z</time>
      </trkpt>
      <trkpt lat="42.6216080" lon="-0.8369960">
        <ele>601.900024</ele>
        <time>2018-06-15T08:14:56.000Z</time>
      </trkpt>
      <trkpt lat="42.6215450" lon="-0.8372450">
        <ele>602.399963</ele>
        <time>2018-06-15T08:15:01.000Z</time>
      </trkpt>
      <trkpt lat="42.6213350" lon="-0.8376500">
        <ele>597.099976</ele>
        <time>2018-06-15T08:15:11.000Z</time>
      </trkpt>
      <trkpt lat="42.6213250" lon="-0.8377230">
        <ele>595.700012</ele>
        <time>2018-06-15T08:15:13.000Z</time>
      </trkpt>
      <trkpt lat="42.6213090" lon="-0.8378570">
        <ele>593.099976</ele>
        <time>2018-06-15T08:15:15.000Z</time>
      </trkpt>
      <trkpt lat="42.6212770" lon="-0.8379370">
        <ele>591.700012</ele>
        <time>2018-06-15T08:15:17.000Z</time>
      </trkpt>
      <trkpt lat="42.6212870" lon="-0.8379990">
        <ele>590.600037</ele>
        <time>2018-06-15T08:15:18.000Z</time>
      </trkpt>
      <trkpt lat="42.6214000" lon="-0.8381140">
        <ele>589.599976</ele>
        <time>2018-06-15T08:15:22.000Z</time>
      </trkpt>
      <trkpt lat="42.6216300" lon="-0.8383800">
        <ele>589.000000</ele>
        <time>2018-06-15T08:15:30.000Z</time>
      </trkpt>
      <trkpt lat="42.6217900" lon="-0.8384970">
        <ele>590.000000</ele>
        <time>2018-06-15T08:15:35.000Z</time>
      </trkpt>
      <trkpt lat="42.6218430" lon="-0.8385840">
        <ele>591.799988</ele>
        <time>2018-06-15T08:15:37.000Z</time>
      </trkpt>
      <trkpt lat="42.6218600" lon="-0.8386470">
        <ele>592.500000</ele>
        <time>2018-06-15T08:15:38.000Z</time>
      </trkpt>
      <trkpt lat="42.6218680" lon="-0.8387470">
        <ele>593.099976</ele>
        <time>2018-06-15T08:15:40.000Z</time>
      </trkpt>
      <trkpt lat="42.6218440" lon="-0.8389520">
        <ele>594.000000</ele>
        <time>2018-06-15T08:15:44.000Z</time>
      </trkpt>
      <trkpt lat="42.6218040" lon="-0.8391280">
        <ele>594.400024</ele>
        <time>2018-06-15T08:15:48.000Z</time>
      </trkpt>
      <trkpt lat="42.6215840" lon="-0.8395100">
        <ele>596.500000</ele>
        <time>2018-06-15T08:15:58.000Z</time>
      </trkpt>
      <trkpt lat="42.6215130" lon="-0.8395200">
        <ele>597.299988</ele>
        <time>2018-06-15T08:15:59.000Z</time>
      </trkpt>
      <trkpt lat="42.6214640" lon="-0.8395090">
        <ele>597.599976</ele>
        <time>2018-06-15T08:16:01.000Z</time>
      </trkpt>
      <trkpt lat="42.6212680" lon="-0.8394900">
        <ele>598.599976</ele>
        <time>2018-06-15T08:16:06.000Z</time>
      </trkpt>
      <trkpt lat="42.6211670" lon="-0.8394990">
        <ele>598.100037</ele>
        <time>2018-06-15T08:16:09.000Z</time>
      </trkpt>
      <trkpt lat="42.6211200" lon="-0.8395170">
        <ele>597.799988</ele>
        <time>2018-06-15T08:16:10.000Z</time>
      </trkpt>
      <trkpt lat="42.6210820" lon="-0.8395520">
        <ele>597.700012</ele>
        <time>2018-06-15T08:16:11.000Z</time>
      </trkpt>
      <trkpt lat="42.6210240" lon="-0.8396820">
        <ele>597.799988</ele>
        <time>2018-06-15T08:16:14.000Z</time>
      </trkpt>
      <trkpt lat="42.6209390" lon="-0.8398910">
        <ele>597.299988</ele>
        <time>2018-06-15T08:16:19.000Z</time>
      </trkpt>
      <trkpt lat="42.6208930" lon="-0.8400210">
        <ele>596.299988</ele>
        <time>2018-06-15T08:16:22.000Z</time>
      </trkpt>
      <trkpt lat="42.6208780" lon="-0.8401150">
        <ele>596.000000</ele>
        <time>2018-06-15T08:16:24.000Z</time>
      </trkpt>
      <trkpt lat="42.6208760" lon="-0.8402330">
        <ele>596.099976</ele>
        <time>2018-06-15T08:16:26.000Z</time>
      </trkpt>
      <trkpt lat="42.6208840" lon="-0.8405500">
        <ele>595.799988</ele>
        <time>2018-06-15T08:16:32.000Z</time>
      </trkpt>
      <trkpt lat="42.6209320" lon="-0.8407520">
        <ele>595.100037</ele>
        <time>2018-06-15T08:16:36.000Z</time>
      </trkpt>
      <trkpt lat="42.6210380" lon="-0.8409680">
        <ele>595.200012</ele>
        <time>2018-06-15T08:16:41.000Z</time>
      </trkpt>
      <trkpt lat="42.6210510" lon="-0.8410030">
        <ele>595.599976</ele>
        <time>2018-06-15T08:16:42.000Z</time>
      </trkpt>
      <trkpt lat="42.6210420" lon="-0.8410760">
        <ele>595.900024</ele>
        <time>2018-06-15T08:16:43.000Z</time>
      </trkpt>
      <trkpt lat="42.6210060" lon="-0.8411560">
        <ele>595.799988</ele>
        <time>2018-06-15T08:16:45.000Z</time>
      </trkpt>
      <trkpt lat="42.6209210" lon="-0.8414110">
        <ele>597.500000</ele>
        <time>2018-06-15T08:16:51.000Z</time>
      </trkpt>
      <trkpt lat="42.6208460" lon="-0.8415560">
        <ele>598.900024</ele>
        <time>2018-06-15T08:16:54.000Z</time>
      </trkpt>
      <trkpt lat="42.6207790" lon="-0.8416340">
        <ele>599.600037</ele>
        <time>2018-06-15T08:16:57.000Z</time>
      </trkpt>
      <trkpt lat="42.6206730" lon="-0.8416870">
        <ele>599.600037</ele>
        <time>2018-06-15T08:17:00.000Z</time>
      </trkpt>
      <trkpt lat="42.6206360" lon="-0.8417350">
        <ele>599.900024</ele>
        <time>2018-06-15T08:17:01.000Z</time>
      </trkpt>
      <trkpt lat="42.6205130" lon="-0.8422340">
        <ele>602.000000</ele>
        <time>2018-06-15T08:17:11.000Z</time>
      </trkpt>
      <trkpt lat="42.6204380" lon="-0.8424430">
        <ele>602.299988</ele>
        <time>2018-06-15T08:17:16.000Z</time>
      </trkpt>
      <trkpt lat="42.6203590" lon="-0.8425560">
        <ele>601.799988</ele>
        <time>2018-06-15T08:17:19.000Z</time>
      </trkpt>
      <trkpt lat="42.6202490" lon="-0.8426420">
        <ele>599.799988</ele>
        <time>2018-06-15T08:17:22.000Z</time>
      </trkpt>
      <trkpt lat="42.6200320" lon="-0.8426100">
        <ele>595.299988</ele>
        <time>2018-06-15T08:17:28.000Z</time>
      </trkpt>
      <trkpt lat="42.6191830" lon="-0.8424110">
        <ele>590.000000</ele>
        <time>2018-06-15T08:17:51.000Z</time>
      </trkpt>
      <trkpt lat="42.6189270" lon="-0.8423280">
        <ele>594.500000</ele>
        <time>2018-06-15T08:17:58.000Z</time>
      </trkpt>
      <trkpt lat="42.6188710" lon="-0.8423260">
        <ele>595.799988</ele>
        <time>2018-06-15T08:18:00.000Z</time>
      </trkpt>
      <trkpt lat="42.6188300" lon="-0.8423550">
        <ele>596.299988</ele>
        <time>2018-06-15T08:18:01.000Z</time>
      </trkpt>
      <trkpt lat="42.6183200" lon="-0.8430080">
        <ele>597.099976</ele>
        <time>2018-06-15T08:18:19.000Z</time>
      </trkpt>
      <trkpt lat="42.6181420" lon="-0.8432560">
        <ele>588.600037</ele>
        <time>2018-06-15T08:18:26.000Z</time>
      </trkpt>
      <trkpt lat="42.6180980" lon="-0.8433210">
        <ele>587.500000</ele>
        <time>2018-06-15T08:18:28.000Z</time>
      </trkpt>
      <trkpt lat="42.6178860" lon="-0.8434880">
        <ele>586.099976</ele>
        <time>2018-06-15T08:18:35.000Z</time>
      </trkpt>
      <trkpt lat="42.6177030" lon="-0.8436080">
        <ele>585.600037</ele>
        <time>2018-06-15T08:18:40.000Z</time>
      </trkpt>
      <trkpt lat="42.6175150" lon="-0.8436780">
        <ele>583.000000</ele>
        <time>2018-06-15T08:18:45.000Z</time>
      </trkpt>
      <trkpt lat="42.6173840" lon="-0.8437400">
        <ele>582.900024</ele>
        <time>2018-06-15T08:18:49.000Z</time>
      </trkpt>
      <trkpt lat="42.6173270" lon="-0.8437630">
        <ele>583.599976</ele>
        <time>2018-06-15T08:18:50.000Z</time>
      </trkpt>
      <trkpt lat="42.6172320" lon="-0.8438530">
        <ele>585.799988</ele>
        <time>2018-06-15T08:18:54.000Z</time>
      </trkpt>
      <trkpt lat="42.6171610" lon="-0.8439750">
        <ele>587.100037</ele>
        <time>2018-06-15T08:18:57.000Z</time>
      </trkpt>
      <trkpt lat="42.6170880" lon="-0.8440420">
        <ele>586.899963</ele>
        <time>2018-06-15T08:18:59.000Z</time>
      </trkpt>
      <trkpt lat="42.6169810" lon="-0.8441010">
        <ele>585.200012</ele>
        <time>2018-06-15T08:19:02.000Z</time>
      </trkpt>
      <trkpt lat="42.6167430" lon="-0.8442800">
        <ele>582.099976</ele>
        <time>2018-06-15T08:19:09.000Z</time>
      </trkpt>
      <trkpt lat="42.6162490" lon="-0.8443580">
        <ele>593.000000</ele>
        <time>2018-06-15T08:19:23.000Z</time>
      </trkpt>
      <trkpt lat="42.6161240" lon="-0.8443880">
        <ele>591.700012</ele>
        <time>2018-06-15T08:19:26.000Z</time>
      </trkpt>
      <trkpt lat="42.6160780" lon="-0.8444390">
        <ele>590.900024</ele>
        <time>2018-06-15T08:19:28.000Z</time>
      </trkpt>
      <trkpt lat="42.6160380" lon="-0.8444930">
        <ele>590.400024</ele>
        <time>2018-06-15T08:19:29.000Z</time>
      </trkpt>
      <trkpt lat="42.6159460" lon="-0.8446680">
        <ele>589.099976</ele>
        <time>2018-06-15T08:19:33.000Z</time>
      </trkpt>
      <trkpt lat="42.6158450" lon="-0.8448410">
        <ele>587.200012</ele>
        <time>2018-06-15T08:19:38.000Z</time>
      </trkpt>
      <trkpt lat="42.6156790" lon="-0.8450530">
        <ele>585.299988</ele>
        <time>2018-06-15T08:19:44.000Z</time>
      </trkpt>
      <trkpt lat="42.6155020" lon="-0.8452950">
        <ele>585.799988</ele>
        <time>2018-06-15T08:19:51.000Z</time>
      </trkpt>
      <trkpt lat="42.6151450" lon="-0.8458700">
        <ele>589.899963</ele>
        <time>2018-06-15T08:20:05.000Z</time>
      </trkpt>
      <trkpt lat="42.6148890" lon="-0.8462110">
        <ele>591.799988</ele>
        <time>2018-06-15T08:20:15.000Z</time>
      </trkpt>
      <trkpt lat="42.6148190" lon="-0.8463280">
        <ele>592.100037</ele>
        <time>2018-06-15T08:20:18.000Z</time>
      </trkpt>
      <trkpt lat="42.6147600" lon="-0.8464140">
        <ele>592.599976</ele>
        <time>2018-06-15T08:20:20.000Z</time>
      </trkpt>
      <trkpt lat="42.6147240" lon="-0.8464210">
        <ele>593.000000</ele>
        <time>2018-06-15T08:20:21.000Z</time>
      </trkpt>
      <trkpt lat="42.6146900" lon="-0.8464140">
        <ele>593.399963</ele>
        <time>2018-06-15T08:20:22.000Z</time>
      </trkpt>
      <trkpt lat="42.6146250" lon="-0.8463920">
        <ele>594.099976</ele>
        <time>2018-06-15T08:20:24.000Z</time>
      </trkpt>
      <trkpt lat="42.6145630" lon="-0.8463180">
        <ele>593.900024</ele>
        <time>2018-06-15T08:20:26.000Z</time>
      </trkpt>
      <trkpt lat="42.6144390" lon="-0.8462020">
        <ele>590.900024</ele>
        <time>2018-06-15T08:20:30.000Z</time>
      </trkpt>
      <trkpt lat="42.6143760" lon="-0.8461430">
        <ele>589.099976</ele>
        <time>2018-06-15T08:20:32.000Z</time>
      </trkpt>
      <trkpt lat="42.6143130" lon="-0.8461280">
        <ele>587.799988</ele>
        <time>2018-06-15T08:20:34.000Z</time>
      </trkpt>
      <trkpt lat="42.6142650" lon="-0.8461590">
        <ele>587.599976</ele>
        <time>2018-06-15T08:20:35.000Z</time>
      </trkpt>
      <trkpt lat="42.6142020" lon="-0.8462450">
        <ele>587.500000</ele>
        <time>2018-06-15T08:20:37.000Z</time>
      </trkpt>
      <trkpt lat="42.6137540" lon="-0.8469430">
        <ele>584.100037</ele>
        <time>2018-06-15T08:20:56.000Z</time>
      </trkpt>
      <trkpt lat="42.6122450" lon="-0.8492810">
        <ele>585.299988</ele>
        <time>2018-06-15T08:21:56.000Z</time>
      </trkpt>
      <trkpt lat="42.6116330" lon="-0.8502770">
        <ele>579.900024</ele>
        <time>2018-06-15T08:22:22.000Z</time>
      </trkpt>
      <trkpt lat="42.6108670" lon="-0.8514960">
        <ele>579.900024</ele>
        <time>2018-06-15T08:22:53.000Z</time>
      </trkpt>
      <trkpt lat="42.6107420" lon="-0.8517240">
        <ele>578.100037</ele>
        <time>2018-06-15T08:22:58.000Z</time>
      </trkpt>
      <trkpt lat="42.6107010" lon="-0.8518310">
        <ele>577.200012</ele>
        <time>2018-06-15T08:23:01.000Z</time>
      </trkpt>
      <trkpt lat="42.6106600" lon="-0.8519600">
        <ele>576.900024</ele>
        <time>2018-06-15T08:23:04.000Z</time>
      </trkpt>
      <trkpt lat="42.6099010" lon="-0.8551820">
        <ele>574.000000</ele>
        <time>2018-06-15T08:24:10.000Z</time>
      </trkpt>
      <trkpt lat="42.6098760" lon="-0.8553990">
        <ele>572.200012</ele>
        <time>2018-06-15T08:24:14.000Z</time>
      </trkpt>
      <trkpt lat="42.6098450" lon="-0.8560130">
        <ele>578.500000</ele>
        <time>2018-06-15T08:24:26.000Z</time>
      </trkpt>
      <trkpt lat="42.6097700" lon="-0.8583670">
        <ele>568.000000</ele>
        <time>2018-06-15T08:25:12.000Z</time>
      </trkpt>
      <trkpt lat="42.6097790" lon="-0.8584930">
        <ele>567.700012</ele>
        <time>2018-06-15T08:25:15.000Z</time>
      </trkpt>
      <trkpt lat="42.6097950" lon="-0.8585340">
        <ele>567.799988</ele>
        <time>2018-06-15T08:25:15.000Z</time>
      </trkpt>
      <trkpt lat="42.6098210" lon="-0.8585450">
        <ele>567.900024</ele>
        <time>2018-06-15T08:25:16.000Z</time>
      </trkpt>
      <trkpt lat="42.6099240" lon="-0.8585230">
        <ele>568.700012</ele>
        <time>2018-06-15T08:25:19.000Z</time>
      </trkpt>
      <trkpt lat="42.6103080" lon="-0.8584020">
        <ele>570.299988</ele>
        <time>2018-06-15T08:25:29.000Z</time>
      </trkpt>
      <trkpt lat="42.6103780" lon="-0.8583840">
        <ele>569.700012</ele>
        <time>2018-06-15T08:25:31.000Z</time>
      </trkpt>
      <trkpt lat="42.6104800" lon="-0.8583680">
        <ele>571.000000</ele>
        <time>2018-06-15T08:25:34.000Z</time>
      </trkpt>
      <trkpt lat="42.6109540" lon="-0.8584730">
        <ele>571.099976</ele>
        <time>2018-06-15T08:25:47.000Z</time>
      </trkpt>
      <trkpt lat="42.6112840" lon="-0.8585020">
        <ele>567.299988</ele>
        <time>2018-06-15T08:25:56.000Z</time>
      </trkpt>
      <trkpt lat="42.6115510" lon="-0.8585050">
        <ele>569.899963</ele>
        <time>2018-06-15T08:26:03.000Z</time>
      </trkpt>
      <trkpt lat="42.6116550" lon="-0.8584940">
        <ele>573.599976</ele>
        <time>2018-06-15T08:26:06.000Z</time>
      </trkpt>
      <trkpt lat="42.6118630" lon="-0.8584110">
        <ele>578.599976</ele>
        <time>2018-06-15T08:26:11.000Z</time>
      </trkpt>
      <trkpt lat="42.6119370" lon="-0.8583460">
        <ele>578.700012</ele>
        <time>2018-06-15T08:26:14.000Z</time>
      </trkpt>
      <trkpt lat="42.6120250" lon="-0.8582510">
        <ele>579.700012</ele>
        <time>2018-06-15T08:26:17.000Z</time>
      </trkpt>
      <trkpt lat="42.6120860" lon="-0.8581190">
        <ele>581.100037</ele>
        <time>2018-06-15T08:26:20.000Z</time>
      </trkpt>
      <trkpt lat="42.6121650" lon="-0.8578470">
        <ele>584.400024</ele>
        <time>2018-06-15T08:26:26.000Z</time>
      </trkpt>
      <trkpt lat="42.6122440" lon="-0.8576370">
        <ele>587.400024</ele>
        <time>2018-06-15T08:26:30.000Z</time>
      </trkpt>
      <trkpt lat="42.6124500" lon="-0.8573140">
        <ele>595.500000</ele>
        <time>2018-06-15T08:26:39.000Z</time>
      </trkpt>
      <trkpt lat="42.6126510" lon="-0.8570430">
        <ele>603.799988</ele>
        <time>2018-06-15T08:26:47.000Z</time>
      </trkpt>
      <trkpt lat="42.6129130" lon="-0.8566140">
        <ele>619.899963</ele>
        <time>2018-06-15T08:26:58.000Z</time>
      </trkpt>
      <trkpt lat="42.6130110" lon="-0.8564830">
        <ele>623.799988</ele>
        <time>2018-06-15T08:27:02.000Z</time>
      </trkpt>
      <trkpt lat="42.6133420" lon="-0.8561360">
        <ele>632.099976</ele>
        <time>2018-06-15T08:27:13.000Z</time>
      </trkpt>
      <trkpt lat="42.6134780" lon="-0.8559910">
        <ele>634.599976</ele>
        <time>2018-06-15T08:27:18.000Z</time>
      </trkpt>
      <trkpt lat="42.6135630" lon="-0.8558760">
        <ele>630.700012</ele>
        <time>2018-06-15T08:27:21.000Z</time>
      </trkpt>
      <trkpt lat="42.6136940" lon="-0.8556670">
        <ele>625.200012</ele>
        <time>2018-06-15T08:27:27.000Z</time>
      </trkpt>
      <trkpt lat="42.6137680" lon="-0.8555410">
        <ele>622.899963</ele>
        <time>2018-06-15T08:27:30.000Z</time>
      </trkpt>
      <trkpt lat="42.6138650" lon="-0.8555300">
        <ele>623.100037</ele>
        <time>2018-06-15T08:27:32.000Z</time>
      </trkpt>
      <trkpt lat="42.6139520" lon="-0.8556190">
        <ele>623.100037</ele>
        <time>2018-06-15T08:27:35.000Z</time>
      </trkpt>
      <trkpt lat="42.6141710" lon="-0.8558940">
        <ele>623.900024</ele>
        <time>2018-06-15T08:27:43.000Z</time>
      </trkpt>
      <trkpt lat="42.6142640" lon="-0.8559030">
        <ele>625.200012</ele>
        <time>2018-06-15T08:27:46.000Z</time>
      </trkpt>
      <trkpt lat="42.6143460" lon="-0.8558810">
        <ele>626.500000</ele>
        <time>2018-06-15T08:27:48.000Z</time>
      </trkpt>
      <trkpt lat="42.6144170" lon="-0.8558550">
        <ele>627.799988</ele>
        <time>2018-06-15T08:27:50.000Z</time>
      </trkpt>
      <trkpt lat="42.6150180" lon="-0.8555010">
        <ele>636.699951</ele>
        <time>2018-06-15T08:28:07.000Z</time>
      </trkpt>
      <trkpt lat="42.6152490" lon="-0.8553420">
        <ele>635.000000</ele>
        <time>2018-06-15T08:28:14.000Z</time>
      </trkpt>
      <trkpt lat="42.6156410" lon="-0.8550510">
        <ele>625.900024</ele>
        <time>2018-06-15T08:28:26.000Z</time>
      </trkpt>
      <trkpt lat="42.6157320" lon="-0.8549610">
        <ele>626.099976</ele>
        <time>2018-06-15T08:28:29.000Z</time>
      </trkpt>
      <trkpt lat="42.6158180" lon="-0.8548630">
        <ele>628.300049</ele>
        <time>2018-06-15T08:28:32.000Z</time>
      </trkpt>
      <trkpt lat="42.6159360" lon="-0.8546300">
        <ele>632.799988</ele>
        <time>2018-06-15T08:28:38.000Z</time>
      </trkpt>
      <trkpt lat="42.6160120" lon="-0.8544290">
        <ele>635.299988</ele>
        <time>2018-06-15T08:28:42.000Z</time>
      </trkpt>
      <trkpt lat="42.6162000" lon="-0.8541410">
        <ele>634.300049</ele>
        <time>2018-06-15T08:28:50.000Z</time>
      </trkpt>
      <trkpt lat="42.6164100" lon="-0.8538790">
        <ele>633.199951</ele>
        <time>2018-06-15T08:28:57.000Z</time>
      </trkpt>
      <trkpt lat="42.6166070" lon="-0.8536790">
        <ele>631.800049</ele>
        <time>2018-06-15T08:29:04.000Z</time>
      </trkpt>
      <trkpt lat="42.6168990" lon="-0.8533950">
        <ele>631.300049</ele>
        <time>2018-06-15T08:29:13.000Z</time>
      </trkpt>
      <trkpt lat="42.6169810" lon="-0.8532980">
        <ele>630.700012</ele>
        <time>2018-06-15T08:29:16.000Z</time>
      </trkpt>
      <trkpt lat="42.6170730" lon="-0.8531560">
        <ele>629.900024</ele>
        <time>2018-06-15T08:29:20.000Z</time>
      </trkpt>
      <trkpt lat="42.6173750" lon="-0.8525720">
        <ele>634.700012</ele>
        <time>2018-06-15T08:29:34.000Z</time>
      </trkpt>
      <trkpt lat="42.6176990" lon="-0.8519890">
        <ele>642.900024</ele>
        <time>2018-06-15T08:29:48.000Z</time>
      </trkpt>
      <trkpt lat="42.6178130" lon="-0.8518130">
        <ele>642.799988</ele>
        <time>2018-06-15T08:29:53.000Z</time>
      </trkpt>
      <trkpt lat="42.6178980" lon="-0.8517290">
        <ele>641.599976</ele>
        <time>2018-06-15T08:29:56.000Z</time>
      </trkpt>
      <trkpt lat="42.6179970" lon="-0.8516810">
        <ele>638.900024</ele>
        <time>2018-06-15T08:29:59.000Z</time>
      </trkpt>
      <trkpt lat="42.6182120" lon="-0.8516490">
        <ele>633.400024</ele>
        <time>2018-06-15T08:30:05.000Z</time>
      </trkpt>
      <trkpt lat="42.6183500" lon="-0.8516060">
        <ele>633.799988</ele>
        <time>2018-06-15T08:30:08.000Z</time>
      </trkpt>
      <trkpt lat="42.6185240" lon="-0.8514930">
        <ele>635.799988</ele>
        <time>2018-06-15T08:30:13.000Z</time>
      </trkpt>
      <trkpt lat="42.6186430" lon="-0.8514320">
        <ele>639.199951</ele>
        <time>2018-06-15T08:30:17.000Z</time>
      </trkpt>
      <trkpt lat="42.6189370" lon="-0.8513400">
        <ele>643.200012</ele>
        <time>2018-06-15T08:30:25.000Z</time>
      </trkpt>
      <trkpt lat="42.6191420" lon="-0.8512980">
        <ele>643.800049</ele>
        <time>2018-06-15T08:30:30.000Z</time>
      </trkpt>
      <trkpt lat="42.6193630" lon="-0.8512790">
        <ele>643.500000</ele>
        <time>2018-06-15T08:30:36.000Z</time>
      </trkpt>
      <trkpt lat="42.6200520" lon="-0.8511370">
        <ele>639.299988</ele>
        <time>2018-06-15T08:30:55.000Z</time>
      </trkpt>
      <trkpt lat="42.6203110" lon="-0.8510610">
        <ele>640.800049</ele>
        <time>2018-06-15T08:31:02.000Z</time>
      </trkpt>
      <trkpt lat="42.6210170" lon="-0.8509170">
        <ele>639.500000</ele>
        <time>2018-06-15T08:31:21.000Z</time>
      </trkpt>
      <trkpt lat="42.6214580" lon="-0.8508280">
        <ele>638.200012</ele>
        <time>2018-06-15T08:31:33.000Z</time>
      </trkpt>
      <trkpt lat="42.6220590" lon="-0.8507650">
        <ele>635.900024</ele>
        <time>2018-06-15T08:31:49.000Z</time>
      </trkpt>
      <trkpt lat="42.6232310" lon="-0.8504880">
        <ele>650.099976</ele>
        <time>2018-06-15T08:32:20.000Z</time>
      </trkpt>
      <trkpt lat="42.6239570" lon="-0.8502430">
        <ele>646.600037</ele>
        <time>2018-06-15T08:32:40.000Z</time>
      </trkpt>
      <trkpt lat="42.6244090" lon="-0.8501440">
        <ele>652.500000</ele>
        <time>2018-06-15T08:32:52.000Z</time>
      </trkpt>
      <trkpt lat="42.6248730" lon="-0.8500130">
        <ele>656.000000</ele>
        <time>2018-06-15T08:33:05.000Z</time>
      </trkpt>
      <trkpt lat="42.6259480" lon="-0.8495950">
        <ele>660.099976</ele>
        <time>2018-06-15T08:33:35.000Z</time>
      </trkpt>
      <trkpt lat="42.6263650" lon="-0.8495000">
        <ele>658.199951</ele>
        <time>2018-06-15T08:33:46.000Z</time>
      </trkpt>
      <trkpt lat="42.6268800" lon="-0.8493560">
        <ele>660.900024</ele>
        <time>2018-06-15T08:34:00.000Z</time>
      </trkpt>
      <trkpt lat="42.6275140" lon="-0.8492220">
        <ele>667.099976</ele>
        <time>2018-06-15T08:34:17.000Z</time>
      </trkpt>
      <trkpt lat="42.6277040" lon="-0.8491780">
        <ele>668.299988</ele>
        <time>2018-06-15T08:34:22.000Z</time>
      </trkpt>
      <trkpt lat="42.6283360" lon="-0.8489710">
        <ele>668.899963</ele>
        <time>2018-06-15T08:34:39.000Z</time>
      </trkpt>
      <trkpt lat="42.6295520" lon="-0.8483550">
        <ele>676.400024</ele>
        <time>2018-06-15T08:35:14.000Z</time>
      </trkpt>
      <trkpt lat="42.6301360" lon="-0.8479490">
        <ele>675.200012</ele>
        <time>2018-06-15T08:35:31.000Z</time>
      </trkpt>
      <trkpt lat="42.6302840" lon="-0.8478380">
        <ele>675.700012</ele>
        <time>2018-06-15T08:35:36.000Z</time>
      </trkpt>
      <trkpt lat="42.6306840" lon="-0.8474960">
        <ele>690.399963</ele>
        <time>2018-06-15T08:35:49.000Z</time>
      </trkpt>
      <trkpt lat="42.6308560" lon="-0.8473790">
        <ele>694.300049</ele>
        <time>2018-06-15T08:35:54.000Z</time>
      </trkpt>
      <trkpt lat="42.6311050" lon="-0.8472230">
        <ele>698.500000</ele>
        <time>2018-06-15T08:36:01.000Z</time>
      </trkpt>
      <trkpt lat="42.6316670" lon="-0.8467920">
        <ele>705.000000</ele>
        <time>2018-06-15T08:36:18.000Z</time>
      </trkpt>
      <trkpt lat="42.6320350" lon="-0.8465040">
        <ele>702.199951</ele>
        <time>2018-06-15T08:36:30.000Z</time>
      </trkpt>
      <trkpt lat="42.6323030" lon="-0.8463300">
        <ele>692.500000</ele>
        <time>2018-06-15T08:36:38.000Z</time>
      </trkpt>
      <trkpt lat="42.6326450" lon="-0.8461340">
        <ele>688.299988</ele>
        <time>2018-06-15T08:36:48.000Z</time>
      </trkpt>
      <trkpt lat="42.6333610" lon="-0.8456640">
        <ele>707.299988</ele>
        <time>2018-06-15T08:37:09.000Z</time>
      </trkpt>
      <trkpt lat="42.6338130" lon="-0.8453670">
        <ele>708.500000</ele>
        <time>2018-06-15T08:37:23.000Z</time>
      </trkpt>
      <trkpt lat="42.6350430" lon="-0.8444420">
        <ele>719.300049</ele>
        <time>2018-06-15T08:38:00.000Z</time>
      </trkpt>
      <trkpt lat="42.6357380" lon="-0.8439290">
        <ele>710.400024</ele>
        <time>2018-06-15T08:38:21.000Z</time>
      </trkpt>
      <trkpt lat="42.6358180" lon="-0.8438540">
        <ele>710.900024</ele>
        <time>2018-06-15T08:38:24.000Z</time>
      </trkpt>
      <trkpt lat="42.6360160" lon="-0.8436420">
        <ele>712.000000</ele>
        <time>2018-06-15T08:38:30.000Z</time>
      </trkpt>
      <trkpt lat="42.6363150" lon="-0.8433560">
        <ele>713.900024</ele>
        <time>2018-06-15T08:38:40.000Z</time>
      </trkpt>
      <trkpt lat="42.6364260" lon="-0.8432800">
        <ele>714.500000</ele>
        <time>2018-06-15T08:38:43.000Z</time>
      </trkpt>
      <trkpt lat="42.6365380" lon="-0.8432310">
        <ele>715.399963</ele>
        <time>2018-06-15T08:38:46.000Z</time>
      </trkpt>
      <trkpt lat="42.6366930" lon="-0.8431790">
        <ele>715.200012</ele>
        <time>2018-06-15T08:38:51.000Z</time>
      </trkpt>
      <trkpt lat="42.6368630" lon="-0.8431410">
        <ele>714.199951</ele>
        <time>2018-06-15T08:38:55.000Z</time>
      </trkpt>
      <trkpt lat="42.6370470" lon="-0.8431290">
        <ele>713.799988</ele>
        <time>2018-06-15T08:39:00.000Z</time>
      </trkpt>
      <trkpt lat="42.6372760" lon="-0.8430520">
        <ele>713.499939</ele>
        <time>2018-06-15T08:39:06.000Z</time>
      </trkpt>
      <trkpt lat="42.6373930" lon="-0.8429850">
        <ele>712.700012</ele>
        <time>2018-06-15T08:39:10.000Z</time>
      </trkpt>
      <trkpt lat="42.6374750" lon="-0.8429240">
        <ele>712.200012</ele>
        <time>2018-06-15T08:39:12.000Z</time>
      </trkpt>
      <trkpt lat="42.6378740" lon="-0.8425740">
        <ele>709.000000</ele>
        <time>2018-06-15T08:39:25.000Z</time>
      </trkpt>
      <trkpt lat="42.6379620" lon="-0.8425000">
        <ele>707.599976</ele>
        <time>2018-06-15T08:39:28.000Z</time>
      </trkpt>
      <trkpt lat="42.6380480" lon="-0.8424550">
        <ele>707.000000</ele>
        <time>2018-06-15T08:39:30.000Z</time>
      </trkpt>
      <trkpt lat="42.6383650" lon="-0.8423750">
        <ele>702.700012</ele>
        <time>2018-06-15T08:39:39.000Z</time>
      </trkpt>
      <trkpt lat="42.6389250" lon="-0.8423470">
        <ele>698.000061</ele>
        <time>2018-06-15T08:39:54.000Z</time>
      </trkpt>
      <trkpt lat="42.6391110" lon="-0.8423710">
        <ele>696.399963</ele>
        <time>2018-06-15T08:39:59.000Z</time>
      </trkpt>
      <trkpt lat="42.6394760" lon="-0.8424600">
        <ele>699.000000</ele>
        <time>2018-06-15T08:40:08.000Z</time>
      </trkpt>
      <trkpt lat="42.6397260" lon="-0.8425130">
        <ele>706.599976</ele>
        <time>2018-06-15T08:40:15.000Z</time>
      </trkpt>
      <trkpt lat="42.6403080" lon="-0.8426100">
        <ele>726.500000</ele>
        <time>2018-06-15T08:40:32.000Z</time>
      </trkpt>
      <trkpt lat="42.6405550" lon="-0.8426450">
        <ele>729.500000</ele>
        <time>2018-06-15T08:40:38.000Z</time>
      </trkpt>
      <trkpt lat="42.6408350" lon="-0.8426580">
        <ele>729.900024</ele>
        <time>2018-06-15T08:40:46.000Z</time>
      </trkpt>
      <trkpt lat="42.6410600" lon="-0.8427470">
        <ele>733.400024</ele>
        <time>2018-06-15T08:40:52.000Z</time>
      </trkpt>
      <trkpt lat="42.6417710" lon="-0.8429750">
        <ele>733.000000</ele>
        <time>2018-06-15T08:41:11.000Z</time>
      </trkpt>
      <trkpt lat="42.6421200" lon="-0.8430880">
        <ele>725.999939</ele>
        <time>2018-06-15T08:41:21.000Z</time>
      </trkpt>
      <trkpt lat="42.6423200" lon="-0.8431680">
        <ele>726.599976</ele>
        <time>2018-06-15T08:41:27.000Z</time>
      </trkpt>
      <trkpt lat="42.6425110" lon="-0.8432130">
        <ele>728.300049</ele>
        <time>2018-06-15T08:41:32.000Z</time>
      </trkpt>
      <trkpt lat="42.6425980" lon="-0.8431870">
        <ele>728.599976</ele>
        <time>2018-06-15T08:41:34.000Z</time>
      </trkpt>
      <trkpt lat="42.6426600" lon="-0.8431110">
        <ele>728.999939</ele>
        <time>2018-06-15T08:41:36.000Z</time>
      </trkpt>
      <trkpt lat="42.6427740" lon="-0.8429620">
        <ele>731.900024</ele>
        <time>2018-06-15T08:41:41.000Z</time>
      </trkpt>
      <trkpt lat="42.6428550" lon="-0.8428600">
        <ele>734.100037</ele>
        <time>2018-06-15T08:41:44.000Z</time>
      </trkpt>
      <trkpt lat="42.6429730" lon="-0.8427490">
        <ele>736.799988</ele>
        <time>2018-06-15T08:41:47.000Z</time>
      </trkpt>
      <trkpt lat="42.6431270" lon="-0.8426310">
        <ele>740.000000</ele>
        <time>2018-06-15T08:41:52.000Z</time>
      </trkpt>
      <trkpt lat="42.6432770" lon="-0.8425510">
        <ele>741.200012</ele>
        <time>2018-06-15T08:41:56.000Z</time>
      </trkpt>
      <trkpt lat="42.6433360" lon="-0.8424950">
        <ele>741.000000</ele>
        <time>2018-06-15T08:41:58.000Z</time>
      </trkpt>
      <trkpt lat="42.6434450" lon="-0.8423850">
        <ele>740.899963</ele>
        <time>2018-06-15T08:42:02.000Z</time>
      </trkpt>
      <trkpt lat="42.6434840" lon="-0.8423660">
        <ele>740.899963</ele>
        <time>2018-06-15T08:42:03.000Z</time>
      </trkpt>
      <trkpt lat="42.6435100" lon="-0.8423740">
        <ele>740.500000</ele>
        <time>2018-06-15T08:42:04.000Z</time>
      </trkpt>
      <trkpt lat="42.6435350" lon="-0.8423950">
        <ele>740.299988</ele>
        <time>2018-06-15T08:42:05.000Z</time>
      </trkpt>
      <trkpt lat="42.6435390" lon="-0.8424620">
        <ele>740.599976</ele>
        <time>2018-06-15T08:42:06.000Z</time>
      </trkpt>
      <trkpt lat="42.6435370" lon="-0.8425130">
        <ele>740.899963</ele>
        <time>2018-06-15T08:42:07.000Z</time>
      </trkpt>
      <trkpt lat="42.6434820" lon="-0.8426290">
        <ele>742.699951</ele>
        <time>2018-06-15T08:42:10.000Z</time>
      </trkpt>
      <trkpt lat="42.6434250" lon="-0.8427520">
        <ele>743.399963</ele>
        <time>2018-06-15T08:42:12.000Z</time>
      </trkpt>
      <trkpt lat="42.6433240" lon="-0.8429180">
        <ele>744.500000</ele>
        <time>2018-06-15T08:42:17.000Z</time>
      </trkpt>
      <trkpt lat="42.6432450" lon="-0.8429880">
        <ele>745.099976</ele>
        <time>2018-06-15T08:42:19.000Z</time>
      </trkpt>
      <trkpt lat="42.6431590" lon="-0.8431680">
        <ele>745.900024</ele>
        <time>2018-06-15T08:42:23.000Z</time>
      </trkpt>
      <trkpt lat="42.6430860" lon="-0.8433800">
        <ele>743.600037</ele>
        <time>2018-06-15T08:42:28.000Z</time>
      </trkpt>
      <trkpt lat="42.6430600" lon="-0.8435810">
        <ele>742.400024</ele>
        <time>2018-06-15T08:42:32.000Z</time>
      </trkpt>
      <trkpt lat="42.6430420" lon="-0.8438250">
        <ele>741.099976</ele>
        <time>2018-06-15T08:42:37.000Z</time>
      </trkpt>
      <trkpt lat="42.6430120" lon="-0.8440130">
        <ele>740.399963</ele>
        <time>2018-06-15T08:42:40.000Z</time>
      </trkpt>
      <trkpt lat="42.6429040" lon="-0.8444340">
        <ele>742.299988</ele>
        <time>2018-06-15T08:42:49.000Z</time>
      </trkpt>
      <trkpt lat="42.6428810" lon="-0.8445680">
        <ele>742.299988</ele>
        <time>2018-06-15T08:42:52.000Z</time>
      </trkpt>
      <trkpt lat="42.6428790" lon="-0.8446590">
        <ele>743.200012</ele>
        <time>2018-06-15T08:42:54.000Z</time>
      </trkpt>
      <trkpt lat="42.6428900" lon="-0.8447490">
        <ele>744.400024</ele>
        <time>2018-06-15T08:42:55.000Z</time>
      </trkpt>
      <trkpt lat="42.6429380" lon="-0.8449570">
        <ele>746.299988</ele>
        <time>2018-06-15T08:43:00.000Z</time>
      </trkpt>
      <trkpt lat="42.6429380" lon="-0.8450530">
        <ele>747.000000</ele>
        <time>2018-06-15T08:43:02.000Z</time>
      </trkpt>
      <trkpt lat="42.6429220" lon="-0.8452040">
        <ele>747.900024</ele>
        <time>2018-06-15T08:43:05.000Z</time>
      </trkpt>
      <trkpt lat="42.6428790" lon="-0.8453290">
        <ele>748.200012</ele>
        <time>2018-06-15T08:43:07.000Z</time>
      </trkpt>
      <trkpt lat="42.6427470" lon="-0.8455160">
        <ele>749.000000</ele>
        <time>2018-06-15T08:43:12.000Z</time>
      </trkpt>
      <trkpt lat="42.6426110" lon="-0.8457000">
        <ele>748.699951</ele>
        <time>2018-06-15T08:43:17.000Z</time>
      </trkpt>
      <trkpt lat="42.6425070" lon="-0.8458900">
        <ele>746.299988</ele>
        <time>2018-06-15T08:43:22.000Z</time>
      </trkpt>
      <trkpt lat="42.6423680" lon="-0.8461690">
        <ele>743.600037</ele>
        <time>2018-06-15T08:43:29.000Z</time>
      </trkpt>
      <trkpt lat="42.6421390" lon="-0.8467380">
        <ele>740.000000</ele>
        <time>2018-06-15T08:43:41.000Z</time>
      </trkpt>
      <trkpt lat="42.6419870" lon="-0.8470090">
        <ele>733.100037</ele>
        <time>2018-06-15T08:43:48.000Z</time>
      </trkpt>
      <trkpt lat="42.6419440" lon="-0.8470990">
        <ele>730.299988</ele>
        <time>2018-06-15T08:43:50.000Z</time>
      </trkpt>
      <trkpt lat="42.6419040" lon="-0.8472130">
        <ele>726.900024</ele>
        <time>2018-06-15T08:43:53.000Z</time>
      </trkpt>
      <trkpt lat="42.6418810" lon="-0.8473150">
        <ele>724.600037</ele>
        <time>2018-06-15T08:43:55.000Z</time>
      </trkpt>
      <trkpt lat="42.6418740" lon="-0.8476690">
        <ele>720.799988</ele>
        <time>2018-06-15T08:44:02.000Z</time>
      </trkpt>
      <trkpt lat="42.6419690" lon="-0.8484090">
        <ele>721.600037</ele>
        <time>2018-06-15T08:44:17.000Z</time>
      </trkpt>
      <trkpt lat="42.6420470" lon="-0.8490420">
        <ele>714.099976</ele>
        <time>2018-06-15T08:44:29.000Z</time>
      </trkpt>
      <trkpt lat="42.6420860" lon="-0.8494820">
        <ele>715.100037</ele>
        <time>2018-06-15T08:44:38.000Z</time>
      </trkpt>
      <trkpt lat="42.6420410" lon="-0.8498400">
        <ele>716.400024</ele>
        <time>2018-06-15T08:44:45.000Z</time>
      </trkpt>
      <trkpt lat="42.6419800" lon="-0.8502110">
        <ele>716.299988</ele>
        <time>2018-06-15T08:44:53.000Z</time>
      </trkpt>
      <trkpt lat="42.6418890" lon="-0.8504710">
        <ele>714.600037</ele>
        <time>2018-06-15T08:44:58.000Z</time>
      </trkpt>
      <trkpt lat="42.6417880" lon="-0.8506670">
        <ele>712.599976</ele>
        <time>2018-06-15T08:45:03.000Z</time>
      </trkpt>
      <trkpt lat="42.6417270" lon="-0.8507800">
        <ele>709.500000</ele>
        <time>2018-06-15T08:45:06.000Z</time>
      </trkpt>
      <trkpt lat="42.6416880" lon="-0.8509440">
        <ele>706.000000</ele>
        <time>2018-06-15T08:45:09.000Z</time>
      </trkpt>
      <trkpt lat="42.6416910" lon="-0.8511340">
        <ele>703.500000</ele>
        <time>2018-06-15T08:45:13.000Z</time>
      </trkpt>
      <trkpt lat="42.6417640" lon="-0.8513460">
        <ele>703.500000</ele>
        <time>2018-06-15T08:45:17.000Z</time>
      </trkpt>
      <trkpt lat="42.6418340" lon="-0.8514770">
        <ele>703.900024</ele>
        <time>2018-06-15T08:45:21.000Z</time>
      </trkpt>
      <trkpt lat="42.6420310" lon="-0.8517310">
        <ele>706.700012</ele>
        <time>2018-06-15T08:45:28.000Z</time>
      </trkpt>
      <trkpt lat="42.6421010" lon="-0.8518500">
        <ele>708.000000</ele>
        <time>2018-06-15T08:45:31.000Z</time>
      </trkpt>
      <trkpt lat="42.6421400" lon="-0.8519730">
        <ele>707.900024</ele>
        <time>2018-06-15T08:45:33.000Z</time>
      </trkpt>
      <trkpt lat="42.6421510" lon="-0.8521230">
        <ele>707.599976</ele>
        <time>2018-06-15T08:45:36.000Z</time>
      </trkpt>
      <trkpt lat="42.6421150" lon="-0.8526120">
        <ele>704.400024</ele>
        <time>2018-06-15T08:45:46.000Z</time>
      </trkpt>
      <trkpt lat="42.6420980" lon="-0.8529790">
        <ele>705.500000</ele>
        <time>2018-06-15T08:45:53.000Z</time>
      </trkpt>
      <trkpt lat="42.6420800" lon="-0.8531620">
        <ele>704.099976</ele>
        <time>2018-06-15T08:45:57.000Z</time>
      </trkpt>
      <trkpt lat="42.6420380" lon="-0.8533160">
        <ele>702.899963</ele>
        <time>2018-06-15T08:46:00.000Z</time>
      </trkpt>
      <trkpt lat="42.6419860" lon="-0.8534410">
        <ele>701.599976</ele>
        <time>2018-06-15T08:46:03.000Z</time>
      </trkpt>
      <trkpt lat="42.6419270" lon="-0.8535450">
        <ele>699.199951</ele>
        <time>2018-06-15T08:46:06.000Z</time>
      </trkpt>
      <trkpt lat="42.6418860" lon="-0.8536260">
        <ele>697.200012</ele>
        <time>2018-06-15T08:46:07.000Z</time>
      </trkpt>
      <trkpt lat="42.6418730" lon="-0.8537490">
        <ele>695.500000</ele>
        <time>2018-06-15T08:46:10.000Z</time>
      </trkpt>
      <trkpt lat="42.6418910" lon="-0.8538700">
        <ele>694.000000</ele>
        <time>2018-06-15T08:46:12.000Z</time>
      </trkpt>
      <trkpt lat="42.6420310" lon="-0.8541400">
        <ele>690.500000</ele>
        <time>2018-06-15T08:46:19.000Z</time>
      </trkpt>
      <trkpt lat="42.6421040" lon="-0.8542640">
        <ele>688.000000</ele>
        <time>2018-06-15T08:46:22.000Z</time>
      </trkpt>
      <trkpt lat="42.6421480" lon="-0.8543800">
        <ele>686.699951</ele>
        <time>2018-06-15T08:46:25.000Z</time>
      </trkpt>
      <trkpt lat="42.6422190" lon="-0.8545300">
        <ele>685.900024</ele>
        <time>2018-06-15T08:46:28.000Z</time>
      </trkpt>
      <trkpt lat="42.6422380" lon="-0.8545990">
        <ele>685.599976</ele>
        <time>2018-06-15T08:46:30.000Z</time>
      </trkpt>
      <trkpt lat="42.6422440" lon="-0.8547120">
        <ele>684.800049</ele>
        <time>2018-06-15T08:46:32.000Z</time>
      </trkpt>
      <trkpt lat="42.6422250" lon="-0.8548650">
        <ele>683.500000</ele>
        <time>2018-06-15T08:46:35.000Z</time>
      </trkpt>
      <trkpt lat="42.6420120" lon="-0.8555170">
        <ele>673.699951</ele>
        <time>2018-06-15T08:46:49.000Z</time>
      </trkpt>
      <trkpt lat="42.6418770" lon="-0.8557900">
        <ele>668.100037</ele>
        <time>2018-06-15T08:46:55.000Z</time>
      </trkpt>
      <trkpt lat="42.6416640" lon="-0.8561390">
        <ele>664.400024</ele>
        <time>2018-06-15T08:47:04.000Z</time>
      </trkpt>
      <trkpt lat="42.6415230" lon="-0.8563240">
        <ele>662.200012</ele>
        <time>2018-06-15T08:47:10.000Z</time>
      </trkpt>
      <trkpt lat="42.6414090" lon="-0.8564490">
        <ele>660.400024</ele>
        <time>2018-06-15T08:47:13.000Z</time>
      </trkpt>
      <trkpt lat="42.6413630" lon="-0.8565410">
        <ele>659.300049</ele>
        <time>2018-06-15T08:47:16.000Z</time>
      </trkpt>
      <trkpt lat="42.6413170" lon="-0.8566760">
        <ele>657.599976</ele>
        <time>2018-06-15T08:47:19.000Z</time>
      </trkpt>
      <trkpt lat="42.6412770" lon="-0.8568430">
        <ele>655.700012</ele>
        <time>2018-06-15T08:47:22.000Z</time>
      </trkpt>
      <trkpt lat="42.6412950" lon="-0.8570700">
        <ele>653.099976</ele>
        <time>2018-06-15T08:47:27.000Z</time>
      </trkpt>
      <trkpt lat="42.6413300" lon="-0.8572850">
        <ele>651.299988</ele>
        <time>2018-06-15T08:47:31.000Z</time>
      </trkpt>
      <trkpt lat="42.6413500" lon="-0.8574310">
        <ele>650.200012</ele>
        <time>2018-06-15T08:47:34.000Z</time>
      </trkpt>
      <trkpt lat="42.6414290" lon="-0.8580070">
        <ele>648.200012</ele>
        <time>2018-06-15T08:47:45.000Z</time>
      </trkpt>
      <trkpt lat="42.6415450" lon="-0.8584720">
        <ele>648.200012</ele>
        <time>2018-06-15T08:47:55.000Z</time>
      </trkpt>
      <trkpt lat="42.6415980" lon="-0.8586820">
        <ele>647.300049</ele>
        <time>2018-06-15T08:47:59.000Z</time>
      </trkpt>
      <trkpt lat="42.6416370" lon="-0.8588720">
        <ele>646.100037</ele>
        <time>2018-06-15T08:48:03.000Z</time>
      </trkpt>
      <trkpt lat="42.6416510" lon="-0.8590120">
        <ele>645.000061</ele>
        <time>2018-06-15T08:48:06.000Z</time>
      </trkpt>
      <trkpt lat="42.6416670" lon="-0.8594940">
        <ele>645.200012</ele>
        <time>2018-06-15T08:48:15.000Z</time>
      </trkpt>
      <trkpt lat="42.6416420" lon="-0.8597990">
        <ele>644.799988</ele>
        <time>2018-06-15T08:48:21.000Z</time>
      </trkpt>
      <trkpt lat="42.6415450" lon="-0.8603030">
        <ele>645.099976</ele>
        <time>2018-06-15T08:48:31.000Z</time>
      </trkpt>
      <trkpt lat="42.6415320" lon="-0.8605230">
        <ele>644.300049</ele>
        <time>2018-06-15T08:48:36.000Z</time>
      </trkpt>
      <trkpt lat="42.6415460" lon="-0.8606240">
        <ele>643.700012</ele>
        <time>2018-06-15T08:48:38.000Z</time>
      </trkpt>
      <trkpt lat="42.6415690" lon="-0.8607160">
        <ele>643.299988</ele>
        <time>2018-06-15T08:48:40.000Z</time>
      </trkpt>
      <trkpt lat="42.6416250" lon="-0.8608060">
        <ele>643.399963</ele>
        <time>2018-06-15T08:48:42.000Z</time>
      </trkpt>
      <trkpt lat="42.6417140" lon="-0.8609160">
        <ele>644.000000</ele>
        <time>2018-06-15T08:48:45.000Z</time>
      </trkpt>
      <trkpt lat="42.6418230" lon="-0.8610130">
        <ele>645.000061</ele>
        <time>2018-06-15T08:48:48.000Z</time>
      </trkpt>
      <trkpt lat="42.6420050" lon="-0.8611280">
        <ele>645.500000</ele>
        <time>2018-06-15T08:48:54.000Z</time>
      </trkpt>
      <trkpt lat="42.6420440" lon="-0.8611680">
        <ele>645.400024</ele>
        <time>2018-06-15T08:48:55.000Z</time>
      </trkpt>
      <trkpt lat="42.6420750" lon="-0.8612480">
        <ele>645.000061</ele>
        <time>2018-06-15T08:48:57.000Z</time>
      </trkpt>
      <trkpt lat="42.6420930" lon="-0.8613160">
        <ele>645.299988</ele>
        <time>2018-06-15T08:48:58.000Z</time>
      </trkpt>
      <trkpt lat="42.6421000" lon="-0.8613990">
        <ele>645.699951</ele>
        <time>2018-06-15T08:49:00.000Z</time>
      </trkpt>
      <trkpt lat="42.6420570" lon="-0.8615540">
        <ele>645.699951</ele>
        <time>2018-06-15T08:49:03.000Z</time>
      </trkpt>
      <trkpt lat="42.6420150" lon="-0.8616460">
        <ele>645.099976</ele>
        <time>2018-06-15T08:49:05.000Z</time>
      </trkpt>
      <trkpt lat="42.6419360" lon="-0.8617760">
        <ele>644.000000</ele>
        <time>2018-06-15T08:49:09.000Z</time>
      </trkpt>
      <trkpt lat="42.6418610" lon="-0.8618300">
        <ele>643.200012</ele>
        <time>2018-06-15T08:49:11.000Z</time>
      </trkpt>
      <trkpt lat="42.6418040" lon="-0.8618480">
        <ele>642.699951</ele>
        <time>2018-06-15T08:49:12.000Z</time>
      </trkpt>
      <trkpt lat="42.6417690" lon="-0.8618710">
        <ele>642.200012</ele>
        <time>2018-06-15T08:49:13.000Z</time>
      </trkpt>
      <trkpt lat="42.6417560" lon="-0.8619190">
        <ele>641.700012</ele>
        <time>2018-06-15T08:49:14.000Z</time>
      </trkpt>
      <trkpt lat="42.6417520" lon="-0.8620510">
        <ele>640.800049</ele>
        <time>2018-06-15T08:49:17.000Z</time>
      </trkpt>
      <trkpt lat="42.6417580" lon="-0.8623560">
        <ele>640.500000</ele>
        <time>2018-06-15T08:49:23.000Z</time>
      </trkpt>
      <trkpt lat="42.6418090" lon="-0.8629760">
        <ele>640.800049</ele>
        <time>2018-06-15T08:49:35.000Z</time>
      </trkpt>
      <trkpt lat="42.6418820" lon="-0.8635950">
        <ele>638.499939</ele>
        <time>2018-06-15T08:49:47.000Z</time>
      </trkpt>
      <trkpt lat="42.6419710" lon="-0.8642760">
        <ele>639.899963</ele>
        <time>2018-06-15T08:50:01.000Z</time>
      </trkpt>
      <trkpt lat="42.6419930" lon="-0.8644110">
        <ele>640.800049</ele>
        <time>2018-06-15T08:50:04.000Z</time>
      </trkpt>
      <trkpt lat="42.6420230" lon="-0.8644780">
        <ele>641.499939</ele>
        <time>2018-06-15T08:50:05.000Z</time>
      </trkpt>
      <trkpt lat="42.6420620" lon="-0.8645420">
        <ele>642.500000</ele>
        <time>2018-06-15T08:50:07.000Z</time>
      </trkpt>
      <trkpt lat="42.6421140" lon="-0.8645700">
        <ele>643.100037</ele>
        <time>2018-06-15T08:50:08.000Z</time>
      </trkpt>
      <trkpt lat="42.6422020" lon="-0.8645770">
        <ele>643.399963</ele>
        <time>2018-06-15T08:50:11.000Z</time>
      </trkpt>
      <trkpt lat="42.6423520" lon="-0.8645480">
        <ele>643.800049</ele>
        <time>2018-06-15T08:50:15.000Z</time>
      </trkpt>
      <trkpt lat="42.6425230" lon="-0.8644860">
        <ele>644.799988</ele>
        <time>2018-06-15T08:50:19.000Z</time>
      </trkpt>
      <trkpt lat="42.6425870" lon="-0.8644080">
        <ele>645.000061</ele>
        <time>2018-06-15T08:50:22.000Z</time>
      </trkpt>
      <trkpt lat="42.6426270" lon="-0.8643090">
        <ele>644.900024</ele>
        <time>2018-06-15T08:50:24.000Z</time>
      </trkpt>
      <trkpt lat="42.6426990" lon="-0.8640550">
        <ele>644.799988</ele>
        <time>2018-06-15T08:50:29.000Z</time>
      </trkpt>
      <trkpt lat="42.6427780" lon="-0.8637930">
        <ele>644.099976</ele>
        <time>2018-06-15T08:50:35.000Z</time>
      </trkpt>
      <trkpt lat="42.6428710" lon="-0.8636250">
        <ele>643.200012</ele>
        <time>2018-06-15T08:50:39.000Z</time>
      </trkpt>
      <trkpt lat="42.6431370" lon="-0.8633650">
        <ele>640.899963</ele>
        <time>2018-06-15T08:50:47.000Z</time>
      </trkpt>
      <trkpt lat="42.6432140" lon="-0.8632660">
        <ele>640.200012</ele>
        <time>2018-06-15T08:50:50.000Z</time>
      </trkpt>
      <trkpt lat="42.6432820" lon="-0.8632190">
        <ele>639.699951</ele>
        <time>2018-06-15T08:50:52.000Z</time>
      </trkpt>
      <trkpt lat="42.6433940" lon="-0.8632360">
        <ele>639.299988</ele>
        <time>2018-06-15T08:50:55.000Z</time>
      </trkpt>
      <trkpt lat="42.6434860" lon="-0.8632730">
        <ele>639.000000</ele>
        <time>2018-06-15T08:50:58.000Z</time>
      </trkpt>
      <trkpt lat="42.6435610" lon="-0.8633270">
        <ele>638.799988</ele>
        <time>2018-06-15T08:51:00.000Z</time>
      </trkpt>
      <trkpt lat="42.6436110" lon="-0.8633650">
        <ele>638.700012</ele>
        <time>2018-06-15T08:51:02.000Z</time>
      </trkpt>
      <trkpt lat="42.6436560" lon="-0.8634800">
        <ele>638.299988</ele>
        <time>2018-06-15T08:51:04.000Z</time>
      </trkpt>
      <trkpt lat="42.6436480" lon="-0.8635870">
        <ele>638.200012</ele>
        <time>2018-06-15T08:51:06.000Z</time>
      </trkpt>
      <trkpt lat="42.6436030" lon="-0.8639060">
        <ele>637.100037</ele>
        <time>2018-06-15T08:51:13.000Z</time>
      </trkpt>
      <trkpt lat="42.6435770" lon="-0.8643290">
        <ele>633.299988</ele>
        <time>2018-06-15T08:51:21.000Z</time>
      </trkpt>
      <trkpt lat="42.6436030" lon="-0.8645910">
        <ele>632.000000</ele>
        <time>2018-06-15T08:51:26.000Z</time>
      </trkpt>
      <trkpt lat="42.6435860" lon="-0.8651400">
        <ele>632.000000</ele>
        <time>2018-06-15T08:51:37.000Z</time>
      </trkpt>
      <trkpt lat="42.6435860" lon="-0.8653670">
        <ele>631.700012</ele>
        <time>2018-06-15T08:51:41.000Z</time>
      </trkpt>
      <trkpt lat="42.6436030" lon="-0.8654600">
        <ele>631.500000</ele>
        <time>2018-06-15T08:51:43.000Z</time>
      </trkpt>
      <trkpt lat="42.6436340" lon="-0.8655760">
        <ele>631.399963</ele>
        <time>2018-06-15T08:51:45.000Z</time>
      </trkpt>
      <trkpt lat="42.6437580" lon="-0.8657950">
        <ele>631.200012</ele>
        <time>2018-06-15T08:51:51.000Z</time>
      </trkpt>
      <trkpt lat="42.6439980" lon="-0.8661670">
        <ele>636.600037</ele>
        <time>2018-06-15T08:52:01.000Z</time>
      </trkpt>
      <trkpt lat="42.6440380" lon="-0.8662440">
        <ele>637.000000</ele>
        <time>2018-06-15T08:52:02.000Z</time>
      </trkpt>
      <trkpt lat="42.6440390" lon="-0.8663650">
        <ele>637.399963</ele>
        <time>2018-06-15T08:52:05.000Z</time>
      </trkpt>
      <trkpt lat="42.6440190" lon="-0.8665180">
        <ele>637.800049</ele>
        <time>2018-06-15T08:52:08.000Z</time>
      </trkpt>
      <trkpt lat="42.6438970" lon="-0.8667390">
        <ele>637.899963</ele>
        <time>2018-06-15T08:52:13.000Z</time>
      </trkpt>
      <trkpt lat="42.6438180" lon="-0.8670140">
        <ele>639.500000</ele>
        <time>2018-06-15T08:52:19.000Z</time>
      </trkpt>
      <trkpt lat="42.6437370" lon="-0.8671070">
        <ele>638.900024</ele>
        <time>2018-06-15T08:52:22.000Z</time>
      </trkpt>
      <trkpt lat="42.6435290" lon="-0.8672100">
        <ele>633.299988</ele>
        <time>2018-06-15T08:52:28.000Z</time>
      </trkpt>
      <trkpt lat="42.6433710" lon="-0.8672880">
        <ele>631.300049</ele>
        <time>2018-06-15T08:52:32.000Z</time>
      </trkpt>
      <trkpt lat="42.6432900" lon="-0.8673450">
        <ele>630.899963</ele>
        <time>2018-06-15T08:52:35.000Z</time>
      </trkpt>
      <trkpt lat="42.6432260" lon="-0.8674290">
        <ele>631.800049</ele>
        <time>2018-06-15T08:52:37.000Z</time>
      </trkpt>
      <trkpt lat="42.6430590" lon="-0.8677000">
        <ele>635.299988</ele>
        <time>2018-06-15T08:52:44.000Z</time>
      </trkpt>
      <trkpt lat="42.6429710" lon="-0.8678670">
        <ele>636.600037</ele>
        <time>2018-06-15T08:52:48.000Z</time>
      </trkpt>
      <trkpt lat="42.6428200" lon="-0.8680480">
        <ele>634.200012</ele>
        <time>2018-06-15T08:52:53.000Z</time>
      </trkpt>
      <trkpt lat="42.6427180" lon="-0.8682040">
        <ele>630.899963</ele>
        <time>2018-06-15T08:52:58.000Z</time>
      </trkpt>
      <trkpt lat="42.6426200" lon="-0.8683920">
        <ele>628.599976</ele>
        <time>2018-06-15T08:53:02.000Z</time>
      </trkpt>
      <trkpt lat="42.6425600" lon="-0.8685310">
        <ele>628.999939</ele>
        <time>2018-06-15T08:53:05.000Z</time>
      </trkpt>
      <trkpt lat="42.6425280" lon="-0.8686480">
        <ele>629.500061</ele>
        <time>2018-06-15T08:53:08.000Z</time>
      </trkpt>
      <trkpt lat="42.6425550" lon="-0.8688850">
        <ele>630.100037</ele>
        <time>2018-06-15T08:53:12.000Z</time>
      </trkpt>
      <trkpt lat="42.6427610" lon="-0.8694590">
        <ele>628.700012</ele>
        <time>2018-06-15T08:53:25.000Z</time>
      </trkpt>
      <trkpt lat="42.6428860" lon="-0.8697280">
        <ele>630.299988</ele>
        <time>2018-06-15T08:53:31.000Z</time>
      </trkpt>
      <trkpt lat="42.6429550" lon="-0.8699440">
        <ele>631.100037</ele>
        <time>2018-06-15T08:53:36.000Z</time>
      </trkpt>
      <trkpt lat="42.6429660" lon="-0.8700410">
        <ele>631.500000</ele>
        <time>2018-06-15T08:53:38.000Z</time>
      </trkpt>
      <trkpt lat="42.6429610" lon="-0.8701520">
        <ele>631.800049</ele>
        <time>2018-06-15T08:53:40.000Z</time>
      </trkpt>
      <trkpt lat="42.6429230" lon="-0.8703140">
        <ele>632.500061</ele>
        <time>2018-06-15T08:53:43.000Z</time>
      </trkpt>
      <trkpt lat="42.6428540" lon="-0.8704610">
        <ele>634.700012</ele>
        <time>2018-06-15T08:53:46.000Z</time>
      </trkpt>
      <trkpt lat="42.6427000" lon="-0.8706490">
        <ele>636.400024</ele>
        <time>2018-06-15T08:53:52.000Z</time>
      </trkpt>
      <trkpt lat="42.6424490" lon="-0.8707540">
        <ele>639.299988</ele>
        <time>2018-06-15T08:53:59.000Z</time>
      </trkpt>
      <trkpt lat="42.6420110" lon="-0.8710990">
        <ele>650.999939</ele>
        <time>2018-06-15T08:54:13.000Z</time>
      </trkpt>
      <trkpt lat="42.6417290" lon="-0.8713380">
        <ele>647.200012</ele>
        <time>2018-06-15T08:54:22.000Z</time>
      </trkpt>
      <trkpt lat="42.6415720" lon="-0.8715530">
        <ele>641.099976</ele>
        <time>2018-06-15T08:54:28.000Z</time>
      </trkpt>
      <trkpt lat="42.6414880" lon="-0.8716900">
        <ele>639.099976</ele>
        <time>2018-06-15T08:54:31.000Z</time>
      </trkpt>
      <trkpt lat="42.6414730" lon="-0.8717470">
        <ele>638.900024</ele>
        <time>2018-06-15T08:54:32.000Z</time>
      </trkpt>
      <trkpt lat="42.6414710" lon="-0.8718210">
        <ele>638.900024</ele>
        <time>2018-06-15T08:54:34.000Z</time>
      </trkpt>
      <trkpt lat="42.6414970" lon="-0.8719530">
        <ele>640.299988</ele>
        <time>2018-06-15T08:54:36.000Z</time>
      </trkpt>
      <trkpt lat="42.6415560" lon="-0.8720910">
        <ele>642.000061</ele>
        <time>2018-06-15T08:54:40.000Z</time>
      </trkpt>
      <trkpt lat="42.6420000" lon="-0.8729290">
        <ele>645.699951</ele>
        <time>2018-06-15T08:55:00.000Z</time>
      </trkpt>
      <trkpt lat="42.6423040" lon="-0.8735590">
        <ele>643.600037</ele>
        <time>2018-06-15T08:55:14.000Z</time>
      </trkpt>
      <trkpt lat="42.6424450" lon="-0.8738670">
        <ele>640.399963</ele>
        <time>2018-06-15T08:55:22.000Z</time>
      </trkpt>
      <trkpt lat="42.6426080" lon="-0.8741660">
        <ele>642.299988</ele>
        <time>2018-06-15T08:55:29.000Z</time>
      </trkpt>
      <trkpt lat="42.6426330" lon="-0.8742300">
        <ele>642.900024</ele>
        <time>2018-06-15T08:55:30.000Z</time>
      </trkpt>
      <trkpt lat="42.6426550" lon="-0.8743750">
        <ele>643.100037</ele>
        <time>2018-06-15T08:55:33.000Z</time>
      </trkpt>
      <trkpt lat="42.6426770" lon="-0.8748280">
        <ele>641.499939</ele>
        <time>2018-06-15T08:55:42.000Z</time>
      </trkpt>
      <trkpt lat="42.6427140" lon="-0.8753220">
        <ele>641.300049</ele>
        <time>2018-06-15T08:55:52.000Z</time>
      </trkpt>
      <trkpt lat="42.6427210" lon="-0.8755020">
        <ele>643.100037</ele>
        <time>2018-06-15T08:55:55.000Z</time>
      </trkpt>
      <trkpt lat="42.6426770" lon="-0.8760390">
        <ele>649.299988</ele>
        <time>2018-06-15T08:56:06.000Z</time>
      </trkpt>
      <trkpt lat="42.6426250" lon="-0.8763250">
        <ele>649.100037</ele>
        <time>2018-06-15T08:56:12.000Z</time>
      </trkpt>
      <trkpt lat="42.6426290" lon="-0.8766590">
        <ele>647.300049</ele>
        <time>2018-06-15T08:56:18.000Z</time>
      </trkpt>
      <trkpt lat="42.6426400" lon="-0.8770850">
        <ele>644.000000</ele>
        <time>2018-06-15T08:56:27.000Z</time>
      </trkpt>
      <trkpt lat="42.6426260" lon="-0.8772530">
        <ele>642.600037</ele>
        <time>2018-06-15T08:56:30.000Z</time>
      </trkpt>
      <trkpt lat="42.6425640" lon="-0.8777150">
        <ele>640.200012</ele>
        <time>2018-06-15T08:56:39.000Z</time>
      </trkpt>
      <trkpt lat="42.6425460" lon="-0.8780250">
        <ele>641.499939</ele>
        <time>2018-06-15T08:56:45.000Z</time>
      </trkpt>
      <trkpt lat="42.6424840" lon="-0.8786250">
        <ele>644.099976</ele>
        <time>2018-06-15T08:56:57.000Z</time>
      </trkpt>
      <trkpt lat="42.6424910" lon="-0.8787390">
        <ele>644.400024</ele>
        <time>2018-06-15T08:56:59.000Z</time>
      </trkpt>
      <trkpt lat="42.6425270" lon="-0.8788280">
        <ele>644.400024</ele>
        <time>2018-06-15T08:57:01.000Z</time>
      </trkpt>
      <trkpt lat="42.6425700" lon="-0.8788840">
        <ele>644.700012</ele>
        <time>2018-06-15T08:57:03.000Z</time>
      </trkpt>
      <trkpt lat="42.6427240" lon="-0.8790050">
        <ele>646.299988</ele>
        <time>2018-06-15T08:57:07.000Z</time>
      </trkpt>
      <trkpt lat="42.6435670" lon="-0.8794850">
        <ele>635.900024</ele>
        <time>2018-06-15T08:57:32.000Z</time>
      </trkpt>
      <trkpt lat="42.6437410" lon="-0.8796240">
        <ele>633.400024</ele>
        <time>2018-06-15T08:57:37.000Z</time>
      </trkpt>
      <trkpt lat="42.6439460" lon="-0.8798550">
        <ele>631.500000</ele>
        <time>2018-06-15T08:57:44.000Z</time>
      </trkpt>
      <trkpt lat="42.6440500" lon="-0.8800270">
        <ele>630.600037</ele>
        <time>2018-06-15T08:57:49.000Z</time>
      </trkpt>
      <trkpt lat="42.6441590" lon="-0.8803140">
        <ele>632.200012</ele>
        <time>2018-06-15T08:57:55.000Z</time>
      </trkpt>
      <trkpt lat="42.6442560" lon="-0.8804760">
        <ele>632.400024</ele>
        <time>2018-06-15T08:57:59.000Z</time>
      </trkpt>
      <trkpt lat="42.6444790" lon="-0.8807050">
        <ele>632.799988</ele>
        <time>2018-06-15T08:58:06.000Z</time>
      </trkpt>
      <trkpt lat="42.6445760" lon="-0.8807700">
        <ele>632.299988</ele>
        <time>2018-06-15T08:58:09.000Z</time>
      </trkpt>
      <trkpt lat="42.6446600" lon="-0.8807480">
        <ele>632.099976</ele>
        <time>2018-06-15T08:58:12.000Z</time>
      </trkpt>
      <trkpt lat="42.6447330" lon="-0.8807040">
        <ele>632.000000</ele>
        <time>2018-06-15T08:58:14.000Z</time>
      </trkpt>
      <trkpt lat="42.6453230" lon="-0.8794100">
        <ele>629.500061</ele>
        <time>2018-06-15T08:58:43.000Z</time>
      </trkpt>
      <trkpt lat="42.6454340" lon="-0.8792570">
        <ele>628.399963</ele>
        <time>2018-06-15T08:58:48.000Z</time>
      </trkpt>
      <trkpt lat="42.6454830" lon="-0.8792170">
        <ele>626.799988</ele>
        <time>2018-06-15T08:58:49.000Z</time>
      </trkpt>
      <trkpt lat="42.6455380" lon="-0.8791820">
        <ele>625.200012</ele>
        <time>2018-06-15T08:58:51.000Z</time>
      </trkpt>
      <trkpt lat="42.6457630" lon="-0.8792050">
        <ele>618.900024</ele>
        <time>2018-06-15T08:58:57.000Z</time>
      </trkpt>
      <trkpt lat="42.6458660" lon="-0.8792350">
        <ele>616.700012</ele>
        <time>2018-06-15T08:59:00.000Z</time>
      </trkpt>
      <trkpt lat="42.6459680" lon="-0.8793200">
        <ele>614.000000</ele>
        <time>2018-06-15T08:59:03.000Z</time>
      </trkpt>
      <trkpt lat="42.6460330" lon="-0.8793860">
        <ele>613.299988</ele>
        <time>2018-06-15T08:59:05.000Z</time>
      </trkpt>
      <trkpt lat="42.6460840" lon="-0.8794990">
        <ele>612.100037</ele>
        <time>2018-06-15T08:59:08.000Z</time>
      </trkpt>
      <trkpt lat="42.6461070" lon="-0.8797180">
        <ele>611.099976</ele>
        <time>2018-06-15T08:59:12.000Z</time>
      </trkpt>
      <trkpt lat="42.6462580" lon="-0.8803860">
        <ele>609.900024</ele>
        <time>2018-06-15T08:59:26.000Z</time>
      </trkpt>
      <trkpt lat="42.6463410" lon="-0.8812290">
        <ele>603.900024</ele>
        <time>2018-06-15T08:59:42.000Z</time>
      </trkpt>
      <trkpt lat="42.6463590" lon="-0.8815210">
        <ele>600.700012</ele>
        <time>2018-06-15T08:59:48.000Z</time>
      </trkpt>
      <trkpt lat="42.6463260" lon="-0.8817810">
        <ele>597.599976</ele>
        <time>2018-06-15T08:59:53.000Z</time>
      </trkpt>
      <trkpt lat="42.6463240" lon="-0.8820170">
        <ele>595.000000</ele>
        <time>2018-06-15T08:59:58.000Z</time>
      </trkpt>
      <trkpt lat="42.6464320" lon="-0.8824940">
        <ele>593.299988</ele>
        <time>2018-06-15T09:00:08.000Z</time>
      </trkpt>
      <trkpt lat="42.6464380" lon="-0.8826120">
        <ele>593.799988</ele>
        <time>2018-06-15T09:00:10.000Z</time>
      </trkpt>
      <trkpt lat="42.6464140" lon="-0.8827200">
        <ele>594.400024</ele>
        <time>2018-06-15T09:00:12.000Z</time>
      </trkpt>
      <trkpt lat="42.6463850" lon="-0.8827920">
        <ele>594.799988</ele>
        <time>2018-06-15T09:00:14.000Z</time>
      </trkpt>
      <trkpt lat="42.6462730" lon="-0.8829420">
        <ele>594.599976</ele>
        <time>2018-06-15T09:00:18.000Z</time>
      </trkpt>
      <trkpt lat="42.6462390" lon="-0.8830170">
        <ele>593.700012</ele>
        <time>2018-06-15T09:00:20.000Z</time>
      </trkpt>
      <trkpt lat="42.6461900" lon="-0.8832100">
        <ele>591.500000</ele>
        <time>2018-06-15T09:00:24.000Z</time>
      </trkpt>
      <trkpt lat="42.6461030" lon="-0.8835190">
        <ele>587.700012</ele>
        <time>2018-06-15T09:00:30.000Z</time>
      </trkpt>
      <trkpt lat="42.6459530" lon="-0.8837760">
        <ele>586.099976</ele>
        <time>2018-06-15T09:00:37.000Z</time>
      </trkpt>
      <trkpt lat="42.6459190" lon="-0.8838520">
        <ele>586.099976</ele>
        <time>2018-06-15T09:00:38.000Z</time>
      </trkpt>
      <trkpt lat="42.6459100" lon="-0.8839560">
        <ele>585.500000</ele>
        <time>2018-06-15T09:00:41.000Z</time>
      </trkpt>
      <trkpt lat="42.6459430" lon="-0.8840480">
        <ele>584.400024</ele>
        <time>2018-06-15T09:00:43.000Z</time>
      </trkpt>
      <trkpt lat="42.6460910" lon="-0.8844740">
        <ele>584.000000</ele>
        <time>2018-06-15T09:00:52.000Z</time>
      </trkpt>
      <trkpt lat="42.6461800" lon="-0.8846800">
        <ele>583.500000</ele>
        <time>2018-06-15T09:00:56.000Z</time>
      </trkpt>
      <trkpt lat="42.6462690" lon="-0.8848360">
        <ele>585.600037</ele>
        <time>2018-06-15T09:01:00.000Z</time>
      </trkpt>
      <trkpt lat="42.6464230" lon="-0.8850590">
        <ele>587.200012</ele>
        <time>2018-06-15T09:01:06.000Z</time>
      </trkpt>
      <trkpt lat="42.6465960" lon="-0.8852760">
        <ele>585.600037</ele>
        <time>2018-06-15T09:01:12.000Z</time>
      </trkpt>
      <trkpt lat="42.6467520" lon="-0.8853720">
        <ele>586.400024</ele>
        <time>2018-06-15T09:01:17.000Z</time>
      </trkpt>
      <trkpt lat="42.6469650" lon="-0.8854290">
        <ele>587.100037</ele>
        <time>2018-06-15T09:01:23.000Z</time>
      </trkpt>
      <trkpt lat="42.6471410" lon="-0.8854470">
        <ele>587.599976</ele>
        <time>2018-06-15T09:01:27.000Z</time>
      </trkpt>
      <trkpt lat="42.6471860" lon="-0.8854770">
        <ele>588.099976</ele>
        <time>2018-06-15T09:01:29.000Z</time>
      </trkpt>
      <trkpt lat="42.6472080" lon="-0.8855300">
        <ele>588.500000</ele>
        <time>2018-06-15T09:01:30.000Z</time>
      </trkpt>
      <trkpt lat="42.6472080" lon="-0.8855950">
        <ele>588.900024</ele>
        <time>2018-06-15T09:01:31.000Z</time>
      </trkpt>
      <trkpt lat="42.6471550" lon="-0.8856810">
        <ele>589.200012</ele>
        <time>2018-06-15T09:01:33.000Z</time>
      </trkpt>
      <trkpt lat="42.6463510" lon="-0.8866260">
        <ele>598.500000</ele>
        <time>2018-06-15T09:02:02.000Z</time>
      </trkpt>
      <trkpt lat="42.6461370" lon="-0.8868560">
        <ele>597.700012</ele>
        <time>2018-06-15T09:02:09.000Z</time>
      </trkpt>
      <trkpt lat="42.6460090" lon="-0.8869570">
        <ele>598.500000</ele>
        <time>2018-06-15T09:02:13.000Z</time>
      </trkpt>
      <trkpt lat="42.6448430" lon="-0.8878660">
        <ele>602.000000</ele>
        <time>2018-06-15T09:02:49.000Z</time>
      </trkpt>
      <trkpt lat="42.6447480" lon="-0.8879310">
        <ele>602.200012</ele>
        <time>2018-06-15T09:02:51.000Z</time>
      </trkpt>
      <trkpt lat="42.6446590" lon="-0.8879630">
        <ele>601.500000</ele>
        <time>2018-06-15T09:02:54.000Z</time>
      </trkpt>
      <trkpt lat="42.6441270" lon="-0.8881040">
        <ele>592.799988</ele>
        <time>2018-06-15T09:03:08.000Z</time>
      </trkpt>
      <trkpt lat="42.6437020" lon="-0.8882710">
        <ele>589.799988</ele>
        <time>2018-06-15T09:03:20.000Z</time>
      </trkpt>
      <trkpt lat="42.6435130" lon="-0.8884030">
        <ele>590.900024</ele>
        <time>2018-06-15T09:03:26.000Z</time>
      </trkpt>
      <trkpt lat="42.6433710" lon="-0.8885510">
        <ele>591.899963</ele>
        <time>2018-06-15T09:03:30.000Z</time>
      </trkpt>
      <trkpt lat="42.6432750" lon="-0.8886850">
        <ele>593.299988</ele>
        <time>2018-06-15T09:03:34.000Z</time>
      </trkpt>
      <trkpt lat="42.6431960" lon="-0.8888700">
        <ele>595.700012</ele>
        <time>2018-06-15T09:03:38.000Z</time>
      </trkpt>
      <trkpt lat="42.6428540" lon="-0.8898850">
        <ele>600.400024</ele>
        <time>2018-06-15T09:04:00.000Z</time>
      </trkpt>
      <trkpt lat="42.6428230" lon="-0.8899450">
        <ele>601.299988</ele>
        <time>2018-06-15T09:04:02.000Z</time>
      </trkpt>
      <trkpt lat="42.6427620" lon="-0.8900040">
        <ele>603.200012</ele>
        <time>2018-06-15T09:04:04.000Z</time>
      </trkpt>
      <trkpt lat="42.6426530" lon="-0.8900290">
        <ele>606.400024</ele>
        <time>2018-06-15T09:04:07.000Z</time>
      </trkpt>
      <trkpt lat="42.6425740" lon="-0.8900230">
        <ele>609.500000</ele>
        <time>2018-06-15T09:04:09.000Z</time>
      </trkpt>
      <trkpt lat="42.6424860" lon="-0.8899940">
        <ele>612.799988</ele>
        <time>2018-06-15T09:04:11.000Z</time>
      </trkpt>
      <trkpt lat="42.6423950" lon="-0.8899290">
        <ele>615.599976</ele>
        <time>2018-06-15T09:04:14.000Z</time>
      </trkpt>
      <trkpt lat="42.6423180" lon="-0.8898380">
        <ele>618.299988</ele>
        <time>2018-06-15T09:04:17.000Z</time>
      </trkpt>
      <trkpt lat="42.6422620" lon="-0.8895700">
        <ele>617.100037</ele>
        <time>2018-06-15T09:04:22.000Z</time>
      </trkpt>
      <trkpt lat="42.6421560" lon="-0.8893310">
        <ele>618.000000</ele>
        <time>2018-06-15T09:04:28.000Z</time>
      </trkpt>
      <trkpt lat="42.6421150" lon="-0.8891430">
        <ele>616.099976</ele>
        <time>2018-06-15T09:04:32.000Z</time>
      </trkpt>
      <trkpt lat="42.6421010" lon="-0.8889910">
        <ele>613.799988</ele>
        <time>2018-06-15T09:04:35.000Z</time>
      </trkpt>
      <trkpt lat="42.6420440" lon="-0.8888940">
        <ele>613.700012</ele>
        <time>2018-06-15T09:04:37.000Z</time>
      </trkpt>
      <trkpt lat="42.6419770" lon="-0.8888430">
        <ele>614.500000</ele>
        <time>2018-06-15T09:04:39.000Z</time>
      </trkpt>
      <trkpt lat="42.6418620" lon="-0.8888190">
        <ele>616.799988</ele>
        <time>2018-06-15T09:04:42.000Z</time>
      </trkpt>
      <trkpt lat="42.6417520" lon="-0.8888300">
        <ele>619.700012</ele>
        <time>2018-06-15T09:04:45.000Z</time>
      </trkpt>
      <trkpt lat="42.6416730" lon="-0.8888220">
        <ele>621.000000</ele>
        <time>2018-06-15T09:04:48.000Z</time>
      </trkpt>
      <trkpt lat="42.6415330" lon="-0.8887840">
        <ele>622.299988</ele>
        <time>2018-06-15T09:04:51.000Z</time>
      </trkpt>
      <trkpt lat="42.6414200" lon="-0.8887730">
        <ele>623.000000</ele>
        <time>2018-06-15T09:04:54.000Z</time>
      </trkpt>
      <trkpt lat="42.6412730" lon="-0.8887790">
        <ele>624.500000</ele>
        <time>2018-06-15T09:04:58.000Z</time>
      </trkpt>
      <trkpt lat="42.6411000" lon="-0.8888160">
        <ele>625.300049</ele>
        <time>2018-06-15T09:05:03.000Z</time>
      </trkpt>
      <trkpt lat="42.6409040" lon="-0.8889020">
        <ele>628.800049</ele>
        <time>2018-06-15T09:05:08.000Z</time>
      </trkpt>
      <trkpt lat="42.6407640" lon="-0.8889770">
        <ele>633.600037</ele>
        <time>2018-06-15T09:05:13.000Z</time>
      </trkpt>
      <trkpt lat="42.6406080" lon="-0.8890680">
        <ele>637.299988</ele>
        <time>2018-06-15T09:05:17.000Z</time>
      </trkpt>
      <trkpt lat="42.6403480" lon="-0.8893240">
        <ele>641.599976</ele>
        <time>2018-06-15T09:05:26.000Z</time>
      </trkpt>
      <trkpt lat="42.6401780" lon="-0.8895000">
        <ele>641.400024</ele>
        <time>2018-06-15T09:05:31.000Z</time>
      </trkpt>
      <trkpt lat="42.6400850" lon="-0.8896790">
        <ele>639.199951</ele>
        <time>2018-06-15T09:05:36.000Z</time>
      </trkpt>
      <trkpt lat="42.6400400" lon="-0.8897930">
        <ele>637.200012</ele>
        <time>2018-06-15T09:05:38.000Z</time>
      </trkpt>
      <trkpt lat="42.6400200" lon="-0.8899190">
        <ele>635.200012</ele>
        <time>2018-06-15T09:05:41.000Z</time>
      </trkpt>
      <trkpt lat="42.6400260" lon="-0.8900290">
        <ele>633.199951</ele>
        <time>2018-06-15T09:05:43.000Z</time>
      </trkpt>
      <trkpt lat="42.6400040" lon="-0.8902190">
        <ele>631.800049</ele>
        <time>2018-06-15T09:05:47.000Z</time>
      </trkpt>
      <trkpt lat="42.6399720" lon="-0.8903770">
        <ele>632.299988</ele>
        <time>2018-06-15T09:05:50.000Z</time>
      </trkpt>
      <trkpt lat="42.6399010" lon="-0.8905530">
        <ele>634.700012</ele>
        <time>2018-06-15T09:05:54.000Z</time>
      </trkpt>
      <trkpt lat="42.6398640" lon="-0.8906940">
        <ele>636.000000</ele>
        <time>2018-06-15T09:05:57.000Z</time>
      </trkpt>
      <trkpt lat="42.6398440" lon="-0.8908080">
        <ele>636.899963</ele>
        <time>2018-06-15T09:05:59.000Z</time>
      </trkpt>
      <trkpt lat="42.6398390" lon="-0.8908790">
        <ele>637.399963</ele>
        <time>2018-06-15T09:06:01.000Z</time>
      </trkpt>
      <trkpt lat="42.6398440" lon="-0.8909320">
        <ele>637.800049</ele>
        <time>2018-06-15T09:06:02.000Z</time>
      </trkpt>
      <trkpt lat="42.6398810" lon="-0.8909960">
        <ele>637.599976</ele>
        <time>2018-06-15T09:06:03.000Z</time>
      </trkpt>
      <trkpt lat="42.6400040" lon="-0.8911310">
        <ele>634.900024</ele>
        <time>2018-06-15T09:06:07.000Z</time>
      </trkpt>
      <trkpt lat="42.6402510" lon="-0.8914180">
        <ele>631.000000</ele>
        <time>2018-06-15T09:06:16.000Z</time>
      </trkpt>
      <trkpt lat="42.6404500" lon="-0.8916460">
        <ele>628.200012</ele>
        <time>2018-06-15T09:06:23.000Z</time>
      </trkpt>
      <trkpt lat="42.6406280" lon="-0.8918910">
        <ele>627.799988</ele>
        <time>2018-06-15T09:06:30.000Z</time>
      </trkpt>
      <trkpt lat="42.6409170" lon="-0.8923290">
        <ele>629.299988</ele>
        <time>2018-06-15T09:06:41.000Z</time>
      </trkpt>
      <trkpt lat="42.6410530" lon="-0.8925000">
        <ele>631.900024</ele>
        <time>2018-06-15T09:06:46.000Z</time>
      </trkpt>
      <trkpt lat="42.6411710" lon="-0.8926420">
        <ele>633.600037</ele>
        <time>2018-06-15T09:06:50.000Z</time>
      </trkpt>
      <trkpt lat="42.6413380" lon="-0.8929150">
        <ele>638.000000</ele>
        <time>2018-06-15T09:06:57.000Z</time>
      </trkpt>
      <trkpt lat="42.6414870" lon="-0.8931460">
        <ele>641.300049</ele>
        <time>2018-06-15T09:07:03.000Z</time>
      </trkpt>
      <trkpt lat="42.6420650" lon="-0.8938060">
        <ele>646.000000</ele>
        <time>2018-06-15T09:07:24.000Z</time>
      </trkpt>
      <trkpt lat="42.6425100" lon="-0.8944710">
        <ele>650.599976</ele>
        <time>2018-06-15T09:07:41.000Z</time>
      </trkpt>
      <trkpt lat="42.6434790" lon="-0.8957490">
        <ele>649.100037</ele>
        <time>2018-06-15T09:08:17.000Z</time>
      </trkpt>
      <trkpt lat="42.6437640" lon="-0.8961210">
        <ele>649.399963</ele>
        <time>2018-06-15T09:08:27.000Z</time>
      </trkpt>
      <trkpt lat="42.6439110" lon="-0.8962390">
        <ele>653.900024</ele>
        <time>2018-06-15T09:08:32.000Z</time>
      </trkpt>
      <trkpt lat="42.6440030" lon="-0.8962570">
        <ele>657.099976</ele>
        <time>2018-06-15T09:08:35.000Z</time>
      </trkpt>
      <trkpt lat="42.6440740" lon="-0.8962480">
        <ele>659.000000</ele>
        <time>2018-06-15T09:08:37.000Z</time>
      </trkpt>
      <trkpt lat="42.6441210" lon="-0.8961980">
        <ele>660.299988</ele>
        <time>2018-06-15T09:08:38.000Z</time>
      </trkpt>
      <trkpt lat="42.6442020" lon="-0.8960740">
        <ele>662.200012</ele>
        <time>2018-06-15T09:08:41.000Z</time>
      </trkpt>
      <trkpt lat="42.6442980" lon="-0.8960160">
        <ele>663.900024</ele>
        <time>2018-06-15T09:08:44.000Z</time>
      </trkpt>
      <trkpt lat="42.6443640" lon="-0.8960430">
        <ele>666.200012</ele>
        <time>2018-06-15T09:08:46.000Z</time>
      </trkpt>
      <trkpt lat="42.6444090" lon="-0.8961190">
        <ele>667.900024</ele>
        <time>2018-06-15T09:08:48.000Z</time>
      </trkpt>
      <trkpt lat="42.6444550" lon="-0.8963110">
        <ele>669.700012</ele>
        <time>2018-06-15T09:08:52.000Z</time>
      </trkpt>
      <trkpt lat="42.6445470" lon="-0.8966060">
        <ele>670.600037</ele>
        <time>2018-06-15T09:08:58.000Z</time>
      </trkpt>
      <trkpt lat="42.6446330" lon="-0.8967780">
        <ele>669.599976</ele>
        <time>2018-06-15T09:09:02.000Z</time>
      </trkpt>
      <trkpt lat="42.6447460" lon="-0.8968820">
        <ele>669.300049</ele>
        <time>2018-06-15T09:09:06.000Z</time>
      </trkpt>
      <trkpt lat="42.6447920" lon="-0.8968950">
        <ele>669.799988</ele>
        <time>2018-06-15T09:09:07.000Z</time>
      </trkpt>
      <trkpt lat="42.6448520" lon="-0.8968910">
        <ele>671.100037</ele>
        <time>2018-06-15T09:09:09.000Z</time>
      </trkpt>
      <trkpt lat="42.6448980" lon="-0.8968140">
        <ele>674.600037</ele>
        <time>2018-06-15T09:09:11.000Z</time>
      </trkpt>
      <trkpt lat="42.6449350" lon="-0.8966000">
        <ele>680.600037</ele>
        <time>2018-06-15T09:09:16.000Z</time>
      </trkpt>
      <trkpt lat="42.6450370" lon="-0.8964330">
        <ele>685.200012</ele>
        <time>2018-06-15T09:09:20.000Z</time>
      </trkpt>
      <trkpt lat="42.6452460" lon="-0.8962040">
        <ele>691.799988</ele>
        <time>2018-06-15T09:09:27.000Z</time>
      </trkpt>
      <trkpt lat="42.6454150" lon="-0.8960740">
        <ele>697.799988</ele>
        <time>2018-06-15T09:09:33.000Z</time>
      </trkpt>
      <trkpt lat="42.6455780" lon="-0.8960110">
        <ele>699.500000</ele>
        <time>2018-06-15T09:09:37.000Z</time>
      </trkpt>
      <trkpt lat="42.6456920" lon="-0.8960050">
        <ele>699.799988</ele>
        <time>2018-06-15T09:09:40.000Z</time>
      </trkpt>
      <trkpt lat="42.6458010" lon="-0.8960320">
        <ele>698.500000</ele>
        <time>2018-06-15T09:09:43.000Z</time>
      </trkpt>
      <trkpt lat="42.6459090" lon="-0.8961230">
        <ele>697.900024</ele>
        <time>2018-06-15T09:09:46.000Z</time>
      </trkpt>
      <trkpt lat="42.6460230" lon="-0.8963350">
        <ele>699.399963</ele>
        <time>2018-06-15T09:09:52.000Z</time>
      </trkpt>
      <trkpt lat="42.6461680" lon="-0.8966090">
        <ele>701.500000</ele>
        <time>2018-06-15T09:09:58.000Z</time>
      </trkpt>
      <trkpt lat="42.6462890" lon="-0.8967530">
        <ele>703.900024</ele>
        <time>2018-06-15T09:10:02.000Z</time>
      </trkpt>
      <trkpt lat="42.6467930" lon="-0.8972870">
        <ele>713.200012</ele>
        <time>2018-06-15T09:10:19.000Z</time>
      </trkpt>
      <trkpt lat="42.6471320" lon="-0.8975330">
        <ele>713.299988</ele>
        <time>2018-06-15T09:10:30.000Z</time>
      </trkpt>
      <trkpt lat="42.6473060" lon="-0.8976090">
        <ele>711.000000</ele>
        <time>2018-06-15T09:10:35.000Z</time>
      </trkpt>
      <trkpt lat="42.6475740" lon="-0.8977640">
        <ele>715.399963</ele>
        <time>2018-06-15T09:10:42.000Z</time>
      </trkpt>
      <trkpt lat="42.6480810" lon="-0.8981540">
        <ele>734.300049</ele>
        <time>2018-06-15T09:10:58.000Z</time>
      </trkpt>
      <trkpt lat="42.6484530" lon="-0.8986520">
        <ele>736.600037</ele>
        <time>2018-06-15T09:11:12.000Z</time>
      </trkpt>
      <trkpt lat="42.6487060" lon="-0.8989710">
        <ele>739.600037</ele>
        <time>2018-06-15T09:11:21.000Z</time>
      </trkpt>
      <trkpt lat="42.6489590" lon="-0.8992450">
        <ele>744.500000</ele>
        <time>2018-06-15T09:11:30.000Z</time>
      </trkpt>
      <trkpt lat="42.6491460" lon="-0.8993550">
        <ele>747.300049</ele>
        <time>2018-06-15T09:11:36.000Z</time>
      </trkpt>
      <trkpt lat="42.6493730" lon="-0.8993970">
        <ele>747.099976</ele>
        <time>2018-06-15T09:11:42.000Z</time>
      </trkpt>
      <trkpt lat="42.6496020" lon="-0.8993860">
        <ele>746.299988</ele>
        <time>2018-06-15T09:11:48.000Z</time>
      </trkpt>
      <trkpt lat="42.6497800" lon="-0.8992580">
        <ele>755.199951</ele>
        <time>2018-06-15T09:11:53.000Z</time>
      </trkpt>
      <trkpt lat="42.6499090" lon="-0.8990720">
        <ele>758.000000</ele>
        <time>2018-06-15T09:11:59.000Z</time>
      </trkpt>
      <trkpt lat="42.6501040" lon="-0.8988660">
        <ele>757.700012</ele>
        <time>2018-06-15T09:12:05.000Z</time>
      </trkpt>
      <trkpt lat="42.6504890" lon="-0.8987460">
        <ele>758.500000</ele>
        <time>2018-06-15T09:12:16.000Z</time>
      </trkpt>
      <trkpt lat="42.6510610" lon="-0.8986040">
        <ele>762.200012</ele>
        <time>2018-06-15T09:12:31.000Z</time>
      </trkpt>
      <trkpt lat="42.6515930" lon="-0.8984250">
        <ele>769.900024</ele>
        <time>2018-06-15T09:12:46.000Z</time>
      </trkpt>
      <trkpt lat="42.6516640" lon="-0.8983960">
        <ele>769.599976</ele>
        <time>2018-06-15T09:12:48.000Z</time>
      </trkpt>
      <trkpt lat="42.6517250" lon="-0.8983810">
        <ele>769.400024</ele>
        <time>2018-06-15T09:12:49.000Z</time>
      </trkpt>
      <trkpt lat="42.6517710" lon="-0.8983750">
        <ele>769.200012</ele>
        <time>2018-06-15T09:12:50.000Z</time>
      </trkpt>
      <trkpt lat="42.6518190" lon="-0.8983840">
        <ele>768.800049</ele>
        <time>2018-06-15T09:12:52.000Z</time>
      </trkpt>
      <trkpt lat="42.6518820" lon="-0.8984010">
        <ele>767.799988</ele>
        <time>2018-06-15T09:12:53.000Z</time>
      </trkpt>
      <trkpt lat="42.6520080" lon="-0.8984600">
        <ele>765.399963</ele>
        <time>2018-06-15T09:12:57.000Z</time>
      </trkpt>
      <trkpt lat="42.6522360" lon="-0.8985730">
        <ele>759.100037</ele>
        <time>2018-06-15T09:13:04.000Z</time>
      </trkpt>
      <trkpt lat="42.6523780" lon="-0.8986330">
        <ele>755.100037</ele>
        <time>2018-06-15T09:13:08.000Z</time>
      </trkpt>
      <trkpt lat="42.6524710" lon="-0.8986200">
        <ele>753.500000</ele>
        <time>2018-06-15T09:13:10.000Z</time>
      </trkpt>
      <trkpt lat="42.6525710" lon="-0.8985740">
        <ele>751.599976</ele>
        <time>2018-06-15T09:13:13.000Z</time>
      </trkpt>
      <trkpt lat="42.6527590" lon="-0.8984560">
        <ele>751.500000</ele>
        <time>2018-06-15T09:13:19.000Z</time>
      </trkpt>
      <trkpt lat="42.6531370" lon="-0.8982240">
        <ele>752.199951</ele>
        <time>2018-06-15T09:13:30.000Z</time>
      </trkpt>
      <trkpt lat="42.6534820" lon="-0.8978800">
        <ele>749.200012</ele>
        <time>2018-06-15T09:13:41.000Z</time>
      </trkpt>
      <trkpt lat="42.6537680" lon="-0.8976830">
        <ele>747.700012</ele>
        <time>2018-06-15T09:13:49.000Z</time>
      </trkpt>
      <trkpt lat="42.6544690" lon="-0.8972300">
        <ele>729.500000</ele>
        <time>2018-06-15T09:14:10.000Z</time>
      </trkpt>
      <trkpt lat="42.6551560" lon="-0.8965760">
        <ele>711.799988</ele>
        <time>2018-06-15T09:14:33.000Z</time>
      </trkpt>
      <trkpt lat="42.6556420" lon="-0.8960410">
        <ele>707.900024</ele>
        <time>2018-06-15T09:14:50.000Z</time>
      </trkpt>
      <trkpt lat="42.6560780" lon="-0.8952940">
        <ele>707.500061</ele>
        <time>2018-06-15T09:15:08.000Z</time>
      </trkpt>
      <trkpt lat="42.6563540" lon="-0.8951940">
        <ele>699.399963</ele>
        <time>2018-06-15T09:15:16.000Z</time>
      </trkpt>
      <trkpt lat="42.6565760" lon="-0.8950700">
        <ele>694.099976</ele>
        <time>2018-06-15T09:15:23.000Z</time>
      </trkpt>
      <trkpt lat="42.6567290" lon="-0.8948990">
        <ele>692.400024</ele>
        <time>2018-06-15T09:15:28.000Z</time>
      </trkpt>
      <trkpt lat="42.6567890" lon="-0.8947820">
        <ele>691.599976</ele>
        <time>2018-06-15T09:15:31.000Z</time>
      </trkpt>
      <trkpt lat="42.6570130" lon="-0.8942450">
        <ele>678.900024</ele>
        <time>2018-06-15T09:15:43.000Z</time>
      </trkpt>
      <trkpt lat="42.6570470" lon="-0.8940560">
        <ele>677.600037</ele>
        <time>2018-06-15T09:15:47.000Z</time>
      </trkpt>
      <trkpt lat="42.6570920" lon="-0.8939880">
        <ele>676.099976</ele>
        <time>2018-06-15T09:15:49.000Z</time>
      </trkpt>
      <trkpt lat="42.6571500" lon="-0.8939540">
        <ele>674.100037</ele>
        <time>2018-06-15T09:15:50.000Z</time>
      </trkpt>
      <trkpt lat="42.6573450" lon="-0.8940990">
        <ele>665.100037</ele>
        <time>2018-06-15T09:15:57.000Z</time>
      </trkpt>
      <trkpt lat="42.6576700" lon="-0.8943530">
        <ele>650.799988</ele>
        <time>2018-06-15T09:16:07.000Z</time>
      </trkpt>
      <trkpt lat="42.6577550" lon="-0.8943850">
        <ele>650.300049</ele>
        <time>2018-06-15T09:16:10.000Z</time>
      </trkpt>
      <trkpt lat="42.6578320" lon="-0.8944010">
        <ele>649.799988</ele>
        <time>2018-06-15T09:16:12.000Z</time>
      </trkpt>
      <trkpt lat="42.6581490" lon="-0.8942450">
        <ele>655.000000</ele>
        <time>2018-06-15T09:16:21.000Z</time>
      </trkpt>
      <trkpt lat="42.6585560" lon="-0.8940690">
        <ele>657.900024</ele>
        <time>2018-06-15T09:16:32.000Z</time>
      </trkpt>
      <trkpt lat="42.6586310" lon="-0.8939850">
        <ele>657.500061</ele>
        <time>2018-06-15T09:16:35.000Z</time>
      </trkpt>
      <trkpt lat="42.6587090" lon="-0.8939300">
        <ele>656.900024</ele>
        <time>2018-06-15T09:16:37.000Z</time>
      </trkpt>
      <trkpt lat="42.6587470" lon="-0.8939610">
        <ele>655.000000</ele>
        <time>2018-06-15T09:16:38.000Z</time>
      </trkpt>
      <trkpt lat="42.6587510" lon="-0.8940580">
        <ele>652.399963</ele>
        <time>2018-06-15T09:16:40.000Z</time>
      </trkpt>
      <trkpt lat="42.6586750" lon="-0.8942520">
        <ele>651.099976</ele>
        <time>2018-06-15T09:16:44.000Z</time>
      </trkpt>
      <trkpt lat="42.6585370" lon="-0.8944210">
        <ele>652.199951</ele>
        <time>2018-06-15T09:16:49.000Z</time>
      </trkpt>
      <trkpt lat="42.6584640" lon="-0.8944940">
        <ele>652.600037</ele>
        <time>2018-06-15T09:16:52.000Z</time>
      </trkpt>
      <trkpt lat="42.6584330" lon="-0.8946010">
        <ele>650.799988</ele>
        <time>2018-06-15T09:16:54.000Z</time>
      </trkpt>
      <trkpt lat="42.6584530" lon="-0.8947090">
        <ele>649.600037</ele>
        <time>2018-06-15T09:16:56.000Z</time>
      </trkpt>
      <trkpt lat="42.6585000" lon="-0.8947840">
        <ele>648.400024</ele>
        <time>2018-06-15T09:16:58.000Z</time>
      </trkpt>
      <trkpt lat="42.6586000" lon="-0.8948740">
        <ele>646.200012</ele>
        <time>2018-06-15T09:17:01.000Z</time>
      </trkpt>
      <trkpt lat="42.6587070" lon="-0.8949650">
        <ele>644.900024</ele>
        <time>2018-06-15T09:17:05.000Z</time>
      </trkpt>
      <trkpt lat="42.6587620" lon="-0.8950680">
        <ele>644.799988</ele>
        <time>2018-06-15T09:17:07.000Z</time>
      </trkpt>
      <trkpt lat="42.6587770" lon="-0.8951420">
        <ele>645.299988</ele>
        <time>2018-06-15T09:17:09.000Z</time>
      </trkpt>
      <trkpt lat="42.6587670" lon="-0.8952000">
        <ele>646.200012</ele>
        <time>2018-06-15T09:17:10.000Z</time>
      </trkpt>
      <trkpt lat="42.6587250" lon="-0.8952370">
        <ele>646.800049</ele>
        <time>2018-06-15T09:17:11.000Z</time>
      </trkpt>
      <trkpt lat="42.6586750" lon="-0.8952590">
        <ele>647.200012</ele>
        <time>2018-06-15T09:17:13.000Z</time>
      </trkpt>
      <trkpt lat="42.6585820" lon="-0.8953300">
        <ele>647.999939</ele>
        <time>2018-06-15T09:17:16.000Z</time>
      </trkpt>
      <trkpt lat="42.6584630" lon="-0.8954530">
        <ele>649.000000</ele>
        <time>2018-06-15T09:17:20.000Z</time>
      </trkpt>
      <trkpt lat="42.6573180" lon="-0.8965940">
        <ele>647.599976</ele>
        <time>2018-06-15T09:17:57.000Z</time>
      </trkpt>
      <trkpt lat="42.6571160" lon="-0.8968090">
        <ele>642.500000</ele>
        <time>2018-06-15T09:18:04.000Z</time>
      </trkpt>
      <trkpt lat="42.6569740" lon="-0.8970430">
        <ele>637.500000</ele>
        <time>2018-06-15T09:18:10.000Z</time>
      </trkpt>
      <trkpt lat="42.6568820" lon="-0.8973710">
        <ele>634.700012</ele>
        <time>2018-06-15T09:18:17.000Z</time>
      </trkpt>
      <trkpt lat="42.6567750" lon="-0.8979860">
        <ele>632.900024</ele>
        <time>2018-06-15T09:18:29.000Z</time>
      </trkpt>
      <trkpt lat="42.6566870" lon="-0.8985050">
        <ele>633.400024</ele>
        <time>2018-06-15T09:18:40.000Z</time>
      </trkpt>
      <trkpt lat="42.6566400" lon="-0.8991010">
        <ele>636.000000</ele>
        <time>2018-06-15T09:18:51.000Z</time>
      </trkpt>
      <trkpt lat="42.6565770" lon="-0.8994870">
        <ele>636.799988</ele>
        <time>2018-06-15T09:18:59.000Z</time>
      </trkpt>
      <trkpt lat="42.6564690" lon="-0.8998090">
        <ele>637.399963</ele>
        <time>2018-06-15T09:19:06.000Z</time>
      </trkpt>
      <trkpt lat="42.6561920" lon="-0.9004440">
        <ele>636.400024</ele>
        <time>2018-06-15T09:19:20.000Z</time>
      </trkpt>
      <trkpt lat="42.6558610" lon="-0.9009850">
        <ele>643.899963</ele>
        <time>2018-06-15T09:19:34.000Z</time>
      </trkpt>
      <trkpt lat="42.6551170" lon="-0.9017920">
        <ele>633.600037</ele>
        <time>2018-06-15T09:20:00.000Z</time>
      </trkpt>
      <trkpt lat="42.6548270" lon="-0.9022890">
        <ele>627.500000</ele>
        <time>2018-06-15T09:20:12.000Z</time>
      </trkpt>
      <trkpt lat="42.6547410" lon="-0.9024790">
        <ele>627.399963</ele>
        <time>2018-06-15T09:20:16.000Z</time>
      </trkpt>
      <trkpt lat="42.6546650" lon="-0.9029860">
        <ele>628.900024</ele>
        <time>2018-06-15T09:20:27.000Z</time>
      </trkpt>
      <trkpt lat="42.6544650" lon="-0.9042850">
        <ele>629.400024</ele>
        <time>2018-06-15T09:20:52.000Z</time>
      </trkpt>
      <trkpt lat="42.6543630" lon="-0.9048680">
        <ele>631.300049</ele>
        <time>2018-06-15T09:21:04.000Z</time>
      </trkpt>
      <trkpt lat="42.6543680" lon="-0.9051420">
        <ele>631.599976</ele>
        <time>2018-06-15T09:21:09.000Z</time>
      </trkpt>
      <trkpt lat="42.6543980" lon="-0.9052420">
        <ele>630.500000</ele>
        <time>2018-06-15T09:21:12.000Z</time>
      </trkpt>
      <trkpt lat="42.6544620" lon="-0.9053520">
        <ele>629.599976</ele>
        <time>2018-06-15T09:21:14.000Z</time>
      </trkpt>
      <trkpt lat="42.6546430" lon="-0.9054070">
        <ele>630.400024</ele>
        <time>2018-06-15T09:21:19.000Z</time>
      </trkpt>
      <trkpt lat="42.6548160" lon="-0.9054030">
        <ele>631.300049</ele>
        <time>2018-06-15T09:21:24.000Z</time>
      </trkpt>
      <trkpt lat="42.6552900" lon="-0.9052850">
        <ele>643.600037</ele>
        <time>2018-06-15T09:21:37.000Z</time>
      </trkpt>
      <trkpt lat="42.6566640" lon="-0.9051260">
        <ele>639.899963</ele>
        <time>2018-06-15T09:22:14.000Z</time>
      </trkpt>
      <trkpt lat="42.6568290" lon="-0.9050810">
        <ele>642.799988</ele>
        <time>2018-06-15T09:22:18.000Z</time>
      </trkpt>
      <trkpt lat="42.6574880" lon="-0.9046410">
        <ele>651.099976</ele>
        <time>2018-06-15T09:22:38.000Z</time>
      </trkpt>
      <trkpt lat="42.6576670" lon="-0.9045740">
        <ele>648.599976</ele>
        <time>2018-06-15T09:22:43.000Z</time>
      </trkpt>
      <trkpt lat="42.6579690" lon="-0.9046470">
        <ele>639.899963</ele>
        <time>2018-06-15T09:22:51.000Z</time>
      </trkpt>
      <trkpt lat="42.6583080" lon="-0.9048240">
        <ele>634.300049</ele>
        <time>2018-06-15T09:23:01.000Z</time>
      </trkpt>
      <trkpt lat="42.6586870" lon="-0.9049360">
        <ele>638.099976</ele>
        <time>2018-06-15T09:23:11.000Z</time>
      </trkpt>
      <trkpt lat="42.6591410" lon="-0.9050970">
        <ele>633.299988</ele>
        <time>2018-06-15T09:23:24.000Z</time>
      </trkpt>
      <trkpt lat="42.6593900" lon="-0.9052480">
        <ele>632.500061</ele>
        <time>2018-06-15T09:23:31.000Z</time>
      </trkpt>
      <trkpt lat="42.6599810" lon="-0.9058380">
        <ele>636.600037</ele>
        <time>2018-06-15T09:23:50.000Z</time>
      </trkpt>
      <trkpt lat="42.6602970" lon="-0.9060840">
        <ele>641.799988</ele>
        <time>2018-06-15T09:24:00.000Z</time>
      </trkpt>
      <trkpt lat="42.6608280" lon="-0.9062980">
        <ele>641.900024</ele>
        <time>2018-06-15T09:24:15.000Z</time>
      </trkpt>
      <trkpt lat="42.6611930" lon="-0.9065600">
        <ele>639.099976</ele>
        <time>2018-06-15T09:24:26.000Z</time>
      </trkpt>
      <trkpt lat="42.6616080" lon="-0.9071260">
        <ele>638.700012</ele>
        <time>2018-06-15T09:24:41.000Z</time>
      </trkpt>
      <trkpt lat="42.6619060" lon="-0.9076610">
        <ele>639.699951</ele>
        <time>2018-06-15T09:24:54.000Z</time>
      </trkpt>
      <trkpt lat="42.6623240" lon="-0.9083270">
        <ele>642.400024</ele>
        <time>2018-06-15T09:25:11.000Z</time>
      </trkpt>
      <trkpt lat="42.6627200" lon="-0.9088270">
        <ele>644.500000</ele>
        <time>2018-06-15T09:25:26.000Z</time>
      </trkpt>
      <trkpt lat="42.6628770" lon="-0.9089540">
        <ele>645.200012</ele>
        <time>2018-06-15T09:25:31.000Z</time>
      </trkpt>
      <trkpt lat="42.6630580" lon="-0.9090290">
        <ele>647.500000</ele>
        <time>2018-06-15T09:25:36.000Z</time>
      </trkpt>
      <trkpt lat="42.6633030" lon="-0.9090080">
        <ele>652.600037</ele>
        <time>2018-06-15T09:25:42.000Z</time>
      </trkpt>
      <trkpt lat="42.6639030" lon="-0.9090670">
        <ele>656.599976</ele>
        <time>2018-06-15T09:25:58.000Z</time>
      </trkpt>
      <trkpt lat="42.6646990" lon="-0.9091100">
        <ele>657.099976</ele>
        <time>2018-06-15T09:26:19.000Z</time>
      </trkpt>
      <trkpt lat="42.6653900" lon="-0.9092550">
        <ele>664.400024</ele>
        <time>2018-06-15T09:26:38.000Z</time>
      </trkpt>
      <trkpt lat="42.6655240" lon="-0.9093080">
        <ele>663.099976</ele>
        <time>2018-06-15T09:26:42.000Z</time>
      </trkpt>
      <trkpt lat="42.6655890" lon="-0.9093710">
        <ele>665.100037</ele>
        <time>2018-06-15T09:26:44.000Z</time>
      </trkpt>
      <trkpt lat="42.6656190" lon="-0.9094480">
        <ele>667.799988</ele>
        <time>2018-06-15T09:26:46.000Z</time>
      </trkpt>
      <trkpt lat="42.6656150" lon="-0.9095820">
        <ele>672.300049</ele>
        <time>2018-06-15T09:26:48.000Z</time>
      </trkpt>
      <trkpt lat="42.6655670" lon="-0.9096570">
        <ele>672.799988</ele>
        <time>2018-06-15T09:26:50.000Z</time>
      </trkpt>
      <trkpt lat="42.6655120" lon="-0.9096890">
        <ele>672.500000</ele>
        <time>2018-06-15T09:26:52.000Z</time>
      </trkpt>
      <trkpt lat="42.6652990" lon="-0.9096840">
        <ele>666.400024</ele>
        <time>2018-06-15T09:26:58.000Z</time>
      </trkpt>
      <trkpt lat="42.6643490" lon="-0.9097320">
        <ele>657.599976</ele>
        <time>2018-06-15T09:27:23.000Z</time>
      </trkpt>
      <trkpt lat="42.6642910" lon="-0.9097810">
        <ele>656.900024</ele>
        <time>2018-06-15T09:27:25.000Z</time>
      </trkpt>
      <trkpt lat="42.6642500" lon="-0.9098720">
        <ele>656.399963</ele>
        <time>2018-06-15T09:27:27.000Z</time>
      </trkpt>
      <trkpt lat="42.6642280" lon="-0.9100270">
        <ele>656.500000</ele>
        <time>2018-06-15T09:27:30.000Z</time>
      </trkpt>
      <trkpt lat="42.6642620" lon="-0.9101610">
        <ele>655.899963</ele>
        <time>2018-06-15T09:27:33.000Z</time>
      </trkpt>
      <trkpt lat="42.6643230" lon="-0.9102980">
        <ele>655.700012</ele>
        <time>2018-06-15T09:27:36.000Z</time>
      </trkpt>
      <trkpt lat="42.6644990" lon="-0.9105260">
        <ele>656.599976</ele>
        <time>2018-06-15T09:27:42.000Z</time>
      </trkpt>
      <trkpt lat="42.6650110" lon="-0.9110070">
        <ele>662.000000</ele>
        <time>2018-06-15T09:27:59.000Z</time>
      </trkpt>
      <trkpt lat="42.6651540" lon="-0.9111430">
        <ele>664.500000</ele>
        <time>2018-06-15T09:28:04.000Z</time>
      </trkpt>
      <trkpt lat="42.6651960" lon="-0.9112760">
        <ele>665.800049</ele>
        <time>2018-06-15T09:28:06.000Z</time>
      </trkpt>
      <trkpt lat="42.6652360" lon="-0.9117120">
        <ele>669.500000</ele>
        <time>2018-06-15T09:28:15.000Z</time>
      </trkpt>
      <trkpt lat="42.6652920" lon="-0.9121620">
        <ele>671.700012</ele>
        <time>2018-06-15T09:28:24.000Z</time>
      </trkpt>
      <trkpt lat="42.6653350" lon="-0.9124410">
        <ele>672.500000</ele>
        <time>2018-06-15T09:28:30.000Z</time>
      </trkpt>
      <trkpt lat="42.6654420" lon="-0.9126660">
        <ele>673.200012</ele>
        <time>2018-06-15T09:28:35.000Z</time>
      </trkpt>
      <trkpt lat="42.6655090" lon="-0.9127310">
        <ele>675.200012</ele>
        <time>2018-06-15T09:28:37.000Z</time>
      </trkpt>
      <trkpt lat="42.6655840" lon="-0.9127790">
        <ele>675.599976</ele>
        <time>2018-06-15T09:28:39.000Z</time>
      </trkpt>
      <trkpt lat="42.6658600" lon="-0.9128380">
        <ele>676.099976</ele>
        <time>2018-06-15T09:28:47.000Z</time>
      </trkpt>
      <trkpt lat="42.6665740" lon="-0.9130150">
        <ele>675.999939</ele>
        <time>2018-06-15T09:29:06.000Z</time>
      </trkpt>
      <trkpt lat="42.6671610" lon="-0.9129990">
        <ele>683.700012</ele>
        <time>2018-06-15T09:29:22.000Z</time>
      </trkpt>
      <trkpt lat="42.6672840" lon="-0.9130530">
        <ele>684.800049</ele>
        <time>2018-06-15T09:29:25.000Z</time>
      </trkpt>
      <trkpt lat="42.6673470" lon="-0.9131560">
        <ele>687.100037</ele>
        <time>2018-06-15T09:29:28.000Z</time>
      </trkpt>
      <trkpt lat="42.6673430" lon="-0.9132730">
        <ele>687.399963</ele>
        <time>2018-06-15T09:29:30.000Z</time>
      </trkpt>
      <trkpt lat="42.6673050" lon="-0.9133400">
        <ele>686.400024</ele>
        <time>2018-06-15T09:29:32.000Z</time>
      </trkpt>
      <trkpt lat="42.6672320" lon="-0.9134280">
        <ele>684.800049</ele>
        <time>2018-06-15T09:29:34.000Z</time>
      </trkpt>
      <trkpt lat="42.6668770" lon="-0.9134930">
        <ele>681.300049</ele>
        <time>2018-06-15T09:29:44.000Z</time>
      </trkpt>
      <trkpt lat="42.6667710" lon="-0.9135460">
        <ele>681.200012</ele>
        <time>2018-06-15T09:29:47.000Z</time>
      </trkpt>
      <trkpt lat="42.6666580" lon="-0.9136670">
        <ele>681.500000</ele>
        <time>2018-06-15T09:29:51.000Z</time>
      </trkpt>
      <trkpt lat="42.6666290" lon="-0.9138140">
        <ele>682.000000</ele>
        <time>2018-06-15T09:29:54.000Z</time>
      </trkpt>
      <trkpt lat="42.6666330" lon="-0.9139750">
        <ele>682.000000</ele>
        <time>2018-06-15T09:29:57.000Z</time>
      </trkpt>
      <trkpt lat="42.6667280" lon="-0.9140720">
        <ele>682.099976</ele>
        <time>2018-06-15T09:30:00.000Z</time>
      </trkpt>
      <trkpt lat="42.6668700" lon="-0.9141680">
        <ele>681.500000</ele>
        <time>2018-06-15T09:30:04.000Z</time>
      </trkpt>
      <trkpt lat="42.6670070" lon="-0.9142960">
        <ele>679.900024</ele>
        <time>2018-06-15T09:30:08.000Z</time>
      </trkpt>
      <trkpt lat="42.6672640" lon="-0.9146670">
        <ele>682.599976</ele>
        <time>2018-06-15T09:30:18.000Z</time>
      </trkpt>
      <trkpt lat="42.6677660" lon="-0.9153360">
        <ele>687.399963</ele>
        <time>2018-06-15T09:30:37.000Z</time>
      </trkpt>
      <trkpt lat="42.6682580" lon="-0.9160300">
        <ele>689.699951</ele>
        <time>2018-06-15T09:30:56.000Z</time>
      </trkpt>
      <trkpt lat="42.6687200" lon="-0.9167330">
        <ele>691.000000</ele>
        <time>2018-06-15T09:31:14.000Z</time>
      </trkpt>
      <trkpt lat="42.6690080" lon="-0.9172260">
        <ele>692.500000</ele>
        <time>2018-06-15T09:31:27.000Z</time>
      </trkpt>
      <trkpt lat="42.6693040" lon="-0.9178000">
        <ele>700.099976</ele>
        <time>2018-06-15T09:31:40.000Z</time>
      </trkpt>
      <trkpt lat="42.6696030" lon="-0.9185090">
        <ele>703.300049</ele>
        <time>2018-06-15T09:31:56.000Z</time>
      </trkpt>
      <trkpt lat="42.6697100" lon="-0.9188840">
        <ele>706.200012</ele>
        <time>2018-06-15T09:32:04.000Z</time>
      </trkpt>
      <trkpt lat="42.6697530" lon="-0.9190500">
        <ele>708.400024</ele>
        <time>2018-06-15T09:32:08.000Z</time>
      </trkpt>
      <trkpt lat="42.6697340" lon="-0.9191310">
        <ele>709.700012</ele>
        <time>2018-06-15T09:32:09.000Z</time>
      </trkpt>
      <trkpt lat="42.6696750" lon="-0.9192430">
        <ele>711.400024</ele>
        <time>2018-06-15T09:32:12.000Z</time>
      </trkpt>
      <trkpt lat="42.6695970" lon="-0.9194240">
        <ele>712.899963</ele>
        <time>2018-06-15T09:32:16.000Z</time>
      </trkpt>
      <trkpt lat="42.6695360" lon="-0.9196130">
        <ele>713.799988</ele>
        <time>2018-06-15T09:32:20.000Z</time>
      </trkpt>
      <trkpt lat="42.6694780" lon="-0.9198000">
        <ele>715.200012</ele>
        <time>2018-06-15T09:32:24.000Z</time>
      </trkpt>
      <trkpt lat="42.6694090" lon="-0.9198990">
        <ele>715.500000</ele>
        <time>2018-06-15T09:32:27.000Z</time>
      </trkpt>
      <trkpt lat="42.6691650" lon="-0.9201260">
        <ele>715.899963</ele>
        <time>2018-06-15T09:32:35.000Z</time>
      </trkpt>
      <trkpt lat="42.6689180" lon="-0.9204530">
        <ele>716.599976</ele>
        <time>2018-06-15T09:32:44.000Z</time>
      </trkpt>
      <trkpt lat="42.6687690" lon="-0.9205590">
        <ele>718.700012</ele>
        <time>2018-06-15T09:32:48.000Z</time>
      </trkpt>
      <trkpt lat="42.6684260" lon="-0.9206230">
        <ele>725.200012</ele>
        <time>2018-06-15T09:32:58.000Z</time>
      </trkpt>
      <trkpt lat="42.6679210" lon="-0.9206660">
        <ele>727.199951</ele>
        <time>2018-06-15T09:33:11.000Z</time>
      </trkpt>
      <trkpt lat="42.6677080" lon="-0.9206770">
        <ele>727.799988</ele>
        <time>2018-06-15T09:33:17.000Z</time>
      </trkpt>
      <trkpt lat="42.6675660" lon="-0.9207090">
        <ele>728.200012</ele>
        <time>2018-06-15T09:33:21.000Z</time>
      </trkpt>
      <trkpt lat="42.6673060" lon="-0.9206980">
        <ele>729.200012</ele>
        <time>2018-06-15T09:33:27.000Z</time>
      </trkpt>
      <trkpt lat="42.6666240" lon="-0.9205910">
        <ele>732.200012</ele>
        <time>2018-06-15T09:33:46.000Z</time>
      </trkpt>
      <trkpt lat="42.6662650" lon="-0.9205100">
        <ele>731.700012</ele>
        <time>2018-06-15T09:33:55.000Z</time>
      </trkpt>
      <trkpt lat="42.6660800" lon="-0.9203950">
        <ele>731.500000</ele>
        <time>2018-06-15T09:34:01.000Z</time>
      </trkpt>
      <trkpt lat="42.6659430" lon="-0.9202780">
        <ele>732.400024</ele>
        <time>2018-06-15T09:34:05.000Z</time>
      </trkpt>
      <trkpt lat="42.6658750" lon="-0.9201950">
        <ele>733.299988</ele>
        <time>2018-06-15T09:34:07.000Z</time>
      </trkpt>
      <trkpt lat="42.6658170" lon="-0.9201420">
        <ele>734.200012</ele>
        <time>2018-06-15T09:34:09.000Z</time>
      </trkpt>
      <trkpt lat="42.6657420" lon="-0.9201100">
        <ele>735.500061</ele>
        <time>2018-06-15T09:34:11.000Z</time>
      </trkpt>
      <trkpt lat="42.6656100" lon="-0.9200940">
        <ele>737.299988</ele>
        <time>2018-06-15T09:34:15.000Z</time>
      </trkpt>
      <trkpt lat="42.6653700" lon="-0.9201430">
        <ele>739.500000</ele>
        <time>2018-06-15T09:34:21.000Z</time>
      </trkpt>
      <trkpt lat="42.6652780" lon="-0.9201880">
        <ele>740.200012</ele>
        <time>2018-06-15T09:34:24.000Z</time>
      </trkpt>
      <trkpt lat="42.6652000" lon="-0.9202740">
        <ele>740.800049</ele>
        <time>2018-06-15T09:34:27.000Z</time>
      </trkpt>
      <trkpt lat="42.6651260" lon="-0.9204070">
        <ele>740.899963</ele>
        <time>2018-06-15T09:34:30.000Z</time>
      </trkpt>
      <trkpt lat="42.6650220" lon="-0.9205850">
        <ele>739.600037</ele>
        <time>2018-06-15T09:34:34.000Z</time>
      </trkpt>
      <trkpt lat="42.6645020" lon="-0.9217660">
        <ele>733.500000</ele>
        <time>2018-06-15T09:35:01.000Z</time>
      </trkpt>
      <trkpt lat="42.6644510" lon="-0.9218670">
        <ele>732.700012</ele>
        <time>2018-06-15T09:35:04.000Z</time>
      </trkpt>
      <trkpt lat="42.6643010" lon="-0.9220450">
        <ele>732.000000</ele>
        <time>2018-06-15T09:35:09.000Z</time>
      </trkpt>
      <trkpt lat="42.6642450" lon="-0.9221140">
        <ele>732.500061</ele>
        <time>2018-06-15T09:35:11.000Z</time>
      </trkpt>
      <trkpt lat="42.6642030" lon="-0.9222600">
        <ele>733.100037</ele>
        <time>2018-06-15T09:35:14.000Z</time>
      </trkpt>
      <trkpt lat="42.6641940" lon="-0.9223770">
        <ele>733.500000</ele>
        <time>2018-06-15T09:35:16.000Z</time>
      </trkpt>
      <trkpt lat="42.6642070" lon="-0.9225040">
        <ele>734.100037</ele>
        <time>2018-06-15T09:35:19.000Z</time>
      </trkpt>
      <trkpt lat="42.6642610" lon="-0.9226880">
        <ele>734.300049</ele>
        <time>2018-06-15T09:35:23.000Z</time>
      </trkpt>
      <trkpt lat="42.6643060" lon="-0.9229450">
        <ele>734.000000</ele>
        <time>2018-06-15T09:35:28.000Z</time>
      </trkpt>
      <trkpt lat="42.6643550" lon="-0.9232730">
        <ele>733.299988</ele>
        <time>2018-06-15T09:35:34.000Z</time>
      </trkpt>
      <trkpt lat="42.6643730" lon="-0.9235970">
        <ele>732.200012</ele>
        <time>2018-06-15T09:35:41.000Z</time>
      </trkpt>
      <trkpt lat="42.6644070" lon="-0.9236810">
        <ele>731.300049</ele>
        <time>2018-06-15T09:35:43.000Z</time>
      </trkpt>
      <trkpt lat="42.6644620" lon="-0.9237610">
        <ele>730.299988</ele>
        <time>2018-06-15T09:35:45.000Z</time>
      </trkpt>
      <trkpt lat="42.6649200" lon="-0.9242280">
        <ele>730.799988</ele>
        <time>2018-06-15T09:36:00.000Z</time>
      </trkpt>
      <trkpt lat="42.6654630" lon="-0.9248390">
        <ele>731.399963</ele>
        <time>2018-06-15T09:36:19.000Z</time>
      </trkpt>
      <trkpt lat="42.6654960" lon="-0.9250380">
        <ele>730.000000</ele>
        <time>2018-06-15T09:36:23.000Z</time>
      </trkpt>
      <trkpt lat="42.6654910" lon="-0.9251740">
        <ele>729.500000</ele>
        <time>2018-06-15T09:36:25.000Z</time>
      </trkpt>
      <trkpt lat="42.6654250" lon="-0.9253330">
        <ele>730.000000</ele>
        <time>2018-06-15T09:36:29.000Z</time>
      </trkpt>
      <trkpt lat="42.6651490" lon="-0.9258160">
        <ele>731.500000</ele>
        <time>2018-06-15T09:36:41.000Z</time>
      </trkpt>
      <trkpt lat="42.6649930" lon="-0.9261080">
        <ele>731.300049</ele>
        <time>2018-06-15T09:36:48.000Z</time>
      </trkpt>
      <trkpt lat="42.6648770" lon="-0.9263150">
        <ele>731.300049</ele>
        <time>2018-06-15T09:36:53.000Z</time>
      </trkpt>
      <trkpt lat="42.6647990" lon="-0.9265720">
        <ele>729.900024</ele>
        <time>2018-06-15T09:36:58.000Z</time>
      </trkpt>
      <trkpt lat="42.6647440" lon="-0.9272750">
        <ele>730.199951</ele>
        <time>2018-06-15T09:37:12.000Z</time>
      </trkpt>
      <trkpt lat="42.6646800" lon="-0.9275910">
        <ele>730.899963</ele>
        <time>2018-06-15T09:37:18.000Z</time>
      </trkpt>
      <trkpt lat="42.6644270" lon="-0.9282780">
        <ele>734.599976</ele>
        <time>2018-06-15T09:37:33.000Z</time>
      </trkpt>
      <trkpt lat="42.6641470" lon="-0.9290290">
        <ele>736.299988</ele>
        <time>2018-06-15T09:37:50.000Z</time>
      </trkpt>
      <trkpt lat="42.6640450" lon="-0.9293400">
        <ele>733.500000</ele>
        <time>2018-06-15T09:37:57.000Z</time>
      </trkpt>
      <trkpt lat="42.6640170" lon="-0.9294310">
        <ele>732.700012</ele>
        <time>2018-06-15T09:37:58.000Z</time>
      </trkpt>
      <trkpt lat="42.6639520" lon="-0.9295280">
        <ele>732.500061</ele>
        <time>2018-06-15T09:38:01.000Z</time>
      </trkpt>
      <trkpt lat="42.6635970" lon="-0.9296760">
        <ele>736.199951</ele>
        <time>2018-06-15T09:38:11.000Z</time>
      </trkpt>
      <trkpt lat="42.6634770" lon="-0.9297370">
        <ele>737.399963</ele>
        <time>2018-06-15T09:38:14.000Z</time>
      </trkpt>
      <trkpt lat="42.6633060" lon="-0.9299160">
        <ele>733.299988</ele>
        <time>2018-06-15T09:38:20.000Z</time>
      </trkpt>
      <trkpt lat="42.6631730" lon="-0.9300910">
        <ele>730.400024</ele>
        <time>2018-06-15T09:38:25.000Z</time>
      </trkpt>
      <trkpt lat="42.6630660" lon="-0.9303200">
        <ele>728.700012</ele>
        <time>2018-06-15T09:38:30.000Z</time>
      </trkpt>
      <trkpt lat="42.6630190" lon="-0.9304340">
        <ele>728.300049</ele>
        <time>2018-06-15T09:38:33.000Z</time>
      </trkpt>
      <trkpt lat="42.6629810" lon="-0.9305980">
        <ele>729.099976</ele>
        <time>2018-06-15T09:38:36.000Z</time>
      </trkpt>
      <trkpt lat="42.6629490" lon="-0.9313610">
        <ele>733.400024</ele>
        <time>2018-06-15T09:38:51.000Z</time>
      </trkpt>
      <trkpt lat="42.6629840" lon="-0.9318880">
        <ele>733.799988</ele>
        <time>2018-06-15T09:39:02.000Z</time>
      </trkpt>
      <trkpt lat="42.6631020" lon="-0.9323630">
        <ele>732.299988</ele>
        <time>2018-06-15T09:39:11.000Z</time>
      </trkpt>
      <trkpt lat="42.6633260" lon="-0.9335510">
        <ele>727.100037</ele>
        <time>2018-06-15T09:39:35.000Z</time>
      </trkpt>
      <trkpt lat="42.6634210" lon="-0.9338350">
        <ele>728.900024</ele>
        <time>2018-06-15T09:39:41.000Z</time>
      </trkpt>
      <trkpt lat="42.6634530" lon="-0.9340020">
        <ele>730.000000</ele>
        <time>2018-06-15T09:39:45.000Z</time>
      </trkpt>
      <trkpt lat="42.6634330" lon="-0.9343400">
        <ele>731.500000</ele>
        <time>2018-06-15T09:39:51.000Z</time>
      </trkpt>
      <trkpt lat="42.6633700" lon="-0.9347030">
        <ele>732.099976</ele>
        <time>2018-06-15T09:39:59.000Z</time>
      </trkpt>
      <trkpt lat="42.6633070" lon="-0.9349830">
        <ele>731.800049</ele>
        <time>2018-06-15T09:40:04.000Z</time>
      </trkpt>
      <trkpt lat="42.6632010" lon="-0.9351020">
        <ele>731.000000</ele>
        <time>2018-06-15T09:40:08.000Z</time>
      </trkpt>
      <trkpt lat="42.6630630" lon="-0.9351710">
        <ele>728.999939</ele>
        <time>2018-06-15T09:40:12.000Z</time>
      </trkpt>
      <trkpt lat="42.6630110" lon="-0.9352620">
        <ele>728.999939</ele>
        <time>2018-06-15T09:40:14.000Z</time>
      </trkpt>
      <trkpt lat="42.6629770" lon="-0.9354170">
        <ele>730.100037</ele>
        <time>2018-06-15T09:40:17.000Z</time>
      </trkpt>
      <trkpt lat="42.6629720" lon="-0.9356700">
        <ele>731.599976</ele>
        <time>2018-06-15T09:40:22.000Z</time>
      </trkpt>
      <trkpt lat="42.6628550" lon="-0.9362310">
        <ele>735.200012</ele>
        <time>2018-06-15T09:40:34.000Z</time>
      </trkpt>
      <trkpt lat="42.6626630" lon="-0.9368530">
        <ele>738.200012</ele>
        <time>2018-06-15T09:40:47.000Z</time>
      </trkpt>
      <trkpt lat="42.6625150" lon="-0.9372630">
        <ele>739.799988</ele>
        <time>2018-06-15T09:40:56.000Z</time>
      </trkpt>
      <trkpt lat="42.6623920" lon="-0.9376070">
        <ele>742.699951</ele>
        <time>2018-06-15T09:41:03.000Z</time>
      </trkpt>
      <trkpt lat="42.6622820" lon="-0.9377460">
        <ele>742.799988</ele>
        <time>2018-06-15T09:41:07.000Z</time>
      </trkpt>
      <trkpt lat="42.6618300" lon="-0.9379570">
        <ele>740.500000</ele>
        <time>2018-06-15T09:41:20.000Z</time>
      </trkpt>
      <trkpt lat="42.6617220" lon="-0.9380140">
        <ele>739.600037</ele>
        <time>2018-06-15T09:41:23.000Z</time>
      </trkpt>
      <trkpt lat="42.6615360" lon="-0.9382670">
        <ele>739.600037</ele>
        <time>2018-06-15T09:41:30.000Z</time>
      </trkpt>
      <trkpt lat="42.6614780" lon="-0.9383950">
        <ele>740.200012</ele>
        <time>2018-06-15T09:41:33.000Z</time>
      </trkpt>
      <trkpt lat="42.6614380" lon="-0.9387070">
        <ele>743.800049</ele>
        <time>2018-06-15T09:41:39.000Z</time>
      </trkpt>
      <trkpt lat="42.6614220" lon="-0.9387760">
        <ele>744.400024</ele>
        <time>2018-06-15T09:41:41.000Z</time>
      </trkpt>
      <trkpt lat="42.6613820" lon="-0.9388350">
        <ele>744.799988</ele>
        <time>2018-06-15T09:41:42.000Z</time>
      </trkpt>
      <trkpt lat="42.6612620" lon="-0.9389030">
        <ele>746.000000</ele>
        <time>2018-06-15T09:41:46.000Z</time>
      </trkpt>
      <trkpt lat="42.6609250" lon="-0.9391300">
        <ele>748.900024</ele>
        <time>2018-06-15T09:41:56.000Z</time>
      </trkpt>
      <trkpt lat="42.6605710" lon="-0.9393100">
        <ele>752.000000</ele>
        <time>2018-06-15T09:42:06.000Z</time>
      </trkpt>
      <trkpt lat="42.6602620" lon="-0.9396250">
        <ele>753.300049</ele>
        <time>2018-06-15T09:42:16.000Z</time>
      </trkpt>
      <trkpt lat="42.6598650" lon="-0.9400960">
        <ele>753.300049</ele>
        <time>2018-06-15T09:42:30.000Z</time>
      </trkpt>
      <trkpt lat="42.6597580" lon="-0.9404350">
        <ele>753.200012</ele>
        <time>2018-06-15T09:42:37.000Z</time>
      </trkpt>
      <trkpt lat="42.6596500" lon="-0.9406520">
        <ele>752.700012</ele>
        <time>2018-06-15T09:42:42.000Z</time>
      </trkpt>
      <trkpt lat="42.6595340" lon="-0.9408040">
        <ele>751.400024</ele>
        <time>2018-06-15T09:42:46.000Z</time>
      </trkpt>
      <trkpt lat="42.6593620" lon="-0.9409290">
        <ele>748.699951</ele>
        <time>2018-06-15T09:42:52.000Z</time>
      </trkpt>
      <trkpt lat="42.6593000" lon="-0.9409810">
        <ele>747.599976</ele>
        <time>2018-06-15T09:42:54.000Z</time>
      </trkpt>
      <trkpt lat="42.6592520" lon="-0.9410620">
        <ele>743.800049</ele>
        <time>2018-06-15T09:42:56.000Z</time>
      </trkpt>
      <trkpt lat="42.6592170" lon="-0.9411630">
        <ele>740.599976</ele>
        <time>2018-06-15T09:42:58.000Z</time>
      </trkpt>
      <trkpt lat="42.6592270" lon="-0.9412800">
        <ele>738.700012</ele>
        <time>2018-06-15T09:43:00.000Z</time>
      </trkpt>
      <trkpt lat="42.6592810" lon="-0.9414270">
        <ele>736.299988</ele>
        <time>2018-06-15T09:43:04.000Z</time>
      </trkpt>
      <trkpt lat="42.6598200" lon="-0.9426290">
        <ele>725.300049</ele>
        <time>2018-06-15T09:43:31.000Z</time>
      </trkpt>
      <trkpt lat="42.6602880" lon="-0.9434650">
        <ele>728.200012</ele>
        <time>2018-06-15T09:43:52.000Z</time>
      </trkpt>
      <trkpt lat="42.6603720" lon="-0.9437000">
        <ele>729.400024</ele>
        <time>2018-06-15T09:43:57.000Z</time>
      </trkpt>
      <trkpt lat="42.6604420" lon="-0.9442440">
        <ele>726.200012</ele>
        <time>2018-06-15T09:44:08.000Z</time>
      </trkpt>
      <trkpt lat="42.6604790" lon="-0.9444950">
        <ele>727.700012</ele>
        <time>2018-06-15T09:44:13.000Z</time>
      </trkpt>
      <trkpt lat="42.6604650" lon="-0.9446510">
        <ele>728.999939</ele>
        <time>2018-06-15T09:44:16.000Z</time>
      </trkpt>
      <trkpt lat="42.6603730" lon="-0.9448160">
        <ele>731.399963</ele>
        <time>2018-06-15T09:44:20.000Z</time>
      </trkpt>
      <trkpt lat="42.6602440" lon="-0.9449030">
        <ele>732.099976</ele>
        <time>2018-06-15T09:44:24.000Z</time>
      </trkpt>
      <trkpt lat="42.6594650" lon="-0.9454620">
        <ele>740.200012</ele>
        <time>2018-06-15T09:44:47.000Z</time>
      </trkpt>
      <trkpt lat="42.6592430" lon="-0.9456550">
        <ele>740.599976</ele>
        <time>2018-06-15T09:44:54.000Z</time>
      </trkpt>
      <trkpt lat="42.6590190" lon="-0.9458050">
        <ele>742.600037</ele>
        <time>2018-06-15T09:45:01.000Z</time>
      </trkpt>
      <trkpt lat="42.6587980" lon="-0.9458910">
        <ele>745.299988</ele>
        <time>2018-06-15T09:45:07.000Z</time>
      </trkpt>
      <trkpt lat="42.6584820" lon="-0.9458050">
        <ele>751.699951</ele>
        <time>2018-06-15T09:45:16.000Z</time>
      </trkpt>
      <trkpt lat="42.6581220" lon="-0.9458570">
        <ele>755.500000</ele>
        <time>2018-06-15T09:45:25.000Z</time>
      </trkpt>
      <trkpt lat="42.6579910" lon="-0.9459220">
        <ele>755.700012</ele>
        <time>2018-06-15T09:45:29.000Z</time>
      </trkpt>
      <trkpt lat="42.6579000" lon="-0.9460170">
        <ele>755.899963</ele>
        <time>2018-06-15T09:45:32.000Z</time>
      </trkpt>
      <trkpt lat="42.6577970" lon="-0.9460610">
        <ele>758.199951</ele>
        <time>2018-06-15T09:45:35.000Z</time>
      </trkpt>
      <trkpt lat="42.6576310" lon="-0.9460870">
        <ele>762.500000</ele>
        <time>2018-06-15T09:45:39.000Z</time>
      </trkpt>
      <trkpt lat="42.6574260" lon="-0.9461110">
        <ele>763.599976</ele>
        <time>2018-06-15T09:45:45.000Z</time>
      </trkpt>
      <trkpt lat="42.6572480" lon="-0.9460690">
        <ele>764.500000</ele>
        <time>2018-06-15T09:45:50.000Z</time>
      </trkpt>
      <trkpt lat="42.6566350" lon="-0.9457840">
        <ele>762.800049</ele>
        <time>2018-06-15T09:46:07.000Z</time>
      </trkpt>
      <trkpt lat="42.6564130" lon="-0.9458410">
        <ele>758.299988</ele>
        <time>2018-06-15T09:46:13.000Z</time>
      </trkpt>
      <trkpt lat="42.6563010" lon="-0.9459780">
        <ele>757.700012</ele>
        <time>2018-06-15T09:46:17.000Z</time>
      </trkpt>
      <trkpt lat="42.6562340" lon="-0.9461790">
        <ele>755.199951</ele>
        <time>2018-06-15T09:46:21.000Z</time>
      </trkpt>
      <trkpt lat="42.6562660" lon="-0.9465280">
        <ele>752.199951</ele>
        <time>2018-06-15T09:46:28.000Z</time>
      </trkpt>
      <trkpt lat="42.6563640" lon="-0.9469820">
        <ele>750.399963</ele>
        <time>2018-06-15T09:46:37.000Z</time>
      </trkpt>
      <trkpt lat="42.6563750" lon="-0.9473950">
        <ele>750.999939</ele>
        <time>2018-06-15T09:46:45.000Z</time>
      </trkpt>
      <trkpt lat="42.6562870" lon="-0.9478830">
        <ele>754.599976</ele>
        <time>2018-06-15T09:46:55.000Z</time>
      </trkpt>
      <trkpt lat="42.6561000" lon="-0.9485770">
        <ele>758.799988</ele>
        <time>2018-06-15T09:47:10.000Z</time>
      </trkpt>
      <trkpt lat="42.6559810" lon="-0.9490890">
        <ele>757.900024</ele>
        <time>2018-06-15T09:47:20.000Z</time>
      </trkpt>
      <trkpt lat="42.6559390" lon="-0.9494630">
        <ele>756.500000</ele>
        <time>2018-06-15T09:47:28.000Z</time>
      </trkpt>
      <trkpt lat="42.6559390" lon="-0.9496040">
        <ele>756.000000</ele>
        <time>2018-06-15T09:47:30.000Z</time>
      </trkpt>
      <trkpt lat="42.6560350" lon="-0.9497490">
        <ele>753.500000</ele>
        <time>2018-06-15T09:47:34.000Z</time>
      </trkpt>
      <trkpt lat="42.6562340" lon="-0.9498890">
        <ele>749.899963</ele>
        <time>2018-06-15T09:47:40.000Z</time>
      </trkpt>
      <trkpt lat="42.6563890" lon="-0.9500150">
        <ele>745.799988</ele>
        <time>2018-06-15T09:47:45.000Z</time>
      </trkpt>
      <trkpt lat="42.6565290" lon="-0.9501650">
        <ele>741.599976</ele>
        <time>2018-06-15T09:47:50.000Z</time>
      </trkpt>
      <trkpt lat="42.6568830" lon="-0.9504560">
        <ele>737.200012</ele>
        <time>2018-06-15T09:48:01.000Z</time>
      </trkpt>
      <trkpt lat="42.6569750" lon="-0.9506120">
        <ele>737.000000</ele>
        <time>2018-06-15T09:48:05.000Z</time>
      </trkpt>
      <trkpt lat="42.6571510" lon="-0.9511000">
        <ele>741.400024</ele>
        <time>2018-06-15T09:48:16.000Z</time>
      </trkpt>
      <trkpt lat="42.6572620" lon="-0.9517030">
        <ele>745.400024</ele>
        <time>2018-06-15T09:48:28.000Z</time>
      </trkpt>
      <trkpt lat="42.6574340" lon="-0.9524000">
        <ele>747.900024</ele>
        <time>2018-06-15T09:48:42.000Z</time>
      </trkpt>
      <trkpt lat="42.6574810" lon="-0.9527710">
        <ele>746.000000</ele>
        <time>2018-06-15T09:48:49.000Z</time>
      </trkpt>
      <trkpt lat="42.6574720" lon="-0.9529560">
        <ele>745.000061</ele>
        <time>2018-06-15T09:48:53.000Z</time>
      </trkpt>
      <trkpt lat="42.6574180" lon="-0.9532000">
        <ele>744.000000</ele>
        <time>2018-06-15T09:48:58.000Z</time>
      </trkpt>
      <trkpt lat="42.6574260" lon="-0.9535220">
        <ele>742.099976</ele>
        <time>2018-06-15T09:49:04.000Z</time>
      </trkpt>
      <trkpt lat="42.6573840" lon="-0.9536890">
        <ele>741.400024</ele>
        <time>2018-06-15T09:49:08.000Z</time>
      </trkpt>
      <trkpt lat="42.6571630" lon="-0.9539950">
        <ele>739.799988</ele>
        <time>2018-06-15T09:49:16.000Z</time>
      </trkpt>
      <trkpt lat="42.6570120" lon="-0.9542810">
        <ele>735.900024</ele>
        <time>2018-06-15T09:49:23.000Z</time>
      </trkpt>
      <trkpt lat="42.6567550" lon="-0.9550220">
        <ele>741.400024</ele>
        <time>2018-06-15T09:49:39.000Z</time>
      </trkpt>
      <trkpt lat="42.6562070" lon="-0.9558330">
        <ele>752.000000</ele>
        <time>2018-06-15T09:50:01.000Z</time>
      </trkpt>
      <trkpt lat="42.6561440" lon="-0.9560790">
        <ele>751.500000</ele>
        <time>2018-06-15T09:50:06.000Z</time>
      </trkpt>
      <trkpt lat="42.6561840" lon="-0.9564120">
        <ele>749.299988</ele>
        <time>2018-06-15T09:50:12.000Z</time>
      </trkpt>
      <trkpt lat="42.6561610" lon="-0.9566090">
        <ele>747.500000</ele>
        <time>2018-06-15T09:50:16.000Z</time>
      </trkpt>
      <trkpt lat="42.6559970" lon="-0.9568430">
        <ele>746.700012</ele>
        <time>2018-06-15T09:50:23.000Z</time>
      </trkpt>
      <trkpt lat="42.6558780" lon="-0.9571290">
        <ele>747.200012</ele>
        <time>2018-06-15T09:50:29.000Z</time>
      </trkpt>
      <trkpt lat="42.6558060" lon="-0.9574250">
        <ele>748.600037</ele>
        <time>2018-06-15T09:50:35.000Z</time>
      </trkpt>
      <trkpt lat="42.6558140" lon="-0.9577980">
        <ele>751.699951</ele>
        <time>2018-06-15T09:50:42.000Z</time>
      </trkpt>
      <trkpt lat="42.6557070" lon="-0.9581060">
        <ele>749.100037</ele>
        <time>2018-06-15T09:50:49.000Z</time>
      </trkpt>
      <trkpt lat="42.6554020" lon="-0.9586350">
        <ele>743.100037</ele>
        <time>2018-06-15T09:51:02.000Z</time>
      </trkpt>
      <trkpt lat="42.6552970" lon="-0.9588800">
        <ele>743.600037</ele>
        <time>2018-06-15T09:51:08.000Z</time>
      </trkpt>
      <trkpt lat="42.6552100" lon="-0.9592180">
        <ele>743.000000</ele>
        <time>2018-06-15T09:51:15.000Z</time>
      </trkpt>
      <trkpt lat="42.6550980" lon="-0.9594310">
        <ele>740.399963</ele>
        <time>2018-06-15T09:51:20.000Z</time>
      </trkpt>
      <trkpt lat="42.6549970" lon="-0.9595390">
        <ele>738.200012</ele>
        <time>2018-06-15T09:51:23.000Z</time>
      </trkpt>
      <trkpt lat="42.6549400" lon="-0.9595850">
        <ele>737.100037</ele>
        <time>2018-06-15T09:51:25.000Z</time>
      </trkpt>
      <trkpt lat="42.6548780" lon="-0.9596190">
        <ele>736.400024</ele>
        <time>2018-06-15T09:51:27.000Z</time>
      </trkpt>
      <trkpt lat="42.6547750" lon="-0.9596070">
        <ele>735.799988</ele>
        <time>2018-06-15T09:51:30.000Z</time>
      </trkpt>
      <trkpt lat="42.6546940" lon="-0.9596360">
        <ele>735.700012</ele>
        <time>2018-06-15T09:51:32.000Z</time>
      </trkpt>
      <trkpt lat="42.6546320" lon="-0.9596970">
        <ele>735.900024</ele>
        <time>2018-06-15T09:51:34.000Z</time>
      </trkpt>
      <trkpt lat="42.6544670" lon="-0.9598610">
        <ele>737.800049</ele>
        <time>2018-06-15T09:51:39.000Z</time>
      </trkpt>
      <trkpt lat="42.6543340" lon="-0.9600940">
        <ele>740.399963</ele>
        <time>2018-06-15T09:51:45.000Z</time>
      </trkpt>
      <trkpt lat="42.6542840" lon="-0.9602490">
        <ele>743.299988</ele>
        <time>2018-06-15T09:51:49.000Z</time>
      </trkpt>
      <trkpt lat="42.6542840" lon="-0.9603940">
        <ele>745.699951</ele>
        <time>2018-06-15T09:51:51.000Z</time>
      </trkpt>
      <trkpt lat="42.6543340" lon="-0.9605230">
        <ele>746.500000</ele>
        <time>2018-06-15T09:51:54.000Z</time>
      </trkpt>
      <trkpt lat="42.6543940" lon="-0.9606950">
        <ele>746.800049</ele>
        <time>2018-06-15T09:51:58.000Z</time>
      </trkpt>
      <trkpt lat="42.6544310" lon="-0.9610450">
        <ele>746.899963</ele>
        <time>2018-06-15T09:52:05.000Z</time>
      </trkpt>
      <trkpt lat="42.6544110" lon="-0.9611680">
        <ele>746.800049</ele>
        <time>2018-06-15T09:52:07.000Z</time>
      </trkpt>
      <trkpt lat="42.6543470" lon="-0.9613530">
        <ele>746.899963</ele>
        <time>2018-06-15T09:52:11.000Z</time>
      </trkpt>
      <trkpt lat="42.6542370" lon="-0.9615090">
        <ele>747.900024</ele>
        <time>2018-06-15T09:52:16.000Z</time>
      </trkpt>
      <trkpt lat="42.6537270" lon="-0.9619220">
        <ele>753.300049</ele>
        <time>2018-06-15T09:52:31.000Z</time>
      </trkpt>
      <trkpt lat="42.6534940" lon="-0.9621440">
        <ele>750.399963</ele>
        <time>2018-06-15T09:52:39.000Z</time>
      </trkpt>
      <trkpt lat="42.6532430" lon="-0.9624710">
        <ele>750.700012</ele>
        <time>2018-06-15T09:52:48.000Z</time>
      </trkpt>
      <trkpt lat="42.6531120" lon="-0.9625730">
        <ele>750.999939</ele>
        <time>2018-06-15T09:52:52.000Z</time>
      </trkpt>
      <trkpt lat="42.6530680" lon="-0.9626690">
        <ele>751.299988</ele>
        <time>2018-06-15T09:52:54.000Z</time>
      </trkpt>
      <trkpt lat="42.6530720" lon="-0.9627810">
        <ele>752.100037</ele>
        <time>2018-06-15T09:52:57.000Z</time>
      </trkpt>
      <trkpt lat="42.6530950" lon="-0.9630030">
        <ele>753.999939</ele>
        <time>2018-06-15T09:53:01.000Z</time>
      </trkpt>
      <trkpt lat="42.6532050" lon="-0.9633960">
        <ele>759.500000</ele>
        <time>2018-06-15T09:53:09.000Z</time>
      </trkpt>
      <trkpt lat="42.6533040" lon="-0.9637310">
        <ele>761.299988</ele>
        <time>2018-06-15T09:53:16.000Z</time>
      </trkpt>
      <trkpt lat="42.6532730" lon="-0.9640980">
        <ele>761.299988</ele>
        <time>2018-06-15T09:53:24.000Z</time>
      </trkpt>
      <trkpt lat="42.6532300" lon="-0.9644180">
        <ele>757.700012</ele>
        <time>2018-06-15T09:53:30.000Z</time>
      </trkpt>
      <trkpt lat="42.6531740" lon="-0.9645380">
        <ele>754.599976</ele>
        <time>2018-06-15T09:53:33.000Z</time>
      </trkpt>
      <trkpt lat="42.6529120" lon="-0.9646460">
        <ele>746.299988</ele>
        <time>2018-06-15T09:53:40.000Z</time>
      </trkpt>
      <trkpt lat="42.6526950" lon="-0.9646700">
        <ele>741.599976</ele>
        <time>2018-06-15T09:53:46.000Z</time>
      </trkpt>
      <trkpt lat="42.6525470" lon="-0.9646410">
        <ele>740.000000</ele>
        <time>2018-06-15T09:53:50.000Z</time>
      </trkpt>
      <trkpt lat="42.6522630" lon="-0.9644450">
        <ele>741.900024</ele>
        <time>2018-06-15T09:53:59.000Z</time>
      </trkpt>
      <trkpt lat="42.6521290" lon="-0.9643640">
        <ele>742.099976</ele>
        <time>2018-06-15T09:54:03.000Z</time>
      </trkpt>
      <trkpt lat="42.6520150" lon="-0.9643520">
        <ele>741.299988</ele>
        <time>2018-06-15T09:54:06.000Z</time>
      </trkpt>
      <trkpt lat="42.6519360" lon="-0.9644450">
        <ele>739.000000</ele>
        <time>2018-06-15T09:54:08.000Z</time>
      </trkpt>
      <trkpt lat="42.6518670" lon="-0.9644960">
        <ele>738.099976</ele>
        <time>2018-06-15T09:54:10.000Z</time>
      </trkpt>
      <trkpt lat="42.6516200" lon="-0.9645380">
        <ele>740.899963</ele>
        <time>2018-06-15T09:54:17.000Z</time>
      </trkpt>
      <trkpt lat="42.6513540" lon="-0.9644750">
        <ele>751.599976</ele>
        <time>2018-06-15T09:54:25.000Z</time>
      </trkpt>
      <trkpt lat="42.6512520" lon="-0.9645340">
        <ele>756.700012</ele>
        <time>2018-06-15T09:54:28.000Z</time>
      </trkpt>
      <trkpt lat="42.6512220" lon="-0.9645900">
        <ele>758.000000</ele>
        <time>2018-06-15T09:54:29.000Z</time>
      </trkpt>
      <trkpt lat="42.6512100" lon="-0.9646610">
        <ele>759.399963</ele>
        <time>2018-06-15T09:54:31.000Z</time>
      </trkpt>
      <trkpt lat="42.6512900" lon="-0.9647700">
        <ele>757.599976</ele>
        <time>2018-06-15T09:54:34.000Z</time>
      </trkpt>
      <trkpt lat="42.6515210" lon="-0.9648940">
        <ele>748.000061</ele>
        <time>2018-06-15T09:54:41.000Z</time>
      </trkpt>
      <trkpt lat="42.6517900" lon="-0.9650620">
        <ele>741.499939</ele>
        <time>2018-06-15T09:54:49.000Z</time>
      </trkpt>
      <trkpt lat="42.6518480" lon="-0.9651550">
        <ele>741.099976</ele>
        <time>2018-06-15T09:54:51.000Z</time>
      </trkpt>
      <trkpt lat="42.6523830" lon="-0.9661140">
        <ele>727.399963</ele>
        <time>2018-06-15T09:55:15.000Z</time>
      </trkpt>
      <trkpt lat="42.6525960" lon="-0.9666300">
        <ele>723.200012</ele>
        <time>2018-06-15T09:55:26.000Z</time>
      </trkpt>
      <trkpt lat="42.6528800" lon="-0.9670270">
        <ele>718.100037</ele>
        <time>2018-06-15T09:55:37.000Z</time>
      </trkpt>
      <trkpt lat="42.6531720" lon="-0.9674610">
        <ele>708.899963</ele>
        <time>2018-06-15T09:55:49.000Z</time>
      </trkpt>
      <trkpt lat="42.6537280" lon="-0.9682910">
        <ele>687.000000</ele>
        <time>2018-06-15T09:56:11.000Z</time>
      </trkpt>
      <trkpt lat="42.6540360" lon="-0.9687850">
        <ele>678.399963</ele>
        <time>2018-06-15T09:56:24.000Z</time>
      </trkpt>
      <trkpt lat="42.6544970" lon="-0.9694070">
        <ele>665.599976</ele>
        <time>2018-06-15T09:56:42.000Z</time>
      </trkpt>
      <trkpt lat="42.6548010" lon="-0.9700240">
        <ele>653.500000</ele>
        <time>2018-06-15T09:56:57.000Z</time>
      </trkpt>
      <trkpt lat="42.6549850" lon="-0.9706650">
        <ele>649.500000</ele>
        <time>2018-06-15T09:57:10.000Z</time>
      </trkpt>
      <trkpt lat="42.6550570" lon="-0.9709370">
        <ele>651.799988</ele>
        <time>2018-06-15T09:57:16.000Z</time>
      </trkpt>
      <trkpt lat="42.6551940" lon="-0.9710240">
        <ele>651.099976</ele>
        <time>2018-06-15T09:57:20.000Z</time>
      </trkpt>
      <trkpt lat="42.6552710" lon="-0.9710700">
        <ele>650.300049</ele>
        <time>2018-06-15T09:57:22.000Z</time>
      </trkpt>
      <trkpt lat="42.6554680" lon="-0.9713970">
        <ele>647.099976</ele>
        <time>2018-06-15T09:57:30.000Z</time>
      </trkpt>
      <trkpt lat="42.6558900" lon="-0.9721610">
        <ele>641.300049</ele>
        <time>2018-06-15T09:57:49.000Z</time>
      </trkpt>
      <trkpt lat="42.6562170" lon="-0.9728820">
        <ele>635.799988</ele>
        <time>2018-06-15T09:58:05.000Z</time>
      </trkpt>
      <trkpt lat="42.6563110" lon="-0.9730620">
        <ele>634.700012</ele>
        <time>2018-06-15T09:58:10.000Z</time>
      </trkpt>
      <trkpt lat="42.6566290" lon="-0.9735170">
        <ele>632.599976</ele>
        <time>2018-06-15T09:58:22.000Z</time>
      </trkpt>
      <trkpt lat="42.6567580" lon="-0.9736470">
        <ele>634.399963</ele>
        <time>2018-06-15T09:58:26.000Z</time>
      </trkpt>
      <trkpt lat="42.6569100" lon="-0.9736370">
        <ele>635.000000</ele>
        <time>2018-06-15T09:58:30.000Z</time>
      </trkpt>
      <trkpt lat="42.6570660" lon="-0.9735800">
        <ele>635.200012</ele>
        <time>2018-06-15T09:58:35.000Z</time>
      </trkpt>
      <trkpt lat="42.6571570" lon="-0.9736020">
        <ele>634.900024</ele>
        <time>2018-06-15T09:58:37.000Z</time>
      </trkpt>
      <trkpt lat="42.6572220" lon="-0.9736420">
        <ele>634.900024</ele>
        <time>2018-06-15T09:58:39.000Z</time>
      </trkpt>
      <trkpt lat="42.6575820" lon="-0.9740140">
        <ele>639.099976</ele>
        <time>2018-06-15T09:58:51.000Z</time>
      </trkpt>
      <trkpt lat="42.6580680" lon="-0.9743770">
        <ele>642.000061</ele>
        <time>2018-06-15T09:59:06.000Z</time>
      </trkpt>
      <trkpt lat="42.6586400" lon="-0.9749080">
        <ele>628.500000</ele>
        <time>2018-06-15T09:59:24.000Z</time>
      </trkpt>
      <trkpt lat="42.6588630" lon="-0.9749540">
        <ele>621.700012</ele>
        <time>2018-06-15T09:59:31.000Z</time>
      </trkpt>
      <trkpt lat="42.6591140" lon="-0.9750260">
        <ele>617.299988</ele>
        <time>2018-06-15T09:59:37.000Z</time>
      </trkpt>
      <trkpt lat="42.6596070" lon="-0.9753290">
        <ele>609.200012</ele>
        <time>2018-06-15T09:59:52.000Z</time>
      </trkpt>
      <trkpt lat="42.6601700" lon="-0.9756570">
        <ele>597.899963</ele>
        <time>2018-06-15T10:00:08.000Z</time>
      </trkpt>
      <trkpt lat="42.6606790" lon="-0.9758890">
        <ele>594.599976</ele>
        <time>2018-06-15T10:00:23.000Z</time>
      </trkpt>
      <trkpt lat="42.6609790" lon="-0.9760130">
        <ele>593.200012</ele>
        <time>2018-06-15T10:00:31.000Z</time>
      </trkpt>
      <trkpt lat="42.6614510" lon="-0.9762250">
        <ele>593.000000</ele>
        <time>2018-06-15T10:00:44.000Z</time>
      </trkpt>
      <trkpt lat="42.6617960" lon="-0.9762560">
        <ele>591.099976</ele>
        <time>2018-06-15T10:00:53.000Z</time>
      </trkpt>
      <trkpt lat="42.6620640" lon="-0.9763220">
        <ele>591.700012</ele>
        <time>2018-06-15T10:01:01.000Z</time>
      </trkpt>
      <trkpt lat="42.6622440" lon="-0.9763160">
        <ele>588.099976</ele>
        <time>2018-06-15T10:01:05.000Z</time>
      </trkpt>
      <trkpt lat="42.6623760" lon="-0.9763000">
        <ele>585.399963</ele>
        <time>2018-06-15T10:01:09.000Z</time>
      </trkpt>
      <trkpt lat="42.6627160" lon="-0.9760860">
        <ele>586.700012</ele>
        <time>2018-06-15T10:01:19.000Z</time>
      </trkpt>
      <trkpt lat="42.6628220" lon="-0.9760160">
        <ele>587.100037</ele>
        <time>2018-06-15T10:01:22.000Z</time>
      </trkpt>
      <trkpt lat="42.6629590" lon="-0.9760180">
        <ele>586.599976</ele>
        <time>2018-06-15T10:01:26.000Z</time>
      </trkpt>
      <trkpt lat="42.6630900" lon="-0.9760530">
        <ele>586.000000</ele>
        <time>2018-06-15T10:01:29.000Z</time>
      </trkpt>
      <trkpt lat="42.6632600" lon="-0.9760700">
        <ele>585.600037</ele>
        <time>2018-06-15T10:01:34.000Z</time>
      </trkpt>
      <trkpt lat="42.6633890" lon="-0.9761260">
        <ele>585.799988</ele>
        <time>2018-06-15T10:01:37.000Z</time>
      </trkpt>
      <trkpt lat="42.6634890" lon="-0.9762250">
        <ele>586.599976</ele>
        <time>2018-06-15T10:01:41.000Z</time>
      </trkpt>
      <trkpt lat="42.6636270" lon="-0.9764360">
        <ele>586.700012</ele>
        <time>2018-06-15T10:01:46.000Z</time>
      </trkpt>
      <trkpt lat="42.6636590" lon="-0.9765430">
        <ele>587.000000</ele>
        <time>2018-06-15T10:01:48.000Z</time>
      </trkpt>
      <trkpt lat="42.6637180" lon="-0.9768780">
        <ele>585.399963</ele>
        <time>2018-06-15T10:01:55.000Z</time>
      </trkpt>
      <trkpt lat="42.6638610" lon="-0.9773620">
        <ele>580.799988</ele>
        <time>2018-06-15T10:02:05.000Z</time>
      </trkpt>
      <trkpt lat="42.6639550" lon="-0.9775010">
        <ele>581.100037</ele>
        <time>2018-06-15T10:02:09.000Z</time>
      </trkpt>
      <trkpt lat="42.6640610" lon="-0.9775980">
        <ele>581.799988</ele>
        <time>2018-06-15T10:02:12.000Z</time>
      </trkpt>
      <trkpt lat="42.6641520" lon="-0.9776410">
        <ele>581.100037</ele>
        <time>2018-06-15T10:02:15.000Z</time>
      </trkpt>
      <trkpt lat="42.6642720" lon="-0.9776530">
        <ele>580.200012</ele>
        <time>2018-06-15T10:02:18.000Z</time>
      </trkpt>
      <trkpt lat="42.6645700" lon="-0.9776250">
        <ele>582.799988</ele>
        <time>2018-06-15T10:02:26.000Z</time>
      </trkpt>
      <trkpt lat="42.6647180" lon="-0.9775680">
        <ele>584.200012</ele>
        <time>2018-06-15T10:02:30.000Z</time>
      </trkpt>
      <trkpt lat="42.6648280" lon="-0.9775220">
        <ele>585.200012</ele>
        <time>2018-06-15T10:02:33.000Z</time>
      </trkpt>
      <trkpt lat="42.6649000" lon="-0.9775420">
        <ele>586.099976</ele>
        <time>2018-06-15T10:02:35.000Z</time>
      </trkpt>
      <trkpt lat="42.6649170" lon="-0.9775880">
        <ele>586.500000</ele>
        <time>2018-06-15T10:02:36.000Z</time>
      </trkpt>
      <trkpt lat="42.6649130" lon="-0.9777000">
        <ele>586.400024</ele>
        <time>2018-06-15T10:02:38.000Z</time>
      </trkpt>
      <trkpt lat="42.6648190" lon="-0.9782740">
        <ele>582.500000</ele>
        <time>2018-06-15T10:02:50.000Z</time>
      </trkpt>
      <trkpt lat="42.6647750" lon="-0.9786540">
        <ele>577.799988</ele>
        <time>2018-06-15T10:02:57.000Z</time>
      </trkpt>
      <trkpt lat="42.6648300" lon="-0.9789340">
        <ele>575.700012</ele>
        <time>2018-06-15T10:03:03.000Z</time>
      </trkpt>
      <trkpt lat="42.6650450" lon="-0.9798370">
        <ele>578.400024</ele>
        <time>2018-06-15T10:03:22.000Z</time>
      </trkpt>
      <trkpt lat="42.6652880" lon="-0.9805650">
        <ele>578.000000</ele>
        <time>2018-06-15T10:03:37.000Z</time>
      </trkpt>
      <trkpt lat="42.6653200" lon="-0.9807260">
        <ele>577.200012</ele>
        <time>2018-06-15T10:03:41.000Z</time>
      </trkpt>
      <trkpt lat="42.6653110" lon="-0.9809940">
        <ele>576.400024</ele>
        <time>2018-06-15T10:03:46.000Z</time>
      </trkpt>
      <trkpt lat="42.6653300" lon="-0.9814230">
        <ele>579.200012</ele>
        <time>2018-06-15T10:03:54.000Z</time>
      </trkpt>
      <trkpt lat="42.6654550" lon="-0.9818620">
        <ele>580.899963</ele>
        <time>2018-06-15T10:04:03.000Z</time>
      </trkpt>
      <trkpt lat="42.6654660" lon="-0.9821260">
        <ele>581.000000</ele>
        <time>2018-06-15T10:04:09.000Z</time>
      </trkpt>
      <trkpt lat="42.6653910" lon="-0.9832530">
        <ele>578.200012</ele>
        <time>2018-06-15T10:04:31.000Z</time>
      </trkpt>
      <trkpt lat="42.6653910" lon="-0.9836710">
        <ele>579.600037</ele>
        <time>2018-06-15T10:04:39.000Z</time>
      </trkpt>
      <trkpt lat="42.6653710" lon="-0.9839230">
        <ele>579.500000</ele>
        <time>2018-06-15T10:04:44.000Z</time>
      </trkpt>
      <trkpt lat="42.6652620" lon="-0.9845800">
        <ele>576.200012</ele>
        <time>2018-06-15T10:04:57.000Z</time>
      </trkpt>
      <trkpt lat="42.6652840" lon="-0.9848020">
        <ele>574.600037</ele>
        <time>2018-06-15T10:05:01.000Z</time>
      </trkpt>
      <trkpt lat="42.6653870" lon="-0.9850500">
        <ele>575.000000</ele>
        <time>2018-06-15T10:05:07.000Z</time>
      </trkpt>
      <trkpt lat="42.6654590" lon="-0.9855560">
        <ele>574.799988</ele>
        <time>2018-06-15T10:05:17.000Z</time>
      </trkpt>
      <trkpt lat="42.6654210" lon="-0.9858660">
        <ele>572.799988</ele>
        <time>2018-06-15T10:05:23.000Z</time>
      </trkpt>
      <trkpt lat="42.6654660" lon="-0.9861400">
        <ele>571.299988</ele>
        <time>2018-06-15T10:05:28.000Z</time>
      </trkpt>
      <trkpt lat="42.6657590" lon="-0.9867710">
        <ele>571.600037</ele>
        <time>2018-06-15T10:05:43.000Z</time>
      </trkpt>
      <trkpt lat="42.6657780" lon="-0.9870950">
        <ele>571.700012</ele>
        <time>2018-06-15T10:05:49.000Z</time>
      </trkpt>
      <trkpt lat="42.6657620" lon="-0.9874580">
        <ele>573.799988</ele>
        <time>2018-06-15T10:05:56.000Z</time>
      </trkpt>
      <trkpt lat="42.6657250" lon="-0.9878300">
        <ele>576.500000</ele>
        <time>2018-06-15T10:06:04.000Z</time>
      </trkpt>
      <trkpt lat="42.6655920" lon="-0.9882950">
        <ele>575.000000</ele>
        <time>2018-06-15T10:06:14.000Z</time>
      </trkpt>
      <trkpt lat="42.6655080" lon="-0.9885430">
        <ele>572.099976</ele>
        <time>2018-06-15T10:06:19.000Z</time>
      </trkpt>
      <trkpt lat="42.6655210" lon="-0.9888050">
        <ele>570.400024</ele>
        <time>2018-06-15T10:06:24.000Z</time>
      </trkpt>
      <trkpt lat="42.6655500" lon="-0.9891790">
        <ele>568.700012</ele>
        <time>2018-06-15T10:06:31.000Z</time>
      </trkpt>
      <trkpt lat="42.6656520" lon="-0.9895360">
        <ele>568.799988</ele>
        <time>2018-06-15T10:06:39.000Z</time>
      </trkpt>
      <trkpt lat="42.6658250" lon="-0.9898830">
        <ele>567.700012</ele>
        <time>2018-06-15T10:06:47.000Z</time>
      </trkpt>
      <trkpt lat="42.6659790" lon="-0.9902960">
        <ele>563.399963</ele>
        <time>2018-06-15T10:06:56.000Z</time>
      </trkpt>
      <trkpt lat="42.6661880" lon="-0.9907730">
        <ele>564.400024</ele>
        <time>2018-06-15T10:07:07.000Z</time>
      </trkpt>
      <trkpt lat="42.6662420" lon="-0.9909400">
        <ele>564.899963</ele>
        <time>2018-06-15T10:07:11.000Z</time>
      </trkpt>
      <trkpt lat="42.6662650" lon="-0.9910750">
        <ele>565.600037</ele>
        <time>2018-06-15T10:07:13.000Z</time>
      </trkpt>
      <trkpt lat="42.6663100" lon="-0.9911810">
        <ele>566.599976</ele>
        <time>2018-06-15T10:07:16.000Z</time>
      </trkpt>
      <trkpt lat="42.6663300" lon="-0.9918410">
        <ele>569.799988</ele>
        <time>2018-06-15T10:07:29.000Z</time>
      </trkpt>
      <trkpt lat="42.6663020" lon="-0.9921550">
        <ele>569.099976</ele>
        <time>2018-06-15T10:07:35.000Z</time>
      </trkpt>
      <trkpt lat="42.6662590" lon="-0.9924100">
        <ele>567.299988</ele>
        <time>2018-06-15T10:07:40.000Z</time>
      </trkpt>
      <trkpt lat="42.6660960" lon="-0.9930130">
        <ele>565.700012</ele>
        <time>2018-06-15T10:07:52.000Z</time>
      </trkpt>
      <trkpt lat="42.6661450" lon="-0.9932750">
        <ele>564.099976</ele>
        <time>2018-06-15T10:07:58.000Z</time>
      </trkpt>
      <trkpt lat="42.6662510" lon="-0.9935730">
        <ele>561.899963</ele>
        <time>2018-06-15T10:08:04.000Z</time>
      </trkpt>
      <trkpt lat="42.6664430" lon="-0.9939480">
        <ele>560.600037</ele>
        <time>2018-06-15T10:08:13.000Z</time>
      </trkpt>
      <trkpt lat="42.6667300" lon="-0.9945590">
        <ele>562.100037</ele>
        <time>2018-06-15T10:08:27.000Z</time>
      </trkpt>
      <trkpt lat="42.6669380" lon="-0.9950470">
        <ele>564.200012</ele>
        <time>2018-06-15T10:08:38.000Z</time>
      </trkpt>
      <trkpt lat="42.6671380" lon="-0.9956120">
        <ele>565.100037</ele>
        <time>2018-06-15T10:08:50.000Z</time>
      </trkpt>
      <trkpt lat="42.6673200" lon="-0.9963460">
        <ele>561.500000</ele>
        <time>2018-06-15T10:09:06.000Z</time>
      </trkpt>
      <trkpt lat="42.6674560" lon="-0.9967270">
        <ele>558.500000</ele>
        <time>2018-06-15T10:09:14.000Z</time>
      </trkpt>
      <trkpt lat="42.6676750" lon="-0.9971070">
        <ele>556.799988</ele>
        <time>2018-06-15T10:09:23.000Z</time>
      </trkpt>
      <trkpt lat="42.6678900" lon="-0.9978230">
        <ele>562.500000</ele>
        <time>2018-06-15T10:09:38.000Z</time>
      </trkpt>
      <trkpt lat="42.6679130" lon="-0.9992540">
        <ele>559.400024</ele>
        <time>2018-06-15T10:10:06.000Z</time>
      </trkpt>
      <trkpt lat="42.6679850" lon="-0.9995110">
        <ele>559.000000</ele>
        <time>2018-06-15T10:10:12.000Z</time>
      </trkpt>
      <trkpt lat="42.6680070" lon="-0.9996190">
        <ele>559.000000</ele>
        <time>2018-06-15T10:10:14.000Z</time>
      </trkpt>
      <trkpt lat="42.6679960" lon="-0.9997420">
        <ele>558.899963</ele>
        <time>2018-06-15T10:10:16.000Z</time>
      </trkpt>
      <trkpt lat="42.6679830" lon="-0.9999250">
        <ele>558.700012</ele>
        <time>2018-06-15T10:10:20.000Z</time>
      </trkpt>
      <trkpt lat="42.6680190" lon="-1.0001930">
        <ele>558.899963</ele>
        <time>2018-06-15T10:10:25.000Z</time>
      </trkpt>
      <trkpt lat="42.6682070" lon="-1.0010620">
        <ele>556.799988</ele>
        <time>2018-06-15T10:10:43.000Z</time>
      </trkpt>
      <trkpt lat="42.6683550" lon="-1.0013910">
        <ele>558.000000</ele>
        <time>2018-06-15T10:10:50.000Z</time>
      </trkpt>
      <trkpt lat="42.6683970" lon="-1.0015880">
        <ele>559.100037</ele>
        <time>2018-06-15T10:10:54.000Z</time>
      </trkpt>
      <trkpt lat="42.6684080" lon="-1.0016520">
        <ele>559.400024</ele>
        <time>2018-06-15T10:10:56.000Z</time>
      </trkpt>
      <trkpt lat="42.6684090" lon="-1.0017410">
        <ele>559.700012</ele>
        <time>2018-06-15T10:10:57.000Z</time>
      </trkpt>
      <trkpt lat="42.6683930" lon="-1.0021770">
        <ele>561.700012</ele>
        <time>2018-06-15T10:11:06.000Z</time>
      </trkpt>
      <trkpt lat="42.6683750" lon="-1.0027710">
        <ele>567.900024</ele>
        <time>2018-06-15T10:11:18.000Z</time>
      </trkpt>
      <trkpt lat="42.6683810" lon="-1.0028270">
        <ele>568.500000</ele>
        <time>2018-06-15T10:11:19.000Z</time>
      </trkpt>
      <trkpt lat="42.6684180" lon="-1.0029080">
        <ele>569.899963</ele>
        <time>2018-06-15T10:11:21.000Z</time>
      </trkpt>
      <trkpt lat="42.6684460" lon="-1.0029560">
        <ele>570.700012</ele>
        <time>2018-06-15T10:11:22.000Z</time>
      </trkpt>
      <trkpt lat="42.6685850" lon="-1.0033630">
        <ele>573.799988</ele>
        <time>2018-06-15T10:11:31.000Z</time>
      </trkpt>
      <trkpt lat="42.6686190" lon="-1.0034310">
        <ele>574.600037</ele>
        <time>2018-06-15T10:11:32.000Z</time>
      </trkpt>
      <trkpt lat="42.6686450" lon="-1.0034790">
        <ele>575.099976</ele>
        <time>2018-06-15T10:11:33.000Z</time>
      </trkpt>
      <trkpt lat="42.6687120" lon="-1.0035220">
        <ele>575.799988</ele>
        <time>2018-06-15T10:11:35.000Z</time>
      </trkpt>
      <trkpt lat="42.6690890" lon="-1.0036700">
        <ele>581.799988</ele>
        <time>2018-06-15T10:11:46.000Z</time>
      </trkpt>
      <trkpt lat="42.6693470" lon="-1.0037660">
        <ele>587.200012</ele>
        <time>2018-06-15T10:11:53.000Z</time>
      </trkpt>
      <trkpt lat="42.6694620" lon="-1.0037710">
        <ele>587.200012</ele>
        <time>2018-06-15T10:11:56.000Z</time>
      </trkpt>
      <trkpt lat="42.6695230" lon="-1.0038060">
        <ele>587.400024</ele>
        <time>2018-06-15T10:11:58.000Z</time>
      </trkpt>
      <trkpt lat="42.6695580" lon="-1.0038600">
        <ele>587.799988</ele>
        <time>2018-06-15T10:11:59.000Z</time>
      </trkpt>
      <trkpt lat="42.6695930" lon="-1.0039560">
        <ele>588.500000</ele>
        <time>2018-06-15T10:12:01.000Z</time>
      </trkpt>
      <trkpt lat="42.6696570" lon="-1.0040240">
        <ele>589.200012</ele>
        <time>2018-06-15T10:12:04.000Z</time>
      </trkpt>
      <trkpt lat="42.6697320" lon="-1.0040500">
        <ele>589.899963</ele>
        <time>2018-06-15T10:12:06.000Z</time>
      </trkpt>
      <trkpt lat="42.6699470" lon="-1.0040320">
        <ele>591.299988</ele>
        <time>2018-06-15T10:12:11.000Z</time>
      </trkpt>
      <trkpt lat="42.6700910" lon="-1.0040400">
        <ele>593.600037</ele>
        <time>2018-06-15T10:12:15.000Z</time>
      </trkpt>
      <trkpt lat="42.6702250" lon="-1.0040580">
        <ele>593.500000</ele>
        <time>2018-06-15T10:12:19.000Z</time>
      </trkpt>
      <trkpt lat="42.6705070" lon="-1.0042090">
        <ele>594.400024</ele>
        <time>2018-06-15T10:12:27.000Z</time>
      </trkpt>
      <trkpt lat="42.6706390" lon="-1.0042600">
        <ele>592.400024</ele>
        <time>2018-06-15T10:12:30.000Z</time>
      </trkpt>
      <trkpt lat="42.6707190" lon="-1.0042830">
        <ele>590.600037</ele>
        <time>2018-06-15T10:12:33.000Z</time>
      </trkpt>
      <trkpt lat="42.6708050" lon="-1.0042970">
        <ele>588.700012</ele>
        <time>2018-06-15T10:12:35.000Z</time>
      </trkpt>
      <trkpt lat="42.6710320" lon="-1.0043050">
        <ele>585.399963</ele>
        <time>2018-06-15T10:12:41.000Z</time>
      </trkpt>
      <trkpt lat="42.6713180" lon="-1.0042650">
        <ele>587.500000</ele>
        <time>2018-06-15T10:12:49.000Z</time>
      </trkpt>
      <trkpt lat="42.6715050" lon="-1.0042760">
        <ele>586.700012</ele>
        <time>2018-06-15T10:12:54.000Z</time>
      </trkpt>
      <trkpt lat="42.6716260" lon="-1.0043180">
        <ele>583.500000</ele>
        <time>2018-06-15T10:12:57.000Z</time>
      </trkpt>
      <trkpt lat="42.6718030" lon="-1.0044310">
        <ele>576.000000</ele>
        <time>2018-06-15T10:13:03.000Z</time>
      </trkpt>
      <trkpt lat="42.6720020" lon="-1.0045200">
        <ele>570.400024</ele>
        <time>2018-06-15T10:13:08.000Z</time>
      </trkpt>
      <trkpt lat="42.6722650" lon="-1.0045600">
        <ele>568.700012</ele>
        <time>2018-06-15T10:13:15.000Z</time>
      </trkpt>
      <trkpt lat="42.6724980" lon="-1.0045600">
        <ele>569.799988</ele>
        <time>2018-06-15T10:13:21.000Z</time>
      </trkpt>
      <trkpt lat="42.6726990" lon="-1.0045300">
        <ele>572.400024</ele>
        <time>2018-06-15T10:13:27.000Z</time>
      </trkpt>
      <trkpt lat="42.6728070" lon="-1.0044980">
        <ele>574.500000</ele>
        <time>2018-06-15T10:13:30.000Z</time>
      </trkpt>
      <trkpt lat="42.6729650" lon="-1.0044630">
        <ele>576.799988</ele>
        <time>2018-06-15T10:13:34.000Z</time>
      </trkpt>
      <trkpt lat="42.6733020" lon="-1.0045330">
        <ele>573.100037</ele>
        <time>2018-06-15T10:13:43.000Z</time>
      </trkpt>
      <trkpt lat="42.6735970" lon="-1.0046170">
        <ele>569.299988</ele>
        <time>2018-06-15T10:13:51.000Z</time>
      </trkpt>
      <trkpt lat="42.6739560" lon="-1.0047140">
        <ele>569.299988</ele>
        <time>2018-06-15T10:14:01.000Z</time>
      </trkpt>
      <trkpt lat="42.6743820" lon="-1.0048400">
        <ele>573.500000</ele>
        <time>2018-06-15T10:14:13.000Z</time>
      </trkpt>
      <trkpt lat="42.6751130" lon="-1.0054020">
        <ele>575.899963</ele>
        <time>2018-06-15T10:14:35.000Z</time>
      </trkpt>
      <trkpt lat="42.6754980" lon="-1.0056280">
        <ele>577.000000</ele>
        <time>2018-06-15T10:14:46.000Z</time>
      </trkpt>
      <trkpt lat="42.6758840" lon="-1.0057690">
        <ele>582.099976</ele>
        <time>2018-06-15T10:14:57.000Z</time>
      </trkpt>
      <trkpt lat="42.6763470" lon="-1.0058140">
        <ele>590.200012</ele>
        <time>2018-06-15T10:15:09.000Z</time>
      </trkpt>
      <trkpt lat="42.6765370" lon="-1.0057400">
        <ele>592.400024</ele>
        <time>2018-06-15T10:15:14.000Z</time>
      </trkpt>
      <trkpt lat="42.6766360" lon="-1.0057350">
        <ele>592.700012</ele>
        <time>2018-06-15T10:15:17.000Z</time>
      </trkpt>
      <trkpt lat="42.6767460" lon="-1.0057830">
        <ele>593.700012</ele>
        <time>2018-06-15T10:15:20.000Z</time>
      </trkpt>
      <trkpt lat="42.6768320" lon="-1.0059210">
        <ele>595.299988</ele>
        <time>2018-06-15T10:15:24.000Z</time>
      </trkpt>
      <trkpt lat="42.6768370" lon="-1.0060240">
        <ele>596.200012</ele>
        <time>2018-06-15T10:15:26.000Z</time>
      </trkpt>
      <trkpt lat="42.6768130" lon="-1.0061350">
        <ele>596.700012</ele>
        <time>2018-06-15T10:15:28.000Z</time>
      </trkpt>
      <trkpt lat="42.6765650" lon="-1.0064450">
        <ele>591.400024</ele>
        <time>2018-06-15T10:15:37.000Z</time>
      </trkpt>
      <trkpt lat="42.6764900" lon="-1.0066710">
        <ele>588.900024</ele>
        <time>2018-06-15T10:15:42.000Z</time>
      </trkpt>
      <trkpt lat="42.6764750" lon="-1.0069340">
        <ele>585.099976</ele>
        <time>2018-06-15T10:15:47.000Z</time>
      </trkpt>
      <trkpt lat="42.6765160" lon="-1.0071650">
        <ele>582.200012</ele>
        <time>2018-06-15T10:15:52.000Z</time>
      </trkpt>
      <trkpt lat="42.6767850" lon="-1.0075650">
        <ele>579.600037</ele>
        <time>2018-06-15T10:16:02.000Z</time>
      </trkpt>
      <trkpt lat="42.6772100" lon="-1.0082580">
        <ele>574.600037</ele>
        <time>2018-06-15T10:16:20.000Z</time>
      </trkpt>
      <trkpt lat="42.6774010" lon="-1.0085300">
        <ele>574.399963</ele>
        <time>2018-06-15T10:16:27.000Z</time>
      </trkpt>
      <trkpt lat="42.6776610" lon="-1.0087320">
        <ele>577.000000</ele>
        <time>2018-06-15T10:16:35.000Z</time>
      </trkpt>
      <trkpt lat="42.6778190" lon="-1.0088550">
        <ele>579.600037</ele>
        <time>2018-06-15T10:16:40.000Z</time>
      </trkpt>
      <trkpt lat="42.6779770" lon="-1.0088680">
        <ele>584.599976</ele>
        <time>2018-06-15T10:16:44.000Z</time>
      </trkpt>
      <trkpt lat="42.6781060" lon="-1.0088190">
        <ele>590.200012</ele>
        <time>2018-06-15T10:16:48.000Z</time>
      </trkpt>
      <trkpt lat="42.6784550" lon="-1.0086460">
        <ele>600.500000</ele>
        <time>2018-06-15T10:16:58.000Z</time>
      </trkpt>
      <trkpt lat="42.6785450" lon="-1.0086430">
        <ele>601.599976</ele>
        <time>2018-06-15T10:17:01.000Z</time>
      </trkpt>
      <trkpt lat="42.6786080" lon="-1.0086480">
        <ele>602.200012</ele>
        <time>2018-06-15T10:17:02.000Z</time>
      </trkpt>
      <trkpt lat="42.6786590" lon="-1.0087000">
        <ele>603.000000</ele>
        <time>2018-06-15T10:17:04.000Z</time>
      </trkpt>
      <trkpt lat="42.6788210" lon="-1.0090070">
        <ele>603.400024</ele>
        <time>2018-06-15T10:17:12.000Z</time>
      </trkpt>
      <trkpt lat="42.6789330" lon="-1.0093170">
        <ele>603.799988</ele>
        <time>2018-06-15T10:17:18.000Z</time>
      </trkpt>
      <trkpt lat="42.6803570" lon="-1.0126460">
        <ele>607.700012</ele>
        <time>2018-06-15T10:18:33.000Z</time>
      </trkpt>
      <trkpt lat="42.6804610" lon="-1.0128100">
        <ele>613.399963</ele>
        <time>2018-06-15T10:18:38.000Z</time>
      </trkpt>
      <trkpt lat="42.6805500" lon="-1.0129280">
        <ele>615.900024</ele>
        <time>2018-06-15T10:18:41.000Z</time>
      </trkpt>
      <trkpt lat="42.6806740" lon="-1.0129950">
        <ele>615.500000</ele>
        <time>2018-06-15T10:18:45.000Z</time>
      </trkpt>
      <trkpt lat="42.6808400" lon="-1.0129870">
        <ele>613.799988</ele>
        <time>2018-06-15T10:18:49.000Z</time>
      </trkpt>
      <trkpt lat="42.6813350" lon="-1.0128720">
        <ele>607.299988</ele>
        <time>2018-06-15T10:19:03.000Z</time>
      </trkpt>
      <trkpt lat="42.6815110" lon="-1.0128480">
        <ele>603.099976</ele>
        <time>2018-06-15T10:19:07.000Z</time>
      </trkpt>
      <trkpt lat="42.6816600" lon="-1.0128430">
        <ele>596.900024</ele>
        <time>2018-06-15T10:19:12.000Z</time>
      </trkpt>
      <trkpt lat="42.6818110" lon="-1.0128660">
        <ele>589.400024</ele>
        <time>2018-06-15T10:19:16.000Z</time>
      </trkpt>
      <trkpt lat="42.6821470" lon="-1.0129440">
        <ele>586.700012</ele>
        <time>2018-06-15T10:19:25.000Z</time>
      </trkpt>
      <trkpt lat="42.6824000" lon="-1.0129330">
        <ele>591.500000</ele>
        <time>2018-06-15T10:19:32.000Z</time>
      </trkpt>
      <trkpt lat="42.6828200" lon="-1.0130090">
        <ele>597.099976</ele>
        <time>2018-06-15T10:19:43.000Z</time>
      </trkpt>
      <trkpt lat="42.6828950" lon="-1.0130200">
        <ele>597.500000</ele>
        <time>2018-06-15T10:19:45.000Z</time>
      </trkpt>
      <trkpt lat="42.6829900" lon="-1.0130780">
        <ele>594.700012</ele>
        <time>2018-06-15T10:19:48.000Z</time>
      </trkpt>
      <trkpt lat="42.6831360" lon="-1.0132780">
        <ele>587.599976</ele>
        <time>2018-06-15T10:19:54.000Z</time>
      </trkpt>
      <trkpt lat="42.6833970" lon="-1.0135040">
        <ele>585.200012</ele>
        <time>2018-06-15T10:20:02.000Z</time>
      </trkpt>
      <trkpt lat="42.6836120" lon="-1.0136220">
        <ele>590.000000</ele>
        <time>2018-06-15T10:20:08.000Z</time>
      </trkpt>
      <trkpt lat="42.6837870" lon="-1.0136320">
        <ele>596.299988</ele>
        <time>2018-06-15T10:20:13.000Z</time>
      </trkpt>
      <trkpt lat="42.6840330" lon="-1.0135330">
        <ele>599.700012</ele>
        <time>2018-06-15T10:20:20.000Z</time>
      </trkpt>
      <trkpt lat="42.6843710" lon="-1.0131440">
        <ele>601.299988</ele>
        <time>2018-06-15T10:20:32.000Z</time>
      </trkpt>
      <trkpt lat="42.6844650" lon="-1.0130630">
        <ele>599.000000</ele>
        <time>2018-06-15T10:20:35.000Z</time>
      </trkpt>
      <trkpt lat="42.6845680" lon="-1.0130520">
        <ele>596.000000</ele>
        <time>2018-06-15T10:20:38.000Z</time>
      </trkpt>
      <trkpt lat="42.6846460" lon="-1.0130200">
        <ele>595.900024</ele>
        <time>2018-06-15T10:20:40.000Z</time>
      </trkpt>
      <trkpt lat="42.6847840" lon="-1.0130630">
        <ele>595.799988</ele>
        <time>2018-06-15T10:20:43.000Z</time>
      </trkpt>
      <trkpt lat="42.6848510" lon="-1.0131540">
        <ele>595.900024</ele>
        <time>2018-06-15T10:20:46.000Z</time>
      </trkpt>
      <trkpt lat="42.6848830" lon="-1.0132880">
        <ele>596.200012</ele>
        <time>2018-06-15T10:20:49.000Z</time>
      </trkpt>
      <trkpt lat="42.6848660" lon="-1.0134320">
        <ele>595.299988</ele>
        <time>2018-06-15T10:20:52.000Z</time>
      </trkpt>
      <trkpt lat="42.6847720" lon="-1.0137490">
        <ele>594.000000</ele>
        <time>2018-06-15T10:20:58.000Z</time>
      </trkpt>
      <trkpt lat="42.6847560" lon="-1.0138940">
        <ele>591.700012</ele>
        <time>2018-06-15T10:21:01.000Z</time>
      </trkpt>
      <trkpt lat="42.6847850" lon="-1.0140280">
        <ele>589.099976</ele>
        <time>2018-06-15T10:21:04.000Z</time>
      </trkpt>
      <trkpt lat="42.6848510" lon="-1.0141090">
        <ele>585.799988</ele>
        <time>2018-06-15T10:21:06.000Z</time>
      </trkpt>
      <trkpt lat="42.6849230" lon="-1.0141710">
        <ele>584.200012</ele>
        <time>2018-06-15T10:21:09.000Z</time>
      </trkpt>
      <trkpt lat="42.6850590" lon="-1.0142320">
        <ele>583.000000</ele>
        <time>2018-06-15T10:21:12.000Z</time>
      </trkpt>
      <trkpt lat="42.6856020" lon="-1.0143050">
        <ele>590.000000</ele>
        <time>2018-06-15T10:21:27.000Z</time>
      </trkpt>
      <trkpt lat="42.6858970" lon="-1.0142790">
        <ele>586.099976</ele>
        <time>2018-06-15T10:21:35.000Z</time>
      </trkpt>
      <trkpt lat="42.6861410" lon="-1.0143510">
        <ele>585.799988</ele>
        <time>2018-06-15T10:21:42.000Z</time>
      </trkpt>
      <trkpt lat="42.6863890" lon="-1.0144090">
        <ele>587.799988</ele>
        <time>2018-06-15T10:21:48.000Z</time>
      </trkpt>
      <trkpt lat="42.6867950" lon="-1.0144210">
        <ele>594.500000</ele>
        <time>2018-06-15T10:21:59.000Z</time>
      </trkpt>
      <trkpt lat="42.6870820" lon="-1.0143770">
        <ele>588.200012</ele>
        <time>2018-06-15T10:22:07.000Z</time>
      </trkpt>
      <trkpt lat="42.6873790" lon="-1.0143110">
        <ele>596.900024</ele>
        <time>2018-06-15T10:22:15.000Z</time>
      </trkpt>
      <trkpt lat="42.6878100" lon="-1.0144800">
        <ele>600.299988</ele>
        <time>2018-06-15T10:22:27.000Z</time>
      </trkpt>
      <trkpt lat="42.6880530" lon="-1.0145590">
        <ele>599.000000</ele>
        <time>2018-06-15T10:22:34.000Z</time>
      </trkpt>
      <trkpt lat="42.6881760" lon="-1.0145540">
        <ele>594.899963</ele>
        <time>2018-06-15T10:22:37.000Z</time>
      </trkpt>
      <trkpt lat="42.6882830" lon="-1.0145260">
        <ele>594.000000</ele>
        <time>2018-06-15T10:22:40.000Z</time>
      </trkpt>
      <trkpt lat="42.6886410" lon="-1.0143230">
        <ele>598.000000</ele>
        <time>2018-06-15T10:22:50.000Z</time>
      </trkpt>
      <trkpt lat="42.6889250" lon="-1.0142480">
        <ele>602.500000</ele>
        <time>2018-06-15T10:22:58.000Z</time>
      </trkpt>
      <trkpt lat="42.6890790" lon="-1.0142700">
        <ele>602.099976</ele>
        <time>2018-06-15T10:23:02.000Z</time>
      </trkpt>
      <trkpt lat="42.6891540" lon="-1.0143340">
        <ele>599.000000</ele>
        <time>2018-06-15T10:23:05.000Z</time>
      </trkpt>
      <trkpt lat="42.6891930" lon="-1.0144570">
        <ele>598.299988</ele>
        <time>2018-06-15T10:23:07.000Z</time>
      </trkpt>
      <trkpt lat="42.6892600" lon="-1.0148110">
        <ele>602.500000</ele>
        <time>2018-06-15T10:23:15.000Z</time>
      </trkpt>
      <trkpt lat="42.6893260" lon="-1.0149200">
        <ele>605.899963</ele>
        <time>2018-06-15T10:23:17.000Z</time>
      </trkpt>
      <trkpt lat="42.6894180" lon="-1.0149880">
        <ele>610.399963</ele>
        <time>2018-06-15T10:23:20.000Z</time>
      </trkpt>
      <trkpt lat="42.6901790" lon="-1.0151440">
        <ele>619.599976</ele>
        <time>2018-06-15T10:23:41.000Z</time>
      </trkpt>
      <trkpt lat="42.6903720" lon="-1.0151920">
        <ele>617.700012</ele>
        <time>2018-06-15T10:23:46.000Z</time>
      </trkpt>
      <trkpt lat="42.6905890" lon="-1.0153160">
        <ele>609.799988</ele>
        <time>2018-06-15T10:23:53.000Z</time>
      </trkpt>
      <trkpt lat="42.6912120" lon="-1.0157500">
        <ele>595.299988</ele>
        <time>2018-06-15T10:24:12.000Z</time>
      </trkpt>
      <trkpt lat="42.6919340" lon="-1.0161790">
        <ele>595.500000</ele>
        <time>2018-06-15T10:24:32.000Z</time>
      </trkpt>
      <trkpt lat="42.6921390" lon="-1.0162920">
        <ele>594.299988</ele>
        <time>2018-06-15T10:24:38.000Z</time>
      </trkpt>
      <trkpt lat="42.6923480" lon="-1.0163620">
        <ele>592.100037</ele>
        <time>2018-06-15T10:24:44.000Z</time>
      </trkpt>
      <trkpt lat="42.6928420" lon="-1.0164560">
        <ele>598.500000</ele>
        <time>2018-06-15T10:24:57.000Z</time>
      </trkpt>
      <trkpt lat="42.6934240" lon="-1.0165170">
        <ele>604.200012</ele>
        <time>2018-06-15T10:25:13.000Z</time>
      </trkpt>
      <trkpt lat="42.6942290" lon="-1.0165820">
        <ele>600.500000</ele>
        <time>2018-06-15T10:25:34.000Z</time>
      </trkpt>
      <trkpt lat="42.6944570" lon="-1.0166140">
        <ele>599.000000</ele>
        <time>2018-06-15T10:25:40.000Z</time>
      </trkpt>
      <trkpt lat="42.6947060" lon="-1.0167100">
        <ele>604.600037</ele>
        <time>2018-06-15T10:25:47.000Z</time>
      </trkpt>
      <trkpt lat="42.6950610" lon="-1.0168980">
        <ele>606.200012</ele>
        <time>2018-06-15T10:25:57.000Z</time>
      </trkpt>
      <trkpt lat="42.6952380" lon="-1.0169520">
        <ele>605.299988</ele>
        <time>2018-06-15T10:26:02.000Z</time>
      </trkpt>
      <trkpt lat="42.6958920" lon="-1.0170610">
        <ele>611.899963</ele>
        <time>2018-06-15T10:26:20.000Z</time>
      </trkpt>
      <trkpt lat="42.6962160" lon="-1.0170970">
        <ele>615.299988</ele>
        <time>2018-06-15T10:26:28.000Z</time>
      </trkpt>
      <trkpt lat="42.6965270" lon="-1.0171070">
        <ele>621.200012</ele>
        <time>2018-06-15T10:26:37.000Z</time>
      </trkpt>
      <trkpt lat="42.6968190" lon="-1.0170810">
        <ele>620.200012</ele>
        <time>2018-06-15T10:26:45.000Z</time>
      </trkpt>
      <trkpt lat="42.6972370" lon="-1.0169200">
        <ele>625.599976</ele>
        <time>2018-06-15T10:26:56.000Z</time>
      </trkpt>
      <trkpt lat="42.6974890" lon="-1.0167960">
        <ele>624.899963</ele>
        <time>2018-06-15T10:27:03.000Z</time>
      </trkpt>
      <trkpt lat="42.6981160" lon="-1.0163510">
        <ele>618.000000</ele>
        <time>2018-06-15T10:27:22.000Z</time>
      </trkpt>
      <trkpt lat="42.6987750" lon="-1.0160180">
        <ele>623.700012</ele>
        <time>2018-06-15T10:27:41.000Z</time>
      </trkpt>
      <trkpt lat="42.6989790" lon="-1.0159560">
        <ele>620.500000</ele>
        <time>2018-06-15T10:27:46.000Z</time>
      </trkpt>
      <trkpt lat="42.6992270" lon="-1.0159480">
        <ele>617.299988</ele>
        <time>2018-06-15T10:27:53.000Z</time>
      </trkpt>
      <trkpt lat="42.6994410" lon="-1.0159430">
        <ele>621.200012</ele>
        <time>2018-06-15T10:27:59.000Z</time>
      </trkpt>
      <trkpt lat="42.7006870" lon="-1.0160340">
        <ele>627.100037</ele>
        <time>2018-06-15T10:28:32.000Z</time>
      </trkpt>
      <trkpt lat="42.7008270" lon="-1.0160800">
        <ele>627.000000</ele>
        <time>2018-06-15T10:28:36.000Z</time>
      </trkpt>
      <trkpt lat="42.7011560" lon="-1.0161790">
        <ele>626.400024</ele>
        <time>2018-06-15T10:28:45.000Z</time>
      </trkpt>
      <trkpt lat="42.7014680" lon="-1.0163350">
        <ele>630.500000</ele>
        <time>2018-06-15T10:28:54.000Z</time>
      </trkpt>
      <trkpt lat="42.7018190" lon="-1.0163830">
        <ele>628.099976</ele>
        <time>2018-06-15T10:29:03.000Z</time>
      </trkpt>
      <trkpt lat="42.7020030" lon="-1.0163780">
        <ele>630.600037</ele>
        <time>2018-06-15T10:29:08.000Z</time>
      </trkpt>
      <trkpt lat="42.7022840" lon="-1.0162810">
        <ele>630.799988</ele>
        <time>2018-06-15T10:29:16.000Z</time>
      </trkpt>
      <trkpt lat="42.7030410" lon="-1.0158840">
        <ele>626.200012</ele>
        <time>2018-06-15T10:29:37.000Z</time>
      </trkpt>
      <trkpt lat="42.7032260" lon="-1.0158410">
        <ele>622.700012</ele>
        <time>2018-06-15T10:29:42.000Z</time>
      </trkpt>
      <trkpt lat="42.7034230" lon="-1.0158630">
        <ele>616.000000</ele>
        <time>2018-06-15T10:29:48.000Z</time>
      </trkpt>
      <trkpt lat="42.7036200" lon="-1.0159430">
        <ele>610.799988</ele>
        <time>2018-06-15T10:29:53.000Z</time>
      </trkpt>
      <trkpt lat="42.7038450" lon="-1.0161360">
        <ele>610.600037</ele>
        <time>2018-06-15T10:30:00.000Z</time>
      </trkpt>
      <trkpt lat="42.7040660" lon="-1.0163190">
        <ele>611.299988</ele>
        <time>2018-06-15T10:30:07.000Z</time>
      </trkpt>
      <trkpt lat="42.7043300" lon="-1.0165440">
        <ele>626.599976</ele>
        <time>2018-06-15T10:30:16.000Z</time>
      </trkpt>
      <trkpt lat="42.7045970" lon="-1.0166620">
        <ele>634.200012</ele>
        <time>2018-06-15T10:30:24.000Z</time>
      </trkpt>
      <trkpt lat="42.7048110" lon="-1.0167100">
        <ele>644.500000</ele>
        <time>2018-06-15T10:30:30.000Z</time>
      </trkpt>
      <trkpt lat="42.7050360" lon="-1.0167100">
        <ele>644.900024</ele>
        <time>2018-06-15T10:30:36.000Z</time>
      </trkpt>
      <trkpt lat="42.7053830" lon="-1.0166140">
        <ele>630.700012</ele>
        <time>2018-06-15T10:30:46.000Z</time>
      </trkpt>
      <trkpt lat="42.7060920" lon="-1.0165010">
        <ele>625.200012</ele>
        <time>2018-06-15T10:31:05.000Z</time>
      </trkpt>
      <trkpt lat="42.7062860" lon="-1.0165070">
        <ele>627.700012</ele>
        <time>2018-06-15T10:31:10.000Z</time>
      </trkpt>
      <trkpt lat="42.7065420" lon="-1.0165550">
        <ele>630.600037</ele>
        <time>2018-06-15T10:31:17.000Z</time>
      </trkpt>
      <trkpt lat="42.7070860" lon="-1.0165660">
        <ele>640.500000</ele>
        <time>2018-06-15T10:31:32.000Z</time>
      </trkpt>
      <trkpt lat="42.7074090" lon="-1.0165110">
        <ele>637.200012</ele>
        <time>2018-06-15T10:31:40.000Z</time>
      </trkpt>
      <trkpt lat="42.7078740" lon="-1.0164370">
        <ele>633.500000</ele>
        <time>2018-06-15T10:31:53.000Z</time>
      </trkpt>
      <trkpt lat="42.7083200" lon="-1.0162440">
        <ele>618.700012</ele>
        <time>2018-06-15T10:32:06.000Z</time>
      </trkpt>
      <trkpt lat="42.7086980" lon="-1.0161100">
        <ele>609.700012</ele>
        <time>2018-06-15T10:32:16.000Z</time>
      </trkpt>
      <trkpt lat="42.7090060" lon="-1.0160130">
        <ele>609.200012</ele>
        <time>2018-06-15T10:32:25.000Z</time>
      </trkpt>
      <trkpt lat="42.7100750" lon="-1.0157550">
        <ele>631.399963</ele>
        <time>2018-06-15T10:32:54.000Z</time>
      </trkpt>
      <trkpt lat="42.7103070" lon="-1.0156160">
        <ele>624.700012</ele>
        <time>2018-06-15T10:33:01.000Z</time>
      </trkpt>
      <trkpt lat="42.7107440" lon="-1.0152410">
        <ele>611.700012</ele>
        <time>2018-06-15T10:33:15.000Z</time>
      </trkpt>
      <trkpt lat="42.7109180" lon="-1.0150470">
        <ele>610.600037</ele>
        <time>2018-06-15T10:33:21.000Z</time>
      </trkpt>
      <trkpt lat="42.7110560" lon="-1.0148170">
        <ele>610.900024</ele>
        <time>2018-06-15T10:33:27.000Z</time>
      </trkpt>
      <trkpt lat="42.7111360" lon="-1.0146210">
        <ele>610.600037</ele>
        <time>2018-06-15T10:33:31.000Z</time>
      </trkpt>
      <trkpt lat="42.7112060" lon="-1.0143450">
        <ele>608.000000</ele>
        <time>2018-06-15T10:33:37.000Z</time>
      </trkpt>
      <trkpt lat="42.7112290" lon="-1.0141620">
        <ele>607.700012</ele>
        <time>2018-06-15T10:33:40.000Z</time>
      </trkpt>
      <trkpt lat="42.7112730" lon="-1.0132610">
        <ele>609.400024</ele>
        <time>2018-06-15T10:33:58.000Z</time>
      </trkpt>
      <trkpt lat="42.7115290" lon="-1.0119630">
        <ele>624.799988</ele>
        <time>2018-06-15T10:34:24.000Z</time>
      </trkpt>
      <trkpt lat="42.7115880" lon="-1.0117750">
        <ele>633.199951</ele>
        <time>2018-06-15T10:34:29.000Z</time>
      </trkpt>
      <trkpt lat="42.7116430" lon="-1.0116460">
        <ele>635.799988</ele>
        <time>2018-06-15T10:34:32.000Z</time>
      </trkpt>
      <trkpt lat="42.7117350" lon="-1.0115500">
        <ele>637.500000</ele>
        <time>2018-06-15T10:34:35.000Z</time>
      </trkpt>
      <trkpt lat="42.7118640" lon="-1.0114800">
        <ele>638.900024</ele>
        <time>2018-06-15T10:34:39.000Z</time>
      </trkpt>
      <trkpt lat="42.7119820" lon="-1.0114320">
        <ele>639.600037</ele>
        <time>2018-06-15T10:34:42.000Z</time>
      </trkpt>
      <trkpt lat="42.7124000" lon="-1.0114480">
        <ele>634.500000</ele>
        <time>2018-06-15T10:34:53.000Z</time>
      </trkpt>
      <trkpt lat="42.7125460" lon="-1.0114430">
        <ele>636.799988</ele>
        <time>2018-06-15T10:34:57.000Z</time>
      </trkpt>
      <trkpt lat="42.7128060" lon="-1.0114160">
        <ele>637.000000</ele>
        <time>2018-06-15T10:35:04.000Z</time>
      </trkpt>
      <trkpt lat="42.7129490" lon="-1.0114200">
        <ele>636.299988</ele>
        <time>2018-06-15T10:35:08.000Z</time>
      </trkpt>
      <trkpt lat="42.7132160" lon="-1.0114750">
        <ele>631.599976</ele>
        <time>2018-06-15T10:35:15.000Z</time>
      </trkpt>
      <trkpt lat="42.7134130" lon="-1.0115340">
        <ele>629.099976</ele>
        <time>2018-06-15T10:35:20.000Z</time>
      </trkpt>
      <trkpt lat="42.7135800" lon="-1.0114910">
        <ele>626.400024</ele>
        <time>2018-06-15T10:35:25.000Z</time>
      </trkpt>
      <trkpt lat="42.7137590" lon="-1.0113940">
        <ele>622.799988</ele>
        <time>2018-06-15T10:35:30.000Z</time>
      </trkpt>
      <trkpt lat="42.7139130" lon="-1.0112060">
        <ele>619.599976</ele>
        <time>2018-06-15T10:35:36.000Z</time>
      </trkpt>
      <trkpt lat="42.7140160" lon="-1.0109600">
        <ele>612.900024</ele>
        <time>2018-06-15T10:35:41.000Z</time>
      </trkpt>
      <trkpt lat="42.7140990" lon="-1.0106860">
        <ele>611.000000</ele>
        <time>2018-06-15T10:35:47.000Z</time>
      </trkpt>
      <trkpt lat="42.7141340" lon="-1.0104720">
        <ele>610.600037</ele>
        <time>2018-06-15T10:35:51.000Z</time>
      </trkpt>
      <trkpt lat="42.7141500" lon="-1.0098550">
        <ele>610.399963</ele>
        <time>2018-06-15T10:36:03.000Z</time>
      </trkpt>
      <trkpt lat="42.7141460" lon="-1.0092480">
        <ele>615.000000</ele>
        <time>2018-06-15T10:36:15.000Z</time>
      </trkpt>
      <trkpt lat="42.7141980" lon="-1.0089110">
        <ele>616.599976</ele>
        <time>2018-06-15T10:36:22.000Z</time>
      </trkpt>
      <trkpt lat="42.7142450" lon="-1.0086370">
        <ele>616.599976</ele>
        <time>2018-06-15T10:36:27.000Z</time>
      </trkpt>
      <trkpt lat="42.7143140" lon="-1.0083850">
        <ele>615.700012</ele>
        <time>2018-06-15T10:36:33.000Z</time>
      </trkpt>
      <trkpt lat="42.7144540" lon="-1.0081110">
        <ele>617.000000</ele>
        <time>2018-06-15T10:36:39.000Z</time>
      </trkpt>
      <trkpt lat="42.7146390" lon="-1.0078220">
        <ele>618.900024</ele>
        <time>2018-06-15T10:36:47.000Z</time>
      </trkpt>
      <trkpt lat="42.7149660" lon="-1.0075800">
        <ele>621.500000</ele>
        <time>2018-06-15T10:36:57.000Z</time>
      </trkpt>
      <trkpt lat="42.7154230" lon="-1.0074030">
        <ele>625.599976</ele>
        <time>2018-06-15T10:37:09.000Z</time>
      </trkpt>
      <trkpt lat="42.7158950" lon="-1.0073570">
        <ele>628.399963</ele>
        <time>2018-06-15T10:37:22.000Z</time>
      </trkpt>
      <trkpt lat="42.7164210" lon="-1.0073920">
        <ele>638.299988</ele>
        <time>2018-06-15T10:37:36.000Z</time>
      </trkpt>
      <trkpt lat="42.7165930" lon="-1.0073650">
        <ele>640.500000</ele>
        <time>2018-06-15T10:37:41.000Z</time>
      </trkpt>
      <trkpt lat="42.7177340" lon="-1.0067540">
        <ele>643.700012</ele>
        <time>2018-06-15T10:38:13.000Z</time>
      </trkpt>
      <trkpt lat="42.7179150" lon="-1.0066470">
        <ele>635.200012</ele>
        <time>2018-06-15T10:38:19.000Z</time>
      </trkpt>
      <trkpt lat="42.7181550" lon="-1.0063520">
        <ele>622.700012</ele>
        <time>2018-06-15T10:38:28.000Z</time>
      </trkpt>
      <trkpt lat="42.7188090" lon="-1.0053400">
        <ele>619.500000</ele>
        <time>2018-06-15T10:38:54.000Z</time>
      </trkpt>
      <trkpt lat="42.7189170" lon="-1.0050930">
        <ele>619.599976</ele>
        <time>2018-06-15T10:39:00.000Z</time>
      </trkpt>
      <trkpt lat="42.7189450" lon="-1.0049360">
        <ele>618.799988</ele>
        <time>2018-06-15T10:39:03.000Z</time>
      </trkpt>
      <trkpt lat="42.7189610" lon="-1.0047960">
        <ele>618.500000</ele>
        <time>2018-06-15T10:39:06.000Z</time>
      </trkpt>
      <trkpt lat="42.7189360" lon="-1.0047260">
        <ele>618.000000</ele>
        <time>2018-06-15T10:39:07.000Z</time>
      </trkpt>
      <trkpt lat="42.7184240" lon="-1.0045380">
        <ele>610.900024</ele>
        <time>2018-06-15T10:39:21.000Z</time>
      </trkpt>
      <trkpt lat="42.7183800" lon="-1.0044940">
        <ele>612.000000</ele>
        <time>2018-06-15T10:39:23.000Z</time>
      </trkpt>
      <trkpt lat="42.7183530" lon="-1.0043820">
        <ele>613.399963</ele>
        <time>2018-06-15T10:39:25.000Z</time>
      </trkpt>
      <trkpt lat="42.7184060" lon="-1.0042210">
        <ele>614.000000</ele>
        <time>2018-06-15T10:39:28.000Z</time>
      </trkpt>
      <trkpt lat="42.7185350" lon="-1.0040030">
        <ele>615.500000</ele>
        <time>2018-06-15T10:39:34.000Z</time>
      </trkpt>
      <trkpt lat="42.7186250" lon="-1.0037890">
        <ele>616.599976</ele>
        <time>2018-06-15T10:39:39.000Z</time>
      </trkpt>
      <trkpt lat="42.7187620" lon="-1.0033760">
        <ele>615.000000</ele>
        <time>2018-06-15T10:39:48.000Z</time>
      </trkpt>
      <trkpt lat="42.7187870" lon="-1.0031470">
        <ele>617.400024</ele>
        <time>2018-06-15T10:39:52.000Z</time>
      </trkpt>
      <trkpt lat="42.7188360" lon="-1.0029890">
        <ele>619.099976</ele>
        <time>2018-06-15T10:39:55.000Z</time>
      </trkpt>
      <trkpt lat="42.7189800" lon="-1.0022510">
        <ele>625.200012</ele>
        <time>2018-06-15T10:40:10.000Z</time>
      </trkpt>
      <trkpt lat="42.7193690" lon="-1.0013310">
        <ele>625.900024</ele>
        <time>2018-06-15T10:40:31.000Z</time>
      </trkpt>
      <trkpt lat="42.7194170" lon="-1.0011910">
        <ele>627.000000</ele>
        <time>2018-06-15T10:40:34.000Z</time>
      </trkpt>
      <trkpt lat="42.7194920" lon="-1.0006010">
        <ele>635.000000</ele>
        <time>2018-06-15T10:40:46.000Z</time>
      </trkpt>
      <trkpt lat="42.7196140" lon="-1.0000060">
        <ele>634.100037</ele>
        <time>2018-06-15T10:40:58.000Z</time>
      </trkpt>
      <trkpt lat="42.7197910" lon="-0.9996910">
        <ele>629.700012</ele>
        <time>2018-06-15T10:41:06.000Z</time>
      </trkpt>
      <trkpt lat="42.7199290" lon="-0.9993510">
        <ele>624.700012</ele>
        <time>2018-06-15T10:41:13.000Z</time>
      </trkpt>
      <trkpt lat="42.7200050" lon="-0.9992620">
        <ele>622.299988</ele>
        <time>2018-06-15T10:41:16.000Z</time>
      </trkpt>
      <trkpt lat="42.7201420" lon="-0.9991610">
        <ele>618.500000</ele>
        <time>2018-06-15T10:41:20.000Z</time>
      </trkpt>
      <trkpt lat="42.7204740" lon="-0.9988450">
        <ele>621.900024</ele>
        <time>2018-06-15T10:41:31.000Z</time>
      </trkpt>
      <trkpt lat="42.7205270" lon="-0.9988150">
        <ele>622.099976</ele>
        <time>2018-06-15T10:41:33.000Z</time>
      </trkpt>
      <trkpt lat="42.7205670" lon="-0.9988150">
        <ele>622.000000</ele>
        <time>2018-06-15T10:41:34.000Z</time>
      </trkpt>
      <trkpt lat="42.7206090" lon="-0.9988410">
        <ele>621.799988</ele>
        <time>2018-06-15T10:41:35.000Z</time>
      </trkpt>
      <trkpt lat="42.7208620" lon="-0.9991070">
        <ele>619.400024</ele>
        <time>2018-06-15T10:41:43.000Z</time>
      </trkpt>
      <trkpt lat="42.7209070" lon="-0.9992220">
        <ele>618.000000</ele>
        <time>2018-06-15T10:41:46.000Z</time>
      </trkpt>
      <trkpt lat="42.7209100" lon="-0.9993190">
        <ele>616.899963</ele>
        <time>2018-06-15T10:41:48.000Z</time>
      </trkpt>
      <trkpt lat="42.7208940" lon="-0.9993840">
        <ele>616.400024</ele>
        <time>2018-06-15T10:41:49.000Z</time>
      </trkpt>
      <trkpt lat="42.7208540" lon="-0.9994690">
        <ele>615.599976</ele>
        <time>2018-06-15T10:41:51.000Z</time>
      </trkpt>
      <trkpt lat="42.7208180" lon="-0.9996160">
        <ele>614.500000</ele>
        <time>2018-06-15T10:41:54.000Z</time>
      </trkpt>
      <trkpt lat="42.7208290" lon="-0.9997480">
        <ele>614.799988</ele>
        <time>2018-06-15T10:41:57.000Z</time>
      </trkpt>
      <trkpt lat="42.7208490" lon="-0.9999530">
        <ele>615.900024</ele>
        <time>2018-06-15T10:42:01.000Z</time>
      </trkpt>
      <trkpt lat="42.7209490" lon="-1.0005140">
        <ele>623.000000</ele>
        <time>2018-06-15T10:42:12.000Z</time>
      </trkpt>
      <trkpt lat="42.7209700" lon="-1.0006970">
        <ele>624.000000</ele>
        <time>2018-06-15T10:42:16.000Z</time>
      </trkpt>
      <trkpt lat="42.7210230" lon="-1.0008470">
        <ele>624.700012</ele>
        <time>2018-06-15T10:42:19.000Z</time>
      </trkpt>
      <trkpt lat="42.7211070" lon="-1.0009170">
        <ele>625.300049</ele>
        <time>2018-06-15T10:42:22.000Z</time>
      </trkpt>
      <trkpt lat="42.7212610" lon="-1.0010770">
        <ele>625.399963</ele>
        <time>2018-06-15T10:42:27.000Z</time>
      </trkpt>
      <trkpt lat="42.7213600" lon="-1.0012480">
        <ele>623.400024</ele>
        <time>2018-06-15T10:42:31.000Z</time>
      </trkpt>
      <trkpt lat="42.7214910" lon="-1.0015090">
        <ele>622.200012</ele>
        <time>2018-06-15T10:42:37.000Z</time>
      </trkpt>
      <trkpt lat="42.7215360" lon="-1.0016200">
        <ele>622.200012</ele>
        <time>2018-06-15T10:42:40.000Z</time>
      </trkpt>
      <trkpt lat="42.7215780" lon="-1.0016540">
        <ele>621.700012</ele>
        <time>2018-06-15T10:42:41.000Z</time>
      </trkpt>
      <trkpt lat="42.7218650" lon="-1.0015290">
        <ele>618.700012</ele>
        <time>2018-06-15T10:42:49.000Z</time>
      </trkpt>
      <trkpt lat="42.7230150" lon="-1.0009190">
        <ele>628.300049</ele>
        <time>2018-06-15T10:43:22.000Z</time>
      </trkpt>
      <trkpt lat="42.7232680" lon="-1.0008000">
        <ele>630.799988</ele>
        <time>2018-06-15T10:43:29.000Z</time>
      </trkpt>
      <trkpt lat="42.7234120" lon="-1.0007660">
        <ele>631.900024</ele>
        <time>2018-06-15T10:43:33.000Z</time>
      </trkpt>
      <trkpt lat="42.7237510" lon="-1.0007490">
        <ele>631.599976</ele>
        <time>2018-06-15T10:43:42.000Z</time>
      </trkpt>
      <trkpt lat="42.7241530" lon="-1.0007740">
        <ele>629.799988</ele>
        <time>2018-06-15T10:43:53.000Z</time>
      </trkpt>
      <trkpt lat="42.7244460" lon="-1.0006710">
        <ele>626.400024</ele>
        <time>2018-06-15T10:44:01.000Z</time>
      </trkpt>
      <trkpt lat="42.7246530" lon="-1.0005600">
        <ele>624.799988</ele>
        <time>2018-06-15T10:44:07.000Z</time>
      </trkpt>
      <trkpt lat="42.7248240" lon="-1.0003840">
        <ele>622.799988</ele>
        <time>2018-06-15T10:44:12.000Z</time>
      </trkpt>
      <trkpt lat="42.7250410" lon="-0.9998890">
        <ele>625.000000</ele>
        <time>2018-06-15T10:44:24.000Z</time>
      </trkpt>
      <trkpt lat="42.7250960" lon="-0.9997110">
        <ele>625.500000</ele>
        <time>2018-06-15T10:44:27.000Z</time>
      </trkpt>
      <trkpt lat="42.7251320" lon="-0.9996090">
        <ele>625.900024</ele>
        <time>2018-06-15T10:44:30.000Z</time>
      </trkpt>
      <trkpt lat="42.7251670" lon="-0.9995440">
        <ele>625.500000</ele>
        <time>2018-06-15T10:44:31.000Z</time>
      </trkpt>
      <trkpt lat="42.7252380" lon="-0.9995230">
        <ele>624.399963</ele>
        <time>2018-06-15T10:44:33.000Z</time>
      </trkpt>
      <trkpt lat="42.7254590" lon="-0.9995390">
        <ele>621.200012</ele>
        <time>2018-06-15T10:44:39.000Z</time>
      </trkpt>
      <trkpt lat="42.7255520" lon="-0.9995370">
        <ele>621.000000</ele>
        <time>2018-06-15T10:44:41.000Z</time>
      </trkpt>
      <trkpt lat="42.7258690" lon="-0.9995010">
        <ele>622.400024</ele>
        <time>2018-06-15T10:44:50.000Z</time>
      </trkpt>
      <trkpt lat="42.7261090" lon="-0.9994960">
        <ele>622.899963</ele>
        <time>2018-06-15T10:44:56.000Z</time>
      </trkpt>
      <trkpt lat="42.7268640" lon="-0.9996850">
        <ele>618.700012</ele>
        <time>2018-06-15T10:45:17.000Z</time>
      </trkpt>
      <trkpt lat="42.7271970" lon="-0.9998070">
        <ele>619.899963</ele>
        <time>2018-06-15T10:45:26.000Z</time>
      </trkpt>
      <trkpt lat="42.7276780" lon="-0.9999870">
        <ele>619.400024</ele>
        <time>2018-06-15T10:45:39.000Z</time>
      </trkpt>
      <trkpt lat="42.7288400" lon="-1.0004030">
        <ele>622.700012</ele>
        <time>2018-06-15T10:46:11.000Z</time>
      </trkpt>
      <trkpt lat="42.7297360" lon="-1.0007360">
        <ele>628.599976</ele>
        <time>2018-06-15T10:46:36.000Z</time>
      </trkpt>
      <trkpt lat="42.7320030" lon="-1.0019830">
        <ele>627.399963</ele>
        <time>2018-06-15T10:47:40.000Z</time>
      </trkpt>
      <trkpt lat="42.7327750" lon="-1.0023900">
        <ele>628.500000</ele>
        <time>2018-06-15T10:48:02.000Z</time>
      </trkpt>
      <trkpt lat="42.7334400" lon="-1.0025810">
        <ele>629.400024</ele>
        <time>2018-06-15T10:48:20.000Z</time>
      </trkpt>
      <trkpt lat="42.7345030" lon="-1.0028520">
        <ele>621.900024</ele>
        <time>2018-06-15T10:48:49.000Z</time>
      </trkpt>
      <trkpt lat="42.7349540" lon="-1.0028990">
        <ele>620.599976</ele>
        <time>2018-06-15T10:49:01.000Z</time>
      </trkpt>
      <trkpt lat="42.7368730" lon="-1.0034940">
        <ele>628.900024</ele>
        <time>2018-06-15T10:49:53.000Z</time>
      </trkpt>
      <trkpt lat="42.7372050" lon="-1.0036880">
        <ele>629.200012</ele>
        <time>2018-06-15T10:50:03.000Z</time>
      </trkpt>
      <trkpt lat="42.7380520" lon="-1.0044720">
        <ele>631.500000</ele>
        <time>2018-06-15T10:50:30.000Z</time>
      </trkpt>
      <trkpt lat="42.7382550" lon="-1.0045970">
        <ele>632.200012</ele>
        <time>2018-06-15T10:50:36.000Z</time>
      </trkpt>
      <trkpt lat="42.7384340" lon="-1.0046720">
        <ele>632.599976</ele>
        <time>2018-06-15T10:50:41.000Z</time>
      </trkpt>
      <trkpt lat="42.7386740" lon="-1.0046600">
        <ele>632.299988</ele>
        <time>2018-06-15T10:50:47.000Z</time>
      </trkpt>
      <trkpt lat="42.7389820" lon="-1.0047040">
        <ele>627.799988</ele>
        <time>2018-06-15T10:50:56.000Z</time>
      </trkpt>
      <trkpt lat="42.7401250" lon="-1.0051150">
        <ele>627.000000</ele>
        <time>2018-06-15T10:51:27.000Z</time>
      </trkpt>
      <trkpt lat="42.7423620" lon="-1.0057130">
        <ele>635.000000</ele>
        <time>2018-06-15T10:52:27.000Z</time>
      </trkpt>
      <trkpt lat="42.7430940" lon="-1.0059010">
        <ele>638.400024</ele>
        <time>2018-06-15T10:52:47.000Z</time>
      </trkpt>
      <trkpt lat="42.7437150" lon="-1.0059640">
        <ele>641.400024</ele>
        <time>2018-06-15T10:53:04.000Z</time>
      </trkpt>
      <trkpt lat="42.7443410" lon="-1.0060640">
        <ele>643.399963</ele>
        <time>2018-06-15T10:53:20.000Z</time>
      </trkpt>
      <trkpt lat="42.7448620" lon="-1.0060330">
        <ele>642.600037</ele>
        <time>2018-06-15T10:53:34.000Z</time>
      </trkpt>
      <trkpt lat="42.7451890" lon="-1.0061140">
        <ele>640.200012</ele>
        <time>2018-06-15T10:53:43.000Z</time>
      </trkpt>
      <trkpt lat="42.7454690" lon="-1.0062520">
        <ele>638.000000</ele>
        <time>2018-06-15T10:53:51.000Z</time>
      </trkpt>
      <trkpt lat="42.7457320" lon="-1.0064520">
        <ele>642.699951</ele>
        <time>2018-06-15T10:53:59.000Z</time>
      </trkpt>
      <trkpt lat="42.7459760" lon="-1.0066850">
        <ele>642.600037</ele>
        <time>2018-06-15T10:54:07.000Z</time>
      </trkpt>
      <trkpt lat="42.7461510" lon="-1.0069290">
        <ele>644.099976</ele>
        <time>2018-06-15T10:54:14.000Z</time>
      </trkpt>
      <trkpt lat="42.7463810" lon="-1.0070980">
        <ele>647.200012</ele>
        <time>2018-06-15T10:54:21.000Z</time>
      </trkpt>
      <trkpt lat="42.7466940" lon="-1.0072740">
        <ele>653.500000</ele>
        <time>2018-06-15T10:54:30.000Z</time>
      </trkpt>
      <trkpt lat="42.7470670" lon="-1.0073810">
        <ele>657.000000</ele>
        <time>2018-06-15T10:54:40.000Z</time>
      </trkpt>
      <trkpt lat="42.7475830" lon="-1.0076310">
        <ele>657.700012</ele>
        <time>2018-06-15T10:54:54.000Z</time>
      </trkpt>
      <trkpt lat="42.7478720" lon="-1.0078190">
        <ele>655.400024</ele>
        <time>2018-06-15T10:55:03.000Z</time>
      </trkpt>
      <trkpt lat="42.7482320" lon="-1.0081390">
        <ele>650.999939</ele>
        <time>2018-06-15T10:55:14.000Z</time>
      </trkpt>
      <trkpt lat="42.7485170" lon="-1.0083210">
        <ele>654.500061</ele>
        <time>2018-06-15T10:55:23.000Z</time>
      </trkpt>
      <trkpt lat="42.7487430" lon="-1.0084400">
        <ele>656.700012</ele>
        <time>2018-06-15T10:55:29.000Z</time>
      </trkpt>
      <trkpt lat="42.7494470" lon="-1.0085970">
        <ele>661.799988</ele>
        <time>2018-06-15T10:55:48.000Z</time>
      </trkpt>
      <trkpt lat="42.7501740" lon="-1.0086720">
        <ele>665.599976</ele>
        <time>2018-06-15T10:56:07.000Z</time>
      </trkpt>
      <trkpt lat="42.7504740" lon="-1.0087660">
        <ele>666.000000</ele>
        <time>2018-06-15T10:56:16.000Z</time>
      </trkpt>
      <trkpt lat="42.7507960" lon="-1.0090100">
        <ele>663.700012</ele>
        <time>2018-06-15T10:56:25.000Z</time>
      </trkpt>
      <trkpt lat="42.7516710" lon="-1.0096310">
        <ele>669.400024</ele>
        <time>2018-06-15T10:56:52.000Z</time>
      </trkpt>
      <trkpt lat="42.7522510" lon="-1.0098880">
        <ele>663.900024</ele>
        <time>2018-06-15T10:57:08.000Z</time>
      </trkpt>
      <trkpt lat="42.7528770" lon="-1.0099510">
        <ele>670.000061</ele>
        <time>2018-06-15T10:57:25.000Z</time>
      </trkpt>
      <trkpt lat="42.7532680" lon="-1.0099570">
        <ele>663.099976</ele>
        <time>2018-06-15T10:57:35.000Z</time>
      </trkpt>
      <trkpt lat="42.7539220" lon="-1.0099820">
        <ele>658.700012</ele>
        <time>2018-06-15T10:57:52.000Z</time>
      </trkpt>
      <trkpt lat="42.7542660" lon="-1.0099330">
        <ele>661.500000</ele>
        <time>2018-06-15T10:58:02.000Z</time>
      </trkpt>
      <trkpt lat="42.7550600" lon="-1.0099780">
        <ele>661.199951</ele>
        <time>2018-06-15T10:58:23.000Z</time>
      </trkpt>
      <trkpt lat="42.7555350" lon="-1.0100450">
        <ele>664.099976</ele>
        <time>2018-06-15T10:58:35.000Z</time>
      </trkpt>
      <trkpt lat="42.7559120" lon="-1.0101960">
        <ele>663.799988</ele>
        <time>2018-06-15T10:58:46.000Z</time>
      </trkpt>
      <trkpt lat="42.7564690" lon="-1.0104810">
        <ele>661.400024</ele>
        <time>2018-06-15T10:59:02.000Z</time>
      </trkpt>
      <trkpt lat="42.7568710" lon="-1.0106630">
        <ele>663.700012</ele>
        <time>2018-06-15T10:59:13.000Z</time>
      </trkpt>
      <trkpt lat="42.7572660" lon="-1.0106410">
        <ele>662.000000</ele>
        <time>2018-06-15T10:59:23.000Z</time>
      </trkpt>
      <trkpt lat="42.7577340" lon="-1.0104980">
        <ele>664.400024</ele>
        <time>2018-06-15T10:59:36.000Z</time>
      </trkpt>
      <trkpt lat="42.7579130" lon="-1.0104740">
        <ele>660.299988</ele>
        <time>2018-06-15T10:59:41.000Z</time>
      </trkpt>
      <trkpt lat="42.7580820" lon="-1.0104670">
        <ele>660.200012</ele>
        <time>2018-06-15T10:59:45.000Z</time>
      </trkpt>
      <trkpt lat="42.7585720" lon="-1.0106040">
        <ele>666.400024</ele>
        <time>2018-06-15T10:59:59.000Z</time>
      </trkpt>
      <trkpt lat="42.7599310" lon="-1.0102720">
        <ele>670.099976</ele>
        <time>2018-06-15T11:00:35.000Z</time>
      </trkpt>
      <trkpt lat="42.7605160" lon="-1.0103510">
        <ele>665.700012</ele>
        <time>2018-06-15T11:00:51.000Z</time>
      </trkpt>
      <trkpt lat="42.7620410" lon="-1.0112740">
        <ele>681.399963</ele>
        <time>2018-06-15T11:01:35.000Z</time>
      </trkpt>
      <trkpt lat="42.7625830" lon="-1.0114580">
        <ele>693.600037</ele>
        <time>2018-06-15T11:01:51.000Z</time>
      </trkpt>
      <trkpt lat="42.7629830" lon="-1.0113920">
        <ele>703.799988</ele>
        <time>2018-06-15T11:02:01.000Z</time>
      </trkpt>
      <trkpt lat="42.7632600" lon="-1.0112210">
        <ele>708.799988</ele>
        <time>2018-06-15T11:02:10.000Z</time>
      </trkpt>
      <trkpt lat="42.7635630" lon="-1.0109960">
        <ele>711.699951</ele>
        <time>2018-06-15T11:02:19.000Z</time>
      </trkpt>
      <trkpt lat="42.7642550" lon="-1.0107970">
        <ele>725.700012</ele>
        <time>2018-06-15T11:02:38.000Z</time>
      </trkpt>
      <trkpt lat="42.7646100" lon="-1.0105790">
        <ele>718.600037</ele>
        <time>2018-06-15T11:02:48.000Z</time>
      </trkpt>
      <trkpt lat="42.7649370" lon="-1.0104820">
        <ele>707.400024</ele>
        <time>2018-06-15T11:02:58.000Z</time>
      </trkpt>
      <trkpt lat="42.7654100" lon="-1.0104020">
        <ele>704.799988</ele>
        <time>2018-06-15T11:03:10.000Z</time>
      </trkpt>
      <trkpt lat="42.7656540" lon="-1.0103050">
        <ele>700.099976</ele>
        <time>2018-06-15T11:03:17.000Z</time>
      </trkpt>
      <trkpt lat="42.7660500" lon="-1.0100390">
        <ele>699.799988</ele>
        <time>2018-06-15T11:03:29.000Z</time>
      </trkpt>
      <trkpt lat="42.7662680" lon="-1.0099240">
        <ele>702.600037</ele>
        <time>2018-06-15T11:03:35.000Z</time>
      </trkpt>
      <trkpt lat="42.7665480" lon="-1.0097260">
        <ele>708.199951</ele>
        <time>2018-06-15T11:03:43.000Z</time>
      </trkpt>
      <trkpt lat="42.7669500" lon="-1.0092590">
        <ele>704.699951</ele>
        <time>2018-06-15T11:03:58.000Z</time>
      </trkpt>
      <trkpt lat="42.7673630" lon="-1.0087870">
        <ele>704.400024</ele>
        <time>2018-06-15T11:04:12.000Z</time>
      </trkpt>
      <trkpt lat="42.7675770" lon="-1.0086690">
        <ele>705.000000</ele>
        <time>2018-06-15T11:04:18.000Z</time>
      </trkpt>
      <trkpt lat="42.7684190" lon="-1.0085670">
        <ele>704.799988</ele>
        <time>2018-06-15T11:04:40.000Z</time>
      </trkpt>
      <trkpt lat="42.7686320" lon="-1.0085060">
        <ele>701.500000</ele>
        <time>2018-06-15T11:04:46.000Z</time>
      </trkpt>
      <trkpt lat="42.7692580" lon="-1.0083020">
        <ele>705.700012</ele>
        <time>2018-06-15T11:05:03.000Z</time>
      </trkpt>
      <trkpt lat="42.7700000" lon="-1.0082170">
        <ele>709.700012</ele>
        <time>2018-06-15T11:05:23.000Z</time>
      </trkpt>
      <trkpt lat="42.7704670" lon="-1.0079720">
        <ele>718.299988</ele>
        <time>2018-06-15T11:05:36.000Z</time>
      </trkpt>
      <trkpt lat="42.7706030" lon="-1.0079230">
        <ele>721.100037</ele>
        <time>2018-06-15T11:05:40.000Z</time>
      </trkpt>
      <trkpt lat="42.7709910" lon="-1.0078540">
        <ele>714.600037</ele>
        <time>2018-06-15T11:05:51.000Z</time>
      </trkpt>
      <trkpt lat="42.7711840" lon="-1.0078320">
        <ele>701.500000</ele>
        <time>2018-06-15T11:05:57.000Z</time>
      </trkpt>
      <trkpt lat="42.7713020" lon="-1.0078700">
        <ele>693.299988</ele>
        <time>2018-06-15T11:06:01.000Z</time>
      </trkpt>
      <trkpt lat="42.7714640" lon="-1.0079560">
        <ele>688.900024</ele>
        <time>2018-06-15T11:06:05.000Z</time>
      </trkpt>
      <trkpt lat="42.7720030" lon="-1.0080040">
        <ele>688.299988</ele>
        <time>2018-06-15T11:06:20.000Z</time>
      </trkpt>
      <trkpt lat="42.7723650" lon="-1.0081490">
        <ele>691.099976</ele>
        <time>2018-06-15T11:06:30.000Z</time>
      </trkpt>
      <trkpt lat="42.7731030" lon="-1.0086220">
        <ele>698.400024</ele>
        <time>2018-06-15T11:06:51.000Z</time>
      </trkpt>
      <trkpt lat="42.7738870" lon="-1.0087420">
        <ele>695.500000</ele>
        <time>2018-06-15T11:07:12.000Z</time>
      </trkpt>
      <trkpt lat="42.7743060" lon="-1.0087560">
        <ele>693.000000</ele>
        <time>2018-06-15T11:07:23.000Z</time>
      </trkpt>
      <trkpt lat="42.7747330" lon="-1.0086890">
        <ele>692.000061</ele>
        <time>2018-06-15T11:07:35.000Z</time>
      </trkpt>
      <trkpt lat="42.7752990" lon="-1.0088730">
        <ele>691.799988</ele>
        <time>2018-06-15T11:07:50.000Z</time>
      </trkpt>
      <trkpt lat="42.7755510" lon="-1.0089480">
        <ele>696.100037</ele>
        <time>2018-06-15T11:07:57.000Z</time>
      </trkpt>
      <trkpt lat="42.7758590" lon="-1.0090180">
        <ele>703.000000</ele>
        <time>2018-06-15T11:08:06.000Z</time>
      </trkpt>
      <trkpt lat="42.7760560" lon="-1.0091070">
        <ele>705.799988</ele>
        <time>2018-06-15T11:08:11.000Z</time>
      </trkpt>
      <trkpt lat="42.7763780" lon="-1.0092650">
        <ele>705.600037</ele>
        <time>2018-06-15T11:08:20.000Z</time>
      </trkpt>
      <trkpt lat="42.7765000" lon="-1.0093070">
        <ele>705.899963</ele>
        <time>2018-06-15T11:08:24.000Z</time>
      </trkpt>
      <trkpt lat="42.7766230" lon="-1.0093180">
        <ele>707.099976</ele>
        <time>2018-06-15T11:08:27.000Z</time>
      </trkpt>
      <trkpt lat="42.7769670" lon="-1.0092790">
        <ele>704.599976</ele>
        <time>2018-06-15T11:08:36.000Z</time>
      </trkpt>
      <trkpt lat="42.7774190" lon="-1.0092670">
        <ele>702.299988</ele>
        <time>2018-06-15T11:08:48.000Z</time>
      </trkpt>
      <trkpt lat="42.7776380" lon="-1.0092480">
        <ele>703.599976</ele>
        <time>2018-06-15T11:08:54.000Z</time>
      </trkpt>
      <trkpt lat="42.7778370" lon="-1.0092940">
        <ele>702.399963</ele>
        <time>2018-06-15T11:08:59.000Z</time>
      </trkpt>
      <trkpt lat="42.7788890" lon="-1.0095670">
        <ele>710.200012</ele>
        <time>2018-06-15T11:09:28.000Z</time>
      </trkpt>
      <trkpt lat="42.7789970" lon="-1.0095920">
        <ele>710.000000</ele>
        <time>2018-06-15T11:09:31.000Z</time>
      </trkpt>
      <trkpt lat="42.7791470" lon="-1.0096670">
        <ele>710.900024</ele>
        <time>2018-06-15T11:09:35.000Z</time>
      </trkpt>
      <trkpt lat="42.7792470" lon="-1.0097660">
        <ele>711.199951</ele>
        <time>2018-06-15T11:09:38.000Z</time>
      </trkpt>
      <trkpt lat="42.7797220" lon="-1.0102730">
        <ele>713.499939</ele>
        <time>2018-06-15T11:09:54.000Z</time>
      </trkpt>
      <trkpt lat="42.7801030" lon="-1.0106090">
        <ele>718.100037</ele>
        <time>2018-06-15T11:10:06.000Z</time>
      </trkpt>
      <trkpt lat="42.7804290" lon="-1.0108550">
        <ele>724.500000</ele>
        <time>2018-06-15T11:10:16.000Z</time>
      </trkpt>
      <trkpt lat="42.7807620" lon="-1.0109170">
        <ele>724.799988</ele>
        <time>2018-06-15T11:10:25.000Z</time>
      </trkpt>
      <trkpt lat="42.7809000" lon="-1.0109870">
        <ele>726.900024</ele>
        <time>2018-06-15T11:10:29.000Z</time>
      </trkpt>
      <trkpt lat="42.7811080" lon="-1.0111240">
        <ele>726.299988</ele>
        <time>2018-06-15T11:10:35.000Z</time>
      </trkpt>
      <trkpt lat="42.7817670" lon="-1.0116350">
        <ele>723.099976</ele>
        <time>2018-06-15T11:10:55.000Z</time>
      </trkpt>
      <trkpt lat="42.7820450" lon="-1.0118110">
        <ele>723.200012</ele>
        <time>2018-06-15T11:11:03.000Z</time>
      </trkpt>
      <trkpt lat="42.7822190" lon="-1.0118930">
        <ele>720.099976</ele>
        <time>2018-06-15T11:11:08.000Z</time>
      </trkpt>
      <trkpt lat="42.7828490" lon="-1.0123340">
        <ele>723.900024</ele>
        <time>2018-06-15T11:11:27.000Z</time>
      </trkpt>
      <trkpt lat="42.7832220" lon="-1.0126570">
        <ele>729.599976</ele>
        <time>2018-06-15T11:11:39.000Z</time>
      </trkpt>
      <trkpt lat="42.7836400" lon="-1.0129350">
        <ele>734.300049</ele>
        <time>2018-06-15T11:11:51.000Z</time>
      </trkpt>
      <trkpt lat="42.7839870" lon="-1.0133480">
        <ele>732.400024</ele>
        <time>2018-06-15T11:12:04.000Z</time>
      </trkpt>
      <trkpt lat="42.7841380" lon="-1.0134970">
        <ele>734.000000</ele>
        <time>2018-06-15T11:12:08.000Z</time>
      </trkpt>
      <trkpt lat="42.7843270" lon="-1.0135940">
        <ele>738.200012</ele>
        <time>2018-06-15T11:12:14.000Z</time>
      </trkpt>
      <trkpt lat="42.7848820" lon="-1.0136570">
        <ele>757.500061</ele>
        <time>2018-06-15T11:12:29.000Z</time>
      </trkpt>
      <trkpt lat="42.7853550" lon="-1.0138190">
        <ele>752.000000</ele>
        <time>2018-06-15T11:12:42.000Z</time>
      </trkpt>
      <trkpt lat="42.7856950" lon="-1.0138730">
        <ele>759.100037</ele>
        <time>2018-06-15T11:12:52.000Z</time>
      </trkpt>
      <trkpt lat="42.7861510" lon="-1.0138990">
        <ele>770.400024</ele>
        <time>2018-06-15T11:13:04.000Z</time>
      </trkpt>
      <trkpt lat="42.7868940" lon="-1.0141890">
        <ele>761.299988</ele>
        <time>2018-06-15T11:13:25.000Z</time>
      </trkpt>
      <trkpt lat="42.7873140" lon="-1.0144130">
        <ele>754.599976</ele>
        <time>2018-06-15T11:13:37.000Z</time>
      </trkpt>
      <trkpt lat="42.7877970" lon="-1.0146130">
        <ele>757.500061</ele>
        <time>2018-06-15T11:13:50.000Z</time>
      </trkpt>
      <trkpt lat="42.7880660" lon="-1.0145970">
        <ele>751.599976</ele>
        <time>2018-06-15T11:13:57.000Z</time>
      </trkpt>
      <trkpt lat="42.7882160" lon="-1.0145490">
        <ele>747.700012</ele>
        <time>2018-06-15T11:14:02.000Z</time>
      </trkpt>
      <trkpt lat="42.7882900" lon="-1.0145860">
        <ele>748.400024</ele>
        <time>2018-06-15T11:14:04.000Z</time>
      </trkpt>
      <trkpt lat="42.7884040" lon="-1.0147040">
        <ele>750.200012</ele>
        <time>2018-06-15T11:14:07.000Z</time>
      </trkpt>
      <trkpt lat="42.7884520" lon="-1.0147090">
        <ele>750.000000</ele>
        <time>2018-06-15T11:14:09.000Z</time>
      </trkpt>
      <trkpt lat="42.7886410" lon="-1.0146290">
        <ele>747.500000</ele>
        <time>2018-06-15T11:14:14.000Z</time>
      </trkpt>
      <trkpt lat="42.7887270" lon="-1.0146050">
        <ele>746.399963</ele>
        <time>2018-06-15T11:14:16.000Z</time>
      </trkpt>
      <trkpt lat="42.7889010" lon="-1.0146020">
        <ele>743.500000</ele>
        <time>2018-06-15T11:14:21.000Z</time>
      </trkpt>
      <trkpt lat="42.7891330" lon="-1.0146500">
        <ele>740.399963</ele>
        <time>2018-06-15T11:14:27.000Z</time>
      </trkpt>
      <trkpt lat="42.7893660" lon="-1.0147900">
        <ele>739.099976</ele>
        <time>2018-06-15T11:14:34.000Z</time>
      </trkpt>
      <trkpt lat="42.7895030" lon="-1.0149080">
        <ele>740.399963</ele>
        <time>2018-06-15T11:14:38.000Z</time>
      </trkpt>
      <trkpt lat="42.7898240" lon="-1.0153200">
        <ele>746.600037</ele>
        <time>2018-06-15T11:14:50.000Z</time>
      </trkpt>
      <trkpt lat="42.7900100" lon="-1.0154930">
        <ele>747.799988</ele>
        <time>2018-06-15T11:14:56.000Z</time>
      </trkpt>
      <trkpt lat="42.7901820" lon="-1.0155790">
        <ele>747.099976</ele>
        <time>2018-06-15T11:15:01.000Z</time>
      </trkpt>
      <trkpt lat="42.7902510" lon="-1.0156190">
        <ele>746.899963</ele>
        <time>2018-06-15T11:15:03.000Z</time>
      </trkpt>
      <trkpt lat="42.7903000" lon="-1.0156510">
        <ele>746.600037</ele>
        <time>2018-06-15T11:15:04.000Z</time>
      </trkpt>
      <trkpt lat="42.7903400" lon="-1.0156880">
        <ele>746.299988</ele>
        <time>2018-06-15T11:15:06.000Z</time>
      </trkpt>
      <trkpt lat="42.7903530" lon="-1.0157390">
        <ele>746.800049</ele>
        <time>2018-06-15T11:15:07.000Z</time>
      </trkpt>
      <trkpt lat="42.7903240" lon="-1.0158900">
        <ele>749.500000</ele>
        <time>2018-06-15T11:15:10.000Z</time>
      </trkpt>
      <trkpt lat="42.7903320" lon="-1.0159430">
        <ele>750.099976</ele>
        <time>2018-06-15T11:15:11.000Z</time>
      </trkpt>
      <trkpt lat="42.7903520" lon="-1.0159800">
        <ele>750.200012</ele>
        <time>2018-06-15T11:15:12.000Z</time>
      </trkpt>
      <trkpt lat="42.7903750" lon="-1.0160310">
        <ele>750.300049</ele>
        <time>2018-06-15T11:15:13.000Z</time>
      </trkpt>
      <trkpt lat="42.7904510" lon="-1.0162020">
        <ele>750.999939</ele>
        <time>2018-06-15T11:15:17.000Z</time>
      </trkpt>
      <trkpt lat="42.7905000" lon="-1.0164290">
        <ele>751.599976</ele>
        <time>2018-06-15T11:15:22.000Z</time>
      </trkpt>
      <trkpt lat="42.7905060" lon="-1.0165470">
        <ele>752.199951</ele>
        <time>2018-06-15T11:15:24.000Z</time>
      </trkpt>
      <trkpt lat="42.7904940" lon="-1.0168000">
        <ele>754.799988</ele>
        <time>2018-06-15T11:15:29.000Z</time>
      </trkpt>
      <trkpt lat="42.7904590" lon="-1.0168980">
        <ele>755.899963</ele>
        <time>2018-06-15T11:15:31.000Z</time>
      </trkpt>
      <trkpt lat="42.7903680" lon="-1.0170410">
        <ele>758.299988</ele>
        <time>2018-06-15T11:15:35.000Z</time>
      </trkpt>
      <trkpt lat="42.7902680" lon="-1.0174170">
        <ele>765.299988</ele>
        <time>2018-06-15T11:15:43.000Z</time>
      </trkpt>
      <trkpt lat="42.7901850" lon="-1.0177080">
        <ele>770.799988</ele>
        <time>2018-06-15T11:15:49.000Z</time>
      </trkpt>
      <trkpt lat="42.7901730" lon="-1.0177990">
        <ele>770.799988</ele>
        <time>2018-06-15T11:15:51.000Z</time>
      </trkpt>
      <trkpt lat="42.7901690" lon="-1.0179330">
        <ele>770.400024</ele>
        <time>2018-06-15T11:15:53.000Z</time>
      </trkpt>
      <trkpt lat="42.7901820" lon="-1.0181070">
        <ele>768.700012</ele>
        <time>2018-06-15T11:15:57.000Z</time>
      </trkpt>
      <trkpt lat="42.7902140" lon="-1.0182070">
        <ele>768.700012</ele>
        <time>2018-06-15T11:15:59.000Z</time>
      </trkpt>
      <trkpt lat="42.7902410" lon="-1.0183330">
        <ele>769.799988</ele>
        <time>2018-06-15T11:16:01.000Z</time>
      </trkpt>
      <trkpt lat="42.7902610" lon="-1.0185610">
        <ele>773.299988</ele>
        <time>2018-06-15T11:16:06.000Z</time>
      </trkpt>
      <trkpt lat="42.7902610" lon="-1.0187350">
        <ele>778.300049</ele>
        <time>2018-06-15T11:16:10.000Z</time>
      </trkpt>
      <trkpt lat="42.7902360" lon="-1.0189500">
        <ele>785.099976</ele>
        <time>2018-06-15T11:16:14.000Z</time>
      </trkpt>
      <trkpt lat="42.7901960" lon="-1.0191300">
        <ele>791.400024</ele>
        <time>2018-06-15T11:16:18.000Z</time>
      </trkpt>
      <trkpt lat="42.7901070" lon="-1.0196040">
        <ele>794.099976</ele>
        <time>2018-06-15T11:16:28.000Z</time>
      </trkpt>
      <trkpt lat="42.7901250" lon="-1.0197790">
        <ele>794.799988</ele>
        <time>2018-06-15T11:16:31.000Z</time>
      </trkpt>
      <trkpt lat="42.7901310" lon="-1.0199850">
        <ele>796.000000</ele>
        <time>2018-06-15T11:16:35.000Z</time>
      </trkpt>
      <trkpt lat="42.7900860" lon="-1.0203800">
        <ele>797.599976</ele>
        <time>2018-06-15T11:16:43.000Z</time>
      </trkpt>
      <trkpt lat="42.7900540" lon="-1.0210810">
        <ele>797.700012</ele>
        <time>2018-06-15T11:16:56.000Z</time>
      </trkpt>
      <trkpt lat="42.7901390" lon="-1.0219040">
        <ele>800.399963</ele>
        <time>2018-06-15T11:17:13.000Z</time>
      </trkpt>
      <trkpt lat="42.7901070" lon="-1.0223940">
        <ele>806.399963</ele>
        <time>2018-06-15T11:17:22.000Z</time>
      </trkpt>
      <trkpt lat="42.7901160" lon="-1.0224830">
        <ele>807.000000</ele>
        <time>2018-06-15T11:17:24.000Z</time>
      </trkpt>
      <trkpt lat="42.7900710" lon="-1.0225360">
        <ele>808.899963</ele>
        <time>2018-06-15T11:17:26.000Z</time>
      </trkpt>
      <trkpt lat="42.7900170" lon="-1.0225470">
        <ele>810.500061</ele>
        <time>2018-06-15T11:17:27.000Z</time>
      </trkpt>
      <trkpt lat="42.7899820" lon="-1.0224960">
        <ele>811.299988</ele>
        <time>2018-06-15T11:17:29.000Z</time>
      </trkpt>
      <trkpt lat="42.7898890" lon="-1.0222630">
        <ele>812.300049</ele>
        <time>2018-06-15T11:17:34.000Z</time>
      </trkpt>
      <trkpt lat="42.7898100" lon="-1.0221390">
        <ele>813.299988</ele>
        <time>2018-06-15T11:17:37.000Z</time>
      </trkpt>
      <trkpt lat="42.7897240" lon="-1.0220590">
        <ele>816.000000</ele>
        <time>2018-06-15T11:17:40.000Z</time>
      </trkpt>
      <trkpt lat="42.7896420" lon="-1.0220320">
        <ele>819.400024</ele>
        <time>2018-06-15T11:17:42.000Z</time>
      </trkpt>
      <trkpt lat="42.7895370" lon="-1.0219950">
        <ele>824.600037</ele>
        <time>2018-06-15T11:17:45.000Z</time>
      </trkpt>
      <trkpt lat="42.7894840" lon="-1.0219380">
        <ele>827.100037</ele>
        <time>2018-06-15T11:17:47.000Z</time>
      </trkpt>
      <trkpt lat="42.7894670" lon="-1.0218450">
        <ele>826.400024</ele>
        <time>2018-06-15T11:17:49.000Z</time>
      </trkpt>
      <trkpt lat="42.7894980" lon="-1.0216750">
        <ele>823.699951</ele>
        <time>2018-06-15T11:17:53.000Z</time>
      </trkpt>
      <trkpt lat="42.7895020" lon="-1.0215870">
        <ele>823.600037</ele>
        <time>2018-06-15T11:17:54.000Z</time>
      </trkpt>
      <trkpt lat="42.7894000" lon="-1.0211980">
        <ele>832.099976</ele>
        <time>2018-06-15T11:18:03.000Z</time>
      </trkpt>
      <trkpt lat="42.7892690" lon="-1.0208120">
        <ele>843.599976</ele>
        <time>2018-06-15T11:18:11.000Z</time>
      </trkpt>
      <trkpt lat="42.7891440" lon="-1.0203800">
        <ele>849.500000</ele>
        <time>2018-06-15T11:18:20.000Z</time>
      </trkpt>
      <trkpt lat="42.7889830" lon="-1.0199850">
        <ele>857.200012</ele>
        <time>2018-06-15T11:18:29.000Z</time>
      </trkpt>
      <trkpt lat="42.7889310" lon="-1.0197750">
        <ele>858.100037</ele>
        <time>2018-06-15T11:18:34.000Z</time>
      </trkpt>
      <trkpt lat="42.7888870" lon="-1.0194780">
        <ele>858.899963</ele>
        <time>2018-06-15T11:18:40.000Z</time>
      </trkpt>
      <trkpt lat="42.7888690" lon="-1.0193600">
        <ele>859.399963</ele>
        <time>2018-06-15T11:18:42.000Z</time>
      </trkpt>
      <trkpt lat="42.7886680" lon="-1.0188970">
        <ele>863.900024</ele>
        <time>2018-06-15T11:18:52.000Z</time>
      </trkpt>
      <trkpt lat="42.7885990" lon="-1.0187770">
        <ele>861.700012</ele>
        <time>2018-06-15T11:18:55.000Z</time>
      </trkpt>
      <trkpt lat="42.7885470" lon="-1.0187720">
        <ele>861.100037</ele>
        <time>2018-06-15T11:18:57.000Z</time>
      </trkpt>
      <trkpt lat="42.7885100" lon="-1.0188410">
        <ele>861.700012</ele>
        <time>2018-06-15T11:18:59.000Z</time>
      </trkpt>
      <trkpt lat="42.7884500" lon="-1.0192710">
        <ele>866.700012</ele>
        <time>2018-06-15T11:19:07.000Z</time>
      </trkpt>
      <trkpt lat="42.7884120" lon="-1.0194330">
        <ele>868.500000</ele>
        <time>2018-06-15T11:19:10.000Z</time>
      </trkpt>
      <trkpt lat="42.7883380" lon="-1.0196130">
        <ele>871.899963</ele>
        <time>2018-06-15T11:19:15.000Z</time>
      </trkpt>
      <trkpt lat="42.7881110" lon="-1.0199560">
        <ele>883.500000</ele>
        <time>2018-06-15T11:19:24.000Z</time>
      </trkpt>
      <trkpt lat="42.7880440" lon="-1.0200310">
        <ele>886.700012</ele>
        <time>2018-06-15T11:19:26.000Z</time>
      </trkpt>
      <trkpt lat="42.7878090" lon="-1.0201240">
        <ele>893.399963</ele>
        <time>2018-06-15T11:19:33.000Z</time>
      </trkpt>
      <trkpt lat="42.7876350" lon="-1.0203360">
        <ele>901.600037</ele>
        <time>2018-06-15T11:19:40.000Z</time>
      </trkpt>
      <trkpt lat="42.7873090" lon="-1.0209890">
        <ele>915.200012</ele>
        <time>2018-06-15T11:19:55.000Z</time>
      </trkpt>
      <trkpt lat="42.7871860" lon="-1.0211600">
        <ele>920.500000</ele>
        <time>2018-06-15T11:20:00.000Z</time>
      </trkpt>
      <trkpt lat="42.7870190" lon="-1.0214820">
        <ele>928.900024</ele>
        <time>2018-06-15T11:20:08.000Z</time>
      </trkpt>
      <trkpt lat="42.7866560" lon="-1.0222930">
        <ele>941.799988</ele>
        <time>2018-06-15T11:20:27.000Z</time>
      </trkpt>
      <trkpt lat="42.7865000" lon="-1.0226940">
        <ele>947.599976</ele>
        <time>2018-06-15T11:20:36.000Z</time>
      </trkpt>
      <trkpt lat="42.7864500" lon="-1.0227890">
        <ele>948.799988</ele>
        <time>2018-06-15T11:20:38.000Z</time>
      </trkpt>
      <trkpt lat="42.7863390" lon="-1.0232280">
        <ele>953.799988</ele>
        <time>2018-06-15T11:20:47.000Z</time>
      </trkpt>
      <trkpt lat="42.7861280" lon="-1.0237270">
        <ele>958.000000</ele>
        <time>2018-06-15T11:20:58.000Z</time>
      </trkpt>
      <trkpt lat="42.7861090" lon="-1.0238560">
        <ele>957.599976</ele>
        <time>2018-06-15T11:21:01.000Z</time>
      </trkpt>
      <trkpt lat="42.7860670" lon="-1.0242660">
        <ele>952.899963</ele>
        <time>2018-06-15T11:21:09.000Z</time>
      </trkpt>
      <trkpt lat="42.7860660" lon="-1.0243980">
        <ele>949.899963</ele>
        <time>2018-06-15T11:21:12.000Z</time>
      </trkpt>
      <trkpt lat="42.7860950" lon="-1.0244810">
        <ele>948.600037</ele>
        <time>2018-06-15T11:21:14.000Z</time>
      </trkpt>
      <trkpt lat="42.7861430" lon="-1.0245350">
        <ele>948.699951</ele>
        <time>2018-06-15T11:21:15.000Z</time>
      </trkpt>
      <trkpt lat="42.7863880" lon="-1.0247850">
        <ele>946.800049</ele>
        <time>2018-06-15T11:21:23.000Z</time>
      </trkpt>
      <trkpt lat="42.7864380" lon="-1.0248720">
        <ele>945.799988</ele>
        <time>2018-06-15T11:21:26.000Z</time>
      </trkpt>
      <trkpt lat="42.7864850" lon="-1.0249920">
        <ele>944.599976</ele>
        <time>2018-06-15T11:21:28.000Z</time>
      </trkpt>
      <trkpt lat="42.7866650" lon="-1.0254010">
        <ele>945.099976</ele>
        <time>2018-06-15T11:21:37.000Z</time>
      </trkpt>
      <trkpt lat="42.7867870" lon="-1.0256890">
        <ele>944.499939</ele>
        <time>2018-06-15T11:21:44.000Z</time>
      </trkpt>
      <trkpt lat="42.7868150" lon="-1.0257840">
        <ele>944.200012</ele>
        <time>2018-06-15T11:21:46.000Z</time>
      </trkpt>
      <trkpt lat="42.7868330" lon="-1.0258890">
        <ele>943.700012</ele>
        <time>2018-06-15T11:21:48.000Z</time>
      </trkpt>
      <trkpt lat="42.7868490" lon="-1.0263490">
        <ele>946.500000</ele>
        <time>2018-06-15T11:21:57.000Z</time>
      </trkpt>
      <trkpt lat="42.7868960" lon="-1.0265410">
        <ele>951.900024</ele>
        <time>2018-06-15T11:22:01.000Z</time>
      </trkpt>
      <trkpt lat="42.7869200" lon="-1.0268770">
        <ele>956.200012</ele>
        <time>2018-06-15T11:22:08.000Z</time>
      </trkpt>
      <trkpt lat="42.7869440" lon="-1.0270560">
        <ele>956.500000</ele>
        <time>2018-06-15T11:22:11.000Z</time>
      </trkpt>
      <trkpt lat="42.7869470" lon="-1.0277100">
        <ele>963.599976</ele>
        <time>2018-06-15T11:22:24.000Z</time>
      </trkpt>
      <trkpt lat="42.7869630" lon="-1.0280980">
        <ele>963.700012</ele>
        <time>2018-06-15T11:22:32.000Z</time>
      </trkpt>
      <trkpt lat="42.7869830" lon="-1.0284610">
        <ele>963.000000</ele>
        <time>2018-06-15T11:22:39.000Z</time>
      </trkpt>
      <trkpt lat="42.7870620" lon="-1.0287640">
        <ele>959.500000</ele>
        <time>2018-06-15T11:22:45.000Z</time>
      </trkpt>
      <trkpt lat="42.7872390" lon="-1.0291640">
        <ele>955.799988</ele>
        <time>2018-06-15T11:22:54.000Z</time>
      </trkpt>
      <trkpt lat="42.7873320" lon="-1.0293900">
        <ele>956.099976</ele>
        <time>2018-06-15T11:22:59.000Z</time>
      </trkpt>
      <trkpt lat="42.7875790" lon="-1.0298820">
        <ele>968.100037</ele>
        <time>2018-06-15T11:23:11.000Z</time>
      </trkpt>
      <trkpt lat="42.7876260" lon="-1.0300060">
        <ele>971.399963</ele>
        <time>2018-06-15T11:23:14.000Z</time>
      </trkpt>
      <trkpt lat="42.7877010" lon="-1.0302770">
        <ele>974.800049</ele>
        <time>2018-06-15T11:23:20.000Z</time>
      </trkpt>
      <trkpt lat="42.7877520" lon="-1.0305610">
        <ele>976.799988</ele>
        <time>2018-06-15T11:23:26.000Z</time>
      </trkpt>
      <trkpt lat="42.7879870" lon="-1.0313360">
        <ele>981.599976</ele>
        <time>2018-06-15T11:23:42.000Z</time>
      </trkpt>
      <trkpt lat="42.7881200" lon="-1.0316500">
        <ele>980.600037</ele>
        <time>2018-06-15T11:23:49.000Z</time>
      </trkpt>
      <trkpt lat="42.7883070" lon="-1.0319730">
        <ele>984.500000</ele>
        <time>2018-06-15T11:23:57.000Z</time>
      </trkpt>
      <trkpt lat="42.7883820" lon="-1.0321220">
        <ele>988.299988</ele>
        <time>2018-06-15T11:24:01.000Z</time>
      </trkpt>
      <trkpt lat="42.7884750" lon="-1.0323640">
        <ele>991.099976</ele>
        <time>2018-06-15T11:24:06.000Z</time>
      </trkpt>
      <trkpt lat="42.7885680" lon="-1.0325930">
        <ele>992.500000</ele>
        <time>2018-06-15T11:24:11.000Z</time>
      </trkpt>
      <trkpt lat="42.7887260" lon="-1.0329320">
        <ele>992.600037</ele>
        <time>2018-06-15T11:24:19.000Z</time>
      </trkpt>
      <trkpt lat="42.7888050" lon="-1.0331550">
        <ele>990.700012</ele>
        <time>2018-06-15T11:24:24.000Z</time>
      </trkpt>
      <trkpt lat="42.7889240" lon="-1.0334460">
        <ele>991.700012</ele>
        <time>2018-06-15T11:24:30.000Z</time>
      </trkpt>
      <trkpt lat="42.7889490" lon="-1.0338230">
        <ele>989.199951</ele>
        <time>2018-06-15T11:24:38.000Z</time>
      </trkpt>
      <trkpt lat="42.7889690" lon="-1.0339840">
        <ele>990.800049</ele>
        <time>2018-06-15T11:24:41.000Z</time>
      </trkpt>
      <trkpt lat="42.7889890" lon="-1.0341370">
        <ele>993.200012</ele>
        <time>2018-06-15T11:24:44.000Z</time>
      </trkpt>
      <trkpt lat="42.7889550" lon="-1.0345950">
        <ele>997.799988</ele>
        <time>2018-06-15T11:24:53.000Z</time>
      </trkpt>
      <trkpt lat="42.7889250" lon="-1.0348220">
        <ele>1000.700012</ele>
        <time>2018-06-15T11:24:57.000Z</time>
      </trkpt>
      <trkpt lat="42.7887310" lon="-1.0353170">
        <ele>993.100037</ele>
        <time>2018-06-15T11:25:09.000Z</time>
      </trkpt>
      <trkpt lat="42.7887230" lon="-1.0354030">
        <ele>992.199951</ele>
        <time>2018-06-15T11:25:10.000Z</time>
      </trkpt>
      <trkpt lat="42.7887300" lon="-1.0354750">
        <ele>992.000000</ele>
        <time>2018-06-15T11:25:12.000Z</time>
      </trkpt>
      <trkpt lat="42.7887680" lon="-1.0356360">
        <ele>993.500000</ele>
        <time>2018-06-15T11:25:15.000Z</time>
      </trkpt>
      <trkpt lat="42.7888150" lon="-1.0357590">
        <ele>994.400024</ele>
        <time>2018-06-15T11:25:18.000Z</time>
      </trkpt>
      <trkpt lat="42.7889560" lon="-1.0359760">
        <ele>993.399963</ele>
        <time>2018-06-15T11:25:23.000Z</time>
      </trkpt>
      <trkpt lat="42.7892180" lon="-1.0362930">
        <ele>1007.299988</ele>
        <time>2018-06-15T11:25:33.000Z</time>
      </trkpt>
      <trkpt lat="42.7893030" lon="-1.0364620">
        <ele>1012.700012</ele>
        <time>2018-06-15T11:25:37.000Z</time>
      </trkpt>
      <trkpt lat="42.7893620" lon="-1.0367030">
        <ele>1020.199951</ele>
        <time>2018-06-15T11:25:43.000Z</time>
      </trkpt>
      <trkpt lat="42.7893730" lon="-1.0368190">
        <ele>1023.900024</ele>
        <time>2018-06-15T11:25:45.000Z</time>
      </trkpt>
      <trkpt lat="42.7893590" lon="-1.0369760">
        <ele>1027.000000</ele>
        <time>2018-06-15T11:25:48.000Z</time>
      </trkpt>
      <trkpt lat="42.7893020" lon="-1.0371020">
        <ele>1027.800049</ele>
        <time>2018-06-15T11:25:51.000Z</time>
      </trkpt>
      <trkpt lat="42.7892280" lon="-1.0371860">
        <ele>1029.000000</ele>
        <time>2018-06-15T11:25:54.000Z</time>
      </trkpt>
      <trkpt lat="42.7891460" lon="-1.0372290">
        <ele>1027.400024</ele>
        <time>2018-06-15T11:25:56.000Z</time>
      </trkpt>
      <trkpt lat="42.7889280" lon="-1.0372880">
        <ele>1021.899963</ele>
        <time>2018-06-15T11:26:02.000Z</time>
      </trkpt>
      <trkpt lat="42.7885820" lon="-1.0374190">
        <ele>1015.700012</ele>
        <time>2018-06-15T11:26:12.000Z</time>
      </trkpt>
      <trkpt lat="42.7883880" lon="-1.0376510">
        <ele>1015.900024</ele>
        <time>2018-06-15T11:26:19.000Z</time>
      </trkpt>
      <trkpt lat="42.7883010" lon="-1.0378060">
        <ele>1016.200012</ele>
        <time>2018-06-15T11:26:22.000Z</time>
      </trkpt>
      <trkpt lat="42.7882610" lon="-1.0380490">
        <ele>1024.200073</ele>
        <time>2018-06-15T11:26:28.000Z</time>
      </trkpt>
      <trkpt lat="42.7881740" lon="-1.0382990">
        <ele>1031.200073</ele>
        <time>2018-06-15T11:26:33.000Z</time>
      </trkpt>
      <trkpt lat="42.7880780" lon="-1.0384090">
        <ele>1033.000000</ele>
        <time>2018-06-15T11:26:37.000Z</time>
      </trkpt>
      <trkpt lat="42.7879170" lon="-1.0384820">
        <ele>1032.400024</ele>
        <time>2018-06-15T11:26:41.000Z</time>
      </trkpt>
      <trkpt lat="42.7877520" lon="-1.0386490">
        <ele>1034.300049</ele>
        <time>2018-06-15T11:26:47.000Z</time>
      </trkpt>
      <trkpt lat="42.7875230" lon="-1.0390400">
        <ele>1037.500000</ele>
        <time>2018-06-15T11:26:56.000Z</time>
      </trkpt>
      <trkpt lat="42.7873150" lon="-1.0392090">
        <ele>1033.099976</ele>
        <time>2018-06-15T11:27:03.000Z</time>
      </trkpt>
      <trkpt lat="42.7871190" lon="-1.0392630">
        <ele>1027.599976</ele>
        <time>2018-06-15T11:27:08.000Z</time>
      </trkpt>
      <trkpt lat="42.7870340" lon="-1.0393160">
        <ele>1026.799927</ele>
        <time>2018-06-15T11:27:11.000Z</time>
      </trkpt>
      <trkpt lat="42.7869580" lon="-1.0393910">
        <ele>1027.700073</ele>
        <time>2018-06-15T11:27:13.000Z</time>
      </trkpt>
      <trkpt lat="42.7869180" lon="-1.0394760">
        <ele>1029.500000</ele>
        <time>2018-06-15T11:27:15.000Z</time>
      </trkpt>
      <trkpt lat="42.7869030" lon="-1.0395250">
        <ele>1030.599976</ele>
        <time>2018-06-15T11:27:16.000Z</time>
      </trkpt>
      <trkpt lat="42.7868840" lon="-1.0395600">
        <ele>1031.599976</ele>
        <time>2018-06-15T11:27:17.000Z</time>
      </trkpt>
      <trkpt lat="42.7868500" lon="-1.0395760">
        <ele>1032.300049</ele>
        <time>2018-06-15T11:27:18.000Z</time>
      </trkpt>
      <trkpt lat="42.7868150" lon="-1.0395680">
        <ele>1032.500000</ele>
        <time>2018-06-15T11:27:19.000Z</time>
      </trkpt>
      <trkpt lat="42.7867080" lon="-1.0395760">
        <ele>1033.799927</ele>
        <time>2018-06-15T11:27:22.000Z</time>
      </trkpt>
      <trkpt lat="42.7865730" lon="-1.0396130">
        <ele>1035.800049</ele>
        <time>2018-06-15T11:27:26.000Z</time>
      </trkpt>
      <trkpt lat="42.7864090" lon="-1.0396930">
        <ele>1037.800049</ele>
        <time>2018-06-15T11:27:30.000Z</time>
      </trkpt>
      <trkpt lat="42.7863350" lon="-1.0398070">
        <ele>1039.700073</ele>
        <time>2018-06-15T11:27:33.000Z</time>
      </trkpt>
      <trkpt lat="42.7862950" lon="-1.0399750">
        <ele>1039.000000</ele>
        <time>2018-06-15T11:27:37.000Z</time>
      </trkpt>
      <trkpt lat="42.7863140" lon="-1.0401000">
        <ele>1037.200073</ele>
        <time>2018-06-15T11:27:39.000Z</time>
      </trkpt>
      <trkpt lat="42.7863450" lon="-1.0402230">
        <ele>1035.800049</ele>
        <time>2018-06-15T11:27:42.000Z</time>
      </trkpt>
      <trkpt lat="42.7864070" lon="-1.0402810">
        <ele>1035.699951</ele>
        <time>2018-06-15T11:27:44.000Z</time>
      </trkpt>
      <trkpt lat="42.7864790" lon="-1.0402880">
        <ele>1036.299927</ele>
        <time>2018-06-15T11:27:46.000Z</time>
      </trkpt>
      <trkpt lat="42.7865330" lon="-1.0403150">
        <ele>1036.500000</ele>
        <time>2018-06-15T11:27:47.000Z</time>
      </trkpt>
      <trkpt lat="42.7865730" lon="-1.0403470">
        <ele>1036.000000</ele>
        <time>2018-06-15T11:27:49.000Z</time>
      </trkpt>
      <trkpt lat="42.7865830" lon="-1.0403760">
        <ele>1035.599976</ele>
        <time>2018-06-15T11:27:49.000Z</time>
      </trkpt>
      <trkpt lat="42.7865810" lon="-1.0404210">
        <ele>1034.900024</ele>
        <time>2018-06-15T11:27:50.000Z</time>
      </trkpt>
      <trkpt lat="42.7865710" lon="-1.0405040">
        <ele>1033.000000</ele>
        <time>2018-06-15T11:27:52.000Z</time>
      </trkpt>
      <trkpt lat="42.7865420" lon="-1.0406120">
        <ele>1030.299927</ele>
        <time>2018-06-15T11:27:54.000Z</time>
      </trkpt>
      <trkpt lat="42.7863340" lon="-1.0412610">
        <ele>1025.199951</ele>
        <time>2018-06-15T11:28:08.000Z</time>
      </trkpt>
      <trkpt lat="42.7861640" lon="-1.0418780">
        <ele>1020.600037</ele>
        <time>2018-06-15T11:28:21.000Z</time>
      </trkpt>
      <trkpt lat="42.7859910" lon="-1.0422800">
        <ele>1023.000061</ele>
        <time>2018-06-15T11:28:30.000Z</time>
      </trkpt>
      <trkpt lat="42.7857260" lon="-1.0425900">
        <ele>1017.500000</ele>
        <time>2018-06-15T11:28:39.000Z</time>
      </trkpt>
      <trkpt lat="42.7855720" lon="-1.0428130">
        <ele>1013.700012</ele>
        <time>2018-06-15T11:28:45.000Z</time>
      </trkpt>
      <trkpt lat="42.7853690" lon="-1.0431760">
        <ele>1005.500000</ele>
        <time>2018-06-15T11:28:54.000Z</time>
      </trkpt>
      <trkpt lat="42.7852270" lon="-1.0436800">
        <ele>1000.900024</ele>
        <time>2018-06-15T11:29:05.000Z</time>
      </trkpt>
      <trkpt lat="42.7850410" lon="-1.0440260">
        <ele>998.600037</ele>
        <time>2018-06-15T11:29:13.000Z</time>
      </trkpt>
      <trkpt lat="42.7849870" lon="-1.0442280">
        <ele>996.700012</ele>
        <time>2018-06-15T11:29:17.000Z</time>
      </trkpt>
      <trkpt lat="42.7849470" lon="-1.0444220">
        <ele>995.899963</ele>
        <time>2018-06-15T11:29:21.000Z</time>
      </trkpt>
      <trkpt lat="42.7848970" lon="-1.0445990">
        <ele>995.899963</ele>
        <time>2018-06-15T11:29:25.000Z</time>
      </trkpt>
      <trkpt lat="42.7847890" lon="-1.0448700">
        <ele>991.499939</ele>
        <time>2018-06-15T11:29:31.000Z</time>
      </trkpt>
      <trkpt lat="42.7847540" lon="-1.0449780">
        <ele>991.700012</ele>
        <time>2018-06-15T11:29:33.000Z</time>
      </trkpt>
      <trkpt lat="42.7847390" lon="-1.0450780">
        <ele>991.799988</ele>
        <time>2018-06-15T11:29:35.000Z</time>
      </trkpt>
      <trkpt lat="42.7847300" lon="-1.0452870">
        <ele>991.299988</ele>
        <time>2018-06-15T11:29:40.000Z</time>
      </trkpt>
      <trkpt lat="42.7847230" lon="-1.0458350">
        <ele>986.400024</ele>
        <time>2018-06-15T11:29:50.000Z</time>
      </trkpt>
      <trkpt lat="42.7846630" lon="-1.0462340">
        <ele>984.200012</ele>
        <time>2018-06-15T11:29:58.000Z</time>
      </trkpt>
      <trkpt lat="42.7846060" lon="-1.0468780">
        <ele>981.300049</ele>
        <time>2018-06-15T11:30:11.000Z</time>
      </trkpt>
      <trkpt lat="42.7847980" lon="-1.0475440">
        <ele>964.100037</ele>
        <time>2018-06-15T11:30:25.000Z</time>
      </trkpt>
      <trkpt lat="42.7849860" lon="-1.0480270">
        <ele>946.700012</ele>
        <time>2018-06-15T11:30:37.000Z</time>
      </trkpt>
      <trkpt lat="42.7850420" lon="-1.0486980">
        <ele>934.500000</ele>
        <time>2018-06-15T11:30:50.000Z</time>
      </trkpt>
      <trkpt lat="42.7848700" lon="-1.0491310">
        <ele>919.099976</ele>
        <time>2018-06-15T11:31:01.000Z</time>
      </trkpt>
      <trkpt lat="42.7846490" lon="-1.0493830">
        <ele>910.099976</ele>
        <time>2018-06-15T11:31:08.000Z</time>
      </trkpt>
      <trkpt lat="42.7845750" lon="-1.0494110">
        <ele>910.000000</ele>
        <time>2018-06-15T11:31:10.000Z</time>
      </trkpt>
      <trkpt lat="42.7845280" lon="-1.0494870">
        <ele>910.200012</ele>
        <time>2018-06-15T11:31:12.000Z</time>
      </trkpt>
      <trkpt lat="42.7845640" lon="-1.0495520">
        <ele>907.400024</ele>
        <time>2018-06-15T11:31:14.000Z</time>
      </trkpt>
      <trkpt lat="42.7847440" lon="-1.0496850">
        <ele>902.299988</ele>
        <time>2018-06-15T11:31:20.000Z</time>
      </trkpt>
      <trkpt lat="42.7849970" lon="-1.0496590">
        <ele>900.300049</ele>
        <time>2018-06-15T11:31:26.000Z</time>
      </trkpt>
      <trkpt lat="42.7852370" lon="-1.0495480">
        <ele>905.600037</ele>
        <time>2018-06-15T11:31:33.000Z</time>
      </trkpt>
      <trkpt lat="42.7857680" lon="-1.0489810">
        <ele>906.200012</ele>
        <time>2018-06-15T11:31:51.000Z</time>
      </trkpt>
      <trkpt lat="42.7860300" lon="-1.0485140">
        <ele>890.000000</ele>
        <time>2018-06-15T11:32:03.000Z</time>
      </trkpt>
      <trkpt lat="42.7860890" lon="-1.0482580">
        <ele>889.799988</ele>
        <time>2018-06-15T11:32:08.000Z</time>
      </trkpt>
      <trkpt lat="42.7861930" lon="-1.0480220">
        <ele>883.600037</ele>
        <time>2018-06-15T11:32:14.000Z</time>
      </trkpt>
      <trkpt lat="42.7862880" lon="-1.0477360">
        <ele>879.599976</ele>
        <time>2018-06-15T11:32:20.000Z</time>
      </trkpt>
      <trkpt lat="42.7863440" lon="-1.0475040">
        <ele>879.200012</ele>
        <time>2018-06-15T11:32:25.000Z</time>
      </trkpt>
      <trkpt lat="42.7864750" lon="-1.0473020">
        <ele>874.600037</ele>
        <time>2018-06-15T11:32:30.000Z</time>
      </trkpt>
      <trkpt lat="42.7866420" lon="-1.0471420">
        <ele>868.800049</ele>
        <time>2018-06-15T11:32:36.000Z</time>
      </trkpt>
      <trkpt lat="42.7868550" lon="-1.0469180">
        <ele>863.700012</ele>
        <time>2018-06-15T11:32:43.000Z</time>
      </trkpt>
      <trkpt lat="42.7870170" lon="-1.0466700">
        <ele>862.300049</ele>
        <time>2018-06-15T11:32:50.000Z</time>
      </trkpt>
      <trkpt lat="42.7871090" lon="-1.0465330">
        <ele>861.100037</ele>
        <time>2018-06-15T11:32:53.000Z</time>
      </trkpt>
      <trkpt lat="42.7871930" lon="-1.0464300">
        <ele>861.799988</ele>
        <time>2018-06-15T11:32:56.000Z</time>
      </trkpt>
      <trkpt lat="42.7872660" lon="-1.0464000">
        <ele>860.500061</ele>
        <time>2018-06-15T11:32:58.000Z</time>
      </trkpt>
      <trkpt lat="42.7873380" lon="-1.0464340">
        <ele>857.099976</ele>
        <time>2018-06-15T11:33:00.000Z</time>
      </trkpt>
      <trkpt lat="42.7873660" lon="-1.0465370">
        <ele>853.000000</ele>
        <time>2018-06-15T11:33:03.000Z</time>
      </trkpt>
      <trkpt lat="42.7873550" lon="-1.0467010">
        <ele>851.900024</ele>
        <time>2018-06-15T11:33:06.000Z</time>
      </trkpt>
      <trkpt lat="42.7873110" lon="-1.0470980">
        <ele>849.399963</ele>
        <time>2018-06-15T11:33:14.000Z</time>
      </trkpt>
      <trkpt lat="42.7871640" lon="-1.0477140">
        <ele>845.200012</ele>
        <time>2018-06-15T11:33:27.000Z</time>
      </trkpt>
      <trkpt lat="42.7870530" lon="-1.0480450">
        <ele>845.299988</ele>
        <time>2018-06-15T11:33:34.000Z</time>
      </trkpt>
      <trkpt lat="42.7870200" lon="-1.0482200">
        <ele>846.600037</ele>
        <time>2018-06-15T11:33:37.000Z</time>
      </trkpt>
      <trkpt lat="42.7870500" lon="-1.0484250">
        <ele>851.299988</ele>
        <time>2018-06-15T11:33:41.000Z</time>
      </trkpt>
      <trkpt lat="42.7871400" lon="-1.0486730">
        <ele>850.300049</ele>
        <time>2018-06-15T11:33:47.000Z</time>
      </trkpt>
      <trkpt lat="42.7872460" lon="-1.0489430">
        <ele>850.799988</ele>
        <time>2018-06-15T11:33:53.000Z</time>
      </trkpt>
      <trkpt lat="42.7873220" lon="-1.0492430">
        <ele>848.099976</ele>
        <time>2018-06-15T11:33:59.000Z</time>
      </trkpt>
      <trkpt lat="42.7873440" lon="-1.0495520">
        <ele>837.800049</ele>
        <time>2018-06-15T11:34:05.000Z</time>
      </trkpt>
      <trkpt lat="42.7873190" lon="-1.0498450">
        <ele>828.999939</ele>
        <time>2018-06-15T11:34:12.000Z</time>
      </trkpt>
      <trkpt lat="42.7872290" lon="-1.0500350">
        <ele>827.000000</ele>
        <time>2018-06-15T11:34:16.000Z</time>
      </trkpt>
      <trkpt lat="42.7870000" lon="-1.0504580">
        <ele>821.000000</ele>
        <time>2018-06-15T11:34:26.000Z</time>
      </trkpt>
      <trkpt lat="42.7869670" lon="-1.0506850">
        <ele>819.700012</ele>
        <time>2018-06-15T11:34:31.000Z</time>
      </trkpt>
      <trkpt lat="42.7869160" lon="-1.0512230">
        <ele>820.000061</ele>
        <time>2018-06-15T11:34:41.000Z</time>
      </trkpt>
      <trkpt lat="42.7867820" lon="-1.0514970">
        <ele>822.200012</ele>
        <time>2018-06-15T11:34:48.000Z</time>
      </trkpt>
      <trkpt lat="42.7866540" lon="-1.0517220">
        <ele>817.099976</ele>
        <time>2018-06-15T11:34:53.000Z</time>
      </trkpt>
      <trkpt lat="42.7865030" lon="-1.0518430">
        <ele>808.799988</ele>
        <time>2018-06-15T11:34:59.000Z</time>
      </trkpt>
      <trkpt lat="42.7863580" lon="-1.0520760">
        <ele>806.800049</ele>
        <time>2018-06-15T11:35:04.000Z</time>
      </trkpt>
      <trkpt lat="42.7862750" lon="-1.0523270">
        <ele>803.799988</ele>
        <time>2018-06-15T11:35:10.000Z</time>
      </trkpt>
      <trkpt lat="42.7861920" lon="-1.0527570">
        <ele>799.100037</ele>
        <time>2018-06-15T11:35:19.000Z</time>
      </trkpt>
      <trkpt lat="42.7862120" lon="-1.0529210">
        <ele>796.899963</ele>
        <time>2018-06-15T11:35:22.000Z</time>
      </trkpt>
      <trkpt lat="42.7862490" lon="-1.0533580">
        <ele>792.799988</ele>
        <time>2018-06-15T11:35:31.000Z</time>
      </trkpt>
      <trkpt lat="42.7862260" lon="-1.0539600">
        <ele>787.899963</ele>
        <time>2018-06-15T11:35:42.000Z</time>
      </trkpt>
      <trkpt lat="42.7862070" lon="-1.0547330">
        <ele>781.399963</ele>
        <time>2018-06-15T11:35:57.000Z</time>
      </trkpt>
      <trkpt lat="42.7862680" lon="-1.0554560">
        <ele>775.999939</ele>
        <time>2018-06-15T11:36:12.000Z</time>
      </trkpt>
      <trkpt lat="42.7862190" lon="-1.0560770">
        <ele>773.500000</ele>
        <time>2018-06-15T11:36:24.000Z</time>
      </trkpt>
      <trkpt lat="42.7863070" lon="-1.0568800">
        <ele>770.400024</ele>
        <time>2018-06-15T11:36:40.000Z</time>
      </trkpt>
      <trkpt lat="42.7864330" lon="-1.0576400">
        <ele>763.700012</ele>
        <time>2018-06-15T11:36:55.000Z</time>
      </trkpt>
      <trkpt lat="42.7865090" lon="-1.0581270">
        <ele>760.500061</ele>
        <time>2018-06-15T11:37:05.000Z</time>
      </trkpt>
      <trkpt lat="42.7864900" lon="-1.0586660">
        <ele>757.000000</ele>
        <time>2018-06-15T11:37:15.000Z</time>
      </trkpt>
      <trkpt lat="42.7864830" lon="-1.0589450">
        <ele>757.500061</ele>
        <time>2018-06-15T11:37:21.000Z</time>
      </trkpt>
      <trkpt lat="42.7865950" lon="-1.0592210">
        <ele>758.299988</ele>
        <time>2018-06-15T11:37:27.000Z</time>
      </trkpt>
      <trkpt lat="42.7873560" lon="-1.0605050">
        <ele>749.500000</ele>
        <time>2018-06-15T11:37:59.000Z</time>
      </trkpt>
      <trkpt lat="42.7874530" lon="-1.0607260">
        <ele>750.200012</ele>
        <time>2018-06-15T11:38:04.000Z</time>
      </trkpt>
      <trkpt lat="42.7874920" lon="-1.0610270">
        <ele>749.200012</ele>
        <time>2018-06-15T11:38:10.000Z</time>
      </trkpt>
      <trkpt lat="42.7875280" lon="-1.0611820">
        <ele>748.099976</ele>
        <time>2018-06-15T11:38:13.000Z</time>
      </trkpt>
      <trkpt lat="42.7876790" lon="-1.0615880">
        <ele>747.099976</ele>
        <time>2018-06-15T11:38:22.000Z</time>
      </trkpt>
      <trkpt lat="42.7877760" lon="-1.0620100">
        <ele>751.699951</ele>
        <time>2018-06-15T11:38:31.000Z</time>
      </trkpt>
      <trkpt lat="42.7877970" lon="-1.0624270">
        <ele>751.200012</ele>
        <time>2018-06-15T11:38:39.000Z</time>
      </trkpt>
      <trkpt lat="42.7877300" lon="-1.0628800">
        <ele>749.000000</ele>
        <time>2018-06-15T11:38:48.000Z</time>
      </trkpt>
      <trkpt lat="42.7876320" lon="-1.0633180">
        <ele>744.300049</ele>
        <time>2018-06-15T11:38:57.000Z</time>
      </trkpt>
      <trkpt lat="42.7876250" lon="-1.0636540">
        <ele>740.800049</ele>
        <time>2018-06-15T11:39:03.000Z</time>
      </trkpt>
      <trkpt lat="42.7876390" lon="-1.0638570">
        <ele>739.600037</ele>
        <time>2018-06-15T11:39:07.000Z</time>
      </trkpt>
      <trkpt lat="42.7875300" lon="-1.0643790">
        <ele>738.000000</ele>
        <time>2018-06-15T11:39:18.000Z</time>
      </trkpt>
      <trkpt lat="42.7874760" lon="-1.0647600">
        <ele>736.500000</ele>
        <time>2018-06-15T11:39:25.000Z</time>
      </trkpt>
      <trkpt lat="42.7874500" lon="-1.0652350">
        <ele>735.500061</ele>
        <time>2018-06-15T11:39:35.000Z</time>
      </trkpt>
      <trkpt lat="42.7874680" lon="-1.0656160">
        <ele>734.599976</ele>
        <time>2018-06-15T11:39:42.000Z</time>
      </trkpt>
      <trkpt lat="42.7875690" lon="-1.0662240">
        <ele>733.400024</ele>
        <time>2018-06-15T11:39:54.000Z</time>
      </trkpt>
      <trkpt lat="42.7875700" lon="-1.0666940">
        <ele>733.899963</ele>
        <time>2018-06-15T11:40:03.000Z</time>
      </trkpt>
      <trkpt lat="42.7876680" lon="-1.0670060">
        <ele>733.600037</ele>
        <time>2018-06-15T11:40:10.000Z</time>
      </trkpt>
      <trkpt lat="42.7878110" lon="-1.0675430">
        <ele>730.600037</ele>
        <time>2018-06-15T11:40:21.000Z</time>
      </trkpt>
      <trkpt lat="42.7878440" lon="-1.0678050">
        <ele>729.200012</ele>
        <time>2018-06-15T11:40:26.000Z</time>
      </trkpt>
      <trkpt lat="42.7878170" lon="-1.0680740">
        <ele>727.799988</ele>
        <time>2018-06-15T11:40:32.000Z</time>
      </trkpt>
      <trkpt lat="42.7877440" lon="-1.0684900">
        <ele>727.100037</ele>
        <time>2018-06-15T11:40:40.000Z</time>
      </trkpt>
      <trkpt lat="42.7876790" lon="-1.0689420">
        <ele>728.200012</ele>
        <time>2018-06-15T11:40:49.000Z</time>
      </trkpt>
      <trkpt lat="42.7876540" lon="-1.0700070">
        <ele>727.399963</ele>
        <time>2018-06-15T11:41:10.000Z</time>
      </trkpt>
      <trkpt lat="42.7875920" lon="-1.0707750">
        <ele>729.599976</ele>
        <time>2018-06-15T11:41:25.000Z</time>
      </trkpt>
      <trkpt lat="42.7875100" lon="-1.0715000">
        <ele>720.400024</ele>
        <time>2018-06-15T11:41:39.000Z</time>
      </trkpt>
      <trkpt lat="42.7874560" lon="-1.0719910">
        <ele>715.200012</ele>
        <time>2018-06-15T11:41:49.000Z</time>
      </trkpt>
      <trkpt lat="42.7874740" lon="-1.0737200">
        <ele>702.100037</ele>
        <time>2018-06-15T11:42:23.000Z</time>
      </trkpt>
      <trkpt lat="42.7875370" lon="-1.0744340">
        <ele>698.900024</ele>
        <time>2018-06-15T11:42:37.000Z</time>
      </trkpt>
      <trkpt lat="42.7874700" lon="-1.0748800">
        <ele>698.099976</ele>
        <time>2018-06-15T11:42:46.000Z</time>
      </trkpt>
      <trkpt lat="42.7873140" lon="-1.0752830">
        <ele>692.299988</ele>
        <time>2018-06-15T11:42:55.000Z</time>
      </trkpt>
      <trkpt lat="42.7872410" lon="-1.0755500">
        <ele>687.800049</ele>
        <time>2018-06-15T11:43:00.000Z</time>
      </trkpt>
      <trkpt lat="42.7872000" lon="-1.0758050">
        <ele>683.799988</ele>
        <time>2018-06-15T11:43:05.000Z</time>
      </trkpt>
      <trkpt lat="42.7872160" lon="-1.0760160">
        <ele>683.000000</ele>
        <time>2018-06-15T11:43:09.000Z</time>
      </trkpt>
      <trkpt lat="42.7872870" lon="-1.0762480">
        <ele>689.600037</ele>
        <time>2018-06-15T11:43:15.000Z</time>
      </trkpt>
      <trkpt lat="42.7873670" lon="-1.0764600">
        <ele>697.099976</ele>
        <time>2018-06-15T11:43:20.000Z</time>
      </trkpt>
      <trkpt lat="42.7874520" lon="-1.0766640">
        <ele>699.199951</ele>
        <time>2018-06-15T11:43:24.000Z</time>
      </trkpt>
      <trkpt lat="42.7875810" lon="-1.0769610">
        <ele>698.099976</ele>
        <time>2018-06-15T11:43:31.000Z</time>
      </trkpt>
      <trkpt lat="42.7876680" lon="-1.0772730">
        <ele>695.000061</ele>
        <time>2018-06-15T11:43:37.000Z</time>
      </trkpt>
      <trkpt lat="42.7877260" lon="-1.0777160">
        <ele>690.399963</ele>
        <time>2018-06-15T11:43:46.000Z</time>
      </trkpt>
      <trkpt lat="42.7877990" lon="-1.0780920">
        <ele>691.499939</ele>
        <time>2018-06-15T11:43:54.000Z</time>
      </trkpt>
      <trkpt lat="42.7879130" lon="-1.0786540">
        <ele>690.700012</ele>
        <time>2018-06-15T11:44:05.000Z</time>
      </trkpt>
      <trkpt lat="42.7879410" lon="-1.0789880">
        <ele>689.899963</ele>
        <time>2018-06-15T11:44:12.000Z</time>
      </trkpt>
      <trkpt lat="42.7880980" lon="-1.0797060">
        <ele>680.400024</ele>
        <time>2018-06-15T11:44:26.000Z</time>
      </trkpt>
      <trkpt lat="42.7881850" lon="-1.0801120">
        <ele>680.400024</ele>
        <time>2018-06-15T11:44:35.000Z</time>
      </trkpt>
      <trkpt lat="42.7881870" lon="-1.0803100">
        <ele>680.299988</ele>
        <time>2018-06-15T11:44:39.000Z</time>
      </trkpt>
      <trkpt lat="42.7881410" lon="-1.0805930">
        <ele>681.000000</ele>
        <time>2018-06-15T11:44:44.000Z</time>
      </trkpt>
      <trkpt lat="42.7880420" lon="-1.0809260">
        <ele>679.799988</ele>
        <time>2018-06-15T11:44:51.000Z</time>
      </trkpt>
      <trkpt lat="42.7877620" lon="-1.0817140">
        <ele>678.599976</ele>
        <time>2018-06-15T11:45:08.000Z</time>
      </trkpt>
      <trkpt lat="42.7876840" lon="-1.0819550">
        <ele>675.900024</ele>
        <time>2018-06-15T11:45:13.000Z</time>
      </trkpt>
      <trkpt lat="42.7876390" lon="-1.0821910">
        <ele>674.399963</ele>
        <time>2018-06-15T11:45:18.000Z</time>
      </trkpt>
      <trkpt lat="42.7875730" lon="-1.0825450">
        <ele>674.600037</ele>
        <time>2018-06-15T11:45:25.000Z</time>
      </trkpt>
      <trkpt lat="42.7874160" lon="-1.0837210">
        <ele>666.599976</ele>
        <time>2018-06-15T11:45:49.000Z</time>
      </trkpt>
      <trkpt lat="42.7874010" lon="-1.0838450">
        <ele>664.699951</ele>
        <time>2018-06-15T11:45:51.000Z</time>
      </trkpt>
      <trkpt lat="42.7873810" lon="-1.0839450">
        <ele>662.800049</ele>
        <time>2018-06-15T11:45:53.000Z</time>
      </trkpt>
      <trkpt lat="42.7873450" lon="-1.0840000">
        <ele>661.299988</ele>
        <time>2018-06-15T11:45:55.000Z</time>
      </trkpt>
      <trkpt lat="42.7872830" lon="-1.0840520">
        <ele>660.099976</ele>
        <time>2018-06-15T11:45:57.000Z</time>
      </trkpt>
      <trkpt lat="42.7871780" lon="-1.0840640">
        <ele>659.399963</ele>
        <time>2018-06-15T11:45:59.000Z</time>
      </trkpt>
      <trkpt lat="42.7870730" lon="-1.0841210">
        <ele>659.399963</ele>
        <time>2018-06-15T11:46:02.000Z</time>
      </trkpt>
      <trkpt lat="42.7869580" lon="-1.0842520">
        <ele>663.700012</ele>
        <time>2018-06-15T11:46:06.000Z</time>
      </trkpt>
      <trkpt lat="42.7868460" lon="-1.0844000">
        <ele>669.599976</ele>
        <time>2018-06-15T11:46:11.000Z</time>
      </trkpt>
      <trkpt lat="42.7868060" lon="-1.0845460">
        <ele>675.000000</ele>
        <time>2018-06-15T11:46:14.000Z</time>
      </trkpt>
      <trkpt lat="42.7868110" lon="-1.0846550">
        <ele>675.700012</ele>
        <time>2018-06-15T11:46:16.000Z</time>
      </trkpt>
      <trkpt lat="42.7868460" lon="-1.0848680">
        <ele>673.400024</ele>
        <time>2018-06-15T11:46:21.000Z</time>
      </trkpt>
      <trkpt lat="42.7868770" lon="-1.0850430">
        <ele>664.199951</ele>
        <time>2018-06-15T11:46:25.000Z</time>
      </trkpt>
      <trkpt lat="42.7868820" lon="-1.0851950">
        <ele>660.200012</ele>
        <time>2018-06-15T11:46:28.000Z</time>
      </trkpt>
      <trkpt lat="42.7868550" lon="-1.0853490">
        <ele>661.000000</ele>
        <time>2018-06-15T11:46:31.000Z</time>
      </trkpt>
      <trkpt lat="42.7867400" lon="-1.0858560">
        <ele>662.399963</ele>
        <time>2018-06-15T11:46:41.000Z</time>
      </trkpt>
      <trkpt lat="42.7866500" lon="-1.0861300">
        <ele>664.699951</ele>
        <time>2018-06-15T11:46:47.000Z</time>
      </trkpt>
      <trkpt lat="42.7865500" lon="-1.0863180">
        <ele>665.800049</ele>
        <time>2018-06-15T11:46:52.000Z</time>
      </trkpt>
      <trkpt lat="42.7864320" lon="-1.0865670">
        <ele>666.599976</ele>
        <time>2018-06-15T11:46:57.000Z</time>
      </trkpt>
      <trkpt lat="42.7863250" lon="-1.0868360">
        <ele>665.800049</ele>
        <time>2018-06-15T11:47:03.000Z</time>
      </trkpt>
      <trkpt lat="42.7862250" lon="-1.0870180">
        <ele>663.599976</ele>
        <time>2018-06-15T11:47:08.000Z</time>
      </trkpt>
      <trkpt lat="42.7860580" lon="-1.0871980">
        <ele>665.100037</ele>
        <time>2018-06-15T11:47:13.000Z</time>
      </trkpt>
      <trkpt lat="42.7859430" lon="-1.0873180">
        <ele>666.799988</ele>
        <time>2018-06-15T11:47:17.000Z</time>
      </trkpt>
      <trkpt lat="42.7859110" lon="-1.0874360">
        <ele>668.600037</ele>
        <time>2018-06-15T11:47:20.000Z</time>
      </trkpt>
      <trkpt lat="42.7859030" lon="-1.0875160">
        <ele>670.000061</ele>
        <time>2018-06-15T11:47:21.000Z</time>
      </trkpt>
      <trkpt lat="42.7859070" lon="-1.0875910">
        <ele>671.000000</ele>
        <time>2018-06-15T11:47:23.000Z</time>
      </trkpt>
      <trkpt lat="42.7858800" lon="-1.0877150">
        <ele>670.900024</ele>
        <time>2018-06-15T11:47:25.000Z</time>
      </trkpt>
      <trkpt lat="42.7857890" lon="-1.0879400">
        <ele>670.900024</ele>
        <time>2018-06-15T11:47:30.000Z</time>
      </trkpt>
      <trkpt lat="42.7857580" lon="-1.0881280">
        <ele>671.000000</ele>
        <time>2018-06-15T11:47:34.000Z</time>
      </trkpt>
      <trkpt lat="42.7855610" lon="-1.0892540">
        <ele>664.099976</ele>
        <time>2018-06-15T11:47:57.000Z</time>
      </trkpt>
      <trkpt lat="42.7854820" lon="-1.0896560">
        <ele>659.599976</ele>
        <time>2018-06-15T11:48:05.000Z</time>
      </trkpt>
      <trkpt lat="42.7853640" lon="-1.0899570">
        <ele>656.800049</ele>
        <time>2018-06-15T11:48:12.000Z</time>
      </trkpt>
      <trkpt lat="42.7852300" lon="-1.0901880">
        <ele>653.900024</ele>
        <time>2018-06-15T11:48:17.000Z</time>
      </trkpt>
      <trkpt lat="42.7851200" lon="-1.0903860">
        <ele>652.000000</ele>
        <time>2018-06-15T11:48:22.000Z</time>
      </trkpt>
      <trkpt lat="42.7850490" lon="-1.0906010">
        <ele>649.600037</ele>
        <time>2018-06-15T11:48:27.000Z</time>
      </trkpt>
      <trkpt lat="42.7850060" lon="-1.0908100">
        <ele>648.599976</ele>
        <time>2018-06-15T11:48:31.000Z</time>
      </trkpt>
      <trkpt lat="42.7850320" lon="-1.0911140">
        <ele>647.900024</ele>
        <time>2018-06-15T11:48:37.000Z</time>
      </trkpt>
      <trkpt lat="42.7850630" lon="-1.0913030">
        <ele>647.999939</ele>
        <time>2018-06-15T11:48:41.000Z</time>
      </trkpt>
      <trkpt lat="42.7852110" lon="-1.0920120">
        <ele>651.699951</ele>
        <time>2018-06-15T11:48:55.000Z</time>
      </trkpt>
      <trkpt lat="42.7852810" lon="-1.0922280">
        <ele>650.900024</ele>
        <time>2018-06-15T11:49:00.000Z</time>
      </trkpt>
      <trkpt lat="42.7853080" lon="-1.0923230">
        <ele>650.099976</ele>
        <time>2018-06-15T11:49:02.000Z</time>
      </trkpt>
      <trkpt lat="42.7853920" lon="-1.0923990">
        <ele>648.799988</ele>
        <time>2018-06-15T11:49:04.000Z</time>
      </trkpt>
      <trkpt lat="42.7854700" lon="-1.0924100">
        <ele>648.599976</ele>
        <time>2018-06-15T11:49:07.000Z</time>
      </trkpt>
      <trkpt lat="42.7856920" lon="-1.0923190">
        <ele>650.399963</ele>
        <time>2018-06-15T11:49:13.000Z</time>
      </trkpt>
      <trkpt lat="42.7858010" lon="-1.0922870">
        <ele>650.000000</ele>
        <time>2018-06-15T11:49:16.000Z</time>
      </trkpt>
      <trkpt lat="42.7858510" lon="-1.0923040">
        <ele>649.500000</ele>
        <time>2018-06-15T11:49:17.000Z</time>
      </trkpt>
      <trkpt lat="42.7858660" lon="-1.0923240">
        <ele>649.199951</ele>
        <time>2018-06-15T11:49:18.000Z</time>
      </trkpt>
      <trkpt lat="42.7858830" lon="-1.0923700">
        <ele>648.599976</ele>
        <time>2018-06-15T11:49:19.000Z</time>
      </trkpt>
      <trkpt lat="42.7858760" lon="-1.0924400">
        <ele>648.099976</ele>
        <time>2018-06-15T11:49:20.000Z</time>
      </trkpt>
      <trkpt lat="42.7858420" lon="-1.0924990">
        <ele>647.700012</ele>
        <time>2018-06-15T11:49:21.000Z</time>
      </trkpt>
      <trkpt lat="42.7856300" lon="-1.0925870">
        <ele>646.700012</ele>
        <time>2018-06-15T11:49:27.000Z</time>
      </trkpt>
      <trkpt lat="42.7855860" lon="-1.0926510">
        <ele>645.600037</ele>
        <time>2018-06-15T11:49:29.000Z</time>
      </trkpt>
      <trkpt lat="42.7855790" lon="-1.0927350">
        <ele>643.000000</ele>
        <time>2018-06-15T11:49:31.000Z</time>
      </trkpt>
      <trkpt lat="42.7855840" lon="-1.0928100">
        <ele>640.599976</ele>
        <time>2018-06-15T11:49:32.000Z</time>
      </trkpt>
      <trkpt lat="42.7858310" lon="-1.0938340">
        <ele>632.099976</ele>
        <time>2018-06-15T11:49:53.000Z</time>
      </trkpt>
      <trkpt lat="42.7858600" lon="-1.0940840">
        <ele>635.799988</ele>
        <time>2018-06-15T11:49:58.000Z</time>
      </trkpt>
      <trkpt lat="42.7858640" lon="-1.0942930">
        <ele>640.899963</ele>
        <time>2018-06-15T11:50:03.000Z</time>
      </trkpt>
      <trkpt lat="42.7858130" lon="-1.0945400">
        <ele>646.299988</ele>
        <time>2018-06-15T11:50:08.000Z</time>
      </trkpt>
      <trkpt lat="42.7857680" lon="-1.0946420">
        <ele>647.900024</ele>
        <time>2018-06-15T11:50:10.000Z</time>
      </trkpt>
      <trkpt lat="42.7857090" lon="-1.0947440">
        <ele>649.100037</ele>
        <time>2018-06-15T11:50:13.000Z</time>
      </trkpt>
      <trkpt lat="42.7855580" lon="-1.0948620">
        <ele>647.599976</ele>
        <time>2018-06-15T11:50:17.000Z</time>
      </trkpt>
      <trkpt lat="42.7845190" lon="-1.0955700">
        <ele>639.199951</ele>
        <time>2018-06-15T11:50:48.000Z</time>
      </trkpt>
      <trkpt lat="42.7843630" lon="-1.0957100">
        <ele>636.799988</ele>
        <time>2018-06-15T11:50:53.000Z</time>
      </trkpt>
      <trkpt lat="42.7842670" lon="-1.0958490">
        <ele>635.200012</ele>
        <time>2018-06-15T11:50:57.000Z</time>
      </trkpt>
      <trkpt lat="42.7842550" lon="-1.0961160">
        <ele>633.199951</ele>
        <time>2018-06-15T11:51:02.000Z</time>
      </trkpt>
      <trkpt lat="42.7842700" lon="-1.0963840">
        <ele>631.100037</ele>
        <time>2018-06-15T11:51:07.000Z</time>
      </trkpt>
      <trkpt lat="42.7843140" lon="-1.0965350">
        <ele>630.199951</ele>
        <time>2018-06-15T11:51:11.000Z</time>
      </trkpt>
      <trkpt lat="42.7846760" lon="-1.0971580">
        <ele>632.599976</ele>
        <time>2018-06-15T11:51:26.000Z</time>
      </trkpt>
      <trkpt lat="42.7850700" lon="-1.0975650">
        <ele>633.299988</ele>
        <time>2018-06-15T11:51:39.000Z</time>
      </trkpt>
      <trkpt lat="42.7857510" lon="-1.0977680">
        <ele>627.199951</ele>
        <time>2018-06-15T11:51:58.000Z</time>
      </trkpt>
      <trkpt lat="42.7859370" lon="-1.0978820">
        <ele>626.900024</ele>
        <time>2018-06-15T11:52:03.000Z</time>
      </trkpt>
      <trkpt lat="42.7861730" lon="-1.0980160">
        <ele>634.599976</ele>
        <time>2018-06-15T11:52:10.000Z</time>
      </trkpt>
      <trkpt lat="42.7864870" lon="-1.0984240">
        <ele>636.699951</ele>
        <time>2018-06-15T11:52:22.000Z</time>
      </trkpt>
      <trkpt lat="42.7867720" lon="-1.0985370">
        <ele>642.400024</ele>
        <time>2018-06-15T11:52:30.000Z</time>
      </trkpt>
      <trkpt lat="42.7869370" lon="-1.0985900">
        <ele>644.700012</ele>
        <time>2018-06-15T11:52:34.000Z</time>
      </trkpt>
      <trkpt lat="42.7870480" lon="-1.0987080">
        <ele>642.900024</ele>
        <time>2018-06-15T11:52:38.000Z</time>
      </trkpt>
      <trkpt lat="42.7872860" lon="-1.0991520">
        <ele>645.200012</ele>
        <time>2018-06-15T11:52:49.000Z</time>
      </trkpt>
      <trkpt lat="42.7876840" lon="-1.0999900">
        <ele>652.700012</ele>
        <time>2018-06-15T11:53:08.000Z</time>
      </trkpt>
      <trkpt lat="42.7879360" lon="-1.1010630">
        <ele>650.999939</ele>
        <time>2018-06-15T11:53:30.000Z</time>
      </trkpt>
      <trkpt lat="42.7879520" lon="-1.1019000">
        <ele>648.099976</ele>
        <time>2018-06-15T11:53:46.000Z</time>
      </trkpt>
      <trkpt lat="42.7880480" lon="-1.1021950">
        <ele>643.299988</ele>
        <time>2018-06-15T11:53:53.000Z</time>
      </trkpt>
      <trkpt lat="42.7881410" lon="-1.1024360">
        <ele>638.299988</ele>
        <time>2018-06-15T11:53:58.000Z</time>
      </trkpt>
      <trkpt lat="42.7882250" lon="-1.1025760">
        <ele>635.299988</ele>
        <time>2018-06-15T11:54:02.000Z</time>
      </trkpt>
      <trkpt lat="42.7883100" lon="-1.1026610">
        <ele>633.600037</ele>
        <time>2018-06-15T11:54:05.000Z</time>
      </trkpt>
      <trkpt lat="42.7884870" lon="-1.1028010">
        <ele>627.799988</ele>
        <time>2018-06-15T11:54:10.000Z</time>
      </trkpt>
      <trkpt lat="42.7887020" lon="-1.1028820">
        <ele>626.500000</ele>
        <time>2018-06-15T11:54:16.000Z</time>
      </trkpt>
      <trkpt lat="42.7888810" lon="-1.1029080">
        <ele>628.200012</ele>
        <time>2018-06-15T11:54:21.000Z</time>
      </trkpt>
      <trkpt lat="42.7908340" lon="-1.1025860">
        <ele>671.399963</ele>
        <time>2018-06-15T11:55:14.000Z</time>
      </trkpt>
      <trkpt lat="42.7910290" lon="-1.1025810">
        <ele>675.599976</ele>
        <time>2018-06-15T11:55:19.000Z</time>
      </trkpt>
      <trkpt lat="42.7910880" lon="-1.1025970">
        <ele>676.500000</ele>
        <time>2018-06-15T11:55:21.000Z</time>
      </trkpt>
      <trkpt lat="42.7911480" lon="-1.1026510">
        <ele>676.500000</ele>
        <time>2018-06-15T11:55:23.000Z</time>
      </trkpt>
      <trkpt lat="42.7911910" lon="-1.1028390">
        <ele>672.500000</ele>
        <time>2018-06-15T11:55:27.000Z</time>
      </trkpt>
      <trkpt lat="42.7912100" lon="-1.1030000">
        <ele>668.800049</ele>
        <time>2018-06-15T11:55:30.000Z</time>
      </trkpt>
      <trkpt lat="42.7913360" lon="-1.1033060">
        <ele>665.899963</ele>
        <time>2018-06-15T11:55:37.000Z</time>
      </trkpt>
      <trkpt lat="42.7915480" lon="-1.1040460">
        <ele>675.700012</ele>
        <time>2018-06-15T11:55:53.000Z</time>
      </trkpt>
      <trkpt lat="42.7915610" lon="-1.1041420">
        <ele>677.500000</ele>
        <time>2018-06-15T11:55:55.000Z</time>
      </trkpt>
      <trkpt lat="42.7915420" lon="-1.1042170">
        <ele>676.500000</ele>
        <time>2018-06-15T11:55:56.000Z</time>
      </trkpt>
      <trkpt lat="42.7913250" lon="-1.1046200">
        <ele>666.299988</ele>
        <time>2018-06-15T11:56:06.000Z</time>
      </trkpt>
      <trkpt lat="42.7912620" lon="-1.1047490">
        <ele>664.600037</ele>
        <time>2018-06-15T11:56:09.000Z</time>
      </trkpt>
      <trkpt lat="42.7912380" lon="-1.1049630">
        <ele>665.399963</ele>
        <time>2018-06-15T11:56:13.000Z</time>
      </trkpt>
      <trkpt lat="42.7913220" lon="-1.1057190">
        <ele>668.500000</ele>
        <time>2018-06-15T11:56:28.000Z</time>
      </trkpt>
      <trkpt lat="42.7914150" lon="-1.1062830">
        <ele>676.799988</ele>
        <time>2018-06-15T11:56:40.000Z</time>
      </trkpt>
      <trkpt lat="42.7915110" lon="-1.1066420">
        <ele>685.599976</ele>
        <time>2018-06-15T11:56:48.000Z</time>
      </trkpt>
      <trkpt lat="42.7916590" lon="-1.1070710">
        <ele>691.000000</ele>
        <time>2018-06-15T11:56:57.000Z</time>
      </trkpt>
      <trkpt lat="42.7917940" lon="-1.1073290">
        <ele>691.700012</ele>
        <time>2018-06-15T11:57:03.000Z</time>
      </trkpt>
      <trkpt lat="42.7920410" lon="-1.1076450">
        <ele>687.000000</ele>
        <time>2018-06-15T11:57:12.000Z</time>
      </trkpt>
      <trkpt lat="42.7924870" lon="-1.1082300">
        <ele>689.699951</ele>
        <time>2018-06-15T11:57:29.000Z</time>
      </trkpt>
      <trkpt lat="42.7930690" lon="-1.1088850">
        <ele>687.299988</ele>
        <time>2018-06-15T11:57:49.000Z</time>
      </trkpt>
      <trkpt lat="42.7931950" lon="-1.1090450">
        <ele>686.699951</ele>
        <time>2018-06-15T11:57:53.000Z</time>
      </trkpt>
      <trkpt lat="42.7936050" lon="-1.1098610">
        <ele>685.200012</ele>
        <time>2018-06-15T11:58:12.000Z</time>
      </trkpt>
      <trkpt lat="42.7938210" lon="-1.1100160">
        <ele>680.299988</ele>
        <time>2018-06-15T11:58:19.000Z</time>
      </trkpt>
      <trkpt lat="42.7944400" lon="-1.1103110">
        <ele>675.999939</ele>
        <time>2018-06-15T11:58:36.000Z</time>
      </trkpt>
      <trkpt lat="42.7948970" lon="-1.1106440">
        <ele>676.799988</ele>
        <time>2018-06-15T11:58:50.000Z</time>
      </trkpt>
      <trkpt lat="42.7954650" lon="-1.1111750">
        <ele>682.500061</ele>
        <time>2018-06-15T11:59:08.000Z</time>
      </trkpt>
      <trkpt lat="42.7955200" lon="-1.1112930">
        <ele>683.100037</ele>
        <time>2018-06-15T11:59:11.000Z</time>
      </trkpt>
      <trkpt lat="42.7957920" lon="-1.1120660">
        <ele>692.000061</ele>
        <time>2018-06-15T11:59:28.000Z</time>
      </trkpt>
      <trkpt lat="42.7960320" lon="-1.1124680">
        <ele>694.099976</ele>
        <time>2018-06-15T11:59:38.000Z</time>
      </trkpt>
      <trkpt lat="42.7962530" lon="-1.1128270">
        <ele>695.099976</ele>
        <time>2018-06-15T11:59:47.000Z</time>
      </trkpt>
      <trkpt lat="42.7966030" lon="-1.1133100">
        <ele>700.099976</ele>
        <time>2018-06-15T12:00:00.000Z</time>
      </trkpt>
      <trkpt lat="42.7967540" lon="-1.1134440">
        <ele>699.799988</ele>
        <time>2018-06-15T12:00:05.000Z</time>
      </trkpt>
      <trkpt lat="42.7970850" lon="-1.1136800">
        <ele>704.500061</ele>
        <time>2018-06-15T12:00:15.000Z</time>
      </trkpt>
      <trkpt lat="42.7972450" lon="-1.1137550">
        <ele>705.500000</ele>
        <time>2018-06-15T12:00:20.000Z</time>
      </trkpt>
      <trkpt lat="42.7973550" lon="-1.1138570">
        <ele>706.200012</ele>
        <time>2018-06-15T12:00:23.000Z</time>
      </trkpt>
      <trkpt lat="42.7974160" lon="-1.1139590">
        <ele>707.700012</ele>
        <time>2018-06-15T12:00:26.000Z</time>
      </trkpt>
      <trkpt lat="42.7975080" lon="-1.1141850">
        <ele>706.200012</ele>
        <time>2018-06-15T12:00:31.000Z</time>
      </trkpt>
      <trkpt lat="42.7975280" lon="-1.1145920">
        <ele>704.799988</ele>
        <time>2018-06-15T12:00:39.000Z</time>
      </trkpt>
      <trkpt lat="42.7975570" lon="-1.1147100">
        <ele>704.200012</ele>
        <time>2018-06-15T12:00:41.000Z</time>
      </trkpt>
      <trkpt lat="42.7982250" lon="-1.1158050">
        <ele>691.299988</ele>
        <time>2018-06-15T12:01:09.000Z</time>
      </trkpt>
      <trkpt lat="42.7990280" lon="-1.1169850">
        <ele>694.799988</ele>
        <time>2018-06-15T12:01:40.000Z</time>
      </trkpt>
      <trkpt lat="42.7991950" lon="-1.1173490">
        <ele>695.600037</ele>
        <time>2018-06-15T12:01:49.000Z</time>
      </trkpt>
      <trkpt lat="42.7994810" lon="-1.1180310">
        <ele>697.200012</ele>
        <time>2018-06-15T12:02:04.000Z</time>
      </trkpt>
      <trkpt lat="42.7998350" lon="-1.1190610">
        <ele>700.200012</ele>
        <time>2018-06-15T12:02:26.000Z</time>
      </trkpt>
      <trkpt lat="42.8001140" lon="-1.1198120">
        <ele>702.199951</ele>
        <time>2018-06-15T12:02:43.000Z</time>
      </trkpt>
      <trkpt lat="42.8003070" lon="-1.1202460">
        <ele>704.200012</ele>
        <time>2018-06-15T12:02:52.000Z</time>
      </trkpt>
      <trkpt lat="42.8006460" lon="-1.1206970">
        <ele>704.299988</ele>
        <time>2018-06-15T12:03:05.000Z</time>
      </trkpt>
      <trkpt lat="42.8010950" lon="-1.1211320">
        <ele>708.899963</ele>
        <time>2018-06-15T12:03:20.000Z</time>
      </trkpt>
      <trkpt lat="42.8019660" lon="-1.1217910">
        <ele>711.799988</ele>
        <time>2018-06-15T12:03:46.000Z</time>
      </trkpt>
      <trkpt lat="42.8024800" lon="-1.1220650">
        <ele>710.700012</ele>
        <time>2018-06-15T12:04:01.000Z</time>
      </trkpt>
      <trkpt lat="42.8028580" lon="-1.1222310">
        <ele>710.799988</ele>
        <time>2018-06-15T12:04:11.000Z</time>
      </trkpt>
      <trkpt lat="42.8031570" lon="-1.1223710">
        <ele>714.500000</ele>
        <time>2018-06-15T12:04:20.000Z</time>
      </trkpt>
      <trkpt lat="42.8032560" lon="-1.1224140">
        <ele>714.000000</ele>
        <time>2018-06-15T12:04:22.000Z</time>
      </trkpt>
      <trkpt lat="42.8033260" lon="-1.1224990">
        <ele>713.499939</ele>
        <time>2018-06-15T12:04:25.000Z</time>
      </trkpt>
      <trkpt lat="42.8033620" lon="-1.1226230">
        <ele>713.799988</ele>
        <time>2018-06-15T12:04:28.000Z</time>
      </trkpt>
      <trkpt lat="42.8034090" lon="-1.1230310">
        <ele>710.299988</ele>
        <time>2018-06-15T12:04:36.000Z</time>
      </trkpt>
      <trkpt lat="42.8035870" lon="-1.1237440">
        <ele>708.299988</ele>
        <time>2018-06-15T12:04:50.000Z</time>
      </trkpt>
      <trkpt lat="42.8038870" lon="-1.1246880">
        <ele>712.800049</ele>
        <time>2018-06-15T12:05:10.000Z</time>
      </trkpt>
      <trkpt lat="42.8041610" lon="-1.1257230">
        <ele>714.199951</ele>
        <time>2018-06-15T12:05:32.000Z</time>
      </trkpt>
      <trkpt lat="42.8042830" lon="-1.1260780">
        <ele>713.799988</ele>
        <time>2018-06-15T12:05:39.000Z</time>
      </trkpt>
      <trkpt lat="42.8043780" lon="-1.1262750">
        <ele>714.400024</ele>
        <time>2018-06-15T12:05:44.000Z</time>
      </trkpt>
      <trkpt lat="42.8044640" lon="-1.1264420">
        <ele>717.000000</ele>
        <time>2018-06-15T12:05:48.000Z</time>
      </trkpt>
      <trkpt lat="42.8046490" lon="-1.1266460">
        <ele>722.900024</ele>
        <time>2018-06-15T12:05:54.000Z</time>
      </trkpt>
      <trkpt lat="42.8047250" lon="-1.1267580">
        <ele>724.799988</ele>
        <time>2018-06-15T12:05:57.000Z</time>
      </trkpt>
      <trkpt lat="42.8049440" lon="-1.1272900">
        <ele>726.400024</ele>
        <time>2018-06-15T12:06:09.000Z</time>
      </trkpt>
      <trkpt lat="42.8049900" lon="-1.1275420">
        <ele>725.399963</ele>
        <time>2018-06-15T12:06:14.000Z</time>
      </trkpt>
      <trkpt lat="42.8050210" lon="-1.1280570">
        <ele>722.400024</ele>
        <time>2018-06-15T12:06:24.000Z</time>
      </trkpt>
      <trkpt lat="42.8053540" lon="-1.1285390">
        <ele>721.100037</ele>
        <time>2018-06-15T12:06:37.000Z</time>
      </trkpt>
      <trkpt lat="42.8054010" lon="-1.1286580">
        <ele>721.200012</ele>
        <time>2018-06-15T12:06:40.000Z</time>
      </trkpt>
      <trkpt lat="42.8054150" lon="-1.1287430">
        <ele>721.000000</ele>
        <time>2018-06-15T12:06:42.000Z</time>
      </trkpt>
      <trkpt lat="42.8057280" lon="-1.1300790">
        <ele>721.700012</ele>
        <time>2018-06-15T12:07:09.000Z</time>
      </trkpt>
      <trkpt lat="42.8059030" lon="-1.1305030">
        <ele>722.400024</ele>
        <time>2018-06-15T12:07:18.000Z</time>
      </trkpt>
      <trkpt lat="42.8060700" lon="-1.1306530">
        <ele>723.400024</ele>
        <time>2018-06-15T12:07:24.000Z</time>
      </trkpt>
      <trkpt lat="42.8063420" lon="-1.1308090">
        <ele>724.100037</ele>
        <time>2018-06-15T12:07:32.000Z</time>
      </trkpt>
      <trkpt lat="42.8064950" lon="-1.1309320">
        <ele>724.199951</ele>
        <time>2018-06-15T12:07:36.000Z</time>
      </trkpt>
      <trkpt lat="42.8065800" lon="-1.1310390">
        <ele>724.799988</ele>
        <time>2018-06-15T12:07:39.000Z</time>
      </trkpt>
      <trkpt lat="42.8067000" lon="-1.1312330">
        <ele>725.599976</ele>
        <time>2018-06-15T12:07:44.000Z</time>
      </trkpt>
      <trkpt lat="42.8068770" lon="-1.1317370">
        <ele>724.199951</ele>
        <time>2018-06-15T12:07:55.000Z</time>
      </trkpt>
      <trkpt lat="42.8069420" lon="-1.1318980">
        <ele>726.500000</ele>
        <time>2018-06-15T12:07:59.000Z</time>
      </trkpt>
      <trkpt lat="42.8072630" lon="-1.1320210">
        <ele>728.799988</ele>
        <time>2018-06-15T12:08:08.000Z</time>
      </trkpt>
      <trkpt lat="42.8073830" lon="-1.1320910">
        <ele>730.400024</ele>
        <time>2018-06-15T12:08:11.000Z</time>
      </trkpt>
      <trkpt lat="42.8082010" lon="-1.1331640">
        <ele>740.800049</ele>
        <time>2018-06-15T12:08:41.000Z</time>
      </trkpt>
      <trkpt lat="42.8082310" lon="-1.1332550">
        <ele>739.400024</ele>
        <time>2018-06-15T12:08:43.000Z</time>
      </trkpt>
      <trkpt lat="42.8082330" lon="-1.1333780">
        <ele>737.899963</ele>
        <time>2018-06-15T12:08:46.000Z</time>
      </trkpt>
      <trkpt lat="42.8081940" lon="-1.1335710">
        <ele>736.000000</ele>
        <time>2018-06-15T12:08:50.000Z</time>
      </trkpt>
      <trkpt lat="42.8080210" lon="-1.1340860">
        <ele>739.400024</ele>
        <time>2018-06-15T12:09:01.000Z</time>
      </trkpt>
      <trkpt lat="42.8080750" lon="-1.1347510">
        <ele>744.000000</ele>
        <time>2018-06-15T12:09:14.000Z</time>
      </trkpt>
      <trkpt lat="42.8081070" lon="-1.1354170">
        <ele>748.799988</ele>
        <time>2018-06-15T12:09:27.000Z</time>
      </trkpt>
      <trkpt lat="42.8082010" lon="-1.1361250">
        <ele>753.399963</ele>
        <time>2018-06-15T12:09:41.000Z</time>
      </trkpt>
      <trkpt lat="42.8082180" lon="-1.1368970">
        <ele>758.100037</ele>
        <time>2018-06-15T12:09:56.000Z</time>
      </trkpt>
      <trkpt lat="42.8082800" lon="-1.1374980">
        <ele>763.099976</ele>
        <time>2018-06-15T12:10:08.000Z</time>
      </trkpt>
      <trkpt lat="42.8082490" lon="-1.1382060">
        <ele>766.599976</ele>
        <time>2018-06-15T12:10:22.000Z</time>
      </trkpt>
      <trkpt lat="42.8084460" lon="-1.1392250">
        <ele>771.600037</ele>
        <time>2018-06-15T12:10:42.000Z</time>
      </trkpt>
      <trkpt lat="42.8085010" lon="-1.1392470">
        <ele>772.599976</ele>
        <time>2018-06-15T12:10:44.000Z</time>
      </trkpt>
      <trkpt lat="42.8085560" lon="-1.1392040">
        <ele>774.500000</ele>
        <time>2018-06-15T12:10:45.000Z</time>
      </trkpt>
      <trkpt lat="42.8085560" lon="-1.1387640">
        <ele>774.700012</ele>
        <time>2018-06-15T12:10:54.000Z</time>
      </trkpt>
      <trkpt lat="42.8086110" lon="-1.1384210">
        <ele>777.100037</ele>
        <time>2018-06-15T12:11:01.000Z</time>
      </trkpt>
      <trkpt lat="42.8086430" lon="-1.1380880">
        <ele>779.200012</ele>
        <time>2018-06-15T12:11:07.000Z</time>
      </trkpt>
      <trkpt lat="42.8088320" lon="-1.1375410">
        <ele>791.499939</ele>
        <time>2018-06-15T12:11:19.000Z</time>
      </trkpt>
      <trkpt lat="42.8089730" lon="-1.1367470">
        <ele>798.099976</ele>
        <time>2018-06-15T12:11:35.000Z</time>
      </trkpt>
      <trkpt lat="42.8090280" lon="-1.1366290">
        <ele>801.400024</ele>
        <time>2018-06-15T12:11:38.000Z</time>
      </trkpt>
      <trkpt lat="42.8090890" lon="-1.1366290">
        <ele>802.399963</ele>
        <time>2018-06-15T12:11:40.000Z</time>
      </trkpt>
      <trkpt lat="42.8091300" lon="-1.1366830">
        <ele>803.399963</ele>
        <time>2018-06-15T12:11:41.000Z</time>
      </trkpt>
      <trkpt lat="42.8092410" lon="-1.1369940">
        <ele>809.399963</ele>
        <time>2018-06-15T12:11:48.000Z</time>
      </trkpt>
      <trkpt lat="42.8094530" lon="-1.1374340">
        <ele>817.099976</ele>
        <time>2018-06-15T12:11:59.000Z</time>
      </trkpt>
      <trkpt lat="42.8099260" lon="-1.1386140">
        <ele>833.700012</ele>
        <time>2018-06-15T12:12:25.000Z</time>
      </trkpt>
      <trkpt lat="42.8103270" lon="-1.1393860">
        <ele>841.799988</ele>
        <time>2018-06-15T12:12:44.000Z</time>
      </trkpt>
      <trkpt lat="42.8105160" lon="-1.1399870">
        <ele>841.299988</ele>
        <time>2018-06-15T12:12:56.000Z</time>
      </trkpt>
      <trkpt lat="42.8105810" lon="-1.1401160">
        <ele>841.099976</ele>
        <time>2018-06-15T12:12:59.000Z</time>
      </trkpt>
      <trkpt lat="42.8107260" lon="-1.1403150">
        <ele>844.000000</ele>
        <time>2018-06-15T12:13:05.000Z</time>
      </trkpt>
      <trkpt lat="42.8108230" lon="-1.1403840">
        <ele>847.599976</ele>
        <time>2018-06-15T12:13:08.000Z</time>
      </trkpt>
      <trkpt lat="42.8111610" lon="-1.1403840">
        <ele>854.799988</ele>
        <time>2018-06-15T12:13:17.000Z</time>
      </trkpt>
      <trkpt lat="42.8114210" lon="-1.1404810">
        <ele>861.199951</ele>
        <time>2018-06-15T12:13:24.000Z</time>
      </trkpt>
      <trkpt lat="42.8116020" lon="-1.1406090">
        <ele>866.900024</ele>
        <time>2018-06-15T12:13:30.000Z</time>
      </trkpt>
      <trkpt lat="42.8117070" lon="-1.1407650">
        <ele>870.400024</ele>
        <time>2018-06-15T12:13:34.000Z</time>
      </trkpt>
      <trkpt lat="42.8120130" lon="-1.1414520">
        <ele>882.200012</ele>
        <time>2018-06-15T12:13:50.000Z</time>
      </trkpt>
      <trkpt lat="42.8125230" lon="-1.1424550">
        <ele>896.100037</ele>
        <time>2018-06-15T12:14:14.000Z</time>
      </trkpt>
      <trkpt lat="42.8127670" lon="-1.1432700">
        <ele>902.799988</ele>
        <time>2018-06-15T12:14:31.000Z</time>
      </trkpt>
      <trkpt lat="42.8129010" lon="-1.1436240">
        <ele>907.599976</ele>
        <time>2018-06-15T12:14:39.000Z</time>
      </trkpt>
      <trkpt lat="42.8131060" lon="-1.1439030">
        <ele>912.500000</ele>
        <time>2018-06-15T12:14:47.000Z</time>
      </trkpt>
      <trkpt lat="42.8135150" lon="-1.1441820">
        <ele>913.200012</ele>
        <time>2018-06-15T12:14:59.000Z</time>
      </trkpt>
      <trkpt lat="42.8140740" lon="-1.1446110">
        <ele>918.100037</ele>
        <time>2018-06-15T12:15:16.000Z</time>
      </trkpt>
      <trkpt lat="42.8146090" lon="-1.1451580">
        <ele>922.500000</ele>
        <time>2018-06-15T12:15:34.000Z</time>
      </trkpt>
      <trkpt lat="42.8149320" lon="-1.1455770">
        <ele>937.800049</ele>
        <time>2018-06-15T12:15:46.000Z</time>
      </trkpt>
      <trkpt lat="42.8154430" lon="-1.1461780">
        <ele>950.000000</ele>
        <time>2018-06-15T12:16:04.000Z</time>
      </trkpt>
      <trkpt lat="42.8157190" lon="-1.1463920">
        <ele>952.000000</ele>
        <time>2018-06-15T12:16:13.000Z</time>
      </trkpt>
      <trkpt lat="42.8162620" lon="-1.1465850">
        <ele>954.400024</ele>
        <time>2018-06-15T12:16:28.000Z</time>
      </trkpt>
      <trkpt lat="42.8165290" lon="-1.1467680">
        <ele>953.799988</ele>
        <time>2018-06-15T12:16:36.000Z</time>
      </trkpt>
      <trkpt lat="42.8166940" lon="-1.1469930">
        <ele>956.000000</ele>
        <time>2018-06-15T12:16:42.000Z</time>
      </trkpt>
      <trkpt lat="42.8170570" lon="-1.1472510">
        <ele>968.200012</ele>
        <time>2018-06-15T12:16:53.000Z</time>
      </trkpt>
      <trkpt lat="42.8174130" lon="-1.1474060">
        <ele>970.400024</ele>
        <time>2018-06-15T12:17:03.000Z</time>
      </trkpt>
      <trkpt lat="42.8176310" lon="-1.1475830">
        <ele>977.899963</ele>
        <time>2018-06-15T12:17:10.000Z</time>
      </trkpt>
      <trkpt lat="42.8178110" lon="-1.1477660">
        <ele>984.200012</ele>
        <time>2018-06-15T12:17:16.000Z</time>
      </trkpt>
      <trkpt lat="42.8179540" lon="-1.1479590">
        <ele>985.799988</ele>
        <time>2018-06-15T12:17:21.000Z</time>
      </trkpt>
      <trkpt lat="42.8180470" lon="-1.1482270">
        <ele>984.900024</ele>
        <time>2018-06-15T12:17:27.000Z</time>
      </trkpt>
      <trkpt lat="42.8182060" lon="-1.1489240">
        <ele>993.299988</ele>
        <time>2018-06-15T12:17:41.000Z</time>
      </trkpt>
      <trkpt lat="42.8185360" lon="-1.1496750">
        <ele>1006.000000</ele>
        <time>2018-06-15T12:17:59.000Z</time>
      </trkpt>
      <trkpt lat="42.8185990" lon="-1.1499110">
        <ele>1009.500000</ele>
        <time>2018-06-15T12:18:04.000Z</time>
      </trkpt>
      <trkpt lat="42.8185910" lon="-1.1507590">
        <ele>1017.600037</ele>
        <time>2018-06-15T12:18:20.000Z</time>
      </trkpt>
      <trkpt lat="42.8187570" lon="-1.1512520">
        <ele>1020.799988</ele>
        <time>2018-06-15T12:18:31.000Z</time>
      </trkpt>
      <trkpt lat="42.8188120" lon="-1.1517350">
        <ele>1026.000000</ele>
        <time>2018-06-15T12:18:40.000Z</time>
      </trkpt>
      <trkpt lat="42.8188350" lon="-1.1523040">
        <ele>1038.699951</ele>
        <time>2018-06-15T12:18:52.000Z</time>
      </trkpt>
      <trkpt lat="42.8188900" lon="-1.1525940">
        <ele>1048.000000</ele>
        <time>2018-06-15T12:18:58.000Z</time>
      </trkpt>
      <trkpt lat="42.8189690" lon="-1.1528190">
        <ele>1053.500000</ele>
        <time>2018-06-15T12:19:03.000Z</time>
      </trkpt>
      <trkpt lat="42.8192050" lon="-1.1532370">
        <ele>1055.799927</ele>
        <time>2018-06-15T12:19:14.000Z</time>
      </trkpt>
      <trkpt lat="42.8193240" lon="-1.1533980">
        <ele>1051.900024</ele>
        <time>2018-06-15T12:19:18.000Z</time>
      </trkpt>
      <trkpt lat="42.8194650" lon="-1.1535700">
        <ele>1052.000000</ele>
        <time>2018-06-15T12:19:23.000Z</time>
      </trkpt>
      <trkpt lat="42.8196690" lon="-1.1536770">
        <ele>1051.699951</ele>
        <time>2018-06-15T12:19:29.000Z</time>
      </trkpt>
      <trkpt lat="42.8197170" lon="-1.1537520">
        <ele>1053.500000</ele>
        <time>2018-06-15T12:19:31.000Z</time>
      </trkpt>
      <trkpt lat="42.8197050" lon="-1.1538280">
        <ele>1055.299927</ele>
        <time>2018-06-15T12:19:32.000Z</time>
      </trkpt>
      <trkpt lat="42.8196690" lon="-1.1538920">
        <ele>1056.300049</ele>
        <time>2018-06-15T12:19:34.000Z</time>
      </trkpt>
      <trkpt lat="42.8195120" lon="-1.1539450">
        <ele>1056.699951</ele>
        <time>2018-06-15T12:19:38.000Z</time>
      </trkpt>
      <trkpt lat="42.8193000" lon="-1.1539780">
        <ele>1060.900024</ele>
        <time>2018-06-15T12:19:44.000Z</time>
      </trkpt>
      <trkpt lat="42.8191890" lon="-1.1539240">
        <ele>1069.199951</ele>
        <time>2018-06-15T12:19:48.000Z</time>
      </trkpt>
      <trkpt lat="42.8191580" lon="-1.1540100">
        <ele>1072.500000</ele>
        <time>2018-06-15T12:19:50.000Z</time>
      </trkpt>
      <trkpt lat="42.8192130" lon="-1.1541490">
        <ele>1069.599976</ele>
        <time>2018-06-15T12:19:53.000Z</time>
      </trkpt>
      <trkpt lat="42.8193940" lon="-1.1546210">
        <ele>1068.900024</ele>
        <time>2018-06-15T12:20:03.000Z</time>
      </trkpt>
      <trkpt lat="42.8194260" lon="-1.1546910">
        <ele>1069.599976</ele>
        <time>2018-06-15T12:20:05.000Z</time>
      </trkpt>
      <trkpt lat="42.8194810" lon="-1.1547390">
        <ele>1069.199951</ele>
        <time>2018-06-15T12:20:07.000Z</time>
      </trkpt>
      <trkpt lat="42.8195760" lon="-1.1547400">
        <ele>1067.000000</ele>
        <time>2018-06-15T12:20:09.000Z</time>
      </trkpt>
      <trkpt lat="42.8199760" lon="-1.1546000">
        <ele>1078.400024</ele>
        <time>2018-06-15T12:20:20.000Z</time>
      </trkpt>
      <trkpt lat="42.8201310" lon="-1.1544920">
        <ele>1085.000000</ele>
        <time>2018-06-15T12:20:25.000Z</time>
      </trkpt>
      <trkpt lat="42.8202200" lon="-1.1543960">
        <ele>1087.699951</ele>
        <time>2018-06-15T12:20:28.000Z</time>
      </trkpt>
      <trkpt lat="42.8204410" lon="-1.1540530">
        <ele>1090.699951</ele>
        <time>2018-06-15T12:20:37.000Z</time>
      </trkpt>
      <trkpt lat="42.8205280" lon="-1.1539400">
        <ele>1088.900024</ele>
        <time>2018-06-15T12:20:41.000Z</time>
      </trkpt>
      <trkpt lat="42.8206060" lon="-1.1538920">
        <ele>1089.000000</ele>
        <time>2018-06-15T12:20:43.000Z</time>
      </trkpt>
      <trkpt lat="42.8207960" lon="-1.1539510">
        <ele>1093.299927</ele>
        <time>2018-06-15T12:20:48.000Z</time>
      </trkpt>
      <trkpt lat="42.8211650" lon="-1.1541060">
        <ele>1097.599976</ele>
        <time>2018-06-15T12:20:58.000Z</time>
      </trkpt>
      <trkpt lat="42.8213300" lon="-1.1541490">
        <ele>1098.599976</ele>
        <time>2018-06-15T12:21:03.000Z</time>
      </trkpt>
      <trkpt lat="42.8217680" lon="-1.1541490">
        <ele>1098.900024</ele>
        <time>2018-06-15T12:21:14.000Z</time>
      </trkpt>
      <trkpt lat="42.8219520" lon="-1.1541920">
        <ele>1099.500000</ele>
        <time>2018-06-15T12:21:19.000Z</time>
      </trkpt>
      <trkpt lat="42.8221070" lon="-1.1543640">
        <ele>1100.599976</ele>
        <time>2018-06-15T12:21:25.000Z</time>
      </trkpt>
      <trkpt lat="42.8223700" lon="-1.1548090">
        <ele>1105.299927</ele>
        <time>2018-06-15T12:21:36.000Z</time>
      </trkpt>
      <trkpt lat="42.8224790" lon="-1.1549430">
        <ele>1106.099976</ele>
        <time>2018-06-15T12:21:40.000Z</time>
      </trkpt>
      <trkpt lat="42.8226100" lon="-1.1550990">
        <ele>1107.599976</ele>
        <time>2018-06-15T12:21:44.000Z</time>
      </trkpt>
      <trkpt lat="42.8226760" lon="-1.1552330">
        <ele>1109.099976</ele>
        <time>2018-06-15T12:21:48.000Z</time>
      </trkpt>
      <trkpt lat="42.8228650" lon="-1.1556400">
        <ele>1113.099976</ele>
        <time>2018-06-15T12:21:57.000Z</time>
      </trkpt>
      <trkpt lat="42.8229610" lon="-1.1557000">
        <ele>1114.900024</ele>
        <time>2018-06-15T12:22:00.000Z</time>
      </trkpt>
      <trkpt lat="42.8230140" lon="-1.1556830">
        <ele>1115.699951</ele>
        <time>2018-06-15T12:22:01.000Z</time>
      </trkpt>
      <trkpt lat="42.8231400" lon="-1.1554690">
        <ele>1118.900024</ele>
        <time>2018-06-15T12:22:07.000Z</time>
      </trkpt>
      <trkpt lat="42.8234080" lon="-1.1548680">
        <ele>1127.000000</ele>
        <time>2018-06-15T12:22:20.000Z</time>
      </trkpt>
      <trkpt lat="42.8234960" lon="-1.1547500">
        <ele>1128.000000</ele>
        <time>2018-06-15T12:22:24.000Z</time>
      </trkpt>
      <trkpt lat="42.8235650" lon="-1.1546860">
        <ele>1126.799927</ele>
        <time>2018-06-15T12:22:26.000Z</time>
      </trkpt>
      <trkpt lat="42.8236410" lon="-1.1546480">
        <ele>1125.099976</ele>
        <time>2018-06-15T12:22:28.000Z</time>
      </trkpt>
      <trkpt lat="42.8237540" lon="-1.1546320">
        <ele>1122.300049</ele>
        <time>2018-06-15T12:22:31.000Z</time>
      </trkpt>
      <trkpt lat="42.8239350" lon="-1.1546860">
        <ele>1114.799927</ele>
        <time>2018-06-15T12:22:36.000Z</time>
      </trkpt>
      <trkpt lat="42.8240920" lon="-1.1548790">
        <ele>1111.900024</ele>
        <time>2018-06-15T12:22:42.000Z</time>
      </trkpt>
      <trkpt lat="42.8243440" lon="-1.1552970">
        <ele>1112.200073</ele>
        <time>2018-06-15T12:22:53.000Z</time>
      </trkpt>
      <trkpt lat="42.8245490" lon="-1.1559620">
        <ele>1113.099976</ele>
        <time>2018-06-15T12:23:07.000Z</time>
      </trkpt>
      <trkpt lat="42.8246750" lon="-1.1572280">
        <ele>1119.900024</ele>
        <time>2018-06-15T12:23:32.000Z</time>
      </trkpt>
      <trkpt lat="42.8247610" lon="-1.1574320">
        <ele>1118.599976</ele>
        <time>2018-06-15T12:23:36.000Z</time>
      </trkpt>
      <trkpt lat="42.8252180" lon="-1.1578610">
        <ele>1117.299927</ele>
        <time>2018-06-15T12:23:51.000Z</time>
      </trkpt>
      <trkpt lat="42.8260910" lon="-1.1591600">
        <ele>1130.299927</ele>
        <time>2018-06-15T12:24:25.000Z</time>
      </trkpt>
      <trkpt lat="42.8266730" lon="-1.1601680">
        <ele>1136.900024</ele>
        <time>2018-06-15T12:24:50.000Z</time>
      </trkpt>
      <trkpt lat="42.8267070" lon="-1.1603510">
        <ele>1139.199951</ele>
        <time>2018-06-15T12:24:54.000Z</time>
      </trkpt>
      <trkpt lat="42.8267150" lon="-1.1608280">
        <ele>1143.599976</ele>
        <time>2018-06-15T12:25:03.000Z</time>
      </trkpt>
      <trkpt lat="42.8267280" lon="-1.1609830">
        <ele>1144.800049</ele>
        <time>2018-06-15T12:25:06.000Z</time>
      </trkpt>
      <trkpt lat="42.8267780" lon="-1.1610750">
        <ele>1144.599976</ele>
        <time>2018-06-15T12:25:09.000Z</time>
      </trkpt>
      <trkpt lat="42.8268470" lon="-1.1611340">
        <ele>1144.699951</ele>
        <time>2018-06-15T12:25:11.000Z</time>
      </trkpt>
      <trkpt lat="42.8270350" lon="-1.1612300">
        <ele>1145.799927</ele>
        <time>2018-06-15T12:25:16.000Z</time>
      </trkpt>
      <trkpt lat="42.8274290" lon="-1.1613370">
        <ele>1145.500000</ele>
        <time>2018-06-15T12:25:27.000Z</time>
      </trkpt>
      <trkpt lat="42.8277590" lon="-1.1613160">
        <ele>1146.200073</ele>
        <time>2018-06-15T12:25:36.000Z</time>
      </trkpt>
      <trkpt lat="42.8282790" lon="-1.1610800">
        <ele>1159.099976</ele>
        <time>2018-06-15T12:25:50.000Z</time>
      </trkpt>
      <trkpt lat="42.8284300" lon="-1.1610640">
        <ele>1163.699951</ele>
        <time>2018-06-15T12:25:55.000Z</time>
      </trkpt>
      <trkpt lat="42.8285930" lon="-1.1610800">
        <ele>1166.900024</ele>
        <time>2018-06-15T12:25:59.000Z</time>
      </trkpt>
      <trkpt lat="42.8287820" lon="-1.1612190">
        <ele>1167.799927</ele>
        <time>2018-06-15T12:26:05.000Z</time>
      </trkpt>
      <trkpt lat="42.8288830" lon="-1.1613110">
        <ele>1169.400024</ele>
        <time>2018-06-15T12:26:08.000Z</time>
      </trkpt>
      <trkpt lat="42.8291110" lon="-1.1614610">
        <ele>1174.400024</ele>
        <time>2018-06-15T12:26:15.000Z</time>
      </trkpt>
      <trkpt lat="42.8292600" lon="-1.1616220">
        <ele>1177.800049</ele>
        <time>2018-06-15T12:26:20.000Z</time>
      </trkpt>
      <trkpt lat="42.8296560" lon="-1.1620030">
        <ele>1181.500000</ele>
        <time>2018-06-15T12:26:33.000Z</time>
      </trkpt>
      <trkpt lat="42.8301340" lon="-1.1621690">
        <ele>1188.599976</ele>
        <time>2018-06-15T12:26:46.000Z</time>
      </trkpt>
      <trkpt lat="42.8305550" lon="-1.1623840">
        <ele>1199.299927</ele>
        <time>2018-06-15T12:26:58.000Z</time>
      </trkpt>
      <trkpt lat="42.8306920" lon="-1.1624800">
        <ele>1207.000000</ele>
        <time>2018-06-15T12:27:03.000Z</time>
      </trkpt>
      <trkpt lat="42.8307490" lon="-1.1625610">
        <ele>1210.500000</ele>
        <time>2018-06-15T12:27:05.000Z</time>
      </trkpt>
      <trkpt lat="42.8308990" lon="-1.1628930">
        <ele>1216.599976</ele>
        <time>2018-06-15T12:27:13.000Z</time>
      </trkpt>
      <trkpt lat="42.8309480" lon="-1.1629470">
        <ele>1217.900024</ele>
        <time>2018-06-15T12:27:14.000Z</time>
      </trkpt>
      <trkpt lat="42.8310010" lon="-1.1629470">
        <ele>1218.599976</ele>
        <time>2018-06-15T12:27:16.000Z</time>
      </trkpt>
      <trkpt lat="42.8310430" lon="-1.1628880">
        <ele>1218.500000</ele>
        <time>2018-06-15T12:27:17.000Z</time>
      </trkpt>
      <trkpt lat="42.8310940" lon="-1.1627970">
        <ele>1218.699951</ele>
        <time>2018-06-15T12:27:20.000Z</time>
      </trkpt>
      <trkpt lat="42.8315520" lon="-1.1612620">
        <ele>1221.299927</ele>
        <time>2018-06-15T12:27:52.000Z</time>
      </trkpt>
      <trkpt lat="42.8320870" lon="-1.1604680">
        <ele>1210.400024</ele>
        <time>2018-06-15T12:28:13.000Z</time>
      </trkpt>
      <trkpt lat="42.8323860" lon="-1.1601680">
        <ele>1199.099976</ele>
        <time>2018-06-15T12:28:23.000Z</time>
      </trkpt>
      <trkpt lat="42.8324830" lon="-1.1601520">
        <ele>1196.800049</ele>
        <time>2018-06-15T12:28:26.000Z</time>
      </trkpt>
      <trkpt lat="42.8325750" lon="-1.1601680">
        <ele>1194.199951</ele>
        <time>2018-06-15T12:28:28.000Z</time>
      </trkpt>
      <trkpt lat="42.8326790" lon="-1.1601790">
        <ele>1191.800049</ele>
        <time>2018-06-15T12:28:31.000Z</time>
      </trkpt>
      <trkpt lat="42.8327790" lon="-1.1602540">
        <ele>1189.400024</ele>
        <time>2018-06-15T12:28:34.000Z</time>
      </trkpt>
      <trkpt lat="42.8328500" lon="-1.1606190">
        <ele>1182.699951</ele>
        <time>2018-06-15T12:28:42.000Z</time>
      </trkpt>
      <trkpt lat="42.8329780" lon="-1.1609730">
        <ele>1171.000000</ele>
        <time>2018-06-15T12:28:50.000Z</time>
      </trkpt>
      <trkpt lat="42.8331020" lon="-1.1612090">
        <ele>1167.000000</ele>
        <time>2018-06-15T12:28:56.000Z</time>
      </trkpt>
      <trkpt lat="42.8334010" lon="-1.1615200">
        <ele>1170.500000</ele>
        <time>2018-06-15T12:29:06.000Z</time>
      </trkpt>
      <trkpt lat="42.8334030" lon="-1.1616920">
        <ele>1167.700073</ele>
        <time>2018-06-15T12:29:09.000Z</time>
      </trkpt>
      <trkpt lat="42.8333220" lon="-1.1619170">
        <ele>1158.799927</ele>
        <time>2018-06-15T12:29:14.000Z</time>
      </trkpt>
      <trkpt lat="42.8332890" lon="-1.1620460">
        <ele>1152.299927</ele>
        <time>2018-06-15T12:29:17.000Z</time>
      </trkpt>
      <trkpt lat="42.8332850" lon="-1.1621480">
        <ele>1149.299927</ele>
        <time>2018-06-15T12:29:20.000Z</time>
      </trkpt>
      <trkpt lat="42.8332990" lon="-1.1623140">
        <ele>1146.500000</ele>
        <time>2018-06-15T12:29:23.000Z</time>
      </trkpt>
      <trkpt lat="42.8334010" lon="-1.1625390">
        <ele>1149.000000</ele>
        <time>2018-06-15T12:29:28.000Z</time>
      </trkpt>
      <trkpt lat="42.8333690" lon="-1.1626360">
        <ele>1148.300049</ele>
        <time>2018-06-15T12:29:30.000Z</time>
      </trkpt>
      <trkpt lat="42.8332990" lon="-1.1626570">
        <ele>1147.699951</ele>
        <time>2018-06-15T12:29:32.000Z</time>
      </trkpt>
      <trkpt lat="42.8331330" lon="-1.1624750">
        <ele>1144.099976</ele>
        <time>2018-06-15T12:29:38.000Z</time>
      </trkpt>
      <trkpt lat="42.8330310" lon="-1.1622490">
        <ele>1145.699951</ele>
        <time>2018-06-15T12:29:43.000Z</time>
      </trkpt>
      <trkpt lat="42.8329600" lon="-1.1620240">
        <ele>1148.400024</ele>
        <time>2018-06-15T12:29:48.000Z</time>
      </trkpt>
      <trkpt lat="42.8328880" lon="-1.1619980">
        <ele>1150.500000</ele>
        <time>2018-06-15T12:29:50.000Z</time>
      </trkpt>
      <trkpt lat="42.8328190" lon="-1.1620130">
        <ele>1154.300049</ele>
        <time>2018-06-15T12:29:52.000Z</time>
      </trkpt>
      <trkpt lat="42.8327700" lon="-1.1621210">
        <ele>1156.400024</ele>
        <time>2018-06-15T12:29:54.000Z</time>
      </trkpt>
      <trkpt lat="42.8327480" lon="-1.1622490">
        <ele>1157.400024</ele>
        <time>2018-06-15T12:29:57.000Z</time>
      </trkpt>
      <trkpt lat="42.8328740" lon="-1.1628180">
        <ele>1146.200073</ele>
        <time>2018-06-15T12:30:09.000Z</time>
      </trkpt>
      <trkpt lat="42.8328970" lon="-1.1633330">
        <ele>1147.300049</ele>
        <time>2018-06-15T12:30:19.000Z</time>
      </trkpt>
      <trkpt lat="42.8330090" lon="-1.1644800">
        <ele>1129.799927</ele>
        <time>2018-06-15T12:30:42.000Z</time>
      </trkpt>
      <trkpt lat="42.8331710" lon="-1.1653670">
        <ele>1108.799927</ele>
        <time>2018-06-15T12:31:00.000Z</time>
      </trkpt>
      <trkpt lat="42.8332380" lon="-1.1656620">
        <ele>1105.500000</ele>
        <time>2018-06-15T12:31:06.000Z</time>
      </trkpt>
      <trkpt lat="42.8332700" lon="-1.1658440">
        <ele>1104.500000</ele>
        <time>2018-06-15T12:31:10.000Z</time>
      </trkpt>
      <trkpt lat="42.8332380" lon="-1.1662620">
        <ele>1102.299927</ele>
        <time>2018-06-15T12:31:18.000Z</time>
      </trkpt>
      <trkpt lat="42.8331790" lon="-1.1665730">
        <ele>1101.500000</ele>
        <time>2018-06-15T12:31:24.000Z</time>
      </trkpt>
      <trkpt lat="42.8331600" lon="-1.1667230">
        <ele>1101.599976</ele>
        <time>2018-06-15T12:31:27.000Z</time>
      </trkpt>
      <trkpt lat="42.8332540" lon="-1.1671740">
        <ele>1096.800049</ele>
        <time>2018-06-15T12:31:36.000Z</time>
      </trkpt>
      <trkpt lat="42.8332740" lon="-1.1684190">
        <ele>1087.800049</ele>
        <time>2018-06-15T12:32:01.000Z</time>
      </trkpt>
      <trkpt lat="42.8332110" lon="-1.1690090">
        <ele>1079.400024</ele>
        <time>2018-06-15T12:32:13.000Z</time>
      </trkpt>
      <trkpt lat="42.8332420" lon="-1.1694010">
        <ele>1077.700073</ele>
        <time>2018-06-15T12:32:20.000Z</time>
      </trkpt>
      <trkpt lat="42.8332230" lon="-1.1696630">
        <ele>1074.299927</ele>
        <time>2018-06-15T12:32:25.000Z</time>
      </trkpt>
      <trkpt lat="42.8330180" lon="-1.1705640">
        <ele>1071.800049</ele>
        <time>2018-06-15T12:32:44.000Z</time>
      </trkpt>
      <trkpt lat="42.8331440" lon="-1.1714230">
        <ele>1060.099976</ele>
        <time>2018-06-15T12:33:01.000Z</time>
      </trkpt>
      <trkpt lat="42.8330970" lon="-1.1716540">
        <ele>1059.400024</ele>
        <time>2018-06-15T12:33:06.000Z</time>
      </trkpt>
      <trkpt lat="42.8329230" lon="-1.1721090">
        <ele>1055.400024</ele>
        <time>2018-06-15T12:33:16.000Z</time>
      </trkpt>
      <trkpt lat="42.8328300" lon="-1.1724850">
        <ele>1051.900024</ele>
        <time>2018-06-15T12:33:23.000Z</time>
      </trkpt>
      <trkpt lat="42.8328130" lon="-1.1728390">
        <ele>1045.599976</ele>
        <time>2018-06-15T12:33:31.000Z</time>
      </trkpt>
      <trkpt lat="42.8328610" lon="-1.1732040">
        <ele>1035.900024</ele>
        <time>2018-06-15T12:33:38.000Z</time>
      </trkpt>
      <trkpt lat="42.8330180" lon="-1.1739760">
        <ele>1024.200073</ele>
        <time>2018-06-15T12:33:54.000Z</time>
      </trkpt>
      <trkpt lat="42.8330340" lon="-1.1742340">
        <ele>1020.500000</ele>
        <time>2018-06-15T12:33:59.000Z</time>
      </trkpt>
      <trkpt lat="42.8330110" lon="-1.1748130">
        <ele>1013.700012</ele>
        <time>2018-06-15T12:34:10.000Z</time>
      </trkpt>
      <trkpt lat="42.8330890" lon="-1.1750060">
        <ele>1014.600037</ele>
        <time>2018-06-15T12:34:15.000Z</time>
      </trkpt>
      <trkpt lat="42.8330810" lon="-1.1750920">
        <ele>1015.100037</ele>
        <time>2018-06-15T12:34:16.000Z</time>
      </trkpt>
      <trkpt lat="42.8330580" lon="-1.1751560">
        <ele>1015.100037</ele>
        <time>2018-06-15T12:34:18.000Z</time>
      </trkpt>
      <trkpt lat="42.8329950" lon="-1.1752100">
        <ele>1014.600037</ele>
        <time>2018-06-15T12:34:20.000Z</time>
      </trkpt>
      <trkpt lat="42.8327350" lon="-1.1751030">
        <ele>1012.399963</ele>
        <time>2018-06-15T12:34:27.000Z</time>
      </trkpt>
      <trkpt lat="42.8324520" lon="-1.1752310">
        <ele>1013.299988</ele>
        <time>2018-06-15T12:34:35.000Z</time>
      </trkpt>
      <trkpt lat="42.8321690" lon="-1.1753920">
        <ele>1010.299988</ele>
        <time>2018-06-15T12:34:43.000Z</time>
      </trkpt>
      <trkpt lat="42.8319250" lon="-1.1755210">
        <ele>1008.000000</ele>
        <time>2018-06-15T12:34:50.000Z</time>
      </trkpt>
      <trkpt lat="42.8317200" lon="-1.1755850">
        <ele>1006.799988</ele>
        <time>2018-06-15T12:34:56.000Z</time>
      </trkpt>
      <trkpt lat="42.8314450" lon="-1.1755750">
        <ele>1006.300049</ele>
        <time>2018-06-15T12:35:03.000Z</time>
      </trkpt>
      <trkpt lat="42.8313980" lon="-1.1756390">
        <ele>1007.500000</ele>
        <time>2018-06-15T12:35:05.000Z</time>
      </trkpt>
      <trkpt lat="42.8313980" lon="-1.1757140">
        <ele>1009.200012</ele>
        <time>2018-06-15T12:35:06.000Z</time>
      </trkpt>
      <trkpt lat="42.8318220" lon="-1.1760470">
        <ele>1017.099976</ele>
        <time>2018-06-15T12:35:19.000Z</time>
      </trkpt>
      <trkpt lat="42.8321610" lon="-1.1759610">
        <ele>1020.099976</ele>
        <time>2018-06-15T12:35:29.000Z</time>
      </trkpt>
      <trkpt lat="42.8322590" lon="-1.1759930">
        <ele>1021.000000</ele>
        <time>2018-06-15T12:35:31.000Z</time>
      </trkpt>
      <trkpt lat="42.8323260" lon="-1.1760680">
        <ele>1022.400024</ele>
        <time>2018-06-15T12:35:34.000Z</time>
      </trkpt>
      <trkpt lat="42.8325860" lon="-1.1765190">
        <ele>1033.599976</ele>
        <time>2018-06-15T12:35:45.000Z</time>
      </trkpt>
      <trkpt lat="42.8328220" lon="-1.1766800">
        <ele>1030.199951</ele>
        <time>2018-06-15T12:35:52.000Z</time>
      </trkpt>
      <trkpt lat="42.8330030" lon="-1.1768080">
        <ele>1027.900024</ele>
        <time>2018-06-15T12:35:57.000Z</time>
      </trkpt>
      <trkpt lat="42.8330780" lon="-1.1769000">
        <ele>1029.699951</ele>
        <time>2018-06-15T12:36:00.000Z</time>
      </trkpt>
      <trkpt lat="42.8331290" lon="-1.1769260">
        <ele>1028.699951</ele>
        <time>2018-06-15T12:36:02.000Z</time>
      </trkpt>
      <trkpt lat="42.8332000" lon="-1.1768510">
        <ele>1024.200073</ele>
        <time>2018-06-15T12:36:04.000Z</time>
      </trkpt>
      <trkpt lat="42.8332470" lon="-1.1767440">
        <ele>1022.400024</ele>
        <time>2018-06-15T12:36:07.000Z</time>
      </trkpt>
      <trkpt lat="42.8332630" lon="-1.1765940">
        <ele>1020.400024</ele>
        <time>2018-06-15T12:36:10.000Z</time>
      </trkpt>
      <trkpt lat="42.8332390" lon="-1.1764650">
        <ele>1018.700012</ele>
        <time>2018-06-15T12:36:12.000Z</time>
      </trkpt>
      <trkpt lat="42.8331440" lon="-1.1761860">
        <ele>1018.100037</ele>
        <time>2018-06-15T12:36:18.000Z</time>
      </trkpt>
      <trkpt lat="42.8331520" lon="-1.1760360">
        <ele>1018.399963</ele>
        <time>2018-06-15T12:36:21.000Z</time>
      </trkpt>
      <trkpt lat="42.8331920" lon="-1.1759290">
        <ele>1018.200012</ele>
        <time>2018-06-15T12:36:24.000Z</time>
      </trkpt>
      <trkpt lat="42.8336170" lon="-1.1756180">
        <ele>1028.000000</ele>
        <time>2018-06-15T12:36:37.000Z</time>
      </trkpt>
      <trkpt lat="42.8336640" lon="-1.1756450">
        <ele>1029.800049</ele>
        <time>2018-06-15T12:36:38.000Z</time>
      </trkpt>
      <trkpt lat="42.8336910" lon="-1.1757200">
        <ele>1031.300049</ele>
        <time>2018-06-15T12:36:40.000Z</time>
      </trkpt>
      <trkpt lat="42.8336720" lon="-1.1758430">
        <ele>1031.599976</ele>
        <time>2018-06-15T12:36:42.000Z</time>
      </trkpt>
      <trkpt lat="42.8335060" lon="-1.1762290">
        <ele>1024.599976</ele>
        <time>2018-06-15T12:36:51.000Z</time>
      </trkpt>
      <trkpt lat="42.8337900" lon="-1.1768510">
        <ele>1037.400024</ele>
        <time>2018-06-15T12:37:06.000Z</time>
      </trkpt>
      <trkpt lat="42.8338130" lon="-1.1773020">
        <ele>1053.900024</ele>
        <time>2018-06-15T12:37:15.000Z</time>
      </trkpt>
      <trkpt lat="42.8338370" lon="-1.1775490">
        <ele>1061.099976</ele>
        <time>2018-06-15T12:37:20.000Z</time>
      </trkpt>
      <trkpt lat="42.8337660" lon="-1.1779240">
        <ele>1070.599976</ele>
        <time>2018-06-15T12:37:28.000Z</time>
      </trkpt>
      <trkpt lat="42.8335220" lon="-1.1781920">
        <ele>1067.699951</ele>
        <time>2018-06-15T12:37:36.000Z</time>
      </trkpt>
      <trkpt lat="42.8335300" lon="-1.1782630">
        <ele>1068.500000</ele>
        <time>2018-06-15T12:37:38.000Z</time>
      </trkpt>
      <trkpt lat="42.8335450" lon="-1.1783210">
        <ele>1069.300049</ele>
        <time>2018-06-15T12:37:39.000Z</time>
      </trkpt>
      <trkpt lat="42.8336010" lon="-1.1783530">
        <ele>1070.300049</ele>
        <time>2018-06-15T12:37:41.000Z</time>
      </trkpt>
      <trkpt lat="42.8337890" lon="-1.1781710">
        <ele>1072.400024</ele>
        <time>2018-06-15T12:37:47.000Z</time>
      </trkpt>
      <trkpt lat="42.8340650" lon="-1.1778060">
        <ele>1079.800049</ele>
        <time>2018-06-15T12:37:57.000Z</time>
      </trkpt>
      <trkpt lat="42.8341910" lon="-1.1772810">
        <ele>1078.800049</ele>
        <time>2018-06-15T12:38:08.000Z</time>
      </trkpt>
      <trkpt lat="42.8343320" lon="-1.1767550">
        <ele>1074.800049</ele>
        <time>2018-06-15T12:38:19.000Z</time>
      </trkpt>
      <trkpt lat="42.8348510" lon="-1.1763040">
        <ele>1101.699951</ele>
        <time>2018-06-15T12:38:36.000Z</time>
      </trkpt>
      <trkpt lat="42.8352680" lon="-1.1757570">
        <ele>1105.900024</ele>
        <time>2018-06-15T12:38:52.000Z</time>
      </trkpt>
      <trkpt lat="42.8357080" lon="-1.1753490">
        <ele>1113.199951</ele>
        <time>2018-06-15T12:39:06.000Z</time>
      </trkpt>
      <trkpt lat="42.8361960" lon="-1.1752420">
        <ele>1121.299927</ele>
        <time>2018-06-15T12:39:19.000Z</time>
      </trkpt>
      <trkpt lat="42.8364950" lon="-1.1754570">
        <ele>1126.300049</ele>
        <time>2018-06-15T12:39:28.000Z</time>
      </trkpt>
      <trkpt lat="42.8369510" lon="-1.1753920">
        <ele>1114.299927</ele>
        <time>2018-06-15T12:39:41.000Z</time>
      </trkpt>
      <trkpt lat="42.8372030" lon="-1.1756070">
        <ele>1113.699951</ele>
        <time>2018-06-15T12:39:49.000Z</time>
      </trkpt>
      <trkpt lat="42.8377540" lon="-1.1767440">
        <ele>1123.000000</ele>
        <time>2018-06-15T12:40:15.000Z</time>
      </trkpt>
      <trkpt lat="42.8378960" lon="-1.1774520">
        <ele>1126.500000</ele>
        <time>2018-06-15T12:40:30.000Z</time>
      </trkpt>
      <trkpt lat="42.8380610" lon="-1.1777730">
        <ele>1122.500000</ele>
        <time>2018-06-15T12:40:37.000Z</time>
      </trkpt>
      <trkpt lat="42.8381790" lon="-1.1783530">
        <ele>1129.799927</ele>
        <time>2018-06-15T12:40:49.000Z</time>
      </trkpt>
      <trkpt lat="42.8384620" lon="-1.1788140">
        <ele>1130.500000</ele>
        <time>2018-06-15T12:41:01.000Z</time>
      </trkpt>
      <trkpt lat="42.8390210" lon="-1.1798440">
        <ele>1123.900024</ele>
        <time>2018-06-15T12:41:26.000Z</time>
      </trkpt>
      <trkpt lat="42.8391070" lon="-1.1801770">
        <ele>1130.700073</ele>
        <time>2018-06-15T12:41:33.000Z</time>
      </trkpt>
      <trkpt lat="42.8392020" lon="-1.1803920">
        <ele>1138.000000</ele>
        <time>2018-06-15T12:41:38.000Z</time>
      </trkpt>
      <trkpt lat="42.8392880" lon="-1.1804350">
        <ele>1140.699951</ele>
        <time>2018-06-15T12:41:40.000Z</time>
      </trkpt>
      <trkpt lat="42.8394220" lon="-1.1804130">
        <ele>1141.400024</ele>
        <time>2018-06-15T12:41:44.000Z</time>
      </trkpt>
      <trkpt lat="42.8395730" lon="-1.1802310">
        <ele>1145.099976</ele>
        <time>2018-06-15T12:41:49.000Z</time>
      </trkpt>
      <trkpt lat="42.8402160" lon="-1.1800260">
        <ele>1134.599976</ele>
        <time>2018-06-15T12:42:07.000Z</time>
      </trkpt>
      <trkpt lat="42.8407380" lon="-1.1800380">
        <ele>1133.599976</ele>
        <time>2018-06-15T12:42:21.000Z</time>
      </trkpt>
      <trkpt lat="42.8409870" lon="-1.1800160">
        <ele>1140.300049</ele>
        <time>2018-06-15T12:42:28.000Z</time>
      </trkpt>
      <trkpt lat="42.8412000" lon="-1.1800490">
        <ele>1138.500000</ele>
        <time>2018-06-15T12:42:34.000Z</time>
      </trkpt>
      <trkpt lat="42.8413360" lon="-1.1801720">
        <ele>1133.900024</ele>
        <time>2018-06-15T12:42:38.000Z</time>
      </trkpt>
      <trkpt lat="42.8414190" lon="-1.1801990">
        <ele>1133.299927</ele>
        <time>2018-06-15T12:42:40.000Z</time>
      </trkpt>
      <trkpt lat="42.8415770" lon="-1.1801120">
        <ele>1136.599976</ele>
        <time>2018-06-15T12:42:45.000Z</time>
      </trkpt>
      <trkpt lat="42.8417900" lon="-1.1799940">
        <ele>1137.300049</ele>
        <time>2018-06-15T12:42:51.000Z</time>
      </trkpt>
      <trkpt lat="42.8420730" lon="-1.1799830">
        <ele>1135.900024</ele>
        <time>2018-06-15T12:42:58.000Z</time>
      </trkpt>
      <trkpt lat="42.8422690" lon="-1.1800920">
        <ele>1132.199951</ele>
        <time>2018-06-15T12:43:04.000Z</time>
      </trkpt>
      <trkpt lat="42.8424100" lon="-1.1801990">
        <ele>1127.400024</ele>
        <time>2018-06-15T12:43:09.000Z</time>
      </trkpt>
      <trkpt lat="42.8425630" lon="-1.1803600">
        <ele>1121.000000</ele>
        <time>2018-06-15T12:43:14.000Z</time>
      </trkpt>
      <trkpt lat="42.8427290" lon="-1.1806180">
        <ele>1119.199951</ele>
        <time>2018-06-15T12:43:21.000Z</time>
      </trkpt>
      <trkpt lat="42.8428040" lon="-1.1809290">
        <ele>1118.099976</ele>
        <time>2018-06-15T12:43:27.000Z</time>
      </trkpt>
      <trkpt lat="42.8428680" lon="-1.1816570">
        <ele>1116.199951</ele>
        <time>2018-06-15T12:43:41.000Z</time>
      </trkpt>
      <trkpt lat="42.8429020" lon="-1.1818080">
        <ele>1115.599976</ele>
        <time>2018-06-15T12:43:44.000Z</time>
      </trkpt>
      <trkpt lat="42.8429620" lon="-1.1819370">
        <ele>1113.699951</ele>
        <time>2018-06-15T12:43:47.000Z</time>
      </trkpt>
      <trkpt lat="42.8430680" lon="-1.1820280">
        <ele>1113.699951</ele>
        <time>2018-06-15T12:43:51.000Z</time>
      </trkpt>
      <trkpt lat="42.8431980" lon="-1.1820660">
        <ele>1115.500000</ele>
        <time>2018-06-15T12:43:54.000Z</time>
      </trkpt>
      <trkpt lat="42.8433940" lon="-1.1819530">
        <ele>1121.900024</ele>
        <time>2018-06-15T12:44:00.000Z</time>
      </trkpt>
      <trkpt lat="42.8435200" lon="-1.1819100">
        <ele>1124.800049</ele>
        <time>2018-06-15T12:44:04.000Z</time>
      </trkpt>
      <trkpt lat="42.8436190" lon="-1.1819210">
        <ele>1126.099976</ele>
        <time>2018-06-15T12:44:06.000Z</time>
      </trkpt>
      <trkpt lat="42.8437010" lon="-1.1820010">
        <ele>1125.400024</ele>
        <time>2018-06-15T12:44:09.000Z</time>
      </trkpt>
      <trkpt lat="42.8441260" lon="-1.1830530">
        <ele>1114.000000</ele>
        <time>2018-06-15T12:44:32.000Z</time>
      </trkpt>
      <trkpt lat="42.8442520" lon="-1.1831330">
        <ele>1117.699951</ele>
        <time>2018-06-15T12:44:36.000Z</time>
      </trkpt>
      <trkpt lat="42.8447130" lon="-1.1834930">
        <ele>1138.599976</ele>
        <time>2018-06-15T12:44:51.000Z</time>
      </trkpt>
      <trkpt lat="42.8448020" lon="-1.1836320">
        <ele>1142.199951</ele>
        <time>2018-06-15T12:44:55.000Z</time>
      </trkpt>
      <trkpt lat="42.8449380" lon="-1.1849680">
        <ele>1139.299927</ele>
        <time>2018-06-15T12:45:21.000Z</time>
      </trkpt>
      <trkpt lat="42.8449750" lon="-1.1851130">
        <ele>1142.599976</ele>
        <time>2018-06-15T12:45:24.000Z</time>
      </trkpt>
      <trkpt lat="42.8451190" lon="-1.1854190">
        <ele>1157.500000</ele>
        <time>2018-06-15T12:45:32.000Z</time>
      </trkpt>
      <trkpt lat="42.8451500" lon="-1.1855850">
        <ele>1156.800049</ele>
        <time>2018-06-15T12:45:35.000Z</time>
      </trkpt>
      <trkpt lat="42.8451860" lon="-1.1858750">
        <ele>1156.099976</ele>
        <time>2018-06-15T12:45:41.000Z</time>
      </trkpt>
      <trkpt lat="42.8452430" lon="-1.1861000">
        <ele>1156.900024</ele>
        <time>2018-06-15T12:45:46.000Z</time>
      </trkpt>
      <trkpt lat="42.8453750" lon="-1.1865940">
        <ele>1159.500000</ele>
        <time>2018-06-15T12:45:56.000Z</time>
      </trkpt>
      <trkpt lat="42.8455050" lon="-1.1869210">
        <ele>1160.099976</ele>
        <time>2018-06-15T12:46:03.000Z</time>
      </trkpt>
      <trkpt lat="42.8458250" lon="-1.1873870">
        <ele>1165.800049</ele>
        <time>2018-06-15T12:46:16.000Z</time>
      </trkpt>
      <trkpt lat="42.8459890" lon="-1.1875430">
        <ele>1167.400024</ele>
        <time>2018-06-15T12:46:21.000Z</time>
      </trkpt>
      <trkpt lat="42.8461390" lon="-1.1876020">
        <ele>1169.300049</ele>
        <time>2018-06-15T12:46:25.000Z</time>
      </trkpt>
      <trkpt lat="42.8462920" lon="-1.1875860">
        <ele>1172.000000</ele>
        <time>2018-06-15T12:46:29.000Z</time>
      </trkpt>
      <trkpt lat="42.8463840" lon="-1.1875360">
        <ele>1173.199951</ele>
        <time>2018-06-15T12:46:32.000Z</time>
      </trkpt>
      <trkpt lat="42.8466120" lon="-1.1872580">
        <ele>1181.000000</ele>
        <time>2018-06-15T12:46:40.000Z</time>
      </trkpt>
      <trkpt lat="42.8471160" lon="-1.1864100">
        <ele>1208.700073</ele>
        <time>2018-06-15T12:47:02.000Z</time>
      </trkpt>
      <trkpt lat="42.8471730" lon="-1.1863630">
        <ele>1209.800049</ele>
        <time>2018-06-15T12:47:04.000Z</time>
      </trkpt>
      <trkpt lat="42.8472250" lon="-1.1863570">
        <ele>1209.599976</ele>
        <time>2018-06-15T12:47:06.000Z</time>
      </trkpt>
      <trkpt lat="42.8472760" lon="-1.1863840">
        <ele>1208.599976</ele>
        <time>2018-06-15T12:47:07.000Z</time>
      </trkpt>
      <trkpt lat="42.8473050" lon="-1.1864210">
        <ele>1207.500000</ele>
        <time>2018-06-15T12:47:08.000Z</time>
      </trkpt>
      <trkpt lat="42.8473510" lon="-1.1866150">
        <ele>1203.400024</ele>
        <time>2018-06-15T12:47:12.000Z</time>
      </trkpt>
      <trkpt lat="42.8475080" lon="-1.1874510">
        <ele>1194.900024</ele>
        <time>2018-06-15T12:47:29.000Z</time>
      </trkpt>
      <trkpt lat="42.8475950" lon="-1.1879400">
        <ele>1188.800049</ele>
        <time>2018-06-15T12:47:39.000Z</time>
      </trkpt>
      <trkpt lat="42.8476340" lon="-1.1882140">
        <ele>1183.000000</ele>
        <time>2018-06-15T12:47:45.000Z</time>
      </trkpt>
      <trkpt lat="42.8477440" lon="-1.1885030">
        <ele>1178.800049</ele>
        <time>2018-06-15T12:47:51.000Z</time>
      </trkpt>
      <trkpt lat="42.8480900" lon="-1.1890180">
        <ele>1189.199951</ele>
        <time>2018-06-15T12:48:05.000Z</time>
      </trkpt>
      <trkpt lat="42.8481650" lon="-1.1891200">
        <ele>1195.099976</ele>
        <time>2018-06-15T12:48:08.000Z</time>
      </trkpt>
      <trkpt lat="42.8482720" lon="-1.1891950">
        <ele>1201.400024</ele>
        <time>2018-06-15T12:48:12.000Z</time>
      </trkpt>
      <trkpt lat="42.8483580" lon="-1.1892320">
        <ele>1204.599976</ele>
        <time>2018-06-15T12:48:14.000Z</time>
      </trkpt>
      <trkpt lat="42.8490500" lon="-1.1895110">
        <ele>1229.699951</ele>
        <time>2018-06-15T12:48:34.000Z</time>
      </trkpt>
      <trkpt lat="42.8492950" lon="-1.1895320">
        <ele>1234.000000</ele>
        <time>2018-06-15T12:48:41.000Z</time>
      </trkpt>
      <trkpt lat="42.8493220" lon="-1.1895920">
        <ele>1234.699951</ele>
        <time>2018-06-15T12:48:42.000Z</time>
      </trkpt>
      <trkpt lat="42.8493330" lon="-1.1896620">
        <ele>1236.299927</ele>
        <time>2018-06-15T12:48:44.000Z</time>
      </trkpt>
      <trkpt lat="42.8493330" lon="-1.1898760">
        <ele>1239.900024</ele>
        <time>2018-06-15T12:48:48.000Z</time>
      </trkpt>
      <trkpt lat="42.8492390" lon="-1.1899830">
        <ele>1239.400024</ele>
        <time>2018-06-15T12:48:51.000Z</time>
      </trkpt>
      <trkpt lat="42.8491530" lon="-1.1900050">
        <ele>1239.000000</ele>
        <time>2018-06-15T12:48:53.000Z</time>
      </trkpt>
      <trkpt lat="42.8489170" lon="-1.1899950">
        <ele>1238.500000</ele>
        <time>2018-06-15T12:49:00.000Z</time>
      </trkpt>
      <trkpt lat="42.8487840" lon="-1.1900110">
        <ele>1239.700073</ele>
        <time>2018-06-15T12:49:03.000Z</time>
      </trkpt>
      <trkpt lat="42.8486300" lon="-1.1900590">
        <ele>1239.400024</ele>
        <time>2018-06-15T12:49:07.000Z</time>
      </trkpt>
      <trkpt lat="42.8485160" lon="-1.1901820">
        <ele>1240.900024</ele>
        <time>2018-06-15T12:49:11.000Z</time>
      </trkpt>
      <trkpt lat="42.8483510" lon="-1.1904230">
        <ele>1239.599976</ele>
        <time>2018-06-15T12:49:18.000Z</time>
      </trkpt>
      <trkpt lat="42.8481690" lon="-1.1907560">
        <ele>1236.799927</ele>
        <time>2018-06-15T12:49:26.000Z</time>
      </trkpt>
      <trkpt lat="42.8480120" lon="-1.1911850">
        <ele>1241.000000</ele>
        <time>2018-06-15T12:49:35.000Z</time>
      </trkpt>
      <trkpt lat="42.8479460" lon="-1.1915230">
        <ele>1241.800049</ele>
        <time>2018-06-15T12:49:42.000Z</time>
      </trkpt>
      <trkpt lat="42.8479380" lon="-1.1918990">
        <ele>1243.900024</ele>
        <time>2018-06-15T12:49:49.000Z</time>
      </trkpt>
      <trkpt lat="42.8479580" lon="-1.1924610">
        <ele>1247.500000</ele>
        <time>2018-06-15T12:50:00.000Z</time>
      </trkpt>
      <trkpt lat="42.8480140" lon="-1.1939860">
        <ele>1247.800049</ele>
        <time>2018-06-15T12:50:30.000Z</time>
      </trkpt>
      <trkpt lat="42.8480410" lon="-1.1943400">
        <ele>1244.800049</ele>
        <time>2018-06-15T12:50:37.000Z</time>
      </trkpt>
      <trkpt lat="42.8481860" lon="-1.1949290">
        <ele>1245.500000</ele>
        <time>2018-06-15T12:50:49.000Z</time>
      </trkpt>
      <trkpt lat="42.8482790" lon="-1.1959700">
        <ele>1258.099976</ele>
        <time>2018-06-15T12:51:10.000Z</time>
      </trkpt>
      <trkpt lat="42.8482880" lon="-1.1961300">
        <ele>1255.300049</ele>
        <time>2018-06-15T12:51:13.000Z</time>
      </trkpt>
      <trkpt lat="42.8484300" lon="-1.1963660">
        <ele>1255.500122</ele>
        <time>2018-06-15T12:51:19.000Z</time>
      </trkpt>
      <trkpt lat="42.8486250" lon="-1.1965500">
        <ele>1258.299927</ele>
        <time>2018-06-15T12:51:25.000Z</time>
      </trkpt>
      <trkpt lat="42.8489870" lon="-1.1966780">
        <ele>1268.000000</ele>
        <time>2018-06-15T12:51:35.000Z</time>
      </trkpt>
      <trkpt lat="42.8493030" lon="-1.1968920">
        <ele>1271.400024</ele>
        <time>2018-06-15T12:51:45.000Z</time>
      </trkpt>
      <trkpt lat="42.8496880" lon="-1.1972890">
        <ele>1260.599976</ele>
        <time>2018-06-15T12:51:58.000Z</time>
      </trkpt>
      <trkpt lat="42.8500890" lon="-1.1978900">
        <ele>1265.500000</ele>
        <time>2018-06-15T12:52:13.000Z</time>
      </trkpt>
      <trkpt lat="42.8503710" lon="-1.1982230">
        <ele>1269.300049</ele>
        <time>2018-06-15T12:52:23.000Z</time>
      </trkpt>
      <trkpt lat="42.8512360" lon="-1.1989480">
        <ele>1277.099976</ele>
        <time>2018-06-15T12:52:50.000Z</time>
      </trkpt>
      <trkpt lat="42.8513500" lon="-1.1991140">
        <ele>1279.599976</ele>
        <time>2018-06-15T12:52:55.000Z</time>
      </trkpt>
      <trkpt lat="42.8517670" lon="-1.2001820">
        <ele>1283.099976</ele>
        <time>2018-06-15T12:53:18.000Z</time>
      </trkpt>
      <trkpt lat="42.8521340" lon="-1.2014690">
        <ele>1285.299927</ele>
        <time>2018-06-15T12:53:45.000Z</time>
      </trkpt>
      <trkpt lat="42.8523380" lon="-1.2019780">
        <ele>1291.299927</ele>
        <time>2018-06-15T12:53:57.000Z</time>
      </trkpt>
      <trkpt lat="42.8523540" lon="-1.2023430">
        <ele>1298.200073</ele>
        <time>2018-06-15T12:54:04.000Z</time>
      </trkpt>
      <trkpt lat="42.8524370" lon="-1.2029230">
        <ele>1297.599976</ele>
        <time>2018-06-15T12:54:15.000Z</time>
      </trkpt>
      <trkpt lat="42.8524330" lon="-1.2032930">
        <ele>1300.000000</ele>
        <time>2018-06-15T12:54:23.000Z</time>
      </trkpt>
      <trkpt lat="42.8524720" lon="-1.2037540">
        <ele>1303.399902</ele>
        <time>2018-06-15T12:54:32.000Z</time>
      </trkpt>
      <trkpt lat="42.8524680" lon="-1.2042320">
        <ele>1302.500000</ele>
        <time>2018-06-15T12:54:41.000Z</time>
      </trkpt>
      <trkpt lat="42.8525110" lon="-1.2046820">
        <ele>1305.000000</ele>
        <time>2018-06-15T12:54:50.000Z</time>
      </trkpt>
      <trkpt lat="42.8526460" lon="-1.2053730">
        <ele>1307.400024</ele>
        <time>2018-06-15T12:55:04.000Z</time>
      </trkpt>
      <trkpt lat="42.8527780" lon="-1.2061410">
        <ele>1315.299927</ele>
        <time>2018-06-15T12:55:19.000Z</time>
      </trkpt>
      <trkpt lat="42.8528700" lon="-1.2063290">
        <ele>1319.400024</ele>
        <time>2018-06-15T12:55:24.000Z</time>
      </trkpt>
      <trkpt lat="42.8529510" lon="-1.2064200">
        <ele>1321.500000</ele>
        <time>2018-06-15T12:55:27.000Z</time>
      </trkpt>
      <trkpt lat="42.8530310" lon="-1.2064940">
        <ele>1322.399902</ele>
        <time>2018-06-15T12:55:29.000Z</time>
      </trkpt>
      <trkpt lat="42.8531710" lon="-1.2065060">
        <ele>1324.000000</ele>
        <time>2018-06-15T12:55:33.000Z</time>
      </trkpt>
      <trkpt lat="42.8532910" lon="-1.2063870">
        <ele>1324.599976</ele>
        <time>2018-06-15T12:55:37.000Z</time>
      </trkpt>
      <trkpt lat="42.8534070" lon="-1.2060980">
        <ele>1325.700073</ele>
        <time>2018-06-15T12:55:43.000Z</time>
      </trkpt>
      <trkpt lat="42.8541920" lon="-1.2041570">
        <ele>1306.000000</ele>
        <time>2018-06-15T12:56:27.000Z</time>
      </trkpt>
      <trkpt lat="42.8543810" lon="-1.2037650">
        <ele>1297.299927</ele>
        <time>2018-06-15T12:56:36.000Z</time>
      </trkpt>
      <trkpt lat="42.8547110" lon="-1.2034060">
        <ele>1297.500000</ele>
        <time>2018-06-15T12:56:47.000Z</time>
      </trkpt>
      <trkpt lat="42.8552630" lon="-1.2028580">
        <ele>1295.999878</ele>
        <time>2018-06-15T12:57:05.000Z</time>
      </trkpt>
      <trkpt lat="42.8555090" lon="-1.2024600">
        <ele>1292.099976</ele>
        <time>2018-06-15T12:57:15.000Z</time>
      </trkpt>
      <trkpt lat="42.8559730" lon="-1.2008720">
        <ele>1290.000122</ele>
        <time>2018-06-15T12:57:49.000Z</time>
      </trkpt>
      <trkpt lat="42.8560290" lon="-1.2005460">
        <ele>1290.500000</ele>
        <time>2018-06-15T12:57:55.000Z</time>
      </trkpt>
      <trkpt lat="42.8560490" lon="-1.2003640">
        <ele>1291.100098</ele>
        <time>2018-06-15T12:57:59.000Z</time>
      </trkpt>
      <trkpt lat="42.8560910" lon="-1.1998210">
        <ele>1287.300049</ele>
        <time>2018-06-15T12:58:09.000Z</time>
      </trkpt>
      <trkpt lat="42.8565860" lon="-1.1995420">
        <ele>1279.599976</ele>
        <time>2018-06-15T12:58:24.000Z</time>
      </trkpt>
      <trkpt lat="42.8569800" lon="-1.1989840">
        <ele>1270.599976</ele>
        <time>2018-06-15T12:58:39.000Z</time>
      </trkpt>
      <trkpt lat="42.8571230" lon="-1.1988300">
        <ele>1266.100098</ele>
        <time>2018-06-15T12:58:44.000Z</time>
      </trkpt>
      <trkpt lat="42.8573020" lon="-1.1987910">
        <ele>1267.200073</ele>
        <time>2018-06-15T12:58:49.000Z</time>
      </trkpt>
      <trkpt lat="42.8575720" lon="-1.1988830">
        <ele>1266.200073</ele>
        <time>2018-06-15T12:58:56.000Z</time>
      </trkpt>
      <trkpt lat="42.8576960" lon="-1.1988880">
        <ele>1264.500000</ele>
        <time>2018-06-15T12:58:59.000Z</time>
      </trkpt>
      <trkpt lat="42.8581260" lon="-1.1986740">
        <ele>1261.300049</ele>
        <time>2018-06-15T12:59:11.000Z</time>
      </trkpt>
      <trkpt lat="42.8590050" lon="-1.1983420">
        <ele>1252.900024</ele>
        <time>2018-06-15T12:59:36.000Z</time>
      </trkpt>
      <trkpt lat="42.8593440" lon="-1.1981700">
        <ele>1250.500000</ele>
        <time>2018-06-15T12:59:45.000Z</time>
      </trkpt>
      <trkpt lat="42.8594580" lon="-1.1981060">
        <ele>1249.500122</ele>
        <time>2018-06-15T12:59:49.000Z</time>
      </trkpt>
      <trkpt lat="42.8595290" lon="-1.1981110">
        <ele>1249.500122</ele>
        <time>2018-06-15T12:59:50.000Z</time>
      </trkpt>
      <trkpt lat="42.8596270" lon="-1.1982240">
        <ele>1250.000000</ele>
        <time>2018-06-15T12:59:54.000Z</time>
      </trkpt>
      <trkpt lat="42.8597250" lon="-1.1984600">
        <ele>1251.400024</ele>
        <time>2018-06-15T12:59:59.000Z</time>
      </trkpt>
      <trkpt lat="42.8598600" lon="-1.1990040">
        <ele>1256.500000</ele>
        <time>2018-06-15T13:00:10.000Z</time>
      </trkpt>
      <trkpt lat="42.8599570" lon="-1.1992480">
        <ele>1258.800049</ele>
        <time>2018-06-15T13:00:16.000Z</time>
      </trkpt>
      <trkpt lat="42.8600420" lon="-1.1993800">
        <ele>1262.000000</ele>
        <time>2018-06-15T13:00:19.000Z</time>
      </trkpt>
      <trkpt lat="42.8602830" lon="-1.1995790">
        <ele>1266.399902</ele>
        <time>2018-06-15T13:00:27.000Z</time>
      </trkpt>
      <trkpt lat="42.8604410" lon="-1.1997260">
        <ele>1266.399902</ele>
        <time>2018-06-15T13:00:32.000Z</time>
      </trkpt>
      <trkpt lat="42.8604880" lon="-1.1998600">
        <ele>1266.200073</ele>
        <time>2018-06-15T13:00:35.000Z</time>
      </trkpt>
      <trkpt lat="42.8605070" lon="-1.2000260">
        <ele>1267.499878</ele>
        <time>2018-06-15T13:00:38.000Z</time>
      </trkpt>
      <trkpt lat="42.8605160" lon="-1.2006370">
        <ele>1265.800049</ele>
        <time>2018-06-15T13:00:50.000Z</time>
      </trkpt>
      <trkpt lat="42.8606860" lon="-1.2028480">
        <ele>1246.299927</ele>
        <time>2018-06-15T13:01:33.000Z</time>
      </trkpt>
      <trkpt lat="42.8607420" lon="-1.2030120">
        <ele>1244.000000</ele>
        <time>2018-06-15T13:01:37.000Z</time>
      </trkpt>
      <trkpt lat="42.8607880" lon="-1.2032450">
        <ele>1242.000000</ele>
        <time>2018-06-15T13:01:42.000Z</time>
      </trkpt>
      <trkpt lat="42.8608000" lon="-1.2036470">
        <ele>1235.900024</ele>
        <time>2018-06-15T13:01:50.000Z</time>
      </trkpt>
      <trkpt lat="42.8607660" lon="-1.2057350">
        <ele>1214.000000</ele>
        <time>2018-06-15T13:02:31.000Z</time>
      </trkpt>
      <trkpt lat="42.8607960" lon="-1.2061680">
        <ele>1211.199951</ele>
        <time>2018-06-15T13:02:39.000Z</time>
      </trkpt>
      <trkpt lat="42.8608150" lon="-1.2067490">
        <ele>1204.400024</ele>
        <time>2018-06-15T13:02:51.000Z</time>
      </trkpt>
      <trkpt lat="42.8609430" lon="-1.2070970">
        <ele>1198.099976</ele>
        <time>2018-06-15T13:02:58.000Z</time>
      </trkpt>
      <trkpt lat="42.8611200" lon="-1.2073570">
        <ele>1189.199951</ele>
        <time>2018-06-15T13:03:05.000Z</time>
      </trkpt>
      <trkpt lat="42.8612380" lon="-1.2075390">
        <ele>1183.199951</ele>
        <time>2018-06-15T13:03:10.000Z</time>
      </trkpt>
      <trkpt lat="42.8613520" lon="-1.2078020">
        <ele>1179.099976</ele>
        <time>2018-06-15T13:03:16.000Z</time>
      </trkpt>
      <trkpt lat="42.8614240" lon="-1.2079130">
        <ele>1177.599976</ele>
        <time>2018-06-15T13:03:19.000Z</time>
      </trkpt>
      <trkpt lat="42.8615110" lon="-1.2079970">
        <ele>1174.200073</ele>
        <time>2018-06-15T13:03:22.000Z</time>
      </trkpt>
      <trkpt lat="42.8616150" lon="-1.2080120">
        <ele>1173.400024</ele>
        <time>2018-06-15T13:03:25.000Z</time>
      </trkpt>
      <trkpt lat="42.8617610" lon="-1.2079350">
        <ele>1173.300049</ele>
        <time>2018-06-15T13:03:29.000Z</time>
      </trkpt>
      <trkpt lat="42.8619330" lon="-1.2077140">
        <ele>1172.300049</ele>
        <time>2018-06-15T13:03:35.000Z</time>
      </trkpt>
      <trkpt lat="42.8621490" lon="-1.2073710">
        <ele>1170.799927</ele>
        <time>2018-06-15T13:03:44.000Z</time>
      </trkpt>
      <trkpt lat="42.8623840" lon="-1.2070570">
        <ele>1165.400024</ele>
        <time>2018-06-15T13:03:53.000Z</time>
      </trkpt>
      <trkpt lat="42.8625930" lon="-1.2067280">
        <ele>1157.500000</ele>
        <time>2018-06-15T13:04:02.000Z</time>
      </trkpt>
      <trkpt lat="42.8632360" lon="-1.2059430">
        <ele>1157.000000</ele>
        <time>2018-06-15T13:04:25.000Z</time>
      </trkpt>
      <trkpt lat="42.8641230" lon="-1.2052150">
        <ele>1144.199951</ele>
        <time>2018-06-15T13:04:52.000Z</time>
      </trkpt>
      <trkpt lat="42.8646910" lon="-1.2045460">
        <ele>1140.599976</ele>
        <time>2018-06-15T13:05:12.000Z</time>
      </trkpt>
      <trkpt lat="42.8652790" lon="-1.2038950">
        <ele>1143.200073</ele>
        <time>2018-06-15T13:05:32.000Z</time>
      </trkpt>
      <trkpt lat="42.8654360" lon="-1.2037150">
        <ele>1143.700073</ele>
        <time>2018-06-15T13:05:38.000Z</time>
      </trkpt>
      <trkpt lat="42.8655880" lon="-1.2036450">
        <ele>1144.900024</ele>
        <time>2018-06-15T13:05:42.000Z</time>
      </trkpt>
      <trkpt lat="42.8657870" lon="-1.2036410">
        <ele>1145.400024</ele>
        <time>2018-06-15T13:05:47.000Z</time>
      </trkpt>
      <trkpt lat="42.8660120" lon="-1.2036610">
        <ele>1146.500000</ele>
        <time>2018-06-15T13:05:53.000Z</time>
      </trkpt>
      <trkpt lat="42.8662280" lon="-1.2036690">
        <ele>1147.400024</ele>
        <time>2018-06-15T13:05:59.000Z</time>
      </trkpt>
      <trkpt lat="42.8663420" lon="-1.2037330">
        <ele>1148.000000</ele>
        <time>2018-06-15T13:06:02.000Z</time>
      </trkpt>
      <trkpt lat="42.8664150" lon="-1.2038450">
        <ele>1146.200073</ele>
        <time>2018-06-15T13:06:05.000Z</time>
      </trkpt>
      <trkpt lat="42.8664670" lon="-1.2039840">
        <ele>1142.400024</ele>
        <time>2018-06-15T13:06:08.000Z</time>
      </trkpt>
      <trkpt lat="42.8667380" lon="-1.2045840">
        <ele>1137.800049</ele>
        <time>2018-06-15T13:06:22.000Z</time>
      </trkpt>
      <trkpt lat="42.8669400" lon="-1.2049180">
        <ele>1141.400024</ele>
        <time>2018-06-15T13:06:31.000Z</time>
      </trkpt>
      <trkpt lat="42.8671700" lon="-1.2053630">
        <ele>1146.200073</ele>
        <time>2018-06-15T13:06:41.000Z</time>
      </trkpt>
      <trkpt lat="42.8673540" lon="-1.2057510">
        <ele>1154.000000</ele>
        <time>2018-06-15T13:06:50.000Z</time>
      </trkpt>
      <trkpt lat="42.8675550" lon="-1.2059910">
        <ele>1159.099976</ele>
        <time>2018-06-15T13:06:58.000Z</time>
      </trkpt>
      <trkpt lat="42.8677450" lon="-1.2060930">
        <ele>1161.700073</ele>
        <time>2018-06-15T13:07:03.000Z</time>
      </trkpt>
      <trkpt lat="42.8679040" lon="-1.2061250">
        <ele>1163.300049</ele>
        <time>2018-06-15T13:07:07.000Z</time>
      </trkpt>
      <trkpt lat="42.8680390" lon="-1.2061320">
        <ele>1164.299927</ele>
        <time>2018-06-15T13:07:11.000Z</time>
      </trkpt>
      <trkpt lat="42.8682260" lon="-1.2060850">
        <ele>1164.299927</ele>
        <time>2018-06-15T13:07:16.000Z</time>
      </trkpt>
      <trkpt lat="42.8684130" lon="-1.2061360">
        <ele>1162.900024</ele>
        <time>2018-06-15T13:07:21.000Z</time>
      </trkpt>
      <trkpt lat="42.8688210" lon="-1.2063250">
        <ele>1161.099976</ele>
        <time>2018-06-15T13:07:32.000Z</time>
      </trkpt>
      <trkpt lat="42.8690580" lon="-1.2064350">
        <ele>1162.200073</ele>
        <time>2018-06-15T13:07:39.000Z</time>
      </trkpt>
      <trkpt lat="42.8695280" lon="-1.2067720">
        <ele>1156.000000</ele>
        <time>2018-06-15T13:07:53.000Z</time>
      </trkpt>
      <trkpt lat="42.8697280" lon="-1.2070470">
        <ele>1149.599976</ele>
        <time>2018-06-15T13:08:01.000Z</time>
      </trkpt>
      <trkpt lat="42.8699240" lon="-1.2073100">
        <ele>1140.800049</ele>
        <time>2018-06-15T13:08:08.000Z</time>
      </trkpt>
      <trkpt lat="42.8703090" lon="-1.2077220">
        <ele>1136.599976</ele>
        <time>2018-06-15T13:08:21.000Z</time>
      </trkpt>
      <trkpt lat="42.8709140" lon="-1.2082570">
        <ele>1125.300049</ele>
        <time>2018-06-15T13:08:41.000Z</time>
      </trkpt>
      <trkpt lat="42.8713600" lon="-1.2087700">
        <ele>1120.400024</ele>
        <time>2018-06-15T13:08:56.000Z</time>
      </trkpt>
      <trkpt lat="42.8715700" lon="-1.2091980">
        <ele>1120.699951</ele>
        <time>2018-06-15T13:09:06.000Z</time>
      </trkpt>
      <trkpt lat="42.8717250" lon="-1.2094660">
        <ele>1123.199951</ele>
        <time>2018-06-15T13:09:13.000Z</time>
      </trkpt>
      <trkpt lat="42.8718860" lon="-1.2095480">
        <ele>1123.699951</ele>
        <time>2018-06-15T13:09:18.000Z</time>
      </trkpt>
      <trkpt lat="42.8726580" lon="-1.2103450">
        <ele>1104.900024</ele>
        <time>2018-06-15T13:09:44.000Z</time>
      </trkpt>
      <trkpt lat="42.8729430" lon="-1.2106440">
        <ele>1105.700073</ele>
        <time>2018-06-15T13:09:53.000Z</time>
      </trkpt>
      <trkpt lat="42.8730780" lon="-1.2106950">
        <ele>1104.699951</ele>
        <time>2018-06-15T13:09:57.000Z</time>
      </trkpt>
      <trkpt lat="42.8732330" lon="-1.2107030">
        <ele>1101.699951</ele>
        <time>2018-06-15T13:10:01.000Z</time>
      </trkpt>
      <trkpt lat="42.8736800" lon="-1.2106620">
        <ele>1090.400024</ele>
        <time>2018-06-15T13:10:13.000Z</time>
      </trkpt>
      <trkpt lat="42.8737330" lon="-1.2105890">
        <ele>1088.300049</ele>
        <time>2018-06-15T13:10:15.000Z</time>
      </trkpt>
      <trkpt lat="42.8737390" lon="-1.2104910">
        <ele>1086.400024</ele>
        <time>2018-06-15T13:10:17.000Z</time>
      </trkpt>
      <trkpt lat="42.8736790" lon="-1.2100360">
        <ele>1081.699951</ele>
        <time>2018-06-15T13:10:26.000Z</time>
      </trkpt>
      <trkpt lat="42.8736720" lon="-1.2098310">
        <ele>1078.900024</ele>
        <time>2018-06-15T13:10:30.000Z</time>
      </trkpt>
      <trkpt lat="42.8736600" lon="-1.2096460">
        <ele>1077.500000</ele>
        <time>2018-06-15T13:10:34.000Z</time>
      </trkpt>
      <trkpt lat="42.8736680" lon="-1.2090910">
        <ele>1073.000000</ele>
        <time>2018-06-15T13:10:45.000Z</time>
      </trkpt>
      <trkpt lat="42.8736820" lon="-1.2088990">
        <ele>1071.299927</ele>
        <time>2018-06-15T13:10:49.000Z</time>
      </trkpt>
      <trkpt lat="42.8737220" lon="-1.2087110">
        <ele>1068.700073</ele>
        <time>2018-06-15T13:10:52.000Z</time>
      </trkpt>
      <trkpt lat="42.8737900" lon="-1.2085380">
        <ele>1064.000000</ele>
        <time>2018-06-15T13:10:56.000Z</time>
      </trkpt>
      <trkpt lat="42.8739630" lon="-1.2082970">
        <ele>1060.800049</ele>
        <time>2018-06-15T13:11:03.000Z</time>
      </trkpt>
      <trkpt lat="42.8743610" lon="-1.2079900">
        <ele>1053.099976</ele>
        <time>2018-06-15T13:11:15.000Z</time>
      </trkpt>
      <trkpt lat="42.8750170" lon="-1.2075180">
        <ele>1050.199951</ele>
        <time>2018-06-15T13:11:35.000Z</time>
      </trkpt>
      <trkpt lat="42.8756650" lon="-1.2070690">
        <ele>1044.199951</ele>
        <time>2018-06-15T13:11:54.000Z</time>
      </trkpt>
      <trkpt lat="42.8759870" lon="-1.2068050">
        <ele>1041.800049</ele>
        <time>2018-06-15T13:12:04.000Z</time>
      </trkpt>
      <trkpt lat="42.8761120" lon="-1.2066340">
        <ele>1039.700073</ele>
        <time>2018-06-15T13:12:09.000Z</time>
      </trkpt>
      <trkpt lat="42.8771390" lon="-1.2048610">
        <ele>1032.800049</ele>
        <time>2018-06-15T13:12:53.000Z</time>
      </trkpt>
      <trkpt lat="42.8777190" lon="-1.2038650">
        <ele>1035.000000</ele>
        <time>2018-06-15T13:13:18.000Z</time>
      </trkpt>
      <trkpt lat="42.8778550" lon="-1.2036650">
        <ele>1034.300049</ele>
        <time>2018-06-15T13:13:23.000Z</time>
      </trkpt>
      <trkpt lat="42.8780160" lon="-1.2035570">
        <ele>1034.500000</ele>
        <time>2018-06-15T13:13:28.000Z</time>
      </trkpt>
      <trkpt lat="42.8781340" lon="-1.2035130">
        <ele>1034.599976</ele>
        <time>2018-06-15T13:13:31.000Z</time>
      </trkpt>
      <trkpt lat="42.8797050" lon="-1.2034990">
        <ele>1012.399963</ele>
        <time>2018-06-15T13:14:13.000Z</time>
      </trkpt>
      <trkpt lat="42.8807320" lon="-1.2034780">
        <ele>1015.000000</ele>
        <time>2018-06-15T13:14:40.000Z</time>
      </trkpt>
      <trkpt lat="42.8811330" lon="-1.2034110">
        <ele>1011.600037</ele>
        <time>2018-06-15T13:14:51.000Z</time>
      </trkpt>
      <trkpt lat="42.8823910" lon="-1.2030020">
        <ele>1023.400024</ele>
        <time>2018-06-15T13:15:25.000Z</time>
      </trkpt>
      <trkpt lat="42.8833120" lon="-1.2027030">
        <ele>1009.000000</ele>
        <time>2018-06-15T13:15:51.000Z</time>
      </trkpt>
      <trkpt lat="42.8843000" lon="-1.2023610">
        <ele>1006.099976</ele>
        <time>2018-06-15T13:16:18.000Z</time>
      </trkpt>
      <trkpt lat="42.8847940" lon="-1.2021950">
        <ele>998.200012</ele>
        <time>2018-06-15T13:16:31.000Z</time>
      </trkpt>
      <trkpt lat="42.8849980" lon="-1.2021170">
        <ele>998.400024</ele>
        <time>2018-06-15T13:16:37.000Z</time>
      </trkpt>
      <trkpt lat="42.8851670" lon="-1.2020030">
        <ele>1000.200012</ele>
        <time>2018-06-15T13:16:42.000Z</time>
      </trkpt>
      <trkpt lat="42.8853340" lon="-1.2017700">
        <ele>1003.700012</ele>
        <time>2018-06-15T13:16:48.000Z</time>
      </trkpt>
      <trkpt lat="42.8857280" lon="-1.2011500">
        <ele>1002.299988</ele>
        <time>2018-06-15T13:17:04.000Z</time>
      </trkpt>
      <trkpt lat="42.8857990" lon="-1.2010620">
        <ele>1001.600037</ele>
        <time>2018-06-15T13:17:07.000Z</time>
      </trkpt>
      <trkpt lat="42.8858820" lon="-1.2010230">
        <ele>1000.099976</ele>
        <time>2018-06-15T13:17:09.000Z</time>
      </trkpt>
      <trkpt lat="42.8860500" lon="-1.2010130">
        <ele>997.000000</ele>
        <time>2018-06-15T13:17:14.000Z</time>
      </trkpt>
      <trkpt lat="42.8861930" lon="-1.2010030">
        <ele>994.799988</ele>
        <time>2018-06-15T13:17:18.000Z</time>
      </trkpt>
      <trkpt lat="42.8863520" lon="-1.2008950">
        <ele>994.299988</ele>
        <time>2018-06-15T13:17:22.000Z</time>
      </trkpt>
      <trkpt lat="42.8867380" lon="-1.2006260">
        <ele>992.500000</ele>
        <time>2018-06-15T13:17:34.000Z</time>
      </trkpt>
      <trkpt lat="42.8869220" lon="-1.2006320">
        <ele>990.399963</ele>
        <time>2018-06-15T13:17:39.000Z</time>
      </trkpt>
      <trkpt lat="42.8871390" lon="-1.2006590">
        <ele>987.800049</ele>
        <time>2018-06-15T13:17:44.000Z</time>
      </trkpt>
      <trkpt lat="42.8875710" lon="-1.2007550">
        <ele>985.000000</ele>
        <time>2018-06-15T13:17:56.000Z</time>
      </trkpt>
      <trkpt lat="42.8876730" lon="-1.2007560">
        <ele>984.800049</ele>
        <time>2018-06-15T13:17:59.000Z</time>
      </trkpt>
      <trkpt lat="42.8877600" lon="-1.2007230">
        <ele>985.200012</ele>
        <time>2018-06-15T13:18:01.000Z</time>
      </trkpt>
      <trkpt lat="42.8884980" lon="-1.2003480">
        <ele>992.299988</ele>
        <time>2018-06-15T13:18:22.000Z</time>
      </trkpt>
      <trkpt lat="42.8886830" lon="-1.2003260">
        <ele>994.900024</ele>
        <time>2018-06-15T13:18:27.000Z</time>
      </trkpt>
      <trkpt lat="42.8891820" lon="-1.2003260">
        <ele>1002.899963</ele>
        <time>2018-06-15T13:18:40.000Z</time>
      </trkpt>
      <trkpt lat="42.8893870" lon="-1.2003690">
        <ele>1006.900024</ele>
        <time>2018-06-15T13:18:46.000Z</time>
      </trkpt>
      <trkpt lat="42.8894810" lon="-1.2004120">
        <ele>1007.900024</ele>
        <time>2018-06-15T13:18:49.000Z</time>
      </trkpt>
      <trkpt lat="42.8895520" lon="-1.2004870">
        <ele>1009.099976</ele>
        <time>2018-06-15T13:18:51.000Z</time>
      </trkpt>
      <trkpt lat="42.8896700" lon="-1.2008520">
        <ele>1011.600037</ele>
        <time>2018-06-15T13:18:59.000Z</time>
      </trkpt>
      <trkpt lat="42.8897250" lon="-1.2009220">
        <ele>1012.300049</ele>
        <time>2018-06-15T13:19:01.000Z</time>
      </trkpt>
      <trkpt lat="42.8897800" lon="-1.2009480">
        <ele>1013.400024</ele>
        <time>2018-06-15T13:19:02.000Z</time>
      </trkpt>
      <trkpt lat="42.8900310" lon="-1.2009910">
        <ele>1019.299988</ele>
        <time>2018-06-15T13:19:09.000Z</time>
      </trkpt>
      <trkpt lat="42.8900790" lon="-1.2010720">
        <ele>1020.199951</ele>
        <time>2018-06-15T13:19:11.000Z</time>
      </trkpt>
      <trkpt lat="42.8900940" lon="-1.2011950">
        <ele>1020.199951</ele>
        <time>2018-06-15T13:19:14.000Z</time>
      </trkpt>
      <trkpt lat="42.8900790" lon="-1.2018390">
        <ele>1014.799988</ele>
        <time>2018-06-15T13:19:26.000Z</time>
      </trkpt>
      <trkpt lat="42.8901020" lon="-1.2020530">
        <ele>1012.900024</ele>
        <time>2018-06-15T13:19:31.000Z</time>
      </trkpt>
      <trkpt lat="42.8902560" lon="-1.2024560">
        <ele>1012.300049</ele>
        <time>2018-06-15T13:19:39.000Z</time>
      </trkpt>
      <trkpt lat="42.8912810" lon="-1.2047890">
        <ele>1030.000000</ele>
        <time>2018-06-15T13:20:32.000Z</time>
      </trkpt>
      <trkpt lat="42.8913680" lon="-1.2050570">
        <ele>1027.800049</ele>
        <time>2018-06-15T13:20:38.000Z</time>
      </trkpt>
      <trkpt lat="42.8918160" lon="-1.2067630">
        <ele>1025.900024</ele>
        <time>2018-06-15T13:21:13.000Z</time>
      </trkpt>
      <trkpt lat="42.8922390" lon="-1.2076110">
        <ele>1022.400024</ele>
        <time>2018-06-15T13:21:33.000Z</time>
      </trkpt>
      <trkpt lat="42.8924960" lon="-1.2080830">
        <ele>1022.300049</ele>
        <time>2018-06-15T13:21:45.000Z</time>
      </trkpt>
      <trkpt lat="42.8926330" lon="-1.2082980">
        <ele>1020.099976</ele>
        <time>2018-06-15T13:21:50.000Z</time>
      </trkpt>
      <trkpt lat="42.8927280" lon="-1.2083300">
        <ele>1020.799988</ele>
        <time>2018-06-15T13:21:53.000Z</time>
      </trkpt>
      <trkpt lat="42.8931680" lon="-1.2080510">
        <ele>1033.500000</ele>
        <time>2018-06-15T13:22:06.000Z</time>
      </trkpt>
      <trkpt lat="42.8937260" lon="-1.2080080">
        <ele>1026.900024</ele>
        <time>2018-06-15T13:22:21.000Z</time>
      </trkpt>
      <trkpt lat="42.8939150" lon="-1.2080830">
        <ele>1023.400024</ele>
        <time>2018-06-15T13:22:26.000Z</time>
      </trkpt>
      <trkpt lat="42.8940560" lon="-1.2081800">
        <ele>1021.700012</ele>
        <time>2018-06-15T13:22:30.000Z</time>
      </trkpt>
      <trkpt lat="42.8944000" lon="-1.2085980">
        <ele>1021.100037</ele>
        <time>2018-06-15T13:22:43.000Z</time>
      </trkpt>
      <trkpt lat="42.8947010" lon="-1.2088720">
        <ele>1022.000000</ele>
        <time>2018-06-15T13:22:52.000Z</time>
      </trkpt>
      <trkpt lat="42.8950530" lon="-1.2091880">
        <ele>1022.300049</ele>
        <time>2018-06-15T13:23:03.000Z</time>
      </trkpt>
      <trkpt lat="42.8957280" lon="-1.2097780">
        <ele>1019.599976</ele>
        <time>2018-06-15T13:23:25.000Z</time>
      </trkpt>
      <trkpt lat="42.8965290" lon="-1.2104920">
        <ele>1023.600037</ele>
        <time>2018-06-15T13:23:50.000Z</time>
      </trkpt>
      <trkpt lat="42.8965770" lon="-1.2105180">
        <ele>1024.400024</ele>
        <time>2018-06-15T13:23:52.000Z</time>
      </trkpt>
      <trkpt lat="42.8968760" lon="-1.2104650">
        <ele>1023.699951</ele>
        <time>2018-06-15T13:24:00.000Z</time>
      </trkpt>
      <trkpt lat="42.8978900" lon="-1.2107550">
        <ele>1013.900024</ele>
        <time>2018-06-15T13:24:27.000Z</time>
      </trkpt>
      <trkpt lat="42.8983250" lon="-1.2109270">
        <ele>1013.500061</ele>
        <time>2018-06-15T13:24:39.000Z</time>
      </trkpt>
      <trkpt lat="42.8984950" lon="-1.2110010">
        <ele>1011.400024</ele>
        <time>2018-06-15T13:24:44.000Z</time>
      </trkpt>
      <trkpt lat="42.8986680" lon="-1.2111190">
        <ele>1017.000000</ele>
        <time>2018-06-15T13:24:49.000Z</time>
      </trkpt>
      <trkpt lat="42.8988730" lon="-1.2113660">
        <ele>1023.500000</ele>
        <time>2018-06-15T13:24:57.000Z</time>
      </trkpt>
      <trkpt lat="42.8990370" lon="-1.2114950">
        <ele>1025.800049</ele>
        <time>2018-06-15T13:25:02.000Z</time>
      </trkpt>
      <trkpt lat="42.8996350" lon="-1.2117200">
        <ele>1035.000000</ele>
        <time>2018-06-15T13:25:18.000Z</time>
      </trkpt>
      <trkpt lat="42.9005780" lon="-1.2119780">
        <ele>1035.099976</ele>
        <time>2018-06-15T13:25:44.000Z</time>
      </trkpt>
      <trkpt lat="42.9006040" lon="-1.2120050">
        <ele>1035.500000</ele>
        <time>2018-06-15T13:25:45.000Z</time>
      </trkpt>
      <trkpt lat="42.9006210" lon="-1.2120570">
        <ele>1035.699951</ele>
        <time>2018-06-15T13:25:46.000Z</time>
      </trkpt>
      <trkpt lat="42.9006250" lon="-1.2121920">
        <ele>1037.099976</ele>
        <time>2018-06-15T13:25:48.000Z</time>
      </trkpt>
      <trkpt lat="42.9006280" lon="-1.2125350">
        <ele>1038.000000</ele>
        <time>2018-06-15T13:25:55.000Z</time>
      </trkpt>
      <trkpt lat="42.9006400" lon="-1.2130400">
        <ele>1036.599976</ele>
        <time>2018-06-15T13:26:05.000Z</time>
      </trkpt>
      <trkpt lat="42.9006250" lon="-1.2132540">
        <ele>1036.700073</ele>
        <time>2018-06-15T13:26:09.000Z</time>
      </trkpt>
      <trkpt lat="42.9007120" lon="-1.2135760">
        <ele>1034.300049</ele>
        <time>2018-06-15T13:26:16.000Z</time>
      </trkpt>
      <trkpt lat="42.9007380" lon="-1.2137210">
        <ele>1033.299927</ele>
        <time>2018-06-15T13:26:19.000Z</time>
      </trkpt>
      <trkpt lat="42.9007340" lon="-1.2139200">
        <ele>1033.099976</ele>
        <time>2018-06-15T13:26:22.000Z</time>
      </trkpt>
      <trkpt lat="42.9005780" lon="-1.2144450">
        <ele>1044.199951</ele>
        <time>2018-06-15T13:26:34.000Z</time>
      </trkpt>
      <trkpt lat="42.9005610" lon="-1.2147560">
        <ele>1047.900024</ele>
        <time>2018-06-15T13:26:40.000Z</time>
      </trkpt>
      <trkpt lat="42.9006250" lon="-1.2161620">
        <ele>1048.099976</ele>
        <time>2018-06-15T13:27:07.000Z</time>
      </trkpt>
      <trkpt lat="42.9005940" lon="-1.2170630">
        <ele>1040.699951</ele>
        <time>2018-06-15T13:27:25.000Z</time>
      </trkpt>
      <trkpt lat="42.9005310" lon="-1.2181470">
        <ele>1017.500000</ele>
        <time>2018-06-15T13:27:47.000Z</time>
      </trkpt>
      <trkpt lat="42.9005540" lon="-1.2183440">
        <ele>1015.200012</ele>
        <time>2018-06-15T13:27:51.000Z</time>
      </trkpt>
      <trkpt lat="42.9006020" lon="-1.2184360">
        <ele>1013.700012</ele>
        <time>2018-06-15T13:27:53.000Z</time>
      </trkpt>
      <trkpt lat="42.9006880" lon="-1.2185440">
        <ele>1012.100037</ele>
        <time>2018-06-15T13:27:56.000Z</time>
      </trkpt>
      <trkpt lat="42.9008380" lon="-1.2186400">
        <ele>1009.700012</ele>
        <time>2018-06-15T13:28:00.000Z</time>
      </trkpt>
      <trkpt lat="42.9011760" lon="-1.2186190">
        <ele>1004.500000</ele>
        <time>2018-06-15T13:28:09.000Z</time>
      </trkpt>
      <trkpt lat="42.9016940" lon="-1.2184360">
        <ele>997.300049</ele>
        <time>2018-06-15T13:28:24.000Z</time>
      </trkpt>
      <trkpt lat="42.9019300" lon="-1.2184360">
        <ele>992.899963</ele>
        <time>2018-06-15T13:28:30.000Z</time>
      </trkpt>
      <trkpt lat="42.9020790" lon="-1.2185760">
        <ele>989.100037</ele>
        <time>2018-06-15T13:28:35.000Z</time>
      </trkpt>
      <trkpt lat="42.9023780" lon="-1.2191870">
        <ele>990.599976</ele>
        <time>2018-06-15T13:28:49.000Z</time>
      </trkpt>
      <trkpt lat="42.9026300" lon="-1.2195520">
        <ele>989.899963</ele>
        <time>2018-06-15T13:28:59.000Z</time>
      </trkpt>
      <trkpt lat="42.9028690" lon="-1.2197700">
        <ele>988.400024</ele>
        <time>2018-06-15T13:29:07.000Z</time>
      </trkpt>
      <trkpt lat="42.9029550" lon="-1.2198210">
        <ele>987.300049</ele>
        <time>2018-06-15T13:29:09.000Z</time>
      </trkpt>
      <trkpt lat="42.9030480" lon="-1.2198230">
        <ele>987.500000</ele>
        <time>2018-06-15T13:29:12.000Z</time>
      </trkpt>
      <trkpt lat="42.9031190" lon="-1.2197700">
        <ele>987.399963</ele>
        <time>2018-06-15T13:29:14.000Z</time>
      </trkpt>
      <trkpt lat="42.9031750" lon="-1.2196650">
        <ele>986.700012</ele>
        <time>2018-06-15T13:29:16.000Z</time>
      </trkpt>
      <trkpt lat="42.9031850" lon="-1.2194950">
        <ele>986.100037</ele>
        <time>2018-06-15T13:29:20.000Z</time>
      </trkpt>
      <trkpt lat="42.9031580" lon="-1.2193000">
        <ele>986.100037</ele>
        <time>2018-06-15T13:29:23.000Z</time>
      </trkpt>
      <trkpt lat="42.9029550" lon="-1.2181620">
        <ele>978.099976</ele>
        <time>2018-06-15T13:29:46.000Z</time>
      </trkpt>
      <trkpt lat="42.9028800" lon="-1.2180010">
        <ele>978.900024</ele>
        <time>2018-06-15T13:29:50.000Z</time>
      </trkpt>
      <trkpt lat="42.9027700" lon="-1.2178510">
        <ele>978.300049</ele>
        <time>2018-06-15T13:29:54.000Z</time>
      </trkpt>
      <trkpt lat="42.9025560" lon="-1.2176250">
        <ele>976.299988</ele>
        <time>2018-06-15T13:30:01.000Z</time>
      </trkpt>
      <trkpt lat="42.9016660" lon="-1.2168100">
        <ele>987.100037</ele>
        <time>2018-06-15T13:30:30.000Z</time>
      </trkpt>
      <trkpt lat="42.9015520" lon="-1.2166010">
        <ele>987.500000</ele>
        <time>2018-06-15T13:30:35.000Z</time>
      </trkpt>
      <trkpt lat="42.9015520" lon="-1.2163540">
        <ele>988.099976</ele>
        <time>2018-06-15T13:30:40.000Z</time>
      </trkpt>
      <trkpt lat="42.9016310" lon="-1.2160270">
        <ele>981.900024</ele>
        <time>2018-06-15T13:30:47.000Z</time>
      </trkpt>
      <trkpt lat="42.9016940" lon="-1.2157430">
        <ele>974.899963</ele>
        <time>2018-06-15T13:30:53.000Z</time>
      </trkpt>
      <trkpt lat="42.9016510" lon="-1.2149700">
        <ele>984.700012</ele>
        <time>2018-06-15T13:31:08.000Z</time>
      </trkpt>
      <trkpt lat="42.9016820" lon="-1.2148040">
        <ele>985.200012</ele>
        <time>2018-06-15T13:31:11.000Z</time>
      </trkpt>
      <trkpt lat="42.9017690" lon="-1.2146800">
        <ele>981.500000</ele>
        <time>2018-06-15T13:31:15.000Z</time>
      </trkpt>
      <trkpt lat="42.9018350" lon="-1.2146430">
        <ele>978.399963</ele>
        <time>2018-06-15T13:31:17.000Z</time>
      </trkpt>
      <trkpt lat="42.9019260" lon="-1.2146050">
        <ele>976.099976</ele>
        <time>2018-06-15T13:31:19.000Z</time>
      </trkpt>
      <trkpt lat="42.9020630" lon="-1.2146590">
        <ele>970.500000</ele>
        <time>2018-06-15T13:31:23.000Z</time>
      </trkpt>
      <trkpt lat="42.9023900" lon="-1.2148680">
        <ele>959.500000</ele>
        <time>2018-06-15T13:31:33.000Z</time>
      </trkpt>
      <trkpt lat="42.9024940" lon="-1.2148790">
        <ele>958.000000</ele>
        <time>2018-06-15T13:31:36.000Z</time>
      </trkpt>
      <trkpt lat="42.9047910" lon="-1.2133930">
        <ele>947.200012</ele>
        <time>2018-06-15T13:32:43.000Z</time>
      </trkpt>
      <trkpt lat="42.9048830" lon="-1.2133770">
        <ele>944.400024</ele>
        <time>2018-06-15T13:32:46.000Z</time>
      </trkpt>
      <trkpt lat="42.9052500" lon="-1.2134790">
        <ele>933.199951</ele>
        <time>2018-06-15T13:32:56.000Z</time>
      </trkpt>
      <trkpt lat="42.9058560" lon="-1.2134950">
        <ele>930.299988</ele>
        <time>2018-06-15T13:33:12.000Z</time>
      </trkpt>
      <trkpt lat="42.9063190" lon="-1.2134730">
        <ele>932.699951</ele>
        <time>2018-06-15T13:33:25.000Z</time>
      </trkpt>
      <trkpt lat="42.9068140" lon="-1.2133770">
        <ele>933.299988</ele>
        <time>2018-06-15T13:33:38.000Z</time>
      </trkpt>
      <trkpt lat="42.9073210" lon="-1.2130870">
        <ele>924.899963</ele>
        <time>2018-06-15T13:33:53.000Z</time>
      </trkpt>
      <trkpt lat="42.9075810" lon="-1.2128990">
        <ele>924.200012</ele>
        <time>2018-06-15T13:34:00.000Z</time>
      </trkpt>
      <trkpt lat="42.9078830" lon="-1.2128620">
        <ele>918.500000</ele>
        <time>2018-06-15T13:34:09.000Z</time>
      </trkpt>
      <trkpt lat="42.9082520" lon="-1.2130500">
        <ele>907.299988</ele>
        <time>2018-06-15T13:34:19.000Z</time>
      </trkpt>
      <trkpt lat="42.9084920" lon="-1.2131250">
        <ele>904.699951</ele>
        <time>2018-06-15T13:34:26.000Z</time>
      </trkpt>
      <trkpt lat="42.9089790" lon="-1.2131780">
        <ele>904.400024</ele>
        <time>2018-06-15T13:34:39.000Z</time>
      </trkpt>
      <trkpt lat="42.9095020" lon="-1.2132320">
        <ele>899.899963</ele>
        <time>2018-06-15T13:34:53.000Z</time>
      </trkpt>
      <trkpt lat="42.9096910" lon="-1.2131840">
        <ele>899.899963</ele>
        <time>2018-06-15T13:34:58.000Z</time>
      </trkpt>
      <trkpt lat="42.9098440" lon="-1.2130390">
        <ele>903.000000</ele>
        <time>2018-06-15T13:35:03.000Z</time>
      </trkpt>
      <trkpt lat="42.9099580" lon="-1.2127600">
        <ele>908.600037</ele>
        <time>2018-06-15T13:35:09.000Z</time>
      </trkpt>
      <trkpt lat="42.9100210" lon="-1.2125670">
        <ele>911.600037</ele>
        <time>2018-06-15T13:35:13.000Z</time>
      </trkpt>
      <trkpt lat="42.9101390" lon="-1.2124010">
        <ele>912.100037</ele>
        <time>2018-06-15T13:35:18.000Z</time>
      </trkpt>
      <trkpt lat="42.9105670" lon="-1.2121540">
        <ele>904.699951</ele>
        <time>2018-06-15T13:35:30.000Z</time>
      </trkpt>
      <trkpt lat="42.9114350" lon="-1.2117510">
        <ele>899.600037</ele>
        <time>2018-06-15T13:35:55.000Z</time>
      </trkpt>
      <trkpt lat="42.9115100" lon="-1.2116170">
        <ele>902.299988</ele>
        <time>2018-06-15T13:35:58.000Z</time>
      </trkpt>
      <trkpt lat="42.9116590" lon="-1.2111350">
        <ele>910.000000</ele>
        <time>2018-06-15T13:36:08.000Z</time>
      </trkpt>
      <trkpt lat="42.9117620" lon="-1.2109410">
        <ele>909.800049</ele>
        <time>2018-06-15T13:36:13.000Z</time>
      </trkpt>
      <trkpt lat="42.9118520" lon="-1.2109310">
        <ele>906.599976</ele>
        <time>2018-06-15T13:36:15.000Z</time>
      </trkpt>
      <trkpt lat="42.9119380" lon="-1.2109470">
        <ele>903.700012</ele>
        <time>2018-06-15T13:36:18.000Z</time>
      </trkpt>
      <trkpt lat="42.9120090" lon="-1.2110170">
        <ele>900.300049</ele>
        <time>2018-06-15T13:36:20.000Z</time>
      </trkpt>
      <trkpt lat="42.9120600" lon="-1.2111670">
        <ele>896.100037</ele>
        <time>2018-06-15T13:36:24.000Z</time>
      </trkpt>
      <trkpt lat="42.9123230" lon="-1.2117840">
        <ele>884.399963</ele>
        <time>2018-06-15T13:36:38.000Z</time>
      </trkpt>
      <trkpt lat="42.9124650" lon="-1.2120730">
        <ele>877.399963</ele>
        <time>2018-06-15T13:36:45.000Z</time>
      </trkpt>
      <trkpt lat="42.9126460" lon="-1.2123470">
        <ele>874.600037</ele>
        <time>2018-06-15T13:36:52.000Z</time>
      </trkpt>
      <trkpt lat="42.9129050" lon="-1.2126470">
        <ele>873.200012</ele>
        <time>2018-06-15T13:37:01.000Z</time>
      </trkpt>
      <trkpt lat="42.9130900" lon="-1.2128080">
        <ele>871.399963</ele>
        <time>2018-06-15T13:37:07.000Z</time>
      </trkpt>
      <trkpt lat="42.9132120" lon="-1.2127760">
        <ele>875.200012</ele>
        <time>2018-06-15T13:37:10.000Z</time>
      </trkpt>
      <trkpt lat="42.9133220" lon="-1.2127280">
        <ele>877.799988</ele>
        <time>2018-06-15T13:37:13.000Z</time>
      </trkpt>
      <trkpt lat="42.9137220" lon="-1.2122290">
        <ele>893.299988</ele>
        <time>2018-06-15T13:37:28.000Z</time>
      </trkpt>
      <trkpt lat="42.9139150" lon="-1.2120790">
        <ele>892.099976</ele>
        <time>2018-06-15T13:37:34.000Z</time>
      </trkpt>
      <trkpt lat="42.9140170" lon="-1.2121430">
        <ele>889.500000</ele>
        <time>2018-06-15T13:37:37.000Z</time>
      </trkpt>
      <trkpt lat="42.9140720" lon="-1.2121970">
        <ele>888.700012</ele>
        <time>2018-06-15T13:37:39.000Z</time>
      </trkpt>
      <trkpt lat="42.9141110" lon="-1.2123040">
        <ele>887.599976</ele>
        <time>2018-06-15T13:37:41.000Z</time>
      </trkpt>
      <trkpt lat="42.9140480" lon="-1.2126150">
        <ele>885.400024</ele>
        <time>2018-06-15T13:37:48.000Z</time>
      </trkpt>
      <trkpt lat="42.9138870" lon="-1.2132700">
        <ele>876.099976</ele>
        <time>2018-06-15T13:38:01.000Z</time>
      </trkpt>
      <trkpt lat="42.9138050" lon="-1.2141820">
        <ele>864.099976</ele>
        <time>2018-06-15T13:38:19.000Z</time>
      </trkpt>
      <trkpt lat="42.9138400" lon="-1.2147290">
        <ele>860.900024</ele>
        <time>2018-06-15T13:38:30.000Z</time>
      </trkpt>
      <trkpt lat="42.9140480" lon="-1.2156460">
        <ele>854.699951</ele>
        <time>2018-06-15T13:38:49.000Z</time>
      </trkpt>
      <trkpt lat="42.9145550" lon="-1.2172930">
        <ele>853.300049</ele>
        <time>2018-06-15T13:39:23.000Z</time>
      </trkpt>
      <trkpt lat="42.9146930" lon="-1.2184090">
        <ele>846.200012</ele>
        <time>2018-06-15T13:39:45.000Z</time>
      </trkpt>
      <trkpt lat="42.9149170" lon="-1.2191440">
        <ele>840.500000</ele>
        <time>2018-06-15T13:40:01.000Z</time>
      </trkpt>
      <trkpt lat="42.9151720" lon="-1.2195510">
        <ele>836.700012</ele>
        <time>2018-06-15T13:40:11.000Z</time>
      </trkpt>
      <trkpt lat="42.9156360" lon="-1.2200820">
        <ele>827.600037</ele>
        <time>2018-06-15T13:40:28.000Z</time>
      </trkpt>
      <trkpt lat="42.9160250" lon="-1.2202790">
        <ele>829.299988</ele>
        <time>2018-06-15T13:40:39.000Z</time>
      </trkpt>
      <trkpt lat="42.9162970" lon="-1.2203940">
        <ele>827.500000</ele>
        <time>2018-06-15T13:40:46.000Z</time>
      </trkpt>
      <trkpt lat="42.9165680" lon="-1.2204470">
        <ele>825.700012</ele>
        <time>2018-06-15T13:40:53.000Z</time>
      </trkpt>
      <trkpt lat="42.9167790" lon="-1.2204950">
        <ele>827.500000</ele>
        <time>2018-06-15T13:40:59.000Z</time>
      </trkpt>
      <trkpt lat="42.9169610" lon="-1.2206510">
        <ele>823.699951</ele>
        <time>2018-06-15T13:41:05.000Z</time>
      </trkpt>
      <trkpt lat="42.9173300" lon="-1.2209580">
        <ele>815.000000</ele>
        <time>2018-06-15T13:41:16.000Z</time>
      </trkpt>
      <trkpt lat="42.9177430" lon="-1.2213980">
        <ele>820.000061</ele>
        <time>2018-06-15T13:41:30.000Z</time>
      </trkpt>
      <trkpt lat="42.9185630" lon="-1.2221950">
        <ele>811.700012</ele>
        <time>2018-06-15T13:41:57.000Z</time>
      </trkpt>
      <trkpt lat="42.9190020" lon="-1.2224290">
        <ele>809.800049</ele>
        <time>2018-06-15T13:42:10.000Z</time>
      </trkpt>
      <trkpt lat="42.9196320" lon="-1.2225660">
        <ele>801.799988</ele>
        <time>2018-06-15T13:42:27.000Z</time>
      </trkpt>
      <trkpt lat="42.9200840" lon="-1.2226750">
        <ele>799.399963</ele>
        <time>2018-06-15T13:42:39.000Z</time>
      </trkpt>
      <trkpt lat="42.9201730" lon="-1.2226110">
        <ele>799.899963</ele>
        <time>2018-06-15T13:42:42.000Z</time>
      </trkpt>
      <trkpt lat="42.9203940" lon="-1.2223600">
        <ele>803.300049</ele>
        <time>2018-06-15T13:42:49.000Z</time>
      </trkpt>
      <trkpt lat="42.9206990" lon="-1.2216770">
        <ele>817.600037</ele>
        <time>2018-06-15T13:43:05.000Z</time>
      </trkpt>
      <trkpt lat="42.9207510" lon="-1.2215690">
        <ele>819.400024</ele>
        <time>2018-06-15T13:43:08.000Z</time>
      </trkpt>
      <trkpt lat="42.9208310" lon="-1.2214900">
        <ele>819.300049</ele>
        <time>2018-06-15T13:43:10.000Z</time>
      </trkpt>
      <trkpt lat="42.9210110" lon="-1.2214850">
        <ele>815.800049</ele>
        <time>2018-06-15T13:43:15.000Z</time>
      </trkpt>
      <trkpt lat="42.9211210" lon="-1.2216510">
        <ele>813.200012</ele>
        <time>2018-06-15T13:43:20.000Z</time>
      </trkpt>
      <trkpt lat="42.9211810" lon="-1.2218720">
        <ele>808.799988</ele>
        <time>2018-06-15T13:43:24.000Z</time>
      </trkpt>
      <trkpt lat="42.9211670" lon="-1.2221970">
        <ele>801.699951</ele>
        <time>2018-06-15T13:43:31.000Z</time>
      </trkpt>
      <trkpt lat="42.9211290" lon="-1.2226300">
        <ele>796.200012</ele>
        <time>2018-06-15T13:43:39.000Z</time>
      </trkpt>
      <trkpt lat="42.9211670" lon="-1.2228320">
        <ele>789.199951</ele>
        <time>2018-06-15T13:43:44.000Z</time>
      </trkpt>
      <trkpt lat="42.9212580" lon="-1.2229290">
        <ele>786.400024</ele>
        <time>2018-06-15T13:43:47.000Z</time>
      </trkpt>
      <trkpt lat="42.9214080" lon="-1.2232200">
        <ele>789.099976</ele>
        <time>2018-06-15T13:43:54.000Z</time>
      </trkpt>
      <trkpt lat="42.9214490" lon="-1.2234520">
        <ele>791.700012</ele>
        <time>2018-06-15T13:43:58.000Z</time>
      </trkpt>
      <trkpt lat="42.9214270" lon="-1.2236770">
        <ele>790.599976</ele>
        <time>2018-06-15T13:44:03.000Z</time>
      </trkpt>
      <trkpt lat="42.9213450" lon="-1.2240500">
        <ele>788.099976</ele>
        <time>2018-06-15T13:44:10.000Z</time>
      </trkpt>
      <trkpt lat="42.9213640" lon="-1.2242630">
        <ele>785.099976</ele>
        <time>2018-06-15T13:44:15.000Z</time>
      </trkpt>
      <trkpt lat="42.9214570" lon="-1.2245470">
        <ele>783.400024</ele>
        <time>2018-06-15T13:44:21.000Z</time>
      </trkpt>
      <trkpt lat="42.9217710" lon="-1.2254750">
        <ele>781.000000</ele>
        <time>2018-06-15T13:44:41.000Z</time>
      </trkpt>
      <trkpt lat="42.9222150" lon="-1.2265580">
        <ele>784.900024</ele>
        <time>2018-06-15T13:45:05.000Z</time>
      </trkpt>
      <trkpt lat="42.9224700" lon="-1.2269980">
        <ele>782.799988</ele>
        <time>2018-06-15T13:45:16.000Z</time>
      </trkpt>
      <trkpt lat="42.9227760" lon="-1.2278650">
        <ele>775.799988</ele>
        <time>2018-06-15T13:45:34.000Z</time>
      </trkpt>
      <trkpt lat="42.9229320" lon="-1.2281310">
        <ele>775.399963</ele>
        <time>2018-06-15T13:45:41.000Z</time>
      </trkpt>
      <trkpt lat="42.9230120" lon="-1.2285340">
        <ele>772.400024</ele>
        <time>2018-06-15T13:45:49.000Z</time>
      </trkpt>
      <trkpt lat="42.9231130" lon="-1.2288520">
        <ele>770.600037</ele>
        <time>2018-06-15T13:45:56.000Z</time>
      </trkpt>
      <trkpt lat="42.9233130" lon="-1.2291400">
        <ele>770.000061</ele>
        <time>2018-06-15T13:46:04.000Z</time>
      </trkpt>
      <trkpt lat="42.9234710" lon="-1.2294830">
        <ele>768.700012</ele>
        <time>2018-06-15T13:46:12.000Z</time>
      </trkpt>
      <trkpt lat="42.9236360" lon="-1.2299650">
        <ele>766.499939</ele>
        <time>2018-06-15T13:46:22.000Z</time>
      </trkpt>
      <trkpt lat="42.9239390" lon="-1.2302840">
        <ele>765.299988</ele>
        <time>2018-06-15T13:46:32.000Z</time>
      </trkpt>
      <trkpt lat="42.9241470" lon="-1.2304480">
        <ele>765.599976</ele>
        <time>2018-06-15T13:46:38.000Z</time>
      </trkpt>
      <trkpt lat="42.9243970" lon="-1.2307610">
        <ele>764.299988</ele>
        <time>2018-06-15T13:46:47.000Z</time>
      </trkpt>
      <trkpt lat="42.9247930" lon="-1.2316070">
        <ele>763.099976</ele>
        <time>2018-06-15T13:47:07.000Z</time>
      </trkpt>
      <trkpt lat="42.9249120" lon="-1.2320330">
        <ele>764.000000</ele>
        <time>2018-06-15T13:47:16.000Z</time>
      </trkpt>
      <trkpt lat="42.9250350" lon="-1.2327030">
        <ele>761.500000</ele>
        <time>2018-06-15T13:47:29.000Z</time>
      </trkpt>
      <trkpt lat="42.9251790" lon="-1.2332810">
        <ele>759.900024</ele>
        <time>2018-06-15T13:47:41.000Z</time>
      </trkpt>
      <trkpt lat="42.9253410" lon="-1.2336130">
        <ele>760.000000</ele>
        <time>2018-06-15T13:47:49.000Z</time>
      </trkpt>
      <trkpt lat="42.9256870" lon="-1.2341550">
        <ele>758.600037</ele>
        <time>2018-06-15T13:48:03.000Z</time>
      </trkpt>
      <trkpt lat="42.9263210" lon="-1.2349400">
        <ele>757.400024</ele>
        <time>2018-06-15T13:48:25.000Z</time>
      </trkpt>
      <trkpt lat="42.9269970" lon="-1.2358940">
        <ele>760.900024</ele>
        <time>2018-06-15T13:48:51.000Z</time>
      </trkpt>
      <trkpt lat="42.9274580" lon="-1.2365550">
        <ele>759.300049</ele>
        <time>2018-06-15T13:49:09.000Z</time>
      </trkpt>
      <trkpt lat="42.9278010" lon="-1.2368820">
        <ele>755.500000</ele>
        <time>2018-06-15T13:49:20.000Z</time>
      </trkpt>
      <trkpt lat="42.9279900" lon="-1.2370570">
        <ele>755.600037</ele>
        <time>2018-06-15T13:49:26.000Z</time>
      </trkpt>
      <trkpt lat="42.9281220" lon="-1.2372710">
        <ele>759.700012</ele>
        <time>2018-06-15T13:49:32.000Z</time>
      </trkpt>
      <trkpt lat="42.9281460" lon="-1.2373930">
        <ele>762.000000</ele>
        <time>2018-06-15T13:49:34.000Z</time>
      </trkpt>
      <trkpt lat="42.9281490" lon="-1.2376070">
        <ele>764.000000</ele>
        <time>2018-06-15T13:49:38.000Z</time>
      </trkpt>
      <trkpt lat="42.9279520" lon="-1.2379500">
        <ele>759.500000</ele>
        <time>2018-06-15T13:49:47.000Z</time>
      </trkpt>
      <trkpt lat="42.9277770" lon="-1.2382610">
        <ele>755.299988</ele>
        <time>2018-06-15T13:49:55.000Z</time>
      </trkpt>
      <trkpt lat="42.9276300" lon="-1.2389390">
        <ele>753.500000</ele>
        <time>2018-06-15T13:50:08.000Z</time>
      </trkpt>
      <trkpt lat="42.9274980" lon="-1.2391880">
        <ele>755.799988</ele>
        <time>2018-06-15T13:50:14.000Z</time>
      </trkpt>
      <trkpt lat="42.9271210" lon="-1.2395050">
        <ele>762.899963</ele>
        <time>2018-06-15T13:50:26.000Z</time>
      </trkpt>
      <trkpt lat="42.9267030" lon="-1.2401910">
        <ele>762.100037</ele>
        <time>2018-06-15T13:50:43.000Z</time>
      </trkpt>
      <trkpt lat="42.9265740" lon="-1.2405620">
        <ele>762.899963</ele>
        <time>2018-06-15T13:50:51.000Z</time>
      </trkpt>
      <trkpt lat="42.9265800" lon="-1.2407570">
        <ele>763.799988</ele>
        <time>2018-06-15T13:50:55.000Z</time>
      </trkpt>
      <trkpt lat="42.9266260" lon="-1.2410200">
        <ele>765.299988</ele>
        <time>2018-06-15T13:51:01.000Z</time>
      </trkpt>
      <trkpt lat="42.9266890" lon="-1.2412930">
        <ele>766.700012</ele>
        <time>2018-06-15T13:51:06.000Z</time>
      </trkpt>
      <trkpt lat="42.9267520" lon="-1.2415360">
        <ele>767.899963</ele>
        <time>2018-06-15T13:51:11.000Z</time>
      </trkpt>
      <trkpt lat="42.9268310" lon="-1.2416440">
        <ele>768.800049</ele>
        <time>2018-06-15T13:51:14.000Z</time>
      </trkpt>
      <trkpt lat="42.9270460" lon="-1.2419490">
        <ele>764.500000</ele>
        <time>2018-06-15T13:51:22.000Z</time>
      </trkpt>
      <trkpt lat="42.9272100" lon="-1.2422360">
        <ele>762.399963</ele>
        <time>2018-06-15T13:51:29.000Z</time>
      </trkpt>
      <trkpt lat="42.9272770" lon="-1.2423800">
        <ele>762.399963</ele>
        <time>2018-06-15T13:51:33.000Z</time>
      </trkpt>
      <trkpt lat="42.9273950" lon="-1.2426830">
        <ele>764.099976</ele>
        <time>2018-06-15T13:51:39.000Z</time>
      </trkpt>
      <trkpt lat="42.9274650" lon="-1.2428650">
        <ele>765.000000</ele>
        <time>2018-06-15T13:51:43.000Z</time>
      </trkpt>
      <trkpt lat="42.9275560" lon="-1.2429240">
        <ele>764.299988</ele>
        <time>2018-06-15T13:51:46.000Z</time>
      </trkpt>
      <trkpt lat="42.9277200" lon="-1.2428430">
        <ele>762.000000</ele>
        <time>2018-06-15T13:51:51.000Z</time>
      </trkpt>
      <trkpt lat="42.9278480" lon="-1.2427430">
        <ele>761.199951</ele>
        <time>2018-06-15T13:51:55.000Z</time>
      </trkpt>
      <trkpt lat="42.9279130" lon="-1.2427300">
        <ele>761.000000</ele>
        <time>2018-06-15T13:51:56.000Z</time>
      </trkpt>
      <trkpt lat="42.9279820" lon="-1.2428100">
        <ele>760.500061</ele>
        <time>2018-06-15T13:51:59.000Z</time>
      </trkpt>
      <trkpt lat="42.9281450" lon="-1.2431520">
        <ele>760.200012</ele>
        <time>2018-06-15T13:52:07.000Z</time>
      </trkpt>
      <trkpt lat="42.9282190" lon="-1.2432650">
        <ele>760.599976</ele>
        <time>2018-06-15T13:52:10.000Z</time>
      </trkpt>
      <trkpt lat="42.9282830" lon="-1.2433320">
        <ele>761.799988</ele>
        <time>2018-06-15T13:52:12.000Z</time>
      </trkpt>
      <trkpt lat="42.9284650" lon="-1.2435110">
        <ele>764.899963</ele>
        <time>2018-06-15T13:52:18.000Z</time>
      </trkpt>
      <trkpt lat="42.9289150" lon="-1.2438420">
        <ele>773.900024</ele>
        <time>2018-06-15T13:52:32.000Z</time>
      </trkpt>
      <trkpt lat="42.9289750" lon="-1.2438830">
        <ele>774.500000</ele>
        <time>2018-06-15T13:52:33.000Z</time>
      </trkpt>
      <trkpt lat="42.9290760" lon="-1.2438910">
        <ele>775.200012</ele>
        <time>2018-06-15T13:52:36.000Z</time>
      </trkpt>
      <trkpt lat="42.9292180" lon="-1.2438310">
        <ele>775.700012</ele>
        <time>2018-06-15T13:52:40.000Z</time>
      </trkpt>
      <trkpt lat="42.9293790" lon="-1.2437560">
        <ele>777.100037</ele>
        <time>2018-06-15T13:52:44.000Z</time>
      </trkpt>
      <trkpt lat="42.9294500" lon="-1.2437680">
        <ele>778.099976</ele>
        <time>2018-06-15T13:52:46.000Z</time>
      </trkpt>
      <trkpt lat="42.9294830" lon="-1.2437880">
        <ele>778.500000</ele>
        <time>2018-06-15T13:52:47.000Z</time>
      </trkpt>
      <trkpt lat="42.9297740" lon="-1.2440050">
        <ele>780.500000</ele>
        <time>2018-06-15T13:52:56.000Z</time>
      </trkpt>
      <trkpt lat="42.9298470" lon="-1.2441070">
        <ele>781.700012</ele>
        <time>2018-06-15T13:52:59.000Z</time>
      </trkpt>
      <trkpt lat="42.9299040" lon="-1.2441180">
        <ele>781.900024</ele>
        <time>2018-06-15T13:53:00.000Z</time>
      </trkpt>
      <trkpt lat="42.9299510" lon="-1.2440990">
        <ele>781.700012</ele>
        <time>2018-06-15T13:53:02.000Z</time>
      </trkpt>
      <trkpt lat="42.9300530" lon="-1.2440640">
        <ele>781.300049</ele>
        <time>2018-06-15T13:53:05.000Z</time>
      </trkpt>
      <trkpt lat="42.9302520" lon="-1.2440730">
        <ele>781.100037</ele>
        <time>2018-06-15T13:53:10.000Z</time>
      </trkpt>
      <trkpt lat="42.9306810" lon="-1.2441220">
        <ele>779.400024</ele>
        <time>2018-06-15T13:53:21.000Z</time>
      </trkpt>
      <trkpt lat="42.9307700" lon="-1.2441330">
        <ele>777.500000</ele>
        <time>2018-06-15T13:53:24.000Z</time>
      </trkpt>
      <trkpt lat="42.9311660" lon="-1.2443790">
        <ele>772.700012</ele>
        <time>2018-06-15T13:53:35.000Z</time>
      </trkpt>
      <trkpt lat="42.9319030" lon="-1.2445460">
        <ele>766.700012</ele>
        <time>2018-06-15T13:53:55.000Z</time>
      </trkpt>
      <trkpt lat="42.9326720" lon="-1.2448000">
        <ele>763.000000</ele>
        <time>2018-06-15T13:54:16.000Z</time>
      </trkpt>
      <trkpt lat="42.9336800" lon="-1.2452620">
        <ele>769.799988</ele>
        <time>2018-06-15T13:54:44.000Z</time>
      </trkpt>
      <trkpt lat="42.9340630" lon="-1.2453720">
        <ele>769.700012</ele>
        <time>2018-06-15T13:54:55.000Z</time>
      </trkpt>
      <trkpt lat="42.9343060" lon="-1.2453900">
        <ele>769.099976</ele>
        <time>2018-06-15T13:55:01.000Z</time>
      </trkpt>
      <trkpt lat="42.9344360" lon="-1.2452710">
        <ele>767.000000</ele>
        <time>2018-06-15T13:55:05.000Z</time>
      </trkpt>
      <trkpt lat="42.9346460" lon="-1.2450640">
        <ele>766.299988</ele>
        <time>2018-06-15T13:55:12.000Z</time>
      </trkpt>
      <trkpt lat="42.9347910" lon="-1.2449250">
        <ele>764.400024</ele>
        <time>2018-06-15T13:55:17.000Z</time>
      </trkpt>
      <trkpt lat="42.9348630" lon="-1.2449070">
        <ele>764.500000</ele>
        <time>2018-06-15T13:55:19.000Z</time>
      </trkpt>
      <trkpt lat="42.9349230" lon="-1.2448950">
        <ele>765.299988</ele>
        <time>2018-06-15T13:55:21.000Z</time>
      </trkpt>
      <trkpt lat="42.9351070" lon="-1.2449760">
        <ele>769.500000</ele>
        <time>2018-06-15T13:55:26.000Z</time>
      </trkpt>
      <trkpt lat="42.9352430" lon="-1.2450340">
        <ele>770.099976</ele>
        <time>2018-06-15T13:55:30.000Z</time>
      </trkpt>
      <trkpt lat="42.9354380" lon="-1.2452380">
        <ele>770.000061</ele>
        <time>2018-06-15T13:55:36.000Z</time>
      </trkpt>
      <trkpt lat="42.9355650" lon="-1.2454840">
        <ele>767.899963</ele>
        <time>2018-06-15T13:55:42.000Z</time>
      </trkpt>
      <trkpt lat="42.9361690" lon="-1.2467230">
        <ele>770.200012</ele>
        <time>2018-06-15T13:56:11.000Z</time>
      </trkpt>
      <trkpt lat="42.9367010" lon="-1.2476270">
        <ele>763.700012</ele>
        <time>2018-06-15T13:56:33.000Z</time>
      </trkpt>
      <trkpt lat="42.9370520" lon="-1.2485060">
        <ele>756.700012</ele>
        <time>2018-06-15T13:56:53.000Z</time>
      </trkpt>
      <trkpt lat="42.9374520" lon="-1.2496280">
        <ele>758.899963</ele>
        <time>2018-06-15T13:57:17.000Z</time>
      </trkpt>
      <trkpt lat="42.9378040" lon="-1.2505980">
        <ele>754.799988</ele>
        <time>2018-06-15T13:57:38.000Z</time>
      </trkpt>
      <trkpt lat="42.9381370" lon="-1.2510410">
        <ele>752.199951</ele>
        <time>2018-06-15T13:57:51.000Z</time>
      </trkpt>
      <trkpt lat="42.9383110" lon="-1.2513810">
        <ele>750.900024</ele>
        <time>2018-06-15T13:57:59.000Z</time>
      </trkpt>
      <trkpt lat="42.9387280" lon="-1.2521040">
        <ele>744.500000</ele>
        <time>2018-06-15T13:58:17.000Z</time>
      </trkpt>
      <trkpt lat="42.9393220" lon="-1.2527000">
        <ele>746.399963</ele>
        <time>2018-06-15T13:58:36.000Z</time>
      </trkpt>
      <trkpt lat="42.9397780" lon="-1.2530550">
        <ele>747.300049</ele>
        <time>2018-06-15T13:58:50.000Z</time>
      </trkpt>
      <trkpt lat="42.9401420" lon="-1.2533510">
        <ele>746.899963</ele>
        <time>2018-06-15T13:59:01.000Z</time>
      </trkpt>
      <trkpt lat="42.9405480" lon="-1.2534010">
        <ele>740.100037</ele>
        <time>2018-06-15T13:59:12.000Z</time>
      </trkpt>
      <trkpt lat="42.9408200" lon="-1.2535160">
        <ele>735.099976</ele>
        <time>2018-06-15T13:59:20.000Z</time>
      </trkpt>
      <trkpt lat="42.9411820" lon="-1.2536280">
        <ele>729.200012</ele>
        <time>2018-06-15T13:59:30.000Z</time>
      </trkpt>
      <trkpt lat="42.9413650" lon="-1.2538070">
        <ele>731.399963</ele>
        <time>2018-06-15T13:59:36.000Z</time>
      </trkpt>
      <trkpt lat="42.9416380" lon="-1.2540140">
        <ele>732.000000</ele>
        <time>2018-06-15T13:59:44.000Z</time>
      </trkpt>
      <trkpt lat="42.9417310" lon="-1.2541640">
        <ele>731.300049</ele>
        <time>2018-06-15T13:59:48.000Z</time>
      </trkpt>
      <trkpt lat="42.9417790" lon="-1.2543470">
        <ele>731.800049</ele>
        <time>2018-06-15T13:59:52.000Z</time>
      </trkpt>
      <trkpt lat="42.9417810" lon="-1.2545000">
        <ele>732.099976</ele>
        <time>2018-06-15T13:59:55.000Z</time>
      </trkpt>
      <trkpt lat="42.9417630" lon="-1.2547760">
        <ele>730.199951</ele>
        <time>2018-06-15T14:00:00.000Z</time>
      </trkpt>
      <trkpt lat="42.9416550" lon="-1.2551160">
        <ele>732.299988</ele>
        <time>2018-06-15T14:00:07.000Z</time>
      </trkpt>
      <trkpt lat="42.9414780" lon="-1.2552740">
        <ele>735.000000</ele>
        <time>2018-06-15T14:00:13.000Z</time>
      </trkpt>
      <trkpt lat="42.9413460" lon="-1.2555230">
        <ele>733.899963</ele>
        <time>2018-06-15T14:00:19.000Z</time>
      </trkpt>
      <trkpt lat="42.9413060" lon="-1.2558610">
        <ele>730.700012</ele>
        <time>2018-06-15T14:00:26.000Z</time>
      </trkpt>
      <trkpt lat="42.9412200" lon="-1.2560780">
        <ele>728.599976</ele>
        <time>2018-06-15T14:00:30.000Z</time>
      </trkpt>
      <trkpt lat="42.9409540" lon="-1.2563920">
        <ele>721.700012</ele>
        <time>2018-06-15T14:00:40.000Z</time>
      </trkpt>
      <trkpt lat="42.9408230" lon="-1.2566410">
        <ele>721.700012</ele>
        <time>2018-06-15T14:00:46.000Z</time>
      </trkpt>
      <trkpt lat="42.9408060" lon="-1.2570090">
        <ele>720.099976</ele>
        <time>2018-06-15T14:00:53.000Z</time>
      </trkpt>
      <trkpt lat="42.9408550" lon="-1.2572530">
        <ele>720.699951</ele>
        <time>2018-06-15T14:00:58.000Z</time>
      </trkpt>
      <trkpt lat="42.9410660" lon="-1.2577990">
        <ele>721.700012</ele>
        <time>2018-06-15T14:01:10.000Z</time>
      </trkpt>
      <trkpt lat="42.9413470" lon="-1.2584950">
        <ele>722.400024</ele>
        <time>2018-06-15T14:01:25.000Z</time>
      </trkpt>
      <trkpt lat="42.9417080" lon="-1.2593400">
        <ele>717.099976</ele>
        <time>2018-06-15T14:01:44.000Z</time>
      </trkpt>
      <trkpt lat="42.9418140" lon="-1.2595440">
        <ele>714.899963</ele>
        <time>2018-06-15T14:01:49.000Z</time>
      </trkpt>
      <trkpt lat="42.9418930" lon="-1.2597160">
        <ele>712.899963</ele>
        <time>2018-06-15T14:01:53.000Z</time>
      </trkpt>
      <trkpt lat="42.9419160" lon="-1.2598870">
        <ele>711.000000</ele>
        <time>2018-06-15T14:01:57.000Z</time>
      </trkpt>
      <trkpt lat="42.9418820" lon="-1.2611150">
        <ele>712.700012</ele>
        <time>2018-06-15T14:02:20.000Z</time>
      </trkpt>
      <trkpt lat="42.9419040" lon="-1.2612440">
        <ele>711.699951</ele>
        <time>2018-06-15T14:02:23.000Z</time>
      </trkpt>
      <trkpt lat="42.9419290" lon="-1.2612670">
        <ele>710.500061</ele>
        <time>2018-06-15T14:02:24.000Z</time>
      </trkpt>
      <trkpt lat="42.9423770" lon="-1.2611400">
        <ele>700.399963</ele>
        <time>2018-06-15T14:02:36.000Z</time>
      </trkpt>
      <trkpt lat="42.9424440" lon="-1.2611000">
        <ele>700.700012</ele>
        <time>2018-06-15T14:02:38.000Z</time>
      </trkpt>
      <trkpt lat="42.9424690" lon="-1.2611020">
        <ele>700.700012</ele>
        <time>2018-06-15T14:02:39.000Z</time>
      </trkpt>
      <trkpt lat="42.9424910" lon="-1.2611080">
        <ele>700.700012</ele>
        <time>2018-06-15T14:02:39.000Z</time>
      </trkpt>
      <trkpt lat="42.9424990" lon="-1.2611320">
        <ele>700.700012</ele>
        <time>2018-06-15T14:02:40.000Z</time>
      </trkpt>
      <trkpt lat="42.9424990" lon="-1.2611590">
        <ele>700.700012</ele>
        <time>2018-06-15T14:02:40.000Z</time>
      </trkpt>
      <trkpt lat="42.9424820" lon="-1.2612020">
        <ele>700.500000</ele>
        <time>2018-06-15T14:02:41.000Z</time>
      </trkpt>
      <trkpt lat="42.9424540" lon="-1.2613520">
        <ele>700.200012</ele>
        <time>2018-06-15T14:02:44.000Z</time>
      </trkpt>
      <trkpt lat="42.9424730" lon="-1.2614970">
        <ele>700.200012</ele>
        <time>2018-06-15T14:02:47.000Z</time>
      </trkpt>
      <trkpt lat="42.9425450" lon="-1.2618010">
        <ele>700.700012</ele>
        <time>2018-06-15T14:02:53.000Z</time>
      </trkpt>
      <trkpt lat="42.9426070" lon="-1.2620330">
        <ele>697.700012</ele>
        <time>2018-06-15T14:02:58.000Z</time>
      </trkpt>
      <trkpt lat="42.9426630" lon="-1.2621350">
        <ele>697.500000</ele>
        <time>2018-06-15T14:03:01.000Z</time>
      </trkpt>
      <trkpt lat="42.9427540" lon="-1.2622250">
        <ele>699.299988</ele>
        <time>2018-06-15T14:03:04.000Z</time>
      </trkpt>
      <trkpt lat="42.9428050" lon="-1.2622990">
        <ele>700.099976</ele>
        <time>2018-06-15T14:03:06.000Z</time>
      </trkpt>
      <trkpt lat="42.9428740" lon="-1.2625450">
        <ele>700.200012</ele>
        <time>2018-06-15T14:03:11.000Z</time>
      </trkpt>
      <trkpt lat="42.9429740" lon="-1.2627280">
        <ele>700.000000</ele>
        <time>2018-06-15T14:03:15.000Z</time>
      </trkpt>
      <trkpt lat="42.9431880" lon="-1.2630310">
        <ele>698.599976</ele>
        <time>2018-06-15T14:03:23.000Z</time>
      </trkpt>
      <trkpt lat="42.9434020" lon="-1.2632130">
        <ele>700.799988</ele>
        <time>2018-06-15T14:03:30.000Z</time>
      </trkpt>
      <trkpt lat="42.9436910" lon="-1.2634010">
        <ele>701.400024</ele>
        <time>2018-06-15T14:03:39.000Z</time>
      </trkpt>
      <trkpt lat="42.9440420" lon="-1.2636990">
        <ele>698.699951</ele>
        <time>2018-06-15T14:03:50.000Z</time>
      </trkpt>
      <trkpt lat="42.9449240" lon="-1.2644440">
        <ele>698.099976</ele>
        <time>2018-06-15T14:04:17.000Z</time>
      </trkpt>
      <trkpt lat="42.9453880" lon="-1.2648680">
        <ele>703.000000</ele>
        <time>2018-06-15T14:04:32.000Z</time>
      </trkpt>
      <trkpt lat="42.9456150" lon="-1.2652810">
        <ele>703.500000</ele>
        <time>2018-06-15T14:04:42.000Z</time>
      </trkpt>
      <trkpt lat="42.9457100" lon="-1.2656140">
        <ele>702.700012</ele>
        <time>2018-06-15T14:04:49.000Z</time>
      </trkpt>
      <trkpt lat="42.9458040" lon="-1.2660050">
        <ele>705.100037</ele>
        <time>2018-06-15T14:04:57.000Z</time>
      </trkpt>
      <trkpt lat="42.9458710" lon="-1.2668050">
        <ele>712.599976</ele>
        <time>2018-06-15T14:05:13.000Z</time>
      </trkpt>
      <trkpt lat="42.9458670" lon="-1.2680440">
        <ele>719.200012</ele>
        <time>2018-06-15T14:05:37.000Z</time>
      </trkpt>
      <trkpt lat="42.9458080" lon="-1.2683500">
        <ele>719.099976</ele>
        <time>2018-06-15T14:05:43.000Z</time>
      </trkpt>
      <trkpt lat="42.9457220" lon="-1.2686930">
        <ele>727.700012</ele>
        <time>2018-06-15T14:05:50.000Z</time>
      </trkpt>
      <trkpt lat="42.9455410" lon="-1.2690790">
        <ele>736.600037</ele>
        <time>2018-06-15T14:05:59.000Z</time>
      </trkpt>
      <trkpt lat="42.9453290" lon="-1.2692450">
        <ele>738.900024</ele>
        <time>2018-06-15T14:06:06.000Z</time>
      </trkpt>
      <trkpt lat="42.9451330" lon="-1.2692880">
        <ele>738.299988</ele>
        <time>2018-06-15T14:06:11.000Z</time>
      </trkpt>
      <trkpt lat="42.9449920" lon="-1.2693530">
        <ele>737.200012</ele>
        <time>2018-06-15T14:06:15.000Z</time>
      </trkpt>
      <trkpt lat="42.9448880" lon="-1.2694150">
        <ele>736.699951</ele>
        <time>2018-06-15T14:06:18.000Z</time>
      </trkpt>
      <trkpt lat="42.9446690" lon="-1.2696400">
        <ele>743.899963</ele>
        <time>2018-06-15T14:06:26.000Z</time>
      </trkpt>
      <trkpt lat="42.9445910" lon="-1.2696640">
        <ele>745.400024</ele>
        <time>2018-06-15T14:06:28.000Z</time>
      </trkpt>
      <trkpt lat="42.9444580" lon="-1.2696210">
        <ele>748.400024</ele>
        <time>2018-06-15T14:06:31.000Z</time>
      </trkpt>
      <trkpt lat="42.9441280" lon="-1.2694280">
        <ele>748.900024</ele>
        <time>2018-06-15T14:06:41.000Z</time>
      </trkpt>
      <trkpt lat="42.9438830" lon="-1.2693070">
        <ele>745.000061</ele>
        <time>2018-06-15T14:06:48.000Z</time>
      </trkpt>
      <trkpt lat="42.9436330" lon="-1.2692880">
        <ele>743.899963</ele>
        <time>2018-06-15T14:06:55.000Z</time>
      </trkpt>
      <trkpt lat="42.9433580" lon="-1.2693310">
        <ele>741.900024</ele>
        <time>2018-06-15T14:07:02.000Z</time>
      </trkpt>
      <trkpt lat="42.9431540" lon="-1.2694600">
        <ele>740.299988</ele>
        <time>2018-06-15T14:07:08.000Z</time>
      </trkpt>
      <trkpt lat="42.9430590" lon="-1.2695860">
        <ele>740.599976</ele>
        <time>2018-06-15T14:07:11.000Z</time>
      </trkpt>
      <trkpt lat="42.9429890" lon="-1.2697280">
        <ele>738.900024</ele>
        <time>2018-06-15T14:07:15.000Z</time>
      </trkpt>
      <trkpt lat="42.9429370" lon="-1.2698920">
        <ele>737.599976</ele>
        <time>2018-06-15T14:07:18.000Z</time>
      </trkpt>
      <trkpt lat="42.9429330" lon="-1.2702030">
        <ele>743.899963</ele>
        <time>2018-06-15T14:07:25.000Z</time>
      </trkpt>
      <trkpt lat="42.9429530" lon="-1.2710350">
        <ele>751.500000</ele>
        <time>2018-06-15T14:07:41.000Z</time>
      </trkpt>
      <trkpt lat="42.9429250" lon="-1.2712060">
        <ele>752.799988</ele>
        <time>2018-06-15T14:07:44.000Z</time>
      </trkpt>
      <trkpt lat="42.9427930" lon="-1.2716920">
        <ele>748.900024</ele>
        <time>2018-06-15T14:07:54.000Z</time>
      </trkpt>
      <trkpt lat="42.9427640" lon="-1.2718290">
        <ele>748.600037</ele>
        <time>2018-06-15T14:07:57.000Z</time>
      </trkpt>
      <trkpt lat="42.9427330" lon="-1.2727090">
        <ele>762.899963</ele>
        <time>2018-06-15T14:08:14.000Z</time>
      </trkpt>
      <trkpt lat="42.9425970" lon="-1.2733330">
        <ele>764.099976</ele>
        <time>2018-06-15T14:08:27.000Z</time>
      </trkpt>
      <trkpt lat="42.9425730" lon="-1.2736010">
        <ele>769.400024</ele>
        <time>2018-06-15T14:08:33.000Z</time>
      </trkpt>
      <trkpt lat="42.9425400" lon="-1.2738350">
        <ele>777.899963</ele>
        <time>2018-06-15T14:08:38.000Z</time>
      </trkpt>
      <trkpt lat="42.9424740" lon="-1.2740120">
        <ele>783.199951</ele>
        <time>2018-06-15T14:08:42.000Z</time>
      </trkpt>
      <trkpt lat="42.9423680" lon="-1.2742160">
        <ele>782.700012</ele>
        <time>2018-06-15T14:08:46.000Z</time>
      </trkpt>
      <trkpt lat="42.9419370" lon="-1.2746290">
        <ele>783.500000</ele>
        <time>2018-06-15T14:09:00.000Z</time>
      </trkpt>
      <trkpt lat="42.9416260" lon="-1.2748330">
        <ele>775.900024</ele>
        <time>2018-06-15T14:09:10.000Z</time>
      </trkpt>
      <trkpt lat="42.9415360" lon="-1.2749030">
        <ele>773.000061</ele>
        <time>2018-06-15T14:09:13.000Z</time>
      </trkpt>
      <trkpt lat="42.9414810" lon="-1.2750470">
        <ele>768.800049</ele>
        <time>2018-06-15T14:09:16.000Z</time>
      </trkpt>
      <trkpt lat="42.9414620" lon="-1.2751490">
        <ele>766.799988</ele>
        <time>2018-06-15T14:09:18.000Z</time>
      </trkpt>
      <trkpt lat="42.9414970" lon="-1.2752640">
        <ele>767.000000</ele>
        <time>2018-06-15T14:09:20.000Z</time>
      </trkpt>
      <trkpt lat="42.9415960" lon="-1.2753850">
        <ele>770.000061</ele>
        <time>2018-06-15T14:09:24.000Z</time>
      </trkpt>
      <trkpt lat="42.9419650" lon="-1.2757450">
        <ele>781.000000</ele>
        <time>2018-06-15T14:09:36.000Z</time>
      </trkpt>
      <trkpt lat="42.9423770" lon="-1.2763590">
        <ele>792.099976</ele>
        <time>2018-06-15T14:09:53.000Z</time>
      </trkpt>
      <trkpt lat="42.9425540" lon="-1.2767430">
        <ele>798.400024</ele>
        <time>2018-06-15T14:10:02.000Z</time>
      </trkpt>
      <trkpt lat="42.9426410" lon="-1.2771070">
        <ele>798.200012</ele>
        <time>2018-06-15T14:10:09.000Z</time>
      </trkpt>
      <trkpt lat="42.9426510" lon="-1.2773890">
        <ele>799.899963</ele>
        <time>2018-06-15T14:10:15.000Z</time>
      </trkpt>
      <trkpt lat="42.9425970" lon="-1.2776570">
        <ele>801.299988</ele>
        <time>2018-06-15T14:10:20.000Z</time>
      </trkpt>
      <trkpt lat="42.9424240" lon="-1.2780650">
        <ele>808.799988</ele>
        <time>2018-06-15T14:10:29.000Z</time>
      </trkpt>
      <trkpt lat="42.9422040" lon="-1.2784400">
        <ele>816.700012</ele>
        <time>2018-06-15T14:10:39.000Z</time>
      </trkpt>
      <trkpt lat="42.9419290" lon="-1.2786010">
        <ele>807.299988</ele>
        <time>2018-06-15T14:10:47.000Z</time>
      </trkpt>
      <trkpt lat="42.9417730" lon="-1.2788940">
        <ele>809.900024</ele>
        <time>2018-06-15T14:10:54.000Z</time>
      </trkpt>
      <trkpt lat="42.9415990" lon="-1.2790300">
        <ele>809.100037</ele>
        <time>2018-06-15T14:10:59.000Z</time>
      </trkpt>
      <trkpt lat="42.9413790" lon="-1.2791370">
        <ele>810.599976</ele>
        <time>2018-06-15T14:11:06.000Z</time>
      </trkpt>
      <trkpt lat="42.9412900" lon="-1.2792640">
        <ele>813.299988</ele>
        <time>2018-06-15T14:11:09.000Z</time>
      </trkpt>
      <trkpt lat="42.9412690" lon="-1.2793950">
        <ele>816.000000</ele>
        <time>2018-06-15T14:11:12.000Z</time>
      </trkpt>
      <trkpt lat="42.9413400" lon="-1.2800170">
        <ele>823.900024</ele>
        <time>2018-06-15T14:11:24.000Z</time>
      </trkpt>
      <trkpt lat="42.9413180" lon="-1.2803900">
        <ele>827.100037</ele>
        <time>2018-06-15T14:11:31.000Z</time>
      </trkpt>
      <trkpt lat="42.9413320" lon="-1.2808970">
        <ele>828.900024</ele>
        <time>2018-06-15T14:11:41.000Z</time>
      </trkpt>
      <trkpt lat="42.9413640" lon="-1.2812190">
        <ele>830.899963</ele>
        <time>2018-06-15T14:11:48.000Z</time>
      </trkpt>
      <trkpt lat="42.9414200" lon="-1.2815080">
        <ele>837.800049</ele>
        <time>2018-06-15T14:11:54.000Z</time>
      </trkpt>
      <trkpt lat="42.9414640" lon="-1.2816300">
        <ele>841.499939</ele>
        <time>2018-06-15T14:11:56.000Z</time>
      </trkpt>
      <trkpt lat="42.9415280" lon="-1.2817230">
        <ele>843.700012</ele>
        <time>2018-06-15T14:11:59.000Z</time>
      </trkpt>
      <trkpt lat="42.9416700" lon="-1.2818630">
        <ele>847.300049</ele>
        <time>2018-06-15T14:12:04.000Z</time>
      </trkpt>
      <trkpt lat="42.9418350" lon="-1.2819050">
        <ele>846.899963</ele>
        <time>2018-06-15T14:12:08.000Z</time>
      </trkpt>
      <trkpt lat="42.9420310" lon="-1.2818840">
        <ele>846.200012</ele>
        <time>2018-06-15T14:12:13.000Z</time>
      </trkpt>
      <trkpt lat="42.9423450" lon="-1.2817870">
        <ele>848.200012</ele>
        <time>2018-06-15T14:12:22.000Z</time>
      </trkpt>
      <trkpt lat="42.9425890" lon="-1.2817870">
        <ele>848.600037</ele>
        <time>2018-06-15T14:12:28.000Z</time>
      </trkpt>
      <trkpt lat="42.9427770" lon="-1.2818840">
        <ele>847.400024</ele>
        <time>2018-06-15T14:12:34.000Z</time>
      </trkpt>
      <trkpt lat="42.9429420" lon="-1.2820660">
        <ele>843.800049</ele>
        <time>2018-06-15T14:12:39.000Z</time>
      </trkpt>
      <trkpt lat="42.9434840" lon="-1.2830310">
        <ele>850.400024</ele>
        <time>2018-06-15T14:13:03.000Z</time>
      </trkpt>
      <trkpt lat="42.9437430" lon="-1.2832570">
        <ele>849.500000</ele>
        <time>2018-06-15T14:13:11.000Z</time>
      </trkpt>
      <trkpt lat="42.9439790" lon="-1.2834290">
        <ele>846.899963</ele>
        <time>2018-06-15T14:13:18.000Z</time>
      </trkpt>
      <trkpt lat="42.9445150" lon="-1.2837560">
        <ele>840.700012</ele>
        <time>2018-06-15T14:13:34.000Z</time>
      </trkpt>
      <trkpt lat="42.9447590" lon="-1.2840140">
        <ele>844.799988</ele>
        <time>2018-06-15T14:13:42.000Z</time>
      </trkpt>
      <trkpt lat="42.9448570" lon="-1.2841690">
        <ele>844.200012</ele>
        <time>2018-06-15T14:13:46.000Z</time>
      </trkpt>
      <trkpt lat="42.9456420" lon="-1.2856770">
        <ele>846.100037</ele>
        <time>2018-06-15T14:14:22.000Z</time>
      </trkpt>
      <trkpt lat="42.9461880" lon="-1.2866910">
        <ele>843.200012</ele>
        <time>2018-06-15T14:14:47.000Z</time>
      </trkpt>
      <trkpt lat="42.9462940" lon="-1.2867010">
        <ele>842.899963</ele>
        <time>2018-06-15T14:14:49.000Z</time>
      </trkpt>
      <trkpt lat="42.9463960" lon="-1.2866690">
        <ele>842.799988</ele>
        <time>2018-06-15T14:14:52.000Z</time>
      </trkpt>
      <trkpt lat="42.9466670" lon="-1.2865620">
        <ele>842.199951</ele>
        <time>2018-06-15T14:15:00.000Z</time>
      </trkpt>
      <trkpt lat="42.9467450" lon="-1.2864060">
        <ele>841.400024</ele>
        <time>2018-06-15T14:15:03.000Z</time>
      </trkpt>
      <trkpt lat="42.9467650" lon="-1.2862290">
        <ele>840.899963</ele>
        <time>2018-06-15T14:15:07.000Z</time>
      </trkpt>
      <trkpt lat="42.9467330" lon="-1.2860840">
        <ele>840.000000</ele>
        <time>2018-06-15T14:15:10.000Z</time>
      </trkpt>
      <trkpt lat="42.9467810" lon="-1.2859560">
        <ele>839.199951</ele>
        <time>2018-06-15T14:15:13.000Z</time>
      </trkpt>
      <trkpt lat="42.9468750" lon="-1.2858640">
        <ele>841.599976</ele>
        <time>2018-06-15T14:15:16.000Z</time>
      </trkpt>
      <trkpt lat="42.9471730" lon="-1.2858000">
        <ele>847.099976</ele>
        <time>2018-06-15T14:15:24.000Z</time>
      </trkpt>
      <trkpt lat="42.9474680" lon="-1.2857730">
        <ele>849.299988</ele>
        <time>2018-06-15T14:15:32.000Z</time>
      </trkpt>
      <trkpt lat="42.9479350" lon="-1.2861760">
        <ele>849.600037</ele>
        <time>2018-06-15T14:15:46.000Z</time>
      </trkpt>
      <trkpt lat="42.9480880" lon="-1.2862400">
        <ele>850.599976</ele>
        <time>2018-06-15T14:15:51.000Z</time>
      </trkpt>
      <trkpt lat="42.9481550" lon="-1.2862630">
        <ele>851.500000</ele>
        <time>2018-06-15T14:15:52.000Z</time>
      </trkpt>
      <trkpt lat="42.9482180" lon="-1.2863410">
        <ele>852.899963</ele>
        <time>2018-06-15T14:15:55.000Z</time>
      </trkpt>
      <trkpt lat="42.9482400" lon="-1.2864790">
        <ele>853.599976</ele>
        <time>2018-06-15T14:15:57.000Z</time>
      </trkpt>
      <trkpt lat="42.9482730" lon="-1.2865230">
        <ele>853.399963</ele>
        <time>2018-06-15T14:15:59.000Z</time>
      </trkpt>
      <trkpt lat="42.9484020" lon="-1.2864490">
        <ele>853.599976</ele>
        <time>2018-06-15T14:16:02.000Z</time>
      </trkpt>
      <trkpt lat="42.9484870" lon="-1.2864350">
        <ele>853.999939</ele>
        <time>2018-06-15T14:16:05.000Z</time>
      </trkpt>
      <trkpt lat="42.9485470" lon="-1.2864540">
        <ele>853.700012</ele>
        <time>2018-06-15T14:16:06.000Z</time>
      </trkpt>
      <trkpt lat="42.9485830" lon="-1.2864800">
        <ele>853.399963</ele>
        <time>2018-06-15T14:16:07.000Z</time>
      </trkpt>
      <trkpt lat="42.9486060" lon="-1.2865300">
        <ele>852.899963</ele>
        <time>2018-06-15T14:16:09.000Z</time>
      </trkpt>
      <trkpt lat="42.9485710" lon="-1.2866850">
        <ele>851.200012</ele>
        <time>2018-06-15T14:16:12.000Z</time>
      </trkpt>
      <trkpt lat="42.9485430" lon="-1.2868730">
        <ele>849.399963</ele>
        <time>2018-06-15T14:16:15.000Z</time>
      </trkpt>
      <trkpt lat="42.9485510" lon="-1.2870120">
        <ele>848.099976</ele>
        <time>2018-06-15T14:16:18.000Z</time>
      </trkpt>
      <trkpt lat="42.9487750" lon="-1.2875110">
        <ele>842.799988</ele>
        <time>2018-06-15T14:16:30.000Z</time>
      </trkpt>
      <trkpt lat="42.9491320" lon="-1.2881980">
        <ele>839.400024</ele>
        <time>2018-06-15T14:16:46.000Z</time>
      </trkpt>
      <trkpt lat="42.9499780" lon="-1.2907510">
        <ele>847.200012</ele>
        <time>2018-06-15T14:17:40.000Z</time>
      </trkpt>
      <trkpt lat="42.9512810" lon="-1.2945490">
        <ele>844.900024</ele>
        <time>2018-06-15T14:19:02.000Z</time>
      </trkpt>
      <trkpt lat="42.9532650" lon="-1.3004340">
        <ele>860.099976</ele>
        <time>2018-06-15T14:21:08.000Z</time>
      </trkpt>
      <trkpt lat="42.9533100" lon="-1.3006950">
        <ele>858.400024</ele>
        <time>2018-06-15T14:21:13.000Z</time>
      </trkpt>
      <trkpt lat="42.9533390" lon="-1.3010140">
        <ele>856.999939</ele>
        <time>2018-06-15T14:21:19.000Z</time>
      </trkpt>
      <trkpt lat="42.9535470" lon="-1.3034870">
        <ele>865.899963</ele>
        <time>2018-06-15T14:22:07.000Z</time>
      </trkpt>
      <trkpt lat="42.9538930" lon="-1.3076650">
        <ele>883.700012</ele>
        <time>2018-06-15T14:23:29.000Z</time>
      </trkpt>
      <trkpt lat="42.9538660" lon="-1.3078690">
        <ele>884.599976</ele>
        <time>2018-06-15T14:23:33.000Z</time>
      </trkpt>
      <trkpt lat="42.9537470" lon="-1.3081190">
        <ele>884.700012</ele>
        <time>2018-06-15T14:23:39.000Z</time>
      </trkpt>
      <trkpt lat="42.9537160" lon="-1.3082770">
        <ele>884.800049</ele>
        <time>2018-06-15T14:23:42.000Z</time>
      </trkpt>
      <trkpt lat="42.9539240" lon="-1.3095540">
        <ele>890.000000</ele>
        <time>2018-06-15T14:24:08.000Z</time>
      </trkpt>
      <trkpt lat="42.9541760" lon="-1.3113020">
        <ele>899.299988</ele>
        <time>2018-06-15T14:24:42.000Z</time>
      </trkpt>
      <trkpt lat="42.9542110" lon="-1.3131480">
        <ele>919.700012</ele>
        <time>2018-06-15T14:25:18.000Z</time>
      </trkpt>
      <trkpt lat="42.9543760" lon="-1.3141190">
        <ele>930.199951</ele>
        <time>2018-06-15T14:25:38.000Z</time>
      </trkpt>
      <trkpt lat="42.9544550" lon="-1.3144840">
        <ele>930.700012</ele>
        <time>2018-06-15T14:25:45.000Z</time>
      </trkpt>
      <trkpt lat="42.9546860" lon="-1.3151490">
        <ele>932.500000</ele>
        <time>2018-06-15T14:26:00.000Z</time>
      </trkpt>
      <trkpt lat="42.9546940" lon="-1.3152560">
        <ele>932.400024</ele>
        <time>2018-06-15T14:26:02.000Z</time>
      </trkpt>
      <trkpt lat="42.9546270" lon="-1.3156210">
        <ele>930.000000</ele>
        <time>2018-06-15T14:26:09.000Z</time>
      </trkpt>
      <trkpt lat="42.9547520" lon="-1.3162300">
        <ele>930.299988</ele>
        <time>2018-06-15T14:26:21.000Z</time>
      </trkpt>
      <trkpt lat="42.9547810" lon="-1.3164150">
        <ele>931.200012</ele>
        <time>2018-06-15T14:26:25.000Z</time>
      </trkpt>
      <trkpt lat="42.9548080" lon="-1.3182650">
        <ele>931.700012</ele>
        <time>2018-06-15T14:27:01.000Z</time>
      </trkpt>
      <trkpt lat="42.9548320" lon="-1.3184320">
        <ele>931.099976</ele>
        <time>2018-06-15T14:27:04.000Z</time>
      </trkpt>
      <trkpt lat="42.9550320" lon="-1.3188820">
        <ele>928.200012</ele>
        <time>2018-06-15T14:27:14.000Z</time>
      </trkpt>
      <trkpt lat="42.9551030" lon="-1.3190430">
        <ele>927.899963</ele>
        <time>2018-06-15T14:27:18.000Z</time>
      </trkpt>
      <trkpt lat="42.9552640" lon="-1.3193870">
        <ele>922.900024</ele>
        <time>2018-06-15T14:27:26.000Z</time>
      </trkpt>
      <trkpt lat="42.9556480" lon="-1.3199980">
        <ele>919.700012</ele>
        <time>2018-06-15T14:27:42.000Z</time>
      </trkpt>
      <trkpt lat="42.9559980" lon="-1.3208460">
        <ele>915.399963</ele>
        <time>2018-06-15T14:28:01.000Z</time>
      </trkpt>
      <trkpt lat="42.9563270" lon="-1.3216670">
        <ele>912.500000</ele>
        <time>2018-06-15T14:28:19.000Z</time>
      </trkpt>
      <trkpt lat="42.9564850" lon="-1.3219350">
        <ele>910.900024</ele>
        <time>2018-06-15T14:28:26.000Z</time>
      </trkpt>
      <trkpt lat="42.9571130" lon="-1.3222460">
        <ele>916.299988</ele>
        <time>2018-06-15T14:28:43.000Z</time>
      </trkpt>
      <trkpt lat="42.9573870" lon="-1.3224100">
        <ele>915.399963</ele>
        <time>2018-06-15T14:28:51.000Z</time>
      </trkpt>
      <trkpt lat="42.9575210" lon="-1.3225250">
        <ele>915.500000</ele>
        <time>2018-06-15T14:28:55.000Z</time>
      </trkpt>
      <trkpt lat="42.9579610" lon="-1.3230290">
        <ele>913.599976</ele>
        <time>2018-06-15T14:29:11.000Z</time>
      </trkpt>
      <trkpt lat="42.9582120" lon="-1.3233080">
        <ele>913.400024</ele>
        <time>2018-06-15T14:29:19.000Z</time>
      </trkpt>
      <trkpt lat="42.9586470" lon="-1.3238040">
        <ele>902.600037</ele>
        <time>2018-06-15T14:29:34.000Z</time>
      </trkpt>
      <trkpt lat="42.9592090" lon="-1.3248530">
        <ele>906.300049</ele>
        <time>2018-06-15T14:30:00.000Z</time>
      </trkpt>
      <trkpt lat="42.9597160" lon="-1.3258320">
        <ele>901.299988</ele>
        <time>2018-06-15T14:30:23.000Z</time>
      </trkpt>
      <trkpt lat="42.9601830" lon="-1.3263980">
        <ele>901.299988</ele>
        <time>2018-06-15T14:30:40.000Z</time>
      </trkpt>
      <trkpt lat="42.9606230" lon="-1.3270420">
        <ele>899.299988</ele>
        <time>2018-06-15T14:30:57.000Z</time>
      </trkpt>
      <trkpt lat="42.9608740" lon="-1.3274840">
        <ele>898.900024</ele>
        <time>2018-06-15T14:31:08.000Z</time>
      </trkpt>
      <trkpt lat="42.9609800" lon="-1.3278170">
        <ele>898.299988</ele>
        <time>2018-06-15T14:31:15.000Z</time>
      </trkpt>
      <trkpt lat="42.9610230" lon="-1.3279210">
        <ele>897.500000</ele>
        <time>2018-06-15T14:31:17.000Z</time>
      </trkpt>
      <trkpt lat="42.9610720" lon="-1.3280310">
        <ele>898.000061</ele>
        <time>2018-06-15T14:31:19.000Z</time>
      </trkpt>
      <trkpt lat="42.9613310" lon="-1.3283450">
        <ele>899.600037</ele>
        <time>2018-06-15T14:31:29.000Z</time>
      </trkpt>
      <trkpt lat="42.9615470" lon="-1.3284900">
        <ele>901.000061</ele>
        <time>2018-06-15T14:31:35.000Z</time>
      </trkpt>
      <trkpt lat="42.9616870" lon="-1.3284790">
        <ele>900.900024</ele>
        <time>2018-06-15T14:31:39.000Z</time>
      </trkpt>
      <trkpt lat="42.9619460" lon="-1.3284230">
        <ele>896.800049</ele>
        <time>2018-06-15T14:31:46.000Z</time>
      </trkpt>
      <trkpt lat="42.9624780" lon="-1.3286050">
        <ele>894.900024</ele>
        <time>2018-06-15T14:32:00.000Z</time>
      </trkpt>
      <trkpt lat="42.9629350" lon="-1.3286910">
        <ele>897.599976</ele>
        <time>2018-06-15T14:32:13.000Z</time>
      </trkpt>
      <trkpt lat="42.9630570" lon="-1.3287390">
        <ele>896.700012</ele>
        <time>2018-06-15T14:32:16.000Z</time>
      </trkpt>
      <trkpt lat="42.9631910" lon="-1.3288410">
        <ele>896.299988</ele>
        <time>2018-06-15T14:32:20.000Z</time>
      </trkpt>
      <trkpt lat="42.9635170" lon="-1.3291690">
        <ele>894.700012</ele>
        <time>2018-06-15T14:32:31.000Z</time>
      </trkpt>
      <trkpt lat="42.9637680" lon="-1.3292600">
        <ele>894.299988</ele>
        <time>2018-06-15T14:32:38.000Z</time>
      </trkpt>
      <trkpt lat="42.9640390" lon="-1.3295330">
        <ele>895.600037</ele>
        <time>2018-06-15T14:32:47.000Z</time>
      </trkpt>
      <trkpt lat="42.9641810" lon="-1.3295710">
        <ele>897.000000</ele>
        <time>2018-06-15T14:32:50.000Z</time>
      </trkpt>
      <trkpt lat="42.9645260" lon="-1.3295760">
        <ele>897.200012</ele>
        <time>2018-06-15T14:33:00.000Z</time>
      </trkpt>
      <trkpt lat="42.9646120" lon="-1.3296460">
        <ele>896.100037</ele>
        <time>2018-06-15T14:33:02.000Z</time>
      </trkpt>
      <trkpt lat="42.9651970" lon="-1.3301990">
        <ele>883.500000</ele>
        <time>2018-06-15T14:33:21.000Z</time>
      </trkpt>
      <trkpt lat="42.9656920" lon="-1.3305580">
        <ele>889.899963</ele>
        <time>2018-06-15T14:33:36.000Z</time>
      </trkpt>
      <trkpt lat="42.9657200" lon="-1.3306170">
        <ele>890.299988</ele>
        <time>2018-06-15T14:33:38.000Z</time>
      </trkpt>
      <trkpt lat="42.9657310" lon="-1.3307300">
        <ele>890.500000</ele>
        <time>2018-06-15T14:33:40.000Z</time>
      </trkpt>
      <trkpt lat="42.9656760" lon="-1.3308690">
        <ele>889.600037</ele>
        <time>2018-06-15T14:33:43.000Z</time>
      </trkpt>
      <trkpt lat="42.9655960" lon="-1.3310360">
        <ele>888.500061</ele>
        <time>2018-06-15T14:33:47.000Z</time>
      </trkpt>
      <trkpt lat="42.9653380" lon="-1.3313520">
        <ele>886.799988</ele>
        <time>2018-06-15T14:33:56.000Z</time>
      </trkpt>
      <trkpt lat="42.9652210" lon="-1.3315990">
        <ele>887.399963</ele>
        <time>2018-06-15T14:34:02.000Z</time>
      </trkpt>
      <trkpt lat="42.9651260" lon="-1.3318880">
        <ele>888.400024</ele>
        <time>2018-06-15T14:34:08.000Z</time>
      </trkpt>
      <trkpt lat="42.9646710" lon="-1.3324450">
        <ele>889.699951</ele>
        <time>2018-06-15T14:34:24.000Z</time>
      </trkpt>
      <trkpt lat="42.9644980" lon="-1.3327140">
        <ele>887.900024</ele>
        <time>2018-06-15T14:34:31.000Z</time>
      </trkpt>
      <trkpt lat="42.9644810" lon="-1.3327900">
        <ele>888.000000</ele>
        <time>2018-06-15T14:34:33.000Z</time>
      </trkpt>
      <trkpt lat="42.9644830" lon="-1.3328650">
        <ele>888.200012</ele>
        <time>2018-06-15T14:34:34.000Z</time>
      </trkpt>
      <trkpt lat="42.9645770" lon="-1.3330040">
        <ele>888.700012</ele>
        <time>2018-06-15T14:34:38.000Z</time>
      </trkpt>
      <trkpt lat="42.9665160" lon="-1.3350320">
        <ele>874.299988</ele>
        <time>2018-06-15T14:35:43.000Z</time>
      </trkpt>
      <trkpt lat="42.9669080" lon="-1.3354720">
        <ele>872.799988</ele>
        <time>2018-06-15T14:35:56.000Z</time>
      </trkpt>
      <trkpt lat="42.9680000" lon="-1.3368020">
        <ele>871.200012</ele>
        <time>2018-06-15T14:36:35.000Z</time>
      </trkpt>
      <trkpt lat="42.9687300" lon="-1.3378540">
        <ele>872.200012</ele>
        <time>2018-06-15T14:37:03.000Z</time>
      </trkpt>
      <trkpt lat="42.9693850" lon="-1.3385890">
        <ele>866.599976</ele>
        <time>2018-06-15T14:37:25.000Z</time>
      </trkpt>
      <trkpt lat="42.9696950" lon="-1.3388410">
        <ele>870.299988</ele>
        <time>2018-06-15T14:37:35.000Z</time>
      </trkpt>
      <trkpt lat="42.9713040" lon="-1.3404290">
        <ele>873.600037</ele>
        <time>2018-06-15T14:38:28.000Z</time>
      </trkpt>
      <trkpt lat="42.9714890" lon="-1.3405630">
        <ele>876.000061</ele>
        <time>2018-06-15T14:38:33.000Z</time>
      </trkpt>
      <trkpt lat="42.9717050" lon="-1.3406860">
        <ele>875.700012</ele>
        <time>2018-06-15T14:38:39.000Z</time>
      </trkpt>
      <trkpt lat="42.9730550" lon="-1.3411040">
        <ele>875.300049</ele>
        <time>2018-06-15T14:39:16.000Z</time>
      </trkpt>
      <trkpt lat="42.9731500" lon="-1.3410510">
        <ele>876.900024</ele>
        <time>2018-06-15T14:39:19.000Z</time>
      </trkpt>
      <trkpt lat="42.9732680" lon="-1.3411150">
        <ele>876.599976</ele>
        <time>2018-06-15T14:39:22.000Z</time>
      </trkpt>
      <trkpt lat="42.9735660" lon="-1.3416410">
        <ele>870.299988</ele>
        <time>2018-06-15T14:39:35.000Z</time>
      </trkpt>
      <trkpt lat="42.9736440" lon="-1.3416790">
        <ele>869.799988</ele>
        <time>2018-06-15T14:39:37.000Z</time>
      </trkpt>
      <trkpt lat="42.9737080" lon="-1.3416620">
        <ele>869.700012</ele>
        <time>2018-06-15T14:39:39.000Z</time>
      </trkpt>
      <trkpt lat="42.9743670" lon="-1.3411370">
        <ele>875.799988</ele>
        <time>2018-06-15T14:39:59.000Z</time>
      </trkpt>
      <trkpt lat="42.9744480" lon="-1.3409810">
        <ele>877.500000</ele>
        <time>2018-06-15T14:40:03.000Z</time>
      </trkpt>
      <trkpt lat="42.9744520" lon="-1.3408800">
        <ele>877.799988</ele>
        <time>2018-06-15T14:40:05.000Z</time>
      </trkpt>
      <trkpt lat="42.9744450" lon="-1.3401170">
        <ele>877.700012</ele>
        <time>2018-06-15T14:40:20.000Z</time>
      </trkpt>
      <trkpt lat="42.9744760" lon="-1.3400430">
        <ele>878.200012</ele>
        <time>2018-06-15T14:40:22.000Z</time>
      </trkpt>
      <trkpt lat="42.9745160" lon="-1.3399560">
        <ele>878.700012</ele>
        <time>2018-06-15T14:40:24.000Z</time>
      </trkpt>
      <trkpt lat="42.9746260" lon="-1.3399240">
        <ele>878.500000</ele>
        <time>2018-06-15T14:40:27.000Z</time>
      </trkpt>
      <trkpt lat="42.9752230" lon="-1.3398600">
        <ele>881.999939</ele>
        <time>2018-06-15T14:40:42.000Z</time>
      </trkpt>
      <trkpt lat="42.9759060" lon="-1.3398710">
        <ele>874.399963</ele>
        <time>2018-06-15T14:41:01.000Z</time>
      </trkpt>
      <trkpt lat="42.9763840" lon="-1.3397420">
        <ele>870.099976</ele>
        <time>2018-06-15T14:41:14.000Z</time>
      </trkpt>
      <trkpt lat="42.9777350" lon="-1.3391840">
        <ele>877.299988</ele>
        <time>2018-06-15T14:41:51.000Z</time>
      </trkpt>
      <trkpt lat="42.9781890" lon="-1.3388570">
        <ele>875.900024</ele>
        <time>2018-06-15T14:42:05.000Z</time>
      </trkpt>
      <trkpt lat="42.9793990" lon="-1.3382180">
        <ele>873.900024</ele>
        <time>2018-06-15T14:42:39.000Z</time>
      </trkpt>
      <trkpt lat="42.9799490" lon="-1.3380250">
        <ele>877.799988</ele>
        <time>2018-06-15T14:42:54.000Z</time>
      </trkpt>
      <trkpt lat="42.9810950" lon="-1.3374140">
        <ele>887.399963</ele>
        <time>2018-06-15T14:43:27.000Z</time>
      </trkpt>
      <trkpt lat="42.9819820" lon="-1.3371030">
        <ele>882.400024</ele>
        <time>2018-06-15T14:43:51.000Z</time>
      </trkpt>
      <trkpt lat="42.9844390" lon="-1.3362980">
        <ele>874.700012</ele>
        <time>2018-06-15T14:44:58.000Z</time>
      </trkpt>
      <trkpt lat="42.9847830" lon="-1.3361800">
        <ele>876.599976</ele>
        <time>2018-06-15T14:45:08.000Z</time>
      </trkpt>
      <trkpt lat="42.9849280" lon="-1.3361000">
        <ele>879.500000</ele>
        <time>2018-06-15T14:45:12.000Z</time>
      </trkpt>
      <trkpt lat="42.9854830" lon="-1.3356760">
        <ele>885.200012</ele>
        <time>2018-06-15T14:45:29.000Z</time>
      </trkpt>
      <trkpt lat="42.9859380" lon="-1.3351280">
        <ele>884.300049</ele>
        <time>2018-06-15T14:45:45.000Z</time>
      </trkpt>
      <trkpt lat="42.9869820" lon="-1.3340340">
        <ele>886.000000</ele>
        <time>2018-06-15T14:46:20.000Z</time>
      </trkpt>
      <trkpt lat="42.9872160" lon="-1.3338520">
        <ele>886.899963</ele>
        <time>2018-06-15T14:46:27.000Z</time>
      </trkpt>
      <trkpt lat="42.9874210" lon="-1.3337340">
        <ele>886.100037</ele>
        <time>2018-06-15T14:46:33.000Z</time>
      </trkpt>
      <trkpt lat="42.9878450" lon="-1.3335300">
        <ele>887.200012</ele>
        <time>2018-06-15T14:46:45.000Z</time>
      </trkpt>
      <trkpt lat="42.9883160" lon="-1.3332290">
        <ele>889.099976</ele>
        <time>2018-06-15T14:46:59.000Z</time>
      </trkpt>
      <trkpt lat="42.9884020" lon="-1.3332190">
        <ele>889.600037</ele>
        <time>2018-06-15T14:47:01.000Z</time>
      </trkpt>
      <trkpt lat="42.9884490" lon="-1.3332830">
        <ele>890.200012</ele>
        <time>2018-06-15T14:47:03.000Z</time>
      </trkpt>
      <trkpt lat="42.9887950" lon="-1.3341950">
        <ele>895.799988</ele>
        <time>2018-06-15T14:47:23.000Z</time>
      </trkpt>
      <trkpt lat="42.988888" lon="-1.334442">
        <ele>895.8</ele>
        <time>2018-06-16T06:00:00Z</time>
      </trkpt>
      <trkpt lat="42.989259" lon="-1.335466">
        <ele>900.6</ele>
        <time>2018-06-16T06:00:22Z</time>
      </trkpt>
      <trkpt lat="42.989277" lon="-1.335700">
        <ele>901.8</ele>
        <time>2018-06-16T06:00:26Z</time>
      </trkpt>
      <trkpt lat="42.989400" lon="-1.336072">
        <ele>897.5</ele>
        <time>2018-06-16T06:00:34Z</time>
      </trkpt>
      <trkpt lat="42.989469" lon="-1.336164">
        <ele>894.8</ele>
        <time>2018-06-16T06:00:37Z</time>
      </trkpt>
      <trkpt lat="42.989531" lon="-1.336206">
        <ele>892.8</ele>
        <time>2018-06-16T06:00:39Z</time>
      </trkpt>
      <trkpt lat="42.989696" lon="-1.336277">
        <ele>890.3</ele>
        <time>2018-06-16T06:00:43Z</time>
      </trkpt>
      <trkpt lat="42.989857" lon="-1.336347">
        <ele>888.3</ele>
        <time>2018-06-16T06:00:48Z</time>
      </trkpt>
      <trkpt lat="42.989962" lon="-1.336414">
        <ele>887.3</ele>
        <time>2018-06-16T06:00:51Z</time>
      </trkpt>
      <trkpt lat="42.990415" lon="-1.336803">
        <ele>884.0</ele>
        <time>2018-06-16T06:01:05Z</time>
      </trkpt>
      <trkpt lat="42.990540" lon="-1.336916">
        <ele>883.0</ele>
        <time>2018-06-16T06:01:09Z</time>
      </trkpt>
      <trkpt lat="42.990583" lon="-1.337007">
        <ele>882.1</ele>
        <time>2018-06-16T06:01:11Z</time>
      </trkpt>
      <trkpt lat="42.990638" lon="-1.337138">
        <ele>881.0</ele>
        <time>2018-06-16T06:01:14Z</time>
      </trkpt>
      <trkpt lat="42.990811" lon="-1.337752">
        <ele>882.0</ele>
        <time>2018-06-16T06:01:27Z</time>
      </trkpt>
      <trkpt lat="42.990867" lon="-1.338062">
        <ele>884.5</ele>
        <time>2018-06-16T06:01:33Z</time>
      </trkpt>
      <trkpt lat="42.990916" lon="-1.338885">
        <ele>885.8</ele>
        <time>2018-06-16T06:01:49Z</time>
      </trkpt>
      <trkpt lat="42.990919" lon="-1.339065">
        <ele>884.8</ele>
        <time>2018-06-16T06:01:52Z</time>
      </trkpt>
      <trkpt lat="42.990919" lon="-1.339228">
        <ele>883.7</ele>
        <time>2018-06-16T06:01:55Z</time>
      </trkpt>
      <trkpt lat="42.990962" lon="-1.339374">
        <ele>883.5</ele>
        <time>2018-06-16T06:01:58Z</time>
      </trkpt>
      <trkpt lat="42.991051" lon="-1.339483">
        <ele>885.5</ele>
        <time>2018-06-16T06:02:01Z</time>
      </trkpt>
      <trkpt lat="42.991182" lon="-1.339562">
        <ele>888.5</ele>
        <time>2018-06-16T06:02:05Z</time>
      </trkpt>
      <trkpt lat="42.991393" lon="-1.339629">
        <ele>889.3</ele>
        <time>2018-06-16T06:02:11Z</time>
      </trkpt>
      <trkpt lat="42.991843" lon="-1.339759">
        <ele>881.7</ele>
        <time>2018-06-16T06:02:23Z</time>
      </trkpt>
      <trkpt lat="42.992070" lon="-1.339761">
        <ele>882.9</ele>
        <time>2018-06-16T06:02:29Z</time>
      </trkpt>
      <trkpt lat="42.992537" lon="-1.339607">
        <ele>882.8</ele>
        <time>2018-06-16T06:02:42Z</time>
      </trkpt>
      <trkpt lat="42.992952" lon="-1.339467">
        <ele>878.4</ele>
        <time>2018-06-16T06:02:53Z</time>
      </trkpt>
      <trkpt lat="42.993243" lon="-1.339417">
        <ele>879.3</ele>
        <time>2018-06-16T06:03:01Z</time>
      </trkpt>
      <trkpt lat="42.993495" lon="-1.339394">
        <ele>879.8</ele>
        <time>2018-06-16T06:03:08Z</time>
      </trkpt>
      <trkpt lat="42.993667" lon="-1.339334">
        <ele>879.9</ele>
        <time>2018-06-16T06:03:12Z</time>
      </trkpt>
      <trkpt lat="42.993864" lon="-1.339122">
        <ele>878.4</ele>
        <time>2018-06-16T06:03:19Z</time>
      </trkpt>
      <trkpt lat="42.994072" lon="-1.338932">
        <ele>878.8</ele>
        <time>2018-06-16T06:03:26Z</time>
      </trkpt>
      <trkpt lat="42.994449" lon="-1.338677">
        <ele>885.8</ele>
        <time>2018-06-16T06:03:37Z</time>
      </trkpt>
      <trkpt lat="42.994521" lon="-1.338643">
        <ele>886.5</ele>
        <time>2018-06-16T06:03:39Z</time>
      </trkpt>
      <trkpt lat="42.994614" lon="-1.338616">
        <ele>887.0</ele>
        <time>2018-06-16T06:03:41Z</time>
      </trkpt>
      <trkpt lat="42.994858" lon="-1.338606">
        <ele>887.5</ele>
        <time>2018-06-16T06:03:48Z</time>
      </trkpt>
      <trkpt lat="42.996378" lon="-1.338442">
        <ele>884.6</ele>
        <time>2018-06-16T06:04:28Z</time>
      </trkpt>
      <trkpt lat="42.996560" lon="-1.338458">
        <ele>886.5</ele>
        <time>2018-06-16T06:04:33Z</time>
      </trkpt>
      <trkpt lat="42.996920" lon="-1.338508">
        <ele>890.7</ele>
        <time>2018-06-16T06:04:42Z</time>
      </trkpt>
      <trkpt lat="42.997162" lon="-1.338505">
        <ele>893.7</ele>
        <time>2018-06-16T06:04:49Z</time>
      </trkpt>
      <trkpt lat="42.997800" lon="-1.338360">
        <ele>896.3</ele>
        <time>2018-06-16T06:05:06Z</time>
      </trkpt>
      <trkpt lat="42.998102" lon="-1.338307">
        <ele>897.6</ele>
        <time>2018-06-16T06:05:14Z</time>
      </trkpt>
      <trkpt lat="42.998500" lon="-1.338384">
        <ele>898.3</ele>
        <time>2018-06-16T06:05:25Z</time>
      </trkpt>
      <trkpt lat="42.998840" lon="-1.338483">
        <ele>896.6</ele>
        <time>2018-06-16T06:05:34Z</time>
      </trkpt>
      <trkpt lat="42.999494" lon="-1.338558">
        <ele>888.4</ele>
        <time>2018-06-16T06:05:51Z</time>
      </trkpt>
      <trkpt lat="42.999968" lon="-1.338667">
        <ele>892.7</ele>
        <time>2018-06-16T06:06:04Z</time>
      </trkpt>
      <trkpt lat="43.000343" lon="-1.338881">
        <ele>896.6</ele>
        <time>2018-06-16T06:06:15Z</time>
      </trkpt>
      <trkpt lat="43.000707" lon="-1.338945">
        <ele>899.4</ele>
        <time>2018-06-16T06:06:24Z</time>
      </trkpt>
      <trkpt lat="43.001070" lon="-1.338945">
        <ele>902.0</ele>
        <time>2018-06-16T06:06:34Z</time>
      </trkpt>
      <trkpt lat="43.001505" lon="-1.339086">
        <ele>904.7</ele>
        <time>2018-06-16T06:06:46Z</time>
      </trkpt>
      <trkpt lat="43.001980" lon="-1.339034">
        <ele>909.4</ele>
        <time>2018-06-16T06:06:58Z</time>
      </trkpt>
      <trkpt lat="43.002312" lon="-1.338819">
        <ele>917.6</ele>
        <time>2018-06-16T06:07:08Z</time>
      </trkpt>
      <trkpt lat="43.002940" lon="-1.338679">
        <ele>918.7</ele>
        <time>2018-06-16T06:07:25Z</time>
      </trkpt>
      <trkpt lat="43.003772" lon="-1.338626">
        <ele>910.5</ele>
        <time>2018-06-16T06:07:47Z</time>
      </trkpt>
      <trkpt lat="43.004080" lon="-1.338592">
        <ele>908.0</ele>
        <time>2018-06-16T06:07:55Z</time>
      </trkpt>
      <trkpt lat="43.004333" lon="-1.338457">
        <ele>912.5</ele>
        <time>2018-06-16T06:08:02Z</time>
      </trkpt>
      <trkpt lat="43.004706" lon="-1.338546">
        <ele>913.2</ele>
        <time>2018-06-16T06:08:12Z</time>
      </trkpt>
      <trkpt lat="43.005114" lon="-1.338702">
        <ele>911.0</ele>
        <time>2018-06-16T06:08:24Z</time>
      </trkpt>
      <trkpt lat="43.005244" lon="-1.338852">
        <ele>912.4</ele>
        <time>2018-06-16T06:08:28Z</time>
      </trkpt>
      <trkpt lat="43.005535" lon="-1.339069">
        <ele>915.3</ele>
        <time>2018-06-16T06:08:37Z</time>
      </trkpt>
      <trkpt lat="43.006194" lon="-1.339511">
        <ele>912.5</ele>
        <time>2018-06-16T06:08:56Z</time>
      </trkpt>
      <trkpt lat="43.006656" lon="-1.340061">
        <ele>908.4</ele>
        <time>2018-06-16T06:09:12Z</time>
      </trkpt>
      <trkpt lat="43.007195" lon="-1.340422">
        <ele>905.4</ele>
        <time>2018-06-16T06:09:28Z</time>
      </trkpt>
      <trkpt lat="43.007624" lon="-1.340943">
        <ele>905.8</ele>
        <time>2018-06-16T06:09:43Z</time>
      </trkpt>
      <trkpt lat="43.008043" lon="-1.341271">
        <ele>911.4</ele>
        <time>2018-06-16T06:09:56Z</time>
      </trkpt>
      <trkpt lat="43.008997" lon="-1.341828">
        <ele>922.0</ele>
        <time>2018-06-16T06:10:24Z</time>
      </trkpt>
      <trkpt lat="43.009148" lon="-1.341990">
        <ele>923.4</ele>
        <time>2018-06-16T06:10:29Z</time>
      </trkpt>
      <trkpt lat="43.009305" lon="-1.342199">
        <ele>922.4</ele>
        <time>2018-06-16T06:10:35Z</time>
      </trkpt>
      <trkpt lat="43.009517" lon="-1.342419">
        <ele>922.8</ele>
        <time>2018-06-16T06:10:42Z</time>
      </trkpt>
      <trkpt lat="43.009607" lon="-1.342489">
        <ele>922.5</ele>
        <time>2018-06-16T06:10:44Z</time>
      </trkpt>
      <trkpt lat="43.010711" lon="-1.343623">
        <ele>918.3</ele>
        <time>2018-06-16T06:11:21Z</time>
      </trkpt>
      <trkpt lat="43.011097" lon="-1.344072">
        <ele>920.0</ele>
        <time>2018-06-16T06:11:34Z</time>
      </trkpt>
      <trkpt lat="43.011526" lon="-1.344415">
        <ele>908.8</ele>
        <time>2018-06-16T06:11:47Z</time>
      </trkpt>
      <trkpt lat="43.011688" lon="-1.344581">
        <ele>908.8</ele>
        <time>2018-06-16T06:11:53Z</time>
      </trkpt>
      <trkpt lat="43.011848" lon="-1.344839">
        <ele>908.6</ele>
        <time>2018-06-16T06:11:59Z</time>
      </trkpt>
      <trkpt lat="43.011958" lon="-1.345102">
        <ele>913.9</ele>
        <time>2018-06-16T06:12:05Z</time>
      </trkpt>
      <trkpt lat="43.012030" lon="-1.345340">
        <ele>917.5</ele>
        <time>2018-06-16T06:12:10Z</time>
      </trkpt>
      <trkpt lat="43.012162" lon="-1.345885">
        <ele>917.7</ele>
        <time>2018-06-16T06:12:21Z</time>
      </trkpt>
      <trkpt lat="43.012246" lon="-1.346090">
        <ele>918.3</ele>
        <time>2018-06-16T06:12:26Z</time>
      </trkpt>
      <trkpt lat="43.012453" lon="-1.346406">
        <ele>922.5</ele>
        <time>2018-06-16T06:12:34Z</time>
      </trkpt>
      <trkpt lat="43.012579" lon="-1.346513">
        <ele>925.0</ele>
        <time>2018-06-16T06:12:38Z</time>
      </trkpt>
      <trkpt lat="43.012654" lon="-1.346673">
        <ele>930.7</ele>
        <time>2018-06-16T06:12:42Z</time>
      </trkpt>
      <trkpt lat="43.012717" lon="-1.346882">
        <ele>935.4</ele>
        <time>2018-06-16T06:12:47Z</time>
      </trkpt>
      <trkpt lat="43.012786" lon="-1.347079">
        <ele>939.3</ele>
        <time>2018-06-16T06:12:51Z</time>
      </trkpt>
      <trkpt lat="43.012930" lon="-1.347374">
        <ele>939.0</ele>
        <time>2018-06-16T06:12:58Z</time>
      </trkpt>
      <trkpt lat="43.013112" lon="-1.347665">
        <ele>939.2</ele>
        <time>2018-06-16T06:13:05Z</time>
      </trkpt>
      <trkpt lat="43.013277" lon="-1.347879">
        <ele>939.0</ele>
        <time>2018-06-16T06:13:11Z</time>
      </trkpt>
      <trkpt lat="43.013340" lon="-1.348009">
        <ele>934.4</ele>
        <time>2018-06-16T06:13:14Z</time>
      </trkpt>
      <trkpt lat="43.013385" lon="-1.348108">
        <ele>930.7</ele>
        <time>2018-06-16T06:13:17Z</time>
      </trkpt>
      <trkpt lat="43.013513" lon="-1.348473">
        <ele>934.0</ele>
        <time>2018-06-16T06:13:25Z</time>
      </trkpt>
      <trkpt lat="43.013623" lon="-1.348815">
        <ele>942.6</ele>
        <time>2018-06-16T06:13:32Z</time>
      </trkpt>
      <trkpt lat="43.013723" lon="-1.349104">
        <ele>945.9</ele>
        <time>2018-06-16T06:13:38Z</time>
      </trkpt>
      <trkpt lat="43.013775" lon="-1.349274">
        <ele>943.8</ele>
        <time>2018-06-16T06:13:42Z</time>
      </trkpt>
      <trkpt lat="43.013789" lon="-1.349412">
        <ele>945.6</ele>
        <time>2018-06-16T06:13:45Z</time>
      </trkpt>
      <trkpt lat="43.013834" lon="-1.349656">
        <ele>948.2</ele>
        <time>2018-06-16T06:13:49Z</time>
      </trkpt>
      <trkpt lat="43.013899" lon="-1.349938">
        <ele>945.6</ele>
        <time>2018-06-16T06:13:55Z</time>
      </trkpt>
      <trkpt lat="43.014009" lon="-1.350215">
        <ele>938.6</ele>
        <time>2018-06-16T06:14:01Z</time>
      </trkpt>
      <trkpt lat="43.014045" lon="-1.350332">
        <ele>940.4</ele>
        <time>2018-06-16T06:14:04Z</time>
      </trkpt>
      <trkpt lat="43.014065" lon="-1.350515">
        <ele>946.4</ele>
        <time>2018-06-16T06:14:08Z</time>
      </trkpt>
      <trkpt lat="43.014137" lon="-1.351660">
        <ele>964.8</ele>
        <time>2018-06-16T06:14:30Z</time>
      </trkpt>
      <trkpt lat="43.014396" lon="-1.352451">
        <ele>957.4</ele>
        <time>2018-06-16T06:14:47Z</time>
      </trkpt>
      <trkpt lat="43.014672" lon="-1.352873">
        <ele>944.2</ele>
        <time>2018-06-16T06:14:59Z</time>
      </trkpt>
      <trkpt lat="43.014736" lon="-1.352985">
        <ele>942.4</ele>
        <time>2018-06-16T06:15:01Z</time>
      </trkpt>
      <trkpt lat="43.014836" lon="-1.353199">
        <ele>940.8</ele>
        <time>2018-06-16T06:15:06Z</time>
      </trkpt>
      <trkpt lat="43.015004" lon="-1.353503">
        <ele>943.3</ele>
        <time>2018-06-16T06:15:14Z</time>
      </trkpt>
      <trkpt lat="43.015130" lon="-1.353767">
        <ele>946.4</ele>
        <time>2018-06-16T06:15:20Z</time>
      </trkpt>
      <trkpt lat="43.015415" lon="-1.354418">
        <ele>950.6</ele>
        <time>2018-06-16T06:15:34Z</time>
      </trkpt>
      <trkpt lat="43.015555" lon="-1.354813">
        <ele>964.5</ele>
        <time>2018-06-16T06:15:43Z</time>
      </trkpt>
      <trkpt lat="43.015670" lon="-1.355010">
        <ele>969.5</ele>
        <time>2018-06-16T06:15:48Z</time>
      </trkpt>
      <trkpt lat="43.015803" lon="-1.355094">
        <ele>972.8</ele>
        <time>2018-06-16T06:15:52Z</time>
      </trkpt>
      <trkpt lat="43.015952" lon="-1.355188">
        <ele>979.2</ele>
        <time>2018-06-16T06:15:57Z</time>
      </trkpt>
      <trkpt lat="43.016048" lon="-1.355295">
        <ele>983.0</ele>
        <time>2018-06-16T06:16:00Z</time>
      </trkpt>
      <trkpt lat="43.016292" lon="-1.355562">
        <ele>993.7</ele>
        <time>2018-06-16T06:16:09Z</time>
      </trkpt>
      <trkpt lat="43.016445" lon="-1.355712">
        <ele>993.2</ele>
        <time>2018-06-16T06:16:14Z</time>
      </trkpt>
      <trkpt lat="43.016599" lon="-1.355761">
        <ele>995.9</ele>
        <time>2018-06-16T06:16:18Z</time>
      </trkpt>
      <trkpt lat="43.016718" lon="-1.355825">
        <ele>1000.2</ele>
        <time>2018-06-16T06:16:22Z</time>
      </trkpt>
      <trkpt lat="43.017154" lon="-1.356184">
        <ele>1022.3</ele>
        <time>2018-06-16T06:16:36Z</time>
      </trkpt>
      <trkpt lat="43.017370" lon="-1.356292">
        <ele>1029.0</ele>
        <time>2018-06-16T06:16:42Z</time>
      </trkpt>
      <trkpt lat="43.017652" lon="-1.356356">
        <ele>1032.2</ele>
        <time>2018-06-16T06:16:50Z</time>
      </trkpt>
      <trkpt lat="43.018284" lon="-1.356492">
        <ele>1037.2</ele>
        <time>2018-06-16T06:17:07Z</time>
      </trkpt>
      <trkpt lat="43.018532" lon="-1.356587">
        <ele>1037.7</ele>
        <time>2018-06-16T06:17:14Z</time>
      </trkpt>
      <trkpt lat="43.018699" lon="-1.356705">
        <ele>1040.8</ele>
        <time>2018-06-16T06:17:19Z</time>
      </trkpt>
      <trkpt lat="43.018889" lon="-1.356887">
        <ele>1042.0</ele>
        <time>2018-06-16T06:17:25Z</time>
      </trkpt>
      <trkpt lat="43.018968" lon="-1.357057">
        <ele>1045.1</ele>
        <time>2018-06-16T06:17:29Z</time>
      </trkpt>
      <trkpt lat="43.019050" lon="-1.357364">
        <ele>1045.1</ele>
        <time>2018-06-16T06:17:35Z</time>
      </trkpt>
      <trkpt lat="43.019044" lon="-1.357668">
        <ele>1044.2</ele>
        <time>2018-06-16T06:17:41Z</time>
      </trkpt>
      <trkpt lat="43.018996" lon="-1.357863">
        <ele>1043.2</ele>
        <time>2018-06-16T06:17:45Z</time>
      </trkpt>
      <trkpt lat="43.018850" lon="-1.358256">
        <ele>1044.7</ele>
        <time>2018-06-16T06:17:53Z</time>
      </trkpt>
      <trkpt lat="43.018659" lon="-1.358575">
        <ele>1045.4</ele>
        <time>2018-06-16T06:18:01Z</time>
      </trkpt>
      <trkpt lat="43.018497" lon="-1.358726">
        <ele>1046.7</ele>
        <time>2018-06-16T06:18:07Z</time>
      </trkpt>
      <trkpt lat="43.018141" lon="-1.359079">
        <ele>1049.9</ele>
        <time>2018-06-16T06:18:18Z</time>
      </trkpt>
      <trkpt lat="43.017927" lon="-1.359242">
        <ele>1048.3</ele>
        <time>2018-06-16T06:18:25Z</time>
      </trkpt>
      <trkpt lat="43.017746" lon="-1.359473">
        <ele>1047.9</ele>
        <time>2018-06-16T06:18:31Z</time>
      </trkpt>
      <trkpt lat="43.017622" lon="-1.359727">
        <ele>1049.9</ele>
        <time>2018-06-16T06:18:37Z</time>
      </trkpt>
      <trkpt lat="43.017634" lon="-1.359864">
        <ele>1051.1</ele>
        <time>2018-06-16T06:18:40Z</time>
      </trkpt>
      <trkpt lat="43.017696" lon="-1.359962">
        <ele>1054.4</ele>
        <time>2018-06-16T06:18:42Z</time>
      </trkpt>
      <trkpt lat="43.017758" lon="-1.360047">
        <ele>1056.6</ele>
        <time>2018-06-16T06:18:45Z</time>
      </trkpt>
      <trkpt lat="43.017775" lon="-1.360160">
        <ele>1058.9</ele>
        <time>2018-06-16T06:18:47Z</time>
      </trkpt>
      <trkpt lat="43.017732" lon="-1.360248">
        <ele>1060.8</ele>
        <time>2018-06-16T06:18:49Z</time>
      </trkpt>
      <trkpt lat="43.017548" lon="-1.360395">
        <ele>1062.4</ele>
        <time>2018-06-16T06:18:55Z</time>
      </trkpt>
      <trkpt lat="43.017372" lon="-1.360561">
        <ele>1059.8</ele>
        <time>2018-06-16T06:19:00Z</time>
      </trkpt>
      <trkpt lat="43.017246" lon="-1.360766">
        <ele>1058.8</ele>
        <time>2018-06-16T06:19:06Z</time>
      </trkpt>
      <trkpt lat="43.017203" lon="-1.361007">
        <ele>1063.4</ele>
        <time>2018-06-16T06:19:10Z</time>
      </trkpt>
      <trkpt lat="43.017139" lon="-1.361405">
        <ele>1065.8</ele>
        <time>2018-06-16T06:19:18Z</time>
      </trkpt>
      <trkpt lat="43.017094" lon="-1.361698">
        <ele>1065.0</ele>
        <time>2018-06-16T06:19:24Z</time>
      </trkpt>
      <trkpt lat="43.017225" lon="-1.361965">
        <ele>1068.4</ele>
        <time>2018-06-16T06:19:30Z</time>
      </trkpt>
      <trkpt lat="43.017351" lon="-1.362128">
        <ele>1073.4</ele>
        <time>2018-06-16T06:19:35Z</time>
      </trkpt>
      <trkpt lat="43.017572" lon="-1.362502">
        <ele>1083.9</ele>
        <time>2018-06-16T06:19:45Z</time>
      </trkpt>
      <trkpt lat="43.018110" lon="-1.363855">
        <ele>1097.8</ele>
        <time>2018-06-16T06:20:15Z</time>
      </trkpt>
      <trkpt lat="43.018228" lon="-1.363995">
        <ele>1099.2</ele>
        <time>2018-06-16T06:20:19Z</time>
      </trkpt>
      <trkpt lat="43.018624" lon="-1.364338">
        <ele>1098.4</ele>
        <time>2018-06-16T06:20:31Z</time>
      </trkpt>
      <trkpt lat="43.019150" lon="-1.365029">
        <ele>1107.2</ele>
        <time>2018-06-16T06:20:50Z</time>
      </trkpt>
      <trkpt lat="43.019256" lon="-1.365111">
        <ele>1112.5</ele>
        <time>2018-06-16T06:20:54Z</time>
      </trkpt>
      <trkpt lat="43.019376" lon="-1.365115">
        <ele>1115.5</ele>
        <time>2018-06-16T06:20:57Z</time>
      </trkpt>
      <trkpt lat="43.019440" lon="-1.365073">
        <ele>1115.9</ele>
        <time>2018-06-16T06:20:59Z</time>
      </trkpt>
      <trkpt lat="43.019554" lon="-1.364957">
        <ele>1116.2</ele>
        <time>2018-06-16T06:21:03Z</time>
      </trkpt>
      <trkpt lat="43.019743" lon="-1.364503">
        <ele>1105.6</ele>
        <time>2018-06-16T06:21:13Z</time>
      </trkpt>
      <trkpt lat="43.019805" lon="-1.364397">
        <ele>1103.0</ele>
        <time>2018-06-16T06:21:16Z</time>
      </trkpt>
      <trkpt lat="43.019882" lon="-1.364303">
        <ele>1101.8</ele>
        <time>2018-06-16T06:21:19Z</time>
      </trkpt>
      <trkpt lat="43.019950" lon="-1.364263">
        <ele>1101.3</ele>
        <time>2018-06-16T06:21:21Z</time>
      </trkpt>
      <trkpt lat="43.020005" lon="-1.364285">
        <ele>1101.0</ele>
        <time>2018-06-16T06:21:22Z</time>
      </trkpt>
      <trkpt lat="43.020139" lon="-1.364338">
        <ele>1099.9</ele>
        <time>2018-06-16T06:21:26Z</time>
      </trkpt>
      <trkpt lat="43.020425" lon="-1.364381">
        <ele>1097.5</ele>
        <time>2018-06-16T06:21:33Z</time>
      </trkpt>
      <trkpt lat="43.020794" lon="-1.364333">
        <ele>1097.8</ele>
        <time>2018-06-16T06:21:43Z</time>
      </trkpt>
      <trkpt lat="43.021144" lon="-1.364362">
        <ele>1096.3</ele>
        <time>2018-06-16T06:21:52Z</time>
      </trkpt>
      <trkpt lat="43.021519" lon="-1.364354">
        <ele>1094.0</ele>
        <time>2018-06-16T06:22:02Z</time>
      </trkpt>
      <trkpt lat="43.021706" lon="-1.364316">
        <ele>1090.4</ele>
        <time>2018-06-16T06:22:07Z</time>
      </trkpt>
      <trkpt lat="43.021845" lon="-1.364193">
        <ele>1090.8</ele>
        <time>2018-06-16T06:22:12Z</time>
      </trkpt>
      <trkpt lat="43.022052" lon="-1.363996">
        <ele>1090.4</ele>
        <time>2018-06-16T06:22:18Z</time>
      </trkpt>
      <trkpt lat="43.022257" lon="-1.363748">
        <ele>1091.5</ele>
        <time>2018-06-16T06:22:26Z</time>
      </trkpt>
      <trkpt lat="43.022635" lon="-1.363187">
        <ele>1098.2</ele>
        <time>2018-06-16T06:22:40Z</time>
      </trkpt>
      <trkpt lat="43.023038" lon="-1.363054">
        <ele>1104.3</ele>
        <time>2018-06-16T06:22:51Z</time>
      </trkpt>
      <trkpt lat="43.023261" lon="-1.363040">
        <ele>1104.3</ele>
        <time>2018-06-16T06:22:57Z</time>
      </trkpt>
      <trkpt lat="43.023716" lon="-1.363088">
        <ele>1090.9</ele>
        <time>2018-06-16T06:23:10Z</time>
      </trkpt>
      <trkpt lat="43.025128" lon="-1.363275">
        <ele>1085.0</ele>
        <time>2018-06-16T06:23:47Z</time>
      </trkpt>
      <trkpt lat="43.025458" lon="-1.363276">
        <ele>1082.3</ele>
        <time>2018-06-16T06:23:56Z</time>
      </trkpt>
      <trkpt lat="43.026394" lon="-1.363371">
        <ele>1088.2</ele>
        <time>2018-06-16T06:24:21Z</time>
      </trkpt>
      <trkpt lat="43.027227" lon="-1.363157">
        <ele>1090.0</ele>
        <time>2018-06-16T06:24:43Z</time>
      </trkpt>
      <trkpt lat="43.027541" lon="-1.363026">
        <ele>1096.0</ele>
        <time>2018-06-16T06:24:52Z</time>
      </trkpt>
      <trkpt lat="43.027659" lon="-1.363019">
        <ele>1095.9</ele>
        <time>2018-06-16T06:24:55Z</time>
      </trkpt>
      <trkpt lat="43.027767" lon="-1.363112">
        <ele>1093.9</ele>
        <time>2018-06-16T06:24:58Z</time>
      </trkpt>
      <trkpt lat="43.027919" lon="-1.363378">
        <ele>1084.1</ele>
        <time>2018-06-16T06:25:05Z</time>
      </trkpt>
      <trkpt lat="43.028064" lon="-1.363555">
        <ele>1082.2</ele>
        <time>2018-06-16T06:25:10Z</time>
      </trkpt>
      <trkpt lat="43.028209" lon="-1.363689">
        <ele>1082.7</ele>
        <time>2018-06-16T06:25:15Z</time>
      </trkpt>
      <trkpt lat="43.028245" lon="-1.363818">
        <ele>1080.6</ele>
        <time>2018-06-16T06:25:18Z</time>
      </trkpt>
      <trkpt lat="43.028255" lon="-1.364204">
        <ele>1076.4</ele>
        <time>2018-06-16T06:25:25Z</time>
      </trkpt>
      <trkpt lat="43.028240" lon="-1.364695">
        <ele>1071.3</ele>
        <time>2018-06-16T06:25:35Z</time>
      </trkpt>
      <trkpt lat="43.028233" lon="-1.364826">
        <ele>1070.3</ele>
        <time>2018-06-16T06:25:37Z</time>
      </trkpt>
      <trkpt lat="43.028374" lon="-1.365009">
        <ele>1073.1</ele>
        <time>2018-06-16T06:25:42Z</time>
      </trkpt>
      <trkpt lat="43.028456" lon="-1.365132">
        <ele>1075.4</ele>
        <time>2018-06-16T06:25:46Z</time>
      </trkpt>
      <trkpt lat="43.028474" lon="-1.365333">
        <ele>1072.6</ele>
        <time>2018-06-16T06:25:50Z</time>
      </trkpt>
      <trkpt lat="43.028378" lon="-1.366173">
        <ele>1069.1</ele>
        <time>2018-06-16T06:26:06Z</time>
      </trkpt>
      <trkpt lat="43.028385" lon="-1.366405">
        <ele>1068.2</ele>
        <time>2018-06-16T06:26:11Z</time>
      </trkpt>
      <trkpt lat="43.028400" lon="-1.366895">
        <ele>1066.3</ele>
        <time>2018-06-16T06:26:20Z</time>
      </trkpt>
      <trkpt lat="43.028371" lon="-1.367318">
        <ele>1063.4</ele>
        <time>2018-06-16T06:26:28Z</time>
      </trkpt>
      <trkpt lat="43.028348" lon="-1.367560">
        <ele>1059.8</ele>
        <time>2018-06-16T06:26:33Z</time>
      </trkpt>
      <trkpt lat="43.028279" lon="-1.367763">
        <ele>1053.0</ele>
        <time>2018-06-16T06:26:38Z</time>
      </trkpt>
      <trkpt lat="43.028178" lon="-1.367900">
        <ele>1045.3</ele>
        <time>2018-06-16T06:26:42Z</time>
      </trkpt>
      <trkpt lat="43.028082" lon="-1.367969">
        <ele>1040.3</ele>
        <time>2018-06-16T06:26:45Z</time>
      </trkpt>
      <trkpt lat="43.027965" lon="-1.367969">
        <ele>1037.2</ele>
        <time>2018-06-16T06:26:48Z</time>
      </trkpt>
      <trkpt lat="43.027717" lon="-1.367828">
        <ele>1034.1</ele>
        <time>2018-06-16T06:26:55Z</time>
      </trkpt>
      <trkpt lat="43.027422" lon="-1.367409">
        <ele>1028.6</ele>
        <time>2018-06-16T06:27:06Z</time>
      </trkpt>
      <trkpt lat="43.027209" lon="-1.366949">
        <ele>1028.5</ele>
        <time>2018-06-16T06:27:17Z</time>
      </trkpt>
      <trkpt lat="43.027123" lon="-1.366744">
        <ele>1029.1</ele>
        <time>2018-06-16T06:27:22Z</time>
      </trkpt>
      <trkpt lat="43.027116" lon="-1.366640">
        <ele>1030.3</ele>
        <time>2018-06-16T06:27:24Z</time>
      </trkpt>
      <trkpt lat="43.027126" lon="-1.366543">
        <ele>1031.9</ele>
        <time>2018-06-16T06:27:25Z</time>
      </trkpt>
      <trkpt lat="43.027223" lon="-1.366386">
        <ele>1033.0</ele>
        <time>2018-06-16T06:27:29Z</time>
      </trkpt>
      <trkpt lat="43.027296" lon="-1.366186">
        <ele>1035.5</ele>
        <time>2018-06-16T06:27:34Z</time>
      </trkpt>
      <trkpt lat="43.027312" lon="-1.366007">
        <ele>1036.5</ele>
        <time>2018-06-16T06:27:37Z</time>
      </trkpt>
      <trkpt lat="43.027230" lon="-1.365585">
        <ele>1028.7</ele>
        <time>2018-06-16T06:27:46Z</time>
      </trkpt>
      <trkpt lat="43.027203" lon="-1.365516">
        <ele>1027.4</ele>
        <time>2018-06-16T06:27:47Z</time>
      </trkpt>
      <trkpt lat="43.027145" lon="-1.365462">
        <ele>1025.6</ele>
        <time>2018-06-16T06:27:49Z</time>
      </trkpt>
      <trkpt lat="43.027110" lon="-1.365524">
        <ele>1024.5</ele>
        <time>2018-06-16T06:27:51Z</time>
      </trkpt>
      <trkpt lat="43.027113" lon="-1.365882">
        <ele>1025.8</ele>
        <time>2018-06-16T06:27:58Z</time>
      </trkpt>
      <trkpt lat="43.027101" lon="-1.366051">
        <ele>1025.6</ele>
        <time>2018-06-16T06:28:01Z</time>
      </trkpt>
      <trkpt lat="43.026969" lon="-1.366180">
        <ele>1020.7</ele>
        <time>2018-06-16T06:28:06Z</time>
      </trkpt>
      <trkpt lat="43.026845" lon="-1.366237">
        <ele>1017.1</ele>
        <time>2018-06-16T06:28:09Z</time>
      </trkpt>
      <trkpt lat="43.026703" lon="-1.366418">
        <ele>1014.4</ele>
        <time>2018-06-16T06:28:14Z</time>
      </trkpt>
      <trkpt lat="43.026566" lon="-1.366826">
        <ele>1007.1</ele>
        <time>2018-06-16T06:28:23Z</time>
      </trkpt>
      <trkpt lat="43.026585" lon="-1.367266">
        <ele>992.7</ele>
        <time>2018-06-16T06:28:32Z</time>
      </trkpt>
      <trkpt lat="43.026820" lon="-1.368060">
        <ele>982.3</ele>
        <time>2018-06-16T06:28:49Z</time>
      </trkpt>
      <trkpt lat="43.026881" lon="-1.368384">
        <ele>979.9</ele>
        <time>2018-06-16T06:28:55Z</time>
      </trkpt>
      <trkpt lat="43.026845" lon="-1.368567">
        <ele>974.5</ele>
        <time>2018-06-16T06:28:59Z</time>
      </trkpt>
      <trkpt lat="43.026798" lon="-1.368759">
        <ele>968.0</ele>
        <time>2018-06-16T06:29:03Z</time>
      </trkpt>
      <trkpt lat="43.026881" lon="-1.369056">
        <ele>959.5</ele>
        <time>2018-06-16T06:29:10Z</time>
      </trkpt>
      <trkpt lat="43.027046" lon="-1.369386">
        <ele>955.0</ele>
        <time>2018-06-16T06:29:18Z</time>
      </trkpt>
      <trkpt lat="43.027321" lon="-1.369721">
        <ele>958.9</ele>
        <time>2018-06-16T06:29:27Z</time>
      </trkpt>
      <trkpt lat="43.027629" lon="-1.370008">
        <ele>958.1</ele>
        <time>2018-06-16T06:29:37Z</time>
      </trkpt>
      <trkpt lat="43.028446" lon="-1.370714">
        <ele>954.0</ele>
        <time>2018-06-16T06:30:03Z</time>
      </trkpt>
      <trkpt lat="43.028633" lon="-1.370802">
        <ele>949.5</ele>
        <time>2018-06-16T06:30:08Z</time>
      </trkpt>
      <trkpt lat="43.028815" lon="-1.370824">
        <ele>947.6</ele>
        <time>2018-06-16T06:30:13Z</time>
      </trkpt>
      <trkpt lat="43.029296" lon="-1.370754">
        <ele>947.8</ele>
        <time>2018-06-16T06:30:26Z</time>
      </trkpt>
      <trkpt lat="43.029535" lon="-1.370652">
        <ele>947.5</ele>
        <time>2018-06-16T06:30:32Z</time>
      </trkpt>
      <trkpt lat="43.029869" lon="-1.370416">
        <ele>952.0</ele>
        <time>2018-06-16T06:30:42Z</time>
      </trkpt>
      <trkpt lat="43.029912" lon="-1.370400">
        <ele>951.9</ele>
        <time>2018-06-16T06:30:43Z</time>
      </trkpt>
      <trkpt lat="43.029931" lon="-1.370379">
        <ele>952.2</ele>
        <time>2018-06-16T06:30:44Z</time>
      </trkpt>
      <trkpt lat="43.029977" lon="-1.370395">
        <ele>951.5</ele>
        <time>2018-06-16T06:30:45Z</time>
      </trkpt>
      <trkpt lat="43.030002" lon="-1.370432">
        <ele>950.5</ele>
        <time>2018-06-16T06:30:46Z</time>
      </trkpt>
      <trkpt lat="43.029998" lon="-1.370502">
        <ele>948.4</ele>
        <time>2018-06-16T06:30:48Z</time>
      </trkpt>
      <trkpt lat="43.029926" lon="-1.371081">
        <ele>934.1</ele>
        <time>2018-06-16T06:31:00Z</time>
      </trkpt>
      <trkpt lat="43.029967" lon="-1.371361">
        <ele>929.9</ele>
        <time>2018-06-16T06:31:05Z</time>
      </trkpt>
      <trkpt lat="43.029945" lon="-1.372087">
        <ele>925.0</ele>
        <time>2018-06-16T06:31:19Z</time>
      </trkpt>
      <trkpt lat="43.029953" lon="-1.372412">
        <ele>919.6</ele>
        <time>2018-06-16T06:31:26Z</time>
      </trkpt>
      <trkpt lat="43.030030" lon="-1.372722">
        <ele>916.7</ele>
        <time>2018-06-16T06:31:32Z</time>
      </trkpt>
      <trkpt lat="43.030154" lon="-1.373086">
        <ele>913.3</ele>
        <time>2018-06-16T06:31:40Z</time>
      </trkpt>
      <trkpt lat="43.030375" lon="-1.373574">
        <ele>909.6</ele>
        <time>2018-06-16T06:31:51Z</time>
      </trkpt>
      <trkpt lat="43.030838" lon="-1.374292">
        <ele>914.5</ele>
        <time>2018-06-16T06:32:09Z</time>
      </trkpt>
      <trkpt lat="43.030866" lon="-1.374399">
        <ele>914.4</ele>
        <time>2018-06-16T06:32:12Z</time>
      </trkpt>
      <trkpt lat="43.030898" lon="-1.374900">
        <ele>906.0</ele>
        <time>2018-06-16T06:32:21Z</time>
      </trkpt>
      <trkpt lat="43.030936" lon="-1.375059">
        <ele>901.2</ele>
        <time>2018-06-16T06:32:25Z</time>
      </trkpt>
      <trkpt lat="43.031016" lon="-1.375206">
        <ele>899.3</ele>
        <time>2018-06-16T06:32:28Z</time>
      </trkpt>
      <trkpt lat="43.031228" lon="-1.375492">
        <ele>898.1</ele>
        <time>2018-06-16T06:32:36Z</time>
      </trkpt>
      <trkpt lat="43.031404" lon="-1.375674">
        <ele>902.4</ele>
        <time>2018-06-16T06:32:42Z</time>
      </trkpt>
      <trkpt lat="43.031475" lon="-1.375922">
        <ele>904.1</ele>
        <time>2018-06-16T06:32:47Z</time>
      </trkpt>
      <trkpt lat="43.031544" lon="-1.376111">
        <ele>904.7</ele>
        <time>2018-06-16T06:32:51Z</time>
      </trkpt>
      <trkpt lat="43.031711" lon="-1.376294">
        <ele>908.7</ele>
        <time>2018-06-16T06:32:57Z</time>
      </trkpt>
      <trkpt lat="43.032066" lon="-1.376839">
        <ele>899.7</ele>
        <time>2018-06-16T06:33:11Z</time>
      </trkpt>
      <trkpt lat="43.032193" lon="-1.376913">
        <ele>898.2</ele>
        <time>2018-06-16T06:33:15Z</time>
      </trkpt>
      <trkpt lat="43.032323" lon="-1.376909">
        <ele>899.8</ele>
        <time>2018-06-16T06:33:18Z</time>
      </trkpt>
      <trkpt lat="43.032463" lon="-1.376820">
        <ele>903.4</ele>
        <time>2018-06-16T06:33:23Z</time>
      </trkpt>
      <trkpt lat="43.032654" lon="-1.376776">
        <ele>904.9</ele>
        <time>2018-06-16T06:33:28Z</time>
      </trkpt>
      <trkpt lat="43.033034" lon="-1.376829">
        <ele>897.4</ele>
        <time>2018-06-16T06:33:38Z</time>
      </trkpt>
      <trkpt lat="43.033395" lon="-1.377065">
        <ele>887.3</ele>
        <time>2018-06-16T06:33:49Z</time>
      </trkpt>
      <trkpt lat="43.033662" lon="-1.377253">
        <ele>890.5</ele>
        <time>2018-06-16T06:33:57Z</time>
      </trkpt>
      <trkpt lat="43.033788" lon="-1.377404">
        <ele>892.7</ele>
        <time>2018-06-16T06:34:01Z</time>
      </trkpt>
      <trkpt lat="43.034005" lon="-1.377734">
        <ele>887.1</ele>
        <time>2018-06-16T06:34:10Z</time>
      </trkpt>
      <trkpt lat="43.034301" lon="-1.377913">
        <ele>887.1</ele>
        <time>2018-06-16T06:34:18Z</time>
      </trkpt>
      <trkpt lat="43.034380" lon="-1.377977">
        <ele>886.8</ele>
        <time>2018-06-16T06:34:21Z</time>
      </trkpt>
      <trkpt lat="43.034564" lon="-1.378224">
        <ele>884.8</ele>
        <time>2018-06-16T06:34:28Z</time>
      </trkpt>
      <trkpt lat="43.034898" lon="-1.378861">
        <ele>871.2</ele>
        <time>2018-06-16T06:34:43Z</time>
      </trkpt>
      <trkpt lat="43.035329" lon="-1.379229">
        <ele>873.2</ele>
        <time>2018-06-16T06:34:57Z</time>
      </trkpt>
      <trkpt lat="43.035578" lon="-1.379457">
        <ele>873.4</ele>
        <time>2018-06-16T06:35:04Z</time>
      </trkpt>
      <trkpt lat="43.035670" lon="-1.379565">
        <ele>872.9</ele>
        <time>2018-06-16T06:35:08Z</time>
      </trkpt>
      <trkpt lat="43.035739" lon="-1.379725">
        <ele>872.2</ele>
        <time>2018-06-16T06:35:11Z</time>
      </trkpt>
      <trkpt lat="43.035936" lon="-1.380505">
        <ele>873.1</ele>
        <time>2018-06-16T06:35:27Z</time>
      </trkpt>
      <trkpt lat="43.036223" lon="-1.381287">
        <ele>887.4</ele>
        <time>2018-06-16T06:35:44Z</time>
      </trkpt>
      <trkpt lat="43.036294" lon="-1.381405">
        <ele>889.1</ele>
        <time>2018-06-16T06:35:47Z</time>
      </trkpt>
      <trkpt lat="43.036383" lon="-1.381500">
        <ele>890.6</ele>
        <time>2018-06-16T06:35:50Z</time>
      </trkpt>
      <trkpt lat="43.036525" lon="-1.381544">
        <ele>893.0</ele>
        <time>2018-06-16T06:35:54Z</time>
      </trkpt>
      <trkpt lat="43.036835" lon="-1.381545">
        <ele>885.2</ele>
        <time>2018-06-16T06:36:03Z</time>
      </trkpt>
      <trkpt lat="43.036925" lon="-1.381588">
        <ele>882.4</ele>
        <time>2018-06-16T06:36:05Z</time>
      </trkpt>
      <trkpt lat="43.037000" lon="-1.381668">
        <ele>879.6</ele>
        <time>2018-06-16T06:36:08Z</time>
      </trkpt>
      <trkpt lat="43.037070" lon="-1.381839">
        <ele>875.5</ele>
        <time>2018-06-16T06:36:12Z</time>
      </trkpt>
      <trkpt lat="43.037581" lon="-1.383376">
        <ele>867.3</ele>
        <time>2018-06-16T06:36:44Z</time>
      </trkpt>
      <trkpt lat="43.037756" lon="-1.383678">
        <ele>866.4</ele>
        <time>2018-06-16T06:36:52Z</time>
      </trkpt>
      <trkpt lat="43.037886" lon="-1.383908">
        <ele>865.6</ele>
        <time>2018-06-16T06:36:57Z</time>
      </trkpt>
      <trkpt lat="43.038058" lon="-1.384085">
        <ele>862.0</ele>
        <time>2018-06-16T06:37:03Z</time>
      </trkpt>
      <trkpt lat="43.038497" lon="-1.384493">
        <ele>842.0</ele>
        <time>2018-06-16T06:37:18Z</time>
      </trkpt>
      <trkpt lat="43.038568" lon="-1.384579">
        <ele>837.8</ele>
        <time>2018-06-16T06:37:20Z</time>
      </trkpt>
      <trkpt lat="43.038603" lon="-1.384676">
        <ele>832.6</ele>
        <time>2018-06-16T06:37:23Z</time>
      </trkpt>
      <trkpt lat="43.038600" lon="-1.384824">
        <ele>827.4</ele>
        <time>2018-06-16T06:37:26Z</time>
      </trkpt>
      <trkpt lat="43.038591" lon="-1.384925">
        <ele>824.4</ele>
        <time>2018-06-16T06:37:28Z</time>
      </trkpt>
      <trkpt lat="43.038556" lon="-1.385032">
        <ele>822.5</ele>
        <time>2018-06-16T06:37:30Z</time>
      </trkpt>
      <trkpt lat="43.038497" lon="-1.385083">
        <ele>823.7</ele>
        <time>2018-06-16T06:37:32Z</time>
      </trkpt>
      <trkpt lat="43.038427" lon="-1.385094">
        <ele>826.3</ele>
        <time>2018-06-16T06:37:34Z</time>
      </trkpt>
      <trkpt lat="43.038356" lon="-1.385137">
        <ele>827.2</ele>
        <time>2018-06-16T06:37:36Z</time>
      </trkpt>
      <trkpt lat="43.038280" lon="-1.385207">
        <ele>826.8</ele>
        <time>2018-06-16T06:37:39Z</time>
      </trkpt>
      <trkpt lat="43.038246" lon="-1.385300">
        <ele>823.7</ele>
        <time>2018-06-16T06:37:41Z</time>
      </trkpt>
      <trkpt lat="43.038237" lon="-1.385388">
        <ele>819.9</ele>
        <time>2018-06-16T06:37:43Z</time>
      </trkpt>
      <trkpt lat="43.038258" lon="-1.385480">
        <ele>815.1</ele>
        <time>2018-06-16T06:37:45Z</time>
      </trkpt>
      <trkpt lat="43.038259" lon="-1.385537">
        <ele>812.6</ele>
        <time>2018-06-16T06:37:46Z</time>
      </trkpt>
      <trkpt lat="43.038239" lon="-1.385612">
        <ele>810.0</ele>
        <time>2018-06-16T06:37:48Z</time>
      </trkpt>
      <trkpt lat="43.038199" lon="-1.385665">
        <ele>809.1</ele>
        <time>2018-06-16T06:37:49Z</time>
      </trkpt>
      <trkpt lat="43.038145" lon="-1.385700">
        <ele>809.0</ele>
        <time>2018-06-16T06:37:51Z</time>
      </trkpt>
      <trkpt lat="43.038094" lon="-1.385711">
        <ele>809.9</ele>
        <time>2018-06-16T06:37:52Z</time>
      </trkpt>
      <trkpt lat="43.038007" lon="-1.385695">
        <ele>812.7</ele>
        <time>2018-06-16T06:37:55Z</time>
      </trkpt>
      <trkpt lat="43.037939" lon="-1.385692">
        <ele>814.5</ele>
        <time>2018-06-16T06:37:57Z</time>
      </trkpt>
      <trkpt lat="43.037866" lon="-1.385722">
        <ele>816.2</ele>
        <time>2018-06-16T06:37:59Z</time>
      </trkpt>
      <trkpt lat="43.037693" lon="-1.385836">
        <ele>820.0</ele>
        <time>2018-06-16T06:38:04Z</time>
      </trkpt>
      <trkpt lat="43.037557" lon="-1.385963">
        <ele>821.5</ele>
        <time>2018-06-16T06:38:08Z</time>
      </trkpt>
      <trkpt lat="43.037486" lon="-1.386011">
        <ele>823.7</ele>
        <time>2018-06-16T06:38:10Z</time>
      </trkpt>
      <trkpt lat="43.037363" lon="-1.386051">
        <ele>828.1</ele>
        <time>2018-06-16T06:38:14Z</time>
      </trkpt>
      <trkpt lat="43.037216" lon="-1.386284">
        <ele>831.2</ele>
        <time>2018-06-16T06:38:20Z</time>
      </trkpt>
      <trkpt lat="43.037215" lon="-1.386353">
        <ele>833.2</ele>
        <time>2018-06-16T06:38:21Z</time>
      </trkpt>
      <trkpt lat="43.037274" lon="-1.386414">
        <ele>832.3</ele>
        <time>2018-06-16T06:38:23Z</time>
      </trkpt>
      <trkpt lat="43.037383" lon="-1.386427">
        <ele>827.6</ele>
        <time>2018-06-16T06:38:26Z</time>
      </trkpt>
      <trkpt lat="43.037812" lon="-1.386226">
        <ele>808.0</ele>
        <time>2018-06-16T06:38:39Z</time>
      </trkpt>
      <trkpt lat="43.037862" lon="-1.386237">
        <ele>805.6</ele>
        <time>2018-06-16T06:38:40Z</time>
      </trkpt>
      <trkpt lat="43.037862" lon="-1.386296">
        <ele>805.3</ele>
        <time>2018-06-16T06:38:42Z</time>
      </trkpt>
      <trkpt lat="43.037792" lon="-1.386671">
        <ele>810.3</ele>
        <time>2018-06-16T06:38:49Z</time>
      </trkpt>
      <trkpt lat="43.037784" lon="-1.386800">
        <ele>812.9</ele>
        <time>2018-06-16T06:38:52Z</time>
      </trkpt>
      <trkpt lat="43.037819" lon="-1.386837">
        <ele>811.1</ele>
        <time>2018-06-16T06:38:53Z</time>
      </trkpt>
      <trkpt lat="43.037894" lon="-1.386832">
        <ele>805.2</ele>
        <time>2018-06-16T06:38:55Z</time>
      </trkpt>
      <trkpt lat="43.038066" lon="-1.386617">
        <ele>792.1</ele>
        <time>2018-06-16T06:39:02Z</time>
      </trkpt>
      <trkpt lat="43.038129" lon="-1.386558">
        <ele>787.5</ele>
        <time>2018-06-16T06:39:05Z</time>
      </trkpt>
      <trkpt lat="43.038188" lon="-1.386553">
        <ele>783.7</ele>
        <time>2018-06-16T06:39:06Z</time>
      </trkpt>
      <trkpt lat="43.038204" lon="-1.386625">
        <ele>783.6</ele>
        <time>2018-06-16T06:39:08Z</time>
      </trkpt>
      <trkpt lat="43.038176" lon="-1.386816">
        <ele>787.3</ele>
        <time>2018-06-16T06:39:12Z</time>
      </trkpt>
      <trkpt lat="43.038176" lon="-1.386929">
        <ele>789.4</ele>
        <time>2018-06-16T06:39:14Z</time>
      </trkpt>
      <trkpt lat="43.038204" lon="-1.386998">
        <ele>789.0</ele>
        <time>2018-06-16T06:39:15Z</time>
      </trkpt>
      <trkpt lat="43.038290" lon="-1.387063">
        <ele>785.8</ele>
        <time>2018-06-16T06:39:18Z</time>
      </trkpt>
      <trkpt lat="43.038349" lon="-1.387095">
        <ele>783.6</ele>
        <time>2018-06-16T06:39:20Z</time>
      </trkpt>
      <trkpt lat="43.038411" lon="-1.387149">
        <ele>782.0</ele>
        <time>2018-06-16T06:39:22Z</time>
      </trkpt>
      <trkpt lat="43.038447" lon="-1.387175">
        <ele>780.9</ele>
        <time>2018-06-16T06:39:23Z</time>
      </trkpt>
      <trkpt lat="43.038478" lon="-1.387159">
        <ele>778.9</ele>
        <time>2018-06-16T06:39:24Z</time>
      </trkpt>
      <trkpt lat="43.038506" lon="-1.387079">
        <ele>774.8</ele>
        <time>2018-06-16T06:39:26Z</time>
      </trkpt>
      <trkpt lat="43.038541" lon="-1.386988">
        <ele>770.9</ele>
        <time>2018-06-16T06:39:28Z</time>
      </trkpt>
      <trkpt lat="43.038607" lon="-1.386929">
        <ele>765.4</ele>
        <time>2018-06-16T06:39:31Z</time>
      </trkpt>
      <trkpt lat="43.038741" lon="-1.386945">
        <ele>757.1</ele>
        <time>2018-06-16T06:39:35Z</time>
      </trkpt>
      <trkpt lat="43.038905" lon="-1.387020">
        <ele>749.9</ele>
        <time>2018-06-16T06:39:40Z</time>
      </trkpt>
      <trkpt lat="43.039109" lon="-1.387039">
        <ele>741.2</ele>
        <time>2018-06-16T06:39:45Z</time>
      </trkpt>
      <trkpt lat="43.039392" lon="-1.386939">
        <ele>734.0</ele>
        <time>2018-06-16T06:39:53Z</time>
      </trkpt>
      <trkpt lat="43.039576" lon="-1.386918">
        <ele>734.0</ele>
        <time>2018-06-16T06:39:58Z</time>
      </trkpt>
      <trkpt lat="43.039922" lon="-1.386832">
        <ele>724.5</ele>
        <time>2018-06-16T06:40:08Z</time>
      </trkpt>
      <trkpt lat="43.040129" lon="-1.386735">
        <ele>713.9</ele>
        <time>2018-06-16T06:40:14Z</time>
      </trkpt>
      <trkpt lat="43.040290" lon="-1.386617">
        <ele>708.8</ele>
        <time>2018-06-16T06:40:19Z</time>
      </trkpt>
      <trkpt lat="43.040580" lon="-1.386301">
        <ele>701.6</ele>
        <time>2018-06-16T06:40:29Z</time>
      </trkpt>
      <trkpt lat="43.040894" lon="-1.386070">
        <ele>683.7</ele>
        <time>2018-06-16T06:40:39Z</time>
      </trkpt>
      <trkpt lat="43.041590" lon="-1.385571">
        <ele>656.6</ele>
        <time>2018-06-16T06:41:01Z</time>
      </trkpt>
      <trkpt lat="43.041700" lon="-1.385479">
        <ele>654.8</ele>
        <time>2018-06-16T06:41:04Z</time>
      </trkpt>
      <trkpt lat="43.041784" lon="-1.385447">
        <ele>652.7</ele>
        <time>2018-06-16T06:41:07Z</time>
      </trkpt>
      <trkpt lat="43.041854" lon="-1.385465">
        <ele>650.6</ele>
        <time>2018-06-16T06:41:09Z</time>
      </trkpt>
      <trkpt lat="43.041912" lon="-1.385559">
        <ele>649.2</ele>
        <time>2018-06-16T06:41:11Z</time>
      </trkpt>
      <trkpt lat="43.041954" lon="-1.385728">
        <ele>648.4</ele>
        <time>2018-06-16T06:41:14Z</time>
      </trkpt>
      <trkpt lat="43.042008" lon="-1.385859">
        <ele>645.3</ele>
        <time>2018-06-16T06:41:17Z</time>
      </trkpt>
      <trkpt lat="43.042080" lon="-1.385949">
        <ele>641.5</ele>
        <time>2018-06-16T06:41:20Z</time>
      </trkpt>
      <trkpt lat="43.042198" lon="-1.386088">
        <ele>640.3</ele>
        <time>2018-06-16T06:41:24Z</time>
      </trkpt>
      <trkpt lat="43.042402" lon="-1.386351">
        <ele>635.7</ele>
        <time>2018-06-16T06:41:32Z</time>
      </trkpt>
      <trkpt lat="43.042461" lon="-1.386535">
        <ele>633.9</ele>
        <time>2018-06-16T06:41:36Z</time>
      </trkpt>
      <trkpt lat="43.042488" lon="-1.386802">
        <ele>633.2</ele>
        <time>2018-06-16T06:41:41Z</time>
      </trkpt>
      <trkpt lat="43.042468" lon="-1.387044">
        <ele>629.7</ele>
        <time>2018-06-16T06:41:46Z</time>
      </trkpt>
      <trkpt lat="43.042475" lon="-1.387123">
        <ele>628.8</ele>
        <time>2018-06-16T06:41:47Z</time>
      </trkpt>
      <trkpt lat="43.042528" lon="-1.387171">
        <ele>627.4</ele>
        <time>2018-06-16T06:41:49Z</time>
      </trkpt>
      <trkpt lat="43.042593" lon="-1.387162">
        <ele>625.9</ele>
        <time>2018-06-16T06:41:51Z</time>
      </trkpt>
      <trkpt lat="43.042708" lon="-1.387159">
        <ele>624.1</ele>
        <time>2018-06-16T06:41:54Z</time>
      </trkpt>
      <trkpt lat="43.042869" lon="-1.387213">
        <ele>622.0</ele>
        <time>2018-06-16T06:41:58Z</time>
      </trkpt>
      <trkpt lat="43.043044" lon="-1.387211">
        <ele>619.0</ele>
        <time>2018-06-16T06:42:03Z</time>
      </trkpt>
      <trkpt lat="43.043209" lon="-1.387124">
        <ele>616.6</ele>
        <time>2018-06-16T06:42:07Z</time>
      </trkpt>
      <trkpt lat="43.043276" lon="-1.387102">
        <ele>616.5</ele>
        <time>2018-06-16T06:42:09Z</time>
      </trkpt>
      <trkpt lat="43.043349" lon="-1.387136">
        <ele>615.8</ele>
        <time>2018-06-16T06:42:11Z</time>
      </trkpt>
      <trkpt lat="43.043393" lon="-1.387201">
        <ele>614.8</ele>
        <time>2018-06-16T06:42:13Z</time>
      </trkpt>
      <trkpt lat="43.043408" lon="-1.387306">
        <ele>613.4</ele>
        <time>2018-06-16T06:42:15Z</time>
      </trkpt>
      <trkpt lat="43.043377" lon="-1.387434">
        <ele>612.0</ele>
        <time>2018-06-16T06:42:18Z</time>
      </trkpt>
      <trkpt lat="43.043328" lon="-1.387534">
        <ele>611.1</ele>
        <time>2018-06-16T06:42:20Z</time>
      </trkpt>
      <trkpt lat="43.043202" lon="-1.387631">
        <ele>611.0</ele>
        <time>2018-06-16T06:42:24Z</time>
      </trkpt>
      <trkpt lat="43.043033" lon="-1.387675">
        <ele>614.5</ele>
        <time>2018-06-16T06:42:28Z</time>
      </trkpt>
      <trkpt lat="43.042965" lon="-1.387719">
        <ele>615.8</ele>
        <time>2018-06-16T06:42:30Z</time>
      </trkpt>
      <trkpt lat="43.042930" lon="-1.387826">
        <ele>615.5</ele>
        <time>2018-06-16T06:42:33Z</time>
      </trkpt>
      <trkpt lat="43.042937" lon="-1.387901">
        <ele>614.4</ele>
        <time>2018-06-16T06:42:34Z</time>
      </trkpt>
      <trkpt lat="43.042987" lon="-1.388044">
        <ele>611.0</ele>
        <time>2018-06-16T06:42:37Z</time>
      </trkpt>
      <trkpt lat="43.043031" lon="-1.388189">
        <ele>607.5</ele>
        <time>2018-06-16T06:42:40Z</time>
      </trkpt>
      <trkpt lat="43.043046" lon="-1.388348">
        <ele>607.7</ele>
        <time>2018-06-16T06:42:44Z</time>
      </trkpt>
      <trkpt lat="43.043036" lon="-1.388478">
        <ele>608.9</ele>
        <time>2018-06-16T06:42:46Z</time>
      </trkpt>
      <trkpt lat="43.043060" lon="-1.388593">
        <ele>609.5</ele>
        <time>2018-06-16T06:42:48Z</time>
      </trkpt>
      <trkpt lat="43.043158" lon="-1.388762">
        <ele>606.3</ele>
        <time>2018-06-16T06:42:53Z</time>
      </trkpt>
      <trkpt lat="43.043243" lon="-1.388980">
        <ele>605.0</ele>
        <time>2018-06-16T06:42:57Z</time>
      </trkpt>
      <trkpt lat="43.043372" lon="-1.389198">
        <ele>599.9</ele>
        <time>2018-06-16T06:43:03Z</time>
      </trkpt>
      <trkpt lat="43.043423" lon="-1.389272">
        <ele>597.5</ele>
        <time>2018-06-16T06:43:05Z</time>
      </trkpt>
      <trkpt lat="43.043458" lon="-1.389382">
        <ele>595.5</ele>
        <time>2018-06-16T06:43:07Z</time>
      </trkpt>
      <trkpt lat="43.043465" lon="-1.389594">
        <ele>594.4</ele>
        <time>2018-06-16T06:43:11Z</time>
      </trkpt>
      <trkpt lat="43.043507" lon="-1.389855">
        <ele>592.5</ele>
        <time>2018-06-16T06:43:17Z</time>
      </trkpt>
      <trkpt lat="43.043648" lon="-1.390171">
        <ele>585.7</ele>
        <time>2018-06-16T06:43:24Z</time>
      </trkpt>
      <trkpt lat="43.043699" lon="-1.390392">
        <ele>582.1</ele>
        <time>2018-06-16T06:43:28Z</time>
      </trkpt>
      <trkpt lat="43.043750" lon="-1.390523">
        <ele>579.0</ele>
        <time>2018-06-16T06:43:31Z</time>
      </trkpt>
      <trkpt lat="43.043899" lon="-1.390731">
        <ele>578.6</ele>
        <time>2018-06-16T06:43:37Z</time>
      </trkpt>
      <trkpt lat="43.044047" lon="-1.390851">
        <ele>578.4</ele>
        <time>2018-06-16T06:43:42Z</time>
      </trkpt>
      <trkpt lat="43.044097" lon="-1.390920">
        <ele>578.6</ele>
        <time>2018-06-16T06:43:43Z</time>
      </trkpt>
      <trkpt lat="43.044118" lon="-1.391020">
        <ele>578.4</ele>
        <time>2018-06-16T06:43:45Z</time>
      </trkpt>
      <trkpt lat="43.044116" lon="-1.391154">
        <ele>576.7</ele>
        <time>2018-06-16T06:43:48Z</time>
      </trkpt>
      <trkpt lat="43.044067" lon="-1.391325">
        <ele>575.7</ele>
        <time>2018-06-16T06:43:52Z</time>
      </trkpt>
      <trkpt lat="43.043960" lon="-1.391440">
        <ele>578.2</ele>
        <time>2018-06-16T06:43:55Z</time>
      </trkpt>
      <trkpt lat="43.043868" lon="-1.391488">
        <ele>580.2</ele>
        <time>2018-06-16T06:43:58Z</time>
      </trkpt>
      <trkpt lat="43.043634" lon="-1.391463">
        <ele>583.8</ele>
        <time>2018-06-16T06:44:04Z</time>
      </trkpt>
      <trkpt lat="43.043549" lon="-1.391491">
        <ele>584.9</ele>
        <time>2018-06-16T06:44:06Z</time>
      </trkpt>
      <trkpt lat="43.043450" lon="-1.391624">
        <ele>584.2</ele>
        <time>2018-06-16T06:44:10Z</time>
      </trkpt>
      <trkpt lat="43.043396" lon="-1.391814">
        <ele>583.4</ele>
        <time>2018-06-16T06:44:14Z</time>
      </trkpt>
      <trkpt lat="43.043374" lon="-1.391963">
        <ele>581.9</ele>
        <time>2018-06-16T06:44:17Z</time>
      </trkpt>
      <trkpt lat="43.043407" lon="-1.392346">
        <ele>570.8</ele>
        <time>2018-06-16T06:44:25Z</time>
      </trkpt>
      <trkpt lat="43.043487" lon="-1.392817">
        <ele>562.8</ele>
        <time>2018-06-16T06:44:34Z</time>
      </trkpt>
      <trkpt lat="43.043509" lon="-1.392987">
        <ele>561.6</ele>
        <time>2018-06-16T06:44:38Z</time>
      </trkpt>
      <trkpt lat="43.043572" lon="-1.393046">
        <ele>560.4</ele>
        <time>2018-06-16T06:44:40Z</time>
      </trkpt>
      <trkpt lat="43.043668" lon="-1.393038">
        <ele>559.3</ele>
        <time>2018-06-16T06:44:42Z</time>
      </trkpt>
      <trkpt lat="43.044169" lon="-1.393049">
        <ele>560.2</ele>
        <time>2018-06-16T06:44:56Z</time>
      </trkpt>
      <trkpt lat="43.045455" lon="-1.393818">
        <ele>558.3</ele>
        <time>2018-06-16T06:45:33Z</time>
      </trkpt>
      <trkpt lat="43.045707" lon="-1.394100">
        <ele>560.3</ele>
        <time>2018-06-16T06:45:41Z</time>
      </trkpt>
      <trkpt lat="43.045799" lon="-1.394313">
        <ele>563.0</ele>
        <time>2018-06-16T06:45:46Z</time>
      </trkpt>
      <trkpt lat="43.045905" lon="-1.394639">
        <ele>561.1</ele>
        <time>2018-06-16T06:45:53Z</time>
      </trkpt>
      <trkpt lat="43.046086" lon="-1.395092">
        <ele>556.2</ele>
        <time>2018-06-16T06:46:03Z</time>
      </trkpt>
      <trkpt lat="43.046275" lon="-1.395448">
        <ele>562.2</ele>
        <time>2018-06-16T06:46:11Z</time>
      </trkpt>
      <trkpt lat="43.046417" lon="-1.395608">
        <ele>562.2</ele>
        <time>2018-06-16T06:46:16Z</time>
      </trkpt>
      <trkpt lat="43.046555" lon="-1.395681">
        <ele>560.5</ele>
        <time>2018-06-16T06:46:20Z</time>
      </trkpt>
      <trkpt lat="43.047365" lon="-1.395891">
        <ele>551.8</ele>
        <time>2018-06-16T06:46:42Z</time>
      </trkpt>
      <trkpt lat="43.047748" lon="-1.395857">
        <ele>546.8</ele>
        <time>2018-06-16T06:46:52Z</time>
      </trkpt>
      <trkpt lat="43.048114" lon="-1.395807">
        <ele>542.5</ele>
        <time>2018-06-16T06:47:02Z</time>
      </trkpt>
      <trkpt lat="43.048336" lon="-1.395862">
        <ele>541.1</ele>
        <time>2018-06-16T06:47:08Z</time>
      </trkpt>
      <trkpt lat="43.048452" lon="-1.395803">
        <ele>541.1</ele>
        <time>2018-06-16T06:47:11Z</time>
      </trkpt>
      <trkpt lat="43.048560" lon="-1.395798">
        <ele>538.8</ele>
        <time>2018-06-16T06:47:14Z</time>
      </trkpt>
      <trkpt lat="43.048637" lon="-1.395840">
        <ele>537.0</ele>
        <time>2018-06-16T06:47:16Z</time>
      </trkpt>
      <trkpt lat="43.048775" lon="-1.395932">
        <ele>536.2</ele>
        <time>2018-06-16T06:47:20Z</time>
      </trkpt>
      <trkpt lat="43.049074" lon="-1.396254">
        <ele>530.2</ele>
        <time>2018-06-16T06:47:31Z</time>
      </trkpt>
      <trkpt lat="43.049446" lon="-1.396388">
        <ele>526.7</ele>
        <time>2018-06-16T06:47:41Z</time>
      </trkpt>
      <trkpt lat="43.049901" lon="-1.396570">
        <ele>520.1</ele>
        <time>2018-06-16T06:47:53Z</time>
      </trkpt>
      <trkpt lat="43.050485" lon="-1.396898">
        <ele>526.9</ele>
        <time>2018-06-16T06:48:10Z</time>
      </trkpt>
      <trkpt lat="43.050879" lon="-1.397243">
        <ele>519.9</ele>
        <time>2018-06-16T06:48:22Z</time>
      </trkpt>
      <trkpt lat="43.050957" lon="-1.397270">
        <ele>519.8</ele>
        <time>2018-06-16T06:48:25Z</time>
      </trkpt>
      <trkpt lat="43.051040" lon="-1.397207">
        <ele>522.2</ele>
        <time>2018-06-16T06:48:27Z</time>
      </trkpt>
      <trkpt lat="43.051151" lon="-1.396877">
        <ele>532.5</ele>
        <time>2018-06-16T06:48:35Z</time>
      </trkpt>
      <trkpt lat="43.051343" lon="-1.396503">
        <ele>540.5</ele>
        <time>2018-06-16T06:48:44Z</time>
      </trkpt>
      <trkpt lat="43.051434" lon="-1.396393">
        <ele>541.9</ele>
        <time>2018-06-16T06:48:47Z</time>
      </trkpt>
      <trkpt lat="43.051564" lon="-1.396337">
        <ele>540.9</ele>
        <time>2018-06-16T06:48:50Z</time>
      </trkpt>
      <trkpt lat="43.052215" lon="-1.396067">
        <ele>521.1</ele>
        <time>2018-06-16T06:49:09Z</time>
      </trkpt>
      <trkpt lat="43.052383" lon="-1.396055">
        <ele>517.3</ele>
        <time>2018-06-16T06:49:13Z</time>
      </trkpt>
      <trkpt lat="43.052563" lon="-1.396061">
        <ele>519.8</ele>
        <time>2018-06-16T06:49:18Z</time>
      </trkpt>
      <trkpt lat="43.052904" lon="-1.395884">
        <ele>526.3</ele>
        <time>2018-06-16T06:49:28Z</time>
      </trkpt>
      <trkpt lat="43.053275" lon="-1.395733">
        <ele>519.7</ele>
        <time>2018-06-16T06:49:38Z</time>
      </trkpt>
      <trkpt lat="43.053985" lon="-1.395563">
        <ele>513.7</ele>
        <time>2018-06-16T06:49:57Z</time>
      </trkpt>
      <trkpt lat="43.054186" lon="-1.395381">
        <ele>520.7</ele>
        <time>2018-06-16T06:50:04Z</time>
      </trkpt>
      <trkpt lat="43.054397" lon="-1.395136">
        <ele>531.1</ele>
        <time>2018-06-16T06:50:12Z</time>
      </trkpt>
      <trkpt lat="43.054468" lon="-1.395090">
        <ele>534.1</ele>
        <time>2018-06-16T06:50:14Z</time>
      </trkpt>
      <trkpt lat="43.054555" lon="-1.395086">
        <ele>534.9</ele>
        <time>2018-06-16T06:50:16Z</time>
      </trkpt>
      <trkpt lat="43.054784" lon="-1.395143">
        <ele>528.5</ele>
        <time>2018-06-16T06:50:22Z</time>
      </trkpt>
      <trkpt lat="43.054920" lon="-1.395090">
        <ele>526.5</ele>
        <time>2018-06-16T06:50:26Z</time>
      </trkpt>
      <trkpt lat="43.055016" lon="-1.394982">
        <ele>526.1</ele>
        <time>2018-06-16T06:50:30Z</time>
      </trkpt>
      <trkpt lat="43.055053" lon="-1.394881">
        <ele>527.7</ele>
        <time>2018-06-16T06:50:32Z</time>
      </trkpt>
      <trkpt lat="43.055056" lon="-1.394788">
        <ele>529.7</ele>
        <time>2018-06-16T06:50:34Z</time>
      </trkpt>
      <trkpt lat="43.054974" lon="-1.394360">
        <ele>537.6</ele>
        <time>2018-06-16T06:50:42Z</time>
      </trkpt>
      <trkpt lat="43.054979" lon="-1.394236">
        <ele>538.9</ele>
        <time>2018-06-16T06:50:45Z</time>
      </trkpt>
      <trkpt lat="43.055009" lon="-1.394103">
        <ele>539.5</ele>
        <time>2018-06-16T06:50:47Z</time>
      </trkpt>
      <trkpt lat="43.055082" lon="-1.393996">
        <ele>537.8</ele>
        <time>2018-06-16T06:50:50Z</time>
      </trkpt>
      <trkpt lat="43.055222" lon="-1.393785">
        <ele>536.4</ele>
        <time>2018-06-16T06:50:56Z</time>
      </trkpt>
      <trkpt lat="43.055411" lon="-1.393631">
        <ele>532.8</ele>
        <time>2018-06-16T06:51:02Z</time>
      </trkpt>
      <trkpt lat="43.055786" lon="-1.393486">
        <ele>519.8</ele>
        <time>2018-06-16T06:51:12Z</time>
      </trkpt>
      <trkpt lat="43.056080" lon="-1.393443">
        <ele>509.6</ele>
        <time>2018-06-16T06:51:21Z</time>
      </trkpt>
      <trkpt lat="43.056453" lon="-1.393523">
        <ele>502.1</ele>
        <time>2018-06-16T06:51:31Z</time>
      </trkpt>
      <trkpt lat="43.056613" lon="-1.393630">
        <ele>503.2</ele>
        <time>2018-06-16T06:51:35Z</time>
      </trkpt>
      <trkpt lat="43.056827" lon="-1.393849">
        <ele>502.7</ele>
        <time>2018-06-16T06:51:42Z</time>
      </trkpt>
      <trkpt lat="43.057053" lon="-1.394210">
        <ele>498.2</ele>
        <time>2018-06-16T06:51:52Z</time>
      </trkpt>
      <trkpt lat="43.057419" lon="-1.394612">
        <ele>504.7</ele>
        <time>2018-06-16T06:52:04Z</time>
      </trkpt>
      <trkpt lat="43.057801" lon="-1.395095">
        <ele>491.5</ele>
        <time>2018-06-16T06:52:18Z</time>
      </trkpt>
      <trkpt lat="43.058327" lon="-1.395755">
        <ele>479.2</ele>
        <time>2018-06-16T06:52:37Z</time>
      </trkpt>
      <trkpt lat="43.058593" lon="-1.395987">
        <ele>477.6</ele>
        <time>2018-06-16T06:52:46Z</time>
      </trkpt>
      <trkpt lat="43.059399" lon="-1.396535">
        <ele>491.2</ele>
        <time>2018-06-16T06:53:09Z</time>
      </trkpt>
      <trkpt lat="43.059489" lon="-1.396587">
        <ele>489.7</ele>
        <time>2018-06-16T06:53:12Z</time>
      </trkpt>
      <trkpt lat="43.059528" lon="-1.396586">
        <ele>489.5</ele>
        <time>2018-06-16T06:53:13Z</time>
      </trkpt>
      <trkpt lat="43.059582" lon="-1.396532">
        <ele>489.9</ele>
        <time>2018-06-16T06:53:15Z</time>
      </trkpt>
      <trkpt lat="43.059770" lon="-1.396155">
        <ele>500.7</ele>
        <time>2018-06-16T06:53:24Z</time>
      </trkpt>
      <trkpt lat="43.059917" lon="-1.395772">
        <ele>507.4</ele>
        <time>2018-06-16T06:53:33Z</time>
      </trkpt>
      <trkpt lat="43.060060" lon="-1.395174">
        <ele>507.5</ele>
        <time>2018-06-16T06:53:45Z</time>
      </trkpt>
      <trkpt lat="43.060137" lon="-1.394816">
        <ele>503.6</ele>
        <time>2018-06-16T06:53:52Z</time>
      </trkpt>
      <trkpt lat="43.060180" lon="-1.394623">
        <ele>503.3</ele>
        <time>2018-06-16T06:53:56Z</time>
      </trkpt>
      <trkpt lat="43.060231" lon="-1.394607">
        <ele>500.8</ele>
        <time>2018-06-16T06:53:57Z</time>
      </trkpt>
      <trkpt lat="43.060262" lon="-1.394634">
        <ele>498.8</ele>
        <time>2018-06-16T06:53:58Z</time>
      </trkpt>
      <trkpt lat="43.060260" lon="-1.394748">
        <ele>497.7</ele>
        <time>2018-06-16T06:54:01Z</time>
      </trkpt>
      <trkpt lat="43.060157" lon="-1.395554">
        <ele>494.8</ele>
        <time>2018-06-16T06:54:16Z</time>
      </trkpt>
      <trkpt lat="43.060116" lon="-1.395982">
        <ele>489.3</ele>
        <time>2018-06-16T06:54:25Z</time>
      </trkpt>
      <trkpt lat="43.060116" lon="-1.396188">
        <ele>489.6</ele>
        <time>2018-06-16T06:54:29Z</time>
      </trkpt>
      <trkpt lat="43.060157" lon="-1.396310">
        <ele>487.5</ele>
        <time>2018-06-16T06:54:31Z</time>
      </trkpt>
      <trkpt lat="43.060307" lon="-1.396505">
        <ele>485.5</ele>
        <time>2018-06-16T06:54:37Z</time>
      </trkpt>
      <trkpt lat="43.060331" lon="-1.396633">
        <ele>485.7</ele>
        <time>2018-06-16T06:54:39Z</time>
      </trkpt>
      <trkpt lat="43.060308" lon="-1.396745">
        <ele>485.6</ele>
        <time>2018-06-16T06:54:42Z</time>
      </trkpt>
      <trkpt lat="43.060146" lon="-1.397214">
        <ele>479.6</ele>
        <time>2018-06-16T06:54:52Z</time>
      </trkpt>
      <trkpt lat="43.060049" lon="-1.397522">
        <ele>479.3</ele>
        <time>2018-06-16T06:54:58Z</time>
      </trkpt>
      <trkpt lat="43.060046" lon="-1.397703">
        <ele>478.6</ele>
        <time>2018-06-16T06:55:02Z</time>
      </trkpt>
      <trkpt lat="43.060261" lon="-1.398489">
        <ele>476.0</ele>
        <time>2018-06-16T06:55:18Z</time>
      </trkpt>
      <trkpt lat="43.060280" lon="-1.398635">
        <ele>473.6</ele>
        <time>2018-06-16T06:55:21Z</time>
      </trkpt>
      <trkpt lat="43.060223" lon="-1.398865">
        <ele>468.3</ele>
        <time>2018-06-16T06:55:26Z</time>
      </trkpt>
      <trkpt lat="43.060172" lon="-1.399129">
        <ele>467.1</ele>
        <time>2018-06-16T06:55:31Z</time>
      </trkpt>
      <trkpt lat="43.060160" lon="-1.399654">
        <ele>465.7</ele>
        <time>2018-06-16T06:55:41Z</time>
      </trkpt>
      <trkpt lat="43.060322" lon="-1.400554">
        <ele>464.2</ele>
        <time>2018-06-16T06:55:59Z</time>
      </trkpt>
      <trkpt lat="43.060431" lon="-1.401068">
        <ele>461.1</ele>
        <time>2018-06-16T06:56:09Z</time>
      </trkpt>
      <trkpt lat="43.060681" lon="-1.401606">
        <ele>470.3</ele>
        <time>2018-06-16T06:56:22Z</time>
      </trkpt>
      <trkpt lat="43.060832" lon="-1.401895">
        <ele>463.1</ele>
        <time>2018-06-16T06:56:29Z</time>
      </trkpt>
      <trkpt lat="43.060897" lon="-1.401936">
        <ele>460.9</ele>
        <time>2018-06-16T06:56:31Z</time>
      </trkpt>
      <trkpt lat="43.061006" lon="-1.401926">
        <ele>460.3</ele>
        <time>2018-06-16T06:56:34Z</time>
      </trkpt>
      <trkpt lat="43.061209" lon="-1.401877">
        <ele>466.5</ele>
        <time>2018-06-16T06:56:39Z</time>
      </trkpt>
      <trkpt lat="43.061498" lon="-1.402084">
        <ele>456.4</ele>
        <time>2018-06-16T06:56:48Z</time>
      </trkpt>
      <trkpt lat="43.062036" lon="-1.402514">
        <ele>454.6</ele>
        <time>2018-06-16T06:57:05Z</time>
      </trkpt>
      <trkpt lat="43.062497" lon="-1.403045">
        <ele>458.7</ele>
        <time>2018-06-16T06:57:21Z</time>
      </trkpt>
      <trkpt lat="43.062586" lon="-1.403214">
        <ele>460.1</ele>
        <time>2018-06-16T06:57:25Z</time>
      </trkpt>
      <trkpt lat="43.062606" lon="-1.403408">
        <ele>458.5</ele>
        <time>2018-06-16T06:57:28Z</time>
      </trkpt>
      <trkpt lat="43.062557" lon="-1.403929">
        <ele>448.1</ele>
        <time>2018-06-16T06:57:39Z</time>
      </trkpt>
      <trkpt lat="43.062586" lon="-1.404444">
        <ele>444.3</ele>
        <time>2018-06-16T06:57:49Z</time>
      </trkpt>
      <trkpt lat="43.062944" lon="-1.405127">
        <ele>450.0</ele>
        <time>2018-06-16T06:58:05Z</time>
      </trkpt>
      <trkpt lat="43.062969" lon="-1.405292">
        <ele>450.5</ele>
        <time>2018-06-16T06:58:08Z</time>
      </trkpt>
      <trkpt lat="43.062937" lon="-1.405469">
        <ele>448.6</ele>
        <time>2018-06-16T06:58:12Z</time>
      </trkpt>
      <trkpt lat="43.062883" lon="-1.405701">
        <ele>453.8</ele>
        <time>2018-06-16T06:58:17Z</time>
      </trkpt>
      <trkpt lat="43.062897" lon="-1.405909">
        <ele>452.5</ele>
        <time>2018-06-16T06:58:21Z</time>
      </trkpt>
      <trkpt lat="43.062944" lon="-1.406055">
        <ele>449.3</ele>
        <time>2018-06-16T06:58:24Z</time>
      </trkpt>
      <trkpt lat="43.062994" lon="-1.406141">
        <ele>446.6</ele>
        <time>2018-06-16T06:58:26Z</time>
      </trkpt>
      <trkpt lat="43.063150" lon="-1.406286">
        <ele>443.6</ele>
        <time>2018-06-16T06:58:31Z</time>
      </trkpt>
      <trkpt lat="43.063432" lon="-1.406352">
        <ele>443.3</ele>
        <time>2018-06-16T06:58:39Z</time>
      </trkpt>
      <trkpt lat="43.063775" lon="-1.406234">
        <ele>455.0</ele>
        <time>2018-06-16T06:58:48Z</time>
      </trkpt>
      <trkpt lat="43.063862" lon="-1.406234">
        <ele>456.5</ele>
        <time>2018-06-16T06:58:51Z</time>
      </trkpt>
      <trkpt lat="43.063911" lon="-1.406275">
        <ele>456.8</ele>
        <time>2018-06-16T06:58:52Z</time>
      </trkpt>
      <trkpt lat="43.063912" lon="-1.406365">
        <ele>456.3</ele>
        <time>2018-06-16T06:58:54Z</time>
      </trkpt>
      <trkpt lat="43.063826" lon="-1.406547">
        <ele>450.3</ele>
        <time>2018-06-16T06:58:58Z</time>
      </trkpt>
      <trkpt lat="43.063748" lon="-1.406711">
        <ele>447.3</ele>
        <time>2018-06-16T06:59:02Z</time>
      </trkpt>
      <trkpt lat="43.063754" lon="-1.407023">
        <ele>445.8</ele>
        <time>2018-06-16T06:59:08Z</time>
      </trkpt>
      <trkpt lat="43.063715" lon="-1.407177">
        <ele>443.2</ele>
        <time>2018-06-16T06:59:11Z</time>
      </trkpt>
      <trkpt lat="43.063656" lon="-1.407294">
        <ele>440.6</ele>
        <time>2018-06-16T06:59:14Z</time>
      </trkpt>
      <trkpt lat="43.063421" lon="-1.407616">
        <ele>431.5</ele>
        <time>2018-06-16T06:59:23Z</time>
      </trkpt>
      <trkpt lat="43.063391" lon="-1.407653">
        <ele>431.6</ele>
        <time>2018-06-16T06:59:24Z</time>
      </trkpt>
      <trkpt lat="43.063396" lon="-1.407721">
        <ele>430.7</ele>
        <time>2018-06-16T06:59:26Z</time>
      </trkpt>
      <trkpt lat="43.063483" lon="-1.407823">
        <ele>428.9</ele>
        <time>2018-06-16T06:59:29Z</time>
      </trkpt>
      <trkpt lat="43.063603" lon="-1.407914">
        <ele>429.9</ele>
        <time>2018-06-16T06:59:32Z</time>
      </trkpt>
      <trkpt lat="43.063742" lon="-1.408104">
        <ele>429.3</ele>
        <time>2018-06-16T06:59:37Z</time>
      </trkpt>
      <trkpt lat="43.063948" lon="-1.408684">
        <ele>430.0</ele>
        <time>2018-06-16T06:59:50Z</time>
      </trkpt>
      <trkpt lat="43.064074" lon="-1.409153">
        <ele>431.9</ele>
        <time>2018-06-16T07:00:00Z</time>
      </trkpt>
      <trkpt lat="43.064135" lon="-1.409343">
        <ele>434.3</ele>
        <time>2018-06-16T07:00:04Z</time>
      </trkpt>
      <trkpt lat="43.064228" lon="-1.409413">
        <ele>435.0</ele>
        <time>2018-06-16T07:00:06Z</time>
      </trkpt>
      <trkpt lat="43.064401" lon="-1.409538">
        <ele>434.8</ele>
        <time>2018-06-16T07:00:12Z</time>
      </trkpt>
      <trkpt lat="43.064702" lon="-1.409935">
        <ele>433.6</ele>
        <time>2018-06-16T07:00:23Z</time>
      </trkpt>
      <trkpt lat="43.064884" lon="-1.410089">
        <ele>430.0</ele>
        <time>2018-06-16T07:00:28Z</time>
      </trkpt>
      <trkpt lat="43.064959" lon="-1.410193">
        <ele>427.5</ele>
        <time>2018-06-16T07:00:31Z</time>
      </trkpt>
      <trkpt lat="43.065050" lon="-1.410411">
        <ele>424.6</ele>
        <time>2018-06-16T07:00:36Z</time>
      </trkpt>
      <trkpt lat="43.065130" lon="-1.410646">
        <ele>422.3</ele>
        <time>2018-06-16T07:00:41Z</time>
      </trkpt>
      <trkpt lat="43.065247" lon="-1.410809">
        <ele>421.5</ele>
        <time>2018-06-16T07:00:45Z</time>
      </trkpt>
      <trkpt lat="43.065374" lon="-1.410968">
        <ele>422.0</ele>
        <time>2018-06-16T07:00:50Z</time>
      </trkpt>
      <trkpt lat="43.065412" lon="-1.411127">
        <ele>421.5</ele>
        <time>2018-06-16T07:00:53Z</time>
      </trkpt>
      <trkpt lat="43.065478" lon="-1.411243">
        <ele>422.4</ele>
        <time>2018-06-16T07:00:56Z</time>
      </trkpt>
      <trkpt lat="43.065622" lon="-1.411404">
        <ele>423.1</ele>
        <time>2018-06-16T07:01:01Z</time>
      </trkpt>
      <trkpt lat="43.065951" lon="-1.411566">
        <ele>424.7</ele>
        <time>2018-06-16T07:01:10Z</time>
      </trkpt>
      <trkpt lat="43.066076" lon="-1.411666">
        <ele>425.3</ele>
        <time>2018-06-16T07:01:14Z</time>
      </trkpt>
      <trkpt lat="43.066213" lon="-1.411925">
        <ele>421.0</ele>
        <time>2018-06-16T07:01:20Z</time>
      </trkpt>
      <trkpt lat="43.066428" lon="-1.412208">
        <ele>420.7</ele>
        <time>2018-06-16T07:01:28Z</time>
      </trkpt>
      <trkpt lat="43.066933" lon="-1.412760">
        <ele>421.3</ele>
        <time>2018-06-16T07:01:45Z</time>
      </trkpt>
      <trkpt lat="43.067120" lon="-1.412981">
        <ele>423.5</ele>
        <time>2018-06-16T07:01:52Z</time>
      </trkpt>
      <trkpt lat="43.067476" lon="-1.413464">
        <ele>421.1</ele>
        <time>2018-06-16T07:02:05Z</time>
      </trkpt>
      <trkpt lat="43.067659" lon="-1.413696">
        <ele>424.6</ele>
        <time>2018-06-16T07:02:12Z</time>
      </trkpt>
      <trkpt lat="43.067830" lon="-1.413899">
        <ele>425.3</ele>
        <time>2018-06-16T07:02:18Z</time>
      </trkpt>
      <trkpt lat="43.067929" lon="-1.414084">
        <ele>423.2</ele>
        <time>2018-06-16T07:02:22Z</time>
      </trkpt>
      <trkpt lat="43.068180" lon="-1.414679">
        <ele>416.6</ele>
        <time>2018-06-16T07:02:35Z</time>
      </trkpt>
      <trkpt lat="43.068274" lon="-1.414886">
        <ele>418.1</ele>
        <time>2018-06-16T07:02:40Z</time>
      </trkpt>
      <trkpt lat="43.068367" lon="-1.414998">
        <ele>417.5</ele>
        <time>2018-06-16T07:02:43Z</time>
      </trkpt>
      <trkpt lat="43.068638" lon="-1.415242">
        <ele>413.3</ele>
        <time>2018-06-16T07:02:52Z</time>
      </trkpt>
      <trkpt lat="43.069183" lon="-1.415932">
        <ele>412.6</ele>
        <time>2018-06-16T07:03:11Z</time>
      </trkpt>
      <trkpt lat="43.069370" lon="-1.416091">
        <ele>413.8</ele>
        <time>2018-06-16T07:03:17Z</time>
      </trkpt>
      <trkpt lat="43.069765" lon="-1.416320">
        <ele>416.0</ele>
        <time>2018-06-16T07:03:29Z</time>
      </trkpt>
      <trkpt lat="43.069957" lon="-1.416577">
        <ele>412.9</ele>
        <time>2018-06-16T07:03:36Z</time>
      </trkpt>
      <trkpt lat="43.070067" lon="-1.416659">
        <ele>412.4</ele>
        <time>2018-06-16T07:03:39Z</time>
      </trkpt>
      <trkpt lat="43.070387" lon="-1.416697">
        <ele>412.2</ele>
        <time>2018-06-16T07:03:48Z</time>
      </trkpt>
      <trkpt lat="43.070720" lon="-1.416794">
        <ele>415.8</ele>
        <time>2018-06-16T07:03:57Z</time>
      </trkpt>
      <trkpt lat="43.071029" lon="-1.417010">
        <ele>416.3</ele>
        <time>2018-06-16T07:04:06Z</time>
      </trkpt>
      <trkpt lat="43.071325" lon="-1.417319">
        <ele>408.4</ele>
        <time>2018-06-16T07:04:16Z</time>
      </trkpt>
      <trkpt lat="43.071503" lon="-1.417462">
        <ele>406.0</ele>
        <time>2018-06-16T07:04:21Z</time>
      </trkpt>
      <trkpt lat="43.071689" lon="-1.417501">
        <ele>405.8</ele>
        <time>2018-06-16T07:04:26Z</time>
      </trkpt>
      <trkpt lat="43.071935" lon="-1.417411">
        <ele>410.0</ele>
        <time>2018-06-16T07:04:33Z</time>
      </trkpt>
      <trkpt lat="43.072183" lon="-1.417296">
        <ele>416.4</ele>
        <time>2018-06-16T07:04:40Z</time>
      </trkpt>
      <trkpt lat="43.072291" lon="-1.417308">
        <ele>417.4</ele>
        <time>2018-06-16T07:04:43Z</time>
      </trkpt>
      <trkpt lat="43.072374" lon="-1.417349">
        <ele>416.5</ele>
        <time>2018-06-16T07:04:45Z</time>
      </trkpt>
      <trkpt lat="43.073067" lon="-1.417814">
        <ele>405.9</ele>
        <time>2018-06-16T07:05:06Z</time>
      </trkpt>
      <trkpt lat="43.073338" lon="-1.417957">
        <ele>405.9</ele>
        <time>2018-06-16T07:05:13Z</time>
      </trkpt>
      <trkpt lat="43.073833" lon="-1.418102">
        <ele>410.3</ele>
        <time>2018-06-16T07:05:27Z</time>
      </trkpt>
      <trkpt lat="43.074052" lon="-1.418149">
        <ele>412.4</ele>
        <time>2018-06-16T07:05:33Z</time>
      </trkpt>
      <trkpt lat="43.074241" lon="-1.418264">
        <ele>409.1</ele>
        <time>2018-06-16T07:05:38Z</time>
      </trkpt>
      <trkpt lat="43.074526" lon="-1.418547">
        <ele>407.1</ele>
        <time>2018-06-16T07:05:47Z</time>
      </trkpt>
      <trkpt lat="43.074699" lon="-1.418726">
        <ele>408.5</ele>
        <time>2018-06-16T07:05:53Z</time>
      </trkpt>
      <trkpt lat="43.074794" lon="-1.418897">
        <ele>408.4</ele>
        <time>2018-06-16T07:05:57Z</time>
      </trkpt>
      <trkpt lat="43.074868" lon="-1.419178">
        <ele>407.4</ele>
        <time>2018-06-16T07:06:03Z</time>
      </trkpt>
      <trkpt lat="43.074918" lon="-1.419335">
        <ele>406.5</ele>
        <time>2018-06-16T07:06:06Z</time>
      </trkpt>
      <trkpt lat="43.074997" lon="-1.419527">
        <ele>404.1</ele>
        <time>2018-06-16T07:06:11Z</time>
      </trkpt>
      <trkpt lat="43.075097" lon="-1.419694">
        <ele>402.3</ele>
        <time>2018-06-16T07:06:15Z</time>
      </trkpt>
      <trkpt lat="43.075286" lon="-1.419921">
        <ele>399.4</ele>
        <time>2018-06-16T07:06:21Z</time>
      </trkpt>
      <trkpt lat="43.075533" lon="-1.420155">
        <ele>400.0</ele>
        <time>2018-06-16T07:06:29Z</time>
      </trkpt>
      <trkpt lat="43.075787" lon="-1.420468">
        <ele>398.6</ele>
        <time>2018-06-16T07:06:38Z</time>
      </trkpt>
      <trkpt lat="43.075906" lon="-1.420539">
        <ele>398.7</ele>
        <time>2018-06-16T07:06:42Z</time>
      </trkpt>
      <trkpt lat="43.076226" lon="-1.420627">
        <ele>401.1</ele>
        <time>2018-06-16T07:06:50Z</time>
      </trkpt>
      <trkpt lat="43.076428" lon="-1.420643">
        <ele>404.2</ele>
        <time>2018-06-16T07:06:56Z</time>
      </trkpt>
      <trkpt lat="43.076600" lon="-1.420742">
        <ele>403.2</ele>
        <time>2018-06-16T07:07:01Z</time>
      </trkpt>
      <trkpt lat="43.077043" lon="-1.421037">
        <ele>395.8</ele>
        <time>2018-06-16T07:07:14Z</time>
      </trkpt>
      <trkpt lat="43.077353" lon="-1.421263">
        <ele>393.8</ele>
        <time>2018-06-16T07:07:23Z</time>
      </trkpt>
      <trkpt lat="43.078104" lon="-1.421697">
        <ele>391.2</ele>
        <time>2018-06-16T07:07:45Z</time>
      </trkpt>
      <trkpt lat="43.078226" lon="-1.421756">
        <ele>390.9</ele>
        <time>2018-06-16T07:07:48Z</time>
      </trkpt>
      <trkpt lat="43.078455" lon="-1.421782">
        <ele>393.3</ele>
        <time>2018-06-16T07:07:54Z</time>
      </trkpt>
      <trkpt lat="43.078736" lon="-1.421803">
        <ele>397.8</ele>
        <time>2018-06-16T07:08:02Z</time>
      </trkpt>
      <trkpt lat="43.078929" lon="-1.421881">
        <ele>398.4</ele>
        <time>2018-06-16T07:08:07Z</time>
      </trkpt>
      <trkpt lat="43.079371" lon="-1.422175">
        <ele>396.9</ele>
        <time>2018-06-16T07:08:20Z</time>
      </trkpt>
      <trkpt lat="43.079508" lon="-1.422240">
        <ele>397.7</ele>
        <time>2018-06-16T07:08:24Z</time>
      </trkpt>
      <trkpt lat="43.079729" lon="-1.422267">
        <ele>396.9</ele>
        <time>2018-06-16T07:08:30Z</time>
      </trkpt>
      <trkpt lat="43.080095" lon="-1.422215">
        <ele>398.2</ele>
        <time>2018-06-16T07:08:39Z</time>
      </trkpt>
      <trkpt lat="43.080626" lon="-1.422184">
        <ele>393.5</ele>
        <time>2018-06-16T07:08:53Z</time>
      </trkpt>
      <trkpt lat="43.080807" lon="-1.422176">
        <ele>392.0</ele>
        <time>2018-06-16T07:08:58Z</time>
      </trkpt>
      <trkpt lat="43.080976" lon="-1.422221">
        <ele>389.5</ele>
        <time>2018-06-16T07:09:03Z</time>
      </trkpt>
      <trkpt lat="43.082013" lon="-1.422572">
        <ele>381.4</ele>
        <time>2018-06-16T07:09:31Z</time>
      </trkpt>
      <trkpt lat="43.082521" lon="-1.422892">
        <ele>382.0</ele>
        <time>2018-06-16T07:09:46Z</time>
      </trkpt>
      <trkpt lat="43.082723" lon="-1.423009">
        <ele>382.6</ele>
        <time>2018-06-16T07:09:52Z</time>
      </trkpt>
      <trkpt lat="43.083034" lon="-1.423036">
        <ele>384.5</ele>
        <time>2018-06-16T07:10:00Z</time>
      </trkpt>
      <trkpt lat="43.083410" lon="-1.423040">
        <ele>383.8</ele>
        <time>2018-06-16T07:10:10Z</time>
      </trkpt>
      <trkpt lat="43.083670" lon="-1.423075">
        <ele>379.2</ele>
        <time>2018-06-16T07:10:17Z</time>
      </trkpt>
      <trkpt lat="43.083890" lon="-1.423183">
        <ele>378.9</ele>
        <time>2018-06-16T07:10:23Z</time>
      </trkpt>
      <trkpt lat="43.084188" lon="-1.423389">
        <ele>382.0</ele>
        <time>2018-06-16T07:10:32Z</time>
      </trkpt>
      <trkpt lat="43.084388" lon="-1.423469">
        <ele>381.8</ele>
        <time>2018-06-16T07:10:37Z</time>
      </trkpt>
      <trkpt lat="43.085176" lon="-1.423618">
        <ele>384.0</ele>
        <time>2018-06-16T07:10:58Z</time>
      </trkpt>
      <trkpt lat="43.085678" lon="-1.423646">
        <ele>386.5</ele>
        <time>2018-06-16T07:11:11Z</time>
      </trkpt>
      <trkpt lat="43.086468" lon="-1.423747">
        <ele>384.8</ele>
        <time>2018-06-16T07:11:32Z</time>
      </trkpt>
      <trkpt lat="43.086657" lon="-1.423793">
        <ele>387.2</ele>
        <time>2018-06-16T07:11:37Z</time>
      </trkpt>
      <trkpt lat="43.088056" lon="-1.424144">
        <ele>369.2</ele>
        <time>2018-06-16T07:12:15Z</time>
      </trkpt>
      <trkpt lat="43.088897" lon="-1.424385">
        <ele>374.9</ele>
        <time>2018-06-16T07:12:38Z</time>
      </trkpt>
      <trkpt lat="43.089098" lon="-1.424425">
        <ele>373.2</ele>
        <time>2018-06-16T07:12:43Z</time>
      </trkpt>
      <trkpt lat="43.089551" lon="-1.424369">
        <ele>377.2</ele>
        <time>2018-06-16T07:12:55Z</time>
      </trkpt>
      <trkpt lat="43.089812" lon="-1.424417">
        <ele>378.0</ele>
        <time>2018-06-16T07:13:02Z</time>
      </trkpt>
      <trkpt lat="43.089999" lon="-1.424465">
        <ele>377.8</ele>
        <time>2018-06-16T07:13:07Z</time>
      </trkpt>
      <trkpt lat="43.090515" lon="-1.424655">
        <ele>378.2</ele>
        <time>2018-06-16T07:13:21Z</time>
      </trkpt>
      <trkpt lat="43.091274" lon="-1.424736">
        <ele>374.3</ele>
        <time>2018-06-16T07:13:41Z</time>
      </trkpt>
      <trkpt lat="43.092196" lon="-1.424871">
        <ele>375.8</ele>
        <time>2018-06-16T07:14:06Z</time>
      </trkpt>
      <trkpt lat="43.092652" lon="-1.424980">
        <ele>385.7</ele>
        <time>2018-06-16T07:14:18Z</time>
      </trkpt>
      <trkpt lat="43.092742" lon="-1.424986">
        <ele>386.6</ele>
        <time>2018-06-16T07:14:21Z</time>
      </trkpt>
      <trkpt lat="43.093464" lon="-1.424810">
        <ele>384.7</ele>
        <time>2018-06-16T07:14:40Z</time>
      </trkpt>
      <trkpt lat="43.093643" lon="-1.424771">
        <ele>386.4</ele>
        <time>2018-06-16T07:14:45Z</time>
      </trkpt>
      <trkpt lat="43.093828" lon="-1.424793">
        <ele>388.9</ele>
        <time>2018-06-16T07:14:50Z</time>
      </trkpt>
      <trkpt lat="43.094012" lon="-1.424857">
        <ele>392.7</ele>
        <time>2018-06-16T07:14:55Z</time>
      </trkpt>
      <trkpt lat="43.094721" lon="-1.425120">
        <ele>378.1</ele>
        <time>2018-06-16T07:15:15Z</time>
      </trkpt>
      <trkpt lat="43.095611" lon="-1.425682">
        <ele>373.0</ele>
        <time>2018-06-16T07:15:40Z</time>
      </trkpt>
      <trkpt lat="43.096559" lon="-1.426059">
        <ele>380.8</ele>
        <time>2018-06-16T07:16:06Z</time>
      </trkpt>
      <trkpt lat="43.098032" lon="-1.426716">
        <ele>376.8</ele>
        <time>2018-06-16T07:16:47Z</time>
      </trkpt>
      <trkpt lat="43.098206" lon="-1.426830">
        <ele>375.7</ele>
        <time>2018-06-16T07:16:52Z</time>
      </trkpt>
      <trkpt lat="43.098322" lon="-1.426961">
        <ele>373.7</ele>
        <time>2018-06-16T07:16:56Z</time>
      </trkpt>
      <trkpt lat="43.098450" lon="-1.427199">
        <ele>370.2</ele>
        <time>2018-06-16T07:17:02Z</time>
      </trkpt>
      <trkpt lat="43.098506" lon="-1.427324">
        <ele>369.8</ele>
        <time>2018-06-16T07:17:05Z</time>
      </trkpt>
      <trkpt lat="43.098541" lon="-1.427381">
        <ele>369.9</ele>
        <time>2018-06-16T07:17:06Z</time>
      </trkpt>
      <trkpt lat="43.098578" lon="-1.427416">
        <ele>370.2</ele>
        <time>2018-06-16T07:17:08Z</time>
      </trkpt>
      <trkpt lat="43.098617" lon="-1.427485">
        <ele>370.4</ele>
        <time>2018-06-16T07:17:09Z</time>
      </trkpt>
      <trkpt lat="43.098605" lon="-1.427555">
        <ele>369.9</ele>
        <time>2018-06-16T07:17:11Z</time>
      </trkpt>
      <trkpt lat="43.098575" lon="-1.427694">
        <ele>369.5</ele>
        <time>2018-06-16T07:17:14Z</time>
      </trkpt>
      <trkpt lat="43.098551" lon="-1.427997">
        <ele>371.5</ele>
        <time>2018-06-16T07:17:19Z</time>
      </trkpt>
      <trkpt lat="43.098548" lon="-1.428216">
        <ele>372.9</ele>
        <time>2018-06-16T07:17:24Z</time>
      </trkpt>
      <trkpt lat="43.098556" lon="-1.428440">
        <ele>375.0</ele>
        <time>2018-06-16T07:17:28Z</time>
      </trkpt>
      <trkpt lat="43.098530" lon="-1.428631">
        <ele>377.0</ele>
        <time>2018-06-16T07:17:32Z</time>
      </trkpt>
      <trkpt lat="43.098456" lon="-1.428878">
        <ele>379.0</ele>
        <time>2018-06-16T07:17:37Z</time>
      </trkpt>
      <trkpt lat="43.098422" lon="-1.429042">
        <ele>380.8</ele>
        <time>2018-06-16T07:17:40Z</time>
      </trkpt>
      <trkpt lat="43.098512" lon="-1.429369">
        <ele>383.1</ele>
        <time>2018-06-16T07:17:47Z</time>
      </trkpt>
      <trkpt lat="43.098596" lon="-1.429601">
        <ele>386.6</ele>
        <time>2018-06-16T07:17:52Z</time>
      </trkpt>
      <trkpt lat="43.098648" lon="-1.429821">
        <ele>386.5</ele>
        <time>2018-06-16T07:17:56Z</time>
      </trkpt>
      <trkpt lat="43.098657" lon="-1.429892">
        <ele>386.9</ele>
        <time>2018-06-16T07:17:58Z</time>
      </trkpt>
      <trkpt lat="43.098678" lon="-1.429963">
        <ele>387.5</ele>
        <time>2018-06-16T07:17:59Z</time>
      </trkpt>
      <trkpt lat="43.098707" lon="-1.430012">
        <ele>387.4</ele>
        <time>2018-06-16T07:18:01Z</time>
      </trkpt>
      <trkpt lat="43.098762" lon="-1.430024">
        <ele>386.3</ele>
        <time>2018-06-16T07:18:02Z</time>
      </trkpt>
      <trkpt lat="43.098854" lon="-1.430030">
        <ele>386.2</ele>
        <time>2018-06-16T07:18:04Z</time>
      </trkpt>
      <trkpt lat="43.099042" lon="-1.429978">
        <ele>385.0</ele>
        <time>2018-06-16T07:18:10Z</time>
      </trkpt>
      <trkpt lat="43.099102" lon="-1.429974">
        <ele>384.0</ele>
        <time>2018-06-16T07:18:11Z</time>
      </trkpt>
      <trkpt lat="43.099203" lon="-1.430014">
        <ele>382.4</ele>
        <time>2018-06-16T07:18:14Z</time>
      </trkpt>
      <trkpt lat="43.099269" lon="-1.430106">
        <ele>381.0</ele>
        <time>2018-06-16T07:18:16Z</time>
      </trkpt>
      <trkpt lat="43.099391" lon="-1.430260">
        <ele>379.7</ele>
        <time>2018-06-16T07:18:21Z</time>
      </trkpt>
      <trkpt lat="43.099592" lon="-1.430375">
        <ele>381.2</ele>
        <time>2018-06-16T07:18:27Z</time>
      </trkpt>
      <trkpt lat="43.099726" lon="-1.430468">
        <ele>384.6</ele>
        <time>2018-06-16T07:18:31Z</time>
      </trkpt>
      <trkpt lat="43.099862" lon="-1.430655">
        <ele>390.5</ele>
        <time>2018-06-16T07:18:36Z</time>
      </trkpt>
      <trkpt lat="43.099951" lon="-1.430817">
        <ele>395.7</ele>
        <time>2018-06-16T07:18:40Z</time>
      </trkpt>
      <trkpt lat="43.100159" lon="-1.431031">
        <ele>406.4</ele>
        <time>2018-06-16T07:18:47Z</time>
      </trkpt>
      <trkpt lat="43.100555" lon="-1.431723">
        <ele>417.8</ele>
        <time>2018-06-16T07:19:04Z</time>
      </trkpt>
      <trkpt lat="43.101032" lon="-1.432228">
        <ele>439.4</ele>
        <time>2018-06-16T07:19:21Z</time>
      </trkpt>
      <trkpt lat="43.101270" lon="-1.432816">
        <ele>439.4</ele>
        <time>2018-06-16T07:19:34Z</time>
      </trkpt>
      <trkpt lat="43.101374" lon="-1.432968">
        <ele>443.8</ele>
        <time>2018-06-16T07:19:38Z</time>
      </trkpt>
      <trkpt lat="43.101603" lon="-1.433204">
        <ele>451.1</ele>
        <time>2018-06-16T07:19:46Z</time>
      </trkpt>
      <trkpt lat="43.102137" lon="-1.433558">
        <ele>470.3</ele>
        <time>2018-06-16T07:20:02Z</time>
      </trkpt>
      <trkpt lat="43.102488" lon="-1.433676">
        <ele>485.3</ele>
        <time>2018-06-16T07:20:12Z</time>
      </trkpt>
      <trkpt lat="43.102613" lon="-1.433837">
        <ele>489.9</ele>
        <time>2018-06-16T07:20:17Z</time>
      </trkpt>
      <trkpt lat="43.102719" lon="-1.434030">
        <ele>495.2</ele>
        <time>2018-06-16T07:20:22Z</time>
      </trkpt>
      <trkpt lat="43.102797" lon="-1.434331">
        <ele>500.7</ele>
        <time>2018-06-16T07:20:28Z</time>
      </trkpt>
      <trkpt lat="43.102836" lon="-1.434529">
        <ele>504.3</ele>
        <time>2018-06-16T07:20:32Z</time>
      </trkpt>
      <trkpt lat="43.102907" lon="-1.434759">
        <ele>511.0</ele>
        <time>2018-06-16T07:20:37Z</time>
      </trkpt>
      <trkpt lat="43.102956" lon="-1.434770">
        <ele>513.5</ele>
        <time>2018-06-16T07:20:39Z</time>
      </trkpt>
      <trkpt lat="43.102980" lon="-1.434695">
        <ele>513.4</ele>
        <time>2018-06-16T07:20:40Z</time>
      </trkpt>
      <trkpt lat="43.103007" lon="-1.434518">
        <ele>512.1</ele>
        <time>2018-06-16T07:20:44Z</time>
      </trkpt>
      <trkpt lat="43.103003" lon="-1.434073">
        <ele>512.3</ele>
        <time>2018-06-16T07:20:52Z</time>
      </trkpt>
      <trkpt lat="43.103039" lon="-1.433515">
        <ele>525.0</ele>
        <time>2018-06-16T07:21:04Z</time>
      </trkpt>
      <trkpt lat="43.103093" lon="-1.433467">
        <ele>528.7</ele>
        <time>2018-06-16T07:21:06Z</time>
      </trkpt>
      <trkpt lat="43.103156" lon="-1.433445">
        <ele>531.8</ele>
        <time>2018-06-16T07:21:07Z</time>
      </trkpt>
      <trkpt lat="43.103248" lon="-1.433499">
        <ele>534.3</ele>
        <time>2018-06-16T07:21:10Z</time>
      </trkpt>
      <trkpt lat="43.103369" lon="-1.433561">
        <ele>538.6</ele>
        <time>2018-06-16T07:21:14Z</time>
      </trkpt>
      <trkpt lat="43.103546" lon="-1.433653">
        <ele>546.2</ele>
        <time>2018-06-16T07:21:19Z</time>
      </trkpt>
      <trkpt lat="43.103785" lon="-1.433745">
        <ele>550.1</ele>
        <time>2018-06-16T07:21:26Z</time>
      </trkpt>
      <trkpt lat="43.104027" lon="-1.433818">
        <ele>553.2</ele>
        <time>2018-06-16T07:21:32Z</time>
      </trkpt>
      <trkpt lat="43.104697" lon="-1.433820">
        <ele>575.6</ele>
        <time>2018-06-16T07:21:51Z</time>
      </trkpt>
      <trkpt lat="43.104771" lon="-1.433800">
        <ele>577.2</ele>
        <time>2018-06-16T07:21:53Z</time>
      </trkpt>
      <trkpt lat="43.104809" lon="-1.433718">
        <ele>576.7</ele>
        <time>2018-06-16T07:21:55Z</time>
      </trkpt>
      <trkpt lat="43.104844" lon="-1.433475">
        <ele>579.7</ele>
        <time>2018-06-16T07:21:59Z</time>
      </trkpt>
      <trkpt lat="43.104913" lon="-1.433193">
        <ele>574.1</ele>
        <time>2018-06-16T07:22:05Z</time>
      </trkpt>
      <trkpt lat="43.104994" lon="-1.433010">
        <ele>573.1</ele>
        <time>2018-06-16T07:22:09Z</time>
      </trkpt>
      <trkpt lat="43.105132" lon="-1.432865">
        <ele>577.9</ele>
        <time>2018-06-16T07:22:14Z</time>
      </trkpt>
      <trkpt lat="43.105231" lon="-1.432769">
        <ele>582.8</ele>
        <time>2018-06-16T07:22:17Z</time>
      </trkpt>
      <trkpt lat="43.105311" lon="-1.432703">
        <ele>585.8</ele>
        <time>2018-06-16T07:22:20Z</time>
      </trkpt>
      <trkpt lat="43.105373" lon="-1.432755">
        <ele>589.1</ele>
        <time>2018-06-16T07:22:22Z</time>
      </trkpt>
      <trkpt lat="43.105401" lon="-1.432874">
        <ele>592.4</ele>
        <time>2018-06-16T07:22:25Z</time>
      </trkpt>
      <trkpt lat="43.105411" lon="-1.433266">
        <ele>596.0</ele>
        <time>2018-06-16T07:22:32Z</time>
      </trkpt>
      <trkpt lat="43.105397" lon="-1.433418">
        <ele>595.9</ele>
        <time>2018-06-16T07:22:35Z</time>
      </trkpt>
      <trkpt lat="43.105402" lon="-1.433467">
        <ele>596.3</ele>
        <time>2018-06-16T07:22:36Z</time>
      </trkpt>
      <trkpt lat="43.105452" lon="-1.433467">
        <ele>599.2</ele>
        <time>2018-06-16T07:22:38Z</time>
      </trkpt>
      <trkpt lat="43.105504" lon="-1.433385">
        <ele>601.6</ele>
        <time>2018-06-16T07:22:40Z</time>
      </trkpt>
      <trkpt lat="43.105560" lon="-1.433274">
        <ele>603.6</ele>
        <time>2018-06-16T07:22:42Z</time>
      </trkpt>
      <trkpt lat="43.105732" lon="-1.433012">
        <ele>608.6</ele>
        <time>2018-06-16T07:22:49Z</time>
      </trkpt>
      <trkpt lat="43.105785" lon="-1.432937">
        <ele>609.6</ele>
        <time>2018-06-16T07:22:51Z</time>
      </trkpt>
      <trkpt lat="43.105826" lon="-1.432904">
        <ele>610.6</ele>
        <time>2018-06-16T07:22:53Z</time>
      </trkpt>
      <trkpt lat="43.105856" lon="-1.432893">
        <ele>611.6</ele>
        <time>2018-06-16T07:22:53Z</time>
      </trkpt>
      <trkpt lat="43.105895" lon="-1.432944">
        <ele>613.9</ele>
        <time>2018-06-16T07:22:55Z</time>
      </trkpt>
      <trkpt lat="43.105942" lon="-1.433209">
        <ele>622.6</ele>
        <time>2018-06-16T07:23:01Z</time>
      </trkpt>
      <trkpt lat="43.105981" lon="-1.433354">
        <ele>625.9</ele>
        <time>2018-06-16T07:23:04Z</time>
      </trkpt>
      <trkpt lat="43.105993" lon="-1.433450">
        <ele>627.3</ele>
        <time>2018-06-16T07:23:06Z</time>
      </trkpt>
      <trkpt lat="43.105993" lon="-1.433536">
        <ele>629.0</ele>
        <time>2018-06-16T07:23:07Z</time>
      </trkpt>
      <trkpt lat="43.106097" lon="-1.433681">
        <ele>633.4</ele>
        <time>2018-06-16T07:23:11Z</time>
      </trkpt>
      <trkpt lat="43.106380" lon="-1.434046">
        <ele>640.6</ele>
        <time>2018-06-16T07:23:22Z</time>
      </trkpt>
      <trkpt lat="43.106673" lon="-1.434325">
        <ele>650.2</ele>
        <time>2018-06-16T07:23:31Z</time>
      </trkpt>
      <trkpt lat="43.107014" lon="-1.434583">
        <ele>655.5</ele>
        <time>2018-06-16T07:23:42Z</time>
      </trkpt>
      <trkpt lat="43.107126" lon="-1.434754">
        <ele>656.8</ele>
        <time>2018-06-16T07:23:46Z</time>
      </trkpt>
      <trkpt lat="43.107255" lon="-1.434958">
        <ele>656.1</ele>
        <time>2018-06-16T07:23:51Z</time>
      </trkpt>
      <trkpt lat="43.107370" lon="-1.435225">
        <ele>654.8</ele>
        <time>2018-06-16T07:23:57Z</time>
      </trkpt>
      <trkpt lat="43.107413" lon="-1.435361">
        <ele>657.1</ele>
        <time>2018-06-16T07:24:00Z</time>
      </trkpt>
      <trkpt lat="43.107501" lon="-1.435594">
        <ele>660.3</ele>
        <time>2018-06-16T07:24:05Z</time>
      </trkpt>
      <trkpt lat="43.107532" lon="-1.435677">
        <ele>661.3</ele>
        <time>2018-06-16T07:24:07Z</time>
      </trkpt>
      <trkpt lat="43.107567" lon="-1.435720">
        <ele>661.3</ele>
        <time>2018-06-16T07:24:08Z</time>
      </trkpt>
      <trkpt lat="43.107646" lon="-1.435720">
        <ele>659.7</ele>
        <time>2018-06-16T07:24:11Z</time>
      </trkpt>
      <trkpt lat="43.107751" lon="-1.435645">
        <ele>659.4</ele>
        <time>2018-06-16T07:24:14Z</time>
      </trkpt>
      <trkpt lat="43.107909" lon="-1.435660">
        <ele>661.7</ele>
        <time>2018-06-16T07:24:18Z</time>
      </trkpt>
      <trkpt lat="43.107957" lon="-1.435669">
        <ele>660.8</ele>
        <time>2018-06-16T07:24:19Z</time>
      </trkpt>
      <trkpt lat="43.108045" lon="-1.435781">
        <ele>660.9</ele>
        <time>2018-06-16T07:24:22Z</time>
      </trkpt>
      <trkpt lat="43.108100" lon="-1.435907">
        <ele>662.2</ele>
        <time>2018-06-16T07:24:25Z</time>
      </trkpt>
      <trkpt lat="43.108123" lon="-1.436030">
        <ele>664.5</ele>
        <time>2018-06-16T07:24:28Z</time>
      </trkpt>
      <trkpt lat="43.108351" lon="-1.436876">
        <ele>672.4</ele>
        <time>2018-06-16T07:24:45Z</time>
      </trkpt>
      <trkpt lat="43.108549" lon="-1.437446">
        <ele>693.2</ele>
        <time>2018-06-16T07:24:58Z</time>
      </trkpt>
      <trkpt lat="43.108648" lon="-1.437709">
        <ele>701.4</ele>
        <time>2018-06-16T07:25:04Z</time>
      </trkpt>
      <trkpt lat="43.108709" lon="-1.437866">
        <ele>704.9</ele>
        <time>2018-06-16T07:25:08Z</time>
      </trkpt>
      <trkpt lat="43.108787" lon="-1.437969">
        <ele>704.8</ele>
        <time>2018-06-16T07:25:11Z</time>
      </trkpt>
      <trkpt lat="43.108840" lon="-1.438004">
        <ele>703.5</ele>
        <time>2018-06-16T07:25:12Z</time>
      </trkpt>
      <trkpt lat="43.108888" lon="-1.438024">
        <ele>702.1</ele>
        <time>2018-06-16T07:25:14Z</time>
      </trkpt>
      <trkpt lat="43.109005" lon="-1.438163">
        <ele>701.8</ele>
        <time>2018-06-16T07:25:18Z</time>
      </trkpt>
      <trkpt lat="43.109097" lon="-1.438335">
        <ele>700.0</ele>
        <time>2018-06-16T07:25:22Z</time>
      </trkpt>
      <trkpt lat="43.109176" lon="-1.438416">
        <ele>698.7</ele>
        <time>2018-06-16T07:25:24Z</time>
      </trkpt>
      <trkpt lat="43.109306" lon="-1.438514">
        <ele>696.8</ele>
        <time>2018-06-16T07:25:28Z</time>
      </trkpt>
      <trkpt lat="43.109407" lon="-1.438633">
        <ele>696.7</ele>
        <time>2018-06-16T07:25:32Z</time>
      </trkpt>
      <trkpt lat="43.109482" lon="-1.438716">
        <ele>698.1</ele>
        <time>2018-06-16T07:25:34Z</time>
      </trkpt>
      <trkpt lat="43.109536" lon="-1.438810">
        <ele>701.1</ele>
        <time>2018-06-16T07:25:37Z</time>
      </trkpt>
      <trkpt lat="43.109541" lon="-1.438823">
        <ele>701.5</ele>
        <time>2018-06-16T07:25:37Z</time>
      </trkpt>
      <trkpt lat="43.109580" lon="-1.438940">
        <ele>705.4</ele>
        <time>2018-06-16T07:25:40Z</time>
      </trkpt>
      <trkpt lat="43.109606" lon="-1.439028">
        <ele>707.2</ele>
        <time>2018-06-16T07:25:42Z</time>
      </trkpt>
      <trkpt lat="43.109609" lon="-1.439052">
        <ele>707.5</ele>
        <time>2018-06-16T07:25:42Z</time>
      </trkpt>
      <trkpt lat="43.109682" lon="-1.439259">
        <ele>708.0</ele>
        <time>2018-06-16T07:25:47Z</time>
      </trkpt>
      <trkpt lat="43.109733" lon="-1.439308">
        <ele>706.5</ele>
        <time>2018-06-16T07:25:48Z</time>
      </trkpt>
      <trkpt lat="43.109773" lon="-1.439403">
        <ele>704.9</ele>
        <time>2018-06-16T07:25:50Z</time>
      </trkpt>
      <trkpt lat="43.109793" lon="-1.439489">
        <ele>704.1</ele>
        <time>2018-06-16T07:25:52Z</time>
      </trkpt>
      <trkpt lat="43.109993" lon="-1.440127">
        <ele>701.6</ele>
        <time>2018-06-16T07:26:06Z</time>
      </trkpt>
      <trkpt lat="43.110152" lon="-1.440534">
        <ele>705.2</ele>
        <time>2018-06-16T07:26:15Z</time>
      </trkpt>
      <trkpt lat="43.110290" lon="-1.440765">
        <ele>708.0</ele>
        <time>2018-06-16T07:26:20Z</time>
      </trkpt>
      <trkpt lat="43.110354" lon="-1.440805">
        <ele>706.4</ele>
        <time>2018-06-16T07:26:22Z</time>
      </trkpt>
      <trkpt lat="43.110454" lon="-1.440727">
        <ele>702.1</ele>
        <time>2018-06-16T07:26:25Z</time>
      </trkpt>
      <trkpt lat="43.110803" lon="-1.440208">
        <ele>697.1</ele>
        <time>2018-06-16T07:26:39Z</time>
      </trkpt>
      <trkpt lat="43.111044" lon="-1.439913">
        <ele>699.0</ele>
        <time>2018-06-16T07:26:48Z</time>
      </trkpt>
      <trkpt lat="43.111463" lon="-1.439527">
        <ele>701.8</ele>
        <time>2018-06-16T07:27:01Z</time>
      </trkpt>
      <trkpt lat="43.111727" lon="-1.439335">
        <ele>698.1</ele>
        <time>2018-06-16T07:27:09Z</time>
      </trkpt>
      <trkpt lat="43.111964" lon="-1.439190">
        <ele>694.8</ele>
        <time>2018-06-16T07:27:16Z</time>
      </trkpt>
      <trkpt lat="43.112039" lon="-1.439131">
        <ele>694.3</ele>
        <time>2018-06-16T07:27:18Z</time>
      </trkpt>
      <trkpt lat="43.112081" lon="-1.439091">
        <ele>694.2</ele>
        <time>2018-06-16T07:27:19Z</time>
      </trkpt>
      <trkpt lat="43.112110" lon="-1.439055">
        <ele>694.2</ele>
        <time>2018-06-16T07:27:20Z</time>
      </trkpt>
      <trkpt lat="43.112131" lon="-1.438991">
        <ele>693.9</ele>
        <time>2018-06-16T07:27:22Z</time>
      </trkpt>
      <trkpt lat="43.112157" lon="-1.438920">
        <ele>693.8</ele>
        <time>2018-06-16T07:27:23Z</time>
      </trkpt>
      <trkpt lat="43.112199" lon="-1.438881">
        <ele>693.9</ele>
        <time>2018-06-16T07:27:25Z</time>
      </trkpt>
      <trkpt lat="43.112246" lon="-1.438857">
        <ele>694.1</ele>
        <time>2018-06-16T07:27:26Z</time>
      </trkpt>
      <trkpt lat="43.112325" lon="-1.438856">
        <ele>694.5</ele>
        <time>2018-06-16T07:27:28Z</time>
      </trkpt>
      <trkpt lat="43.112443" lon="-1.438923">
        <ele>694.2</ele>
        <time>2018-06-16T07:27:31Z</time>
      </trkpt>
      <trkpt lat="43.112517" lon="-1.438992">
        <ele>694.4</ele>
        <time>2018-06-16T07:27:34Z</time>
      </trkpt>
      <trkpt lat="43.112600" lon="-1.439026">
        <ele>694.8</ele>
        <time>2018-06-16T07:27:36Z</time>
      </trkpt>
      <trkpt lat="43.112702" lon="-1.439063">
        <ele>692.0</ele>
        <time>2018-06-16T07:27:39Z</time>
      </trkpt>
      <trkpt lat="43.112823" lon="-1.439070">
        <ele>685.2</ele>
        <time>2018-06-16T07:27:42Z</time>
      </trkpt>
      <trkpt lat="43.112960" lon="-1.439057">
        <ele>678.5</ele>
        <time>2018-06-16T07:27:46Z</time>
      </trkpt>
      <trkpt lat="43.113151" lon="-1.439022">
        <ele>672.6</ele>
        <time>2018-06-16T07:27:52Z</time>
      </trkpt>
      <trkpt lat="43.113352" lon="-1.438986">
        <ele>671.4</ele>
        <time>2018-06-16T07:27:57Z</time>
      </trkpt>
      <trkpt lat="43.113553" lon="-1.438999">
        <ele>670.2</ele>
        <time>2018-06-16T07:28:02Z</time>
      </trkpt>
      <trkpt lat="43.113824" lon="-1.439088">
        <ele>667.8</ele>
        <time>2018-06-16T07:28:10Z</time>
      </trkpt>
      <trkpt lat="43.114075" lon="-1.439177">
        <ele>666.9</ele>
        <time>2018-06-16T07:28:17Z</time>
      </trkpt>
      <trkpt lat="43.114390" lon="-1.439341">
        <ele>666.0</ele>
        <time>2018-06-16T07:28:25Z</time>
      </trkpt>
      <trkpt lat="43.114641" lon="-1.439443">
        <ele>667.9</ele>
        <time>2018-06-16T07:28:32Z</time>
      </trkpt>
      <trkpt lat="43.115005" lon="-1.439515">
        <ele>669.8</ele>
        <time>2018-06-16T07:28:42Z</time>
      </trkpt>
      <trkpt lat="43.115901" lon="-1.439606">
        <ele>673.8</ele>
        <time>2018-06-16T07:29:06Z</time>
      </trkpt>
      <trkpt lat="43.116056" lon="-1.439603">
        <ele>673.5</ele>
        <time>2018-06-16T07:29:10Z</time>
      </trkpt>
      <trkpt lat="43.116268" lon="-1.439635">
        <ele>670.1</ele>
        <time>2018-06-16T07:29:16Z</time>
      </trkpt>
      <trkpt lat="43.116374" lon="-1.439583">
        <ele>669.3</ele>
        <time>2018-06-16T07:29:19Z</time>
      </trkpt>
      <trkpt lat="43.116489" lon="-1.439513">
        <ele>669.0</ele>
        <time>2018-06-16T07:29:22Z</time>
      </trkpt>
      <trkpt lat="43.116634" lon="-1.439279">
        <ele>673.3</ele>
        <time>2018-06-16T07:29:28Z</time>
      </trkpt>
      <trkpt lat="43.116936" lon="-1.438728">
        <ele>680.6</ele>
        <time>2018-06-16T07:29:41Z</time>
      </trkpt>
      <trkpt lat="43.116997" lon="-1.438668">
        <ele>680.5</ele>
        <time>2018-06-16T07:29:43Z</time>
      </trkpt>
      <trkpt lat="43.117044" lon="-1.438649">
        <ele>679.8</ele>
        <time>2018-06-16T07:29:45Z</time>
      </trkpt>
      <trkpt lat="43.117093" lon="-1.438656">
        <ele>678.4</ele>
        <time>2018-06-16T07:29:46Z</time>
      </trkpt>
      <trkpt lat="43.117141" lon="-1.438701">
        <ele>676.2</ele>
        <time>2018-06-16T07:29:47Z</time>
      </trkpt>
      <trkpt lat="43.117194" lon="-1.438803">
        <ele>672.5</ele>
        <time>2018-06-16T07:29:50Z</time>
      </trkpt>
      <trkpt lat="43.117233" lon="-1.438921">
        <ele>668.3</ele>
        <time>2018-06-16T07:29:53Z</time>
      </trkpt>
      <trkpt lat="43.117243" lon="-1.439032">
        <ele>665.1</ele>
        <time>2018-06-16T07:29:55Z</time>
      </trkpt>
      <trkpt lat="43.117283" lon="-1.439176">
        <ele>660.6</ele>
        <time>2018-06-16T07:29:58Z</time>
      </trkpt>
      <trkpt lat="43.117346" lon="-1.439310">
        <ele>655.5</ele>
        <time>2018-06-16T07:30:01Z</time>
      </trkpt>
      <trkpt lat="43.117436" lon="-1.439411">
        <ele>652.8</ele>
        <time>2018-06-16T07:30:05Z</time>
      </trkpt>
      <trkpt lat="43.117485" lon="-1.439495">
        <ele>651.2</ele>
        <time>2018-06-16T07:30:07Z</time>
      </trkpt>
      <trkpt lat="43.117517" lon="-1.439634">
        <ele>649.1</ele>
        <time>2018-06-16T07:30:10Z</time>
      </trkpt>
      <trkpt lat="43.117532" lon="-1.439748">
        <ele>647.2</ele>
        <time>2018-06-16T07:30:12Z</time>
      </trkpt>
      <trkpt lat="43.117586" lon="-1.439840">
        <ele>645.5</ele>
        <time>2018-06-16T07:30:14Z</time>
      </trkpt>
      <trkpt lat="43.117668" lon="-1.439954">
        <ele>642.5</ele>
        <time>2018-06-16T07:30:17Z</time>
      </trkpt>
      <trkpt lat="43.117775" lon="-1.440042">
        <ele>640.9</ele>
        <time>2018-06-16T07:30:21Z</time>
      </trkpt>
      <trkpt lat="43.117922" lon="-1.440116">
        <ele>640.4</ele>
        <time>2018-06-16T07:30:25Z</time>
      </trkpt>
      <trkpt lat="43.118084" lon="-1.440152">
        <ele>637.5</ele>
        <time>2018-06-16T07:30:29Z</time>
      </trkpt>
      <trkpt lat="43.118328" lon="-1.440281">
        <ele>637.1</ele>
        <time>2018-06-16T07:30:36Z</time>
      </trkpt>
      <trkpt lat="43.118491" lon="-1.440370">
        <ele>638.2</ele>
        <time>2018-06-16T07:30:41Z</time>
      </trkpt>
      <trkpt lat="43.118648" lon="-1.440411">
        <ele>635.0</ele>
        <time>2018-06-16T07:30:45Z</time>
      </trkpt>
      <trkpt lat="43.118833" lon="-1.440414">
        <ele>635.8</ele>
        <time>2018-06-16T07:30:50Z</time>
      </trkpt>
      <trkpt lat="43.118927" lon="-1.440427">
        <ele>638.3</ele>
        <time>2018-06-16T07:30:52Z</time>
      </trkpt>
      <trkpt lat="43.119038" lon="-1.440504">
        <ele>638.5</ele>
        <time>2018-06-16T07:30:56Z</time>
      </trkpt>
      <trkpt lat="43.119123" lon="-1.440577">
        <ele>635.6</ele>
        <time>2018-06-16T07:30:58Z</time>
      </trkpt>
      <trkpt lat="43.119224" lon="-1.440595">
        <ele>634.9</ele>
        <time>2018-06-16T07:31:01Z</time>
      </trkpt>
      <trkpt lat="43.119332" lon="-1.440590">
        <ele>635.1</ele>
        <time>2018-06-16T07:31:04Z</time>
      </trkpt>
      <trkpt lat="43.119435" lon="-1.440560">
        <ele>636.3</ele>
        <time>2018-06-16T07:31:07Z</time>
      </trkpt>
      <trkpt lat="43.119517" lon="-1.440516">
        <ele>638.5</ele>
        <time>2018-06-16T07:31:09Z</time>
      </trkpt>
      <trkpt lat="43.119601" lon="-1.440473">
        <ele>641.3</ele>
        <time>2018-06-16T07:31:12Z</time>
      </trkpt>
      <trkpt lat="43.119713" lon="-1.440505">
        <ele>641.8</ele>
        <time>2018-06-16T07:31:15Z</time>
      </trkpt>
      <trkpt lat="43.119810" lon="-1.440568">
        <ele>641.8</ele>
        <time>2018-06-16T07:31:17Z</time>
      </trkpt>
      <trkpt lat="43.119883" lon="-1.440621">
        <ele>642.6</ele>
        <time>2018-06-16T07:31:20Z</time>
      </trkpt>
      <trkpt lat="43.119948" lon="-1.440657">
        <ele>643.7</ele>
        <time>2018-06-16T07:31:21Z</time>
      </trkpt>
      <trkpt lat="43.120018" lon="-1.440669">
        <ele>645.4</ele>
        <time>2018-06-16T07:31:23Z</time>
      </trkpt>
      <trkpt lat="43.120085" lon="-1.440615">
        <ele>649.6</ele>
        <time>2018-06-16T07:31:26Z</time>
      </trkpt>
      <trkpt lat="43.120170" lon="-1.440509">
        <ele>656.7</ele>
        <time>2018-06-16T07:31:29Z</time>
      </trkpt>
      <trkpt lat="43.120256" lon="-1.440341">
        <ele>663.4</ele>
        <time>2018-06-16T07:31:33Z</time>
      </trkpt>
      <trkpt lat="43.120470" lon="-1.439653">
        <ele>676.9</ele>
        <time>2018-06-16T07:31:48Z</time>
      </trkpt>
      <trkpt lat="43.120521" lon="-1.439545">
        <ele>676.6</ele>
        <time>2018-06-16T07:31:51Z</time>
      </trkpt>
      <trkpt lat="43.120586" lon="-1.439511">
        <ele>674.9</ele>
        <time>2018-06-16T07:31:52Z</time>
      </trkpt>
      <trkpt lat="43.120649" lon="-1.439657">
        <ele>670.5</ele>
        <time>2018-06-16T07:31:56Z</time>
      </trkpt>
      <trkpt lat="43.120716" lon="-1.439939">
        <ele>665.4</ele>
        <time>2018-06-16T07:32:02Z</time>
      </trkpt>
      <trkpt lat="43.120758" lon="-1.440499">
        <ele>668.1</ele>
        <time>2018-06-16T07:32:13Z</time>
      </trkpt>
      <trkpt lat="43.120729" lon="-1.441051">
        <ele>669.4</ele>
        <time>2018-06-16T07:32:23Z</time>
      </trkpt>
      <trkpt lat="43.120802" lon="-1.441144">
        <ele>670.7</ele>
        <time>2018-06-16T07:32:26Z</time>
      </trkpt>
      <trkpt lat="43.120889" lon="-1.441216">
        <ele>672.9</ele>
        <time>2018-06-16T07:32:29Z</time>
      </trkpt>
      <trkpt lat="43.120949" lon="-1.441296">
        <ele>676.1</ele>
        <time>2018-06-16T07:32:31Z</time>
      </trkpt>
      <trkpt lat="43.120968" lon="-1.441344">
        <ele>678.3</ele>
        <time>2018-06-16T07:32:32Z</time>
      </trkpt>
      <trkpt lat="43.120951" lon="-1.441470">
        <ele>682.0</ele>
        <time>2018-06-16T07:32:35Z</time>
      </trkpt>
      <trkpt lat="43.120726" lon="-1.441853">
        <ele>676.1</ele>
        <time>2018-06-16T07:32:44Z</time>
      </trkpt>
      <trkpt lat="43.120600" lon="-1.442040">
        <ele>665.0</ele>
        <time>2018-06-16T07:32:50Z</time>
      </trkpt>
      <trkpt lat="43.120530" lon="-1.442198">
        <ele>657.7</ele>
        <time>2018-06-16T07:32:54Z</time>
      </trkpt>
      <trkpt lat="43.120513" lon="-1.442444">
        <ele>650.7</ele>
        <time>2018-06-16T07:32:59Z</time>
      </trkpt>
      <trkpt lat="43.120563" lon="-1.442739">
        <ele>648.5</ele>
        <time>2018-06-16T07:33:05Z</time>
      </trkpt>
      <trkpt lat="43.120883" lon="-1.443366">
        <ele>664.3</ele>
        <time>2018-06-16T07:33:20Z</time>
      </trkpt>
      <trkpt lat="43.121259" lon="-1.443834">
        <ele>694.8</ele>
        <time>2018-06-16T07:33:35Z</time>
      </trkpt>
      <trkpt lat="43.121447" lon="-1.444022">
        <ele>702.8</ele>
        <time>2018-06-16T07:33:42Z</time>
      </trkpt>
      <trkpt lat="43.121531" lon="-1.444090">
        <ele>703.9</ele>
        <time>2018-06-16T07:33:44Z</time>
      </trkpt>
      <trkpt lat="43.121635" lon="-1.444122">
        <ele>704.9</ele>
        <time>2018-06-16T07:33:47Z</time>
      </trkpt>
      <trkpt lat="43.121818" lon="-1.444076">
        <ele>705.9</ele>
        <time>2018-06-16T07:33:52Z</time>
      </trkpt>
      <trkpt lat="43.121943" lon="-1.444140">
        <ele>706.5</ele>
        <time>2018-06-16T07:33:55Z</time>
      </trkpt>
      <trkpt lat="43.122039" lon="-1.444221">
        <ele>707.3</ele>
        <time>2018-06-16T07:33:58Z</time>
      </trkpt>
      <trkpt lat="43.122366" lon="-1.444568">
        <ele>708.9</ele>
        <time>2018-06-16T07:34:09Z</time>
      </trkpt>
      <trkpt lat="43.122562" lon="-1.444758">
        <ele>711.9</ele>
        <time>2018-06-16T07:34:16Z</time>
      </trkpt>
      <trkpt lat="43.122733" lon="-1.444850">
        <ele>708.7</ele>
        <time>2018-06-16T07:34:21Z</time>
      </trkpt>
      <trkpt lat="43.122837" lon="-1.444931">
        <ele>705.3</ele>
        <time>2018-06-16T07:34:24Z</time>
      </trkpt>
      <trkpt lat="43.123015" lon="-1.444992">
        <ele>701.6</ele>
        <time>2018-06-16T07:34:29Z</time>
      </trkpt>
      <trkpt lat="43.123229" lon="-1.445007">
        <ele>699.3</ele>
        <time>2018-06-16T07:34:34Z</time>
      </trkpt>
      <trkpt lat="43.123397" lon="-1.445011">
        <ele>700.7</ele>
        <time>2018-06-16T07:34:39Z</time>
      </trkpt>
      <trkpt lat="43.123514" lon="-1.444957">
        <ele>702.0</ele>
        <time>2018-06-16T07:34:42Z</time>
      </trkpt>
      <trkpt lat="43.123610" lon="-1.444852">
        <ele>703.1</ele>
        <time>2018-06-16T07:34:45Z</time>
      </trkpt>
      <trkpt lat="43.123693" lon="-1.444778">
        <ele>703.2</ele>
        <time>2018-06-16T07:34:48Z</time>
      </trkpt>
      <trkpt lat="43.123769" lon="-1.444754">
        <ele>703.2</ele>
        <time>2018-06-16T07:34:50Z</time>
      </trkpt>
      <trkpt lat="43.123858" lon="-1.444748">
        <ele>703.6</ele>
        <time>2018-06-16T07:34:52Z</time>
      </trkpt>
      <trkpt lat="43.123926" lon="-1.444772">
        <ele>703.6</ele>
        <time>2018-06-16T07:34:54Z</time>
      </trkpt>
      <trkpt lat="43.123946" lon="-1.444845">
        <ele>702.9</ele>
        <time>2018-06-16T07:34:56Z</time>
      </trkpt>
      <trkpt lat="43.123960" lon="-1.444992">
        <ele>700.0</ele>
        <time>2018-06-16T07:34:59Z</time>
      </trkpt>
      <trkpt lat="43.123980" lon="-1.445162">
        <ele>696.0</ele>
        <time>2018-06-16T07:35:02Z</time>
      </trkpt>
      <trkpt lat="43.124020" lon="-1.445271">
        <ele>690.9</ele>
        <time>2018-06-16T07:35:05Z</time>
      </trkpt>
      <trkpt lat="43.124110" lon="-1.445582">
        <ele>681.4</ele>
        <time>2018-06-16T07:35:12Z</time>
      </trkpt>
      <trkpt lat="43.124210" lon="-1.445892">
        <ele>682.2</ele>
        <time>2018-06-16T07:35:18Z</time>
      </trkpt>
      <trkpt lat="43.124280" lon="-1.446122">
        <ele>681.6</ele>
        <time>2018-06-16T07:35:23Z</time>
      </trkpt>
      <trkpt lat="43.124380" lon="-1.446391">
        <ele>681.5</ele>
        <time>2018-06-16T07:35:29Z</time>
      </trkpt>
      <trkpt lat="43.124390" lon="-1.446412">
        <ele>681.6</ele>
        <time>2018-06-16T07:35:29Z</time>
      </trkpt>
      <trkpt lat="43.124460" lon="-1.446562">
        <ele>682.4</ele>
        <time>2018-06-16T07:35:33Z</time>
      </trkpt>
      <trkpt lat="43.124540" lon="-1.446822">
        <ele>685.2</ele>
        <time>2018-06-16T07:35:38Z</time>
      </trkpt>
      <trkpt lat="43.124640" lon="-1.447112">
        <ele>686.9</ele>
        <time>2018-06-16T07:35:44Z</time>
      </trkpt>
      <trkpt lat="43.124810" lon="-1.447483">
        <ele>683.2</ele>
        <time>2018-06-16T07:35:53Z</time>
      </trkpt>
      <trkpt lat="43.124900" lon="-1.447783">
        <ele>682.1</ele>
        <time>2018-06-16T07:35:59Z</time>
      </trkpt>
      <trkpt lat="43.124960" lon="-1.448074">
        <ele>682.9</ele>
        <time>2018-06-16T07:36:05Z</time>
      </trkpt>
      <trkpt lat="43.125060" lon="-1.448243">
        <ele>684.2</ele>
        <time>2018-06-16T07:36:09Z</time>
      </trkpt>
      <trkpt lat="43.125223" lon="-1.448484">
        <ele>685.4</ele>
        <time>2018-06-16T07:36:15Z</time>
      </trkpt>
      <trkpt lat="43.125370" lon="-1.448703">
        <ele>679.0</ele>
        <time>2018-06-16T07:36:21Z</time>
      </trkpt>
      <trkpt lat="43.125601" lon="-1.449032">
        <ele>679.5</ele>
        <time>2018-06-16T07:36:30Z</time>
      </trkpt>
      <trkpt lat="43.125712" lon="-1.449142">
        <ele>681.9</ele>
        <time>2018-06-16T07:36:34Z</time>
      </trkpt>
      <trkpt lat="43.125797" lon="-1.449209">
        <ele>680.9</ele>
        <time>2018-06-16T07:36:36Z</time>
      </trkpt>
      <trkpt lat="43.125985" lon="-1.449297">
        <ele>680.4</ele>
        <time>2018-06-16T07:36:42Z</time>
      </trkpt>
      <trkpt lat="43.126348" lon="-1.449348">
        <ele>684.3</ele>
        <time>2018-06-16T07:36:51Z</time>
      </trkpt>
      <trkpt lat="43.126591" lon="-1.449378">
        <ele>687.5</ele>
        <time>2018-06-16T07:36:58Z</time>
      </trkpt>
      <trkpt lat="43.126701" lon="-1.449314">
        <ele>688.2</ele>
        <time>2018-06-16T07:37:01Z</time>
      </trkpt>
      <trkpt lat="43.126941" lon="-1.449198">
        <ele>687.1</ele>
        <time>2018-06-16T07:37:08Z</time>
      </trkpt>
      <trkpt lat="43.127170" lon="-1.449128">
        <ele>682.9</ele>
        <time>2018-06-16T07:37:14Z</time>
      </trkpt>
      <trkpt lat="43.127227" lon="-1.449120">
        <ele>681.9</ele>
        <time>2018-06-16T07:37:15Z</time>
      </trkpt>
      <trkpt lat="43.127289" lon="-1.449134">
        <ele>680.8</ele>
        <time>2018-06-16T07:37:17Z</time>
      </trkpt>
      <trkpt lat="43.127432" lon="-1.449209">
        <ele>680.3</ele>
        <time>2018-06-16T07:37:21Z</time>
      </trkpt>
      <trkpt lat="43.127564" lon="-1.449302">
        <ele>681.2</ele>
        <time>2018-06-16T07:37:25Z</time>
      </trkpt>
      <trkpt lat="43.127653" lon="-1.449238">
        <ele>682.8</ele>
        <time>2018-06-16T07:37:28Z</time>
      </trkpt>
      <trkpt lat="43.127696" lon="-1.449083">
        <ele>684.3</ele>
        <time>2018-06-16T07:37:31Z</time>
      </trkpt>
      <trkpt lat="43.127644" lon="-1.448562">
        <ele>684.3</ele>
        <time>2018-06-16T07:37:41Z</time>
      </trkpt>
      <trkpt lat="43.127308" lon="-1.447034">
        <ele>690.3</ele>
        <time>2018-06-16T07:38:12Z</time>
      </trkpt>
      <trkpt lat="43.127076" lon="-1.446548">
        <ele>695.3</ele>
        <time>2018-06-16T07:38:23Z</time>
      </trkpt>
      <trkpt lat="43.126980" lon="-1.446090">
        <ele>686.8</ele>
        <time>2018-06-16T07:38:32Z</time>
      </trkpt>
      <trkpt lat="43.126972" lon="-1.445506">
        <ele>679.0</ele>
        <time>2018-06-16T07:38:44Z</time>
      </trkpt>
      <trkpt lat="43.127059" lon="-1.445258">
        <ele>674.6</ele>
        <time>2018-06-16T07:38:49Z</time>
      </trkpt>
      <trkpt lat="43.127278" lon="-1.444822">
        <ele>675.1</ele>
        <time>2018-06-16T07:38:59Z</time>
      </trkpt>
      <trkpt lat="43.127495" lon="-1.444202">
        <ele>666.6</ele>
        <time>2018-06-16T07:39:13Z</time>
      </trkpt>
      <trkpt lat="43.127626" lon="-1.443891">
        <ele>665.0</ele>
        <time>2018-06-16T07:39:20Z</time>
      </trkpt>
      <trkpt lat="43.127746" lon="-1.442843">
        <ele>663.3</ele>
        <time>2018-06-16T07:39:40Z</time>
      </trkpt>
      <trkpt lat="43.127832" lon="-1.442534">
        <ele>663.5</ele>
        <time>2018-06-16T07:39:47Z</time>
      </trkpt>
      <trkpt lat="43.128186" lon="-1.442094">
        <ele>658.2</ele>
        <time>2018-06-16T07:39:59Z</time>
      </trkpt>
      <trkpt lat="43.128651" lon="-1.441468">
        <ele>636.1</ele>
        <time>2018-06-16T07:40:17Z</time>
      </trkpt>
      <trkpt lat="43.128844" lon="-1.440787">
        <ele>640.0</ele>
        <time>2018-06-16T07:40:31Z</time>
      </trkpt>
      <trkpt lat="43.128883" lon="-1.440356">
        <ele>640.5</ele>
        <time>2018-06-16T07:40:40Z</time>
      </trkpt>
      <trkpt lat="43.128972" lon="-1.440261">
        <ele>637.2</ele>
        <time>2018-06-16T07:40:43Z</time>
      </trkpt>
      <trkpt lat="43.129108" lon="-1.440350">
        <ele>630.6</ele>
        <time>2018-06-16T07:40:47Z</time>
      </trkpt>
      <trkpt lat="43.129246" lon="-1.440562">
        <ele>621.8</ele>
        <time>2018-06-16T07:40:53Z</time>
      </trkpt>
      <trkpt lat="43.129295" lon="-1.440837">
        <ele>618.1</ele>
        <time>2018-06-16T07:40:58Z</time>
      </trkpt>
      <trkpt lat="43.129137" lon="-1.442439">
        <ele>620.1</ele>
        <time>2018-06-16T07:41:29Z</time>
      </trkpt>
      <trkpt lat="43.129100" lon="-1.443024">
        <ele>621.1</ele>
        <time>2018-06-16T07:41:41Z</time>
      </trkpt>
      <trkpt lat="43.129274" lon="-1.442620">
        <ele>614.3</ele>
        <time>2018-06-16T07:41:50Z</time>
      </trkpt>
      <trkpt lat="43.129406" lon="-1.442371">
        <ele>608.7</ele>
        <time>2018-06-16T07:41:56Z</time>
      </trkpt>
      <trkpt lat="43.129849" lon="-1.441868">
        <ele>585.9</ele>
        <time>2018-06-16T07:42:12Z</time>
      </trkpt>
      <trkpt lat="43.130072" lon="-1.441708">
        <ele>585.4</ele>
        <time>2018-06-16T07:42:19Z</time>
      </trkpt>
      <trkpt lat="43.130294" lon="-1.441488">
        <ele>582.2</ele>
        <time>2018-06-16T07:42:26Z</time>
      </trkpt>
      <trkpt lat="43.130426" lon="-1.441269">
        <ele>578.5</ele>
        <time>2018-06-16T07:42:32Z</time>
      </trkpt>
      <trkpt lat="43.130468" lon="-1.441022">
        <ele>581.4</ele>
        <time>2018-06-16T07:42:36Z</time>
      </trkpt>
      <trkpt lat="43.130369" lon="-1.440379">
        <ele>589.9</ele>
        <time>2018-06-16T07:42:49Z</time>
      </trkpt>
      <trkpt lat="43.130412" lon="-1.440255">
        <ele>585.9</ele>
        <time>2018-06-16T07:42:52Z</time>
      </trkpt>
      <trkpt lat="43.130526" lon="-1.440314">
        <ele>579.9</ele>
        <time>2018-06-16T07:42:56Z</time>
      </trkpt>
      <trkpt lat="43.131266" lon="-1.441770">
        <ele>548.6</ele>
        <time>2018-06-16T07:43:31Z</time>
      </trkpt>
      <trkpt lat="43.131611" lon="-1.442315">
        <ele>550.1</ele>
        <time>2018-06-16T07:43:44Z</time>
      </trkpt>
      <trkpt lat="43.131636" lon="-1.442499">
        <ele>550.5</ele>
        <time>2018-06-16T07:43:48Z</time>
      </trkpt>
      <trkpt lat="43.131576" lon="-1.443023">
        <ele>548.7</ele>
        <time>2018-06-16T07:43:58Z</time>
      </trkpt>
      <trkpt lat="43.131666" lon="-1.443051">
        <ele>548.3</ele>
        <time>2018-06-16T07:44:01Z</time>
      </trkpt>
      <trkpt lat="43.131800" lon="-1.442986">
        <ele>548.5</ele>
        <time>2018-06-16T07:44:04Z</time>
      </trkpt>
      <trkpt lat="43.132703" lon="-1.443148">
        <ele>547.4</ele>
        <time>2018-06-16T07:44:28Z</time>
      </trkpt>
      <trkpt lat="43.133102" lon="-1.442646">
        <ele>551.6</ele>
        <time>2018-06-16T07:44:43Z</time>
      </trkpt>
      <trkpt lat="43.133236" lon="-1.442581">
        <ele>551.2</ele>
        <time>2018-06-16T07:44:47Z</time>
      </trkpt>
      <trkpt lat="43.133957" lon="-1.442624">
        <ele>557.8</ele>
        <time>2018-06-16T07:45:06Z</time>
      </trkpt>
      <trkpt lat="43.134254" lon="-1.442985">
        <ele>549.4</ele>
        <time>2018-06-16T07:45:16Z</time>
      </trkpt>
      <trkpt lat="43.134870" lon="-1.443554">
        <ele>552.8</ele>
        <time>2018-06-16T07:45:36Z</time>
      </trkpt>
      <trkpt lat="43.135009" lon="-1.443827">
        <ele>557.7</ele>
        <time>2018-06-16T07:45:42Z</time>
      </trkpt>
      <trkpt lat="43.135129" lon="-1.444439">
        <ele>554.8</ele>
        <time>2018-06-16T07:45:55Z</time>
      </trkpt>
      <trkpt lat="43.135481" lon="-1.445475">
        <ele>557.7</ele>
        <time>2018-06-16T07:46:17Z</time>
      </trkpt>
      <trkpt lat="43.135738" lon="-1.446145">
        <ele>555.9</ele>
        <time>2018-06-16T07:46:31Z</time>
      </trkpt>
      <trkpt lat="43.135942" lon="-1.446262">
        <ele>559.9</ele>
        <time>2018-06-16T07:46:37Z</time>
      </trkpt>
      <trkpt lat="43.136281" lon="-1.446377">
        <ele>566.3</ele>
        <time>2018-06-16T07:46:46Z</time>
      </trkpt>
      <trkpt lat="43.136305" lon="-1.446499">
        <ele>564.5</ele>
        <time>2018-06-16T07:46:49Z</time>
      </trkpt>
      <trkpt lat="43.136443" lon="-1.446680">
        <ele>563.4</ele>
        <time>2018-06-16T07:46:54Z</time>
      </trkpt>
      <trkpt lat="43.136400" lon="-1.446835">
        <ele>560.3</ele>
        <time>2018-06-16T07:46:57Z</time>
      </trkpt>
      <trkpt lat="43.136311" lon="-1.446929">
        <ele>558.6</ele>
        <time>2018-06-16T07:47:00Z</time>
      </trkpt>
      <trkpt lat="43.136086" lon="-1.446935">
        <ele>557.1</ele>
        <time>2018-06-16T07:47:06Z</time>
      </trkpt>
      <trkpt lat="43.135859" lon="-1.446787">
        <ele>553.5</ele>
        <time>2018-06-16T07:47:13Z</time>
      </trkpt>
      <trkpt lat="43.135611" lon="-1.446762">
        <ele>547.7</ele>
        <time>2018-06-16T07:47:20Z</time>
      </trkpt>
      <trkpt lat="43.135184" lon="-1.446773">
        <ele>547.3</ele>
        <time>2018-06-16T07:47:31Z</time>
      </trkpt>
      <trkpt lat="43.135051" lon="-1.446961">
        <ele>543.9</ele>
        <time>2018-06-16T07:47:36Z</time>
      </trkpt>
      <trkpt lat="43.135009" lon="-1.447208">
        <ele>539.7</ele>
        <time>2018-06-16T07:47:41Z</time>
      </trkpt>
      <trkpt lat="43.135057" lon="-1.447391">
        <ele>537.7</ele>
        <time>2018-06-16T07:47:45Z</time>
      </trkpt>
      <trkpt lat="43.135242" lon="-1.447786">
        <ele>535.0</ele>
        <time>2018-06-16T07:47:54Z</time>
      </trkpt>
      <trkpt lat="43.135474" lon="-1.448241">
        <ele>530.3</ele>
        <time>2018-06-16T07:48:04Z</time>
      </trkpt>
      <trkpt lat="43.135567" lon="-1.448485">
        <ele>524.1</ele>
        <time>2018-06-16T07:48:10Z</time>
      </trkpt>
      <trkpt lat="43.136088" lon="-1.448718">
        <ele>528.6</ele>
        <time>2018-06-16T07:48:24Z</time>
      </trkpt>
      <trkpt lat="43.136525" lon="-1.449383">
        <ele>514.1</ele>
        <time>2018-06-16T07:48:42Z</time>
      </trkpt>
      <trkpt lat="43.136663" lon="-1.449625">
        <ele>512.1</ele>
        <time>2018-06-16T07:48:48Z</time>
      </trkpt>
      <trkpt lat="43.136711" lon="-1.449809">
        <ele>508.8</ele>
        <time>2018-06-16T07:48:52Z</time>
      </trkpt>
      <trkpt lat="43.136895" lon="-1.450111">
        <ele>512.4</ele>
        <time>2018-06-16T07:48:59Z</time>
      </trkpt>
      <trkpt lat="43.136989" lon="-1.450386">
        <ele>508.7</ele>
        <time>2018-06-16T07:49:05Z</time>
      </trkpt>
      <trkpt lat="43.137400" lon="-1.450836">
        <ele>510.3</ele>
        <time>2018-06-16T07:49:19Z</time>
      </trkpt>
      <trkpt lat="43.137562" lon="-1.451139">
        <ele>513.1</ele>
        <time>2018-06-16T07:49:26Z</time>
      </trkpt>
      <trkpt lat="43.137722" lon="-1.451381">
        <ele>514.0</ele>
        <time>2018-06-16T07:49:33Z</time>
      </trkpt>
      <trkpt lat="43.137770" lon="-1.451595">
        <ele>514.1</ele>
        <time>2018-06-16T07:49:37Z</time>
      </trkpt>
      <trkpt lat="43.137864" lon="-1.451870">
        <ele>520.1</ele>
        <time>2018-06-16T07:49:43Z</time>
      </trkpt>
      <trkpt lat="43.138023" lon="-1.451958">
        <ele>529.4</ele>
        <time>2018-06-16T07:49:48Z</time>
      </trkpt>
      <trkpt lat="43.138182" lon="-1.452046">
        <ele>536.9</ele>
        <time>2018-06-16T07:49:53Z</time>
      </trkpt>
      <trkpt lat="43.138452" lon="-1.452039">
        <ele>544.5</ele>
        <time>2018-06-16T07:50:00Z</time>
      </trkpt>
      <trkpt lat="43.139420" lon="-1.452076">
        <ele>545.4</ele>
        <time>2018-06-16T07:50:26Z</time>
      </trkpt>
      <trkpt lat="43.139714" lon="-1.452130">
        <ele>546.3</ele>
        <time>2018-06-16T07:50:34Z</time>
      </trkpt>
      <trkpt lat="43.139940" lon="-1.452217">
        <ele>549.5</ele>
        <time>2018-06-16T07:50:40Z</time>
      </trkpt>
      <trkpt lat="43.140390" lon="-1.452175">
        <ele>545.6</ele>
        <time>2018-06-16T07:50:52Z</time>
      </trkpt>
      <trkpt lat="43.140571" lon="-1.452293">
        <ele>550.1</ele>
        <time>2018-06-16T07:50:57Z</time>
      </trkpt>
      <trkpt lat="43.140732" lon="-1.452504">
        <ele>555.9</ele>
        <time>2018-06-16T07:51:03Z</time>
      </trkpt>
      <trkpt lat="43.140800" lon="-1.452533">
        <ele>558.1</ele>
        <time>2018-06-16T07:51:05Z</time>
      </trkpt>
      <trkpt lat="43.141020" lon="-1.452159">
        <ele>550.4</ele>
        <time>2018-06-16T07:51:15Z</time>
      </trkpt>
      <trkpt lat="43.141646" lon="-1.451836">
        <ele>551.1</ele>
        <time>2018-06-16T07:51:32Z</time>
      </trkpt>
      <trkpt lat="43.141734" lon="-1.451680">
        <ele>547.5</ele>
        <time>2018-06-16T07:51:36Z</time>
      </trkpt>
      <trkpt lat="43.141890" lon="-1.451614">
        <ele>545.6</ele>
        <time>2018-06-16T07:51:40Z</time>
      </trkpt>
      <trkpt lat="43.142412" lon="-1.451909">
        <ele>555.2</ele>
        <time>2018-06-16T07:51:56Z</time>
      </trkpt>
      <trkpt lat="43.142597" lon="-1.452303">
        <ele>564.0</ele>
        <time>2018-06-16T07:52:05Z</time>
      </trkpt>
      <trkpt lat="43.142870" lon="-1.452481">
        <ele>571.8</ele>
        <time>2018-06-16T07:52:13Z</time>
      </trkpt>
      <trkpt lat="43.143771" lon="-1.452520">
        <ele>571.7</ele>
        <time>2018-06-16T07:52:37Z</time>
      </trkpt>
      <trkpt lat="43.144000" lon="-1.452821">
        <ele>584.2</ele>
        <time>2018-06-16T07:52:46Z</time>
      </trkpt>
      <trkpt lat="43.144068" lon="-1.452820">
        <ele>583.9</ele>
        <time>2018-06-16T07:52:47Z</time>
      </trkpt>
      <trkpt lat="43.144133" lon="-1.452664">
        <ele>575.1</ele>
        <time>2018-06-16T07:52:51Z</time>
      </trkpt>
      <trkpt lat="43.144398" lon="-1.452258">
        <ele>569.8</ele>
        <time>2018-06-16T07:53:02Z</time>
      </trkpt>
      <trkpt lat="43.144481" lon="-1.451764">
        <ele>553.6</ele>
        <time>2018-06-16T07:53:12Z</time>
      </trkpt>
      <trkpt lat="43.144795" lon="-1.451695">
        <ele>564.5</ele>
        <time>2018-06-16T07:53:21Z</time>
      </trkpt>
      <trkpt lat="43.145536" lon="-1.451553">
        <ele>590.1</ele>
        <time>2018-06-16T07:53:42Z</time>
      </trkpt>
      <trkpt lat="43.146054" lon="-1.451540">
        <ele>588.2</ele>
        <time>2018-06-16T07:53:56Z</time>
      </trkpt>
      <trkpt lat="43.146443" lon="-1.451991">
        <ele>594.4</ele>
        <time>2018-06-16T07:54:09Z</time>
      </trkpt>
      <trkpt lat="43.146534" lon="-1.452081">
        <ele>595.9</ele>
        <time>2018-06-16T07:54:12Z</time>
      </trkpt>
      <trkpt lat="43.147404" lon="-1.451506">
        <ele>578.7</ele>
        <time>2018-06-16T07:54:38Z</time>
      </trkpt>
      <trkpt lat="43.147855" lon="-1.451525">
        <ele>580.5</ele>
        <time>2018-06-16T07:54:50Z</time>
      </trkpt>
      <trkpt lat="43.147991" lon="-1.451645">
        <ele>582.3</ele>
        <time>2018-06-16T07:54:54Z</time>
      </trkpt>
      <trkpt lat="43.148039" lon="-1.451828">
        <ele>585.2</ele>
        <time>2018-06-16T07:54:58Z</time>
      </trkpt>
      <trkpt lat="43.148153" lon="-1.451917">
        <ele>583.3</ele>
        <time>2018-06-16T07:55:01Z</time>
      </trkpt>
      <trkpt lat="43.148762" lon="-1.452025">
        <ele>571.4</ele>
        <time>2018-06-16T07:55:18Z</time>
      </trkpt>
      <trkpt lat="43.149622" lon="-1.452372">
        <ele>569.2</ele>
        <time>2018-06-16T07:55:41Z</time>
      </trkpt>
      <trkpt lat="43.149852" lon="-1.452735">
        <ele>569.9</ele>
        <time>2018-06-16T07:55:51Z</time>
      </trkpt>
      <trkpt lat="43.150354" lon="-1.453214">
        <ele>577.4</ele>
        <time>2018-06-16T07:56:07Z</time>
      </trkpt>
      <trkpt lat="43.150991" lon="-1.453690">
        <ele>565.0</ele>
        <time>2018-06-16T07:56:26Z</time>
      </trkpt>
      <trkpt lat="43.151401" lon="-1.454049">
        <ele>558.6</ele>
        <time>2018-06-16T07:56:39Z</time>
      </trkpt>
      <trkpt lat="43.151627" lon="-1.454166">
        <ele>556.6</ele>
        <time>2018-06-16T07:56:46Z</time>
      </trkpt>
      <trkpt lat="43.151807" lon="-1.454162">
        <ele>554.0</ele>
        <time>2018-06-16T07:56:50Z</time>
      </trkpt>
      <trkpt lat="43.151987" lon="-1.454096">
        <ele>552.7</ele>
        <time>2018-06-16T07:56:55Z</time>
      </trkpt>
      <trkpt lat="43.152370" lon="-1.454148">
        <ele>546.1</ele>
        <time>2018-06-16T07:57:06Z</time>
      </trkpt>
      <trkpt lat="43.153022" lon="-1.454070">
        <ele>530.4</ele>
        <time>2018-06-16T07:57:23Z</time>
      </trkpt>
      <trkpt lat="43.153360" lon="-1.454153">
        <ele>528.4</ele>
        <time>2018-06-16T07:57:32Z</time>
      </trkpt>
      <trkpt lat="43.153497" lon="-1.454242">
        <ele>525.8</ele>
        <time>2018-06-16T07:57:36Z</time>
      </trkpt>
      <trkpt lat="43.154387" lon="-1.455142">
        <ele>507.2</ele>
        <time>2018-06-16T07:58:06Z</time>
      </trkpt>
      <trkpt lat="43.154346" lon="-1.455481">
        <ele>504.8</ele>
        <time>2018-06-16T07:58:12Z</time>
      </trkpt>
      <trkpt lat="43.154397" lon="-1.455910">
        <ele>510.2</ele>
        <time>2018-06-16T07:58:21Z</time>
      </trkpt>
      <trkpt lat="43.154132" lon="-1.456286">
        <ele>515.2</ele>
        <time>2018-06-16T07:58:31Z</time>
      </trkpt>
      <trkpt lat="43.154089" lon="-1.456379">
        <ele>517.0</ele>
        <time>2018-06-16T07:58:33Z</time>
      </trkpt>
      <trkpt lat="43.154423" lon="-1.456187">
        <ele>512.8</ele>
        <time>2018-06-16T07:58:43Z</time>
      </trkpt>
      <trkpt lat="43.154579" lon="-1.456060">
        <ele>512.2</ele>
        <time>2018-06-16T07:58:48Z</time>
      </trkpt>
      <trkpt lat="43.154755" lon="-1.455748">
        <ele>507.2</ele>
        <time>2018-06-16T07:58:55Z</time>
      </trkpt>
      <trkpt lat="43.155112" lon="-1.455493">
        <ele>502.9</ele>
        <time>2018-06-16T07:59:06Z</time>
      </trkpt>
      <trkpt lat="43.155420" lon="-1.454932">
        <ele>492.4</ele>
        <time>2018-06-16T07:59:20Z</time>
      </trkpt>
      <trkpt lat="43.155645" lon="-1.454926">
        <ele>499.9</ele>
        <time>2018-06-16T07:59:26Z</time>
      </trkpt>
      <trkpt lat="43.155848" lon="-1.454982">
        <ele>504.6</ele>
        <time>2018-06-16T07:59:31Z</time>
      </trkpt>
      <trkpt lat="43.156507" lon="-1.455396">
        <ele>502.1</ele>
        <time>2018-06-16T07:59:51Z</time>
      </trkpt>
      <trkpt lat="43.157094" lon="-1.455566">
        <ele>511.1</ele>
        <time>2018-06-16T08:00:07Z</time>
      </trkpt>
      <trkpt lat="43.158132" lon="-1.455724">
        <ele>494.3</ele>
        <time>2018-06-16T08:00:34Z</time>
      </trkpt>
      <trkpt lat="43.158224" lon="-1.455906">
        <ele>492.7</ele>
        <time>2018-06-16T08:00:39Z</time>
      </trkpt>
      <trkpt lat="43.158320" lon="-1.456334">
        <ele>495.3</ele>
        <time>2018-06-16T08:00:47Z</time>
      </trkpt>
      <trkpt lat="43.158550" lon="-1.456667">
        <ele>478.9</ele>
        <time>2018-06-16T08:00:57Z</time>
      </trkpt>
      <trkpt lat="43.158598" lon="-1.456942">
        <ele>476.5</ele>
        <time>2018-06-16T08:01:02Z</time>
      </trkpt>
      <trkpt lat="43.158666" lon="-1.456941">
        <ele>473.6</ele>
        <time>2018-06-16T08:01:04Z</time>
      </trkpt>
      <trkpt lat="43.158796" lon="-1.456538">
        <ele>463.5</ele>
        <time>2018-06-16T08:01:13Z</time>
      </trkpt>
      <trkpt lat="43.158748" lon="-1.456324">
        <ele>468.8</ele>
        <time>2018-06-16T08:01:18Z</time>
      </trkpt>
      <trkpt lat="43.158816" lon="-1.456353">
        <ele>465.8</ele>
        <time>2018-06-16T08:01:20Z</time>
      </trkpt>
      <trkpt lat="43.158930" lon="-1.456504">
        <ele>458.9</ele>
        <time>2018-06-16T08:01:24Z</time>
      </trkpt>
      <trkpt lat="43.158959" lon="-1.456933">
        <ele>459.4</ele>
        <time>2018-06-16T08:01:32Z</time>
      </trkpt>
      <trkpt lat="43.159006" lon="-1.457147">
        <ele>457.2</ele>
        <time>2018-06-16T08:01:37Z</time>
      </trkpt>
      <trkpt lat="43.159058" lon="-1.457669">
        <ele>466.0</ele>
        <time>2018-06-16T08:01:47Z</time>
      </trkpt>
      <trkpt lat="43.159149" lon="-1.457728">
        <ele>463.0</ele>
        <time>2018-06-16T08:01:50Z</time>
      </trkpt>
      <trkpt lat="43.159282" lon="-1.457571">
        <ele>453.9</ele>
        <time>2018-06-16T08:01:55Z</time>
      </trkpt>
      <trkpt lat="43.159415" lon="-1.457383">
        <ele>446.9</ele>
        <time>2018-06-16T08:02:00Z</time>
      </trkpt>
      <trkpt lat="43.159638" lon="-1.457255">
        <ele>439.8</ele>
        <time>2018-06-16T08:02:07Z</time>
      </trkpt>
      <trkpt lat="43.159837" lon="-1.457003">
        <ele>438.1</ele>
        <time>2018-06-16T08:02:14Z</time>
      </trkpt>
      <trkpt lat="43.160125" lon="-1.456658">
        <ele>443.0</ele>
        <time>2018-06-16T08:02:24Z</time>
      </trkpt>
      <trkpt lat="43.160370" lon="-1.456437">
        <ele>438.6</ele>
        <time>2018-06-16T08:02:32Z</time>
      </trkpt>
      <trkpt lat="43.160662" lon="-1.456398">
        <ele>437.5</ele>
        <time>2018-06-16T08:02:40Z</time>
      </trkpt>
      <trkpt lat="43.161025" lon="-1.456574">
        <ele>441.4</ele>
        <time>2018-06-16T08:02:50Z</time>
      </trkpt>
      <trkpt lat="43.161205" lon="-1.456600">
        <ele>443.6</ele>
        <time>2018-06-16T08:02:55Z</time>
      </trkpt>
      <trkpt lat="43.161342" lon="-1.456750">
        <ele>443.6</ele>
        <time>2018-06-16T08:02:59Z</time>
      </trkpt>
      <trkpt lat="43.161413" lon="-1.456964">
        <ele>447.7</ele>
        <time>2018-06-16T08:03:04Z</time>
      </trkpt>
      <trkpt lat="43.161481" lon="-1.456993">
        <ele>447.5</ele>
        <time>2018-06-16T08:03:06Z</time>
      </trkpt>
      <trkpt lat="43.162289" lon="-1.456850">
        <ele>426.0</ele>
        <time>2018-06-16T08:03:28Z</time>
      </trkpt>
      <trkpt lat="43.162877" lon="-1.457019">
        <ele>425.4</ele>
        <time>2018-06-16T08:03:44Z</time>
      </trkpt>
      <trkpt lat="43.163105" lon="-1.457260">
        <ele>421.8</ele>
        <time>2018-06-16T08:03:51Z</time>
      </trkpt>
      <trkpt lat="43.163202" lon="-1.457811">
        <ele>424.3</ele>
        <time>2018-06-16T08:04:02Z</time>
      </trkpt>
      <trkpt lat="43.163228" lon="-1.458025">
        <ele>427.2</ele>
        <time>2018-06-16T08:04:07Z</time>
      </trkpt>
      <trkpt lat="43.163297" lon="-1.458116">
        <ele>427.8</ele>
        <time>2018-06-16T08:04:09Z</time>
      </trkpt>
      <trkpt lat="43.163432" lon="-1.458112">
        <ele>426.3</ele>
        <time>2018-06-16T08:04:13Z</time>
      </trkpt>
      <trkpt lat="43.163968" lon="-1.457853">
        <ele>413.7</ele>
        <time>2018-06-16T08:04:28Z</time>
      </trkpt>
      <trkpt lat="43.164284" lon="-1.457845">
        <ele>412.5</ele>
        <time>2018-06-16T08:04:36Z</time>
      </trkpt>
      <trkpt lat="43.164508" lon="-1.457778">
        <ele>409.8</ele>
        <time>2018-06-16T08:04:42Z</time>
      </trkpt>
      <trkpt lat="43.164980" lon="-1.457735">
        <ele>414.2</ele>
        <time>2018-06-16T08:04:55Z</time>
      </trkpt>
      <trkpt lat="43.165633" lon="-1.457719">
        <ele>403.7</ele>
        <time>2018-06-16T08:05:12Z</time>
      </trkpt>
      <trkpt lat="43.166268" lon="-1.457830">
        <ele>406.8</ele>
        <time>2018-06-16T08:05:29Z</time>
      </trkpt>
      <trkpt lat="43.166803" lon="-1.457720">
        <ele>398.1</ele>
        <time>2018-06-16T08:05:44Z</time>
      </trkpt>
      <trkpt lat="43.167158" lon="-1.457342">
        <ele>386.1</ele>
        <time>2018-06-16T08:05:56Z</time>
      </trkpt>
      <trkpt lat="43.167424" lon="-1.457059">
        <ele>377.5</ele>
        <time>2018-06-16T08:06:05Z</time>
      </trkpt>
      <trkpt lat="43.167350" lon="-1.456568">
        <ele>372.5</ele>
        <time>2018-06-16T08:06:15Z</time>
      </trkpt>
      <trkpt lat="43.167506" lon="-1.456411">
        <ele>370.1</ele>
        <time>2018-06-16T08:06:20Z</time>
      </trkpt>
      <trkpt lat="43.167662" lon="-1.456345">
        <ele>366.5</ele>
        <time>2018-06-16T08:06:24Z</time>
      </trkpt>
      <trkpt lat="43.168088" lon="-1.456211">
        <ele>361.7</ele>
        <time>2018-06-16T08:06:36Z</time>
      </trkpt>
      <trkpt lat="43.168128" lon="-1.455569">
        <ele>359.3</ele>
        <time>2018-06-16T08:06:48Z</time>
      </trkpt>
      <trkpt lat="43.168398" lon="-1.455563">
        <ele>357.0</ele>
        <time>2018-06-16T08:06:55Z</time>
      </trkpt>
      <trkpt lat="43.169570" lon="-1.455656">
        <ele>352.2</ele>
        <time>2018-06-16T08:07:26Z</time>
      </trkpt>
      <trkpt lat="43.170652" lon="-1.455752">
        <ele>350.4</ele>
        <time>2018-06-16T08:07:55Z</time>
      </trkpt>
      <trkpt lat="43.171423" lon="-1.456163">
        <ele>344.6</ele>
        <time>2018-06-16T08:08:17Z</time>
      </trkpt>
      <trkpt lat="43.172234" lon="-1.456235">
        <ele>338.7</ele>
        <time>2018-06-16T08:08:38Z</time>
      </trkpt>
      <trkpt lat="43.172732" lon="-1.456407">
        <ele>335.4</ele>
        <time>2018-06-16T08:08:52Z</time>
      </trkpt>
      <trkpt lat="43.173416" lon="-1.457097">
        <ele>331.0</ele>
        <time>2018-06-16T08:09:14Z</time>
      </trkpt>
      <trkpt lat="43.174762" lon="-1.458386">
        <ele>325.0</ele>
        <time>2018-06-16T08:09:57Z</time>
      </trkpt>
      <trkpt lat="43.174967" lon="-1.458534">
        <ele>325.3</ele>
        <time>2018-06-16T08:10:04Z</time>
      </trkpt>
      <trkpt lat="43.175375" lon="-1.458801">
        <ele>327.5</ele>
        <time>2018-06-16T08:10:16Z</time>
      </trkpt>
      <trkpt lat="43.175829" lon="-1.459066">
        <ele>310.6</ele>
        <time>2018-06-16T08:10:29Z</time>
      </trkpt>
      <trkpt lat="43.176372" lon="-1.459268">
        <ele>298.3</ele>
        <time>2018-06-16T08:10:44Z</time>
      </trkpt>
      <trkpt lat="43.176644" lon="-1.459353">
        <ele>304.9</ele>
        <time>2018-06-16T08:10:52Z</time>
      </trkpt>
      <trkpt lat="43.177181" lon="-1.459155">
        <ele>311.9</ele>
        <time>2018-06-16T08:11:07Z</time>
      </trkpt>
      <trkpt lat="43.177897" lon="-1.458830">
        <ele>307.6</ele>
        <time>2018-06-16T08:11:26Z</time>
      </trkpt>
      <trkpt lat="43.178699" lon="-1.458194">
        <ele>297.6</ele>
        <time>2018-06-16T08:11:51Z</time>
      </trkpt>
      <trkpt lat="43.178778" lon="-1.457362">
        <ele>299.0</ele>
        <time>2018-06-16T08:12:07Z</time>
      </trkpt>
      <trkpt lat="43.178908" lon="-1.457020">
        <ele>298.2</ele>
        <time>2018-06-16T08:12:15Z</time>
      </trkpt>
      <trkpt lat="43.179040" lon="-1.456771">
        <ele>298.4</ele>
        <time>2018-06-16T08:12:20Z</time>
      </trkpt>
      <trkpt lat="43.179173" lon="-1.456614">
        <ele>299.3</ele>
        <time>2018-06-16T08:12:25Z</time>
      </trkpt>
      <trkpt lat="43.179556" lon="-1.456635">
        <ele>294.5</ele>
        <time>2018-06-16T08:12:35Z</time>
      </trkpt>
      <trkpt lat="43.179780" lon="-1.456568">
        <ele>292.7</ele>
        <time>2018-06-16T08:12:41Z</time>
      </trkpt>
      <trkpt lat="43.180115" lon="-1.456374">
        <ele>291.4</ele>
        <time>2018-06-16T08:12:51Z</time>
      </trkpt>
      <trkpt lat="43.180203" lon="-1.456249">
        <ele>292.4</ele>
        <time>2018-06-16T08:12:54Z</time>
      </trkpt>
      <trkpt lat="43.179970" lon="-1.455640">
        <ele>294.8</ele>
        <time>2018-06-16T08:13:08Z</time>
      </trkpt>
      <trkpt lat="43.179961" lon="-1.455581">
        <ele>295.3</ele>
        <time>2018-06-16T08:13:09Z</time>
      </trkpt>
      <trkpt lat="43.179977" lon="-1.455533">
        <ele>296.0</ele>
        <time>2018-06-16T08:13:10Z</time>
      </trkpt>
      <trkpt lat="43.180051" lon="-1.455404">
        <ele>298.2</ele>
        <time>2018-06-16T08:13:13Z</time>
      </trkpt>
      <trkpt lat="43.180123" lon="-1.455298">
        <ele>300.1</ele>
        <time>2018-06-16T08:13:16Z</time>
      </trkpt>
      <trkpt lat="43.180190" lon="-1.455265">
        <ele>301.5</ele>
        <time>2018-06-16T08:13:18Z</time>
      </trkpt>
      <trkpt lat="43.180281" lon="-1.455324">
        <ele>301.9</ele>
        <time>2018-06-16T08:13:20Z</time>
      </trkpt>
      <trkpt lat="43.180506" lon="-1.455319">
        <ele>303.4</ele>
        <time>2018-06-16T08:13:26Z</time>
      </trkpt>
      <trkpt lat="43.180937" lon="-1.455554">
        <ele>300.3</ele>
        <time>2018-06-16T08:13:39Z</time>
      </trkpt>
      <trkpt lat="43.181012" lon="-1.456075">
        <ele>293.1</ele>
        <time>2018-06-16T08:13:49Z</time>
      </trkpt>
      <trkpt lat="43.181083" lon="-1.456350">
        <ele>289.5</ele>
        <time>2018-06-16T08:13:55Z</time>
      </trkpt>
      <trkpt lat="43.181289" lon="-1.456591">
        <ele>290.3</ele>
        <time>2018-06-16T08:14:02Z</time>
      </trkpt>
      <trkpt lat="43.181565" lon="-1.457076">
        <ele>280.8</ele>
        <time>2018-06-16T08:14:14Z</time>
      </trkpt>
      <trkpt lat="43.181842" lon="-1.457561">
        <ele>283.7</ele>
        <time>2018-06-16T08:14:26Z</time>
      </trkpt>
      <trkpt lat="43.182162" lon="-1.457892">
        <ele>291.8</ele>
        <time>2018-06-16T08:14:36Z</time>
      </trkpt>
      <trkpt lat="43.182934" lon="-1.458395">
        <ele>287.6</ele>
        <time>2018-06-16T08:14:59Z</time>
      </trkpt>
      <trkpt lat="43.183528" lon="-1.459057">
        <ele>281.6</ele>
        <time>2018-06-16T08:15:19Z</time>
      </trkpt>
      <trkpt lat="43.183625" lon="-1.459547">
        <ele>286.0</ele>
        <time>2018-06-16T08:15:29Z</time>
      </trkpt>
      <trkpt lat="43.183687" lon="-1.460837">
        <ele>287.1</ele>
        <time>2018-06-16T08:15:54Z</time>
      </trkpt>
      <trkpt lat="43.183789" lon="-1.461696">
        <ele>279.1</ele>
        <time>2018-06-16T08:16:11Z</time>
      </trkpt>
      <trkpt lat="43.183980" lon="-1.462491">
        <ele>282.1</ele>
        <time>2018-06-16T08:16:27Z</time>
      </trkpt>
      <trkpt lat="43.183962" lon="-1.462861">
        <ele>283.8</ele>
        <time>2018-06-16T08:16:34Z</time>
      </trkpt>
      <trkpt lat="43.183904" lon="-1.463539">
        <ele>283.4</ele>
        <time>2018-06-16T08:16:47Z</time>
      </trkpt>
      <trkpt lat="43.183910" lon="-1.464031">
        <ele>281.0</ele>
        <time>2018-06-16T08:16:57Z</time>
      </trkpt>
      <trkpt lat="43.184201" lon="-1.465562">
        <ele>287.2</ele>
        <time>2018-06-16T08:17:27Z</time>
      </trkpt>
      <trkpt lat="43.184253" lon="-1.466114">
        <ele>293.9</ele>
        <time>2018-06-16T08:17:38Z</time>
      </trkpt>
      <trkpt lat="43.184131" lon="-1.467102">
        <ele>290.2</ele>
        <time>2018-06-16T08:17:57Z</time>
      </trkpt>
      <trkpt lat="43.183109" lon="-1.469773">
        <ele>275.9</ele>
        <time>2018-06-16T08:18:55Z</time>
      </trkpt>
      <trkpt lat="43.182781" lon="-1.470458">
        <ele>273.9</ele>
        <time>2018-06-16T08:19:11Z</time>
      </trkpt>
      <trkpt lat="43.182584" lon="-1.470924">
        <ele>274.9</ele>
        <time>2018-06-16T08:19:21Z</time>
      </trkpt>
      <trkpt lat="43.182255" lon="-1.471517">
        <ele>269.2</ele>
        <time>2018-06-16T08:19:36Z</time>
      </trkpt>
      <trkpt lat="43.181385" lon="-1.473846">
        <ele>270.6</ele>
        <time>2018-06-16T08:20:26Z</time>
      </trkpt>
      <trkpt lat="43.180517" lon="-1.476236">
        <ele>266.6</ele>
        <time>2018-06-16T08:21:17Z</time>
      </trkpt>
      <trkpt lat="43.180166" lon="-1.476983">
        <ele>261.1</ele>
        <time>2018-06-16T08:21:35Z</time>
      </trkpt>
      <trkpt lat="43.180080" lon="-1.477231">
        <ele>263.3</ele>
        <time>2018-06-16T08:21:40Z</time>
      </trkpt>
      <trkpt lat="43.179946" lon="-1.477357">
        <ele>262.3</ele>
        <time>2018-06-16T08:21:44Z</time>
      </trkpt>
      <trkpt lat="43.179751" lon="-1.477916">
        <ele>258.0</ele>
        <time>2018-06-16T08:21:56Z</time>
      </trkpt>
      <trkpt lat="43.179646" lon="-1.478503">
        <ele>262.7</ele>
        <time>2018-06-16T08:22:08Z</time>
      </trkpt>
      <trkpt lat="43.179695" lon="-1.478779">
        <ele>261.2</ele>
        <time>2018-06-16T08:22:13Z</time>
      </trkpt>
      <trkpt lat="43.180047" lon="-1.479846">
        <ele>253.1</ele>
        <time>2018-06-16T08:22:36Z</time>
      </trkpt>
      <trkpt lat="43.180381" lon="-1.481284">
        <ele>256.8</ele>
        <time>2018-06-16T08:23:05Z</time>
      </trkpt>
      <trkpt lat="43.180556" lon="-1.482571">
        <ele>250.5</ele>
        <time>2018-06-16T08:23:30Z</time>
      </trkpt>
      <trkpt lat="43.180532" lon="-1.484172">
        <ele>247.6</ele>
        <time>2018-06-16T08:24:01Z</time>
      </trkpt>
      <trkpt lat="43.180323" lon="-1.485377">
        <ele>253.3</ele>
        <time>2018-06-16T08:24:25Z</time>
      </trkpt>
      <trkpt lat="43.180065" lon="-1.486275">
        <ele>251.3</ele>
        <time>2018-06-16T08:24:43Z</time>
      </trkpt>
      <trkpt lat="43.180071" lon="-1.486767">
        <ele>247.9</ele>
        <time>2018-06-16T08:24:53Z</time>
      </trkpt>
      <trkpt lat="43.180247" lon="-1.488147">
        <ele>247.2</ele>
        <time>2018-06-16T08:25:20Z</time>
      </trkpt>
      <trkpt lat="43.180373" lon="-1.489159">
        <ele>246.2</ele>
        <time>2018-06-16T08:25:39Z</time>
      </trkpt>
      <trkpt lat="43.180518" lon="-1.489894">
        <ele>249.7</ele>
        <time>2018-06-16T08:25:54Z</time>
      </trkpt>
      <trkpt lat="43.180567" lon="-1.490261">
        <ele>250.5</ele>
        <time>2018-06-16T08:26:01Z</time>
      </trkpt>
      <trkpt lat="43.180681" lon="-1.490351">
        <ele>252.3</ele>
        <time>2018-06-16T08:26:05Z</time>
      </trkpt>
      <trkpt lat="43.180706" lon="-1.490504">
        <ele>252.6</ele>
        <time>2018-06-16T08:26:08Z</time>
      </trkpt>
      <trkpt lat="43.180707" lon="-1.490627">
        <ele>253.0</ele>
        <time>2018-06-16T08:26:10Z</time>
      </trkpt>
      <trkpt lat="43.180804" lon="-1.491117">
        <ele>256.1</ele>
        <time>2018-06-16T08:26:20Z</time>
      </trkpt>
      <trkpt lat="43.180984" lon="-1.491143">
        <ele>258.2</ele>
        <time>2018-06-16T08:26:25Z</time>
      </trkpt>
      <trkpt lat="43.181231" lon="-1.491106">
        <ele>258.5</ele>
        <time>2018-06-16T08:26:31Z</time>
      </trkpt>
      <trkpt lat="43.181594" lon="-1.491251">
        <ele>260.4</ele>
        <time>2018-06-16T08:26:41Z</time>
      </trkpt>
      <trkpt lat="43.182114" lon="-1.491454">
        <ele>262.7</ele>
        <time>2018-06-16T08:26:56Z</time>
      </trkpt>
      <trkpt lat="43.182386" lon="-1.491570">
        <ele>268.8</ele>
        <time>2018-06-16T08:27:03Z</time>
      </trkpt>
      <trkpt lat="43.182476" lon="-1.491629">
        <ele>266.4</ele>
        <time>2018-06-16T08:27:06Z</time>
      </trkpt>
      <trkpt lat="43.182488" lon="-1.491686">
        <ele>267.0</ele>
        <time>2018-06-16T08:27:07Z</time>
      </trkpt>
      <trkpt lat="43.182464" lon="-1.491718">
        <ele>267.7</ele>
        <time>2018-06-16T08:27:08Z</time>
      </trkpt>
      <trkpt lat="43.182411" lon="-1.491754">
        <ele>268.3</ele>
        <time>2018-06-16T08:27:10Z</time>
      </trkpt>
      <trkpt lat="43.182074" lon="-1.491855">
        <ele>266.1</ele>
        <time>2018-06-16T08:27:19Z</time>
      </trkpt>
      <trkpt lat="43.181738" lon="-1.491955">
        <ele>265.1</ele>
        <time>2018-06-16T08:27:28Z</time>
      </trkpt>
      <trkpt lat="43.181537" lon="-1.492083">
        <ele>260.2</ele>
        <time>2018-06-16T08:27:34Z</time>
      </trkpt>
      <trkpt lat="43.181539" lon="-1.492206">
        <ele>260.2</ele>
        <time>2018-06-16T08:27:36Z</time>
      </trkpt>
      <trkpt lat="43.181630" lon="-1.492327">
        <ele>261.9</ele>
        <time>2018-06-16T08:27:39Z</time>
      </trkpt>
      <trkpt lat="43.182080" lon="-1.492285">
        <ele>273.1</ele>
        <time>2018-06-16T08:27:52Z</time>
      </trkpt>
      <trkpt lat="43.182238" lon="-1.492312">
        <ele>275.5</ele>
        <time>2018-06-16T08:27:56Z</time>
      </trkpt>
      <trkpt lat="43.182399" lon="-1.492585">
        <ele>276.1</ele>
        <time>2018-06-16T08:28:03Z</time>
      </trkpt>
      <trkpt lat="43.183304" lon="-1.494624">
        <ele>285.1</ele>
        <time>2018-06-16T08:28:49Z</time>
      </trkpt>
      <trkpt lat="43.183559" lon="-1.495171">
        <ele>292.5</ele>
        <time>2018-06-16T08:29:01Z</time>
      </trkpt>
      <trkpt lat="43.183798" lon="-1.496273">
        <ele>294.3</ele>
        <time>2018-06-16T08:29:23Z</time>
      </trkpt>
      <trkpt lat="43.183804" lon="-1.496673">
        <ele>293.4</ele>
        <time>2018-06-16T08:29:31Z</time>
      </trkpt>
      <trkpt lat="43.184110" lon="-1.497742">
        <ele>295.9</ele>
        <time>2018-06-16T08:29:53Z</time>
      </trkpt>
      <trkpt lat="43.184409" lon="-1.498165">
        <ele>296.5</ele>
        <time>2018-06-16T08:30:04Z</time>
      </trkpt>
      <trkpt lat="43.184548" lon="-1.498531">
        <ele>298.9</ele>
        <time>2018-06-16T08:30:12Z</time>
      </trkpt>
      <trkpt lat="43.184621" lon="-1.498929">
        <ele>298.6</ele>
        <time>2018-06-16T08:30:20Z</time>
      </trkpt>
      <trkpt lat="43.184602" lon="-1.499206">
        <ele>299.7</ele>
        <time>2018-06-16T08:30:26Z</time>
      </trkpt>
      <trkpt lat="43.184608" lon="-1.499637">
        <ele>304.6</ele>
        <time>2018-06-16T08:30:34Z</time>
      </trkpt>
      <trkpt lat="43.184749" lon="-1.500125">
        <ele>308.2</ele>
        <time>2018-06-16T08:30:44Z</time>
      </trkpt>
      <trkpt lat="43.184889" lon="-1.500491">
        <ele>307.4</ele>
        <time>2018-06-16T08:30:52Z</time>
      </trkpt>
      <trkpt lat="43.185098" lon="-1.500978">
        <ele>300.1</ele>
        <time>2018-06-16T08:31:03Z</time>
      </trkpt>
      <trkpt lat="43.185444" lon="-1.501616">
        <ele>308.3</ele>
        <time>2018-06-16T08:31:18Z</time>
      </trkpt>
      <trkpt lat="43.185578" lon="-1.501551">
        <ele>309.8</ele>
        <time>2018-06-16T08:31:22Z</time>
      </trkpt>
      <trkpt lat="43.185759" lon="-1.501578">
        <ele>312.4</ele>
        <time>2018-06-16T08:31:27Z</time>
      </trkpt>
      <trkpt lat="43.185988" lon="-1.501879">
        <ele>316.9</ele>
        <time>2018-06-16T08:31:35Z</time>
      </trkpt>
      <trkpt lat="43.186281" lon="-1.501872">
        <ele>316.2</ele>
        <time>2018-06-16T08:31:43Z</time>
      </trkpt>
      <trkpt lat="43.186530" lon="-1.501989">
        <ele>320.0</ele>
        <time>2018-06-16T08:31:50Z</time>
      </trkpt>
      <trkpt lat="43.186710" lon="-1.501985">
        <ele>323.5</ele>
        <time>2018-06-16T08:31:55Z</time>
      </trkpt>
      <trkpt lat="43.186842" lon="-1.501736">
        <ele>323.9</ele>
        <time>2018-06-16T08:32:01Z</time>
      </trkpt>
      <trkpt lat="43.187020" lon="-1.501577">
        <ele>325.4</ele>
        <time>2018-06-16T08:32:07Z</time>
      </trkpt>
      <trkpt lat="43.187244" lon="-1.501541">
        <ele>329.0</ele>
        <time>2018-06-16T08:32:13Z</time>
      </trkpt>
      <trkpt lat="43.187424" lon="-1.501537">
        <ele>331.3</ele>
        <time>2018-06-16T08:32:17Z</time>
      </trkpt>
      <trkpt lat="43.187560" lon="-1.501626">
        <ele>332.8</ele>
        <time>2018-06-16T08:32:21Z</time>
      </trkpt>
      <trkpt lat="43.187653" lon="-1.501839">
        <ele>336.6</ele>
        <time>2018-06-16T08:32:26Z</time>
      </trkpt>
      <trkpt lat="43.187684" lon="-1.502453">
        <ele>349.5</ele>
        <time>2018-06-16T08:32:38Z</time>
      </trkpt>
      <trkpt lat="43.187776" lon="-1.502636">
        <ele>351.5</ele>
        <time>2018-06-16T08:32:43Z</time>
      </trkpt>
      <trkpt lat="43.188160" lon="-1.502749">
        <ele>356.0</ele>
        <time>2018-06-16T08:32:53Z</time>
      </trkpt>
      <trkpt lat="43.188252" lon="-1.502839">
        <ele>358.4</ele>
        <time>2018-06-16T08:32:56Z</time>
      </trkpt>
      <trkpt lat="43.188254" lon="-1.502993">
        <ele>363.7</ele>
        <time>2018-06-16T08:32:59Z</time>
      </trkpt>
      <trkpt lat="43.187985" lon="-1.503123">
        <ele>369.4</ele>
        <time>2018-06-16T08:33:07Z</time>
      </trkpt>
      <trkpt lat="43.187629" lon="-1.503378">
        <ele>373.6</ele>
        <time>2018-06-16T08:33:18Z</time>
      </trkpt>
      <trkpt lat="43.187457" lon="-1.504059">
        <ele>373.3</ele>
        <time>2018-06-16T08:33:32Z</time>
      </trkpt>
      <trkpt lat="43.187375" lon="-1.504614">
        <ele>372.4</ele>
        <time>2018-06-16T08:33:42Z</time>
      </trkpt>
      <trkpt lat="43.187428" lon="-1.505228">
        <ele>376.9</ele>
        <time>2018-06-16T08:33:54Z</time>
      </trkpt>
      <trkpt lat="43.187567" lon="-1.505594">
        <ele>379.2</ele>
        <time>2018-06-16T08:34:02Z</time>
      </trkpt>
      <trkpt lat="43.187796" lon="-1.505835">
        <ele>390.7</ele>
        <time>2018-06-16T08:34:10Z</time>
      </trkpt>
      <trkpt lat="43.188093" lon="-1.506197">
        <ele>395.3</ele>
        <time>2018-06-16T08:34:21Z</time>
      </trkpt>
      <trkpt lat="43.188299" lon="-1.506438">
        <ele>397.3</ele>
        <time>2018-06-16T08:34:28Z</time>
      </trkpt>
      <trkpt lat="43.188574" lon="-1.506800">
        <ele>402.3</ele>
        <time>2018-06-16T08:34:38Z</time>
      </trkpt>
      <trkpt lat="43.188618" lon="-1.506737">
        <ele>403.5</ele>
        <time>2018-06-16T08:34:40Z</time>
      </trkpt>
      <trkpt lat="43.188522" lon="-1.506309">
        <ele>406.6</ele>
        <time>2018-06-16T08:34:49Z</time>
      </trkpt>
      <trkpt lat="43.188475" lon="-1.506126">
        <ele>409.4</ele>
        <time>2018-06-16T08:34:52Z</time>
      </trkpt>
      <trkpt lat="43.188518" lon="-1.505971">
        <ele>411.3</ele>
        <time>2018-06-16T08:34:56Z</time>
      </trkpt>
      <trkpt lat="43.188652" lon="-1.505937">
        <ele>411.6</ele>
        <time>2018-06-16T08:34:59Z</time>
      </trkpt>
      <trkpt lat="43.188834" lon="-1.506055">
        <ele>413.4</ele>
        <time>2018-06-16T08:35:05Z</time>
      </trkpt>
      <trkpt lat="43.189375" lon="-1.506104">
        <ele>421.4</ele>
        <time>2018-06-16T08:35:19Z</time>
      </trkpt>
      <trkpt lat="43.189691" lon="-1.506188">
        <ele>437.8</ele>
        <time>2018-06-16T08:35:28Z</time>
      </trkpt>
      <trkpt lat="43.190007" lon="-1.506211">
        <ele>449.4</ele>
        <time>2018-06-16T08:35:37Z</time>
      </trkpt>
      <trkpt lat="43.190256" lon="-1.506298">
        <ele>454.3</ele>
        <time>2018-06-16T08:35:44Z</time>
      </trkpt>
      <trkpt lat="43.190329" lon="-1.506347">
        <ele>455.4</ele>
        <time>2018-06-16T08:35:46Z</time>
      </trkpt>
      <trkpt lat="43.190415" lon="-1.506448">
        <ele>455.7</ele>
        <time>2018-06-16T08:35:49Z</time>
      </trkpt>
      <trkpt lat="43.190484" lon="-1.506569">
        <ele>455.9</ele>
        <time>2018-06-16T08:35:52Z</time>
      </trkpt>
      <trkpt lat="43.190578" lon="-1.506874">
        <ele>463.1</ele>
        <time>2018-06-16T08:35:59Z</time>
      </trkpt>
      <trkpt lat="43.190693" lon="-1.507025">
        <ele>466.2</ele>
        <time>2018-06-16T08:36:03Z</time>
      </trkpt>
      <trkpt lat="43.190873" lon="-1.507052">
        <ele>467.6</ele>
        <time>2018-06-16T08:36:08Z</time>
      </trkpt>
      <trkpt lat="43.191177" lon="-1.507045">
        <ele>477.2</ele>
        <time>2018-06-16T08:36:16Z</time>
      </trkpt>
      <trkpt lat="43.191471" lon="-1.507050">
        <ele>487.4</ele>
        <time>2018-06-16T08:36:24Z</time>
      </trkpt>
      <trkpt lat="43.191549" lon="-1.507018">
        <ele>488.2</ele>
        <time>2018-06-16T08:36:26Z</time>
      </trkpt>
      <trkpt lat="43.191592" lon="-1.506973">
        <ele>486.9</ele>
        <time>2018-06-16T08:36:28Z</time>
      </trkpt>
      <trkpt lat="43.191681" lon="-1.506847">
        <ele>484.3</ele>
        <time>2018-06-16T08:36:31Z</time>
      </trkpt>
      <trkpt lat="43.191749" lon="-1.506744">
        <ele>481.8</ele>
        <time>2018-06-16T08:36:34Z</time>
      </trkpt>
      <trkpt lat="43.191788" lon="-1.506573">
        <ele>476.9</ele>
        <time>2018-06-16T08:36:38Z</time>
      </trkpt>
      <trkpt lat="43.191807" lon="-1.506465">
        <ele>475.4</ele>
        <time>2018-06-16T08:36:40Z</time>
      </trkpt>
      <trkpt lat="43.191899" lon="-1.506288">
        <ele>473.4</ele>
        <time>2018-06-16T08:36:44Z</time>
      </trkpt>
      <trkpt lat="43.192093" lon="-1.506058">
        <ele>469.1</ele>
        <time>2018-06-16T08:36:51Z</time>
      </trkpt>
      <trkpt lat="43.192386" lon="-1.505747">
        <ele>480.4</ele>
        <time>2018-06-16T08:37:01Z</time>
      </trkpt>
      <trkpt lat="43.192431" lon="-1.505660">
        <ele>481.2</ele>
        <time>2018-06-16T08:37:03Z</time>
      </trkpt>
      <trkpt lat="43.192457" lon="-1.505575">
        <ele>481.4</ele>
        <time>2018-06-16T08:37:05Z</time>
      </trkpt>
      <trkpt lat="43.192480" lon="-1.505446">
        <ele>480.7</ele>
        <time>2018-06-16T08:37:07Z</time>
      </trkpt>
      <trkpt lat="43.192539" lon="-1.505350">
        <ele>482.0</ele>
        <time>2018-06-16T08:37:10Z</time>
      </trkpt>
      <trkpt lat="43.192601" lon="-1.505323">
        <ele>485.0</ele>
        <time>2018-06-16T08:37:12Z</time>
      </trkpt>
      <trkpt lat="43.192664" lon="-1.505339">
        <ele>488.8</ele>
        <time>2018-06-16T08:37:13Z</time>
      </trkpt>
      <trkpt lat="43.192723" lon="-1.505414">
        <ele>493.6</ele>
        <time>2018-06-16T08:37:16Z</time>
      </trkpt>
      <trkpt lat="43.192745" lon="-1.505560">
        <ele>496.6</ele>
        <time>2018-06-16T08:37:19Z</time>
      </trkpt>
      <trkpt lat="43.192710" lon="-1.506330">
        <ele>501.7</ele>
        <time>2018-06-16T08:37:34Z</time>
      </trkpt>
      <trkpt lat="43.192723" lon="-1.507345">
        <ele>499.8</ele>
        <time>2018-06-16T08:37:53Z</time>
      </trkpt>
      <trkpt lat="43.192711" lon="-1.507490">
        <ele>500.4</ele>
        <time>2018-06-16T08:37:56Z</time>
      </trkpt>
      <trkpt lat="43.192727" lon="-1.507653">
        <ele>503.0</ele>
        <time>2018-06-16T08:37:59Z</time>
      </trkpt>
      <trkpt lat="43.192776" lon="-1.507959">
        <ele>515.3</ele>
        <time>2018-06-16T08:38:06Z</time>
      </trkpt>
      <trkpt lat="43.192817" lon="-1.508091">
        <ele>519.4</ele>
        <time>2018-06-16T08:38:09Z</time>
      </trkpt>
      <trkpt lat="43.192825" lon="-1.508235">
        <ele>520.9</ele>
        <time>2018-06-16T08:38:12Z</time>
      </trkpt>
      <trkpt lat="43.192758" lon="-1.508493">
        <ele>511.6</ele>
        <time>2018-06-16T08:38:17Z</time>
      </trkpt>
      <trkpt lat="43.192739" lon="-1.508606">
        <ele>506.3</ele>
        <time>2018-06-16T08:38:20Z</time>
      </trkpt>
      <trkpt lat="43.192774" lon="-1.508713">
        <ele>505.1</ele>
        <time>2018-06-16T08:38:22Z</time>
      </trkpt>
      <trkpt lat="43.192833" lon="-1.508850">
        <ele>506.9</ele>
        <time>2018-06-16T08:38:25Z</time>
      </trkpt>
      <trkpt lat="43.193246" lon="-1.509455">
        <ele>527.4</ele>
        <time>2018-06-16T08:38:42Z</time>
      </trkpt>
      <trkpt lat="43.193385" lon="-1.509760">
        <ele>536.9</ele>
        <time>2018-06-16T08:38:49Z</time>
      </trkpt>
      <trkpt lat="43.193681" lon="-1.510060">
        <ele>551.5</ele>
        <time>2018-06-16T08:39:00Z</time>
      </trkpt>
      <trkpt lat="43.193910" lon="-1.510331">
        <ele>553.3</ele>
        <time>2018-06-16T08:39:08Z</time>
      </trkpt>
      <trkpt lat="43.193979" lon="-1.510483">
        <ele>551.8</ele>
        <time>2018-06-16T08:39:11Z</time>
      </trkpt>
      <trkpt lat="43.194307" lon="-1.510698">
        <ele>555.1</ele>
        <time>2018-06-16T08:39:21Z</time>
      </trkpt>
      <trkpt lat="43.194389" lon="-1.510781">
        <ele>558.7</ele>
        <time>2018-06-16T08:39:23Z</time>
      </trkpt>
      <trkpt lat="43.194481" lon="-1.510933">
        <ele>562.0</ele>
        <time>2018-06-16T08:39:27Z</time>
      </trkpt>
      <trkpt lat="43.194483" lon="-1.511105">
        <ele>560.4</ele>
        <time>2018-06-16T08:39:31Z</time>
      </trkpt>
      <trkpt lat="43.194577" lon="-1.511392">
        <ele>559.0</ele>
        <time>2018-06-16T08:39:37Z</time>
      </trkpt>
      <trkpt lat="43.194655" lon="-1.511513">
        <ele>555.4</ele>
        <time>2018-06-16T08:39:40Z</time>
      </trkpt>
      <trkpt lat="43.194737" lon="-1.511603">
        <ele>556.1</ele>
        <time>2018-06-16T08:39:43Z</time>
      </trkpt>
      <trkpt lat="43.195031" lon="-1.511719">
        <ele>568.5</ele>
        <time>2018-06-16T08:39:51Z</time>
      </trkpt>
      <trkpt lat="43.195436" lon="-1.511710">
        <ele>584.9</ele>
        <time>2018-06-16T08:40:03Z</time>
      </trkpt>
      <trkpt lat="43.195663" lon="-1.511796">
        <ele>589.7</ele>
        <time>2018-06-16T08:40:09Z</time>
      </trkpt>
      <trkpt lat="43.195778" lon="-1.511867">
        <ele>591.7</ele>
        <time>2018-06-16T08:40:12Z</time>
      </trkpt>
      <trkpt lat="43.195845" lon="-1.511976">
        <ele>592.1</ele>
        <time>2018-06-16T08:40:15Z</time>
      </trkpt>
      <trkpt lat="43.195938" lon="-1.512125">
        <ele>592.0</ele>
        <time>2018-06-16T08:40:19Z</time>
      </trkpt>
      <trkpt lat="43.196007" lon="-1.512311">
        <ele>589.1</ele>
        <time>2018-06-16T08:40:23Z</time>
      </trkpt>
      <trkpt lat="43.196034" lon="-1.512680">
        <ele>580.6</ele>
        <time>2018-06-16T08:40:30Z</time>
      </trkpt>
      <trkpt lat="43.196157" lon="-1.513507">
        <ele>582.4</ele>
        <time>2018-06-16T08:40:47Z</time>
      </trkpt>
      <trkpt lat="43.196223" lon="-1.513740">
        <ele>583.2</ele>
        <time>2018-06-16T08:40:51Z</time>
      </trkpt>
      <trkpt lat="43.196297" lon="-1.513873">
        <ele>583.1</ele>
        <time>2018-06-16T08:40:55Z</time>
      </trkpt>
      <trkpt lat="43.196391" lon="-1.513933">
        <ele>587.1</ele>
        <time>2018-06-16T08:40:57Z</time>
      </trkpt>
      <trkpt lat="43.196501" lon="-1.513991">
        <ele>592.2</ele>
        <time>2018-06-16T08:41:01Z</time>
      </trkpt>
      <trkpt lat="43.197042" lon="-1.514040">
        <ele>593.0</ele>
        <time>2018-06-16T08:41:15Z</time>
      </trkpt>
      <trkpt lat="43.197228" lon="-1.514088">
        <ele>595.2</ele>
        <time>2018-06-16T08:41:20Z</time>
      </trkpt>
      <trkpt lat="43.197404" lon="-1.514185">
        <ele>596.8</ele>
        <time>2018-06-16T08:41:25Z</time>
      </trkpt>
      <trkpt lat="43.197702" lon="-1.514578">
        <ele>601.5</ele>
        <time>2018-06-16T08:41:36Z</time>
      </trkpt>
      <trkpt lat="43.197807" lon="-1.514668">
        <ele>600.4</ele>
        <time>2018-06-16T08:41:39Z</time>
      </trkpt>
      <trkpt lat="43.197907" lon="-1.514727">
        <ele>599.4</ele>
        <time>2018-06-16T08:41:42Z</time>
      </trkpt>
      <trkpt lat="43.198042" lon="-1.514723">
        <ele>600.2</ele>
        <time>2018-06-16T08:41:46Z</time>
      </trkpt>
      <trkpt lat="43.198351" lon="-1.514582">
        <ele>607.7</ele>
        <time>2018-06-16T08:41:55Z</time>
      </trkpt>
      <trkpt lat="43.198759" lon="-1.514490">
        <ele>612.5</ele>
        <time>2018-06-16T08:42:06Z</time>
      </trkpt>
      <trkpt lat="43.199074" lon="-1.514452">
        <ele>607.9</ele>
        <time>2018-06-16T08:42:14Z</time>
      </trkpt>
      <trkpt lat="43.199479" lon="-1.514473">
        <ele>612.3</ele>
        <time>2018-06-16T08:42:25Z</time>
      </trkpt>
      <trkpt lat="43.199610" lon="-1.514496">
        <ele>615.3</ele>
        <time>2018-06-16T08:42:28Z</time>
      </trkpt>
      <trkpt lat="43.199728" lon="-1.514559">
        <ele>618.1</ele>
        <time>2018-06-16T08:42:32Z</time>
      </trkpt>
      <trkpt lat="43.199814" lon="-1.514957">
        <ele>612.2</ele>
        <time>2018-06-16T08:42:40Z</time>
      </trkpt>
      <trkpt lat="43.199851" lon="-1.515356">
        <ele>618.7</ele>
        <time>2018-06-16T08:42:48Z</time>
      </trkpt>
      <trkpt lat="43.199833" lon="-1.515695">
        <ele>616.7</ele>
        <time>2018-06-16T08:42:54Z</time>
      </trkpt>
      <trkpt lat="43.199727" lon="-1.516190">
        <ele>614.4</ele>
        <time>2018-06-16T08:43:04Z</time>
      </trkpt>
      <trkpt lat="43.199686" lon="-1.516499">
        <ele>616.2</ele>
        <time>2018-06-16T08:43:10Z</time>
      </trkpt>
      <trkpt lat="43.199724" lon="-1.516679">
        <ele>617.8</ele>
        <time>2018-06-16T08:43:14Z</time>
      </trkpt>
      <trkpt lat="43.199779" lon="-1.516829">
        <ele>620.1</ele>
        <time>2018-06-16T08:43:17Z</time>
      </trkpt>
      <trkpt lat="43.199872" lon="-1.517001">
        <ele>623.6</ele>
        <time>2018-06-16T08:43:21Z</time>
      </trkpt>
      <trkpt lat="43.199964" lon="-1.517107">
        <ele>625.2</ele>
        <time>2018-06-16T08:43:24Z</time>
      </trkpt>
      <trkpt lat="43.200235" lon="-1.517224">
        <ele>630.6</ele>
        <time>2018-06-16T08:43:32Z</time>
      </trkpt>
      <trkpt lat="43.200665" lon="-1.517398">
        <ele>645.4</ele>
        <time>2018-06-16T08:43:44Z</time>
      </trkpt>
      <trkpt lat="43.200870" lon="-1.517578">
        <ele>645.5</ele>
        <time>2018-06-16T08:43:51Z</time>
      </trkpt>
      <trkpt lat="43.201007" lon="-1.517709">
        <ele>643.7</ele>
        <time>2018-06-16T08:43:55Z</time>
      </trkpt>
      <trkpt lat="43.201053" lon="-1.517820">
        <ele>641.3</ele>
        <time>2018-06-16T08:43:58Z</time>
      </trkpt>
      <trkpt lat="43.201123" lon="-1.518003">
        <ele>637.7</ele>
        <time>2018-06-16T08:44:02Z</time>
      </trkpt>
      <trkpt lat="43.201175" lon="-1.518149">
        <ele>636.0</ele>
        <time>2018-06-16T08:44:05Z</time>
      </trkpt>
      <trkpt lat="43.201262" lon="-1.518307">
        <ele>635.7</ele>
        <time>2018-06-16T08:44:09Z</time>
      </trkpt>
      <trkpt lat="43.201625" lon="-1.518483">
        <ele>635.2</ele>
        <time>2018-06-16T08:44:19Z</time>
      </trkpt>
      <trkpt lat="43.202369" lon="-1.518557">
        <ele>641.9</ele>
        <time>2018-06-16T08:44:39Z</time>
      </trkpt>
      <trkpt lat="43.202526" lon="-1.518553">
        <ele>648.8</ele>
        <time>2018-06-16T08:44:43Z</time>
      </trkpt>
      <trkpt lat="43.202708" lon="-1.518641">
        <ele>653.8</ele>
        <time>2018-06-16T08:44:48Z</time>
      </trkpt>
      <trkpt lat="43.202912" lon="-1.518759">
        <ele>659.6</ele>
        <time>2018-06-16T08:44:54Z</time>
      </trkpt>
      <trkpt lat="43.203087" lon="-1.518884">
        <ele>662.0</ele>
        <time>2018-06-16T08:45:00Z</time>
      </trkpt>
      <trkpt lat="43.203505" lon="-1.519391">
        <ele>655.6</ele>
        <time>2018-06-16T08:45:14Z</time>
      </trkpt>
      <trkpt lat="43.203623" lon="-1.519501">
        <ele>654.4</ele>
        <time>2018-06-16T08:45:18Z</time>
      </trkpt>
      <trkpt lat="43.203755" lon="-1.519570">
        <ele>654.2</ele>
        <time>2018-06-16T08:45:22Z</time>
      </trkpt>
      <trkpt lat="43.204049" lon="-1.519655">
        <ele>656.2</ele>
        <time>2018-06-16T08:45:30Z</time>
      </trkpt>
      <trkpt lat="43.204410" lon="-1.519769">
        <ele>665.2</ele>
        <time>2018-06-16T08:45:40Z</time>
      </trkpt>
      <trkpt lat="43.205000" lon="-1.520063">
        <ele>659.5</ele>
        <time>2018-06-16T08:45:56Z</time>
      </trkpt>
      <trkpt lat="43.205653" lon="-1.520108">
        <ele>668.0</ele>
        <time>2018-06-16T08:46:14Z</time>
      </trkpt>
      <trkpt lat="43.206012" lon="-1.519977">
        <ele>678.6</ele>
        <time>2018-06-16T08:46:24Z</time>
      </trkpt>
      <trkpt lat="43.206165" lon="-1.519957">
        <ele>683.2</ele>
        <time>2018-06-16T08:46:28Z</time>
      </trkpt>
      <trkpt lat="43.206304" lon="-1.519970">
        <ele>685.4</ele>
        <time>2018-06-16T08:46:32Z</time>
      </trkpt>
      <trkpt lat="43.206564" lon="-1.520091">
        <ele>684.1</ele>
        <time>2018-06-16T08:46:39Z</time>
      </trkpt>
      <trkpt lat="43.206757" lon="-1.520205">
        <ele>682.8</ele>
        <time>2018-06-16T08:46:45Z</time>
      </trkpt>
      <trkpt lat="43.206895" lon="-1.520386">
        <ele>686.4</ele>
        <time>2018-06-16T08:46:50Z</time>
      </trkpt>
      <trkpt lat="43.207033" lon="-1.520402">
        <ele>685.3</ele>
        <time>2018-06-16T08:46:53Z</time>
      </trkpt>
      <trkpt lat="43.207434" lon="-1.520312">
        <ele>690.4</ele>
        <time>2018-06-16T08:47:04Z</time>
      </trkpt>
      <trkpt lat="43.207623" lon="-1.520348">
        <ele>691.1</ele>
        <time>2018-06-16T08:47:09Z</time>
      </trkpt>
      <trkpt lat="43.207799" lon="-1.520445">
        <ele>687.7</ele>
        <time>2018-06-16T08:47:14Z</time>
      </trkpt>
      <trkpt lat="43.208069" lon="-1.520666">
        <ele>690.1</ele>
        <time>2018-06-16T08:47:23Z</time>
      </trkpt>
      <trkpt lat="43.208505" lon="-1.521270">
        <ele>703.2</ele>
        <time>2018-06-16T08:47:39Z</time>
      </trkpt>
      <trkpt lat="43.208621" lon="-1.521432">
        <ele>708.7</ele>
        <time>2018-06-16T08:47:44Z</time>
      </trkpt>
      <trkpt lat="43.208733" lon="-1.521542">
        <ele>712.8</ele>
        <time>2018-06-16T08:47:48Z</time>
      </trkpt>
      <trkpt lat="43.208936" lon="-1.521599">
        <ele>716.0</ele>
        <time>2018-06-16T08:47:53Z</time>
      </trkpt>
      <trkpt lat="43.209206" lon="-1.521561">
        <ele>718.5</ele>
        <time>2018-06-16T08:48:00Z</time>
      </trkpt>
      <trkpt lat="43.209474" lon="-1.521370">
        <ele>714.7</ele>
        <time>2018-06-16T08:48:08Z</time>
      </trkpt>
      <trkpt lat="43.209991" lon="-1.521296">
        <ele>720.9</ele>
        <time>2018-06-16T08:48:22Z</time>
      </trkpt>
      <trkpt lat="43.210327" lon="-1.521165">
        <ele>721.8</ele>
        <time>2018-06-16T08:48:31Z</time>
      </trkpt>
      <trkpt lat="43.210528" lon="-1.521099">
        <ele>722.1</ele>
        <time>2018-06-16T08:48:37Z</time>
      </trkpt>
      <trkpt lat="43.210708" lon="-1.521094">
        <ele>726.2</ele>
        <time>2018-06-16T08:48:42Z</time>
      </trkpt>
      <trkpt lat="43.210767" lon="-1.521132">
        <ele>730.2</ele>
        <time>2018-06-16T08:48:43Z</time>
      </trkpt>
      <trkpt lat="43.210846" lon="-1.521218">
        <ele>735.4</ele>
        <time>2018-06-16T08:48:46Z</time>
      </trkpt>
      <trkpt lat="43.210912" lon="-1.521362">
        <ele>739.7</ele>
        <time>2018-06-16T08:48:50Z</time>
      </trkpt>
      <trkpt lat="43.210967" lon="-1.521496">
        <ele>741.0</ele>
        <time>2018-06-16T08:48:53Z</time>
      </trkpt>
      <trkpt lat="43.210941" lon="-1.521642">
        <ele>740.5</ele>
        <time>2018-06-16T08:48:56Z</time>
      </trkpt>
      <trkpt lat="43.210869" lon="-1.521856">
        <ele>738.3</ele>
        <time>2018-06-16T08:49:00Z</time>
      </trkpt>
      <trkpt lat="43.210542" lon="-1.522299">
        <ele>729.4</ele>
        <time>2018-06-16T08:49:13Z</time>
      </trkpt>
      <trkpt lat="43.210435" lon="-1.522521">
        <ele>729.6</ele>
        <time>2018-06-16T08:49:18Z</time>
      </trkpt>
      <trkpt lat="43.210323" lon="-1.522797">
        <ele>728.2</ele>
        <time>2018-06-16T08:49:24Z</time>
      </trkpt>
      <trkpt lat="43.210196" lon="-1.523446">
        <ele>719.0</ele>
        <time>2018-06-16T08:49:37Z</time>
      </trkpt>
      <trkpt lat="43.209943" lon="-1.524745">
        <ele>715.1</ele>
        <time>2018-06-16T08:50:03Z</time>
      </trkpt>
      <trkpt lat="43.209640" lon="-1.525676">
        <ele>706.8</ele>
        <time>2018-06-16T08:50:22Z</time>
      </trkpt>
      <trkpt lat="43.209556" lon="-1.526139">
        <ele>713.4</ele>
        <time>2018-06-16T08:50:32Z</time>
      </trkpt>
      <trkpt lat="43.209475" lon="-1.526849">
        <ele>713.1</ele>
        <time>2018-06-16T08:50:46Z</time>
      </trkpt>
      <trkpt lat="43.209438" lon="-1.527465">
        <ele>712.2</ele>
        <time>2018-06-16T08:50:57Z</time>
      </trkpt>
      <trkpt lat="43.209377" lon="-1.528021">
        <ele>720.2</ele>
        <time>2018-06-16T08:51:08Z</time>
      </trkpt>
      <trkpt lat="43.209495" lon="-1.528449">
        <ele>714.0</ele>
        <time>2018-06-16T08:51:17Z</time>
      </trkpt>
      <trkpt lat="43.209499" lon="-1.528695">
        <ele>710.4</ele>
        <time>2018-06-16T08:51:22Z</time>
      </trkpt>
      <trkpt lat="43.209281" lon="-1.529254">
        <ele>727.3</ele>
        <time>2018-06-16T08:51:35Z</time>
      </trkpt>
      <trkpt lat="43.209039" lon="-1.529752">
        <ele>727.1</ele>
        <time>2018-06-16T08:51:46Z</time>
      </trkpt>
      <trkpt lat="43.208892" lon="-1.530556">
        <ele>720.6</ele>
        <time>2018-06-16T08:52:02Z</time>
      </trkpt>
      <trkpt lat="43.208875" lon="-1.530987">
        <ele>724.1</ele>
        <time>2018-06-16T08:52:11Z</time>
      </trkpt>
      <trkpt lat="43.208992" lon="-1.531354">
        <ele>725.4</ele>
        <time>2018-06-16T08:52:18Z</time>
      </trkpt>
      <trkpt lat="43.209220" lon="-1.531533">
        <ele>708.3</ele>
        <time>2018-06-16T08:52:26Z</time>
      </trkpt>
      <trkpt lat="43.209940" lon="-1.531516">
        <ele>675.2</ele>
        <time>2018-06-16T08:52:47Z</time>
      </trkpt>
      <trkpt lat="43.210213" lon="-1.531755">
        <ele>670.0</ele>
        <time>2018-06-16T08:52:56Z</time>
      </trkpt>
      <trkpt lat="43.210330" lon="-1.532060">
        <ele>669.1</ele>
        <time>2018-06-16T08:53:02Z</time>
      </trkpt>
      <trkpt lat="43.210356" lon="-1.532337">
        <ele>671.2</ele>
        <time>2018-06-16T08:53:08Z</time>
      </trkpt>
      <trkpt lat="43.210226" lon="-1.532740">
        <ele>681.3</ele>
        <time>2018-06-16T08:53:16Z</time>
      </trkpt>
      <trkpt lat="43.210389" lon="-1.533167">
        <ele>687.8</ele>
        <time>2018-06-16T08:53:26Z</time>
      </trkpt>
      <trkpt lat="43.210730" lon="-1.533405">
        <ele>676.9</ele>
        <time>2018-06-16T08:53:36Z</time>
      </trkpt>
      <trkpt lat="43.210867" lon="-1.533617">
        <ele>675.3</ele>
        <time>2018-06-16T08:53:42Z</time>
      </trkpt>
      <trkpt lat="43.210900" lon="-1.534386">
        <ele>683.9</ele>
        <time>2018-06-16T08:53:57Z</time>
      </trkpt>
      <trkpt lat="43.211038" lon="-1.534659">
        <ele>678.5</ele>
        <time>2018-06-16T08:54:03Z</time>
      </trkpt>
      <trkpt lat="43.211109" lon="-1.534935">
        <ele>674.6</ele>
        <time>2018-06-16T08:54:09Z</time>
      </trkpt>
      <trkpt lat="43.211069" lon="-1.535305">
        <ele>673.5</ele>
        <time>2018-06-16T08:54:16Z</time>
      </trkpt>
      <trkpt lat="43.211073" lon="-1.535613">
        <ele>675.0</ele>
        <time>2018-06-16T08:54:22Z</time>
      </trkpt>
      <trkpt lat="43.211144" lon="-1.535857">
        <ele>675.5</ele>
        <time>2018-06-16T08:54:27Z</time>
      </trkpt>
      <trkpt lat="43.211327" lon="-1.536130">
        <ele>673.9</ele>
        <time>2018-06-16T08:54:34Z</time>
      </trkpt>
      <trkpt lat="43.211398" lon="-1.536344">
        <ele>673.8</ele>
        <time>2018-06-16T08:54:39Z</time>
      </trkpt>
      <trkpt lat="43.211542" lon="-1.537079">
        <ele>677.2</ele>
        <time>2018-06-16T08:54:53Z</time>
      </trkpt>
      <trkpt lat="43.211613" lon="-1.537323">
        <ele>672.1</ele>
        <time>2018-06-16T08:54:59Z</time>
      </trkpt>
      <trkpt lat="43.211977" lon="-1.537622">
        <ele>671.5</ele>
        <time>2018-06-16T08:55:10Z</time>
      </trkpt>
      <trkpt lat="43.212295" lon="-1.537861">
        <ele>663.6</ele>
        <time>2018-06-16T08:55:20Z</time>
      </trkpt>
      <trkpt lat="43.212521" lon="-1.537948">
        <ele>660.0</ele>
        <time>2018-06-16T08:55:26Z</time>
      </trkpt>
      <trkpt lat="43.213130" lon="-1.538056">
        <ele>661.2</ele>
        <time>2018-06-16T08:55:42Z</time>
      </trkpt>
      <trkpt lat="43.213334" lon="-1.538144">
        <ele>656.9</ele>
        <time>2018-06-16T08:55:48Z</time>
      </trkpt>
      <trkpt lat="43.213562" lon="-1.538385">
        <ele>651.9</ele>
        <time>2018-06-16T08:55:55Z</time>
      </trkpt>
      <trkpt lat="43.213677" lon="-1.538567">
        <ele>653.5</ele>
        <time>2018-06-16T08:56:00Z</time>
      </trkpt>
      <trkpt lat="43.213814" lon="-1.538686">
        <ele>649.4</ele>
        <time>2018-06-16T08:56:04Z</time>
      </trkpt>
      <trkpt lat="43.214153" lon="-1.538801">
        <ele>634.3</ele>
        <time>2018-06-16T08:56:14Z</time>
      </trkpt>
      <trkpt lat="43.214356" lon="-1.538797">
        <ele>630.6</ele>
        <time>2018-06-16T08:56:20Z</time>
      </trkpt>
      <trkpt lat="43.214665" lon="-1.538358">
        <ele>613.3</ele>
        <time>2018-06-16T08:56:32Z</time>
      </trkpt>
      <trkpt lat="43.214844" lon="-1.538231">
        <ele>610.3</ele>
        <time>2018-06-16T08:56:38Z</time>
      </trkpt>
      <trkpt lat="43.215182" lon="-1.538315">
        <ele>615.3</ele>
        <time>2018-06-16T08:56:47Z</time>
      </trkpt>
      <trkpt lat="43.215609" lon="-1.538213">
        <ele>605.2</ele>
        <time>2018-06-16T08:56:58Z</time>
      </trkpt>
      <trkpt lat="43.215738" lon="-1.538137">
        <ele>605.7</ele>
        <time>2018-06-16T08:57:02Z</time>
      </trkpt>
      <trkpt lat="43.215967" lon="-1.538081">
        <ele>604.0</ele>
        <time>2018-06-16T08:57:08Z</time>
      </trkpt>
      <trkpt lat="43.216020" lon="-1.538115">
        <ele>603.7</ele>
        <time>2018-06-16T08:57:10Z</time>
      </trkpt>
      <trkpt lat="43.216014" lon="-1.538203">
        <ele>603.6</ele>
        <time>2018-06-16T08:57:11Z</time>
      </trkpt>
      <trkpt lat="43.215666" lon="-1.539196">
        <ele>614.1</ele>
        <time>2018-06-16T08:57:33Z</time>
      </trkpt>
      <trkpt lat="43.215670" lon="-1.539504">
        <ele>611.3</ele>
        <time>2018-06-16T08:57:39Z</time>
      </trkpt>
      <trkpt lat="43.215540" lon="-1.539907">
        <ele>625.6</ele>
        <time>2018-06-16T08:57:48Z</time>
      </trkpt>
      <trkpt lat="43.215476" lon="-1.540124">
        <ele>632.6</ele>
        <time>2018-06-16T08:57:53Z</time>
      </trkpt>
      <trkpt lat="43.215501" lon="-1.540370">
        <ele>631.0</ele>
        <time>2018-06-16T08:57:57Z</time>
      </trkpt>
      <trkpt lat="43.215688" lon="-1.540889">
        <ele>623.9</ele>
        <time>2018-06-16T08:58:09Z</time>
      </trkpt>
      <trkpt lat="43.216010" lon="-1.541435">
        <ele>625.0</ele>
        <time>2018-06-16T08:58:22Z</time>
      </trkpt>
      <trkpt lat="43.216239" lon="-1.541706">
        <ele>641.6</ele>
        <time>2018-06-16T08:58:31Z</time>
      </trkpt>
      <trkpt lat="43.216422" lon="-1.541948">
        <ele>643.9</ele>
        <time>2018-06-16T08:58:38Z</time>
      </trkpt>
      <trkpt lat="43.216516" lon="-1.542254">
        <ele>646.5</ele>
        <time>2018-06-16T08:58:44Z</time>
      </trkpt>
      <trkpt lat="43.216676" lon="-1.542465">
        <ele>635.8</ele>
        <time>2018-06-16T08:58:51Z</time>
      </trkpt>
      <trkpt lat="43.216949" lon="-1.542705">
        <ele>622.0</ele>
        <time>2018-06-16T08:59:00Z</time>
      </trkpt>
      <trkpt lat="43.217154" lon="-1.542916">
        <ele>620.7</ele>
        <time>2018-06-16T08:59:06Z</time>
      </trkpt>
      <trkpt lat="43.217336" lon="-1.543035">
        <ele>620.6</ele>
        <time>2018-06-16T08:59:12Z</time>
      </trkpt>
      <trkpt lat="43.217471" lon="-1.543031">
        <ele>619.4</ele>
        <time>2018-06-16T08:59:15Z</time>
      </trkpt>
      <trkpt lat="43.218186" lon="-1.542645">
        <ele>586.5</ele>
        <time>2018-06-16T08:59:37Z</time>
      </trkpt>
      <trkpt lat="43.218524" lon="-1.542637">
        <ele>587.1</ele>
        <time>2018-06-16T08:59:46Z</time>
      </trkpt>
      <trkpt lat="43.218750" lon="-1.542693">
        <ele>584.0</ele>
        <time>2018-06-16T08:59:52Z</time>
      </trkpt>
      <trkpt lat="43.218955" lon="-1.542904">
        <ele>578.8</ele>
        <time>2018-06-16T08:59:59Z</time>
      </trkpt>
      <trkpt lat="43.219096" lon="-1.543362">
        <ele>576.2</ele>
        <time>2018-06-16T09:00:09Z</time>
      </trkpt>
      <trkpt lat="43.219168" lon="-1.543730">
        <ele>581.9</ele>
        <time>2018-06-16T09:00:16Z</time>
      </trkpt>
      <trkpt lat="43.219150" lon="-1.544038">
        <ele>581.4</ele>
        <time>2018-06-16T09:00:22Z</time>
      </trkpt>
      <trkpt lat="43.219044" lon="-1.544594">
        <ele>586.8</ele>
        <time>2018-06-16T09:00:33Z</time>
      </trkpt>
      <trkpt lat="43.218893" lon="-1.545091">
        <ele>582.1</ele>
        <time>2018-06-16T09:00:43Z</time>
      </trkpt>
      <trkpt lat="43.218763" lon="-1.545463">
        <ele>583.6</ele>
        <time>2018-06-16T09:00:51Z</time>
      </trkpt>
      <trkpt lat="43.218545" lon="-1.546022">
        <ele>551.5</ele>
        <time>2018-06-16T09:01:06Z</time>
      </trkpt>
      <trkpt lat="43.218260" lon="-1.546645">
        <ele>537.8</ele>
        <time>2018-06-16T09:01:20Z</time>
      </trkpt>
      <trkpt lat="43.217973" lon="-1.547052">
        <ele>540.3</ele>
        <time>2018-06-16T09:01:31Z</time>
      </trkpt>
      <trkpt lat="43.217483" lon="-1.547494">
        <ele>540.7</ele>
        <time>2018-06-16T09:01:47Z</time>
      </trkpt>
      <trkpt lat="43.217217" lon="-1.547839">
        <ele>532.4</ele>
        <time>2018-06-16T09:01:56Z</time>
      </trkpt>
      <trkpt lat="43.216975" lon="-1.548276">
        <ele>522.2</ele>
        <time>2018-06-16T09:02:07Z</time>
      </trkpt>
      <trkpt lat="43.216936" lon="-1.548738">
        <ele>515.2</ele>
        <time>2018-06-16T09:02:16Z</time>
      </trkpt>
      <trkpt lat="43.216944" lon="-1.549415">
        <ele>522.7</ele>
        <time>2018-06-16T09:02:30Z</time>
      </trkpt>
      <trkpt lat="43.216861" lon="-1.549971">
        <ele>519.6</ele>
        <time>2018-06-16T09:02:40Z</time>
      </trkpt>
      <trkpt lat="43.216894" lon="-1.550740">
        <ele>517.6</ele>
        <time>2018-06-16T09:02:55Z</time>
      </trkpt>
      <trkpt lat="43.216897" lon="-1.550888">
        <ele>517.0</ele>
        <time>2018-06-16T09:02:58Z</time>
      </trkpt>
      <trkpt lat="43.216868" lon="-1.551210">
        <ele>511.8</ele>
        <time>2018-06-16T09:03:04Z</time>
      </trkpt>
      <trkpt lat="43.216864" lon="-1.551290">
        <ele>510.6</ele>
        <time>2018-06-16T09:03:06Z</time>
      </trkpt>
      <trkpt lat="43.216929" lon="-1.551416">
        <ele>511.3</ele>
        <time>2018-06-16T09:03:09Z</time>
      </trkpt>
      <trkpt lat="43.216991" lon="-1.551535">
        <ele>513.1</ele>
        <time>2018-06-16T09:03:12Z</time>
      </trkpt>
      <trkpt lat="43.217146" lon="-1.551902">
        <ele>519.0</ele>
        <time>2018-06-16T09:03:20Z</time>
      </trkpt>
      <trkpt lat="43.217316" lon="-1.552162">
        <ele>518.1</ele>
        <time>2018-06-16T09:03:27Z</time>
      </trkpt>
      <trkpt lat="43.217394" lon="-1.552331">
        <ele>516.9</ele>
        <time>2018-06-16T09:03:31Z</time>
      </trkpt>
      <trkpt lat="43.217417" lon="-1.552430">
        <ele>516.4</ele>
        <time>2018-06-16T09:03:33Z</time>
      </trkpt>
      <trkpt lat="43.217433" lon="-1.552583">
        <ele>516.1</ele>
        <time>2018-06-16T09:03:36Z</time>
      </trkpt>
      <trkpt lat="43.217418" lon="-1.552720">
        <ele>517.9</ele>
        <time>2018-06-16T09:03:38Z</time>
      </trkpt>
      <trkpt lat="43.217447" lon="-1.552851">
        <ele>521.1</ele>
        <time>2018-06-16T09:03:41Z</time>
      </trkpt>
      <trkpt lat="43.217507" lon="-1.553010">
        <ele>527.5</ele>
        <time>2018-06-16T09:03:45Z</time>
      </trkpt>
      <trkpt lat="43.217584" lon="-1.553128">
        <ele>534.4</ele>
        <time>2018-06-16T09:03:48Z</time>
      </trkpt>
      <trkpt lat="43.217713" lon="-1.553245">
        <ele>541.9</ele>
        <time>2018-06-16T09:03:53Z</time>
      </trkpt>
      <trkpt lat="43.217883" lon="-1.553417">
        <ele>545.9</ele>
        <time>2018-06-16T09:03:58Z</time>
      </trkpt>
      <trkpt lat="43.218011" lon="-1.553607">
        <ele>546.9</ele>
        <time>2018-06-16T09:04:03Z</time>
      </trkpt>
      <trkpt lat="43.218106" lon="-1.554005">
        <ele>546.2</ele>
        <time>2018-06-16T09:04:11Z</time>
      </trkpt>
      <trkpt lat="43.218201" lon="-1.554464">
        <ele>542.1</ele>
        <time>2018-06-16T09:04:21Z</time>
      </trkpt>
      <trkpt lat="43.218207" lon="-1.554895">
        <ele>539.5</ele>
        <time>2018-06-16T09:04:29Z</time>
      </trkpt>
      <trkpt lat="43.218255" lon="-1.555110">
        <ele>538.0</ele>
        <time>2018-06-16T09:04:33Z</time>
      </trkpt>
      <trkpt lat="43.218393" lon="-1.555352">
        <ele>531.8</ele>
        <time>2018-06-16T09:04:39Z</time>
      </trkpt>
      <trkpt lat="43.218532" lon="-1.555688">
        <ele>529.9</ele>
        <time>2018-06-16T09:04:47Z</time>
      </trkpt>
      <trkpt lat="43.218676" lon="-1.556392">
        <ele>538.8</ele>
        <time>2018-06-16T09:05:01Z</time>
      </trkpt>
      <trkpt lat="43.218728" lon="-1.556976">
        <ele>548.0</ele>
        <time>2018-06-16T09:05:13Z</time>
      </trkpt>
      <trkpt lat="43.219025" lon="-1.557277">
        <ele>540.9</ele>
        <time>2018-06-16T09:05:22Z</time>
      </trkpt>
      <trkpt lat="43.219163" lon="-1.557520">
        <ele>538.1</ele>
        <time>2018-06-16T09:05:28Z</time>
      </trkpt>
      <trkpt lat="43.219199" lon="-1.558565">
        <ele>543.4</ele>
        <time>2018-06-16T09:05:49Z</time>
      </trkpt>
      <trkpt lat="43.219292" lon="-1.558810">
        <ele>536.5</ele>
        <time>2018-06-16T09:05:54Z</time>
      </trkpt>
      <trkpt lat="43.219565" lon="-1.559019">
        <ele>522.8</ele>
        <time>2018-06-16T09:06:03Z</time>
      </trkpt>
      <trkpt lat="43.219700" lon="-1.559046">
        <ele>520.4</ele>
        <time>2018-06-16T09:06:07Z</time>
      </trkpt>
      <trkpt lat="43.220153" lon="-1.559251">
        <ele>516.7</ele>
        <time>2018-06-16T09:06:19Z</time>
      </trkpt>
      <trkpt lat="43.220449" lon="-1.559521">
        <ele>512.5</ele>
        <time>2018-06-16T09:06:29Z</time>
      </trkpt>
      <trkpt lat="43.220791" lon="-1.559882">
        <ele>512.7</ele>
        <time>2018-06-16T09:06:40Z</time>
      </trkpt>
      <trkpt lat="43.221065" lon="-1.560153">
        <ele>512.8</ele>
        <time>2018-06-16T09:06:49Z</time>
      </trkpt>
      <trkpt lat="43.221359" lon="-1.560269">
        <ele>511.3</ele>
        <time>2018-06-16T09:06:57Z</time>
      </trkpt>
      <trkpt lat="43.221701" lon="-1.560600">
        <ele>519.3</ele>
        <time>2018-06-16T09:07:08Z</time>
      </trkpt>
      <trkpt lat="43.222064" lon="-1.560837">
        <ele>515.6</ele>
        <time>2018-06-16T09:07:19Z</time>
      </trkpt>
      <trkpt lat="43.222225" lon="-1.561141">
        <ele>516.3</ele>
        <time>2018-06-16T09:07:26Z</time>
      </trkpt>
      <trkpt lat="43.222385" lon="-1.561322">
        <ele>516.9</ele>
        <time>2018-06-16T09:07:32Z</time>
      </trkpt>
      <trkpt lat="43.222792" lon="-1.561436">
        <ele>522.7</ele>
        <time>2018-06-16T09:07:43Z</time>
      </trkpt>
      <trkpt lat="43.222930" lon="-1.561679">
        <ele>532.0</ele>
        <time>2018-06-16T09:07:49Z</time>
      </trkpt>
      <trkpt lat="43.222891" lon="-1.562203">
        <ele>524.8</ele>
        <time>2018-06-16T09:07:59Z</time>
      </trkpt>
      <trkpt lat="43.222917" lon="-1.562418">
        <ele>521.0</ele>
        <time>2018-06-16T09:08:03Z</time>
      </trkpt>
      <trkpt lat="43.223075" lon="-1.562507">
        <ele>525.1</ele>
        <time>2018-06-16T09:08:08Z</time>
      </trkpt>
      <trkpt lat="43.223349" lon="-1.562777">
        <ele>532.4</ele>
        <time>2018-06-16T09:08:17Z</time>
      </trkpt>
      <trkpt lat="43.223486" lon="-1.562959">
        <ele>534.6</ele>
        <time>2018-06-16T09:08:22Z</time>
      </trkpt>
      <trkpt lat="43.223534" lon="-1.563204">
        <ele>542.8</ele>
        <time>2018-06-16T09:08:27Z</time>
      </trkpt>
      <trkpt lat="43.223494" lon="-1.563574">
        <ele>551.3</ele>
        <time>2018-06-16T09:08:35Z</time>
      </trkpt>
      <trkpt lat="43.223594" lon="-1.564372">
        <ele>560.1</ele>
        <time>2018-06-16T09:08:51Z</time>
      </trkpt>
      <trkpt lat="43.223577" lon="-1.564834">
        <ele>553.8</ele>
        <time>2018-06-16T09:09:00Z</time>
      </trkpt>
      <trkpt lat="43.223785" lon="-1.565230">
        <ele>571.2</ele>
        <time>2018-06-16T09:09:10Z</time>
      </trkpt>
      <trkpt lat="43.223993" lon="-1.565656">
        <ele>578.4</ele>
        <time>2018-06-16T09:09:20Z</time>
      </trkpt>
      <trkpt lat="43.224018" lon="-1.565901">
        <ele>583.9</ele>
        <time>2018-06-16T09:09:25Z</time>
      </trkpt>
      <trkpt lat="43.223932" lon="-1.566181">
        <ele>582.2</ele>
        <time>2018-06-16T09:09:31Z</time>
      </trkpt>
      <trkpt lat="43.223936" lon="-1.566550">
        <ele>580.6</ele>
        <time>2018-06-16T09:09:38Z</time>
      </trkpt>
      <trkpt lat="43.223986" lon="-1.566887">
        <ele>576.8</ele>
        <time>2018-06-16T09:09:44Z</time>
      </trkpt>
      <trkpt lat="43.224147" lon="-1.567191">
        <ele>580.9</ele>
        <time>2018-06-16T09:09:52Z</time>
      </trkpt>
      <trkpt lat="43.224582" lon="-1.567797">
        <ele>597.1</ele>
        <time>2018-06-16T09:10:08Z</time>
      </trkpt>
      <trkpt lat="43.225111" lon="-1.568677">
        <ele>608.9</ele>
        <time>2018-06-16T09:10:31Z</time>
      </trkpt>
      <trkpt lat="43.225370" lon="-1.569533">
        <ele>599.9</ele>
        <time>2018-06-16T09:10:48Z</time>
      </trkpt>
      <trkpt lat="43.225531" lon="-1.569868">
        <ele>597.6</ele>
        <time>2018-06-16T09:10:56Z</time>
      </trkpt>
      <trkpt lat="43.225691" lon="-1.570049">
        <ele>598.6</ele>
        <time>2018-06-16T09:11:02Z</time>
      </trkpt>
      <trkpt lat="43.226011" lon="-1.570411">
        <ele>600.6</ele>
        <time>2018-06-16T09:11:13Z</time>
      </trkpt>
      <trkpt lat="43.226739" lon="-1.571071">
        <ele>598.5</ele>
        <time>2018-06-16T09:11:36Z</time>
      </trkpt>
      <trkpt lat="43.226921" lon="-1.571190">
        <ele>595.4</ele>
        <time>2018-06-16T09:11:41Z</time>
      </trkpt>
      <trkpt lat="43.227059" lon="-1.571402">
        <ele>594.4</ele>
        <time>2018-06-16T09:11:46Z</time>
      </trkpt>
      <trkpt lat="43.227246" lon="-1.571952">
        <ele>595.7</ele>
        <time>2018-06-16T09:11:58Z</time>
      </trkpt>
      <trkpt lat="43.227385" lon="-1.572257">
        <ele>592.4</ele>
        <time>2018-06-16T09:12:05Z</time>
      </trkpt>
      <trkpt lat="43.227657" lon="-1.572466">
        <ele>589.0</ele>
        <time>2018-06-16T09:12:13Z</time>
      </trkpt>
      <trkpt lat="43.227839" lon="-1.572585">
        <ele>585.5</ele>
        <time>2018-06-16T09:12:19Z</time>
      </trkpt>
      <trkpt lat="43.228045" lon="-1.572826">
        <ele>587.2</ele>
        <time>2018-06-16T09:12:26Z</time>
      </trkpt>
      <trkpt lat="43.228297" lon="-1.573190">
        <ele>585.6</ele>
        <time>2018-06-16T09:12:36Z</time>
      </trkpt>
      <trkpt lat="43.228526" lon="-1.573523">
        <ele>574.6</ele>
        <time>2018-06-16T09:12:45Z</time>
      </trkpt>
      <trkpt lat="43.228935" lon="-1.573790">
        <ele>575.6</ele>
        <time>2018-06-16T09:12:57Z</time>
      </trkpt>
      <trkpt lat="43.229342" lon="-1.573997">
        <ele>575.8</ele>
        <time>2018-06-16T09:13:08Z</time>
      </trkpt>
      <trkpt lat="43.229974" lon="-1.574074">
        <ele>569.2</ele>
        <time>2018-06-16T09:13:25Z</time>
      </trkpt>
      <trkpt lat="43.230266" lon="-1.574067">
        <ele>561.7</ele>
        <time>2018-06-16T09:13:33Z</time>
      </trkpt>
      <trkpt lat="43.230445" lon="-1.574002">
        <ele>561.0</ele>
        <time>2018-06-16T09:13:38Z</time>
      </trkpt>
      <trkpt lat="43.230648" lon="-1.573997">
        <ele>564.6</ele>
        <time>2018-06-16T09:13:43Z</time>
      </trkpt>
      <trkpt lat="43.230966" lon="-1.574266">
        <ele>560.6</ele>
        <time>2018-06-16T09:13:53Z</time>
      </trkpt>
      <trkpt lat="43.231102" lon="-1.574294">
        <ele>559.7</ele>
        <time>2018-06-16T09:13:57Z</time>
      </trkpt>
      <trkpt lat="43.231259" lon="-1.574290">
        <ele>559.3</ele>
        <time>2018-06-16T09:14:01Z</time>
      </trkpt>
      <trkpt lat="43.231504" lon="-1.574069">
        <ele>568.3</ele>
        <time>2018-06-16T09:14:09Z</time>
      </trkpt>
      <trkpt lat="43.231793" lon="-1.573785">
        <ele>564.4</ele>
        <time>2018-06-16T09:14:18Z</time>
      </trkpt>
      <trkpt lat="43.231992" lon="-1.573504">
        <ele>566.3</ele>
        <time>2018-06-16T09:14:26Z</time>
      </trkpt>
      <trkpt lat="43.232079" lon="-1.573225">
        <ele>566.3</ele>
        <time>2018-06-16T09:14:32Z</time>
      </trkpt>
      <trkpt lat="43.232145" lon="-1.573100">
        <ele>564.3</ele>
        <time>2018-06-16T09:14:35Z</time>
      </trkpt>
      <trkpt lat="43.232525" lon="-1.572845">
        <ele>561.0</ele>
        <time>2018-06-16T09:14:46Z</time>
      </trkpt>
      <trkpt lat="43.232973" lon="-1.572711">
        <ele>549.7</ele>
        <time>2018-06-16T09:14:58Z</time>
      </trkpt>
      <trkpt lat="43.233423" lon="-1.572639">
        <ele>544.5</ele>
        <time>2018-06-16T09:15:10Z</time>
      </trkpt>
      <trkpt lat="43.233646" lon="-1.572541">
        <ele>540.0</ele>
        <time>2018-06-16T09:15:17Z</time>
      </trkpt>
      <trkpt lat="43.233959" lon="-1.572319">
        <ele>534.1</ele>
        <time>2018-06-16T09:15:26Z</time>
      </trkpt>
      <trkpt lat="43.234139" lon="-1.572314">
        <ele>530.9</ele>
        <time>2018-06-16T09:15:31Z</time>
      </trkpt>
      <trkpt lat="43.234275" lon="-1.572434">
        <ele>529.3</ele>
        <time>2018-06-16T09:15:35Z</time>
      </trkpt>
      <trkpt lat="43.234367" lon="-1.572555">
        <ele>530.7</ele>
        <time>2018-06-16T09:15:38Z</time>
      </trkpt>
      <trkpt lat="43.234574" lon="-1.572951">
        <ele>530.9</ele>
        <time>2018-06-16T09:15:48Z</time>
      </trkpt>
      <trkpt lat="43.234968" lon="-1.573804">
        <ele>540.8</ele>
        <time>2018-06-16T09:16:07Z</time>
      </trkpt>
      <trkpt lat="43.235151" lon="-1.574046">
        <ele>545.2</ele>
        <time>2018-06-16T09:16:14Z</time>
      </trkpt>
      <trkpt lat="43.235198" lon="-1.574199">
        <ele>546.7</ele>
        <time>2018-06-16T09:16:17Z</time>
      </trkpt>
      <trkpt lat="43.235222" lon="-1.574352">
        <ele>548.0</ele>
        <time>2018-06-16T09:16:20Z</time>
      </trkpt>
      <trkpt lat="43.235137" lon="-1.574754">
        <ele>539.8</ele>
        <time>2018-06-16T09:16:29Z</time>
      </trkpt>
      <trkpt lat="43.235232" lon="-1.575122">
        <ele>536.0</ele>
        <time>2018-06-16T09:16:36Z</time>
      </trkpt>
      <trkpt lat="43.235506" lon="-1.575423">
        <ele>539.8</ele>
        <time>2018-06-16T09:16:45Z</time>
      </trkpt>
      <trkpt lat="43.235757" lon="-1.575725">
        <ele>540.3</ele>
        <time>2018-06-16T09:16:54Z</time>
      </trkpt>
      <trkpt lat="43.236080" lon="-1.576364">
        <ele>546.6</ele>
        <time>2018-06-16T09:17:09Z</time>
      </trkpt>
      <trkpt lat="43.236130" lon="-1.576732">
        <ele>545.9</ele>
        <time>2018-06-16T09:17:16Z</time>
      </trkpt>
      <trkpt lat="43.236225" lon="-1.577131">
        <ele>543.9</ele>
        <time>2018-06-16T09:17:24Z</time>
      </trkpt>
      <trkpt lat="43.236340" lon="-1.577374">
        <ele>545.9</ele>
        <time>2018-06-16T09:17:30Z</time>
      </trkpt>
      <trkpt lat="43.236593" lon="-1.577738">
        <ele>560.4</ele>
        <time>2018-06-16T09:17:40Z</time>
      </trkpt>
      <trkpt lat="43.236982" lon="-1.578283">
        <ele>584.4</ele>
        <time>2018-06-16T09:17:56Z</time>
      </trkpt>
      <trkpt lat="43.237188" lon="-1.578586">
        <ele>583.6</ele>
        <time>2018-06-16T09:18:04Z</time>
      </trkpt>
      <trkpt lat="43.237191" lon="-1.578771">
        <ele>584.9</ele>
        <time>2018-06-16T09:18:08Z</time>
      </trkpt>
      <trkpt lat="43.237020" lon="-1.579514">
        <ele>587.6</ele>
        <time>2018-06-16T09:18:23Z</time>
      </trkpt>
      <trkpt lat="43.236626" lon="-1.580446">
        <ele>588.1</ele>
        <time>2018-06-16T09:18:43Z</time>
      </trkpt>
      <trkpt lat="43.236517" lon="-1.580757">
        <ele>587.0</ele>
        <time>2018-06-16T09:18:50Z</time>
      </trkpt>
      <trkpt lat="43.236454" lon="-1.581066">
        <ele>590.1</ele>
        <time>2018-06-16T09:18:56Z</time>
      </trkpt>
      <trkpt lat="43.236415" lon="-1.581560">
        <ele>587.0</ele>
        <time>2018-06-16T09:19:06Z</time>
      </trkpt>
      <trkpt lat="43.236377" lon="-1.582115">
        <ele>578.1</ele>
        <time>2018-06-16T09:19:17Z</time>
      </trkpt>
      <trkpt lat="43.236255" lon="-1.583164">
        <ele>565.6</ele>
        <time>2018-06-16T09:19:37Z</time>
      </trkpt>
      <trkpt lat="43.236112" lon="-1.584399">
        <ele>558.6</ele>
        <time>2018-06-16T09:20:01Z</time>
      </trkpt>
      <trkpt lat="43.236095" lon="-1.584800">
        <ele>551.0</ele>
        <time>2018-06-16T09:20:09Z</time>
      </trkpt>
      <trkpt lat="43.236010" lon="-1.585233">
        <ele>549.0</ele>
        <time>2018-06-16T09:20:18Z</time>
      </trkpt>
      <trkpt lat="43.235858" lon="-1.585698">
        <ele>548.7</ele>
        <time>2018-06-16T09:20:28Z</time>
      </trkpt>
      <trkpt lat="43.235840" lon="-1.586007">
        <ele>548.8</ele>
        <time>2018-06-16T09:20:34Z</time>
      </trkpt>
      <trkpt lat="43.235933" lon="-1.586313">
        <ele>544.7</ele>
        <time>2018-06-16T09:20:40Z</time>
      </trkpt>
      <trkpt lat="43.235984" lon="-1.586773">
        <ele>544.8</ele>
        <time>2018-06-16T09:20:49Z</time>
      </trkpt>
      <trkpt lat="43.235911" lon="-1.587328">
        <ele>552.2</ele>
        <time>2018-06-16T09:21:00Z</time>
      </trkpt>
      <trkpt lat="43.235897" lon="-1.587527">
        <ele>554.2</ele>
        <time>2018-06-16T09:21:04Z</time>
      </trkpt>
      <trkpt lat="43.235907" lon="-1.587712">
        <ele>556.5</ele>
        <time>2018-06-16T09:21:07Z</time>
      </trkpt>
      <trkpt lat="43.235956" lon="-1.588114">
        <ele>556.9</ele>
        <time>2018-06-16T09:21:15Z</time>
      </trkpt>
      <trkpt lat="43.235964" lon="-1.588444">
        <ele>555.1</ele>
        <time>2018-06-16T09:21:22Z</time>
      </trkpt>
      <trkpt lat="43.235944" lon="-1.588651">
        <ele>555.4</ele>
        <time>2018-06-16T09:21:26Z</time>
      </trkpt>
      <trkpt lat="43.235888" lon="-1.588806">
        <ele>555.6</ele>
        <time>2018-06-16T09:21:29Z</time>
      </trkpt>
      <trkpt lat="43.235872" lon="-1.588865">
        <ele>555.5</ele>
        <time>2018-06-16T09:21:30Z</time>
      </trkpt>
      <trkpt lat="43.235866" lon="-1.588938">
        <ele>555.2</ele>
        <time>2018-06-16T09:21:32Z</time>
      </trkpt>
      <trkpt lat="43.235909" lon="-1.589163">
        <ele>553.2</ele>
        <time>2018-06-16T09:21:36Z</time>
      </trkpt>
      <trkpt lat="43.235915" lon="-1.589292">
        <ele>552.1</ele>
        <time>2018-06-16T09:21:39Z</time>
      </trkpt>
      <trkpt lat="43.235905" lon="-1.589454">
        <ele>550.9</ele>
        <time>2018-06-16T09:21:42Z</time>
      </trkpt>
      <trkpt lat="43.235864" lon="-1.589793">
        <ele>551.5</ele>
        <time>2018-06-16T09:21:48Z</time>
      </trkpt>
      <trkpt lat="43.235714" lon="-1.590412">
        <ele>552.9</ele>
        <time>2018-06-16T09:22:01Z</time>
      </trkpt>
      <trkpt lat="43.235409" lon="-1.591251">
        <ele>545.9</ele>
        <time>2018-06-16T09:22:19Z</time>
      </trkpt>
      <trkpt lat="43.235323" lon="-1.591561">
        <ele>546.9</ele>
        <time>2018-06-16T09:22:25Z</time>
      </trkpt>
      <trkpt lat="43.235284" lon="-1.592085">
        <ele>553.9</ele>
        <time>2018-06-16T09:22:36Z</time>
      </trkpt>
      <trkpt lat="43.235249" lon="-1.592856">
        <ele>539.6</ele>
        <time>2018-06-16T09:22:51Z</time>
      </trkpt>
      <trkpt lat="43.235318" lon="-1.593301">
        <ele>535.5</ele>
        <time>2018-06-16T09:23:00Z</time>
      </trkpt>
      <trkpt lat="43.235325" lon="-1.593373">
        <ele>534.7</ele>
        <time>2018-06-16T09:23:01Z</time>
      </trkpt>
      <trkpt lat="43.235310" lon="-1.593895">
        <ele>534.1</ele>
        <time>2018-06-16T09:23:11Z</time>
      </trkpt>
      <trkpt lat="43.235335" lon="-1.594107">
        <ele>535.1</ele>
        <time>2018-06-16T09:23:15Z</time>
      </trkpt>
      <trkpt lat="43.235402" lon="-1.594325">
        <ele>536.3</ele>
        <time>2018-06-16T09:23:20Z</time>
      </trkpt>
      <trkpt lat="43.235408" lon="-1.594427">
        <ele>537.7</ele>
        <time>2018-06-16T09:23:22Z</time>
      </trkpt>
      <trkpt lat="43.235443" lon="-1.594754">
        <ele>543.7</ele>
        <time>2018-06-16T09:23:28Z</time>
      </trkpt>
      <trkpt lat="43.235462" lon="-1.594945">
        <ele>546.1</ele>
        <time>2018-06-16T09:23:32Z</time>
      </trkpt>
      <trkpt lat="43.235400" lon="-1.595213">
        <ele>545.5</ele>
        <time>2018-06-16T09:23:37Z</time>
      </trkpt>
      <trkpt lat="43.235388" lon="-1.595495">
        <ele>545.0</ele>
        <time>2018-06-16T09:23:43Z</time>
      </trkpt>
      <trkpt lat="43.235373" lon="-1.595690">
        <ele>544.6</ele>
        <time>2018-06-16T09:23:47Z</time>
      </trkpt>
      <trkpt lat="43.235387" lon="-1.595822">
        <ele>544.6</ele>
        <time>2018-06-16T09:23:49Z</time>
      </trkpt>
      <trkpt lat="43.235462" lon="-1.596144">
        <ele>543.4</ele>
        <time>2018-06-16T09:23:56Z</time>
      </trkpt>
      <trkpt lat="43.235615" lon="-1.596516">
        <ele>541.4</ele>
        <time>2018-06-16T09:24:04Z</time>
      </trkpt>
      <trkpt lat="43.235717" lon="-1.596739">
        <ele>540.7</ele>
        <time>2018-06-16T09:24:09Z</time>
      </trkpt>
      <trkpt lat="43.235951" lon="-1.597072">
        <ele>548.3</ele>
        <time>2018-06-16T09:24:18Z</time>
      </trkpt>
      <trkpt lat="43.236101" lon="-1.597310">
        <ele>548.3</ele>
        <time>2018-06-16T09:24:24Z</time>
      </trkpt>
      <trkpt lat="43.236218" lon="-1.597391">
        <ele>547.8</ele>
        <time>2018-06-16T09:24:28Z</time>
      </trkpt>
      <trkpt lat="43.236394" lon="-1.597477">
        <ele>552.5</ele>
        <time>2018-06-16T09:24:33Z</time>
      </trkpt>
      <trkpt lat="43.236664" lon="-1.597654">
        <ele>554.9</ele>
        <time>2018-06-16T09:24:41Z</time>
      </trkpt>
      <trkpt lat="43.236969" lon="-1.597740">
        <ele>567.3</ele>
        <time>2018-06-16T09:24:49Z</time>
      </trkpt>
      <trkpt lat="43.237047" lon="-1.597809">
        <ele>572.1</ele>
        <time>2018-06-16T09:24:52Z</time>
      </trkpt>
      <trkpt lat="43.237227" lon="-1.597900">
        <ele>573.8</ele>
        <time>2018-06-16T09:24:57Z</time>
      </trkpt>
      <trkpt lat="43.237551" lon="-1.597938">
        <ele>567.2</ele>
        <time>2018-06-16T09:25:06Z</time>
      </trkpt>
      <trkpt lat="43.237660" lon="-1.597914">
        <ele>564.4</ele>
        <time>2018-06-16T09:25:09Z</time>
      </trkpt>
      <trkpt lat="43.237898" lon="-1.597839">
        <ele>557.6</ele>
        <time>2018-06-16T09:25:15Z</time>
      </trkpt>
      <trkpt lat="43.237918" lon="-1.597846">
        <ele>557.2</ele>
        <time>2018-06-16T09:25:16Z</time>
      </trkpt>
      <trkpt lat="43.237949" lon="-1.597849">
        <ele>557.5</ele>
        <time>2018-06-16T09:25:17Z</time>
      </trkpt>
      <trkpt lat="43.237976" lon="-1.597861">
        <ele>557.7</ele>
        <time>2018-06-16T09:25:17Z</time>
      </trkpt>
      <trkpt lat="43.238034" lon="-1.597902">
        <ele>558.3</ele>
        <time>2018-06-16T09:25:19Z</time>
      </trkpt>
      <trkpt lat="43.238204" lon="-1.598045">
        <ele>560.4</ele>
        <time>2018-06-16T09:25:24Z</time>
      </trkpt>
      <trkpt lat="43.238242" lon="-1.598066">
        <ele>560.8</ele>
        <time>2018-06-16T09:25:26Z</time>
      </trkpt>
      <trkpt lat="43.238290" lon="-1.598087">
        <ele>561.2</ele>
        <time>2018-06-16T09:25:27Z</time>
      </trkpt>
      <trkpt lat="43.238560" lon="-1.598164">
        <ele>562.8</ele>
        <time>2018-06-16T09:25:34Z</time>
      </trkpt>
      <trkpt lat="43.238819" lon="-1.598236">
        <ele>561.8</ele>
        <time>2018-06-16T09:25:41Z</time>
      </trkpt>
      <trkpt lat="43.238875" lon="-1.598241">
        <ele>561.3</ele>
        <time>2018-06-16T09:25:43Z</time>
      </trkpt>
      <trkpt lat="43.239048" lon="-1.598238">
        <ele>560.5</ele>
        <time>2018-06-16T09:25:47Z</time>
      </trkpt>
      <trkpt lat="43.239183" lon="-1.598219">
        <ele>561.6</ele>
        <time>2018-06-16T09:25:51Z</time>
      </trkpt>
      <trkpt lat="43.239299" lon="-1.598193">
        <ele>563.0</ele>
        <time>2018-06-16T09:25:54Z</time>
      </trkpt>
      <trkpt lat="43.239386" lon="-1.598150">
        <ele>562.5</ele>
        <time>2018-06-16T09:25:56Z</time>
      </trkpt>
      <trkpt lat="43.239431" lon="-1.598115">
        <ele>562.7</ele>
        <time>2018-06-16T09:25:58Z</time>
      </trkpt>
      <trkpt lat="43.239611" lon="-1.597959">
        <ele>564.1</ele>
        <time>2018-06-16T09:26:03Z</time>
      </trkpt>
      <trkpt lat="43.239789" lon="-1.597739">
        <ele>560.1</ele>
        <time>2018-06-16T09:26:10Z</time>
      </trkpt>
      <trkpt lat="43.240050" lon="-1.597430">
        <ele>554.2</ele>
        <time>2018-06-16T09:26:19Z</time>
      </trkpt>
      <trkpt lat="43.240230" lon="-1.597021">
        <ele>554.9</ele>
        <time>2018-06-16T09:26:28Z</time>
      </trkpt>
      <trkpt lat="43.240518" lon="-1.596645">
        <ele>549.2</ele>
        <time>2018-06-16T09:26:39Z</time>
      </trkpt>
      <trkpt lat="43.240628" lon="-1.596427">
        <ele>542.3</ele>
        <time>2018-06-16T09:26:44Z</time>
      </trkpt>
      <trkpt lat="43.240896" lon="-1.595873">
        <ele>523.0</ele>
        <time>2018-06-16T09:26:58Z</time>
      </trkpt>
      <trkpt lat="43.240934" lon="-1.595681">
        <ele>521.7</ele>
        <time>2018-06-16T09:27:01Z</time>
      </trkpt>
      <trkpt lat="43.240893" lon="-1.595559">
        <ele>526.6</ele>
        <time>2018-06-16T09:27:04Z</time>
      </trkpt>
      <trkpt lat="43.240901" lon="-1.595452">
        <ele>528.2</ele>
        <time>2018-06-16T09:27:06Z</time>
      </trkpt>
      <trkpt lat="43.240914" lon="-1.595339">
        <ele>529.6</ele>
        <time>2018-06-16T09:27:09Z</time>
      </trkpt>
      <trkpt lat="43.240950" lon="-1.595221">
        <ele>529.8</ele>
        <time>2018-06-16T09:27:11Z</time>
      </trkpt>
      <trkpt lat="43.240979" lon="-1.595159">
        <ele>529.2</ele>
        <time>2018-06-16T09:27:12Z</time>
      </trkpt>
      <trkpt lat="43.241055" lon="-1.595008">
        <ele>528.5</ele>
        <time>2018-06-16T09:27:16Z</time>
      </trkpt>
      <trkpt lat="43.241463" lon="-1.594355">
        <ele>519.4</ele>
        <time>2018-06-16T09:27:33Z</time>
      </trkpt>
      <trkpt lat="43.241688" lon="-1.594035">
        <ele>514.7</ele>
        <time>2018-06-16T09:27:41Z</time>
      </trkpt>
      <trkpt lat="43.241722" lon="-1.594017">
        <ele>513.5</ele>
        <time>2018-06-16T09:27:42Z</time>
      </trkpt>
      <trkpt lat="43.241767" lon="-1.594005">
        <ele>511.6</ele>
        <time>2018-06-16T09:27:44Z</time>
      </trkpt>
      <trkpt lat="43.241817" lon="-1.593998">
        <ele>509.6</ele>
        <time>2018-06-16T09:27:45Z</time>
      </trkpt>
      <trkpt lat="43.241907" lon="-1.594014">
        <ele>507.1</ele>
        <time>2018-06-16T09:27:47Z</time>
      </trkpt>
      <trkpt lat="43.241988" lon="-1.594032">
        <ele>504.9</ele>
        <time>2018-06-16T09:27:50Z</time>
      </trkpt>
      <trkpt lat="43.242073" lon="-1.594040">
        <ele>502.9</ele>
        <time>2018-06-16T09:27:52Z</time>
      </trkpt>
      <trkpt lat="43.242141" lon="-1.594032">
        <ele>500.6</ele>
        <time>2018-06-16T09:27:54Z</time>
      </trkpt>
      <trkpt lat="43.242332" lon="-1.594038">
        <ele>493.0</ele>
        <time>2018-06-16T09:27:59Z</time>
      </trkpt>
      <trkpt lat="43.242486" lon="-1.594058">
        <ele>487.5</ele>
        <time>2018-06-16T09:28:03Z</time>
      </trkpt>
      <trkpt lat="43.242613" lon="-1.594056">
        <ele>483.2</ele>
        <time>2018-06-16T09:28:07Z</time>
      </trkpt>
      <trkpt lat="43.242678" lon="-1.594066">
        <ele>481.2</ele>
        <time>2018-06-16T09:28:09Z</time>
      </trkpt>
      <trkpt lat="43.242738" lon="-1.594096">
        <ele>479.2</ele>
        <time>2018-06-16T09:28:11Z</time>
      </trkpt>
      <trkpt lat="43.242799" lon="-1.594110">
        <ele>477.6</ele>
        <time>2018-06-16T09:28:12Z</time>
      </trkpt>
      <trkpt lat="43.242886" lon="-1.594107">
        <ele>475.9</ele>
        <time>2018-06-16T09:28:15Z</time>
      </trkpt>
      <trkpt lat="43.242970" lon="-1.594090">
        <ele>474.0</ele>
        <time>2018-06-16T09:28:17Z</time>
      </trkpt>
      <trkpt lat="43.243025" lon="-1.594089">
        <ele>472.2</ele>
        <time>2018-06-16T09:28:18Z</time>
      </trkpt>
      <trkpt lat="43.243108" lon="-1.594088">
        <ele>469.6</ele>
        <time>2018-06-16T09:28:21Z</time>
      </trkpt>
      <trkpt lat="43.243234" lon="-1.594120">
        <ele>466.5</ele>
        <time>2018-06-16T09:28:24Z</time>
      </trkpt>
      <trkpt lat="43.243362" lon="-1.594158">
        <ele>466.0</ele>
        <time>2018-06-16T09:28:27Z</time>
      </trkpt>
      <trkpt lat="43.243459" lon="-1.594214">
        <ele>464.6</ele>
        <time>2018-06-16T09:28:30Z</time>
      </trkpt>
      <trkpt lat="43.243852" lon="-1.594476">
        <ele>462.6</ele>
        <time>2018-06-16T09:28:42Z</time>
      </trkpt>
      <trkpt lat="43.244105" lon="-1.594600">
        <ele>462.1</ele>
        <time>2018-06-16T09:28:49Z</time>
      </trkpt>
      <trkpt lat="43.244217" lon="-1.594655">
        <ele>460.3</ele>
        <time>2018-06-16T09:28:52Z</time>
      </trkpt>
      <trkpt lat="43.244281" lon="-1.594672">
        <ele>459.6</ele>
        <time>2018-06-16T09:28:54Z</time>
      </trkpt>
      <trkpt lat="43.244336" lon="-1.594679">
        <ele>459.2</ele>
        <time>2018-06-16T09:28:55Z</time>
      </trkpt>
      <trkpt lat="43.244439" lon="-1.594674">
        <ele>459.1</ele>
        <time>2018-06-16T09:28:58Z</time>
      </trkpt>
      <trkpt lat="43.244585" lon="-1.594697">
        <ele>457.9</ele>
        <time>2018-06-16T09:29:02Z</time>
      </trkpt>
      <trkpt lat="43.244813" lon="-1.594774">
        <ele>458.4</ele>
        <time>2018-06-16T09:29:08Z</time>
      </trkpt>
      <trkpt lat="43.244909" lon="-1.594795">
        <ele>459.0</ele>
        <time>2018-06-16T09:29:11Z</time>
      </trkpt>
      <trkpt lat="43.245012" lon="-1.594812">
        <ele>459.8</ele>
        <time>2018-06-16T09:29:13Z</time>
      </trkpt>
      <trkpt lat="43.245367" lon="-1.594859">
        <ele>458.4</ele>
        <time>2018-06-16T09:29:23Z</time>
      </trkpt>
      <trkpt lat="43.245515" lon="-1.594879">
        <ele>455.7</ele>
        <time>2018-06-16T09:29:27Z</time>
      </trkpt>
      <trkpt lat="43.245749" lon="-1.594940">
        <ele>451.3</ele>
        <time>2018-06-16T09:29:33Z</time>
      </trkpt>
      <trkpt lat="43.246165" lon="-1.595024">
        <ele>450.7</ele>
        <time>2018-06-16T09:29:44Z</time>
      </trkpt>
      <trkpt lat="43.246289" lon="-1.595043">
        <ele>449.7</ele>
        <time>2018-06-16T09:29:48Z</time>
      </trkpt>
      <trkpt lat="43.246466" lon="-1.595098">
        <ele>446.1</ele>
        <time>2018-06-16T09:29:52Z</time>
      </trkpt>
      <trkpt lat="43.246914" lon="-1.595285">
        <ele>445.1</ele>
        <time>2018-06-16T09:30:05Z</time>
      </trkpt>
      <trkpt lat="43.246983" lon="-1.595307">
        <ele>445.0</ele>
        <time>2018-06-16T09:30:07Z</time>
      </trkpt>
      <trkpt lat="43.247034" lon="-1.595310">
        <ele>444.8</ele>
        <time>2018-06-16T09:30:08Z</time>
      </trkpt>
      <trkpt lat="43.247071" lon="-1.595287">
        <ele>444.6</ele>
        <time>2018-06-16T09:30:09Z</time>
      </trkpt>
      <trkpt lat="43.247188" lon="-1.595172">
        <ele>443.6</ele>
        <time>2018-06-16T09:30:13Z</time>
      </trkpt>
      <trkpt lat="43.247230" lon="-1.595111">
        <ele>443.5</ele>
        <time>2018-06-16T09:30:14Z</time>
      </trkpt>
      <trkpt lat="43.247301" lon="-1.594971">
        <ele>444.0</ele>
        <time>2018-06-16T09:30:18Z</time>
      </trkpt>
      <trkpt lat="43.247496" lon="-1.594555">
        <ele>443.9</ele>
        <time>2018-06-16T09:30:27Z</time>
      </trkpt>
      <trkpt lat="43.247513" lon="-1.594493">
        <ele>443.9</ele>
        <time>2018-06-16T09:30:28Z</time>
      </trkpt>
      <trkpt lat="43.247522" lon="-1.594450">
        <ele>444.0</ele>
        <time>2018-06-16T09:30:29Z</time>
      </trkpt>
      <trkpt lat="43.247519" lon="-1.594381">
        <ele>443.8</ele>
        <time>2018-06-16T09:30:31Z</time>
      </trkpt>
      <trkpt lat="43.247508" lon="-1.594341">
        <ele>443.6</ele>
        <time>2018-06-16T09:30:31Z</time>
      </trkpt>
      <trkpt lat="43.247317" lon="-1.593876">
        <ele>442.0</ele>
        <time>2018-06-16T09:30:42Z</time>
      </trkpt>
      <trkpt lat="43.247277" lon="-1.593794">
        <ele>442.2</ele>
        <time>2018-06-16T09:30:44Z</time>
      </trkpt>
      <trkpt lat="43.247220" lon="-1.593721">
        <ele>442.6</ele>
        <time>2018-06-16T09:30:46Z</time>
      </trkpt>
      <trkpt lat="43.247170" lon="-1.593670">
        <ele>442.9</ele>
        <time>2018-06-16T09:30:47Z</time>
      </trkpt>
      <trkpt lat="43.247110" lon="-1.593628">
        <ele>443.3</ele>
        <time>2018-06-16T09:30:49Z</time>
      </trkpt>
      <trkpt lat="43.247023" lon="-1.593596">
        <ele>444.6</ele>
        <time>2018-06-16T09:30:52Z</time>
      </trkpt>
      <trkpt lat="43.246774" lon="-1.593534">
        <ele>449.1</ele>
        <time>2018-06-16T09:30:58Z</time>
      </trkpt>
      <trkpt lat="43.246688" lon="-1.593499">
        <ele>450.1</ele>
        <time>2018-06-16T09:31:01Z</time>
      </trkpt>
      <trkpt lat="43.246649" lon="-1.593469">
        <ele>450.7</ele>
        <time>2018-06-16T09:31:02Z</time>
      </trkpt>
      <trkpt lat="43.246633" lon="-1.593415">
        <ele>451.1</ele>
        <time>2018-06-16T09:31:03Z</time>
      </trkpt>
      <trkpt lat="43.246632" lon="-1.593353">
        <ele>451.4</ele>
        <time>2018-06-16T09:31:04Z</time>
      </trkpt>
      <trkpt lat="43.246655" lon="-1.593240">
        <ele>451.5</ele>
        <time>2018-06-16T09:31:06Z</time>
      </trkpt>
      <trkpt lat="43.246688" lon="-1.593102">
        <ele>451.4</ele>
        <time>2018-06-16T09:31:09Z</time>
      </trkpt>
      <trkpt lat="43.246705" lon="-1.593031">
        <ele>451.4</ele>
        <time>2018-06-16T09:31:11Z</time>
      </trkpt>
      <trkpt lat="43.246711" lon="-1.592921">
        <ele>451.7</ele>
        <time>2018-06-16T09:31:13Z</time>
      </trkpt>
      <trkpt lat="43.246708" lon="-1.592845">
        <ele>452.2</ele>
        <time>2018-06-16T09:31:14Z</time>
      </trkpt>
      <trkpt lat="43.246691" lon="-1.592776">
        <ele>452.7</ele>
        <time>2018-06-16T09:31:16Z</time>
      </trkpt>
      <trkpt lat="43.246655" lon="-1.592691">
        <ele>453.4</ele>
        <time>2018-06-16T09:31:18Z</time>
      </trkpt>
      <trkpt lat="43.246465" lon="-1.592307">
        <ele>456.2</ele>
        <time>2018-06-16T09:31:26Z</time>
      </trkpt>
      <trkpt lat="43.246427" lon="-1.592235">
        <ele>456.7</ele>
        <time>2018-06-16T09:31:28Z</time>
      </trkpt>
      <trkpt lat="43.246416" lon="-1.592175">
        <ele>457.2</ele>
        <time>2018-06-16T09:31:29Z</time>
      </trkpt>
      <trkpt lat="43.246427" lon="-1.592096">
        <ele>457.9</ele>
        <time>2018-06-16T09:31:31Z</time>
      </trkpt>
      <trkpt lat="43.246444" lon="-1.592043">
        <ele>458.3</ele>
        <time>2018-06-16T09:31:32Z</time>
      </trkpt>
      <trkpt lat="43.246539" lon="-1.591897">
        <ele>458.4</ele>
        <time>2018-06-16T09:31:36Z</time>
      </trkpt>
      <trkpt lat="43.246564" lon="-1.591828">
        <ele>458.0</ele>
        <time>2018-06-16T09:31:37Z</time>
      </trkpt>
      <trkpt lat="43.246580" lon="-1.591742">
        <ele>458.0</ele>
        <time>2018-06-16T09:31:39Z</time>
      </trkpt>
      <trkpt lat="43.246595" lon="-1.591530">
        <ele>458.8</ele>
        <time>2018-06-16T09:31:43Z</time>
      </trkpt>
      <trkpt lat="43.246613" lon="-1.591430">
        <ele>459.7</ele>
        <time>2018-06-16T09:31:45Z</time>
      </trkpt>
      <trkpt lat="43.246678" lon="-1.591146">
        <ele>463.3</ele>
        <time>2018-06-16T09:31:51Z</time>
      </trkpt>
      <trkpt lat="43.246699" lon="-1.591098">
        <ele>464.0</ele>
        <time>2018-06-16T09:31:52Z</time>
      </trkpt>
      <trkpt lat="43.246729" lon="-1.591053">
        <ele>464.7</ele>
        <time>2018-06-16T09:31:53Z</time>
      </trkpt>
      <trkpt lat="43.246804" lon="-1.590936">
        <ele>466.9</ele>
        <time>2018-06-16T09:31:56Z</time>
      </trkpt>
      <trkpt lat="43.246939" lon="-1.590752">
        <ele>469.0</ele>
        <time>2018-06-16T09:32:01Z</time>
      </trkpt>
      <trkpt lat="43.247111" lon="-1.590534">
        <ele>468.7</ele>
        <time>2018-06-16T09:32:07Z</time>
      </trkpt>
      <trkpt lat="43.247234" lon="-1.590428">
        <ele>468.6</ele>
        <time>2018-06-16T09:32:11Z</time>
      </trkpt>
      <trkpt lat="43.247320" lon="-1.590368">
        <ele>468.8</ele>
        <time>2018-06-16T09:32:14Z</time>
      </trkpt>
      <trkpt lat="43.247399" lon="-1.590312">
        <ele>468.2</ele>
        <time>2018-06-16T09:32:16Z</time>
      </trkpt>
      <trkpt lat="43.247573" lon="-1.590223">
        <ele>463.7</ele>
        <time>2018-06-16T09:32:21Z</time>
      </trkpt>
      <trkpt lat="43.247797" lon="-1.590147">
        <ele>458.2</ele>
        <time>2018-06-16T09:32:27Z</time>
      </trkpt>
      <trkpt lat="43.248023" lon="-1.590074">
        <ele>455.0</ele>
        <time>2018-06-16T09:32:34Z</time>
      </trkpt>
      <trkpt lat="43.248324" lon="-1.589930">
        <ele>454.5</ele>
        <time>2018-06-16T09:32:42Z</time>
      </trkpt>
      <trkpt lat="43.248487" lon="-1.589848">
        <ele>455.2</ele>
        <time>2018-06-16T09:32:46Z</time>
      </trkpt>
      <trkpt lat="43.248552" lon="-1.589797">
        <ele>455.9</ele>
        <time>2018-06-16T09:32:48Z</time>
      </trkpt>
      <trkpt lat="43.248605" lon="-1.589746">
        <ele>456.5</ele>
        <time>2018-06-16T09:32:50Z</time>
      </trkpt>
      <trkpt lat="43.248660" lon="-1.589685">
        <ele>456.9</ele>
        <time>2018-06-16T09:32:52Z</time>
      </trkpt>
      <trkpt lat="43.248691" lon="-1.589619">
        <ele>457.3</ele>
        <time>2018-06-16T09:32:54Z</time>
      </trkpt>
      <trkpt lat="43.248721" lon="-1.589538">
        <ele>457.7</ele>
        <time>2018-06-16T09:32:55Z</time>
      </trkpt>
      <trkpt lat="43.248792" lon="-1.589311">
        <ele>458.8</ele>
        <time>2018-06-16T09:33:00Z</time>
      </trkpt>
      <trkpt lat="43.248822" lon="-1.589198">
        <ele>459.1</ele>
        <time>2018-06-16T09:33:02Z</time>
      </trkpt>
      <trkpt lat="43.248830" lon="-1.589117">
        <ele>459.3</ele>
        <time>2018-06-16T09:33:04Z</time>
      </trkpt>
      <trkpt lat="43.248827" lon="-1.589055">
        <ele>459.5</ele>
        <time>2018-06-16T09:33:05Z</time>
      </trkpt>
      <trkpt lat="43.248813" lon="-1.589009">
        <ele>459.5</ele>
        <time>2018-06-16T09:33:06Z</time>
      </trkpt>
      <trkpt lat="43.248606" lon="-1.588628">
        <ele>458.2</ele>
        <time>2018-06-16T09:33:15Z</time>
      </trkpt>
      <trkpt lat="43.248464" lon="-1.588406">
        <ele>456.5</ele>
        <time>2018-06-16T09:33:21Z</time>
      </trkpt>
      <trkpt lat="43.248440" lon="-1.588352">
        <ele>457.3</ele>
        <time>2018-06-16T09:33:22Z</time>
      </trkpt>
      <trkpt lat="43.248432" lon="-1.588282">
        <ele>457.7</ele>
        <time>2018-06-16T09:33:24Z</time>
      </trkpt>
      <trkpt lat="43.248443" lon="-1.588222">
        <ele>457.6</ele>
        <time>2018-06-16T09:33:25Z</time>
      </trkpt>
      <trkpt lat="43.248511" lon="-1.588013">
        <ele>457.9</ele>
        <time>2018-06-16T09:33:29Z</time>
      </trkpt>
      <trkpt lat="43.248522" lon="-1.587944">
        <ele>458.3</ele>
        <time>2018-06-16T09:33:30Z</time>
      </trkpt>
      <trkpt lat="43.248522" lon="-1.587889">
        <ele>458.8</ele>
        <time>2018-06-16T09:33:32Z</time>
      </trkpt>
      <trkpt lat="43.248482" lon="-1.587655">
        <ele>461.8</ele>
        <time>2018-06-16T09:33:36Z</time>
      </trkpt>
      <trkpt lat="43.248448" lon="-1.587402">
        <ele>465.7</ele>
        <time>2018-06-16T09:33:41Z</time>
      </trkpt>
      <trkpt lat="43.248403" lon="-1.587099">
        <ele>469.8</ele>
        <time>2018-06-16T09:33:47Z</time>
      </trkpt>
      <trkpt lat="43.248374" lon="-1.586956">
        <ele>472.7</ele>
        <time>2018-06-16T09:33:50Z</time>
      </trkpt>
      <trkpt lat="43.248372" lon="-1.586882">
        <ele>474.3</ele>
        <time>2018-06-16T09:33:52Z</time>
      </trkpt>
      <trkpt lat="43.248388" lon="-1.586835">
        <ele>475.4</ele>
        <time>2018-06-16T09:33:53Z</time>
      </trkpt>
      <trkpt lat="43.248419" lon="-1.586807">
        <ele>476.0</ele>
        <time>2018-06-16T09:33:54Z</time>
      </trkpt>
      <trkpt lat="43.248479" lon="-1.586787">
        <ele>476.4</ele>
        <time>2018-06-16T09:33:55Z</time>
      </trkpt>
      <trkpt lat="43.248561" lon="-1.586782">
        <ele>476.8</ele>
        <time>2018-06-16T09:33:57Z</time>
      </trkpt>
      <trkpt lat="43.248635" lon="-1.586758">
        <ele>477.5</ele>
        <time>2018-06-16T09:33:59Z</time>
      </trkpt>
      <trkpt lat="43.248685" lon="-1.586726">
        <ele>478.3</ele>
        <time>2018-06-16T09:34:01Z</time>
      </trkpt>
      <trkpt lat="43.248766" lon="-1.586616">
        <ele>480.2</ele>
        <time>2018-06-16T09:34:04Z</time>
      </trkpt>
      <trkpt lat="43.248826" lon="-1.586522">
        <ele>480.6</ele>
        <time>2018-06-16T09:34:06Z</time>
      </trkpt>
      <trkpt lat="43.248870" lon="-1.586410">
        <ele>479.9</ele>
        <time>2018-06-16T09:34:09Z</time>
      </trkpt>
      <trkpt lat="43.248922" lon="-1.586302">
        <ele>478.7</ele>
        <time>2018-06-16T09:34:11Z</time>
      </trkpt>
      <trkpt lat="43.248964" lon="-1.586223">
        <ele>477.9</ele>
        <time>2018-06-16T09:34:13Z</time>
      </trkpt>
      <trkpt lat="43.249243" lon="-1.585789">
        <ele>483.9</ele>
        <time>2018-06-16T09:34:24Z</time>
      </trkpt>
      <trkpt lat="43.249402" lon="-1.585535">
        <ele>486.0</ele>
        <time>2018-06-16T09:34:31Z</time>
      </trkpt>
      <trkpt lat="43.249467" lon="-1.585428">
        <ele>486.6</ele>
        <time>2018-06-16T09:34:34Z</time>
      </trkpt>
      <trkpt lat="43.249507" lon="-1.585359">
        <ele>486.8</ele>
        <time>2018-06-16T09:34:35Z</time>
      </trkpt>
      <trkpt lat="43.249553" lon="-1.585307">
        <ele>486.1</ele>
        <time>2018-06-16T09:34:37Z</time>
      </trkpt>
      <trkpt lat="43.249596" lon="-1.585273">
        <ele>485.3</ele>
        <time>2018-06-16T09:34:38Z</time>
      </trkpt>
      <trkpt lat="43.249683" lon="-1.585206">
        <ele>484.6</ele>
        <time>2018-06-16T09:34:41Z</time>
      </trkpt>
      <trkpt lat="43.249818" lon="-1.585108">
        <ele>484.4</ele>
        <time>2018-06-16T09:34:45Z</time>
      </trkpt>
      <trkpt lat="43.249892" lon="-1.585066">
        <ele>483.7</ele>
        <time>2018-06-16T09:34:47Z</time>
      </trkpt>
      <trkpt lat="43.250088" lon="-1.584959">
        <ele>482.8</ele>
        <time>2018-06-16T09:34:53Z</time>
      </trkpt>
      <trkpt lat="43.250170" lon="-1.584924">
        <ele>483.6</ele>
        <time>2018-06-16T09:34:55Z</time>
      </trkpt>
      <trkpt lat="43.250239" lon="-1.584906">
        <ele>484.9</ele>
        <time>2018-06-16T09:34:57Z</time>
      </trkpt>
      <trkpt lat="43.250309" lon="-1.584898">
        <ele>486.1</ele>
        <time>2018-06-16T09:34:59Z</time>
      </trkpt>
      <trkpt lat="43.250368" lon="-1.584897">
        <ele>487.0</ele>
        <time>2018-06-16T09:35:00Z</time>
      </trkpt>
      <trkpt lat="43.250456" lon="-1.584910">
        <ele>487.5</ele>
        <time>2018-06-16T09:35:02Z</time>
      </trkpt>
      <trkpt lat="43.250638" lon="-1.584978">
        <ele>486.4</ele>
        <time>2018-06-16T09:35:07Z</time>
      </trkpt>
      <trkpt lat="43.250705" lon="-1.585019">
        <ele>485.8</ele>
        <time>2018-06-16T09:35:09Z</time>
      </trkpt>
      <trkpt lat="43.250770" lon="-1.585070">
        <ele>485.6</ele>
        <time>2018-06-16T09:35:11Z</time>
      </trkpt>
      <trkpt lat="43.251318" lon="-1.585478">
        <ele>481.5</ele>
        <time>2018-06-16T09:35:28Z</time>
      </trkpt>
      <trkpt lat="43.251487" lon="-1.585560">
        <ele>477.8</ele>
        <time>2018-06-16T09:35:33Z</time>
      </trkpt>
      <trkpt lat="43.251609" lon="-1.585614">
        <ele>476.1</ele>
        <time>2018-06-16T09:35:36Z</time>
      </trkpt>
      <trkpt lat="43.251936" lon="-1.585745">
        <ele>475.3</ele>
        <time>2018-06-16T09:35:45Z</time>
      </trkpt>
      <trkpt lat="43.252098" lon="-1.585802">
        <ele>476.8</ele>
        <time>2018-06-16T09:35:49Z</time>
      </trkpt>
      <trkpt lat="43.252215" lon="-1.585862">
        <ele>476.9</ele>
        <time>2018-06-16T09:35:53Z</time>
      </trkpt>
      <trkpt lat="43.252439" lon="-1.586010">
        <ele>480.3</ele>
        <time>2018-06-16T09:35:59Z</time>
      </trkpt>
      <trkpt lat="43.252605" lon="-1.586113">
        <ele>483.2</ele>
        <time>2018-06-16T09:36:04Z</time>
      </trkpt>
      <trkpt lat="43.253042" lon="-1.586412">
        <ele>488.0</ele>
        <time>2018-06-16T09:36:17Z</time>
      </trkpt>
      <trkpt lat="43.253130" lon="-1.586487">
        <ele>489.7</ele>
        <time>2018-06-16T09:36:20Z</time>
      </trkpt>
      <trkpt lat="43.253161" lon="-1.586528">
        <ele>490.6</ele>
        <time>2018-06-16T09:36:21Z</time>
      </trkpt>
      <trkpt lat="43.253183" lon="-1.586575">
        <ele>490.8</ele>
        <time>2018-06-16T09:36:22Z</time>
      </trkpt>
      <trkpt lat="43.253212" lon="-1.586649">
        <ele>491.0</ele>
        <time>2018-06-16T09:36:24Z</time>
      </trkpt>
      <trkpt lat="43.253236" lon="-1.586730">
        <ele>491.7</ele>
        <time>2018-06-16T09:36:25Z</time>
      </trkpt>
      <trkpt lat="43.253262" lon="-1.586799">
        <ele>492.9</ele>
        <time>2018-06-16T09:36:27Z</time>
      </trkpt>
      <trkpt lat="43.253292" lon="-1.586908">
        <ele>498.1</ele>
        <time>2018-06-16T09:36:29Z</time>
      </trkpt>
      <trkpt lat="43.253329" lon="-1.587094">
        <ele>505.5</ele>
        <time>2018-06-16T09:36:34Z</time>
      </trkpt>
      <trkpt lat="43.253349" lon="-1.587185">
        <ele>506.1</ele>
        <time>2018-06-16T09:36:35Z</time>
      </trkpt>
      <trkpt lat="43.253464" lon="-1.587547">
        <ele>508.2</ele>
        <time>2018-06-16T09:36:43Z</time>
      </trkpt>
      <trkpt lat="43.253509" lon="-1.587679">
        <ele>508.2</ele>
        <time>2018-06-16T09:36:46Z</time>
      </trkpt>
      <trkpt lat="43.253563" lon="-1.587792">
        <ele>508.0</ele>
        <time>2018-06-16T09:36:48Z</time>
      </trkpt>
      <trkpt lat="43.253619" lon="-1.587885">
        <ele>508.0</ele>
        <time>2018-06-16T09:36:51Z</time>
      </trkpt>
      <trkpt lat="43.253738" lon="-1.588045">
        <ele>507.5</ele>
        <time>2018-06-16T09:36:55Z</time>
      </trkpt>
      <trkpt lat="43.253791" lon="-1.588132">
        <ele>507.5</ele>
        <time>2018-06-16T09:36:57Z</time>
      </trkpt>
      <trkpt lat="43.253818" lon="-1.588179">
        <ele>507.9</ele>
        <time>2018-06-16T09:36:58Z</time>
      </trkpt>
      <trkpt lat="43.253835" lon="-1.588223">
        <ele>508.6</ele>
        <time>2018-06-16T09:36:59Z</time>
      </trkpt>
      <trkpt lat="43.253849" lon="-1.588283">
        <ele>509.5</ele>
        <time>2018-06-16T09:37:01Z</time>
      </trkpt>
      <trkpt lat="43.253853" lon="-1.588343">
        <ele>509.8</ele>
        <time>2018-06-16T09:37:02Z</time>
      </trkpt>
      <trkpt lat="43.253845" lon="-1.588403">
        <ele>510.2</ele>
        <time>2018-06-16T09:37:03Z</time>
      </trkpt>
      <trkpt lat="43.253820" lon="-1.588495">
        <ele>511.0</ele>
        <time>2018-06-16T09:37:05Z</time>
      </trkpt>
      <trkpt lat="43.253780" lon="-1.588658">
        <ele>511.7</ele>
        <time>2018-06-16T09:37:08Z</time>
      </trkpt>
      <trkpt lat="43.253646" lon="-1.589182">
        <ele>516.5</ele>
        <time>2018-06-16T09:37:19Z</time>
      </trkpt>
      <trkpt lat="43.253624" lon="-1.589299">
        <ele>516.2</ele>
        <time>2018-06-16T09:37:21Z</time>
      </trkpt>
      <trkpt lat="43.253601" lon="-1.589432">
        <ele>516.7</ele>
        <time>2018-06-16T09:37:24Z</time>
      </trkpt>
      <trkpt lat="43.253578" lon="-1.589704">
        <ele>517.1</ele>
        <time>2018-06-16T09:37:29Z</time>
      </trkpt>
      <trkpt lat="43.253581" lon="-1.589755">
        <ele>517.3</ele>
        <time>2018-06-16T09:37:30Z</time>
      </trkpt>
      <trkpt lat="43.253601" lon="-1.589834">
        <ele>517.8</ele>
        <time>2018-06-16T09:37:32Z</time>
      </trkpt>
      <trkpt lat="43.253633" lon="-1.589908">
        <ele>517.7</ele>
        <time>2018-06-16T09:37:33Z</time>
      </trkpt>
      <trkpt lat="43.253663" lon="-1.589954">
        <ele>517.4</ele>
        <time>2018-06-16T09:37:35Z</time>
      </trkpt>
      <trkpt lat="43.253783" lon="-1.590056">
        <ele>515.6</ele>
        <time>2018-06-16T09:37:38Z</time>
      </trkpt>
      <trkpt lat="43.253852" lon="-1.590103">
        <ele>514.1</ele>
        <time>2018-06-16T09:37:40Z</time>
      </trkpt>
      <trkpt lat="43.254003" lon="-1.590172">
        <ele>512.6</ele>
        <time>2018-06-16T09:37:45Z</time>
      </trkpt>
      <trkpt lat="43.254086" lon="-1.590206">
        <ele>513.0</ele>
        <time>2018-06-16T09:37:47Z</time>
      </trkpt>
      <trkpt lat="43.254159" lon="-1.590240">
        <ele>513.7</ele>
        <time>2018-06-16T09:37:49Z</time>
      </trkpt>
      <trkpt lat="43.254208" lon="-1.590290">
        <ele>514.2</ele>
        <time>2018-06-16T09:37:51Z</time>
      </trkpt>
      <trkpt lat="43.254248" lon="-1.590357">
        <ele>514.7</ele>
        <time>2018-06-16T09:37:52Z</time>
      </trkpt>
      <trkpt lat="43.254284" lon="-1.590453">
        <ele>516.3</ele>
        <time>2018-06-16T09:37:54Z</time>
      </trkpt>
      <trkpt lat="43.254352" lon="-1.590664">
        <ele>523.0</ele>
        <time>2018-06-16T09:37:59Z</time>
      </trkpt>
      <trkpt lat="43.254390" lon="-1.590828">
        <ele>523.2</ele>
        <time>2018-06-16T09:38:02Z</time>
      </trkpt>
      <trkpt lat="43.254434" lon="-1.591071">
        <ele>523.1</ele>
        <time>2018-06-16T09:38:07Z</time>
      </trkpt>
      <trkpt lat="43.254452" lon="-1.591215">
        <ele>524.0</ele>
        <time>2018-06-16T09:38:10Z</time>
      </trkpt>
      <trkpt lat="43.254449" lon="-1.591288">
        <ele>524.8</ele>
        <time>2018-06-16T09:38:11Z</time>
      </trkpt>
      <trkpt lat="43.254442" lon="-1.591367">
        <ele>525.8</ele>
        <time>2018-06-16T09:38:13Z</time>
      </trkpt>
      <trkpt lat="43.254413" lon="-1.591496">
        <ele>527.9</ele>
        <time>2018-06-16T09:38:16Z</time>
      </trkpt>
      <trkpt lat="43.254390" lon="-1.591616">
        <ele>529.8</ele>
        <time>2018-06-16T09:38:18Z</time>
      </trkpt>
      <trkpt lat="43.254386" lon="-1.591676">
        <ele>530.4</ele>
        <time>2018-06-16T09:38:19Z</time>
      </trkpt>
      <trkpt lat="43.254397" lon="-1.592324">
        <ele>529.4</ele>
        <time>2018-06-16T09:38:32Z</time>
      </trkpt>
      <trkpt lat="43.254406" lon="-1.592370">
        <ele>529.3</ele>
        <time>2018-06-16T09:38:32Z</time>
      </trkpt>
      <trkpt lat="43.254417" lon="-1.592412">
        <ele>528.3</ele>
        <time>2018-06-16T09:38:33Z</time>
      </trkpt>
      <trkpt lat="43.254444" lon="-1.592470">
        <ele>526.9</ele>
        <time>2018-06-16T09:38:35Z</time>
      </trkpt>
      <trkpt lat="43.254475" lon="-1.592506">
        <ele>526.2</ele>
        <time>2018-06-16T09:38:36Z</time>
      </trkpt>
      <trkpt lat="43.254508" lon="-1.592518">
        <ele>525.9</ele>
        <time>2018-06-16T09:38:37Z</time>
      </trkpt>
      <trkpt lat="43.254627" lon="-1.592532">
        <ele>526.6</ele>
        <time>2018-06-16T09:38:40Z</time>
      </trkpt>
      <trkpt lat="43.254684" lon="-1.592536">
        <ele>527.8</ele>
        <time>2018-06-16T09:38:41Z</time>
      </trkpt>
      <trkpt lat="43.254729" lon="-1.592544">
        <ele>528.8</ele>
        <time>2018-06-16T09:38:43Z</time>
      </trkpt>
      <trkpt lat="43.254761" lon="-1.592561">
        <ele>529.6</ele>
        <time>2018-06-16T09:38:44Z</time>
      </trkpt>
      <trkpt lat="43.254784" lon="-1.592588">
        <ele>530.2</ele>
        <time>2018-06-16T09:38:44Z</time>
      </trkpt>
      <trkpt lat="43.254809" lon="-1.592624">
        <ele>530.8</ele>
        <time>2018-06-16T09:38:45Z</time>
      </trkpt>
      <trkpt lat="43.254828" lon="-1.592670">
        <ele>531.5</ele>
        <time>2018-06-16T09:38:46Z</time>
      </trkpt>
      <trkpt lat="43.254846" lon="-1.592760">
        <ele>532.2</ele>
        <time>2018-06-16T09:38:48Z</time>
      </trkpt>
      <trkpt lat="43.254875" lon="-1.593015">
        <ele>530.7</ele>
        <time>2018-06-16T09:38:53Z</time>
      </trkpt>
      <trkpt lat="43.254871" lon="-1.593087">
        <ele>529.5</ele>
        <time>2018-06-16T09:38:55Z</time>
      </trkpt>
      <trkpt lat="43.254862" lon="-1.593174">
        <ele>528.3</ele>
        <time>2018-06-16T09:38:56Z</time>
      </trkpt>
      <trkpt lat="43.254841" lon="-1.593367">
        <ele>526.9</ele>
        <time>2018-06-16T09:39:00Z</time>
      </trkpt>
      <trkpt lat="43.254818" lon="-1.593640">
        <ele>525.7</ele>
        <time>2018-06-16T09:39:05Z</time>
      </trkpt>
      <trkpt lat="43.254809" lon="-1.593753">
        <ele>525.1</ele>
        <time>2018-06-16T09:39:08Z</time>
      </trkpt>
      <trkpt lat="43.254813" lon="-1.593877">
        <ele>525.0</ele>
        <time>2018-06-16T09:39:10Z</time>
      </trkpt>
      <trkpt lat="43.254832" lon="-1.594023">
        <ele>525.0</ele>
        <time>2018-06-16T09:39:13Z</time>
      </trkpt>
      <trkpt lat="43.254903" lon="-1.594591">
        <ele>521.5</ele>
        <time>2018-06-16T09:39:24Z</time>
      </trkpt>
      <trkpt lat="43.254913" lon="-1.594710">
        <ele>520.1</ele>
        <time>2018-06-16T09:39:26Z</time>
      </trkpt>
      <trkpt lat="43.254913" lon="-1.594805">
        <ele>519.0</ele>
        <time>2018-06-16T09:39:28Z</time>
      </trkpt>
      <trkpt lat="43.254904" lon="-1.594877">
        <ele>518.2</ele>
        <time>2018-06-16T09:39:29Z</time>
      </trkpt>
      <trkpt lat="43.254860" lon="-1.595035">
        <ele>515.2</ele>
        <time>2018-06-16T09:39:33Z</time>
      </trkpt>
      <trkpt lat="43.254771" lon="-1.595371">
        <ele>507.5</ele>
        <time>2018-06-16T09:39:40Z</time>
      </trkpt>
      <trkpt lat="43.254737" lon="-1.595527">
        <ele>507.2</ele>
        <time>2018-06-16T09:39:43Z</time>
      </trkpt>
      <trkpt lat="43.254630" lon="-1.596158">
        <ele>514.0</ele>
        <time>2018-06-16T09:39:56Z</time>
      </trkpt>
      <trkpt lat="43.254608" lon="-1.596264">
        <ele>514.9</ele>
        <time>2018-06-16T09:39:58Z</time>
      </trkpt>
      <trkpt lat="43.254599" lon="-1.596342">
        <ele>515.0</ele>
        <time>2018-06-16T09:39:59Z</time>
      </trkpt>
      <trkpt lat="43.254599" lon="-1.596416">
        <ele>515.0</ele>
        <time>2018-06-16T09:40:01Z</time>
      </trkpt>
      <trkpt lat="43.254613" lon="-1.596491">
        <ele>515.1</ele>
        <time>2018-06-16T09:40:02Z</time>
      </trkpt>
      <trkpt lat="43.254634" lon="-1.596539">
        <ele>515.2</ele>
        <time>2018-06-16T09:40:03Z</time>
      </trkpt>
      <trkpt lat="43.254665" lon="-1.596575">
        <ele>515.6</ele>
        <time>2018-06-16T09:40:04Z</time>
      </trkpt>
      <trkpt lat="43.254733" lon="-1.596633">
        <ele>516.3</ele>
        <time>2018-06-16T09:40:06Z</time>
      </trkpt>
      <trkpt lat="43.254809" lon="-1.596702">
        <ele>517.5</ele>
        <time>2018-06-16T09:40:09Z</time>
      </trkpt>
      <trkpt lat="43.254842" lon="-1.596747">
        <ele>518.2</ele>
        <time>2018-06-16T09:40:10Z</time>
      </trkpt>
      <trkpt lat="43.254867" lon="-1.596805">
        <ele>518.9</ele>
        <time>2018-06-16T09:40:11Z</time>
      </trkpt>
      <trkpt lat="43.254893" lon="-1.596887">
        <ele>519.5</ele>
        <time>2018-06-16T09:40:13Z</time>
      </trkpt>
      <trkpt lat="43.254936" lon="-1.597070">
        <ele>520.5</ele>
        <time>2018-06-16T09:40:17Z</time>
      </trkpt>
      <trkpt lat="43.254957" lon="-1.597258">
        <ele>519.4</ele>
        <time>2018-06-16T09:40:20Z</time>
      </trkpt>
      <trkpt lat="43.254966" lon="-1.597382">
        <ele>518.6</ele>
        <time>2018-06-16T09:40:23Z</time>
      </trkpt>
      <trkpt lat="43.254980" lon="-1.597507">
        <ele>517.8</ele>
        <time>2018-06-16T09:40:25Z</time>
      </trkpt>
      <trkpt lat="43.255002" lon="-1.597617">
        <ele>516.5</ele>
        <time>2018-06-16T09:40:27Z</time>
      </trkpt>
      <trkpt lat="43.255021" lon="-1.597769">
        <ele>516.8</ele>
        <time>2018-06-16T09:40:30Z</time>
      </trkpt>
      <trkpt lat="43.255028" lon="-1.597896">
        <ele>517.4</ele>
        <time>2018-06-16T09:40:33Z</time>
      </trkpt>
      <trkpt lat="43.255021" lon="-1.598004">
        <ele>517.6</ele>
        <time>2018-06-16T09:40:35Z</time>
      </trkpt>
      <trkpt lat="43.254998" lon="-1.598109">
        <ele>518.4</ele>
        <time>2018-06-16T09:40:37Z</time>
      </trkpt>
      <trkpt lat="43.254959" lon="-1.598217">
        <ele>519.9</ele>
        <time>2018-06-16T09:40:39Z</time>
      </trkpt>
      <trkpt lat="43.254931" lon="-1.598336">
        <ele>519.4</ele>
        <time>2018-06-16T09:40:42Z</time>
      </trkpt>
      <trkpt lat="43.254926" lon="-1.598413">
        <ele>518.3</ele>
        <time>2018-06-16T09:40:43Z</time>
      </trkpt>
      <trkpt lat="43.254919" lon="-1.598483">
        <ele>517.2</ele>
        <time>2018-06-16T09:40:45Z</time>
      </trkpt>
      <trkpt lat="43.254916" lon="-1.598558">
        <ele>513.9</ele>
        <time>2018-06-16T09:40:46Z</time>
      </trkpt>
      <trkpt lat="43.254914" lon="-1.598715">
        <ele>506.9</ele>
        <time>2018-06-16T09:40:50Z</time>
      </trkpt>
      <trkpt lat="43.254904" lon="-1.598849">
        <ele>501.7</ele>
        <time>2018-06-16T09:40:53Z</time>
      </trkpt>
      <trkpt lat="43.254889" lon="-1.598922">
        <ele>499.1</ele>
        <time>2018-06-16T09:40:54Z</time>
      </trkpt>
      <trkpt lat="43.254869" lon="-1.598998">
        <ele>496.2</ele>
        <time>2018-06-16T09:40:56Z</time>
      </trkpt>
      <trkpt lat="43.254830" lon="-1.599081">
        <ele>495.3</ele>
        <time>2018-06-16T09:40:58Z</time>
      </trkpt>
      <trkpt lat="43.254636" lon="-1.599431">
        <ele>492.2</ele>
        <time>2018-06-16T09:41:06Z</time>
      </trkpt>
      <trkpt lat="43.254551" lon="-1.599623">
        <ele>487.9</ele>
        <time>2018-06-16T09:41:11Z</time>
      </trkpt>
      <trkpt lat="43.254473" lon="-1.599861">
        <ele>486.2</ele>
        <time>2018-06-16T09:41:16Z</time>
      </trkpt>
      <trkpt lat="43.254403" lon="-1.600110">
        <ele>490.0</ele>
        <time>2018-06-16T09:41:21Z</time>
      </trkpt>
      <trkpt lat="43.254346" lon="-1.600262">
        <ele>490.0</ele>
        <time>2018-06-16T09:41:24Z</time>
      </trkpt>
      <trkpt lat="43.254284" lon="-1.600387">
        <ele>489.0</ele>
        <time>2018-06-16T09:41:27Z</time>
      </trkpt>
      <trkpt lat="43.254172" lon="-1.600533">
        <ele>490.8</ele>
        <time>2018-06-16T09:41:31Z</time>
      </trkpt>
      <trkpt lat="43.254091" lon="-1.600645">
        <ele>493.4</ele>
        <time>2018-06-16T09:41:34Z</time>
      </trkpt>
      <trkpt lat="43.254060" lon="-1.600715">
        <ele>494.5</ele>
        <time>2018-06-16T09:41:36Z</time>
      </trkpt>
      <trkpt lat="43.254031" lon="-1.600813">
        <ele>493.3</ele>
        <time>2018-06-16T09:41:38Z</time>
      </trkpt>
      <trkpt lat="43.254026" lon="-1.600893">
        <ele>492.2</ele>
        <time>2018-06-16T09:41:40Z</time>
      </trkpt>
      <trkpt lat="43.254028" lon="-1.600972">
        <ele>491.0</ele>
        <time>2018-06-16T09:41:41Z</time>
      </trkpt>
      <trkpt lat="43.254038" lon="-1.601045">
        <ele>490.6</ele>
        <time>2018-06-16T09:41:43Z</time>
      </trkpt>
      <trkpt lat="43.254046" lon="-1.601083">
        <ele>490.4</ele>
        <time>2018-06-16T09:41:43Z</time>
      </trkpt>
      <trkpt lat="43.254036" lon="-1.601153">
        <ele>489.8</ele>
        <time>2018-06-16T09:41:45Z</time>
      </trkpt>
      <trkpt lat="43.254010" lon="-1.601222">
        <ele>489.6</ele>
        <time>2018-06-16T09:41:46Z</time>
      </trkpt>
      <trkpt lat="43.253959" lon="-1.601339">
        <ele>492.3</ele>
        <time>2018-06-16T09:41:49Z</time>
      </trkpt>
      <trkpt lat="43.253942" lon="-1.601395">
        <ele>493.5</ele>
        <time>2018-06-16T09:41:50Z</time>
      </trkpt>
      <trkpt lat="43.253934" lon="-1.601480">
        <ele>494.9</ele>
        <time>2018-06-16T09:41:52Z</time>
      </trkpt>
      <trkpt lat="43.253937" lon="-1.601554">
        <ele>496.2</ele>
        <time>2018-06-16T09:41:53Z</time>
      </trkpt>
      <trkpt lat="43.253957" lon="-1.601620">
        <ele>497.3</ele>
        <time>2018-06-16T09:41:55Z</time>
      </trkpt>
      <trkpt lat="43.254151" lon="-1.601912">
        <ele>495.8</ele>
        <time>2018-06-16T09:42:02Z</time>
      </trkpt>
      <trkpt lat="43.254292" lon="-1.602082">
        <ele>491.6</ele>
        <time>2018-06-16T09:42:07Z</time>
      </trkpt>
      <trkpt lat="43.254394" lon="-1.602233">
        <ele>491.3</ele>
        <time>2018-06-16T09:42:11Z</time>
      </trkpt>
      <trkpt lat="43.254464" lon="-1.602374">
        <ele>490.8</ele>
        <time>2018-06-16T09:42:14Z</time>
      </trkpt>
      <trkpt lat="43.254501" lon="-1.602477">
        <ele>490.0</ele>
        <time>2018-06-16T09:42:17Z</time>
      </trkpt>
      <trkpt lat="43.254520" lon="-1.602584">
        <ele>490.2</ele>
        <time>2018-06-16T09:42:19Z</time>
      </trkpt>
      <trkpt lat="43.254538" lon="-1.602731">
        <ele>491.6</ele>
        <time>2018-06-16T09:42:22Z</time>
      </trkpt>
      <trkpt lat="43.254535" lon="-1.602832">
        <ele>493.2</ele>
        <time>2018-06-16T09:42:24Z</time>
      </trkpt>
      <trkpt lat="43.254521" lon="-1.602945">
        <ele>495.2</ele>
        <time>2018-06-16T09:42:26Z</time>
      </trkpt>
      <trkpt lat="43.254488" lon="-1.603051">
        <ele>497.1</ele>
        <time>2018-06-16T09:42:28Z</time>
      </trkpt>
      <trkpt lat="43.254432" lon="-1.603148">
        <ele>500.1</ele>
        <time>2018-06-16T09:42:31Z</time>
      </trkpt>
      <trkpt lat="43.254318" lon="-1.603270">
        <ele>503.6</ele>
        <time>2018-06-16T09:42:35Z</time>
      </trkpt>
      <trkpt lat="43.254160" lon="-1.603416">
        <ele>508.8</ele>
        <time>2018-06-16T09:42:40Z</time>
      </trkpt>
      <trkpt lat="43.253936" lon="-1.603667">
        <ele>507.5</ele>
        <time>2018-06-16T09:42:47Z</time>
      </trkpt>
      <trkpt lat="43.253674" lon="-1.603972">
        <ele>500.5</ele>
        <time>2018-06-16T09:42:57Z</time>
      </trkpt>
      <trkpt lat="43.253533" lon="-1.604135">
        <ele>497.0</ele>
        <time>2018-06-16T09:43:02Z</time>
      </trkpt>
      <trkpt lat="43.253453" lon="-1.604213">
        <ele>495.6</ele>
        <time>2018-06-16T09:43:04Z</time>
      </trkpt>
      <trkpt lat="43.253393" lon="-1.604267">
        <ele>493.8</ele>
        <time>2018-06-16T09:43:06Z</time>
      </trkpt>
      <trkpt lat="43.253329" lon="-1.604307">
        <ele>493.6</ele>
        <time>2018-06-16T09:43:08Z</time>
      </trkpt>
      <trkpt lat="43.253214" lon="-1.604347">
        <ele>496.3</ele>
        <time>2018-06-16T09:43:11Z</time>
      </trkpt>
      <trkpt lat="43.253102" lon="-1.604408">
        <ele>497.2</ele>
        <time>2018-06-16T09:43:14Z</time>
      </trkpt>
      <trkpt lat="43.253031" lon="-1.604476">
        <ele>498.8</ele>
        <time>2018-06-16T09:43:17Z</time>
      </trkpt>
      <trkpt lat="43.252983" lon="-1.604549">
        <ele>501.3</ele>
        <time>2018-06-16T09:43:19Z</time>
      </trkpt>
      <trkpt lat="43.252947" lon="-1.604622">
        <ele>502.1</ele>
        <time>2018-06-16T09:43:20Z</time>
      </trkpt>
      <trkpt lat="43.252922" lon="-1.604692">
        <ele>501.1</ele>
        <time>2018-06-16T09:43:22Z</time>
      </trkpt>
      <trkpt lat="43.252904" lon="-1.604796">
        <ele>498.7</ele>
        <time>2018-06-16T09:43:24Z</time>
      </trkpt>
      <trkpt lat="43.252833" lon="-1.605285">
        <ele>493.8</ele>
        <time>2018-06-16T09:43:34Z</time>
      </trkpt>
      <trkpt lat="43.252805" lon="-1.605433">
        <ele>493.0</ele>
        <time>2018-06-16T09:43:37Z</time>
      </trkpt>
      <trkpt lat="43.252782" lon="-1.605533">
        <ele>491.0</ele>
        <time>2018-06-16T09:43:39Z</time>
      </trkpt>
      <trkpt lat="43.252722" lon="-1.605677">
        <ele>487.9</ele>
        <time>2018-06-16T09:43:42Z</time>
      </trkpt>
      <trkpt lat="43.252566" lon="-1.606032">
        <ele>480.7</ele>
        <time>2018-06-16T09:43:50Z</time>
      </trkpt>
      <trkpt lat="43.252515" lon="-1.606150">
        <ele>477.8</ele>
        <time>2018-06-16T09:43:53Z</time>
      </trkpt>
      <trkpt lat="43.252494" lon="-1.606233">
        <ele>476.9</ele>
        <time>2018-06-16T09:43:54Z</time>
      </trkpt>
      <trkpt lat="43.252466" lon="-1.606381">
        <ele>478.0</ele>
        <time>2018-06-16T09:43:57Z</time>
      </trkpt>
      <trkpt lat="43.252424" lon="-1.606521">
        <ele>479.9</ele>
        <time>2018-06-16T09:44:00Z</time>
      </trkpt>
      <trkpt lat="43.252340" lon="-1.606770">
        <ele>478.6</ele>
        <time>2018-06-16T09:44:06Z</time>
      </trkpt>
      <trkpt lat="43.252311" lon="-1.606933">
        <ele>478.3</ele>
        <time>2018-06-16T09:44:09Z</time>
      </trkpt>
      <trkpt lat="43.252298" lon="-1.607029">
        <ele>478.7</ele>
        <time>2018-06-16T09:44:11Z</time>
      </trkpt>
      <trkpt lat="43.252285" lon="-1.607089">
        <ele>479.1</ele>
        <time>2018-06-16T09:44:12Z</time>
      </trkpt>
      <trkpt lat="43.252260" lon="-1.607144">
        <ele>479.3</ele>
        <time>2018-06-16T09:44:13Z</time>
      </trkpt>
      <trkpt lat="43.252222" lon="-1.607208">
        <ele>480.0</ele>
        <time>2018-06-16T09:44:15Z</time>
      </trkpt>
      <trkpt lat="43.252184" lon="-1.607272">
        <ele>480.9</ele>
        <time>2018-06-16T09:44:16Z</time>
      </trkpt>
      <trkpt lat="43.252149" lon="-1.607335">
        <ele>482.0</ele>
        <time>2018-06-16T09:44:18Z</time>
      </trkpt>
      <trkpt lat="43.252135" lon="-1.607395">
        <ele>482.3</ele>
        <time>2018-06-16T09:44:19Z</time>
      </trkpt>
      <trkpt lat="43.252129" lon="-1.607470">
        <ele>482.2</ele>
        <time>2018-06-16T09:44:21Z</time>
      </trkpt>
      <trkpt lat="43.252128" lon="-1.607567">
        <ele>481.7</ele>
        <time>2018-06-16T09:44:22Z</time>
      </trkpt>
      <trkpt lat="43.252149" lon="-1.607686">
        <ele>480.7</ele>
        <time>2018-06-16T09:44:25Z</time>
      </trkpt>
      <trkpt lat="43.252192" lon="-1.607898">
        <ele>479.4</ele>
        <time>2018-06-16T09:44:29Z</time>
      </trkpt>
      <trkpt lat="43.252232" lon="-1.608131">
        <ele>478.7</ele>
        <time>2018-06-16T09:44:34Z</time>
      </trkpt>
      <trkpt lat="43.252248" lon="-1.608207">
        <ele>478.5</ele>
        <time>2018-06-16T09:44:35Z</time>
      </trkpt>
      <trkpt lat="43.252267" lon="-1.608287">
        <ele>478.7</ele>
        <time>2018-06-16T09:44:37Z</time>
      </trkpt>
      <trkpt lat="43.252295" lon="-1.608347">
        <ele>478.8</ele>
        <time>2018-06-16T09:44:38Z</time>
      </trkpt>
      <trkpt lat="43.252329" lon="-1.608398">
        <ele>479.1</ele>
        <time>2018-06-16T09:44:39Z</time>
      </trkpt>
      <trkpt lat="43.252397" lon="-1.608489">
        <ele>478.8</ele>
        <time>2018-06-16T09:44:42Z</time>
      </trkpt>
      <trkpt lat="43.252495" lon="-1.608627">
        <ele>474.2</ele>
        <time>2018-06-16T09:44:46Z</time>
      </trkpt>
      <trkpt lat="43.252553" lon="-1.608705">
        <ele>471.4</ele>
        <time>2018-06-16T09:44:48Z</time>
      </trkpt>
      <trkpt lat="43.252609" lon="-1.608754">
        <ele>468.9</ele>
        <time>2018-06-16T09:44:50Z</time>
      </trkpt>
      <trkpt lat="43.252778" lon="-1.608869">
        <ele>460.5</ele>
        <time>2018-06-16T09:44:55Z</time>
      </trkpt>
      <trkpt lat="43.252899" lon="-1.608964">
        <ele>451.2</ele>
        <time>2018-06-16T09:45:00Z</time>
      </trkpt>
      <trkpt lat="43.253016" lon="-1.609085">
        <ele>446.7</ele>
        <time>2018-06-16T09:45:04Z</time>
      </trkpt>
      <trkpt lat="43.253058" lon="-1.609148">
        <ele>445.2</ele>
        <time>2018-06-16T09:45:05Z</time>
      </trkpt>
      <trkpt lat="43.253086" lon="-1.609206">
        <ele>443.8</ele>
        <time>2018-06-16T09:45:07Z</time>
      </trkpt>
      <trkpt lat="43.253130" lon="-1.609288">
        <ele>442.0</ele>
        <time>2018-06-16T09:45:09Z</time>
      </trkpt>
      <trkpt lat="43.253176" lon="-1.609354">
        <ele>441.5</ele>
        <time>2018-06-16T09:45:10Z</time>
      </trkpt>
      <trkpt lat="43.253255" lon="-1.609410">
        <ele>441.4</ele>
        <time>2018-06-16T09:45:13Z</time>
      </trkpt>
      <trkpt lat="43.253547" lon="-1.609576">
        <ele>442.9</ele>
        <time>2018-06-16T09:45:21Z</time>
      </trkpt>
      <trkpt lat="43.253615" lon="-1.609613">
        <ele>446.4</ele>
        <time>2018-06-16T09:45:23Z</time>
      </trkpt>
      <trkpt lat="43.253720" lon="-1.609663">
        <ele>452.5</ele>
        <time>2018-06-16T09:45:26Z</time>
      </trkpt>
      <trkpt lat="43.253797" lon="-1.609691">
        <ele>455.9</ele>
        <time>2018-06-16T09:45:29Z</time>
      </trkpt>
      <trkpt lat="43.253949" lon="-1.609752">
        <ele>461.8</ele>
        <time>2018-06-16T09:45:33Z</time>
      </trkpt>
      <trkpt lat="43.254040" lon="-1.609771">
        <ele>464.8</ele>
        <time>2018-06-16T09:45:36Z</time>
      </trkpt>
      <trkpt lat="43.254191" lon="-1.609794">
        <ele>465.5</ele>
        <time>2018-06-16T09:45:40Z</time>
      </trkpt>
      <trkpt lat="43.254302" lon="-1.609806">
        <ele>465.8</ele>
        <time>2018-06-16T09:45:43Z</time>
      </trkpt>
      <trkpt lat="43.254456" lon="-1.609819">
        <ele>466.4</ele>
        <time>2018-06-16T09:45:47Z</time>
      </trkpt>
      <trkpt lat="43.254772" lon="-1.609869">
        <ele>470.7</ele>
        <time>2018-06-16T09:45:55Z</time>
      </trkpt>
      <trkpt lat="43.254893" lon="-1.609869">
        <ele>472.3</ele>
        <time>2018-06-16T09:45:58Z</time>
      </trkpt>
      <trkpt lat="43.255059" lon="-1.609868">
        <ele>472.2</ele>
        <time>2018-06-16T09:46:03Z</time>
      </trkpt>
      <trkpt lat="43.255224" lon="-1.609859">
        <ele>471.0</ele>
        <time>2018-06-16T09:46:07Z</time>
      </trkpt>
      <trkpt lat="43.255290" lon="-1.609877">
        <ele>470.6</ele>
        <time>2018-06-16T09:46:09Z</time>
      </trkpt>
      <trkpt lat="43.255344" lon="-1.609919">
        <ele>470.4</ele>
        <time>2018-06-16T09:46:10Z</time>
      </trkpt>
      <trkpt lat="43.255407" lon="-1.609994">
        <ele>470.1</ele>
        <time>2018-06-16T09:46:13Z</time>
      </trkpt>
      <trkpt lat="43.255429" lon="-1.610036">
        <ele>470.1</ele>
        <time>2018-06-16T09:46:14Z</time>
      </trkpt>
      <trkpt lat="43.255447" lon="-1.610118">
        <ele>470.4</ele>
        <time>2018-06-16T09:46:15Z</time>
      </trkpt>
      <trkpt lat="43.255466" lon="-1.610221">
        <ele>471.0</ele>
        <time>2018-06-16T09:46:17Z</time>
      </trkpt>
      <trkpt lat="43.255474" lon="-1.610324">
        <ele>471.8</ele>
        <time>2018-06-16T09:46:19Z</time>
      </trkpt>
      <trkpt lat="43.255476" lon="-1.610415">
        <ele>472.6</ele>
        <time>2018-06-16T09:46:21Z</time>
      </trkpt>
      <trkpt lat="43.255466" lon="-1.610562">
        <ele>473.2</ele>
        <time>2018-06-16T09:46:24Z</time>
      </trkpt>
      <trkpt lat="43.255446" lon="-1.610686">
        <ele>473.4</ele>
        <time>2018-06-16T09:46:26Z</time>
      </trkpt>
      <trkpt lat="43.255162" lon="-1.612447">
        <ele>465.1</ele>
        <time>2018-06-16T09:47:01Z</time>
      </trkpt>
      <trkpt lat="43.255165" lon="-1.612508">
        <ele>465.5</ele>
        <time>2018-06-16T09:47:02Z</time>
      </trkpt>
      <trkpt lat="43.255176" lon="-1.612590">
        <ele>466.1</ele>
        <time>2018-06-16T09:47:04Z</time>
      </trkpt>
      <trkpt lat="43.255209" lon="-1.612695">
        <ele>466.8</ele>
        <time>2018-06-16T09:47:06Z</time>
      </trkpt>
      <trkpt lat="43.255236" lon="-1.612793">
        <ele>467.0</ele>
        <time>2018-06-16T09:47:08Z</time>
      </trkpt>
      <trkpt lat="43.255271" lon="-1.612860">
        <ele>467.4</ele>
        <time>2018-06-16T09:47:10Z</time>
      </trkpt>
      <trkpt lat="43.255337" lon="-1.612941">
        <ele>468.2</ele>
        <time>2018-06-16T09:47:12Z</time>
      </trkpt>
      <trkpt lat="43.255537" lon="-1.613143">
        <ele>469.9</ele>
        <time>2018-06-16T09:47:19Z</time>
      </trkpt>
      <trkpt lat="43.255621" lon="-1.613256">
        <ele>470.0</ele>
        <time>2018-06-16T09:47:22Z</time>
      </trkpt>
      <trkpt lat="43.255649" lon="-1.613301">
        <ele>470.3</ele>
        <time>2018-06-16T09:47:23Z</time>
      </trkpt>
      <trkpt lat="43.255680" lon="-1.613397">
        <ele>471.2</ele>
        <time>2018-06-16T09:47:25Z</time>
      </trkpt>
      <trkpt lat="43.255716" lon="-1.613532">
        <ele>472.0</ele>
        <time>2018-06-16T09:47:28Z</time>
      </trkpt>
      <trkpt lat="43.255746" lon="-1.613627">
        <ele>472.0</ele>
        <time>2018-06-16T09:47:30Z</time>
      </trkpt>
      <trkpt lat="43.256194" lon="-1.614742">
        <ele>479.0</ele>
        <time>2018-06-16T09:47:54Z</time>
      </trkpt>
      <trkpt lat="43.256233" lon="-1.614877">
        <ele>477.9</ele>
        <time>2018-06-16T09:47:57Z</time>
      </trkpt>
      <trkpt lat="43.256254" lon="-1.614958">
        <ele>477.5</ele>
        <time>2018-06-16T09:47:59Z</time>
      </trkpt>
      <trkpt lat="43.256268" lon="-1.615062">
        <ele>476.9</ele>
        <time>2018-06-16T09:48:01Z</time>
      </trkpt>
      <trkpt lat="43.256289" lon="-1.615349">
        <ele>473.8</ele>
        <time>2018-06-16T09:48:06Z</time>
      </trkpt>
      <trkpt lat="43.256303" lon="-1.615487">
        <ele>471.6</ele>
        <time>2018-06-16T09:48:09Z</time>
      </trkpt>
      <trkpt lat="43.256323" lon="-1.615587">
        <ele>469.4</ele>
        <time>2018-06-16T09:48:11Z</time>
      </trkpt>
      <trkpt lat="43.256346" lon="-1.615658">
        <ele>467.8</ele>
        <time>2018-06-16T09:48:13Z</time>
      </trkpt>
      <trkpt lat="43.256365" lon="-1.615708">
        <ele>466.5</ele>
        <time>2018-06-16T09:48:14Z</time>
      </trkpt>
      <trkpt lat="43.256426" lon="-1.615815">
        <ele>465.1</ele>
        <time>2018-06-16T09:48:16Z</time>
      </trkpt>
      <trkpt lat="43.256463" lon="-1.615856">
        <ele>465.1</ele>
        <time>2018-06-16T09:48:18Z</time>
      </trkpt>
      <trkpt lat="43.256534" lon="-1.615900">
        <ele>465.6</ele>
        <time>2018-06-16T09:48:20Z</time>
      </trkpt>
      <trkpt lat="43.256662" lon="-1.615937">
        <ele>462.9</ele>
        <time>2018-06-16T09:48:23Z</time>
      </trkpt>
      <trkpt lat="43.256746" lon="-1.615972">
        <ele>461.3</ele>
        <time>2018-06-16T09:48:25Z</time>
      </trkpt>
      <trkpt lat="43.256797" lon="-1.616013">
        <ele>461.4</ele>
        <time>2018-06-16T09:48:27Z</time>
      </trkpt>
      <trkpt lat="43.256909" lon="-1.616142">
        <ele>468.3</ele>
        <time>2018-06-16T09:48:31Z</time>
      </trkpt>
      <trkpt lat="43.256996" lon="-1.616241">
        <ele>471.7</ele>
        <time>2018-06-16T09:48:34Z</time>
      </trkpt>
      <trkpt lat="43.257046" lon="-1.616289">
        <ele>473.9</ele>
        <time>2018-06-16T09:48:36Z</time>
      </trkpt>
      <trkpt lat="43.257341" lon="-1.616459">
        <ele>488.5</ele>
        <time>2018-06-16T09:48:45Z</time>
      </trkpt>
      <trkpt lat="43.257657" lon="-1.616633">
        <ele>492.5</ele>
        <time>2018-06-16T09:48:54Z</time>
      </trkpt>
      <trkpt lat="43.257773" lon="-1.616709">
        <ele>491.5</ele>
        <time>2018-06-16T09:48:58Z</time>
      </trkpt>
      <trkpt lat="43.257915" lon="-1.616858">
        <ele>492.2</ele>
        <time>2018-06-16T09:49:02Z</time>
      </trkpt>
      <trkpt lat="43.258004" lon="-1.616944">
        <ele>490.8</ele>
        <time>2018-06-16T09:49:05Z</time>
      </trkpt>
      <trkpt lat="43.258059" lon="-1.616982">
        <ele>490.0</ele>
        <time>2018-06-16T09:49:07Z</time>
      </trkpt>
      <trkpt lat="43.258108" lon="-1.617014">
        <ele>489.3</ele>
        <time>2018-06-16T09:49:08Z</time>
      </trkpt>
      <trkpt lat="43.258177" lon="-1.617049">
        <ele>488.3</ele>
        <time>2018-06-16T09:49:10Z</time>
      </trkpt>
      <trkpt lat="43.258253" lon="-1.617072">
        <ele>487.6</ele>
        <time>2018-06-16T09:49:12Z</time>
      </trkpt>
      <trkpt lat="43.258339" lon="-1.617078">
        <ele>486.3</ele>
        <time>2018-06-16T09:49:14Z</time>
      </trkpt>
      <trkpt lat="43.258394" lon="-1.617065">
        <ele>485.1</ele>
        <time>2018-06-16T09:49:16Z</time>
      </trkpt>
      <trkpt lat="43.258506" lon="-1.617034">
        <ele>484.0</ele>
        <time>2018-06-16T09:49:19Z</time>
      </trkpt>
      <trkpt lat="43.258669" lon="-1.616975">
        <ele>485.0</ele>
        <time>2018-06-16T09:49:23Z</time>
      </trkpt>
      <trkpt lat="43.258870" lon="-1.616881">
        <ele>484.0</ele>
        <time>2018-06-16T09:49:29Z</time>
      </trkpt>
      <trkpt lat="43.259035" lon="-1.616805">
        <ele>484.8</ele>
        <time>2018-06-16T09:49:34Z</time>
      </trkpt>
      <trkpt lat="43.259076" lon="-1.616797">
        <ele>483.5</ele>
        <time>2018-06-16T09:49:35Z</time>
      </trkpt>
      <trkpt lat="43.259114" lon="-1.616805">
        <ele>482.5</ele>
        <time>2018-06-16T09:49:36Z</time>
      </trkpt>
      <trkpt lat="43.259169" lon="-1.616846">
        <ele>480.8</ele>
        <time>2018-06-16T09:49:38Z</time>
      </trkpt>
      <trkpt lat="43.259245" lon="-1.616933">
        <ele>478.4</ele>
        <time>2018-06-16T09:49:40Z</time>
      </trkpt>
      <trkpt lat="43.259280" lon="-1.616993">
        <ele>477.1</ele>
        <time>2018-06-16T09:49:42Z</time>
      </trkpt>
      <trkpt lat="43.259442" lon="-1.617349">
        <ele>469.7</ele>
        <time>2018-06-16T09:49:50Z</time>
      </trkpt>
      <trkpt lat="43.259706" lon="-1.617949">
        <ele>451.5</ele>
        <time>2018-06-16T09:50:04Z</time>
      </trkpt>
      <trkpt lat="43.259797" lon="-1.618109">
        <ele>447.4</ele>
        <time>2018-06-16T09:50:08Z</time>
      </trkpt>
      <trkpt lat="43.259874" lon="-1.618205">
        <ele>445.1</ele>
        <time>2018-06-16T09:50:11Z</time>
      </trkpt>
      <trkpt lat="43.260008" lon="-1.618326">
        <ele>446.1</ele>
        <time>2018-06-16T09:50:15Z</time>
      </trkpt>
      <trkpt lat="43.260096" lon="-1.618385">
        <ele>447.2</ele>
        <time>2018-06-16T09:50:18Z</time>
      </trkpt>
      <trkpt lat="43.260298" lon="-1.618517">
        <ele>446.5</ele>
        <time>2018-06-16T09:50:24Z</time>
      </trkpt>
      <trkpt lat="43.260378" lon="-1.618570">
        <ele>445.8</ele>
        <time>2018-06-16T09:50:26Z</time>
      </trkpt>
      <trkpt lat="43.260487" lon="-1.618768">
        <ele>444.4</ele>
        <time>2018-06-16T09:50:31Z</time>
      </trkpt>
      <trkpt lat="43.260574" lon="-1.618973">
        <ele>439.6</ele>
        <time>2018-06-16T09:50:35Z</time>
      </trkpt>
      <trkpt lat="43.260849" lon="-1.619254">
        <ele>434.0</ele>
        <time>2018-06-16T09:50:45Z</time>
      </trkpt>
      <trkpt lat="43.260937" lon="-1.619341">
        <ele>432.8</ele>
        <time>2018-06-16T09:50:47Z</time>
      </trkpt>
      <trkpt lat="43.261358" lon="-1.619647">
        <ele>433.7</ele>
        <time>2018-06-16T09:51:00Z</time>
      </trkpt>
      <trkpt lat="43.261684" lon="-1.619874">
        <ele>434.5</ele>
        <time>2018-06-16T09:51:10Z</time>
      </trkpt>
      <trkpt lat="43.261778" lon="-1.619962">
        <ele>434.0</ele>
        <time>2018-06-16T09:51:13Z</time>
      </trkpt>
      <trkpt lat="43.261823" lon="-1.620038">
        <ele>433.3</ele>
        <time>2018-06-16T09:51:15Z</time>
      </trkpt>
      <trkpt lat="43.261905" lon="-1.620202">
        <ele>434.4</ele>
        <time>2018-06-16T09:51:18Z</time>
      </trkpt>
      <trkpt lat="43.262173" lon="-1.620764">
        <ele>440.3</ele>
        <time>2018-06-16T09:51:31Z</time>
      </trkpt>
      <trkpt lat="43.262466" lon="-1.621597">
        <ele>438.2</ele>
        <time>2018-06-16T09:51:49Z</time>
      </trkpt>
      <trkpt lat="43.262529" lon="-1.621812">
        <ele>435.0</ele>
        <time>2018-06-16T09:51:54Z</time>
      </trkpt>
      <trkpt lat="43.262540" lon="-1.621891">
        <ele>434.9</ele>
        <time>2018-06-16T09:51:55Z</time>
      </trkpt>
      <trkpt lat="43.262553" lon="-1.621998">
        <ele>434.7</ele>
        <time>2018-06-16T09:51:57Z</time>
      </trkpt>
      <trkpt lat="43.262572" lon="-1.622121">
        <ele>434.3</ele>
        <time>2018-06-16T09:52:00Z</time>
      </trkpt>
      <trkpt lat="43.262581" lon="-1.622198">
        <ele>433.5</ele>
        <time>2018-06-16T09:52:01Z</time>
      </trkpt>
      <trkpt lat="43.262619" lon="-1.622310">
        <ele>433.1</ele>
        <time>2018-06-16T09:52:04Z</time>
      </trkpt>
      <trkpt lat="43.262668" lon="-1.622394">
        <ele>432.5</ele>
        <time>2018-06-16T09:52:06Z</time>
      </trkpt>
      <trkpt lat="43.262948" lon="-1.622756">
        <ele>424.7</ele>
        <time>2018-06-16T09:52:16Z</time>
      </trkpt>
      <trkpt lat="43.263032" lon="-1.622832">
        <ele>424.2</ele>
        <time>2018-06-16T09:52:19Z</time>
      </trkpt>
      <trkpt lat="43.263145" lon="-1.622904">
        <ele>423.7</ele>
        <time>2018-06-16T09:52:22Z</time>
      </trkpt>
      <trkpt lat="43.263318" lon="-1.622985">
        <ele>428.8</ele>
        <time>2018-06-16T09:52:27Z</time>
      </trkpt>
      <trkpt lat="43.263532" lon="-1.623069">
        <ele>437.6</ele>
        <time>2018-06-16T09:52:33Z</time>
      </trkpt>
      <trkpt lat="43.263806" lon="-1.623188">
        <ele>446.1</ele>
        <time>2018-06-16T09:52:41Z</time>
      </trkpt>
      <trkpt lat="43.263838" lon="-1.623205">
        <ele>447.0</ele>
        <time>2018-06-16T09:52:42Z</time>
      </trkpt>
      <trkpt lat="43.263865" lon="-1.623240">
        <ele>447.3</ele>
        <time>2018-06-16T09:52:43Z</time>
      </trkpt>
      <trkpt lat="43.263880" lon="-1.623299">
        <ele>446.7</ele>
        <time>2018-06-16T09:52:44Z</time>
      </trkpt>
      <trkpt lat="43.263875" lon="-1.623385">
        <ele>445.0</ele>
        <time>2018-06-16T09:52:46Z</time>
      </trkpt>
      <trkpt lat="43.263858" lon="-1.623494">
        <ele>442.9</ele>
        <time>2018-06-16T09:52:48Z</time>
      </trkpt>
      <trkpt lat="43.263853" lon="-1.623558">
        <ele>442.2</ele>
        <time>2018-06-16T09:52:49Z</time>
      </trkpt>
      <trkpt lat="43.263855" lon="-1.623659">
        <ele>441.1</ele>
        <time>2018-06-16T09:52:51Z</time>
      </trkpt>
      <trkpt lat="43.263868" lon="-1.623768">
        <ele>440.0</ele>
        <time>2018-06-16T09:52:53Z</time>
      </trkpt>
      <trkpt lat="43.263886" lon="-1.623862">
        <ele>438.6</ele>
        <time>2018-06-16T09:52:55Z</time>
      </trkpt>
      <trkpt lat="43.263922" lon="-1.623951">
        <ele>438.0</ele>
        <time>2018-06-16T09:52:57Z</time>
      </trkpt>
      <trkpt lat="43.263965" lon="-1.624020">
        <ele>438.3</ele>
        <time>2018-06-16T09:52:59Z</time>
      </trkpt>
      <trkpt lat="43.264118" lon="-1.624178">
        <ele>444.8</ele>
        <time>2018-06-16T09:53:04Z</time>
      </trkpt>
      <trkpt lat="43.264149" lon="-1.624218">
        <ele>446.1</ele>
        <time>2018-06-16T09:53:05Z</time>
      </trkpt>
      <trkpt lat="43.264170" lon="-1.624292">
        <ele>447.1</ele>
        <time>2018-06-16T09:53:07Z</time>
      </trkpt>
      <trkpt lat="43.264167" lon="-1.624360">
        <ele>448.4</ele>
        <time>2018-06-16T09:53:08Z</time>
      </trkpt>
      <trkpt lat="43.264157" lon="-1.624423">
        <ele>449.7</ele>
        <time>2018-06-16T09:53:10Z</time>
      </trkpt>
      <trkpt lat="43.264144" lon="-1.624472">
        <ele>450.5</ele>
        <time>2018-06-16T09:53:11Z</time>
      </trkpt>
      <trkpt lat="43.264096" lon="-1.624545">
        <ele>450.6</ele>
        <time>2018-06-16T09:53:12Z</time>
      </trkpt>
      <trkpt lat="43.263944" lon="-1.624793">
        <ele>450.6</ele>
        <time>2018-06-16T09:53:19Z</time>
      </trkpt>
      <trkpt lat="43.263560" lon="-1.625295">
        <ele>447.4</ele>
        <time>2018-06-16T09:53:33Z</time>
      </trkpt>
      <trkpt lat="43.263456" lon="-1.625484">
        <ele>444.2</ele>
        <time>2018-06-16T09:53:37Z</time>
      </trkpt>
      <trkpt lat="43.263432" lon="-1.625555">
        <ele>444.0</ele>
        <time>2018-06-16T09:53:39Z</time>
      </trkpt>
      <trkpt lat="43.263427" lon="-1.625623">
        <ele>444.3</ele>
        <time>2018-06-16T09:53:40Z</time>
      </trkpt>
      <trkpt lat="43.263440" lon="-1.625702">
        <ele>445.6</ele>
        <time>2018-06-16T09:53:42Z</time>
      </trkpt>
      <trkpt lat="43.263498" lon="-1.625841">
        <ele>450.4</ele>
        <time>2018-06-16T09:53:45Z</time>
      </trkpt>
      <trkpt lat="43.263522" lon="-1.625902">
        <ele>452.1</ele>
        <time>2018-06-16T09:53:46Z</time>
      </trkpt>
      <trkpt lat="43.263530" lon="-1.625985">
        <ele>453.5</ele>
        <time>2018-06-16T09:53:48Z</time>
      </trkpt>
      <trkpt lat="43.263519" lon="-1.626055">
        <ele>453.5</ele>
        <time>2018-06-16T09:53:49Z</time>
      </trkpt>
      <trkpt lat="43.263489" lon="-1.626124">
        <ele>453.0</ele>
        <time>2018-06-16T09:53:51Z</time>
      </trkpt>
      <trkpt lat="43.263430" lon="-1.626300">
        <ele>450.5</ele>
        <time>2018-06-16T09:53:55Z</time>
      </trkpt>
      <trkpt lat="43.263407" lon="-1.626395">
        <ele>448.6</ele>
        <time>2018-06-16T09:53:57Z</time>
      </trkpt>
      <trkpt lat="43.263295" lon="-1.627259">
        <ele>434.1</ele>
        <time>2018-06-16T09:54:14Z</time>
      </trkpt>
      <trkpt lat="43.263283" lon="-1.627453">
        <ele>433.2</ele>
        <time>2018-06-16T09:54:18Z</time>
      </trkpt>
      <trkpt lat="43.263271" lon="-1.627674">
        <ele>433.7</ele>
        <time>2018-06-16T09:54:22Z</time>
      </trkpt>
      <trkpt lat="43.263277" lon="-1.627841">
        <ele>438.9</ele>
        <time>2018-06-16T09:54:25Z</time>
      </trkpt>
      <trkpt lat="43.263262" lon="-1.628039">
        <ele>438.0</ele>
        <time>2018-06-16T09:54:29Z</time>
      </trkpt>
      <trkpt lat="43.263235" lon="-1.628225">
        <ele>432.8</ele>
        <time>2018-06-16T09:54:33Z</time>
      </trkpt>
      <trkpt lat="43.263186" lon="-1.628539">
        <ele>422.5</ele>
        <time>2018-06-16T09:54:40Z</time>
      </trkpt>
      <trkpt lat="43.263174" lon="-1.628601">
        <ele>422.7</ele>
        <time>2018-06-16T09:54:41Z</time>
      </trkpt>
      <trkpt lat="43.263173" lon="-1.628696">
        <ele>423.4</ele>
        <time>2018-06-16T09:54:43Z</time>
      </trkpt>
      <trkpt lat="43.263209" lon="-1.628879">
        <ele>425.3</ele>
        <time>2018-06-16T09:54:46Z</time>
      </trkpt>
      <trkpt lat="43.263261" lon="-1.629033">
        <ele>425.7</ele>
        <time>2018-06-16T09:54:50Z</time>
      </trkpt>
      <trkpt lat="43.263303" lon="-1.629133">
        <ele>425.2</ele>
        <time>2018-06-16T09:54:52Z</time>
      </trkpt>
      <trkpt lat="43.263557" lon="-1.629496">
        <ele>418.0</ele>
        <time>2018-06-16T09:55:02Z</time>
      </trkpt>
      <trkpt lat="43.263659" lon="-1.629621">
        <ele>414.3</ele>
        <time>2018-06-16T09:55:05Z</time>
      </trkpt>
      <trkpt lat="43.263774" lon="-1.629738">
        <ele>412.4</ele>
        <time>2018-06-16T09:55:09Z</time>
      </trkpt>
      <trkpt lat="43.263892" lon="-1.629818">
        <ele>412.2</ele>
        <time>2018-06-16T09:55:13Z</time>
      </trkpt>
      <trkpt lat="43.264011" lon="-1.629882">
        <ele>412.3</ele>
        <time>2018-06-16T09:55:16Z</time>
      </trkpt>
      <trkpt lat="43.264151" lon="-1.629937">
        <ele>415.6</ele>
        <time>2018-06-16T09:55:20Z</time>
      </trkpt>
      <trkpt lat="43.264356" lon="-1.630007">
        <ele>419.7</ele>
        <time>2018-06-16T09:55:26Z</time>
      </trkpt>
      <trkpt lat="43.264549" lon="-1.630079">
        <ele>422.2</ele>
        <time>2018-06-16T09:55:31Z</time>
      </trkpt>
      <trkpt lat="43.264693" lon="-1.630142">
        <ele>424.3</ele>
        <time>2018-06-16T09:55:35Z</time>
      </trkpt>
      <trkpt lat="43.264861" lon="-1.630245">
        <ele>424.9</ele>
        <time>2018-06-16T09:55:40Z</time>
      </trkpt>
      <trkpt lat="43.264956" lon="-1.630297">
        <ele>423.8</ele>
        <time>2018-06-16T09:55:42Z</time>
      </trkpt>
      <trkpt lat="43.265033" lon="-1.630318">
        <ele>423.6</ele>
        <time>2018-06-16T09:55:45Z</time>
      </trkpt>
      <trkpt lat="43.265119" lon="-1.630334">
        <ele>423.7</ele>
        <time>2018-06-16T09:55:47Z</time>
      </trkpt>
      <trkpt lat="43.265213" lon="-1.630322">
        <ele>425.1</ele>
        <time>2018-06-16T09:55:49Z</time>
      </trkpt>
      <trkpt lat="43.265302" lon="-1.630286">
        <ele>427.4</ele>
        <time>2018-06-16T09:55:52Z</time>
      </trkpt>
      <trkpt lat="43.265376" lon="-1.630231">
        <ele>430.3</ele>
        <time>2018-06-16T09:55:54Z</time>
      </trkpt>
      <trkpt lat="43.265445" lon="-1.630148">
        <ele>433.4</ele>
        <time>2018-06-16T09:55:57Z</time>
      </trkpt>
      <trkpt lat="43.265522" lon="-1.630052">
        <ele>435.0</ele>
        <time>2018-06-16T09:55:59Z</time>
      </trkpt>
      <trkpt lat="43.265588" lon="-1.630015">
        <ele>435.4</ele>
        <time>2018-06-16T09:56:01Z</time>
      </trkpt>
      <trkpt lat="43.265689" lon="-1.630019">
        <ele>434.5</ele>
        <time>2018-06-16T09:56:04Z</time>
      </trkpt>
      <trkpt lat="43.265756" lon="-1.630057">
        <ele>432.9</ele>
        <time>2018-06-16T09:56:06Z</time>
      </trkpt>
      <trkpt lat="43.265831" lon="-1.630088">
        <ele>431.7</ele>
        <time>2018-06-16T09:56:08Z</time>
      </trkpt>
      <trkpt lat="43.265900" lon="-1.630089">
        <ele>431.3</ele>
        <time>2018-06-16T09:56:10Z</time>
      </trkpt>
      <trkpt lat="43.265946" lon="-1.630082">
        <ele>431.2</ele>
        <time>2018-06-16T09:56:11Z</time>
      </trkpt>
      <trkpt lat="43.266003" lon="-1.630052">
        <ele>431.7</ele>
        <time>2018-06-16T09:56:13Z</time>
      </trkpt>
      <trkpt lat="43.266047" lon="-1.630015">
        <ele>432.7</ele>
        <time>2018-06-16T09:56:14Z</time>
      </trkpt>
      <trkpt lat="43.266137" lon="-1.629898">
        <ele>436.0</ele>
        <time>2018-06-16T09:56:17Z</time>
      </trkpt>
      <trkpt lat="43.266196" lon="-1.629883">
        <ele>436.9</ele>
        <time>2018-06-16T09:56:19Z</time>
      </trkpt>
      <trkpt lat="43.266278" lon="-1.629889">
        <ele>437.8</ele>
        <time>2018-06-16T09:56:21Z</time>
      </trkpt>
      <trkpt lat="43.266341" lon="-1.629905">
        <ele>438.5</ele>
        <time>2018-06-16T09:56:23Z</time>
      </trkpt>
      <trkpt lat="43.266401" lon="-1.629962">
        <ele>438.0</ele>
        <time>2018-06-16T09:56:25Z</time>
      </trkpt>
      <trkpt lat="43.266489" lon="-1.630425">
        <ele>424.8</ele>
        <time>2018-06-16T09:56:35Z</time>
      </trkpt>
      <trkpt lat="43.266513" lon="-1.630507">
        <ele>422.7</ele>
        <time>2018-06-16T09:56:36Z</time>
      </trkpt>
      <trkpt lat="43.266558" lon="-1.630599">
        <ele>420.5</ele>
        <time>2018-06-16T09:56:39Z</time>
      </trkpt>
      <trkpt lat="43.266608" lon="-1.630662">
        <ele>419.1</ele>
        <time>2018-06-16T09:56:40Z</time>
      </trkpt>
      <trkpt lat="43.266658" lon="-1.630702">
        <ele>418.3</ele>
        <time>2018-06-16T09:56:42Z</time>
      </trkpt>
      <trkpt lat="43.266714" lon="-1.630719">
        <ele>418.0</ele>
        <time>2018-06-16T09:56:43Z</time>
      </trkpt>
      <trkpt lat="43.266781" lon="-1.630695">
        <ele>418.9</ele>
        <time>2018-06-16T09:56:45Z</time>
      </trkpt>
      <trkpt lat="43.266929" lon="-1.630609">
        <ele>424.0</ele>
        <time>2018-06-16T09:56:50Z</time>
      </trkpt>
      <trkpt lat="43.267331" lon="-1.630417">
        <ele>437.3</ele>
        <time>2018-06-16T09:57:01Z</time>
      </trkpt>
      <trkpt lat="43.267400" lon="-1.630390">
        <ele>438.1</ele>
        <time>2018-06-16T09:57:03Z</time>
      </trkpt>
      <trkpt lat="43.267477" lon="-1.630378">
        <ele>437.8</ele>
        <time>2018-06-16T09:57:05Z</time>
      </trkpt>
      <trkpt lat="43.267524" lon="-1.630372">
        <ele>437.6</ele>
        <time>2018-06-16T09:57:06Z</time>
      </trkpt>
      <trkpt lat="43.267558" lon="-1.630389">
        <ele>436.8</ele>
        <time>2018-06-16T09:57:07Z</time>
      </trkpt>
      <trkpt lat="43.267583" lon="-1.630416">
        <ele>435.6</ele>
        <time>2018-06-16T09:57:08Z</time>
      </trkpt>
      <trkpt lat="43.267603" lon="-1.630470">
        <ele>434.4</ele>
        <time>2018-06-16T09:57:10Z</time>
      </trkpt>
      <trkpt lat="43.267600" lon="-1.630532">
        <ele>433.4</ele>
        <time>2018-06-16T09:57:11Z</time>
      </trkpt>
      <trkpt lat="43.267587" lon="-1.630623">
        <ele>432.0</ele>
        <time>2018-06-16T09:57:13Z</time>
      </trkpt>
      <trkpt lat="43.267586" lon="-1.630777">
        <ele>429.2</ele>
        <time>2018-06-16T09:57:16Z</time>
      </trkpt>
      <trkpt lat="43.267607" lon="-1.630950">
        <ele>426.1</ele>
        <time>2018-06-16T09:57:19Z</time>
      </trkpt>
      <trkpt lat="43.267617" lon="-1.631099">
        <ele>423.0</ele>
        <time>2018-06-16T09:57:22Z</time>
      </trkpt>
      <trkpt lat="43.267629" lon="-1.631239">
        <ele>420.1</ele>
        <time>2018-06-16T09:57:25Z</time>
      </trkpt>
      <trkpt lat="43.267636" lon="-1.631348">
        <ele>420.3</ele>
        <time>2018-06-16T09:57:27Z</time>
      </trkpt>
      <trkpt lat="43.267630" lon="-1.631525">
        <ele>420.8</ele>
        <time>2018-06-16T09:57:30Z</time>
      </trkpt>
      <trkpt lat="43.267612" lon="-1.631608">
        <ele>420.5</ele>
        <time>2018-06-16T09:57:32Z</time>
      </trkpt>
      <trkpt lat="43.267561" lon="-1.631799">
        <ele>419.1</ele>
        <time>2018-06-16T09:57:36Z</time>
      </trkpt>
      <trkpt lat="43.267505" lon="-1.632047">
        <ele>420.0</ele>
        <time>2018-06-16T09:57:41Z</time>
      </trkpt>
      <trkpt lat="43.267492" lon="-1.632155">
        <ele>419.4</ele>
        <time>2018-06-16T09:57:43Z</time>
      </trkpt>
      <trkpt lat="43.267492" lon="-1.632220">
        <ele>419.3</ele>
        <time>2018-06-16T09:57:44Z</time>
      </trkpt>
      <trkpt lat="43.267502" lon="-1.632294">
        <ele>419.8</ele>
        <time>2018-06-16T09:57:46Z</time>
      </trkpt>
      <trkpt lat="43.267558" lon="-1.632466">
        <ele>422.5</ele>
        <time>2018-06-16T09:57:49Z</time>
      </trkpt>
      <trkpt lat="43.267631" lon="-1.632625">
        <ele>425.7</ele>
        <time>2018-06-16T09:57:53Z</time>
      </trkpt>
      <trkpt lat="43.267659" lon="-1.632754">
        <ele>424.4</ele>
        <time>2018-06-16T09:57:56Z</time>
      </trkpt>
      <trkpt lat="43.267672" lon="-1.632860">
        <ele>422.8</ele>
        <time>2018-06-16T09:57:58Z</time>
      </trkpt>
      <trkpt lat="43.267677" lon="-1.632970">
        <ele>419.9</ele>
        <time>2018-06-16T09:58:00Z</time>
      </trkpt>
      <trkpt lat="43.267669" lon="-1.633028">
        <ele>417.4</ele>
        <time>2018-06-16T09:58:01Z</time>
      </trkpt>
      <trkpt lat="43.267631" lon="-1.633131">
        <ele>412.4</ele>
        <time>2018-06-16T09:58:04Z</time>
      </trkpt>
      <trkpt lat="43.267572" lon="-1.633269">
        <ele>407.4</ele>
        <time>2018-06-16T09:58:07Z</time>
      </trkpt>
      <trkpt lat="43.267557" lon="-1.633338">
        <ele>405.6</ele>
        <time>2018-06-16T09:58:09Z</time>
      </trkpt>
      <trkpt lat="43.267561" lon="-1.633411">
        <ele>403.8</ele>
        <time>2018-06-16T09:58:10Z</time>
      </trkpt>
      <trkpt lat="43.267593" lon="-1.633472">
        <ele>402.2</ele>
        <time>2018-06-16T09:58:11Z</time>
      </trkpt>
      <trkpt lat="43.267642" lon="-1.633531">
        <ele>403.1</ele>
        <time>2018-06-16T09:58:13Z</time>
      </trkpt>
      <trkpt lat="43.267695" lon="-1.633564">
        <ele>404.9</ele>
        <time>2018-06-16T09:58:15Z</time>
      </trkpt>
      <trkpt lat="43.267756" lon="-1.633582">
        <ele>406.4</ele>
        <time>2018-06-16T09:58:16Z</time>
      </trkpt>
      <trkpt lat="43.267818" lon="-1.633591">
        <ele>407.7</ele>
        <time>2018-06-16T09:58:18Z</time>
      </trkpt>
      <trkpt lat="43.267884" lon="-1.633567">
        <ele>409.2</ele>
        <time>2018-06-16T09:58:20Z</time>
      </trkpt>
      <trkpt lat="43.267946" lon="-1.633519">
        <ele>410.5</ele>
        <time>2018-06-16T09:58:22Z</time>
      </trkpt>
      <trkpt lat="43.268064" lon="-1.633410">
        <ele>413.4</ele>
        <time>2018-06-16T09:58:26Z</time>
      </trkpt>
      <trkpt lat="43.268140" lon="-1.633352">
        <ele>415.6</ele>
        <time>2018-06-16T09:58:28Z</time>
      </trkpt>
      <trkpt lat="43.268190" lon="-1.633332">
        <ele>416.5</ele>
        <time>2018-06-16T09:58:29Z</time>
      </trkpt>
      <trkpt lat="43.268288" lon="-1.633345">
        <ele>416.1</ele>
        <time>2018-06-16T09:58:32Z</time>
      </trkpt>
      <trkpt lat="43.268407" lon="-1.633370">
        <ele>414.9</ele>
        <time>2018-06-16T09:58:35Z</time>
      </trkpt>
      <trkpt lat="43.268488" lon="-1.633376">
        <ele>414.7</ele>
        <time>2018-06-16T09:58:37Z</time>
      </trkpt>
      <trkpt lat="43.268805" lon="-1.633337">
        <ele>418.9</ele>
        <time>2018-06-16T09:58:46Z</time>
      </trkpt>
      <trkpt lat="43.268846" lon="-1.633351">
        <ele>419.0</ele>
        <time>2018-06-16T09:58:47Z</time>
      </trkpt>
      <trkpt lat="43.268877" lon="-1.633384">
        <ele>418.8</ele>
        <time>2018-06-16T09:58:48Z</time>
      </trkpt>
      <trkpt lat="43.268905" lon="-1.633437">
        <ele>418.3</ele>
        <time>2018-06-16T09:58:49Z</time>
      </trkpt>
      <trkpt lat="43.268936" lon="-1.633548">
        <ele>416.4</ele>
        <time>2018-06-16T09:58:52Z</time>
      </trkpt>
      <trkpt lat="43.268951" lon="-1.633653">
        <ele>414.4</ele>
        <time>2018-06-16T09:58:54Z</time>
      </trkpt>
      <trkpt lat="43.268986" lon="-1.633898">
        <ele>409.7</ele>
        <time>2018-06-16T09:58:59Z</time>
      </trkpt>
      <trkpt lat="43.269024" lon="-1.634104">
        <ele>404.7</ele>
        <time>2018-06-16T09:59:03Z</time>
      </trkpt>
      <trkpt lat="43.269067" lon="-1.634298">
        <ele>400.5</ele>
        <time>2018-06-16T09:59:07Z</time>
      </trkpt>
      <trkpt lat="43.269077" lon="-1.634390">
        <ele>398.8</ele>
        <time>2018-06-16T09:59:09Z</time>
      </trkpt>
      <trkpt lat="43.269086" lon="-1.634532">
        <ele>395.7</ele>
        <time>2018-06-16T09:59:12Z</time>
      </trkpt>
      <trkpt lat="43.269087" lon="-1.634707">
        <ele>392.6</ele>
        <time>2018-06-16T09:59:15Z</time>
      </trkpt>
      <trkpt lat="43.269091" lon="-1.634791">
        <ele>391.3</ele>
        <time>2018-06-16T09:59:17Z</time>
      </trkpt>
      <trkpt lat="43.269100" lon="-1.634862">
        <ele>390.2</ele>
        <time>2018-06-16T09:59:18Z</time>
      </trkpt>
      <trkpt lat="43.269127" lon="-1.634921">
        <ele>389.1</ele>
        <time>2018-06-16T09:59:19Z</time>
      </trkpt>
      <trkpt lat="43.269167" lon="-1.634947">
        <ele>388.8</ele>
        <time>2018-06-16T09:59:21Z</time>
      </trkpt>
      <trkpt lat="43.269210" lon="-1.634944">
        <ele>389.2</ele>
        <time>2018-06-16T09:59:22Z</time>
      </trkpt>
      <trkpt lat="43.269365" lon="-1.634873">
        <ele>389.5</ele>
        <time>2018-06-16T09:59:26Z</time>
      </trkpt>
      <trkpt lat="43.269444" lon="-1.634849">
        <ele>388.2</ele>
        <time>2018-06-16T09:59:28Z</time>
      </trkpt>
      <trkpt lat="43.269521" lon="-1.634854">
        <ele>386.5</ele>
        <time>2018-06-16T09:59:30Z</time>
      </trkpt>
      <trkpt lat="43.269599" lon="-1.634876">
        <ele>384.9</ele>
        <time>2018-06-16T09:59:32Z</time>
      </trkpt>
      <trkpt lat="43.269680" lon="-1.634931">
        <ele>385.0</ele>
        <time>2018-06-16T09:59:35Z</time>
      </trkpt>
      <trkpt lat="43.269782" lon="-1.635060">
        <ele>383.8</ele>
        <time>2018-06-16T09:59:38Z</time>
      </trkpt>
      <trkpt lat="43.269863" lon="-1.635188">
        <ele>382.0</ele>
        <time>2018-06-16T09:59:42Z</time>
      </trkpt>
      <trkpt lat="43.269915" lon="-1.635290">
        <ele>381.6</ele>
        <time>2018-06-16T09:59:44Z</time>
      </trkpt>
      <trkpt lat="43.269963" lon="-1.635370">
        <ele>381.9</ele>
        <time>2018-06-16T09:59:46Z</time>
      </trkpt>
      <trkpt lat="43.270060" lon="-1.635479">
        <ele>384.4</ele>
        <time>2018-06-16T09:59:49Z</time>
      </trkpt>
      <trkpt lat="43.270141" lon="-1.635541">
        <ele>387.6</ele>
        <time>2018-06-16T09:59:52Z</time>
      </trkpt>
      <trkpt lat="43.270178" lon="-1.635599">
        <ele>388.9</ele>
        <time>2018-06-16T09:59:54Z</time>
      </trkpt>
      <trkpt lat="43.270219" lon="-1.635691">
        <ele>389.9</ele>
        <time>2018-06-16T09:59:56Z</time>
      </trkpt>
      <trkpt lat="43.270244" lon="-1.635835">
        <ele>390.6</ele>
        <time>2018-06-16T09:59:58Z</time>
      </trkpt>
      <trkpt lat="43.270260" lon="-1.635977">
        <ele>390.8</ele>
        <time>2018-06-16T10:00:01Z</time>
      </trkpt>
      <trkpt lat="43.270293" lon="-1.636072">
        <ele>390.1</ele>
        <time>2018-06-16T10:00:03Z</time>
      </trkpt>
      <trkpt lat="43.270372" lon="-1.636215">
        <ele>390.6</ele>
        <time>2018-06-16T10:00:07Z</time>
      </trkpt>
      <trkpt lat="43.270516" lon="-1.636459">
        <ele>389.1</ele>
        <time>2018-06-16T10:00:13Z</time>
      </trkpt>
      <trkpt lat="43.270576" lon="-1.636567">
        <ele>388.6</ele>
        <time>2018-06-16T10:00:15Z</time>
      </trkpt>
      <trkpt lat="43.270602" lon="-1.636652">
        <ele>388.7</ele>
        <time>2018-06-16T10:00:17Z</time>
      </trkpt>
      <trkpt lat="43.270616" lon="-1.636738">
        <ele>388.9</ele>
        <time>2018-06-16T10:00:19Z</time>
      </trkpt>
      <trkpt lat="43.270609" lon="-1.636851">
        <ele>388.0</ele>
        <time>2018-06-16T10:00:21Z</time>
      </trkpt>
      <trkpt lat="43.270603" lon="-1.636987">
        <ele>386.9</ele>
        <time>2018-06-16T10:00:24Z</time>
      </trkpt>
      <trkpt lat="43.270568" lon="-1.637253">
        <ele>383.8</ele>
        <time>2018-06-16T10:00:29Z</time>
      </trkpt>
      <trkpt lat="43.270556" lon="-1.637367">
        <ele>382.0</ele>
        <time>2018-06-16T10:00:31Z</time>
      </trkpt>
      <trkpt lat="43.270559" lon="-1.637476">
        <ele>381.5</ele>
        <time>2018-06-16T10:00:33Z</time>
      </trkpt>
      <trkpt lat="43.270565" lon="-1.637572">
        <ele>381.3</ele>
        <time>2018-06-16T10:00:35Z</time>
      </trkpt>
      <trkpt lat="43.270578" lon="-1.637700">
        <ele>381.6</ele>
        <time>2018-06-16T10:00:38Z</time>
      </trkpt>
      <trkpt lat="43.270600" lon="-1.637806">
        <ele>382.4</ele>
        <time>2018-06-16T10:00:40Z</time>
      </trkpt>
      <trkpt lat="43.270622" lon="-1.637868">
        <ele>383.0</ele>
        <time>2018-06-16T10:00:41Z</time>
      </trkpt>
      <trkpt lat="43.270647" lon="-1.637890">
        <ele>383.8</ele>
        <time>2018-06-16T10:00:42Z</time>
      </trkpt>
      <trkpt lat="43.270690" lon="-1.637903">
        <ele>385.0</ele>
        <time>2018-06-16T10:00:43Z</time>
      </trkpt>
      <trkpt lat="43.270733" lon="-1.637897">
        <ele>385.6</ele>
        <time>2018-06-16T10:00:44Z</time>
      </trkpt>
      <trkpt lat="43.270780" lon="-1.637876">
        <ele>386.2</ele>
        <time>2018-06-16T10:00:45Z</time>
      </trkpt>
      <trkpt lat="43.270925" lon="-1.637751">
        <ele>388.7</ele>
        <time>2018-06-16T10:00:50Z</time>
      </trkpt>
      <trkpt lat="43.271117" lon="-1.637519">
        <ele>387.9</ele>
        <time>2018-06-16T10:00:57Z</time>
      </trkpt>
      <trkpt lat="43.271189" lon="-1.637437">
        <ele>386.9</ele>
        <time>2018-06-16T10:00:59Z</time>
      </trkpt>
      <trkpt lat="43.271248" lon="-1.637404">
        <ele>386.0</ele>
        <time>2018-06-16T10:01:01Z</time>
      </trkpt>
      <trkpt lat="43.271311" lon="-1.637352">
        <ele>384.5</ele>
        <time>2018-06-16T10:01:03Z</time>
      </trkpt>
      <trkpt lat="43.271373" lon="-1.637275">
        <ele>383.5</ele>
        <time>2018-06-16T10:01:05Z</time>
      </trkpt>
      <trkpt lat="43.271465" lon="-1.637128">
        <ele>382.3</ele>
        <time>2018-06-16T10:01:09Z</time>
      </trkpt>
      <trkpt lat="43.271557" lon="-1.637015">
        <ele>382.0</ele>
        <time>2018-06-16T10:01:12Z</time>
      </trkpt>
      <trkpt lat="43.271712" lon="-1.636833">
        <ele>382.6</ele>
        <time>2018-06-16T10:01:18Z</time>
      </trkpt>
      <trkpt lat="43.271897" lon="-1.636596">
        <ele>385.9</ele>
        <time>2018-06-16T10:01:24Z</time>
      </trkpt>
      <trkpt lat="43.272015" lon="-1.636406">
        <ele>388.3</ele>
        <time>2018-06-16T10:01:29Z</time>
      </trkpt>
      <trkpt lat="43.272123" lon="-1.636245">
        <ele>387.8</ele>
        <time>2018-06-16T10:01:33Z</time>
      </trkpt>
      <trkpt lat="43.272167" lon="-1.636139">
        <ele>387.0</ele>
        <time>2018-06-16T10:01:36Z</time>
      </trkpt>
      <trkpt lat="43.272239" lon="-1.635941">
        <ele>385.8</ele>
        <time>2018-06-16T10:01:40Z</time>
      </trkpt>
      <trkpt lat="43.272300" lon="-1.635777">
        <ele>383.6</ele>
        <time>2018-06-16T10:01:43Z</time>
      </trkpt>
      <trkpt lat="43.272355" lon="-1.635684">
        <ele>380.6</ele>
        <time>2018-06-16T10:01:46Z</time>
      </trkpt>
      <trkpt lat="43.272431" lon="-1.635550">
        <ele>380.0</ele>
        <time>2018-06-16T10:01:49Z</time>
      </trkpt>
      <trkpt lat="43.272485" lon="-1.635431">
        <ele>380.3</ele>
        <time>2018-06-16T10:01:52Z</time>
      </trkpt>
      <trkpt lat="43.272525" lon="-1.635309">
        <ele>381.3</ele>
        <time>2018-06-16T10:01:54Z</time>
      </trkpt>
      <trkpt lat="43.272565" lon="-1.635189">
        <ele>382.5</ele>
        <time>2018-06-16T10:01:57Z</time>
      </trkpt>
      <trkpt lat="43.272610" lon="-1.635083">
        <ele>383.2</ele>
        <time>2018-06-16T10:01:59Z</time>
      </trkpt>
      <trkpt lat="43.272661" lon="-1.634984">
        <ele>383.9</ele>
        <time>2018-06-16T10:02:02Z</time>
      </trkpt>
      <trkpt lat="43.272702" lon="-1.634940">
        <ele>384.1</ele>
        <time>2018-06-16T10:02:03Z</time>
      </trkpt>
      <trkpt lat="43.272785" lon="-1.634929">
        <ele>382.9</ele>
        <time>2018-06-16T10:02:05Z</time>
      </trkpt>
      <trkpt lat="43.273081" lon="-1.634968">
        <ele>379.3</ele>
        <time>2018-06-16T10:02:13Z</time>
      </trkpt>
      <trkpt lat="43.273150" lon="-1.635002">
        <ele>378.5</ele>
        <time>2018-06-16T10:02:15Z</time>
      </trkpt>
      <trkpt lat="43.273234" lon="-1.635054">
        <ele>377.6</ele>
        <time>2018-06-16T10:02:17Z</time>
      </trkpt>
      <trkpt lat="43.273339" lon="-1.635065">
        <ele>377.7</ele>
        <time>2018-06-16T10:02:20Z</time>
      </trkpt>
      <trkpt lat="43.273493" lon="-1.635044">
        <ele>378.3</ele>
        <time>2018-06-16T10:02:24Z</time>
      </trkpt>
      <trkpt lat="43.273808" lon="-1.634952">
        <ele>379.0</ele>
        <time>2018-06-16T10:02:33Z</time>
      </trkpt>
      <trkpt lat="43.274040" lon="-1.634851">
        <ele>381.6</ele>
        <time>2018-06-16T10:02:39Z</time>
      </trkpt>
      <trkpt lat="43.274345" lon="-1.634672">
        <ele>391.7</ele>
        <time>2018-06-16T10:02:48Z</time>
      </trkpt>
      <trkpt lat="43.275206" lon="-1.634108">
        <ele>375.5</ele>
        <time>2018-06-16T10:03:14Z</time>
      </trkpt>
      <trkpt lat="43.275263" lon="-1.634069">
        <ele>374.6</ele>
        <time>2018-06-16T10:03:16Z</time>
      </trkpt>
      <trkpt lat="43.275304" lon="-1.634012">
        <ele>375.1</ele>
        <time>2018-06-16T10:03:17Z</time>
      </trkpt>
      <trkpt lat="43.276256" lon="-1.632174">
        <ele>358.2</ele>
        <time>2018-06-16T10:04:01Z</time>
      </trkpt>
      <trkpt lat="43.276379" lon="-1.631928">
        <ele>358.6</ele>
        <time>2018-06-16T10:04:06Z</time>
      </trkpt>
      <trkpt lat="43.276451" lon="-1.631773">
        <ele>357.0</ele>
        <time>2018-06-16T10:04:10Z</time>
      </trkpt>
      <trkpt lat="43.276492" lon="-1.631626">
        <ele>355.3</ele>
        <time>2018-06-16T10:04:13Z</time>
      </trkpt>
      <trkpt lat="43.276524" lon="-1.631485">
        <ele>354.2</ele>
        <time>2018-06-16T10:04:16Z</time>
      </trkpt>
      <trkpt lat="43.276546" lon="-1.631438">
        <ele>354.3</ele>
        <time>2018-06-16T10:04:17Z</time>
      </trkpt>
      <trkpt lat="43.276589" lon="-1.631419">
        <ele>353.3</ele>
        <time>2018-06-16T10:04:18Z</time>
      </trkpt>
      <trkpt lat="43.276654" lon="-1.631423">
        <ele>351.0</ele>
        <time>2018-06-16T10:04:20Z</time>
      </trkpt>
      <trkpt lat="43.276930" lon="-1.631529">
        <ele>339.9</ele>
        <time>2018-06-16T10:04:28Z</time>
      </trkpt>
      <trkpt lat="43.277103" lon="-1.631613">
        <ele>333.6</ele>
        <time>2018-06-16T10:04:33Z</time>
      </trkpt>
      <trkpt lat="43.277278" lon="-1.631729">
        <ele>325.5</ele>
        <time>2018-06-16T10:04:38Z</time>
      </trkpt>
      <trkpt lat="43.277677" lon="-1.632007">
        <ele>310.7</ele>
        <time>2018-06-16T10:04:51Z</time>
      </trkpt>
      <trkpt lat="43.278086" lon="-1.632265">
        <ele>293.1</ele>
        <time>2018-06-16T10:05:03Z</time>
      </trkpt>
      <trkpt lat="43.278135" lon="-1.632330">
        <ele>291.2</ele>
        <time>2018-06-16T10:05:05Z</time>
      </trkpt>
      <trkpt lat="43.278145" lon="-1.632396">
        <ele>290.2</ele>
        <time>2018-06-16T10:05:06Z</time>
      </trkpt>
      <trkpt lat="43.278151" lon="-1.632515">
        <ele>288.6</ele>
        <time>2018-06-16T10:05:09Z</time>
      </trkpt>
      <trkpt lat="43.278147" lon="-1.632778">
        <ele>282.7</ele>
        <time>2018-06-16T10:05:14Z</time>
      </trkpt>
      <trkpt lat="43.278157" lon="-1.632841">
        <ele>280.7</ele>
        <time>2018-06-16T10:05:15Z</time>
      </trkpt>
      <trkpt lat="43.278180" lon="-1.632893">
        <ele>278.9</ele>
        <time>2018-06-16T10:05:17Z</time>
      </trkpt>
      <trkpt lat="43.278226" lon="-1.632944">
        <ele>276.8</ele>
        <time>2018-06-16T10:05:18Z</time>
      </trkpt>
      <trkpt lat="43.278267" lon="-1.632959">
        <ele>275.8</ele>
        <time>2018-06-16T10:05:19Z</time>
      </trkpt>
      <trkpt lat="43.278569" lon="-1.633102">
        <ele>265.3</ele>
        <time>2018-06-16T10:05:28Z</time>
      </trkpt>
      <trkpt lat="43.278836" lon="-1.633251">
        <ele>258.8</ele>
        <time>2018-06-16T10:05:36Z</time>
      </trkpt>
      <trkpt lat="43.278972" lon="-1.633350">
        <ele>257.4</ele>
        <time>2018-06-16T10:05:40Z</time>
      </trkpt>
      <trkpt lat="43.279069" lon="-1.633394">
        <ele>256.0</ele>
        <time>2018-06-16T10:05:43Z</time>
      </trkpt>
      <trkpt lat="43.279200" lon="-1.633420">
        <ele>252.9</ele>
        <time>2018-06-16T10:05:46Z</time>
      </trkpt>
      <trkpt lat="43.279289" lon="-1.633411">
        <ele>250.8</ele>
        <time>2018-06-16T10:05:49Z</time>
      </trkpt>
      <trkpt lat="43.279425" lon="-1.633391">
        <ele>247.7</ele>
        <time>2018-06-16T10:05:52Z</time>
      </trkpt>
      <trkpt lat="43.279513" lon="-1.633404">
        <ele>245.4</ele>
        <time>2018-06-16T10:05:55Z</time>
      </trkpt>
      <trkpt lat="43.279648" lon="-1.633454">
        <ele>243.6</ele>
        <time>2018-06-16T10:05:58Z</time>
      </trkpt>
      <trkpt lat="43.279746" lon="-1.633492">
        <ele>243.9</ele>
        <time>2018-06-16T10:06:01Z</time>
      </trkpt>
      <trkpt lat="43.279808" lon="-1.633536">
        <ele>243.8</ele>
        <time>2018-06-16T10:06:03Z</time>
      </trkpt>
      <trkpt lat="43.279904" lon="-1.633612">
        <ele>243.5</ele>
        <time>2018-06-16T10:06:06Z</time>
      </trkpt>
      <trkpt lat="43.279977" lon="-1.633689">
        <ele>242.9</ele>
        <time>2018-06-16T10:06:08Z</time>
      </trkpt>
      <trkpt lat="43.280131" lon="-1.633889">
        <ele>239.4</ele>
        <time>2018-06-16T10:06:14Z</time>
      </trkpt>
      <trkpt lat="43.280216" lon="-1.633980">
        <ele>238.9</ele>
        <time>2018-06-16T10:06:17Z</time>
      </trkpt>
      <trkpt lat="43.280295" lon="-1.634056">
        <ele>239.8</ele>
        <time>2018-06-16T10:06:19Z</time>
      </trkpt>
      <trkpt lat="43.280397" lon="-1.634157">
        <ele>240.0</ele>
        <time>2018-06-16T10:06:23Z</time>
      </trkpt>
      <trkpt lat="43.280464" lon="-1.634203">
        <ele>238.8</ele>
        <time>2018-06-16T10:06:25Z</time>
      </trkpt>
      <trkpt lat="43.280540" lon="-1.634196">
        <ele>238.4</ele>
        <time>2018-06-16T10:06:27Z</time>
      </trkpt>
      <trkpt lat="43.280582" lon="-1.634151">
        <ele>239.2</ele>
        <time>2018-06-16T10:06:28Z</time>
      </trkpt>
      <trkpt lat="43.280629" lon="-1.634093">
        <ele>240.5</ele>
        <time>2018-06-16T10:06:30Z</time>
      </trkpt>
      <trkpt lat="43.280782" lon="-1.633801">
        <ele>248.3</ele>
        <time>2018-06-16T10:06:37Z</time>
      </trkpt>
      <trkpt lat="43.281048" lon="-1.633316">
        <ele>250.2</ele>
        <time>2018-06-16T10:06:49Z</time>
      </trkpt>
      <trkpt lat="43.281132" lon="-1.633184">
        <ele>249.8</ele>
        <time>2018-06-16T10:06:52Z</time>
      </trkpt>
      <trkpt lat="43.281245" lon="-1.633050">
        <ele>251.1</ele>
        <time>2018-06-16T10:06:56Z</time>
      </trkpt>
      <trkpt lat="43.281733" lon="-1.632562">
        <ele>233.0</ele>
        <time>2018-06-16T10:07:12Z</time>
      </trkpt>
      <trkpt lat="43.281825" lon="-1.632461">
        <ele>230.9</ele>
        <time>2018-06-16T10:07:16Z</time>
      </trkpt>
      <trkpt lat="43.281889" lon="-1.632401">
        <ele>229.5</ele>
        <time>2018-06-16T10:07:18Z</time>
      </trkpt>
      <trkpt lat="43.281981" lon="-1.632353">
        <ele>227.6</ele>
        <time>2018-06-16T10:07:20Z</time>
      </trkpt>
      <trkpt lat="43.282217" lon="-1.632268">
        <ele>222.6</ele>
        <time>2018-06-16T10:07:27Z</time>
      </trkpt>
      <trkpt lat="43.282347" lon="-1.632235">
        <ele>220.6</ele>
        <time>2018-06-16T10:07:30Z</time>
      </trkpt>
      <trkpt lat="43.282396" lon="-1.632206">
        <ele>220.6</ele>
        <time>2018-06-16T10:07:32Z</time>
      </trkpt>
      <trkpt lat="43.282462" lon="-1.632252">
        <ele>220.5</ele>
        <time>2018-06-16T10:07:34Z</time>
      </trkpt>
      <trkpt lat="43.282520" lon="-1.632335">
        <ele>219.7</ele>
        <time>2018-06-16T10:07:36Z</time>
      </trkpt>
      <trkpt lat="43.282664" lon="-1.632586">
        <ele>219.1</ele>
        <time>2018-06-16T10:07:42Z</time>
      </trkpt>
      <trkpt lat="43.283003" lon="-1.633198">
        <ele>218.6</ele>
        <time>2018-06-16T10:07:57Z</time>
      </trkpt>
      <trkpt lat="43.283070" lon="-1.633434">
        <ele>219.5</ele>
        <time>2018-06-16T10:08:02Z</time>
      </trkpt>
      <trkpt lat="43.283119" lon="-1.633716">
        <ele>219.3</ele>
        <time>2018-06-16T10:08:07Z</time>
      </trkpt>
      <trkpt lat="43.283162" lon="-1.634331">
        <ele>213.9</ele>
        <time>2018-06-16T10:08:19Z</time>
      </trkpt>
      <trkpt lat="43.283133" lon="-1.634998">
        <ele>207.5</ele>
        <time>2018-06-16T10:08:32Z</time>
      </trkpt>
      <trkpt lat="43.283133" lon="-1.635181">
        <ele>204.4</ele>
        <time>2018-06-16T10:08:36Z</time>
      </trkpt>
      <trkpt lat="43.283172" lon="-1.635315">
        <ele>200.9</ele>
        <time>2018-06-16T10:08:39Z</time>
      </trkpt>
      <trkpt lat="43.283301" lon="-1.635524">
        <ele>197.8</ele>
        <time>2018-06-16T10:08:44Z</time>
      </trkpt>
      <trkpt lat="43.283473" lon="-1.635905">
        <ele>198.0</ele>
        <time>2018-06-16T10:08:52Z</time>
      </trkpt>
      <trkpt lat="43.283504" lon="-1.636050">
        <ele>199.3</ele>
        <time>2018-06-16T10:08:55Z</time>
      </trkpt>
      <trkpt lat="43.283503" lon="-1.636196">
        <ele>200.4</ele>
        <time>2018-06-16T10:08:58Z</time>
      </trkpt>
      <trkpt lat="43.283504" lon="-1.636307">
        <ele>202.1</ele>
        <time>2018-06-16T10:09:00Z</time>
      </trkpt>
      <trkpt lat="43.283475" lon="-1.636450">
        <ele>204.4</ele>
        <time>2018-06-16T10:09:03Z</time>
      </trkpt>
      <trkpt lat="43.283298" lon="-1.636739">
        <ele>203.2</ele>
        <time>2018-06-16T10:09:11Z</time>
      </trkpt>
      <trkpt lat="43.283074" lon="-1.637058">
        <ele>201.0</ele>
        <time>2018-06-16T10:09:19Z</time>
      </trkpt>
      <trkpt lat="43.282961" lon="-1.637289">
        <ele>200.3</ele>
        <time>2018-06-16T10:09:24Z</time>
      </trkpt>
      <trkpt lat="43.282894" lon="-1.637604">
        <ele>196.8</ele>
        <time>2018-06-16T10:09:31Z</time>
      </trkpt>
      <trkpt lat="43.282873" lon="-1.638088">
        <ele>189.2</ele>
        <time>2018-06-16T10:09:40Z</time>
      </trkpt>
      <trkpt lat="43.282942" lon="-1.638553">
        <ele>187.3</ele>
        <time>2018-06-16T10:09:49Z</time>
      </trkpt>
      <trkpt lat="43.283059" lon="-1.638748">
        <ele>183.1</ele>
        <time>2018-06-16T10:09:54Z</time>
      </trkpt>
      <trkpt lat="43.283180" lon="-1.638887">
        <ele>181.8</ele>
        <time>2018-06-16T10:09:58Z</time>
      </trkpt>
      <trkpt lat="43.283246" lon="-1.639005">
        <ele>181.8</ele>
        <time>2018-06-16T10:10:01Z</time>
      </trkpt>
      <trkpt lat="43.283307" lon="-1.639216">
        <ele>180.7</ele>
        <time>2018-06-16T10:10:06Z</time>
      </trkpt>
      <trkpt lat="43.283364" lon="-1.639610">
        <ele>176.9</ele>
        <time>2018-06-16T10:10:13Z</time>
      </trkpt>
      <trkpt lat="43.283399" lon="-1.639826">
        <ele>174.2</ele>
        <time>2018-06-16T10:10:18Z</time>
      </trkpt>
      <trkpt lat="43.283571" lon="-1.640073">
        <ele>176.5</ele>
        <time>2018-06-16T10:10:24Z</time>
      </trkpt>
      <trkpt lat="43.284004" lon="-1.640346">
        <ele>182.9</ele>
        <time>2018-06-16T10:10:37Z</time>
      </trkpt>
      <trkpt lat="43.284477" lon="-1.640604">
        <ele>177.3</ele>
        <time>2018-06-16T10:10:50Z</time>
      </trkpt>
      <trkpt lat="43.284641" lon="-1.640717">
        <ele>177.3</ele>
        <time>2018-06-16T10:10:55Z</time>
      </trkpt>
      <trkpt lat="43.284754" lon="-1.640749">
        <ele>177.1</ele>
        <time>2018-06-16T10:10:58Z</time>
      </trkpt>
      <trkpt lat="43.284860" lon="-1.640743">
        <ele>177.7</ele>
        <time>2018-06-16T10:11:01Z</time>
      </trkpt>
      <trkpt lat="43.285160" lon="-1.640760">
        <ele>169.3</ele>
        <time>2018-06-16T10:11:09Z</time>
      </trkpt>
      <trkpt lat="43.285301" lon="-1.640797">
        <ele>165.9</ele>
        <time>2018-06-16T10:11:13Z</time>
      </trkpt>
      <trkpt lat="43.285894" lon="-1.641382">
        <ele>154.5</ele>
        <time>2018-06-16T10:11:33Z</time>
      </trkpt>
      <trkpt lat="43.286016" lon="-1.641489">
        <ele>153.9</ele>
        <time>2018-06-16T10:11:36Z</time>
      </trkpt>
      <trkpt lat="43.286192" lon="-1.641566">
        <ele>151.9</ele>
        <time>2018-06-16T10:11:41Z</time>
      </trkpt>
      <trkpt lat="43.286312" lon="-1.641645">
        <ele>152.9</ele>
        <time>2018-06-16T10:11:45Z</time>
      </trkpt>
      <trkpt lat="43.286398" lon="-1.641757">
        <ele>153.5</ele>
        <time>2018-06-16T10:11:48Z</time>
      </trkpt>
      <trkpt lat="43.286492" lon="-1.641950">
        <ele>150.7</ele>
        <time>2018-06-16T10:11:53Z</time>
      </trkpt>
      <trkpt lat="43.286567" lon="-1.642197">
        <ele>149.4</ele>
        <time>2018-06-16T10:11:58Z</time>
      </trkpt>
      <trkpt lat="43.286711" lon="-1.642203">
        <ele>153.7</ele>
        <time>2018-06-16T10:12:02Z</time>
      </trkpt>
      <trkpt lat="43.286766" lon="-1.642213">
        <ele>155.3</ele>
        <time>2018-06-16T10:12:03Z</time>
      </trkpt>
      <trkpt lat="43.286853" lon="-1.642260">
        <ele>157.2</ele>
        <time>2018-06-16T10:12:06Z</time>
      </trkpt>
      <trkpt lat="43.286922" lon="-1.642351">
        <ele>157.9</ele>
        <time>2018-06-16T10:12:08Z</time>
      </trkpt>
      <trkpt lat="43.287047" lon="-1.642685">
        <ele>163.0</ele>
        <time>2018-06-16T10:12:15Z</time>
      </trkpt>
      <trkpt lat="43.287223" lon="-1.642814">
        <ele>167.5</ele>
        <time>2018-06-16T10:12:21Z</time>
      </trkpt>
      <trkpt lat="43.287356" lon="-1.642896">
        <ele>170.1</ele>
        <time>2018-06-16T10:12:25Z</time>
      </trkpt>
      <trkpt lat="43.287493" lon="-1.643016">
        <ele>173.2</ele>
        <time>2018-06-16T10:12:29Z</time>
      </trkpt>
      <trkpt lat="43.287608" lon="-1.643260">
        <ele>173.9</ele>
        <time>2018-06-16T10:12:35Z</time>
      </trkpt>
      <trkpt lat="43.287700" lon="-1.643412">
        <ele>173.5</ele>
        <time>2018-06-16T10:12:38Z</time>
      </trkpt>
      <trkpt lat="43.287769" lon="-1.643534">
        <ele>172.5</ele>
        <time>2018-06-16T10:12:41Z</time>
      </trkpt>
      <trkpt lat="43.287795" lon="-1.643842">
        <ele>173.2</ele>
        <time>2018-06-16T10:12:47Z</time>
      </trkpt>
      <trkpt lat="43.287766" lon="-1.644702">
        <ele>180.7</ele>
        <time>2018-06-16T10:13:04Z</time>
      </trkpt>
      <trkpt lat="43.287809" lon="-1.645012">
        <ele>180.0</ele>
        <time>2018-06-16T10:13:10Z</time>
      </trkpt>
      <trkpt lat="43.287949" lon="-1.645441">
        <ele>178.8</ele>
        <time>2018-06-16T10:13:19Z</time>
      </trkpt>
      <trkpt lat="43.288134" lon="-1.645837">
        <ele>176.2</ele>
        <time>2018-06-16T10:13:28Z</time>
      </trkpt>
      <trkpt lat="43.288199" lon="-1.646017">
        <ele>177.7</ele>
        <time>2018-06-16T10:13:32Z</time>
      </trkpt>
      <trkpt lat="43.288254" lon="-1.646213">
        <ele>176.8</ele>
        <time>2018-06-16T10:13:36Z</time>
      </trkpt>
      <trkpt lat="43.288342" lon="-1.646511">
        <ele>177.1</ele>
        <time>2018-06-16T10:13:42Z</time>
      </trkpt>
      <trkpt lat="43.288534" lon="-1.646671">
        <ele>175.6</ele>
        <time>2018-06-16T10:13:48Z</time>
      </trkpt>
      <trkpt lat="43.288681" lon="-1.646698">
        <ele>172.1</ele>
        <time>2018-06-16T10:13:52Z</time>
      </trkpt>
      <trkpt lat="43.288878" lon="-1.646751">
        <ele>167.3</ele>
        <time>2018-06-16T10:13:58Z</time>
      </trkpt>
      <trkpt lat="43.289417" lon="-1.646992">
        <ele>168.2</ele>
        <time>2018-06-16T10:14:13Z</time>
      </trkpt>
      <trkpt lat="43.289464" lon="-1.647080">
        <ele>168.6</ele>
        <time>2018-06-16T10:14:15Z</time>
      </trkpt>
      <trkpt lat="43.289489" lon="-1.647221">
        <ele>168.9</ele>
        <time>2018-06-16T10:14:17Z</time>
      </trkpt>
      <trkpt lat="43.289467" lon="-1.647480">
        <ele>169.0</ele>
        <time>2018-06-16T10:14:22Z</time>
      </trkpt>
      <trkpt lat="43.289489" lon="-1.647667">
        <ele>172.4</ele>
        <time>2018-06-16T10:14:26Z</time>
      </trkpt>
      <trkpt lat="43.289534" lon="-1.647797">
        <ele>175.8</ele>
        <time>2018-06-16T10:14:29Z</time>
      </trkpt>
      <trkpt lat="43.289642" lon="-1.647942">
        <ele>179.2</ele>
        <time>2018-06-16T10:14:33Z</time>
      </trkpt>
      <trkpt lat="43.289814" lon="-1.648014">
        <ele>182.0</ele>
        <time>2018-06-16T10:14:38Z</time>
      </trkpt>
      <trkpt lat="43.290437" lon="-1.648282">
        <ele>192.5</ele>
        <time>2018-06-16T10:14:55Z</time>
      </trkpt>
      <trkpt lat="43.290668" lon="-1.648350">
        <ele>197.8</ele>
        <time>2018-06-16T10:15:02Z</time>
      </trkpt>
      <trkpt lat="43.290892" lon="-1.648296">
        <ele>197.7</ele>
        <time>2018-06-16T10:15:08Z</time>
      </trkpt>
      <trkpt lat="43.290996" lon="-1.648291">
        <ele>199.1</ele>
        <time>2018-06-16T10:15:10Z</time>
      </trkpt>
      <trkpt lat="43.291091" lon="-1.648300">
        <ele>200.7</ele>
        <time>2018-06-16T10:15:13Z</time>
      </trkpt>
      <trkpt lat="43.291294" lon="-1.648479">
        <ele>203.0</ele>
        <time>2018-06-16T10:15:19Z</time>
      </trkpt>
      <trkpt lat="43.291375" lon="-1.648518">
        <ele>203.2</ele>
        <time>2018-06-16T10:15:22Z</time>
      </trkpt>
      <trkpt lat="43.291452" lon="-1.648506">
        <ele>202.6</ele>
        <time>2018-06-16T10:15:24Z</time>
      </trkpt>
      <trkpt lat="43.292476" lon="-1.647497">
        <ele>213.5</ele>
        <time>2018-06-16T10:15:57Z</time>
      </trkpt>
      <trkpt lat="43.292585" lon="-1.647417">
        <ele>214.0</ele>
        <time>2018-06-16T10:16:00Z</time>
      </trkpt>
      <trkpt lat="43.292649" lon="-1.647404">
        <ele>213.7</ele>
        <time>2018-06-16T10:16:02Z</time>
      </trkpt>
      <trkpt lat="43.292745" lon="-1.647399">
        <ele>212.3</ele>
        <time>2018-06-16T10:16:04Z</time>
      </trkpt>
      <trkpt lat="43.293227" lon="-1.647793">
        <ele>210.5</ele>
        <time>2018-06-16T10:16:19Z</time>
      </trkpt>
      <trkpt lat="43.293329" lon="-1.647819">
        <ele>210.7</ele>
        <time>2018-06-16T10:16:22Z</time>
      </trkpt>
      <trkpt lat="43.293460" lon="-1.647801">
        <ele>211.4</ele>
        <time>2018-06-16T10:16:25Z</time>
      </trkpt>
      <trkpt lat="43.293717" lon="-1.647716">
        <ele>219.4</ele>
        <time>2018-06-16T10:16:33Z</time>
      </trkpt>
      <trkpt lat="43.293799" lon="-1.647733">
        <ele>221.7</ele>
        <time>2018-06-16T10:16:35Z</time>
      </trkpt>
      <trkpt lat="43.293875" lon="-1.647805">
        <ele>223.4</ele>
        <time>2018-06-16T10:16:37Z</time>
      </trkpt>
      <trkpt lat="43.294316" lon="-1.648405">
        <ele>232.7</ele>
        <time>2018-06-16T10:16:54Z</time>
      </trkpt>
      <trkpt lat="43.294640" lon="-1.648782">
        <ele>229.4</ele>
        <time>2018-06-16T10:17:05Z</time>
      </trkpt>
      <trkpt lat="43.294959" lon="-1.648978">
        <ele>224.1</ele>
        <time>2018-06-16T10:17:14Z</time>
      </trkpt>
      <trkpt lat="43.295049" lon="-1.649071">
        <ele>223.8</ele>
        <time>2018-06-16T10:17:17Z</time>
      </trkpt>
      <trkpt lat="43.295182" lon="-1.649287">
        <ele>221.2</ele>
        <time>2018-06-16T10:17:23Z</time>
      </trkpt>
      <trkpt lat="43.295496" lon="-1.649719">
        <ele>219.4</ele>
        <time>2018-06-16T10:17:35Z</time>
      </trkpt>
      <trkpt lat="43.295794" lon="-1.650136">
        <ele>223.7</ele>
        <time>2018-06-16T10:17:46Z</time>
      </trkpt>
      <trkpt lat="43.295978" lon="-1.650471">
        <ele>229.9</ele>
        <time>2018-06-16T10:17:54Z</time>
      </trkpt>
      <trkpt lat="43.296069" lon="-1.650592">
        <ele>231.9</ele>
        <time>2018-06-16T10:17:57Z</time>
      </trkpt>
      <trkpt lat="43.296211" lon="-1.651144">
        <ele>247.3</ele>
        <time>2018-06-16T10:18:09Z</time>
      </trkpt>
      <trkpt lat="43.296207" lon="-1.651583">
        <ele>241.4</ele>
        <time>2018-06-16T10:18:18Z</time>
      </trkpt>
      <trkpt lat="43.296245" lon="-1.651973">
        <ele>244.0</ele>
        <time>2018-06-16T10:18:25Z</time>
      </trkpt>
      <trkpt lat="43.296324" lon="-1.652301">
        <ele>247.5</ele>
        <time>2018-06-16T10:18:32Z</time>
      </trkpt>
      <trkpt lat="43.296404" lon="-1.652534">
        <ele>246.8</ele>
        <time>2018-06-16T10:18:37Z</time>
      </trkpt>
      <trkpt lat="43.296455" lon="-1.652948">
        <ele>243.0</ele>
        <time>2018-06-16T10:18:45Z</time>
      </trkpt>
      <trkpt lat="43.296495" lon="-1.653107">
        <ele>240.3</ele>
        <time>2018-06-16T10:18:48Z</time>
      </trkpt>
      <trkpt lat="43.296709" lon="-1.653262">
        <ele>241.2</ele>
        <time>2018-06-16T10:18:55Z</time>
      </trkpt>
      <trkpt lat="43.296775" lon="-1.653323">
        <ele>242.1</ele>
        <time>2018-06-16T10:18:57Z</time>
      </trkpt>
      <trkpt lat="43.296840" lon="-1.653405">
        <ele>243.7</ele>
        <time>2018-06-16T10:18:59Z</time>
      </trkpt>
      <trkpt lat="43.296908" lon="-1.653613">
        <ele>245.9</ele>
        <time>2018-06-16T10:19:04Z</time>
      </trkpt>
      <trkpt lat="43.296986" lon="-1.654187">
        <ele>245.2</ele>
        <time>2018-06-16T10:19:15Z</time>
      </trkpt>
      <trkpt lat="43.297176" lon="-1.654759">
        <ele>241.1</ele>
        <time>2018-06-16T10:19:27Z</time>
      </trkpt>
      <trkpt lat="43.297202" lon="-1.655005">
        <ele>242.6</ele>
        <time>2018-06-16T10:19:32Z</time>
      </trkpt>
      <trkpt lat="43.297126" lon="-1.655318">
        <ele>242.1</ele>
        <time>2018-06-16T10:19:38Z</time>
      </trkpt>
      <trkpt lat="43.297075" lon="-1.655565">
        <ele>240.3</ele>
        <time>2018-06-16T10:19:43Z</time>
      </trkpt>
      <trkpt lat="43.297115" lon="-1.655737">
        <ele>242.3</ele>
        <time>2018-06-16T10:19:47Z</time>
      </trkpt>
      <trkpt lat="43.297179" lon="-1.655859">
        <ele>248.8</ele>
        <time>2018-06-16T10:19:50Z</time>
      </trkpt>
      <trkpt lat="43.297323" lon="-1.655951">
        <ele>254.2</ele>
        <time>2018-06-16T10:19:54Z</time>
      </trkpt>
      <trkpt lat="43.297422" lon="-1.655914">
        <ele>259.2</ele>
        <time>2018-06-16T10:19:57Z</time>
      </trkpt>
      <trkpt lat="43.297482" lon="-1.655862">
        <ele>263.3</ele>
        <time>2018-06-16T10:19:59Z</time>
      </trkpt>
      <trkpt lat="43.297548" lon="-1.655914">
        <ele>267.8</ele>
        <time>2018-06-16T10:20:02Z</time>
      </trkpt>
      <trkpt lat="43.297590" lon="-1.656018">
        <ele>269.8</ele>
        <time>2018-06-16T10:20:04Z</time>
      </trkpt>
      <trkpt lat="43.297598" lon="-1.656137">
        <ele>267.8</ele>
        <time>2018-06-16T10:20:06Z</time>
      </trkpt>
      <trkpt lat="43.297532" lon="-1.656323">
        <ele>263.8</ele>
        <time>2018-06-16T10:20:10Z</time>
      </trkpt>
      <trkpt lat="43.297603" lon="-1.656538">
        <ele>268.1</ele>
        <time>2018-06-16T10:20:15Z</time>
      </trkpt>
      <trkpt lat="43.297605" lon="-1.656722">
        <ele>272.3</ele>
        <time>2018-06-16T10:20:19Z</time>
      </trkpt>
      <trkpt lat="43.297562" lon="-1.656908">
        <ele>274.8</ele>
        <time>2018-06-16T10:20:22Z</time>
      </trkpt>
      <trkpt lat="43.297537" lon="-1.657110">
        <ele>277.5</ele>
        <time>2018-06-16T10:20:26Z</time>
      </trkpt>
      <trkpt lat="43.297490" lon="-1.657277">
        <ele>279.7</ele>
        <time>2018-06-16T10:20:30Z</time>
      </trkpt>
      <trkpt lat="43.297400" lon="-1.657373">
        <ele>282.5</ele>
        <time>2018-06-16T10:20:33Z</time>
      </trkpt>
      <trkpt lat="43.297252" lon="-1.657480">
        <ele>281.3</ele>
        <time>2018-06-16T10:20:37Z</time>
      </trkpt>
      <trkpt lat="43.297150" lon="-1.657625">
        <ele>280.5</ele>
        <time>2018-06-16T10:20:41Z</time>
      </trkpt>
      <trkpt lat="43.296926" lon="-1.658340">
        <ele>283.2</ele>
        <time>2018-06-16T10:20:56Z</time>
      </trkpt>
      <trkpt lat="43.296863" lon="-1.658507">
        <ele>284.3</ele>
        <time>2018-06-16T10:21:00Z</time>
      </trkpt>
      <trkpt lat="43.296606" lon="-1.658955">
        <ele>275.8</ele>
        <time>2018-06-16T10:21:11Z</time>
      </trkpt>
      <trkpt lat="43.296512" lon="-1.659225">
        <ele>269.7</ele>
        <time>2018-06-16T10:21:17Z</time>
      </trkpt>
      <trkpt lat="43.296474" lon="-1.659425">
        <ele>264.6</ele>
        <time>2018-06-16T10:21:21Z</time>
      </trkpt>
      <trkpt lat="43.296487" lon="-1.659496">
        <ele>263.3</ele>
        <time>2018-06-16T10:21:22Z</time>
      </trkpt>
      <trkpt lat="43.296617" lon="-1.659649">
        <ele>268.2</ele>
        <time>2018-06-16T10:21:27Z</time>
      </trkpt>
      <trkpt lat="43.296876" lon="-1.659882">
        <ele>284.5</ele>
        <time>2018-06-16T10:21:36Z</time>
      </trkpt>
      <trkpt lat="43.296930" lon="-1.659970">
        <ele>284.6</ele>
        <time>2018-06-16T10:21:38Z</time>
      </trkpt>
      <trkpt lat="43.296976" lon="-1.660091">
        <ele>283.8</ele>
        <time>2018-06-16T10:21:41Z</time>
      </trkpt>
      <trkpt lat="43.296966" lon="-1.660157">
        <ele>282.3</ele>
        <time>2018-06-16T10:21:42Z</time>
      </trkpt>
      <trkpt lat="43.296917" lon="-1.660238">
        <ele>281.3</ele>
        <time>2018-06-16T10:21:44Z</time>
      </trkpt>
      <trkpt lat="43.296849" lon="-1.660336">
        <ele>280.5</ele>
        <time>2018-06-16T10:21:47Z</time>
      </trkpt>
      <trkpt lat="43.296765" lon="-1.660665">
        <ele>279.6</ele>
        <time>2018-06-16T10:21:54Z</time>
      </trkpt>
      <trkpt lat="43.296763" lon="-1.660769">
        <ele>279.5</ele>
        <time>2018-06-16T10:21:56Z</time>
      </trkpt>
      <trkpt lat="43.296787" lon="-1.660838">
        <ele>279.5</ele>
        <time>2018-06-16T10:21:57Z</time>
      </trkpt>
      <trkpt lat="43.296873" lon="-1.661008">
        <ele>281.0</ele>
        <time>2018-06-16T10:22:01Z</time>
      </trkpt>
      <trkpt lat="43.297028" lon="-1.661193">
        <ele>285.4</ele>
        <time>2018-06-16T10:22:07Z</time>
      </trkpt>
      <trkpt lat="43.297094" lon="-1.661281">
        <ele>286.9</ele>
        <time>2018-06-16T10:22:09Z</time>
      </trkpt>
      <trkpt lat="43.297157" lon="-1.661326">
        <ele>288.6</ele>
        <time>2018-06-16T10:22:11Z</time>
      </trkpt>
      <trkpt lat="43.297231" lon="-1.661292">
        <ele>291.7</ele>
        <time>2018-06-16T10:22:13Z</time>
      </trkpt>
      <trkpt lat="43.297320" lon="-1.661198">
        <ele>295.4</ele>
        <time>2018-06-16T10:22:16Z</time>
      </trkpt>
      <trkpt lat="43.297444" lon="-1.661108">
        <ele>300.1</ele>
        <time>2018-06-16T10:22:20Z</time>
      </trkpt>
      <trkpt lat="43.297519" lon="-1.661069">
        <ele>303.3</ele>
        <time>2018-06-16T10:22:22Z</time>
      </trkpt>
      <trkpt lat="43.297601" lon="-1.661056">
        <ele>307.0</ele>
        <time>2018-06-16T10:22:25Z</time>
      </trkpt>
      <trkpt lat="43.297722" lon="-1.660983">
        <ele>315.5</ele>
        <time>2018-06-16T10:22:29Z</time>
      </trkpt>
      <trkpt lat="43.297863" lon="-1.660798">
        <ele>326.7</ele>
        <time>2018-06-16T10:22:35Z</time>
      </trkpt>
      <trkpt lat="43.298007" lon="-1.660643">
        <ele>334.6</ele>
        <time>2018-06-16T10:22:40Z</time>
      </trkpt>
      <trkpt lat="43.298203" lon="-1.660514">
        <ele>340.7</ele>
        <time>2018-06-16T10:22:46Z</time>
      </trkpt>
      <trkpt lat="43.298332" lon="-1.660401">
        <ele>338.0</ele>
        <time>2018-06-16T10:22:50Z</time>
      </trkpt>
      <trkpt lat="43.298537" lon="-1.660122">
        <ele>341.2</ele>
        <time>2018-06-16T10:22:57Z</time>
      </trkpt>
      <trkpt lat="43.298619" lon="-1.659978">
        <ele>345.1</ele>
        <time>2018-06-16T10:23:01Z</time>
      </trkpt>
      <trkpt lat="43.298669" lon="-1.659664">
        <ele>345.9</ele>
        <time>2018-06-16T10:23:07Z</time>
      </trkpt>
      <trkpt lat="43.298740" lon="-1.659473">
        <ele>344.3</ele>
        <time>2018-06-16T10:23:11Z</time>
      </trkpt>
      <trkpt lat="43.298795" lon="-1.659417">
        <ele>344.1</ele>
        <time>2018-06-16T10:23:13Z</time>
      </trkpt>
      <trkpt lat="43.298857" lon="-1.659382">
        <ele>343.9</ele>
        <time>2018-06-16T10:23:15Z</time>
      </trkpt>
      <trkpt lat="43.298963" lon="-1.659374">
        <ele>344.1</ele>
        <time>2018-06-16T10:23:18Z</time>
      </trkpt>
      <trkpt lat="43.299029" lon="-1.659339">
        <ele>343.2</ele>
        <time>2018-06-16T10:23:20Z</time>
      </trkpt>
      <trkpt lat="43.299075" lon="-1.659279">
        <ele>344.0</ele>
        <time>2018-06-16T10:23:21Z</time>
      </trkpt>
      <trkpt lat="43.299288" lon="-1.658949">
        <ele>349.2</ele>
        <time>2018-06-16T10:23:30Z</time>
      </trkpt>
      <trkpt lat="43.299506" lon="-1.658518">
        <ele>356.6</ele>
        <time>2018-06-16T10:23:40Z</time>
      </trkpt>
      <trkpt lat="43.299558" lon="-1.658323">
        <ele>360.1</ele>
        <time>2018-06-16T10:23:44Z</time>
      </trkpt>
      <trkpt lat="43.299645" lon="-1.658036">
        <ele>363.3</ele>
        <time>2018-06-16T10:23:50Z</time>
      </trkpt>
      <trkpt lat="43.299674" lon="-1.657869">
        <ele>362.2</ele>
        <time>2018-06-16T10:23:53Z</time>
      </trkpt>
      <trkpt lat="43.299659" lon="-1.657561">
        <ele>360.7</ele>
        <time>2018-06-16T10:23:59Z</time>
      </trkpt>
      <trkpt lat="43.299660" lon="-1.657384">
        <ele>363.0</ele>
        <time>2018-06-16T10:24:03Z</time>
      </trkpt>
      <trkpt lat="43.299737" lon="-1.657172">
        <ele>359.4</ele>
        <time>2018-06-16T10:24:07Z</time>
      </trkpt>
      <trkpt lat="43.299854" lon="-1.656965">
        <ele>359.0</ele>
        <time>2018-06-16T10:24:12Z</time>
      </trkpt>
      <trkpt lat="43.299898" lon="-1.656920">
        <ele>361.3</ele>
        <time>2018-06-16T10:24:14Z</time>
      </trkpt>
      <trkpt lat="43.299960" lon="-1.656888">
        <ele>363.7</ele>
        <time>2018-06-16T10:24:16Z</time>
      </trkpt>
      <trkpt lat="43.300062" lon="-1.656839">
        <ele>366.6</ele>
        <time>2018-06-16T10:24:19Z</time>
      </trkpt>
      <trkpt lat="43.300151" lon="-1.656764">
        <ele>366.4</ele>
        <time>2018-06-16T10:24:21Z</time>
      </trkpt>
      <trkpt lat="43.300216" lon="-1.656660">
        <ele>362.9</ele>
        <time>2018-06-16T10:24:24Z</time>
      </trkpt>
      <trkpt lat="43.300260" lon="-1.656591">
        <ele>361.3</ele>
        <time>2018-06-16T10:24:26Z</time>
      </trkpt>
      <trkpt lat="43.300288" lon="-1.656582">
        <ele>361.4</ele>
        <time>2018-06-16T10:24:27Z</time>
      </trkpt>
      <trkpt lat="43.300315" lon="-1.656597">
        <ele>361.9</ele>
        <time>2018-06-16T10:24:28Z</time>
      </trkpt>
      <trkpt lat="43.300351" lon="-1.656630">
        <ele>362.8</ele>
        <time>2018-06-16T10:24:29Z</time>
      </trkpt>
      <trkpt lat="43.300498" lon="-1.657084">
        <ele>369.1</ele>
        <time>2018-06-16T10:24:38Z</time>
      </trkpt>
      <trkpt lat="43.300635" lon="-1.657435">
        <ele>374.2</ele>
        <time>2018-06-16T10:24:46Z</time>
      </trkpt>
      <trkpt lat="43.300663" lon="-1.657537">
        <ele>377.6</ele>
        <time>2018-06-16T10:24:48Z</time>
      </trkpt>
      <trkpt lat="43.300704" lon="-1.657780">
        <ele>378.0</ele>
        <time>2018-06-16T10:24:53Z</time>
      </trkpt>
      <trkpt lat="43.300735" lon="-1.658066">
        <ele>373.1</ele>
        <time>2018-06-16T10:24:59Z</time>
      </trkpt>
      <trkpt lat="43.300733" lon="-1.658302">
        <ele>372.5</ele>
        <time>2018-06-16T10:25:03Z</time>
      </trkpt>
      <trkpt lat="43.300725" lon="-1.658408">
        <ele>372.4</ele>
        <time>2018-06-16T10:25:05Z</time>
      </trkpt>
      <trkpt lat="43.300698" lon="-1.658735">
        <ele>374.8</ele>
        <time>2018-06-16T10:25:12Z</time>
      </trkpt>
      <trkpt lat="43.300695" lon="-1.658842">
        <ele>375.6</ele>
        <time>2018-06-16T10:25:14Z</time>
      </trkpt>
      <trkpt lat="43.300703" lon="-1.658950">
        <ele>376.2</ele>
        <time>2018-06-16T10:25:16Z</time>
      </trkpt>
      <trkpt lat="43.300725" lon="-1.659114">
        <ele>375.6</ele>
        <time>2018-06-16T10:25:19Z</time>
      </trkpt>
      <trkpt lat="43.300821" lon="-1.659544">
        <ele>369.8</ele>
        <time>2018-06-16T10:25:28Z</time>
      </trkpt>
      <trkpt lat="43.300863" lon="-1.659794">
        <ele>365.9</ele>
        <time>2018-06-16T10:25:33Z</time>
      </trkpt>
      <trkpt lat="43.300872" lon="-1.659935">
        <ele>363.3</ele>
        <time>2018-06-16T10:25:36Z</time>
      </trkpt>
      <trkpt lat="43.300857" lon="-1.660261">
        <ele>358.2</ele>
        <time>2018-06-16T10:25:42Z</time>
      </trkpt>
      <trkpt lat="43.300828" lon="-1.660815">
        <ele>355.0</ele>
        <time>2018-06-16T10:25:53Z</time>
      </trkpt>
      <trkpt lat="43.300804" lon="-1.661132">
        <ele>356.4</ele>
        <time>2018-06-16T10:25:59Z</time>
      </trkpt>
      <trkpt lat="43.300780" lon="-1.661372">
        <ele>357.1</ele>
        <time>2018-06-16T10:26:03Z</time>
      </trkpt>
      <trkpt lat="43.300776" lon="-1.661462">
        <ele>357.4</ele>
        <time>2018-06-16T10:26:05Z</time>
      </trkpt>
      <trkpt lat="43.300780" lon="-1.661555">
        <ele>357.5</ele>
        <time>2018-06-16T10:26:07Z</time>
      </trkpt>
      <trkpt lat="43.300803" lon="-1.661714">
        <ele>357.3</ele>
        <time>2018-06-16T10:26:10Z</time>
      </trkpt>
      <trkpt lat="43.300853" lon="-1.662079">
        <ele>356.1</ele>
        <time>2018-06-16T10:26:17Z</time>
      </trkpt>
      <trkpt lat="43.300869" lon="-1.662254">
        <ele>355.8</ele>
        <time>2018-06-16T10:26:21Z</time>
      </trkpt>
      <trkpt lat="43.300900" lon="-1.663486">
        <ele>336.9</ele>
        <time>2018-06-16T10:26:45Z</time>
      </trkpt>
      <trkpt lat="43.300911" lon="-1.663718">
        <ele>334.7</ele>
        <time>2018-06-16T10:26:49Z</time>
      </trkpt>
      <trkpt lat="43.300906" lon="-1.663789">
        <ele>334.0</ele>
        <time>2018-06-16T10:26:51Z</time>
      </trkpt>
      <trkpt lat="43.300895" lon="-1.663858">
        <ele>333.3</ele>
        <time>2018-06-16T10:26:52Z</time>
      </trkpt>
      <trkpt lat="43.300866" lon="-1.663944">
        <ele>332.4</ele>
        <time>2018-06-16T10:26:54Z</time>
      </trkpt>
      <trkpt lat="43.300829" lon="-1.664029">
        <ele>331.5</ele>
        <time>2018-06-16T10:26:56Z</time>
      </trkpt>
      <trkpt lat="43.300612" lon="-1.664341">
        <ele>323.0</ele>
        <time>2018-06-16T10:27:04Z</time>
      </trkpt>
      <trkpt lat="43.300564" lon="-1.664390">
        <ele>322.0</ele>
        <time>2018-06-16T10:27:06Z</time>
      </trkpt>
      <trkpt lat="43.300526" lon="-1.664441">
        <ele>321.1</ele>
        <time>2018-06-16T10:27:07Z</time>
      </trkpt>
      <trkpt lat="43.300457" lon="-1.664590">
        <ele>318.8</ele>
        <time>2018-06-16T10:27:11Z</time>
      </trkpt>
      <trkpt lat="43.300425" lon="-1.664668">
        <ele>318.6</ele>
        <time>2018-06-16T10:27:12Z</time>
      </trkpt>
      <trkpt lat="43.300383" lon="-1.664731">
        <ele>318.4</ele>
        <time>2018-06-16T10:27:14Z</time>
      </trkpt>
      <trkpt lat="43.300315" lon="-1.664781">
        <ele>318.0</ele>
        <time>2018-06-16T10:27:16Z</time>
      </trkpt>
      <trkpt lat="43.300189" lon="-1.664846">
        <ele>317.3</ele>
        <time>2018-06-16T10:27:20Z</time>
      </trkpt>
      <trkpt lat="43.300083" lon="-1.664895">
        <ele>316.9</ele>
        <time>2018-06-16T10:27:23Z</time>
      </trkpt>
      <trkpt lat="43.299989" lon="-1.664937">
        <ele>316.8</ele>
        <time>2018-06-16T10:27:25Z</time>
      </trkpt>
      <trkpt lat="43.299861" lon="-1.665026">
        <ele>316.2</ele>
        <time>2018-06-16T10:27:29Z</time>
      </trkpt>
      <trkpt lat="43.299793" lon="-1.665099">
        <ele>316.1</ele>
        <time>2018-06-16T10:27:31Z</time>
      </trkpt>
      <trkpt lat="43.299730" lon="-1.665196">
        <ele>316.3</ele>
        <time>2018-06-16T10:27:34Z</time>
      </trkpt>
      <trkpt lat="43.299699" lon="-1.665283">
        <ele>316.6</ele>
        <time>2018-06-16T10:27:36Z</time>
      </trkpt>
      <trkpt lat="43.299689" lon="-1.665354">
        <ele>316.7</ele>
        <time>2018-06-16T10:27:37Z</time>
      </trkpt>
      <trkpt lat="43.299691" lon="-1.665502">
        <ele>316.9</ele>
        <time>2018-06-16T10:27:40Z</time>
      </trkpt>
      <trkpt lat="43.299726" lon="-1.665969">
        <ele>316.9</ele>
        <time>2018-06-16T10:27:49Z</time>
      </trkpt>
      <trkpt lat="43.299744" lon="-1.666128">
        <ele>317.1</ele>
        <time>2018-06-16T10:27:52Z</time>
      </trkpt>
      <trkpt lat="43.299780" lon="-1.666424">
        <ele>317.0</ele>
        <time>2018-06-16T10:27:58Z</time>
      </trkpt>
      <trkpt lat="43.299800" lon="-1.667042">
        <ele>322.2</ele>
        <time>2018-06-16T10:28:10Z</time>
      </trkpt>
      <trkpt lat="43.299812" lon="-1.667146">
        <ele>320.8</ele>
        <time>2018-06-16T10:28:12Z</time>
      </trkpt>
      <trkpt lat="43.299826" lon="-1.667225">
        <ele>318.2</ele>
        <time>2018-06-16T10:28:13Z</time>
      </trkpt>
      <trkpt lat="43.299856" lon="-1.667332">
        <ele>314.0</ele>
        <time>2018-06-16T10:28:16Z</time>
      </trkpt>
      <trkpt lat="43.299915" lon="-1.667505">
        <ele>315.1</ele>
        <time>2018-06-16T10:28:19Z</time>
      </trkpt>
      <trkpt lat="43.300029" lon="-1.667847">
        <ele>318.7</ele>
        <time>2018-06-16T10:28:27Z</time>
      </trkpt>
      <trkpt lat="43.300052" lon="-1.667960">
        <ele>319.4</ele>
        <time>2018-06-16T10:28:29Z</time>
      </trkpt>
      <trkpt lat="43.300064" lon="-1.668319">
        <ele>314.8</ele>
        <time>2018-06-16T10:28:36Z</time>
      </trkpt>
      <trkpt lat="43.300062" lon="-1.668437">
        <ele>312.8</ele>
        <time>2018-06-16T10:28:38Z</time>
      </trkpt>
      <trkpt lat="43.300052" lon="-1.668521">
        <ele>311.7</ele>
        <time>2018-06-16T10:28:40Z</time>
      </trkpt>
      <trkpt lat="43.300023" lon="-1.668602">
        <ele>311.2</ele>
        <time>2018-06-16T10:28:42Z</time>
      </trkpt>
      <trkpt lat="43.299972" lon="-1.668679">
        <ele>311.5</ele>
        <time>2018-06-16T10:28:44Z</time>
      </trkpt>
      <trkpt lat="43.299883" lon="-1.668778">
        <ele>313.1</ele>
        <time>2018-06-16T10:28:47Z</time>
      </trkpt>
      <trkpt lat="43.299782" lon="-1.668906">
        <ele>314.7</ele>
        <time>2018-06-16T10:28:50Z</time>
      </trkpt>
      <trkpt lat="43.299757" lon="-1.668951">
        <ele>314.9</ele>
        <time>2018-06-16T10:28:51Z</time>
      </trkpt>
      <trkpt lat="43.299748" lon="-1.668996">
        <ele>314.7</ele>
        <time>2018-06-16T10:28:52Z</time>
      </trkpt>
      <trkpt lat="43.299742" lon="-1.669041">
        <ele>314.3</ele>
        <time>2018-06-16T10:28:53Z</time>
      </trkpt>
      <trkpt lat="43.299736" lon="-1.669112">
        <ele>312.8</ele>
        <time>2018-06-16T10:28:55Z</time>
      </trkpt>
      <trkpt lat="43.299737" lon="-1.669193">
        <ele>311.0</ele>
        <time>2018-06-16T10:28:56Z</time>
      </trkpt>
      <trkpt lat="43.299745" lon="-1.669262">
        <ele>309.4</ele>
        <time>2018-06-16T10:28:58Z</time>
      </trkpt>
      <trkpt lat="43.299777" lon="-1.669386">
        <ele>306.5</ele>
        <time>2018-06-16T10:29:00Z</time>
      </trkpt>
      <trkpt lat="43.299806" lon="-1.669532">
        <ele>303.1</ele>
        <time>2018-06-16T10:29:03Z</time>
      </trkpt>
      <trkpt lat="43.299829" lon="-1.669655">
        <ele>302.9</ele>
        <time>2018-06-16T10:29:06Z</time>
      </trkpt>
      <trkpt lat="43.299833" lon="-1.669734">
        <ele>303.8</ele>
        <time>2018-06-16T10:29:07Z</time>
      </trkpt>
      <trkpt lat="43.299828" lon="-1.669818">
        <ele>304.8</ele>
        <time>2018-06-16T10:29:09Z</time>
      </trkpt>
      <trkpt lat="43.299815" lon="-1.669924">
        <ele>305.5</ele>
        <time>2018-06-16T10:29:11Z</time>
      </trkpt>
      <trkpt lat="43.299795" lon="-1.670039">
        <ele>306.2</ele>
        <time>2018-06-16T10:29:13Z</time>
      </trkpt>
      <trkpt lat="43.299763" lon="-1.670130">
        <ele>306.5</ele>
        <time>2018-06-16T10:29:15Z</time>
      </trkpt>
      <trkpt lat="43.299727" lon="-1.670215">
        <ele>306.6</ele>
        <time>2018-06-16T10:29:17Z</time>
      </trkpt>
      <trkpt lat="43.299702" lon="-1.670277">
        <ele>306.9</ele>
        <time>2018-06-16T10:29:18Z</time>
      </trkpt>
      <trkpt lat="43.299695" lon="-1.670324">
        <ele>307.2</ele>
        <time>2018-06-16T10:29:19Z</time>
      </trkpt>
      <trkpt lat="43.299696" lon="-1.670378">
        <ele>307.7</ele>
        <time>2018-06-16T10:29:20Z</time>
      </trkpt>
      <trkpt lat="43.299710" lon="-1.670419">
        <ele>308.1</ele>
        <time>2018-06-16T10:29:21Z</time>
      </trkpt>
      <trkpt lat="43.299744" lon="-1.670467">
        <ele>309.6</ele>
        <time>2018-06-16T10:29:23Z</time>
      </trkpt>
      <trkpt lat="43.299810" lon="-1.670525">
        <ele>310.6</ele>
        <time>2018-06-16T10:29:25Z</time>
      </trkpt>
      <trkpt lat="43.300121" lon="-1.670723">
        <ele>304.5</ele>
        <time>2018-06-16T10:29:34Z</time>
      </trkpt>
      <trkpt lat="43.300161" lon="-1.670760">
        <ele>303.9</ele>
        <time>2018-06-16T10:29:35Z</time>
      </trkpt>
      <trkpt lat="43.300210" lon="-1.670802">
        <ele>302.7</ele>
        <time>2018-06-16T10:29:37Z</time>
      </trkpt>
      <trkpt lat="43.300258" lon="-1.670873">
        <ele>302.2</ele>
        <time>2018-06-16T10:29:38Z</time>
      </trkpt>
      <trkpt lat="43.300307" lon="-1.670989">
        <ele>302.0</ele>
        <time>2018-06-16T10:29:41Z</time>
      </trkpt>
      <trkpt lat="43.300401" lon="-1.671337">
        <ele>301.1</ele>
        <time>2018-06-16T10:29:48Z</time>
      </trkpt>
      <trkpt lat="43.300459" lon="-1.671637">
        <ele>306.7</ele>
        <time>2018-06-16T10:29:54Z</time>
      </trkpt>
      <trkpt lat="43.300493" lon="-1.671863">
        <ele>304.0</ele>
        <time>2018-06-16T10:29:59Z</time>
      </trkpt>
      <trkpt lat="43.300493" lon="-1.671987">
        <ele>303.1</ele>
        <time>2018-06-16T10:30:01Z</time>
      </trkpt>
      <trkpt lat="43.300476" lon="-1.672198">
        <ele>304.7</ele>
        <time>2018-06-16T10:30:05Z</time>
      </trkpt>
      <trkpt lat="43.300434" lon="-1.672436">
        <ele>309.3</ele>
        <time>2018-06-16T10:30:10Z</time>
      </trkpt>
      <trkpt lat="43.300387" lon="-1.672656">
        <ele>312.3</ele>
        <time>2018-06-16T10:30:15Z</time>
      </trkpt>
      <trkpt lat="43.300346" lon="-1.672751">
        <ele>314.7</ele>
        <time>2018-06-16T10:30:17Z</time>
      </trkpt>
      <trkpt lat="43.300289" lon="-1.672875">
        <ele>318.1</ele>
        <time>2018-06-16T10:30:20Z</time>
      </trkpt>
      <trkpt lat="43.300202" lon="-1.673014">
        <ele>319.6</ele>
        <time>2018-06-16T10:30:23Z</time>
      </trkpt>
      <trkpt lat="43.299957" lon="-1.673312">
        <ele>316.3</ele>
        <time>2018-06-16T10:30:32Z</time>
      </trkpt>
      <trkpt lat="43.299767" lon="-1.673564">
        <ele>310.6</ele>
        <time>2018-06-16T10:30:39Z</time>
      </trkpt>
      <trkpt lat="43.299685" lon="-1.673710">
        <ele>303.1</ele>
        <time>2018-06-16T10:30:43Z</time>
      </trkpt>
      <trkpt lat="43.299502" lon="-1.674037">
        <ele>298.6</ele>
        <time>2018-06-16T10:30:51Z</time>
      </trkpt>
      <trkpt lat="43.299275" lon="-1.674446">
        <ele>300.4</ele>
        <time>2018-06-16T10:31:01Z</time>
      </trkpt>
      <trkpt lat="43.299226" lon="-1.674544">
        <ele>298.5</ele>
        <time>2018-06-16T10:31:03Z</time>
      </trkpt>
      <trkpt lat="43.299213" lon="-1.674613">
        <ele>298.7</ele>
        <time>2018-06-16T10:31:04Z</time>
      </trkpt>
      <trkpt lat="43.299209" lon="-1.674666">
        <ele>298.6</ele>
        <time>2018-06-16T10:31:05Z</time>
      </trkpt>
      <trkpt lat="43.299217" lon="-1.674722">
        <ele>298.7</ele>
        <time>2018-06-16T10:31:07Z</time>
      </trkpt>
      <trkpt lat="43.299285" lon="-1.674875">
        <ele>297.9</ele>
        <time>2018-06-16T10:31:10Z</time>
      </trkpt>
      <trkpt lat="43.299324" lon="-1.674987">
        <ele>295.4</ele>
        <time>2018-06-16T10:31:12Z</time>
      </trkpt>
      <trkpt lat="43.299344" lon="-1.675063">
        <ele>293.8</ele>
        <time>2018-06-16T10:31:14Z</time>
      </trkpt>
      <trkpt lat="43.299461" lon="-1.675456">
        <ele>292.5</ele>
        <time>2018-06-16T10:31:22Z</time>
      </trkpt>
      <trkpt lat="43.299619" lon="-1.675831">
        <ele>288.7</ele>
        <time>2018-06-16T10:31:31Z</time>
      </trkpt>
      <trkpt lat="43.299691" lon="-1.676020">
        <ele>287.9</ele>
        <time>2018-06-16T10:31:35Z</time>
      </trkpt>
      <trkpt lat="43.299754" lon="-1.676156">
        <ele>287.0</ele>
        <time>2018-06-16T10:31:38Z</time>
      </trkpt>
      <trkpt lat="43.299846" lon="-1.676307">
        <ele>288.7</ele>
        <time>2018-06-16T10:31:42Z</time>
      </trkpt>
      <trkpt lat="43.300017" lon="-1.676580">
        <ele>300.9</ele>
        <time>2018-06-16T10:31:49Z</time>
      </trkpt>
      <trkpt lat="43.300233" lon="-1.676963">
        <ele>315.8</ele>
        <time>2018-06-16T10:31:59Z</time>
      </trkpt>
      <trkpt lat="43.300288" lon="-1.677102">
        <ele>319.3</ele>
        <time>2018-06-16T10:32:02Z</time>
      </trkpt>
      <trkpt lat="43.300314" lon="-1.677248">
        <ele>320.7</ele>
        <time>2018-06-16T10:32:05Z</time>
      </trkpt>
      <trkpt lat="43.300335" lon="-1.677426">
        <ele>322.1</ele>
        <time>2018-06-16T10:32:09Z</time>
      </trkpt>
      <trkpt lat="43.300342" lon="-1.677615">
        <ele>323.0</ele>
        <time>2018-06-16T10:32:12Z</time>
      </trkpt>
      <trkpt lat="43.300346" lon="-1.677780">
        <ele>320.9</ele>
        <time>2018-06-16T10:32:15Z</time>
      </trkpt>
      <trkpt lat="43.300337" lon="-1.677919">
        <ele>318.4</ele>
        <time>2018-06-16T10:32:18Z</time>
      </trkpt>
      <trkpt lat="43.300332" lon="-1.678048">
        <ele>319.9</ele>
        <time>2018-06-16T10:32:21Z</time>
      </trkpt>
      <trkpt lat="43.300335" lon="-1.678216">
        <ele>322.0</ele>
        <time>2018-06-16T10:32:24Z</time>
      </trkpt>
      <trkpt lat="43.300336" lon="-1.678358">
        <ele>323.8</ele>
        <time>2018-06-16T10:32:27Z</time>
      </trkpt>
      <trkpt lat="43.300333" lon="-1.678440">
        <ele>324.7</ele>
        <time>2018-06-16T10:32:28Z</time>
      </trkpt>
      <trkpt lat="43.300324" lon="-1.678550">
        <ele>324.3</ele>
        <time>2018-06-16T10:32:30Z</time>
      </trkpt>
      <trkpt lat="43.300301" lon="-1.678698">
        <ele>323.0</ele>
        <time>2018-06-16T10:32:33Z</time>
      </trkpt>
      <trkpt lat="43.300266" lon="-1.678933">
        <ele>320.7</ele>
        <time>2018-06-16T10:32:38Z</time>
      </trkpt>
      <trkpt lat="43.300266" lon="-1.678990">
        <ele>320.2</ele>
        <time>2018-06-16T10:32:39Z</time>
      </trkpt>
      <trkpt lat="43.300273" lon="-1.679037">
        <ele>319.7</ele>
        <time>2018-06-16T10:32:40Z</time>
      </trkpt>
      <trkpt lat="43.300294" lon="-1.679081">
        <ele>318.9</ele>
        <time>2018-06-16T10:32:41Z</time>
      </trkpt>
      <trkpt lat="43.300325" lon="-1.679115">
        <ele>318.6</ele>
        <time>2018-06-16T10:32:42Z</time>
      </trkpt>
      <trkpt lat="43.300368" lon="-1.679131">
        <ele>318.9</ele>
        <time>2018-06-16T10:32:43Z</time>
      </trkpt>
      <trkpt lat="43.300427" lon="-1.679137">
        <ele>319.7</ele>
        <time>2018-06-16T10:32:45Z</time>
      </trkpt>
      <trkpt lat="43.300469" lon="-1.679121">
        <ele>320.3</ele>
        <time>2018-06-16T10:32:46Z</time>
      </trkpt>
      <trkpt lat="43.300513" lon="-1.679095">
        <ele>321.1</ele>
        <time>2018-06-16T10:32:47Z</time>
      </trkpt>
      <trkpt lat="43.300578" lon="-1.679022">
        <ele>322.7</ele>
        <time>2018-06-16T10:32:50Z</time>
      </trkpt>
      <trkpt lat="43.300639" lon="-1.678983">
        <ele>323.5</ele>
        <time>2018-06-16T10:32:51Z</time>
      </trkpt>
      <trkpt lat="43.300677" lon="-1.678969">
        <ele>324.0</ele>
        <time>2018-06-16T10:32:52Z</time>
      </trkpt>
      <trkpt lat="43.300767" lon="-1.678952">
        <ele>325.0</ele>
        <time>2018-06-16T10:32:55Z</time>
      </trkpt>
      <trkpt lat="43.300844" lon="-1.678949">
        <ele>325.7</ele>
        <time>2018-06-16T10:32:57Z</time>
      </trkpt>
      <trkpt lat="43.300905" lon="-1.678958">
        <ele>326.1</ele>
        <time>2018-06-16T10:32:58Z</time>
      </trkpt>
      <trkpt lat="43.301165" lon="-1.679043">
        <ele>330.4</ele>
        <time>2018-06-16T10:33:06Z</time>
      </trkpt>
      <trkpt lat="43.301215" lon="-1.679073">
        <ele>330.7</ele>
        <time>2018-06-16T10:33:07Z</time>
      </trkpt>
      <trkpt lat="43.301266" lon="-1.679121">
        <ele>330.2</ele>
        <time>2018-06-16T10:33:09Z</time>
      </trkpt>
      <trkpt lat="43.301338" lon="-1.679214">
        <ele>328.8</ele>
        <time>2018-06-16T10:33:11Z</time>
      </trkpt>
      <trkpt lat="43.301423" lon="-1.679319">
        <ele>327.9</ele>
        <time>2018-06-16T10:33:14Z</time>
      </trkpt>
      <trkpt lat="43.301475" lon="-1.679368">
        <ele>327.3</ele>
        <time>2018-06-16T10:33:16Z</time>
      </trkpt>
      <trkpt lat="43.301516" lon="-1.679387">
        <ele>327.5</ele>
        <time>2018-06-16T10:33:17Z</time>
      </trkpt>
      <trkpt lat="43.301579" lon="-1.679393">
        <ele>329.0</ele>
        <time>2018-06-16T10:33:19Z</time>
      </trkpt>
      <trkpt lat="43.301672" lon="-1.679372">
        <ele>332.4</ele>
        <time>2018-06-16T10:33:21Z</time>
      </trkpt>
      <trkpt lat="43.301827" lon="-1.679338">
        <ele>337.4</ele>
        <time>2018-06-16T10:33:26Z</time>
      </trkpt>
      <trkpt lat="43.301882" lon="-1.679338">
        <ele>338.3</ele>
        <time>2018-06-16T10:33:27Z</time>
      </trkpt>
      <trkpt lat="43.301945" lon="-1.679348">
        <ele>339.0</ele>
        <time>2018-06-16T10:33:29Z</time>
      </trkpt>
      <trkpt lat="43.301987" lon="-1.679367">
        <ele>339.3</ele>
        <time>2018-06-16T10:33:30Z</time>
      </trkpt>
      <trkpt lat="43.302028" lon="-1.679407">
        <ele>339.2</ele>
        <time>2018-06-16T10:33:31Z</time>
      </trkpt>
      <trkpt lat="43.302090" lon="-1.679493">
        <ele>338.7</ele>
        <time>2018-06-16T10:33:34Z</time>
      </trkpt>
      <trkpt lat="43.302214" lon="-1.679674">
        <ele>336.0</ele>
        <time>2018-06-16T10:33:38Z</time>
      </trkpt>
      <trkpt lat="43.302336" lon="-1.679824">
        <ele>332.9</ele>
        <time>2018-06-16T10:33:43Z</time>
      </trkpt>
      <trkpt lat="43.302421" lon="-1.679917">
        <ele>331.6</ele>
        <time>2018-06-16T10:33:46Z</time>
      </trkpt>
      <trkpt lat="43.302519" lon="-1.680011">
        <ele>333.2</ele>
        <time>2018-06-16T10:33:49Z</time>
      </trkpt>
      <trkpt lat="43.302550" lon="-1.680043">
        <ele>334.2</ele>
        <time>2018-06-16T10:33:50Z</time>
      </trkpt>
      <trkpt lat="43.302590" lon="-1.680101">
        <ele>335.9</ele>
        <time>2018-06-16T10:33:52Z</time>
      </trkpt>
      <trkpt lat="43.302639" lon="-1.680195">
        <ele>336.2</ele>
        <time>2018-06-16T10:33:54Z</time>
      </trkpt>
      <trkpt lat="43.302692" lon="-1.680296">
        <ele>332.9</ele>
        <time>2018-06-16T10:33:56Z</time>
      </trkpt>
      <trkpt lat="43.302716" lon="-1.680355">
        <ele>332.0</ele>
        <time>2018-06-16T10:33:58Z</time>
      </trkpt>
      <trkpt lat="43.302734" lon="-1.680408">
        <ele>331.4</ele>
        <time>2018-06-16T10:33:59Z</time>
      </trkpt>
      <trkpt lat="43.302746" lon="-1.680487">
        <ele>330.2</ele>
        <time>2018-06-16T10:34:00Z</time>
      </trkpt>
      <trkpt lat="43.302744" lon="-1.680570">
        <ele>328.1</ele>
        <time>2018-06-16T10:34:02Z</time>
      </trkpt>
      <trkpt lat="43.302740" lon="-1.680673">
        <ele>325.4</ele>
        <time>2018-06-16T10:34:04Z</time>
      </trkpt>
      <trkpt lat="43.302740" lon="-1.680759">
        <ele>324.2</ele>
        <time>2018-06-16T10:34:06Z</time>
      </trkpt>
      <trkpt lat="43.302748" lon="-1.680832">
        <ele>323.7</ele>
        <time>2018-06-16T10:34:07Z</time>
      </trkpt>
      <trkpt lat="43.302768" lon="-1.680943">
        <ele>323.1</ele>
        <time>2018-06-16T10:34:09Z</time>
      </trkpt>
      <trkpt lat="43.302791" lon="-1.681034">
        <ele>322.8</ele>
        <time>2018-06-16T10:34:11Z</time>
      </trkpt>
      <trkpt lat="43.302838" lon="-1.681179">
        <ele>322.4</ele>
        <time>2018-06-16T10:34:14Z</time>
      </trkpt>
      <trkpt lat="43.302872" lon="-1.681254">
        <ele>322.3</ele>
        <time>2018-06-16T10:34:16Z</time>
      </trkpt>
      <trkpt lat="43.302899" lon="-1.681282">
        <ele>323.1</ele>
        <time>2018-06-16T10:34:17Z</time>
      </trkpt>
      <trkpt lat="43.302937" lon="-1.681294">
        <ele>323.7</ele>
        <time>2018-06-16T10:34:18Z</time>
      </trkpt>
      <trkpt lat="43.302972" lon="-1.681293">
        <ele>323.8</ele>
        <time>2018-06-16T10:34:19Z</time>
      </trkpt>
      <trkpt lat="43.303016" lon="-1.681288">
        <ele>324.0</ele>
        <time>2018-06-16T10:34:20Z</time>
      </trkpt>
      <trkpt lat="43.303053" lon="-1.681284">
        <ele>324.1</ele>
        <time>2018-06-16T10:34:21Z</time>
      </trkpt>
      <trkpt lat="43.303092" lon="-1.681286">
        <ele>324.3</ele>
        <time>2018-06-16T10:34:22Z</time>
      </trkpt>
      <trkpt lat="43.303199" lon="-1.681328">
        <ele>324.4</ele>
        <time>2018-06-16T10:34:25Z</time>
      </trkpt>
      <trkpt lat="43.303259" lon="-1.681339">
        <ele>324.3</ele>
        <time>2018-06-16T10:34:27Z</time>
      </trkpt>
      <trkpt lat="43.303322" lon="-1.681335">
        <ele>324.2</ele>
        <time>2018-06-16T10:34:28Z</time>
      </trkpt>
      <trkpt lat="43.303386" lon="-1.681323">
        <ele>324.3</ele>
        <time>2018-06-16T10:34:30Z</time>
      </trkpt>
      <trkpt lat="43.303446" lon="-1.681292">
        <ele>324.6</ele>
        <time>2018-06-16T10:34:32Z</time>
      </trkpt>
      <trkpt lat="43.303600" lon="-1.681225">
        <ele>325.5</ele>
        <time>2018-06-16T10:34:36Z</time>
      </trkpt>
      <trkpt lat="43.303939" lon="-1.681038">
        <ele>324.9</ele>
        <time>2018-06-16T10:34:45Z</time>
      </trkpt>
      <trkpt lat="43.304015" lon="-1.680982">
        <ele>324.1</ele>
        <time>2018-06-16T10:34:48Z</time>
      </trkpt>
      <trkpt lat="43.304065" lon="-1.680929">
        <ele>326.7</ele>
        <time>2018-06-16T10:34:50Z</time>
      </trkpt>
      <trkpt lat="43.304115" lon="-1.680839">
        <ele>331.4</ele>
        <time>2018-06-16T10:34:52Z</time>
      </trkpt>
      <trkpt lat="43.304182" lon="-1.680726">
        <ele>335.7</ele>
        <time>2018-06-16T10:34:55Z</time>
      </trkpt>
      <trkpt lat="43.304243" lon="-1.680652">
        <ele>336.8</ele>
        <time>2018-06-16T10:34:57Z</time>
      </trkpt>
      <trkpt lat="43.304294" lon="-1.680597">
        <ele>337.7</ele>
        <time>2018-06-16T10:34:59Z</time>
      </trkpt>
      <trkpt lat="43.304328" lon="-1.680579">
        <ele>337.9</ele>
        <time>2018-06-16T10:35:00Z</time>
      </trkpt>
      <trkpt lat="43.304546" lon="-1.680513">
        <ele>337.7</ele>
        <time>2018-06-16T10:35:06Z</time>
      </trkpt>
      <trkpt lat="43.304802" lon="-1.680417">
        <ele>333.7</ele>
        <time>2018-06-16T10:35:13Z</time>
      </trkpt>
      <trkpt lat="43.304948" lon="-1.680381">
        <ele>330.3</ele>
        <time>2018-06-16T10:35:17Z</time>
      </trkpt>
      <trkpt lat="43.305023" lon="-1.680364">
        <ele>328.7</ele>
        <time>2018-06-16T10:35:19Z</time>
      </trkpt>
      <trkpt lat="43.305081" lon="-1.680369">
        <ele>327.1</ele>
        <time>2018-06-16T10:35:20Z</time>
      </trkpt>
      <trkpt lat="43.305134" lon="-1.680381">
        <ele>325.6</ele>
        <time>2018-06-16T10:35:22Z</time>
      </trkpt>
      <trkpt lat="43.305213" lon="-1.680424">
        <ele>325.5</ele>
        <time>2018-06-16T10:35:24Z</time>
      </trkpt>
      <trkpt lat="43.305282" lon="-1.680485">
        <ele>325.2</ele>
        <time>2018-06-16T10:35:26Z</time>
      </trkpt>
      <trkpt lat="43.305352" lon="-1.680532">
        <ele>324.7</ele>
        <time>2018-06-16T10:35:28Z</time>
      </trkpt>
      <trkpt lat="43.305392" lon="-1.680544">
        <ele>324.7</ele>
        <time>2018-06-16T10:35:29Z</time>
      </trkpt>
      <trkpt lat="43.305495" lon="-1.680560">
        <ele>325.8</ele>
        <time>2018-06-16T10:35:32Z</time>
      </trkpt>
      <trkpt lat="43.305557" lon="-1.680578">
        <ele>326.4</ele>
        <time>2018-06-16T10:35:34Z</time>
      </trkpt>
      <trkpt lat="43.305627" lon="-1.680611">
        <ele>326.4</ele>
        <time>2018-06-16T10:35:36Z</time>
      </trkpt>
      <trkpt lat="43.305662" lon="-1.680641">
        <ele>325.7</ele>
        <time>2018-06-16T10:35:37Z</time>
      </trkpt>
      <trkpt lat="43.305864" lon="-1.681054">
        <ele>322.8</ele>
        <time>2018-06-16T10:35:46Z</time>
      </trkpt>
      <trkpt lat="43.305909" lon="-1.681121">
        <ele>322.0</ele>
        <time>2018-06-16T10:35:48Z</time>
      </trkpt>
      <trkpt lat="43.306054" lon="-1.681241">
        <ele>322.2</ele>
        <time>2018-06-16T10:35:53Z</time>
      </trkpt>
      <trkpt lat="43.306116" lon="-1.681275">
        <ele>323.1</ele>
        <time>2018-06-16T10:35:54Z</time>
      </trkpt>
      <trkpt lat="43.306195" lon="-1.681290">
        <ele>324.6</ele>
        <time>2018-06-16T10:35:57Z</time>
      </trkpt>
      <trkpt lat="43.306248" lon="-1.681283">
        <ele>326.0</ele>
        <time>2018-06-16T10:35:58Z</time>
      </trkpt>
      <trkpt lat="43.306292" lon="-1.681252">
        <ele>327.2</ele>
        <time>2018-06-16T10:35:59Z</time>
      </trkpt>
      <trkpt lat="43.306318" lon="-1.681221">
        <ele>328.2</ele>
        <time>2018-06-16T10:36:00Z</time>
      </trkpt>
      <trkpt lat="43.306344" lon="-1.681169">
        <ele>329.7</ele>
        <time>2018-06-16T10:36:02Z</time>
      </trkpt>
      <trkpt lat="43.306387" lon="-1.681108">
        <ele>332.1</ele>
        <time>2018-06-16T10:36:03Z</time>
      </trkpt>
      <trkpt lat="43.306455" lon="-1.681054">
        <ele>335.1</ele>
        <time>2018-06-16T10:36:05Z</time>
      </trkpt>
      <trkpt lat="43.306512" lon="-1.681013">
        <ele>338.0</ele>
        <time>2018-06-16T10:36:07Z</time>
      </trkpt>
      <trkpt lat="43.306560" lon="-1.680990">
        <ele>339.0</ele>
        <time>2018-06-16T10:36:09Z</time>
      </trkpt>
      <trkpt lat="43.306629" lon="-1.680979">
        <ele>339.0</ele>
        <time>2018-06-16T10:36:10Z</time>
      </trkpt>
      <trkpt lat="43.306698" lon="-1.680979">
        <ele>338.4</ele>
        <time>2018-06-16T10:36:12Z</time>
      </trkpt>
      <trkpt lat="43.306788" lon="-1.680991">
        <ele>337.2</ele>
        <time>2018-06-16T10:36:15Z</time>
      </trkpt>
      <trkpt lat="43.306914" lon="-1.681023">
        <ele>332.6</ele>
        <time>2018-06-16T10:36:18Z</time>
      </trkpt>
      <trkpt lat="43.306977" lon="-1.681052">
        <ele>330.0</ele>
        <time>2018-06-16T10:36:20Z</time>
      </trkpt>
      <trkpt lat="43.307150" lon="-1.681133">
        <ele>327.1</ele>
        <time>2018-06-16T10:36:25Z</time>
      </trkpt>
      <trkpt lat="43.307202" lon="-1.681165">
        <ele>327.2</ele>
        <time>2018-06-16T10:36:26Z</time>
      </trkpt>
      <trkpt lat="43.307238" lon="-1.681200">
        <ele>326.9</ele>
        <time>2018-06-16T10:36:28Z</time>
      </trkpt>
      <trkpt lat="43.307270" lon="-1.681250">
        <ele>326.0</ele>
        <time>2018-06-16T10:36:29Z</time>
      </trkpt>
      <trkpt lat="43.307285" lon="-1.681294">
        <ele>326.7</ele>
        <time>2018-06-16T10:36:30Z</time>
      </trkpt>
      <trkpt lat="43.307285" lon="-1.681361">
        <ele>327.5</ele>
        <time>2018-06-16T10:36:31Z</time>
      </trkpt>
      <trkpt lat="43.307278" lon="-1.681468">
        <ele>328.5</ele>
        <time>2018-06-16T10:36:33Z</time>
      </trkpt>
      <trkpt lat="43.307269" lon="-1.681551">
        <ele>328.5</ele>
        <time>2018-06-16T10:36:35Z</time>
      </trkpt>
      <trkpt lat="43.307246" lon="-1.681860">
        <ele>323.8</ele>
        <time>2018-06-16T10:36:41Z</time>
      </trkpt>
      <trkpt lat="43.307252" lon="-1.681915">
        <ele>322.7</ele>
        <time>2018-06-16T10:36:42Z</time>
      </trkpt>
      <trkpt lat="43.307266" lon="-1.681964">
        <ele>322.0</ele>
        <time>2018-06-16T10:36:43Z</time>
      </trkpt>
      <trkpt lat="43.307285" lon="-1.682005">
        <ele>321.7</ele>
        <time>2018-06-16T10:36:44Z</time>
      </trkpt>
      <trkpt lat="43.307325" lon="-1.682042">
        <ele>322.1</ele>
        <time>2018-06-16T10:36:45Z</time>
      </trkpt>
      <trkpt lat="43.307362" lon="-1.682054">
        <ele>323.0</ele>
        <time>2018-06-16T10:36:46Z</time>
      </trkpt>
      <trkpt lat="43.307432" lon="-1.682034">
        <ele>325.8</ele>
        <time>2018-06-16T10:36:48Z</time>
      </trkpt>
      <trkpt lat="43.307486" lon="-1.682000">
        <ele>328.3</ele>
        <time>2018-06-16T10:36:50Z</time>
      </trkpt>
      <trkpt lat="43.307682" lon="-1.681820">
        <ele>334.8</ele>
        <time>2018-06-16T10:36:56Z</time>
      </trkpt>
      <trkpt lat="43.307735" lon="-1.681791">
        <ele>336.4</ele>
        <time>2018-06-16T10:36:58Z</time>
      </trkpt>
      <trkpt lat="43.307842" lon="-1.681774">
        <ele>338.9</ele>
        <time>2018-06-16T10:37:01Z</time>
      </trkpt>
      <trkpt lat="43.307951" lon="-1.681786">
        <ele>339.8</ele>
        <time>2018-06-16T10:37:04Z</time>
      </trkpt>
      <trkpt lat="43.308015" lon="-1.681807">
        <ele>338.6</ele>
        <time>2018-06-16T10:37:05Z</time>
      </trkpt>
      <trkpt lat="43.308061" lon="-1.681825">
        <ele>337.9</ele>
        <time>2018-06-16T10:37:07Z</time>
      </trkpt>
      <trkpt lat="43.308121" lon="-1.681868">
        <ele>337.5</ele>
        <time>2018-06-16T10:37:09Z</time>
      </trkpt>
      <trkpt lat="43.308174" lon="-1.681921">
        <ele>337.7</ele>
        <time>2018-06-16T10:37:10Z</time>
      </trkpt>
      <trkpt lat="43.308250" lon="-1.682012">
        <ele>337.8</ele>
        <time>2018-06-16T10:37:13Z</time>
      </trkpt>
      <trkpt lat="43.308299" lon="-1.682096">
        <ele>336.6</ele>
        <time>2018-06-16T10:37:15Z</time>
      </trkpt>
      <trkpt lat="43.308323" lon="-1.682150">
        <ele>334.7</ele>
        <time>2018-06-16T10:37:16Z</time>
      </trkpt>
      <trkpt lat="43.308358" lon="-1.682246">
        <ele>331.8</ele>
        <time>2018-06-16T10:37:18Z</time>
      </trkpt>
      <trkpt lat="43.308466" lon="-1.682550">
        <ele>329.0</ele>
        <time>2018-06-16T10:37:25Z</time>
      </trkpt>
      <trkpt lat="43.308501" lon="-1.682611">
        <ele>328.8</ele>
        <time>2018-06-16T10:37:26Z</time>
      </trkpt>
      <trkpt lat="43.308550" lon="-1.682648">
        <ele>328.3</ele>
        <time>2018-06-16T10:37:28Z</time>
      </trkpt>
      <trkpt lat="43.308615" lon="-1.682679">
        <ele>327.6</ele>
        <time>2018-06-16T10:37:30Z</time>
      </trkpt>
      <trkpt lat="43.309018" lon="-1.682840">
        <ele>328.0</ele>
        <time>2018-06-16T10:37:41Z</time>
      </trkpt>
      <trkpt lat="43.309084" lon="-1.682900">
        <ele>329.3</ele>
        <time>2018-06-16T10:37:43Z</time>
      </trkpt>
      <trkpt lat="43.309120" lon="-1.682949">
        <ele>330.2</ele>
        <time>2018-06-16T10:37:44Z</time>
      </trkpt>
      <trkpt lat="43.309152" lon="-1.683003">
        <ele>331.1</ele>
        <time>2018-06-16T10:37:46Z</time>
      </trkpt>
      <trkpt lat="43.309179" lon="-1.683084">
        <ele>331.8</ele>
        <time>2018-06-16T10:37:47Z</time>
      </trkpt>
      <trkpt lat="43.309212" lon="-1.683213">
        <ele>332.2</ele>
        <time>2018-06-16T10:37:50Z</time>
      </trkpt>
      <trkpt lat="43.309234" lon="-1.683386">
        <ele>331.5</ele>
        <time>2018-06-16T10:37:53Z</time>
      </trkpt>
      <trkpt lat="43.309237" lon="-1.683503">
        <ele>330.6</ele>
        <time>2018-06-16T10:37:56Z</time>
      </trkpt>
      <trkpt lat="43.309229" lon="-1.683621">
        <ele>328.9</ele>
        <time>2018-06-16T10:37:58Z</time>
      </trkpt>
      <trkpt lat="43.309215" lon="-1.683733">
        <ele>327.2</ele>
        <time>2018-06-16T10:38:00Z</time>
      </trkpt>
      <trkpt lat="43.309188" lon="-1.683865">
        <ele>326.2</ele>
        <time>2018-06-16T10:38:03Z</time>
      </trkpt>
      <trkpt lat="43.309092" lon="-1.684187">
        <ele>324.8</ele>
        <time>2018-06-16T10:38:09Z</time>
      </trkpt>
      <trkpt lat="43.309043" lon="-1.684345">
        <ele>325.4</ele>
        <time>2018-06-16T10:38:13Z</time>
      </trkpt>
      <trkpt lat="43.308997" lon="-1.684493">
        <ele>326.7</ele>
        <time>2018-06-16T10:38:16Z</time>
      </trkpt>
      <trkpt lat="43.308985" lon="-1.684552">
        <ele>327.1</ele>
        <time>2018-06-16T10:38:17Z</time>
      </trkpt>
      <trkpt lat="43.308991" lon="-1.684573">
        <ele>327.4</ele>
        <time>2018-06-16T10:38:17Z</time>
      </trkpt>
      <trkpt lat="43.309018" lon="-1.684571">
        <ele>327.7</ele>
        <time>2018-06-16T10:38:18Z</time>
      </trkpt>
      <trkpt lat="43.309046" lon="-1.684535">
        <ele>327.3</ele>
        <time>2018-06-16T10:38:19Z</time>
      </trkpt>
      <trkpt lat="43.309091" lon="-1.684449">
        <ele>326.2</ele>
        <time>2018-06-16T10:38:21Z</time>
      </trkpt>
      <trkpt lat="43.309143" lon="-1.684323">
        <ele>325.1</ele>
        <time>2018-06-16T10:38:24Z</time>
      </trkpt>
      <trkpt lat="43.309180" lon="-1.684263">
        <ele>325.0</ele>
        <time>2018-06-16T10:38:26Z</time>
      </trkpt>
      <trkpt lat="43.309225" lon="-1.684227">
        <ele>325.1</ele>
        <time>2018-06-16T10:38:27Z</time>
      </trkpt>
      <trkpt lat="43.309274" lon="-1.684211">
        <ele>325.3</ele>
        <time>2018-06-16T10:38:28Z</time>
      </trkpt>
      <trkpt lat="43.309335" lon="-1.684202">
        <ele>324.9</ele>
        <time>2018-06-16T10:38:30Z</time>
      </trkpt>
      <trkpt lat="43.309392" lon="-1.684202">
        <ele>324.0</ele>
        <time>2018-06-16T10:38:31Z</time>
      </trkpt>
      <trkpt lat="43.309501" lon="-1.684214">
        <ele>322.3</ele>
        <time>2018-06-16T10:38:34Z</time>
      </trkpt>
      <trkpt lat="43.309543" lon="-1.684230">
        <ele>321.6</ele>
        <time>2018-06-16T10:38:35Z</time>
      </trkpt>
      <trkpt lat="43.309588" lon="-1.684259">
        <ele>321.0</ele>
        <time>2018-06-16T10:38:37Z</time>
      </trkpt>
      <trkpt lat="43.309614" lon="-1.684280">
        <ele>320.9</ele>
        <time>2018-06-16T10:38:38Z</time>
      </trkpt>
      <trkpt lat="43.309635" lon="-1.684318">
        <ele>320.8</ele>
        <time>2018-06-16T10:38:39Z</time>
      </trkpt>
      <trkpt lat="43.309641" lon="-1.684380">
        <ele>320.9</ele>
        <time>2018-06-16T10:38:40Z</time>
      </trkpt>
      <trkpt lat="43.309624" lon="-1.684458">
        <ele>321.2</ele>
        <time>2018-06-16T10:38:41Z</time>
      </trkpt>
      <trkpt lat="43.309573" lon="-1.684655">
        <ele>322.9</ele>
        <time>2018-06-16T10:38:45Z</time>
      </trkpt>
      <trkpt lat="43.309521" lon="-1.684836">
        <ele>325.4</ele>
        <time>2018-06-16T10:38:49Z</time>
      </trkpt>
      <trkpt lat="43.309425" lon="-1.685342">
        <ele>326.4</ele>
        <time>2018-06-16T10:38:59Z</time>
      </trkpt>
      <trkpt lat="43.309400" lon="-1.685508">
        <ele>326.7</ele>
        <time>2018-06-16T10:39:02Z</time>
      </trkpt>
      <trkpt lat="43.309394" lon="-1.685596">
        <ele>326.9</ele>
        <time>2018-06-16T10:39:04Z</time>
      </trkpt>
      <trkpt lat="43.309396" lon="-1.685706">
        <ele>327.5</ele>
        <time>2018-06-16T10:39:06Z</time>
      </trkpt>
      <trkpt lat="43.309398" lon="-1.685770">
        <ele>328.3</ele>
        <time>2018-06-16T10:39:07Z</time>
      </trkpt>
      <trkpt lat="43.309475" lon="-1.686230">
        <ele>335.9</ele>
        <time>2018-06-16T10:39:17Z</time>
      </trkpt>
      <trkpt lat="43.309498" lon="-1.686289">
        <ele>336.8</ele>
        <time>2018-06-16T10:39:18Z</time>
      </trkpt>
      <trkpt lat="43.309541" lon="-1.686358">
        <ele>337.6</ele>
        <time>2018-06-16T10:39:20Z</time>
      </trkpt>
      <trkpt lat="43.309742" lon="-1.686659">
        <ele>340.4</ele>
        <time>2018-06-16T10:39:28Z</time>
      </trkpt>
      <trkpt lat="43.310172" lon="-1.687326">
        <ele>335.9</ele>
        <time>2018-06-16T10:39:45Z</time>
      </trkpt>
      <trkpt lat="43.310208" lon="-1.687357">
        <ele>334.8</ele>
        <time>2018-06-16T10:39:46Z</time>
      </trkpt>
      <trkpt lat="43.310258" lon="-1.687393">
        <ele>333.6</ele>
        <time>2018-06-16T10:39:47Z</time>
      </trkpt>
      <trkpt lat="43.310324" lon="-1.687429">
        <ele>332.0</ele>
        <time>2018-06-16T10:39:49Z</time>
      </trkpt>
      <trkpt lat="43.310436" lon="-1.687476">
        <ele>329.8</ele>
        <time>2018-06-16T10:39:52Z</time>
      </trkpt>
      <trkpt lat="43.310495" lon="-1.687518">
        <ele>329.6</ele>
        <time>2018-06-16T10:39:54Z</time>
      </trkpt>
      <trkpt lat="43.310542" lon="-1.687567">
        <ele>329.4</ele>
        <time>2018-06-16T10:39:56Z</time>
      </trkpt>
      <trkpt lat="43.310561" lon="-1.687601">
        <ele>329.3</ele>
        <time>2018-06-16T10:39:57Z</time>
      </trkpt>
      <trkpt lat="43.310587" lon="-1.687688">
        <ele>330.1</ele>
        <time>2018-06-16T10:39:58Z</time>
      </trkpt>
      <trkpt lat="43.310601" lon="-1.687759">
        <ele>331.5</ele>
        <time>2018-06-16T10:40:00Z</time>
      </trkpt>
      <trkpt lat="43.310613" lon="-1.687877">
        <ele>333.7</ele>
        <time>2018-06-16T10:40:02Z</time>
      </trkpt>
      <trkpt lat="43.310620" lon="-1.687926">
        <ele>334.4</ele>
        <time>2018-06-16T10:40:03Z</time>
      </trkpt>
      <trkpt lat="43.310636" lon="-1.687976">
        <ele>334.5</ele>
        <time>2018-06-16T10:40:04Z</time>
      </trkpt>
      <trkpt lat="43.310667" lon="-1.688038">
        <ele>334.7</ele>
        <time>2018-06-16T10:40:06Z</time>
      </trkpt>
      <trkpt lat="43.310725" lon="-1.688104">
        <ele>334.8</ele>
        <time>2018-06-16T10:40:08Z</time>
      </trkpt>
      <trkpt lat="43.310892" lon="-1.688247">
        <ele>333.1</ele>
        <time>2018-06-16T10:40:13Z</time>
      </trkpt>
      <trkpt lat="43.310931" lon="-1.688297">
        <ele>332.8</ele>
        <time>2018-06-16T10:40:14Z</time>
      </trkpt>
      <trkpt lat="43.310955" lon="-1.688352">
        <ele>332.8</ele>
        <time>2018-06-16T10:40:15Z</time>
      </trkpt>
      <trkpt lat="43.310975" lon="-1.688435">
        <ele>332.9</ele>
        <time>2018-06-16T10:40:17Z</time>
      </trkpt>
      <trkpt lat="43.311002" lon="-1.688554">
        <ele>334.9</ele>
        <time>2018-06-16T10:40:20Z</time>
      </trkpt>
      <trkpt lat="43.311028" lon="-1.688634">
        <ele>336.9</ele>
        <time>2018-06-16T10:40:21Z</time>
      </trkpt>
      <trkpt lat="43.311092" lon="-1.688743">
        <ele>340.1</ele>
        <time>2018-06-16T10:40:24Z</time>
      </trkpt>
      <trkpt lat="43.311154" lon="-1.688831">
        <ele>341.5</ele>
        <time>2018-06-16T10:40:27Z</time>
      </trkpt>
      <trkpt lat="43.311207" lon="-1.688897">
        <ele>342.6</ele>
        <time>2018-06-16T10:40:28Z</time>
      </trkpt>
      <trkpt lat="43.311244" lon="-1.688932">
        <ele>343.2</ele>
        <time>2018-06-16T10:40:30Z</time>
      </trkpt>
      <trkpt lat="43.311292" lon="-1.688952">
        <ele>343.2</ele>
        <time>2018-06-16T10:40:31Z</time>
      </trkpt>
      <trkpt lat="43.311334" lon="-1.688946">
        <ele>342.9</ele>
        <time>2018-06-16T10:40:32Z</time>
      </trkpt>
      <trkpt lat="43.311396" lon="-1.688926">
        <ele>342.4</ele>
        <time>2018-06-16T10:40:34Z</time>
      </trkpt>
      <trkpt lat="43.311484" lon="-1.688908">
        <ele>341.6</ele>
        <time>2018-06-16T10:40:36Z</time>
      </trkpt>
      <trkpt lat="43.311566" lon="-1.688898">
        <ele>341.1</ele>
        <time>2018-06-16T10:40:38Z</time>
      </trkpt>
      <trkpt lat="43.311632" lon="-1.688892">
        <ele>341.0</ele>
        <time>2018-06-16T10:40:40Z</time>
      </trkpt>
      <trkpt lat="43.311707" lon="-1.688901">
        <ele>341.0</ele>
        <time>2018-06-16T10:40:42Z</time>
      </trkpt>
      <trkpt lat="43.311786" lon="-1.688913">
        <ele>340.9</ele>
        <time>2018-06-16T10:40:44Z</time>
      </trkpt>
      <trkpt lat="43.311845" lon="-1.688923">
        <ele>340.1</ele>
        <time>2018-06-16T10:40:46Z</time>
      </trkpt>
      <trkpt lat="43.311906" lon="-1.688924">
        <ele>339.0</ele>
        <time>2018-06-16T10:40:47Z</time>
      </trkpt>
      <trkpt lat="43.311966" lon="-1.688915">
        <ele>338.0</ele>
        <time>2018-06-16T10:40:49Z</time>
      </trkpt>
      <trkpt lat="43.311998" lon="-1.688895">
        <ele>337.5</ele>
        <time>2018-06-16T10:40:50Z</time>
      </trkpt>
      <trkpt lat="43.312049" lon="-1.688857">
        <ele>336.6</ele>
        <time>2018-06-16T10:40:51Z</time>
      </trkpt>
      <trkpt lat="43.312135" lon="-1.688767">
        <ele>334.5</ele>
        <time>2018-06-16T10:40:54Z</time>
      </trkpt>
      <trkpt lat="43.312208" lon="-1.688701">
        <ele>332.5</ele>
        <time>2018-06-16T10:40:57Z</time>
      </trkpt>
      <trkpt lat="43.312265" lon="-1.688669">
        <ele>331.0</ele>
        <time>2018-06-16T10:40:58Z</time>
      </trkpt>
      <trkpt lat="43.312311" lon="-1.688658">
        <ele>329.7</ele>
        <time>2018-06-16T10:41:00Z</time>
      </trkpt>
      <trkpt lat="43.312370" lon="-1.688663">
        <ele>327.8</ele>
        <time>2018-06-16T10:41:01Z</time>
      </trkpt>
      <trkpt lat="43.312418" lon="-1.688691">
        <ele>325.0</ele>
        <time>2018-06-16T10:41:03Z</time>
      </trkpt>
      <trkpt lat="43.312456" lon="-1.688736">
        <ele>323.1</ele>
        <time>2018-06-16T10:41:04Z</time>
      </trkpt>
      <trkpt lat="43.312493" lon="-1.688809">
        <ele>322.3</ele>
        <time>2018-06-16T10:41:06Z</time>
      </trkpt>
      <trkpt lat="43.312512" lon="-1.688865">
        <ele>322.3</ele>
        <time>2018-06-16T10:41:07Z</time>
      </trkpt>
      <trkpt lat="43.312516" lon="-1.688932">
        <ele>323.2</ele>
        <time>2018-06-16T10:41:08Z</time>
      </trkpt>
      <trkpt lat="43.312515" lon="-1.688996">
        <ele>324.4</ele>
        <time>2018-06-16T10:41:10Z</time>
      </trkpt>
      <trkpt lat="43.312513" lon="-1.689070">
        <ele>325.8</ele>
        <time>2018-06-16T10:41:11Z</time>
      </trkpt>
      <trkpt lat="43.312492" lon="-1.689181">
        <ele>328.9</ele>
        <time>2018-06-16T10:41:13Z</time>
      </trkpt>
      <trkpt lat="43.312446" lon="-1.689317">
        <ele>333.6</ele>
        <time>2018-06-16T10:41:16Z</time>
      </trkpt>
      <trkpt lat="43.312360" lon="-1.689523">
        <ele>337.3</ele>
        <time>2018-06-16T10:41:21Z</time>
      </trkpt>
      <trkpt lat="43.312343" lon="-1.689622">
        <ele>337.7</ele>
        <time>2018-06-16T10:41:23Z</time>
      </trkpt>
      <trkpt lat="43.312340" lon="-1.689705">
        <ele>337.9</ele>
        <time>2018-06-16T10:41:25Z</time>
      </trkpt>
      <trkpt lat="43.312345" lon="-1.689828">
        <ele>337.7</ele>
        <time>2018-06-16T10:41:27Z</time>
      </trkpt>
      <trkpt lat="43.312378" lon="-1.690153">
        <ele>340.5</ele>
        <time>2018-06-16T10:41:33Z</time>
      </trkpt>
      <trkpt lat="43.312383" lon="-1.690209">
        <ele>341.4</ele>
        <time>2018-06-16T10:41:34Z</time>
      </trkpt>
      <trkpt lat="43.312394" lon="-1.690274">
        <ele>342.2</ele>
        <time>2018-06-16T10:41:36Z</time>
      </trkpt>
      <trkpt lat="43.312408" lon="-1.690319">
        <ele>342.6</ele>
        <time>2018-06-16T10:41:37Z</time>
      </trkpt>
      <trkpt lat="43.312422" lon="-1.690359">
        <ele>343.0</ele>
        <time>2018-06-16T10:41:38Z</time>
      </trkpt>
      <trkpt lat="43.312440" lon="-1.690380">
        <ele>342.9</ele>
        <time>2018-06-16T10:41:38Z</time>
      </trkpt>
      <trkpt lat="43.312470" lon="-1.690402">
        <ele>342.5</ele>
        <time>2018-06-16T10:41:39Z</time>
      </trkpt>
      <trkpt lat="43.312500" lon="-1.690414">
        <ele>341.9</ele>
        <time>2018-06-16T10:41:40Z</time>
      </trkpt>
      <trkpt lat="43.312651" lon="-1.690448">
        <ele>337.5</ele>
        <time>2018-06-16T10:41:44Z</time>
      </trkpt>
      <trkpt lat="43.312819" lon="-1.690485">
        <ele>328.3</ele>
        <time>2018-06-16T10:41:49Z</time>
      </trkpt>
      <trkpt lat="43.312848" lon="-1.690498">
        <ele>326.9</ele>
        <time>2018-06-16T10:41:50Z</time>
      </trkpt>
      <trkpt lat="43.312875" lon="-1.690519">
        <ele>325.9</ele>
        <time>2018-06-16T10:41:51Z</time>
      </trkpt>
      <trkpt lat="43.312902" lon="-1.690549">
        <ele>325.1</ele>
        <time>2018-06-16T10:41:52Z</time>
      </trkpt>
      <trkpt lat="43.312920" lon="-1.690606">
        <ele>325.8</ele>
        <time>2018-06-16T10:41:53Z</time>
      </trkpt>
      <trkpt lat="43.312930" lon="-1.690647">
        <ele>326.7</ele>
        <time>2018-06-16T10:41:54Z</time>
      </trkpt>
      <trkpt lat="43.312934" lon="-1.690700">
        <ele>328.0</ele>
        <time>2018-06-16T10:41:55Z</time>
      </trkpt>
      <trkpt lat="43.312957" lon="-1.691069">
        <ele>337.5</ele>
        <time>2018-06-16T10:42:02Z</time>
      </trkpt>
      <trkpt lat="43.312961" lon="-1.691115">
        <ele>338.7</ele>
        <time>2018-06-16T10:42:03Z</time>
      </trkpt>
      <trkpt lat="43.312970" lon="-1.691145">
        <ele>339.3</ele>
        <time>2018-06-16T10:42:04Z</time>
      </trkpt>
      <trkpt lat="43.312987" lon="-1.691173">
        <ele>339.8</ele>
        <time>2018-06-16T10:42:05Z</time>
      </trkpt>
      <trkpt lat="43.313019" lon="-1.691182">
        <ele>339.5</ele>
        <time>2018-06-16T10:42:05Z</time>
      </trkpt>
      <trkpt lat="43.313051" lon="-1.691183">
        <ele>338.9</ele>
        <time>2018-06-16T10:42:06Z</time>
      </trkpt>
      <trkpt lat="43.313095" lon="-1.691170">
        <ele>337.7</ele>
        <time>2018-06-16T10:42:08Z</time>
      </trkpt>
      <trkpt lat="43.313118" lon="-1.691158">
        <ele>336.8</ele>
        <time>2018-06-16T10:42:08Z</time>
      </trkpt>
      <trkpt lat="43.313393" lon="-1.690972">
        <ele>328.0</ele>
        <time>2018-06-16T10:42:17Z</time>
      </trkpt>
      <trkpt lat="43.313822" lon="-1.690667">
        <ele>315.5</ele>
        <time>2018-06-16T10:42:30Z</time>
      </trkpt>
      <trkpt lat="43.313975" lon="-1.690587">
        <ele>310.2</ele>
        <time>2018-06-16T10:42:34Z</time>
      </trkpt>
      <trkpt lat="43.314059" lon="-1.690555">
        <ele>306.8</ele>
        <time>2018-06-16T10:42:37Z</time>
      </trkpt>
      <trkpt lat="43.314137" lon="-1.690530">
        <ele>304.0</ele>
        <time>2018-06-16T10:42:39Z</time>
      </trkpt>
      <trkpt lat="43.314140" lon="-1.690527">
        <ele>303.8</ele>
        <time>2018-06-16T10:42:39Z</time>
      </trkpt>
      <trkpt lat="43.314208" lon="-1.690522">
        <ele>302.0</ele>
        <time>2018-06-16T10:42:41Z</time>
      </trkpt>
      <trkpt lat="43.314349" lon="-1.690533">
        <ele>300.7</ele>
        <time>2018-06-16T10:42:44Z</time>
      </trkpt>
      <trkpt lat="43.314450" lon="-1.690559">
        <ele>303.0</ele>
        <time>2018-06-16T10:42:47Z</time>
      </trkpt>
      <trkpt lat="43.314489" lon="-1.690579">
        <ele>304.3</ele>
        <time>2018-06-16T10:42:48Z</time>
      </trkpt>
      <trkpt lat="43.314545" lon="-1.690617">
        <ele>306.4</ele>
        <time>2018-06-16T10:42:50Z</time>
      </trkpt>
      <trkpt lat="43.314603" lon="-1.690677">
        <ele>309.2</ele>
        <time>2018-06-16T10:42:52Z</time>
      </trkpt>
      <trkpt lat="43.314658" lon="-1.690752">
        <ele>313.6</ele>
        <time>2018-06-16T10:42:54Z</time>
      </trkpt>
      <trkpt lat="43.314718" lon="-1.690821">
        <ele>318.2</ele>
        <time>2018-06-16T10:42:57Z</time>
      </trkpt>
      <trkpt lat="43.314761" lon="-1.690849">
        <ele>320.1</ele>
        <time>2018-06-16T10:42:58Z</time>
      </trkpt>
      <trkpt lat="43.314799" lon="-1.690859">
        <ele>320.8</ele>
        <time>2018-06-16T10:42:59Z</time>
      </trkpt>
      <trkpt lat="43.314853" lon="-1.690863">
        <ele>321.1</ele>
        <time>2018-06-16T10:43:01Z</time>
      </trkpt>
      <trkpt lat="43.314888" lon="-1.690856">
        <ele>320.6</ele>
        <time>2018-06-16T10:43:01Z</time>
      </trkpt>
      <trkpt lat="43.314964" lon="-1.690807">
        <ele>317.3</ele>
        <time>2018-06-16T10:43:04Z</time>
      </trkpt>
      <trkpt lat="43.315224" lon="-1.690568">
        <ele>308.6</ele>
        <time>2018-06-16T10:43:12Z</time>
      </trkpt>
      <trkpt lat="43.315340" lon="-1.690442">
        <ele>307.4</ele>
        <time>2018-06-16T10:43:16Z</time>
      </trkpt>
      <trkpt lat="43.315402" lon="-1.690379">
        <ele>308.0</ele>
        <time>2018-06-16T10:43:18Z</time>
      </trkpt>
      <trkpt lat="43.315455" lon="-1.690333">
        <ele>308.8</ele>
        <time>2018-06-16T10:43:20Z</time>
      </trkpt>
      <trkpt lat="43.315579" lon="-1.690262">
        <ele>310.8</ele>
        <time>2018-06-16T10:43:24Z</time>
      </trkpt>
      <trkpt lat="43.315695" lon="-1.690169">
        <ele>311.7</ele>
        <time>2018-06-16T10:43:27Z</time>
      </trkpt>
      <trkpt lat="43.315805" lon="-1.690084">
        <ele>309.8</ele>
        <time>2018-06-16T10:43:30Z</time>
      </trkpt>
      <trkpt lat="43.315864" lon="-1.690045">
        <ele>307.7</ele>
        <time>2018-06-16T10:43:32Z</time>
      </trkpt>
      <trkpt lat="43.315930" lon="-1.690011">
        <ele>305.4</ele>
        <time>2018-06-16T10:43:34Z</time>
      </trkpt>
      <trkpt lat="43.316057" lon="-1.689967">
        <ele>301.0</ele>
        <time>2018-06-16T10:43:38Z</time>
      </trkpt>
      <trkpt lat="43.316209" lon="-1.689929">
        <ele>296.6</ele>
        <time>2018-06-16T10:43:42Z</time>
      </trkpt>
      <trkpt lat="43.316287" lon="-1.689917">
        <ele>296.7</ele>
        <time>2018-06-16T10:43:44Z</time>
      </trkpt>
      <trkpt lat="43.316400" lon="-1.689912">
        <ele>300.7</ele>
        <time>2018-06-16T10:43:47Z</time>
      </trkpt>
      <trkpt lat="43.316623" lon="-1.689930">
        <ele>307.7</ele>
        <time>2018-06-16T10:43:53Z</time>
      </trkpt>
      <trkpt lat="43.316754" lon="-1.689952">
        <ele>309.7</ele>
        <time>2018-06-16T10:43:57Z</time>
      </trkpt>
      <trkpt lat="43.316829" lon="-1.689981">
        <ele>310.3</ele>
        <time>2018-06-16T10:43:59Z</time>
      </trkpt>
      <trkpt lat="43.316898" lon="-1.690015">
        <ele>309.0</ele>
        <time>2018-06-16T10:44:01Z</time>
      </trkpt>
      <trkpt lat="43.316974" lon="-1.690083">
        <ele>307.9</ele>
        <time>2018-06-16T10:44:03Z</time>
      </trkpt>
      <trkpt lat="43.317007" lon="-1.690119">
        <ele>307.3</ele>
        <time>2018-06-16T10:44:04Z</time>
      </trkpt>
      <trkpt lat="43.317054" lon="-1.690195">
        <ele>307.9</ele>
        <time>2018-06-16T10:44:06Z</time>
      </trkpt>
      <trkpt lat="43.317213" lon="-1.690541">
        <ele>315.5</ele>
        <time>2018-06-16T10:44:14Z</time>
      </trkpt>
      <trkpt lat="43.317387" lon="-1.690879">
        <ele>316.7</ele>
        <time>2018-06-16T10:44:22Z</time>
      </trkpt>
      <trkpt lat="43.317438" lon="-1.690995">
        <ele>317.7</ele>
        <time>2018-06-16T10:44:25Z</time>
      </trkpt>
      <trkpt lat="43.317474" lon="-1.691108">
        <ele>320.5</ele>
        <time>2018-06-16T10:44:27Z</time>
      </trkpt>
      <trkpt lat="43.317496" lon="-1.691201">
        <ele>323.5</ele>
        <time>2018-06-16T10:44:29Z</time>
      </trkpt>
      <trkpt lat="43.317521" lon="-1.691338">
        <ele>327.0</ele>
        <time>2018-06-16T10:44:32Z</time>
      </trkpt>
      <trkpt lat="43.317570" lon="-1.691517">
        <ele>329.5</ele>
        <time>2018-06-16T10:44:36Z</time>
      </trkpt>
      <trkpt lat="43.317591" lon="-1.691587">
        <ele>331.4</ele>
        <time>2018-06-16T10:44:37Z</time>
      </trkpt>
      <trkpt lat="43.317625" lon="-1.691673">
        <ele>333.8</ele>
        <time>2018-06-16T10:44:39Z</time>
      </trkpt>
      <trkpt lat="43.317656" lon="-1.691723">
        <ele>335.0</ele>
        <time>2018-06-16T10:44:41Z</time>
      </trkpt>
      <trkpt lat="43.317682" lon="-1.691752">
        <ele>335.6</ele>
        <time>2018-06-16T10:44:42Z</time>
      </trkpt>
      <trkpt lat="43.317719" lon="-1.691769">
        <ele>335.3</ele>
        <time>2018-06-16T10:44:43Z</time>
      </trkpt>
      <trkpt lat="43.317764" lon="-1.691781">
        <ele>334.5</ele>
        <time>2018-06-16T10:44:44Z</time>
      </trkpt>
      <trkpt lat="43.317849" lon="-1.691800">
        <ele>332.8</ele>
        <time>2018-06-16T10:44:46Z</time>
      </trkpt>
      <trkpt lat="43.318013" lon="-1.691842">
        <ele>329.2</ele>
        <time>2018-06-16T10:44:51Z</time>
      </trkpt>
      <trkpt lat="43.318092" lon="-1.691884">
        <ele>327.3</ele>
        <time>2018-06-16T10:44:53Z</time>
      </trkpt>
      <trkpt lat="43.318338" lon="-1.692088">
        <ele>319.3</ele>
        <time>2018-06-16T10:45:01Z</time>
      </trkpt>
      <trkpt lat="43.318538" lon="-1.692301">
        <ele>308.4</ele>
        <time>2018-06-16T10:45:08Z</time>
      </trkpt>
      <trkpt lat="43.318619" lon="-1.692428">
        <ele>306.9</ele>
        <time>2018-06-16T10:45:11Z</time>
      </trkpt>
      <trkpt lat="43.318640" lon="-1.692486">
        <ele>307.5</ele>
        <time>2018-06-16T10:45:12Z</time>
      </trkpt>
      <trkpt lat="43.318662" lon="-1.692581">
        <ele>308.9</ele>
        <time>2018-06-16T10:45:14Z</time>
      </trkpt>
      <trkpt lat="43.318664" lon="-1.692655">
        <ele>310.6</ele>
        <time>2018-06-16T10:45:16Z</time>
      </trkpt>
      <trkpt lat="43.318659" lon="-1.692725">
        <ele>313.4</ele>
        <time>2018-06-16T10:45:17Z</time>
      </trkpt>
      <trkpt lat="43.318648" lon="-1.692864">
        <ele>319.1</ele>
        <time>2018-06-16T10:45:20Z</time>
      </trkpt>
      <trkpt lat="43.318635" lon="-1.692941">
        <ele>322.4</ele>
        <time>2018-06-16T10:45:22Z</time>
      </trkpt>
      <trkpt lat="43.318619" lon="-1.693000">
        <ele>324.9</ele>
        <time>2018-06-16T10:45:23Z</time>
      </trkpt>
      <trkpt lat="43.318591" lon="-1.693066">
        <ele>327.5</ele>
        <time>2018-06-16T10:45:25Z</time>
      </trkpt>
      <trkpt lat="43.318477" lon="-1.693263">
        <ele>333.2</ele>
        <time>2018-06-16T10:45:30Z</time>
      </trkpt>
      <trkpt lat="43.318455" lon="-1.693292">
        <ele>334.3</ele>
        <time>2018-06-16T10:45:31Z</time>
      </trkpt>
      <trkpt lat="43.318430" lon="-1.693325">
        <ele>335.6</ele>
        <time>2018-06-16T10:45:32Z</time>
      </trkpt>
      <trkpt lat="43.318387" lon="-1.693376">
        <ele>337.6</ele>
        <time>2018-06-16T10:45:33Z</time>
      </trkpt>
      <trkpt lat="43.318362" lon="-1.693413">
        <ele>339.0</ele>
        <time>2018-06-16T10:45:34Z</time>
      </trkpt>
      <trkpt lat="43.318355" lon="-1.693444">
        <ele>340.0</ele>
        <time>2018-06-16T10:45:35Z</time>
      </trkpt>
      <trkpt lat="43.318354" lon="-1.693484">
        <ele>341.1</ele>
        <time>2018-06-16T10:45:36Z</time>
      </trkpt>
      <trkpt lat="43.318357" lon="-1.693520">
        <ele>342.0</ele>
        <time>2018-06-16T10:45:37Z</time>
      </trkpt>
      <trkpt lat="43.318377" lon="-1.693567">
        <ele>343.1</ele>
        <time>2018-06-16T10:45:38Z</time>
      </trkpt>
      <trkpt lat="43.318600" lon="-1.693982">
        <ele>335.2</ele>
        <time>2018-06-16T10:45:48Z</time>
      </trkpt>
      <trkpt lat="43.318757" lon="-1.694284">
        <ele>327.9</ele>
        <time>2018-06-16T10:45:55Z</time>
      </trkpt>
      <trkpt lat="43.318856" lon="-1.694523">
        <ele>327.0</ele>
        <time>2018-06-16T10:46:00Z</time>
      </trkpt>
      <trkpt lat="43.318972" lon="-1.694910">
        <ele>324.0</ele>
        <time>2018-06-16T10:46:08Z</time>
      </trkpt>
      <trkpt lat="43.319029" lon="-1.695122">
        <ele>322.0</ele>
        <time>2018-06-16T10:46:13Z</time>
      </trkpt>
      <trkpt lat="43.319059" lon="-1.695250">
        <ele>321.1</ele>
        <time>2018-06-16T10:46:15Z</time>
      </trkpt>
      <trkpt lat="43.319063" lon="-1.695351">
        <ele>320.8</ele>
        <time>2018-06-16T10:46:17Z</time>
      </trkpt>
      <trkpt lat="43.319057" lon="-1.695552">
        <ele>319.2</ele>
        <time>2018-06-16T10:46:21Z</time>
      </trkpt>
      <trkpt lat="43.319044" lon="-1.695626">
        <ele>318.6</ele>
        <time>2018-06-16T10:46:23Z</time>
      </trkpt>
      <trkpt lat="43.319024" lon="-1.695715">
        <ele>317.8</ele>
        <time>2018-06-16T10:46:24Z</time>
      </trkpt>
      <trkpt lat="43.318995" lon="-1.695826">
        <ele>317.3</ele>
        <time>2018-06-16T10:46:27Z</time>
      </trkpt>
      <trkpt lat="43.318967" lon="-1.695939">
        <ele>316.7</ele>
        <time>2018-06-16T10:46:29Z</time>
      </trkpt>
      <trkpt lat="43.318945" lon="-1.696043">
        <ele>316.1</ele>
        <time>2018-06-16T10:46:31Z</time>
      </trkpt>
      <trkpt lat="43.318915" lon="-1.696220">
        <ele>314.6</ele>
        <time>2018-06-16T10:46:35Z</time>
      </trkpt>
      <trkpt lat="43.318864" lon="-1.696583">
        <ele>312.6</ele>
        <time>2018-06-16T10:46:42Z</time>
      </trkpt>
      <trkpt lat="43.318823" lon="-1.696898">
        <ele>319.0</ele>
        <time>2018-06-16T10:46:48Z</time>
      </trkpt>
      <trkpt lat="43.318804" lon="-1.697126">
        <ele>317.1</ele>
        <time>2018-06-16T10:46:52Z</time>
      </trkpt>
      <trkpt lat="43.318789" lon="-1.697347">
        <ele>313.0</ele>
        <time>2018-06-16T10:46:57Z</time>
      </trkpt>
      <trkpt lat="43.318786" lon="-1.697494">
        <ele>311.7</ele>
        <time>2018-06-16T10:47:00Z</time>
      </trkpt>
      <trkpt lat="43.318796" lon="-1.697694">
        <ele>310.3</ele>
        <time>2018-06-16T10:47:03Z</time>
      </trkpt>
      <trkpt lat="43.318806" lon="-1.697797">
        <ele>309.4</ele>
        <time>2018-06-16T10:47:05Z</time>
      </trkpt>
      <trkpt lat="43.318824" lon="-1.697902">
        <ele>308.4</ele>
        <time>2018-06-16T10:47:08Z</time>
      </trkpt>
      <trkpt lat="43.318904" lon="-1.698114">
        <ele>304.0</ele>
        <time>2018-06-16T10:47:12Z</time>
      </trkpt>
      <trkpt lat="43.319030" lon="-1.698446">
        <ele>297.6</ele>
        <time>2018-06-16T10:47:20Z</time>
      </trkpt>
      <trkpt lat="43.319090" lon="-1.698608">
        <ele>294.6</ele>
        <time>2018-06-16T10:47:23Z</time>
      </trkpt>
      <trkpt lat="43.319177" lon="-1.698788">
        <ele>294.1</ele>
        <time>2018-06-16T10:47:27Z</time>
      </trkpt>
      <trkpt lat="43.319281" lon="-1.698942">
        <ele>295.1</ele>
        <time>2018-06-16T10:47:31Z</time>
      </trkpt>
      <trkpt lat="43.319386" lon="-1.699061">
        <ele>297.6</ele>
        <time>2018-06-16T10:47:35Z</time>
      </trkpt>
      <trkpt lat="43.319476" lon="-1.699131">
        <ele>300.8</ele>
        <time>2018-06-16T10:47:38Z</time>
      </trkpt>
      <trkpt lat="43.319544" lon="-1.699164">
        <ele>303.5</ele>
        <time>2018-06-16T10:47:40Z</time>
      </trkpt>
      <trkpt lat="43.319668" lon="-1.699204">
        <ele>305.9</ele>
        <time>2018-06-16T10:47:43Z</time>
      </trkpt>
      <trkpt lat="43.319826" lon="-1.699252">
        <ele>307.9</ele>
        <time>2018-06-16T10:47:48Z</time>
      </trkpt>
      <trkpt lat="43.319988" lon="-1.699283">
        <ele>308.7</ele>
        <time>2018-06-16T10:47:52Z</time>
      </trkpt>
      <trkpt lat="43.320226" lon="-1.699318">
        <ele>307.9</ele>
        <time>2018-06-16T10:47:58Z</time>
      </trkpt>
      <trkpt lat="43.320332" lon="-1.699337">
        <ele>306.6</ele>
        <time>2018-06-16T10:48:01Z</time>
      </trkpt>
      <trkpt lat="43.320417" lon="-1.699361">
        <ele>305.6</ele>
        <time>2018-06-16T10:48:03Z</time>
      </trkpt>
      <trkpt lat="43.320494" lon="-1.699397">
        <ele>306.6</ele>
        <time>2018-06-16T10:48:05Z</time>
      </trkpt>
      <trkpt lat="43.320528" lon="-1.699428">
        <ele>306.7</ele>
        <time>2018-06-16T10:48:07Z</time>
      </trkpt>
      <trkpt lat="43.320563" lon="-1.699469">
        <ele>306.3</ele>
        <time>2018-06-16T10:48:08Z</time>
      </trkpt>
      <trkpt lat="43.320722" lon="-1.699702">
        <ele>301.1</ele>
        <time>2018-06-16T10:48:14Z</time>
      </trkpt>
      <trkpt lat="43.320735" lon="-1.699756">
        <ele>299.8</ele>
        <time>2018-06-16T10:48:15Z</time>
      </trkpt>
      <trkpt lat="43.320734" lon="-1.699799">
        <ele>298.6</ele>
        <time>2018-06-16T10:48:16Z</time>
      </trkpt>
      <trkpt lat="43.320720" lon="-1.699834">
        <ele>297.3</ele>
        <time>2018-06-16T10:48:17Z</time>
      </trkpt>
      <trkpt lat="43.320689" lon="-1.699852">
        <ele>296.3</ele>
        <time>2018-06-16T10:48:18Z</time>
      </trkpt>
      <trkpt lat="43.320666" lon="-1.699852">
        <ele>296.5</ele>
        <time>2018-06-16T10:48:18Z</time>
      </trkpt>
      <trkpt lat="43.320564" lon="-1.699805">
        <ele>298.4</ele>
        <time>2018-06-16T10:48:21Z</time>
      </trkpt>
      <trkpt lat="43.320479" lon="-1.699779">
        <ele>299.5</ele>
        <time>2018-06-16T10:48:24Z</time>
      </trkpt>
      <trkpt lat="43.320398" lon="-1.699767">
        <ele>300.0</ele>
        <time>2018-06-16T10:48:26Z</time>
      </trkpt>
      <trkpt lat="43.319860" lon="-1.699756">
        <ele>295.5</ele>
        <time>2018-06-16T10:48:40Z</time>
      </trkpt>
      <trkpt lat="43.319398" lon="-1.699772">
        <ele>283.5</ele>
        <time>2018-06-16T10:48:52Z</time>
      </trkpt>
      <trkpt lat="43.319222" lon="-1.699779">
        <ele>279.7</ele>
        <time>2018-06-16T10:48:57Z</time>
      </trkpt>
      <trkpt lat="43.319065" lon="-1.699815">
        <ele>277.0</ele>
        <time>2018-06-16T10:49:01Z</time>
      </trkpt>
      <trkpt lat="43.319006" lon="-1.699850">
        <ele>276.3</ele>
        <time>2018-06-16T10:49:03Z</time>
      </trkpt>
      <trkpt lat="43.318979" lon="-1.699873">
        <ele>276.4</ele>
        <time>2018-06-16T10:49:04Z</time>
      </trkpt>
      <trkpt lat="43.318949" lon="-1.699928">
        <ele>276.3</ele>
        <time>2018-06-16T10:49:05Z</time>
      </trkpt>
      <trkpt lat="43.318928" lon="-1.700003">
        <ele>276.1</ele>
        <time>2018-06-16T10:49:07Z</time>
      </trkpt>
      <trkpt lat="43.318902" lon="-1.700141">
        <ele>275.7</ele>
        <time>2018-06-16T10:49:10Z</time>
      </trkpt>
      <trkpt lat="43.318886" lon="-1.700313">
        <ele>275.4</ele>
        <time>2018-06-16T10:49:13Z</time>
      </trkpt>
      <trkpt lat="43.318879" lon="-1.700429">
        <ele>275.2</ele>
        <time>2018-06-16T10:49:15Z</time>
      </trkpt>
      <trkpt lat="43.318876" lon="-1.700566">
        <ele>273.9</ele>
        <time>2018-06-16T10:49:18Z</time>
      </trkpt>
      <trkpt lat="43.318882" lon="-1.700639">
        <ele>273.1</ele>
        <time>2018-06-16T10:49:19Z</time>
      </trkpt>
      <trkpt lat="43.318892" lon="-1.700732">
        <ele>272.0</ele>
        <time>2018-06-16T10:49:21Z</time>
      </trkpt>
      <trkpt lat="43.318926" lon="-1.700856">
        <ele>269.7</ele>
        <time>2018-06-16T10:49:24Z</time>
      </trkpt>
      <trkpt lat="43.318962" lon="-1.700961">
        <ele>267.6</ele>
        <time>2018-06-16T10:49:26Z</time>
      </trkpt>
      <trkpt lat="43.318992" lon="-1.701033">
        <ele>266.4</ele>
        <time>2018-06-16T10:49:28Z</time>
      </trkpt>
      <trkpt lat="43.319028" lon="-1.701073">
        <ele>265.3</ele>
        <time>2018-06-16T10:49:29Z</time>
      </trkpt>
      <trkpt lat="43.319249" lon="-1.701265">
        <ele>269.6</ele>
        <time>2018-06-16T10:49:36Z</time>
      </trkpt>
      <trkpt lat="43.319312" lon="-1.701365">
        <ele>270.9</ele>
        <time>2018-06-16T10:49:38Z</time>
      </trkpt>
      <trkpt lat="43.319342" lon="-1.701421">
        <ele>270.4</ele>
        <time>2018-06-16T10:49:40Z</time>
      </trkpt>
      <trkpt lat="43.319367" lon="-1.701525">
        <ele>270.5</ele>
        <time>2018-06-16T10:49:42Z</time>
      </trkpt>
      <trkpt lat="43.319431" lon="-1.701949">
        <ele>268.9</ele>
        <time>2018-06-16T10:49:50Z</time>
      </trkpt>
      <trkpt lat="43.319443" lon="-1.702079">
        <ele>266.1</ele>
        <time>2018-06-16T10:49:53Z</time>
      </trkpt>
      <trkpt lat="43.319446" lon="-1.702183">
        <ele>264.4</ele>
        <time>2018-06-16T10:49:55Z</time>
      </trkpt>
      <trkpt lat="43.319432" lon="-1.702259">
        <ele>263.3</ele>
        <time>2018-06-16T10:49:56Z</time>
      </trkpt>
      <trkpt lat="43.319400" lon="-1.702333">
        <ele>262.4</ele>
        <time>2018-06-16T10:49:58Z</time>
      </trkpt>
      <trkpt lat="43.319364" lon="-1.702390">
        <ele>261.9</ele>
        <time>2018-06-16T10:49:59Z</time>
      </trkpt>
      <trkpt lat="43.319313" lon="-1.702439">
        <ele>261.3</ele>
        <time>2018-06-16T10:50:01Z</time>
      </trkpt>
      <trkpt lat="43.319136" lon="-1.702531">
        <ele>264.2</ele>
        <time>2018-06-16T10:50:06Z</time>
      </trkpt>
      <trkpt lat="43.319075" lon="-1.702576">
        <ele>265.7</ele>
        <time>2018-06-16T10:50:08Z</time>
      </trkpt>
      <trkpt lat="43.319042" lon="-1.702609">
        <ele>266.6</ele>
        <time>2018-06-16T10:50:09Z</time>
      </trkpt>
      <trkpt lat="43.319006" lon="-1.702660">
        <ele>267.3</ele>
        <time>2018-06-16T10:50:10Z</time>
      </trkpt>
      <trkpt lat="43.318992" lon="-1.703407">
        <ele>265.3</ele>
        <time>2018-06-16T10:50:25Z</time>
      </trkpt>
      <trkpt lat="43.318947" lon="-1.703503">
        <ele>266.1</ele>
        <time>2018-06-16T10:50:27Z</time>
      </trkpt>
      <trkpt lat="43.318886" lon="-1.703551">
        <ele>267.0</ele>
        <time>2018-06-16T10:50:29Z</time>
      </trkpt>
      <trkpt lat="43.318818" lon="-1.703598">
        <ele>268.2</ele>
        <time>2018-06-16T10:50:31Z</time>
      </trkpt>
      <trkpt lat="43.318744" lon="-1.703672">
        <ele>269.9</ele>
        <time>2018-06-16T10:50:33Z</time>
      </trkpt>
      <trkpt lat="43.318710" lon="-1.703731">
        <ele>271.3</ele>
        <time>2018-06-16T10:50:35Z</time>
      </trkpt>
      <trkpt lat="43.318690" lon="-1.703799">
        <ele>272.2</ele>
        <time>2018-06-16T10:50:36Z</time>
      </trkpt>
      <trkpt lat="43.318667" lon="-1.703894">
        <ele>273.7</ele>
        <time>2018-06-16T10:50:38Z</time>
      </trkpt>
      <trkpt lat="43.318611" lon="-1.704159">
        <ele>279.4</ele>
        <time>2018-06-16T10:50:44Z</time>
      </trkpt>
      <trkpt lat="43.318577" lon="-1.704340">
        <ele>284.9</ele>
        <time>2018-06-16T10:50:47Z</time>
      </trkpt>
      <trkpt lat="43.318572" lon="-1.704394">
        <ele>287.8</ele>
        <time>2018-06-16T10:50:49Z</time>
      </trkpt>
      <trkpt lat="43.318570" lon="-1.704449">
        <ele>290.5</ele>
        <time>2018-06-16T10:50:50Z</time>
      </trkpt>
      <trkpt lat="43.318572" lon="-1.704511">
        <ele>293.2</ele>
        <time>2018-06-16T10:50:51Z</time>
      </trkpt>
      <trkpt lat="43.318579" lon="-1.704557">
        <ele>294.5</ele>
        <time>2018-06-16T10:50:52Z</time>
      </trkpt>
      <trkpt lat="43.318588" lon="-1.704594">
        <ele>294.6</ele>
        <time>2018-06-16T10:50:53Z</time>
      </trkpt>
      <trkpt lat="43.318615" lon="-1.704651">
        <ele>291.1</ele>
        <time>2018-06-16T10:50:54Z</time>
      </trkpt>
      <trkpt lat="43.318665" lon="-1.704772">
        <ele>284.6</ele>
        <time>2018-06-16T10:50:58Z</time>
      </trkpt>
      <trkpt lat="43.318675" lon="-1.704808">
        <ele>283.2</ele>
        <time>2018-06-16T10:50:58Z</time>
      </trkpt>
      <trkpt lat="43.318681" lon="-1.704834">
        <ele>282.4</ele>
        <time>2018-06-16T10:50:59Z</time>
      </trkpt>
      <trkpt lat="43.318682" lon="-1.704874">
        <ele>282.1</ele>
        <time>2018-06-16T10:51:00Z</time>
      </trkpt>
      <trkpt lat="43.318685" lon="-1.704956">
        <ele>282.3</ele>
        <time>2018-06-16T10:51:01Z</time>
      </trkpt>
      <trkpt lat="43.318698" lon="-1.705169">
        <ele>282.2</ele>
        <time>2018-06-16T10:51:05Z</time>
      </trkpt>
      <trkpt lat="43.318760" lon="-1.706012">
        <ele>291.9</ele>
        <time>2018-06-16T10:51:22Z</time>
      </trkpt>
      <trkpt lat="43.318774" lon="-1.706127">
        <ele>292.3</ele>
        <time>2018-06-16T10:51:24Z</time>
      </trkpt>
      <trkpt lat="43.318790" lon="-1.706230">
        <ele>292.1</ele>
        <time>2018-06-16T10:51:26Z</time>
      </trkpt>
      <trkpt lat="43.318821" lon="-1.706327">
        <ele>289.9</ele>
        <time>2018-06-16T10:51:28Z</time>
      </trkpt>
      <trkpt lat="43.318861" lon="-1.706444">
        <ele>287.4</ele>
        <time>2018-06-16T10:51:31Z</time>
      </trkpt>
      <trkpt lat="43.319133" lon="-1.707184">
        <ele>278.1</ele>
        <time>2018-06-16T10:51:47Z</time>
      </trkpt>
      <trkpt lat="43.319149" lon="-1.707257">
        <ele>277.7</ele>
        <time>2018-06-16T10:51:48Z</time>
      </trkpt>
      <trkpt lat="43.319158" lon="-1.707318">
        <ele>277.6</ele>
        <time>2018-06-16T10:51:49Z</time>
      </trkpt>
      <trkpt lat="43.319168" lon="-1.707409">
        <ele>275.9</ele>
        <time>2018-06-16T10:51:51Z</time>
      </trkpt>
      <trkpt lat="43.319179" lon="-1.707527">
        <ele>271.6</ele>
        <time>2018-06-16T10:51:54Z</time>
      </trkpt>
      <trkpt lat="43.319187" lon="-1.707806">
        <ele>265.5</ele>
        <time>2018-06-16T10:51:59Z</time>
      </trkpt>
      <trkpt lat="43.319188" lon="-1.707891">
        <ele>264.5</ele>
        <time>2018-06-16T10:52:01Z</time>
      </trkpt>
      <trkpt lat="43.319185" lon="-1.707987">
        <ele>264.8</ele>
        <time>2018-06-16T10:52:03Z</time>
      </trkpt>
      <trkpt lat="43.319178" lon="-1.708050">
        <ele>265.6</ele>
        <time>2018-06-16T10:52:04Z</time>
      </trkpt>
      <trkpt lat="43.319165" lon="-1.708114">
        <ele>266.6</ele>
        <time>2018-06-16T10:52:05Z</time>
      </trkpt>
      <trkpt lat="43.319148" lon="-1.708186">
        <ele>267.8</ele>
        <time>2018-06-16T10:52:07Z</time>
      </trkpt>
      <trkpt lat="43.319018" lon="-1.708622">
        <ele>269.6</ele>
        <time>2018-06-16T10:52:16Z</time>
      </trkpt>
      <trkpt lat="43.318969" lon="-1.708761">
        <ele>269.1</ele>
        <time>2018-06-16T10:52:19Z</time>
      </trkpt>
      <trkpt lat="43.318875" lon="-1.708940">
        <ele>267.6</ele>
        <time>2018-06-16T10:52:23Z</time>
      </trkpt>
      <trkpt lat="43.318751" lon="-1.709121">
        <ele>268.7</ele>
        <time>2018-06-16T10:52:28Z</time>
      </trkpt>
      <trkpt lat="43.318695" lon="-1.709204">
        <ele>270.1</ele>
        <time>2018-06-16T10:52:30Z</time>
      </trkpt>
      <trkpt lat="43.318592" lon="-1.709349">
        <ele>271.3</ele>
        <time>2018-06-16T10:52:34Z</time>
      </trkpt>
      <trkpt lat="43.318525" lon="-1.709413">
        <ele>271.5</ele>
        <time>2018-06-16T10:52:36Z</time>
      </trkpt>
      <trkpt lat="43.318442" lon="-1.709469">
        <ele>271.6</ele>
        <time>2018-06-16T10:52:38Z</time>
      </trkpt>
      <trkpt lat="43.318376" lon="-1.709508">
        <ele>271.8</ele>
        <time>2018-06-16T10:52:40Z</time>
      </trkpt>
      <trkpt lat="43.318327" lon="-1.709551">
        <ele>271.8</ele>
        <time>2018-06-16T10:52:42Z</time>
      </trkpt>
      <trkpt lat="43.318256" lon="-1.709646">
        <ele>272.4</ele>
        <time>2018-06-16T10:52:45Z</time>
      </trkpt>
      <trkpt lat="43.318235" lon="-1.709664">
        <ele>272.7</ele>
        <time>2018-06-16T10:52:45Z</time>
      </trkpt>
      <trkpt lat="43.318209" lon="-1.709674">
        <ele>272.9</ele>
        <time>2018-06-16T10:52:46Z</time>
      </trkpt>
      <trkpt lat="43.318136" lon="-1.709698">
        <ele>274.0</ele>
        <time>2018-06-16T10:52:48Z</time>
      </trkpt>
      <trkpt lat="43.317840" lon="-1.709759">
        <ele>279.3</ele>
        <time>2018-06-16T10:52:56Z</time>
      </trkpt>
      <trkpt lat="43.317678" lon="-1.709811">
        <ele>283.2</ele>
        <time>2018-06-16T10:53:00Z</time>
      </trkpt>
      <trkpt lat="43.317564" lon="-1.709830">
        <ele>284.5</ele>
        <time>2018-06-16T10:53:03Z</time>
      </trkpt>
      <trkpt lat="43.317525" lon="-1.709849">
        <ele>284.8</ele>
        <time>2018-06-16T10:53:05Z</time>
      </trkpt>
      <trkpt lat="43.317492" lon="-1.709867">
        <ele>285.1</ele>
        <time>2018-06-16T10:53:05Z</time>
      </trkpt>
      <trkpt lat="43.317475" lon="-1.709886">
        <ele>285.2</ele>
        <time>2018-06-16T10:53:06Z</time>
      </trkpt>
      <trkpt lat="43.317469" lon="-1.709904">
        <ele>285.4</ele>
        <time>2018-06-16T10:53:06Z</time>
      </trkpt>
      <trkpt lat="43.317470" lon="-1.709934">
        <ele>285.4</ele>
        <time>2018-06-16T10:53:07Z</time>
      </trkpt>
      <trkpt lat="43.317475" lon="-1.709954">
        <ele>285.4</ele>
        <time>2018-06-16T10:53:07Z</time>
      </trkpt>
      <trkpt lat="43.317494" lon="-1.709977">
        <ele>285.3</ele>
        <time>2018-06-16T10:53:08Z</time>
      </trkpt>
      <trkpt lat="43.317535" lon="-1.710005">
        <ele>284.8</ele>
        <time>2018-06-16T10:53:09Z</time>
      </trkpt>
      <trkpt lat="43.317595" lon="-1.710035">
        <ele>284.0</ele>
        <time>2018-06-16T10:53:11Z</time>
      </trkpt>
      <trkpt lat="43.317660" lon="-1.710054">
        <ele>283.0</ele>
        <time>2018-06-16T10:53:13Z</time>
      </trkpt>
      <trkpt lat="43.317881" lon="-1.710083">
        <ele>280.2</ele>
        <time>2018-06-16T10:53:19Z</time>
      </trkpt>
      <trkpt lat="43.318146" lon="-1.710122">
        <ele>278.2</ele>
        <time>2018-06-16T10:53:26Z</time>
      </trkpt>
      <trkpt lat="43.318251" lon="-1.710154">
        <ele>278.3</ele>
        <time>2018-06-16T10:53:29Z</time>
      </trkpt>
      <trkpt lat="43.318371" lon="-1.710222">
        <ele>277.8</ele>
        <time>2018-06-16T10:53:32Z</time>
      </trkpt>
      <trkpt lat="43.318456" lon="-1.710266">
        <ele>276.4</ele>
        <time>2018-06-16T10:53:34Z</time>
      </trkpt>
      <trkpt lat="43.318513" lon="-1.710319">
        <ele>273.5</ele>
        <time>2018-06-16T10:53:36Z</time>
      </trkpt>
      <trkpt lat="43.318545" lon="-1.710375">
        <ele>271.2</ele>
        <time>2018-06-16T10:53:38Z</time>
      </trkpt>
      <trkpt lat="43.318558" lon="-1.710450">
        <ele>269.6</ele>
        <time>2018-06-16T10:53:39Z</time>
      </trkpt>
      <trkpt lat="43.318555" lon="-1.710532">
        <ele>269.1</ele>
        <time>2018-06-16T10:53:41Z</time>
      </trkpt>
      <trkpt lat="43.318534" lon="-1.710650">
        <ele>268.9</ele>
        <time>2018-06-16T10:53:43Z</time>
      </trkpt>
      <trkpt lat="43.318508" lon="-1.710767">
        <ele>268.1</ele>
        <time>2018-06-16T10:53:46Z</time>
      </trkpt>
      <trkpt lat="43.318459" lon="-1.710893">
        <ele>267.6</ele>
        <time>2018-06-16T10:53:48Z</time>
      </trkpt>
      <trkpt lat="43.318368" lon="-1.711087">
        <ele>270.9</ele>
        <time>2018-06-16T10:53:53Z</time>
      </trkpt>
      <trkpt lat="43.318182" lon="-1.711444">
        <ele>279.8</ele>
        <time>2018-06-16T10:54:01Z</time>
      </trkpt>
      <trkpt lat="43.318062" lon="-1.711672">
        <ele>280.1</ele>
        <time>2018-06-16T10:54:07Z</time>
      </trkpt>
      <trkpt lat="43.318024" lon="-1.711723">
        <ele>280.0</ele>
        <time>2018-06-16T10:54:08Z</time>
      </trkpt>
      <trkpt lat="43.317963" lon="-1.711774">
        <ele>280.1</ele>
        <time>2018-06-16T10:54:10Z</time>
      </trkpt>
      <trkpt lat="43.317884" lon="-1.711812">
        <ele>279.2</ele>
        <time>2018-06-16T10:54:12Z</time>
      </trkpt>
      <trkpt lat="43.317777" lon="-1.711820">
        <ele>276.8</ele>
        <time>2018-06-16T10:54:15Z</time>
      </trkpt>
      <trkpt lat="43.317716" lon="-1.711819">
        <ele>275.5</ele>
        <time>2018-06-16T10:54:17Z</time>
      </trkpt>
      <trkpt lat="43.317641" lon="-1.711804">
        <ele>274.1</ele>
        <time>2018-06-16T10:54:19Z</time>
      </trkpt>
      <trkpt lat="43.317589" lon="-1.711780">
        <ele>274.2</ele>
        <time>2018-06-16T10:54:20Z</time>
      </trkpt>
      <trkpt lat="43.317508" lon="-1.711716">
        <ele>274.8</ele>
        <time>2018-06-16T10:54:23Z</time>
      </trkpt>
      <trkpt lat="43.317409" lon="-1.711621">
        <ele>275.8</ele>
        <time>2018-06-16T10:54:26Z</time>
      </trkpt>
      <trkpt lat="43.317343" lon="-1.711573">
        <ele>276.2</ele>
        <time>2018-06-16T10:54:28Z</time>
      </trkpt>
      <trkpt lat="43.317276" lon="-1.711523">
        <ele>277.1</ele>
        <time>2018-06-16T10:54:30Z</time>
      </trkpt>
      <trkpt lat="43.317206" lon="-1.711503">
        <ele>277.4</ele>
        <time>2018-06-16T10:54:32Z</time>
      </trkpt>
      <trkpt lat="43.317128" lon="-1.711507">
        <ele>277.3</ele>
        <time>2018-06-16T10:54:34Z</time>
      </trkpt>
      <trkpt lat="43.317056" lon="-1.711510">
        <ele>277.8</ele>
        <time>2018-06-16T10:54:36Z</time>
      </trkpt>
      <trkpt lat="43.316961" lon="-1.711539">
        <ele>279.7</ele>
        <time>2018-06-16T10:54:38Z</time>
      </trkpt>
      <trkpt lat="43.316900" lon="-1.711581">
        <ele>281.3</ele>
        <time>2018-06-16T10:54:40Z</time>
      </trkpt>
      <trkpt lat="43.316826" lon="-1.711654">
        <ele>284.2</ele>
        <time>2018-06-16T10:54:43Z</time>
      </trkpt>
      <trkpt lat="43.316670" lon="-1.711826">
        <ele>297.0</ele>
        <time>2018-06-16T10:54:49Z</time>
      </trkpt>
      <trkpt lat="43.316616" lon="-1.711894">
        <ele>303.8</ele>
        <time>2018-06-16T10:54:51Z</time>
      </trkpt>
      <trkpt lat="43.316547" lon="-1.712008">
        <ele>315.7</ele>
        <time>2018-06-16T10:54:55Z</time>
      </trkpt>
      <trkpt lat="43.316466" lon="-1.712166">
        <ele>320.3</ele>
        <time>2018-06-16T10:54:59Z</time>
      </trkpt>
      <trkpt lat="43.316411" lon="-1.712291">
        <ele>317.3</ele>
        <time>2018-06-16T10:55:02Z</time>
      </trkpt>
      <trkpt lat="43.316302" lon="-1.712535">
        <ele>317.3</ele>
        <time>2018-06-16T10:55:08Z</time>
      </trkpt>
      <trkpt lat="43.316189" lon="-1.712847">
        <ele>321.1</ele>
        <time>2018-06-16T10:55:14Z</time>
      </trkpt>
      <trkpt lat="43.316146" lon="-1.712947">
        <ele>321.7</ele>
        <time>2018-06-16T10:55:17Z</time>
      </trkpt>
      <trkpt lat="43.316117" lon="-1.712999">
        <ele>322.5</ele>
        <time>2018-06-16T10:55:18Z</time>
      </trkpt>
      <trkpt lat="43.316087" lon="-1.713035">
        <ele>323.2</ele>
        <time>2018-06-16T10:55:19Z</time>
      </trkpt>
      <trkpt lat="43.316028" lon="-1.713093">
        <ele>324.7</ele>
        <time>2018-06-16T10:55:21Z</time>
      </trkpt>
      <trkpt lat="43.315992" lon="-1.713126">
        <ele>325.9</ele>
        <time>2018-06-16T10:55:22Z</time>
      </trkpt>
      <trkpt lat="43.315968" lon="-1.713156">
        <ele>327.1</ele>
        <time>2018-06-16T10:55:23Z</time>
      </trkpt>
      <trkpt lat="43.315958" lon="-1.713179">
        <ele>328.1</ele>
        <time>2018-06-16T10:55:24Z</time>
      </trkpt>
      <trkpt lat="43.315948" lon="-1.713213">
        <ele>328.7</ele>
        <time>2018-06-16T10:55:24Z</time>
      </trkpt>
      <trkpt lat="43.315942" lon="-1.713258">
        <ele>328.3</ele>
        <time>2018-06-16T10:55:25Z</time>
      </trkpt>
      <trkpt lat="43.315946" lon="-1.713289">
        <ele>327.7</ele>
        <time>2018-06-16T10:55:26Z</time>
      </trkpt>
      <trkpt lat="43.315956" lon="-1.713310">
        <ele>327.0</ele>
        <time>2018-06-16T10:55:26Z</time>
      </trkpt>
      <trkpt lat="43.315969" lon="-1.713337">
        <ele>326.1</ele>
        <time>2018-06-16T10:55:27Z</time>
      </trkpt>
      <trkpt lat="43.315995" lon="-1.713369">
        <ele>325.3</ele>
        <time>2018-06-16T10:55:28Z</time>
      </trkpt>
      <trkpt lat="43.316044" lon="-1.713417">
        <ele>324.4</ele>
        <time>2018-06-16T10:55:30Z</time>
      </trkpt>
      <trkpt lat="43.316187" lon="-1.713546">
        <ele>323.5</ele>
        <time>2018-06-16T10:55:34Z</time>
      </trkpt>
      <trkpt lat="43.316229" lon="-1.713578">
        <ele>323.2</ele>
        <time>2018-06-16T10:55:35Z</time>
      </trkpt>
      <trkpt lat="43.316269" lon="-1.713604">
        <ele>322.7</ele>
        <time>2018-06-16T10:55:36Z</time>
      </trkpt>
      <trkpt lat="43.316306" lon="-1.713626">
        <ele>322.1</ele>
        <time>2018-06-16T10:55:38Z</time>
      </trkpt>
      <trkpt lat="43.316447" lon="-1.713677">
        <ele>319.5</ele>
        <time>2018-06-16T10:55:41Z</time>
      </trkpt>
      <trkpt lat="43.316485" lon="-1.713706">
        <ele>318.5</ele>
        <time>2018-06-16T10:55:43Z</time>
      </trkpt>
      <trkpt lat="43.316515" lon="-1.713740">
        <ele>317.4</ele>
        <time>2018-06-16T10:55:44Z</time>
      </trkpt>
      <trkpt lat="43.316535" lon="-1.713780">
        <ele>317.1</ele>
        <time>2018-06-16T10:55:45Z</time>
      </trkpt>
      <trkpt lat="43.316550" lon="-1.713819">
        <ele>317.0</ele>
        <time>2018-06-16T10:55:45Z</time>
      </trkpt>
      <trkpt lat="43.316568" lon="-1.713890">
        <ele>317.1</ele>
        <time>2018-06-16T10:55:47Z</time>
      </trkpt>
      <trkpt lat="43.316570" lon="-1.713943">
        <ele>317.3</ele>
        <time>2018-06-16T10:55:48Z</time>
      </trkpt>
      <trkpt lat="43.316566" lon="-1.714013">
        <ele>317.8</ele>
        <time>2018-06-16T10:55:49Z</time>
      </trkpt>
      <trkpt lat="43.316535" lon="-1.714187">
        <ele>322.3</ele>
        <time>2018-06-16T10:55:53Z</time>
      </trkpt>
      <trkpt lat="43.316520" lon="-1.714288">
        <ele>324.8</ele>
        <time>2018-06-16T10:55:55Z</time>
      </trkpt>
      <trkpt lat="43.316521" lon="-1.714340">
        <ele>326.2</ele>
        <time>2018-06-16T10:55:56Z</time>
      </trkpt>
      <trkpt lat="43.316550" lon="-1.714399">
        <ele>327.2</ele>
        <time>2018-06-16T10:55:57Z</time>
      </trkpt>
      <trkpt lat="43.316616" lon="-1.714504">
        <ele>328.0</ele>
        <time>2018-06-16T10:56:00Z</time>
      </trkpt>
      <trkpt lat="43.316705" lon="-1.714585">
        <ele>326.6</ele>
        <time>2018-06-16T10:56:03Z</time>
      </trkpt>
      <trkpt lat="43.316737" lon="-1.714631">
        <ele>325.0</ele>
        <time>2018-06-16T10:56:04Z</time>
      </trkpt>
      <trkpt lat="43.316767" lon="-1.714693">
        <ele>323.1</ele>
        <time>2018-06-16T10:56:06Z</time>
      </trkpt>
      <trkpt lat="43.316783" lon="-1.714746">
        <ele>321.7</ele>
        <time>2018-06-16T10:56:07Z</time>
      </trkpt>
      <trkpt lat="43.316801" lon="-1.714825">
        <ele>319.7</ele>
        <time>2018-06-16T10:56:08Z</time>
      </trkpt>
      <trkpt lat="43.316809" lon="-1.714909">
        <ele>318.7</ele>
        <time>2018-06-16T10:56:10Z</time>
      </trkpt>
      <trkpt lat="43.316837" lon="-1.715131">
        <ele>317.6</ele>
        <time>2018-06-16T10:56:14Z</time>
      </trkpt>
      <trkpt lat="43.316905" lon="-1.715549">
        <ele>320.7</ele>
        <time>2018-06-16T10:56:23Z</time>
      </trkpt>
      <trkpt lat="43.316970" lon="-1.715838">
        <ele>321.4</ele>
        <time>2018-06-16T10:56:28Z</time>
      </trkpt>
      <trkpt lat="43.317053" lon="-1.716135">
        <ele>313.8</ele>
        <time>2018-06-16T10:56:35Z</time>
      </trkpt>
      <trkpt lat="43.317146" lon="-1.716456">
        <ele>306.2</ele>
        <time>2018-06-16T10:56:42Z</time>
      </trkpt>
      <trkpt lat="43.317182" lon="-1.716598">
        <ele>307.3</ele>
        <time>2018-06-16T10:56:45Z</time>
      </trkpt>
      <trkpt lat="43.317139" lon="-1.716722">
        <ele>310.1</ele>
        <time>2018-06-16T10:56:47Z</time>
      </trkpt>
      <trkpt lat="43.317081" lon="-1.716846">
        <ele>312.3</ele>
        <time>2018-06-16T10:56:50Z</time>
      </trkpt>
      <trkpt lat="43.317010" lon="-1.716926">
        <ele>312.8</ele>
        <time>2018-06-16T10:56:53Z</time>
      </trkpt>
      <trkpt lat="43.316909" lon="-1.717012">
        <ele>313.0</ele>
        <time>2018-06-16T10:56:56Z</time>
      </trkpt>
      <trkpt lat="43.316858" lon="-1.717098">
        <ele>313.1</ele>
        <time>2018-06-16T10:56:58Z</time>
      </trkpt>
      <trkpt lat="43.316843" lon="-1.717194">
        <ele>312.2</ele>
        <time>2018-06-16T10:57:00Z</time>
      </trkpt>
      <trkpt lat="43.316831" lon="-1.717407">
        <ele>310.4</ele>
        <time>2018-06-16T10:57:04Z</time>
      </trkpt>
      <trkpt lat="43.316796" lon="-1.718364">
        <ele>300.9</ele>
        <time>2018-06-16T10:57:22Z</time>
      </trkpt>
      <trkpt lat="43.316776" lon="-1.718487">
        <ele>299.8</ele>
        <time>2018-06-16T10:57:25Z</time>
      </trkpt>
      <trkpt lat="43.316683" lon="-1.718643">
        <ele>295.0</ele>
        <time>2018-06-16T10:57:29Z</time>
      </trkpt>
      <trkpt lat="43.316570" lon="-1.718777">
        <ele>289.6</ele>
        <time>2018-06-16T10:57:33Z</time>
      </trkpt>
      <trkpt lat="43.316397" lon="-1.718834">
        <ele>291.9</ele>
        <time>2018-06-16T10:57:38Z</time>
      </trkpt>
      <trkpt lat="43.316254" lon="-1.718895">
        <ele>293.8</ele>
        <time>2018-06-16T10:57:42Z</time>
      </trkpt>
      <trkpt lat="43.316106" lon="-1.719025">
        <ele>289.5</ele>
        <time>2018-06-16T10:57:46Z</time>
      </trkpt>
      <trkpt lat="43.316018" lon="-1.719212">
        <ele>282.9</ele>
        <time>2018-06-16T10:57:51Z</time>
      </trkpt>
      <trkpt lat="43.315954" lon="-1.719522">
        <ele>274.6</ele>
        <time>2018-06-16T10:57:58Z</time>
      </trkpt>
      <trkpt lat="43.315889" lon="-1.719708">
        <ele>274.6</ele>
        <time>2018-06-16T10:58:01Z</time>
      </trkpt>
      <trkpt lat="43.315863" lon="-1.719844">
        <ele>275.0</ele>
        <time>2018-06-16T10:58:04Z</time>
      </trkpt>
      <trkpt lat="43.315617" lon="-1.720150">
        <ele>275.2</ele>
        <time>2018-06-16T10:58:13Z</time>
      </trkpt>
      <trkpt lat="43.315293" lon="-1.720769">
        <ele>263.0</ele>
        <time>2018-06-16T10:58:28Z</time>
      </trkpt>
      <trkpt lat="43.315096" lon="-1.721266">
        <ele>254.2</ele>
        <time>2018-06-16T10:58:39Z</time>
      </trkpt>
      <trkpt lat="43.314947" lon="-1.722071">
        <ele>254.6</ele>
        <time>2018-06-16T10:58:55Z</time>
      </trkpt>
      <trkpt lat="43.314806" lon="-1.722409">
        <ele>253.0</ele>
        <time>2018-06-16T10:59:02Z</time>
      </trkpt>
      <trkpt lat="43.314685" lon="-1.722755">
        <ele>248.5</ele>
        <time>2018-06-16T10:59:10Z</time>
      </trkpt>
      <trkpt lat="43.314534" lon="-1.723374">
        <ele>233.2</ele>
        <time>2018-06-16T10:59:23Z</time>
      </trkpt>
      <trkpt lat="43.314478" lon="-1.723734">
        <ele>226.8</ele>
        <time>2018-06-16T10:59:30Z</time>
      </trkpt>
      <trkpt lat="43.314474" lon="-1.724054">
        <ele>226.1</ele>
        <time>2018-06-16T10:59:36Z</time>
      </trkpt>
      <trkpt lat="43.314393" lon="-1.724826">
        <ele>223.7</ele>
        <time>2018-06-16T10:59:51Z</time>
      </trkpt>
      <trkpt lat="43.314327" lon="-1.725579">
        <ele>211.7</ele>
        <time>2018-06-16T11:00:06Z</time>
      </trkpt>
      <trkpt lat="43.314145" lon="-1.726804">
        <ele>195.1</ele>
        <time>2018-06-16T11:00:30Z</time>
      </trkpt>
      <trkpt lat="43.314128" lon="-1.726990">
        <ele>196.9</ele>
        <time>2018-06-16T11:00:34Z</time>
      </trkpt>
      <trkpt lat="43.314148" lon="-1.727144">
        <ele>198.3</ele>
        <time>2018-06-16T11:00:37Z</time>
      </trkpt>
      <trkpt lat="43.314309" lon="-1.727387">
        <ele>202.2</ele>
        <time>2018-06-16T11:00:43Z</time>
      </trkpt>
      <trkpt lat="43.314469" lon="-1.727599">
        <ele>197.7</ele>
        <time>2018-06-16T11:00:49Z</time>
      </trkpt>
      <trkpt lat="43.314923" lon="-1.727929">
        <ele>200.0</ele>
        <time>2018-06-16T11:01:03Z</time>
      </trkpt>
      <trkpt lat="43.315375" lon="-1.728135">
        <ele>195.6</ele>
        <time>2018-06-16T11:01:15Z</time>
      </trkpt>
      <trkpt lat="43.315827" lon="-1.728280">
        <ele>195.8</ele>
        <time>2018-06-16T11:01:28Z</time>
      </trkpt>
      <trkpt lat="43.316142" lon="-1.728273">
        <ele>192.3</ele>
        <time>2018-06-16T11:01:36Z</time>
      </trkpt>
      <trkpt lat="43.317040" lon="-1.728008">
        <ele>196.7</ele>
        <time>2018-06-16T11:02:00Z</time>
      </trkpt>
      <trkpt lat="43.317400" lon="-1.728001">
        <ele>203.2</ele>
        <time>2018-06-16T11:02:10Z</time>
      </trkpt>
      <trkpt lat="43.317850" lon="-1.728053">
        <ele>201.1</ele>
        <time>2018-06-16T11:02:22Z</time>
      </trkpt>
      <trkpt lat="43.318157" lon="-1.728116">
        <ele>199.7</ele>
        <time>2018-06-16T11:02:30Z</time>
      </trkpt>
      <trkpt lat="43.319161" lon="-1.728457">
        <ele>195.7</ele>
        <time>2018-06-16T11:02:57Z</time>
      </trkpt>
      <trkpt lat="43.319566" lon="-1.728479">
        <ele>198.7</ele>
        <time>2018-06-16T11:03:08Z</time>
      </trkpt>
      <trkpt lat="43.319949" lon="-1.728502">
        <ele>192.4</ele>
        <time>2018-06-16T11:03:18Z</time>
      </trkpt>
      <trkpt lat="43.320240" lon="-1.728342">
        <ele>197.1</ele>
        <time>2018-06-16T11:03:27Z</time>
      </trkpt>
      <trkpt lat="43.320579" lon="-1.728358">
        <ele>197.3</ele>
        <time>2018-06-16T11:03:35Z</time>
      </trkpt>
      <trkpt lat="43.321093" lon="-1.728170">
        <ele>203.4</ele>
        <time>2018-06-16T11:03:50Z</time>
      </trkpt>
      <trkpt lat="43.321317" lon="-1.728073">
        <ele>212.4</ele>
        <time>2018-06-16T11:03:56Z</time>
      </trkpt>
      <trkpt lat="43.321542" lon="-1.728037">
        <ele>219.5</ele>
        <time>2018-06-16T11:04:02Z</time>
      </trkpt>
      <trkpt lat="43.321832" lon="-1.727785">
        <ele>231.3</ele>
        <time>2018-06-16T11:04:12Z</time>
      </trkpt>
      <trkpt lat="43.321945" lon="-1.727782">
        <ele>231.6</ele>
        <time>2018-06-16T11:04:15Z</time>
      </trkpt>
      <trkpt lat="43.322193" lon="-1.727808">
        <ele>232.5</ele>
        <time>2018-06-16T11:04:21Z</time>
      </trkpt>
      <trkpt lat="43.322610" lon="-1.728116">
        <ele>227.6</ele>
        <time>2018-06-16T11:04:34Z</time>
      </trkpt>
      <trkpt lat="43.322785" lon="-1.728213">
        <ele>227.3</ele>
        <time>2018-06-16T11:04:39Z</time>
      </trkpt>
      <trkpt lat="43.322867" lon="-1.728310">
        <ele>221.7</ele>
        <time>2018-06-16T11:04:42Z</time>
      </trkpt>
      <trkpt lat="43.322876" lon="-1.728503">
        <ele>208.7</ele>
        <time>2018-06-16T11:04:47Z</time>
      </trkpt>
      <trkpt lat="43.322914" lon="-1.728690">
        <ele>206.0</ele>
        <time>2018-06-16T11:04:51Z</time>
      </trkpt>
      <trkpt lat="43.322992" lon="-1.728809">
        <ele>206.0</ele>
        <time>2018-06-16T11:04:54Z</time>
      </trkpt>
      <trkpt lat="43.323150" lon="-1.728929">
        <ele>207.8</ele>
        <time>2018-06-16T11:04:58Z</time>
      </trkpt>
      <trkpt lat="43.323317" lon="-1.728985">
        <ele>209.2</ele>
        <time>2018-06-16T11:05:03Z</time>
      </trkpt>
      <trkpt lat="43.323582" lon="-1.728948">
        <ele>217.0</ele>
        <time>2018-06-16T11:05:10Z</time>
      </trkpt>
      <trkpt lat="43.323758" lon="-1.728916">
        <ele>223.8</ele>
        <time>2018-06-16T11:05:15Z</time>
      </trkpt>
      <trkpt lat="43.323922" lon="-1.728900">
        <ele>223.5</ele>
        <time>2018-06-16T11:05:20Z</time>
      </trkpt>
      <trkpt lat="43.324029" lon="-1.728972">
        <ele>220.6</ele>
        <time>2018-06-16T11:05:23Z</time>
      </trkpt>
      <trkpt lat="43.324234" lon="-1.729184">
        <ele>215.3</ele>
        <time>2018-06-16T11:05:30Z</time>
      </trkpt>
      <trkpt lat="43.324321" lon="-1.729216">
        <ele>213.8</ele>
        <time>2018-06-16T11:05:32Z</time>
      </trkpt>
      <trkpt lat="43.324543" lon="-1.729216">
        <ele>211.6</ele>
        <time>2018-06-16T11:05:38Z</time>
      </trkpt>
      <trkpt lat="43.324616" lon="-1.729176">
        <ele>212.4</ele>
        <time>2018-06-16T11:05:40Z</time>
      </trkpt>
      <trkpt lat="43.324821" lon="-1.729130">
        <ele>214.6</ele>
        <time>2018-06-16T11:05:46Z</time>
      </trkpt>
      <trkpt lat="43.324999" lon="-1.729137">
        <ele>212.9</ele>
        <time>2018-06-16T11:05:50Z</time>
      </trkpt>
      <trkpt lat="43.325149" lon="-1.729189">
        <ele>209.8</ele>
        <time>2018-06-16T11:05:54Z</time>
      </trkpt>
      <trkpt lat="43.325426" lon="-1.729377">
        <ele>196.7</ele>
        <time>2018-06-16T11:06:03Z</time>
      </trkpt>
      <trkpt lat="43.325793" lon="-1.729737">
        <ele>180.8</ele>
        <time>2018-06-16T11:06:16Z</time>
      </trkpt>
      <trkpt lat="43.326089" lon="-1.729978">
        <ele>184.8</ele>
        <time>2018-06-16T11:06:25Z</time>
      </trkpt>
      <trkpt lat="43.326338" lon="-1.730096">
        <ele>187.7</ele>
        <time>2018-06-16T11:06:32Z</time>
      </trkpt>
      <trkpt lat="43.326564" lon="-1.730214">
        <ele>186.5</ele>
        <time>2018-06-16T11:06:38Z</time>
      </trkpt>
      <trkpt lat="43.326879" lon="-1.730208">
        <ele>185.4</ele>
        <time>2018-06-16T11:06:46Z</time>
      </trkpt>
      <trkpt lat="43.327193" lon="-1.730109">
        <ele>188.8</ele>
        <time>2018-06-16T11:06:55Z</time>
      </trkpt>
      <trkpt lat="43.327327" lon="-1.730139">
        <ele>194.4</ele>
        <time>2018-06-16T11:06:59Z</time>
      </trkpt>
      <trkpt lat="43.327442" lon="-1.730227">
        <ele>196.3</ele>
        <time>2018-06-16T11:07:02Z</time>
      </trkpt>
      <trkpt lat="43.327585" lon="-1.730380">
        <ele>197.8</ele>
        <time>2018-06-16T11:07:07Z</time>
      </trkpt>
      <trkpt lat="43.327644" lon="-1.730455">
        <ele>197.8</ele>
        <time>2018-06-16T11:07:09Z</time>
      </trkpt>
      <trkpt lat="43.327675" lon="-1.730627">
        <ele>191.4</ele>
        <time>2018-06-16T11:07:13Z</time>
      </trkpt>
      <trkpt lat="43.327719" lon="-1.730707">
        <ele>186.6</ele>
        <time>2018-06-16T11:07:15Z</time>
      </trkpt>
      <trkpt lat="43.328059" lon="-1.731047">
        <ele>175.6</ele>
        <time>2018-06-16T11:07:26Z</time>
      </trkpt>
      <trkpt lat="43.328152" lon="-1.731104">
        <ele>177.6</ele>
        <time>2018-06-16T11:07:29Z</time>
      </trkpt>
      <trkpt lat="43.328240" lon="-1.731105">
        <ele>180.1</ele>
        <time>2018-06-16T11:07:32Z</time>
      </trkpt>
      <trkpt lat="43.328733" lon="-1.730971">
        <ele>187.4</ele>
        <time>2018-06-16T11:07:45Z</time>
      </trkpt>
      <trkpt lat="43.329114" lon="-1.730778">
        <ele>190.4</ele>
        <time>2018-06-16T11:07:56Z</time>
      </trkpt>
      <trkpt lat="43.329405" lon="-1.730649">
        <ele>186.8</ele>
        <time>2018-06-16T11:08:04Z</time>
      </trkpt>
      <trkpt lat="43.329585" lon="-1.730645">
        <ele>186.1</ele>
        <time>2018-06-16T11:08:09Z</time>
      </trkpt>
      <trkpt lat="43.329675" lon="-1.730643">
        <ele>188.0</ele>
        <time>2018-06-16T11:08:11Z</time>
      </trkpt>
      <trkpt lat="43.329766" lon="-1.730734">
        <ele>187.2</ele>
        <time>2018-06-16T11:08:14Z</time>
      </trkpt>
      <trkpt lat="43.329814" lon="-1.730948">
        <ele>179.9</ele>
        <time>2018-06-16T11:08:19Z</time>
      </trkpt>
      <trkpt lat="43.329838" lon="-1.731071">
        <ele>174.6</ele>
        <time>2018-06-16T11:08:21Z</time>
      </trkpt>
      <trkpt lat="43.329820" lon="-1.731473">
        <ele>163.2</ele>
        <time>2018-06-16T11:08:30Z</time>
      </trkpt>
      <trkpt lat="43.329777" lon="-1.731720">
        <ele>164.2</ele>
        <time>2018-06-16T11:08:34Z</time>
      </trkpt>
      <trkpt lat="43.329710" lon="-1.731904">
        <ele>157.5</ele>
        <time>2018-06-16T11:08:39Z</time>
      </trkpt>
      <trkpt lat="43.329854" lon="-1.732290">
        <ele>161.2</ele>
        <time>2018-06-16T11:08:47Z</time>
      </trkpt>
      <trkpt lat="43.330080" lon="-1.732639">
        <ele>154.0</ele>
        <time>2018-06-16T11:08:56Z</time>
      </trkpt>
      <trkpt lat="43.330402" lon="-1.733052">
        <ele>148.0</ele>
        <time>2018-06-16T11:09:08Z</time>
      </trkpt>
      <trkpt lat="43.330687" lon="-1.733492">
        <ele>146.2</ele>
        <time>2018-06-16T11:09:19Z</time>
      </trkpt>
      <trkpt lat="43.330835" lon="-1.733703">
        <ele>145.9</ele>
        <time>2018-06-16T11:09:25Z</time>
      </trkpt>
      <trkpt lat="43.331140" lon="-1.734082">
        <ele>144.3</ele>
        <time>2018-06-16T11:09:36Z</time>
      </trkpt>
      <trkpt lat="43.331206" lon="-1.734151">
        <ele>145.6</ele>
        <time>2018-06-16T11:09:38Z</time>
      </trkpt>
      <trkpt lat="43.331218" lon="-1.734280">
        <ele>143.5</ele>
        <time>2018-06-16T11:09:40Z</time>
      </trkpt>
      <trkpt lat="43.331386" lon="-1.734709">
        <ele>140.7</ele>
        <time>2018-06-16T11:09:50Z</time>
      </trkpt>
      <trkpt lat="43.331432" lon="-1.734800">
        <ele>141.3</ele>
        <time>2018-06-16T11:09:52Z</time>
      </trkpt>
      <trkpt lat="43.331523" lon="-1.734860">
        <ele>142.0</ele>
        <time>2018-06-16T11:09:55Z</time>
      </trkpt>
      <trkpt lat="43.331636" lon="-1.734919">
        <ele>140.9</ele>
        <time>2018-06-16T11:09:58Z</time>
      </trkpt>
      <trkpt lat="43.331702" lon="-1.735097">
        <ele>139.6</ele>
        <time>2018-06-16T11:10:02Z</time>
      </trkpt>
      <trkpt lat="43.331803" lon="-1.735393">
        <ele>138.1</ele>
        <time>2018-06-16T11:10:08Z</time>
      </trkpt>
      <trkpt lat="43.331819" lon="-1.735511">
        <ele>136.8</ele>
        <time>2018-06-16T11:10:10Z</time>
      </trkpt>
      <trkpt lat="43.331836" lon="-1.735640">
        <ele>135.5</ele>
        <time>2018-06-16T11:10:13Z</time>
      </trkpt>
      <trkpt lat="43.331876" lon="-1.735891">
        <ele>134.3</ele>
        <time>2018-06-16T11:10:18Z</time>
      </trkpt>
      <trkpt lat="43.331923" lon="-1.736134">
        <ele>132.5</ele>
        <time>2018-06-16T11:10:22Z</time>
      </trkpt>
      <trkpt lat="43.331936" lon="-1.736269">
        <ele>130.5</ele>
        <time>2018-06-16T11:10:25Z</time>
      </trkpt>
      <trkpt lat="43.331949" lon="-1.736431">
        <ele>126.3</ele>
        <time>2018-06-16T11:10:28Z</time>
      </trkpt>
      <trkpt lat="43.331943" lon="-1.736535">
        <ele>123.1</ele>
        <time>2018-06-16T11:10:31Z</time>
      </trkpt>
      <trkpt lat="43.331934" lon="-1.736617">
        <ele>119.4</ele>
        <time>2018-06-16T11:10:32Z</time>
      </trkpt>
      <trkpt lat="43.331919" lon="-1.736668">
        <ele>116.9</ele>
        <time>2018-06-16T11:10:34Z</time>
      </trkpt>
      <trkpt lat="43.331914" lon="-1.736706">
        <ele>115.3</ele>
        <time>2018-06-16T11:10:34Z</time>
      </trkpt>
      <trkpt lat="43.331922" lon="-1.736730">
        <ele>114.6</ele>
        <time>2018-06-16T11:10:35Z</time>
      </trkpt>
      <trkpt lat="43.331943" lon="-1.736759">
        <ele>113.9</ele>
        <time>2018-06-16T11:10:36Z</time>
      </trkpt>
      <trkpt lat="43.331994" lon="-1.736793">
        <ele>113.3</ele>
        <time>2018-06-16T11:10:37Z</time>
      </trkpt>
      <trkpt lat="43.332059" lon="-1.736819">
        <ele>113.3</ele>
        <time>2018-06-16T11:10:39Z</time>
      </trkpt>
      <trkpt lat="43.332090" lon="-1.736822">
        <ele>113.5</ele>
        <time>2018-06-16T11:10:40Z</time>
      </trkpt>
      <trkpt lat="43.332133" lon="-1.736814">
        <ele>113.4</ele>
        <time>2018-06-16T11:10:41Z</time>
      </trkpt>
      <trkpt lat="43.332174" lon="-1.736798">
        <ele>113.7</ele>
        <time>2018-06-16T11:10:42Z</time>
      </trkpt>
      <trkpt lat="43.332212" lon="-1.736802">
        <ele>113.2</ele>
        <time>2018-06-16T11:10:43Z</time>
      </trkpt>
      <trkpt lat="43.332254" lon="-1.736815">
        <ele>112.5</ele>
        <time>2018-06-16T11:10:44Z</time>
      </trkpt>
      <trkpt lat="43.332284" lon="-1.736829">
        <ele>112.0</ele>
        <time>2018-06-16T11:10:45Z</time>
      </trkpt>
      <trkpt lat="43.332299" lon="-1.736848">
        <ele>111.4</ele>
        <time>2018-06-16T11:10:46Z</time>
      </trkpt>
      <trkpt lat="43.332302" lon="-1.736889">
        <ele>110.3</ele>
        <time>2018-06-16T11:10:47Z</time>
      </trkpt>
      <trkpt lat="43.332286" lon="-1.736977">
        <ele>108.2</ele>
        <time>2018-06-16T11:10:48Z</time>
      </trkpt>
      <trkpt lat="43.332267" lon="-1.737053">
        <ele>106.4</ele>
        <time>2018-06-16T11:10:50Z</time>
      </trkpt>
      <trkpt lat="43.332258" lon="-1.737095">
        <ele>105.4</ele>
        <time>2018-06-16T11:10:51Z</time>
      </trkpt>
      <trkpt lat="43.332258" lon="-1.737117">
        <ele>104.8</ele>
        <time>2018-06-16T11:10:51Z</time>
      </trkpt>
      <trkpt lat="43.332266" lon="-1.737132">
        <ele>104.4</ele>
        <time>2018-06-16T11:10:52Z</time>
      </trkpt>
      <trkpt lat="43.332279" lon="-1.737132">
        <ele>104.3</ele>
        <time>2018-06-16T11:10:52Z</time>
      </trkpt>
      <trkpt lat="43.332305" lon="-1.737118">
        <ele>104.5</ele>
        <time>2018-06-16T11:10:53Z</time>
      </trkpt>
      <trkpt lat="43.332342" lon="-1.737073">
        <ele>105.4</ele>
        <time>2018-06-16T11:10:54Z</time>
      </trkpt>
      <trkpt lat="43.332373" lon="-1.737014">
        <ele>106.4</ele>
        <time>2018-06-16T11:10:55Z</time>
      </trkpt>
      <trkpt lat="43.332400" lon="-1.736977">
        <ele>106.7</ele>
        <time>2018-06-16T11:10:56Z</time>
      </trkpt>
      <trkpt lat="43.332423" lon="-1.736954">
        <ele>106.7</ele>
        <time>2018-06-16T11:10:57Z</time>
      </trkpt>
      <trkpt lat="43.332440" lon="-1.736954">
        <ele>106.3</ele>
        <time>2018-06-16T11:10:58Z</time>
      </trkpt>
      <trkpt lat="43.332459" lon="-1.736961">
        <ele>105.6</ele>
        <time>2018-06-16T11:10:58Z</time>
      </trkpt>
      <trkpt lat="43.332468" lon="-1.736986">
        <ele>104.8</ele>
        <time>2018-06-16T11:10:59Z</time>
      </trkpt>
      <trkpt lat="43.332468" lon="-1.737021">
        <ele>103.9</ele>
        <time>2018-06-16T11:10:59Z</time>
      </trkpt>
      <trkpt lat="43.332452" lon="-1.737216">
        <ele>100.0</ele>
        <time>2018-06-16T11:11:03Z</time>
      </trkpt>
      <trkpt lat="43.332446" lon="-1.737330">
        <ele>97.7</ele>
        <time>2018-06-16T11:11:06Z</time>
      </trkpt>
      <trkpt lat="43.332456" lon="-1.737388">
        <ele>96.5</ele>
        <time>2018-06-16T11:11:07Z</time>
      </trkpt>
      <trkpt lat="43.332491" lon="-1.737493">
        <ele>94.2</ele>
        <time>2018-06-16T11:11:09Z</time>
      </trkpt>
      <trkpt lat="43.332506" lon="-1.737571">
        <ele>92.6</ele>
        <time>2018-06-16T11:11:11Z</time>
      </trkpt>
      <trkpt lat="43.332518" lon="-1.737686">
        <ele>90.6</ele>
        <time>2018-06-16T11:11:13Z</time>
      </trkpt>
      <trkpt lat="43.332523" lon="-1.737772">
        <ele>89.6</ele>
        <time>2018-06-16T11:11:15Z</time>
      </trkpt>
      <trkpt lat="43.332515" lon="-1.737953">
        <ele>88.1</ele>
        <time>2018-06-16T11:11:18Z</time>
      </trkpt>
      <trkpt lat="43.332482" lon="-1.738179">
        <ele>88.3</ele>
        <time>2018-06-16T11:11:23Z</time>
      </trkpt>
      <trkpt lat="43.332464" lon="-1.738303">
        <ele>85.9</ele>
        <time>2018-06-16T11:11:25Z</time>
      </trkpt>
      <trkpt lat="43.332455" lon="-1.738388">
        <ele>84.1</ele>
        <time>2018-06-16T11:11:27Z</time>
      </trkpt>
      <trkpt lat="43.332455" lon="-1.738463">
        <ele>82.5</ele>
        <time>2018-06-16T11:11:28Z</time>
      </trkpt>
      <trkpt lat="43.332465" lon="-1.738528">
        <ele>82.3</ele>
        <time>2018-06-16T11:11:29Z</time>
      </trkpt>
      <trkpt lat="43.332488" lon="-1.738582">
        <ele>82.3</ele>
        <time>2018-06-16T11:11:31Z</time>
      </trkpt>
      <trkpt lat="43.332644" lon="-1.739055">
        <ele>82.2</ele>
        <time>2018-06-16T11:11:41Z</time>
      </trkpt>
      <trkpt lat="43.332653" lon="-1.739120">
        <ele>80.4</ele>
        <time>2018-06-16T11:11:42Z</time>
      </trkpt>
      <trkpt lat="43.332659" lon="-1.739212">
        <ele>78.2</ele>
        <time>2018-06-16T11:11:44Z</time>
      </trkpt>
      <trkpt lat="43.332665" lon="-1.739469">
        <ele>73.2</ele>
        <time>2018-06-16T11:11:49Z</time>
      </trkpt>
      <trkpt lat="43.332692" lon="-1.739618">
        <ele>71.0</ele>
        <time>2018-06-16T11:11:52Z</time>
      </trkpt>
      <trkpt lat="43.332731" lon="-1.739742">
        <ele>70.2</ele>
        <time>2018-06-16T11:11:54Z</time>
      </trkpt>
      <trkpt lat="43.332777" lon="-1.739888">
        <ele>69.1</ele>
        <time>2018-06-16T11:11:58Z</time>
      </trkpt>
      <trkpt lat="43.332881" lon="-1.740163">
        <ele>70.8</ele>
        <time>2018-06-16T11:12:04Z</time>
      </trkpt>
      <trkpt lat="43.332927" lon="-1.740285">
        <ele>71.5</ele>
        <time>2018-06-16T11:12:06Z</time>
      </trkpt>
      <trkpt lat="43.333107" lon="-1.740282">
        <ele>71.5</ele>
        <time>2018-06-16T11:12:11Z</time>
      </trkpt>
      <trkpt lat="43.333288" lon="-1.740340">
        <ele>73.2</ele>
        <time>2018-06-16T11:12:16Z</time>
      </trkpt>
      <trkpt lat="43.333812" lon="-1.740884">
        <ele>68.1</ele>
        <time>2018-06-16T11:12:33Z</time>
      </trkpt>
      <trkpt lat="43.334564" lon="-1.741732">
        <ele>72.6</ele>
        <time>2018-06-16T11:12:59Z</time>
      </trkpt>
      <trkpt lat="43.334747" lon="-1.742006">
        <ele>76.7</ele>
        <time>2018-06-16T11:13:06Z</time>
      </trkpt>
      <trkpt lat="43.334760" lon="-1.742101">
        <ele>78.3</ele>
        <time>2018-06-16T11:13:08Z</time>
      </trkpt>
      <trkpt lat="43.334749" lon="-1.742221">
        <ele>80.5</ele>
        <time>2018-06-16T11:13:10Z</time>
      </trkpt>
      <trkpt lat="43.334728" lon="-1.742376">
        <ele>82.6</ele>
        <time>2018-06-16T11:13:13Z</time>
      </trkpt>
      <trkpt lat="43.334353" lon="-1.743031">
        <ele>59.9</ele>
        <time>2018-06-16T11:13:30Z</time>
      </trkpt>
      <trkpt lat="43.334117" lon="-1.743181">
        <ele>56.7</ele>
        <time>2018-06-16T11:13:37Z</time>
      </trkpt>
      <trkpt lat="43.333862" lon="-1.743240">
        <ele>56.4</ele>
        <time>2018-06-16T11:13:44Z</time>
      </trkpt>
      <trkpt lat="43.333715" lon="-1.743247">
        <ele>56.0</ele>
        <time>2018-06-16T11:13:48Z</time>
      </trkpt>
      <trkpt lat="43.333659" lon="-1.743273">
        <ele>55.8</ele>
        <time>2018-06-16T11:13:49Z</time>
      </trkpt>
      <trkpt lat="43.333627" lon="-1.743350">
        <ele>55.5</ele>
        <time>2018-06-16T11:13:51Z</time>
      </trkpt>
      <trkpt lat="43.333609" lon="-1.743500">
        <ele>55.0</ele>
        <time>2018-06-16T11:13:54Z</time>
      </trkpt>
      <trkpt lat="43.333594" lon="-1.743602">
        <ele>55.1</ele>
        <time>2018-06-16T11:13:56Z</time>
      </trkpt>
      <trkpt lat="43.333555" lon="-1.744158">
        <ele>52.2</ele>
        <time>2018-06-16T11:14:07Z</time>
      </trkpt>
      <trkpt lat="43.333563" lon="-1.744475">
        <ele>49.9</ele>
        <time>2018-06-16T11:14:13Z</time>
      </trkpt>
      <trkpt lat="43.333583" lon="-1.744633">
        <ele>48.8</ele>
        <time>2018-06-16T11:14:16Z</time>
      </trkpt>
      <trkpt lat="43.333650" lon="-1.745097">
        <ele>49.2</ele>
        <time>2018-06-16T11:14:25Z</time>
      </trkpt>
      <trkpt lat="43.333693" lon="-1.745407">
        <ele>47.5</ele>
        <time>2018-06-16T11:14:31Z</time>
      </trkpt>
      <trkpt lat="43.333916" lon="-1.746819">
        <ele>41.2</ele>
        <time>2018-06-16T11:14:59Z</time>
      </trkpt>
      <trkpt lat="43.334052" lon="-1.747337">
        <ele>39.6</ele>
        <time>2018-06-16T11:15:09Z</time>
      </trkpt>
      <trkpt lat="43.334133" lon="-1.747654">
        <ele>36.1</ele>
        <time>2018-06-16T11:15:16Z</time>
      </trkpt>
      <trkpt lat="43.334176" lon="-1.747851">
        <ele>34.0</ele>
        <time>2018-06-16T11:15:20Z</time>
      </trkpt>
      <trkpt lat="43.334295" lon="-1.748533">
        <ele>29.6</ele>
        <time>2018-06-16T11:15:33Z</time>
      </trkpt>
      <trkpt lat="43.334381" lon="-1.748976">
        <ele>24.8</ele>
        <time>2018-06-16T11:15:42Z</time>
      </trkpt>
      <trkpt lat="43.334434" lon="-1.749228">
        <ele>21.3</ele>
        <time>2018-06-16T11:15:47Z</time>
      </trkpt>
      <trkpt lat="43.334466" lon="-1.749427">
        <ele>18.8</ele>
        <time>2018-06-16T11:15:51Z</time>
      </trkpt>
      <trkpt lat="43.334495" lon="-1.749532">
        <ele>17.5</ele>
        <time>2018-06-16T11:15:54Z</time>
      </trkpt>
      <trkpt lat="43.334528" lon="-1.749587">
        <ele>17.0</ele>
        <time>2018-06-16T11:15:55Z</time>
      </trkpt>
      <trkpt lat="43.334625" lon="-1.749749">
        <ele>15.6</ele>
        <time>2018-06-16T11:15:59Z</time>
      </trkpt>
      <trkpt lat="43.334697" lon="-1.749895">
        <ele>16.0</ele>
        <time>2018-06-16T11:16:02Z</time>
      </trkpt>
      <trkpt lat="43.334747" lon="-1.750050">
        <ele>18.0</ele>
        <time>2018-06-16T11:16:06Z</time>
      </trkpt>
      <trkpt lat="43.334816" lon="-1.750233">
        <ele>20.1</ele>
        <time>2018-06-16T11:16:10Z</time>
      </trkpt>
      <trkpt lat="43.334880" lon="-1.750361">
        <ele>21.3</ele>
        <time>2018-06-16T11:16:13Z</time>
      </trkpt>
      <trkpt lat="43.334964" lon="-1.750449">
        <ele>19.7</ele>
        <time>2018-06-16T11:16:15Z</time>
      </trkpt>
      <trkpt lat="43.335064" lon="-1.750530">
        <ele>17.8</ele>
        <time>2018-06-16T11:16:18Z</time>
      </trkpt>
      <trkpt lat="43.335302" lon="-1.750660">
        <ele>15.5</ele>
        <time>2018-06-16T11:16:25Z</time>
      </trkpt>
      <trkpt lat="43.335455" lon="-1.750712">
        <ele>13.8</ele>
        <time>2018-06-16T11:16:29Z</time>
      </trkpt>
      <trkpt lat="43.335646" lon="-1.750752">
        <ele>16.8</ele>
        <time>2018-06-16T11:16:35Z</time>
      </trkpt>
      <trkpt lat="43.335729" lon="-1.750762">
        <ele>17.5</ele>
        <time>2018-06-16T11:16:37Z</time>
      </trkpt>
      <trkpt lat="43.335789" lon="-1.750760">
        <ele>17.1</ele>
        <time>2018-06-16T11:16:38Z</time>
      </trkpt>
      <trkpt lat="43.335936" lon="-1.750718">
        <ele>15.5</ele>
        <time>2018-06-16T11:16:42Z</time>
      </trkpt>
      <trkpt lat="43.336021" lon="-1.750684">
        <ele>15.0</ele>
        <time>2018-06-16T11:16:45Z</time>
      </trkpt>
      <trkpt lat="43.336064" lon="-1.750678">
        <ele>15.1</ele>
        <time>2018-06-16T11:16:46Z</time>
      </trkpt>
      <trkpt lat="43.336104" lon="-1.750678">
        <ele>15.1</ele>
        <time>2018-06-16T11:16:47Z</time>
      </trkpt>
      <trkpt lat="43.336147" lon="-1.750700">
        <ele>15.0</ele>
        <time>2018-06-16T11:16:48Z</time>
      </trkpt>
      <trkpt lat="43.336179" lon="-1.750722">
        <ele>14.8</ele>
        <time>2018-06-16T11:16:49Z</time>
      </trkpt>
      <trkpt lat="43.336285" lon="-1.750836">
        <ele>13.8</ele>
        <time>2018-06-16T11:16:53Z</time>
      </trkpt>
      <trkpt lat="43.336427" lon="-1.751032">
        <ele>13.9</ele>
        <time>2018-06-16T11:16:58Z</time>
      </trkpt>
      <trkpt lat="43.336514" lon="-1.751155">
        <ele>16.1</ele>
        <time>2018-06-16T11:17:01Z</time>
      </trkpt>
      <trkpt lat="43.336568" lon="-1.751213">
        <ele>17.0</ele>
        <time>2018-06-16T11:17:03Z</time>
      </trkpt>
      <trkpt lat="43.336621" lon="-1.751239">
        <ele>17.3</ele>
        <time>2018-06-16T11:17:05Z</time>
      </trkpt>
      <trkpt lat="43.336673" lon="-1.751250">
        <ele>17.5</ele>
        <time>2018-06-16T11:17:06Z</time>
      </trkpt>
      <trkpt lat="43.336731" lon="-1.751253">
        <ele>17.7</ele>
        <time>2018-06-16T11:17:07Z</time>
      </trkpt>
      <trkpt lat="43.336793" lon="-1.751237">
        <ele>18.1</ele>
        <time>2018-06-16T11:17:09Z</time>
      </trkpt>
      <trkpt lat="43.336854" lon="-1.751195">
        <ele>18.9</ele>
        <time>2018-06-16T11:17:11Z</time>
      </trkpt>
      <trkpt lat="43.337294" lon="-1.750815">
        <ele>26.4</ele>
        <time>2018-06-16T11:17:25Z</time>
      </trkpt>
      <trkpt lat="43.337355" lon="-1.750774">
        <ele>26.2</ele>
        <time>2018-06-16T11:17:27Z</time>
      </trkpt>
      <trkpt lat="43.337423" lon="-1.750746">
        <ele>25.8</ele>
        <time>2018-06-16T11:17:28Z</time>
      </trkpt>
      <trkpt lat="43.337538" lon="-1.750728">
        <ele>24.7</ele>
        <time>2018-06-16T11:17:31Z</time>
      </trkpt>
      <trkpt lat="43.337688" lon="-1.750726">
        <ele>23.2</ele>
        <time>2018-06-16T11:17:35Z</time>
      </trkpt>
      <trkpt lat="43.337824" lon="-1.750742">
        <ele>21.8</ele>
        <time>2018-06-16T11:17:39Z</time>
      </trkpt>
      <trkpt lat="43.337886" lon="-1.750758">
        <ele>20.9</ele>
        <time>2018-06-16T11:17:41Z</time>
      </trkpt>
      <trkpt lat="43.338021" lon="-1.750806">
        <ele>19.5</ele>
        <time>2018-06-16T11:17:44Z</time>
      </trkpt>
      <trkpt lat="43.338206" lon="-1.750911">
        <ele>17.9</ele>
        <time>2018-06-16T11:17:50Z</time>
      </trkpt>
      <trkpt lat="43.338387" lon="-1.750988">
        <ele>17.7</ele>
        <time>2018-06-16T11:17:55Z</time>
      </trkpt>
      <trkpt lat="43.338526" lon="-1.751025">
        <ele>17.3</ele>
        <time>2018-06-16T11:17:58Z</time>
      </trkpt>
      <trkpt lat="43.338681" lon="-1.751057">
        <ele>16.1</ele>
        <time>2018-06-16T11:18:03Z</time>
      </trkpt>
      <trkpt lat="43.338936" lon="-1.751089">
        <ele>14.4</ele>
        <time>2018-06-16T11:18:09Z</time>
      </trkpt>
      <trkpt lat="43.339101" lon="-1.751102">
        <ele>13.2</ele>
        <time>2018-06-16T11:18:14Z</time>
      </trkpt>
      <trkpt lat="43.339194" lon="-1.751111">
        <ele>12.6</ele>
        <time>2018-06-16T11:18:16Z</time>
      </trkpt>
      <trkpt lat="43.339282" lon="-1.751134">
        <ele>12.3</ele>
        <time>2018-06-16T11:18:19Z</time>
      </trkpt>
      <trkpt lat="43.339439" lon="-1.751230">
        <ele>13.9</ele>
        <time>2018-06-16T11:18:23Z</time>
      </trkpt>
      <trkpt lat="43.339532" lon="-1.751355">
        <ele>13.8</ele>
        <time>2018-06-16T11:18:27Z</time>
      </trkpt>
      <trkpt lat="43.339573" lon="-1.751398">
        <ele>13.4</ele>
        <time>2018-06-16T11:18:28Z</time>
      </trkpt>
      <trkpt lat="43.339584" lon="-1.751448">
        <ele>12.9</ele>
        <time>2018-06-16T11:18:29Z</time>
      </trkpt>
      <trkpt lat="43.339520" lon="-1.751603">
        <ele>13.3</ele>
        <time>2018-06-16T11:18:32Z</time>
      </trkpt>
      <trkpt lat="43.339500" lon="-1.751675">
        <ele>14.2</ele>
        <time>2018-06-16T11:18:34Z</time>
      </trkpt>
      <trkpt lat="43.339499" lon="-1.751757">
        <ele>15.1</ele>
        <time>2018-06-16T11:18:35Z</time>
      </trkpt>
      <trkpt lat="43.339512" lon="-1.751863">
        <ele>15.7</ele>
        <time>2018-06-16T11:18:37Z</time>
      </trkpt>
      <trkpt lat="43.339557" lon="-1.751983">
        <ele>15.4</ele>
        <time>2018-06-16T11:18:40Z</time>
      </trkpt>
      <trkpt lat="43.339667" lon="-1.752074">
        <ele>14.4</ele>
        <time>2018-06-16T11:18:43Z</time>
      </trkpt>
      <trkpt lat="43.339856" lon="-1.752140">
        <ele>13.0</ele>
        <time>2018-06-16T11:18:49Z</time>
      </trkpt>
      <trkpt lat="43.340087" lon="-1.752156">
        <ele>11.8</ele>
        <time>2018-06-16T11:18:55Z</time>
      </trkpt>
      <trkpt lat="43.340187" lon="-1.752137">
        <ele>12.1</ele>
        <time>2018-06-16T11:18:57Z</time>
      </trkpt>
      <trkpt lat="43.340288" lon="-1.752107">
        <ele>13.3</ele>
        <time>2018-06-16T11:19:00Z</time>
      </trkpt>
      <trkpt lat="43.340389" lon="-1.752069">
        <ele>14.6</ele>
        <time>2018-06-16T11:19:03Z</time>
      </trkpt>
      <trkpt lat="43.340469" lon="-1.752025">
        <ele>14.8</ele>
        <time>2018-06-16T11:19:05Z</time>
      </trkpt>
      <trkpt lat="43.340537" lon="-1.751980">
        <ele>14.6</ele>
        <time>2018-06-16T11:19:07Z</time>
      </trkpt>
      <trkpt lat="43.340589" lon="-1.751991">
        <ele>14.7</ele>
        <time>2018-06-16T11:19:09Z</time>
      </trkpt>
      <trkpt lat="43.340654" lon="-1.752014">
        <ele>14.8</ele>
        <time>2018-06-16T11:19:10Z</time>
      </trkpt>
      <trkpt lat="43.340708" lon="-1.752144">
        <ele>15.2</ele>
        <time>2018-06-16T11:19:13Z</time>
      </trkpt>
      <trkpt lat="43.340814" lon="-1.752229">
        <ele>15.1</ele>
        <time>2018-06-16T11:19:16Z</time>
      </trkpt>
      <trkpt lat="43.340995" lon="-1.752351">
        <ele>13.9</ele>
        <time>2018-06-16T11:19:22Z</time>
      </trkpt>
      <trkpt lat="43.341234" lon="-1.752581">
        <ele>13.8</ele>
        <time>2018-06-16T11:19:29Z</time>
      </trkpt>
      <trkpt lat="43.341571" lon="-1.752939">
        <ele>13.9</ele>
        <time>2018-06-16T11:19:41Z</time>
      </trkpt>
      <trkpt lat="43.341865" lon="-1.753283">
        <ele>12.5</ele>
        <time>2018-06-16T11:19:51Z</time>
      </trkpt>
      <trkpt lat="43.342089" lon="-1.753592">
        <ele>11.0</ele>
        <time>2018-06-16T11:19:59Z</time>
      </trkpt>
      <trkpt lat="43.342435" lon="-1.754156">
        <ele>11.3</ele>
        <time>2018-06-16T11:20:13Z</time>
      </trkpt>
      <trkpt lat="43.342927" lon="-1.754901">
        <ele>11.0</ele>
        <time>2018-06-16T11:20:33Z</time>
      </trkpt>
      <trkpt lat="43.343432" lon="-1.755626">
        <ele>10.9</ele>
        <time>2018-06-16T11:20:52Z</time>
      </trkpt>
      <trkpt lat="43.343848" lon="-1.756324">
        <ele>11.6</ele>
        <time>2018-06-16T11:21:09Z</time>
      </trkpt>
      <trkpt lat="43.344097" lon="-1.756769">
        <ele>12.8</ele>
        <time>2018-06-16T11:21:20Z</time>
      </trkpt>
      <trkpt lat="43.344215" lon="-1.757064">
        <ele>14.8</ele>
        <time>2018-06-16T11:21:26Z</time>
      </trkpt>
      <trkpt lat="43.344363" lon="-1.757476">
        <ele>15.0</ele>
        <time>2018-06-16T11:21:35Z</time>
      </trkpt>
      <trkpt lat="43.344467" lon="-1.757804">
        <ele>15.8</ele>
        <time>2018-06-16T11:21:42Z</time>
      </trkpt>
      <trkpt lat="43.344496" lon="-1.757953">
        <ele>14.3</ele>
        <time>2018-06-16T11:21:45Z</time>
      </trkpt>
      <trkpt lat="43.344530" lon="-1.758114">
        <ele>14.5</ele>
        <time>2018-06-16T11:21:48Z</time>
      </trkpt>
      <trkpt lat="43.344540" lon="-1.758299">
        <ele>15.0</ele>
        <time>2018-06-16T11:21:52Z</time>
      </trkpt>
      <trkpt lat="43.344547" lon="-1.758499">
        <ele>16.0</ele>
        <time>2018-06-16T11:21:56Z</time>
      </trkpt>
      <trkpt lat="43.344545" lon="-1.758639">
        <ele>15.5</ele>
        <time>2018-06-16T11:21:58Z</time>
      </trkpt>
      <trkpt lat="43.344530" lon="-1.758774">
        <ele>14.9</ele>
        <time>2018-06-16T11:22:01Z</time>
      </trkpt>
      <trkpt lat="43.344503" lon="-1.758984">
        <ele>14.5</ele>
        <time>2018-06-16T11:22:05Z</time>
      </trkpt>
      <trkpt lat="43.344479" lon="-1.759312">
        <ele>13.8</ele>
        <time>2018-06-16T11:22:11Z</time>
      </trkpt>
      <trkpt lat="43.344455" lon="-1.759925">
        <ele>10.3</ele>
        <time>2018-06-16T11:22:23Z</time>
      </trkpt>
      <trkpt lat="43.344449" lon="-1.760272">
        <ele>10.6</ele>
        <time>2018-06-16T11:22:30Z</time>
      </trkpt>
      <trkpt lat="43.344490" lon="-1.760675">
        <ele>9.7</ele>
        <time>2018-06-16T11:22:38Z</time>
      </trkpt>
      <trkpt lat="43.344554" lon="-1.761124">
        <ele>9.5</ele>
        <time>2018-06-16T11:22:47Z</time>
      </trkpt>
      <trkpt lat="43.344583" lon="-1.761211">
        <ele>9.1</ele>
        <time>2018-06-16T11:22:48Z</time>
      </trkpt>
      <trkpt lat="43.344622" lon="-1.761245">
        <ele>9.4</ele>
        <time>2018-06-16T11:22:50Z</time>
      </trkpt>
      <trkpt lat="43.344648" lon="-1.761318">
        <ele>9.5</ele>
        <time>2018-06-16T11:22:51Z</time>
      </trkpt>
      <trkpt lat="43.344645" lon="-1.761423">
        <ele>9.2</ele>
        <time>2018-06-16T11:22:53Z</time>
      </trkpt>
      <trkpt lat="43.344659" lon="-1.761478">
        <ele>9.2</ele>
        <time>2018-06-16T11:22:54Z</time>
      </trkpt>
      <trkpt lat="43.344800" lon="-1.761644">
        <ele>10.2</ele>
        <time>2018-06-16T11:22:59Z</time>
      </trkpt>
      <trkpt lat="43.344958" lon="-1.761813">
        <ele>10.7</ele>
        <time>2018-06-16T11:23:04Z</time>
      </trkpt>
      <trkpt lat="43.345482" lon="-1.762388">
        <ele>15.6</ele>
        <time>2018-06-16T11:23:22Z</time>
      </trkpt>
      <trkpt lat="43.345640" lon="-1.762416">
        <ele>17.1</ele>
        <time>2018-06-16T11:23:26Z</time>
      </trkpt>
      <trkpt lat="43.345688" lon="-1.762431">
        <ele>17.4</ele>
        <time>2018-06-16T11:23:28Z</time>
      </trkpt>
      <trkpt lat="43.345709" lon="-1.762507">
        <ele>17.3</ele>
        <time>2018-06-16T11:23:29Z</time>
      </trkpt>
      <trkpt lat="43.345699" lon="-1.762579">
        <ele>16.6</ele>
        <time>2018-06-16T11:23:31Z</time>
      </trkpt>
      <trkpt lat="43.345665" lon="-1.762662">
        <ele>15.7</ele>
        <time>2018-06-16T11:23:33Z</time>
      </trkpt>
      <trkpt lat="43.345576" lon="-1.762695">
        <ele>15.2</ele>
        <time>2018-06-16T11:23:35Z</time>
      </trkpt>
      <trkpt lat="43.345520" lon="-1.762651">
        <ele>14.8</ele>
        <time>2018-06-16T11:23:37Z</time>
      </trkpt>
      <trkpt lat="43.345469" lon="-1.762584">
        <ele>14.6</ele>
        <time>2018-06-16T11:23:39Z</time>
      </trkpt>
      <trkpt lat="43.345383" lon="-1.762552">
        <ele>14.4</ele>
        <time>2018-06-16T11:23:41Z</time>
      </trkpt>
      <trkpt lat="43.345261" lon="-1.762547">
        <ele>14.7</ele>
        <time>2018-06-16T11:23:44Z</time>
      </trkpt>
      <trkpt lat="43.344994" lon="-1.762756">
        <ele>16.9</ele>
        <time>2018-06-16T11:23:52Z</time>
      </trkpt>
      <trkpt lat="43.344933" lon="-1.762840">
        <ele>17.1</ele>
        <time>2018-06-16T11:23:54Z</time>
      </trkpt>
      <trkpt lat="43.344751" lon="-1.763294">
        <ele>12.6</ele>
        <time>2018-06-16T11:24:04Z</time>
      </trkpt>
      <trkpt lat="43.344719" lon="-1.763303">
        <ele>13.0</ele>
        <time>2018-06-16T11:24:05Z</time>
      </trkpt>
      <trkpt lat="43.344655" lon="-1.763279">
        <ele>14.0</ele>
        <time>2018-06-16T11:24:07Z</time>
      </trkpt>
      <trkpt lat="43.344440" lon="-1.763074">
        <ele>15.2</ele>
        <time>2018-06-16T11:24:14Z</time>
      </trkpt>
      <trkpt lat="43.344363" lon="-1.763025">
        <ele>15.5</ele>
        <time>2018-06-16T11:24:16Z</time>
      </trkpt>
      <trkpt lat="43.344340" lon="-1.763028">
        <ele>15.5</ele>
        <time>2018-06-16T11:24:17Z</time>
      </trkpt>
      <trkpt lat="43.344318" lon="-1.763056">
        <ele>15.5</ele>
        <time>2018-06-16T11:24:18Z</time>
      </trkpt>
      <trkpt lat="43.344147" lon="-1.763395">
        <ele>16.3</ele>
        <time>2018-06-16T11:24:26Z</time>
      </trkpt>
      <trkpt lat="43.344030" lon="-1.763629">
        <ele>15.9</ele>
        <time>2018-06-16T11:24:31Z</time>
      </trkpt>
      <trkpt lat="43.343878" lon="-1.763984">
        <ele>13.7</ele>
        <time>2018-06-16T11:24:39Z</time>
      </trkpt>
      <trkpt lat="43.343813" lon="-1.764156">
        <ele>12.5</ele>
        <time>2018-06-16T11:24:43Z</time>
      </trkpt>
      <trkpt lat="43.343769" lon="-1.764394">
        <ele>12.2</ele>
        <time>2018-06-16T11:24:47Z</time>
      </trkpt>
      <trkpt lat="43.343702" lon="-1.764849">
        <ele>16.3</ele>
        <time>2018-06-16T11:24:56Z</time>
      </trkpt>
      <trkpt lat="43.343630" lon="-1.765208">
        <ele>14.6</ele>
        <time>2018-06-16T11:25:03Z</time>
      </trkpt>
      <trkpt lat="43.343504" lon="-1.765689">
        <ele>12.8</ele>
        <time>2018-06-16T11:25:13Z</time>
      </trkpt>
      <trkpt lat="43.343380" lon="-1.766134">
        <ele>14.6</ele>
        <time>2018-06-16T11:25:22Z</time>
      </trkpt>
      <trkpt lat="43.343308" lon="-1.766433">
        <ele>15.3</ele>
        <time>2018-06-16T11:25:28Z</time>
      </trkpt>
      <trkpt lat="43.343292" lon="-1.766548">
        <ele>15.6</ele>
        <time>2018-06-16T11:25:31Z</time>
      </trkpt>
      <trkpt lat="43.343291" lon="-1.766701">
        <ele>15.6</ele>
        <time>2018-06-16T11:25:34Z</time>
      </trkpt>
      <trkpt lat="43.343260" lon="-1.766772">
        <ele>16.0</ele>
        <time>2018-06-16T11:25:35Z</time>
      </trkpt>
      <trkpt lat="43.343226" lon="-1.766844">
        <ele>16.7</ele>
        <time>2018-06-16T11:25:37Z</time>
      </trkpt>
      <trkpt lat="43.343031" lon="-1.767147">
        <ele>17.6</ele>
        <time>2018-06-16T11:25:45Z</time>
      </trkpt>
      <trkpt lat="43.342956" lon="-1.767264">
        <ele>16.8</ele>
        <time>2018-06-16T11:25:48Z</time>
      </trkpt>
      <trkpt lat="43.342922" lon="-1.767414">
        <ele>15.4</ele>
        <time>2018-06-16T11:25:51Z</time>
      </trkpt>
      <trkpt lat="43.342878" lon="-1.767667">
        <ele>12.9</ele>
        <time>2018-06-16T11:25:56Z</time>
      </trkpt>
      <trkpt lat="43.342811" lon="-1.767811">
        <ele>12.1</ele>
        <time>2018-06-16T11:25:59Z</time>
      </trkpt>
      <trkpt lat="43.342779" lon="-1.767892">
        <ele>11.6</ele>
        <time>2018-06-16T11:26:01Z</time>
      </trkpt>
      <trkpt lat="43.342731" lon="-1.768078">
        <ele>12.3</ele>
        <time>2018-06-16T11:26:05Z</time>
      </trkpt>
      <trkpt lat="43.342681" lon="-1.768278">
        <ele>12.2</ele>
        <time>2018-06-16T11:26:09Z</time>
      </trkpt>
      <trkpt lat="43.342654" lon="-1.768448">
        <ele>10.4</ele>
        <time>2018-06-16T11:26:12Z</time>
      </trkpt>
      <trkpt lat="43.342617" lon="-1.768739">
        <ele>9.1</ele>
        <time>2018-06-16T11:26:18Z</time>
      </trkpt>
      <trkpt lat="43.342637" lon="-1.769583">
        <ele>7.0</ele>
        <time>2018-06-16T11:26:34Z</time>
      </trkpt>
      <trkpt lat="43.342656" lon="-1.770337">
        <ele>8.6</ele>
        <time>2018-06-16T11:26:48Z</time>
      </trkpt>
      <trkpt lat="43.342660" lon="-1.770482">
        <ele>7.9</ele>
        <time>2018-06-16T11:26:51Z</time>
      </trkpt>
      <trkpt lat="43.342684" lon="-1.770602">
        <ele>7.7</ele>
        <time>2018-06-16T11:26:54Z</time>
      </trkpt>
      <trkpt lat="43.342702" lon="-1.770739">
        <ele>7.8</ele>
        <time>2018-06-16T11:26:56Z</time>
      </trkpt>
      <trkpt lat="43.342686" lon="-1.770938">
        <ele>8.1</ele>
        <time>2018-06-16T11:27:00Z</time>
      </trkpt>
      <trkpt lat="43.342701" lon="-1.771211">
        <ele>7.9</ele>
        <time>2018-06-16T11:27:05Z</time>
      </trkpt>
      <trkpt lat="43.342736" lon="-1.771526">
        <ele>8.2</ele>
        <time>2018-06-16T11:27:11Z</time>
      </trkpt>
      <trkpt lat="43.342768" lon="-1.771737">
        <ele>8.4</ele>
        <time>2018-06-16T11:27:16Z</time>
      </trkpt>
      <trkpt lat="43.342808" lon="-1.771946">
        <ele>8.2</ele>
        <time>2018-06-16T11:27:20Z</time>
      </trkpt>
      <trkpt lat="43.342893" lon="-1.772180">
        <ele>8.5</ele>
        <time>2018-06-16T11:27:25Z</time>
      </trkpt>
      <trkpt lat="43.343183" lon="-1.772559">
        <ele>8.3</ele>
        <time>2018-06-16T11:27:35Z</time>
      </trkpt>
      <trkpt lat="43.343240" lon="-1.772645">
        <ele>8.3</ele>
        <time>2018-06-16T11:27:37Z</time>
      </trkpt>
      <trkpt lat="43.343474" lon="-1.773119">
        <ele>11.7</ele>
        <time>2018-06-16T11:27:48Z</time>
      </trkpt>
      <trkpt lat="43.343576" lon="-1.773356">
        <ele>10.7</ele>
        <time>2018-06-16T11:27:54Z</time>
      </trkpt>
      <trkpt lat="43.343605" lon="-1.773490">
        <ele>9.9</ele>
        <time>2018-06-16T11:27:56Z</time>
      </trkpt>
      <trkpt lat="43.343736" lon="-1.774335">
        <ele>7.8</ele>
        <time>2018-06-16T11:28:13Z</time>
      </trkpt>
      <trkpt lat="43.343864" lon="-1.774761">
        <ele>9.6</ele>
        <time>2018-06-16T11:28:22Z</time>
      </trkpt>
      <trkpt lat="43.344068" lon="-1.775310">
        <ele>10.1</ele>
        <time>2018-06-16T11:28:34Z</time>
      </trkpt>
      <trkpt lat="43.344319" lon="-1.775716">
        <ele>9.1</ele>
        <time>2018-06-16T11:28:44Z</time>
      </trkpt>
      <trkpt lat="43.344427" lon="-1.775840">
        <ele>9.9</ele>
        <time>2018-06-16T11:28:48Z</time>
      </trkpt>
      <trkpt lat="43.344667" lon="-1.776029">
        <ele>10.0</ele>
        <time>2018-06-16T11:28:55Z</time>
      </trkpt>
      <trkpt lat="43.344836" lon="-1.776155">
        <ele>10.2</ele>
        <time>2018-06-16T11:29:00Z</time>
      </trkpt>
      <trkpt lat="43.344986" lon="-1.776226">
        <ele>10.9</ele>
        <time>2018-06-16T11:29:04Z</time>
      </trkpt>
      <trkpt lat="43.345588" lon="-1.776412">
        <ele>13.3</ele>
        <time>2018-06-16T11:29:20Z</time>
      </trkpt>
      <trkpt lat="43.345798" lon="-1.776472">
        <ele>13.2</ele>
        <time>2018-06-16T11:29:26Z</time>
      </trkpt>
      <trkpt lat="43.346484" lon="-1.776665">
        <ele>10.0</ele>
        <time>2018-06-16T11:29:45Z</time>
      </trkpt>
      <trkpt lat="43.346690" lon="-1.776709">
        <ele>8.1</ele>
        <time>2018-06-16T11:29:50Z</time>
      </trkpt>
      <trkpt lat="43.346868" lon="-1.776695">
        <ele>9.2</ele>
        <time>2018-06-16T11:29:55Z</time>
      </trkpt>
      <trkpt lat="43.347038" lon="-1.776704">
        <ele>13.0</ele>
        <time>2018-06-16T11:29:59Z</time>
      </trkpt>
      <trkpt lat="43.347224" lon="-1.776716">
        <ele>13.1</ele>
        <time>2018-06-16T11:30:04Z</time>
      </trkpt>
      <trkpt lat="43.347618" lon="-1.776824">
        <ele>10.9</ele>
        <time>2018-06-16T11:30:15Z</time>
      </trkpt>
      <trkpt lat="43.347715" lon="-1.776867">
        <ele>10.0</ele>
        <time>2018-06-16T11:30:18Z</time>
      </trkpt>
      <trkpt lat="43.348109" lon="-1.777147">
        <ele>7.8</ele>
        <time>2018-06-16T11:30:29Z</time>
      </trkpt>
      <trkpt lat="43.348330" lon="-1.777347">
        <ele>9.0</ele>
        <time>2018-06-16T11:30:36Z</time>
      </trkpt>
      <trkpt lat="43.348430" lon="-1.777407">
        <ele>9.5</ele>
        <time>2018-06-16T11:30:39Z</time>
      </trkpt>
      <trkpt lat="43.348451" lon="-1.777436">
        <ele>9.6</ele>
        <time>2018-06-16T11:30:40Z</time>
      </trkpt>
      <trkpt lat="43.348433" lon="-1.777537">
        <ele>9.1</ele>
        <time>2018-06-16T11:30:42Z</time>
      </trkpt>
      <trkpt lat="43.348337" lon="-1.777793">
        <ele>7.8</ele>
        <time>2018-06-16T11:30:48Z</time>
      </trkpt>
      <trkpt lat="43.348350" lon="-1.778044">
        <ele>7.9</ele>
        <time>2018-06-16T11:30:52Z</time>
      </trkpt>
      <trkpt lat="43.348357" lon="-1.778277">
        <ele>8.1</ele>
        <time>2018-06-16T11:30:57Z</time>
      </trkpt>
      <trkpt lat="43.348436" lon="-1.778778">
        <ele>6.2</ele>
        <time>2018-06-16T11:31:07Z</time>
      </trkpt>
      <trkpt lat="43.348508" lon="-1.779210">
        <ele>7.6</ele>
        <time>2018-06-16T11:31:15Z</time>
      </trkpt>
      <trkpt lat="43.348508" lon="-1.779210">
        <ele>7.6</ele>
        <time>2018-06-16T11:31:15Z</time>
      </trkpt>
      <trkpt lat="43.348733" lon="-1.779168">
        <ele>6.6</ele>
        <time>2018-06-16T11:31:21Z</time>
      </trkpt>
      <trkpt lat="43.348821" lon="-1.779184">
        <ele>7.8</ele>
        <time>2018-06-16T11:31:24Z</time>
      </trkpt>
      <trkpt lat="43.349176" lon="-1.779141">
        <ele>11.9</ele>
        <time>2018-06-16T11:31:33Z</time>
      </trkpt>
      <trkpt lat="43.349217" lon="-1.779141">
        <ele>12.2</ele>
        <time>2018-06-16T11:31:34Z</time>
      </trkpt>
      <trkpt lat="43.349642" lon="-1.779079">
        <ele>21.7</ele>
        <time>2018-06-16T11:31:46Z</time>
      </trkpt>
      <trkpt lat="43.349740" lon="-1.779080">
        <ele>21.7</ele>
        <time>2018-06-16T11:31:48Z</time>
      </trkpt>
      <trkpt lat="43.349774" lon="-1.779097">
        <ele>21.7</ele>
        <time>2018-06-16T11:31:49Z</time>
      </trkpt>
      <trkpt lat="43.349812" lon="-1.779122">
        <ele>21.6</ele>
        <time>2018-06-16T11:31:50Z</time>
      </trkpt>
      <trkpt lat="43.349837" lon="-1.779160">
        <ele>21.5</ele>
        <time>2018-06-16T11:31:51Z</time>
      </trkpt>
      <trkpt lat="43.349867" lon="-1.779270">
        <ele>21.2</ele>
        <time>2018-06-16T11:31:53Z</time>
      </trkpt>
      <trkpt lat="43.349875" lon="-1.779328">
        <ele>21.3</ele>
        <time>2018-06-16T11:31:55Z</time>
      </trkpt>
      <trkpt lat="43.349901" lon="-1.779578">
        <ele>22.6</ele>
        <time>2018-06-16T11:31:59Z</time>
      </trkpt>
      <trkpt lat="43.349928" lon="-1.779835">
        <ele>22.5</ele>
        <time>2018-06-16T11:32:04Z</time>
      </trkpt>
      <trkpt lat="43.349935" lon="-1.780770">
        <ele>18.2</ele>
        <time>2018-06-16T11:32:22Z</time>
      </trkpt>
      <trkpt lat="43.349962" lon="-1.781009">
        <ele>17.1</ele>
        <time>2018-06-16T11:32:27Z</time>
      </trkpt>
      <trkpt lat="43.349981" lon="-1.781082">
        <ele>16.8</ele>
        <time>2018-06-16T11:32:28Z</time>
      </trkpt>
      <trkpt lat="43.350003" lon="-1.781150">
        <ele>16.6</ele>
        <time>2018-06-16T11:32:30Z</time>
      </trkpt>
      <trkpt lat="43.350035" lon="-1.781212">
        <ele>16.4</ele>
        <time>2018-06-16T11:32:31Z</time>
      </trkpt>
      <trkpt lat="43.350073" lon="-1.781265">
        <ele>16.6</ele>
        <time>2018-06-16T11:32:33Z</time>
      </trkpt>
      <trkpt lat="43.350118" lon="-1.781308">
        <ele>17.0</ele>
        <time>2018-06-16T11:32:34Z</time>
      </trkpt>
      <trkpt lat="43.350171" lon="-1.781342">
        <ele>17.4</ele>
        <time>2018-06-16T11:32:36Z</time>
      </trkpt>
      <trkpt lat="43.350214" lon="-1.781388">
        <ele>17.4</ele>
        <time>2018-06-16T11:32:37Z</time>
      </trkpt>
      <trkpt lat="43.350241" lon="-1.781447">
        <ele>17.1</ele>
        <time>2018-06-16T11:32:39Z</time>
      </trkpt>
      <trkpt lat="43.350248" lon="-1.781513">
        <ele>16.9</ele>
        <time>2018-06-16T11:32:40Z</time>
      </trkpt>
      <trkpt lat="43.350245" lon="-1.781576">
        <ele>16.9</ele>
        <time>2018-06-16T11:32:41Z</time>
      </trkpt>
      <trkpt lat="43.350232" lon="-1.781641">
        <ele>17.1</ele>
        <time>2018-06-16T11:32:42Z</time>
      </trkpt>
      <trkpt lat="43.350214" lon="-1.781716">
        <ele>17.5</ele>
        <time>2018-06-16T11:32:44Z</time>
      </trkpt>
      <trkpt lat="43.350210" lon="-1.781799">
        <ele>17.7</ele>
        <time>2018-06-16T11:32:45Z</time>
      </trkpt>
      <trkpt lat="43.350218" lon="-1.781887">
        <ele>18.0</ele>
        <time>2018-06-16T11:32:47Z</time>
      </trkpt>
      <trkpt lat="43.350237" lon="-1.781974">
        <ele>18.3</ele>
        <time>2018-06-16T11:32:49Z</time>
      </trkpt>
      <trkpt lat="43.350271" lon="-1.782057">
        <ele>18.4</ele>
        <time>2018-06-16T11:32:51Z</time>
      </trkpt>
      <trkpt lat="43.350306" lon="-1.782141">
        <ele>18.4</ele>
        <time>2018-06-16T11:32:53Z</time>
      </trkpt>
      <trkpt lat="43.350347" lon="-1.782222">
        <ele>18.0</ele>
        <time>2018-06-16T11:32:54Z</time>
      </trkpt>
      <trkpt lat="43.350795" lon="-1.782933">
        <ele>15.9</ele>
        <time>2018-06-16T11:33:13Z</time>
      </trkpt>
      <trkpt lat="43.350836" lon="-1.783070">
        <ele>16.0</ele>
        <time>2018-06-16T11:33:15Z</time>
      </trkpt>
      <trkpt lat="43.350846" lon="-1.783153">
        <ele>16.4</ele>
        <time>2018-06-16T11:33:17Z</time>
      </trkpt>
      <trkpt lat="43.350840" lon="-1.783228">
        <ele>17.5</ele>
        <time>2018-06-16T11:33:18Z</time>
      </trkpt>
      <trkpt lat="43.350815" lon="-1.783330">
        <ele>19.2</ele>
        <time>2018-06-16T11:33:21Z</time>
      </trkpt>
      <trkpt lat="43.350774" lon="-1.783434">
        <ele>18.9</ele>
        <time>2018-06-16T11:33:23Z</time>
      </trkpt>
      <trkpt lat="43.350727" lon="-1.783524">
        <ele>19.8</ele>
        <time>2018-06-16T11:33:25Z</time>
      </trkpt>
      <trkpt lat="43.350622" lon="-1.783601">
        <ele>23.4</ele>
        <time>2018-06-16T11:33:28Z</time>
      </trkpt>
      <trkpt lat="43.350409" lon="-1.783662">
        <ele>22.8</ele>
        <time>2018-06-16T11:33:34Z</time>
      </trkpt>
      <trkpt lat="43.350185" lon="-1.783786">
        <ele>15.4</ele>
        <time>2018-06-16T11:33:41Z</time>
      </trkpt>
      <trkpt lat="43.350048" lon="-1.783888">
        <ele>10.5</ele>
        <time>2018-06-16T11:33:45Z</time>
      </trkpt>
      <trkpt lat="43.349444" lon="-1.784641">
        <ele>17.9</ele>
        <time>2018-06-16T11:34:06Z</time>
      </trkpt>
      <trkpt lat="43.349108" lon="-1.785076">
        <ele>12.0</ele>
        <time>2018-06-16T11:34:19Z</time>
      </trkpt>
      <trkpt lat="43.348593" lon="-1.785781">
        <ele>23.0</ele>
        <time>2018-06-16T11:34:38Z</time>
      </trkpt>
      <trkpt lat="43.348233" lon="-1.786267">
        <ele>33.3</ele>
        <time>2018-06-16T11:34:52Z</time>
      </trkpt>
      <trkpt lat="43.348177" lon="-1.786342">
        <ele>32.4</ele>
        <time>2018-06-16T11:34:54Z</time>
      </trkpt>
      <trkpt lat="43.348171" lon="-1.786366">
        <ele>32.0</ele>
        <time>2018-06-16T11:34:54Z</time>
      </trkpt>
      <trkpt lat="43.348189" lon="-1.786406">
        <ele>31.7</ele>
        <time>2018-06-16T11:34:55Z</time>
      </trkpt>
      <trkpt lat="43.348179" lon="-1.786454">
        <ele>30.9</ele>
        <time>2018-06-16T11:34:56Z</time>
      </trkpt>
      <trkpt lat="43.348134" lon="-1.786522">
        <ele>29.4</ele>
        <time>2018-06-16T11:34:58Z</time>
      </trkpt>
      <trkpt lat="43.348058" lon="-1.786607">
        <ele>27.7</ele>
        <time>2018-06-16T11:35:00Z</time>
      </trkpt>
      <trkpt lat="43.348036" lon="-1.786699">
        <ele>26.4</ele>
        <time>2018-06-16T11:35:02Z</time>
      </trkpt>
      <trkpt lat="43.348009" lon="-1.786843">
        <ele>24.5</ele>
        <time>2018-06-16T11:35:05Z</time>
      </trkpt>
      <trkpt lat="43.348015" lon="-1.786969">
        <ele>22.9</ele>
        <time>2018-06-16T11:35:08Z</time>
      </trkpt>
      <trkpt lat="43.347997" lon="-1.787122">
        <ele>20.9</ele>
        <time>2018-06-16T11:35:11Z</time>
      </trkpt>
      <trkpt lat="43.347940" lon="-1.787205">
        <ele>19.5</ele>
        <time>2018-06-16T11:35:13Z</time>
      </trkpt>
      <trkpt lat="43.347879" lon="-1.787265">
        <ele>18.6</ele>
        <time>2018-06-16T11:35:15Z</time>
      </trkpt>
      <trkpt lat="43.347813" lon="-1.787294">
        <ele>18.3</ele>
        <time>2018-06-16T11:35:17Z</time>
      </trkpt>
      <trkpt lat="43.347768" lon="-1.787294">
        <ele>18.2</ele>
        <time>2018-06-16T11:35:18Z</time>
      </trkpt>
      <trkpt lat="43.347719" lon="-1.787243">
        <ele>18.2</ele>
        <time>2018-06-16T11:35:19Z</time>
      </trkpt>
      <trkpt lat="43.347660" lon="-1.787192">
        <ele>18.1</ele>
        <time>2018-06-16T11:35:21Z</time>
      </trkpt>
      <trkpt lat="43.347600" lon="-1.787163">
        <ele>18.7</ele>
        <time>2018-06-16T11:35:23Z</time>
      </trkpt>
      <trkpt lat="43.347525" lon="-1.787146">
        <ele>19.9</ele>
        <time>2018-06-16T11:35:25Z</time>
      </trkpt>
      <trkpt lat="43.347485" lon="-1.787146">
        <ele>20.6</ele>
        <time>2018-06-16T11:35:26Z</time>
      </trkpt>
      <trkpt lat="43.347401" lon="-1.787184">
        <ele>22.0</ele>
        <time>2018-06-16T11:35:28Z</time>
      </trkpt>
      <trkpt lat="43.347336" lon="-1.787184">
        <ele>22.4</ele>
        <time>2018-06-16T11:35:30Z</time>
      </trkpt>
      <trkpt lat="43.347323" lon="-1.787160">
        <ele>22.3</ele>
        <time>2018-06-16T11:35:31Z</time>
      </trkpt>
      <trkpt lat="43.347305" lon="-1.787090">
        <ele>22.6</ele>
        <time>2018-06-16T11:35:32Z</time>
      </trkpt>
      <trkpt lat="43.347235" lon="-1.786631">
        <ele>21.3</ele>
        <time>2018-06-16T11:35:41Z</time>
      </trkpt>
      <trkpt lat="43.347300" lon="-1.786390">
        <ele>18.1</ele>
        <time>2018-06-16T11:35:46Z</time>
      </trkpt>
      <trkpt lat="43.347323" lon="-1.786303">
        <ele>15.8</ele>
        <time>2018-06-16T11:35:48Z</time>
      </trkpt>
      <trkpt lat="43.347353" lon="-1.786219">
        <ele>14.6</ele>
        <time>2018-06-16T11:35:50Z</time>
      </trkpt>
      <trkpt lat="43.347452" lon="-1.785901">
        <ele>12.6</ele>
        <time>2018-06-16T11:35:56Z</time>
      </trkpt>
      <trkpt lat="43.347460" lon="-1.785824">
        <ele>11.9</ele>
        <time>2018-06-16T11:35:58Z</time>
      </trkpt>
      <trkpt lat="43.347448" lon="-1.785750">
        <ele>11.2</ele>
        <time>2018-06-16T11:35:59Z</time>
      </trkpt>
      <trkpt lat="43.347414" lon="-1.785694">
        <ele>10.8</ele>
        <time>2018-06-16T11:36:01Z</time>
      </trkpt>
      <trkpt lat="43.347368" lon="-1.785666">
        <ele>11.1</ele>
        <time>2018-06-16T11:36:02Z</time>
      </trkpt>
      <trkpt lat="43.347319" lon="-1.785656">
        <ele>11.3</ele>
        <time>2018-06-16T11:36:03Z</time>
      </trkpt>
      <trkpt lat="43.347269" lon="-1.785648">
        <ele>11.4</ele>
        <time>2018-06-16T11:36:05Z</time>
      </trkpt>
      <trkpt lat="43.346869" lon="-1.785553">
        <ele>11.6</ele>
        <time>2018-06-16T11:36:15Z</time>
      </trkpt>
      <trkpt lat="43.346193" lon="-1.785397">
        <ele>11.1</ele>
        <time>2018-06-16T11:36:34Z</time>
      </trkpt>
      <trkpt lat="43.345762" lon="-1.785224">
        <ele>15.3</ele>
        <time>2018-06-16T11:36:45Z</time>
      </trkpt>
      <trkpt lat="43.344835" lon="-1.784878">
        <ele>12.2</ele>
        <time>2018-06-16T11:37:11Z</time>
      </trkpt>
      <trkpt lat="43.344778" lon="-1.784874">
        <ele>12.6</ele>
        <time>2018-06-16T11:37:12Z</time>
      </trkpt>
      <trkpt lat="43.344721" lon="-1.784878">
        <ele>12.9</ele>
        <time>2018-06-16T11:37:14Z</time>
      </trkpt>
      <trkpt lat="43.344606" lon="-1.784909">
        <ele>13.5</ele>
        <time>2018-06-16T11:37:17Z</time>
      </trkpt>
      <trkpt lat="43.343954" lon="-1.785372">
        <ele>24.5</ele>
        <time>2018-06-16T11:37:36Z</time>
      </trkpt>
      <trkpt lat="43.343252" lon="-1.785826">
        <ele>17.9</ele>
        <time>2018-06-16T11:37:57Z</time>
      </trkpt>
      <trkpt lat="43.342817" lon="-1.786054">
        <ele>9.3</ele>
        <time>2018-06-16T11:38:09Z</time>
      </trkpt>
      <trkpt lat="43.342768" lon="-1.786066">
        <ele>9.7</ele>
        <time>2018-06-16T11:38:11Z</time>
      </trkpt>
      <trkpt lat="43.342463" lon="-1.786014">
        <ele>10.2</ele>
        <time>2018-06-16T11:38:19Z</time>
      </trkpt>
      <trkpt lat="43.342383" lon="-1.785990">
        <ele>10.1</ele>
        <time>2018-06-16T11:38:21Z</time>
      </trkpt>
      <trkpt lat="43.342150" lon="-1.785857">
        <ele>9.1</ele>
        <time>2018-06-16T11:38:28Z</time>
      </trkpt>
      <trkpt lat="43.341589" lon="-1.785436">
        <ele>12.4</ele>
        <time>2018-06-16T11:38:44Z</time>
      </trkpt>
      <trkpt lat="43.341425" lon="-1.785342">
        <ele>11.1</ele>
        <time>2018-06-16T11:38:49Z</time>
      </trkpt>
      <trkpt lat="43.340719" lon="-1.785109">
        <ele>21.5</ele>
        <time>2018-06-16T11:39:08Z</time>
      </trkpt>
      <trkpt lat="43.340685" lon="-1.785118">
        <ele>21.9</ele>
        <time>2018-06-16T11:39:09Z</time>
      </trkpt>
      <trkpt lat="43.340662" lon="-1.785136">
        <ele>22.0</ele>
        <time>2018-06-16T11:39:10Z</time>
      </trkpt>
      <trkpt lat="43.340621" lon="-1.785143">
        <ele>22.1</ele>
        <time>2018-06-16T11:39:11Z</time>
      </trkpt>
      <trkpt lat="43.340593" lon="-1.785123">
        <ele>22.1</ele>
        <time>2018-06-16T11:39:12Z</time>
      </trkpt>
      <trkpt lat="43.340587" lon="-1.785068">
        <ele>22.7</ele>
        <time>2018-06-16T11:39:13Z</time>
      </trkpt>
      <trkpt lat="43.340589" lon="-1.784889">
        <ele>24.3</ele>
        <time>2018-06-16T11:39:17Z</time>
      </trkpt>
      <trkpt lat="43.340579" lon="-1.784845">
        <ele>25.0</ele>
        <time>2018-06-16T11:39:17Z</time>
      </trkpt>
      <trkpt lat="43.340550" lon="-1.784811">
        <ele>26.1</ele>
        <time>2018-06-16T11:39:18Z</time>
      </trkpt>
      <trkpt lat="43.340479" lon="-1.784787">
        <ele>29.0</ele>
        <time>2018-06-16T11:39:21Z</time>
      </trkpt>
      <trkpt lat="43.340429" lon="-1.784784">
        <ele>30.9</ele>
        <time>2018-06-16T11:39:22Z</time>
      </trkpt>
      <trkpt lat="43.340148" lon="-1.784781">
        <ele>29.9</ele>
        <time>2018-06-16T11:39:29Z</time>
      </trkpt>
      <trkpt lat="43.339804" lon="-1.784692">
        <ele>28.8</ele>
        <time>2018-06-16T11:39:39Z</time>
      </trkpt>
      <trkpt lat="43.339502" lon="-1.784558">
        <ele>28.4</ele>
        <time>2018-06-16T11:39:47Z</time>
      </trkpt>
      <trkpt lat="43.339454" lon="-1.784582">
        <ele>28.5</ele>
        <time>2018-06-16T11:39:48Z</time>
      </trkpt>
      <trkpt lat="43.339431" lon="-1.784604">
        <ele>28.1</ele>
        <time>2018-06-16T11:39:49Z</time>
      </trkpt>
      <trkpt lat="43.339202" lon="-1.787232">
        <ele>21.2</ele>
        <time>2018-06-16T11:40:40Z</time>
      </trkpt>
      <trkpt lat="43.339346" lon="-1.789212">
        <ele>25.1</ele>
        <time>2018-06-16T11:41:18Z</time>
      </trkpt>
      <trkpt lat="43.339627" lon="-1.790623">
        <ele>37.3</ele>
        <time>2018-06-16T11:41:46Z</time>
      </trkpt>
      <trkpt lat="43.340131" lon="-1.793096">
        <ele>32.0</ele>
        <time>2018-06-16T11:42:35Z</time>
      </trkpt>
      <trkpt lat="43.340747" lon="-1.795933">
        <ele>26.7</ele>
        <time>2018-06-16T11:43:32Z</time>
      </trkpt>
      <trkpt lat="43.340958" lon="-1.797060">
        <ele>39.5</ele>
        <time>2018-06-16T11:43:55Z</time>
      </trkpt>
      <trkpt lat="43.341005" lon="-1.797323">
        <ele>39.1</ele>
        <time>2018-06-16T11:44:00Z</time>
      </trkpt>
      <trkpt lat="43.341329" lon="-1.797886">
        <ele>44.6</ele>
        <time>2018-06-16T11:44:14Z</time>
      </trkpt>
      <trkpt lat="43.341414" lon="-1.798010">
        <ele>49.0</ele>
        <time>2018-06-16T11:44:17Z</time>
      </trkpt>
      <trkpt lat="43.342276" lon="-1.799012">
        <ele>53.1</ele>
        <time>2018-06-16T11:44:47Z</time>
      </trkpt>
      <trkpt lat="43.342482" lon="-1.799208">
        <ele>51.5</ele>
        <time>2018-06-16T11:44:54Z</time>
      </trkpt>
      <trkpt lat="43.342524" lon="-1.799240">
        <ele>50.9</ele>
        <time>2018-06-16T11:44:55Z</time>
      </trkpt>
      <trkpt lat="43.343184" lon="-1.799652">
        <ele>40.8</ele>
        <time>2018-06-16T11:45:14Z</time>
      </trkpt>
      <trkpt lat="43.343897" lon="-1.800231">
        <ele>29.4</ele>
        <time>2018-06-16T11:45:36Z</time>
      </trkpt>
      <trkpt lat="43.344317" lon="-1.800566">
        <ele>26.0</ele>
        <time>2018-06-16T11:45:49Z</time>
      </trkpt>
      <trkpt lat="43.344370" lon="-1.800610">
        <ele>25.7</ele>
        <time>2018-06-16T11:45:51Z</time>
      </trkpt>
      <trkpt lat="43.344427" lon="-1.800653">
        <ele>24.8</ele>
        <time>2018-06-16T11:45:52Z</time>
      </trkpt>
      <trkpt lat="43.344584" lon="-1.800769">
        <ele>20.4</ele>
        <time>2018-06-16T11:45:57Z</time>
      </trkpt>
      <trkpt lat="43.344858" lon="-1.800944">
        <ele>13.0</ele>
        <time>2018-06-16T11:46:05Z</time>
      </trkpt>
      <trkpt lat="43.345060" lon="-1.800908">
        <ele>15.3</ele>
        <time>2018-06-16T11:46:11Z</time>
      </trkpt>
      <trkpt lat="43.345236" lon="-1.800880">
        <ele>16.3</ele>
        <time>2018-06-16T11:46:15Z</time>
      </trkpt>
      <trkpt lat="43.345297" lon="-1.800900">
        <ele>15.1</ele>
        <time>2018-06-16T11:46:17Z</time>
      </trkpt>
      <trkpt lat="43.345350" lon="-1.800939">
        <ele>13.4</ele>
        <time>2018-06-16T11:46:19Z</time>
      </trkpt>
      <trkpt lat="43.345392" lon="-1.800995">
        <ele>11.9</ele>
        <time>2018-06-16T11:46:20Z</time>
      </trkpt>
      <trkpt lat="43.345427" lon="-1.801061">
        <ele>11.7</ele>
        <time>2018-06-16T11:46:22Z</time>
      </trkpt>
      <trkpt lat="43.345446" lon="-1.801137">
        <ele>11.8</ele>
        <time>2018-06-16T11:46:23Z</time>
      </trkpt>
      <trkpt lat="43.345461" lon="-1.801216">
        <ele>11.9</ele>
        <time>2018-06-16T11:46:25Z</time>
      </trkpt>
      <trkpt lat="43.345492" lon="-1.801382">
        <ele>11.9</ele>
        <time>2018-06-16T11:46:28Z</time>
      </trkpt>
      <trkpt lat="43.345522" lon="-1.801461">
        <ele>12.4</ele>
        <time>2018-06-16T11:46:30Z</time>
      </trkpt>
      <trkpt lat="43.345572" lon="-1.801533">
        <ele>13.6</ele>
        <time>2018-06-16T11:46:32Z</time>
      </trkpt>
      <trkpt lat="43.345633" lon="-1.801591">
        <ele>15.4</ele>
        <time>2018-06-16T11:46:34Z</time>
      </trkpt>
      <trkpt lat="43.345694" lon="-1.801643">
        <ele>16.3</ele>
        <time>2018-06-16T11:46:36Z</time>
      </trkpt>
      <trkpt lat="43.345907" lon="-1.801777">
        <ele>14.9</ele>
        <time>2018-06-16T11:46:42Z</time>
      </trkpt>
      <trkpt lat="43.345987" lon="-1.801806">
        <ele>15.1</ele>
        <time>2018-06-16T11:46:44Z</time>
      </trkpt>
      <trkpt lat="43.346071" lon="-1.801823">
        <ele>15.8</ele>
        <time>2018-06-16T11:46:46Z</time>
      </trkpt>
      <trkpt lat="43.346151" lon="-1.801827">
        <ele>16.3</ele>
        <time>2018-06-16T11:46:49Z</time>
      </trkpt>
      <trkpt lat="43.346232" lon="-1.801823">
        <ele>16.8</ele>
        <time>2018-06-16T11:46:51Z</time>
      </trkpt>
      <trkpt lat="43.346378" lon="-1.801765">
        <ele>21.6</ele>
        <time>2018-06-16T11:46:55Z</time>
      </trkpt>
      <trkpt lat="43.348421" lon="-1.800549">
        <ele>16.4</ele>
        <time>2018-06-16T11:47:54Z</time>
      </trkpt>
      <trkpt lat="43.349417" lon="-1.799957">
        <ele>8.4</ele>
        <time>2018-06-16T11:48:22Z</time>
      </trkpt>
      <trkpt lat="43.350084" lon="-1.799592">
        <ele>10.8</ele>
        <time>2018-06-16T11:48:41Z</time>
      </trkpt>
      <trkpt lat="43.350374" lon="-1.799351">
        <ele>10.3</ele>
        <time>2018-06-16T11:48:50Z</time>
      </trkpt>
      <trkpt lat="43.350595" lon="-1.799023">
        <ele>7.7</ele>
        <time>2018-06-16T11:48:59Z</time>
      </trkpt>
      <trkpt lat="43.351889" lon="-1.797507">
        <ele>25.0</ele>
        <time>2018-06-16T11:49:44Z</time>
      </trkpt>
      <trkpt lat="43.352432" lon="-1.796840">
        <ele>19.5</ele>
        <time>2018-06-16T11:50:03Z</time>
      </trkpt>
      <trkpt lat="43.352530" lon="-1.796748">
        <ele>17.9</ele>
        <time>2018-06-16T11:50:06Z</time>
      </trkpt>
      <trkpt lat="43.352748" lon="-1.796609">
        <ele>14.5</ele>
        <time>2018-06-16T11:50:13Z</time>
      </trkpt>
      <trkpt lat="43.353296" lon="-1.796399">
        <ele>9.2</ele>
        <time>2018-06-16T11:50:28Z</time>
      </trkpt>
      <trkpt lat="43.354402" lon="-1.796002">
        <ele>6.4</ele>
        <time>2018-06-16T11:50:58Z</time>
      </trkpt>
      <trkpt lat="43.355496" lon="-1.795597">
        <ele>10.8</ele>
        <time>2018-06-16T11:51:28Z</time>
      </trkpt>
      <trkpt lat="43.355970" lon="-1.795360">
        <ele>11.0</ele>
        <time>2018-06-16T11:51:41Z</time>
      </trkpt>
      <trkpt lat="43.356031" lon="-1.795309">
        <ele>12.8</ele>
        <time>2018-06-16T11:51:43Z</time>
      </trkpt>
      <trkpt lat="43.357068" lon="-1.794185">
        <ele>16.5</ele>
        <time>2018-06-16T11:52:18Z</time>
      </trkpt>
      <trkpt lat="43.357904" lon="-1.793279">
        <ele>13.4</ele>
        <time>2018-06-16T11:52:46Z</time>
      </trkpt>
      <trkpt lat="43.358834" lon="-1.792297">
        <ele>9.7</ele>
        <time>2018-06-16T11:53:17Z</time>
      </trkpt>
      <trkpt lat="43.359243" lon="-1.791866">
        <ele>9.3</ele>
        <time>2018-06-16T11:53:30Z</time>
      </trkpt>
      <trkpt lat="43.359278" lon="-1.791802">
        <ele>9.8</ele>
        <time>2018-06-16T11:53:32Z</time>
      </trkpt>
      <trkpt lat="43.359305" lon="-1.791740">
        <ele>10.5</ele>
        <time>2018-06-16T11:53:33Z</time>
      </trkpt>
      <trkpt lat="43.359323" lon="-1.791682">
        <ele>10.9</ele>
        <time>2018-06-16T11:53:34Z</time>
      </trkpt>
      <trkpt lat="43.359381" lon="-1.791597">
        <ele>11.5</ele>
        <time>2018-06-16T11:53:37Z</time>
      </trkpt>
      <trkpt lat="43.359476" lon="-1.791534">
        <ele>12.0</ele>
        <time>2018-06-16T11:53:39Z</time>
      </trkpt>
      <trkpt lat="43.359526" lon="-1.791523">
        <ele>12.0</ele>
        <time>2018-06-16T11:53:41Z</time>
      </trkpt>
      <trkpt lat="43.359574" lon="-1.791501">
        <ele>12.1</ele>
        <time>2018-06-16T11:53:42Z</time>
      </trkpt>
      <trkpt lat="43.359620" lon="-1.791467">
        <ele>12.0</ele>
        <time>2018-06-16T11:53:44Z</time>
      </trkpt>
      <trkpt lat="43.359670" lon="-1.791424">
        <ele>11.7</ele>
        <time>2018-06-16T11:53:45Z</time>
      </trkpt>
      <trkpt lat="43.360261" lon="-1.790719">
        <ele>7.5</ele>
        <time>2018-06-16T11:54:06Z</time>
      </trkpt>
      <trkpt lat="43.360536" lon="-1.790441">
        <ele>8.0</ele>
        <time>2018-06-16T11:54:15Z</time>
      </trkpt>
      <trkpt lat="43.360578" lon="-1.790416">
        <ele>8.0</ele>
        <time>2018-06-16T11:54:16Z</time>
      </trkpt>
      <trkpt lat="43.360707" lon="-1.790353">
        <ele>8.3</ele>
        <time>2018-06-16T11:54:20Z</time>
      </trkpt>
      <trkpt lat="43.360880" lon="-1.790283">
        <ele>9.8</ele>
        <time>2018-06-16T11:54:24Z</time>
      </trkpt>
      <trkpt lat="43.360976" lon="-1.790242">
        <ele>10.4</ele>
        <time>2018-06-16T11:54:27Z</time>
      </trkpt>
      <trkpt lat="43.361041" lon="-1.790224">
        <ele>11.2</ele>
        <time>2018-06-16T11:54:29Z</time>
      </trkpt>
      <trkpt lat="43.361085" lon="-1.790229">
        <ele>11.8</ele>
        <time>2018-06-16T11:54:30Z</time>
      </trkpt>
      <trkpt lat="43.361118" lon="-1.790262">
        <ele>12.3</ele>
        <time>2018-06-16T11:54:31Z</time>
      </trkpt>
      <trkpt lat="43.361149" lon="-1.790331">
        <ele>12.8</ele>
        <time>2018-06-16T11:54:33Z</time>
      </trkpt>
      <trkpt lat="43.361158" lon="-1.790423">
        <ele>13.0</ele>
        <time>2018-06-16T11:54:34Z</time>
      </trkpt>
      <trkpt lat="43.361140" lon="-1.790497">
        <ele>12.6</ele>
        <time>2018-06-16T11:54:36Z</time>
      </trkpt>
      <trkpt lat="43.361130" lon="-1.790584">
        <ele>12.4</ele>
        <time>2018-06-16T11:54:38Z</time>
      </trkpt>
      <trkpt lat="43.361130" lon="-1.790702">
        <ele>12.2</ele>
        <time>2018-06-16T11:54:40Z</time>
      </trkpt>
      <trkpt lat="43.361165" lon="-1.790986">
        <ele>13.4</ele>
        <time>2018-06-16T11:54:45Z</time>
      </trkpt>
      <trkpt lat="43.361247" lon="-1.791496">
        <ele>15.0</ele>
        <time>2018-06-16T11:54:55Z</time>
      </trkpt>
      <trkpt lat="43.361283" lon="-1.791655">
        <ele>15.2</ele>
        <time>2018-06-16T11:54:59Z</time>
      </trkpt>
      <trkpt lat="43.361307" lon="-1.791716">
        <ele>15.3</ele>
        <time>2018-06-16T11:55:00Z</time>
      </trkpt>
      <trkpt lat="43.361336" lon="-1.791732">
        <ele>15.4</ele>
        <time>2018-06-16T11:55:01Z</time>
      </trkpt>
      <trkpt lat="43.361374" lon="-1.791715">
        <ele>15.6</ele>
        <time>2018-06-16T11:55:02Z</time>
      </trkpt>
      <trkpt lat="43.361597" lon="-1.791556">
        <ele>18.5</ele>
        <time>2018-06-16T11:55:08Z</time>
      </trkpt>
      <trkpt lat="43.361709" lon="-1.791492">
        <ele>20.7</ele>
        <time>2018-06-16T11:55:12Z</time>
      </trkpt>
      <trkpt lat="43.361934" lon="-1.791426">
        <ele>23.6</ele>
        <time>2018-06-16T11:55:18Z</time>
      </trkpt>
      <trkpt lat="43.362091" lon="-1.791392">
        <ele>25.5</ele>
        <time>2018-06-16T11:55:22Z</time>
      </trkpt>
      <trkpt lat="43.362459" lon="-1.791351">
        <ele>28.6</ele>
        <time>2018-06-16T11:55:32Z</time>
      </trkpt>
      <trkpt lat="43.362830" lon="-1.791324">
        <ele>33.6</ele>
        <time>2018-06-16T11:55:42Z</time>
      </trkpt>
      <trkpt lat="43.363059" lon="-1.791342">
        <ele>33.5</ele>
        <time>2018-06-16T11:55:48Z</time>
      </trkpt>
      <trkpt lat="43.363239" lon="-1.791338">
        <ele>33.1</ele>
        <time>2018-06-16T11:55:52Z</time>
      </trkpt>
      <trkpt lat="43.363330" lon="-1.791429">
        <ele>34.4</ele>
        <time>2018-06-16T11:55:55Z</time>
      </trkpt>
      <trkpt lat="43.363442" lon="-1.791458">
        <ele>35.1</ele>
        <time>2018-06-16T11:55:58Z</time>
      </trkpt>
      <trkpt lat="43.363690" lon="-1.791484">
        <ele>32.0</ele>
        <time>2018-06-16T11:56:05Z</time>
      </trkpt>
      <trkpt lat="43.363803" lon="-1.791451">
        <ele>29.5</ele>
        <time>2018-06-16T11:56:08Z</time>
      </trkpt>
      <trkpt lat="43.364071" lon="-1.791322">
        <ele>24.8</ele>
        <time>2018-06-16T11:56:16Z</time>
      </trkpt>
      <trkpt lat="43.364183" lon="-1.791195">
        <ele>23.0</ele>
        <time>2018-06-16T11:56:20Z</time>
      </trkpt>
      <trkpt lat="43.364227" lon="-1.791164">
        <ele>22.5</ele>
        <time>2018-06-16T11:56:21Z</time>
      </trkpt>
      <trkpt lat="43.364273" lon="-1.791194">
        <ele>22.3</ele>
        <time>2018-06-16T11:56:22Z</time>
      </trkpt>
      <trkpt lat="43.364364" lon="-1.791285">
        <ele>23.1</ele>
        <time>2018-06-16T11:56:25Z</time>
      </trkpt>
      <trkpt lat="43.364822" lon="-1.792017">
        <ele>26.5</ele>
        <time>2018-06-16T11:56:44Z</time>
      </trkpt>
      <trkpt lat="43.364958" lon="-1.792168">
        <ele>25.7</ele>
        <time>2018-06-16T11:56:48Z</time>
      </trkpt>
      <trkpt lat="43.365209" lon="-1.792441">
        <ele>22.0</ele>
        <time>2018-06-16T11:56:57Z</time>
      </trkpt>
      <trkpt lat="43.365526" lon="-1.792681">
        <ele>21.7</ele>
        <time>2018-06-16T11:57:06Z</time>
      </trkpt>
      <trkpt lat="43.365571" lon="-1.792681">
        <ele>21.5</ele>
        <time>2018-06-16T11:57:08Z</time>
      </trkpt>
      <trkpt lat="43.365579" lon="-1.792574">
        <ele>21.7</ele>
        <time>2018-06-16T11:57:10Z</time>
      </trkpt>
      <trkpt lat="43.365615" lon="-1.792525">
        <ele>21.9</ele>
        <time>2018-06-16T11:57:11Z</time>
      </trkpt>
      <trkpt lat="43.365661" lon="-1.792515">
        <ele>21.9</ele>
        <time>2018-06-16T11:57:12Z</time>
      </trkpt>
      <trkpt lat="43.365704" lon="-1.792462">
        <ele>22.4</ele>
        <time>2018-06-16T11:57:14Z</time>
      </trkpt>
      <trkpt lat="43.366008" lon="-1.791345">
        <ele>16.5</ele>
        <time>2018-06-16T11:57:37Z</time>
      </trkpt>
      <trkpt lat="43.366066" lon="-1.791184">
        <ele>13.0</ele>
        <time>2018-06-16T11:57:40Z</time>
      </trkpt>
      <trkpt lat="43.366117" lon="-1.791096">
        <ele>10.3</ele>
        <time>2018-06-16T11:57:42Z</time>
      </trkpt>
      <trkpt lat="43.366162" lon="-1.791034">
        <ele>8.7</ele>
        <time>2018-06-16T11:57:44Z</time>
      </trkpt>
      <trkpt lat="43.366345" lon="-1.791124">
        <ele>11.8</ele>
        <time>2018-06-16T11:57:49Z</time>
      </trkpt>
      <trkpt lat="43.367288" lon="-1.791701">
        <ele>12.0</ele>
        <time>2018-06-16T11:58:16Z</time>
      </trkpt>
      <trkpt lat="43.367337" lon="-1.791732">
        <ele>12.5</ele>
        <time>2018-06-16T11:58:18Z</time>
      </trkpt>
      <trkpt lat="43.367379" lon="-1.791775">
        <ele>13.0</ele>
        <time>2018-06-16T11:58:19Z</time>
      </trkpt>
      <trkpt lat="43.367406" lon="-1.791833">
        <ele>13.7</ele>
        <time>2018-06-16T11:58:21Z</time>
      </trkpt>
      <trkpt lat="43.367417" lon="-1.791902">
        <ele>14.7</ele>
        <time>2018-06-16T11:58:22Z</time>
      </trkpt>
      <trkpt lat="43.367414" lon="-1.791975">
        <ele>16.0</ele>
        <time>2018-06-16T11:58:23Z</time>
      </trkpt>
      <trkpt lat="43.367398" lon="-1.792042">
        <ele>17.2</ele>
        <time>2018-06-16T11:58:25Z</time>
      </trkpt>
      <trkpt lat="43.367375" lon="-1.792101">
        <ele>18.1</ele>
        <time>2018-06-16T11:58:26Z</time>
      </trkpt>
      <trkpt lat="43.367353" lon="-1.792157">
        <ele>18.5</ele>
        <time>2018-06-16T11:58:27Z</time>
      </trkpt>
      <trkpt lat="43.367281" lon="-1.792304">
        <ele>20.3</ele>
        <time>2018-06-16T11:58:31Z</time>
      </trkpt>
      <trkpt lat="43.367267" lon="-1.792361">
        <ele>21.4</ele>
        <time>2018-06-16T11:58:32Z</time>
      </trkpt>
      <trkpt lat="43.367261" lon="-1.792401">
        <ele>21.4</ele>
        <time>2018-06-16T11:58:33Z</time>
      </trkpt>
      <trkpt lat="43.367277" lon="-1.792417">
        <ele>21.2</ele>
        <time>2018-06-16T11:58:33Z</time>
      </trkpt>
      <trkpt lat="43.367304" lon="-1.792433">
        <ele>20.9</ele>
        <time>2018-06-16T11:58:34Z</time>
      </trkpt>
      <trkpt lat="43.367569" lon="-1.792471">
        <ele>17.7</ele>
        <time>2018-06-16T11:58:41Z</time>
      </trkpt>
      <trkpt lat="43.367608" lon="-1.792455">
        <ele>17.1</ele>
        <time>2018-06-16T11:58:42Z</time>
      </trkpt>
      <trkpt lat="43.367630" lon="-1.792404">
        <ele>16.4</ele>
        <time>2018-06-16T11:58:43Z</time>
      </trkpt>
      <trkpt lat="43.367683" lon="-1.792178">
        <ele>16.3</ele>
        <time>2018-06-16T11:58:48Z</time>
      </trkpt>
      <trkpt lat="43.367720" lon="-1.792178">
        <ele>16.1</ele>
        <time>2018-06-16T11:58:49Z</time>
      </trkpt>
      <trkpt lat="43.368117" lon="-1.792299">
        <ele>11.4</ele>
        <time>2018-06-16T11:59:00Z</time>
      </trkpt>
      <trkpt lat="43.369130" lon="-1.792665">
        <ele>3.9</ele>
        <time>2018-06-16T11:59:27Z</time>
      </trkpt>
      <trkpt lat="43.369962" lon="-1.792930">
        <ele>5.1</ele>
        <time>2018-06-16T11:59:50Z</time>
      </trkpt>
      <trkpt lat="43.370889" lon="-1.793249">
        <ele>9.0</ele>
        <time>2018-06-16T12:00:15Z</time>
      </trkpt>
      <trkpt lat="43.371396" lon="-1.793419">
        <ele>6.4</ele>
        <time>2018-06-16T12:00:29Z</time>
      </trkpt>
      <trkpt lat="43.371434" lon="-1.793448">
        <ele>6.7</ele>
        <time>2018-06-16T12:00:30Z</time>
      </trkpt>
      <trkpt lat="43.371469" lon="-1.793487">
        <ele>7.4</ele>
        <time>2018-06-16T12:00:31Z</time>
      </trkpt>
      <trkpt lat="43.371507" lon="-1.793526">
        <ele>8.5</ele>
        <time>2018-06-16T12:00:32Z</time>
      </trkpt>
      <trkpt lat="43.371545" lon="-1.793557">
        <ele>9.8</ele>
        <time>2018-06-16T12:00:34Z</time>
      </trkpt>
      <trkpt lat="43.371591" lon="-1.793578">
        <ele>11.1</ele>
        <time>2018-06-16T12:00:35Z</time>
      </trkpt>
      <trkpt lat="43.371640" lon="-1.793594">
        <ele>12.0</ele>
        <time>2018-06-16T12:00:36Z</time>
      </trkpt>
      <trkpt lat="43.371831" lon="-1.793655">
        <ele>14.6</ele>
        <time>2018-06-16T12:00:42Z</time>
      </trkpt>
      <trkpt lat="43.372235" lon="-1.793735">
        <ele>14.7</ele>
        <time>2018-06-16T12:00:52Z</time>
      </trkpt>
      <trkpt lat="43.372266" lon="-1.793767">
        <ele>14.7</ele>
        <time>2018-06-16T12:00:53Z</time>
      </trkpt>
      <trkpt lat="43.372285" lon="-1.793816">
        <ele>14.7</ele>
        <time>2018-06-16T12:00:54Z</time>
      </trkpt>
      <trkpt lat="43.372289" lon="-1.793872">
        <ele>14.9</ele>
        <time>2018-06-16T12:00:55Z</time>
      </trkpt>
      <trkpt lat="43.372281" lon="-1.793936">
        <ele>15.2</ele>
        <time>2018-06-16T12:00:57Z</time>
      </trkpt>
      <trkpt lat="43.372270" lon="-1.794009">
        <ele>15.6</ele>
        <time>2018-06-16T12:00:58Z</time>
      </trkpt>
      <trkpt lat="43.372270" lon="-1.794084">
        <ele>15.8</ele>
        <time>2018-06-16T12:01:00Z</time>
      </trkpt>
      <trkpt lat="43.372281" lon="-1.794157">
        <ele>15.8</ele>
        <time>2018-06-16T12:01:01Z</time>
      </trkpt>
      <trkpt lat="43.372300" lon="-1.794229">
        <ele>15.6</ele>
        <time>2018-06-16T12:01:02Z</time>
      </trkpt>
      <trkpt lat="43.372327" lon="-1.794298">
        <ele>15.0</ele>
        <time>2018-06-16T12:01:04Z</time>
      </trkpt>
      <trkpt lat="43.372361" lon="-1.794363">
        <ele>14.0</ele>
        <time>2018-06-16T12:01:06Z</time>
      </trkpt>
      <trkpt lat="43.372933" lon="-1.795261">
        <ele>14.6</ele>
        <time>2018-06-16T12:01:28Z</time>
      </trkpt>
      <trkpt lat="43.373456" lon="-1.795984">
        <ele>15.2</ele>
        <time>2018-06-16T12:01:48Z</time>
      </trkpt>
      <trkpt lat="43.373506" lon="-1.796024">
        <ele>15.8</ele>
        <time>2018-06-16T12:01:49Z</time>
      </trkpt>
      <trkpt lat="43.373715" lon="-1.796163">
        <ele>18.4</ele>
        <time>2018-06-16T12:01:56Z</time>
      </trkpt>
      <trkpt lat="43.374558" lon="-1.796425">
        <ele>14.3</ele>
        <time>2018-06-16T12:02:18Z</time>
      </trkpt>
      <trkpt lat="43.374909" lon="-1.796724">
        <ele>12.7</ele>
        <time>2018-06-16T12:02:29Z</time>
      </trkpt>
      <trkpt lat="43.374959" lon="-1.796741">
        <ele>12.7</ele>
        <time>2018-06-16T12:02:31Z</time>
      </trkpt>
      <trkpt lat="43.375012" lon="-1.796746">
        <ele>12.7</ele>
        <time>2018-06-16T12:02:32Z</time>
      </trkpt>
      <trkpt lat="43.375062" lon="-1.796748">
        <ele>12.6</ele>
        <time>2018-06-16T12:02:33Z</time>
      </trkpt>
      <trkpt lat="43.375112" lon="-1.796760">
        <ele>12.7</ele>
        <time>2018-06-16T12:02:35Z</time>
      </trkpt>
      <trkpt lat="43.375157" lon="-1.796787">
        <ele>12.8</ele>
        <time>2018-06-16T12:02:36Z</time>
      </trkpt>
      <trkpt lat="43.375199" lon="-1.796825">
        <ele>13.0</ele>
        <time>2018-06-16T12:02:37Z</time>
      </trkpt>
      <trkpt lat="43.375234" lon="-1.796874">
        <ele>13.1</ele>
        <time>2018-06-16T12:02:39Z</time>
      </trkpt>
      <trkpt lat="43.375264" lon="-1.796930">
        <ele>13.3</ele>
        <time>2018-06-16T12:02:40Z</time>
      </trkpt>
      <trkpt lat="43.375283" lon="-1.796990">
        <ele>13.4</ele>
        <time>2018-06-16T12:02:41Z</time>
      </trkpt>
      <trkpt lat="43.375306" lon="-1.797050">
        <ele>13.5</ele>
        <time>2018-06-16T12:02:43Z</time>
      </trkpt>
      <trkpt lat="43.375341" lon="-1.797103">
        <ele>13.2</ele>
        <time>2018-06-16T12:02:44Z</time>
      </trkpt>
      <trkpt lat="43.375382" lon="-1.797143">
        <ele>12.9</ele>
        <time>2018-06-16T12:02:45Z</time>
      </trkpt>
      <trkpt lat="43.375428" lon="-1.797174">
        <ele>12.6</ele>
        <time>2018-06-16T12:02:47Z</time>
      </trkpt>
      <trkpt lat="43.375482" lon="-1.797196">
        <ele>12.6</ele>
        <time>2018-06-16T12:02:48Z</time>
      </trkpt>
      <trkpt lat="43.375531" lon="-1.797209">
        <ele>12.5</ele>
        <time>2018-06-16T12:02:49Z</time>
      </trkpt>
      <trkpt lat="43.375585" lon="-1.797219">
        <ele>12.4</ele>
        <time>2018-06-16T12:02:51Z</time>
      </trkpt>
      <trkpt lat="43.376180" lon="-1.797231">
        <ele>12.4</ele>
        <time>2018-06-16T12:03:07Z</time>
      </trkpt>
      <trkpt lat="43.376241" lon="-1.797242">
        <ele>12.3</ele>
        <time>2018-06-16T12:03:08Z</time>
      </trkpt>
      <trkpt lat="43.376996" lon="-1.797585">
        <ele>12.9</ele>
        <time>2018-06-16T12:03:29Z</time>
      </trkpt>
      <trkpt lat="43.377095" lon="-1.797637">
        <ele>13.0</ele>
        <time>2018-06-16T12:03:32Z</time>
      </trkpt>
      <trkpt lat="43.377124" lon="-1.797650">
        <ele>13.0</ele>
        <time>2018-06-16T12:03:33Z</time>
      </trkpt>
      <trkpt lat="43.377170" lon="-1.797653">
        <ele>13.0</ele>
        <time>2018-06-16T12:03:34Z</time>
      </trkpt>
      <trkpt lat="43.377353" lon="-1.797717">
        <ele>13.8</ele>
        <time>2018-06-16T12:03:39Z</time>
      </trkpt>
      <trkpt lat="43.378438" lon="-1.797932">
        <ele>28.8</ele>
        <time>2018-06-16T12:04:08Z</time>
      </trkpt>
      <trkpt lat="43.379010" lon="-1.798032">
        <ele>18.3</ele>
        <time>2018-06-16T12:04:24Z</time>
      </trkpt>
      <trkpt lat="43.379356" lon="-1.797623">
        <ele>9.6</ele>
        <time>2018-06-16T12:04:36Z</time>
      </trkpt>
      <trkpt lat="43.379422" lon="-1.797498">
        <ele>8.8</ele>
        <time>2018-06-16T12:04:39Z</time>
      </trkpt>
      <trkpt lat="43.379398" lon="-1.797406">
        <ele>8.5</ele>
        <time>2018-06-16T12:04:41Z</time>
      </trkpt>
      <trkpt lat="43.378848" lon="-1.796491">
        <ele>7.8</ele>
        <time>2018-06-16T12:05:03Z</time>
      </trkpt>
      <trkpt lat="43.378711" lon="-1.796247">
        <ele>7.1</ele>
        <time>2018-06-16T12:05:09Z</time>
      </trkpt>
      <trkpt lat="43.378664" lon="-1.796093">
        <ele>7.5</ele>
        <time>2018-06-16T12:05:12Z</time>
      </trkpt>
      <trkpt lat="43.378618" lon="-1.795971">
        <ele>7.5</ele>
        <time>2018-06-16T12:05:15Z</time>
      </trkpt>
      <trkpt lat="43.378592" lon="-1.795927">
        <ele>7.4</ele>
        <time>2018-06-16T12:05:16Z</time>
      </trkpt>
      <trkpt lat="43.378557" lon="-1.795916">
        <ele>7.3</ele>
        <time>2018-06-16T12:05:17Z</time>
      </trkpt>
      <trkpt lat="43.378483" lon="-1.795943">
        <ele>7.0</ele>
        <time>2018-06-16T12:05:19Z</time>
      </trkpt>
      <trkpt lat="43.378206" lon="-1.796151">
        <ele>6.3</ele>
        <time>2018-06-16T12:05:27Z</time>
      </trkpt>
      <trkpt lat="43.378160" lon="-1.796151">
        <ele>6.6</ele>
        <time>2018-06-16T12:05:29Z</time>
      </trkpt>
      <trkpt lat="43.378093" lon="-1.796102">
        <ele>6.8</ele>
        <time>2018-06-16T12:05:31Z</time>
      </trkpt>
      <trkpt lat="43.378057" lon="-1.796105">
        <ele>7.2</ele>
        <time>2018-06-16T12:05:32Z</time>
      </trkpt>
      <trkpt lat="43.378015" lon="-1.796108">
        <ele>7.6</ele>
        <time>2018-06-16T12:05:33Z</time>
      </trkpt>
      <trkpt lat="43.377232" lon="-1.796660">
        <ele>11.2</ele>
        <time>2018-06-16T12:05:56Z</time>
      </trkpt>
      <trkpt lat="43.377161" lon="-1.796671">
        <ele>11.4</ele>
        <time>2018-06-16T12:05:58Z</time>
      </trkpt>
      <trkpt lat="43.377091" lon="-1.796655">
        <ele>11.4</ele>
        <time>2018-06-16T12:06:00Z</time>
      </trkpt>
      <trkpt lat="43.376775" lon="-1.796542">
        <ele>7.8</ele>
        <time>2018-06-16T12:06:08Z</time>
      </trkpt>
      <trkpt lat="43.376561" lon="-1.796474">
        <ele>10.4</ele>
        <time>2018-06-16T12:06:14Z</time>
      </trkpt>
    </trkseg>
  </trk>
</gpx>
